<?xml version="1.0" encoding="UTF-8" standalone="no" ?>
<gpx xmlns="http://www.topografix.com/GPX/1/1" xmlns:xsi="http://www.w3.org/2001/XMLSchema-instance" xsi:schemaLocation="http://www.topografix.com/GPX/1/1 http://www.topografix.com/GPX/1/1/gpx.xsd" version="1.1" creator="VisuGPX - https://www.visugpx.com">
  <metadata>
    <name>Rando interne</name>
  </metadata>
  <trk>
    <name><![CDATA[Rando interne_1]]></name>
    <trkseg>
      <trkpt lat="47.30278" lon="-1.39152">
        <ele>61</ele>
        <time>2020-12-06T07:34:30.997000+00:00</time>
      </trkpt>
      <trkpt lat="0" lon="0">
        <time>2020-12-06T07:34:31.014000+00:00</time>
      </trkpt>
      <trkpt lat="0" lon="0">
        <time>2020-12-06T07:34:31.020000+00:00</time>
      </trkpt>
      <trkpt lat="0" lon="0">
        <time>2020-12-06T07:34:31.022000+00:00</time>
      </trkpt>
      <trkpt lat="47.30279" lon="-1.39154">
        <ele>61</ele>
        <time>2020-12-06T07:34:32.005000+00:00</time>
      </trkpt>
      <trkpt lat="0" lon="0">
        <time>2020-12-06T07:34:32.023000+00:00</time>
      </trkpt>
      <trkpt lat="0" lon="0">
        <time>2020-12-06T07:34:32.027000+00:00</time>
      </trkpt>
      <trkpt lat="0" lon="0">
        <time>2020-12-06T07:34:32.029000+00:00</time>
      </trkpt>
      <trkpt lat="47.30279" lon="-1.39155">
        <ele>61</ele>
        <time>2020-12-06T07:34:33.018000+00:00</time>
      </trkpt>
      <trkpt lat="0" lon="0">
        <time>2020-12-06T07:34:33.026000+00:00</time>
      </trkpt>
      <trkpt lat="0" lon="0">
        <time>2020-12-06T07:34:33.035000+00:00</time>
      </trkpt>
      <trkpt lat="0" lon="0">
        <time>2020-12-06T07:34:33.037000+00:00</time>
      </trkpt>
      <trkpt lat="47.3028" lon="-1.39156">
        <ele>61</ele>
        <time>2020-12-06T07:34:34.011000+00:00</time>
      </trkpt>
      <trkpt lat="0" lon="0">
        <time>2020-12-06T07:34:34.018000+00:00</time>
      </trkpt>
      <trkpt lat="0" lon="0">
        <time>2020-12-06T07:34:34.024000+00:00</time>
      </trkpt>
      <trkpt lat="0" lon="0">
        <time>2020-12-06T07:34:34.030000+00:00</time>
      </trkpt>
      <trkpt lat="47.30281" lon="-1.39157">
        <ele>61</ele>
        <time>2020-12-06T07:34:35.036000+00:00</time>
      </trkpt>
      <trkpt lat="0" lon="0">
        <time>2020-12-06T07:34:35.044000+00:00</time>
      </trkpt>
      <trkpt lat="0" lon="0">
        <time>2020-12-06T07:34:35.055000+00:00</time>
      </trkpt>
      <trkpt lat="0" lon="0">
        <time>2020-12-06T07:34:35.057000+00:00</time>
      </trkpt>
      <trkpt lat="47.30281" lon="-1.39157">
        <ele>61</ele>
        <time>2020-12-06T07:34:36.027000+00:00</time>
      </trkpt>
      <trkpt lat="0" lon="0">
        <time>2020-12-06T07:34:36.046000+00:00</time>
      </trkpt>
      <trkpt lat="0" lon="0">
        <time>2020-12-06T07:34:36.050000+00:00</time>
      </trkpt>
      <trkpt lat="0" lon="0">
        <time>2020-12-06T07:34:36.073000+00:00</time>
      </trkpt>
      <trkpt lat="47.30302" lon="-1.39153">
        <ele>61</ele>
        <time>2020-12-06T07:34:37.011000+00:00</time>
      </trkpt>
      <trkpt lat="0" lon="0">
        <time>2020-12-06T07:34:37.016000+00:00</time>
      </trkpt>
      <trkpt lat="0" lon="0">
        <time>2020-12-06T07:34:37.028000+00:00</time>
      </trkpt>
      <trkpt lat="0" lon="0">
        <time>2020-12-06T07:34:37.029000+00:00</time>
      </trkpt>
      <trkpt lat="47.30304" lon="-1.39148">
        <ele>61</ele>
        <time>2020-12-06T07:34:38.080000+00:00</time>
      </trkpt>
      <trkpt lat="0" lon="0">
        <time>2020-12-06T07:34:38.092000+00:00</time>
      </trkpt>
      <trkpt lat="0" lon="0">
        <time>2020-12-06T07:34:38.097000+00:00</time>
      </trkpt>
      <trkpt lat="0" lon="0">
        <time>2020-12-06T07:34:38.099000+00:00</time>
      </trkpt>
      <trkpt lat="47.30306" lon="-1.39143">
        <ele>61</ele>
        <time>2020-12-06T07:34:39.065000+00:00</time>
      </trkpt>
      <trkpt lat="0" lon="0">
        <time>2020-12-06T07:34:39.071000+00:00</time>
      </trkpt>
      <trkpt lat="0" lon="0">
        <time>2020-12-06T07:34:39.076000+00:00</time>
      </trkpt>
      <trkpt lat="0" lon="0">
        <time>2020-12-06T07:34:39.078000+00:00</time>
      </trkpt>
      <trkpt lat="47.30308" lon="-1.39137">
        <ele>62</ele>
        <time>2020-12-06T07:34:40.089000+00:00</time>
      </trkpt>
      <trkpt lat="0" lon="0">
        <time>2020-12-06T07:34:40.105000+00:00</time>
      </trkpt>
      <trkpt lat="0" lon="0">
        <time>2020-12-06T07:34:40.123000+00:00</time>
      </trkpt>
      <trkpt lat="0" lon="0">
        <time>2020-12-06T07:34:40.125000+00:00</time>
      </trkpt>
      <trkpt lat="47.3031" lon="-1.39131">
        <ele>62</ele>
        <time>2020-12-06T07:34:41.085000+00:00</time>
      </trkpt>
      <trkpt lat="0" lon="0">
        <time>2020-12-06T07:34:41.093000+00:00</time>
      </trkpt>
      <trkpt lat="0" lon="0">
        <time>2020-12-06T07:34:41.104000+00:00</time>
      </trkpt>
      <trkpt lat="0" lon="0">
        <time>2020-12-06T07:34:41.106000+00:00</time>
      </trkpt>
      <trkpt lat="47.30312" lon="-1.39124">
        <ele>62</ele>
        <time>2020-12-06T07:34:42.086000+00:00</time>
      </trkpt>
      <trkpt lat="0" lon="0">
        <time>2020-12-06T07:34:42.101000+00:00</time>
      </trkpt>
      <trkpt lat="0" lon="0">
        <time>2020-12-06T07:34:42.109000+00:00</time>
      </trkpt>
      <trkpt lat="0" lon="0">
        <time>2020-12-06T07:34:42.119000+00:00</time>
      </trkpt>
      <trkpt lat="47.30314" lon="-1.39118">
        <ele>62</ele>
        <time>2020-12-06T07:34:43.104000+00:00</time>
      </trkpt>
      <trkpt lat="0" lon="0">
        <time>2020-12-06T07:34:43.118000+00:00</time>
      </trkpt>
      <trkpt lat="0" lon="0">
        <time>2020-12-06T07:34:43.129000+00:00</time>
      </trkpt>
      <trkpt lat="0" lon="0">
        <time>2020-12-06T07:34:43.136000+00:00</time>
      </trkpt>
      <trkpt lat="47.30316" lon="-1.3911">
        <ele>62</ele>
        <time>2020-12-06T07:34:44.080000+00:00</time>
      </trkpt>
      <trkpt lat="0" lon="0">
        <time>2020-12-06T07:34:44.091000+00:00</time>
      </trkpt>
      <trkpt lat="0" lon="0">
        <time>2020-12-06T07:34:44.095000+00:00</time>
      </trkpt>
      <trkpt lat="0" lon="0">
        <time>2020-12-06T07:34:44.097000+00:00</time>
      </trkpt>
      <trkpt lat="47.30318" lon="-1.39103">
        <ele>62</ele>
        <time>2020-12-06T07:34:45.065000+00:00</time>
      </trkpt>
      <trkpt lat="0" lon="0">
        <time>2020-12-06T07:34:45.078000+00:00</time>
      </trkpt>
      <trkpt lat="0" lon="0">
        <time>2020-12-06T07:34:45.086000+00:00</time>
      </trkpt>
      <trkpt lat="0" lon="0">
        <time>2020-12-06T07:34:45.089000+00:00</time>
      </trkpt>
      <trkpt lat="47.3032" lon="-1.39096">
        <ele>62</ele>
        <time>2020-12-06T07:34:46.082000+00:00</time>
      </trkpt>
      <trkpt lat="0" lon="0">
        <time>2020-12-06T07:34:46.093000+00:00</time>
      </trkpt>
      <trkpt lat="0" lon="0">
        <time>2020-12-06T07:34:46.098000+00:00</time>
      </trkpt>
      <trkpt lat="0" lon="0">
        <time>2020-12-06T07:34:46.102000+00:00</time>
      </trkpt>
      <trkpt lat="47.30322" lon="-1.39088">
        <ele>63</ele>
        <time>2020-12-06T07:34:47.105000+00:00</time>
      </trkpt>
      <trkpt lat="0" lon="0">
        <time>2020-12-06T07:34:47.113000+00:00</time>
      </trkpt>
      <trkpt lat="0" lon="0">
        <time>2020-12-06T07:34:47.131000+00:00</time>
      </trkpt>
      <trkpt lat="0" lon="0">
        <time>2020-12-06T07:34:47.133000+00:00</time>
      </trkpt>
      <trkpt lat="47.30325" lon="-1.3908">
        <ele>63</ele>
        <time>2020-12-06T07:34:48.062000+00:00</time>
      </trkpt>
      <trkpt lat="0" lon="0">
        <time>2020-12-06T07:34:48.072000+00:00</time>
      </trkpt>
      <trkpt lat="0" lon="0">
        <time>2020-12-06T07:34:48.077000+00:00</time>
      </trkpt>
      <trkpt lat="0" lon="0">
        <time>2020-12-06T07:34:48.081000+00:00</time>
      </trkpt>
      <trkpt lat="47.30327" lon="-1.39073">
        <ele>63</ele>
        <time>2020-12-06T07:34:49.017000+00:00</time>
      </trkpt>
      <trkpt lat="0" lon="0">
        <time>2020-12-06T07:34:49.030000+00:00</time>
      </trkpt>
      <trkpt lat="0" lon="0">
        <time>2020-12-06T07:34:49.040000+00:00</time>
      </trkpt>
      <trkpt lat="0" lon="0">
        <time>2020-12-06T07:34:49.044000+00:00</time>
      </trkpt>
      <trkpt lat="47.30329" lon="-1.39065">
        <ele>63</ele>
        <time>2020-12-06T07:34:50.031000+00:00</time>
      </trkpt>
      <trkpt lat="0" lon="0">
        <time>2020-12-06T07:34:50.036000+00:00</time>
      </trkpt>
      <trkpt lat="0" lon="0">
        <time>2020-12-06T07:34:50.040000+00:00</time>
      </trkpt>
      <trkpt lat="0" lon="0">
        <time>2020-12-06T07:34:50.049000+00:00</time>
      </trkpt>
      <trkpt lat="47.30332" lon="-1.39058">
        <ele>64</ele>
        <time>2020-12-06T07:34:50.992000+00:00</time>
      </trkpt>
      <trkpt lat="0" lon="0">
        <time>2020-12-06T07:34:50.997000+00:00</time>
      </trkpt>
      <trkpt lat="0" lon="0">
        <time>2020-12-06T07:34:50.999000+00:00</time>
      </trkpt>
      <trkpt lat="47.30335" lon="-1.39051">
        <ele>64</ele>
        <time>2020-12-06T07:34:52.059000+00:00</time>
      </trkpt>
      <trkpt lat="0" lon="0">
        <time>2020-12-06T07:34:52.072000+00:00</time>
      </trkpt>
      <trkpt lat="0" lon="0">
        <time>2020-12-06T07:34:52.078000+00:00</time>
      </trkpt>
      <trkpt lat="0" lon="0">
        <time>2020-12-06T07:34:52.082000+00:00</time>
      </trkpt>
      <trkpt lat="47.30338" lon="-1.39044">
        <ele>65</ele>
        <time>2020-12-06T07:34:53.105000+00:00</time>
      </trkpt>
      <trkpt lat="0" lon="0">
        <time>2020-12-06T07:34:53.120000+00:00</time>
      </trkpt>
      <trkpt lat="0" lon="0">
        <time>2020-12-06T07:34:53.130000+00:00</time>
      </trkpt>
      <trkpt lat="0" lon="0">
        <time>2020-12-06T07:34:53.132000+00:00</time>
      </trkpt>
      <trkpt lat="47.30341" lon="-1.39037">
        <ele>65</ele>
        <time>2020-12-06T07:34:54.072000+00:00</time>
      </trkpt>
      <trkpt lat="0" lon="0">
        <time>2020-12-06T07:34:54.081000+00:00</time>
      </trkpt>
      <trkpt lat="0" lon="0">
        <time>2020-12-06T07:34:54.086000+00:00</time>
      </trkpt>
      <trkpt lat="0" lon="0">
        <time>2020-12-06T07:34:54.088000+00:00</time>
      </trkpt>
      <trkpt lat="47.30345" lon="-1.39031">
        <ele>65</ele>
        <time>2020-12-06T07:34:55.089000+00:00</time>
      </trkpt>
      <trkpt lat="0" lon="0">
        <time>2020-12-06T07:34:55.103000+00:00</time>
      </trkpt>
      <trkpt lat="0" lon="0">
        <time>2020-12-06T07:34:55.107000+00:00</time>
      </trkpt>
      <trkpt lat="0" lon="0">
        <time>2020-12-06T07:34:55.109000+00:00</time>
      </trkpt>
      <trkpt lat="47.30348" lon="-1.39025">
        <ele>66</ele>
        <time>2020-12-06T07:34:56.106000+00:00</time>
      </trkpt>
      <trkpt lat="0" lon="0">
        <time>2020-12-06T07:34:56.129000+00:00</time>
      </trkpt>
      <trkpt lat="0" lon="0">
        <time>2020-12-06T07:34:56.132000+00:00</time>
      </trkpt>
      <trkpt lat="0" lon="0">
        <time>2020-12-06T07:34:56.135000+00:00</time>
      </trkpt>
      <trkpt lat="47.30352" lon="-1.39019">
        <ele>66</ele>
        <time>2020-12-06T07:34:57.084000+00:00</time>
      </trkpt>
      <trkpt lat="0" lon="0">
        <time>2020-12-06T07:34:57.095000+00:00</time>
      </trkpt>
      <trkpt lat="0" lon="0">
        <time>2020-12-06T07:34:57.100000+00:00</time>
      </trkpt>
      <trkpt lat="0" lon="0">
        <time>2020-12-06T07:34:57.103000+00:00</time>
      </trkpt>
      <trkpt lat="47.30356" lon="-1.39013">
        <ele>66</ele>
        <time>2020-12-06T07:34:58.106000+00:00</time>
      </trkpt>
      <trkpt lat="0" lon="0">
        <time>2020-12-06T07:34:58.111000+00:00</time>
      </trkpt>
      <trkpt lat="0" lon="0">
        <time>2020-12-06T07:34:58.117000+00:00</time>
      </trkpt>
      <trkpt lat="0" lon="0">
        <time>2020-12-06T07:34:58.120000+00:00</time>
      </trkpt>
      <trkpt lat="47.30359" lon="-1.39007">
        <ele>67</ele>
        <time>2020-12-06T07:34:59.087000+00:00</time>
      </trkpt>
      <trkpt lat="0" lon="0">
        <time>2020-12-06T07:34:59.093000+00:00</time>
      </trkpt>
      <trkpt lat="0" lon="0">
        <time>2020-12-06T07:34:59.105000+00:00</time>
      </trkpt>
      <trkpt lat="0" lon="0">
        <time>2020-12-06T07:34:59.110000+00:00</time>
      </trkpt>
      <trkpt lat="47.30363" lon="-1.39002">
        <ele>67</ele>
        <time>2020-12-06T07:35:00.091000+00:00</time>
      </trkpt>
      <trkpt lat="0" lon="0">
        <time>2020-12-06T07:35:00.105000+00:00</time>
      </trkpt>
      <trkpt lat="0" lon="0">
        <time>2020-12-06T07:35:00.111000+00:00</time>
      </trkpt>
      <trkpt lat="0" lon="0">
        <time>2020-12-06T07:35:00.112000+00:00</time>
      </trkpt>
      <trkpt lat="47.30366" lon="-1.38996">
        <ele>67</ele>
        <time>2020-12-06T07:35:01.104000+00:00</time>
      </trkpt>
      <trkpt lat="0" lon="0">
        <time>2020-12-06T07:35:01.110000+00:00</time>
      </trkpt>
      <trkpt lat="0" lon="0">
        <time>2020-12-06T07:35:01.119000+00:00</time>
      </trkpt>
      <trkpt lat="0" lon="0">
        <time>2020-12-06T07:35:01.121000+00:00</time>
      </trkpt>
      <trkpt lat="47.3037" lon="-1.38991">
        <ele>67</ele>
        <time>2020-12-06T07:35:02.115000+00:00</time>
      </trkpt>
      <trkpt lat="0" lon="0">
        <time>2020-12-06T07:35:02.126000+00:00</time>
      </trkpt>
      <trkpt lat="0" lon="0">
        <time>2020-12-06T07:35:02.133000+00:00</time>
      </trkpt>
      <trkpt lat="0" lon="0">
        <time>2020-12-06T07:35:02.137000+00:00</time>
      </trkpt>
      <trkpt lat="47.30373" lon="-1.38986">
        <ele>67</ele>
        <time>2020-12-06T07:35:03.057000+00:00</time>
      </trkpt>
      <trkpt lat="0" lon="0">
        <time>2020-12-06T07:35:03.064000+00:00</time>
      </trkpt>
      <trkpt lat="0" lon="0">
        <time>2020-12-06T07:35:03.073000+00:00</time>
      </trkpt>
      <trkpt lat="0" lon="0">
        <time>2020-12-06T07:35:03.075000+00:00</time>
      </trkpt>
      <trkpt lat="47.30377" lon="-1.3898">
        <ele>67</ele>
        <time>2020-12-06T07:35:04.083000+00:00</time>
      </trkpt>
      <trkpt lat="0" lon="0">
        <time>2020-12-06T07:35:04.101000+00:00</time>
      </trkpt>
      <trkpt lat="0" lon="0">
        <time>2020-12-06T07:35:04.109000+00:00</time>
      </trkpt>
      <trkpt lat="0" lon="0">
        <time>2020-12-06T07:35:04.111000+00:00</time>
      </trkpt>
      <trkpt lat="47.3038" lon="-1.38975">
        <ele>67</ele>
        <time>2020-12-06T07:35:05.100000+00:00</time>
      </trkpt>
      <trkpt lat="0" lon="0">
        <time>2020-12-06T07:35:05.115000+00:00</time>
      </trkpt>
      <trkpt lat="0" lon="0">
        <time>2020-12-06T07:35:05.125000+00:00</time>
      </trkpt>
      <trkpt lat="0" lon="0">
        <time>2020-12-06T07:35:05.127000+00:00</time>
      </trkpt>
      <trkpt lat="47.30384" lon="-1.38969">
        <ele>67</ele>
        <time>2020-12-06T07:35:06.089000+00:00</time>
      </trkpt>
      <trkpt lat="0" lon="0">
        <time>2020-12-06T07:35:06.097000+00:00</time>
      </trkpt>
      <trkpt lat="0" lon="0">
        <time>2020-12-06T07:35:06.102000+00:00</time>
      </trkpt>
      <trkpt lat="0" lon="0">
        <time>2020-12-06T07:35:06.104000+00:00</time>
      </trkpt>
      <trkpt lat="47.30388" lon="-1.38963">
        <ele>67</ele>
        <time>2020-12-06T07:35:07.074000+00:00</time>
      </trkpt>
      <trkpt lat="0" lon="0">
        <time>2020-12-06T07:35:07.082000+00:00</time>
      </trkpt>
      <trkpt lat="0" lon="0">
        <time>2020-12-06T07:35:07.103000+00:00</time>
      </trkpt>
      <trkpt lat="0" lon="0">
        <time>2020-12-06T07:35:07.105000+00:00</time>
      </trkpt>
      <trkpt lat="47.30392" lon="-1.38958">
        <ele>67</ele>
        <time>2020-12-06T07:35:08.068000+00:00</time>
      </trkpt>
      <trkpt lat="0" lon="0">
        <time>2020-12-06T07:35:08.073000+00:00</time>
      </trkpt>
      <trkpt lat="0" lon="0">
        <time>2020-12-06T07:35:08.083000+00:00</time>
      </trkpt>
      <trkpt lat="0" lon="0">
        <time>2020-12-06T07:35:08.086000+00:00</time>
      </trkpt>
      <trkpt lat="47.30395" lon="-1.38952">
        <ele>67</ele>
        <time>2020-12-06T07:35:09.094000+00:00</time>
      </trkpt>
      <trkpt lat="0" lon="0">
        <time>2020-12-06T07:35:09.114000+00:00</time>
      </trkpt>
      <trkpt lat="0" lon="0">
        <time>2020-12-06T07:35:09.119000+00:00</time>
      </trkpt>
      <trkpt lat="0" lon="0">
        <time>2020-12-06T07:35:09.122000+00:00</time>
      </trkpt>
      <trkpt lat="47.30399" lon="-1.38946">
        <ele>67</ele>
        <time>2020-12-06T07:35:10.094000+00:00</time>
      </trkpt>
      <trkpt lat="0" lon="0">
        <time>2020-12-06T07:35:10.101000+00:00</time>
      </trkpt>
      <trkpt lat="0" lon="0">
        <time>2020-12-06T07:35:10.107000+00:00</time>
      </trkpt>
      <trkpt lat="0" lon="0">
        <time>2020-12-06T07:35:10.110000+00:00</time>
      </trkpt>
      <trkpt lat="47.30403" lon="-1.3894">
        <ele>67</ele>
        <time>2020-12-06T07:35:11.057000+00:00</time>
      </trkpt>
      <trkpt lat="0" lon="0">
        <time>2020-12-06T07:35:11.068000+00:00</time>
      </trkpt>
      <trkpt lat="0" lon="0">
        <time>2020-12-06T07:35:11.083000+00:00</time>
      </trkpt>
      <trkpt lat="0" lon="0">
        <time>2020-12-06T07:35:11.085000+00:00</time>
      </trkpt>
      <trkpt lat="47.30407" lon="-1.38933">
        <ele>67</ele>
        <time>2020-12-06T07:35:12.076000+00:00</time>
      </trkpt>
      <trkpt lat="0" lon="0">
        <time>2020-12-06T07:35:12.090000+00:00</time>
      </trkpt>
      <trkpt lat="0" lon="0">
        <time>2020-12-06T07:35:12.101000+00:00</time>
      </trkpt>
      <trkpt lat="0" lon="0">
        <time>2020-12-06T07:35:12.105000+00:00</time>
      </trkpt>
      <trkpt lat="47.3041" lon="-1.38927">
        <ele>67</ele>
        <time>2020-12-06T07:35:13.099000+00:00</time>
      </trkpt>
      <trkpt lat="0" lon="0">
        <time>2020-12-06T07:35:13.105000+00:00</time>
      </trkpt>
      <trkpt lat="0" lon="0">
        <time>2020-12-06T07:35:13.109000+00:00</time>
      </trkpt>
      <trkpt lat="0" lon="0">
        <time>2020-12-06T07:35:13.114000+00:00</time>
      </trkpt>
      <trkpt lat="47.30414" lon="-1.38921">
        <ele>67</ele>
        <time>2020-12-06T07:35:14.100000+00:00</time>
      </trkpt>
      <trkpt lat="0" lon="0">
        <time>2020-12-06T07:35:14.119000+00:00</time>
      </trkpt>
      <trkpt lat="0" lon="0">
        <time>2020-12-06T07:35:14.126000+00:00</time>
      </trkpt>
      <trkpt lat="0" lon="0">
        <time>2020-12-06T07:35:14.132000+00:00</time>
      </trkpt>
      <trkpt lat="47.30418" lon="-1.38915">
        <ele>67</ele>
        <time>2020-12-06T07:35:15.104000+00:00</time>
      </trkpt>
      <trkpt lat="0" lon="0">
        <time>2020-12-06T07:35:15.107000+00:00</time>
      </trkpt>
      <trkpt lat="0" lon="0">
        <time>2020-12-06T07:35:15.117000+00:00</time>
      </trkpt>
      <trkpt lat="0" lon="0">
        <time>2020-12-06T07:35:15.121000+00:00</time>
      </trkpt>
      <trkpt lat="47.30421" lon="-1.38909">
        <ele>67</ele>
        <time>2020-12-06T07:35:16.107000+00:00</time>
      </trkpt>
      <trkpt lat="0" lon="0">
        <time>2020-12-06T07:35:16.120000+00:00</time>
      </trkpt>
      <trkpt lat="0" lon="0">
        <time>2020-12-06T07:35:16.123000+00:00</time>
      </trkpt>
      <trkpt lat="0" lon="0">
        <time>2020-12-06T07:35:16.126000+00:00</time>
      </trkpt>
      <trkpt lat="47.30424" lon="-1.38904">
        <ele>68</ele>
        <time>2020-12-06T07:35:17.108000+00:00</time>
      </trkpt>
      <trkpt lat="0" lon="0">
        <time>2020-12-06T07:35:17.113000+00:00</time>
      </trkpt>
      <trkpt lat="0" lon="0">
        <time>2020-12-06T07:35:17.115000+00:00</time>
      </trkpt>
      <trkpt lat="0" lon="0">
        <time>2020-12-06T07:35:17.118000+00:00</time>
      </trkpt>
      <trkpt lat="47.30428" lon="-1.38898">
        <ele>68</ele>
        <time>2020-12-06T07:35:18.078000+00:00</time>
      </trkpt>
      <trkpt lat="0" lon="0">
        <time>2020-12-06T07:35:18.086000+00:00</time>
      </trkpt>
      <trkpt lat="0" lon="0">
        <time>2020-12-06T07:35:18.097000+00:00</time>
      </trkpt>
      <trkpt lat="0" lon="0">
        <time>2020-12-06T07:35:18.099000+00:00</time>
      </trkpt>
      <trkpt lat="47.30431" lon="-1.38893">
        <ele>68</ele>
        <time>2020-12-06T07:35:19.097000+00:00</time>
      </trkpt>
      <trkpt lat="0" lon="0">
        <time>2020-12-06T07:35:19.113000+00:00</time>
      </trkpt>
      <trkpt lat="0" lon="0">
        <time>2020-12-06T07:35:19.118000+00:00</time>
      </trkpt>
      <trkpt lat="0" lon="0">
        <time>2020-12-06T07:35:19.120000+00:00</time>
      </trkpt>
      <trkpt lat="47.30435" lon="-1.38888">
        <ele>69</ele>
        <time>2020-12-06T07:35:20.111000+00:00</time>
      </trkpt>
      <trkpt lat="0" lon="0">
        <time>2020-12-06T07:35:20.116000+00:00</time>
      </trkpt>
      <trkpt lat="0" lon="0">
        <time>2020-12-06T07:35:20.122000+00:00</time>
      </trkpt>
      <trkpt lat="0" lon="0">
        <time>2020-12-06T07:35:20.125000+00:00</time>
      </trkpt>
      <trkpt lat="47.30438" lon="-1.38883">
        <ele>69</ele>
        <time>2020-12-06T07:35:21.104000+00:00</time>
      </trkpt>
      <trkpt lat="0" lon="0">
        <time>2020-12-06T07:35:21.111000+00:00</time>
      </trkpt>
      <trkpt lat="0" lon="0">
        <time>2020-12-06T07:35:21.120000+00:00</time>
      </trkpt>
      <trkpt lat="0" lon="0">
        <time>2020-12-06T07:35:21.123000+00:00</time>
      </trkpt>
      <trkpt lat="47.30442" lon="-1.38878">
        <ele>70</ele>
        <time>2020-12-06T07:35:22.119000+00:00</time>
      </trkpt>
      <trkpt lat="0" lon="0">
        <time>2020-12-06T07:35:22.142000+00:00</time>
      </trkpt>
      <trkpt lat="0" lon="0">
        <time>2020-12-06T07:35:22.147000+00:00</time>
      </trkpt>
      <trkpt lat="0" lon="0">
        <time>2020-12-06T07:35:22.149000+00:00</time>
      </trkpt>
      <trkpt lat="47.30445" lon="-1.38874">
        <ele>70</ele>
        <time>2020-12-06T07:35:23.104000+00:00</time>
      </trkpt>
      <trkpt lat="0" lon="0">
        <time>2020-12-06T07:35:23.108000+00:00</time>
      </trkpt>
      <trkpt lat="0" lon="0">
        <time>2020-12-06T07:35:23.111000+00:00</time>
      </trkpt>
      <trkpt lat="0" lon="0">
        <time>2020-12-06T07:35:23.114000+00:00</time>
      </trkpt>
      <trkpt lat="47.30449" lon="-1.3887">
        <ele>70</ele>
        <time>2020-12-06T07:35:24.101000+00:00</time>
      </trkpt>
      <trkpt lat="0" lon="0">
        <time>2020-12-06T07:35:24.110000+00:00</time>
      </trkpt>
      <trkpt lat="0" lon="0">
        <time>2020-12-06T07:35:24.113000+00:00</time>
      </trkpt>
      <trkpt lat="0" lon="0">
        <time>2020-12-06T07:35:24.115000+00:00</time>
      </trkpt>
      <trkpt lat="47.30453" lon="-1.38866">
        <ele>71</ele>
        <time>2020-12-06T07:35:25.107000+00:00</time>
      </trkpt>
      <trkpt lat="0" lon="0">
        <time>2020-12-06T07:35:25.129000+00:00</time>
      </trkpt>
      <trkpt lat="0" lon="0">
        <time>2020-12-06T07:35:25.137000+00:00</time>
      </trkpt>
      <trkpt lat="0" lon="0">
        <time>2020-12-06T07:35:25.142000+00:00</time>
      </trkpt>
      <trkpt lat="47.30457" lon="-1.38862">
        <ele>71</ele>
        <time>2020-12-06T07:35:26.108000+00:00</time>
      </trkpt>
      <trkpt lat="0" lon="0">
        <time>2020-12-06T07:35:26.120000+00:00</time>
      </trkpt>
      <trkpt lat="0" lon="0">
        <time>2020-12-06T07:35:26.131000+00:00</time>
      </trkpt>
      <trkpt lat="0" lon="0">
        <time>2020-12-06T07:35:26.138000+00:00</time>
      </trkpt>
      <trkpt lat="47.30461" lon="-1.38859">
        <ele>71</ele>
        <time>2020-12-06T07:35:27.102000+00:00</time>
      </trkpt>
      <trkpt lat="0" lon="0">
        <time>2020-12-06T07:35:27.112000+00:00</time>
      </trkpt>
      <trkpt lat="0" lon="0">
        <time>2020-12-06T07:35:27.117000+00:00</time>
      </trkpt>
      <trkpt lat="0" lon="0">
        <time>2020-12-06T07:35:27.126000+00:00</time>
      </trkpt>
      <trkpt lat="47.30466" lon="-1.38855">
        <ele>72</ele>
        <time>2020-12-06T07:35:28.120000+00:00</time>
      </trkpt>
      <trkpt lat="0" lon="0">
        <time>2020-12-06T07:35:28.125000+00:00</time>
      </trkpt>
      <trkpt lat="0" lon="0">
        <time>2020-12-06T07:35:28.130000+00:00</time>
      </trkpt>
      <trkpt lat="0" lon="0">
        <time>2020-12-06T07:35:28.133000+00:00</time>
      </trkpt>
      <trkpt lat="47.3047" lon="-1.38852">
        <ele>72</ele>
        <time>2020-12-06T07:35:29.079000+00:00</time>
      </trkpt>
      <trkpt lat="0" lon="0">
        <time>2020-12-06T07:35:29.085000+00:00</time>
      </trkpt>
      <trkpt lat="0" lon="0">
        <time>2020-12-06T07:35:29.101000+00:00</time>
      </trkpt>
      <trkpt lat="0" lon="0">
        <time>2020-12-06T07:35:29.103000+00:00</time>
      </trkpt>
      <trkpt lat="47.30474" lon="-1.38849">
        <ele>72</ele>
        <time>2020-12-06T07:35:30.095000+00:00</time>
      </trkpt>
      <trkpt lat="0" lon="0">
        <time>2020-12-06T07:35:30.103000+00:00</time>
      </trkpt>
      <trkpt lat="0" lon="0">
        <time>2020-12-06T07:35:30.119000+00:00</time>
      </trkpt>
      <trkpt lat="0" lon="0">
        <time>2020-12-06T07:35:30.126000+00:00</time>
      </trkpt>
      <trkpt lat="47.30479" lon="-1.38847">
        <ele>72</ele>
        <time>2020-12-06T07:35:31.123000+00:00</time>
      </trkpt>
      <trkpt lat="0" lon="0">
        <time>2020-12-06T07:35:31.134000+00:00</time>
      </trkpt>
      <trkpt lat="0" lon="0">
        <time>2020-12-06T07:35:31.137000+00:00</time>
      </trkpt>
      <trkpt lat="0" lon="0">
        <time>2020-12-06T07:35:31.139000+00:00</time>
      </trkpt>
      <trkpt lat="47.30483" lon="-1.38845">
        <ele>73</ele>
        <time>2020-12-06T07:35:32.113000+00:00</time>
      </trkpt>
      <trkpt lat="0" lon="0">
        <time>2020-12-06T07:35:32.120000+00:00</time>
      </trkpt>
      <trkpt lat="0" lon="0">
        <time>2020-12-06T07:35:32.124000+00:00</time>
      </trkpt>
      <trkpt lat="0" lon="0">
        <time>2020-12-06T07:35:32.127000+00:00</time>
      </trkpt>
      <trkpt lat="47.30487" lon="-1.38842">
        <ele>73</ele>
        <time>2020-12-06T07:35:33.061000+00:00</time>
      </trkpt>
      <trkpt lat="0" lon="0">
        <time>2020-12-06T07:35:33.068000+00:00</time>
      </trkpt>
      <trkpt lat="0" lon="0">
        <time>2020-12-06T07:35:33.085000+00:00</time>
      </trkpt>
      <trkpt lat="0" lon="0">
        <time>2020-12-06T07:35:33.087000+00:00</time>
      </trkpt>
      <trkpt lat="47.30491" lon="-1.3884">
        <ele>73</ele>
        <time>2020-12-06T07:35:34.090000+00:00</time>
      </trkpt>
      <trkpt lat="0" lon="0">
        <time>2020-12-06T07:35:34.105000+00:00</time>
      </trkpt>
      <trkpt lat="0" lon="0">
        <time>2020-12-06T07:35:34.107000+00:00</time>
      </trkpt>
      <trkpt lat="0" lon="0">
        <time>2020-12-06T07:35:34.108000+00:00</time>
      </trkpt>
      <trkpt lat="47.30494" lon="-1.38837">
        <ele>73</ele>
        <time>2020-12-06T07:35:35.092000+00:00</time>
      </trkpt>
      <trkpt lat="0" lon="0">
        <time>2020-12-06T07:35:35.101000+00:00</time>
      </trkpt>
      <trkpt lat="0" lon="0">
        <time>2020-12-06T07:35:35.109000+00:00</time>
      </trkpt>
      <trkpt lat="0" lon="0">
        <time>2020-12-06T07:35:35.112000+00:00</time>
      </trkpt>
      <trkpt lat="47.30496" lon="-1.38833">
        <ele>73</ele>
        <time>2020-12-06T07:35:36.081000+00:00</time>
      </trkpt>
      <trkpt lat="0" lon="0">
        <time>2020-12-06T07:35:36.094000+00:00</time>
      </trkpt>
      <trkpt lat="0" lon="0">
        <time>2020-12-06T07:35:36.103000+00:00</time>
      </trkpt>
      <trkpt lat="0" lon="0">
        <time>2020-12-06T07:35:36.105000+00:00</time>
      </trkpt>
      <trkpt lat="47.30496" lon="-1.38828">
        <ele>73</ele>
        <time>2020-12-06T07:35:37.059000+00:00</time>
      </trkpt>
      <trkpt lat="0" lon="0">
        <time>2020-12-06T07:35:37.073000+00:00</time>
      </trkpt>
      <trkpt lat="0" lon="0">
        <time>2020-12-06T07:35:37.083000+00:00</time>
      </trkpt>
      <trkpt lat="0" lon="0">
        <time>2020-12-06T07:35:37.086000+00:00</time>
      </trkpt>
      <trkpt lat="47.30496" lon="-1.38823">
        <ele>74</ele>
        <time>2020-12-06T07:35:38.071000+00:00</time>
      </trkpt>
      <trkpt lat="0" lon="0">
        <time>2020-12-06T07:35:38.074000+00:00</time>
      </trkpt>
      <trkpt lat="0" lon="0">
        <time>2020-12-06T07:35:38.078000+00:00</time>
      </trkpt>
      <trkpt lat="0" lon="0">
        <time>2020-12-06T07:35:38.081000+00:00</time>
      </trkpt>
      <trkpt lat="47.30495" lon="-1.38817">
        <ele>74</ele>
        <time>2020-12-06T07:35:39.066000+00:00</time>
      </trkpt>
      <trkpt lat="0" lon="0">
        <time>2020-12-06T07:35:39.076000+00:00</time>
      </trkpt>
      <trkpt lat="0" lon="0">
        <time>2020-12-06T07:35:39.080000+00:00</time>
      </trkpt>
      <trkpt lat="0" lon="0">
        <time>2020-12-06T07:35:39.086000+00:00</time>
      </trkpt>
      <trkpt lat="47.30493" lon="-1.38811">
        <ele>74</ele>
        <time>2020-12-06T07:35:40.048000+00:00</time>
      </trkpt>
      <trkpt lat="0" lon="0">
        <time>2020-12-06T07:35:40.051000+00:00</time>
      </trkpt>
      <trkpt lat="0" lon="0">
        <time>2020-12-06T07:35:40.056000+00:00</time>
      </trkpt>
      <trkpt lat="0" lon="0">
        <time>2020-12-06T07:35:40.059000+00:00</time>
      </trkpt>
      <trkpt lat="47.30491" lon="-1.38805">
        <ele>74</ele>
        <time>2020-12-06T07:35:41.093000+00:00</time>
      </trkpt>
      <trkpt lat="0" lon="0">
        <time>2020-12-06T07:35:41.113000+00:00</time>
      </trkpt>
      <trkpt lat="0" lon="0">
        <time>2020-12-06T07:35:41.117000+00:00</time>
      </trkpt>
      <trkpt lat="0" lon="0">
        <time>2020-12-06T07:35:41.119000+00:00</time>
      </trkpt>
      <trkpt lat="47.30489" lon="-1.38798">
        <ele>74</ele>
        <time>2020-12-06T07:35:42.081000+00:00</time>
      </trkpt>
      <trkpt lat="0" lon="0">
        <time>2020-12-06T07:35:42.092000+00:00</time>
      </trkpt>
      <trkpt lat="0" lon="0">
        <time>2020-12-06T07:35:42.096000+00:00</time>
      </trkpt>
      <trkpt lat="0" lon="0">
        <time>2020-12-06T07:35:42.097000+00:00</time>
      </trkpt>
      <trkpt lat="47.30486" lon="-1.38791">
        <ele>74</ele>
        <time>2020-12-06T07:35:43.088000+00:00</time>
      </trkpt>
      <trkpt lat="0" lon="0">
        <time>2020-12-06T07:35:43.110000+00:00</time>
      </trkpt>
      <trkpt lat="0" lon="0">
        <time>2020-12-06T07:35:43.111000+00:00</time>
      </trkpt>
      <trkpt lat="0" lon="0">
        <time>2020-12-06T07:35:43.113000+00:00</time>
      </trkpt>
      <trkpt lat="47.30483" lon="-1.38784">
        <ele>74</ele>
        <time>2020-12-06T07:35:44.093000+00:00</time>
      </trkpt>
      <trkpt lat="0" lon="0">
        <time>2020-12-06T07:35:44.103000+00:00</time>
      </trkpt>
      <trkpt lat="0" lon="0">
        <time>2020-12-06T07:35:44.116000+00:00</time>
      </trkpt>
      <trkpt lat="0" lon="0">
        <time>2020-12-06T07:35:44.118000+00:00</time>
      </trkpt>
      <trkpt lat="47.3048" lon="-1.38777">
        <ele>74</ele>
        <time>2020-12-06T07:35:45.097000+00:00</time>
      </trkpt>
      <trkpt lat="0" lon="0">
        <time>2020-12-06T07:35:45.116000+00:00</time>
      </trkpt>
      <trkpt lat="0" lon="0">
        <time>2020-12-06T07:35:45.126000+00:00</time>
      </trkpt>
      <trkpt lat="0" lon="0">
        <time>2020-12-06T07:35:45.128000+00:00</time>
      </trkpt>
      <trkpt lat="47.30477" lon="-1.3877">
        <ele>74</ele>
        <time>2020-12-06T07:35:46.080000+00:00</time>
      </trkpt>
      <trkpt lat="0" lon="0">
        <time>2020-12-06T07:35:46.083000+00:00</time>
      </trkpt>
      <trkpt lat="0" lon="0">
        <time>2020-12-06T07:35:46.089000+00:00</time>
      </trkpt>
      <trkpt lat="0" lon="0">
        <time>2020-12-06T07:35:46.092000+00:00</time>
      </trkpt>
      <trkpt lat="47.30474" lon="-1.38763">
        <ele>74</ele>
        <time>2020-12-06T07:35:47.090000+00:00</time>
      </trkpt>
      <trkpt lat="0" lon="0">
        <time>2020-12-06T07:35:47.111000+00:00</time>
      </trkpt>
      <trkpt lat="0" lon="0">
        <time>2020-12-06T07:35:47.118000+00:00</time>
      </trkpt>
      <trkpt lat="0" lon="0">
        <time>2020-12-06T07:35:47.120000+00:00</time>
      </trkpt>
      <trkpt lat="47.30471" lon="-1.38756">
        <ele>75</ele>
        <time>2020-12-06T07:35:48.079000+00:00</time>
      </trkpt>
      <trkpt lat="0" lon="0">
        <time>2020-12-06T07:35:48.082000+00:00</time>
      </trkpt>
      <trkpt lat="0" lon="0">
        <time>2020-12-06T07:35:48.093000+00:00</time>
      </trkpt>
      <trkpt lat="0" lon="0">
        <time>2020-12-06T07:35:48.101000+00:00</time>
      </trkpt>
      <trkpt lat="47.30469" lon="-1.38749">
        <ele>75</ele>
        <time>2020-12-06T07:35:49.114000+00:00</time>
      </trkpt>
      <trkpt lat="0" lon="0">
        <time>2020-12-06T07:35:49.117000+00:00</time>
      </trkpt>
      <trkpt lat="0" lon="0">
        <time>2020-12-06T07:35:49.125000+00:00</time>
      </trkpt>
      <trkpt lat="0" lon="0">
        <time>2020-12-06T07:35:49.127000+00:00</time>
      </trkpt>
      <trkpt lat="47.30466" lon="-1.38742">
        <ele>75</ele>
        <time>2020-12-06T07:35:50.127000+00:00</time>
      </trkpt>
      <trkpt lat="0" lon="0">
        <time>2020-12-06T07:35:50.130000+00:00</time>
      </trkpt>
      <trkpt lat="0" lon="0">
        <time>2020-12-06T07:35:50.131000+00:00</time>
      </trkpt>
      <trkpt lat="0" lon="0">
        <time>2020-12-06T07:35:50.132000+00:00</time>
      </trkpt>
      <trkpt lat="47.30464" lon="-1.38735">
        <ele>75</ele>
        <time>2020-12-06T07:35:51.095000+00:00</time>
      </trkpt>
      <trkpt lat="0" lon="0">
        <time>2020-12-06T07:35:51.107000+00:00</time>
      </trkpt>
      <trkpt lat="0" lon="0">
        <time>2020-12-06T07:35:51.111000+00:00</time>
      </trkpt>
      <trkpt lat="0" lon="0">
        <time>2020-12-06T07:35:51.113000+00:00</time>
      </trkpt>
      <trkpt lat="47.30461" lon="-1.38728">
        <ele>75</ele>
        <time>2020-12-06T07:35:52.101000+00:00</time>
      </trkpt>
      <trkpt lat="0" lon="0">
        <time>2020-12-06T07:35:52.108000+00:00</time>
      </trkpt>
      <trkpt lat="0" lon="0">
        <time>2020-12-06T07:35:52.111000+00:00</time>
      </trkpt>
      <trkpt lat="0" lon="0">
        <time>2020-12-06T07:35:52.115000+00:00</time>
      </trkpt>
      <trkpt lat="47.30459" lon="-1.38721">
        <ele>76</ele>
        <time>2020-12-06T07:35:53.095000+00:00</time>
      </trkpt>
      <trkpt lat="0" lon="0">
        <time>2020-12-06T07:35:53.102000+00:00</time>
      </trkpt>
      <trkpt lat="0" lon="0">
        <time>2020-12-06T07:35:53.106000+00:00</time>
      </trkpt>
      <trkpt lat="0" lon="0">
        <time>2020-12-06T07:35:53.111000+00:00</time>
      </trkpt>
      <trkpt lat="47.30456" lon="-1.38714">
        <ele>76</ele>
        <time>2020-12-06T07:35:54.091000+00:00</time>
      </trkpt>
      <trkpt lat="0" lon="0">
        <time>2020-12-06T07:35:54.097000+00:00</time>
      </trkpt>
      <trkpt lat="0" lon="0">
        <time>2020-12-06T07:35:54.107000+00:00</time>
      </trkpt>
      <trkpt lat="0" lon="0">
        <time>2020-12-06T07:35:54.110000+00:00</time>
      </trkpt>
      <trkpt lat="47.30454" lon="-1.38708">
        <ele>76</ele>
        <time>2020-12-06T07:35:55.072000+00:00</time>
      </trkpt>
      <trkpt lat="0" lon="0">
        <time>2020-12-06T07:35:55.078000+00:00</time>
      </trkpt>
      <trkpt lat="0" lon="0">
        <time>2020-12-06T07:35:55.081000+00:00</time>
      </trkpt>
      <trkpt lat="0" lon="0">
        <time>2020-12-06T07:35:55.083000+00:00</time>
      </trkpt>
      <trkpt lat="47.30451" lon="-1.38701">
        <ele>76</ele>
        <time>2020-12-06T07:35:56.111000+00:00</time>
      </trkpt>
      <trkpt lat="0" lon="0">
        <time>2020-12-06T07:35:56.118000+00:00</time>
      </trkpt>
      <trkpt lat="0" lon="0">
        <time>2020-12-06T07:35:56.122000+00:00</time>
      </trkpt>
      <trkpt lat="0" lon="0">
        <time>2020-12-06T07:35:56.124000+00:00</time>
      </trkpt>
      <trkpt lat="47.30449" lon="-1.38695">
        <ele>77</ele>
        <time>2020-12-06T07:35:57.117000+00:00</time>
      </trkpt>
      <trkpt lat="0" lon="0">
        <time>2020-12-06T07:35:57.122000+00:00</time>
      </trkpt>
      <trkpt lat="0" lon="0">
        <time>2020-12-06T07:35:57.130000+00:00</time>
      </trkpt>
      <trkpt lat="0" lon="0">
        <time>2020-12-06T07:35:57.132000+00:00</time>
      </trkpt>
      <trkpt lat="47.30447" lon="-1.38689">
        <ele>77</ele>
        <time>2020-12-06T07:35:58.091000+00:00</time>
      </trkpt>
      <trkpt lat="0" lon="0">
        <time>2020-12-06T07:35:58.104000+00:00</time>
      </trkpt>
      <trkpt lat="0" lon="0">
        <time>2020-12-06T07:35:58.114000+00:00</time>
      </trkpt>
      <trkpt lat="0" lon="0">
        <time>2020-12-06T07:35:58.122000+00:00</time>
      </trkpt>
      <trkpt lat="47.30445" lon="-1.38682">
        <ele>77</ele>
        <time>2020-12-06T07:35:59.074000+00:00</time>
      </trkpt>
      <trkpt lat="0" lon="0">
        <time>2020-12-06T07:35:59.077000+00:00</time>
      </trkpt>
      <trkpt lat="0" lon="0">
        <time>2020-12-06T07:35:59.085000+00:00</time>
      </trkpt>
      <trkpt lat="0" lon="0">
        <time>2020-12-06T07:35:59.087000+00:00</time>
      </trkpt>
      <trkpt lat="47.30443" lon="-1.38676">
        <ele>77</ele>
        <time>2020-12-06T07:36:00.119000+00:00</time>
      </trkpt>
      <trkpt lat="0" lon="0">
        <time>2020-12-06T07:36:00.142000+00:00</time>
      </trkpt>
      <trkpt lat="0" lon="0">
        <time>2020-12-06T07:36:00.153000+00:00</time>
      </trkpt>
      <trkpt lat="0" lon="0">
        <time>2020-12-06T07:36:00.155000+00:00</time>
      </trkpt>
      <trkpt lat="47.30441" lon="-1.38669">
        <ele>78</ele>
        <time>2020-12-06T07:36:01.083000+00:00</time>
      </trkpt>
      <trkpt lat="0" lon="0">
        <time>2020-12-06T07:36:01.092000+00:00</time>
      </trkpt>
      <trkpt lat="0" lon="0">
        <time>2020-12-06T07:36:01.096000+00:00</time>
      </trkpt>
      <trkpt lat="0" lon="0">
        <time>2020-12-06T07:36:01.102000+00:00</time>
      </trkpt>
      <trkpt lat="47.30439" lon="-1.38663">
        <ele>78</ele>
        <time>2020-12-06T07:36:02.077000+00:00</time>
      </trkpt>
      <trkpt lat="0" lon="0">
        <time>2020-12-06T07:36:02.093000+00:00</time>
      </trkpt>
      <trkpt lat="0" lon="0">
        <time>2020-12-06T07:36:02.095000+00:00</time>
      </trkpt>
      <trkpt lat="0" lon="0">
        <time>2020-12-06T07:36:02.096000+00:00</time>
      </trkpt>
      <trkpt lat="47.30437" lon="-1.38656">
        <ele>78</ele>
        <time>2020-12-06T07:36:03.093000+00:00</time>
      </trkpt>
      <trkpt lat="0" lon="0">
        <time>2020-12-06T07:36:03.099000+00:00</time>
      </trkpt>
      <trkpt lat="0" lon="0">
        <time>2020-12-06T07:36:03.105000+00:00</time>
      </trkpt>
      <trkpt lat="0" lon="0">
        <time>2020-12-06T07:36:03.107000+00:00</time>
      </trkpt>
      <trkpt lat="47.30434" lon="-1.3865">
        <ele>78</ele>
        <time>2020-12-06T07:36:04.090000+00:00</time>
      </trkpt>
      <trkpt lat="0" lon="0">
        <time>2020-12-06T07:36:04.101000+00:00</time>
      </trkpt>
      <trkpt lat="0" lon="0">
        <time>2020-12-06T07:36:04.109000+00:00</time>
      </trkpt>
      <trkpt lat="0" lon="0">
        <time>2020-12-06T07:36:04.110000+00:00</time>
      </trkpt>
      <trkpt lat="47.30432" lon="-1.38644">
        <ele>78</ele>
        <time>2020-12-06T07:36:05.117000+00:00</time>
      </trkpt>
      <trkpt lat="0" lon="0">
        <time>2020-12-06T07:36:05.128000+00:00</time>
      </trkpt>
      <trkpt lat="0" lon="0">
        <time>2020-12-06T07:36:05.133000+00:00</time>
      </trkpt>
      <trkpt lat="0" lon="0">
        <time>2020-12-06T07:36:05.135000+00:00</time>
      </trkpt>
      <trkpt lat="47.3043" lon="-1.38637">
        <ele>78</ele>
        <time>2020-12-06T07:36:06.091000+00:00</time>
      </trkpt>
      <trkpt lat="0" lon="0">
        <time>2020-12-06T07:36:06.094000+00:00</time>
      </trkpt>
      <trkpt lat="0" lon="0">
        <time>2020-12-06T07:36:06.104000+00:00</time>
      </trkpt>
      <trkpt lat="0" lon="0">
        <time>2020-12-06T07:36:06.112000+00:00</time>
      </trkpt>
      <trkpt lat="47.30428" lon="-1.38631">
        <ele>78</ele>
        <time>2020-12-06T07:36:07.109000+00:00</time>
      </trkpt>
      <trkpt lat="0" lon="0">
        <time>2020-12-06T07:36:07.122000+00:00</time>
      </trkpt>
      <trkpt lat="0" lon="0">
        <time>2020-12-06T07:36:07.125000+00:00</time>
      </trkpt>
      <trkpt lat="0" lon="0">
        <time>2020-12-06T07:36:07.128000+00:00</time>
      </trkpt>
      <trkpt lat="47.30426" lon="-1.38626">
        <ele>78</ele>
        <time>2020-12-06T07:36:08.119000+00:00</time>
      </trkpt>
      <trkpt lat="0" lon="0">
        <time>2020-12-06T07:36:08.121000+00:00</time>
      </trkpt>
      <trkpt lat="0" lon="0">
        <time>2020-12-06T07:36:08.123000+00:00</time>
      </trkpt>
      <trkpt lat="0" lon="0">
        <time>2020-12-06T07:36:08.125000+00:00</time>
      </trkpt>
      <trkpt lat="47.30423" lon="-1.38621">
        <ele>78</ele>
        <time>2020-12-06T07:36:09.087000+00:00</time>
      </trkpt>
      <trkpt lat="0" lon="0">
        <time>2020-12-06T07:36:09.092000+00:00</time>
      </trkpt>
      <trkpt lat="0" lon="0">
        <time>2020-12-06T07:36:09.100000+00:00</time>
      </trkpt>
      <trkpt lat="0" lon="0">
        <time>2020-12-06T07:36:09.102000+00:00</time>
      </trkpt>
      <trkpt lat="47.3042" lon="-1.38617">
        <ele>78</ele>
        <time>2020-12-06T07:36:10.111000+00:00</time>
      </trkpt>
      <trkpt lat="0" lon="0">
        <time>2020-12-06T07:36:10.115000+00:00</time>
      </trkpt>
      <trkpt lat="0" lon="0">
        <time>2020-12-06T07:36:10.119000+00:00</time>
      </trkpt>
      <trkpt lat="0" lon="0">
        <time>2020-12-06T07:36:10.127000+00:00</time>
      </trkpt>
      <trkpt lat="47.30416" lon="-1.38614">
        <ele>78</ele>
        <time>2020-12-06T07:36:11.058000+00:00</time>
      </trkpt>
      <trkpt lat="0" lon="0">
        <time>2020-12-06T07:36:11.063000+00:00</time>
      </trkpt>
      <trkpt lat="0" lon="0">
        <time>2020-12-06T07:36:11.069000+00:00</time>
      </trkpt>
      <trkpt lat="0" lon="0">
        <time>2020-12-06T07:36:11.077000+00:00</time>
      </trkpt>
      <trkpt lat="47.30411" lon="-1.38611">
        <ele>78</ele>
        <time>2020-12-06T07:36:12.114000+00:00</time>
      </trkpt>
      <trkpt lat="0" lon="0">
        <time>2020-12-06T07:36:12.119000+00:00</time>
      </trkpt>
      <trkpt lat="0" lon="0">
        <time>2020-12-06T07:36:12.126000+00:00</time>
      </trkpt>
      <trkpt lat="0" lon="0">
        <time>2020-12-06T07:36:12.128000+00:00</time>
      </trkpt>
      <trkpt lat="47.30406" lon="-1.38609">
        <ele>77</ele>
        <time>2020-12-06T07:36:13.118000+00:00</time>
      </trkpt>
      <trkpt lat="0" lon="0">
        <time>2020-12-06T07:36:13.128000+00:00</time>
      </trkpt>
      <trkpt lat="0" lon="0">
        <time>2020-12-06T07:36:13.141000+00:00</time>
      </trkpt>
      <trkpt lat="0" lon="0">
        <time>2020-12-06T07:36:13.142000+00:00</time>
      </trkpt>
      <trkpt lat="47.30401" lon="-1.38608">
        <ele>77</ele>
        <time>2020-12-06T07:36:14.105000+00:00</time>
      </trkpt>
      <trkpt lat="0" lon="0">
        <time>2020-12-06T07:36:14.107000+00:00</time>
      </trkpt>
      <trkpt lat="0" lon="0">
        <time>2020-12-06T07:36:14.112000+00:00</time>
      </trkpt>
      <trkpt lat="0" lon="0">
        <time>2020-12-06T07:36:14.113000+00:00</time>
      </trkpt>
      <trkpt lat="47.30397" lon="-1.38607">
        <ele>77</ele>
        <time>2020-12-06T07:36:15.125000+00:00</time>
      </trkpt>
      <trkpt lat="0" lon="0">
        <time>2020-12-06T07:36:15.138000+00:00</time>
      </trkpt>
      <trkpt lat="0" lon="0">
        <time>2020-12-06T07:36:15.146000+00:00</time>
      </trkpt>
      <trkpt lat="0" lon="0">
        <time>2020-12-06T07:36:15.148000+00:00</time>
      </trkpt>
      <trkpt lat="47.30392" lon="-1.38606">
        <ele>76</ele>
        <time>2020-12-06T07:36:16.133000+00:00</time>
      </trkpt>
      <trkpt lat="0" lon="0">
        <time>2020-12-06T07:36:16.141000+00:00</time>
      </trkpt>
      <trkpt lat="0" lon="0">
        <time>2020-12-06T07:36:16.146000+00:00</time>
      </trkpt>
      <trkpt lat="0" lon="0">
        <time>2020-12-06T07:36:16.150000+00:00</time>
      </trkpt>
      <trkpt lat="47.30387" lon="-1.38605">
        <ele>76</ele>
        <time>2020-12-06T07:36:17.101000+00:00</time>
      </trkpt>
      <trkpt lat="0" lon="0">
        <time>2020-12-06T07:36:17.106000+00:00</time>
      </trkpt>
      <trkpt lat="0" lon="0">
        <time>2020-12-06T07:36:17.109000+00:00</time>
      </trkpt>
      <trkpt lat="0" lon="0">
        <time>2020-12-06T07:36:17.112000+00:00</time>
      </trkpt>
      <trkpt lat="47.30381" lon="-1.38603">
        <ele>76</ele>
        <time>2020-12-06T07:36:18.110000+00:00</time>
      </trkpt>
      <trkpt lat="0" lon="0">
        <time>2020-12-06T07:36:18.117000+00:00</time>
      </trkpt>
      <trkpt lat="0" lon="0">
        <time>2020-12-06T07:36:18.125000+00:00</time>
      </trkpt>
      <trkpt lat="0" lon="0">
        <time>2020-12-06T07:36:18.127000+00:00</time>
      </trkpt>
      <trkpt lat="47.30376" lon="-1.38601">
        <ele>76</ele>
        <time>2020-12-06T07:36:19.125000+00:00</time>
      </trkpt>
      <trkpt lat="0" lon="0">
        <time>2020-12-06T07:36:19.135000+00:00</time>
      </trkpt>
      <trkpt lat="0" lon="0">
        <time>2020-12-06T07:36:19.144000+00:00</time>
      </trkpt>
      <trkpt lat="0" lon="0">
        <time>2020-12-06T07:36:19.145000+00:00</time>
      </trkpt>
      <trkpt lat="47.30371" lon="-1.38599">
        <ele>75</ele>
        <time>2020-12-06T07:36:20.095000+00:00</time>
      </trkpt>
      <trkpt lat="0" lon="0">
        <time>2020-12-06T07:36:20.099000+00:00</time>
      </trkpt>
      <trkpt lat="0" lon="0">
        <time>2020-12-06T07:36:20.101000+00:00</time>
      </trkpt>
      <trkpt lat="0" lon="0">
        <time>2020-12-06T07:36:20.102000+00:00</time>
      </trkpt>
      <trkpt lat="47.30366" lon="-1.38597">
        <ele>75</ele>
        <time>2020-12-06T07:36:21.089000+00:00</time>
      </trkpt>
      <trkpt lat="0" lon="0">
        <time>2020-12-06T07:36:21.098000+00:00</time>
      </trkpt>
      <trkpt lat="0" lon="0">
        <time>2020-12-06T07:36:21.107000+00:00</time>
      </trkpt>
      <trkpt lat="0" lon="0">
        <time>2020-12-06T07:36:21.109000+00:00</time>
      </trkpt>
      <trkpt lat="47.30361" lon="-1.38594">
        <ele>75</ele>
        <time>2020-12-06T07:36:22.108000+00:00</time>
      </trkpt>
      <trkpt lat="0" lon="0">
        <time>2020-12-06T07:36:22.110000+00:00</time>
      </trkpt>
      <trkpt lat="0" lon="0">
        <time>2020-12-06T07:36:22.119000+00:00</time>
      </trkpt>
      <trkpt lat="0" lon="0">
        <time>2020-12-06T07:36:22.126000+00:00</time>
      </trkpt>
      <trkpt lat="47.30355" lon="-1.38592">
        <ele>75</ele>
        <time>2020-12-06T07:36:23.090000+00:00</time>
      </trkpt>
      <trkpt lat="0" lon="0">
        <time>2020-12-06T07:36:23.103000+00:00</time>
      </trkpt>
      <trkpt lat="0" lon="0">
        <time>2020-12-06T07:36:23.107000+00:00</time>
      </trkpt>
      <trkpt lat="0" lon="0">
        <time>2020-12-06T07:36:23.109000+00:00</time>
      </trkpt>
      <trkpt lat="47.3035" lon="-1.38589">
        <ele>74</ele>
        <time>2020-12-06T07:36:24.093000+00:00</time>
      </trkpt>
      <trkpt lat="0" lon="0">
        <time>2020-12-06T07:36:24.107000+00:00</time>
      </trkpt>
      <trkpt lat="0" lon="0">
        <time>2020-12-06T07:36:24.115000+00:00</time>
      </trkpt>
      <trkpt lat="0" lon="0">
        <time>2020-12-06T07:36:24.118000+00:00</time>
      </trkpt>
      <trkpt lat="47.30344" lon="-1.38587">
        <ele>74</ele>
        <time>2020-12-06T07:36:25.101000+00:00</time>
      </trkpt>
      <trkpt lat="0" lon="0">
        <time>2020-12-06T07:36:25.130000+00:00</time>
      </trkpt>
      <trkpt lat="0" lon="0">
        <time>2020-12-06T07:36:25.136000+00:00</time>
      </trkpt>
      <trkpt lat="0" lon="0">
        <time>2020-12-06T07:36:25.141000+00:00</time>
      </trkpt>
      <trkpt lat="47.30338" lon="-1.38586">
        <ele>74</ele>
        <time>2020-12-06T07:36:26.094000+00:00</time>
      </trkpt>
      <trkpt lat="0" lon="0">
        <time>2020-12-06T07:36:26.107000+00:00</time>
      </trkpt>
      <trkpt lat="0" lon="0">
        <time>2020-12-06T07:36:26.117000+00:00</time>
      </trkpt>
      <trkpt lat="0" lon="0">
        <time>2020-12-06T07:36:26.119000+00:00</time>
      </trkpt>
      <trkpt lat="47.30331" lon="-1.38585">
        <ele>73</ele>
        <time>2020-12-06T07:36:27.075000+00:00</time>
      </trkpt>
      <trkpt lat="0" lon="0">
        <time>2020-12-06T07:36:27.081000+00:00</time>
      </trkpt>
      <trkpt lat="0" lon="0">
        <time>2020-12-06T07:36:27.085000+00:00</time>
      </trkpt>
      <trkpt lat="0" lon="0">
        <time>2020-12-06T07:36:27.087000+00:00</time>
      </trkpt>
      <trkpt lat="47.30325" lon="-1.38585">
        <ele>73</ele>
        <time>2020-12-06T07:36:28.117000+00:00</time>
      </trkpt>
      <trkpt lat="0" lon="0">
        <time>2020-12-06T07:36:28.121000+00:00</time>
      </trkpt>
      <trkpt lat="0" lon="0">
        <time>2020-12-06T07:36:28.125000+00:00</time>
      </trkpt>
      <trkpt lat="0" lon="0">
        <time>2020-12-06T07:36:28.127000+00:00</time>
      </trkpt>
      <trkpt lat="47.30318" lon="-1.38585">
        <ele>73</ele>
        <time>2020-12-06T07:36:29.089000+00:00</time>
      </trkpt>
      <trkpt lat="0" lon="0">
        <time>2020-12-06T07:36:29.092000+00:00</time>
      </trkpt>
      <trkpt lat="0" lon="0">
        <time>2020-12-06T07:36:29.107000+00:00</time>
      </trkpt>
      <trkpt lat="0" lon="0">
        <time>2020-12-06T07:36:29.112000+00:00</time>
      </trkpt>
      <trkpt lat="47.30312" lon="-1.38585">
        <ele>72</ele>
        <time>2020-12-06T07:36:30.116000+00:00</time>
      </trkpt>
      <trkpt lat="0" lon="0">
        <time>2020-12-06T07:36:30.129000+00:00</time>
      </trkpt>
      <trkpt lat="0" lon="0">
        <time>2020-12-06T07:36:30.136000+00:00</time>
      </trkpt>
      <trkpt lat="0" lon="0">
        <time>2020-12-06T07:36:30.138000+00:00</time>
      </trkpt>
      <trkpt lat="47.30305" lon="-1.38586">
        <ele>72</ele>
        <time>2020-12-06T07:36:31.088000+00:00</time>
      </trkpt>
      <trkpt lat="0" lon="0">
        <time>2020-12-06T07:36:31.101000+00:00</time>
      </trkpt>
      <trkpt lat="0" lon="0">
        <time>2020-12-06T07:36:31.104000+00:00</time>
      </trkpt>
      <trkpt lat="0" lon="0">
        <time>2020-12-06T07:36:31.106000+00:00</time>
      </trkpt>
      <trkpt lat="47.30299" lon="-1.38586">
        <ele>72</ele>
        <time>2020-12-06T07:36:32.114000+00:00</time>
      </trkpt>
      <trkpt lat="0" lon="0">
        <time>2020-12-06T07:36:32.116000+00:00</time>
      </trkpt>
      <trkpt lat="0" lon="0">
        <time>2020-12-06T07:36:32.118000+00:00</time>
      </trkpt>
      <trkpt lat="0" lon="0">
        <time>2020-12-06T07:36:32.119000+00:00</time>
      </trkpt>
      <trkpt lat="47.30292" lon="-1.38587">
        <ele>72</ele>
        <time>2020-12-06T07:36:33.084000+00:00</time>
      </trkpt>
      <trkpt lat="0" lon="0">
        <time>2020-12-06T07:36:33.088000+00:00</time>
      </trkpt>
      <trkpt lat="0" lon="0">
        <time>2020-12-06T07:36:33.107000+00:00</time>
      </trkpt>
      <trkpt lat="0" lon="0">
        <time>2020-12-06T07:36:33.110000+00:00</time>
      </trkpt>
      <trkpt lat="47.30286" lon="-1.38588">
        <ele>71</ele>
        <time>2020-12-06T07:36:34.075000+00:00</time>
      </trkpt>
      <trkpt lat="0" lon="0">
        <time>2020-12-06T07:36:34.095000+00:00</time>
      </trkpt>
      <trkpt lat="0" lon="0">
        <time>2020-12-06T07:36:34.098000+00:00</time>
      </trkpt>
      <trkpt lat="0" lon="0">
        <time>2020-12-06T07:36:34.099000+00:00</time>
      </trkpt>
      <trkpt lat="47.30279" lon="-1.38589">
        <ele>71</ele>
        <time>2020-12-06T07:36:35.077000+00:00</time>
      </trkpt>
      <trkpt lat="0" lon="0">
        <time>2020-12-06T07:36:35.091000+00:00</time>
      </trkpt>
      <trkpt lat="0" lon="0">
        <time>2020-12-06T07:36:35.098000+00:00</time>
      </trkpt>
      <trkpt lat="0" lon="0">
        <time>2020-12-06T07:36:35.102000+00:00</time>
      </trkpt>
      <trkpt lat="47.30273" lon="-1.3859">
        <ele>71</ele>
        <time>2020-12-06T07:36:36.076000+00:00</time>
      </trkpt>
      <trkpt lat="0" lon="0">
        <time>2020-12-06T07:36:36.091000+00:00</time>
      </trkpt>
      <trkpt lat="0" lon="0">
        <time>2020-12-06T07:36:36.094000+00:00</time>
      </trkpt>
      <trkpt lat="0" lon="0">
        <time>2020-12-06T07:36:36.096000+00:00</time>
      </trkpt>
      <trkpt lat="47.30266" lon="-1.38592">
        <ele>70</ele>
        <time>2020-12-06T07:36:37.100000+00:00</time>
      </trkpt>
      <trkpt lat="0" lon="0">
        <time>2020-12-06T07:36:37.106000+00:00</time>
      </trkpt>
      <trkpt lat="0" lon="0">
        <time>2020-12-06T07:36:37.109000+00:00</time>
      </trkpt>
      <trkpt lat="0" lon="0">
        <time>2020-12-06T07:36:37.111000+00:00</time>
      </trkpt>
      <trkpt lat="47.30259" lon="-1.38593">
        <ele>70</ele>
        <time>2020-12-06T07:36:38.093000+00:00</time>
      </trkpt>
      <trkpt lat="0" lon="0">
        <time>2020-12-06T07:36:38.100000+00:00</time>
      </trkpt>
      <trkpt lat="0" lon="0">
        <time>2020-12-06T07:36:38.105000+00:00</time>
      </trkpt>
      <trkpt lat="0" lon="0">
        <time>2020-12-06T07:36:38.107000+00:00</time>
      </trkpt>
      <trkpt lat="47.30252" lon="-1.38595">
        <ele>70</ele>
        <time>2020-12-06T07:36:39.082000+00:00</time>
      </trkpt>
      <trkpt lat="0" lon="0">
        <time>2020-12-06T07:36:39.087000+00:00</time>
      </trkpt>
      <trkpt lat="0" lon="0">
        <time>2020-12-06T07:36:39.094000+00:00</time>
      </trkpt>
      <trkpt lat="0" lon="0">
        <time>2020-12-06T07:36:39.097000+00:00</time>
      </trkpt>
      <trkpt lat="47.30245" lon="-1.38597">
        <ele>69</ele>
        <time>2020-12-06T07:36:40.083000+00:00</time>
      </trkpt>
      <trkpt lat="0" lon="0">
        <time>2020-12-06T07:36:40.098000+00:00</time>
      </trkpt>
      <trkpt lat="0" lon="0">
        <time>2020-12-06T07:36:40.107000+00:00</time>
      </trkpt>
      <trkpt lat="0" lon="0">
        <time>2020-12-06T07:36:40.108000+00:00</time>
      </trkpt>
      <trkpt lat="47.30238" lon="-1.38599">
        <ele>69</ele>
        <time>2020-12-06T07:36:41.119000+00:00</time>
      </trkpt>
      <trkpt lat="0" lon="0">
        <time>2020-12-06T07:36:41.122000+00:00</time>
      </trkpt>
      <trkpt lat="0" lon="0">
        <time>2020-12-06T07:36:41.127000+00:00</time>
      </trkpt>
      <trkpt lat="0" lon="0">
        <time>2020-12-06T07:36:41.134000+00:00</time>
      </trkpt>
      <trkpt lat="47.30231" lon="-1.386">
        <ele>69</ele>
        <time>2020-12-06T07:36:42.089000+00:00</time>
      </trkpt>
      <trkpt lat="0" lon="0">
        <time>2020-12-06T07:36:42.101000+00:00</time>
      </trkpt>
      <trkpt lat="0" lon="0">
        <time>2020-12-06T07:36:42.104000+00:00</time>
      </trkpt>
      <trkpt lat="0" lon="0">
        <time>2020-12-06T07:36:42.106000+00:00</time>
      </trkpt>
      <trkpt lat="47.30223" lon="-1.38602">
        <ele>69</ele>
        <time>2020-12-06T07:36:43.073000+00:00</time>
      </trkpt>
      <trkpt lat="0" lon="0">
        <time>2020-12-06T07:36:43.081000+00:00</time>
      </trkpt>
      <trkpt lat="0" lon="0">
        <time>2020-12-06T07:36:43.083000+00:00</time>
      </trkpt>
      <trkpt lat="0" lon="0">
        <time>2020-12-06T07:36:43.085000+00:00</time>
      </trkpt>
      <trkpt lat="47.30215" lon="-1.38604">
        <ele>68</ele>
        <time>2020-12-06T07:36:44.092000+00:00</time>
      </trkpt>
      <trkpt lat="0" lon="0">
        <time>2020-12-06T07:36:44.103000+00:00</time>
      </trkpt>
      <trkpt lat="0" lon="0">
        <time>2020-12-06T07:36:44.107000+00:00</time>
      </trkpt>
      <trkpt lat="0" lon="0">
        <time>2020-12-06T07:36:44.109000+00:00</time>
      </trkpt>
      <trkpt lat="47.30207" lon="-1.38606">
        <ele>68</ele>
        <time>2020-12-06T07:36:45.090000+00:00</time>
      </trkpt>
      <trkpt lat="0" lon="0">
        <time>2020-12-06T07:36:45.097000+00:00</time>
      </trkpt>
      <trkpt lat="0" lon="0">
        <time>2020-12-06T07:36:45.101000+00:00</time>
      </trkpt>
      <trkpt lat="0" lon="0">
        <time>2020-12-06T07:36:45.104000+00:00</time>
      </trkpt>
      <trkpt lat="47.30199" lon="-1.38608">
        <ele>68</ele>
        <time>2020-12-06T07:36:46.061000+00:00</time>
      </trkpt>
      <trkpt lat="0" lon="0">
        <time>2020-12-06T07:36:46.065000+00:00</time>
      </trkpt>
      <trkpt lat="0" lon="0">
        <time>2020-12-06T07:36:46.069000+00:00</time>
      </trkpt>
      <trkpt lat="0" lon="0">
        <time>2020-12-06T07:36:46.074000+00:00</time>
      </trkpt>
      <trkpt lat="47.30191" lon="-1.38611">
        <ele>68</ele>
        <time>2020-12-06T07:36:47.084000+00:00</time>
      </trkpt>
      <trkpt lat="0" lon="0">
        <time>2020-12-06T07:36:47.087000+00:00</time>
      </trkpt>
      <trkpt lat="0" lon="0">
        <time>2020-12-06T07:36:47.096000+00:00</time>
      </trkpt>
      <trkpt lat="0" lon="0">
        <time>2020-12-06T07:36:47.102000+00:00</time>
      </trkpt>
      <trkpt lat="47.30184" lon="-1.38614">
        <ele>67</ele>
        <time>2020-12-06T07:36:48.085000+00:00</time>
      </trkpt>
      <trkpt lat="0" lon="0">
        <time>2020-12-06T07:36:48.094000+00:00</time>
      </trkpt>
      <trkpt lat="0" lon="0">
        <time>2020-12-06T07:36:48.098000+00:00</time>
      </trkpt>
      <trkpt lat="0" lon="0">
        <time>2020-12-06T07:36:48.099000+00:00</time>
      </trkpt>
      <trkpt lat="47.30176" lon="-1.38618">
        <ele>67</ele>
        <time>2020-12-06T07:36:49.071000+00:00</time>
      </trkpt>
      <trkpt lat="0" lon="0">
        <time>2020-12-06T07:36:49.075000+00:00</time>
      </trkpt>
      <trkpt lat="0" lon="0">
        <time>2020-12-06T07:36:49.086000+00:00</time>
      </trkpt>
      <trkpt lat="0" lon="0">
        <time>2020-12-06T07:36:49.087000+00:00</time>
      </trkpt>
      <trkpt lat="47.30168" lon="-1.38623">
        <ele>67</ele>
        <time>2020-12-06T07:36:50.096000+00:00</time>
      </trkpt>
      <trkpt lat="0" lon="0">
        <time>2020-12-06T07:36:50.113000+00:00</time>
      </trkpt>
      <trkpt lat="0" lon="0">
        <time>2020-12-06T07:36:50.118000+00:00</time>
      </trkpt>
      <trkpt lat="0" lon="0">
        <time>2020-12-06T07:36:50.120000+00:00</time>
      </trkpt>
      <trkpt lat="47.3016" lon="-1.38628">
        <ele>67</ele>
        <time>2020-12-06T07:36:51.108000+00:00</time>
      </trkpt>
      <trkpt lat="0" lon="0">
        <time>2020-12-06T07:36:51.127000+00:00</time>
      </trkpt>
      <trkpt lat="0" lon="0">
        <time>2020-12-06T07:36:51.133000+00:00</time>
      </trkpt>
      <trkpt lat="0" lon="0">
        <time>2020-12-06T07:36:51.135000+00:00</time>
      </trkpt>
      <trkpt lat="47.30153" lon="-1.38633">
        <ele>67</ele>
        <time>2020-12-06T07:36:52.089000+00:00</time>
      </trkpt>
      <trkpt lat="0" lon="0">
        <time>2020-12-06T07:36:52.106000+00:00</time>
      </trkpt>
      <trkpt lat="0" lon="0">
        <time>2020-12-06T07:36:52.110000+00:00</time>
      </trkpt>
      <trkpt lat="0" lon="0">
        <time>2020-12-06T07:36:52.111000+00:00</time>
      </trkpt>
      <trkpt lat="47.30145" lon="-1.38639">
        <ele>66</ele>
        <time>2020-12-06T07:36:53.080000+00:00</time>
      </trkpt>
      <trkpt lat="0" lon="0">
        <time>2020-12-06T07:36:53.083000+00:00</time>
      </trkpt>
      <trkpt lat="0" lon="0">
        <time>2020-12-06T07:36:53.091000+00:00</time>
      </trkpt>
      <trkpt lat="0" lon="0">
        <time>2020-12-06T07:36:53.094000+00:00</time>
      </trkpt>
      <trkpt lat="47.30137" lon="-1.38645">
        <ele>66</ele>
        <time>2020-12-06T07:36:54.072000+00:00</time>
      </trkpt>
      <trkpt lat="0" lon="0">
        <time>2020-12-06T07:36:54.074000+00:00</time>
      </trkpt>
      <trkpt lat="0" lon="0">
        <time>2020-12-06T07:36:54.075000+00:00</time>
      </trkpt>
      <trkpt lat="0" lon="0">
        <time>2020-12-06T07:36:54.076000+00:00</time>
      </trkpt>
      <trkpt lat="47.30129" lon="-1.38651">
        <ele>66</ele>
        <time>2020-12-06T07:36:55.073000+00:00</time>
      </trkpt>
      <trkpt lat="0" lon="0">
        <time>2020-12-06T07:36:55.083000+00:00</time>
      </trkpt>
      <trkpt lat="0" lon="0">
        <time>2020-12-06T07:36:55.087000+00:00</time>
      </trkpt>
      <trkpt lat="0" lon="0">
        <time>2020-12-06T07:36:55.088000+00:00</time>
      </trkpt>
      <trkpt lat="47.30121" lon="-1.38657">
        <ele>65</ele>
        <time>2020-12-06T07:36:56.091000+00:00</time>
      </trkpt>
      <trkpt lat="0" lon="0">
        <time>2020-12-06T07:36:56.099000+00:00</time>
      </trkpt>
      <trkpt lat="0" lon="0">
        <time>2020-12-06T07:36:56.102000+00:00</time>
      </trkpt>
      <trkpt lat="0" lon="0">
        <time>2020-12-06T07:36:56.106000+00:00</time>
      </trkpt>
      <trkpt lat="47.30113" lon="-1.38664">
        <ele>65</ele>
        <time>2020-12-06T07:36:57.073000+00:00</time>
      </trkpt>
      <trkpt lat="0" lon="0">
        <time>2020-12-06T07:36:57.083000+00:00</time>
      </trkpt>
      <trkpt lat="0" lon="0">
        <time>2020-12-06T07:36:57.086000+00:00</time>
      </trkpt>
      <trkpt lat="0" lon="0">
        <time>2020-12-06T07:36:57.093000+00:00</time>
      </trkpt>
      <trkpt lat="47.30105" lon="-1.3867">
        <ele>65</ele>
        <time>2020-12-06T07:36:58.118000+00:00</time>
      </trkpt>
      <trkpt lat="0" lon="0">
        <time>2020-12-06T07:36:58.125000+00:00</time>
      </trkpt>
      <trkpt lat="0" lon="0">
        <time>2020-12-06T07:36:58.132000+00:00</time>
      </trkpt>
      <trkpt lat="0" lon="0">
        <time>2020-12-06T07:36:58.134000+00:00</time>
      </trkpt>
      <trkpt lat="47.30097" lon="-1.38676">
        <ele>64</ele>
        <time>2020-12-06T07:36:59.084000+00:00</time>
      </trkpt>
      <trkpt lat="0" lon="0">
        <time>2020-12-06T07:36:59.094000+00:00</time>
      </trkpt>
      <trkpt lat="0" lon="0">
        <time>2020-12-06T07:36:59.097000+00:00</time>
      </trkpt>
      <trkpt lat="0" lon="0">
        <time>2020-12-06T07:36:59.099000+00:00</time>
      </trkpt>
      <trkpt lat="47.30089" lon="-1.38682">
        <ele>64</ele>
        <time>2020-12-06T07:37:00.088000+00:00</time>
      </trkpt>
      <trkpt lat="0" lon="0">
        <time>2020-12-06T07:37:00.091000+00:00</time>
      </trkpt>
      <trkpt lat="0" lon="0">
        <time>2020-12-06T07:37:00.097000+00:00</time>
      </trkpt>
      <trkpt lat="0" lon="0">
        <time>2020-12-06T07:37:00.099000+00:00</time>
      </trkpt>
      <trkpt lat="47.30081" lon="-1.38689">
        <ele>64</ele>
        <time>2020-12-06T07:37:01.083000+00:00</time>
      </trkpt>
      <trkpt lat="0" lon="0">
        <time>2020-12-06T07:37:01.094000+00:00</time>
      </trkpt>
      <trkpt lat="0" lon="0">
        <time>2020-12-06T07:37:01.102000+00:00</time>
      </trkpt>
      <trkpt lat="0" lon="0">
        <time>2020-12-06T07:37:01.108000+00:00</time>
      </trkpt>
      <trkpt lat="47.30073" lon="-1.38695">
        <ele>64</ele>
        <time>2020-12-06T07:37:02.069000+00:00</time>
      </trkpt>
      <trkpt lat="0" lon="0">
        <time>2020-12-06T07:37:02.091000+00:00</time>
      </trkpt>
      <trkpt lat="0" lon="0">
        <time>2020-12-06T07:37:02.095000+00:00</time>
      </trkpt>
      <trkpt lat="0" lon="0">
        <time>2020-12-06T07:37:02.097000+00:00</time>
      </trkpt>
      <trkpt lat="47.30065" lon="-1.38701">
        <ele>63</ele>
        <time>2020-12-06T07:37:03.075000+00:00</time>
      </trkpt>
      <trkpt lat="0" lon="0">
        <time>2020-12-06T07:37:03.080000+00:00</time>
      </trkpt>
      <trkpt lat="0" lon="0">
        <time>2020-12-06T07:37:03.085000+00:00</time>
      </trkpt>
      <trkpt lat="0" lon="0">
        <time>2020-12-06T07:37:03.087000+00:00</time>
      </trkpt>
      <trkpt lat="47.30056" lon="-1.38708">
        <ele>63</ele>
        <time>2020-12-06T07:37:04.095000+00:00</time>
      </trkpt>
      <trkpt lat="0" lon="0">
        <time>2020-12-06T07:37:04.098000+00:00</time>
      </trkpt>
      <trkpt lat="0" lon="0">
        <time>2020-12-06T07:37:04.112000+00:00</time>
      </trkpt>
      <trkpt lat="0" lon="0">
        <time>2020-12-06T07:37:04.121000+00:00</time>
      </trkpt>
      <trkpt lat="47.30048" lon="-1.38714">
        <ele>63</ele>
        <time>2020-12-06T07:37:05.087000+00:00</time>
      </trkpt>
      <trkpt lat="0" lon="0">
        <time>2020-12-06T07:37:05.093000+00:00</time>
      </trkpt>
      <trkpt lat="0" lon="0">
        <time>2020-12-06T07:37:05.096000+00:00</time>
      </trkpt>
      <trkpt lat="0" lon="0">
        <time>2020-12-06T07:37:05.098000+00:00</time>
      </trkpt>
      <trkpt lat="47.30039" lon="-1.3872">
        <ele>63</ele>
        <time>2020-12-06T07:37:06.126000+00:00</time>
      </trkpt>
      <trkpt lat="0" lon="0">
        <time>2020-12-06T07:37:06.142000+00:00</time>
      </trkpt>
      <trkpt lat="0" lon="0">
        <time>2020-12-06T07:37:06.145000+00:00</time>
      </trkpt>
      <trkpt lat="0" lon="0">
        <time>2020-12-06T07:37:06.149000+00:00</time>
      </trkpt>
      <trkpt lat="47.30031" lon="-1.38726">
        <ele>63</ele>
        <time>2020-12-06T07:37:07.095000+00:00</time>
      </trkpt>
      <trkpt lat="0" lon="0">
        <time>2020-12-06T07:37:07.098000+00:00</time>
      </trkpt>
      <trkpt lat="0" lon="0">
        <time>2020-12-06T07:37:07.105000+00:00</time>
      </trkpt>
      <trkpt lat="0" lon="0">
        <time>2020-12-06T07:37:07.108000+00:00</time>
      </trkpt>
      <trkpt lat="47.30022" lon="-1.38733">
        <ele>63</ele>
        <time>2020-12-06T07:37:08.095000+00:00</time>
      </trkpt>
      <trkpt lat="0" lon="0">
        <time>2020-12-06T07:37:08.098000+00:00</time>
      </trkpt>
      <trkpt lat="0" lon="0">
        <time>2020-12-06T07:37:08.100000+00:00</time>
      </trkpt>
      <trkpt lat="0" lon="0">
        <time>2020-12-06T07:37:08.101000+00:00</time>
      </trkpt>
      <trkpt lat="47.30013" lon="-1.38739">
        <ele>63</ele>
        <time>2020-12-06T07:37:09.086000+00:00</time>
      </trkpt>
      <trkpt lat="0" lon="0">
        <time>2020-12-06T07:37:09.090000+00:00</time>
      </trkpt>
      <trkpt lat="0" lon="0">
        <time>2020-12-06T07:37:09.098000+00:00</time>
      </trkpt>
      <trkpt lat="0" lon="0">
        <time>2020-12-06T07:37:09.105000+00:00</time>
      </trkpt>
      <trkpt lat="47.30004" lon="-1.38745">
        <ele>63</ele>
        <time>2020-12-06T07:37:10.102000+00:00</time>
      </trkpt>
      <trkpt lat="0" lon="0">
        <time>2020-12-06T07:37:10.109000+00:00</time>
      </trkpt>
      <trkpt lat="0" lon="0">
        <time>2020-12-06T07:37:10.122000+00:00</time>
      </trkpt>
      <trkpt lat="0" lon="0">
        <time>2020-12-06T07:37:10.124000+00:00</time>
      </trkpt>
      <trkpt lat="47.29996" lon="-1.38752">
        <ele>62</ele>
        <time>2020-12-06T07:37:11.093000+00:00</time>
      </trkpt>
      <trkpt lat="0" lon="0">
        <time>2020-12-06T07:37:11.098000+00:00</time>
      </trkpt>
      <trkpt lat="0" lon="0">
        <time>2020-12-06T07:37:11.103000+00:00</time>
      </trkpt>
      <trkpt lat="0" lon="0">
        <time>2020-12-06T07:37:11.109000+00:00</time>
      </trkpt>
      <trkpt lat="47.29987" lon="-1.38759">
        <ele>61</ele>
        <time>2020-12-06T07:37:12.077000+00:00</time>
      </trkpt>
      <trkpt lat="0" lon="0">
        <time>2020-12-06T07:37:12.082000+00:00</time>
      </trkpt>
      <trkpt lat="0" lon="0">
        <time>2020-12-06T07:37:12.086000+00:00</time>
      </trkpt>
      <trkpt lat="0" lon="0">
        <time>2020-12-06T07:37:12.088000+00:00</time>
      </trkpt>
      <trkpt lat="47.29978" lon="-1.38766">
        <ele>60</ele>
        <time>2020-12-06T07:37:13.100000+00:00</time>
      </trkpt>
      <trkpt lat="0" lon="0">
        <time>2020-12-06T07:37:13.114000+00:00</time>
      </trkpt>
      <trkpt lat="0" lon="0">
        <time>2020-12-06T07:37:13.118000+00:00</time>
      </trkpt>
      <trkpt lat="0" lon="0">
        <time>2020-12-06T07:37:13.120000+00:00</time>
      </trkpt>
      <trkpt lat="47.29969" lon="-1.38773">
        <ele>59</ele>
        <time>2020-12-06T07:37:14.090000+00:00</time>
      </trkpt>
      <trkpt lat="0" lon="0">
        <time>2020-12-06T07:37:14.093000+00:00</time>
      </trkpt>
      <trkpt lat="0" lon="0">
        <time>2020-12-06T07:37:14.094000+00:00</time>
      </trkpt>
      <trkpt lat="0" lon="0">
        <time>2020-12-06T07:37:14.095000+00:00</time>
      </trkpt>
      <trkpt lat="47.29961" lon="-1.38781">
        <ele>58</ele>
        <time>2020-12-06T07:37:15.077000+00:00</time>
      </trkpt>
      <trkpt lat="0" lon="0">
        <time>2020-12-06T07:37:15.081000+00:00</time>
      </trkpt>
      <trkpt lat="0" lon="0">
        <time>2020-12-06T07:37:15.093000+00:00</time>
      </trkpt>
      <trkpt lat="0" lon="0">
        <time>2020-12-06T07:37:15.098000+00:00</time>
      </trkpt>
      <trkpt lat="47.29952" lon="-1.38788">
        <ele>57</ele>
        <time>2020-12-06T07:37:16.093000+00:00</time>
      </trkpt>
      <trkpt lat="0" lon="0">
        <time>2020-12-06T07:37:16.114000+00:00</time>
      </trkpt>
      <trkpt lat="0" lon="0">
        <time>2020-12-06T07:37:16.119000+00:00</time>
      </trkpt>
      <trkpt lat="0" lon="0">
        <time>2020-12-06T07:37:16.122000+00:00</time>
      </trkpt>
      <trkpt lat="47.29944" lon="-1.38796">
        <ele>56</ele>
        <time>2020-12-06T07:37:17.097000+00:00</time>
      </trkpt>
      <trkpt lat="0" lon="0">
        <time>2020-12-06T07:37:17.106000+00:00</time>
      </trkpt>
      <trkpt lat="0" lon="0">
        <time>2020-12-06T07:37:17.111000+00:00</time>
      </trkpt>
      <trkpt lat="0" lon="0">
        <time>2020-12-06T07:37:17.115000+00:00</time>
      </trkpt>
      <trkpt lat="47.29935" lon="-1.38804">
        <ele>55</ele>
        <time>2020-12-06T07:37:18.086000+00:00</time>
      </trkpt>
      <trkpt lat="0" lon="0">
        <time>2020-12-06T07:37:18.093000+00:00</time>
      </trkpt>
      <trkpt lat="0" lon="0">
        <time>2020-12-06T07:37:18.103000+00:00</time>
      </trkpt>
      <trkpt lat="0" lon="0">
        <time>2020-12-06T07:37:18.105000+00:00</time>
      </trkpt>
      <trkpt lat="47.29927" lon="-1.38812">
        <ele>54</ele>
        <time>2020-12-06T07:37:19.077000+00:00</time>
      </trkpt>
      <trkpt lat="0" lon="0">
        <time>2020-12-06T07:37:19.086000+00:00</time>
      </trkpt>
      <trkpt lat="0" lon="0">
        <time>2020-12-06T07:37:19.089000+00:00</time>
      </trkpt>
      <trkpt lat="0" lon="0">
        <time>2020-12-06T07:37:19.091000+00:00</time>
      </trkpt>
      <trkpt lat="47.29919" lon="-1.3882">
        <ele>53</ele>
        <time>2020-12-06T07:37:20.102000+00:00</time>
      </trkpt>
      <trkpt lat="0" lon="0">
        <time>2020-12-06T07:37:20.106000+00:00</time>
      </trkpt>
      <trkpt lat="0" lon="0">
        <time>2020-12-06T07:37:20.111000+00:00</time>
      </trkpt>
      <trkpt lat="0" lon="0">
        <time>2020-12-06T07:37:20.113000+00:00</time>
      </trkpt>
      <trkpt lat="47.2991" lon="-1.38828">
        <ele>52</ele>
        <time>2020-12-06T07:37:21.109000+00:00</time>
      </trkpt>
      <trkpt lat="0" lon="0">
        <time>2020-12-06T07:37:21.122000+00:00</time>
      </trkpt>
      <trkpt lat="0" lon="0">
        <time>2020-12-06T07:37:21.131000+00:00</time>
      </trkpt>
      <trkpt lat="0" lon="0">
        <time>2020-12-06T07:37:21.133000+00:00</time>
      </trkpt>
      <trkpt lat="47.29902" lon="-1.38836">
        <ele>51</ele>
        <time>2020-12-06T07:37:22.097000+00:00</time>
      </trkpt>
      <trkpt lat="0" lon="0">
        <time>2020-12-06T07:37:22.106000+00:00</time>
      </trkpt>
      <trkpt lat="0" lon="0">
        <time>2020-12-06T07:37:22.110000+00:00</time>
      </trkpt>
      <trkpt lat="0" lon="0">
        <time>2020-12-06T07:37:22.114000+00:00</time>
      </trkpt>
      <trkpt lat="47.29893" lon="-1.38843">
        <ele>50</ele>
        <time>2020-12-06T07:37:23.055000+00:00</time>
      </trkpt>
      <trkpt lat="0" lon="0">
        <time>2020-12-06T07:37:23.067000+00:00</time>
      </trkpt>
      <trkpt lat="0" lon="0">
        <time>2020-12-06T07:37:23.070000+00:00</time>
      </trkpt>
      <trkpt lat="0" lon="0">
        <time>2020-12-06T07:37:23.072000+00:00</time>
      </trkpt>
      <trkpt lat="47.29883" lon="-1.38848">
        <ele>50</ele>
        <time>2020-12-06T07:37:24.075000+00:00</time>
      </trkpt>
      <trkpt lat="0" lon="0">
        <time>2020-12-06T07:37:24.082000+00:00</time>
      </trkpt>
      <trkpt lat="0" lon="0">
        <time>2020-12-06T07:37:24.086000+00:00</time>
      </trkpt>
      <trkpt lat="0" lon="0">
        <time>2020-12-06T07:37:24.091000+00:00</time>
      </trkpt>
      <trkpt lat="47.29873" lon="-1.38852">
        <ele>49</ele>
        <time>2020-12-06T07:37:25.083000+00:00</time>
      </trkpt>
      <trkpt lat="0" lon="0">
        <time>2020-12-06T07:37:25.088000+00:00</time>
      </trkpt>
      <trkpt lat="0" lon="0">
        <time>2020-12-06T07:37:25.089000+00:00</time>
      </trkpt>
      <trkpt lat="0" lon="0">
        <time>2020-12-06T07:37:25.090000+00:00</time>
      </trkpt>
      <trkpt lat="47.29863" lon="-1.38855">
        <ele>48</ele>
        <time>2020-12-06T07:37:26.091000+00:00</time>
      </trkpt>
      <trkpt lat="0" lon="0">
        <time>2020-12-06T07:37:26.107000+00:00</time>
      </trkpt>
      <trkpt lat="0" lon="0">
        <time>2020-12-06T07:37:26.117000+00:00</time>
      </trkpt>
      <trkpt lat="0" lon="0">
        <time>2020-12-06T07:37:26.118000+00:00</time>
      </trkpt>
      <trkpt lat="47.29851" lon="-1.38857">
        <ele>47</ele>
        <time>2020-12-06T07:37:27.098000+00:00</time>
      </trkpt>
      <trkpt lat="0" lon="0">
        <time>2020-12-06T07:37:27.109000+00:00</time>
      </trkpt>
      <trkpt lat="0" lon="0">
        <time>2020-12-06T07:37:27.115000+00:00</time>
      </trkpt>
      <trkpt lat="0" lon="0">
        <time>2020-12-06T07:37:27.126000+00:00</time>
      </trkpt>
      <trkpt lat="47.29839" lon="-1.38858">
        <ele>46</ele>
        <time>2020-12-06T07:37:28.087000+00:00</time>
      </trkpt>
      <trkpt lat="0" lon="0">
        <time>2020-12-06T07:37:28.100000+00:00</time>
      </trkpt>
      <trkpt lat="0" lon="0">
        <time>2020-12-06T07:37:28.103000+00:00</time>
      </trkpt>
      <trkpt lat="0" lon="0">
        <time>2020-12-06T07:37:28.107000+00:00</time>
      </trkpt>
      <trkpt lat="47.29827" lon="-1.38859">
        <ele>45</ele>
        <time>2020-12-06T07:37:29.109000+00:00</time>
      </trkpt>
      <trkpt lat="0" lon="0">
        <time>2020-12-06T07:37:29.113000+00:00</time>
      </trkpt>
      <trkpt lat="0" lon="0">
        <time>2020-12-06T07:37:29.117000+00:00</time>
      </trkpt>
      <trkpt lat="0" lon="0">
        <time>2020-12-06T07:37:29.119000+00:00</time>
      </trkpt>
      <trkpt lat="47.29814" lon="-1.3886">
        <ele>44</ele>
        <time>2020-12-06T07:37:30.086000+00:00</time>
      </trkpt>
      <trkpt lat="0" lon="0">
        <time>2020-12-06T07:37:30.096000+00:00</time>
      </trkpt>
      <trkpt lat="0" lon="0">
        <time>2020-12-06T07:37:30.102000+00:00</time>
      </trkpt>
      <trkpt lat="0" lon="0">
        <time>2020-12-06T07:37:30.105000+00:00</time>
      </trkpt>
      <trkpt lat="47.298" lon="-1.38861">
        <ele>43</ele>
        <time>2020-12-06T07:37:31.101000+00:00</time>
      </trkpt>
      <trkpt lat="0" lon="0">
        <time>2020-12-06T07:37:31.103000+00:00</time>
      </trkpt>
      <trkpt lat="0" lon="0">
        <time>2020-12-06T07:37:31.105000+00:00</time>
      </trkpt>
      <trkpt lat="0" lon="0">
        <time>2020-12-06T07:37:31.110000+00:00</time>
      </trkpt>
      <trkpt lat="47.29786" lon="-1.38864">
        <ele>41</ele>
        <time>2020-12-06T07:37:32.080000+00:00</time>
      </trkpt>
      <trkpt lat="0" lon="0">
        <time>2020-12-06T07:37:32.089000+00:00</time>
      </trkpt>
      <trkpt lat="0" lon="0">
        <time>2020-12-06T07:37:32.097000+00:00</time>
      </trkpt>
      <trkpt lat="0" lon="0">
        <time>2020-12-06T07:37:32.099000+00:00</time>
      </trkpt>
      <trkpt lat="47.29772" lon="-1.38867">
        <ele>40</ele>
        <time>2020-12-06T07:37:33.052000+00:00</time>
      </trkpt>
      <trkpt lat="0" lon="0">
        <time>2020-12-06T07:37:33.062000+00:00</time>
      </trkpt>
      <trkpt lat="0" lon="0">
        <time>2020-12-06T07:37:33.068000+00:00</time>
      </trkpt>
      <trkpt lat="0" lon="0">
        <time>2020-12-06T07:37:33.070000+00:00</time>
      </trkpt>
      <trkpt lat="47.29758" lon="-1.38873">
        <ele>38</ele>
        <time>2020-12-06T07:37:34.071000+00:00</time>
      </trkpt>
      <trkpt lat="0" lon="0">
        <time>2020-12-06T07:37:34.079000+00:00</time>
      </trkpt>
      <trkpt lat="0" lon="0">
        <time>2020-12-06T07:37:34.088000+00:00</time>
      </trkpt>
      <trkpt lat="0" lon="0">
        <time>2020-12-06T07:37:34.090000+00:00</time>
      </trkpt>
      <trkpt lat="47.29743" lon="-1.3888">
        <ele>36</ele>
        <time>2020-12-06T07:37:35.087000+00:00</time>
      </trkpt>
      <trkpt lat="0" lon="0">
        <time>2020-12-06T07:37:35.091000+00:00</time>
      </trkpt>
      <trkpt lat="0" lon="0">
        <time>2020-12-06T07:37:35.101000+00:00</time>
      </trkpt>
      <trkpt lat="0" lon="0">
        <time>2020-12-06T07:37:35.103000+00:00</time>
      </trkpt>
      <trkpt lat="47.29728" lon="-1.38888">
        <ele>34</ele>
        <time>2020-12-06T07:37:36.092000+00:00</time>
      </trkpt>
      <trkpt lat="0" lon="0">
        <time>2020-12-06T07:37:36.098000+00:00</time>
      </trkpt>
      <trkpt lat="0" lon="0">
        <time>2020-12-06T07:37:36.111000+00:00</time>
      </trkpt>
      <trkpt lat="0" lon="0">
        <time>2020-12-06T07:37:36.113000+00:00</time>
      </trkpt>
      <trkpt lat="47.29713" lon="-1.38896">
        <ele>31</ele>
        <time>2020-12-06T07:37:37.095000+00:00</time>
      </trkpt>
      <trkpt lat="0" lon="0">
        <time>2020-12-06T07:37:37.107000+00:00</time>
      </trkpt>
      <trkpt lat="0" lon="0">
        <time>2020-12-06T07:37:37.110000+00:00</time>
      </trkpt>
      <trkpt lat="0" lon="0">
        <time>2020-12-06T07:37:37.112000+00:00</time>
      </trkpt>
      <trkpt lat="47.29698" lon="-1.38904">
        <ele>29</ele>
        <time>2020-12-06T07:37:38.063000+00:00</time>
      </trkpt>
      <trkpt lat="0" lon="0">
        <time>2020-12-06T07:37:38.069000+00:00</time>
      </trkpt>
      <trkpt lat="0" lon="0">
        <time>2020-12-06T07:37:38.079000+00:00</time>
      </trkpt>
      <trkpt lat="0" lon="0">
        <time>2020-12-06T07:37:38.081000+00:00</time>
      </trkpt>
      <trkpt lat="47.29682" lon="-1.38912">
        <ele>26</ele>
        <time>2020-12-06T07:37:39.131000+00:00</time>
      </trkpt>
      <trkpt lat="0" lon="0">
        <time>2020-12-06T07:37:39.138000+00:00</time>
      </trkpt>
      <trkpt lat="0" lon="0">
        <time>2020-12-06T07:37:39.146000+00:00</time>
      </trkpt>
      <trkpt lat="0" lon="0">
        <time>2020-12-06T07:37:39.156000+00:00</time>
      </trkpt>
      <trkpt lat="47.29666" lon="-1.38919">
        <ele>24</ele>
        <time>2020-12-06T07:37:40.069000+00:00</time>
      </trkpt>
      <trkpt lat="0" lon="0">
        <time>2020-12-06T07:37:40.071000+00:00</time>
      </trkpt>
      <trkpt lat="0" lon="0">
        <time>2020-12-06T07:37:40.074000+00:00</time>
      </trkpt>
      <trkpt lat="0" lon="0">
        <time>2020-12-06T07:37:40.075000+00:00</time>
      </trkpt>
      <trkpt lat="47.2965" lon="-1.38925">
        <ele>23</ele>
        <time>2020-12-06T07:37:41.081000+00:00</time>
      </trkpt>
      <trkpt lat="0" lon="0">
        <time>2020-12-06T07:37:41.089000+00:00</time>
      </trkpt>
      <trkpt lat="0" lon="0">
        <time>2020-12-06T07:37:41.099000+00:00</time>
      </trkpt>
      <trkpt lat="0" lon="0">
        <time>2020-12-06T07:37:41.103000+00:00</time>
      </trkpt>
      <trkpt lat="47.29634" lon="-1.3893">
        <ele>22</ele>
        <time>2020-12-06T07:37:42.121000+00:00</time>
      </trkpt>
      <trkpt lat="0" lon="0">
        <time>2020-12-06T07:37:42.130000+00:00</time>
      </trkpt>
      <trkpt lat="0" lon="0">
        <time>2020-12-06T07:37:42.131000+00:00</time>
      </trkpt>
      <trkpt lat="0" lon="0">
        <time>2020-12-06T07:37:42.132000+00:00</time>
      </trkpt>
      <trkpt lat="47.29618" lon="-1.38933">
        <ele>20</ele>
        <time>2020-12-06T07:37:43.085000+00:00</time>
      </trkpt>
      <trkpt lat="0" lon="0">
        <time>2020-12-06T07:37:43.088000+00:00</time>
      </trkpt>
      <trkpt lat="0" lon="0">
        <time>2020-12-06T07:37:43.098000+00:00</time>
      </trkpt>
      <trkpt lat="0" lon="0">
        <time>2020-12-06T07:37:43.100000+00:00</time>
      </trkpt>
      <trkpt lat="47.29602" lon="-1.38935">
        <ele>19</ele>
        <time>2020-12-06T07:37:44.093000+00:00</time>
      </trkpt>
      <trkpt lat="0" lon="0">
        <time>2020-12-06T07:37:44.103000+00:00</time>
      </trkpt>
      <trkpt lat="0" lon="0">
        <time>2020-12-06T07:37:44.109000+00:00</time>
      </trkpt>
      <trkpt lat="0" lon="0">
        <time>2020-12-06T07:37:44.110000+00:00</time>
      </trkpt>
      <trkpt lat="47.29585" lon="-1.38934">
        <ele>17</ele>
        <time>2020-12-06T07:37:45.093000+00:00</time>
      </trkpt>
      <trkpt lat="0" lon="0">
        <time>2020-12-06T07:37:45.102000+00:00</time>
      </trkpt>
      <trkpt lat="0" lon="0">
        <time>2020-12-06T07:37:45.106000+00:00</time>
      </trkpt>
      <trkpt lat="0" lon="0">
        <time>2020-12-06T07:37:45.109000+00:00</time>
      </trkpt>
      <trkpt lat="47.29568" lon="-1.38931">
        <ele>16</ele>
        <time>2020-12-06T07:37:46.086000+00:00</time>
      </trkpt>
      <trkpt lat="0" lon="0">
        <time>2020-12-06T07:37:46.089000+00:00</time>
      </trkpt>
      <trkpt lat="0" lon="0">
        <time>2020-12-06T07:37:46.101000+00:00</time>
      </trkpt>
      <trkpt lat="0" lon="0">
        <time>2020-12-06T07:37:46.104000+00:00</time>
      </trkpt>
      <trkpt lat="47.29552" lon="-1.38926">
        <ele>14</ele>
        <time>2020-12-06T07:37:47.079000+00:00</time>
      </trkpt>
      <trkpt lat="0" lon="0">
        <time>2020-12-06T07:37:47.094000+00:00</time>
      </trkpt>
      <trkpt lat="0" lon="0">
        <time>2020-12-06T07:37:47.098000+00:00</time>
      </trkpt>
      <trkpt lat="0" lon="0">
        <time>2020-12-06T07:37:47.099000+00:00</time>
      </trkpt>
      <trkpt lat="47.29535" lon="-1.3892">
        <ele>12</ele>
        <time>2020-12-06T07:37:48.086000+00:00</time>
      </trkpt>
      <trkpt lat="0" lon="0">
        <time>2020-12-06T07:37:48.096000+00:00</time>
      </trkpt>
      <trkpt lat="0" lon="0">
        <time>2020-12-06T07:37:48.099000+00:00</time>
      </trkpt>
      <trkpt lat="0" lon="0">
        <time>2020-12-06T07:37:48.101000+00:00</time>
      </trkpt>
      <trkpt lat="47.29519" lon="-1.38912">
        <ele>10</ele>
        <time>2020-12-06T07:37:49.082000+00:00</time>
      </trkpt>
      <trkpt lat="0" lon="0">
        <time>2020-12-06T07:37:49.098000+00:00</time>
      </trkpt>
      <trkpt lat="0" lon="0">
        <time>2020-12-06T07:37:49.105000+00:00</time>
      </trkpt>
      <trkpt lat="0" lon="0">
        <time>2020-12-06T07:37:49.110000+00:00</time>
      </trkpt>
      <trkpt lat="47.29503" lon="-1.38905">
        <ele>9</ele>
        <time>2020-12-06T07:37:50.085000+00:00</time>
      </trkpt>
      <trkpt lat="0" lon="0">
        <time>2020-12-06T07:37:50.089000+00:00</time>
      </trkpt>
      <trkpt lat="0" lon="0">
        <time>2020-12-06T07:37:50.093000+00:00</time>
      </trkpt>
      <trkpt lat="0" lon="0">
        <time>2020-12-06T07:37:50.097000+00:00</time>
      </trkpt>
      <trkpt lat="47.29488" lon="-1.38897">
        <ele>8</ele>
        <time>2020-12-06T07:37:51.105000+00:00</time>
      </trkpt>
      <trkpt lat="0" lon="0">
        <time>2020-12-06T07:37:51.127000+00:00</time>
      </trkpt>
      <trkpt lat="0" lon="0">
        <time>2020-12-06T07:37:51.130000+00:00</time>
      </trkpt>
      <trkpt lat="0" lon="0">
        <time>2020-12-06T07:37:51.132000+00:00</time>
      </trkpt>
      <trkpt lat="47.29473" lon="-1.3889">
        <ele>8</ele>
        <time>2020-12-06T07:37:52.101000+00:00</time>
      </trkpt>
      <trkpt lat="0" lon="0">
        <time>2020-12-06T07:37:52.111000+00:00</time>
      </trkpt>
      <trkpt lat="0" lon="0">
        <time>2020-12-06T07:37:52.119000+00:00</time>
      </trkpt>
      <trkpt lat="0" lon="0">
        <time>2020-12-06T07:37:52.122000+00:00</time>
      </trkpt>
      <trkpt lat="47.29459" lon="-1.38883">
        <ele>8</ele>
        <time>2020-12-06T07:37:53.138000+00:00</time>
      </trkpt>
      <trkpt lat="0" lon="0">
        <time>2020-12-06T07:37:53.142000+00:00</time>
      </trkpt>
      <trkpt lat="0" lon="0">
        <time>2020-12-06T07:37:53.145000+00:00</time>
      </trkpt>
      <trkpt lat="0" lon="0">
        <time>2020-12-06T07:37:53.148000+00:00</time>
      </trkpt>
      <trkpt lat="47.29447" lon="-1.38877">
        <ele>7</ele>
        <time>2020-12-06T07:37:54.085000+00:00</time>
      </trkpt>
      <trkpt lat="0" lon="0">
        <time>2020-12-06T07:37:54.097000+00:00</time>
      </trkpt>
      <trkpt lat="0" lon="0">
        <time>2020-12-06T07:37:54.098000+00:00</time>
      </trkpt>
      <trkpt lat="0" lon="0">
        <time>2020-12-06T07:37:54.100000+00:00</time>
      </trkpt>
      <trkpt lat="47.29437" lon="-1.38872">
        <ele>7</ele>
        <time>2020-12-06T07:37:55.040000+00:00</time>
      </trkpt>
      <trkpt lat="0" lon="0">
        <time>2020-12-06T07:37:55.041000+00:00</time>
      </trkpt>
      <trkpt lat="0" lon="0">
        <time>2020-12-06T07:37:55.043000+00:00</time>
      </trkpt>
      <trkpt lat="47.29428" lon="-1.38867">
        <ele>7</ele>
        <time>2020-12-06T07:37:56.126000+00:00</time>
      </trkpt>
      <trkpt lat="0" lon="0">
        <time>2020-12-06T07:37:56.142000+00:00</time>
      </trkpt>
      <trkpt lat="0" lon="0">
        <time>2020-12-06T07:37:56.146000+00:00</time>
      </trkpt>
      <trkpt lat="0" lon="0">
        <time>2020-12-06T07:37:56.149000+00:00</time>
      </trkpt>
      <trkpt lat="47.2942" lon="-1.38864">
        <ele>7</ele>
        <time>2020-12-06T07:37:57.049000+00:00</time>
      </trkpt>
      <trkpt lat="0" lon="0">
        <time>2020-12-06T07:37:57.060000+00:00</time>
      </trkpt>
      <trkpt lat="0" lon="0">
        <time>2020-12-06T07:37:57.064000+00:00</time>
      </trkpt>
      <trkpt lat="0" lon="0">
        <time>2020-12-06T07:37:57.065000+00:00</time>
      </trkpt>
      <trkpt lat="47.29414" lon="-1.3886">
        <ele>6</ele>
        <time>2020-12-06T07:37:58.043000+00:00</time>
      </trkpt>
      <trkpt lat="0" lon="0">
        <time>2020-12-06T07:37:58.049000+00:00</time>
      </trkpt>
      <trkpt lat="0" lon="0">
        <time>2020-12-06T07:37:58.051000+00:00</time>
      </trkpt>
      <trkpt lat="0" lon="0">
        <time>2020-12-06T07:37:58.052000+00:00</time>
      </trkpt>
      <trkpt lat="47.2941" lon="-1.38856">
        <ele>6</ele>
        <time>2020-12-06T07:37:59.134000+00:00</time>
      </trkpt>
      <trkpt lat="0" lon="0">
        <time>2020-12-06T07:37:59.136000+00:00</time>
      </trkpt>
      <trkpt lat="0" lon="0">
        <time>2020-12-06T07:37:59.138000+00:00</time>
      </trkpt>
      <trkpt lat="0" lon="0">
        <time>2020-12-06T07:37:59.140000+00:00</time>
      </trkpt>
      <trkpt lat="47.29407" lon="-1.38851">
        <ele>6</ele>
        <time>2020-12-06T07:38:00.100000+00:00</time>
      </trkpt>
      <trkpt lat="0" lon="0">
        <time>2020-12-06T07:38:00.106000+00:00</time>
      </trkpt>
      <trkpt lat="0" lon="0">
        <time>2020-12-06T07:38:00.112000+00:00</time>
      </trkpt>
      <trkpt lat="0" lon="0">
        <time>2020-12-06T07:38:00.114000+00:00</time>
      </trkpt>
      <trkpt lat="47.29404" lon="-1.38846">
        <ele>6</ele>
        <time>2020-12-06T07:38:01.048000+00:00</time>
      </trkpt>
      <trkpt lat="0" lon="0">
        <time>2020-12-06T07:38:01.058000+00:00</time>
      </trkpt>
      <trkpt lat="0" lon="0">
        <time>2020-12-06T07:38:01.066000+00:00</time>
      </trkpt>
      <trkpt lat="0" lon="0">
        <time>2020-12-06T07:38:01.068000+00:00</time>
      </trkpt>
      <trkpt lat="47.29403" lon="-1.3884">
        <ele>6</ele>
        <time>2020-12-06T07:38:02.111000+00:00</time>
      </trkpt>
      <trkpt lat="0" lon="0">
        <time>2020-12-06T07:38:02.127000+00:00</time>
      </trkpt>
      <trkpt lat="0" lon="0">
        <time>2020-12-06T07:38:02.130000+00:00</time>
      </trkpt>
      <trkpt lat="0" lon="0">
        <time>2020-12-06T07:38:02.132000+00:00</time>
      </trkpt>
      <trkpt lat="47.29403" lon="-1.38834">
        <ele>6</ele>
        <time>2020-12-06T07:38:03.094000+00:00</time>
      </trkpt>
      <trkpt lat="0" lon="0">
        <time>2020-12-06T07:38:03.104000+00:00</time>
      </trkpt>
      <trkpt lat="0" lon="0">
        <time>2020-12-06T07:38:03.108000+00:00</time>
      </trkpt>
      <trkpt lat="0" lon="0">
        <time>2020-12-06T07:38:03.110000+00:00</time>
      </trkpt>
      <trkpt lat="47.29402" lon="-1.38828">
        <ele>6</ele>
        <time>2020-12-06T07:38:04.135000+00:00</time>
      </trkpt>
      <trkpt lat="0" lon="0">
        <time>2020-12-06T07:38:04.148000+00:00</time>
      </trkpt>
      <trkpt lat="0" lon="0">
        <time>2020-12-06T07:38:04.154000+00:00</time>
      </trkpt>
      <trkpt lat="0" lon="0">
        <time>2020-12-06T07:38:04.162000+00:00</time>
      </trkpt>
      <trkpt lat="47.29401" lon="-1.38822">
        <ele>6</ele>
        <time>2020-12-06T07:38:05.046000+00:00</time>
      </trkpt>
      <trkpt lat="0" lon="0">
        <time>2020-12-06T07:38:05.055000+00:00</time>
      </trkpt>
      <trkpt lat="0" lon="0">
        <time>2020-12-06T07:38:05.059000+00:00</time>
      </trkpt>
      <trkpt lat="0" lon="0">
        <time>2020-12-06T07:38:05.067000+00:00</time>
      </trkpt>
      <trkpt lat="47.294" lon="-1.38816">
        <ele>6</ele>
        <time>2020-12-06T07:38:06.121000+00:00</time>
      </trkpt>
      <trkpt lat="0" lon="0">
        <time>2020-12-06T07:38:06.127000+00:00</time>
      </trkpt>
      <trkpt lat="0" lon="0">
        <time>2020-12-06T07:38:06.130000+00:00</time>
      </trkpt>
      <trkpt lat="0" lon="0">
        <time>2020-12-06T07:38:06.137000+00:00</time>
      </trkpt>
      <trkpt lat="47.29398" lon="-1.3881">
        <ele>6</ele>
        <time>2020-12-06T07:38:07.125000+00:00</time>
      </trkpt>
      <trkpt lat="0" lon="0">
        <time>2020-12-06T07:38:07.131000+00:00</time>
      </trkpt>
      <trkpt lat="0" lon="0">
        <time>2020-12-06T07:38:07.140000+00:00</time>
      </trkpt>
      <trkpt lat="0" lon="0">
        <time>2020-12-06T07:38:07.144000+00:00</time>
      </trkpt>
      <trkpt lat="47.29396" lon="-1.38803">
        <ele>6</ele>
        <time>2020-12-06T07:38:08.138000+00:00</time>
      </trkpt>
      <trkpt lat="0" lon="0">
        <time>2020-12-06T07:38:08.146000+00:00</time>
      </trkpt>
      <trkpt lat="0" lon="0">
        <time>2020-12-06T07:38:08.151000+00:00</time>
      </trkpt>
      <trkpt lat="0" lon="0">
        <time>2020-12-06T07:38:08.156000+00:00</time>
      </trkpt>
      <trkpt lat="47.29393" lon="-1.38797">
        <ele>6</ele>
        <time>2020-12-06T07:38:09.079000+00:00</time>
      </trkpt>
      <trkpt lat="0" lon="0">
        <time>2020-12-06T07:38:09.087000+00:00</time>
      </trkpt>
      <trkpt lat="0" lon="0">
        <time>2020-12-06T07:38:09.090000+00:00</time>
      </trkpt>
      <trkpt lat="0" lon="0">
        <time>2020-12-06T07:38:09.091000+00:00</time>
      </trkpt>
      <trkpt lat="47.2939" lon="-1.3879">
        <ele>6</ele>
        <time>2020-12-06T07:38:10.134000+00:00</time>
      </trkpt>
      <trkpt lat="0" lon="0">
        <time>2020-12-06T07:38:10.148000+00:00</time>
      </trkpt>
      <trkpt lat="0" lon="0">
        <time>2020-12-06T07:38:10.156000+00:00</time>
      </trkpt>
      <trkpt lat="0" lon="0">
        <time>2020-12-06T07:38:10.162000+00:00</time>
      </trkpt>
      <trkpt lat="47.29387" lon="-1.38783">
        <ele>6</ele>
        <time>2020-12-06T07:38:11.130000+00:00</time>
      </trkpt>
      <trkpt lat="0" lon="0">
        <time>2020-12-06T07:38:11.135000+00:00</time>
      </trkpt>
      <trkpt lat="0" lon="0">
        <time>2020-12-06T07:38:11.146000+00:00</time>
      </trkpt>
      <trkpt lat="0" lon="0">
        <time>2020-12-06T07:38:11.148000+00:00</time>
      </trkpt>
      <trkpt lat="47.29383" lon="-1.38776">
        <ele>5</ele>
        <time>2020-12-06T07:38:12.161000+00:00</time>
      </trkpt>
      <trkpt lat="0" lon="0">
        <time>2020-12-06T07:38:12.169000+00:00</time>
      </trkpt>
      <trkpt lat="0" lon="0">
        <time>2020-12-06T07:38:12.173000+00:00</time>
      </trkpt>
      <trkpt lat="0" lon="0">
        <time>2020-12-06T07:38:12.175000+00:00</time>
      </trkpt>
      <trkpt lat="47.29379" lon="-1.38769">
        <ele>5</ele>
        <time>2020-12-06T07:38:13.126000+00:00</time>
      </trkpt>
      <trkpt lat="0" lon="0">
        <time>2020-12-06T07:38:13.141000+00:00</time>
      </trkpt>
      <trkpt lat="0" lon="0">
        <time>2020-12-06T07:38:13.151000+00:00</time>
      </trkpt>
      <trkpt lat="0" lon="0">
        <time>2020-12-06T07:38:13.155000+00:00</time>
      </trkpt>
      <trkpt lat="47.29375" lon="-1.38762">
        <ele>5</ele>
        <time>2020-12-06T07:38:14.122000+00:00</time>
      </trkpt>
      <trkpt lat="0" lon="0">
        <time>2020-12-06T07:38:14.127000+00:00</time>
      </trkpt>
      <trkpt lat="0" lon="0">
        <time>2020-12-06T07:38:14.143000+00:00</time>
      </trkpt>
      <trkpt lat="0" lon="0">
        <time>2020-12-06T07:38:14.145000+00:00</time>
      </trkpt>
      <trkpt lat="47.29371" lon="-1.38754">
        <ele>5</ele>
        <time>2020-12-06T07:38:15.152000+00:00</time>
      </trkpt>
      <trkpt lat="0" lon="0">
        <time>2020-12-06T07:38:15.167000+00:00</time>
      </trkpt>
      <trkpt lat="0" lon="0">
        <time>2020-12-06T07:38:15.177000+00:00</time>
      </trkpt>
      <trkpt lat="0" lon="0">
        <time>2020-12-06T07:38:15.180000+00:00</time>
      </trkpt>
      <trkpt lat="47.29366" lon="-1.38747">
        <ele>5</ele>
        <time>2020-12-06T07:38:16.139000+00:00</time>
      </trkpt>
      <trkpt lat="0" lon="0">
        <time>2020-12-06T07:38:16.146000+00:00</time>
      </trkpt>
      <trkpt lat="0" lon="0">
        <time>2020-12-06T07:38:16.148000+00:00</time>
      </trkpt>
      <trkpt lat="0" lon="0">
        <time>2020-12-06T07:38:16.149000+00:00</time>
      </trkpt>
      <trkpt lat="47.29361" lon="-1.3874">
        <ele>5</ele>
        <time>2020-12-06T07:38:17.129000+00:00</time>
      </trkpt>
      <trkpt lat="0" lon="0">
        <time>2020-12-06T07:38:17.141000+00:00</time>
      </trkpt>
      <trkpt lat="0" lon="0">
        <time>2020-12-06T07:38:17.150000+00:00</time>
      </trkpt>
      <trkpt lat="0" lon="0">
        <time>2020-12-06T07:38:17.155000+00:00</time>
      </trkpt>
      <trkpt lat="47.29357" lon="-1.38734">
        <ele>5</ele>
        <time>2020-12-06T07:38:18.139000+00:00</time>
      </trkpt>
      <trkpt lat="0" lon="0">
        <time>2020-12-06T07:38:18.145000+00:00</time>
      </trkpt>
      <trkpt lat="0" lon="0">
        <time>2020-12-06T07:38:18.150000+00:00</time>
      </trkpt>
      <trkpt lat="0" lon="0">
        <time>2020-12-06T07:38:18.156000+00:00</time>
      </trkpt>
      <trkpt lat="47.29353" lon="-1.38727">
        <ele>5</ele>
        <time>2020-12-06T07:38:19.140000+00:00</time>
      </trkpt>
      <trkpt lat="0" lon="0">
        <time>2020-12-06T07:38:19.146000+00:00</time>
      </trkpt>
      <trkpt lat="0" lon="0">
        <time>2020-12-06T07:38:19.151000+00:00</time>
      </trkpt>
      <trkpt lat="0" lon="0">
        <time>2020-12-06T07:38:19.153000+00:00</time>
      </trkpt>
      <trkpt lat="47.2935" lon="-1.38721">
        <ele>5</ele>
        <time>2020-12-06T07:38:20.164000+00:00</time>
      </trkpt>
      <trkpt lat="0" lon="0">
        <time>2020-12-06T07:38:20.172000+00:00</time>
      </trkpt>
      <trkpt lat="0" lon="0">
        <time>2020-12-06T07:38:20.175000+00:00</time>
      </trkpt>
      <trkpt lat="0" lon="0">
        <time>2020-12-06T07:38:20.177000+00:00</time>
      </trkpt>
      <trkpt lat="47.29348" lon="-1.38715">
        <ele>5</ele>
        <time>2020-12-06T07:38:21.129000+00:00</time>
      </trkpt>
      <trkpt lat="0" lon="0">
        <time>2020-12-06T07:38:21.138000+00:00</time>
      </trkpt>
      <trkpt lat="0" lon="0">
        <time>2020-12-06T07:38:21.148000+00:00</time>
      </trkpt>
      <trkpt lat="0" lon="0">
        <time>2020-12-06T07:38:21.152000+00:00</time>
      </trkpt>
      <trkpt lat="47.29348" lon="-1.3871">
        <ele>5</ele>
        <time>2020-12-06T07:38:22.111000+00:00</time>
      </trkpt>
      <trkpt lat="0" lon="0">
        <time>2020-12-06T07:38:22.125000+00:00</time>
      </trkpt>
      <trkpt lat="0" lon="0">
        <time>2020-12-06T07:38:22.126000+00:00</time>
      </trkpt>
      <trkpt lat="0" lon="0">
        <time>2020-12-06T07:38:22.128000+00:00</time>
      </trkpt>
      <trkpt lat="47.29348" lon="-1.38707">
        <ele>5</ele>
        <time>2020-12-06T07:38:23.115000+00:00</time>
      </trkpt>
      <trkpt lat="0" lon="0">
        <time>2020-12-06T07:38:23.122000+00:00</time>
      </trkpt>
      <trkpt lat="0" lon="0">
        <time>2020-12-06T07:38:23.126000+00:00</time>
      </trkpt>
      <trkpt lat="0" lon="0">
        <time>2020-12-06T07:38:23.127000+00:00</time>
      </trkpt>
      <trkpt lat="47.29348" lon="-1.38706">
        <ele>5</ele>
        <time>2020-12-06T07:38:24.115000+00:00</time>
      </trkpt>
      <trkpt lat="0" lon="0">
        <time>2020-12-06T07:38:24.124000+00:00</time>
      </trkpt>
      <trkpt lat="0" lon="0">
        <time>2020-12-06T07:38:24.130000+00:00</time>
      </trkpt>
      <trkpt lat="0" lon="0">
        <time>2020-12-06T07:38:24.133000+00:00</time>
      </trkpt>
      <trkpt lat="47.29349" lon="-1.38706">
        <ele>5</ele>
        <time>2020-12-06T07:38:25.133000+00:00</time>
      </trkpt>
      <trkpt lat="0" lon="0">
        <time>2020-12-06T07:38:25.141000+00:00</time>
      </trkpt>
      <trkpt lat="0" lon="0">
        <time>2020-12-06T07:38:25.146000+00:00</time>
      </trkpt>
      <trkpt lat="0" lon="0">
        <time>2020-12-06T07:38:25.149000+00:00</time>
      </trkpt>
      <trkpt lat="47.2935" lon="-1.38706">
        <ele>5</ele>
        <time>2020-12-06T07:38:26.109000+00:00</time>
      </trkpt>
      <trkpt lat="0" lon="0">
        <time>2020-12-06T07:38:26.121000+00:00</time>
      </trkpt>
      <trkpt lat="0" lon="0">
        <time>2020-12-06T07:38:26.134000+00:00</time>
      </trkpt>
      <trkpt lat="0" lon="0">
        <time>2020-12-06T07:38:26.136000+00:00</time>
      </trkpt>
      <trkpt lat="47.2935" lon="-1.38707">
        <ele>5</ele>
        <time>2020-12-06T07:38:27.117000+00:00</time>
      </trkpt>
      <trkpt lat="0" lon="0">
        <time>2020-12-06T07:38:27.121000+00:00</time>
      </trkpt>
      <trkpt lat="0" lon="0">
        <time>2020-12-06T07:38:27.124000+00:00</time>
      </trkpt>
      <trkpt lat="0" lon="0">
        <time>2020-12-06T07:38:27.128000+00:00</time>
      </trkpt>
      <trkpt lat="47.29351" lon="-1.38708">
        <ele>5</ele>
        <time>2020-12-06T07:38:28.118000+00:00</time>
      </trkpt>
      <trkpt lat="0" lon="0">
        <time>2020-12-06T07:38:28.125000+00:00</time>
      </trkpt>
      <trkpt lat="0" lon="0">
        <time>2020-12-06T07:38:28.129000+00:00</time>
      </trkpt>
      <trkpt lat="0" lon="0">
        <time>2020-12-06T07:38:28.132000+00:00</time>
      </trkpt>
      <trkpt lat="47.29352" lon="-1.38709">
        <ele>5</ele>
        <time>2020-12-06T07:38:29.125000+00:00</time>
      </trkpt>
      <trkpt lat="0" lon="0">
        <time>2020-12-06T07:38:29.133000+00:00</time>
      </trkpt>
      <trkpt lat="0" lon="0">
        <time>2020-12-06T07:38:29.142000+00:00</time>
      </trkpt>
      <trkpt lat="0" lon="0">
        <time>2020-12-06T07:38:29.143000+00:00</time>
      </trkpt>
      <trkpt lat="47.29353" lon="-1.38711">
        <ele>5</ele>
        <time>2020-12-06T07:38:30.121000+00:00</time>
      </trkpt>
      <trkpt lat="0" lon="0">
        <time>2020-12-06T07:38:30.141000+00:00</time>
      </trkpt>
      <trkpt lat="0" lon="0">
        <time>2020-12-06T07:38:30.149000+00:00</time>
      </trkpt>
      <trkpt lat="0" lon="0">
        <time>2020-12-06T07:38:30.151000+00:00</time>
      </trkpt>
      <trkpt lat="47.29354" lon="-1.38713">
        <ele>5</ele>
        <time>2020-12-06T07:38:31.084000+00:00</time>
      </trkpt>
      <trkpt lat="0" lon="0">
        <time>2020-12-06T07:38:31.092000+00:00</time>
      </trkpt>
      <trkpt lat="0" lon="0">
        <time>2020-12-06T07:38:31.100000+00:00</time>
      </trkpt>
      <trkpt lat="0" lon="0">
        <time>2020-12-06T07:38:31.103000+00:00</time>
      </trkpt>
      <trkpt lat="47.29355" lon="-1.38714">
        <ele>5</ele>
        <time>2020-12-06T07:38:32.113000+00:00</time>
      </trkpt>
      <trkpt lat="0" lon="0">
        <time>2020-12-06T07:38:32.117000+00:00</time>
      </trkpt>
      <trkpt lat="0" lon="0">
        <time>2020-12-06T07:38:32.121000+00:00</time>
      </trkpt>
      <trkpt lat="0" lon="0">
        <time>2020-12-06T07:38:32.124000+00:00</time>
      </trkpt>
      <trkpt lat="47.29355" lon="-1.38716">
        <ele>5</ele>
        <time>2020-12-06T07:38:33.098000+00:00</time>
      </trkpt>
      <trkpt lat="0" lon="0">
        <time>2020-12-06T07:38:33.102000+00:00</time>
      </trkpt>
      <trkpt lat="0" lon="0">
        <time>2020-12-06T07:38:33.107000+00:00</time>
      </trkpt>
      <trkpt lat="0" lon="0">
        <time>2020-12-06T07:38:33.113000+00:00</time>
      </trkpt>
      <trkpt lat="47.29356" lon="-1.38717">
        <ele>5</ele>
        <time>2020-12-06T07:38:34.156000+00:00</time>
      </trkpt>
      <trkpt lat="0" lon="0">
        <time>2020-12-06T07:38:34.170000+00:00</time>
      </trkpt>
      <trkpt lat="0" lon="0">
        <time>2020-12-06T07:38:34.181000+00:00</time>
      </trkpt>
      <trkpt lat="0" lon="0">
        <time>2020-12-06T07:38:34.198000+00:00</time>
      </trkpt>
      <trkpt lat="47.29343" lon="-1.38731">
        <ele>5</ele>
        <time>2020-12-06T07:38:35.167000+00:00</time>
      </trkpt>
      <trkpt lat="0" lon="0">
        <time>2020-12-06T07:38:35.169000+00:00</time>
      </trkpt>
      <trkpt lat="0" lon="0">
        <time>2020-12-06T07:38:35.173000+00:00</time>
      </trkpt>
      <trkpt lat="47.29341" lon="-1.38728">
        <ele>5</ele>
        <time>2020-12-06T07:38:36.184000+00:00</time>
      </trkpt>
      <trkpt lat="0" lon="0">
        <time>2020-12-06T07:38:36.194000+00:00</time>
      </trkpt>
      <trkpt lat="0" lon="0">
        <time>2020-12-06T07:38:36.200000+00:00</time>
      </trkpt>
      <trkpt lat="0" lon="0">
        <time>2020-12-06T07:38:36.202000+00:00</time>
      </trkpt>
      <trkpt lat="47.2934" lon="-1.38724">
        <ele>5</ele>
        <time>2020-12-06T07:38:37.191000+00:00</time>
      </trkpt>
      <trkpt lat="0" lon="0">
        <time>2020-12-06T07:38:37.204000+00:00</time>
      </trkpt>
      <trkpt lat="0" lon="0">
        <time>2020-12-06T07:38:37.208000+00:00</time>
      </trkpt>
      <trkpt lat="0" lon="0">
        <time>2020-12-06T07:38:37.211000+00:00</time>
      </trkpt>
      <trkpt lat="47.29339" lon="-1.3872">
        <ele>5</ele>
        <time>2020-12-06T07:38:38.187000+00:00</time>
      </trkpt>
      <trkpt lat="0" lon="0">
        <time>2020-12-06T07:38:38.195000+00:00</time>
      </trkpt>
      <trkpt lat="0" lon="0">
        <time>2020-12-06T07:38:38.201000+00:00</time>
      </trkpt>
      <trkpt lat="0" lon="0">
        <time>2020-12-06T07:38:38.203000+00:00</time>
      </trkpt>
      <trkpt lat="47.29338" lon="-1.38716">
        <ele>5</ele>
        <time>2020-12-06T07:38:39.202000+00:00</time>
      </trkpt>
      <trkpt lat="0" lon="0">
        <time>2020-12-06T07:38:39.210000+00:00</time>
      </trkpt>
      <trkpt lat="0" lon="0">
        <time>2020-12-06T07:38:39.218000+00:00</time>
      </trkpt>
      <trkpt lat="0" lon="0">
        <time>2020-12-06T07:38:39.220000+00:00</time>
      </trkpt>
      <trkpt lat="47.29337" lon="-1.38714">
        <ele>5</ele>
        <time>2020-12-06T07:38:40.214000+00:00</time>
      </trkpt>
      <trkpt lat="0" lon="0">
        <time>2020-12-06T07:38:40.222000+00:00</time>
      </trkpt>
      <trkpt lat="0" lon="0">
        <time>2020-12-06T07:38:40.226000+00:00</time>
      </trkpt>
      <trkpt lat="0" lon="0">
        <time>2020-12-06T07:38:40.228000+00:00</time>
      </trkpt>
      <trkpt lat="47.29335" lon="-1.38713">
        <ele>5</ele>
        <time>2020-12-06T07:38:41.222000+00:00</time>
      </trkpt>
      <trkpt lat="0" lon="0">
        <time>2020-12-06T07:38:41.230000+00:00</time>
      </trkpt>
      <trkpt lat="0" lon="0">
        <time>2020-12-06T07:38:41.233000+00:00</time>
      </trkpt>
      <trkpt lat="0" lon="0">
        <time>2020-12-06T07:38:41.236000+00:00</time>
      </trkpt>
      <trkpt lat="47.29333" lon="-1.38715">
        <ele>4</ele>
        <time>2020-12-06T07:38:42.237000+00:00</time>
      </trkpt>
      <trkpt lat="0" lon="0">
        <time>2020-12-06T07:38:42.257000+00:00</time>
      </trkpt>
      <trkpt lat="0" lon="0">
        <time>2020-12-06T07:38:42.265000+00:00</time>
      </trkpt>
      <trkpt lat="0" lon="0">
        <time>2020-12-06T07:38:42.267000+00:00</time>
      </trkpt>
      <trkpt lat="47.2933" lon="-1.38717">
        <ele>4</ele>
        <time>2020-12-06T07:38:43.223000+00:00</time>
      </trkpt>
      <trkpt lat="0" lon="0">
        <time>2020-12-06T07:38:43.227000+00:00</time>
      </trkpt>
      <trkpt lat="0" lon="0">
        <time>2020-12-06T07:38:43.237000+00:00</time>
      </trkpt>
      <trkpt lat="0" lon="0">
        <time>2020-12-06T07:38:43.240000+00:00</time>
      </trkpt>
      <trkpt lat="47.29328" lon="-1.38721">
        <ele>4</ele>
        <time>2020-12-06T07:38:44.249000+00:00</time>
      </trkpt>
      <trkpt lat="0" lon="0">
        <time>2020-12-06T07:38:44.265000+00:00</time>
      </trkpt>
      <trkpt lat="0" lon="0">
        <time>2020-12-06T07:38:44.274000+00:00</time>
      </trkpt>
      <trkpt lat="0" lon="0">
        <time>2020-12-06T07:38:44.281000+00:00</time>
      </trkpt>
      <trkpt lat="47.29325" lon="-1.38727">
        <ele>4</ele>
        <time>2020-12-06T07:38:45.233000+00:00</time>
      </trkpt>
      <trkpt lat="0" lon="0">
        <time>2020-12-06T07:38:45.238000+00:00</time>
      </trkpt>
      <trkpt lat="0" lon="0">
        <time>2020-12-06T07:38:45.249000+00:00</time>
      </trkpt>
      <trkpt lat="0" lon="0">
        <time>2020-12-06T07:38:45.251000+00:00</time>
      </trkpt>
      <trkpt lat="47.29323" lon="-1.38733">
        <ele>4</ele>
        <time>2020-12-06T07:38:46.248000+00:00</time>
      </trkpt>
      <trkpt lat="0" lon="0">
        <time>2020-12-06T07:38:46.256000+00:00</time>
      </trkpt>
      <trkpt lat="0" lon="0">
        <time>2020-12-06T07:38:46.265000+00:00</time>
      </trkpt>
      <trkpt lat="0" lon="0">
        <time>2020-12-06T07:38:46.267000+00:00</time>
      </trkpt>
      <trkpt lat="47.2932" lon="-1.3874">
        <ele>4</ele>
        <time>2020-12-06T07:38:47.247000+00:00</time>
      </trkpt>
      <trkpt lat="0" lon="0">
        <time>2020-12-06T07:38:47.250000+00:00</time>
      </trkpt>
      <trkpt lat="0" lon="0">
        <time>2020-12-06T07:38:47.258000+00:00</time>
      </trkpt>
      <trkpt lat="0" lon="0">
        <time>2020-12-06T07:38:47.261000+00:00</time>
      </trkpt>
      <trkpt lat="47.29317" lon="-1.38748">
        <ele>4</ele>
        <time>2020-12-06T07:38:48.264000+00:00</time>
      </trkpt>
      <trkpt lat="0" lon="0">
        <time>2020-12-06T07:38:48.280000+00:00</time>
      </trkpt>
      <trkpt lat="0" lon="0">
        <time>2020-12-06T07:38:48.283000+00:00</time>
      </trkpt>
      <trkpt lat="0" lon="0">
        <time>2020-12-06T07:38:48.285000+00:00</time>
      </trkpt>
      <trkpt lat="47.29315" lon="-1.38756">
        <ele>4</ele>
        <time>2020-12-06T07:38:49.222000+00:00</time>
      </trkpt>
      <trkpt lat="0" lon="0">
        <time>2020-12-06T07:38:49.242000+00:00</time>
      </trkpt>
      <trkpt lat="0" lon="0">
        <time>2020-12-06T07:38:49.250000+00:00</time>
      </trkpt>
      <trkpt lat="0" lon="0">
        <time>2020-12-06T07:38:49.252000+00:00</time>
      </trkpt>
      <trkpt lat="47.29312" lon="-1.38764">
        <ele>4</ele>
        <time>2020-12-06T07:38:50.243000+00:00</time>
      </trkpt>
      <trkpt lat="0" lon="0">
        <time>2020-12-06T07:38:50.266000+00:00</time>
      </trkpt>
      <trkpt lat="0" lon="0">
        <time>2020-12-06T07:38:50.272000+00:00</time>
      </trkpt>
      <trkpt lat="0" lon="0">
        <time>2020-12-06T07:38:50.273000+00:00</time>
      </trkpt>
      <trkpt lat="47.2931" lon="-1.38772">
        <ele>4</ele>
        <time>2020-12-06T07:38:51.237000+00:00</time>
      </trkpt>
      <trkpt lat="0" lon="0">
        <time>2020-12-06T07:38:51.257000+00:00</time>
      </trkpt>
      <trkpt lat="0" lon="0">
        <time>2020-12-06T07:38:51.268000+00:00</time>
      </trkpt>
      <trkpt lat="0" lon="0">
        <time>2020-12-06T07:38:51.272000+00:00</time>
      </trkpt>
      <trkpt lat="47.29307" lon="-1.3878">
        <ele>5</ele>
        <time>2020-12-06T07:38:52.186000+00:00</time>
      </trkpt>
      <trkpt lat="0" lon="0">
        <time>2020-12-06T07:38:52.198000+00:00</time>
      </trkpt>
      <trkpt lat="0" lon="0">
        <time>2020-12-06T07:38:52.202000+00:00</time>
      </trkpt>
      <trkpt lat="0" lon="0">
        <time>2020-12-06T07:38:52.204000+00:00</time>
      </trkpt>
      <trkpt lat="47.29305" lon="-1.38789">
        <ele>5</ele>
        <time>2020-12-06T07:38:53.214000+00:00</time>
      </trkpt>
      <trkpt lat="0" lon="0">
        <time>2020-12-06T07:38:53.215000+00:00</time>
      </trkpt>
      <trkpt lat="0" lon="0">
        <time>2020-12-06T07:38:53.219000+00:00</time>
      </trkpt>
      <trkpt lat="0" lon="0">
        <time>2020-12-06T07:38:53.222000+00:00</time>
      </trkpt>
      <trkpt lat="47.29302" lon="-1.38797">
        <ele>5</ele>
        <time>2020-12-06T07:38:54.274000+00:00</time>
      </trkpt>
      <trkpt lat="0" lon="0">
        <time>2020-12-06T07:38:54.292000+00:00</time>
      </trkpt>
      <trkpt lat="0" lon="0">
        <time>2020-12-06T07:38:54.296000+00:00</time>
      </trkpt>
      <trkpt lat="0" lon="0">
        <time>2020-12-06T07:38:54.298000+00:00</time>
      </trkpt>
      <trkpt lat="47.293" lon="-1.38806">
        <ele>5</ele>
        <time>2020-12-06T07:38:55.225000+00:00</time>
      </trkpt>
      <trkpt lat="0" lon="0">
        <time>2020-12-06T07:38:55.242000+00:00</time>
      </trkpt>
      <trkpt lat="0" lon="0">
        <time>2020-12-06T07:38:55.251000+00:00</time>
      </trkpt>
      <trkpt lat="0" lon="0">
        <time>2020-12-06T07:38:55.253000+00:00</time>
      </trkpt>
      <trkpt lat="47.29297" lon="-1.38815">
        <ele>5</ele>
        <time>2020-12-06T07:38:56.205000+00:00</time>
      </trkpt>
      <trkpt lat="0" lon="0">
        <time>2020-12-06T07:38:56.219000+00:00</time>
      </trkpt>
      <trkpt lat="0" lon="0">
        <time>2020-12-06T07:38:56.223000+00:00</time>
      </trkpt>
      <trkpt lat="0" lon="0">
        <time>2020-12-06T07:38:56.226000+00:00</time>
      </trkpt>
      <trkpt lat="47.29295" lon="-1.38824">
        <ele>5</ele>
        <time>2020-12-06T07:38:57.197000+00:00</time>
      </trkpt>
      <trkpt lat="0" lon="0">
        <time>2020-12-06T07:38:57.200000+00:00</time>
      </trkpt>
      <trkpt lat="0" lon="0">
        <time>2020-12-06T07:38:57.213000+00:00</time>
      </trkpt>
      <trkpt lat="0" lon="0">
        <time>2020-12-06T07:38:57.215000+00:00</time>
      </trkpt>
      <trkpt lat="47.29293" lon="-1.38833">
        <ele>5</ele>
        <time>2020-12-06T07:38:58.242000+00:00</time>
      </trkpt>
      <trkpt lat="0" lon="0">
        <time>2020-12-06T07:38:58.258000+00:00</time>
      </trkpt>
      <trkpt lat="0" lon="0">
        <time>2020-12-06T07:38:58.265000+00:00</time>
      </trkpt>
      <trkpt lat="0" lon="0">
        <time>2020-12-06T07:38:58.270000+00:00</time>
      </trkpt>
      <trkpt lat="47.29291" lon="-1.38842">
        <ele>5</ele>
        <time>2020-12-06T07:38:59.233000+00:00</time>
      </trkpt>
      <trkpt lat="0" lon="0">
        <time>2020-12-06T07:38:59.236000+00:00</time>
      </trkpt>
      <trkpt lat="0" lon="0">
        <time>2020-12-06T07:38:59.241000+00:00</time>
      </trkpt>
      <trkpt lat="0" lon="0">
        <time>2020-12-06T07:38:59.242000+00:00</time>
      </trkpt>
      <trkpt lat="47.29289" lon="-1.3885">
        <ele>5</ele>
        <time>2020-12-06T07:39:00.258000+00:00</time>
      </trkpt>
      <trkpt lat="0" lon="0">
        <time>2020-12-06T07:39:00.263000+00:00</time>
      </trkpt>
      <trkpt lat="0" lon="0">
        <time>2020-12-06T07:39:00.272000+00:00</time>
      </trkpt>
      <trkpt lat="0" lon="0">
        <time>2020-12-06T07:39:00.279000+00:00</time>
      </trkpt>
      <trkpt lat="47.29286" lon="-1.38859">
        <ele>5</ele>
        <time>2020-12-06T07:39:01.223000+00:00</time>
      </trkpt>
      <trkpt lat="0" lon="0">
        <time>2020-12-06T07:39:01.241000+00:00</time>
      </trkpt>
      <trkpt lat="0" lon="0">
        <time>2020-12-06T07:39:01.249000+00:00</time>
      </trkpt>
      <trkpt lat="0" lon="0">
        <time>2020-12-06T07:39:01.256000+00:00</time>
      </trkpt>
      <trkpt lat="47.29284" lon="-1.38867">
        <ele>5</ele>
        <time>2020-12-06T07:39:02.221000+00:00</time>
      </trkpt>
      <trkpt lat="0" lon="0">
        <time>2020-12-06T07:39:02.227000+00:00</time>
      </trkpt>
      <trkpt lat="0" lon="0">
        <time>2020-12-06T07:39:02.234000+00:00</time>
      </trkpt>
      <trkpt lat="0" lon="0">
        <time>2020-12-06T07:39:02.239000+00:00</time>
      </trkpt>
      <trkpt lat="47.29282" lon="-1.38876">
        <ele>5</ele>
        <time>2020-12-06T07:39:03.252000+00:00</time>
      </trkpt>
      <trkpt lat="0" lon="0">
        <time>2020-12-06T07:39:03.256000+00:00</time>
      </trkpt>
      <trkpt lat="0" lon="0">
        <time>2020-12-06T07:39:03.266000+00:00</time>
      </trkpt>
      <trkpt lat="0" lon="0">
        <time>2020-12-06T07:39:03.268000+00:00</time>
      </trkpt>
      <trkpt lat="47.2928" lon="-1.38884">
        <ele>5</ele>
        <time>2020-12-06T07:39:04.262000+00:00</time>
      </trkpt>
      <trkpt lat="0" lon="0">
        <time>2020-12-06T07:39:04.269000+00:00</time>
      </trkpt>
      <trkpt lat="0" lon="0">
        <time>2020-12-06T07:39:04.280000+00:00</time>
      </trkpt>
      <trkpt lat="0" lon="0">
        <time>2020-12-06T07:39:04.282000+00:00</time>
      </trkpt>
      <trkpt lat="47.29278" lon="-1.38893">
        <ele>5</ele>
        <time>2020-12-06T07:39:05.215000+00:00</time>
      </trkpt>
      <trkpt lat="0" lon="0">
        <time>2020-12-06T07:39:05.218000+00:00</time>
      </trkpt>
      <trkpt lat="0" lon="0">
        <time>2020-12-06T07:39:05.220000+00:00</time>
      </trkpt>
      <trkpt lat="0" lon="0">
        <time>2020-12-06T07:39:05.221000+00:00</time>
      </trkpt>
      <trkpt lat="47.29276" lon="-1.38901">
        <ele>5</ele>
        <time>2020-12-06T07:39:06.242000+00:00</time>
      </trkpt>
      <trkpt lat="0" lon="0">
        <time>2020-12-06T07:39:06.262000+00:00</time>
      </trkpt>
      <trkpt lat="0" lon="0">
        <time>2020-12-06T07:39:06.266000+00:00</time>
      </trkpt>
      <trkpt lat="0" lon="0">
        <time>2020-12-06T07:39:06.274000+00:00</time>
      </trkpt>
      <trkpt lat="47.29274" lon="-1.38909">
        <ele>5</ele>
        <time>2020-12-06T07:39:07.231000+00:00</time>
      </trkpt>
      <trkpt lat="0" lon="0">
        <time>2020-12-06T07:39:07.242000+00:00</time>
      </trkpt>
      <trkpt lat="0" lon="0">
        <time>2020-12-06T07:39:07.246000+00:00</time>
      </trkpt>
      <trkpt lat="0" lon="0">
        <time>2020-12-06T07:39:07.249000+00:00</time>
      </trkpt>
      <trkpt lat="47.29272" lon="-1.38917">
        <ele>5</ele>
        <time>2020-12-06T07:39:08.167000+00:00</time>
      </trkpt>
      <trkpt lat="0" lon="0">
        <time>2020-12-06T07:39:08.172000+00:00</time>
      </trkpt>
      <trkpt lat="0" lon="0">
        <time>2020-12-06T07:39:08.186000+00:00</time>
      </trkpt>
      <trkpt lat="0" lon="0">
        <time>2020-12-06T07:39:08.187000+00:00</time>
      </trkpt>
      <trkpt lat="47.2927" lon="-1.38925">
        <ele>5</ele>
        <time>2020-12-06T07:39:09.233000+00:00</time>
      </trkpt>
      <trkpt lat="0" lon="0">
        <time>2020-12-06T07:39:09.240000+00:00</time>
      </trkpt>
      <trkpt lat="0" lon="0">
        <time>2020-12-06T07:39:09.246000+00:00</time>
      </trkpt>
      <trkpt lat="0" lon="0">
        <time>2020-12-06T07:39:09.247000+00:00</time>
      </trkpt>
      <trkpt lat="47.29268" lon="-1.38933">
        <ele>5</ele>
        <time>2020-12-06T07:39:10.257000+00:00</time>
      </trkpt>
      <trkpt lat="0" lon="0">
        <time>2020-12-06T07:39:10.271000+00:00</time>
      </trkpt>
      <trkpt lat="0" lon="0">
        <time>2020-12-06T07:39:10.284000+00:00</time>
      </trkpt>
      <trkpt lat="0" lon="0">
        <time>2020-12-06T07:39:10.286000+00:00</time>
      </trkpt>
      <trkpt lat="47.29266" lon="-1.3894">
        <ele>5</ele>
        <time>2020-12-06T07:39:11.232000+00:00</time>
      </trkpt>
      <trkpt lat="0" lon="0">
        <time>2020-12-06T07:39:11.245000+00:00</time>
      </trkpt>
      <trkpt lat="0" lon="0">
        <time>2020-12-06T07:39:11.248000+00:00</time>
      </trkpt>
      <trkpt lat="0" lon="0">
        <time>2020-12-06T07:39:11.249000+00:00</time>
      </trkpt>
      <trkpt lat="47.29264" lon="-1.38948">
        <ele>5</ele>
        <time>2020-12-06T07:39:12.271000+00:00</time>
      </trkpt>
      <trkpt lat="0" lon="0">
        <time>2020-12-06T07:39:12.287000+00:00</time>
      </trkpt>
      <trkpt lat="0" lon="0">
        <time>2020-12-06T07:39:12.290000+00:00</time>
      </trkpt>
      <trkpt lat="0" lon="0">
        <time>2020-12-06T07:39:12.295000+00:00</time>
      </trkpt>
      <trkpt lat="47.29262" lon="-1.38956">
        <ele>5</ele>
        <time>2020-12-06T07:39:13.257000+00:00</time>
      </trkpt>
      <trkpt lat="0" lon="0">
        <time>2020-12-06T07:39:13.272000+00:00</time>
      </trkpt>
      <trkpt lat="0" lon="0">
        <time>2020-12-06T07:39:13.280000+00:00</time>
      </trkpt>
      <trkpt lat="0" lon="0">
        <time>2020-12-06T07:39:13.284000+00:00</time>
      </trkpt>
      <trkpt lat="47.2926" lon="-1.38964">
        <ele>5</ele>
        <time>2020-12-06T07:39:14.266000+00:00</time>
      </trkpt>
      <trkpt lat="0" lon="0">
        <time>2020-12-06T07:39:14.278000+00:00</time>
      </trkpt>
      <trkpt lat="0" lon="0">
        <time>2020-12-06T07:39:14.286000+00:00</time>
      </trkpt>
      <trkpt lat="0" lon="0">
        <time>2020-12-06T07:39:14.291000+00:00</time>
      </trkpt>
      <trkpt lat="47.29258" lon="-1.38971">
        <ele>5</ele>
        <time>2020-12-06T07:39:15.282000+00:00</time>
      </trkpt>
      <trkpt lat="0" lon="0">
        <time>2020-12-06T07:39:15.290000+00:00</time>
      </trkpt>
      <trkpt lat="0" lon="0">
        <time>2020-12-06T07:39:15.295000+00:00</time>
      </trkpt>
      <trkpt lat="0" lon="0">
        <time>2020-12-06T07:39:15.300000+00:00</time>
      </trkpt>
      <trkpt lat="47.29256" lon="-1.38979">
        <ele>5</ele>
        <time>2020-12-06T07:39:16.287000+00:00</time>
      </trkpt>
      <trkpt lat="0" lon="0">
        <time>2020-12-06T07:39:16.294000+00:00</time>
      </trkpt>
      <trkpt lat="0" lon="0">
        <time>2020-12-06T07:39:16.303000+00:00</time>
      </trkpt>
      <trkpt lat="0" lon="0">
        <time>2020-12-06T07:39:16.307000+00:00</time>
      </trkpt>
      <trkpt lat="47.29253" lon="-1.38987">
        <ele>5</ele>
        <time>2020-12-06T07:39:17.220000+00:00</time>
      </trkpt>
      <trkpt lat="0" lon="0">
        <time>2020-12-06T07:39:17.225000+00:00</time>
      </trkpt>
      <trkpt lat="0" lon="0">
        <time>2020-12-06T07:39:17.229000+00:00</time>
      </trkpt>
      <trkpt lat="0" lon="0">
        <time>2020-12-06T07:39:17.232000+00:00</time>
      </trkpt>
      <trkpt lat="47.29251" lon="-1.38994">
        <ele>5</ele>
        <time>2020-12-06T07:39:18.229000+00:00</time>
      </trkpt>
      <trkpt lat="0" lon="0">
        <time>2020-12-06T07:39:18.247000+00:00</time>
      </trkpt>
      <trkpt lat="0" lon="0">
        <time>2020-12-06T07:39:18.253000+00:00</time>
      </trkpt>
      <trkpt lat="0" lon="0">
        <time>2020-12-06T07:39:18.258000+00:00</time>
      </trkpt>
      <trkpt lat="47.29249" lon="-1.39002">
        <ele>5</ele>
        <time>2020-12-06T07:39:19.248000+00:00</time>
      </trkpt>
      <trkpt lat="0" lon="0">
        <time>2020-12-06T07:39:19.262000+00:00</time>
      </trkpt>
      <trkpt lat="0" lon="0">
        <time>2020-12-06T07:39:19.267000+00:00</time>
      </trkpt>
      <trkpt lat="0" lon="0">
        <time>2020-12-06T07:39:19.272000+00:00</time>
      </trkpt>
      <trkpt lat="47.29247" lon="-1.3901">
        <ele>5</ele>
        <time>2020-12-06T07:39:20.251000+00:00</time>
      </trkpt>
      <trkpt lat="0" lon="0">
        <time>2020-12-06T07:39:20.274000+00:00</time>
      </trkpt>
      <trkpt lat="0" lon="0">
        <time>2020-12-06T07:39:20.282000+00:00</time>
      </trkpt>
      <trkpt lat="0" lon="0">
        <time>2020-12-06T07:39:20.285000+00:00</time>
      </trkpt>
      <trkpt lat="47.29245" lon="-1.39018">
        <ele>5</ele>
        <time>2020-12-06T07:39:21.245000+00:00</time>
      </trkpt>
      <trkpt lat="0" lon="0">
        <time>2020-12-06T07:39:21.251000+00:00</time>
      </trkpt>
      <trkpt lat="0" lon="0">
        <time>2020-12-06T07:39:21.257000+00:00</time>
      </trkpt>
      <trkpt lat="0" lon="0">
        <time>2020-12-06T07:39:21.259000+00:00</time>
      </trkpt>
      <trkpt lat="47.29243" lon="-1.39026">
        <ele>5</ele>
        <time>2020-12-06T07:39:22.254000+00:00</time>
      </trkpt>
      <trkpt lat="0" lon="0">
        <time>2020-12-06T07:39:22.270000+00:00</time>
      </trkpt>
      <trkpt lat="0" lon="0">
        <time>2020-12-06T07:39:22.284000+00:00</time>
      </trkpt>
      <trkpt lat="0" lon="0">
        <time>2020-12-06T07:39:22.289000+00:00</time>
      </trkpt>
      <trkpt lat="47.29241" lon="-1.39034">
        <ele>5</ele>
        <time>2020-12-06T07:39:23.218000+00:00</time>
      </trkpt>
      <trkpt lat="0" lon="0">
        <time>2020-12-06T07:39:23.234000+00:00</time>
      </trkpt>
      <trkpt lat="0" lon="0">
        <time>2020-12-06T07:39:23.238000+00:00</time>
      </trkpt>
      <trkpt lat="0" lon="0">
        <time>2020-12-06T07:39:23.240000+00:00</time>
      </trkpt>
      <trkpt lat="47.29238" lon="-1.39042">
        <ele>5</ele>
        <time>2020-12-06T07:39:24.243000+00:00</time>
      </trkpt>
      <trkpt lat="0" lon="0">
        <time>2020-12-06T07:39:24.251000+00:00</time>
      </trkpt>
      <trkpt lat="0" lon="0">
        <time>2020-12-06T07:39:24.258000+00:00</time>
      </trkpt>
      <trkpt lat="0" lon="0">
        <time>2020-12-06T07:39:24.260000+00:00</time>
      </trkpt>
      <trkpt lat="47.29236" lon="-1.3905">
        <ele>5</ele>
        <time>2020-12-06T07:39:25.198000+00:00</time>
      </trkpt>
      <trkpt lat="0" lon="0">
        <time>2020-12-06T07:39:25.210000+00:00</time>
      </trkpt>
      <trkpt lat="0" lon="0">
        <time>2020-12-06T07:39:25.212000+00:00</time>
      </trkpt>
      <trkpt lat="0" lon="0">
        <time>2020-12-06T07:39:25.213000+00:00</time>
      </trkpt>
      <trkpt lat="47.29234" lon="-1.39058">
        <ele>5</ele>
        <time>2020-12-06T07:39:26.236000+00:00</time>
      </trkpt>
      <trkpt lat="0" lon="0">
        <time>2020-12-06T07:39:26.242000+00:00</time>
      </trkpt>
      <trkpt lat="0" lon="0">
        <time>2020-12-06T07:39:26.247000+00:00</time>
      </trkpt>
      <trkpt lat="0" lon="0">
        <time>2020-12-06T07:39:26.249000+00:00</time>
      </trkpt>
      <trkpt lat="47.29232" lon="-1.39066">
        <ele>5</ele>
        <time>2020-12-06T07:39:27.251000+00:00</time>
      </trkpt>
      <trkpt lat="0" lon="0">
        <time>2020-12-06T07:39:27.264000+00:00</time>
      </trkpt>
      <trkpt lat="0" lon="0">
        <time>2020-12-06T07:39:27.266000+00:00</time>
      </trkpt>
      <trkpt lat="0" lon="0">
        <time>2020-12-06T07:39:27.267000+00:00</time>
      </trkpt>
      <trkpt lat="47.29229" lon="-1.39075">
        <ele>5</ele>
        <time>2020-12-06T07:39:28.232000+00:00</time>
      </trkpt>
      <trkpt lat="0" lon="0">
        <time>2020-12-06T07:39:28.246000+00:00</time>
      </trkpt>
      <trkpt lat="0" lon="0">
        <time>2020-12-06T07:39:28.251000+00:00</time>
      </trkpt>
      <trkpt lat="0" lon="0">
        <time>2020-12-06T07:39:28.252000+00:00</time>
      </trkpt>
      <trkpt lat="47.29227" lon="-1.39083">
        <ele>5</ele>
        <time>2020-12-06T07:39:29.235000+00:00</time>
      </trkpt>
      <trkpt lat="0" lon="0">
        <time>2020-12-06T07:39:29.241000+00:00</time>
      </trkpt>
      <trkpt lat="0" lon="0">
        <time>2020-12-06T07:39:29.244000+00:00</time>
      </trkpt>
      <trkpt lat="0" lon="0">
        <time>2020-12-06T07:39:29.247000+00:00</time>
      </trkpt>
      <trkpt lat="47.29225" lon="-1.39091">
        <ele>5</ele>
        <time>2020-12-06T07:39:30.233000+00:00</time>
      </trkpt>
      <trkpt lat="0" lon="0">
        <time>2020-12-06T07:39:30.251000+00:00</time>
      </trkpt>
      <trkpt lat="0" lon="0">
        <time>2020-12-06T07:39:30.257000+00:00</time>
      </trkpt>
      <trkpt lat="0" lon="0">
        <time>2020-12-06T07:39:30.262000+00:00</time>
      </trkpt>
      <trkpt lat="47.29222" lon="-1.39099">
        <ele>5</ele>
        <time>2020-12-06T07:39:31.219000+00:00</time>
      </trkpt>
      <trkpt lat="0" lon="0">
        <time>2020-12-06T07:39:31.225000+00:00</time>
      </trkpt>
      <trkpt lat="0" lon="0">
        <time>2020-12-06T07:39:31.237000+00:00</time>
      </trkpt>
      <trkpt lat="0" lon="0">
        <time>2020-12-06T07:39:31.239000+00:00</time>
      </trkpt>
      <trkpt lat="47.29219" lon="-1.39107">
        <ele>5</ele>
        <time>2020-12-06T07:39:32.155000+00:00</time>
      </trkpt>
      <trkpt lat="0" lon="0">
        <time>2020-12-06T07:39:32.158000+00:00</time>
      </trkpt>
      <trkpt lat="0" lon="0">
        <time>2020-12-06T07:39:32.163000+00:00</time>
      </trkpt>
      <trkpt lat="0" lon="0">
        <time>2020-12-06T07:39:32.166000+00:00</time>
      </trkpt>
      <trkpt lat="47.29216" lon="-1.39114">
        <ele>5</ele>
        <time>2020-12-06T07:39:33.244000+00:00</time>
      </trkpt>
      <trkpt lat="0" lon="0">
        <time>2020-12-06T07:39:33.249000+00:00</time>
      </trkpt>
      <trkpt lat="0" lon="0">
        <time>2020-12-06T07:39:33.255000+00:00</time>
      </trkpt>
      <trkpt lat="0" lon="0">
        <time>2020-12-06T07:39:33.257000+00:00</time>
      </trkpt>
      <trkpt lat="47.29213" lon="-1.39122">
        <ele>5</ele>
        <time>2020-12-06T07:39:34.247000+00:00</time>
      </trkpt>
      <trkpt lat="0" lon="0">
        <time>2020-12-06T07:39:34.258000+00:00</time>
      </trkpt>
      <trkpt lat="0" lon="0">
        <time>2020-12-06T07:39:34.263000+00:00</time>
      </trkpt>
      <trkpt lat="0" lon="0">
        <time>2020-12-06T07:39:34.265000+00:00</time>
      </trkpt>
      <trkpt lat="47.29209" lon="-1.39129">
        <ele>5</ele>
        <time>2020-12-06T07:39:35.173000+00:00</time>
      </trkpt>
      <trkpt lat="0" lon="0">
        <time>2020-12-06T07:39:35.179000+00:00</time>
      </trkpt>
      <trkpt lat="0" lon="0">
        <time>2020-12-06T07:39:35.191000+00:00</time>
      </trkpt>
      <trkpt lat="0" lon="0">
        <time>2020-12-06T07:39:35.193000+00:00</time>
      </trkpt>
      <trkpt lat="47.29205" lon="-1.39136">
        <ele>5</ele>
        <time>2020-12-06T07:39:36.249000+00:00</time>
      </trkpt>
      <trkpt lat="0" lon="0">
        <time>2020-12-06T07:39:36.253000+00:00</time>
      </trkpt>
      <trkpt lat="0" lon="0">
        <time>2020-12-06T07:39:36.258000+00:00</time>
      </trkpt>
      <trkpt lat="0" lon="0">
        <time>2020-12-06T07:39:36.260000+00:00</time>
      </trkpt>
      <trkpt lat="47.29201" lon="-1.39142">
        <ele>5</ele>
        <time>2020-12-06T07:39:37.235000+00:00</time>
      </trkpt>
      <trkpt lat="0" lon="0">
        <time>2020-12-06T07:39:37.254000+00:00</time>
      </trkpt>
      <trkpt lat="0" lon="0">
        <time>2020-12-06T07:39:37.282000+00:00</time>
      </trkpt>
      <trkpt lat="0" lon="0">
        <time>2020-12-06T07:39:37.284000+00:00</time>
      </trkpt>
      <trkpt lat="47.29196" lon="-1.39149">
        <ele>5</ele>
        <time>2020-12-06T07:39:38.232000+00:00</time>
      </trkpt>
      <trkpt lat="0" lon="0">
        <time>2020-12-06T07:39:38.249000+00:00</time>
      </trkpt>
      <trkpt lat="0" lon="0">
        <time>2020-12-06T07:39:38.257000+00:00</time>
      </trkpt>
      <trkpt lat="0" lon="0">
        <time>2020-12-06T07:39:38.258000+00:00</time>
      </trkpt>
      <trkpt lat="47.29192" lon="-1.39155">
        <ele>5</ele>
        <time>2020-12-06T07:39:39.254000+00:00</time>
      </trkpt>
      <trkpt lat="0" lon="0">
        <time>2020-12-06T07:39:39.263000+00:00</time>
      </trkpt>
      <trkpt lat="0" lon="0">
        <time>2020-12-06T07:39:39.267000+00:00</time>
      </trkpt>
      <trkpt lat="0" lon="0">
        <time>2020-12-06T07:39:39.272000+00:00</time>
      </trkpt>
      <trkpt lat="47.29187" lon="-1.39161">
        <ele>5</ele>
        <time>2020-12-06T07:39:40.230000+00:00</time>
      </trkpt>
      <trkpt lat="0" lon="0">
        <time>2020-12-06T07:39:40.237000+00:00</time>
      </trkpt>
      <trkpt lat="0" lon="0">
        <time>2020-12-06T07:39:40.252000+00:00</time>
      </trkpt>
      <trkpt lat="0" lon="0">
        <time>2020-12-06T07:39:40.254000+00:00</time>
      </trkpt>
      <trkpt lat="47.29182" lon="-1.39167">
        <ele>5</ele>
        <time>2020-12-06T07:39:41.236000+00:00</time>
      </trkpt>
      <trkpt lat="0" lon="0">
        <time>2020-12-06T07:39:41.241000+00:00</time>
      </trkpt>
      <trkpt lat="0" lon="0">
        <time>2020-12-06T07:39:41.246000+00:00</time>
      </trkpt>
      <trkpt lat="0" lon="0">
        <time>2020-12-06T07:39:41.249000+00:00</time>
      </trkpt>
      <trkpt lat="47.29177" lon="-1.39173">
        <ele>4</ele>
        <time>2020-12-06T07:39:42.254000+00:00</time>
      </trkpt>
      <trkpt lat="0" lon="0">
        <time>2020-12-06T07:39:42.262000+00:00</time>
      </trkpt>
      <trkpt lat="0" lon="0">
        <time>2020-12-06T07:39:42.269000+00:00</time>
      </trkpt>
      <trkpt lat="0" lon="0">
        <time>2020-12-06T07:39:42.270000+00:00</time>
      </trkpt>
      <trkpt lat="47.29171" lon="-1.39178">
        <ele>4</ele>
        <time>2020-12-06T07:39:43.272000+00:00</time>
      </trkpt>
      <trkpt lat="0" lon="0">
        <time>2020-12-06T07:39:43.281000+00:00</time>
      </trkpt>
      <trkpt lat="0" lon="0">
        <time>2020-12-06T07:39:43.285000+00:00</time>
      </trkpt>
      <trkpt lat="0" lon="0">
        <time>2020-12-06T07:39:43.290000+00:00</time>
      </trkpt>
      <trkpt lat="47.29166" lon="-1.39184">
        <ele>4</ele>
        <time>2020-12-06T07:39:44.183000+00:00</time>
      </trkpt>
      <trkpt lat="0" lon="0">
        <time>2020-12-06T07:39:44.193000+00:00</time>
      </trkpt>
      <trkpt lat="0" lon="0">
        <time>2020-12-06T07:39:44.199000+00:00</time>
      </trkpt>
      <trkpt lat="0" lon="0">
        <time>2020-12-06T07:39:44.201000+00:00</time>
      </trkpt>
      <trkpt lat="47.29161" lon="-1.39189">
        <ele>4</ele>
        <time>2020-12-06T07:39:45.257000+00:00</time>
      </trkpt>
      <trkpt lat="0" lon="0">
        <time>2020-12-06T07:39:45.266000+00:00</time>
      </trkpt>
      <trkpt lat="0" lon="0">
        <time>2020-12-06T07:39:45.273000+00:00</time>
      </trkpt>
      <trkpt lat="0" lon="0">
        <time>2020-12-06T07:39:45.275000+00:00</time>
      </trkpt>
      <trkpt lat="47.29155" lon="-1.39195">
        <ele>4</ele>
        <time>2020-12-06T07:39:46.270000+00:00</time>
      </trkpt>
      <trkpt lat="0" lon="0">
        <time>2020-12-06T07:39:46.275000+00:00</time>
      </trkpt>
      <trkpt lat="0" lon="0">
        <time>2020-12-06T07:39:46.282000+00:00</time>
      </trkpt>
      <trkpt lat="0" lon="0">
        <time>2020-12-06T07:39:46.285000+00:00</time>
      </trkpt>
      <trkpt lat="47.2915" lon="-1.392">
        <ele>4</ele>
        <time>2020-12-06T07:39:47.254000+00:00</time>
      </trkpt>
      <trkpt lat="0" lon="0">
        <time>2020-12-06T07:39:47.263000+00:00</time>
      </trkpt>
      <trkpt lat="0" lon="0">
        <time>2020-12-06T07:39:47.271000+00:00</time>
      </trkpt>
      <trkpt lat="0" lon="0">
        <time>2020-12-06T07:39:47.275000+00:00</time>
      </trkpt>
      <trkpt lat="47.29144" lon="-1.39206">
        <ele>4</ele>
        <time>2020-12-06T07:39:48.271000+00:00</time>
      </trkpt>
      <trkpt lat="0" lon="0">
        <time>2020-12-06T07:39:48.301000+00:00</time>
      </trkpt>
      <trkpt lat="0" lon="0">
        <time>2020-12-06T07:39:48.310000+00:00</time>
      </trkpt>
      <trkpt lat="0" lon="0">
        <time>2020-12-06T07:39:48.318000+00:00</time>
      </trkpt>
      <trkpt lat="47.29138" lon="-1.39212">
        <ele>4</ele>
        <time>2020-12-06T07:39:49.228000+00:00</time>
      </trkpt>
      <trkpt lat="0" lon="0">
        <time>2020-12-06T07:39:49.235000+00:00</time>
      </trkpt>
      <trkpt lat="0" lon="0">
        <time>2020-12-06T07:39:49.236000+00:00</time>
      </trkpt>
      <trkpt lat="0" lon="0">
        <time>2020-12-06T07:39:49.237000+00:00</time>
      </trkpt>
      <trkpt lat="47.29133" lon="-1.39218">
        <ele>4</ele>
        <time>2020-12-06T07:39:50.254000+00:00</time>
      </trkpt>
      <trkpt lat="0" lon="0">
        <time>2020-12-06T07:39:50.258000+00:00</time>
      </trkpt>
      <trkpt lat="0" lon="0">
        <time>2020-12-06T07:39:50.275000+00:00</time>
      </trkpt>
      <trkpt lat="0" lon="0">
        <time>2020-12-06T07:39:50.279000+00:00</time>
      </trkpt>
      <trkpt lat="47.29127" lon="-1.39224">
        <ele>4</ele>
        <time>2020-12-06T07:39:51.249000+00:00</time>
      </trkpt>
      <trkpt lat="0" lon="0">
        <time>2020-12-06T07:39:51.264000+00:00</time>
      </trkpt>
      <trkpt lat="0" lon="0">
        <time>2020-12-06T07:39:51.279000+00:00</time>
      </trkpt>
      <trkpt lat="0" lon="0">
        <time>2020-12-06T07:39:51.282000+00:00</time>
      </trkpt>
      <trkpt lat="47.29122" lon="-1.3923">
        <ele>4</ele>
        <time>2020-12-06T07:39:52.223000+00:00</time>
      </trkpt>
      <trkpt lat="0" lon="0">
        <time>2020-12-06T07:39:52.227000+00:00</time>
      </trkpt>
      <trkpt lat="0" lon="0">
        <time>2020-12-06T07:39:52.228000+00:00</time>
      </trkpt>
      <trkpt lat="0" lon="0">
        <time>2020-12-06T07:39:52.229000+00:00</time>
      </trkpt>
      <trkpt lat="47.29117" lon="-1.39236">
        <ele>4</ele>
        <time>2020-12-06T07:39:53.243000+00:00</time>
      </trkpt>
      <trkpt lat="0" lon="0">
        <time>2020-12-06T07:39:53.249000+00:00</time>
      </trkpt>
      <trkpt lat="0" lon="0">
        <time>2020-12-06T07:39:53.254000+00:00</time>
      </trkpt>
      <trkpt lat="0" lon="0">
        <time>2020-12-06T07:39:53.256000+00:00</time>
      </trkpt>
      <trkpt lat="47.29111" lon="-1.39242">
        <ele>4</ele>
        <time>2020-12-06T07:39:54.251000+00:00</time>
      </trkpt>
      <trkpt lat="0" lon="0">
        <time>2020-12-06T07:39:54.258000+00:00</time>
      </trkpt>
      <trkpt lat="0" lon="0">
        <time>2020-12-06T07:39:54.261000+00:00</time>
      </trkpt>
      <trkpt lat="0" lon="0">
        <time>2020-12-06T07:39:54.263000+00:00</time>
      </trkpt>
      <trkpt lat="47.29106" lon="-1.39248">
        <ele>4</ele>
        <time>2020-12-06T07:39:55.243000+00:00</time>
      </trkpt>
      <trkpt lat="0" lon="0">
        <time>2020-12-06T07:39:55.266000+00:00</time>
      </trkpt>
      <trkpt lat="0" lon="0">
        <time>2020-12-06T07:39:55.275000+00:00</time>
      </trkpt>
      <trkpt lat="0" lon="0">
        <time>2020-12-06T07:39:55.278000+00:00</time>
      </trkpt>
      <trkpt lat="47.29101" lon="-1.39254">
        <ele>4</ele>
        <time>2020-12-06T07:39:56.238000+00:00</time>
      </trkpt>
      <trkpt lat="0" lon="0">
        <time>2020-12-06T07:39:56.246000+00:00</time>
      </trkpt>
      <trkpt lat="0" lon="0">
        <time>2020-12-06T07:39:56.256000+00:00</time>
      </trkpt>
      <trkpt lat="0" lon="0">
        <time>2020-12-06T07:39:56.259000+00:00</time>
      </trkpt>
      <trkpt lat="47.29096" lon="-1.3926">
        <ele>4</ele>
        <time>2020-12-06T07:39:57.221000+00:00</time>
      </trkpt>
      <trkpt lat="0" lon="0">
        <time>2020-12-06T07:39:57.229000+00:00</time>
      </trkpt>
      <trkpt lat="0" lon="0">
        <time>2020-12-06T07:39:57.233000+00:00</time>
      </trkpt>
      <trkpt lat="0" lon="0">
        <time>2020-12-06T07:39:57.235000+00:00</time>
      </trkpt>
      <trkpt lat="47.29092" lon="-1.39266">
        <ele>4</ele>
        <time>2020-12-06T07:39:58.236000+00:00</time>
      </trkpt>
      <trkpt lat="0" lon="0">
        <time>2020-12-06T07:39:58.243000+00:00</time>
      </trkpt>
      <trkpt lat="0" lon="0">
        <time>2020-12-06T07:39:58.245000+00:00</time>
      </trkpt>
      <trkpt lat="0" lon="0">
        <time>2020-12-06T07:39:58.246000+00:00</time>
      </trkpt>
      <trkpt lat="47.29087" lon="-1.39273">
        <ele>4</ele>
        <time>2020-12-06T07:39:59.227000+00:00</time>
      </trkpt>
      <trkpt lat="0" lon="0">
        <time>2020-12-06T07:39:59.230000+00:00</time>
      </trkpt>
      <trkpt lat="0" lon="0">
        <time>2020-12-06T07:39:59.239000+00:00</time>
      </trkpt>
      <trkpt lat="0" lon="0">
        <time>2020-12-06T07:39:59.243000+00:00</time>
      </trkpt>
      <trkpt lat="47.29083" lon="-1.3928">
        <ele>4</ele>
        <time>2020-12-06T07:40:00.272000+00:00</time>
      </trkpt>
      <trkpt lat="0" lon="0">
        <time>2020-12-06T07:40:00.280000+00:00</time>
      </trkpt>
      <trkpt lat="0" lon="0">
        <time>2020-12-06T07:40:00.287000+00:00</time>
      </trkpt>
      <trkpt lat="0" lon="0">
        <time>2020-12-06T07:40:00.289000+00:00</time>
      </trkpt>
      <trkpt lat="47.29079" lon="-1.39286">
        <ele>4</ele>
        <time>2020-12-06T07:40:01.269000+00:00</time>
      </trkpt>
      <trkpt lat="0" lon="0">
        <time>2020-12-06T07:40:01.283000+00:00</time>
      </trkpt>
      <trkpt lat="0" lon="0">
        <time>2020-12-06T07:40:01.296000+00:00</time>
      </trkpt>
      <trkpt lat="0" lon="0">
        <time>2020-12-06T07:40:01.299000+00:00</time>
      </trkpt>
      <trkpt lat="47.29074" lon="-1.39293">
        <ele>4</ele>
        <time>2020-12-06T07:40:02.243000+00:00</time>
      </trkpt>
      <trkpt lat="0" lon="0">
        <time>2020-12-06T07:40:02.247000+00:00</time>
      </trkpt>
      <trkpt lat="0" lon="0">
        <time>2020-12-06T07:40:02.261000+00:00</time>
      </trkpt>
      <trkpt lat="0" lon="0">
        <time>2020-12-06T07:40:02.268000+00:00</time>
      </trkpt>
      <trkpt lat="47.2907" lon="-1.393">
        <ele>4</ele>
        <time>2020-12-06T07:40:03.276000+00:00</time>
      </trkpt>
      <trkpt lat="0" lon="0">
        <time>2020-12-06T07:40:03.293000+00:00</time>
      </trkpt>
      <trkpt lat="0" lon="0">
        <time>2020-12-06T07:40:03.302000+00:00</time>
      </trkpt>
      <trkpt lat="0" lon="0">
        <time>2020-12-06T07:40:03.304000+00:00</time>
      </trkpt>
      <trkpt lat="47.29066" lon="-1.39306">
        <ele>4</ele>
        <time>2020-12-06T07:40:04.242000+00:00</time>
      </trkpt>
      <trkpt lat="0" lon="0">
        <time>2020-12-06T07:40:04.245000+00:00</time>
      </trkpt>
      <trkpt lat="0" lon="0">
        <time>2020-12-06T07:40:04.248000+00:00</time>
      </trkpt>
      <trkpt lat="0" lon="0">
        <time>2020-12-06T07:40:04.250000+00:00</time>
      </trkpt>
      <trkpt lat="47.29061" lon="-1.39312">
        <ele>4</ele>
        <time>2020-12-06T07:40:05.299000+00:00</time>
      </trkpt>
      <trkpt lat="0" lon="0">
        <time>2020-12-06T07:40:05.310000+00:00</time>
      </trkpt>
      <trkpt lat="0" lon="0">
        <time>2020-12-06T07:40:05.313000+00:00</time>
      </trkpt>
      <trkpt lat="0" lon="0">
        <time>2020-12-06T07:40:05.315000+00:00</time>
      </trkpt>
      <trkpt lat="47.29056" lon="-1.39318">
        <ele>4</ele>
        <time>2020-12-06T07:40:06.286000+00:00</time>
      </trkpt>
      <trkpt lat="0" lon="0">
        <time>2020-12-06T07:40:06.301000+00:00</time>
      </trkpt>
      <trkpt lat="0" lon="0">
        <time>2020-12-06T07:40:06.307000+00:00</time>
      </trkpt>
      <trkpt lat="0" lon="0">
        <time>2020-12-06T07:40:06.310000+00:00</time>
      </trkpt>
      <trkpt lat="47.29052" lon="-1.39323">
        <ele>4</ele>
        <time>2020-12-06T07:40:07.251000+00:00</time>
      </trkpt>
      <trkpt lat="0" lon="0">
        <time>2020-12-06T07:40:07.255000+00:00</time>
      </trkpt>
      <trkpt lat="0" lon="0">
        <time>2020-12-06T07:40:07.263000+00:00</time>
      </trkpt>
      <trkpt lat="0" lon="0">
        <time>2020-12-06T07:40:07.271000+00:00</time>
      </trkpt>
      <trkpt lat="47.29047" lon="-1.39328">
        <ele>4</ele>
        <time>2020-12-06T07:40:08.275000+00:00</time>
      </trkpt>
      <trkpt lat="0" lon="0">
        <time>2020-12-06T07:40:08.282000+00:00</time>
      </trkpt>
      <trkpt lat="0" lon="0">
        <time>2020-12-06T07:40:08.285000+00:00</time>
      </trkpt>
      <trkpt lat="0" lon="0">
        <time>2020-12-06T07:40:08.287000+00:00</time>
      </trkpt>
      <trkpt lat="47.29042" lon="-1.39334">
        <ele>4</ele>
        <time>2020-12-06T07:40:09.279000+00:00</time>
      </trkpt>
      <trkpt lat="0" lon="0">
        <time>2020-12-06T07:40:09.297000+00:00</time>
      </trkpt>
      <trkpt lat="0" lon="0">
        <time>2020-12-06T07:40:09.303000+00:00</time>
      </trkpt>
      <trkpt lat="0" lon="0">
        <time>2020-12-06T07:40:09.308000+00:00</time>
      </trkpt>
      <trkpt lat="47.29037" lon="-1.39339">
        <ele>4</ele>
        <time>2020-12-06T07:40:10.292000+00:00</time>
      </trkpt>
      <trkpt lat="0" lon="0">
        <time>2020-12-06T07:40:10.304000+00:00</time>
      </trkpt>
      <trkpt lat="0" lon="0">
        <time>2020-12-06T07:40:10.307000+00:00</time>
      </trkpt>
      <trkpt lat="0" lon="0">
        <time>2020-12-06T07:40:10.308000+00:00</time>
      </trkpt>
      <trkpt lat="47.29032" lon="-1.39345">
        <ele>3</ele>
        <time>2020-12-06T07:40:11.274000+00:00</time>
      </trkpt>
      <trkpt lat="0" lon="0">
        <time>2020-12-06T07:40:11.292000+00:00</time>
      </trkpt>
      <trkpt lat="0" lon="0">
        <time>2020-12-06T07:40:11.299000+00:00</time>
      </trkpt>
      <trkpt lat="0" lon="0">
        <time>2020-12-06T07:40:11.301000+00:00</time>
      </trkpt>
      <trkpt lat="47.29028" lon="-1.39351">
        <ele>3</ele>
        <time>2020-12-06T07:40:12.294000+00:00</time>
      </trkpt>
      <trkpt lat="0" lon="0">
        <time>2020-12-06T07:40:12.303000+00:00</time>
      </trkpt>
      <trkpt lat="0" lon="0">
        <time>2020-12-06T07:40:12.307000+00:00</time>
      </trkpt>
      <trkpt lat="0" lon="0">
        <time>2020-12-06T07:40:12.309000+00:00</time>
      </trkpt>
      <trkpt lat="47.29023" lon="-1.39356">
        <ele>3</ele>
        <time>2020-12-06T07:40:13.253000+00:00</time>
      </trkpt>
      <trkpt lat="0" lon="0">
        <time>2020-12-06T07:40:13.259000+00:00</time>
      </trkpt>
      <trkpt lat="0" lon="0">
        <time>2020-12-06T07:40:13.263000+00:00</time>
      </trkpt>
      <trkpt lat="0" lon="0">
        <time>2020-12-06T07:40:13.265000+00:00</time>
      </trkpt>
      <trkpt lat="47.29018" lon="-1.39362">
        <ele>3</ele>
        <time>2020-12-06T07:40:14.255000+00:00</time>
      </trkpt>
      <trkpt lat="0" lon="0">
        <time>2020-12-06T07:40:14.259000+00:00</time>
      </trkpt>
      <trkpt lat="0" lon="0">
        <time>2020-12-06T07:40:14.265000+00:00</time>
      </trkpt>
      <trkpt lat="0" lon="0">
        <time>2020-12-06T07:40:14.267000+00:00</time>
      </trkpt>
      <trkpt lat="47.29013" lon="-1.39367">
        <ele>3</ele>
        <time>2020-12-06T07:40:15.290000+00:00</time>
      </trkpt>
      <trkpt lat="0" lon="0">
        <time>2020-12-06T07:40:15.301000+00:00</time>
      </trkpt>
      <trkpt lat="0" lon="0">
        <time>2020-12-06T07:40:15.304000+00:00</time>
      </trkpt>
      <trkpt lat="0" lon="0">
        <time>2020-12-06T07:40:15.309000+00:00</time>
      </trkpt>
      <trkpt lat="47.29009" lon="-1.39373">
        <ele>3</ele>
        <time>2020-12-06T07:40:16.264000+00:00</time>
      </trkpt>
      <trkpt lat="0" lon="0">
        <time>2020-12-06T07:40:16.281000+00:00</time>
      </trkpt>
      <trkpt lat="0" lon="0">
        <time>2020-12-06T07:40:16.287000+00:00</time>
      </trkpt>
      <trkpt lat="0" lon="0">
        <time>2020-12-06T07:40:16.288000+00:00</time>
      </trkpt>
      <trkpt lat="47.29004" lon="-1.39378">
        <ele>3</ele>
        <time>2020-12-06T07:40:17.284000+00:00</time>
      </trkpt>
      <trkpt lat="0" lon="0">
        <time>2020-12-06T07:40:17.309000+00:00</time>
      </trkpt>
      <trkpt lat="0" lon="0">
        <time>2020-12-06T07:40:17.317000+00:00</time>
      </trkpt>
      <trkpt lat="0" lon="0">
        <time>2020-12-06T07:40:17.321000+00:00</time>
      </trkpt>
      <trkpt lat="47.29" lon="-1.39384">
        <ele>3</ele>
        <time>2020-12-06T07:40:18.243000+00:00</time>
      </trkpt>
      <trkpt lat="0" lon="0">
        <time>2020-12-06T07:40:18.252000+00:00</time>
      </trkpt>
      <trkpt lat="0" lon="0">
        <time>2020-12-06T07:40:18.275000+00:00</time>
      </trkpt>
      <trkpt lat="0" lon="0">
        <time>2020-12-06T07:40:18.277000+00:00</time>
      </trkpt>
      <trkpt lat="47.28995" lon="-1.3939">
        <ele>3</ele>
        <time>2020-12-06T07:40:19.264000+00:00</time>
      </trkpt>
      <trkpt lat="0" lon="0">
        <time>2020-12-06T07:40:19.275000+00:00</time>
      </trkpt>
      <trkpt lat="0" lon="0">
        <time>2020-12-06T07:40:19.279000+00:00</time>
      </trkpt>
      <trkpt lat="0" lon="0">
        <time>2020-12-06T07:40:19.282000+00:00</time>
      </trkpt>
      <trkpt lat="47.28991" lon="-1.39397">
        <ele>3</ele>
        <time>2020-12-06T07:40:20.211000+00:00</time>
      </trkpt>
      <trkpt lat="0" lon="0">
        <time>2020-12-06T07:40:20.240000+00:00</time>
      </trkpt>
      <trkpt lat="0" lon="0">
        <time>2020-12-06T07:40:20.251000+00:00</time>
      </trkpt>
      <trkpt lat="0" lon="0">
        <time>2020-12-06T07:40:20.257000+00:00</time>
      </trkpt>
      <trkpt lat="47.28986" lon="-1.39403">
        <ele>3</ele>
        <time>2020-12-06T07:40:21.252000+00:00</time>
      </trkpt>
      <trkpt lat="0" lon="0">
        <time>2020-12-06T07:40:21.266000+00:00</time>
      </trkpt>
      <trkpt lat="0" lon="0">
        <time>2020-12-06T07:40:21.268000+00:00</time>
      </trkpt>
      <trkpt lat="0" lon="0">
        <time>2020-12-06T07:40:21.270000+00:00</time>
      </trkpt>
      <trkpt lat="47.28981" lon="-1.3941">
        <ele>3</ele>
        <time>2020-12-06T07:40:22.233000+00:00</time>
      </trkpt>
      <trkpt lat="0" lon="0">
        <time>2020-12-06T07:40:22.236000+00:00</time>
      </trkpt>
      <trkpt lat="0" lon="0">
        <time>2020-12-06T07:40:22.243000+00:00</time>
      </trkpt>
      <trkpt lat="0" lon="0">
        <time>2020-12-06T07:40:22.245000+00:00</time>
      </trkpt>
      <trkpt lat="47.28977" lon="-1.39417">
        <ele>3</ele>
        <time>2020-12-06T07:40:23.267000+00:00</time>
      </trkpt>
      <trkpt lat="0" lon="0">
        <time>2020-12-06T07:40:23.286000+00:00</time>
      </trkpt>
      <trkpt lat="0" lon="0">
        <time>2020-12-06T07:40:23.291000+00:00</time>
      </trkpt>
      <trkpt lat="0" lon="0">
        <time>2020-12-06T07:40:23.294000+00:00</time>
      </trkpt>
      <trkpt lat="47.28972" lon="-1.39423">
        <ele>3</ele>
        <time>2020-12-06T07:40:24.241000+00:00</time>
      </trkpt>
      <trkpt lat="0" lon="0">
        <time>2020-12-06T07:40:24.254000+00:00</time>
      </trkpt>
      <trkpt lat="0" lon="0">
        <time>2020-12-06T07:40:24.257000+00:00</time>
      </trkpt>
      <trkpt lat="0" lon="0">
        <time>2020-12-06T07:40:24.259000+00:00</time>
      </trkpt>
      <trkpt lat="47.28968" lon="-1.3943">
        <ele>3</ele>
        <time>2020-12-06T07:40:25.273000+00:00</time>
      </trkpt>
      <trkpt lat="0" lon="0">
        <time>2020-12-06T07:40:25.281000+00:00</time>
      </trkpt>
      <trkpt lat="0" lon="0">
        <time>2020-12-06T07:40:25.292000+00:00</time>
      </trkpt>
      <trkpt lat="0" lon="0">
        <time>2020-12-06T07:40:25.294000+00:00</time>
      </trkpt>
      <trkpt lat="47.28963" lon="-1.39437">
        <ele>3</ele>
        <time>2020-12-06T07:40:26.310000+00:00</time>
      </trkpt>
      <trkpt lat="0" lon="0">
        <time>2020-12-06T07:40:26.316000+00:00</time>
      </trkpt>
      <trkpt lat="0" lon="0">
        <time>2020-12-06T07:40:26.321000+00:00</time>
      </trkpt>
      <trkpt lat="0" lon="0">
        <time>2020-12-06T07:40:26.323000+00:00</time>
      </trkpt>
      <trkpt lat="47.28958" lon="-1.39443">
        <ele>3</ele>
        <time>2020-12-06T07:40:27.241000+00:00</time>
      </trkpt>
      <trkpt lat="0" lon="0">
        <time>2020-12-06T07:40:27.245000+00:00</time>
      </trkpt>
      <trkpt lat="0" lon="0">
        <time>2020-12-06T07:40:27.251000+00:00</time>
      </trkpt>
      <trkpt lat="0" lon="0">
        <time>2020-12-06T07:40:27.253000+00:00</time>
      </trkpt>
      <trkpt lat="47.28953" lon="-1.3945">
        <ele>3</ele>
        <time>2020-12-06T07:40:28.241000+00:00</time>
      </trkpt>
      <trkpt lat="0" lon="0">
        <time>2020-12-06T07:40:28.260000+00:00</time>
      </trkpt>
      <trkpt lat="0" lon="0">
        <time>2020-12-06T07:40:28.265000+00:00</time>
      </trkpt>
      <trkpt lat="0" lon="0">
        <time>2020-12-06T07:40:28.267000+00:00</time>
      </trkpt>
      <trkpt lat="47.28948" lon="-1.39456">
        <ele>3</ele>
        <time>2020-12-06T07:40:29.262000+00:00</time>
      </trkpt>
      <trkpt lat="0" lon="0">
        <time>2020-12-06T07:40:29.278000+00:00</time>
      </trkpt>
      <trkpt lat="0" lon="0">
        <time>2020-12-06T07:40:29.281000+00:00</time>
      </trkpt>
      <trkpt lat="0" lon="0">
        <time>2020-12-06T07:40:29.284000+00:00</time>
      </trkpt>
      <trkpt lat="47.28943" lon="-1.39462">
        <ele>3</ele>
        <time>2020-12-06T07:40:30.290000+00:00</time>
      </trkpt>
      <trkpt lat="0" lon="0">
        <time>2020-12-06T07:40:30.301000+00:00</time>
      </trkpt>
      <trkpt lat="0" lon="0">
        <time>2020-12-06T07:40:30.311000+00:00</time>
      </trkpt>
      <trkpt lat="0" lon="0">
        <time>2020-12-06T07:40:30.319000+00:00</time>
      </trkpt>
      <trkpt lat="47.28938" lon="-1.39469">
        <ele>2</ele>
        <time>2020-12-06T07:40:31.266000+00:00</time>
      </trkpt>
      <trkpt lat="0" lon="0">
        <time>2020-12-06T07:40:31.287000+00:00</time>
      </trkpt>
      <trkpt lat="0" lon="0">
        <time>2020-12-06T07:40:31.290000+00:00</time>
      </trkpt>
      <trkpt lat="0" lon="0">
        <time>2020-12-06T07:40:31.292000+00:00</time>
      </trkpt>
      <trkpt lat="47.28933" lon="-1.39475">
        <ele>2</ele>
        <time>2020-12-06T07:40:32.277000+00:00</time>
      </trkpt>
      <trkpt lat="0" lon="0">
        <time>2020-12-06T07:40:32.289000+00:00</time>
      </trkpt>
      <trkpt lat="0" lon="0">
        <time>2020-12-06T07:40:32.297000+00:00</time>
      </trkpt>
      <trkpt lat="0" lon="0">
        <time>2020-12-06T07:40:32.299000+00:00</time>
      </trkpt>
      <trkpt lat="47.28928" lon="-1.39481">
        <ele>2</ele>
        <time>2020-12-06T07:40:33.276000+00:00</time>
      </trkpt>
      <trkpt lat="0" lon="0">
        <time>2020-12-06T07:40:33.294000+00:00</time>
      </trkpt>
      <trkpt lat="0" lon="0">
        <time>2020-12-06T07:40:33.304000+00:00</time>
      </trkpt>
      <trkpt lat="0" lon="0">
        <time>2020-12-06T07:40:33.306000+00:00</time>
      </trkpt>
      <trkpt lat="47.28922" lon="-1.39487">
        <ele>2</ele>
        <time>2020-12-06T07:40:34.232000+00:00</time>
      </trkpt>
      <trkpt lat="0" lon="0">
        <time>2020-12-06T07:40:34.237000+00:00</time>
      </trkpt>
      <trkpt lat="0" lon="0">
        <time>2020-12-06T07:40:34.239000+00:00</time>
      </trkpt>
      <trkpt lat="0" lon="0">
        <time>2020-12-06T07:40:34.240000+00:00</time>
      </trkpt>
      <trkpt lat="47.28917" lon="-1.39493">
        <ele>2</ele>
        <time>2020-12-06T07:40:35.264000+00:00</time>
      </trkpt>
      <trkpt lat="0" lon="0">
        <time>2020-12-06T07:40:35.278000+00:00</time>
      </trkpt>
      <trkpt lat="0" lon="0">
        <time>2020-12-06T07:40:35.282000+00:00</time>
      </trkpt>
      <trkpt lat="0" lon="0">
        <time>2020-12-06T07:40:35.283000+00:00</time>
      </trkpt>
      <trkpt lat="47.28911" lon="-1.395">
        <ele>1</ele>
        <time>2020-12-06T07:40:36.276000+00:00</time>
      </trkpt>
      <trkpt lat="0" lon="0">
        <time>2020-12-06T07:40:36.291000+00:00</time>
      </trkpt>
      <trkpt lat="0" lon="0">
        <time>2020-12-06T07:40:36.297000+00:00</time>
      </trkpt>
      <trkpt lat="0" lon="0">
        <time>2020-12-06T07:40:36.300000+00:00</time>
      </trkpt>
      <trkpt lat="47.28906" lon="-1.39506">
        <ele>1</ele>
        <time>2020-12-06T07:40:37.256000+00:00</time>
      </trkpt>
      <trkpt lat="0" lon="0">
        <time>2020-12-06T07:40:37.263000+00:00</time>
      </trkpt>
      <trkpt lat="0" lon="0">
        <time>2020-12-06T07:40:37.269000+00:00</time>
      </trkpt>
      <trkpt lat="0" lon="0">
        <time>2020-12-06T07:40:37.278000+00:00</time>
      </trkpt>
      <trkpt lat="47.289" lon="-1.39512">
        <ele>1</ele>
        <time>2020-12-06T07:40:38.250000+00:00</time>
      </trkpt>
      <trkpt lat="0" lon="0">
        <time>2020-12-06T07:40:38.254000+00:00</time>
      </trkpt>
      <trkpt lat="0" lon="0">
        <time>2020-12-06T07:40:38.257000+00:00</time>
      </trkpt>
      <trkpt lat="0" lon="0">
        <time>2020-12-06T07:40:38.259000+00:00</time>
      </trkpt>
      <trkpt lat="47.28895" lon="-1.39518">
        <ele>1</ele>
        <time>2020-12-06T07:40:39.238000+00:00</time>
      </trkpt>
      <trkpt lat="0" lon="0">
        <time>2020-12-06T07:40:39.248000+00:00</time>
      </trkpt>
      <trkpt lat="0" lon="0">
        <time>2020-12-06T07:40:39.253000+00:00</time>
      </trkpt>
      <trkpt lat="0" lon="0">
        <time>2020-12-06T07:40:39.257000+00:00</time>
      </trkpt>
      <trkpt lat="47.28889" lon="-1.39524">
        <ele>1</ele>
        <time>2020-12-06T07:40:40.219000+00:00</time>
      </trkpt>
      <trkpt lat="0" lon="0">
        <time>2020-12-06T07:40:40.225000+00:00</time>
      </trkpt>
      <trkpt lat="0" lon="0">
        <time>2020-12-06T07:40:40.227000+00:00</time>
      </trkpt>
      <trkpt lat="0" lon="0">
        <time>2020-12-06T07:40:40.229000+00:00</time>
      </trkpt>
      <trkpt lat="47.28884" lon="-1.3953">
        <ele>1</ele>
        <time>2020-12-06T07:40:41.309000+00:00</time>
      </trkpt>
      <trkpt lat="0" lon="0">
        <time>2020-12-06T07:40:41.326000+00:00</time>
      </trkpt>
      <trkpt lat="0" lon="0">
        <time>2020-12-06T07:40:41.330000+00:00</time>
      </trkpt>
      <trkpt lat="0" lon="0">
        <time>2020-12-06T07:40:41.333000+00:00</time>
      </trkpt>
      <trkpt lat="47.28879" lon="-1.39536">
        <ele>1</ele>
        <time>2020-12-06T07:40:42.292000+00:00</time>
      </trkpt>
      <trkpt lat="0" lon="0">
        <time>2020-12-06T07:40:42.300000+00:00</time>
      </trkpt>
      <trkpt lat="0" lon="0">
        <time>2020-12-06T07:40:42.314000+00:00</time>
      </trkpt>
      <trkpt lat="0" lon="0">
        <time>2020-12-06T07:40:42.316000+00:00</time>
      </trkpt>
      <trkpt lat="47.28873" lon="-1.39542">
        <ele>1</ele>
        <time>2020-12-06T07:40:43.267000+00:00</time>
      </trkpt>
      <trkpt lat="0" lon="0">
        <time>2020-12-06T07:40:43.280000+00:00</time>
      </trkpt>
      <trkpt lat="0" lon="0">
        <time>2020-12-06T07:40:43.283000+00:00</time>
      </trkpt>
      <trkpt lat="0" lon="0">
        <time>2020-12-06T07:40:43.289000+00:00</time>
      </trkpt>
      <trkpt lat="47.28868" lon="-1.39548">
        <ele>1</ele>
        <time>2020-12-06T07:40:44.273000+00:00</time>
      </trkpt>
      <trkpt lat="0" lon="0">
        <time>2020-12-06T07:40:44.278000+00:00</time>
      </trkpt>
      <trkpt lat="0" lon="0">
        <time>2020-12-06T07:40:44.282000+00:00</time>
      </trkpt>
      <trkpt lat="0" lon="0">
        <time>2020-12-06T07:40:44.284000+00:00</time>
      </trkpt>
      <trkpt lat="47.28863" lon="-1.39554">
        <ele>2</ele>
        <time>2020-12-06T07:40:45.273000+00:00</time>
      </trkpt>
      <trkpt lat="0" lon="0">
        <time>2020-12-06T07:40:45.283000+00:00</time>
      </trkpt>
      <trkpt lat="0" lon="0">
        <time>2020-12-06T07:40:45.286000+00:00</time>
      </trkpt>
      <trkpt lat="0" lon="0">
        <time>2020-12-06T07:40:45.287000+00:00</time>
      </trkpt>
      <trkpt lat="47.28858" lon="-1.3956">
        <ele>2</ele>
        <time>2020-12-06T07:40:46.275000+00:00</time>
      </trkpt>
      <trkpt lat="0" lon="0">
        <time>2020-12-06T07:40:46.281000+00:00</time>
      </trkpt>
      <trkpt lat="0" lon="0">
        <time>2020-12-06T07:40:46.286000+00:00</time>
      </trkpt>
      <trkpt lat="0" lon="0">
        <time>2020-12-06T07:40:46.292000+00:00</time>
      </trkpt>
      <trkpt lat="47.28852" lon="-1.39566">
        <ele>2</ele>
        <time>2020-12-06T07:40:47.268000+00:00</time>
      </trkpt>
      <trkpt lat="0" lon="0">
        <time>2020-12-06T07:40:47.280000+00:00</time>
      </trkpt>
      <trkpt lat="0" lon="0">
        <time>2020-12-06T07:40:47.285000+00:00</time>
      </trkpt>
      <trkpt lat="0" lon="0">
        <time>2020-12-06T07:40:47.287000+00:00</time>
      </trkpt>
      <trkpt lat="47.28847" lon="-1.39572">
        <ele>2</ele>
        <time>2020-12-06T07:40:48.266000+00:00</time>
      </trkpt>
      <trkpt lat="0" lon="0">
        <time>2020-12-06T07:40:48.283000+00:00</time>
      </trkpt>
      <trkpt lat="0" lon="0">
        <time>2020-12-06T07:40:48.287000+00:00</time>
      </trkpt>
      <trkpt lat="0" lon="0">
        <time>2020-12-06T07:40:48.290000+00:00</time>
      </trkpt>
      <trkpt lat="47.28842" lon="-1.39578">
        <ele>2</ele>
        <time>2020-12-06T07:40:49.257000+00:00</time>
      </trkpt>
      <trkpt lat="0" lon="0">
        <time>2020-12-06T07:40:49.271000+00:00</time>
      </trkpt>
      <trkpt lat="0" lon="0">
        <time>2020-12-06T07:40:49.275000+00:00</time>
      </trkpt>
      <trkpt lat="0" lon="0">
        <time>2020-12-06T07:40:49.281000+00:00</time>
      </trkpt>
      <trkpt lat="47.28837" lon="-1.39585">
        <ele>2</ele>
        <time>2020-12-06T07:40:50.235000+00:00</time>
      </trkpt>
      <trkpt lat="0" lon="0">
        <time>2020-12-06T07:40:50.240000+00:00</time>
      </trkpt>
      <trkpt lat="0" lon="0">
        <time>2020-12-06T07:40:50.254000+00:00</time>
      </trkpt>
      <trkpt lat="0" lon="0">
        <time>2020-12-06T07:40:50.256000+00:00</time>
      </trkpt>
      <trkpt lat="47.28831" lon="-1.39591">
        <ele>2</ele>
        <time>2020-12-06T07:40:51.300000+00:00</time>
      </trkpt>
      <trkpt lat="0" lon="0">
        <time>2020-12-06T07:40:51.309000+00:00</time>
      </trkpt>
      <trkpt lat="0" lon="0">
        <time>2020-12-06T07:40:51.317000+00:00</time>
      </trkpt>
      <trkpt lat="0" lon="0">
        <time>2020-12-06T07:40:51.320000+00:00</time>
      </trkpt>
      <trkpt lat="47.28826" lon="-1.39597">
        <ele>2</ele>
        <time>2020-12-06T07:40:52.256000+00:00</time>
      </trkpt>
      <trkpt lat="0" lon="0">
        <time>2020-12-06T07:40:52.260000+00:00</time>
      </trkpt>
      <trkpt lat="0" lon="0">
        <time>2020-12-06T07:40:52.262000+00:00</time>
      </trkpt>
      <trkpt lat="0" lon="0">
        <time>2020-12-06T07:40:52.263000+00:00</time>
      </trkpt>
      <trkpt lat="47.28821" lon="-1.39603">
        <ele>2</ele>
        <time>2020-12-06T07:40:53.233000+00:00</time>
      </trkpt>
      <trkpt lat="0" lon="0">
        <time>2020-12-06T07:40:53.245000+00:00</time>
      </trkpt>
      <trkpt lat="0" lon="0">
        <time>2020-12-06T07:40:53.255000+00:00</time>
      </trkpt>
      <trkpt lat="0" lon="0">
        <time>2020-12-06T07:40:53.259000+00:00</time>
      </trkpt>
      <trkpt lat="47.28816" lon="-1.3961">
        <ele>2</ele>
        <time>2020-12-06T07:40:54.258000+00:00</time>
      </trkpt>
      <trkpt lat="0" lon="0">
        <time>2020-12-06T07:40:54.272000+00:00</time>
      </trkpt>
      <trkpt lat="0" lon="0">
        <time>2020-12-06T07:40:54.279000+00:00</time>
      </trkpt>
      <trkpt lat="0" lon="0">
        <time>2020-12-06T07:40:54.286000+00:00</time>
      </trkpt>
      <trkpt lat="47.28811" lon="-1.39616">
        <ele>2</ele>
        <time>2020-12-06T07:40:55.250000+00:00</time>
      </trkpt>
      <trkpt lat="0" lon="0">
        <time>2020-12-06T07:40:55.258000+00:00</time>
      </trkpt>
      <trkpt lat="0" lon="0">
        <time>2020-12-06T07:40:55.275000+00:00</time>
      </trkpt>
      <trkpt lat="0" lon="0">
        <time>2020-12-06T07:40:55.278000+00:00</time>
      </trkpt>
      <trkpt lat="47.28806" lon="-1.39622">
        <ele>2</ele>
        <time>2020-12-06T07:40:56.290000+00:00</time>
      </trkpt>
      <trkpt lat="0" lon="0">
        <time>2020-12-06T07:40:56.302000+00:00</time>
      </trkpt>
      <trkpt lat="0" lon="0">
        <time>2020-12-06T07:40:56.307000+00:00</time>
      </trkpt>
      <trkpt lat="0" lon="0">
        <time>2020-12-06T07:40:56.309000+00:00</time>
      </trkpt>
      <trkpt lat="47.28801" lon="-1.39628">
        <ele>2</ele>
        <time>2020-12-06T07:40:57.288000+00:00</time>
      </trkpt>
      <trkpt lat="0" lon="0">
        <time>2020-12-06T07:40:57.297000+00:00</time>
      </trkpt>
      <trkpt lat="0" lon="0">
        <time>2020-12-06T07:40:57.302000+00:00</time>
      </trkpt>
      <trkpt lat="0" lon="0">
        <time>2020-12-06T07:40:57.304000+00:00</time>
      </trkpt>
      <trkpt lat="47.28796" lon="-1.39634">
        <ele>2</ele>
        <time>2020-12-06T07:40:58.253000+00:00</time>
      </trkpt>
      <trkpt lat="0" lon="0">
        <time>2020-12-06T07:40:58.259000+00:00</time>
      </trkpt>
      <trkpt lat="0" lon="0">
        <time>2020-12-06T07:40:58.261000+00:00</time>
      </trkpt>
      <trkpt lat="0" lon="0">
        <time>2020-12-06T07:40:58.262000+00:00</time>
      </trkpt>
      <trkpt lat="47.28791" lon="-1.3964">
        <ele>2</ele>
        <time>2020-12-06T07:40:59.225000+00:00</time>
      </trkpt>
      <trkpt lat="0" lon="0">
        <time>2020-12-06T07:40:59.237000+00:00</time>
      </trkpt>
      <trkpt lat="0" lon="0">
        <time>2020-12-06T07:40:59.241000+00:00</time>
      </trkpt>
      <trkpt lat="0" lon="0">
        <time>2020-12-06T07:40:59.243000+00:00</time>
      </trkpt>
      <trkpt lat="47.28786" lon="-1.39647">
        <ele>2</ele>
        <time>2020-12-06T07:41:00.248000+00:00</time>
      </trkpt>
      <trkpt lat="0" lon="0">
        <time>2020-12-06T07:41:00.254000+00:00</time>
      </trkpt>
      <trkpt lat="0" lon="0">
        <time>2020-12-06T07:41:00.267000+00:00</time>
      </trkpt>
      <trkpt lat="0" lon="0">
        <time>2020-12-06T07:41:00.268000+00:00</time>
      </trkpt>
      <trkpt lat="47.2878" lon="-1.39653">
        <ele>1</ele>
        <time>2020-12-06T07:41:01.253000+00:00</time>
      </trkpt>
      <trkpt lat="0" lon="0">
        <time>2020-12-06T07:41:01.273000+00:00</time>
      </trkpt>
      <trkpt lat="0" lon="0">
        <time>2020-12-06T07:41:01.281000+00:00</time>
      </trkpt>
      <trkpt lat="0" lon="0">
        <time>2020-12-06T07:41:01.282000+00:00</time>
      </trkpt>
      <trkpt lat="47.28775" lon="-1.3966">
        <ele>1</ele>
        <time>2020-12-06T07:41:02.262000+00:00</time>
      </trkpt>
      <trkpt lat="0" lon="0">
        <time>2020-12-06T07:41:02.272000+00:00</time>
      </trkpt>
      <trkpt lat="0" lon="0">
        <time>2020-12-06T07:41:02.280000+00:00</time>
      </trkpt>
      <trkpt lat="0" lon="0">
        <time>2020-12-06T07:41:02.287000+00:00</time>
      </trkpt>
      <trkpt lat="47.2877" lon="-1.39666">
        <ele>1</ele>
        <time>2020-12-06T07:41:03.242000+00:00</time>
      </trkpt>
      <trkpt lat="0" lon="0">
        <time>2020-12-06T07:41:03.259000+00:00</time>
      </trkpt>
      <trkpt lat="0" lon="0">
        <time>2020-12-06T07:41:03.263000+00:00</time>
      </trkpt>
      <trkpt lat="0" lon="0">
        <time>2020-12-06T07:41:03.267000+00:00</time>
      </trkpt>
      <trkpt lat="47.28765" lon="-1.39672">
        <ele>1</ele>
        <time>2020-12-06T07:41:04.168000+00:00</time>
      </trkpt>
      <trkpt lat="0" lon="0">
        <time>2020-12-06T07:41:04.179000+00:00</time>
      </trkpt>
      <trkpt lat="0" lon="0">
        <time>2020-12-06T07:41:04.184000+00:00</time>
      </trkpt>
      <trkpt lat="0" lon="0">
        <time>2020-12-06T07:41:04.186000+00:00</time>
      </trkpt>
      <trkpt lat="47.28759" lon="-1.39678">
        <ele>1</ele>
        <time>2020-12-06T07:41:05.261000+00:00</time>
      </trkpt>
      <trkpt lat="0" lon="0">
        <time>2020-12-06T07:41:05.272000+00:00</time>
      </trkpt>
      <trkpt lat="0" lon="0">
        <time>2020-12-06T07:41:05.275000+00:00</time>
      </trkpt>
      <trkpt lat="0" lon="0">
        <time>2020-12-06T07:41:05.278000+00:00</time>
      </trkpt>
      <trkpt lat="47.28754" lon="-1.39684">
        <ele>1</ele>
        <time>2020-12-06T07:41:06.250000+00:00</time>
      </trkpt>
      <trkpt lat="0" lon="0">
        <time>2020-12-06T07:41:06.259000+00:00</time>
      </trkpt>
      <trkpt lat="0" lon="0">
        <time>2020-12-06T07:41:06.268000+00:00</time>
      </trkpt>
      <trkpt lat="0" lon="0">
        <time>2020-12-06T07:41:06.270000+00:00</time>
      </trkpt>
      <trkpt lat="47.28749" lon="-1.39691">
        <ele>2</ele>
        <time>2020-12-06T07:41:07.250000+00:00</time>
      </trkpt>
      <trkpt lat="0" lon="0">
        <time>2020-12-06T07:41:07.259000+00:00</time>
      </trkpt>
      <trkpt lat="0" lon="0">
        <time>2020-12-06T07:41:07.266000+00:00</time>
      </trkpt>
      <trkpt lat="0" lon="0">
        <time>2020-12-06T07:41:07.274000+00:00</time>
      </trkpt>
      <trkpt lat="47.28745" lon="-1.39697">
        <ele>2</ele>
        <time>2020-12-06T07:41:08.239000+00:00</time>
      </trkpt>
      <trkpt lat="0" lon="0">
        <time>2020-12-06T07:41:08.262000+00:00</time>
      </trkpt>
      <trkpt lat="0" lon="0">
        <time>2020-12-06T07:41:08.266000+00:00</time>
      </trkpt>
      <trkpt lat="0" lon="0">
        <time>2020-12-06T07:41:08.268000+00:00</time>
      </trkpt>
      <trkpt lat="47.2874" lon="-1.39703">
        <ele>2</ele>
        <time>2020-12-06T07:41:09.295000+00:00</time>
      </trkpt>
      <trkpt lat="0" lon="0">
        <time>2020-12-06T07:41:09.297000+00:00</time>
      </trkpt>
      <trkpt lat="0" lon="0">
        <time>2020-12-06T07:41:09.300000+00:00</time>
      </trkpt>
      <trkpt lat="0" lon="0">
        <time>2020-12-06T07:41:09.302000+00:00</time>
      </trkpt>
      <trkpt lat="47.28735" lon="-1.39709">
        <ele>2</ele>
        <time>2020-12-06T07:41:10.241000+00:00</time>
      </trkpt>
      <trkpt lat="0" lon="0">
        <time>2020-12-06T07:41:10.248000+00:00</time>
      </trkpt>
      <trkpt lat="0" lon="0">
        <time>2020-12-06T07:41:10.253000+00:00</time>
      </trkpt>
      <trkpt lat="0" lon="0">
        <time>2020-12-06T07:41:10.255000+00:00</time>
      </trkpt>
      <trkpt lat="47.2873" lon="-1.39714">
        <ele>2</ele>
        <time>2020-12-06T07:41:11.258000+00:00</time>
      </trkpt>
      <trkpt lat="0" lon="0">
        <time>2020-12-06T07:41:11.265000+00:00</time>
      </trkpt>
      <trkpt lat="0" lon="0">
        <time>2020-12-06T07:41:11.271000+00:00</time>
      </trkpt>
      <trkpt lat="0" lon="0">
        <time>2020-12-06T07:41:11.273000+00:00</time>
      </trkpt>
      <trkpt lat="47.28725" lon="-1.3972">
        <ele>2</ele>
        <time>2020-12-06T07:41:12.277000+00:00</time>
      </trkpt>
      <trkpt lat="0" lon="0">
        <time>2020-12-06T07:41:12.291000+00:00</time>
      </trkpt>
      <trkpt lat="0" lon="0">
        <time>2020-12-06T07:41:12.295000+00:00</time>
      </trkpt>
      <trkpt lat="0" lon="0">
        <time>2020-12-06T07:41:12.298000+00:00</time>
      </trkpt>
      <trkpt lat="47.28721" lon="-1.39725">
        <ele>2</ele>
        <time>2020-12-06T07:41:13.267000+00:00</time>
      </trkpt>
      <trkpt lat="0" lon="0">
        <time>2020-12-06T07:41:13.278000+00:00</time>
      </trkpt>
      <trkpt lat="0" lon="0">
        <time>2020-12-06T07:41:13.282000+00:00</time>
      </trkpt>
      <trkpt lat="0" lon="0">
        <time>2020-12-06T07:41:13.286000+00:00</time>
      </trkpt>
      <trkpt lat="47.28716" lon="-1.39731">
        <ele>2</ele>
        <time>2020-12-06T07:41:14.243000+00:00</time>
      </trkpt>
      <trkpt lat="0" lon="0">
        <time>2020-12-06T07:41:14.267000+00:00</time>
      </trkpt>
      <trkpt lat="0" lon="0">
        <time>2020-12-06T07:41:14.277000+00:00</time>
      </trkpt>
      <trkpt lat="0" lon="0">
        <time>2020-12-06T07:41:14.278000+00:00</time>
      </trkpt>
      <trkpt lat="47.28711" lon="-1.39736">
        <ele>2</ele>
        <time>2020-12-06T07:41:15.249000+00:00</time>
      </trkpt>
      <trkpt lat="0" lon="0">
        <time>2020-12-06T07:41:15.260000+00:00</time>
      </trkpt>
      <trkpt lat="0" lon="0">
        <time>2020-12-06T07:41:15.264000+00:00</time>
      </trkpt>
      <trkpt lat="0" lon="0">
        <time>2020-12-06T07:41:15.265000+00:00</time>
      </trkpt>
      <trkpt lat="47.28706" lon="-1.39742">
        <ele>2</ele>
        <time>2020-12-06T07:41:16.276000+00:00</time>
      </trkpt>
      <trkpt lat="0" lon="0">
        <time>2020-12-06T07:41:16.287000+00:00</time>
      </trkpt>
      <trkpt lat="0" lon="0">
        <time>2020-12-06T07:41:16.295000+00:00</time>
      </trkpt>
      <trkpt lat="0" lon="0">
        <time>2020-12-06T07:41:16.300000+00:00</time>
      </trkpt>
      <trkpt lat="47.28701" lon="-1.39748">
        <ele>2</ele>
        <time>2020-12-06T07:41:17.297000+00:00</time>
      </trkpt>
      <trkpt lat="0" lon="0">
        <time>2020-12-06T07:41:17.305000+00:00</time>
      </trkpt>
      <trkpt lat="0" lon="0">
        <time>2020-12-06T07:41:17.313000+00:00</time>
      </trkpt>
      <trkpt lat="0" lon="0">
        <time>2020-12-06T07:41:17.320000+00:00</time>
      </trkpt>
      <trkpt lat="47.28696" lon="-1.39755">
        <ele>2</ele>
        <time>2020-12-06T07:41:18.277000+00:00</time>
      </trkpt>
      <trkpt lat="0" lon="0">
        <time>2020-12-06T07:41:18.296000+00:00</time>
      </trkpt>
      <trkpt lat="0" lon="0">
        <time>2020-12-06T07:41:18.304000+00:00</time>
      </trkpt>
      <trkpt lat="0" lon="0">
        <time>2020-12-06T07:41:18.306000+00:00</time>
      </trkpt>
      <trkpt lat="47.28691" lon="-1.39761">
        <ele>2</ele>
        <time>2020-12-06T07:41:19.275000+00:00</time>
      </trkpt>
      <trkpt lat="0" lon="0">
        <time>2020-12-06T07:41:19.295000+00:00</time>
      </trkpt>
      <trkpt lat="0" lon="0">
        <time>2020-12-06T07:41:19.303000+00:00</time>
      </trkpt>
      <trkpt lat="0" lon="0">
        <time>2020-12-06T07:41:19.310000+00:00</time>
      </trkpt>
      <trkpt lat="47.28686" lon="-1.39767">
        <ele>2</ele>
        <time>2020-12-06T07:41:20.255000+00:00</time>
      </trkpt>
      <trkpt lat="0" lon="0">
        <time>2020-12-06T07:41:20.266000+00:00</time>
      </trkpt>
      <trkpt lat="0" lon="0">
        <time>2020-12-06T07:41:20.275000+00:00</time>
      </trkpt>
      <trkpt lat="0" lon="0">
        <time>2020-12-06T07:41:20.281000+00:00</time>
      </trkpt>
      <trkpt lat="47.28681" lon="-1.39774">
        <ele>1</ele>
        <time>2020-12-06T07:41:21.299000+00:00</time>
      </trkpt>
      <trkpt lat="0" lon="0">
        <time>2020-12-06T07:41:21.306000+00:00</time>
      </trkpt>
      <trkpt lat="0" lon="0">
        <time>2020-12-06T07:41:21.308000+00:00</time>
      </trkpt>
      <trkpt lat="0" lon="0">
        <time>2020-12-06T07:41:21.309000+00:00</time>
      </trkpt>
      <trkpt lat="47.28676" lon="-1.3978">
        <ele>1</ele>
        <time>2020-12-06T07:41:22.243000+00:00</time>
      </trkpt>
      <trkpt lat="0" lon="0">
        <time>2020-12-06T07:41:22.267000+00:00</time>
      </trkpt>
      <trkpt lat="0" lon="0">
        <time>2020-12-06T07:41:22.272000+00:00</time>
      </trkpt>
      <trkpt lat="0" lon="0">
        <time>2020-12-06T07:41:22.274000+00:00</time>
      </trkpt>
      <trkpt lat="47.28671" lon="-1.39787">
        <ele>1</ele>
        <time>2020-12-06T07:41:23.229000+00:00</time>
      </trkpt>
      <trkpt lat="0" lon="0">
        <time>2020-12-06T07:41:23.237000+00:00</time>
      </trkpt>
      <trkpt lat="0" lon="0">
        <time>2020-12-06T07:41:23.245000+00:00</time>
      </trkpt>
      <trkpt lat="0" lon="0">
        <time>2020-12-06T07:41:23.247000+00:00</time>
      </trkpt>
      <trkpt lat="47.28666" lon="-1.39793">
        <ele>1</ele>
        <time>2020-12-06T07:41:24.230000+00:00</time>
      </trkpt>
      <trkpt lat="0" lon="0">
        <time>2020-12-06T07:41:24.237000+00:00</time>
      </trkpt>
      <trkpt lat="0" lon="0">
        <time>2020-12-06T07:41:24.242000+00:00</time>
      </trkpt>
      <trkpt lat="0" lon="0">
        <time>2020-12-06T07:41:24.244000+00:00</time>
      </trkpt>
      <trkpt lat="47.28661" lon="-1.398">
        <ele>1</ele>
        <time>2020-12-06T07:41:25.268000+00:00</time>
      </trkpt>
      <trkpt lat="0" lon="0">
        <time>2020-12-06T07:41:25.276000+00:00</time>
      </trkpt>
      <trkpt lat="0" lon="0">
        <time>2020-12-06T07:41:25.287000+00:00</time>
      </trkpt>
      <trkpt lat="0" lon="0">
        <time>2020-12-06T07:41:25.289000+00:00</time>
      </trkpt>
      <trkpt lat="47.28656" lon="-1.39807">
        <ele>1</ele>
        <time>2020-12-06T07:41:26.276000+00:00</time>
      </trkpt>
      <trkpt lat="0" lon="0">
        <time>2020-12-06T07:41:26.289000+00:00</time>
      </trkpt>
      <trkpt lat="0" lon="0">
        <time>2020-12-06T07:41:26.295000+00:00</time>
      </trkpt>
      <trkpt lat="0" lon="0">
        <time>2020-12-06T07:41:26.297000+00:00</time>
      </trkpt>
      <trkpt lat="47.28652" lon="-1.39814">
        <ele>1</ele>
        <time>2020-12-06T07:41:27.241000+00:00</time>
      </trkpt>
      <trkpt lat="0" lon="0">
        <time>2020-12-06T07:41:27.244000+00:00</time>
      </trkpt>
      <trkpt lat="0" lon="0">
        <time>2020-12-06T07:41:27.248000+00:00</time>
      </trkpt>
      <trkpt lat="0" lon="0">
        <time>2020-12-06T07:41:27.259000+00:00</time>
      </trkpt>
      <trkpt lat="47.28647" lon="-1.39821">
        <ele>1</ele>
        <time>2020-12-06T07:41:28.229000+00:00</time>
      </trkpt>
      <trkpt lat="0" lon="0">
        <time>2020-12-06T07:41:28.234000+00:00</time>
      </trkpt>
      <trkpt lat="0" lon="0">
        <time>2020-12-06T07:41:28.239000+00:00</time>
      </trkpt>
      <trkpt lat="0" lon="0">
        <time>2020-12-06T07:41:28.242000+00:00</time>
      </trkpt>
      <trkpt lat="47.28642" lon="-1.39829">
        <ele>1</ele>
        <time>2020-12-06T07:41:29.275000+00:00</time>
      </trkpt>
      <trkpt lat="0" lon="0">
        <time>2020-12-06T07:41:29.282000+00:00</time>
      </trkpt>
      <trkpt lat="0" lon="0">
        <time>2020-12-06T07:41:29.286000+00:00</time>
      </trkpt>
      <trkpt lat="0" lon="0">
        <time>2020-12-06T07:41:29.288000+00:00</time>
      </trkpt>
      <trkpt lat="47.28638" lon="-1.39836">
        <ele>2</ele>
        <time>2020-12-06T07:41:30.260000+00:00</time>
      </trkpt>
      <trkpt lat="0" lon="0">
        <time>2020-12-06T07:41:30.263000+00:00</time>
      </trkpt>
      <trkpt lat="0" lon="0">
        <time>2020-12-06T07:41:30.276000+00:00</time>
      </trkpt>
      <trkpt lat="0" lon="0">
        <time>2020-12-06T07:41:30.280000+00:00</time>
      </trkpt>
      <trkpt lat="47.28633" lon="-1.39843">
        <ele>2</ele>
        <time>2020-12-06T07:41:31.252000+00:00</time>
      </trkpt>
      <trkpt lat="0" lon="0">
        <time>2020-12-06T07:41:31.266000+00:00</time>
      </trkpt>
      <trkpt lat="0" lon="0">
        <time>2020-12-06T07:41:31.274000+00:00</time>
      </trkpt>
      <trkpt lat="0" lon="0">
        <time>2020-12-06T07:41:31.275000+00:00</time>
      </trkpt>
      <trkpt lat="47.28629" lon="-1.39851">
        <ele>2</ele>
        <time>2020-12-06T07:41:32.259000+00:00</time>
      </trkpt>
      <trkpt lat="0" lon="0">
        <time>2020-12-06T07:41:32.273000+00:00</time>
      </trkpt>
      <trkpt lat="0" lon="0">
        <time>2020-12-06T07:41:32.282000+00:00</time>
      </trkpt>
      <trkpt lat="0" lon="0">
        <time>2020-12-06T07:41:32.285000+00:00</time>
      </trkpt>
      <trkpt lat="47.28625" lon="-1.39858">
        <ele>2</ele>
        <time>2020-12-06T07:41:33.210000+00:00</time>
      </trkpt>
      <trkpt lat="0" lon="0">
        <time>2020-12-06T07:41:33.222000+00:00</time>
      </trkpt>
      <trkpt lat="0" lon="0">
        <time>2020-12-06T07:41:33.226000+00:00</time>
      </trkpt>
      <trkpt lat="0" lon="0">
        <time>2020-12-06T07:41:33.227000+00:00</time>
      </trkpt>
      <trkpt lat="47.28621" lon="-1.39865">
        <ele>2</ele>
        <time>2020-12-06T07:41:34.257000+00:00</time>
      </trkpt>
      <trkpt lat="0" lon="0">
        <time>2020-12-06T07:41:34.270000+00:00</time>
      </trkpt>
      <trkpt lat="0" lon="0">
        <time>2020-12-06T07:41:34.273000+00:00</time>
      </trkpt>
      <trkpt lat="0" lon="0">
        <time>2020-12-06T07:41:34.276000+00:00</time>
      </trkpt>
      <trkpt lat="47.28616" lon="-1.39872">
        <ele>2</ele>
        <time>2020-12-06T07:41:35.215000+00:00</time>
      </trkpt>
      <trkpt lat="0" lon="0">
        <time>2020-12-06T07:41:35.219000+00:00</time>
      </trkpt>
      <trkpt lat="0" lon="0">
        <time>2020-12-06T07:41:35.225000+00:00</time>
      </trkpt>
      <trkpt lat="0" lon="0">
        <time>2020-12-06T07:41:35.227000+00:00</time>
      </trkpt>
      <trkpt lat="47.28612" lon="-1.39879">
        <ele>2</ele>
        <time>2020-12-06T07:41:36.238000+00:00</time>
      </trkpt>
      <trkpt lat="0" lon="0">
        <time>2020-12-06T07:41:36.244000+00:00</time>
      </trkpt>
      <trkpt lat="0" lon="0">
        <time>2020-12-06T07:41:36.258000+00:00</time>
      </trkpt>
      <trkpt lat="0" lon="0">
        <time>2020-12-06T07:41:36.260000+00:00</time>
      </trkpt>
      <trkpt lat="47.28608" lon="-1.39886">
        <ele>2</ele>
        <time>2020-12-06T07:41:37.283000+00:00</time>
      </trkpt>
      <trkpt lat="0" lon="0">
        <time>2020-12-06T07:41:37.287000+00:00</time>
      </trkpt>
      <trkpt lat="0" lon="0">
        <time>2020-12-06T07:41:37.297000+00:00</time>
      </trkpt>
      <trkpt lat="0" lon="0">
        <time>2020-12-06T07:41:37.299000+00:00</time>
      </trkpt>
      <trkpt lat="47.28604" lon="-1.39893">
        <ele>2</ele>
        <time>2020-12-06T07:41:38.275000+00:00</time>
      </trkpt>
      <trkpt lat="0" lon="0">
        <time>2020-12-06T07:41:38.286000+00:00</time>
      </trkpt>
      <trkpt lat="0" lon="0">
        <time>2020-12-06T07:41:38.292000+00:00</time>
      </trkpt>
      <trkpt lat="0" lon="0">
        <time>2020-12-06T07:41:38.294000+00:00</time>
      </trkpt>
      <trkpt lat="47.286" lon="-1.399">
        <ele>2</ele>
        <time>2020-12-06T07:41:39.228000+00:00</time>
      </trkpt>
      <trkpt lat="0" lon="0">
        <time>2020-12-06T07:41:39.229000+00:00</time>
      </trkpt>
      <trkpt lat="0" lon="0">
        <time>2020-12-06T07:41:39.231000+00:00</time>
      </trkpt>
      <trkpt lat="0" lon="0">
        <time>2020-12-06T07:41:39.237000+00:00</time>
      </trkpt>
      <trkpt lat="47.28595" lon="-1.39907">
        <ele>3</ele>
        <time>2020-12-06T07:41:40.260000+00:00</time>
      </trkpt>
      <trkpt lat="0" lon="0">
        <time>2020-12-06T07:41:40.270000+00:00</time>
      </trkpt>
      <trkpt lat="0" lon="0">
        <time>2020-12-06T07:41:40.276000+00:00</time>
      </trkpt>
      <trkpt lat="0" lon="0">
        <time>2020-12-06T07:41:40.278000+00:00</time>
      </trkpt>
      <trkpt lat="47.28591" lon="-1.39913">
        <ele>3</ele>
        <time>2020-12-06T07:41:41.267000+00:00</time>
      </trkpt>
      <trkpt lat="0" lon="0">
        <time>2020-12-06T07:41:41.275000+00:00</time>
      </trkpt>
      <trkpt lat="0" lon="0">
        <time>2020-12-06T07:41:41.279000+00:00</time>
      </trkpt>
      <trkpt lat="0" lon="0">
        <time>2020-12-06T07:41:41.282000+00:00</time>
      </trkpt>
      <trkpt lat="47.28586" lon="-1.3992">
        <ele>3</ele>
        <time>2020-12-06T07:41:42.268000+00:00</time>
      </trkpt>
      <trkpt lat="0" lon="0">
        <time>2020-12-06T07:41:42.285000+00:00</time>
      </trkpt>
      <trkpt lat="0" lon="0">
        <time>2020-12-06T07:41:42.289000+00:00</time>
      </trkpt>
      <trkpt lat="0" lon="0">
        <time>2020-12-06T07:41:42.291000+00:00</time>
      </trkpt>
      <trkpt lat="47.28582" lon="-1.39926">
        <ele>3</ele>
        <time>2020-12-06T07:41:43.255000+00:00</time>
      </trkpt>
      <trkpt lat="0" lon="0">
        <time>2020-12-06T07:41:43.273000+00:00</time>
      </trkpt>
      <trkpt lat="0" lon="0">
        <time>2020-12-06T07:41:43.277000+00:00</time>
      </trkpt>
      <trkpt lat="0" lon="0">
        <time>2020-12-06T07:41:43.279000+00:00</time>
      </trkpt>
      <trkpt lat="47.28577" lon="-1.39933">
        <ele>3</ele>
        <time>2020-12-06T07:41:44.281000+00:00</time>
      </trkpt>
      <trkpt lat="0" lon="0">
        <time>2020-12-06T07:41:44.285000+00:00</time>
      </trkpt>
      <trkpt lat="0" lon="0">
        <time>2020-12-06T07:41:44.289000+00:00</time>
      </trkpt>
      <trkpt lat="0" lon="0">
        <time>2020-12-06T07:41:44.302000+00:00</time>
      </trkpt>
      <trkpt lat="47.28573" lon="-1.39939">
        <ele>3</ele>
        <time>2020-12-06T07:41:45.254000+00:00</time>
      </trkpt>
      <trkpt lat="0" lon="0">
        <time>2020-12-06T07:41:45.262000+00:00</time>
      </trkpt>
      <trkpt lat="0" lon="0">
        <time>2020-12-06T07:41:45.265000+00:00</time>
      </trkpt>
      <trkpt lat="0" lon="0">
        <time>2020-12-06T07:41:45.268000+00:00</time>
      </trkpt>
      <trkpt lat="47.28568" lon="-1.39945">
        <ele>3</ele>
        <time>2020-12-06T07:41:46.242000+00:00</time>
      </trkpt>
      <trkpt lat="0" lon="0">
        <time>2020-12-06T07:41:46.261000+00:00</time>
      </trkpt>
      <trkpt lat="0" lon="0">
        <time>2020-12-06T07:41:46.267000+00:00</time>
      </trkpt>
      <trkpt lat="0" lon="0">
        <time>2020-12-06T07:41:46.271000+00:00</time>
      </trkpt>
      <trkpt lat="47.28563" lon="-1.39952">
        <ele>3</ele>
        <time>2020-12-06T07:41:47.281000+00:00</time>
      </trkpt>
      <trkpt lat="0" lon="0">
        <time>2020-12-06T07:41:47.287000+00:00</time>
      </trkpt>
      <trkpt lat="0" lon="0">
        <time>2020-12-06T07:41:47.296000+00:00</time>
      </trkpt>
      <trkpt lat="0" lon="0">
        <time>2020-12-06T07:41:47.298000+00:00</time>
      </trkpt>
      <trkpt lat="47.28559" lon="-1.39958">
        <ele>3</ele>
        <time>2020-12-06T07:41:48.260000+00:00</time>
      </trkpt>
      <trkpt lat="0" lon="0">
        <time>2020-12-06T07:41:48.268000+00:00</time>
      </trkpt>
      <trkpt lat="0" lon="0">
        <time>2020-12-06T07:41:48.272000+00:00</time>
      </trkpt>
      <trkpt lat="0" lon="0">
        <time>2020-12-06T07:41:48.276000+00:00</time>
      </trkpt>
      <trkpt lat="47.28554" lon="-1.39965">
        <ele>3</ele>
        <time>2020-12-06T07:41:49.261000+00:00</time>
      </trkpt>
      <trkpt lat="0" lon="0">
        <time>2020-12-06T07:41:49.266000+00:00</time>
      </trkpt>
      <trkpt lat="0" lon="0">
        <time>2020-12-06T07:41:49.271000+00:00</time>
      </trkpt>
      <trkpt lat="0" lon="0">
        <time>2020-12-06T07:41:49.278000+00:00</time>
      </trkpt>
      <trkpt lat="47.2855" lon="-1.39971">
        <ele>3</ele>
        <time>2020-12-06T07:41:50.243000+00:00</time>
      </trkpt>
      <trkpt lat="0" lon="0">
        <time>2020-12-06T07:41:50.254000+00:00</time>
      </trkpt>
      <trkpt lat="0" lon="0">
        <time>2020-12-06T07:41:50.263000+00:00</time>
      </trkpt>
      <trkpt lat="0" lon="0">
        <time>2020-12-06T07:41:50.267000+00:00</time>
      </trkpt>
      <trkpt lat="47.28545" lon="-1.39977">
        <ele>3</ele>
        <time>2020-12-06T07:41:51.274000+00:00</time>
      </trkpt>
      <trkpt lat="0" lon="0">
        <time>2020-12-06T07:41:51.276000+00:00</time>
      </trkpt>
      <trkpt lat="0" lon="0">
        <time>2020-12-06T07:41:51.278000+00:00</time>
      </trkpt>
      <trkpt lat="0" lon="0">
        <time>2020-12-06T07:41:51.279000+00:00</time>
      </trkpt>
      <trkpt lat="47.2854" lon="-1.39983">
        <ele>3</ele>
        <time>2020-12-06T07:41:52.259000+00:00</time>
      </trkpt>
      <trkpt lat="0" lon="0">
        <time>2020-12-06T07:41:52.274000+00:00</time>
      </trkpt>
      <trkpt lat="0" lon="0">
        <time>2020-12-06T07:41:52.278000+00:00</time>
      </trkpt>
      <trkpt lat="0" lon="0">
        <time>2020-12-06T07:41:52.280000+00:00</time>
      </trkpt>
      <trkpt lat="47.28536" lon="-1.3999">
        <ele>3</ele>
        <time>2020-12-06T07:41:53.258000+00:00</time>
      </trkpt>
      <trkpt lat="0" lon="0">
        <time>2020-12-06T07:41:53.264000+00:00</time>
      </trkpt>
      <trkpt lat="0" lon="0">
        <time>2020-12-06T07:41:53.267000+00:00</time>
      </trkpt>
      <trkpt lat="0" lon="0">
        <time>2020-12-06T07:41:53.268000+00:00</time>
      </trkpt>
      <trkpt lat="47.28531" lon="-1.39996">
        <ele>3</ele>
        <time>2020-12-06T07:41:54.290000+00:00</time>
      </trkpt>
      <trkpt lat="0" lon="0">
        <time>2020-12-06T07:41:54.294000+00:00</time>
      </trkpt>
      <trkpt lat="0" lon="0">
        <time>2020-12-06T07:41:54.308000+00:00</time>
      </trkpt>
      <trkpt lat="0" lon="0">
        <time>2020-12-06T07:41:54.314000+00:00</time>
      </trkpt>
      <trkpt lat="47.28526" lon="-1.40002">
        <ele>3</ele>
        <time>2020-12-06T07:41:55.261000+00:00</time>
      </trkpt>
      <trkpt lat="0" lon="0">
        <time>2020-12-06T07:41:55.273000+00:00</time>
      </trkpt>
      <trkpt lat="0" lon="0">
        <time>2020-12-06T07:41:55.283000+00:00</time>
      </trkpt>
      <trkpt lat="0" lon="0">
        <time>2020-12-06T07:41:55.290000+00:00</time>
      </trkpt>
      <trkpt lat="47.28521" lon="-1.40008">
        <ele>3</ele>
        <time>2020-12-06T07:41:56.327000+00:00</time>
      </trkpt>
      <trkpt lat="0" lon="0">
        <time>2020-12-06T07:41:56.333000+00:00</time>
      </trkpt>
      <trkpt lat="0" lon="0">
        <time>2020-12-06T07:41:56.341000+00:00</time>
      </trkpt>
      <trkpt lat="0" lon="0">
        <time>2020-12-06T07:41:56.343000+00:00</time>
      </trkpt>
      <trkpt lat="47.28517" lon="-1.40014">
        <ele>3</ele>
        <time>2020-12-06T07:41:57.285000+00:00</time>
      </trkpt>
      <trkpt lat="0" lon="0">
        <time>2020-12-06T07:41:57.290000+00:00</time>
      </trkpt>
      <trkpt lat="0" lon="0">
        <time>2020-12-06T07:41:57.297000+00:00</time>
      </trkpt>
      <trkpt lat="0" lon="0">
        <time>2020-12-06T07:41:57.298000+00:00</time>
      </trkpt>
      <trkpt lat="47.28512" lon="-1.4002">
        <ele>3</ele>
        <time>2020-12-06T07:41:58.286000+00:00</time>
      </trkpt>
      <trkpt lat="0" lon="0">
        <time>2020-12-06T07:41:58.294000+00:00</time>
      </trkpt>
      <trkpt lat="0" lon="0">
        <time>2020-12-06T07:41:58.298000+00:00</time>
      </trkpt>
      <trkpt lat="0" lon="0">
        <time>2020-12-06T07:41:58.300000+00:00</time>
      </trkpt>
      <trkpt lat="47.28507" lon="-1.40027">
        <ele>3</ele>
        <time>2020-12-06T07:41:59.273000+00:00</time>
      </trkpt>
      <trkpt lat="0" lon="0">
        <time>2020-12-06T07:41:59.280000+00:00</time>
      </trkpt>
      <trkpt lat="0" lon="0">
        <time>2020-12-06T07:41:59.283000+00:00</time>
      </trkpt>
      <trkpt lat="0" lon="0">
        <time>2020-12-06T07:41:59.285000+00:00</time>
      </trkpt>
      <trkpt lat="47.28503" lon="-1.40034">
        <ele>3</ele>
        <time>2020-12-06T07:42:00.274000+00:00</time>
      </trkpt>
      <trkpt lat="0" lon="0">
        <time>2020-12-06T07:42:00.280000+00:00</time>
      </trkpt>
      <trkpt lat="0" lon="0">
        <time>2020-12-06T07:42:00.289000+00:00</time>
      </trkpt>
      <trkpt lat="0" lon="0">
        <time>2020-12-06T07:42:00.292000+00:00</time>
      </trkpt>
      <trkpt lat="47.28499" lon="-1.40041">
        <ele>2</ele>
        <time>2020-12-06T07:42:01.274000+00:00</time>
      </trkpt>
      <trkpt lat="0" lon="0">
        <time>2020-12-06T07:42:01.294000+00:00</time>
      </trkpt>
      <trkpt lat="0" lon="0">
        <time>2020-12-06T07:42:01.300000+00:00</time>
      </trkpt>
      <trkpt lat="0" lon="0">
        <time>2020-12-06T07:42:01.302000+00:00</time>
      </trkpt>
      <trkpt lat="47.28494" lon="-1.40048">
        <ele>2</ele>
        <time>2020-12-06T07:42:02.240000+00:00</time>
      </trkpt>
      <trkpt lat="0" lon="0">
        <time>2020-12-06T07:42:02.258000+00:00</time>
      </trkpt>
      <trkpt lat="0" lon="0">
        <time>2020-12-06T07:42:02.264000+00:00</time>
      </trkpt>
      <trkpt lat="0" lon="0">
        <time>2020-12-06T07:42:02.266000+00:00</time>
      </trkpt>
      <trkpt lat="47.2849" lon="-1.40055">
        <ele>2</ele>
        <time>2020-12-06T07:42:03.243000+00:00</time>
      </trkpt>
      <trkpt lat="0" lon="0">
        <time>2020-12-06T07:42:03.246000+00:00</time>
      </trkpt>
      <trkpt lat="0" lon="0">
        <time>2020-12-06T07:42:03.247000+00:00</time>
      </trkpt>
      <trkpt lat="0" lon="0">
        <time>2020-12-06T07:42:03.248000+00:00</time>
      </trkpt>
      <trkpt lat="47.28486" lon="-1.40063">
        <ele>2</ele>
        <time>2020-12-06T07:42:04.251000+00:00</time>
      </trkpt>
      <trkpt lat="0" lon="0">
        <time>2020-12-06T07:42:04.257000+00:00</time>
      </trkpt>
      <trkpt lat="0" lon="0">
        <time>2020-12-06T07:42:04.265000+00:00</time>
      </trkpt>
      <trkpt lat="0" lon="0">
        <time>2020-12-06T07:42:04.269000+00:00</time>
      </trkpt>
      <trkpt lat="47.28482" lon="-1.4007">
        <ele>2</ele>
        <time>2020-12-06T07:42:05.287000+00:00</time>
      </trkpt>
      <trkpt lat="0" lon="0">
        <time>2020-12-06T07:42:05.308000+00:00</time>
      </trkpt>
      <trkpt lat="0" lon="0">
        <time>2020-12-06T07:42:05.312000+00:00</time>
      </trkpt>
      <trkpt lat="0" lon="0">
        <time>2020-12-06T07:42:05.314000+00:00</time>
      </trkpt>
      <trkpt lat="47.28478" lon="-1.40078">
        <ele>2</ele>
        <time>2020-12-06T07:42:06.245000+00:00</time>
      </trkpt>
      <trkpt lat="0" lon="0">
        <time>2020-12-06T07:42:06.256000+00:00</time>
      </trkpt>
      <trkpt lat="0" lon="0">
        <time>2020-12-06T07:42:06.262000+00:00</time>
      </trkpt>
      <trkpt lat="0" lon="0">
        <time>2020-12-06T07:42:06.264000+00:00</time>
      </trkpt>
      <trkpt lat="47.28475" lon="-1.40086">
        <ele>2</ele>
        <time>2020-12-06T07:42:07.252000+00:00</time>
      </trkpt>
      <trkpt lat="0" lon="0">
        <time>2020-12-06T07:42:07.268000+00:00</time>
      </trkpt>
      <trkpt lat="0" lon="0">
        <time>2020-12-06T07:42:07.276000+00:00</time>
      </trkpt>
      <trkpt lat="0" lon="0">
        <time>2020-12-06T07:42:07.281000+00:00</time>
      </trkpt>
      <trkpt lat="47.28471" lon="-1.40094">
        <ele>2</ele>
        <time>2020-12-06T07:42:08.262000+00:00</time>
      </trkpt>
      <trkpt lat="0" lon="0">
        <time>2020-12-06T07:42:08.272000+00:00</time>
      </trkpt>
      <trkpt lat="0" lon="0">
        <time>2020-12-06T07:42:08.278000+00:00</time>
      </trkpt>
      <trkpt lat="0" lon="0">
        <time>2020-12-06T07:42:08.285000+00:00</time>
      </trkpt>
      <trkpt lat="47.28468" lon="-1.40102">
        <ele>2</ele>
        <time>2020-12-06T07:42:09.234000+00:00</time>
      </trkpt>
      <trkpt lat="0" lon="0">
        <time>2020-12-06T07:42:09.235000+00:00</time>
      </trkpt>
      <trkpt lat="0" lon="0">
        <time>2020-12-06T07:42:09.237000+00:00</time>
      </trkpt>
      <trkpt lat="0" lon="0">
        <time>2020-12-06T07:42:09.238000+00:00</time>
      </trkpt>
      <trkpt lat="47.28465" lon="-1.4011">
        <ele>2</ele>
        <time>2020-12-06T07:42:10.269000+00:00</time>
      </trkpt>
      <trkpt lat="0" lon="0">
        <time>2020-12-06T07:42:10.287000+00:00</time>
      </trkpt>
      <trkpt lat="0" lon="0">
        <time>2020-12-06T07:42:10.292000+00:00</time>
      </trkpt>
      <trkpt lat="0" lon="0">
        <time>2020-12-06T07:42:10.294000+00:00</time>
      </trkpt>
      <trkpt lat="47.28461" lon="-1.40118">
        <ele>2</ele>
        <time>2020-12-06T07:42:11.211000+00:00</time>
      </trkpt>
      <trkpt lat="0" lon="0">
        <time>2020-12-06T07:42:11.217000+00:00</time>
      </trkpt>
      <trkpt lat="0" lon="0">
        <time>2020-12-06T07:42:11.219000+00:00</time>
      </trkpt>
      <trkpt lat="0" lon="0">
        <time>2020-12-06T07:42:11.221000+00:00</time>
      </trkpt>
      <trkpt lat="47.28458" lon="-1.40127">
        <ele>2</ele>
        <time>2020-12-06T07:42:12.254000+00:00</time>
      </trkpt>
      <trkpt lat="0" lon="0">
        <time>2020-12-06T07:42:12.266000+00:00</time>
      </trkpt>
      <trkpt lat="0" lon="0">
        <time>2020-12-06T07:42:12.270000+00:00</time>
      </trkpt>
      <trkpt lat="0" lon="0">
        <time>2020-12-06T07:42:12.279000+00:00</time>
      </trkpt>
      <trkpt lat="47.28455" lon="-1.40135">
        <ele>2</ele>
        <time>2020-12-06T07:42:13.255000+00:00</time>
      </trkpt>
      <trkpt lat="0" lon="0">
        <time>2020-12-06T07:42:13.263000+00:00</time>
      </trkpt>
      <trkpt lat="0" lon="0">
        <time>2020-12-06T07:42:13.274000+00:00</time>
      </trkpt>
      <trkpt lat="0" lon="0">
        <time>2020-12-06T07:42:13.276000+00:00</time>
      </trkpt>
      <trkpt lat="47.28452" lon="-1.40143">
        <ele>2</ele>
        <time>2020-12-06T07:42:14.243000+00:00</time>
      </trkpt>
      <trkpt lat="0" lon="0">
        <time>2020-12-06T07:42:14.248000+00:00</time>
      </trkpt>
      <trkpt lat="0" lon="0">
        <time>2020-12-06T07:42:14.254000+00:00</time>
      </trkpt>
      <trkpt lat="0" lon="0">
        <time>2020-12-06T07:42:14.256000+00:00</time>
      </trkpt>
      <trkpt lat="47.28449" lon="-1.40152">
        <ele>2</ele>
        <time>2020-12-06T07:42:15.252000+00:00</time>
      </trkpt>
      <trkpt lat="0" lon="0">
        <time>2020-12-06T07:42:15.255000+00:00</time>
      </trkpt>
      <trkpt lat="0" lon="0">
        <time>2020-12-06T07:42:15.269000+00:00</time>
      </trkpt>
      <trkpt lat="0" lon="0">
        <time>2020-12-06T07:42:15.271000+00:00</time>
      </trkpt>
      <trkpt lat="47.28446" lon="-1.4016">
        <ele>2</ele>
        <time>2020-12-06T07:42:16.262000+00:00</time>
      </trkpt>
      <trkpt lat="0" lon="0">
        <time>2020-12-06T07:42:16.264000+00:00</time>
      </trkpt>
      <trkpt lat="0" lon="0">
        <time>2020-12-06T07:42:16.267000+00:00</time>
      </trkpt>
      <trkpt lat="0" lon="0">
        <time>2020-12-06T07:42:16.273000+00:00</time>
      </trkpt>
      <trkpt lat="47.28443" lon="-1.40169">
        <ele>2</ele>
        <time>2020-12-06T07:42:17.236000+00:00</time>
      </trkpt>
      <trkpt lat="0" lon="0">
        <time>2020-12-06T07:42:17.240000+00:00</time>
      </trkpt>
      <trkpt lat="0" lon="0">
        <time>2020-12-06T07:42:17.245000+00:00</time>
      </trkpt>
      <trkpt lat="0" lon="0">
        <time>2020-12-06T07:42:17.246000+00:00</time>
      </trkpt>
      <trkpt lat="47.2844" lon="-1.40177">
        <ele>2</ele>
        <time>2020-12-06T07:42:18.230000+00:00</time>
      </trkpt>
      <trkpt lat="0" lon="0">
        <time>2020-12-06T07:42:18.241000+00:00</time>
      </trkpt>
      <trkpt lat="0" lon="0">
        <time>2020-12-06T07:42:18.250000+00:00</time>
      </trkpt>
      <trkpt lat="0" lon="0">
        <time>2020-12-06T07:42:18.253000+00:00</time>
      </trkpt>
      <trkpt lat="47.28437" lon="-1.40186">
        <ele>2</ele>
        <time>2020-12-06T07:42:19.219000+00:00</time>
      </trkpt>
      <trkpt lat="0" lon="0">
        <time>2020-12-06T07:42:19.225000+00:00</time>
      </trkpt>
      <trkpt lat="0" lon="0">
        <time>2020-12-06T07:42:19.228000+00:00</time>
      </trkpt>
      <trkpt lat="0" lon="0">
        <time>2020-12-06T07:42:19.229000+00:00</time>
      </trkpt>
      <trkpt lat="47.28434" lon="-1.40195">
        <ele>2</ele>
        <time>2020-12-06T07:42:20.300000+00:00</time>
      </trkpt>
      <trkpt lat="0" lon="0">
        <time>2020-12-06T07:42:20.310000+00:00</time>
      </trkpt>
      <trkpt lat="0" lon="0">
        <time>2020-12-06T07:42:20.314000+00:00</time>
      </trkpt>
      <trkpt lat="0" lon="0">
        <time>2020-12-06T07:42:20.317000+00:00</time>
      </trkpt>
      <trkpt lat="47.28431" lon="-1.40203">
        <ele>2</ele>
        <time>2020-12-06T07:42:21.259000+00:00</time>
      </trkpt>
      <trkpt lat="0" lon="0">
        <time>2020-12-06T07:42:21.267000+00:00</time>
      </trkpt>
      <trkpt lat="0" lon="0">
        <time>2020-12-06T07:42:21.274000+00:00</time>
      </trkpt>
      <trkpt lat="0" lon="0">
        <time>2020-12-06T07:42:21.275000+00:00</time>
      </trkpt>
      <trkpt lat="47.28428" lon="-1.40212">
        <ele>2</ele>
        <time>2020-12-06T07:42:22.260000+00:00</time>
      </trkpt>
      <trkpt lat="0" lon="0">
        <time>2020-12-06T07:42:22.274000+00:00</time>
      </trkpt>
      <trkpt lat="0" lon="0">
        <time>2020-12-06T07:42:22.278000+00:00</time>
      </trkpt>
      <trkpt lat="0" lon="0">
        <time>2020-12-06T07:42:22.280000+00:00</time>
      </trkpt>
      <trkpt lat="47.28425" lon="-1.40221">
        <ele>2</ele>
        <time>2020-12-06T07:42:23.275000+00:00</time>
      </trkpt>
      <trkpt lat="0" lon="0">
        <time>2020-12-06T07:42:23.279000+00:00</time>
      </trkpt>
      <trkpt lat="0" lon="0">
        <time>2020-12-06T07:42:23.285000+00:00</time>
      </trkpt>
      <trkpt lat="0" lon="0">
        <time>2020-12-06T07:42:23.287000+00:00</time>
      </trkpt>
      <trkpt lat="47.28422" lon="-1.4023">
        <ele>2</ele>
        <time>2020-12-06T07:42:24.273000+00:00</time>
      </trkpt>
      <trkpt lat="0" lon="0">
        <time>2020-12-06T07:42:24.285000+00:00</time>
      </trkpt>
      <trkpt lat="0" lon="0">
        <time>2020-12-06T07:42:24.293000+00:00</time>
      </trkpt>
      <trkpt lat="0" lon="0">
        <time>2020-12-06T07:42:24.294000+00:00</time>
      </trkpt>
      <trkpt lat="47.28419" lon="-1.40238">
        <ele>2</ele>
        <time>2020-12-06T07:42:25.226000+00:00</time>
      </trkpt>
      <trkpt lat="0" lon="0">
        <time>2020-12-06T07:42:25.237000+00:00</time>
      </trkpt>
      <trkpt lat="0" lon="0">
        <time>2020-12-06T07:42:25.246000+00:00</time>
      </trkpt>
      <trkpt lat="0" lon="0">
        <time>2020-12-06T07:42:25.249000+00:00</time>
      </trkpt>
      <trkpt lat="47.28416" lon="-1.40247">
        <ele>2</ele>
        <time>2020-12-06T07:42:26.280000+00:00</time>
      </trkpt>
      <trkpt lat="0" lon="0">
        <time>2020-12-06T07:42:26.284000+00:00</time>
      </trkpt>
      <trkpt lat="0" lon="0">
        <time>2020-12-06T07:42:26.290000+00:00</time>
      </trkpt>
      <trkpt lat="0" lon="0">
        <time>2020-12-06T07:42:26.294000+00:00</time>
      </trkpt>
      <trkpt lat="47.28412" lon="-1.40255">
        <ele>2</ele>
        <time>2020-12-06T07:42:27.258000+00:00</time>
      </trkpt>
      <trkpt lat="0" lon="0">
        <time>2020-12-06T07:42:27.262000+00:00</time>
      </trkpt>
      <trkpt lat="0" lon="0">
        <time>2020-12-06T07:42:27.275000+00:00</time>
      </trkpt>
      <trkpt lat="0" lon="0">
        <time>2020-12-06T07:42:27.277000+00:00</time>
      </trkpt>
      <trkpt lat="47.28409" lon="-1.40263">
        <ele>2</ele>
        <time>2020-12-06T07:42:28.197000+00:00</time>
      </trkpt>
      <trkpt lat="0" lon="0">
        <time>2020-12-06T07:42:28.208000+00:00</time>
      </trkpt>
      <trkpt lat="0" lon="0">
        <time>2020-12-06T07:42:28.211000+00:00</time>
      </trkpt>
      <trkpt lat="0" lon="0">
        <time>2020-12-06T07:42:28.212000+00:00</time>
      </trkpt>
      <trkpt lat="47.28405" lon="-1.40272">
        <ele>2</ele>
        <time>2020-12-06T07:42:29.213000+00:00</time>
      </trkpt>
      <trkpt lat="0" lon="0">
        <time>2020-12-06T07:42:29.220000+00:00</time>
      </trkpt>
      <trkpt lat="0" lon="0">
        <time>2020-12-06T07:42:29.223000+00:00</time>
      </trkpt>
      <trkpt lat="0" lon="0">
        <time>2020-12-06T07:42:29.225000+00:00</time>
      </trkpt>
      <trkpt lat="47.28401" lon="-1.4028">
        <ele>2</ele>
        <time>2020-12-06T07:42:30.264000+00:00</time>
      </trkpt>
      <trkpt lat="0" lon="0">
        <time>2020-12-06T07:42:30.277000+00:00</time>
      </trkpt>
      <trkpt lat="0" lon="0">
        <time>2020-12-06T07:42:30.285000+00:00</time>
      </trkpt>
      <trkpt lat="0" lon="0">
        <time>2020-12-06T07:42:30.291000+00:00</time>
      </trkpt>
      <trkpt lat="47.28398" lon="-1.40289">
        <ele>2</ele>
        <time>2020-12-06T07:42:31.294000+00:00</time>
      </trkpt>
      <trkpt lat="0" lon="0">
        <time>2020-12-06T07:42:31.319000+00:00</time>
      </trkpt>
      <trkpt lat="0" lon="0">
        <time>2020-12-06T07:42:31.324000+00:00</time>
      </trkpt>
      <trkpt lat="0" lon="0">
        <time>2020-12-06T07:42:31.328000+00:00</time>
      </trkpt>
      <trkpt lat="47.28394" lon="-1.40297">
        <ele>2</ele>
        <time>2020-12-06T07:42:32.262000+00:00</time>
      </trkpt>
      <trkpt lat="0" lon="0">
        <time>2020-12-06T07:42:32.275000+00:00</time>
      </trkpt>
      <trkpt lat="0" lon="0">
        <time>2020-12-06T07:42:32.278000+00:00</time>
      </trkpt>
      <trkpt lat="0" lon="0">
        <time>2020-12-06T07:42:32.283000+00:00</time>
      </trkpt>
      <trkpt lat="47.2839" lon="-1.40305">
        <ele>2</ele>
        <time>2020-12-06T07:42:33.231000+00:00</time>
      </trkpt>
      <trkpt lat="0" lon="0">
        <time>2020-12-06T07:42:33.235000+00:00</time>
      </trkpt>
      <trkpt lat="0" lon="0">
        <time>2020-12-06T07:42:33.242000+00:00</time>
      </trkpt>
      <trkpt lat="0" lon="0">
        <time>2020-12-06T07:42:33.244000+00:00</time>
      </trkpt>
      <trkpt lat="47.28386" lon="-1.40313">
        <ele>2</ele>
        <time>2020-12-06T07:42:34.262000+00:00</time>
      </trkpt>
      <trkpt lat="0" lon="0">
        <time>2020-12-06T07:42:34.268000+00:00</time>
      </trkpt>
      <trkpt lat="0" lon="0">
        <time>2020-12-06T07:42:34.273000+00:00</time>
      </trkpt>
      <trkpt lat="0" lon="0">
        <time>2020-12-06T07:42:34.276000+00:00</time>
      </trkpt>
      <trkpt lat="47.28382" lon="-1.40321">
        <ele>2</ele>
        <time>2020-12-06T07:42:35.249000+00:00</time>
      </trkpt>
      <trkpt lat="0" lon="0">
        <time>2020-12-06T07:42:35.261000+00:00</time>
      </trkpt>
      <trkpt lat="0" lon="0">
        <time>2020-12-06T07:42:35.264000+00:00</time>
      </trkpt>
      <trkpt lat="0" lon="0">
        <time>2020-12-06T07:42:35.266000+00:00</time>
      </trkpt>
      <trkpt lat="47.28378" lon="-1.40329">
        <ele>2</ele>
        <time>2020-12-06T07:42:36.265000+00:00</time>
      </trkpt>
      <trkpt lat="0" lon="0">
        <time>2020-12-06T07:42:36.291000+00:00</time>
      </trkpt>
      <trkpt lat="0" lon="0">
        <time>2020-12-06T07:42:36.296000+00:00</time>
      </trkpt>
      <trkpt lat="0" lon="0">
        <time>2020-12-06T07:42:36.302000+00:00</time>
      </trkpt>
      <trkpt lat="47.28374" lon="-1.40337">
        <ele>3</ele>
        <time>2020-12-06T07:42:37.260000+00:00</time>
      </trkpt>
      <trkpt lat="0" lon="0">
        <time>2020-12-06T07:42:37.275000+00:00</time>
      </trkpt>
      <trkpt lat="0" lon="0">
        <time>2020-12-06T07:42:37.279000+00:00</time>
      </trkpt>
      <trkpt lat="0" lon="0">
        <time>2020-12-06T07:42:37.283000+00:00</time>
      </trkpt>
      <trkpt lat="47.2837" lon="-1.40344">
        <ele>3</ele>
        <time>2020-12-06T07:42:38.272000+00:00</time>
      </trkpt>
      <trkpt lat="0" lon="0">
        <time>2020-12-06T07:42:38.283000+00:00</time>
      </trkpt>
      <trkpt lat="0" lon="0">
        <time>2020-12-06T07:42:38.291000+00:00</time>
      </trkpt>
      <trkpt lat="0" lon="0">
        <time>2020-12-06T07:42:38.293000+00:00</time>
      </trkpt>
      <trkpt lat="47.28365" lon="-1.40352">
        <ele>3</ele>
        <time>2020-12-06T07:42:39.262000+00:00</time>
      </trkpt>
      <trkpt lat="0" lon="0">
        <time>2020-12-06T07:42:39.275000+00:00</time>
      </trkpt>
      <trkpt lat="0" lon="0">
        <time>2020-12-06T07:42:39.277000+00:00</time>
      </trkpt>
      <trkpt lat="0" lon="0">
        <time>2020-12-06T07:42:39.279000+00:00</time>
      </trkpt>
      <trkpt lat="47.2836" lon="-1.40359">
        <ele>3</ele>
        <time>2020-12-06T07:42:40.252000+00:00</time>
      </trkpt>
      <trkpt lat="0" lon="0">
        <time>2020-12-06T07:42:40.265000+00:00</time>
      </trkpt>
      <trkpt lat="0" lon="0">
        <time>2020-12-06T07:42:40.268000+00:00</time>
      </trkpt>
      <trkpt lat="0" lon="0">
        <time>2020-12-06T07:42:40.270000+00:00</time>
      </trkpt>
      <trkpt lat="47.28356" lon="-1.40366">
        <ele>3</ele>
        <time>2020-12-06T07:42:41.206000+00:00</time>
      </trkpt>
      <trkpt lat="0" lon="0">
        <time>2020-12-06T07:42:41.212000+00:00</time>
      </trkpt>
      <trkpt lat="0" lon="0">
        <time>2020-12-06T07:42:41.217000+00:00</time>
      </trkpt>
      <trkpt lat="47.28351" lon="-1.40373">
        <ele>3</ele>
        <time>2020-12-06T07:42:42.223000+00:00</time>
      </trkpt>
      <trkpt lat="0" lon="0">
        <time>2020-12-06T07:42:42.233000+00:00</time>
      </trkpt>
      <trkpt lat="0" lon="0">
        <time>2020-12-06T07:42:42.242000+00:00</time>
      </trkpt>
      <trkpt lat="0" lon="0">
        <time>2020-12-06T07:42:42.243000+00:00</time>
      </trkpt>
      <trkpt lat="47.28346" lon="-1.40379">
        <ele>3</ele>
        <time>2020-12-06T07:42:43.260000+00:00</time>
      </trkpt>
      <trkpt lat="0" lon="0">
        <time>2020-12-06T07:42:43.273000+00:00</time>
      </trkpt>
      <trkpt lat="0" lon="0">
        <time>2020-12-06T07:42:43.276000+00:00</time>
      </trkpt>
      <trkpt lat="0" lon="0">
        <time>2020-12-06T07:42:43.279000+00:00</time>
      </trkpt>
      <trkpt lat="47.28341" lon="-1.40386">
        <ele>3</ele>
        <time>2020-12-06T07:42:44.275000+00:00</time>
      </trkpt>
      <trkpt lat="0" lon="0">
        <time>2020-12-06T07:42:44.285000+00:00</time>
      </trkpt>
      <trkpt lat="0" lon="0">
        <time>2020-12-06T07:42:44.294000+00:00</time>
      </trkpt>
      <trkpt lat="0" lon="0">
        <time>2020-12-06T07:42:44.299000+00:00</time>
      </trkpt>
      <trkpt lat="47.28336" lon="-1.40392">
        <ele>3</ele>
        <time>2020-12-06T07:42:45.259000+00:00</time>
      </trkpt>
      <trkpt lat="0" lon="0">
        <time>2020-12-06T07:42:45.271000+00:00</time>
      </trkpt>
      <trkpt lat="0" lon="0">
        <time>2020-12-06T07:42:45.275000+00:00</time>
      </trkpt>
      <trkpt lat="0" lon="0">
        <time>2020-12-06T07:42:45.278000+00:00</time>
      </trkpt>
      <trkpt lat="47.28331" lon="-1.40398">
        <ele>2</ele>
        <time>2020-12-06T07:42:46.276000+00:00</time>
      </trkpt>
      <trkpt lat="0" lon="0">
        <time>2020-12-06T07:42:46.280000+00:00</time>
      </trkpt>
      <trkpt lat="0" lon="0">
        <time>2020-12-06T07:42:46.289000+00:00</time>
      </trkpt>
      <trkpt lat="0" lon="0">
        <time>2020-12-06T07:42:46.291000+00:00</time>
      </trkpt>
      <trkpt lat="47.28326" lon="-1.40404">
        <ele>2</ele>
        <time>2020-12-06T07:42:47.255000+00:00</time>
      </trkpt>
      <trkpt lat="0" lon="0">
        <time>2020-12-06T07:42:47.260000+00:00</time>
      </trkpt>
      <trkpt lat="0" lon="0">
        <time>2020-12-06T07:42:47.263000+00:00</time>
      </trkpt>
      <trkpt lat="0" lon="0">
        <time>2020-12-06T07:42:47.266000+00:00</time>
      </trkpt>
      <trkpt lat="47.28321" lon="-1.4041">
        <ele>2</ele>
        <time>2020-12-06T07:42:48.285000+00:00</time>
      </trkpt>
      <trkpt lat="0" lon="0">
        <time>2020-12-06T07:42:48.296000+00:00</time>
      </trkpt>
      <trkpt lat="0" lon="0">
        <time>2020-12-06T07:42:48.301000+00:00</time>
      </trkpt>
      <trkpt lat="0" lon="0">
        <time>2020-12-06T07:42:48.303000+00:00</time>
      </trkpt>
      <trkpt lat="47.28316" lon="-1.40416">
        <ele>2</ele>
        <time>2020-12-06T07:42:49.246000+00:00</time>
      </trkpt>
      <trkpt lat="0" lon="0">
        <time>2020-12-06T07:42:49.266000+00:00</time>
      </trkpt>
      <trkpt lat="0" lon="0">
        <time>2020-12-06T07:42:49.271000+00:00</time>
      </trkpt>
      <trkpt lat="0" lon="0">
        <time>2020-12-06T07:42:49.274000+00:00</time>
      </trkpt>
      <trkpt lat="47.2831" lon="-1.40422">
        <ele>2</ele>
        <time>2020-12-06T07:42:50.253000+00:00</time>
      </trkpt>
      <trkpt lat="0" lon="0">
        <time>2020-12-06T07:42:50.269000+00:00</time>
      </trkpt>
      <trkpt lat="0" lon="0">
        <time>2020-12-06T07:42:50.272000+00:00</time>
      </trkpt>
      <trkpt lat="0" lon="0">
        <time>2020-12-06T07:42:50.273000+00:00</time>
      </trkpt>
      <trkpt lat="47.28305" lon="-1.40428">
        <ele>3</ele>
        <time>2020-12-06T07:42:51.272000+00:00</time>
      </trkpt>
      <trkpt lat="0" lon="0">
        <time>2020-12-06T07:42:51.276000+00:00</time>
      </trkpt>
      <trkpt lat="0" lon="0">
        <time>2020-12-06T07:42:51.280000+00:00</time>
      </trkpt>
      <trkpt lat="0" lon="0">
        <time>2020-12-06T07:42:51.282000+00:00</time>
      </trkpt>
      <trkpt lat="47.283" lon="-1.40433">
        <ele>3</ele>
        <time>2020-12-06T07:42:52.249000+00:00</time>
      </trkpt>
      <trkpt lat="0" lon="0">
        <time>2020-12-06T07:42:52.260000+00:00</time>
      </trkpt>
      <trkpt lat="0" lon="0">
        <time>2020-12-06T07:42:52.265000+00:00</time>
      </trkpt>
      <trkpt lat="0" lon="0">
        <time>2020-12-06T07:42:52.266000+00:00</time>
      </trkpt>
      <trkpt lat="47.28294" lon="-1.40439">
        <ele>3</ele>
        <time>2020-12-06T07:42:53.272000+00:00</time>
      </trkpt>
      <trkpt lat="0" lon="0">
        <time>2020-12-06T07:42:53.275000+00:00</time>
      </trkpt>
      <trkpt lat="0" lon="0">
        <time>2020-12-06T07:42:53.278000+00:00</time>
      </trkpt>
      <trkpt lat="0" lon="0">
        <time>2020-12-06T07:42:53.279000+00:00</time>
      </trkpt>
      <trkpt lat="47.28289" lon="-1.40444">
        <ele>3</ele>
        <time>2020-12-06T07:42:54.233000+00:00</time>
      </trkpt>
      <trkpt lat="0" lon="0">
        <time>2020-12-06T07:42:54.254000+00:00</time>
      </trkpt>
      <trkpt lat="0" lon="0">
        <time>2020-12-06T07:42:54.261000+00:00</time>
      </trkpt>
      <trkpt lat="0" lon="0">
        <time>2020-12-06T07:42:54.269000+00:00</time>
      </trkpt>
      <trkpt lat="47.28283" lon="-1.40449">
        <ele>3</ele>
        <time>2020-12-06T07:42:55.256000+00:00</time>
      </trkpt>
      <trkpt lat="0" lon="0">
        <time>2020-12-06T07:42:55.260000+00:00</time>
      </trkpt>
      <trkpt lat="0" lon="0">
        <time>2020-12-06T07:42:55.264000+00:00</time>
      </trkpt>
      <trkpt lat="0" lon="0">
        <time>2020-12-06T07:42:55.268000+00:00</time>
      </trkpt>
      <trkpt lat="47.28277" lon="-1.40454">
        <ele>3</ele>
        <time>2020-12-06T07:42:56.221000+00:00</time>
      </trkpt>
      <trkpt lat="0" lon="0">
        <time>2020-12-06T07:42:56.231000+00:00</time>
      </trkpt>
      <trkpt lat="0" lon="0">
        <time>2020-12-06T07:42:56.239000+00:00</time>
      </trkpt>
      <trkpt lat="0" lon="0">
        <time>2020-12-06T07:42:56.244000+00:00</time>
      </trkpt>
      <trkpt lat="47.28272" lon="-1.40458">
        <ele>4</ele>
        <time>2020-12-06T07:42:57.212000+00:00</time>
      </trkpt>
      <trkpt lat="0" lon="0">
        <time>2020-12-06T07:42:57.215000+00:00</time>
      </trkpt>
      <trkpt lat="0" lon="0">
        <time>2020-12-06T07:42:57.222000+00:00</time>
      </trkpt>
      <trkpt lat="0" lon="0">
        <time>2020-12-06T07:42:57.225000+00:00</time>
      </trkpt>
      <trkpt lat="47.28266" lon="-1.40463">
        <ele>4</ele>
        <time>2020-12-06T07:42:58.236000+00:00</time>
      </trkpt>
      <trkpt lat="0" lon="0">
        <time>2020-12-06T07:42:58.248000+00:00</time>
      </trkpt>
      <trkpt lat="0" lon="0">
        <time>2020-12-06T07:42:58.255000+00:00</time>
      </trkpt>
      <trkpt lat="0" lon="0">
        <time>2020-12-06T07:42:58.258000+00:00</time>
      </trkpt>
      <trkpt lat="47.2826" lon="-1.40468">
        <ele>4</ele>
        <time>2020-12-06T07:42:59.278000+00:00</time>
      </trkpt>
      <trkpt lat="0" lon="0">
        <time>2020-12-06T07:42:59.292000+00:00</time>
      </trkpt>
      <trkpt lat="0" lon="0">
        <time>2020-12-06T07:42:59.297000+00:00</time>
      </trkpt>
      <trkpt lat="0" lon="0">
        <time>2020-12-06T07:42:59.298000+00:00</time>
      </trkpt>
      <trkpt lat="47.28255" lon="-1.40473">
        <ele>4</ele>
        <time>2020-12-06T07:43:00.253000+00:00</time>
      </trkpt>
      <trkpt lat="0" lon="0">
        <time>2020-12-06T07:43:00.259000+00:00</time>
      </trkpt>
      <trkpt lat="0" lon="0">
        <time>2020-12-06T07:43:00.263000+00:00</time>
      </trkpt>
      <trkpt lat="0" lon="0">
        <time>2020-12-06T07:43:00.266000+00:00</time>
      </trkpt>
      <trkpt lat="47.28249" lon="-1.40478">
        <ele>4</ele>
        <time>2020-12-06T07:43:01.245000+00:00</time>
      </trkpt>
      <trkpt lat="0" lon="0">
        <time>2020-12-06T07:43:01.258000+00:00</time>
      </trkpt>
      <trkpt lat="0" lon="0">
        <time>2020-12-06T07:43:01.262000+00:00</time>
      </trkpt>
      <trkpt lat="0" lon="0">
        <time>2020-12-06T07:43:01.266000+00:00</time>
      </trkpt>
      <trkpt lat="47.28244" lon="-1.40482">
        <ele>4</ele>
        <time>2020-12-06T07:43:02.251000+00:00</time>
      </trkpt>
      <trkpt lat="0" lon="0">
        <time>2020-12-06T07:43:02.255000+00:00</time>
      </trkpt>
      <trkpt lat="0" lon="0">
        <time>2020-12-06T07:43:02.265000+00:00</time>
      </trkpt>
      <trkpt lat="0" lon="0">
        <time>2020-12-06T07:43:02.274000+00:00</time>
      </trkpt>
      <trkpt lat="47.28238" lon="-1.40487">
        <ele>4</ele>
        <time>2020-12-06T07:43:03.207000+00:00</time>
      </trkpt>
      <trkpt lat="0" lon="0">
        <time>2020-12-06T07:43:03.216000+00:00</time>
      </trkpt>
      <trkpt lat="0" lon="0">
        <time>2020-12-06T07:43:03.218000+00:00</time>
      </trkpt>
      <trkpt lat="47.28233" lon="-1.40492">
        <ele>4</ele>
        <time>2020-12-06T07:43:04.250000+00:00</time>
      </trkpt>
      <trkpt lat="0" lon="0">
        <time>2020-12-06T07:43:04.264000+00:00</time>
      </trkpt>
      <trkpt lat="0" lon="0">
        <time>2020-12-06T07:43:04.269000+00:00</time>
      </trkpt>
      <trkpt lat="0" lon="0">
        <time>2020-12-06T07:43:04.273000+00:00</time>
      </trkpt>
      <trkpt lat="47.28227" lon="-1.40497">
        <ele>4</ele>
        <time>2020-12-06T07:43:05.225000+00:00</time>
      </trkpt>
      <trkpt lat="0" lon="0">
        <time>2020-12-06T07:43:05.227000+00:00</time>
      </trkpt>
      <trkpt lat="0" lon="0">
        <time>2020-12-06T07:43:05.229000+00:00</time>
      </trkpt>
      <trkpt lat="0" lon="0">
        <time>2020-12-06T07:43:05.230000+00:00</time>
      </trkpt>
      <trkpt lat="47.28222" lon="-1.40502">
        <ele>4</ele>
        <time>2020-12-06T07:43:06.272000+00:00</time>
      </trkpt>
      <trkpt lat="0" lon="0">
        <time>2020-12-06T07:43:06.280000+00:00</time>
      </trkpt>
      <trkpt lat="0" lon="0">
        <time>2020-12-06T07:43:06.287000+00:00</time>
      </trkpt>
      <trkpt lat="0" lon="0">
        <time>2020-12-06T07:43:06.294000+00:00</time>
      </trkpt>
      <trkpt lat="47.28216" lon="-1.40507">
        <ele>4</ele>
        <time>2020-12-06T07:43:07.258000+00:00</time>
      </trkpt>
      <trkpt lat="0" lon="0">
        <time>2020-12-06T07:43:07.272000+00:00</time>
      </trkpt>
      <trkpt lat="0" lon="0">
        <time>2020-12-06T07:43:07.277000+00:00</time>
      </trkpt>
      <trkpt lat="0" lon="0">
        <time>2020-12-06T07:43:07.279000+00:00</time>
      </trkpt>
      <trkpt lat="47.28211" lon="-1.40512">
        <ele>4</ele>
        <time>2020-12-06T07:43:08.258000+00:00</time>
      </trkpt>
      <trkpt lat="0" lon="0">
        <time>2020-12-06T07:43:08.267000+00:00</time>
      </trkpt>
      <trkpt lat="0" lon="0">
        <time>2020-12-06T07:43:08.273000+00:00</time>
      </trkpt>
      <trkpt lat="0" lon="0">
        <time>2020-12-06T07:43:08.275000+00:00</time>
      </trkpt>
      <trkpt lat="47.28206" lon="-1.40517">
        <ele>5</ele>
        <time>2020-12-06T07:43:09.231000+00:00</time>
      </trkpt>
      <trkpt lat="0" lon="0">
        <time>2020-12-06T07:43:09.234000+00:00</time>
      </trkpt>
      <trkpt lat="0" lon="0">
        <time>2020-12-06T07:43:09.236000+00:00</time>
      </trkpt>
      <trkpt lat="0" lon="0">
        <time>2020-12-06T07:43:09.242000+00:00</time>
      </trkpt>
      <trkpt lat="47.282" lon="-1.40522">
        <ele>5</ele>
        <time>2020-12-06T07:43:10.275000+00:00</time>
      </trkpt>
      <trkpt lat="0" lon="0">
        <time>2020-12-06T07:43:10.298000+00:00</time>
      </trkpt>
      <trkpt lat="0" lon="0">
        <time>2020-12-06T07:43:10.306000+00:00</time>
      </trkpt>
      <trkpt lat="0" lon="0">
        <time>2020-12-06T07:43:10.307000+00:00</time>
      </trkpt>
      <trkpt lat="47.28195" lon="-1.40528">
        <ele>5</ele>
        <time>2020-12-06T07:43:11.228000+00:00</time>
      </trkpt>
      <trkpt lat="0" lon="0">
        <time>2020-12-06T07:43:11.232000+00:00</time>
      </trkpt>
      <trkpt lat="0" lon="0">
        <time>2020-12-06T07:43:11.234000+00:00</time>
      </trkpt>
      <trkpt lat="0" lon="0">
        <time>2020-12-06T07:43:11.235000+00:00</time>
      </trkpt>
      <trkpt lat="47.28189" lon="-1.40533">
        <ele>6</ele>
        <time>2020-12-06T07:43:12.247000+00:00</time>
      </trkpt>
      <trkpt lat="0" lon="0">
        <time>2020-12-06T07:43:12.251000+00:00</time>
      </trkpt>
      <trkpt lat="0" lon="0">
        <time>2020-12-06T07:43:12.259000+00:00</time>
      </trkpt>
      <trkpt lat="0" lon="0">
        <time>2020-12-06T07:43:12.268000+00:00</time>
      </trkpt>
      <trkpt lat="47.28184" lon="-1.40538">
        <ele>6</ele>
        <time>2020-12-06T07:43:13.249000+00:00</time>
      </trkpt>
      <trkpt lat="0" lon="0">
        <time>2020-12-06T07:43:13.271000+00:00</time>
      </trkpt>
      <trkpt lat="0" lon="0">
        <time>2020-12-06T07:43:13.278000+00:00</time>
      </trkpt>
      <trkpt lat="0" lon="0">
        <time>2020-12-06T07:43:13.280000+00:00</time>
      </trkpt>
      <trkpt lat="47.28178" lon="-1.40543">
        <ele>7</ele>
        <time>2020-12-06T07:43:14.255000+00:00</time>
      </trkpt>
      <trkpt lat="0" lon="0">
        <time>2020-12-06T07:43:14.271000+00:00</time>
      </trkpt>
      <trkpt lat="0" lon="0">
        <time>2020-12-06T07:43:14.279000+00:00</time>
      </trkpt>
      <trkpt lat="0" lon="0">
        <time>2020-12-06T07:43:14.282000+00:00</time>
      </trkpt>
      <trkpt lat="47.28173" lon="-1.40548">
        <ele>8</ele>
        <time>2020-12-06T07:43:15.249000+00:00</time>
      </trkpt>
      <trkpt lat="0" lon="0">
        <time>2020-12-06T07:43:15.251000+00:00</time>
      </trkpt>
      <trkpt lat="0" lon="0">
        <time>2020-12-06T07:43:15.260000+00:00</time>
      </trkpt>
      <trkpt lat="0" lon="0">
        <time>2020-12-06T07:43:15.266000+00:00</time>
      </trkpt>
      <trkpt lat="47.28168" lon="-1.40553">
        <ele>9</ele>
        <time>2020-12-06T07:43:16.250000+00:00</time>
      </trkpt>
      <trkpt lat="0" lon="0">
        <time>2020-12-06T07:43:16.269000+00:00</time>
      </trkpt>
      <trkpt lat="0" lon="0">
        <time>2020-12-06T07:43:16.280000+00:00</time>
      </trkpt>
      <trkpt lat="0" lon="0">
        <time>2020-12-06T07:43:16.283000+00:00</time>
      </trkpt>
      <trkpt lat="47.28162" lon="-1.40558">
        <ele>9</ele>
        <time>2020-12-06T07:43:17.243000+00:00</time>
      </trkpt>
      <trkpt lat="0" lon="0">
        <time>2020-12-06T07:43:17.258000+00:00</time>
      </trkpt>
      <trkpt lat="0" lon="0">
        <time>2020-12-06T07:43:17.261000+00:00</time>
      </trkpt>
      <trkpt lat="0" lon="0">
        <time>2020-12-06T07:43:17.265000+00:00</time>
      </trkpt>
      <trkpt lat="47.28157" lon="-1.40563">
        <ele>9</ele>
        <time>2020-12-06T07:43:18.258000+00:00</time>
      </trkpt>
      <trkpt lat="0" lon="0">
        <time>2020-12-06T07:43:18.278000+00:00</time>
      </trkpt>
      <trkpt lat="0" lon="0">
        <time>2020-12-06T07:43:18.285000+00:00</time>
      </trkpt>
      <trkpt lat="0" lon="0">
        <time>2020-12-06T07:43:18.287000+00:00</time>
      </trkpt>
      <trkpt lat="47.28152" lon="-1.40568">
        <ele>9</ele>
        <time>2020-12-06T07:43:19.257000+00:00</time>
      </trkpt>
      <trkpt lat="0" lon="0">
        <time>2020-12-06T07:43:19.261000+00:00</time>
      </trkpt>
      <trkpt lat="0" lon="0">
        <time>2020-12-06T07:43:19.266000+00:00</time>
      </trkpt>
      <trkpt lat="0" lon="0">
        <time>2020-12-06T07:43:19.270000+00:00</time>
      </trkpt>
      <trkpt lat="47.28146" lon="-1.40574">
        <ele>9</ele>
        <time>2020-12-06T07:43:20.236000+00:00</time>
      </trkpt>
      <trkpt lat="0" lon="0">
        <time>2020-12-06T07:43:20.240000+00:00</time>
      </trkpt>
      <trkpt lat="0" lon="0">
        <time>2020-12-06T07:43:20.245000+00:00</time>
      </trkpt>
      <trkpt lat="0" lon="0">
        <time>2020-12-06T07:43:20.247000+00:00</time>
      </trkpt>
      <trkpt lat="47.28141" lon="-1.40579">
        <ele>9</ele>
        <time>2020-12-06T07:43:21.254000+00:00</time>
      </trkpt>
      <trkpt lat="0" lon="0">
        <time>2020-12-06T07:43:21.255000+00:00</time>
      </trkpt>
      <trkpt lat="0" lon="0">
        <time>2020-12-06T07:43:21.257000+00:00</time>
      </trkpt>
      <trkpt lat="0" lon="0">
        <time>2020-12-06T07:43:21.258000+00:00</time>
      </trkpt>
      <trkpt lat="47.28136" lon="-1.40584">
        <ele>8</ele>
        <time>2020-12-06T07:43:22.231000+00:00</time>
      </trkpt>
      <trkpt lat="0" lon="0">
        <time>2020-12-06T07:43:22.238000+00:00</time>
      </trkpt>
      <trkpt lat="0" lon="0">
        <time>2020-12-06T07:43:22.249000+00:00</time>
      </trkpt>
      <trkpt lat="0" lon="0">
        <time>2020-12-06T07:43:22.253000+00:00</time>
      </trkpt>
      <trkpt lat="47.28131" lon="-1.4059">
        <ele>8</ele>
        <time>2020-12-06T07:43:23.259000+00:00</time>
      </trkpt>
      <trkpt lat="0" lon="0">
        <time>2020-12-06T07:43:23.263000+00:00</time>
      </trkpt>
      <trkpt lat="0" lon="0">
        <time>2020-12-06T07:43:23.267000+00:00</time>
      </trkpt>
      <trkpt lat="0" lon="0">
        <time>2020-12-06T07:43:23.271000+00:00</time>
      </trkpt>
      <trkpt lat="47.28125" lon="-1.40595">
        <ele>7</ele>
        <time>2020-12-06T07:43:24.266000+00:00</time>
      </trkpt>
      <trkpt lat="0" lon="0">
        <time>2020-12-06T07:43:24.276000+00:00</time>
      </trkpt>
      <trkpt lat="0" lon="0">
        <time>2020-12-06T07:43:24.283000+00:00</time>
      </trkpt>
      <trkpt lat="0" lon="0">
        <time>2020-12-06T07:43:24.289000+00:00</time>
      </trkpt>
      <trkpt lat="47.2812" lon="-1.406">
        <ele>6</ele>
        <time>2020-12-06T07:43:25.243000+00:00</time>
      </trkpt>
      <trkpt lat="0" lon="0">
        <time>2020-12-06T07:43:25.256000+00:00</time>
      </trkpt>
      <trkpt lat="0" lon="0">
        <time>2020-12-06T07:43:25.263000+00:00</time>
      </trkpt>
      <trkpt lat="0" lon="0">
        <time>2020-12-06T07:43:25.265000+00:00</time>
      </trkpt>
      <trkpt lat="47.28115" lon="-1.40605">
        <ele>6</ele>
        <time>2020-12-06T07:43:26.250000+00:00</time>
      </trkpt>
      <trkpt lat="0" lon="0">
        <time>2020-12-06T07:43:26.260000+00:00</time>
      </trkpt>
      <trkpt lat="0" lon="0">
        <time>2020-12-06T07:43:26.265000+00:00</time>
      </trkpt>
      <trkpt lat="0" lon="0">
        <time>2020-12-06T07:43:26.267000+00:00</time>
      </trkpt>
      <trkpt lat="47.2811" lon="-1.40611">
        <ele>5</ele>
        <time>2020-12-06T07:43:27.242000+00:00</time>
      </trkpt>
      <trkpt lat="0" lon="0">
        <time>2020-12-06T07:43:27.243000+00:00</time>
      </trkpt>
      <trkpt lat="0" lon="0">
        <time>2020-12-06T07:43:27.245000+00:00</time>
      </trkpt>
      <trkpt lat="47.28104" lon="-1.40616">
        <ele>5</ele>
        <time>2020-12-06T07:43:28.211000+00:00</time>
      </trkpt>
      <trkpt lat="0" lon="0">
        <time>2020-12-06T07:43:28.220000+00:00</time>
      </trkpt>
      <trkpt lat="0" lon="0">
        <time>2020-12-06T07:43:28.231000+00:00</time>
      </trkpt>
      <trkpt lat="0" lon="0">
        <time>2020-12-06T07:43:28.233000+00:00</time>
      </trkpt>
      <trkpt lat="47.28099" lon="-1.40621">
        <ele>5</ele>
        <time>2020-12-06T07:43:29.247000+00:00</time>
      </trkpt>
      <trkpt lat="0" lon="0">
        <time>2020-12-06T07:43:29.254000+00:00</time>
      </trkpt>
      <trkpt lat="0" lon="0">
        <time>2020-12-06T07:43:29.261000+00:00</time>
      </trkpt>
      <trkpt lat="0" lon="0">
        <time>2020-12-06T07:43:29.263000+00:00</time>
      </trkpt>
      <trkpt lat="47.28094" lon="-1.40626">
        <ele>4</ele>
        <time>2020-12-06T07:43:30.284000+00:00</time>
      </trkpt>
      <trkpt lat="0" lon="0">
        <time>2020-12-06T07:43:30.290000+00:00</time>
      </trkpt>
      <trkpt lat="0" lon="0">
        <time>2020-12-06T07:43:30.295000+00:00</time>
      </trkpt>
      <trkpt lat="0" lon="0">
        <time>2020-12-06T07:43:30.297000+00:00</time>
      </trkpt>
      <trkpt lat="47.28088" lon="-1.40631">
        <ele>4</ele>
        <time>2020-12-06T07:43:31.253000+00:00</time>
      </trkpt>
      <trkpt lat="0" lon="0">
        <time>2020-12-06T07:43:31.264000+00:00</time>
      </trkpt>
      <trkpt lat="0" lon="0">
        <time>2020-12-06T07:43:31.272000+00:00</time>
      </trkpt>
      <trkpt lat="0" lon="0">
        <time>2020-12-06T07:43:31.279000+00:00</time>
      </trkpt>
      <trkpt lat="47.28083" lon="-1.40636">
        <ele>4</ele>
        <time>2020-12-06T07:43:32.277000+00:00</time>
      </trkpt>
      <trkpt lat="0" lon="0">
        <time>2020-12-06T07:43:32.285000+00:00</time>
      </trkpt>
      <trkpt lat="0" lon="0">
        <time>2020-12-06T07:43:32.289000+00:00</time>
      </trkpt>
      <trkpt lat="0" lon="0">
        <time>2020-12-06T07:43:32.291000+00:00</time>
      </trkpt>
      <trkpt lat="47.28077" lon="-1.40641">
        <ele>4</ele>
        <time>2020-12-06T07:43:33.245000+00:00</time>
      </trkpt>
      <trkpt lat="0" lon="0">
        <time>2020-12-06T07:43:33.249000+00:00</time>
      </trkpt>
      <trkpt lat="0" lon="0">
        <time>2020-12-06T07:43:33.254000+00:00</time>
      </trkpt>
      <trkpt lat="0" lon="0">
        <time>2020-12-06T07:43:33.255000+00:00</time>
      </trkpt>
      <trkpt lat="47.28072" lon="-1.40646">
        <ele>4</ele>
        <time>2020-12-06T07:43:34.210000+00:00</time>
      </trkpt>
      <trkpt lat="0" lon="0">
        <time>2020-12-06T07:43:34.217000+00:00</time>
      </trkpt>
      <trkpt lat="0" lon="0">
        <time>2020-12-06T07:43:34.232000+00:00</time>
      </trkpt>
      <trkpt lat="0" lon="0">
        <time>2020-12-06T07:43:34.235000+00:00</time>
      </trkpt>
      <trkpt lat="47.28066" lon="-1.40651">
        <ele>4</ele>
        <time>2020-12-06T07:43:35.251000+00:00</time>
      </trkpt>
      <trkpt lat="0" lon="0">
        <time>2020-12-06T07:43:35.254000+00:00</time>
      </trkpt>
      <trkpt lat="0" lon="0">
        <time>2020-12-06T07:43:35.263000+00:00</time>
      </trkpt>
      <trkpt lat="0" lon="0">
        <time>2020-12-06T07:43:35.265000+00:00</time>
      </trkpt>
      <trkpt lat="47.28061" lon="-1.40656">
        <ele>4</ele>
        <time>2020-12-06T07:43:36.272000+00:00</time>
      </trkpt>
      <trkpt lat="0" lon="0">
        <time>2020-12-06T07:43:36.281000+00:00</time>
      </trkpt>
      <trkpt lat="0" lon="0">
        <time>2020-12-06T07:43:36.295000+00:00</time>
      </trkpt>
      <trkpt lat="0" lon="0">
        <time>2020-12-06T07:43:36.298000+00:00</time>
      </trkpt>
      <trkpt lat="47.28055" lon="-1.40662">
        <ele>4</ele>
        <time>2020-12-06T07:43:37.249000+00:00</time>
      </trkpt>
      <trkpt lat="0" lon="0">
        <time>2020-12-06T07:43:37.267000+00:00</time>
      </trkpt>
      <trkpt lat="0" lon="0">
        <time>2020-12-06T07:43:37.274000+00:00</time>
      </trkpt>
      <trkpt lat="0" lon="0">
        <time>2020-12-06T07:43:37.277000+00:00</time>
      </trkpt>
      <trkpt lat="47.28049" lon="-1.40667">
        <ele>4</ele>
        <time>2020-12-06T07:43:38.238000+00:00</time>
      </trkpt>
      <trkpt lat="0" lon="0">
        <time>2020-12-06T07:43:38.242000+00:00</time>
      </trkpt>
      <trkpt lat="0" lon="0">
        <time>2020-12-06T07:43:38.257000+00:00</time>
      </trkpt>
      <trkpt lat="0" lon="0">
        <time>2020-12-06T07:43:38.258000+00:00</time>
      </trkpt>
      <trkpt lat="47.28044" lon="-1.40672">
        <ele>4</ele>
        <time>2020-12-06T07:43:39.268000+00:00</time>
      </trkpt>
      <trkpt lat="0" lon="0">
        <time>2020-12-06T07:43:39.275000+00:00</time>
      </trkpt>
      <trkpt lat="0" lon="0">
        <time>2020-12-06T07:43:39.277000+00:00</time>
      </trkpt>
      <trkpt lat="0" lon="0">
        <time>2020-12-06T07:43:39.278000+00:00</time>
      </trkpt>
      <trkpt lat="47.28039" lon="-1.40678">
        <ele>3</ele>
        <time>2020-12-06T07:43:40.274000+00:00</time>
      </trkpt>
      <trkpt lat="0" lon="0">
        <time>2020-12-06T07:43:40.283000+00:00</time>
      </trkpt>
      <trkpt lat="0" lon="0">
        <time>2020-12-06T07:43:40.289000+00:00</time>
      </trkpt>
      <trkpt lat="0" lon="0">
        <time>2020-12-06T07:43:40.291000+00:00</time>
      </trkpt>
      <trkpt lat="47.28033" lon="-1.40683">
        <ele>3</ele>
        <time>2020-12-06T07:43:41.291000+00:00</time>
      </trkpt>
      <trkpt lat="0" lon="0">
        <time>2020-12-06T07:43:41.301000+00:00</time>
      </trkpt>
      <trkpt lat="0" lon="0">
        <time>2020-12-06T07:43:41.314000+00:00</time>
      </trkpt>
      <trkpt lat="0" lon="0">
        <time>2020-12-06T07:43:41.316000+00:00</time>
      </trkpt>
      <trkpt lat="47.28028" lon="-1.40688">
        <ele>2</ele>
        <time>2020-12-06T07:43:42.279000+00:00</time>
      </trkpt>
      <trkpt lat="0" lon="0">
        <time>2020-12-06T07:43:42.289000+00:00</time>
      </trkpt>
      <trkpt lat="0" lon="0">
        <time>2020-12-06T07:43:42.294000+00:00</time>
      </trkpt>
      <trkpt lat="0" lon="0">
        <time>2020-12-06T07:43:42.298000+00:00</time>
      </trkpt>
      <trkpt lat="47.28022" lon="-1.40694">
        <ele>2</ele>
        <time>2020-12-06T07:43:43.236000+00:00</time>
      </trkpt>
      <trkpt lat="0" lon="0">
        <time>2020-12-06T07:43:43.241000+00:00</time>
      </trkpt>
      <trkpt lat="0" lon="0">
        <time>2020-12-06T07:43:43.246000+00:00</time>
      </trkpt>
      <trkpt lat="0" lon="0">
        <time>2020-12-06T07:43:43.252000+00:00</time>
      </trkpt>
      <trkpt lat="47.28017" lon="-1.40699">
        <ele>2</ele>
        <time>2020-12-06T07:43:44.265000+00:00</time>
      </trkpt>
      <trkpt lat="0" lon="0">
        <time>2020-12-06T07:43:44.269000+00:00</time>
      </trkpt>
      <trkpt lat="0" lon="0">
        <time>2020-12-06T07:43:44.276000+00:00</time>
      </trkpt>
      <trkpt lat="0" lon="0">
        <time>2020-12-06T07:43:44.278000+00:00</time>
      </trkpt>
      <trkpt lat="47.28012" lon="-1.40705">
        <ele>1</ele>
        <time>2020-12-06T07:43:45.219000+00:00</time>
      </trkpt>
      <trkpt lat="0" lon="0">
        <time>2020-12-06T07:43:45.224000+00:00</time>
      </trkpt>
      <trkpt lat="0" lon="0">
        <time>2020-12-06T07:43:45.225000+00:00</time>
      </trkpt>
      <trkpt lat="0" lon="0">
        <time>2020-12-06T07:43:45.226000+00:00</time>
      </trkpt>
      <trkpt lat="47.28007" lon="-1.4071">
        <ele>1</ele>
        <time>2020-12-06T07:43:46.300000+00:00</time>
      </trkpt>
      <trkpt lat="0" lon="0">
        <time>2020-12-06T07:43:46.310000+00:00</time>
      </trkpt>
      <trkpt lat="0" lon="0">
        <time>2020-12-06T07:43:46.314000+00:00</time>
      </trkpt>
      <trkpt lat="0" lon="0">
        <time>2020-12-06T07:43:46.316000+00:00</time>
      </trkpt>
      <trkpt lat="47.28001" lon="-1.40716">
        <ele>5.7</ele>
        <time>2020-12-06T07:43:47.261000+00:00</time>
      </trkpt>
      <trkpt lat="0" lon="0">
        <time>2020-12-06T07:43:47.271000+00:00</time>
      </trkpt>
      <trkpt lat="0" lon="0">
        <time>2020-12-06T07:43:47.279000+00:00</time>
      </trkpt>
      <trkpt lat="0" lon="0">
        <time>2020-12-06T07:43:47.281000+00:00</time>
      </trkpt>
      <trkpt lat="47.27996" lon="-1.40721">
        <ele>5.9</ele>
        <time>2020-12-06T07:43:48.258000+00:00</time>
      </trkpt>
      <trkpt lat="0" lon="0">
        <time>2020-12-06T07:43:48.268000+00:00</time>
      </trkpt>
      <trkpt lat="0" lon="0">
        <time>2020-12-06T07:43:48.271000+00:00</time>
      </trkpt>
      <trkpt lat="0" lon="0">
        <time>2020-12-06T07:43:48.274000+00:00</time>
      </trkpt>
      <trkpt lat="47.27991" lon="-1.40727">
        <ele>5.4</ele>
        <time>2020-12-06T07:43:49.236000+00:00</time>
      </trkpt>
      <trkpt lat="0" lon="0">
        <time>2020-12-06T07:43:49.240000+00:00</time>
      </trkpt>
      <trkpt lat="0" lon="0">
        <time>2020-12-06T07:43:49.246000+00:00</time>
      </trkpt>
      <trkpt lat="0" lon="0">
        <time>2020-12-06T07:43:49.248000+00:00</time>
      </trkpt>
      <trkpt lat="47.27986" lon="-1.40732">
        <ele>5</ele>
        <time>2020-12-06T07:43:50.245000+00:00</time>
      </trkpt>
      <trkpt lat="0" lon="0">
        <time>2020-12-06T07:43:50.269000+00:00</time>
      </trkpt>
      <trkpt lat="0" lon="0">
        <time>2020-12-06T07:43:50.279000+00:00</time>
      </trkpt>
      <trkpt lat="0" lon="0">
        <time>2020-12-06T07:43:50.284000+00:00</time>
      </trkpt>
      <trkpt lat="47.2798" lon="-1.40738">
        <ele>5.1</ele>
        <time>2020-12-06T07:43:51.236000+00:00</time>
      </trkpt>
      <trkpt lat="0" lon="0">
        <time>2020-12-06T07:43:51.244000+00:00</time>
      </trkpt>
      <trkpt lat="0" lon="0">
        <time>2020-12-06T07:43:51.246000+00:00</time>
      </trkpt>
      <trkpt lat="0" lon="0">
        <time>2020-12-06T07:43:51.247000+00:00</time>
      </trkpt>
      <trkpt lat="47.27975" lon="-1.40743">
        <ele>5.6</ele>
        <time>2020-12-06T07:43:52.276000+00:00</time>
      </trkpt>
      <trkpt lat="0" lon="0">
        <time>2020-12-06T07:43:52.279000+00:00</time>
      </trkpt>
      <trkpt lat="0" lon="0">
        <time>2020-12-06T07:43:52.301000+00:00</time>
      </trkpt>
      <trkpt lat="0" lon="0">
        <time>2020-12-06T07:43:52.309000+00:00</time>
      </trkpt>
      <trkpt lat="47.2797" lon="-1.40748">
        <ele>6.2</ele>
        <time>2020-12-06T07:43:53.266000+00:00</time>
      </trkpt>
      <trkpt lat="0" lon="0">
        <time>2020-12-06T07:43:53.275000+00:00</time>
      </trkpt>
      <trkpt lat="0" lon="0">
        <time>2020-12-06T07:43:53.281000+00:00</time>
      </trkpt>
      <trkpt lat="0" lon="0">
        <time>2020-12-06T07:43:53.286000+00:00</time>
      </trkpt>
      <trkpt lat="47.27964" lon="-1.40754">
        <ele>1</ele>
        <time>2020-12-06T07:43:54.289000+00:00</time>
      </trkpt>
      <trkpt lat="0" lon="0">
        <time>2020-12-06T07:43:54.310000+00:00</time>
      </trkpt>
      <trkpt lat="0" lon="0">
        <time>2020-12-06T07:43:54.315000+00:00</time>
      </trkpt>
      <trkpt lat="0" lon="0">
        <time>2020-12-06T07:43:54.317000+00:00</time>
      </trkpt>
      <trkpt lat="47.27959" lon="-1.40759">
        <ele>1</ele>
        <time>2020-12-06T07:43:55.249000+00:00</time>
      </trkpt>
      <trkpt lat="0" lon="0">
        <time>2020-12-06T07:43:55.258000+00:00</time>
      </trkpt>
      <trkpt lat="0" lon="0">
        <time>2020-12-06T07:43:55.266000+00:00</time>
      </trkpt>
      <trkpt lat="0" lon="0">
        <time>2020-12-06T07:43:55.269000+00:00</time>
      </trkpt>
      <trkpt lat="47.27953" lon="-1.40764">
        <ele>1</ele>
        <time>2020-12-06T07:43:56.256000+00:00</time>
      </trkpt>
      <trkpt lat="0" lon="0">
        <time>2020-12-06T07:43:56.270000+00:00</time>
      </trkpt>
      <trkpt lat="0" lon="0">
        <time>2020-12-06T07:43:56.275000+00:00</time>
      </trkpt>
      <trkpt lat="0" lon="0">
        <time>2020-12-06T07:43:56.278000+00:00</time>
      </trkpt>
      <trkpt lat="47.27948" lon="-1.40769">
        <ele>1</ele>
        <time>2020-12-06T07:43:57.258000+00:00</time>
      </trkpt>
      <trkpt lat="0" lon="0">
        <time>2020-12-06T07:43:57.260000+00:00</time>
      </trkpt>
      <trkpt lat="0" lon="0">
        <time>2020-12-06T07:43:57.262000+00:00</time>
      </trkpt>
      <trkpt lat="0" lon="0">
        <time>2020-12-06T07:43:57.263000+00:00</time>
      </trkpt>
      <trkpt lat="47.27942" lon="-1.40774">
        <ele>2</ele>
        <time>2020-12-06T07:43:58.268000+00:00</time>
      </trkpt>
      <trkpt lat="0" lon="0">
        <time>2020-12-06T07:43:58.274000+00:00</time>
      </trkpt>
      <trkpt lat="0" lon="0">
        <time>2020-12-06T07:43:58.278000+00:00</time>
      </trkpt>
      <trkpt lat="0" lon="0">
        <time>2020-12-06T07:43:58.281000+00:00</time>
      </trkpt>
      <trkpt lat="47.27937" lon="-1.4078">
        <ele>2</ele>
        <time>2020-12-06T07:43:59.257000+00:00</time>
      </trkpt>
      <trkpt lat="0" lon="0">
        <time>2020-12-06T07:43:59.260000+00:00</time>
      </trkpt>
      <trkpt lat="0" lon="0">
        <time>2020-12-06T07:43:59.263000+00:00</time>
      </trkpt>
      <trkpt lat="0" lon="0">
        <time>2020-12-06T07:43:59.273000+00:00</time>
      </trkpt>
      <trkpt lat="47.27931" lon="-1.40785">
        <ele>2</ele>
        <time>2020-12-06T07:44:00.293000+00:00</time>
      </trkpt>
      <trkpt lat="0" lon="0">
        <time>2020-12-06T07:44:00.307000+00:00</time>
      </trkpt>
      <trkpt lat="0" lon="0">
        <time>2020-12-06T07:44:00.311000+00:00</time>
      </trkpt>
      <trkpt lat="0" lon="0">
        <time>2020-12-06T07:44:00.313000+00:00</time>
      </trkpt>
      <trkpt lat="47.27926" lon="-1.4079">
        <ele>2</ele>
        <time>2020-12-06T07:44:01.260000+00:00</time>
      </trkpt>
      <trkpt lat="0" lon="0">
        <time>2020-12-06T07:44:01.275000+00:00</time>
      </trkpt>
      <trkpt lat="0" lon="0">
        <time>2020-12-06T07:44:01.281000+00:00</time>
      </trkpt>
      <trkpt lat="0" lon="0">
        <time>2020-12-06T07:44:01.284000+00:00</time>
      </trkpt>
      <trkpt lat="47.2792" lon="-1.40795">
        <ele>2</ele>
        <time>2020-12-06T07:44:02.286000+00:00</time>
      </trkpt>
      <trkpt lat="0" lon="0">
        <time>2020-12-06T07:44:02.306000+00:00</time>
      </trkpt>
      <trkpt lat="0" lon="0">
        <time>2020-12-06T07:44:02.311000+00:00</time>
      </trkpt>
      <trkpt lat="0" lon="0">
        <time>2020-12-06T07:44:02.316000+00:00</time>
      </trkpt>
      <trkpt lat="47.27914" lon="-1.408">
        <ele>2</ele>
        <time>2020-12-06T07:44:03.264000+00:00</time>
      </trkpt>
      <trkpt lat="0" lon="0">
        <time>2020-12-06T07:44:03.266000+00:00</time>
      </trkpt>
      <trkpt lat="0" lon="0">
        <time>2020-12-06T07:44:03.275000+00:00</time>
      </trkpt>
      <trkpt lat="0" lon="0">
        <time>2020-12-06T07:44:03.276000+00:00</time>
      </trkpt>
      <trkpt lat="47.27909" lon="-1.40805">
        <ele>2</ele>
        <time>2020-12-06T07:44:04.244000+00:00</time>
      </trkpt>
      <trkpt lat="0" lon="0">
        <time>2020-12-06T07:44:04.265000+00:00</time>
      </trkpt>
      <trkpt lat="0" lon="0">
        <time>2020-12-06T07:44:04.272000+00:00</time>
      </trkpt>
      <trkpt lat="0" lon="0">
        <time>2020-12-06T07:44:04.275000+00:00</time>
      </trkpt>
      <trkpt lat="47.27903" lon="-1.40811">
        <ele>2</ele>
        <time>2020-12-06T07:44:05.266000+00:00</time>
      </trkpt>
      <trkpt lat="0" lon="0">
        <time>2020-12-06T07:44:05.277000+00:00</time>
      </trkpt>
      <trkpt lat="0" lon="0">
        <time>2020-12-06T07:44:05.289000+00:00</time>
      </trkpt>
      <trkpt lat="0" lon="0">
        <time>2020-12-06T07:44:05.296000+00:00</time>
      </trkpt>
      <trkpt lat="47.27898" lon="-1.40816">
        <ele>2</ele>
        <time>2020-12-06T07:44:06.269000+00:00</time>
      </trkpt>
      <trkpt lat="0" lon="0">
        <time>2020-12-06T07:44:06.274000+00:00</time>
      </trkpt>
      <trkpt lat="0" lon="0">
        <time>2020-12-06T07:44:06.278000+00:00</time>
      </trkpt>
      <trkpt lat="0" lon="0">
        <time>2020-12-06T07:44:06.285000+00:00</time>
      </trkpt>
      <trkpt lat="47.27893" lon="-1.40822">
        <ele>2</ele>
        <time>2020-12-06T07:44:07.262000+00:00</time>
      </trkpt>
      <trkpt lat="0" lon="0">
        <time>2020-12-06T07:44:07.277000+00:00</time>
      </trkpt>
      <trkpt lat="0" lon="0">
        <time>2020-12-06T07:44:07.284000+00:00</time>
      </trkpt>
      <trkpt lat="0" lon="0">
        <time>2020-12-06T07:44:07.289000+00:00</time>
      </trkpt>
      <trkpt lat="47.27887" lon="-1.40827">
        <ele>2</ele>
        <time>2020-12-06T07:44:08.236000+00:00</time>
      </trkpt>
      <trkpt lat="0" lon="0">
        <time>2020-12-06T07:44:08.249000+00:00</time>
      </trkpt>
      <trkpt lat="0" lon="0">
        <time>2020-12-06T07:44:08.257000+00:00</time>
      </trkpt>
      <trkpt lat="0" lon="0">
        <time>2020-12-06T07:44:08.258000+00:00</time>
      </trkpt>
      <trkpt lat="47.27882" lon="-1.40833">
        <ele>2</ele>
        <time>2020-12-06T07:44:09.253000+00:00</time>
      </trkpt>
      <trkpt lat="0" lon="0">
        <time>2020-12-06T07:44:09.257000+00:00</time>
      </trkpt>
      <trkpt lat="0" lon="0">
        <time>2020-12-06T07:44:09.261000+00:00</time>
      </trkpt>
      <trkpt lat="0" lon="0">
        <time>2020-12-06T07:44:09.263000+00:00</time>
      </trkpt>
      <trkpt lat="47.27877" lon="-1.4084">
        <ele>2</ele>
        <time>2020-12-06T07:44:10.249000+00:00</time>
      </trkpt>
      <trkpt lat="0" lon="0">
        <time>2020-12-06T07:44:10.254000+00:00</time>
      </trkpt>
      <trkpt lat="0" lon="0">
        <time>2020-12-06T07:44:10.259000+00:00</time>
      </trkpt>
      <trkpt lat="0" lon="0">
        <time>2020-12-06T07:44:10.263000+00:00</time>
      </trkpt>
      <trkpt lat="47.27873" lon="-1.40846">
        <ele>2</ele>
        <time>2020-12-06T07:44:11.247000+00:00</time>
      </trkpt>
      <trkpt lat="0" lon="0">
        <time>2020-12-06T07:44:11.258000+00:00</time>
      </trkpt>
      <trkpt lat="0" lon="0">
        <time>2020-12-06T07:44:11.260000+00:00</time>
      </trkpt>
      <trkpt lat="0" lon="0">
        <time>2020-12-06T07:44:11.261000+00:00</time>
      </trkpt>
      <trkpt lat="47.27868" lon="-1.40853">
        <ele>2</ele>
        <time>2020-12-06T07:44:12.223000+00:00</time>
      </trkpt>
      <trkpt lat="0" lon="0">
        <time>2020-12-06T07:44:12.232000+00:00</time>
      </trkpt>
      <trkpt lat="0" lon="0">
        <time>2020-12-06T07:44:12.236000+00:00</time>
      </trkpt>
      <trkpt lat="0" lon="0">
        <time>2020-12-06T07:44:12.237000+00:00</time>
      </trkpt>
      <trkpt lat="47.27864" lon="-1.40861">
        <ele>2</ele>
        <time>2020-12-06T07:44:13.222000+00:00</time>
      </trkpt>
      <trkpt lat="0" lon="0">
        <time>2020-12-06T07:44:13.227000+00:00</time>
      </trkpt>
      <trkpt lat="0" lon="0">
        <time>2020-12-06T07:44:13.231000+00:00</time>
      </trkpt>
      <trkpt lat="0" lon="0">
        <time>2020-12-06T07:44:13.233000+00:00</time>
      </trkpt>
      <trkpt lat="47.27861" lon="-1.40868">
        <ele>2</ele>
        <time>2020-12-06T07:44:14.254000+00:00</time>
      </trkpt>
      <trkpt lat="0" lon="0">
        <time>2020-12-06T07:44:14.259000+00:00</time>
      </trkpt>
      <trkpt lat="0" lon="0">
        <time>2020-12-06T07:44:14.269000+00:00</time>
      </trkpt>
      <trkpt lat="0" lon="0">
        <time>2020-12-06T07:44:14.271000+00:00</time>
      </trkpt>
      <trkpt lat="47.27857" lon="-1.40876">
        <ele>2</ele>
        <time>2020-12-06T07:44:15.244000+00:00</time>
      </trkpt>
      <trkpt lat="0" lon="0">
        <time>2020-12-06T07:44:15.246000+00:00</time>
      </trkpt>
      <trkpt lat="0" lon="0">
        <time>2020-12-06T07:44:15.247000+00:00</time>
      </trkpt>
      <trkpt lat="0" lon="0">
        <time>2020-12-06T07:44:15.249000+00:00</time>
      </trkpt>
      <trkpt lat="47.27853" lon="-1.40884">
        <ele>2</ele>
        <time>2020-12-06T07:44:16.260000+00:00</time>
      </trkpt>
      <trkpt lat="0" lon="0">
        <time>2020-12-06T07:44:16.266000+00:00</time>
      </trkpt>
      <trkpt lat="0" lon="0">
        <time>2020-12-06T07:44:16.271000+00:00</time>
      </trkpt>
      <trkpt lat="0" lon="0">
        <time>2020-12-06T07:44:16.273000+00:00</time>
      </trkpt>
      <trkpt lat="47.2785" lon="-1.40892">
        <ele>2</ele>
        <time>2020-12-06T07:44:17.261000+00:00</time>
      </trkpt>
      <trkpt lat="0" lon="0">
        <time>2020-12-06T07:44:17.263000+00:00</time>
      </trkpt>
      <trkpt lat="0" lon="0">
        <time>2020-12-06T07:44:17.265000+00:00</time>
      </trkpt>
      <trkpt lat="0" lon="0">
        <time>2020-12-06T07:44:17.267000+00:00</time>
      </trkpt>
      <trkpt lat="47.27847" lon="-1.409">
        <ele>2</ele>
        <time>2020-12-06T07:44:18.259000+00:00</time>
      </trkpt>
      <trkpt lat="0" lon="0">
        <time>2020-12-06T07:44:18.269000+00:00</time>
      </trkpt>
      <trkpt lat="0" lon="0">
        <time>2020-12-06T07:44:18.274000+00:00</time>
      </trkpt>
      <trkpt lat="0" lon="0">
        <time>2020-12-06T07:44:18.276000+00:00</time>
      </trkpt>
      <trkpt lat="47.27844" lon="-1.40908">
        <ele>2</ele>
        <time>2020-12-06T07:44:19.278000+00:00</time>
      </trkpt>
      <trkpt lat="0" lon="0">
        <time>2020-12-06T07:44:19.282000+00:00</time>
      </trkpt>
      <trkpt lat="0" lon="0">
        <time>2020-12-06T07:44:19.292000+00:00</time>
      </trkpt>
      <trkpt lat="0" lon="0">
        <time>2020-12-06T07:44:19.294000+00:00</time>
      </trkpt>
      <trkpt lat="47.2784" lon="-1.40916">
        <ele>2</ele>
        <time>2020-12-06T07:44:20.244000+00:00</time>
      </trkpt>
      <trkpt lat="0" lon="0">
        <time>2020-12-06T07:44:20.264000+00:00</time>
      </trkpt>
      <trkpt lat="0" lon="0">
        <time>2020-12-06T07:44:20.268000+00:00</time>
      </trkpt>
      <trkpt lat="0" lon="0">
        <time>2020-12-06T07:44:20.273000+00:00</time>
      </trkpt>
      <trkpt lat="47.27837" lon="-1.40924">
        <ele>2</ele>
        <time>2020-12-06T07:44:21.270000+00:00</time>
      </trkpt>
      <trkpt lat="0" lon="0">
        <time>2020-12-06T07:44:21.273000+00:00</time>
      </trkpt>
      <trkpt lat="0" lon="0">
        <time>2020-12-06T07:44:21.275000+00:00</time>
      </trkpt>
      <trkpt lat="0" lon="0">
        <time>2020-12-06T07:44:21.276000+00:00</time>
      </trkpt>
      <trkpt lat="47.27834" lon="-1.40932">
        <ele>2</ele>
        <time>2020-12-06T07:44:22.242000+00:00</time>
      </trkpt>
      <trkpt lat="0" lon="0">
        <time>2020-12-06T07:44:22.247000+00:00</time>
      </trkpt>
      <trkpt lat="0" lon="0">
        <time>2020-12-06T07:44:22.253000+00:00</time>
      </trkpt>
      <trkpt lat="0" lon="0">
        <time>2020-12-06T07:44:22.254000+00:00</time>
      </trkpt>
      <trkpt lat="47.2783" lon="-1.4094">
        <ele>3</ele>
        <time>2020-12-06T07:44:23.249000+00:00</time>
      </trkpt>
      <trkpt lat="0" lon="0">
        <time>2020-12-06T07:44:23.262000+00:00</time>
      </trkpt>
      <trkpt lat="0" lon="0">
        <time>2020-12-06T07:44:23.271000+00:00</time>
      </trkpt>
      <trkpt lat="0" lon="0">
        <time>2020-12-06T07:44:23.276000+00:00</time>
      </trkpt>
      <trkpt lat="47.27827" lon="-1.40948">
        <ele>3</ele>
        <time>2020-12-06T07:44:24.257000+00:00</time>
      </trkpt>
      <trkpt lat="0" lon="0">
        <time>2020-12-06T07:44:24.271000+00:00</time>
      </trkpt>
      <trkpt lat="0" lon="0">
        <time>2020-12-06T07:44:24.274000+00:00</time>
      </trkpt>
      <trkpt lat="0" lon="0">
        <time>2020-12-06T07:44:24.276000+00:00</time>
      </trkpt>
      <trkpt lat="47.27823" lon="-1.40956">
        <ele>3</ele>
        <time>2020-12-06T07:44:25.264000+00:00</time>
      </trkpt>
      <trkpt lat="0" lon="0">
        <time>2020-12-06T07:44:25.269000+00:00</time>
      </trkpt>
      <trkpt lat="0" lon="0">
        <time>2020-12-06T07:44:25.273000+00:00</time>
      </trkpt>
      <trkpt lat="0" lon="0">
        <time>2020-12-06T07:44:25.276000+00:00</time>
      </trkpt>
      <trkpt lat="47.27819" lon="-1.40964">
        <ele>3</ele>
        <time>2020-12-06T07:44:26.266000+00:00</time>
      </trkpt>
      <trkpt lat="0" lon="0">
        <time>2020-12-06T07:44:26.286000+00:00</time>
      </trkpt>
      <trkpt lat="0" lon="0">
        <time>2020-12-06T07:44:26.290000+00:00</time>
      </trkpt>
      <trkpt lat="0" lon="0">
        <time>2020-12-06T07:44:26.292000+00:00</time>
      </trkpt>
      <trkpt lat="47.27816" lon="-1.40971">
        <ele>3</ele>
        <time>2020-12-06T07:44:27.253000+00:00</time>
      </trkpt>
      <trkpt lat="0" lon="0">
        <time>2020-12-06T07:44:27.255000+00:00</time>
      </trkpt>
      <trkpt lat="0" lon="0">
        <time>2020-12-06T07:44:27.257000+00:00</time>
      </trkpt>
      <trkpt lat="0" lon="0">
        <time>2020-12-06T07:44:27.258000+00:00</time>
      </trkpt>
      <trkpt lat="47.27812" lon="-1.40979">
        <ele>4</ele>
        <time>2020-12-06T07:44:28.266000+00:00</time>
      </trkpt>
      <trkpt lat="0" lon="0">
        <time>2020-12-06T07:44:28.280000+00:00</time>
      </trkpt>
      <trkpt lat="0" lon="0">
        <time>2020-12-06T07:44:28.285000+00:00</time>
      </trkpt>
      <trkpt lat="0" lon="0">
        <time>2020-12-06T07:44:28.287000+00:00</time>
      </trkpt>
      <trkpt lat="47.27808" lon="-1.40986">
        <ele>4</ele>
        <time>2020-12-06T07:44:29.281000+00:00</time>
      </trkpt>
      <trkpt lat="0" lon="0">
        <time>2020-12-06T07:44:29.290000+00:00</time>
      </trkpt>
      <trkpt lat="0" lon="0">
        <time>2020-12-06T07:44:29.294000+00:00</time>
      </trkpt>
      <trkpt lat="0" lon="0">
        <time>2020-12-06T07:44:29.299000+00:00</time>
      </trkpt>
      <trkpt lat="47.27804" lon="-1.40994">
        <ele>4</ele>
        <time>2020-12-06T07:44:30.255000+00:00</time>
      </trkpt>
      <trkpt lat="0" lon="0">
        <time>2020-12-06T07:44:30.262000+00:00</time>
      </trkpt>
      <trkpt lat="0" lon="0">
        <time>2020-12-06T07:44:30.269000+00:00</time>
      </trkpt>
      <trkpt lat="0" lon="0">
        <time>2020-12-06T07:44:30.271000+00:00</time>
      </trkpt>
      <trkpt lat="47.27799" lon="-1.41001">
        <ele>3</ele>
        <time>2020-12-06T07:44:31.269000+00:00</time>
      </trkpt>
      <trkpt lat="0" lon="0">
        <time>2020-12-06T07:44:31.280000+00:00</time>
      </trkpt>
      <trkpt lat="0" lon="0">
        <time>2020-12-06T07:44:31.283000+00:00</time>
      </trkpt>
      <trkpt lat="0" lon="0">
        <time>2020-12-06T07:44:31.286000+00:00</time>
      </trkpt>
      <trkpt lat="47.27795" lon="-1.41008">
        <ele>3</ele>
        <time>2020-12-06T07:44:32.240000+00:00</time>
      </trkpt>
      <trkpt lat="0" lon="0">
        <time>2020-12-06T07:44:32.249000+00:00</time>
      </trkpt>
      <trkpt lat="0" lon="0">
        <time>2020-12-06T07:44:32.253000+00:00</time>
      </trkpt>
      <trkpt lat="0" lon="0">
        <time>2020-12-06T07:44:32.254000+00:00</time>
      </trkpt>
      <trkpt lat="47.27791" lon="-1.41014">
        <ele>3</ele>
        <time>2020-12-06T07:44:33.232000+00:00</time>
      </trkpt>
      <trkpt lat="0" lon="0">
        <time>2020-12-06T07:44:33.236000+00:00</time>
      </trkpt>
      <trkpt lat="0" lon="0">
        <time>2020-12-06T07:44:33.244000+00:00</time>
      </trkpt>
      <trkpt lat="0" lon="0">
        <time>2020-12-06T07:44:33.246000+00:00</time>
      </trkpt>
      <trkpt lat="47.27786" lon="-1.41021">
        <ele>3</ele>
        <time>2020-12-06T07:44:34.262000+00:00</time>
      </trkpt>
      <trkpt lat="0" lon="0">
        <time>2020-12-06T07:44:34.271000+00:00</time>
      </trkpt>
      <trkpt lat="0" lon="0">
        <time>2020-12-06T07:44:34.275000+00:00</time>
      </trkpt>
      <trkpt lat="0" lon="0">
        <time>2020-12-06T07:44:34.277000+00:00</time>
      </trkpt>
      <trkpt lat="47.27782" lon="-1.41028">
        <ele>2</ele>
        <time>2020-12-06T07:44:35.250000+00:00</time>
      </trkpt>
      <trkpt lat="0" lon="0">
        <time>2020-12-06T07:44:35.264000+00:00</time>
      </trkpt>
      <trkpt lat="0" lon="0">
        <time>2020-12-06T07:44:35.271000+00:00</time>
      </trkpt>
      <trkpt lat="0" lon="0">
        <time>2020-12-06T07:44:35.273000+00:00</time>
      </trkpt>
      <trkpt lat="47.27777" lon="-1.41034">
        <ele>2</ele>
        <time>2020-12-06T07:44:36.274000+00:00</time>
      </trkpt>
      <trkpt lat="0" lon="0">
        <time>2020-12-06T07:44:36.282000+00:00</time>
      </trkpt>
      <trkpt lat="0" lon="0">
        <time>2020-12-06T07:44:36.285000+00:00</time>
      </trkpt>
      <trkpt lat="0" lon="0">
        <time>2020-12-06T07:44:36.287000+00:00</time>
      </trkpt>
      <trkpt lat="47.27773" lon="-1.41041">
        <ele>2</ele>
        <time>2020-12-06T07:44:37.248000+00:00</time>
      </trkpt>
      <trkpt lat="0" lon="0">
        <time>2020-12-06T07:44:37.252000+00:00</time>
      </trkpt>
      <trkpt lat="0" lon="0">
        <time>2020-12-06T07:44:37.268000+00:00</time>
      </trkpt>
      <trkpt lat="0" lon="0">
        <time>2020-12-06T07:44:37.272000+00:00</time>
      </trkpt>
      <trkpt lat="47.27769" lon="-1.41048">
        <ele>2</ele>
        <time>2020-12-06T07:44:38.251000+00:00</time>
      </trkpt>
      <trkpt lat="0" lon="0">
        <time>2020-12-06T07:44:38.269000+00:00</time>
      </trkpt>
      <trkpt lat="0" lon="0">
        <time>2020-12-06T07:44:38.273000+00:00</time>
      </trkpt>
      <trkpt lat="0" lon="0">
        <time>2020-12-06T07:44:38.277000+00:00</time>
      </trkpt>
      <trkpt lat="47.27766" lon="-1.41056">
        <ele>1</ele>
        <time>2020-12-06T07:44:39.271000+00:00</time>
      </trkpt>
      <trkpt lat="0" lon="0">
        <time>2020-12-06T07:44:39.287000+00:00</time>
      </trkpt>
      <trkpt lat="0" lon="0">
        <time>2020-12-06T07:44:39.291000+00:00</time>
      </trkpt>
      <trkpt lat="0" lon="0">
        <time>2020-12-06T07:44:39.294000+00:00</time>
      </trkpt>
      <trkpt lat="47.27763" lon="-1.41063">
        <ele>1</ele>
        <time>2020-12-06T07:44:40.237000+00:00</time>
      </trkpt>
      <trkpt lat="0" lon="0">
        <time>2020-12-06T07:44:40.252000+00:00</time>
      </trkpt>
      <trkpt lat="0" lon="0">
        <time>2020-12-06T07:44:40.259000+00:00</time>
      </trkpt>
      <trkpt lat="0" lon="0">
        <time>2020-12-06T07:44:40.261000+00:00</time>
      </trkpt>
      <trkpt lat="47.27759" lon="-1.4107">
        <ele>1</ele>
        <time>2020-12-06T07:44:41.236000+00:00</time>
      </trkpt>
      <trkpt lat="0" lon="0">
        <time>2020-12-06T07:44:41.248000+00:00</time>
      </trkpt>
      <trkpt lat="0" lon="0">
        <time>2020-12-06T07:44:41.251000+00:00</time>
      </trkpt>
      <trkpt lat="0" lon="0">
        <time>2020-12-06T07:44:41.252000+00:00</time>
      </trkpt>
      <trkpt lat="47.27756" lon="-1.41077">
        <ele>1</ele>
        <time>2020-12-06T07:44:42.275000+00:00</time>
      </trkpt>
      <trkpt lat="0" lon="0">
        <time>2020-12-06T07:44:42.281000+00:00</time>
      </trkpt>
      <trkpt lat="0" lon="0">
        <time>2020-12-06T07:44:42.287000+00:00</time>
      </trkpt>
      <trkpt lat="0" lon="0">
        <time>2020-12-06T07:44:42.293000+00:00</time>
      </trkpt>
      <trkpt lat="47.27752" lon="-1.41084">
        <ele>1</ele>
        <time>2020-12-06T07:44:43.263000+00:00</time>
      </trkpt>
      <trkpt lat="0" lon="0">
        <time>2020-12-06T07:44:43.271000+00:00</time>
      </trkpt>
      <trkpt lat="0" lon="0">
        <time>2020-12-06T07:44:43.277000+00:00</time>
      </trkpt>
      <trkpt lat="0" lon="0">
        <time>2020-12-06T07:44:43.280000+00:00</time>
      </trkpt>
      <trkpt lat="47.27748" lon="-1.41091">
        <ele>1</ele>
        <time>2020-12-06T07:44:44.263000+00:00</time>
      </trkpt>
      <trkpt lat="0" lon="0">
        <time>2020-12-06T07:44:44.283000+00:00</time>
      </trkpt>
      <trkpt lat="0" lon="0">
        <time>2020-12-06T07:44:44.288000+00:00</time>
      </trkpt>
      <trkpt lat="0" lon="0">
        <time>2020-12-06T07:44:44.290000+00:00</time>
      </trkpt>
      <trkpt lat="47.27743" lon="-1.41098">
        <ele>1</ele>
        <time>2020-12-06T07:44:45.221000+00:00</time>
      </trkpt>
      <trkpt lat="0" lon="0">
        <time>2020-12-06T07:44:45.225000+00:00</time>
      </trkpt>
      <trkpt lat="0" lon="0">
        <time>2020-12-06T07:44:45.228000+00:00</time>
      </trkpt>
      <trkpt lat="0" lon="0">
        <time>2020-12-06T07:44:45.234000+00:00</time>
      </trkpt>
      <trkpt lat="47.27738" lon="-1.41104">
        <ele>1</ele>
        <time>2020-12-06T07:44:46.270000+00:00</time>
      </trkpt>
      <trkpt lat="0" lon="0">
        <time>2020-12-06T07:44:46.283000+00:00</time>
      </trkpt>
      <trkpt lat="0" lon="0">
        <time>2020-12-06T07:44:46.286000+00:00</time>
      </trkpt>
      <trkpt lat="0" lon="0">
        <time>2020-12-06T07:44:46.292000+00:00</time>
      </trkpt>
      <trkpt lat="47.27733" lon="-1.41109">
        <ele>1</ele>
        <time>2020-12-06T07:44:47.269000+00:00</time>
      </trkpt>
      <trkpt lat="0" lon="0">
        <time>2020-12-06T07:44:47.283000+00:00</time>
      </trkpt>
      <trkpt lat="0" lon="0">
        <time>2020-12-06T07:44:47.292000+00:00</time>
      </trkpt>
      <trkpt lat="0" lon="0">
        <time>2020-12-06T07:44:47.294000+00:00</time>
      </trkpt>
      <trkpt lat="47.27728" lon="-1.41115">
        <ele>1</ele>
        <time>2020-12-06T07:44:48.259000+00:00</time>
      </trkpt>
      <trkpt lat="0" lon="0">
        <time>2020-12-06T07:44:48.278000+00:00</time>
      </trkpt>
      <trkpt lat="0" lon="0">
        <time>2020-12-06T07:44:48.285000+00:00</time>
      </trkpt>
      <trkpt lat="0" lon="0">
        <time>2020-12-06T07:44:48.287000+00:00</time>
      </trkpt>
      <trkpt lat="47.27722" lon="-1.41121">
        <ele>1</ele>
        <time>2020-12-06T07:44:49.232000+00:00</time>
      </trkpt>
      <trkpt lat="0" lon="0">
        <time>2020-12-06T07:44:49.249000+00:00</time>
      </trkpt>
      <trkpt lat="0" lon="0">
        <time>2020-12-06T07:44:49.253000+00:00</time>
      </trkpt>
      <trkpt lat="0" lon="0">
        <time>2020-12-06T07:44:49.256000+00:00</time>
      </trkpt>
      <trkpt lat="47.27717" lon="-1.41126">
        <ele>1</ele>
        <time>2020-12-06T07:44:50.246000+00:00</time>
      </trkpt>
      <trkpt lat="0" lon="0">
        <time>2020-12-06T07:44:50.262000+00:00</time>
      </trkpt>
      <trkpt lat="0" lon="0">
        <time>2020-12-06T07:44:50.268000+00:00</time>
      </trkpt>
      <trkpt lat="0" lon="0">
        <time>2020-12-06T07:44:50.273000+00:00</time>
      </trkpt>
      <trkpt lat="47.27711" lon="-1.41132">
        <ele>1</ele>
        <time>2020-12-06T07:44:51.227000+00:00</time>
      </trkpt>
      <trkpt lat="0" lon="0">
        <time>2020-12-06T07:44:51.241000+00:00</time>
      </trkpt>
      <trkpt lat="0" lon="0">
        <time>2020-12-06T07:44:51.247000+00:00</time>
      </trkpt>
      <trkpt lat="0" lon="0">
        <time>2020-12-06T07:44:51.251000+00:00</time>
      </trkpt>
      <trkpt lat="47.27706" lon="-1.41138">
        <ele>1</ele>
        <time>2020-12-06T07:44:52.257000+00:00</time>
      </trkpt>
      <trkpt lat="0" lon="0">
        <time>2020-12-06T07:44:52.269000+00:00</time>
      </trkpt>
      <trkpt lat="0" lon="0">
        <time>2020-12-06T07:44:52.275000+00:00</time>
      </trkpt>
      <trkpt lat="0" lon="0">
        <time>2020-12-06T07:44:52.277000+00:00</time>
      </trkpt>
      <trkpt lat="47.277" lon="-1.41143">
        <ele>1</ele>
        <time>2020-12-06T07:44:53.267000+00:00</time>
      </trkpt>
      <trkpt lat="0" lon="0">
        <time>2020-12-06T07:44:53.280000+00:00</time>
      </trkpt>
      <trkpt lat="0" lon="0">
        <time>2020-12-06T07:44:53.287000+00:00</time>
      </trkpt>
      <trkpt lat="0" lon="0">
        <time>2020-12-06T07:44:53.289000+00:00</time>
      </trkpt>
      <trkpt lat="47.27695" lon="-1.41148">
        <ele>1</ele>
        <time>2020-12-06T07:44:54.264000+00:00</time>
      </trkpt>
      <trkpt lat="0" lon="0">
        <time>2020-12-06T07:44:54.280000+00:00</time>
      </trkpt>
      <trkpt lat="0" lon="0">
        <time>2020-12-06T07:44:54.283000+00:00</time>
      </trkpt>
      <trkpt lat="0" lon="0">
        <time>2020-12-06T07:44:54.285000+00:00</time>
      </trkpt>
      <trkpt lat="47.27689" lon="-1.41154">
        <ele>1</ele>
        <time>2020-12-06T07:44:55.217000+00:00</time>
      </trkpt>
      <trkpt lat="0" lon="0">
        <time>2020-12-06T07:44:55.220000+00:00</time>
      </trkpt>
      <trkpt lat="0" lon="0">
        <time>2020-12-06T07:44:55.228000+00:00</time>
      </trkpt>
      <trkpt lat="0" lon="0">
        <time>2020-12-06T07:44:55.242000+00:00</time>
      </trkpt>
      <trkpt lat="47.27684" lon="-1.41159">
        <ele>1</ele>
        <time>2020-12-06T07:44:56.271000+00:00</time>
      </trkpt>
      <trkpt lat="0" lon="0">
        <time>2020-12-06T07:44:56.280000+00:00</time>
      </trkpt>
      <trkpt lat="0" lon="0">
        <time>2020-12-06T07:44:56.285000+00:00</time>
      </trkpt>
      <trkpt lat="0" lon="0">
        <time>2020-12-06T07:44:56.287000+00:00</time>
      </trkpt>
      <trkpt lat="47.27679" lon="-1.41165">
        <ele>1</ele>
        <time>2020-12-06T07:44:57.265000+00:00</time>
      </trkpt>
      <trkpt lat="0" lon="0">
        <time>2020-12-06T07:44:57.274000+00:00</time>
      </trkpt>
      <trkpt lat="0" lon="0">
        <time>2020-12-06T07:44:57.280000+00:00</time>
      </trkpt>
      <trkpt lat="0" lon="0">
        <time>2020-12-06T07:44:57.285000+00:00</time>
      </trkpt>
      <trkpt lat="47.27674" lon="-1.4117">
        <ele>1</ele>
        <time>2020-12-06T07:44:58.233000+00:00</time>
      </trkpt>
      <trkpt lat="0" lon="0">
        <time>2020-12-06T07:44:58.235000+00:00</time>
      </trkpt>
      <trkpt lat="0" lon="0">
        <time>2020-12-06T07:44:58.237000+00:00</time>
      </trkpt>
      <trkpt lat="0" lon="0">
        <time>2020-12-06T07:44:58.238000+00:00</time>
      </trkpt>
      <trkpt lat="47.27668" lon="-1.41175">
        <ele>1</ele>
        <time>2020-12-06T07:44:59.240000+00:00</time>
      </trkpt>
      <trkpt lat="0" lon="0">
        <time>2020-12-06T07:44:59.250000+00:00</time>
      </trkpt>
      <trkpt lat="0" lon="0">
        <time>2020-12-06T07:44:59.264000+00:00</time>
      </trkpt>
      <trkpt lat="0" lon="0">
        <time>2020-12-06T07:44:59.266000+00:00</time>
      </trkpt>
      <trkpt lat="47.27663" lon="-1.41181">
        <ele>1</ele>
        <time>2020-12-06T07:45:00.260000+00:00</time>
      </trkpt>
      <trkpt lat="0" lon="0">
        <time>2020-12-06T07:45:00.281000+00:00</time>
      </trkpt>
      <trkpt lat="0" lon="0">
        <time>2020-12-06T07:45:00.284000+00:00</time>
      </trkpt>
      <trkpt lat="0" lon="0">
        <time>2020-12-06T07:45:00.286000+00:00</time>
      </trkpt>
      <trkpt lat="47.27658" lon="-1.41186">
        <ele>1</ele>
        <time>2020-12-06T07:45:01.251000+00:00</time>
      </trkpt>
      <trkpt lat="0" lon="0">
        <time>2020-12-06T07:45:01.270000+00:00</time>
      </trkpt>
      <trkpt lat="0" lon="0">
        <time>2020-12-06T07:45:01.274000+00:00</time>
      </trkpt>
      <trkpt lat="0" lon="0">
        <time>2020-12-06T07:45:01.276000+00:00</time>
      </trkpt>
      <trkpt lat="47.27652" lon="-1.41191">
        <ele>1</ele>
        <time>2020-12-06T07:45:02.272000+00:00</time>
      </trkpt>
      <trkpt lat="0" lon="0">
        <time>2020-12-06T07:45:02.283000+00:00</time>
      </trkpt>
      <trkpt lat="0" lon="0">
        <time>2020-12-06T07:45:02.287000+00:00</time>
      </trkpt>
      <trkpt lat="0" lon="0">
        <time>2020-12-06T07:45:02.289000+00:00</time>
      </trkpt>
      <trkpt lat="47.27647" lon="-1.41197">
        <ele>2</ele>
        <time>2020-12-06T07:45:03.241000+00:00</time>
      </trkpt>
      <trkpt lat="0" lon="0">
        <time>2020-12-06T07:45:03.247000+00:00</time>
      </trkpt>
      <trkpt lat="0" lon="0">
        <time>2020-12-06T07:45:03.255000+00:00</time>
      </trkpt>
      <trkpt lat="0" lon="0">
        <time>2020-12-06T07:45:03.260000+00:00</time>
      </trkpt>
      <trkpt lat="47.27642" lon="-1.41202">
        <ele>2</ele>
        <time>2020-12-06T07:45:04.283000+00:00</time>
      </trkpt>
      <trkpt lat="0" lon="0">
        <time>2020-12-06T07:45:04.297000+00:00</time>
      </trkpt>
      <trkpt lat="0" lon="0">
        <time>2020-12-06T07:45:04.301000+00:00</time>
      </trkpt>
      <trkpt lat="0" lon="0">
        <time>2020-12-06T07:45:04.305000+00:00</time>
      </trkpt>
      <trkpt lat="47.27636" lon="-1.41207">
        <ele>2</ele>
        <time>2020-12-06T07:45:05.259000+00:00</time>
      </trkpt>
      <trkpt lat="0" lon="0">
        <time>2020-12-06T07:45:05.270000+00:00</time>
      </trkpt>
      <trkpt lat="0" lon="0">
        <time>2020-12-06T07:45:05.281000+00:00</time>
      </trkpt>
      <trkpt lat="0" lon="0">
        <time>2020-12-06T07:45:05.282000+00:00</time>
      </trkpt>
      <trkpt lat="47.27631" lon="-1.41213">
        <ele>2</ele>
        <time>2020-12-06T07:45:06.242000+00:00</time>
      </trkpt>
      <trkpt lat="0" lon="0">
        <time>2020-12-06T07:45:06.249000+00:00</time>
      </trkpt>
      <trkpt lat="0" lon="0">
        <time>2020-12-06T07:45:06.253000+00:00</time>
      </trkpt>
      <trkpt lat="0" lon="0">
        <time>2020-12-06T07:45:06.255000+00:00</time>
      </trkpt>
      <trkpt lat="47.27625" lon="-1.41218">
        <ele>2</ele>
        <time>2020-12-06T07:45:07.243000+00:00</time>
      </trkpt>
      <trkpt lat="0" lon="0">
        <time>2020-12-06T07:45:07.249000+00:00</time>
      </trkpt>
      <trkpt lat="0" lon="0">
        <time>2020-12-06T07:45:07.252000+00:00</time>
      </trkpt>
      <trkpt lat="0" lon="0">
        <time>2020-12-06T07:45:07.261000+00:00</time>
      </trkpt>
      <trkpt lat="47.2762" lon="-1.41223">
        <ele>2</ele>
        <time>2020-12-06T07:45:08.245000+00:00</time>
      </trkpt>
      <trkpt lat="0" lon="0">
        <time>2020-12-06T07:45:08.246000+00:00</time>
      </trkpt>
      <trkpt lat="0" lon="0">
        <time>2020-12-06T07:45:08.248000+00:00</time>
      </trkpt>
      <trkpt lat="0" lon="0">
        <time>2020-12-06T07:45:08.249000+00:00</time>
      </trkpt>
      <trkpt lat="47.27614" lon="-1.41229">
        <ele>2</ele>
        <time>2020-12-06T07:45:09.251000+00:00</time>
      </trkpt>
      <trkpt lat="0" lon="0">
        <time>2020-12-06T07:45:09.272000+00:00</time>
      </trkpt>
      <trkpt lat="0" lon="0">
        <time>2020-12-06T07:45:09.277000+00:00</time>
      </trkpt>
      <trkpt lat="0" lon="0">
        <time>2020-12-06T07:45:09.279000+00:00</time>
      </trkpt>
      <trkpt lat="47.27609" lon="-1.41234">
        <ele>1</ele>
        <time>2020-12-06T07:45:10.286000+00:00</time>
      </trkpt>
      <trkpt lat="0" lon="0">
        <time>2020-12-06T07:45:10.289000+00:00</time>
      </trkpt>
      <trkpt lat="0" lon="0">
        <time>2020-12-06T07:45:10.303000+00:00</time>
      </trkpt>
      <trkpt lat="0" lon="0">
        <time>2020-12-06T07:45:10.307000+00:00</time>
      </trkpt>
      <trkpt lat="47.27604" lon="-1.41239">
        <ele>1</ele>
        <time>2020-12-06T07:45:11.299000+00:00</time>
      </trkpt>
      <trkpt lat="0" lon="0">
        <time>2020-12-06T07:45:11.317000+00:00</time>
      </trkpt>
      <trkpt lat="0" lon="0">
        <time>2020-12-06T07:45:11.323000+00:00</time>
      </trkpt>
      <trkpt lat="0" lon="0">
        <time>2020-12-06T07:45:11.325000+00:00</time>
      </trkpt>
      <trkpt lat="47.27598" lon="-1.41244">
        <ele>1</ele>
        <time>2020-12-06T07:45:12.258000+00:00</time>
      </trkpt>
      <trkpt lat="0" lon="0">
        <time>2020-12-06T07:45:12.262000+00:00</time>
      </trkpt>
      <trkpt lat="0" lon="0">
        <time>2020-12-06T07:45:12.266000+00:00</time>
      </trkpt>
      <trkpt lat="0" lon="0">
        <time>2020-12-06T07:45:12.267000+00:00</time>
      </trkpt>
      <trkpt lat="47.27593" lon="-1.4125">
        <ele>1</ele>
        <time>2020-12-06T07:45:13.251000+00:00</time>
      </trkpt>
      <trkpt lat="0" lon="0">
        <time>2020-12-06T07:45:13.266000+00:00</time>
      </trkpt>
      <trkpt lat="0" lon="0">
        <time>2020-12-06T07:45:13.275000+00:00</time>
      </trkpt>
      <trkpt lat="0" lon="0">
        <time>2020-12-06T07:45:13.280000+00:00</time>
      </trkpt>
      <trkpt lat="47.27588" lon="-1.41255">
        <ele>1</ele>
        <time>2020-12-06T07:45:14.260000+00:00</time>
      </trkpt>
      <trkpt lat="0" lon="0">
        <time>2020-12-06T07:45:14.266000+00:00</time>
      </trkpt>
      <trkpt lat="0" lon="0">
        <time>2020-12-06T07:45:14.272000+00:00</time>
      </trkpt>
      <trkpt lat="0" lon="0">
        <time>2020-12-06T07:45:14.285000+00:00</time>
      </trkpt>
      <trkpt lat="47.27583" lon="-1.41261">
        <ele>1</ele>
        <time>2020-12-06T07:45:15.252000+00:00</time>
      </trkpt>
      <trkpt lat="0" lon="0">
        <time>2020-12-06T07:45:15.268000+00:00</time>
      </trkpt>
      <trkpt lat="0" lon="0">
        <time>2020-12-06T07:45:15.270000+00:00</time>
      </trkpt>
      <trkpt lat="0" lon="0">
        <time>2020-12-06T07:45:15.271000+00:00</time>
      </trkpt>
      <trkpt lat="47.27578" lon="-1.41266">
        <ele>1</ele>
        <time>2020-12-06T07:45:16.259000+00:00</time>
      </trkpt>
      <trkpt lat="0" lon="0">
        <time>2020-12-06T07:45:16.269000+00:00</time>
      </trkpt>
      <trkpt lat="0" lon="0">
        <time>2020-12-06T07:45:16.274000+00:00</time>
      </trkpt>
      <trkpt lat="0" lon="0">
        <time>2020-12-06T07:45:16.276000+00:00</time>
      </trkpt>
      <trkpt lat="47.27573" lon="-1.41272">
        <ele>1</ele>
        <time>2020-12-06T07:45:17.263000+00:00</time>
      </trkpt>
      <trkpt lat="0" lon="0">
        <time>2020-12-06T07:45:17.267000+00:00</time>
      </trkpt>
      <trkpt lat="0" lon="0">
        <time>2020-12-06T07:45:17.272000+00:00</time>
      </trkpt>
      <trkpt lat="0" lon="0">
        <time>2020-12-06T07:45:17.279000+00:00</time>
      </trkpt>
      <trkpt lat="47.27568" lon="-1.41277">
        <ele>1</ele>
        <time>2020-12-06T07:45:18.236000+00:00</time>
      </trkpt>
      <trkpt lat="0" lon="0">
        <time>2020-12-06T07:45:18.243000+00:00</time>
      </trkpt>
      <trkpt lat="0" lon="0">
        <time>2020-12-06T07:45:18.256000+00:00</time>
      </trkpt>
      <trkpt lat="0" lon="0">
        <time>2020-12-06T07:45:18.259000+00:00</time>
      </trkpt>
      <trkpt lat="47.27563" lon="-1.41283">
        <ele>1</ele>
        <time>2020-12-06T07:45:19.243000+00:00</time>
      </trkpt>
      <trkpt lat="0" lon="0">
        <time>2020-12-06T07:45:19.256000+00:00</time>
      </trkpt>
      <trkpt lat="0" lon="0">
        <time>2020-12-06T07:45:19.260000+00:00</time>
      </trkpt>
      <trkpt lat="0" lon="0">
        <time>2020-12-06T07:45:19.262000+00:00</time>
      </trkpt>
      <trkpt lat="47.27558" lon="-1.41289">
        <ele>1</ele>
        <time>2020-12-06T07:45:20.251000+00:00</time>
      </trkpt>
      <trkpt lat="0" lon="0">
        <time>2020-12-06T07:45:20.256000+00:00</time>
      </trkpt>
      <trkpt lat="0" lon="0">
        <time>2020-12-06T07:45:20.261000+00:00</time>
      </trkpt>
      <trkpt lat="0" lon="0">
        <time>2020-12-06T07:45:20.262000+00:00</time>
      </trkpt>
      <trkpt lat="47.27554" lon="-1.41295">
        <ele>2</ele>
        <time>2020-12-06T07:45:21.266000+00:00</time>
      </trkpt>
      <trkpt lat="0" lon="0">
        <time>2020-12-06T07:45:21.271000+00:00</time>
      </trkpt>
      <trkpt lat="0" lon="0">
        <time>2020-12-06T07:45:21.285000+00:00</time>
      </trkpt>
      <trkpt lat="0" lon="0">
        <time>2020-12-06T07:45:21.286000+00:00</time>
      </trkpt>
      <trkpt lat="47.27549" lon="-1.41302">
        <ele>2</ele>
        <time>2020-12-06T07:45:22.254000+00:00</time>
      </trkpt>
      <trkpt lat="0" lon="0">
        <time>2020-12-06T07:45:22.270000+00:00</time>
      </trkpt>
      <trkpt lat="0" lon="0">
        <time>2020-12-06T07:45:22.277000+00:00</time>
      </trkpt>
      <trkpt lat="0" lon="0">
        <time>2020-12-06T07:45:22.282000+00:00</time>
      </trkpt>
      <trkpt lat="47.27544" lon="-1.41308">
        <ele>2</ele>
        <time>2020-12-06T07:45:23.262000+00:00</time>
      </trkpt>
      <trkpt lat="0" lon="0">
        <time>2020-12-06T07:45:23.266000+00:00</time>
      </trkpt>
      <trkpt lat="0" lon="0">
        <time>2020-12-06T07:45:23.271000+00:00</time>
      </trkpt>
      <trkpt lat="0" lon="0">
        <time>2020-12-06T07:45:23.273000+00:00</time>
      </trkpt>
      <trkpt lat="47.27539" lon="-1.41314">
        <ele>2</ele>
        <time>2020-12-06T07:45:24.242000+00:00</time>
      </trkpt>
      <trkpt lat="0" lon="0">
        <time>2020-12-06T07:45:24.262000+00:00</time>
      </trkpt>
      <trkpt lat="0" lon="0">
        <time>2020-12-06T07:45:24.269000+00:00</time>
      </trkpt>
      <trkpt lat="0" lon="0">
        <time>2020-12-06T07:45:24.271000+00:00</time>
      </trkpt>
      <trkpt lat="47.27534" lon="-1.41321">
        <ele>2</ele>
        <time>2020-12-06T07:45:25.258000+00:00</time>
      </trkpt>
      <trkpt lat="0" lon="0">
        <time>2020-12-06T07:45:25.262000+00:00</time>
      </trkpt>
      <trkpt lat="0" lon="0">
        <time>2020-12-06T07:45:25.265000+00:00</time>
      </trkpt>
      <trkpt lat="0" lon="0">
        <time>2020-12-06T07:45:25.269000+00:00</time>
      </trkpt>
      <trkpt lat="47.27529" lon="-1.41327">
        <ele>1</ele>
        <time>2020-12-06T07:45:26.250000+00:00</time>
      </trkpt>
      <trkpt lat="0" lon="0">
        <time>2020-12-06T07:45:26.257000+00:00</time>
      </trkpt>
      <trkpt lat="0" lon="0">
        <time>2020-12-06T07:45:26.259000+00:00</time>
      </trkpt>
      <trkpt lat="0" lon="0">
        <time>2020-12-06T07:45:26.260000+00:00</time>
      </trkpt>
      <trkpt lat="47.27525" lon="-1.41334">
        <ele>1</ele>
        <time>2020-12-06T07:45:27.228000+00:00</time>
      </trkpt>
      <trkpt lat="0" lon="0">
        <time>2020-12-06T07:45:27.231000+00:00</time>
      </trkpt>
      <trkpt lat="0" lon="0">
        <time>2020-12-06T07:45:27.240000+00:00</time>
      </trkpt>
      <trkpt lat="0" lon="0">
        <time>2020-12-06T07:45:27.241000+00:00</time>
      </trkpt>
      <trkpt lat="47.2752" lon="-1.4134">
        <ele>1</ele>
        <time>2020-12-06T07:45:28.249000+00:00</time>
      </trkpt>
      <trkpt lat="0" lon="0">
        <time>2020-12-06T07:45:28.253000+00:00</time>
      </trkpt>
      <trkpt lat="0" lon="0">
        <time>2020-12-06T07:45:28.257000+00:00</time>
      </trkpt>
      <trkpt lat="0" lon="0">
        <time>2020-12-06T07:45:28.260000+00:00</time>
      </trkpt>
      <trkpt lat="47.27515" lon="-1.41347">
        <ele>1</ele>
        <time>2020-12-06T07:45:29.262000+00:00</time>
      </trkpt>
      <trkpt lat="0" lon="0">
        <time>2020-12-06T07:45:29.275000+00:00</time>
      </trkpt>
      <trkpt lat="0" lon="0">
        <time>2020-12-06T07:45:29.282000+00:00</time>
      </trkpt>
      <trkpt lat="0" lon="0">
        <time>2020-12-06T07:45:29.284000+00:00</time>
      </trkpt>
      <trkpt lat="47.27511" lon="-1.41353">
        <ele>2</ele>
        <time>2020-12-06T07:45:30.278000+00:00</time>
      </trkpt>
      <trkpt lat="0" lon="0">
        <time>2020-12-06T07:45:30.287000+00:00</time>
      </trkpt>
      <trkpt lat="0" lon="0">
        <time>2020-12-06T07:45:30.298000+00:00</time>
      </trkpt>
      <trkpt lat="0" lon="0">
        <time>2020-12-06T07:45:30.300000+00:00</time>
      </trkpt>
      <trkpt lat="47.27506" lon="-1.4136">
        <ele>2</ele>
        <time>2020-12-06T07:45:31.281000+00:00</time>
      </trkpt>
      <trkpt lat="0" lon="0">
        <time>2020-12-06T07:45:31.293000+00:00</time>
      </trkpt>
      <trkpt lat="0" lon="0">
        <time>2020-12-06T07:45:31.304000+00:00</time>
      </trkpt>
      <trkpt lat="0" lon="0">
        <time>2020-12-06T07:45:31.307000+00:00</time>
      </trkpt>
      <trkpt lat="47.27501" lon="-1.41367">
        <ele>2</ele>
        <time>2020-12-06T07:45:32.232000+00:00</time>
      </trkpt>
      <trkpt lat="0" lon="0">
        <time>2020-12-06T07:45:32.240000+00:00</time>
      </trkpt>
      <trkpt lat="0" lon="0">
        <time>2020-12-06T07:45:32.242000+00:00</time>
      </trkpt>
      <trkpt lat="0" lon="0">
        <time>2020-12-06T07:45:32.243000+00:00</time>
      </trkpt>
      <trkpt lat="47.27497" lon="-1.41373">
        <ele>2</ele>
        <time>2020-12-06T07:45:33.232000+00:00</time>
      </trkpt>
      <trkpt lat="0" lon="0">
        <time>2020-12-06T07:45:33.255000+00:00</time>
      </trkpt>
      <trkpt lat="0" lon="0">
        <time>2020-12-06T07:45:33.261000+00:00</time>
      </trkpt>
      <trkpt lat="0" lon="0">
        <time>2020-12-06T07:45:33.265000+00:00</time>
      </trkpt>
      <trkpt lat="47.27492" lon="-1.4138">
        <ele>2</ele>
        <time>2020-12-06T07:45:34.263000+00:00</time>
      </trkpt>
      <trkpt lat="0" lon="0">
        <time>2020-12-06T07:45:34.267000+00:00</time>
      </trkpt>
      <trkpt lat="0" lon="0">
        <time>2020-12-06T07:45:34.274000+00:00</time>
      </trkpt>
      <trkpt lat="0" lon="0">
        <time>2020-12-06T07:45:34.276000+00:00</time>
      </trkpt>
      <trkpt lat="47.27488" lon="-1.41387">
        <ele>2</ele>
        <time>2020-12-06T07:45:35.213000+00:00</time>
      </trkpt>
      <trkpt lat="0" lon="0">
        <time>2020-12-06T07:45:35.219000+00:00</time>
      </trkpt>
      <trkpt lat="0" lon="0">
        <time>2020-12-06T07:45:35.224000+00:00</time>
      </trkpt>
      <trkpt lat="0" lon="0">
        <time>2020-12-06T07:45:35.226000+00:00</time>
      </trkpt>
      <trkpt lat="47.27484" lon="-1.41394">
        <ele>2</ele>
        <time>2020-12-06T07:45:36.258000+00:00</time>
      </trkpt>
      <trkpt lat="0" lon="0">
        <time>2020-12-06T07:45:36.265000+00:00</time>
      </trkpt>
      <trkpt lat="0" lon="0">
        <time>2020-12-06T07:45:36.270000+00:00</time>
      </trkpt>
      <trkpt lat="0" lon="0">
        <time>2020-12-06T07:45:36.278000+00:00</time>
      </trkpt>
      <trkpt lat="47.2748" lon="-1.41401">
        <ele>2</ele>
        <time>2020-12-06T07:45:37.217000+00:00</time>
      </trkpt>
      <trkpt lat="0" lon="0">
        <time>2020-12-06T07:45:37.234000+00:00</time>
      </trkpt>
      <trkpt lat="0" lon="0">
        <time>2020-12-06T07:45:37.238000+00:00</time>
      </trkpt>
      <trkpt lat="0" lon="0">
        <time>2020-12-06T07:45:37.241000+00:00</time>
      </trkpt>
      <trkpt lat="47.27475" lon="-1.41408">
        <ele>2</ele>
        <time>2020-12-06T07:45:38.260000+00:00</time>
      </trkpt>
      <trkpt lat="0" lon="0">
        <time>2020-12-06T07:45:38.261000+00:00</time>
      </trkpt>
      <trkpt lat="0" lon="0">
        <time>2020-12-06T07:45:38.264000+00:00</time>
      </trkpt>
      <trkpt lat="0" lon="0">
        <time>2020-12-06T07:45:38.266000+00:00</time>
      </trkpt>
      <trkpt lat="47.27471" lon="-1.41416">
        <ele>2</ele>
        <time>2020-12-06T07:45:39.237000+00:00</time>
      </trkpt>
      <trkpt lat="0" lon="0">
        <time>2020-12-06T07:45:39.248000+00:00</time>
      </trkpt>
      <trkpt lat="0" lon="0">
        <time>2020-12-06T07:45:39.252000+00:00</time>
      </trkpt>
      <trkpt lat="0" lon="0">
        <time>2020-12-06T07:45:39.254000+00:00</time>
      </trkpt>
      <trkpt lat="47.27467" lon="-1.41423">
        <ele>2</ele>
        <time>2020-12-06T07:45:40.281000+00:00</time>
      </trkpt>
      <trkpt lat="0" lon="0">
        <time>2020-12-06T07:45:40.308000+00:00</time>
      </trkpt>
      <trkpt lat="0" lon="0">
        <time>2020-12-06T07:45:40.312000+00:00</time>
      </trkpt>
      <trkpt lat="0" lon="0">
        <time>2020-12-06T07:45:40.314000+00:00</time>
      </trkpt>
      <trkpt lat="47.27463" lon="-1.41431">
        <ele>2</ele>
        <time>2020-12-06T07:45:41.263000+00:00</time>
      </trkpt>
      <trkpt lat="0" lon="0">
        <time>2020-12-06T07:45:41.273000+00:00</time>
      </trkpt>
      <trkpt lat="0" lon="0">
        <time>2020-12-06T07:45:41.281000+00:00</time>
      </trkpt>
      <trkpt lat="0" lon="0">
        <time>2020-12-06T07:45:41.283000+00:00</time>
      </trkpt>
      <trkpt lat="47.27458" lon="-1.41438">
        <ele>2</ele>
        <time>2020-12-06T07:45:42.280000+00:00</time>
      </trkpt>
      <trkpt lat="0" lon="0">
        <time>2020-12-06T07:45:42.283000+00:00</time>
      </trkpt>
      <trkpt lat="0" lon="0">
        <time>2020-12-06T07:45:42.295000+00:00</time>
      </trkpt>
      <trkpt lat="0" lon="0">
        <time>2020-12-06T07:45:42.297000+00:00</time>
      </trkpt>
      <trkpt lat="47.27454" lon="-1.41446">
        <ele>2</ele>
        <time>2020-12-06T07:45:43.285000+00:00</time>
      </trkpt>
      <trkpt lat="0" lon="0">
        <time>2020-12-06T07:45:43.291000+00:00</time>
      </trkpt>
      <trkpt lat="0" lon="0">
        <time>2020-12-06T07:45:43.301000+00:00</time>
      </trkpt>
      <trkpt lat="0" lon="0">
        <time>2020-12-06T07:45:43.306000+00:00</time>
      </trkpt>
      <trkpt lat="47.2745" lon="-1.41453">
        <ele>2</ele>
        <time>2020-12-06T07:45:44.274000+00:00</time>
      </trkpt>
      <trkpt lat="0" lon="0">
        <time>2020-12-06T07:45:44.284000+00:00</time>
      </trkpt>
      <trkpt lat="0" lon="0">
        <time>2020-12-06T07:45:44.290000+00:00</time>
      </trkpt>
      <trkpt lat="0" lon="0">
        <time>2020-12-06T07:45:44.294000+00:00</time>
      </trkpt>
      <trkpt lat="47.27445" lon="-1.41461">
        <ele>3</ele>
        <time>2020-12-06T07:45:45.264000+00:00</time>
      </trkpt>
      <trkpt lat="0" lon="0">
        <time>2020-12-06T07:45:45.268000+00:00</time>
      </trkpt>
      <trkpt lat="0" lon="0">
        <time>2020-12-06T07:45:45.278000+00:00</time>
      </trkpt>
      <trkpt lat="0" lon="0">
        <time>2020-12-06T07:45:45.282000+00:00</time>
      </trkpt>
      <trkpt lat="47.27441" lon="-1.41468">
        <ele>3</ele>
        <time>2020-12-06T07:45:46.286000+00:00</time>
      </trkpt>
      <trkpt lat="0" lon="0">
        <time>2020-12-06T07:45:46.295000+00:00</time>
      </trkpt>
      <trkpt lat="0" lon="0">
        <time>2020-12-06T07:45:46.301000+00:00</time>
      </trkpt>
      <trkpt lat="0" lon="0">
        <time>2020-12-06T07:45:46.306000+00:00</time>
      </trkpt>
      <trkpt lat="47.27437" lon="-1.41476">
        <ele>3</ele>
        <time>2020-12-06T07:45:47.272000+00:00</time>
      </trkpt>
      <trkpt lat="0" lon="0">
        <time>2020-12-06T07:45:47.283000+00:00</time>
      </trkpt>
      <trkpt lat="0" lon="0">
        <time>2020-12-06T07:45:47.290000+00:00</time>
      </trkpt>
      <trkpt lat="0" lon="0">
        <time>2020-12-06T07:45:47.307000+00:00</time>
      </trkpt>
      <trkpt lat="47.27433" lon="-1.41483">
        <ele>3</ele>
        <time>2020-12-06T07:45:48.249000+00:00</time>
      </trkpt>
      <trkpt lat="0" lon="0">
        <time>2020-12-06T07:45:48.261000+00:00</time>
      </trkpt>
      <trkpt lat="0" lon="0">
        <time>2020-12-06T07:45:48.265000+00:00</time>
      </trkpt>
      <trkpt lat="0" lon="0">
        <time>2020-12-06T07:45:48.267000+00:00</time>
      </trkpt>
      <trkpt lat="47.27429" lon="-1.41491">
        <ele>3</ele>
        <time>2020-12-06T07:45:49.285000+00:00</time>
      </trkpt>
      <trkpt lat="0" lon="0">
        <time>2020-12-06T07:45:49.291000+00:00</time>
      </trkpt>
      <trkpt lat="0" lon="0">
        <time>2020-12-06T07:45:49.297000+00:00</time>
      </trkpt>
      <trkpt lat="0" lon="0">
        <time>2020-12-06T07:45:49.299000+00:00</time>
      </trkpt>
      <trkpt lat="47.27425" lon="-1.41498">
        <ele>3</ele>
        <time>2020-12-06T07:45:50.250000+00:00</time>
      </trkpt>
      <trkpt lat="0" lon="0">
        <time>2020-12-06T07:45:50.262000+00:00</time>
      </trkpt>
      <trkpt lat="0" lon="0">
        <time>2020-12-06T07:45:50.267000+00:00</time>
      </trkpt>
      <trkpt lat="0" lon="0">
        <time>2020-12-06T07:45:50.270000+00:00</time>
      </trkpt>
      <trkpt lat="47.27421" lon="-1.41505">
        <ele>4</ele>
        <time>2020-12-06T07:45:51.243000+00:00</time>
      </trkpt>
      <trkpt lat="0" lon="0">
        <time>2020-12-06T07:45:51.247000+00:00</time>
      </trkpt>
      <trkpt lat="0" lon="0">
        <time>2020-12-06T07:45:51.256000+00:00</time>
      </trkpt>
      <trkpt lat="0" lon="0">
        <time>2020-12-06T07:45:51.258000+00:00</time>
      </trkpt>
      <trkpt lat="47.27417" lon="-1.41512">
        <ele>4</ele>
        <time>2020-12-06T07:45:52.235000+00:00</time>
      </trkpt>
      <trkpt lat="0" lon="0">
        <time>2020-12-06T07:45:52.247000+00:00</time>
      </trkpt>
      <trkpt lat="0" lon="0">
        <time>2020-12-06T07:45:52.251000+00:00</time>
      </trkpt>
      <trkpt lat="0" lon="0">
        <time>2020-12-06T07:45:52.255000+00:00</time>
      </trkpt>
      <trkpt lat="47.27413" lon="-1.41519">
        <ele>4</ele>
        <time>2020-12-06T07:45:53.248000+00:00</time>
      </trkpt>
      <trkpt lat="0" lon="0">
        <time>2020-12-06T07:45:53.265000+00:00</time>
      </trkpt>
      <trkpt lat="0" lon="0">
        <time>2020-12-06T07:45:53.269000+00:00</time>
      </trkpt>
      <trkpt lat="0" lon="0">
        <time>2020-12-06T07:45:53.270000+00:00</time>
      </trkpt>
      <trkpt lat="47.27408" lon="-1.41526">
        <ele>4</ele>
        <time>2020-12-06T07:45:54.275000+00:00</time>
      </trkpt>
      <trkpt lat="0" lon="0">
        <time>2020-12-06T07:45:54.296000+00:00</time>
      </trkpt>
      <trkpt lat="0" lon="0">
        <time>2020-12-06T07:45:54.307000+00:00</time>
      </trkpt>
      <trkpt lat="0" lon="0">
        <time>2020-12-06T07:45:54.313000+00:00</time>
      </trkpt>
      <trkpt lat="47.27404" lon="-1.41533">
        <ele>4</ele>
        <time>2020-12-06T07:45:55.199000+00:00</time>
      </trkpt>
      <trkpt lat="0" lon="0">
        <time>2020-12-06T07:45:55.207000+00:00</time>
      </trkpt>
      <trkpt lat="0" lon="0">
        <time>2020-12-06T07:45:55.218000+00:00</time>
      </trkpt>
      <trkpt lat="0" lon="0">
        <time>2020-12-06T07:45:55.220000+00:00</time>
      </trkpt>
      <trkpt lat="47.274" lon="-1.41539">
        <ele>4</ele>
        <time>2020-12-06T07:45:56.221000+00:00</time>
      </trkpt>
      <trkpt lat="0" lon="0">
        <time>2020-12-06T07:45:56.230000+00:00</time>
      </trkpt>
      <trkpt lat="0" lon="0">
        <time>2020-12-06T07:45:56.234000+00:00</time>
      </trkpt>
      <trkpt lat="0" lon="0">
        <time>2020-12-06T07:45:56.239000+00:00</time>
      </trkpt>
      <trkpt lat="47.27395" lon="-1.41546">
        <ele>4</ele>
        <time>2020-12-06T07:45:57.229000+00:00</time>
      </trkpt>
      <trkpt lat="0" lon="0">
        <time>2020-12-06T07:45:57.234000+00:00</time>
      </trkpt>
      <trkpt lat="0" lon="0">
        <time>2020-12-06T07:45:57.243000+00:00</time>
      </trkpt>
      <trkpt lat="0" lon="0">
        <time>2020-12-06T07:45:57.245000+00:00</time>
      </trkpt>
      <trkpt lat="47.27391" lon="-1.41552">
        <ele>4</ele>
        <time>2020-12-06T07:45:58.195000+00:00</time>
      </trkpt>
      <trkpt lat="0" lon="0">
        <time>2020-12-06T07:45:58.198000+00:00</time>
      </trkpt>
      <trkpt lat="0" lon="0">
        <time>2020-12-06T07:45:58.203000+00:00</time>
      </trkpt>
      <trkpt lat="0" lon="0">
        <time>2020-12-06T07:45:58.207000+00:00</time>
      </trkpt>
      <trkpt lat="47.27387" lon="-1.41559">
        <ele>4</ele>
        <time>2020-12-06T07:45:59.182000+00:00</time>
      </trkpt>
      <trkpt lat="0" lon="0">
        <time>2020-12-06T07:45:59.183000+00:00</time>
      </trkpt>
      <trkpt lat="0" lon="0">
        <time>2020-12-06T07:45:59.184000+00:00</time>
      </trkpt>
      <trkpt lat="47.27383" lon="-1.41566">
        <ele>4</ele>
        <time>2020-12-06T07:46:00.234000+00:00</time>
      </trkpt>
      <trkpt lat="0" lon="0">
        <time>2020-12-06T07:46:00.237000+00:00</time>
      </trkpt>
      <trkpt lat="0" lon="0">
        <time>2020-12-06T07:46:00.245000+00:00</time>
      </trkpt>
      <trkpt lat="0" lon="0">
        <time>2020-12-06T07:46:00.247000+00:00</time>
      </trkpt>
      <trkpt lat="47.27378" lon="-1.41572">
        <ele>5</ele>
        <time>2020-12-06T07:46:01.277000+00:00</time>
      </trkpt>
      <trkpt lat="0" lon="0">
        <time>2020-12-06T07:46:01.281000+00:00</time>
      </trkpt>
      <trkpt lat="0" lon="0">
        <time>2020-12-06T07:46:01.286000+00:00</time>
      </trkpt>
      <trkpt lat="0" lon="0">
        <time>2020-12-06T07:46:01.296000+00:00</time>
      </trkpt>
      <trkpt lat="47.27374" lon="-1.41579">
        <ele>5</ele>
        <time>2020-12-06T07:46:02.238000+00:00</time>
      </trkpt>
      <trkpt lat="0" lon="0">
        <time>2020-12-06T07:46:02.242000+00:00</time>
      </trkpt>
      <trkpt lat="0" lon="0">
        <time>2020-12-06T07:46:02.246000+00:00</time>
      </trkpt>
      <trkpt lat="0" lon="0">
        <time>2020-12-06T07:46:02.249000+00:00</time>
      </trkpt>
      <trkpt lat="47.2737" lon="-1.41585">
        <ele>5</ele>
        <time>2020-12-06T07:46:03.221000+00:00</time>
      </trkpt>
      <trkpt lat="0" lon="0">
        <time>2020-12-06T07:46:03.225000+00:00</time>
      </trkpt>
      <trkpt lat="0" lon="0">
        <time>2020-12-06T07:46:03.230000+00:00</time>
      </trkpt>
      <trkpt lat="0" lon="0">
        <time>2020-12-06T07:46:03.234000+00:00</time>
      </trkpt>
      <trkpt lat="47.27366" lon="-1.41592">
        <ele>5</ele>
        <time>2020-12-06T07:46:04.230000+00:00</time>
      </trkpt>
      <trkpt lat="0" lon="0">
        <time>2020-12-06T07:46:04.234000+00:00</time>
      </trkpt>
      <trkpt lat="0" lon="0">
        <time>2020-12-06T07:46:04.237000+00:00</time>
      </trkpt>
      <trkpt lat="0" lon="0">
        <time>2020-12-06T07:46:04.239000+00:00</time>
      </trkpt>
      <trkpt lat="47.27362" lon="-1.41599">
        <ele>5</ele>
        <time>2020-12-06T07:46:05.241000+00:00</time>
      </trkpt>
      <trkpt lat="0" lon="0">
        <time>2020-12-06T07:46:05.254000+00:00</time>
      </trkpt>
      <trkpt lat="0" lon="0">
        <time>2020-12-06T07:46:05.259000+00:00</time>
      </trkpt>
      <trkpt lat="0" lon="0">
        <time>2020-12-06T07:46:05.264000+00:00</time>
      </trkpt>
      <trkpt lat="47.27357" lon="-1.41605">
        <ele>5</ele>
        <time>2020-12-06T07:46:06.231000+00:00</time>
      </trkpt>
      <trkpt lat="0" lon="0">
        <time>2020-12-06T07:46:06.234000+00:00</time>
      </trkpt>
      <trkpt lat="0" lon="0">
        <time>2020-12-06T07:46:06.261000+00:00</time>
      </trkpt>
      <trkpt lat="0" lon="0">
        <time>2020-12-06T07:46:06.262000+00:00</time>
      </trkpt>
      <trkpt lat="47.27353" lon="-1.41612">
        <ele>5</ele>
        <time>2020-12-06T07:46:07.269000+00:00</time>
      </trkpt>
      <trkpt lat="0" lon="0">
        <time>2020-12-06T07:46:07.288000+00:00</time>
      </trkpt>
      <trkpt lat="0" lon="0">
        <time>2020-12-06T07:46:07.293000+00:00</time>
      </trkpt>
      <trkpt lat="0" lon="0">
        <time>2020-12-06T07:46:07.295000+00:00</time>
      </trkpt>
      <trkpt lat="47.27349" lon="-1.41618">
        <ele>5</ele>
        <time>2020-12-06T07:46:08.215000+00:00</time>
      </trkpt>
      <trkpt lat="0" lon="0">
        <time>2020-12-06T07:46:08.226000+00:00</time>
      </trkpt>
      <trkpt lat="0" lon="0">
        <time>2020-12-06T07:46:08.231000+00:00</time>
      </trkpt>
      <trkpt lat="0" lon="0">
        <time>2020-12-06T07:46:08.235000+00:00</time>
      </trkpt>
      <trkpt lat="47.27344" lon="-1.41625">
        <ele>4</ele>
        <time>2020-12-06T07:46:09.228000+00:00</time>
      </trkpt>
      <trkpt lat="0" lon="0">
        <time>2020-12-06T07:46:09.233000+00:00</time>
      </trkpt>
      <trkpt lat="0" lon="0">
        <time>2020-12-06T07:46:09.240000+00:00</time>
      </trkpt>
      <trkpt lat="0" lon="0">
        <time>2020-12-06T07:46:09.243000+00:00</time>
      </trkpt>
      <trkpt lat="47.2734" lon="-1.41631">
        <ele>4</ele>
        <time>2020-12-06T07:46:10.247000+00:00</time>
      </trkpt>
      <trkpt lat="0" lon="0">
        <time>2020-12-06T07:46:10.262000+00:00</time>
      </trkpt>
      <trkpt lat="0" lon="0">
        <time>2020-12-06T07:46:10.266000+00:00</time>
      </trkpt>
      <trkpt lat="0" lon="0">
        <time>2020-12-06T07:46:10.268000+00:00</time>
      </trkpt>
      <trkpt lat="47.27335" lon="-1.41638">
        <ele>4</ele>
        <time>2020-12-06T07:46:11.262000+00:00</time>
      </trkpt>
      <trkpt lat="0" lon="0">
        <time>2020-12-06T07:46:11.265000+00:00</time>
      </trkpt>
      <trkpt lat="0" lon="0">
        <time>2020-12-06T07:46:11.273000+00:00</time>
      </trkpt>
      <trkpt lat="0" lon="0">
        <time>2020-12-06T07:46:11.274000+00:00</time>
      </trkpt>
      <trkpt lat="47.27331" lon="-1.41644">
        <ele>4</ele>
        <time>2020-12-06T07:46:12.307000+00:00</time>
      </trkpt>
      <trkpt lat="0" lon="0">
        <time>2020-12-06T07:46:12.315000+00:00</time>
      </trkpt>
      <trkpt lat="0" lon="0">
        <time>2020-12-06T07:46:12.334000+00:00</time>
      </trkpt>
      <trkpt lat="0" lon="0">
        <time>2020-12-06T07:46:12.341000+00:00</time>
      </trkpt>
      <trkpt lat="47.27327" lon="-1.41651">
        <ele>4</ele>
        <time>2020-12-06T07:46:13.274000+00:00</time>
      </trkpt>
      <trkpt lat="0" lon="0">
        <time>2020-12-06T07:46:13.277000+00:00</time>
      </trkpt>
      <trkpt lat="0" lon="0">
        <time>2020-12-06T07:46:13.282000+00:00</time>
      </trkpt>
      <trkpt lat="0" lon="0">
        <time>2020-12-06T07:46:13.284000+00:00</time>
      </trkpt>
      <trkpt lat="47.27322" lon="-1.41658">
        <ele>4</ele>
        <time>2020-12-06T07:46:14.288000+00:00</time>
      </trkpt>
      <trkpt lat="0" lon="0">
        <time>2020-12-06T07:46:14.294000+00:00</time>
      </trkpt>
      <trkpt lat="0" lon="0">
        <time>2020-12-06T07:46:14.299000+00:00</time>
      </trkpt>
      <trkpt lat="0" lon="0">
        <time>2020-12-06T07:46:14.302000+00:00</time>
      </trkpt>
      <trkpt lat="47.27318" lon="-1.41664">
        <ele>3</ele>
        <time>2020-12-06T07:46:15.274000+00:00</time>
      </trkpt>
      <trkpt lat="0" lon="0">
        <time>2020-12-06T07:46:15.285000+00:00</time>
      </trkpt>
      <trkpt lat="0" lon="0">
        <time>2020-12-06T07:46:15.288000+00:00</time>
      </trkpt>
      <trkpt lat="0" lon="0">
        <time>2020-12-06T07:46:15.290000+00:00</time>
      </trkpt>
      <trkpt lat="47.27314" lon="-1.41671">
        <ele>3</ele>
        <time>2020-12-06T07:46:16.250000+00:00</time>
      </trkpt>
      <trkpt lat="0" lon="0">
        <time>2020-12-06T07:46:16.259000+00:00</time>
      </trkpt>
      <trkpt lat="0" lon="0">
        <time>2020-12-06T07:46:16.269000+00:00</time>
      </trkpt>
      <trkpt lat="0" lon="0">
        <time>2020-12-06T07:46:16.271000+00:00</time>
      </trkpt>
      <trkpt lat="47.2731" lon="-1.41678">
        <ele>3</ele>
        <time>2020-12-06T07:46:17.262000+00:00</time>
      </trkpt>
      <trkpt lat="0" lon="0">
        <time>2020-12-06T07:46:17.271000+00:00</time>
      </trkpt>
      <trkpt lat="0" lon="0">
        <time>2020-12-06T07:46:17.275000+00:00</time>
      </trkpt>
      <trkpt lat="0" lon="0">
        <time>2020-12-06T07:46:17.280000+00:00</time>
      </trkpt>
      <trkpt lat="47.27305" lon="-1.41685">
        <ele>3</ele>
        <time>2020-12-06T07:46:18.268000+00:00</time>
      </trkpt>
      <trkpt lat="0" lon="0">
        <time>2020-12-06T07:46:18.284000+00:00</time>
      </trkpt>
      <trkpt lat="0" lon="0">
        <time>2020-12-06T07:46:18.287000+00:00</time>
      </trkpt>
      <trkpt lat="0" lon="0">
        <time>2020-12-06T07:46:18.289000+00:00</time>
      </trkpt>
      <trkpt lat="47.27301" lon="-1.41692">
        <ele>3</ele>
        <time>2020-12-06T07:46:19.233000+00:00</time>
      </trkpt>
      <trkpt lat="0" lon="0">
        <time>2020-12-06T07:46:19.251000+00:00</time>
      </trkpt>
      <trkpt lat="0" lon="0">
        <time>2020-12-06T07:46:19.255000+00:00</time>
      </trkpt>
      <trkpt lat="0" lon="0">
        <time>2020-12-06T07:46:19.257000+00:00</time>
      </trkpt>
      <trkpt lat="47.27297" lon="-1.41699">
        <ele>3</ele>
        <time>2020-12-06T07:46:20.271000+00:00</time>
      </trkpt>
      <trkpt lat="0" lon="0">
        <time>2020-12-06T07:46:20.281000+00:00</time>
      </trkpt>
      <trkpt lat="0" lon="0">
        <time>2020-12-06T07:46:20.284000+00:00</time>
      </trkpt>
      <trkpt lat="0" lon="0">
        <time>2020-12-06T07:46:20.286000+00:00</time>
      </trkpt>
      <trkpt lat="47.27293" lon="-1.41706">
        <ele>3</ele>
        <time>2020-12-06T07:46:21.257000+00:00</time>
      </trkpt>
      <trkpt lat="0" lon="0">
        <time>2020-12-06T07:46:21.262000+00:00</time>
      </trkpt>
      <trkpt lat="0" lon="0">
        <time>2020-12-06T07:46:21.266000+00:00</time>
      </trkpt>
      <trkpt lat="0" lon="0">
        <time>2020-12-06T07:46:21.269000+00:00</time>
      </trkpt>
      <trkpt lat="47.2729" lon="-1.41713">
        <ele>3</ele>
        <time>2020-12-06T07:46:22.257000+00:00</time>
      </trkpt>
      <trkpt lat="0" lon="0">
        <time>2020-12-06T07:46:22.262000+00:00</time>
      </trkpt>
      <trkpt lat="0" lon="0">
        <time>2020-12-06T07:46:22.265000+00:00</time>
      </trkpt>
      <trkpt lat="0" lon="0">
        <time>2020-12-06T07:46:22.269000+00:00</time>
      </trkpt>
      <trkpt lat="47.27286" lon="-1.41721">
        <ele>3</ele>
        <time>2020-12-06T07:46:23.217000+00:00</time>
      </trkpt>
      <trkpt lat="0" lon="0">
        <time>2020-12-06T07:46:23.238000+00:00</time>
      </trkpt>
      <trkpt lat="0" lon="0">
        <time>2020-12-06T07:46:23.243000+00:00</time>
      </trkpt>
      <trkpt lat="0" lon="0">
        <time>2020-12-06T07:46:23.245000+00:00</time>
      </trkpt>
      <trkpt lat="47.27283" lon="-1.41728">
        <ele>3</ele>
        <time>2020-12-06T07:46:24.241000+00:00</time>
      </trkpt>
      <trkpt lat="0" lon="0">
        <time>2020-12-06T07:46:24.255000+00:00</time>
      </trkpt>
      <trkpt lat="0" lon="0">
        <time>2020-12-06T07:46:24.259000+00:00</time>
      </trkpt>
      <trkpt lat="0" lon="0">
        <time>2020-12-06T07:46:24.261000+00:00</time>
      </trkpt>
      <trkpt lat="47.27279" lon="-1.41736">
        <ele>3</ele>
        <time>2020-12-06T07:46:25.247000+00:00</time>
      </trkpt>
      <trkpt lat="0" lon="0">
        <time>2020-12-06T07:46:25.257000+00:00</time>
      </trkpt>
      <trkpt lat="0" lon="0">
        <time>2020-12-06T07:46:25.261000+00:00</time>
      </trkpt>
      <trkpt lat="0" lon="0">
        <time>2020-12-06T07:46:25.264000+00:00</time>
      </trkpt>
      <trkpt lat="47.27276" lon="-1.41743">
        <ele>3</ele>
        <time>2020-12-06T07:46:26.253000+00:00</time>
      </trkpt>
      <trkpt lat="0" lon="0">
        <time>2020-12-06T07:46:26.259000+00:00</time>
      </trkpt>
      <trkpt lat="0" lon="0">
        <time>2020-12-06T07:46:26.270000+00:00</time>
      </trkpt>
      <trkpt lat="0" lon="0">
        <time>2020-12-06T07:46:26.272000+00:00</time>
      </trkpt>
      <trkpt lat="47.27273" lon="-1.4175">
        <ele>3</ele>
        <time>2020-12-06T07:46:27.274000+00:00</time>
      </trkpt>
      <trkpt lat="0" lon="0">
        <time>2020-12-06T07:46:27.297000+00:00</time>
      </trkpt>
      <trkpt lat="0" lon="0">
        <time>2020-12-06T07:46:27.307000+00:00</time>
      </trkpt>
      <trkpt lat="0" lon="0">
        <time>2020-12-06T07:46:27.310000+00:00</time>
      </trkpt>
      <trkpt lat="47.27269" lon="-1.41758">
        <ele>3</ele>
        <time>2020-12-06T07:46:28.282000+00:00</time>
      </trkpt>
      <trkpt lat="0" lon="0">
        <time>2020-12-06T07:46:28.285000+00:00</time>
      </trkpt>
      <trkpt lat="0" lon="0">
        <time>2020-12-06T07:46:28.308000+00:00</time>
      </trkpt>
      <trkpt lat="0" lon="0">
        <time>2020-12-06T07:46:28.314000+00:00</time>
      </trkpt>
      <trkpt lat="47.27266" lon="-1.41765">
        <ele>3</ele>
        <time>2020-12-06T07:46:29.186000+00:00</time>
      </trkpt>
      <trkpt lat="0" lon="0">
        <time>2020-12-06T07:46:29.194000+00:00</time>
      </trkpt>
      <trkpt lat="0" lon="0">
        <time>2020-12-06T07:46:29.200000+00:00</time>
      </trkpt>
      <trkpt lat="0" lon="0">
        <time>2020-12-06T07:46:29.203000+00:00</time>
      </trkpt>
      <trkpt lat="47.27262" lon="-1.41773">
        <ele>3</ele>
        <time>2020-12-06T07:46:30.278000+00:00</time>
      </trkpt>
      <trkpt lat="0" lon="0">
        <time>2020-12-06T07:46:30.291000+00:00</time>
      </trkpt>
      <trkpt lat="0" lon="0">
        <time>2020-12-06T07:46:30.297000+00:00</time>
      </trkpt>
      <trkpt lat="0" lon="0">
        <time>2020-12-06T07:46:30.298000+00:00</time>
      </trkpt>
      <trkpt lat="47.27258" lon="-1.4178">
        <ele>3</ele>
        <time>2020-12-06T07:46:31.231000+00:00</time>
      </trkpt>
      <trkpt lat="0" lon="0">
        <time>2020-12-06T07:46:31.235000+00:00</time>
      </trkpt>
      <trkpt lat="0" lon="0">
        <time>2020-12-06T07:46:31.239000+00:00</time>
      </trkpt>
      <trkpt lat="0" lon="0">
        <time>2020-12-06T07:46:31.240000+00:00</time>
      </trkpt>
      <trkpt lat="47.27255" lon="-1.41788">
        <ele>3</ele>
        <time>2020-12-06T07:46:32.286000+00:00</time>
      </trkpt>
      <trkpt lat="0" lon="0">
        <time>2020-12-06T07:46:32.295000+00:00</time>
      </trkpt>
      <trkpt lat="0" lon="0">
        <time>2020-12-06T07:46:32.304000+00:00</time>
      </trkpt>
      <trkpt lat="0" lon="0">
        <time>2020-12-06T07:46:32.306000+00:00</time>
      </trkpt>
      <trkpt lat="47.27248" lon="-1.41802">
        <ele>4</ele>
        <time>2020-12-06T07:46:34.255000+00:00</time>
      </trkpt>
      <trkpt lat="0" lon="0">
        <time>2020-12-06T07:46:34.273000+00:00</time>
      </trkpt>
      <trkpt lat="0" lon="0">
        <time>2020-12-06T07:46:34.276000+00:00</time>
      </trkpt>
      <trkpt lat="0" lon="0">
        <time>2020-12-06T07:46:34.278000+00:00</time>
      </trkpt>
      <trkpt lat="47.27244" lon="-1.41809">
        <ele>4</ele>
        <time>2020-12-06T07:46:35.274000+00:00</time>
      </trkpt>
      <trkpt lat="0" lon="0">
        <time>2020-12-06T07:46:35.277000+00:00</time>
      </trkpt>
      <trkpt lat="0" lon="0">
        <time>2020-12-06T07:46:35.280000+00:00</time>
      </trkpt>
      <trkpt lat="0" lon="0">
        <time>2020-12-06T07:46:35.288000+00:00</time>
      </trkpt>
      <trkpt lat="47.2724" lon="-1.41816">
        <ele>4</ele>
        <time>2020-12-06T07:46:36.258000+00:00</time>
      </trkpt>
      <trkpt lat="0" lon="0">
        <time>2020-12-06T07:46:36.272000+00:00</time>
      </trkpt>
      <trkpt lat="0" lon="0">
        <time>2020-12-06T07:46:36.275000+00:00</time>
      </trkpt>
      <trkpt lat="0" lon="0">
        <time>2020-12-06T07:46:36.277000+00:00</time>
      </trkpt>
      <trkpt lat="47.27237" lon="-1.41823">
        <ele>4</ele>
        <time>2020-12-06T07:46:37.287000+00:00</time>
      </trkpt>
      <trkpt lat="0" lon="0">
        <time>2020-12-06T07:46:37.291000+00:00</time>
      </trkpt>
      <trkpt lat="0" lon="0">
        <time>2020-12-06T07:46:37.299000+00:00</time>
      </trkpt>
      <trkpt lat="0" lon="0">
        <time>2020-12-06T07:46:37.301000+00:00</time>
      </trkpt>
      <trkpt lat="47.27233" lon="-1.4183">
        <ele>4</ele>
        <time>2020-12-06T07:46:38.281000+00:00</time>
      </trkpt>
      <trkpt lat="0" lon="0">
        <time>2020-12-06T07:46:38.296000+00:00</time>
      </trkpt>
      <trkpt lat="0" lon="0">
        <time>2020-12-06T07:46:38.303000+00:00</time>
      </trkpt>
      <trkpt lat="0" lon="0">
        <time>2020-12-06T07:46:38.307000+00:00</time>
      </trkpt>
      <trkpt lat="47.27229" lon="-1.41837">
        <ele>4</ele>
        <time>2020-12-06T07:46:39.256000+00:00</time>
      </trkpt>
      <trkpt lat="0" lon="0">
        <time>2020-12-06T07:46:39.260000+00:00</time>
      </trkpt>
      <trkpt lat="0" lon="0">
        <time>2020-12-06T07:46:39.271000+00:00</time>
      </trkpt>
      <trkpt lat="0" lon="0">
        <time>2020-12-06T07:46:39.272000+00:00</time>
      </trkpt>
      <trkpt lat="47.27226" lon="-1.41845">
        <ele>4</ele>
        <time>2020-12-06T07:46:40.302000+00:00</time>
      </trkpt>
      <trkpt lat="0" lon="0">
        <time>2020-12-06T07:46:40.307000+00:00</time>
      </trkpt>
      <trkpt lat="0" lon="0">
        <time>2020-12-06T07:46:40.313000+00:00</time>
      </trkpt>
      <trkpt lat="0" lon="0">
        <time>2020-12-06T07:46:40.316000+00:00</time>
      </trkpt>
      <trkpt lat="47.27222" lon="-1.41852">
        <ele>4</ele>
        <time>2020-12-06T07:46:41.302000+00:00</time>
      </trkpt>
      <trkpt lat="0" lon="0">
        <time>2020-12-06T07:46:41.310000+00:00</time>
      </trkpt>
      <trkpt lat="0" lon="0">
        <time>2020-12-06T07:46:41.314000+00:00</time>
      </trkpt>
      <trkpt lat="0" lon="0">
        <time>2020-12-06T07:46:41.316000+00:00</time>
      </trkpt>
      <trkpt lat="47.27218" lon="-1.41859">
        <ele>4</ele>
        <time>2020-12-06T07:46:42.315000+00:00</time>
      </trkpt>
      <trkpt lat="0" lon="0">
        <time>2020-12-06T07:46:42.333000+00:00</time>
      </trkpt>
      <trkpt lat="0" lon="0">
        <time>2020-12-06T07:46:42.338000+00:00</time>
      </trkpt>
      <trkpt lat="0" lon="0">
        <time>2020-12-06T07:46:42.341000+00:00</time>
      </trkpt>
      <trkpt lat="47.27214" lon="-1.41866">
        <ele>4</ele>
        <time>2020-12-06T07:46:43.274000+00:00</time>
      </trkpt>
      <trkpt lat="0" lon="0">
        <time>2020-12-06T07:46:43.283000+00:00</time>
      </trkpt>
      <trkpt lat="0" lon="0">
        <time>2020-12-06T07:46:43.290000+00:00</time>
      </trkpt>
      <trkpt lat="0" lon="0">
        <time>2020-12-06T07:46:43.294000+00:00</time>
      </trkpt>
      <trkpt lat="47.2721" lon="-1.41874">
        <ele>4</ele>
        <time>2020-12-06T07:46:44.242000+00:00</time>
      </trkpt>
      <trkpt lat="0" lon="0">
        <time>2020-12-06T07:46:44.248000+00:00</time>
      </trkpt>
      <trkpt lat="0" lon="0">
        <time>2020-12-06T07:46:44.251000+00:00</time>
      </trkpt>
      <trkpt lat="0" lon="0">
        <time>2020-12-06T07:46:44.253000+00:00</time>
      </trkpt>
      <trkpt lat="47.27206" lon="-1.41881">
        <ele>4</ele>
        <time>2020-12-06T07:46:45.245000+00:00</time>
      </trkpt>
      <trkpt lat="0" lon="0">
        <time>2020-12-06T07:46:45.249000+00:00</time>
      </trkpt>
      <trkpt lat="0" lon="0">
        <time>2020-12-06T07:46:45.265000+00:00</time>
      </trkpt>
      <trkpt lat="0" lon="0">
        <time>2020-12-06T07:46:45.270000+00:00</time>
      </trkpt>
      <trkpt lat="47.27202" lon="-1.41888">
        <ele>4</ele>
        <time>2020-12-06T07:46:46.242000+00:00</time>
      </trkpt>
      <trkpt lat="0" lon="0">
        <time>2020-12-06T07:46:46.246000+00:00</time>
      </trkpt>
      <trkpt lat="0" lon="0">
        <time>2020-12-06T07:46:46.255000+00:00</time>
      </trkpt>
      <trkpt lat="0" lon="0">
        <time>2020-12-06T07:46:46.266000+00:00</time>
      </trkpt>
      <trkpt lat="47.27198" lon="-1.41895">
        <ele>4</ele>
        <time>2020-12-06T07:46:47.260000+00:00</time>
      </trkpt>
      <trkpt lat="0" lon="0">
        <time>2020-12-06T07:46:47.263000+00:00</time>
      </trkpt>
      <trkpt lat="0" lon="0">
        <time>2020-12-06T07:46:47.269000+00:00</time>
      </trkpt>
      <trkpt lat="0" lon="0">
        <time>2020-12-06T07:46:47.271000+00:00</time>
      </trkpt>
      <trkpt lat="47.27194" lon="-1.41903">
        <ele>4</ele>
        <time>2020-12-06T07:46:48.307000+00:00</time>
      </trkpt>
      <trkpt lat="0" lon="0">
        <time>2020-12-06T07:46:48.321000+00:00</time>
      </trkpt>
      <trkpt lat="0" lon="0">
        <time>2020-12-06T07:46:48.327000+00:00</time>
      </trkpt>
      <trkpt lat="0" lon="0">
        <time>2020-12-06T07:46:48.330000+00:00</time>
      </trkpt>
      <trkpt lat="47.27189" lon="-1.4191">
        <ele>4</ele>
        <time>2020-12-06T07:46:49.306000+00:00</time>
      </trkpt>
      <trkpt lat="0" lon="0">
        <time>2020-12-06T07:46:49.313000+00:00</time>
      </trkpt>
      <trkpt lat="0" lon="0">
        <time>2020-12-06T07:46:49.318000+00:00</time>
      </trkpt>
      <trkpt lat="0" lon="0">
        <time>2020-12-06T07:46:49.320000+00:00</time>
      </trkpt>
      <trkpt lat="47.27185" lon="-1.41917">
        <ele>4</ele>
        <time>2020-12-06T07:46:50.259000+00:00</time>
      </trkpt>
      <trkpt lat="0" lon="0">
        <time>2020-12-06T07:46:50.276000+00:00</time>
      </trkpt>
      <trkpt lat="0" lon="0">
        <time>2020-12-06T07:46:50.280000+00:00</time>
      </trkpt>
      <trkpt lat="0" lon="0">
        <time>2020-12-06T07:46:50.282000+00:00</time>
      </trkpt>
      <trkpt lat="47.27181" lon="-1.41924">
        <ele>4</ele>
        <time>2020-12-06T07:46:51.278000+00:00</time>
      </trkpt>
      <trkpt lat="0" lon="0">
        <time>2020-12-06T07:46:51.283000+00:00</time>
      </trkpt>
      <trkpt lat="0" lon="0">
        <time>2020-12-06T07:46:51.292000+00:00</time>
      </trkpt>
      <trkpt lat="0" lon="0">
        <time>2020-12-06T07:46:51.295000+00:00</time>
      </trkpt>
      <trkpt lat="47.27177" lon="-1.41931">
        <ele>4</ele>
        <time>2020-12-06T07:46:52.271000+00:00</time>
      </trkpt>
      <trkpt lat="0" lon="0">
        <time>2020-12-06T07:46:52.277000+00:00</time>
      </trkpt>
      <trkpt lat="0" lon="0">
        <time>2020-12-06T07:46:52.281000+00:00</time>
      </trkpt>
      <trkpt lat="0" lon="0">
        <time>2020-12-06T07:46:52.282000+00:00</time>
      </trkpt>
      <trkpt lat="47.27172" lon="-1.41939">
        <ele>4</ele>
        <time>2020-12-06T07:46:53.245000+00:00</time>
      </trkpt>
      <trkpt lat="0" lon="0">
        <time>2020-12-06T07:46:53.250000+00:00</time>
      </trkpt>
      <trkpt lat="0" lon="0">
        <time>2020-12-06T07:46:53.259000+00:00</time>
      </trkpt>
      <trkpt lat="0" lon="0">
        <time>2020-12-06T07:46:53.261000+00:00</time>
      </trkpt>
      <trkpt lat="47.27168" lon="-1.41946">
        <ele>4</ele>
        <time>2020-12-06T07:46:54.253000+00:00</time>
      </trkpt>
      <trkpt lat="0" lon="0">
        <time>2020-12-06T07:46:54.265000+00:00</time>
      </trkpt>
      <trkpt lat="0" lon="0">
        <time>2020-12-06T07:46:54.274000+00:00</time>
      </trkpt>
      <trkpt lat="0" lon="0">
        <time>2020-12-06T07:46:54.277000+00:00</time>
      </trkpt>
      <trkpt lat="47.27164" lon="-1.41953">
        <ele>4</ele>
        <time>2020-12-06T07:46:55.248000+00:00</time>
      </trkpt>
      <trkpt lat="0" lon="0">
        <time>2020-12-06T07:46:55.263000+00:00</time>
      </trkpt>
      <trkpt lat="0" lon="0">
        <time>2020-12-06T07:46:55.273000+00:00</time>
      </trkpt>
      <trkpt lat="0" lon="0">
        <time>2020-12-06T07:46:55.275000+00:00</time>
      </trkpt>
      <trkpt lat="47.27159" lon="-1.4196">
        <ele>4</ele>
        <time>2020-12-06T07:46:56.244000+00:00</time>
      </trkpt>
      <trkpt lat="0" lon="0">
        <time>2020-12-06T07:46:56.254000+00:00</time>
      </trkpt>
      <trkpt lat="0" lon="0">
        <time>2020-12-06T07:46:56.262000+00:00</time>
      </trkpt>
      <trkpt lat="0" lon="0">
        <time>2020-12-06T07:46:56.264000+00:00</time>
      </trkpt>
      <trkpt lat="47.27155" lon="-1.41967">
        <ele>4</ele>
        <time>2020-12-06T07:46:57.250000+00:00</time>
      </trkpt>
      <trkpt lat="0" lon="0">
        <time>2020-12-06T07:46:57.262000+00:00</time>
      </trkpt>
      <trkpt lat="0" lon="0">
        <time>2020-12-06T07:46:57.269000+00:00</time>
      </trkpt>
      <trkpt lat="0" lon="0">
        <time>2020-12-06T07:46:57.271000+00:00</time>
      </trkpt>
      <trkpt lat="47.27151" lon="-1.41975">
        <ele>4</ele>
        <time>2020-12-06T07:46:58.238000+00:00</time>
      </trkpt>
      <trkpt lat="0" lon="0">
        <time>2020-12-06T07:46:58.248000+00:00</time>
      </trkpt>
      <trkpt lat="0" lon="0">
        <time>2020-12-06T07:46:58.255000+00:00</time>
      </trkpt>
      <trkpt lat="0" lon="0">
        <time>2020-12-06T07:46:58.259000+00:00</time>
      </trkpt>
      <trkpt lat="47.27147" lon="-1.41982">
        <ele>4</ele>
        <time>2020-12-06T07:46:59.257000+00:00</time>
      </trkpt>
      <trkpt lat="0" lon="0">
        <time>2020-12-06T07:46:59.270000+00:00</time>
      </trkpt>
      <trkpt lat="0" lon="0">
        <time>2020-12-06T07:46:59.274000+00:00</time>
      </trkpt>
      <trkpt lat="0" lon="0">
        <time>2020-12-06T07:46:59.275000+00:00</time>
      </trkpt>
      <trkpt lat="47.27142" lon="-1.4199">
        <ele>4</ele>
        <time>2020-12-06T07:47:00.251000+00:00</time>
      </trkpt>
      <trkpt lat="0" lon="0">
        <time>2020-12-06T07:47:00.263000+00:00</time>
      </trkpt>
      <trkpt lat="0" lon="0">
        <time>2020-12-06T07:47:00.277000+00:00</time>
      </trkpt>
      <trkpt lat="0" lon="0">
        <time>2020-12-06T07:47:00.281000+00:00</time>
      </trkpt>
      <trkpt lat="47.27138" lon="-1.41998">
        <ele>4</ele>
        <time>2020-12-06T07:47:01.289000+00:00</time>
      </trkpt>
      <trkpt lat="0" lon="0">
        <time>2020-12-06T07:47:01.298000+00:00</time>
      </trkpt>
      <trkpt lat="0" lon="0">
        <time>2020-12-06T07:47:01.302000+00:00</time>
      </trkpt>
      <trkpt lat="0" lon="0">
        <time>2020-12-06T07:47:01.304000+00:00</time>
      </trkpt>
      <trkpt lat="47.27134" lon="-1.42005">
        <ele>4</ele>
        <time>2020-12-06T07:47:02.248000+00:00</time>
      </trkpt>
      <trkpt lat="0" lon="0">
        <time>2020-12-06T07:47:02.251000+00:00</time>
      </trkpt>
      <trkpt lat="0" lon="0">
        <time>2020-12-06T07:47:02.258000+00:00</time>
      </trkpt>
      <trkpt lat="0" lon="0">
        <time>2020-12-06T07:47:02.261000+00:00</time>
      </trkpt>
      <trkpt lat="47.2713" lon="-1.42012">
        <ele>4</ele>
        <time>2020-12-06T07:47:03.197000+00:00</time>
      </trkpt>
      <trkpt lat="0" lon="0">
        <time>2020-12-06T07:47:03.205000+00:00</time>
      </trkpt>
      <trkpt lat="0" lon="0">
        <time>2020-12-06T07:47:03.211000+00:00</time>
      </trkpt>
      <trkpt lat="0" lon="0">
        <time>2020-12-06T07:47:03.217000+00:00</time>
      </trkpt>
      <trkpt lat="47.27126" lon="-1.4202">
        <ele>4</ele>
        <time>2020-12-06T07:47:04.200000+00:00</time>
      </trkpt>
      <trkpt lat="0" lon="0">
        <time>2020-12-06T07:47:04.217000+00:00</time>
      </trkpt>
      <trkpt lat="0" lon="0">
        <time>2020-12-06T07:47:04.223000+00:00</time>
      </trkpt>
      <trkpt lat="0" lon="0">
        <time>2020-12-06T07:47:04.225000+00:00</time>
      </trkpt>
      <trkpt lat="47.27122" lon="-1.42027">
        <ele>4</ele>
        <time>2020-12-06T07:47:05.191000+00:00</time>
      </trkpt>
      <trkpt lat="0" lon="0">
        <time>2020-12-06T07:47:05.194000+00:00</time>
      </trkpt>
      <trkpt lat="0" lon="0">
        <time>2020-12-06T07:47:05.209000+00:00</time>
      </trkpt>
      <trkpt lat="0" lon="0">
        <time>2020-12-06T07:47:05.215000+00:00</time>
      </trkpt>
      <trkpt lat="47.27118" lon="-1.42034">
        <ele>4</ele>
        <time>2020-12-06T07:47:06.255000+00:00</time>
      </trkpt>
      <trkpt lat="0" lon="0">
        <time>2020-12-06T07:47:06.266000+00:00</time>
      </trkpt>
      <trkpt lat="0" lon="0">
        <time>2020-12-06T07:47:06.270000+00:00</time>
      </trkpt>
      <trkpt lat="0" lon="0">
        <time>2020-12-06T07:47:06.276000+00:00</time>
      </trkpt>
      <trkpt lat="47.27113" lon="-1.42041">
        <ele>4</ele>
        <time>2020-12-06T07:47:07.256000+00:00</time>
      </trkpt>
      <trkpt lat="0" lon="0">
        <time>2020-12-06T07:47:07.259000+00:00</time>
      </trkpt>
      <trkpt lat="0" lon="0">
        <time>2020-12-06T07:47:07.269000+00:00</time>
      </trkpt>
      <trkpt lat="0" lon="0">
        <time>2020-12-06T07:47:07.270000+00:00</time>
      </trkpt>
      <trkpt lat="47.27109" lon="-1.42048">
        <ele>4</ele>
        <time>2020-12-06T07:47:08.269000+00:00</time>
      </trkpt>
      <trkpt lat="0" lon="0">
        <time>2020-12-06T07:47:08.272000+00:00</time>
      </trkpt>
      <trkpt lat="0" lon="0">
        <time>2020-12-06T07:47:08.277000+00:00</time>
      </trkpt>
      <trkpt lat="0" lon="0">
        <time>2020-12-06T07:47:08.279000+00:00</time>
      </trkpt>
      <trkpt lat="47.27104" lon="-1.42055">
        <ele>4</ele>
        <time>2020-12-06T07:47:09.253000+00:00</time>
      </trkpt>
      <trkpt lat="0" lon="0">
        <time>2020-12-06T07:47:09.259000+00:00</time>
      </trkpt>
      <trkpt lat="0" lon="0">
        <time>2020-12-06T07:47:09.263000+00:00</time>
      </trkpt>
      <trkpt lat="0" lon="0">
        <time>2020-12-06T07:47:09.265000+00:00</time>
      </trkpt>
      <trkpt lat="47.271" lon="-1.42061">
        <ele>5</ele>
        <time>2020-12-06T07:47:10.165000+00:00</time>
      </trkpt>
      <trkpt lat="0" lon="0">
        <time>2020-12-06T07:47:10.178000+00:00</time>
      </trkpt>
      <trkpt lat="0" lon="0">
        <time>2020-12-06T07:47:10.196000+00:00</time>
      </trkpt>
      <trkpt lat="0" lon="0">
        <time>2020-12-06T07:47:10.201000+00:00</time>
      </trkpt>
      <trkpt lat="47.27096" lon="-1.42068">
        <ele>5</ele>
        <time>2020-12-06T07:47:11.227000+00:00</time>
      </trkpt>
      <trkpt lat="0" lon="0">
        <time>2020-12-06T07:47:11.236000+00:00</time>
      </trkpt>
      <trkpt lat="0" lon="0">
        <time>2020-12-06T07:47:11.241000+00:00</time>
      </trkpt>
      <trkpt lat="0" lon="0">
        <time>2020-12-06T07:47:11.243000+00:00</time>
      </trkpt>
      <trkpt lat="47.27091" lon="-1.42075">
        <ele>5</ele>
        <time>2020-12-06T07:47:12.235000+00:00</time>
      </trkpt>
      <trkpt lat="0" lon="0">
        <time>2020-12-06T07:47:12.241000+00:00</time>
      </trkpt>
      <trkpt lat="0" lon="0">
        <time>2020-12-06T07:47:12.247000+00:00</time>
      </trkpt>
      <trkpt lat="0" lon="0">
        <time>2020-12-06T07:47:12.249000+00:00</time>
      </trkpt>
      <trkpt lat="47.27087" lon="-1.42081">
        <ele>5</ele>
        <time>2020-12-06T07:47:13.237000+00:00</time>
      </trkpt>
      <trkpt lat="0" lon="0">
        <time>2020-12-06T07:47:13.240000+00:00</time>
      </trkpt>
      <trkpt lat="0" lon="0">
        <time>2020-12-06T07:47:13.246000+00:00</time>
      </trkpt>
      <trkpt lat="0" lon="0">
        <time>2020-12-06T07:47:13.249000+00:00</time>
      </trkpt>
      <trkpt lat="47.27082" lon="-1.42088">
        <ele>5</ele>
        <time>2020-12-06T07:47:14.246000+00:00</time>
      </trkpt>
      <trkpt lat="0" lon="0">
        <time>2020-12-06T07:47:14.253000+00:00</time>
      </trkpt>
      <trkpt lat="0" lon="0">
        <time>2020-12-06T07:47:14.256000+00:00</time>
      </trkpt>
      <trkpt lat="0" lon="0">
        <time>2020-12-06T07:47:14.258000+00:00</time>
      </trkpt>
      <trkpt lat="47.27078" lon="-1.42094">
        <ele>5</ele>
        <time>2020-12-06T07:47:15.242000+00:00</time>
      </trkpt>
      <trkpt lat="0" lon="0">
        <time>2020-12-06T07:47:15.254000+00:00</time>
      </trkpt>
      <trkpt lat="0" lon="0">
        <time>2020-12-06T07:47:15.259000+00:00</time>
      </trkpt>
      <trkpt lat="0" lon="0">
        <time>2020-12-06T07:47:15.261000+00:00</time>
      </trkpt>
      <trkpt lat="47.27074" lon="-1.42101">
        <ele>5</ele>
        <time>2020-12-06T07:47:16.273000+00:00</time>
      </trkpt>
      <trkpt lat="0" lon="0">
        <time>2020-12-06T07:47:16.284000+00:00</time>
      </trkpt>
      <trkpt lat="0" lon="0">
        <time>2020-12-06T07:47:16.288000+00:00</time>
      </trkpt>
      <trkpt lat="0" lon="0">
        <time>2020-12-06T07:47:16.290000+00:00</time>
      </trkpt>
      <trkpt lat="47.2707" lon="-1.42107">
        <ele>5</ele>
        <time>2020-12-06T07:47:17.268000+00:00</time>
      </trkpt>
      <trkpt lat="0" lon="0">
        <time>2020-12-06T07:47:17.274000+00:00</time>
      </trkpt>
      <trkpt lat="0" lon="0">
        <time>2020-12-06T07:47:17.280000+00:00</time>
      </trkpt>
      <trkpt lat="0" lon="0">
        <time>2020-12-06T07:47:17.285000+00:00</time>
      </trkpt>
      <trkpt lat="47.27066" lon="-1.42114">
        <ele>4</ele>
        <time>2020-12-06T07:47:18.275000+00:00</time>
      </trkpt>
      <trkpt lat="0" lon="0">
        <time>2020-12-06T07:47:18.292000+00:00</time>
      </trkpt>
      <trkpt lat="0" lon="0">
        <time>2020-12-06T07:47:18.296000+00:00</time>
      </trkpt>
      <trkpt lat="0" lon="0">
        <time>2020-12-06T07:47:18.301000+00:00</time>
      </trkpt>
      <trkpt lat="47.27062" lon="-1.42121">
        <ele>4</ele>
        <time>2020-12-06T07:47:19.267000+00:00</time>
      </trkpt>
      <trkpt lat="0" lon="0">
        <time>2020-12-06T07:47:19.273000+00:00</time>
      </trkpt>
      <trkpt lat="0" lon="0">
        <time>2020-12-06T07:47:19.278000+00:00</time>
      </trkpt>
      <trkpt lat="0" lon="0">
        <time>2020-12-06T07:47:19.280000+00:00</time>
      </trkpt>
      <trkpt lat="47.27058" lon="-1.42128">
        <ele>4</ele>
        <time>2020-12-06T07:47:20.248000+00:00</time>
      </trkpt>
      <trkpt lat="0" lon="0">
        <time>2020-12-06T07:47:20.264000+00:00</time>
      </trkpt>
      <trkpt lat="0" lon="0">
        <time>2020-12-06T07:47:20.268000+00:00</time>
      </trkpt>
      <trkpt lat="0" lon="0">
        <time>2020-12-06T07:47:20.274000+00:00</time>
      </trkpt>
      <trkpt lat="47.27054" lon="-1.42135">
        <ele>4</ele>
        <time>2020-12-06T07:47:21.236000+00:00</time>
      </trkpt>
      <trkpt lat="0" lon="0">
        <time>2020-12-06T07:47:21.250000+00:00</time>
      </trkpt>
      <trkpt lat="0" lon="0">
        <time>2020-12-06T07:47:21.258000+00:00</time>
      </trkpt>
      <trkpt lat="0" lon="0">
        <time>2020-12-06T07:47:21.266000+00:00</time>
      </trkpt>
      <trkpt lat="47.27051" lon="-1.42142">
        <ele>3</ele>
        <time>2020-12-06T07:47:22.253000+00:00</time>
      </trkpt>
      <trkpt lat="0" lon="0">
        <time>2020-12-06T07:47:22.268000+00:00</time>
      </trkpt>
      <trkpt lat="0" lon="0">
        <time>2020-12-06T07:47:22.275000+00:00</time>
      </trkpt>
      <trkpt lat="0" lon="0">
        <time>2020-12-06T07:47:22.278000+00:00</time>
      </trkpt>
      <trkpt lat="47.27047" lon="-1.42149">
        <ele>3</ele>
        <time>2020-12-06T07:47:23.244000+00:00</time>
      </trkpt>
      <trkpt lat="0" lon="0">
        <time>2020-12-06T07:47:23.252000+00:00</time>
      </trkpt>
      <trkpt lat="0" lon="0">
        <time>2020-12-06T07:47:23.263000+00:00</time>
      </trkpt>
      <trkpt lat="0" lon="0">
        <time>2020-12-06T07:47:23.265000+00:00</time>
      </trkpt>
      <trkpt lat="47.27043" lon="-1.42156">
        <ele>3</ele>
        <time>2020-12-06T07:47:24.256000+00:00</time>
      </trkpt>
      <trkpt lat="0" lon="0">
        <time>2020-12-06T07:47:24.270000+00:00</time>
      </trkpt>
      <trkpt lat="0" lon="0">
        <time>2020-12-06T07:47:24.274000+00:00</time>
      </trkpt>
      <trkpt lat="0" lon="0">
        <time>2020-12-06T07:47:24.277000+00:00</time>
      </trkpt>
      <trkpt lat="47.27039" lon="-1.42163">
        <ele>3</ele>
        <time>2020-12-06T07:47:25.243000+00:00</time>
      </trkpt>
      <trkpt lat="0" lon="0">
        <time>2020-12-06T07:47:25.249000+00:00</time>
      </trkpt>
      <trkpt lat="0" lon="0">
        <time>2020-12-06T07:47:25.254000+00:00</time>
      </trkpt>
      <trkpt lat="0" lon="0">
        <time>2020-12-06T07:47:25.256000+00:00</time>
      </trkpt>
      <trkpt lat="47.27035" lon="-1.4217">
        <ele>2</ele>
        <time>2020-12-06T07:47:26.237000+00:00</time>
      </trkpt>
      <trkpt lat="0" lon="0">
        <time>2020-12-06T07:47:26.249000+00:00</time>
      </trkpt>
      <trkpt lat="0" lon="0">
        <time>2020-12-06T07:47:26.255000+00:00</time>
      </trkpt>
      <trkpt lat="0" lon="0">
        <time>2020-12-06T07:47:26.259000+00:00</time>
      </trkpt>
      <trkpt lat="47.27031" lon="-1.42178">
        <ele>2</ele>
        <time>2020-12-06T07:47:27.279000+00:00</time>
      </trkpt>
      <trkpt lat="0" lon="0">
        <time>2020-12-06T07:47:27.284000+00:00</time>
      </trkpt>
      <trkpt lat="0" lon="0">
        <time>2020-12-06T07:47:27.288000+00:00</time>
      </trkpt>
      <trkpt lat="0" lon="0">
        <time>2020-12-06T07:47:27.291000+00:00</time>
      </trkpt>
      <trkpt lat="47.27027" lon="-1.42185">
        <ele>2</ele>
        <time>2020-12-06T07:47:28.286000+00:00</time>
      </trkpt>
      <trkpt lat="0" lon="0">
        <time>2020-12-06T07:47:28.290000+00:00</time>
      </trkpt>
      <trkpt lat="0" lon="0">
        <time>2020-12-06T07:47:28.298000+00:00</time>
      </trkpt>
      <trkpt lat="0" lon="0">
        <time>2020-12-06T07:47:28.301000+00:00</time>
      </trkpt>
      <trkpt lat="47.27023" lon="-1.42192">
        <ele>2</ele>
        <time>2020-12-06T07:47:29.186000+00:00</time>
      </trkpt>
      <trkpt lat="0" lon="0">
        <time>2020-12-06T07:47:29.194000+00:00</time>
      </trkpt>
      <trkpt lat="0" lon="0">
        <time>2020-12-06T07:47:29.195000+00:00</time>
      </trkpt>
      <trkpt lat="47.27019" lon="-1.42199">
        <ele>2</ele>
        <time>2020-12-06T07:47:30.280000+00:00</time>
      </trkpt>
      <trkpt lat="0" lon="0">
        <time>2020-12-06T07:47:30.290000+00:00</time>
      </trkpt>
      <trkpt lat="0" lon="0">
        <time>2020-12-06T07:47:30.295000+00:00</time>
      </trkpt>
      <trkpt lat="0" lon="0">
        <time>2020-12-06T07:47:30.298000+00:00</time>
      </trkpt>
      <trkpt lat="47.27015" lon="-1.42206">
        <ele>2</ele>
        <time>2020-12-06T07:47:31.262000+00:00</time>
      </trkpt>
      <trkpt lat="0" lon="0">
        <time>2020-12-06T07:47:31.280000+00:00</time>
      </trkpt>
      <trkpt lat="0" lon="0">
        <time>2020-12-06T07:47:31.284000+00:00</time>
      </trkpt>
      <trkpt lat="0" lon="0">
        <time>2020-12-06T07:47:31.286000+00:00</time>
      </trkpt>
      <trkpt lat="47.27011" lon="-1.42214">
        <ele>2</ele>
        <time>2020-12-06T07:47:32.276000+00:00</time>
      </trkpt>
      <trkpt lat="0" lon="0">
        <time>2020-12-06T07:47:32.281000+00:00</time>
      </trkpt>
      <trkpt lat="0" lon="0">
        <time>2020-12-06T07:47:32.286000+00:00</time>
      </trkpt>
      <trkpt lat="0" lon="0">
        <time>2020-12-06T07:47:32.288000+00:00</time>
      </trkpt>
      <trkpt lat="47.27007" lon="-1.42221">
        <ele>2</ele>
        <time>2020-12-06T07:47:33.214000+00:00</time>
      </trkpt>
      <trkpt lat="0" lon="0">
        <time>2020-12-06T07:47:33.215000+00:00</time>
      </trkpt>
      <trkpt lat="0" lon="0">
        <time>2020-12-06T07:47:33.218000+00:00</time>
      </trkpt>
      <trkpt lat="0" lon="0">
        <time>2020-12-06T07:47:33.219000+00:00</time>
      </trkpt>
      <trkpt lat="47.27003" lon="-1.42228">
        <ele>2</ele>
        <time>2020-12-06T07:47:34.230000+00:00</time>
      </trkpt>
      <trkpt lat="0" lon="0">
        <time>2020-12-06T07:47:34.234000+00:00</time>
      </trkpt>
      <trkpt lat="0" lon="0">
        <time>2020-12-06T07:47:34.246000+00:00</time>
      </trkpt>
      <trkpt lat="0" lon="0">
        <time>2020-12-06T07:47:34.249000+00:00</time>
      </trkpt>
      <trkpt lat="47.26999" lon="-1.42236">
        <ele>2</ele>
        <time>2020-12-06T07:47:35.286000+00:00</time>
      </trkpt>
      <trkpt lat="0" lon="0">
        <time>2020-12-06T07:47:35.300000+00:00</time>
      </trkpt>
      <trkpt lat="0" lon="0">
        <time>2020-12-06T07:47:35.307000+00:00</time>
      </trkpt>
      <trkpt lat="0" lon="0">
        <time>2020-12-06T07:47:35.309000+00:00</time>
      </trkpt>
      <trkpt lat="47.26995" lon="-1.42243">
        <ele>2</ele>
        <time>2020-12-06T07:47:36.246000+00:00</time>
      </trkpt>
      <trkpt lat="0" lon="0">
        <time>2020-12-06T07:47:36.260000+00:00</time>
      </trkpt>
      <trkpt lat="0" lon="0">
        <time>2020-12-06T07:47:36.263000+00:00</time>
      </trkpt>
      <trkpt lat="0" lon="0">
        <time>2020-12-06T07:47:36.268000+00:00</time>
      </trkpt>
      <trkpt lat="47.26991" lon="-1.4225">
        <ele>2</ele>
        <time>2020-12-06T07:47:37.273000+00:00</time>
      </trkpt>
      <trkpt lat="0" lon="0">
        <time>2020-12-06T07:47:37.281000+00:00</time>
      </trkpt>
      <trkpt lat="0" lon="0">
        <time>2020-12-06T07:47:37.286000+00:00</time>
      </trkpt>
      <trkpt lat="0" lon="0">
        <time>2020-12-06T07:47:37.289000+00:00</time>
      </trkpt>
      <trkpt lat="47.26987" lon="-1.42257">
        <ele>2</ele>
        <time>2020-12-06T07:47:38.261000+00:00</time>
      </trkpt>
      <trkpt lat="0" lon="0">
        <time>2020-12-06T07:47:38.269000+00:00</time>
      </trkpt>
      <trkpt lat="0" lon="0">
        <time>2020-12-06T07:47:38.281000+00:00</time>
      </trkpt>
      <trkpt lat="0" lon="0">
        <time>2020-12-06T07:47:38.283000+00:00</time>
      </trkpt>
      <trkpt lat="47.26983" lon="-1.42264">
        <ele>2</ele>
        <time>2020-12-06T07:47:39.245000+00:00</time>
      </trkpt>
      <trkpt lat="0" lon="0">
        <time>2020-12-06T07:47:39.247000+00:00</time>
      </trkpt>
      <trkpt lat="0" lon="0">
        <time>2020-12-06T07:47:39.249000+00:00</time>
      </trkpt>
      <trkpt lat="0" lon="0">
        <time>2020-12-06T07:47:39.250000+00:00</time>
      </trkpt>
      <trkpt lat="47.26979" lon="-1.42271">
        <ele>2</ele>
        <time>2020-12-06T07:47:40.287000+00:00</time>
      </trkpt>
      <trkpt lat="0" lon="0">
        <time>2020-12-06T07:47:40.298000+00:00</time>
      </trkpt>
      <trkpt lat="0" lon="0">
        <time>2020-12-06T07:47:40.302000+00:00</time>
      </trkpt>
      <trkpt lat="0" lon="0">
        <time>2020-12-06T07:47:40.304000+00:00</time>
      </trkpt>
      <trkpt lat="47.26975" lon="-1.42279">
        <ele>2</ele>
        <time>2020-12-06T07:47:41.268000+00:00</time>
      </trkpt>
      <trkpt lat="0" lon="0">
        <time>2020-12-06T07:47:41.279000+00:00</time>
      </trkpt>
      <trkpt lat="0" lon="0">
        <time>2020-12-06T07:47:41.283000+00:00</time>
      </trkpt>
      <trkpt lat="0" lon="0">
        <time>2020-12-06T07:47:41.289000+00:00</time>
      </trkpt>
      <trkpt lat="47.26972" lon="-1.42286">
        <ele>2</ele>
        <time>2020-12-06T07:47:42.239000+00:00</time>
      </trkpt>
      <trkpt lat="0" lon="0">
        <time>2020-12-06T07:47:42.259000+00:00</time>
      </trkpt>
      <trkpt lat="0" lon="0">
        <time>2020-12-06T07:47:42.264000+00:00</time>
      </trkpt>
      <trkpt lat="0" lon="0">
        <time>2020-12-06T07:47:42.266000+00:00</time>
      </trkpt>
      <trkpt lat="47.26968" lon="-1.42293">
        <ele>3</ele>
        <time>2020-12-06T07:47:43.272000+00:00</time>
      </trkpt>
      <trkpt lat="0" lon="0">
        <time>2020-12-06T07:47:43.275000+00:00</time>
      </trkpt>
      <trkpt lat="0" lon="0">
        <time>2020-12-06T07:47:43.279000+00:00</time>
      </trkpt>
      <trkpt lat="0" lon="0">
        <time>2020-12-06T07:47:43.281000+00:00</time>
      </trkpt>
      <trkpt lat="47.26964" lon="-1.42301">
        <ele>3</ele>
        <time>2020-12-06T07:47:44.270000+00:00</time>
      </trkpt>
      <trkpt lat="0" lon="0">
        <time>2020-12-06T07:47:44.278000+00:00</time>
      </trkpt>
      <trkpt lat="0" lon="0">
        <time>2020-12-06T07:47:44.286000+00:00</time>
      </trkpt>
      <trkpt lat="0" lon="0">
        <time>2020-12-06T07:47:44.288000+00:00</time>
      </trkpt>
      <trkpt lat="47.26961" lon="-1.42308">
        <ele>3</ele>
        <time>2020-12-06T07:47:45.254000+00:00</time>
      </trkpt>
      <trkpt lat="0" lon="0">
        <time>2020-12-06T07:47:45.258000+00:00</time>
      </trkpt>
      <trkpt lat="0" lon="0">
        <time>2020-12-06T07:47:45.264000+00:00</time>
      </trkpt>
      <trkpt lat="0" lon="0">
        <time>2020-12-06T07:47:45.273000+00:00</time>
      </trkpt>
      <trkpt lat="47.26957" lon="-1.42315">
        <ele>3</ele>
        <time>2020-12-06T07:47:46.247000+00:00</time>
      </trkpt>
      <trkpt lat="0" lon="0">
        <time>2020-12-06T07:47:46.251000+00:00</time>
      </trkpt>
      <trkpt lat="0" lon="0">
        <time>2020-12-06T07:47:46.256000+00:00</time>
      </trkpt>
      <trkpt lat="0" lon="0">
        <time>2020-12-06T07:47:46.258000+00:00</time>
      </trkpt>
      <trkpt lat="47.26953" lon="-1.42323">
        <ele>3</ele>
        <time>2020-12-06T07:47:47.271000+00:00</time>
      </trkpt>
      <trkpt lat="0" lon="0">
        <time>2020-12-06T07:47:47.298000+00:00</time>
      </trkpt>
      <trkpt lat="0" lon="0">
        <time>2020-12-06T07:47:47.307000+00:00</time>
      </trkpt>
      <trkpt lat="0" lon="0">
        <time>2020-12-06T07:47:47.311000+00:00</time>
      </trkpt>
      <trkpt lat="47.26949" lon="-1.4233">
        <ele>3</ele>
        <time>2020-12-06T07:47:48.254000+00:00</time>
      </trkpt>
      <trkpt lat="0" lon="0">
        <time>2020-12-06T07:47:48.259000+00:00</time>
      </trkpt>
      <trkpt lat="0" lon="0">
        <time>2020-12-06T07:47:48.270000+00:00</time>
      </trkpt>
      <trkpt lat="0" lon="0">
        <time>2020-12-06T07:47:48.277000+00:00</time>
      </trkpt>
      <trkpt lat="47.26946" lon="-1.42338">
        <ele>3</ele>
        <time>2020-12-06T07:47:49.267000+00:00</time>
      </trkpt>
      <trkpt lat="0" lon="0">
        <time>2020-12-06T07:47:49.283000+00:00</time>
      </trkpt>
      <trkpt lat="0" lon="0">
        <time>2020-12-06T07:47:49.290000+00:00</time>
      </trkpt>
      <trkpt lat="0" lon="0">
        <time>2020-12-06T07:47:49.292000+00:00</time>
      </trkpt>
      <trkpt lat="47.26942" lon="-1.42345">
        <ele>3</ele>
        <time>2020-12-06T07:47:50.270000+00:00</time>
      </trkpt>
      <trkpt lat="0" lon="0">
        <time>2020-12-06T07:47:50.280000+00:00</time>
      </trkpt>
      <trkpt lat="0" lon="0">
        <time>2020-12-06T07:47:50.286000+00:00</time>
      </trkpt>
      <trkpt lat="0" lon="0">
        <time>2020-12-06T07:47:50.288000+00:00</time>
      </trkpt>
      <trkpt lat="47.26938" lon="-1.42352">
        <ele>3</ele>
        <time>2020-12-06T07:47:51.242000+00:00</time>
      </trkpt>
      <trkpt lat="0" lon="0">
        <time>2020-12-06T07:47:51.254000+00:00</time>
      </trkpt>
      <trkpt lat="0" lon="0">
        <time>2020-12-06T07:47:51.262000+00:00</time>
      </trkpt>
      <trkpt lat="0" lon="0">
        <time>2020-12-06T07:47:51.268000+00:00</time>
      </trkpt>
      <trkpt lat="47.26935" lon="-1.4236">
        <ele>3</ele>
        <time>2020-12-06T07:47:52.270000+00:00</time>
      </trkpt>
      <trkpt lat="0" lon="0">
        <time>2020-12-06T07:47:52.288000+00:00</time>
      </trkpt>
      <trkpt lat="0" lon="0">
        <time>2020-12-06T07:47:52.294000+00:00</time>
      </trkpt>
      <trkpt lat="0" lon="0">
        <time>2020-12-06T07:47:52.296000+00:00</time>
      </trkpt>
      <trkpt lat="47.26931" lon="-1.42367">
        <ele>3</ele>
        <time>2020-12-06T07:47:53.239000+00:00</time>
      </trkpt>
      <trkpt lat="0" lon="0">
        <time>2020-12-06T07:47:53.242000+00:00</time>
      </trkpt>
      <trkpt lat="0" lon="0">
        <time>2020-12-06T07:47:53.252000+00:00</time>
      </trkpt>
      <trkpt lat="0" lon="0">
        <time>2020-12-06T07:47:53.254000+00:00</time>
      </trkpt>
      <trkpt lat="47.26928" lon="-1.42374">
        <ele>3</ele>
        <time>2020-12-06T07:47:54.262000+00:00</time>
      </trkpt>
      <trkpt lat="0" lon="0">
        <time>2020-12-06T07:47:54.265000+00:00</time>
      </trkpt>
      <trkpt lat="0" lon="0">
        <time>2020-12-06T07:47:54.271000+00:00</time>
      </trkpt>
      <trkpt lat="0" lon="0">
        <time>2020-12-06T07:47:54.274000+00:00</time>
      </trkpt>
      <trkpt lat="47.26924" lon="-1.42381">
        <ele>3</ele>
        <time>2020-12-06T07:47:55.230000+00:00</time>
      </trkpt>
      <trkpt lat="0" lon="0">
        <time>2020-12-06T07:47:55.233000+00:00</time>
      </trkpt>
      <trkpt lat="0" lon="0">
        <time>2020-12-06T07:47:55.237000+00:00</time>
      </trkpt>
      <trkpt lat="0" lon="0">
        <time>2020-12-06T07:47:55.238000+00:00</time>
      </trkpt>
      <trkpt lat="47.2692" lon="-1.42389">
        <ele>3</ele>
        <time>2020-12-06T07:47:56.288000+00:00</time>
      </trkpt>
      <trkpt lat="0" lon="0">
        <time>2020-12-06T07:47:56.301000+00:00</time>
      </trkpt>
      <trkpt lat="0" lon="0">
        <time>2020-12-06T07:47:56.310000+00:00</time>
      </trkpt>
      <trkpt lat="0" lon="0">
        <time>2020-12-06T07:47:56.314000+00:00</time>
      </trkpt>
      <trkpt lat="47.26917" lon="-1.42396">
        <ele>3</ele>
        <time>2020-12-06T07:47:57.278000+00:00</time>
      </trkpt>
      <trkpt lat="0" lon="0">
        <time>2020-12-06T07:47:57.286000+00:00</time>
      </trkpt>
      <trkpt lat="0" lon="0">
        <time>2020-12-06T07:47:57.297000+00:00</time>
      </trkpt>
      <trkpt lat="0" lon="0">
        <time>2020-12-06T07:47:57.300000+00:00</time>
      </trkpt>
      <trkpt lat="47.26913" lon="-1.42403">
        <ele>3</ele>
        <time>2020-12-06T07:47:58.227000+00:00</time>
      </trkpt>
      <trkpt lat="0" lon="0">
        <time>2020-12-06T07:47:58.237000+00:00</time>
      </trkpt>
      <trkpt lat="0" lon="0">
        <time>2020-12-06T07:47:58.244000+00:00</time>
      </trkpt>
      <trkpt lat="0" lon="0">
        <time>2020-12-06T07:47:58.246000+00:00</time>
      </trkpt>
      <trkpt lat="47.2691" lon="-1.42411">
        <ele>3</ele>
        <time>2020-12-06T07:47:59.243000+00:00</time>
      </trkpt>
      <trkpt lat="0" lon="0">
        <time>2020-12-06T07:47:59.263000+00:00</time>
      </trkpt>
      <trkpt lat="0" lon="0">
        <time>2020-12-06T07:47:59.267000+00:00</time>
      </trkpt>
      <trkpt lat="0" lon="0">
        <time>2020-12-06T07:47:59.269000+00:00</time>
      </trkpt>
      <trkpt lat="47.26906" lon="-1.42418">
        <ele>3</ele>
        <time>2020-12-06T07:48:00.258000+00:00</time>
      </trkpt>
      <trkpt lat="0" lon="0">
        <time>2020-12-06T07:48:00.280000+00:00</time>
      </trkpt>
      <trkpt lat="0" lon="0">
        <time>2020-12-06T07:48:00.285000+00:00</time>
      </trkpt>
      <trkpt lat="0" lon="0">
        <time>2020-12-06T07:48:00.290000+00:00</time>
      </trkpt>
      <trkpt lat="47.26903" lon="-1.42425">
        <ele>2</ele>
        <time>2020-12-06T07:48:01.209000+00:00</time>
      </trkpt>
      <trkpt lat="0" lon="0">
        <time>2020-12-06T07:48:01.226000+00:00</time>
      </trkpt>
      <trkpt lat="0" lon="0">
        <time>2020-12-06T07:48:01.230000+00:00</time>
      </trkpt>
      <trkpt lat="0" lon="0">
        <time>2020-12-06T07:48:01.231000+00:00</time>
      </trkpt>
      <trkpt lat="47.26899" lon="-1.42432">
        <ele>2</ele>
        <time>2020-12-06T07:48:02.239000+00:00</time>
      </trkpt>
      <trkpt lat="0" lon="0">
        <time>2020-12-06T07:48:02.263000+00:00</time>
      </trkpt>
      <trkpt lat="0" lon="0">
        <time>2020-12-06T07:48:02.269000+00:00</time>
      </trkpt>
      <trkpt lat="0" lon="0">
        <time>2020-12-06T07:48:02.274000+00:00</time>
      </trkpt>
      <trkpt lat="47.26895" lon="-1.42439">
        <ele>2</ele>
        <time>2020-12-06T07:48:03.278000+00:00</time>
      </trkpt>
      <trkpt lat="0" lon="0">
        <time>2020-12-06T07:48:03.283000+00:00</time>
      </trkpt>
      <trkpt lat="0" lon="0">
        <time>2020-12-06T07:48:03.290000+00:00</time>
      </trkpt>
      <trkpt lat="0" lon="0">
        <time>2020-12-06T07:48:03.292000+00:00</time>
      </trkpt>
      <trkpt lat="47.26891" lon="-1.42446">
        <ele>2</ele>
        <time>2020-12-06T07:48:04.208000+00:00</time>
      </trkpt>
      <trkpt lat="0" lon="0">
        <time>2020-12-06T07:48:04.222000+00:00</time>
      </trkpt>
      <trkpt lat="0" lon="0">
        <time>2020-12-06T07:48:04.226000+00:00</time>
      </trkpt>
      <trkpt lat="0" lon="0">
        <time>2020-12-06T07:48:04.228000+00:00</time>
      </trkpt>
      <trkpt lat="47.26887" lon="-1.42452">
        <ele>2</ele>
        <time>2020-12-06T07:48:05.257000+00:00</time>
      </trkpt>
      <trkpt lat="0" lon="0">
        <time>2020-12-06T07:48:05.280000+00:00</time>
      </trkpt>
      <trkpt lat="0" lon="0">
        <time>2020-12-06T07:48:05.291000+00:00</time>
      </trkpt>
      <trkpt lat="0" lon="0">
        <time>2020-12-06T07:48:05.292000+00:00</time>
      </trkpt>
      <trkpt lat="47.26882" lon="-1.42459">
        <ele>2</ele>
        <time>2020-12-06T07:48:06.276000+00:00</time>
      </trkpt>
      <trkpt lat="0" lon="0">
        <time>2020-12-06T07:48:06.285000+00:00</time>
      </trkpt>
      <trkpt lat="0" lon="0">
        <time>2020-12-06T07:48:06.288000+00:00</time>
      </trkpt>
      <trkpt lat="0" lon="0">
        <time>2020-12-06T07:48:06.290000+00:00</time>
      </trkpt>
      <trkpt lat="47.26878" lon="-1.42466">
        <ele>2</ele>
        <time>2020-12-06T07:48:07.238000+00:00</time>
      </trkpt>
      <trkpt lat="0" lon="0">
        <time>2020-12-06T07:48:07.239000+00:00</time>
      </trkpt>
      <trkpt lat="0" lon="0">
        <time>2020-12-06T07:48:07.241000+00:00</time>
      </trkpt>
      <trkpt lat="0" lon="0">
        <time>2020-12-06T07:48:07.242000+00:00</time>
      </trkpt>
      <trkpt lat="47.26874" lon="-1.42473">
        <ele>2</ele>
        <time>2020-12-06T07:48:08.277000+00:00</time>
      </trkpt>
      <trkpt lat="0" lon="0">
        <time>2020-12-06T07:48:08.298000+00:00</time>
      </trkpt>
      <trkpt lat="0" lon="0">
        <time>2020-12-06T07:48:08.304000+00:00</time>
      </trkpt>
      <trkpt lat="0" lon="0">
        <time>2020-12-06T07:48:08.308000+00:00</time>
      </trkpt>
      <trkpt lat="47.2687" lon="-1.4248">
        <ele>2</ele>
        <time>2020-12-06T07:48:09.263000+00:00</time>
      </trkpt>
      <trkpt lat="0" lon="0">
        <time>2020-12-06T07:48:09.276000+00:00</time>
      </trkpt>
      <trkpt lat="0" lon="0">
        <time>2020-12-06T07:48:09.281000+00:00</time>
      </trkpt>
      <trkpt lat="0" lon="0">
        <time>2020-12-06T07:48:09.283000+00:00</time>
      </trkpt>
      <trkpt lat="47.26865" lon="-1.42488">
        <ele>2</ele>
        <time>2020-12-06T07:48:10.263000+00:00</time>
      </trkpt>
      <trkpt lat="0" lon="0">
        <time>2020-12-06T07:48:10.271000+00:00</time>
      </trkpt>
      <trkpt lat="0" lon="0">
        <time>2020-12-06T07:48:10.278000+00:00</time>
      </trkpt>
      <trkpt lat="0" lon="0">
        <time>2020-12-06T07:48:10.280000+00:00</time>
      </trkpt>
      <trkpt lat="47.26861" lon="-1.42495">
        <ele>2</ele>
        <time>2020-12-06T07:48:11.254000+00:00</time>
      </trkpt>
      <trkpt lat="0" lon="0">
        <time>2020-12-06T07:48:11.258000+00:00</time>
      </trkpt>
      <trkpt lat="0" lon="0">
        <time>2020-12-06T07:48:11.264000+00:00</time>
      </trkpt>
      <trkpt lat="0" lon="0">
        <time>2020-12-06T07:48:11.266000+00:00</time>
      </trkpt>
      <trkpt lat="47.26856" lon="-1.42502">
        <ele>2</ele>
        <time>2020-12-06T07:48:12.288000+00:00</time>
      </trkpt>
      <trkpt lat="0" lon="0">
        <time>2020-12-06T07:48:12.291000+00:00</time>
      </trkpt>
      <trkpt lat="0" lon="0">
        <time>2020-12-06T07:48:12.296000+00:00</time>
      </trkpt>
      <trkpt lat="0" lon="0">
        <time>2020-12-06T07:48:12.298000+00:00</time>
      </trkpt>
      <trkpt lat="47.26852" lon="-1.42509">
        <ele>2</ele>
        <time>2020-12-06T07:48:13.210000+00:00</time>
      </trkpt>
      <trkpt lat="0" lon="0">
        <time>2020-12-06T07:48:13.220000+00:00</time>
      </trkpt>
      <trkpt lat="0" lon="0">
        <time>2020-12-06T07:48:13.225000+00:00</time>
      </trkpt>
      <trkpt lat="0" lon="0">
        <time>2020-12-06T07:48:13.228000+00:00</time>
      </trkpt>
      <trkpt lat="47.26848" lon="-1.42517">
        <ele>2</ele>
        <time>2020-12-06T07:48:14.278000+00:00</time>
      </trkpt>
      <trkpt lat="0" lon="0">
        <time>2020-12-06T07:48:14.290000+00:00</time>
      </trkpt>
      <trkpt lat="0" lon="0">
        <time>2020-12-06T07:48:14.298000+00:00</time>
      </trkpt>
      <trkpt lat="0" lon="0">
        <time>2020-12-06T07:48:14.307000+00:00</time>
      </trkpt>
      <trkpt lat="47.26844" lon="-1.42524">
        <ele>2</ele>
        <time>2020-12-06T07:48:15.270000+00:00</time>
      </trkpt>
      <trkpt lat="0" lon="0">
        <time>2020-12-06T07:48:15.279000+00:00</time>
      </trkpt>
      <trkpt lat="0" lon="0">
        <time>2020-12-06T07:48:15.282000+00:00</time>
      </trkpt>
      <trkpt lat="0" lon="0">
        <time>2020-12-06T07:48:15.284000+00:00</time>
      </trkpt>
      <trkpt lat="47.2684" lon="-1.42532">
        <ele>2</ele>
        <time>2020-12-06T07:48:16.271000+00:00</time>
      </trkpt>
      <trkpt lat="0" lon="0">
        <time>2020-12-06T07:48:16.277000+00:00</time>
      </trkpt>
      <trkpt lat="0" lon="0">
        <time>2020-12-06T07:48:16.282000+00:00</time>
      </trkpt>
      <trkpt lat="0" lon="0">
        <time>2020-12-06T07:48:16.290000+00:00</time>
      </trkpt>
      <trkpt lat="47.26836" lon="-1.42539">
        <ele>2</ele>
        <time>2020-12-06T07:48:17.284000+00:00</time>
      </trkpt>
      <trkpt lat="0" lon="0">
        <time>2020-12-06T07:48:17.290000+00:00</time>
      </trkpt>
      <trkpt lat="0" lon="0">
        <time>2020-12-06T07:48:17.294000+00:00</time>
      </trkpt>
      <trkpt lat="0" lon="0">
        <time>2020-12-06T07:48:17.296000+00:00</time>
      </trkpt>
      <trkpt lat="47.26832" lon="-1.42547">
        <ele>2</ele>
        <time>2020-12-06T07:48:18.265000+00:00</time>
      </trkpt>
      <trkpt lat="0" lon="0">
        <time>2020-12-06T07:48:18.268000+00:00</time>
      </trkpt>
      <trkpt lat="0" lon="0">
        <time>2020-12-06T07:48:18.271000+00:00</time>
      </trkpt>
      <trkpt lat="0" lon="0">
        <time>2020-12-06T07:48:18.274000+00:00</time>
      </trkpt>
      <trkpt lat="47.26828" lon="-1.42555">
        <ele>2</ele>
        <time>2020-12-06T07:48:19.297000+00:00</time>
      </trkpt>
      <trkpt lat="0" lon="0">
        <time>2020-12-06T07:48:19.308000+00:00</time>
      </trkpt>
      <trkpt lat="0" lon="0">
        <time>2020-12-06T07:48:19.311000+00:00</time>
      </trkpt>
      <trkpt lat="0" lon="0">
        <time>2020-12-06T07:48:19.313000+00:00</time>
      </trkpt>
      <trkpt lat="47.26824" lon="-1.42562">
        <ele>2</ele>
        <time>2020-12-06T07:48:20.279000+00:00</time>
      </trkpt>
      <trkpt lat="0" lon="0">
        <time>2020-12-06T07:48:20.298000+00:00</time>
      </trkpt>
      <trkpt lat="0" lon="0">
        <time>2020-12-06T07:48:20.307000+00:00</time>
      </trkpt>
      <trkpt lat="0" lon="0">
        <time>2020-12-06T07:48:20.310000+00:00</time>
      </trkpt>
      <trkpt lat="47.2682" lon="-1.4257">
        <ele>2</ele>
        <time>2020-12-06T07:48:21.263000+00:00</time>
      </trkpt>
      <trkpt lat="0" lon="0">
        <time>2020-12-06T07:48:21.266000+00:00</time>
      </trkpt>
      <trkpt lat="0" lon="0">
        <time>2020-12-06T07:48:21.270000+00:00</time>
      </trkpt>
      <trkpt lat="0" lon="0">
        <time>2020-12-06T07:48:21.272000+00:00</time>
      </trkpt>
      <trkpt lat="47.26817" lon="-1.42577">
        <ele>2</ele>
        <time>2020-12-06T07:48:22.299000+00:00</time>
      </trkpt>
      <trkpt lat="0" lon="0">
        <time>2020-12-06T07:48:22.312000+00:00</time>
      </trkpt>
      <trkpt lat="0" lon="0">
        <time>2020-12-06T07:48:22.324000+00:00</time>
      </trkpt>
      <trkpt lat="0" lon="0">
        <time>2020-12-06T07:48:22.326000+00:00</time>
      </trkpt>
      <trkpt lat="47.26813" lon="-1.42585">
        <ele>2</ele>
        <time>2020-12-06T07:48:23.232000+00:00</time>
      </trkpt>
      <trkpt lat="0" lon="0">
        <time>2020-12-06T07:48:23.244000+00:00</time>
      </trkpt>
      <trkpt lat="0" lon="0">
        <time>2020-12-06T07:48:23.251000+00:00</time>
      </trkpt>
      <trkpt lat="0" lon="0">
        <time>2020-12-06T07:48:23.254000+00:00</time>
      </trkpt>
      <trkpt lat="47.2681" lon="-1.42592">
        <ele>2</ele>
        <time>2020-12-06T07:48:24.218000+00:00</time>
      </trkpt>
      <trkpt lat="0" lon="0">
        <time>2020-12-06T07:48:24.228000+00:00</time>
      </trkpt>
      <trkpt lat="0" lon="0">
        <time>2020-12-06T07:48:24.235000+00:00</time>
      </trkpt>
      <trkpt lat="0" lon="0">
        <time>2020-12-06T07:48:24.239000+00:00</time>
      </trkpt>
      <trkpt lat="47.26807" lon="-1.426">
        <ele>2</ele>
        <time>2020-12-06T07:48:25.255000+00:00</time>
      </trkpt>
      <trkpt lat="0" lon="0">
        <time>2020-12-06T07:48:25.266000+00:00</time>
      </trkpt>
      <trkpt lat="0" lon="0">
        <time>2020-12-06T07:48:25.270000+00:00</time>
      </trkpt>
      <trkpt lat="0" lon="0">
        <time>2020-12-06T07:48:25.271000+00:00</time>
      </trkpt>
      <trkpt lat="47.26803" lon="-1.42608">
        <ele>2</ele>
        <time>2020-12-06T07:48:26.231000+00:00</time>
      </trkpt>
      <trkpt lat="0" lon="0">
        <time>2020-12-06T07:48:26.238000+00:00</time>
      </trkpt>
      <trkpt lat="0" lon="0">
        <time>2020-12-06T07:48:26.247000+00:00</time>
      </trkpt>
      <trkpt lat="0" lon="0">
        <time>2020-12-06T07:48:26.250000+00:00</time>
      </trkpt>
      <trkpt lat="47.268" lon="-1.42616">
        <ele>2</ele>
        <time>2020-12-06T07:48:27.250000+00:00</time>
      </trkpt>
      <trkpt lat="0" lon="0">
        <time>2020-12-06T07:48:27.263000+00:00</time>
      </trkpt>
      <trkpt lat="0" lon="0">
        <time>2020-12-06T07:48:27.272000+00:00</time>
      </trkpt>
      <trkpt lat="0" lon="0">
        <time>2020-12-06T07:48:27.274000+00:00</time>
      </trkpt>
      <trkpt lat="47.26797" lon="-1.42624">
        <ele>2</ele>
        <time>2020-12-06T07:48:28.182000+00:00</time>
      </trkpt>
      <trkpt lat="0" lon="0">
        <time>2020-12-06T07:48:28.189000+00:00</time>
      </trkpt>
      <trkpt lat="0" lon="0">
        <time>2020-12-06T07:48:28.194000+00:00</time>
      </trkpt>
      <trkpt lat="0" lon="0">
        <time>2020-12-06T07:48:28.195000+00:00</time>
      </trkpt>
      <trkpt lat="47.26794" lon="-1.42632">
        <ele>2</ele>
        <time>2020-12-06T07:48:29.234000+00:00</time>
      </trkpt>
      <trkpt lat="0" lon="0">
        <time>2020-12-06T07:48:29.242000+00:00</time>
      </trkpt>
      <trkpt lat="0" lon="0">
        <time>2020-12-06T07:48:29.247000+00:00</time>
      </trkpt>
      <trkpt lat="0" lon="0">
        <time>2020-12-06T07:48:29.249000+00:00</time>
      </trkpt>
      <trkpt lat="47.26791" lon="-1.4264">
        <ele>2</ele>
        <time>2020-12-06T07:48:30.245000+00:00</time>
      </trkpt>
      <trkpt lat="0" lon="0">
        <time>2020-12-06T07:48:30.267000+00:00</time>
      </trkpt>
      <trkpt lat="0" lon="0">
        <time>2020-12-06T07:48:30.273000+00:00</time>
      </trkpt>
      <trkpt lat="0" lon="0">
        <time>2020-12-06T07:48:30.276000+00:00</time>
      </trkpt>
      <trkpt lat="47.26788" lon="-1.42648">
        <ele>2</ele>
        <time>2020-12-06T07:48:31.272000+00:00</time>
      </trkpt>
      <trkpt lat="0" lon="0">
        <time>2020-12-06T07:48:31.285000+00:00</time>
      </trkpt>
      <trkpt lat="0" lon="0">
        <time>2020-12-06T07:48:31.290000+00:00</time>
      </trkpt>
      <trkpt lat="0" lon="0">
        <time>2020-12-06T07:48:31.293000+00:00</time>
      </trkpt>
      <trkpt lat="47.26785" lon="-1.42657">
        <ele>2</ele>
        <time>2020-12-06T07:48:32.261000+00:00</time>
      </trkpt>
      <trkpt lat="0" lon="0">
        <time>2020-12-06T07:48:32.280000+00:00</time>
      </trkpt>
      <trkpt lat="0" lon="0">
        <time>2020-12-06T07:48:32.289000+00:00</time>
      </trkpt>
      <trkpt lat="0" lon="0">
        <time>2020-12-06T07:48:32.292000+00:00</time>
      </trkpt>
      <trkpt lat="47.26782" lon="-1.42665">
        <ele>2</ele>
        <time>2020-12-06T07:48:33.283000+00:00</time>
      </trkpt>
      <trkpt lat="0" lon="0">
        <time>2020-12-06T07:48:33.296000+00:00</time>
      </trkpt>
      <trkpt lat="0" lon="0">
        <time>2020-12-06T07:48:33.301000+00:00</time>
      </trkpt>
      <trkpt lat="0" lon="0">
        <time>2020-12-06T07:48:33.305000+00:00</time>
      </trkpt>
      <trkpt lat="47.26779" lon="-1.42673">
        <ele>2</ele>
        <time>2020-12-06T07:48:34.238000+00:00</time>
      </trkpt>
      <trkpt lat="0" lon="0">
        <time>2020-12-06T07:48:34.249000+00:00</time>
      </trkpt>
      <trkpt lat="0" lon="0">
        <time>2020-12-06T07:48:34.261000+00:00</time>
      </trkpt>
      <trkpt lat="0" lon="0">
        <time>2020-12-06T07:48:34.263000+00:00</time>
      </trkpt>
      <trkpt lat="47.26776" lon="-1.42681">
        <ele>1</ele>
        <time>2020-12-06T07:48:35.228000+00:00</time>
      </trkpt>
      <trkpt lat="0" lon="0">
        <time>2020-12-06T07:48:35.232000+00:00</time>
      </trkpt>
      <trkpt lat="0" lon="0">
        <time>2020-12-06T07:48:35.238000+00:00</time>
      </trkpt>
      <trkpt lat="0" lon="0">
        <time>2020-12-06T07:48:35.239000+00:00</time>
      </trkpt>
      <trkpt lat="47.26773" lon="-1.42689">
        <ele>1</ele>
        <time>2020-12-06T07:48:36.275000+00:00</time>
      </trkpt>
      <trkpt lat="0" lon="0">
        <time>2020-12-06T07:48:36.282000+00:00</time>
      </trkpt>
      <trkpt lat="0" lon="0">
        <time>2020-12-06T07:48:36.293000+00:00</time>
      </trkpt>
      <trkpt lat="0" lon="0">
        <time>2020-12-06T07:48:36.297000+00:00</time>
      </trkpt>
      <trkpt lat="47.2677" lon="-1.42697">
        <ele>1</ele>
        <time>2020-12-06T07:48:37.217000+00:00</time>
      </trkpt>
      <trkpt lat="0" lon="0">
        <time>2020-12-06T07:48:37.227000+00:00</time>
      </trkpt>
      <trkpt lat="0" lon="0">
        <time>2020-12-06T07:48:37.231000+00:00</time>
      </trkpt>
      <trkpt lat="0" lon="0">
        <time>2020-12-06T07:48:37.238000+00:00</time>
      </trkpt>
      <trkpt lat="47.26768" lon="-1.42706">
        <ele>1</ele>
        <time>2020-12-06T07:48:38.252000+00:00</time>
      </trkpt>
      <trkpt lat="0" lon="0">
        <time>2020-12-06T07:48:38.261000+00:00</time>
      </trkpt>
      <trkpt lat="0" lon="0">
        <time>2020-12-06T07:48:38.269000+00:00</time>
      </trkpt>
      <trkpt lat="0" lon="0">
        <time>2020-12-06T07:48:38.272000+00:00</time>
      </trkpt>
      <trkpt lat="47.26765" lon="-1.42714">
        <ele>1</ele>
        <time>2020-12-06T07:48:39.243000+00:00</time>
      </trkpt>
      <trkpt lat="0" lon="0">
        <time>2020-12-06T07:48:39.260000+00:00</time>
      </trkpt>
      <trkpt lat="0" lon="0">
        <time>2020-12-06T07:48:39.265000+00:00</time>
      </trkpt>
      <trkpt lat="0" lon="0">
        <time>2020-12-06T07:48:39.266000+00:00</time>
      </trkpt>
      <trkpt lat="47.26762" lon="-1.42722">
        <ele>1</ele>
        <time>2020-12-06T07:48:40.206000+00:00</time>
      </trkpt>
      <trkpt lat="0" lon="0">
        <time>2020-12-06T07:48:40.213000+00:00</time>
      </trkpt>
      <trkpt lat="0" lon="0">
        <time>2020-12-06T07:48:40.230000+00:00</time>
      </trkpt>
      <trkpt lat="0" lon="0">
        <time>2020-12-06T07:48:40.237000+00:00</time>
      </trkpt>
      <trkpt lat="47.26759" lon="-1.42731">
        <ele>1</ele>
        <time>2020-12-06T07:48:41.221000+00:00</time>
      </trkpt>
      <trkpt lat="0" lon="0">
        <time>2020-12-06T07:48:41.241000+00:00</time>
      </trkpt>
      <trkpt lat="0" lon="0">
        <time>2020-12-06T07:48:41.250000+00:00</time>
      </trkpt>
      <trkpt lat="0" lon="0">
        <time>2020-12-06T07:48:41.255000+00:00</time>
      </trkpt>
      <trkpt lat="47.26756" lon="-1.42739">
        <ele>1</ele>
        <time>2020-12-06T07:48:42.262000+00:00</time>
      </trkpt>
      <trkpt lat="0" lon="0">
        <time>2020-12-06T07:48:42.266000+00:00</time>
      </trkpt>
      <trkpt lat="0" lon="0">
        <time>2020-12-06T07:48:42.279000+00:00</time>
      </trkpt>
      <trkpt lat="0" lon="0">
        <time>2020-12-06T07:48:42.281000+00:00</time>
      </trkpt>
      <trkpt lat="47.26752" lon="-1.42746">
        <ele>1</ele>
        <time>2020-12-06T07:48:43.234000+00:00</time>
      </trkpt>
      <trkpt lat="0" lon="0">
        <time>2020-12-06T07:48:43.251000+00:00</time>
      </trkpt>
      <trkpt lat="0" lon="0">
        <time>2020-12-06T07:48:43.257000+00:00</time>
      </trkpt>
      <trkpt lat="0" lon="0">
        <time>2020-12-06T07:48:43.259000+00:00</time>
      </trkpt>
      <trkpt lat="47.26749" lon="-1.42754">
        <ele>1</ele>
        <time>2020-12-06T07:48:44.263000+00:00</time>
      </trkpt>
      <trkpt lat="0" lon="0">
        <time>2020-12-06T07:48:44.268000+00:00</time>
      </trkpt>
      <trkpt lat="0" lon="0">
        <time>2020-12-06T07:48:44.273000+00:00</time>
      </trkpt>
      <trkpt lat="0" lon="0">
        <time>2020-12-06T07:48:44.275000+00:00</time>
      </trkpt>
      <trkpt lat="47.26745" lon="-1.42761">
        <ele>1</ele>
        <time>2020-12-06T07:48:45.284000+00:00</time>
      </trkpt>
      <trkpt lat="0" lon="0">
        <time>2020-12-06T07:48:45.289000+00:00</time>
      </trkpt>
      <trkpt lat="0" lon="0">
        <time>2020-12-06T07:48:45.293000+00:00</time>
      </trkpt>
      <trkpt lat="0" lon="0">
        <time>2020-12-06T07:48:45.298000+00:00</time>
      </trkpt>
      <trkpt lat="47.26741" lon="-1.42768">
        <ele>1</ele>
        <time>2020-12-06T07:48:46.238000+00:00</time>
      </trkpt>
      <trkpt lat="0" lon="0">
        <time>2020-12-06T07:48:46.240000+00:00</time>
      </trkpt>
      <trkpt lat="0" lon="0">
        <time>2020-12-06T07:48:46.244000+00:00</time>
      </trkpt>
      <trkpt lat="0" lon="0">
        <time>2020-12-06T07:48:46.245000+00:00</time>
      </trkpt>
      <trkpt lat="47.26737" lon="-1.42775">
        <ele>1</ele>
        <time>2020-12-06T07:48:47.249000+00:00</time>
      </trkpt>
      <trkpt lat="0" lon="0">
        <time>2020-12-06T07:48:47.256000+00:00</time>
      </trkpt>
      <trkpt lat="0" lon="0">
        <time>2020-12-06T07:48:47.264000+00:00</time>
      </trkpt>
      <trkpt lat="0" lon="0">
        <time>2020-12-06T07:48:47.268000+00:00</time>
      </trkpt>
      <trkpt lat="47.26733" lon="-1.42783">
        <ele>2</ele>
        <time>2020-12-06T07:48:48.205000+00:00</time>
      </trkpt>
      <trkpt lat="0" lon="0">
        <time>2020-12-06T07:48:48.220000+00:00</time>
      </trkpt>
      <trkpt lat="0" lon="0">
        <time>2020-12-06T07:48:48.225000+00:00</time>
      </trkpt>
      <trkpt lat="0" lon="0">
        <time>2020-12-06T07:48:48.227000+00:00</time>
      </trkpt>
      <trkpt lat="47.2673" lon="-1.4279">
        <ele>2</ele>
        <time>2020-12-06T07:48:49.237000+00:00</time>
      </trkpt>
      <trkpt lat="0" lon="0">
        <time>2020-12-06T07:48:49.241000+00:00</time>
      </trkpt>
      <trkpt lat="0" lon="0">
        <time>2020-12-06T07:48:49.253000+00:00</time>
      </trkpt>
      <trkpt lat="0" lon="0">
        <time>2020-12-06T07:48:49.257000+00:00</time>
      </trkpt>
      <trkpt lat="47.26726" lon="-1.42798">
        <ele>2</ele>
        <time>2020-12-06T07:48:50.255000+00:00</time>
      </trkpt>
      <trkpt lat="0" lon="0">
        <time>2020-12-06T07:48:50.260000+00:00</time>
      </trkpt>
      <trkpt lat="0" lon="0">
        <time>2020-12-06T07:48:50.264000+00:00</time>
      </trkpt>
      <trkpt lat="0" lon="0">
        <time>2020-12-06T07:48:50.266000+00:00</time>
      </trkpt>
      <trkpt lat="47.26723" lon="-1.42806">
        <ele>2</ele>
        <time>2020-12-06T07:48:51.241000+00:00</time>
      </trkpt>
      <trkpt lat="0" lon="0">
        <time>2020-12-06T07:48:51.245000+00:00</time>
      </trkpt>
      <trkpt lat="0" lon="0">
        <time>2020-12-06T07:48:51.251000+00:00</time>
      </trkpt>
      <trkpt lat="0" lon="0">
        <time>2020-12-06T07:48:51.255000+00:00</time>
      </trkpt>
      <trkpt lat="47.2672" lon="-1.42813">
        <ele>2</ele>
        <time>2020-12-06T07:48:52.271000+00:00</time>
      </trkpt>
      <trkpt lat="0" lon="0">
        <time>2020-12-06T07:48:52.283000+00:00</time>
      </trkpt>
      <trkpt lat="0" lon="0">
        <time>2020-12-06T07:48:52.295000+00:00</time>
      </trkpt>
      <trkpt lat="0" lon="0">
        <time>2020-12-06T07:48:52.297000+00:00</time>
      </trkpt>
      <trkpt lat="47.26718" lon="-1.42821">
        <ele>2</ele>
        <time>2020-12-06T07:48:53.264000+00:00</time>
      </trkpt>
      <trkpt lat="0" lon="0">
        <time>2020-12-06T07:48:53.272000+00:00</time>
      </trkpt>
      <trkpt lat="0" lon="0">
        <time>2020-12-06T07:48:53.276000+00:00</time>
      </trkpt>
      <trkpt lat="0" lon="0">
        <time>2020-12-06T07:48:53.278000+00:00</time>
      </trkpt>
      <trkpt lat="47.26715" lon="-1.42829">
        <ele>2</ele>
        <time>2020-12-06T07:48:54.240000+00:00</time>
      </trkpt>
      <trkpt lat="0" lon="0">
        <time>2020-12-06T07:48:54.252000+00:00</time>
      </trkpt>
      <trkpt lat="0" lon="0">
        <time>2020-12-06T07:48:54.257000+00:00</time>
      </trkpt>
      <trkpt lat="0" lon="0">
        <time>2020-12-06T07:48:54.262000+00:00</time>
      </trkpt>
      <trkpt lat="47.26712" lon="-1.42836">
        <ele>2</ele>
        <time>2020-12-06T07:48:55.202000+00:00</time>
      </trkpt>
      <trkpt lat="0" lon="0">
        <time>2020-12-06T07:48:55.206000+00:00</time>
      </trkpt>
      <trkpt lat="0" lon="0">
        <time>2020-12-06T07:48:55.213000+00:00</time>
      </trkpt>
      <trkpt lat="0" lon="0">
        <time>2020-12-06T07:48:55.220000+00:00</time>
      </trkpt>
      <trkpt lat="47.26709" lon="-1.42844">
        <ele>2</ele>
        <time>2020-12-06T07:48:56.240000+00:00</time>
      </trkpt>
      <trkpt lat="0" lon="0">
        <time>2020-12-06T07:48:56.260000+00:00</time>
      </trkpt>
      <trkpt lat="0" lon="0">
        <time>2020-12-06T07:48:56.264000+00:00</time>
      </trkpt>
      <trkpt lat="0" lon="0">
        <time>2020-12-06T07:48:56.266000+00:00</time>
      </trkpt>
      <trkpt lat="47.26706" lon="-1.42852">
        <ele>3</ele>
        <time>2020-12-06T07:48:57.238000+00:00</time>
      </trkpt>
      <trkpt lat="0" lon="0">
        <time>2020-12-06T07:48:57.247000+00:00</time>
      </trkpt>
      <trkpt lat="0" lon="0">
        <time>2020-12-06T07:48:57.251000+00:00</time>
      </trkpt>
      <trkpt lat="0" lon="0">
        <time>2020-12-06T07:48:57.254000+00:00</time>
      </trkpt>
      <trkpt lat="47.26703" lon="-1.4286">
        <ele>3</ele>
        <time>2020-12-06T07:48:58.221000+00:00</time>
      </trkpt>
      <trkpt lat="0" lon="0">
        <time>2020-12-06T07:48:58.233000+00:00</time>
      </trkpt>
      <trkpt lat="0" lon="0">
        <time>2020-12-06T07:48:58.236000+00:00</time>
      </trkpt>
      <trkpt lat="0" lon="0">
        <time>2020-12-06T07:48:58.237000+00:00</time>
      </trkpt>
      <trkpt lat="47.267" lon="-1.42869">
        <ele>3</ele>
        <time>2020-12-06T07:48:59.263000+00:00</time>
      </trkpt>
      <trkpt lat="0" lon="0">
        <time>2020-12-06T07:48:59.267000+00:00</time>
      </trkpt>
      <trkpt lat="0" lon="0">
        <time>2020-12-06T07:48:59.278000+00:00</time>
      </trkpt>
      <trkpt lat="0" lon="0">
        <time>2020-12-06T07:48:59.284000+00:00</time>
      </trkpt>
      <trkpt lat="47.26697" lon="-1.42877">
        <ele>3</ele>
        <time>2020-12-06T07:49:00.296000+00:00</time>
      </trkpt>
      <trkpt lat="0" lon="0">
        <time>2020-12-06T07:49:00.306000+00:00</time>
      </trkpt>
      <trkpt lat="0" lon="0">
        <time>2020-12-06T07:49:00.310000+00:00</time>
      </trkpt>
      <trkpt lat="0" lon="0">
        <time>2020-12-06T07:49:00.312000+00:00</time>
      </trkpt>
      <trkpt lat="47.26694" lon="-1.42886">
        <ele>3</ele>
        <time>2020-12-06T07:49:01.250000+00:00</time>
      </trkpt>
      <trkpt lat="0" lon="0">
        <time>2020-12-06T07:49:01.264000+00:00</time>
      </trkpt>
      <trkpt lat="0" lon="0">
        <time>2020-12-06T07:49:01.270000+00:00</time>
      </trkpt>
      <trkpt lat="0" lon="0">
        <time>2020-12-06T07:49:01.271000+00:00</time>
      </trkpt>
      <trkpt lat="47.26691" lon="-1.42894">
        <ele>3</ele>
        <time>2020-12-06T07:49:02.222000+00:00</time>
      </trkpt>
      <trkpt lat="0" lon="0">
        <time>2020-12-06T07:49:02.233000+00:00</time>
      </trkpt>
      <trkpt lat="0" lon="0">
        <time>2020-12-06T07:49:02.239000+00:00</time>
      </trkpt>
      <trkpt lat="0" lon="0">
        <time>2020-12-06T07:49:02.241000+00:00</time>
      </trkpt>
      <trkpt lat="47.26687" lon="-1.42902">
        <ele>4</ele>
        <time>2020-12-06T07:49:03.248000+00:00</time>
      </trkpt>
      <trkpt lat="0" lon="0">
        <time>2020-12-06T07:49:03.260000+00:00</time>
      </trkpt>
      <trkpt lat="0" lon="0">
        <time>2020-12-06T07:49:03.270000+00:00</time>
      </trkpt>
      <trkpt lat="0" lon="0">
        <time>2020-12-06T07:49:03.272000+00:00</time>
      </trkpt>
      <trkpt lat="47.26683" lon="-1.42911">
        <ele>4</ele>
        <time>2020-12-06T07:49:04.245000+00:00</time>
      </trkpt>
      <trkpt lat="0" lon="0">
        <time>2020-12-06T07:49:04.261000+00:00</time>
      </trkpt>
      <trkpt lat="0" lon="0">
        <time>2020-12-06T07:49:04.265000+00:00</time>
      </trkpt>
      <trkpt lat="0" lon="0">
        <time>2020-12-06T07:49:04.268000+00:00</time>
      </trkpt>
      <trkpt lat="47.2668" lon="-1.42919">
        <ele>4</ele>
        <time>2020-12-06T07:49:05.246000+00:00</time>
      </trkpt>
      <trkpt lat="0" lon="0">
        <time>2020-12-06T07:49:05.250000+00:00</time>
      </trkpt>
      <trkpt lat="0" lon="0">
        <time>2020-12-06T07:49:05.258000+00:00</time>
      </trkpt>
      <trkpt lat="0" lon="0">
        <time>2020-12-06T07:49:05.263000+00:00</time>
      </trkpt>
      <trkpt lat="47.26676" lon="-1.42927">
        <ele>4</ele>
        <time>2020-12-06T07:49:06.199000+00:00</time>
      </trkpt>
      <trkpt lat="0" lon="0">
        <time>2020-12-06T07:49:06.206000+00:00</time>
      </trkpt>
      <trkpt lat="0" lon="0">
        <time>2020-12-06T07:49:06.210000+00:00</time>
      </trkpt>
      <trkpt lat="0" lon="0">
        <time>2020-12-06T07:49:06.214000+00:00</time>
      </trkpt>
      <trkpt lat="47.26672" lon="-1.42935">
        <ele>4</ele>
        <time>2020-12-06T07:49:07.220000+00:00</time>
      </trkpt>
      <trkpt lat="0" lon="0">
        <time>2020-12-06T07:49:07.223000+00:00</time>
      </trkpt>
      <trkpt lat="0" lon="0">
        <time>2020-12-06T07:49:07.235000+00:00</time>
      </trkpt>
      <trkpt lat="0" lon="0">
        <time>2020-12-06T07:49:07.239000+00:00</time>
      </trkpt>
      <trkpt lat="47.26668" lon="-1.42943">
        <ele>4</ele>
        <time>2020-12-06T07:49:08.222000+00:00</time>
      </trkpt>
      <trkpt lat="0" lon="0">
        <time>2020-12-06T07:49:08.230000+00:00</time>
      </trkpt>
      <trkpt lat="0" lon="0">
        <time>2020-12-06T07:49:08.234000+00:00</time>
      </trkpt>
      <trkpt lat="0" lon="0">
        <time>2020-12-06T07:49:08.237000+00:00</time>
      </trkpt>
      <trkpt lat="47.26664" lon="-1.42951">
        <ele>4</ele>
        <time>2020-12-06T07:49:09.210000+00:00</time>
      </trkpt>
      <trkpt lat="0" lon="0">
        <time>2020-12-06T07:49:09.214000+00:00</time>
      </trkpt>
      <trkpt lat="0" lon="0">
        <time>2020-12-06T07:49:09.219000+00:00</time>
      </trkpt>
      <trkpt lat="0" lon="0">
        <time>2020-12-06T07:49:09.221000+00:00</time>
      </trkpt>
      <trkpt lat="47.2666" lon="-1.42959">
        <ele>4</ele>
        <time>2020-12-06T07:49:10.215000+00:00</time>
      </trkpt>
      <trkpt lat="0" lon="0">
        <time>2020-12-06T07:49:10.226000+00:00</time>
      </trkpt>
      <trkpt lat="0" lon="0">
        <time>2020-12-06T07:49:10.230000+00:00</time>
      </trkpt>
      <trkpt lat="0" lon="0">
        <time>2020-12-06T07:49:10.231000+00:00</time>
      </trkpt>
      <trkpt lat="47.26657" lon="-1.42967">
        <ele>4</ele>
        <time>2020-12-06T07:49:11.223000+00:00</time>
      </trkpt>
      <trkpt lat="0" lon="0">
        <time>2020-12-06T07:49:11.227000+00:00</time>
      </trkpt>
      <trkpt lat="0" lon="0">
        <time>2020-12-06T07:49:11.231000+00:00</time>
      </trkpt>
      <trkpt lat="0" lon="0">
        <time>2020-12-06T07:49:11.233000+00:00</time>
      </trkpt>
      <trkpt lat="47.26653" lon="-1.42975">
        <ele>4</ele>
        <time>2020-12-06T07:49:12.198000+00:00</time>
      </trkpt>
      <trkpt lat="0" lon="0">
        <time>2020-12-06T07:49:12.206000+00:00</time>
      </trkpt>
      <trkpt lat="0" lon="0">
        <time>2020-12-06T07:49:12.210000+00:00</time>
      </trkpt>
      <trkpt lat="0" lon="0">
        <time>2020-12-06T07:49:12.218000+00:00</time>
      </trkpt>
      <trkpt lat="47.26649" lon="-1.42983">
        <ele>4</ele>
        <time>2020-12-06T07:49:13.199000+00:00</time>
      </trkpt>
      <trkpt lat="0" lon="0">
        <time>2020-12-06T07:49:13.203000+00:00</time>
      </trkpt>
      <trkpt lat="0" lon="0">
        <time>2020-12-06T07:49:13.220000+00:00</time>
      </trkpt>
      <trkpt lat="0" lon="0">
        <time>2020-12-06T07:49:13.222000+00:00</time>
      </trkpt>
      <trkpt lat="47.26645" lon="-1.42991">
        <ele>4</ele>
        <time>2020-12-06T07:49:14.202000+00:00</time>
      </trkpt>
      <trkpt lat="0" lon="0">
        <time>2020-12-06T07:49:14.210000+00:00</time>
      </trkpt>
      <trkpt lat="0" lon="0">
        <time>2020-12-06T07:49:14.214000+00:00</time>
      </trkpt>
      <trkpt lat="0" lon="0">
        <time>2020-12-06T07:49:14.219000+00:00</time>
      </trkpt>
      <trkpt lat="47.26641" lon="-1.42999">
        <ele>4</ele>
        <time>2020-12-06T07:49:15.231000+00:00</time>
      </trkpt>
      <trkpt lat="0" lon="0">
        <time>2020-12-06T07:49:15.234000+00:00</time>
      </trkpt>
      <trkpt lat="0" lon="0">
        <time>2020-12-06T07:49:15.241000+00:00</time>
      </trkpt>
      <trkpt lat="0" lon="0">
        <time>2020-12-06T07:49:15.243000+00:00</time>
      </trkpt>
      <trkpt lat="47.26638" lon="-1.43006">
        <ele>4</ele>
        <time>2020-12-06T07:49:16.194000+00:00</time>
      </trkpt>
      <trkpt lat="0" lon="0">
        <time>2020-12-06T07:49:16.219000+00:00</time>
      </trkpt>
      <trkpt lat="0" lon="0">
        <time>2020-12-06T07:49:16.222000+00:00</time>
      </trkpt>
      <trkpt lat="0" lon="0">
        <time>2020-12-06T07:49:16.223000+00:00</time>
      </trkpt>
      <trkpt lat="47.26634" lon="-1.43014">
        <ele>4</ele>
        <time>2020-12-06T07:49:17.220000+00:00</time>
      </trkpt>
      <trkpt lat="0" lon="0">
        <time>2020-12-06T07:49:17.223000+00:00</time>
      </trkpt>
      <trkpt lat="0" lon="0">
        <time>2020-12-06T07:49:17.229000+00:00</time>
      </trkpt>
      <trkpt lat="0" lon="0">
        <time>2020-12-06T07:49:17.231000+00:00</time>
      </trkpt>
      <trkpt lat="47.2663" lon="-1.43022">
        <ele>4</ele>
        <time>2020-12-06T07:49:18.213000+00:00</time>
      </trkpt>
      <trkpt lat="0" lon="0">
        <time>2020-12-06T07:49:18.224000+00:00</time>
      </trkpt>
      <trkpt lat="0" lon="0">
        <time>2020-12-06T07:49:18.227000+00:00</time>
      </trkpt>
      <trkpt lat="0" lon="0">
        <time>2020-12-06T07:49:18.234000+00:00</time>
      </trkpt>
      <trkpt lat="47.26627" lon="-1.43029">
        <ele>3</ele>
        <time>2020-12-06T07:49:19.214000+00:00</time>
      </trkpt>
      <trkpt lat="0" lon="0">
        <time>2020-12-06T07:49:19.217000+00:00</time>
      </trkpt>
      <trkpt lat="0" lon="0">
        <time>2020-12-06T07:49:19.219000+00:00</time>
      </trkpt>
      <trkpt lat="0" lon="0">
        <time>2020-12-06T07:49:19.220000+00:00</time>
      </trkpt>
      <trkpt lat="47.26623" lon="-1.43036">
        <ele>3</ele>
        <time>2020-12-06T07:49:20.211000+00:00</time>
      </trkpt>
      <trkpt lat="0" lon="0">
        <time>2020-12-06T07:49:20.220000+00:00</time>
      </trkpt>
      <trkpt lat="0" lon="0">
        <time>2020-12-06T07:49:20.221000+00:00</time>
      </trkpt>
      <trkpt lat="0" lon="0">
        <time>2020-12-06T07:49:20.222000+00:00</time>
      </trkpt>
      <trkpt lat="47.26619" lon="-1.43044">
        <ele>3</ele>
        <time>2020-12-06T07:49:21.225000+00:00</time>
      </trkpt>
      <trkpt lat="0" lon="0">
        <time>2020-12-06T07:49:21.236000+00:00</time>
      </trkpt>
      <trkpt lat="0" lon="0">
        <time>2020-12-06T07:49:21.246000+00:00</time>
      </trkpt>
      <trkpt lat="0" lon="0">
        <time>2020-12-06T07:49:21.249000+00:00</time>
      </trkpt>
      <trkpt lat="47.26616" lon="-1.43051">
        <ele>3</ele>
        <time>2020-12-06T07:49:22.229000+00:00</time>
      </trkpt>
      <trkpt lat="0" lon="0">
        <time>2020-12-06T07:49:22.244000+00:00</time>
      </trkpt>
      <trkpt lat="0" lon="0">
        <time>2020-12-06T07:49:22.246000+00:00</time>
      </trkpt>
      <trkpt lat="0" lon="0">
        <time>2020-12-06T07:49:22.247000+00:00</time>
      </trkpt>
      <trkpt lat="47.26612" lon="-1.43058">
        <ele>3</ele>
        <time>2020-12-06T07:49:23.197000+00:00</time>
      </trkpt>
      <trkpt lat="0" lon="0">
        <time>2020-12-06T07:49:23.202000+00:00</time>
      </trkpt>
      <trkpt lat="0" lon="0">
        <time>2020-12-06T07:49:23.215000+00:00</time>
      </trkpt>
      <trkpt lat="0" lon="0">
        <time>2020-12-06T07:49:23.216000+00:00</time>
      </trkpt>
      <trkpt lat="47.26608" lon="-1.43065">
        <ele>3</ele>
        <time>2020-12-06T07:49:24.217000+00:00</time>
      </trkpt>
      <trkpt lat="0" lon="0">
        <time>2020-12-06T07:49:24.222000+00:00</time>
      </trkpt>
      <trkpt lat="0" lon="0">
        <time>2020-12-06T07:49:24.229000+00:00</time>
      </trkpt>
      <trkpt lat="0" lon="0">
        <time>2020-12-06T07:49:24.231000+00:00</time>
      </trkpt>
      <trkpt lat="47.26604" lon="-1.43072">
        <ele>3</ele>
        <time>2020-12-06T07:49:25.239000+00:00</time>
      </trkpt>
      <trkpt lat="0" lon="0">
        <time>2020-12-06T07:49:25.251000+00:00</time>
      </trkpt>
      <trkpt lat="0" lon="0">
        <time>2020-12-06T07:49:25.257000+00:00</time>
      </trkpt>
      <trkpt lat="0" lon="0">
        <time>2020-12-06T07:49:25.259000+00:00</time>
      </trkpt>
      <trkpt lat="47.26601" lon="-1.43079">
        <ele>3</ele>
        <time>2020-12-06T07:49:26.203000+00:00</time>
      </trkpt>
      <trkpt lat="0" lon="0">
        <time>2020-12-06T07:49:26.209000+00:00</time>
      </trkpt>
      <trkpt lat="0" lon="0">
        <time>2020-12-06T07:49:26.215000+00:00</time>
      </trkpt>
      <trkpt lat="0" lon="0">
        <time>2020-12-06T07:49:26.218000+00:00</time>
      </trkpt>
      <trkpt lat="47.26597" lon="-1.43086">
        <ele>3</ele>
        <time>2020-12-06T07:49:27.207000+00:00</time>
      </trkpt>
      <trkpt lat="0" lon="0">
        <time>2020-12-06T07:49:27.215000+00:00</time>
      </trkpt>
      <trkpt lat="0" lon="0">
        <time>2020-12-06T07:49:27.219000+00:00</time>
      </trkpt>
      <trkpt lat="0" lon="0">
        <time>2020-12-06T07:49:27.221000+00:00</time>
      </trkpt>
      <trkpt lat="47.26593" lon="-1.43093">
        <ele>3</ele>
        <time>2020-12-06T07:49:28.175000+00:00</time>
      </trkpt>
      <trkpt lat="0" lon="0">
        <time>2020-12-06T07:49:28.179000+00:00</time>
      </trkpt>
      <trkpt lat="0" lon="0">
        <time>2020-12-06T07:49:28.182000+00:00</time>
      </trkpt>
      <trkpt lat="0" lon="0">
        <time>2020-12-06T07:49:28.184000+00:00</time>
      </trkpt>
      <trkpt lat="47.26589" lon="-1.431">
        <ele>3</ele>
        <time>2020-12-06T07:49:29.193000+00:00</time>
      </trkpt>
      <trkpt lat="0" lon="0">
        <time>2020-12-06T07:49:29.196000+00:00</time>
      </trkpt>
      <trkpt lat="0" lon="0">
        <time>2020-12-06T07:49:29.202000+00:00</time>
      </trkpt>
      <trkpt lat="0" lon="0">
        <time>2020-12-06T07:49:29.203000+00:00</time>
      </trkpt>
      <trkpt lat="47.26585" lon="-1.43107">
        <ele>3</ele>
        <time>2020-12-06T07:49:30.216000+00:00</time>
      </trkpt>
      <trkpt lat="0" lon="0">
        <time>2020-12-06T07:49:30.227000+00:00</time>
      </trkpt>
      <trkpt lat="0" lon="0">
        <time>2020-12-06T07:49:30.233000+00:00</time>
      </trkpt>
      <trkpt lat="0" lon="0">
        <time>2020-12-06T07:49:30.235000+00:00</time>
      </trkpt>
      <trkpt lat="47.26581" lon="-1.43114">
        <ele>3</ele>
        <time>2020-12-06T07:49:31.214000+00:00</time>
      </trkpt>
      <trkpt lat="0" lon="0">
        <time>2020-12-06T07:49:31.224000+00:00</time>
      </trkpt>
      <trkpt lat="0" lon="0">
        <time>2020-12-06T07:49:31.235000+00:00</time>
      </trkpt>
      <trkpt lat="0" lon="0">
        <time>2020-12-06T07:49:31.237000+00:00</time>
      </trkpt>
      <trkpt lat="47.26577" lon="-1.4312">
        <ele>3</ele>
        <time>2020-12-06T07:49:32.221000+00:00</time>
      </trkpt>
      <trkpt lat="0" lon="0">
        <time>2020-12-06T07:49:32.224000+00:00</time>
      </trkpt>
      <trkpt lat="0" lon="0">
        <time>2020-12-06T07:49:32.227000+00:00</time>
      </trkpt>
      <trkpt lat="0" lon="0">
        <time>2020-12-06T07:49:32.231000+00:00</time>
      </trkpt>
      <trkpt lat="47.26572" lon="-1.43127">
        <ele>3</ele>
        <time>2020-12-06T07:49:33.216000+00:00</time>
      </trkpt>
      <trkpt lat="0" lon="0">
        <time>2020-12-06T07:49:33.219000+00:00</time>
      </trkpt>
      <trkpt lat="0" lon="0">
        <time>2020-12-06T07:49:33.237000+00:00</time>
      </trkpt>
      <trkpt lat="0" lon="0">
        <time>2020-12-06T07:49:33.242000+00:00</time>
      </trkpt>
      <trkpt lat="47.26568" lon="-1.43134">
        <ele>3</ele>
        <time>2020-12-06T07:49:34.226000+00:00</time>
      </trkpt>
      <trkpt lat="0" lon="0">
        <time>2020-12-06T07:49:34.233000+00:00</time>
      </trkpt>
      <trkpt lat="0" lon="0">
        <time>2020-12-06T07:49:34.239000+00:00</time>
      </trkpt>
      <trkpt lat="0" lon="0">
        <time>2020-12-06T07:49:34.241000+00:00</time>
      </trkpt>
      <trkpt lat="47.26564" lon="-1.43141">
        <ele>3</ele>
        <time>2020-12-06T07:49:35.224000+00:00</time>
      </trkpt>
      <trkpt lat="0" lon="0">
        <time>2020-12-06T07:49:35.241000+00:00</time>
      </trkpt>
      <trkpt lat="0" lon="0">
        <time>2020-12-06T07:49:35.244000+00:00</time>
      </trkpt>
      <trkpt lat="0" lon="0">
        <time>2020-12-06T07:49:35.246000+00:00</time>
      </trkpt>
      <trkpt lat="47.2656" lon="-1.43147">
        <ele>3</ele>
        <time>2020-12-06T07:49:36.222000+00:00</time>
      </trkpt>
      <trkpt lat="0" lon="0">
        <time>2020-12-06T07:49:36.227000+00:00</time>
      </trkpt>
      <trkpt lat="0" lon="0">
        <time>2020-12-06T07:49:36.241000+00:00</time>
      </trkpt>
      <trkpt lat="0" lon="0">
        <time>2020-12-06T07:49:36.246000+00:00</time>
      </trkpt>
      <trkpt lat="47.26555" lon="-1.43154">
        <ele>3</ele>
        <time>2020-12-06T07:49:37.215000+00:00</time>
      </trkpt>
      <trkpt lat="0" lon="0">
        <time>2020-12-06T07:49:37.218000+00:00</time>
      </trkpt>
      <trkpt lat="0" lon="0">
        <time>2020-12-06T07:49:37.222000+00:00</time>
      </trkpt>
      <trkpt lat="0" lon="0">
        <time>2020-12-06T07:49:37.223000+00:00</time>
      </trkpt>
      <trkpt lat="47.26547" lon="-1.43167">
        <ele>3</ele>
        <time>2020-12-06T07:49:39.218000+00:00</time>
      </trkpt>
      <trkpt lat="0" lon="0">
        <time>2020-12-06T07:49:39.234000+00:00</time>
      </trkpt>
      <trkpt lat="0" lon="0">
        <time>2020-12-06T07:49:39.237000+00:00</time>
      </trkpt>
      <trkpt lat="0" lon="0">
        <time>2020-12-06T07:49:39.239000+00:00</time>
      </trkpt>
      <trkpt lat="47.26542" lon="-1.43174">
        <ele>3</ele>
        <time>2020-12-06T07:49:40.247000+00:00</time>
      </trkpt>
      <trkpt lat="0" lon="0">
        <time>2020-12-06T07:49:40.250000+00:00</time>
      </trkpt>
      <trkpt lat="0" lon="0">
        <time>2020-12-06T07:49:40.256000+00:00</time>
      </trkpt>
      <trkpt lat="0" lon="0">
        <time>2020-12-06T07:49:40.258000+00:00</time>
      </trkpt>
      <trkpt lat="47.26538" lon="-1.4318">
        <ele>3</ele>
        <time>2020-12-06T07:49:41.202000+00:00</time>
      </trkpt>
      <trkpt lat="0" lon="0">
        <time>2020-12-06T07:49:41.211000+00:00</time>
      </trkpt>
      <trkpt lat="0" lon="0">
        <time>2020-12-06T07:49:41.219000+00:00</time>
      </trkpt>
      <trkpt lat="0" lon="0">
        <time>2020-12-06T07:49:41.226000+00:00</time>
      </trkpt>
      <trkpt lat="47.26533" lon="-1.43186">
        <ele>3</ele>
        <time>2020-12-06T07:49:42.226000+00:00</time>
      </trkpt>
      <trkpt lat="0" lon="0">
        <time>2020-12-06T07:49:42.235000+00:00</time>
      </trkpt>
      <trkpt lat="0" lon="0">
        <time>2020-12-06T07:49:42.241000+00:00</time>
      </trkpt>
      <trkpt lat="0" lon="0">
        <time>2020-12-06T07:49:42.243000+00:00</time>
      </trkpt>
      <trkpt lat="47.26529" lon="-1.43193">
        <ele>3</ele>
        <time>2020-12-06T07:49:43.149000+00:00</time>
      </trkpt>
      <trkpt lat="0" lon="0">
        <time>2020-12-06T07:49:43.160000+00:00</time>
      </trkpt>
      <trkpt lat="0" lon="0">
        <time>2020-12-06T07:49:43.161000+00:00</time>
      </trkpt>
      <trkpt lat="0" lon="0">
        <time>2020-12-06T07:49:43.162000+00:00</time>
      </trkpt>
      <trkpt lat="47.26525" lon="-1.43199">
        <ele>3</ele>
        <time>2020-12-06T07:49:44.171000+00:00</time>
      </trkpt>
      <trkpt lat="0" lon="0">
        <time>2020-12-06T07:49:44.178000+00:00</time>
      </trkpt>
      <trkpt lat="0" lon="0">
        <time>2020-12-06T07:49:44.188000+00:00</time>
      </trkpt>
      <trkpt lat="0" lon="0">
        <time>2020-12-06T07:49:44.193000+00:00</time>
      </trkpt>
      <trkpt lat="47.26521" lon="-1.43205">
        <ele>3</ele>
        <time>2020-12-06T07:49:45.155000+00:00</time>
      </trkpt>
      <trkpt lat="0" lon="0">
        <time>2020-12-06T07:49:45.164000+00:00</time>
      </trkpt>
      <trkpt lat="0" lon="0">
        <time>2020-12-06T07:49:45.165000+00:00</time>
      </trkpt>
      <trkpt lat="0" lon="0">
        <time>2020-12-06T07:49:45.168000+00:00</time>
      </trkpt>
      <trkpt lat="47.26516" lon="-1.43212">
        <ele>3</ele>
        <time>2020-12-06T07:49:46.140000+00:00</time>
      </trkpt>
      <trkpt lat="0" lon="0">
        <time>2020-12-06T07:49:46.145000+00:00</time>
      </trkpt>
      <trkpt lat="0" lon="0">
        <time>2020-12-06T07:49:46.148000+00:00</time>
      </trkpt>
      <trkpt lat="0" lon="0">
        <time>2020-12-06T07:49:46.149000+00:00</time>
      </trkpt>
      <trkpt lat="47.26512" lon="-1.43218">
        <ele>3</ele>
        <time>2020-12-06T07:49:47.217000+00:00</time>
      </trkpt>
      <trkpt lat="0" lon="0">
        <time>2020-12-06T07:49:47.229000+00:00</time>
      </trkpt>
      <trkpt lat="0" lon="0">
        <time>2020-12-06T07:49:47.237000+00:00</time>
      </trkpt>
      <trkpt lat="0" lon="0">
        <time>2020-12-06T07:49:47.239000+00:00</time>
      </trkpt>
      <trkpt lat="47.26507" lon="-1.43224">
        <ele>3</ele>
        <time>2020-12-06T07:49:48.210000+00:00</time>
      </trkpt>
      <trkpt lat="0" lon="0">
        <time>2020-12-06T07:49:48.214000+00:00</time>
      </trkpt>
      <trkpt lat="0" lon="0">
        <time>2020-12-06T07:49:48.219000+00:00</time>
      </trkpt>
      <trkpt lat="0" lon="0">
        <time>2020-12-06T07:49:48.222000+00:00</time>
      </trkpt>
      <trkpt lat="47.26503" lon="-1.43229">
        <ele>2</ele>
        <time>2020-12-06T07:49:49.221000+00:00</time>
      </trkpt>
      <trkpt lat="0" lon="0">
        <time>2020-12-06T07:49:49.235000+00:00</time>
      </trkpt>
      <trkpt lat="0" lon="0">
        <time>2020-12-06T07:49:49.237000+00:00</time>
      </trkpt>
      <trkpt lat="0" lon="0">
        <time>2020-12-06T07:49:49.242000+00:00</time>
      </trkpt>
      <trkpt lat="47.26499" lon="-1.43235">
        <ele>2</ele>
        <time>2020-12-06T07:49:50.239000+00:00</time>
      </trkpt>
      <trkpt lat="0" lon="0">
        <time>2020-12-06T07:49:50.251000+00:00</time>
      </trkpt>
      <trkpt lat="0" lon="0">
        <time>2020-12-06T07:49:50.259000+00:00</time>
      </trkpt>
      <trkpt lat="0" lon="0">
        <time>2020-12-06T07:49:50.263000+00:00</time>
      </trkpt>
      <trkpt lat="47.26494" lon="-1.43241">
        <ele>2</ele>
        <time>2020-12-06T07:49:51.173000+00:00</time>
      </trkpt>
      <trkpt lat="0" lon="0">
        <time>2020-12-06T07:49:51.177000+00:00</time>
      </trkpt>
      <trkpt lat="0" lon="0">
        <time>2020-12-06T07:49:51.183000+00:00</time>
      </trkpt>
      <trkpt lat="0" lon="0">
        <time>2020-12-06T07:49:51.185000+00:00</time>
      </trkpt>
      <trkpt lat="47.2649" lon="-1.43247">
        <ele>2</ele>
        <time>2020-12-06T07:49:52.206000+00:00</time>
      </trkpt>
      <trkpt lat="0" lon="0">
        <time>2020-12-06T07:49:52.216000+00:00</time>
      </trkpt>
      <trkpt lat="0" lon="0">
        <time>2020-12-06T07:49:52.221000+00:00</time>
      </trkpt>
      <trkpt lat="0" lon="0">
        <time>2020-12-06T07:49:52.222000+00:00</time>
      </trkpt>
      <trkpt lat="47.26486" lon="-1.43253">
        <ele>2</ele>
        <time>2020-12-06T07:49:53.246000+00:00</time>
      </trkpt>
      <trkpt lat="0" lon="0">
        <time>2020-12-06T07:49:53.252000+00:00</time>
      </trkpt>
      <trkpt lat="0" lon="0">
        <time>2020-12-06T07:49:53.256000+00:00</time>
      </trkpt>
      <trkpt lat="0" lon="0">
        <time>2020-12-06T07:49:53.258000+00:00</time>
      </trkpt>
      <trkpt lat="47.26481" lon="-1.43259">
        <ele>3</ele>
        <time>2020-12-06T07:49:54.239000+00:00</time>
      </trkpt>
      <trkpt lat="0" lon="0">
        <time>2020-12-06T07:49:54.252000+00:00</time>
      </trkpt>
      <trkpt lat="0" lon="0">
        <time>2020-12-06T07:49:54.262000+00:00</time>
      </trkpt>
      <trkpt lat="0" lon="0">
        <time>2020-12-06T07:49:54.264000+00:00</time>
      </trkpt>
      <trkpt lat="47.26476" lon="-1.43265">
        <ele>3</ele>
        <time>2020-12-06T07:49:55.233000+00:00</time>
      </trkpt>
      <trkpt lat="0" lon="0">
        <time>2020-12-06T07:49:55.246000+00:00</time>
      </trkpt>
      <trkpt lat="0" lon="0">
        <time>2020-12-06T07:49:55.256000+00:00</time>
      </trkpt>
      <trkpt lat="0" lon="0">
        <time>2020-12-06T07:49:55.258000+00:00</time>
      </trkpt>
      <trkpt lat="47.26472" lon="-1.43271">
        <ele>3</ele>
        <time>2020-12-06T07:49:56.209000+00:00</time>
      </trkpt>
      <trkpt lat="0" lon="0">
        <time>2020-12-06T07:49:56.222000+00:00</time>
      </trkpt>
      <trkpt lat="0" lon="0">
        <time>2020-12-06T07:49:56.227000+00:00</time>
      </trkpt>
      <trkpt lat="0" lon="0">
        <time>2020-12-06T07:49:56.237000+00:00</time>
      </trkpt>
      <trkpt lat="47.26467" lon="-1.43277">
        <ele>3</ele>
        <time>2020-12-06T07:49:57.235000+00:00</time>
      </trkpt>
      <trkpt lat="0" lon="0">
        <time>2020-12-06T07:49:57.245000+00:00</time>
      </trkpt>
      <trkpt lat="0" lon="0">
        <time>2020-12-06T07:49:57.254000+00:00</time>
      </trkpt>
      <trkpt lat="0" lon="0">
        <time>2020-12-06T07:49:57.256000+00:00</time>
      </trkpt>
      <trkpt lat="47.26463" lon="-1.43283">
        <ele>3</ele>
        <time>2020-12-06T07:49:58.203000+00:00</time>
      </trkpt>
      <trkpt lat="0" lon="0">
        <time>2020-12-06T07:49:58.218000+00:00</time>
      </trkpt>
      <trkpt lat="0" lon="0">
        <time>2020-12-06T07:49:58.222000+00:00</time>
      </trkpt>
      <trkpt lat="0" lon="0">
        <time>2020-12-06T07:49:58.225000+00:00</time>
      </trkpt>
      <trkpt lat="47.26458" lon="-1.43289">
        <ele>4</ele>
        <time>2020-12-06T07:49:59.206000+00:00</time>
      </trkpt>
      <trkpt lat="0" lon="0">
        <time>2020-12-06T07:49:59.222000+00:00</time>
      </trkpt>
      <trkpt lat="0" lon="0">
        <time>2020-12-06T07:49:59.229000+00:00</time>
      </trkpt>
      <trkpt lat="0" lon="0">
        <time>2020-12-06T07:49:59.233000+00:00</time>
      </trkpt>
      <trkpt lat="47.26454" lon="-1.43296">
        <ele>4</ele>
        <time>2020-12-06T07:50:00.199000+00:00</time>
      </trkpt>
      <trkpt lat="0" lon="0">
        <time>2020-12-06T07:50:00.214000+00:00</time>
      </trkpt>
      <trkpt lat="0" lon="0">
        <time>2020-12-06T07:50:00.221000+00:00</time>
      </trkpt>
      <trkpt lat="0" lon="0">
        <time>2020-12-06T07:50:00.224000+00:00</time>
      </trkpt>
      <trkpt lat="47.26449" lon="-1.43302">
        <ele>4</ele>
        <time>2020-12-06T07:50:01.203000+00:00</time>
      </trkpt>
      <trkpt lat="0" lon="0">
        <time>2020-12-06T07:50:01.209000+00:00</time>
      </trkpt>
      <trkpt lat="0" lon="0">
        <time>2020-12-06T07:50:01.213000+00:00</time>
      </trkpt>
      <trkpt lat="0" lon="0">
        <time>2020-12-06T07:50:01.216000+00:00</time>
      </trkpt>
      <trkpt lat="47.26445" lon="-1.43309">
        <ele>4</ele>
        <time>2020-12-06T07:50:02.214000+00:00</time>
      </trkpt>
      <trkpt lat="0" lon="0">
        <time>2020-12-06T07:50:02.222000+00:00</time>
      </trkpt>
      <trkpt lat="0" lon="0">
        <time>2020-12-06T07:50:02.227000+00:00</time>
      </trkpt>
      <trkpt lat="0" lon="0">
        <time>2020-12-06T07:50:02.231000+00:00</time>
      </trkpt>
      <trkpt lat="47.26441" lon="-1.43316">
        <ele>4</ele>
        <time>2020-12-06T07:50:03.232000+00:00</time>
      </trkpt>
      <trkpt lat="0" lon="0">
        <time>2020-12-06T07:50:03.249000+00:00</time>
      </trkpt>
      <trkpt lat="0" lon="0">
        <time>2020-12-06T07:50:03.253000+00:00</time>
      </trkpt>
      <trkpt lat="0" lon="0">
        <time>2020-12-06T07:50:03.255000+00:00</time>
      </trkpt>
      <trkpt lat="47.26436" lon="-1.43322">
        <ele>4</ele>
        <time>2020-12-06T07:50:04.175000+00:00</time>
      </trkpt>
      <trkpt lat="0" lon="0">
        <time>2020-12-06T07:50:04.177000+00:00</time>
      </trkpt>
      <trkpt lat="0" lon="0">
        <time>2020-12-06T07:50:04.180000+00:00</time>
      </trkpt>
      <trkpt lat="0" lon="0">
        <time>2020-12-06T07:50:04.181000+00:00</time>
      </trkpt>
      <trkpt lat="47.26432" lon="-1.43329">
        <ele>4</ele>
        <time>2020-12-06T07:50:05.227000+00:00</time>
      </trkpt>
      <trkpt lat="0" lon="0">
        <time>2020-12-06T07:50:05.239000+00:00</time>
      </trkpt>
      <trkpt lat="0" lon="0">
        <time>2020-12-06T07:50:05.244000+00:00</time>
      </trkpt>
      <trkpt lat="0" lon="0">
        <time>2020-12-06T07:50:05.245000+00:00</time>
      </trkpt>
      <trkpt lat="47.26427" lon="-1.43335">
        <ele>4</ele>
        <time>2020-12-06T07:50:06.190000+00:00</time>
      </trkpt>
      <trkpt lat="0" lon="0">
        <time>2020-12-06T07:50:06.195000+00:00</time>
      </trkpt>
      <trkpt lat="0" lon="0">
        <time>2020-12-06T07:50:06.199000+00:00</time>
      </trkpt>
      <trkpt lat="0" lon="0">
        <time>2020-12-06T07:50:06.201000+00:00</time>
      </trkpt>
      <trkpt lat="47.26423" lon="-1.43342">
        <ele>4</ele>
        <time>2020-12-06T07:50:07.214000+00:00</time>
      </trkpt>
      <trkpt lat="0" lon="0">
        <time>2020-12-06T07:50:07.220000+00:00</time>
      </trkpt>
      <trkpt lat="0" lon="0">
        <time>2020-12-06T07:50:07.222000+00:00</time>
      </trkpt>
      <trkpt lat="0" lon="0">
        <time>2020-12-06T07:50:07.224000+00:00</time>
      </trkpt>
      <trkpt lat="47.26419" lon="-1.43349">
        <ele>4</ele>
        <time>2020-12-06T07:50:08.203000+00:00</time>
      </trkpt>
      <trkpt lat="0" lon="0">
        <time>2020-12-06T07:50:08.207000+00:00</time>
      </trkpt>
      <trkpt lat="0" lon="0">
        <time>2020-12-06T07:50:08.212000+00:00</time>
      </trkpt>
      <trkpt lat="0" lon="0">
        <time>2020-12-06T07:50:08.213000+00:00</time>
      </trkpt>
      <trkpt lat="47.26414" lon="-1.43355">
        <ele>3</ele>
        <time>2020-12-06T07:50:09.207000+00:00</time>
      </trkpt>
      <trkpt lat="0" lon="0">
        <time>2020-12-06T07:50:09.219000+00:00</time>
      </trkpt>
      <trkpt lat="0" lon="0">
        <time>2020-12-06T07:50:09.222000+00:00</time>
      </trkpt>
      <trkpt lat="0" lon="0">
        <time>2020-12-06T07:50:09.228000+00:00</time>
      </trkpt>
      <trkpt lat="47.2641" lon="-1.43362">
        <ele>3</ele>
        <time>2020-12-06T07:50:10.214000+00:00</time>
      </trkpt>
      <trkpt lat="0" lon="0">
        <time>2020-12-06T07:50:10.220000+00:00</time>
      </trkpt>
      <trkpt lat="0" lon="0">
        <time>2020-12-06T07:50:10.224000+00:00</time>
      </trkpt>
      <trkpt lat="47.26406" lon="-1.43369">
        <ele>3</ele>
        <time>2020-12-06T07:50:11.187000+00:00</time>
      </trkpt>
      <trkpt lat="0" lon="0">
        <time>2020-12-06T07:50:11.197000+00:00</time>
      </trkpt>
      <trkpt lat="0" lon="0">
        <time>2020-12-06T07:50:11.198000+00:00</time>
      </trkpt>
      <trkpt lat="0" lon="0">
        <time>2020-12-06T07:50:11.199000+00:00</time>
      </trkpt>
      <trkpt lat="47.26401" lon="-1.43375">
        <ele>3</ele>
        <time>2020-12-06T07:50:12.190000+00:00</time>
      </trkpt>
      <trkpt lat="0" lon="0">
        <time>2020-12-06T07:50:12.198000+00:00</time>
      </trkpt>
      <trkpt lat="0" lon="0">
        <time>2020-12-06T07:50:12.205000+00:00</time>
      </trkpt>
      <trkpt lat="0" lon="0">
        <time>2020-12-06T07:50:12.207000+00:00</time>
      </trkpt>
      <trkpt lat="47.26397" lon="-1.43382">
        <ele>3</ele>
        <time>2020-12-06T07:50:13.207000+00:00</time>
      </trkpt>
      <trkpt lat="0" lon="0">
        <time>2020-12-06T07:50:13.212000+00:00</time>
      </trkpt>
      <trkpt lat="0" lon="0">
        <time>2020-12-06T07:50:13.214000+00:00</time>
      </trkpt>
      <trkpt lat="0" lon="0">
        <time>2020-12-06T07:50:13.215000+00:00</time>
      </trkpt>
      <trkpt lat="47.26392" lon="-1.43388">
        <ele>3</ele>
        <time>2020-12-06T07:50:14.214000+00:00</time>
      </trkpt>
      <trkpt lat="0" lon="0">
        <time>2020-12-06T07:50:14.219000+00:00</time>
      </trkpt>
      <trkpt lat="0" lon="0">
        <time>2020-12-06T07:50:14.223000+00:00</time>
      </trkpt>
      <trkpt lat="0" lon="0">
        <time>2020-12-06T07:50:14.224000+00:00</time>
      </trkpt>
      <trkpt lat="47.26388" lon="-1.43393">
        <ele>3</ele>
        <time>2020-12-06T07:50:15.211000+00:00</time>
      </trkpt>
      <trkpt lat="0" lon="0">
        <time>2020-12-06T07:50:15.214000+00:00</time>
      </trkpt>
      <trkpt lat="0" lon="0">
        <time>2020-12-06T07:50:15.224000+00:00</time>
      </trkpt>
      <trkpt lat="0" lon="0">
        <time>2020-12-06T07:50:15.225000+00:00</time>
      </trkpt>
      <trkpt lat="47.26383" lon="-1.43399">
        <ele>3</ele>
        <time>2020-12-06T07:50:16.223000+00:00</time>
      </trkpt>
      <trkpt lat="0" lon="0">
        <time>2020-12-06T07:50:16.225000+00:00</time>
      </trkpt>
      <trkpt lat="0" lon="0">
        <time>2020-12-06T07:50:16.227000+00:00</time>
      </trkpt>
      <trkpt lat="0" lon="0">
        <time>2020-12-06T07:50:16.229000+00:00</time>
      </trkpt>
      <trkpt lat="47.26377" lon="-1.43405">
        <ele>3</ele>
        <time>2020-12-06T07:50:17.234000+00:00</time>
      </trkpt>
      <trkpt lat="0" lon="0">
        <time>2020-12-06T07:50:17.237000+00:00</time>
      </trkpt>
      <trkpt lat="0" lon="0">
        <time>2020-12-06T07:50:17.242000+00:00</time>
      </trkpt>
      <trkpt lat="0" lon="0">
        <time>2020-12-06T07:50:17.247000+00:00</time>
      </trkpt>
      <trkpt lat="47.26372" lon="-1.4341">
        <ele>3</ele>
        <time>2020-12-06T07:50:18.206000+00:00</time>
      </trkpt>
      <trkpt lat="0" lon="0">
        <time>2020-12-06T07:50:18.214000+00:00</time>
      </trkpt>
      <trkpt lat="0" lon="0">
        <time>2020-12-06T07:50:18.220000+00:00</time>
      </trkpt>
      <trkpt lat="0" lon="0">
        <time>2020-12-06T07:50:18.223000+00:00</time>
      </trkpt>
      <trkpt lat="47.26367" lon="-1.43416">
        <ele>3</ele>
        <time>2020-12-06T07:50:19.216000+00:00</time>
      </trkpt>
      <trkpt lat="0" lon="0">
        <time>2020-12-06T07:50:19.220000+00:00</time>
      </trkpt>
      <trkpt lat="0" lon="0">
        <time>2020-12-06T07:50:19.231000+00:00</time>
      </trkpt>
      <trkpt lat="0" lon="0">
        <time>2020-12-06T07:50:19.232000+00:00</time>
      </trkpt>
      <trkpt lat="47.26361" lon="-1.43421">
        <ele>3</ele>
        <time>2020-12-06T07:50:20.192000+00:00</time>
      </trkpt>
      <trkpt lat="0" lon="0">
        <time>2020-12-06T07:50:20.199000+00:00</time>
      </trkpt>
      <trkpt lat="0" lon="0">
        <time>2020-12-06T07:50:20.202000+00:00</time>
      </trkpt>
      <trkpt lat="0" lon="0">
        <time>2020-12-06T07:50:20.204000+00:00</time>
      </trkpt>
      <trkpt lat="47.26356" lon="-1.43426">
        <ele>3</ele>
        <time>2020-12-06T07:50:21.198000+00:00</time>
      </trkpt>
      <trkpt lat="0" lon="0">
        <time>2020-12-06T07:50:21.207000+00:00</time>
      </trkpt>
      <trkpt lat="0" lon="0">
        <time>2020-12-06T07:50:21.213000+00:00</time>
      </trkpt>
      <trkpt lat="0" lon="0">
        <time>2020-12-06T07:50:21.220000+00:00</time>
      </trkpt>
      <trkpt lat="47.2635" lon="-1.43432">
        <ele>3</ele>
        <time>2020-12-06T07:50:22.220000+00:00</time>
      </trkpt>
      <trkpt lat="0" lon="0">
        <time>2020-12-06T07:50:22.223000+00:00</time>
      </trkpt>
      <trkpt lat="0" lon="0">
        <time>2020-12-06T07:50:22.228000+00:00</time>
      </trkpt>
      <trkpt lat="0" lon="0">
        <time>2020-12-06T07:50:22.230000+00:00</time>
      </trkpt>
      <trkpt lat="47.26345" lon="-1.43437">
        <ele>3</ele>
        <time>2020-12-06T07:50:23.214000+00:00</time>
      </trkpt>
      <trkpt lat="0" lon="0">
        <time>2020-12-06T07:50:23.221000+00:00</time>
      </trkpt>
      <trkpt lat="0" lon="0">
        <time>2020-12-06T07:50:23.224000+00:00</time>
      </trkpt>
      <trkpt lat="0" lon="0">
        <time>2020-12-06T07:50:23.227000+00:00</time>
      </trkpt>
      <trkpt lat="47.26339" lon="-1.43443">
        <ele>3</ele>
        <time>2020-12-06T07:50:24.213000+00:00</time>
      </trkpt>
      <trkpt lat="0" lon="0">
        <time>2020-12-06T07:50:24.225000+00:00</time>
      </trkpt>
      <trkpt lat="0" lon="0">
        <time>2020-12-06T07:50:24.230000+00:00</time>
      </trkpt>
      <trkpt lat="0" lon="0">
        <time>2020-12-06T07:50:24.231000+00:00</time>
      </trkpt>
      <trkpt lat="47.26334" lon="-1.43448">
        <ele>3</ele>
        <time>2020-12-06T07:50:25.202000+00:00</time>
      </trkpt>
      <trkpt lat="0" lon="0">
        <time>2020-12-06T07:50:25.206000+00:00</time>
      </trkpt>
      <trkpt lat="0" lon="0">
        <time>2020-12-06T07:50:25.210000+00:00</time>
      </trkpt>
      <trkpt lat="0" lon="0">
        <time>2020-12-06T07:50:25.214000+00:00</time>
      </trkpt>
      <trkpt lat="47.26328" lon="-1.43454">
        <ele>3</ele>
        <time>2020-12-06T07:50:26.212000+00:00</time>
      </trkpt>
      <trkpt lat="0" lon="0">
        <time>2020-12-06T07:50:26.222000+00:00</time>
      </trkpt>
      <trkpt lat="0" lon="0">
        <time>2020-12-06T07:50:26.227000+00:00</time>
      </trkpt>
      <trkpt lat="0" lon="0">
        <time>2020-12-06T07:50:26.230000+00:00</time>
      </trkpt>
      <trkpt lat="47.26323" lon="-1.43459">
        <ele>3</ele>
        <time>2020-12-06T07:50:27.224000+00:00</time>
      </trkpt>
      <trkpt lat="0" lon="0">
        <time>2020-12-06T07:50:27.227000+00:00</time>
      </trkpt>
      <trkpt lat="0" lon="0">
        <time>2020-12-06T07:50:27.236000+00:00</time>
      </trkpt>
      <trkpt lat="0" lon="0">
        <time>2020-12-06T07:50:27.237000+00:00</time>
      </trkpt>
      <trkpt lat="47.26317" lon="-1.43465">
        <ele>3</ele>
        <time>2020-12-06T07:50:28.244000+00:00</time>
      </trkpt>
      <trkpt lat="0" lon="0">
        <time>2020-12-06T07:50:28.250000+00:00</time>
      </trkpt>
      <trkpt lat="0" lon="0">
        <time>2020-12-06T07:50:28.251000+00:00</time>
      </trkpt>
      <trkpt lat="0" lon="0">
        <time>2020-12-06T07:50:28.253000+00:00</time>
      </trkpt>
      <trkpt lat="47.26312" lon="-1.43471">
        <ele>3</ele>
        <time>2020-12-06T07:50:29.245000+00:00</time>
      </trkpt>
      <trkpt lat="0" lon="0">
        <time>2020-12-06T07:50:29.252000+00:00</time>
      </trkpt>
      <trkpt lat="0" lon="0">
        <time>2020-12-06T07:50:29.261000+00:00</time>
      </trkpt>
      <trkpt lat="0" lon="0">
        <time>2020-12-06T07:50:29.263000+00:00</time>
      </trkpt>
      <trkpt lat="47.26307" lon="-1.43476">
        <ele>3</ele>
        <time>2020-12-06T07:50:30.235000+00:00</time>
      </trkpt>
      <trkpt lat="0" lon="0">
        <time>2020-12-06T07:50:30.240000+00:00</time>
      </trkpt>
      <trkpt lat="0" lon="0">
        <time>2020-12-06T07:50:30.242000+00:00</time>
      </trkpt>
      <trkpt lat="0" lon="0">
        <time>2020-12-06T07:50:30.243000+00:00</time>
      </trkpt>
      <trkpt lat="47.26301" lon="-1.43481">
        <ele>3</ele>
        <time>2020-12-06T07:50:31.232000+00:00</time>
      </trkpt>
      <trkpt lat="0" lon="0">
        <time>2020-12-06T07:50:31.244000+00:00</time>
      </trkpt>
      <trkpt lat="0" lon="0">
        <time>2020-12-06T07:50:31.250000+00:00</time>
      </trkpt>
      <trkpt lat="0" lon="0">
        <time>2020-12-06T07:50:31.252000+00:00</time>
      </trkpt>
      <trkpt lat="47.26296" lon="-1.43487">
        <ele>3</ele>
        <time>2020-12-06T07:50:32.216000+00:00</time>
      </trkpt>
      <trkpt lat="0" lon="0">
        <time>2020-12-06T07:50:32.233000+00:00</time>
      </trkpt>
      <trkpt lat="0" lon="0">
        <time>2020-12-06T07:50:32.235000+00:00</time>
      </trkpt>
      <trkpt lat="0" lon="0">
        <time>2020-12-06T07:50:32.236000+00:00</time>
      </trkpt>
      <trkpt lat="47.26291" lon="-1.43492">
        <ele>4</ele>
        <time>2020-12-06T07:50:33.235000+00:00</time>
      </trkpt>
      <trkpt lat="0" lon="0">
        <time>2020-12-06T07:50:33.238000+00:00</time>
      </trkpt>
      <trkpt lat="0" lon="0">
        <time>2020-12-06T07:50:33.244000+00:00</time>
      </trkpt>
      <trkpt lat="0" lon="0">
        <time>2020-12-06T07:50:33.247000+00:00</time>
      </trkpt>
      <trkpt lat="47.26285" lon="-1.43498">
        <ele>4</ele>
        <time>2020-12-06T07:50:34.211000+00:00</time>
      </trkpt>
      <trkpt lat="0" lon="0">
        <time>2020-12-06T07:50:34.214000+00:00</time>
      </trkpt>
      <trkpt lat="0" lon="0">
        <time>2020-12-06T07:50:34.215000+00:00</time>
      </trkpt>
      <trkpt lat="0" lon="0">
        <time>2020-12-06T07:50:34.216000+00:00</time>
      </trkpt>
      <trkpt lat="47.2628" lon="-1.43503">
        <ele>4</ele>
        <time>2020-12-06T07:50:35.192000+00:00</time>
      </trkpt>
      <trkpt lat="0" lon="0">
        <time>2020-12-06T07:50:35.195000+00:00</time>
      </trkpt>
      <trkpt lat="0" lon="0">
        <time>2020-12-06T07:50:35.202000+00:00</time>
      </trkpt>
      <trkpt lat="0" lon="0">
        <time>2020-12-06T07:50:35.206000+00:00</time>
      </trkpt>
      <trkpt lat="47.26275" lon="-1.43508">
        <ele>3</ele>
        <time>2020-12-06T07:50:36.205000+00:00</time>
      </trkpt>
      <trkpt lat="0" lon="0">
        <time>2020-12-06T07:50:36.225000+00:00</time>
      </trkpt>
      <trkpt lat="0" lon="0">
        <time>2020-12-06T07:50:36.227000+00:00</time>
      </trkpt>
      <trkpt lat="0" lon="0">
        <time>2020-12-06T07:50:36.228000+00:00</time>
      </trkpt>
      <trkpt lat="47.26271" lon="-1.43514">
        <ele>3</ele>
        <time>2020-12-06T07:50:37.202000+00:00</time>
      </trkpt>
      <trkpt lat="0" lon="0">
        <time>2020-12-06T07:50:37.218000+00:00</time>
      </trkpt>
      <trkpt lat="0" lon="0">
        <time>2020-12-06T07:50:37.224000+00:00</time>
      </trkpt>
      <trkpt lat="0" lon="0">
        <time>2020-12-06T07:50:37.229000+00:00</time>
      </trkpt>
      <trkpt lat="47.26266" lon="-1.43519">
        <ele>3</ele>
        <time>2020-12-06T07:50:38.215000+00:00</time>
      </trkpt>
      <trkpt lat="0" lon="0">
        <time>2020-12-06T07:50:38.218000+00:00</time>
      </trkpt>
      <trkpt lat="0" lon="0">
        <time>2020-12-06T07:50:38.231000+00:00</time>
      </trkpt>
      <trkpt lat="0" lon="0">
        <time>2020-12-06T07:50:38.234000+00:00</time>
      </trkpt>
      <trkpt lat="47.26262" lon="-1.43524">
        <ele>3</ele>
        <time>2020-12-06T07:50:39.201000+00:00</time>
      </trkpt>
      <trkpt lat="0" lon="0">
        <time>2020-12-06T07:50:39.203000+00:00</time>
      </trkpt>
      <trkpt lat="0" lon="0">
        <time>2020-12-06T07:50:39.204000+00:00</time>
      </trkpt>
      <trkpt lat="0" lon="0">
        <time>2020-12-06T07:50:39.210000+00:00</time>
      </trkpt>
      <trkpt lat="47.26258" lon="-1.43529">
        <ele>3</ele>
        <time>2020-12-06T07:50:40.228000+00:00</time>
      </trkpt>
      <trkpt lat="0" lon="0">
        <time>2020-12-06T07:50:40.232000+00:00</time>
      </trkpt>
      <trkpt lat="0" lon="0">
        <time>2020-12-06T07:50:40.239000+00:00</time>
      </trkpt>
      <trkpt lat="0" lon="0">
        <time>2020-12-06T07:50:40.244000+00:00</time>
      </trkpt>
      <trkpt lat="47.26254" lon="-1.43534">
        <ele>3</ele>
        <time>2020-12-06T07:50:41.216000+00:00</time>
      </trkpt>
      <trkpt lat="0" lon="0">
        <time>2020-12-06T07:50:41.218000+00:00</time>
      </trkpt>
      <trkpt lat="0" lon="0">
        <time>2020-12-06T07:50:41.220000+00:00</time>
      </trkpt>
      <trkpt lat="0" lon="0">
        <time>2020-12-06T07:50:41.221000+00:00</time>
      </trkpt>
      <trkpt lat="47.2625" lon="-1.43539">
        <ele>3</ele>
        <time>2020-12-06T07:50:42.208000+00:00</time>
      </trkpt>
      <trkpt lat="0" lon="0">
        <time>2020-12-06T07:50:42.214000+00:00</time>
      </trkpt>
      <trkpt lat="0" lon="0">
        <time>2020-12-06T07:50:42.221000+00:00</time>
      </trkpt>
      <trkpt lat="0" lon="0">
        <time>2020-12-06T07:50:42.224000+00:00</time>
      </trkpt>
      <trkpt lat="47.26247" lon="-1.43544">
        <ele>3</ele>
        <time>2020-12-06T07:50:43.242000+00:00</time>
      </trkpt>
      <trkpt lat="0" lon="0">
        <time>2020-12-06T07:50:43.253000+00:00</time>
      </trkpt>
      <trkpt lat="0" lon="0">
        <time>2020-12-06T07:50:43.254000+00:00</time>
      </trkpt>
      <trkpt lat="0" lon="0">
        <time>2020-12-06T07:50:43.255000+00:00</time>
      </trkpt>
      <trkpt lat="47.26243" lon="-1.43548">
        <ele>3</ele>
        <time>2020-12-06T07:50:44.229000+00:00</time>
      </trkpt>
      <trkpt lat="0" lon="0">
        <time>2020-12-06T07:50:44.234000+00:00</time>
      </trkpt>
      <trkpt lat="0" lon="0">
        <time>2020-12-06T07:50:44.238000+00:00</time>
      </trkpt>
      <trkpt lat="0" lon="0">
        <time>2020-12-06T07:50:44.243000+00:00</time>
      </trkpt>
      <trkpt lat="47.2624" lon="-1.43552">
        <ele>3</ele>
        <time>2020-12-06T07:50:45.216000+00:00</time>
      </trkpt>
      <trkpt lat="0" lon="0">
        <time>2020-12-06T07:50:45.219000+00:00</time>
      </trkpt>
      <trkpt lat="0" lon="0">
        <time>2020-12-06T07:50:45.221000+00:00</time>
      </trkpt>
      <trkpt lat="47.26237" lon="-1.43556">
        <ele>3</ele>
        <time>2020-12-06T07:50:46.215000+00:00</time>
      </trkpt>
      <trkpt lat="0" lon="0">
        <time>2020-12-06T07:50:46.227000+00:00</time>
      </trkpt>
      <trkpt lat="0" lon="0">
        <time>2020-12-06T07:50:46.239000+00:00</time>
      </trkpt>
      <trkpt lat="0" lon="0">
        <time>2020-12-06T07:50:46.241000+00:00</time>
      </trkpt>
      <trkpt lat="47.26235" lon="-1.4356">
        <ele>2</ele>
        <time>2020-12-06T07:50:47.224000+00:00</time>
      </trkpt>
      <trkpt lat="0" lon="0">
        <time>2020-12-06T07:50:47.229000+00:00</time>
      </trkpt>
      <trkpt lat="0" lon="0">
        <time>2020-12-06T07:50:47.233000+00:00</time>
      </trkpt>
      <trkpt lat="0" lon="0">
        <time>2020-12-06T07:50:47.238000+00:00</time>
      </trkpt>
      <trkpt lat="47.26232" lon="-1.43563">
        <ele>2</ele>
        <time>2020-12-06T07:50:48.230000+00:00</time>
      </trkpt>
      <trkpt lat="0" lon="0">
        <time>2020-12-06T07:50:48.233000+00:00</time>
      </trkpt>
      <trkpt lat="0" lon="0">
        <time>2020-12-06T07:50:48.238000+00:00</time>
      </trkpt>
      <trkpt lat="0" lon="0">
        <time>2020-12-06T07:50:48.239000+00:00</time>
      </trkpt>
      <trkpt lat="47.2623" lon="-1.43566">
        <ele>2</ele>
        <time>2020-12-06T07:50:49.243000+00:00</time>
      </trkpt>
      <trkpt lat="0" lon="0">
        <time>2020-12-06T07:50:49.247000+00:00</time>
      </trkpt>
      <trkpt lat="0" lon="0">
        <time>2020-12-06T07:50:49.250000+00:00</time>
      </trkpt>
      <trkpt lat="0" lon="0">
        <time>2020-12-06T07:50:49.253000+00:00</time>
      </trkpt>
      <trkpt lat="47.26227" lon="-1.43567">
        <ele>2</ele>
        <time>2020-12-06T07:50:50.215000+00:00</time>
      </trkpt>
      <trkpt lat="0" lon="0">
        <time>2020-12-06T07:50:50.223000+00:00</time>
      </trkpt>
      <trkpt lat="0" lon="0">
        <time>2020-12-06T07:50:50.234000+00:00</time>
      </trkpt>
      <trkpt lat="0" lon="0">
        <time>2020-12-06T07:50:50.237000+00:00</time>
      </trkpt>
      <trkpt lat="47.26225" lon="-1.43567">
        <ele>2</ele>
        <time>2020-12-06T07:50:51.220000+00:00</time>
      </trkpt>
      <trkpt lat="0" lon="0">
        <time>2020-12-06T07:50:51.235000+00:00</time>
      </trkpt>
      <trkpt lat="0" lon="0">
        <time>2020-12-06T07:50:51.238000+00:00</time>
      </trkpt>
      <trkpt lat="0" lon="0">
        <time>2020-12-06T07:50:51.239000+00:00</time>
      </trkpt>
      <trkpt lat="47.26222" lon="-1.43565">
        <ele>2</ele>
        <time>2020-12-06T07:50:52.192000+00:00</time>
      </trkpt>
      <trkpt lat="0" lon="0">
        <time>2020-12-06T07:50:52.193000+00:00</time>
      </trkpt>
      <trkpt lat="0" lon="0">
        <time>2020-12-06T07:50:52.194000+00:00</time>
      </trkpt>
      <trkpt lat="0" lon="0">
        <time>2020-12-06T07:50:52.195000+00:00</time>
      </trkpt>
      <trkpt lat="47.2622" lon="-1.43562">
        <ele>2</ele>
        <time>2020-12-06T07:50:53.211000+00:00</time>
      </trkpt>
      <trkpt lat="0" lon="0">
        <time>2020-12-06T07:50:53.220000+00:00</time>
      </trkpt>
      <trkpt lat="0" lon="0">
        <time>2020-12-06T07:50:53.221000+00:00</time>
      </trkpt>
      <trkpt lat="0" lon="0">
        <time>2020-12-06T07:50:53.222000+00:00</time>
      </trkpt>
      <trkpt lat="47.26218" lon="-1.43559">
        <ele>2</ele>
        <time>2020-12-06T07:50:54.219000+00:00</time>
      </trkpt>
      <trkpt lat="0" lon="0">
        <time>2020-12-06T07:50:54.223000+00:00</time>
      </trkpt>
      <trkpt lat="0" lon="0">
        <time>2020-12-06T07:50:54.226000+00:00</time>
      </trkpt>
      <trkpt lat="0" lon="0">
        <time>2020-12-06T07:50:54.228000+00:00</time>
      </trkpt>
      <trkpt lat="47.26216" lon="-1.43554">
        <ele>2</ele>
        <time>2020-12-06T07:50:55.209000+00:00</time>
      </trkpt>
      <trkpt lat="0" lon="0">
        <time>2020-12-06T07:50:55.212000+00:00</time>
      </trkpt>
      <trkpt lat="0" lon="0">
        <time>2020-12-06T07:50:55.232000+00:00</time>
      </trkpt>
      <trkpt lat="0" lon="0">
        <time>2020-12-06T07:50:55.234000+00:00</time>
      </trkpt>
      <trkpt lat="47.26213" lon="-1.43549">
        <ele>2</ele>
        <time>2020-12-06T07:50:56.216000+00:00</time>
      </trkpt>
      <trkpt lat="0" lon="0">
        <time>2020-12-06T07:50:56.221000+00:00</time>
      </trkpt>
      <trkpt lat="0" lon="0">
        <time>2020-12-06T07:50:56.227000+00:00</time>
      </trkpt>
      <trkpt lat="0" lon="0">
        <time>2020-12-06T07:50:56.229000+00:00</time>
      </trkpt>
      <trkpt lat="47.26211" lon="-1.43544">
        <ele>2</ele>
        <time>2020-12-06T07:50:57.223000+00:00</time>
      </trkpt>
      <trkpt lat="0" lon="0">
        <time>2020-12-06T07:50:57.234000+00:00</time>
      </trkpt>
      <trkpt lat="0" lon="0">
        <time>2020-12-06T07:50:57.240000+00:00</time>
      </trkpt>
      <trkpt lat="0" lon="0">
        <time>2020-12-06T07:50:57.242000+00:00</time>
      </trkpt>
      <trkpt lat="47.26209" lon="-1.43538">
        <ele>2</ele>
        <time>2020-12-06T07:50:58.239000+00:00</time>
      </trkpt>
      <trkpt lat="0" lon="0">
        <time>2020-12-06T07:50:58.243000+00:00</time>
      </trkpt>
      <trkpt lat="0" lon="0">
        <time>2020-12-06T07:50:58.245000+00:00</time>
      </trkpt>
      <trkpt lat="0" lon="0">
        <time>2020-12-06T07:50:58.246000+00:00</time>
      </trkpt>
      <trkpt lat="47.26206" lon="-1.43533">
        <ele>2</ele>
        <time>2020-12-06T07:50:59.214000+00:00</time>
      </trkpt>
      <trkpt lat="0" lon="0">
        <time>2020-12-06T07:50:59.223000+00:00</time>
      </trkpt>
      <trkpt lat="0" lon="0">
        <time>2020-12-06T07:50:59.232000+00:00</time>
      </trkpt>
      <trkpt lat="0" lon="0">
        <time>2020-12-06T07:50:59.234000+00:00</time>
      </trkpt>
      <trkpt lat="47.26203" lon="-1.43526">
        <ele>2</ele>
        <time>2020-12-06T07:51:00.221000+00:00</time>
      </trkpt>
      <trkpt lat="0" lon="0">
        <time>2020-12-06T07:51:00.234000+00:00</time>
      </trkpt>
      <trkpt lat="0" lon="0">
        <time>2020-12-06T07:51:00.238000+00:00</time>
      </trkpt>
      <trkpt lat="0" lon="0">
        <time>2020-12-06T07:51:00.240000+00:00</time>
      </trkpt>
      <trkpt lat="47.26201" lon="-1.4352">
        <ele>3</ele>
        <time>2020-12-06T07:51:01.238000+00:00</time>
      </trkpt>
      <trkpt lat="0" lon="0">
        <time>2020-12-06T07:51:01.247000+00:00</time>
      </trkpt>
      <trkpt lat="0" lon="0">
        <time>2020-12-06T07:51:01.251000+00:00</time>
      </trkpt>
      <trkpt lat="0" lon="0">
        <time>2020-12-06T07:51:01.255000+00:00</time>
      </trkpt>
      <trkpt lat="47.26198" lon="-1.43514">
        <ele>3</ele>
        <time>2020-12-06T07:51:02.228000+00:00</time>
      </trkpt>
      <trkpt lat="0" lon="0">
        <time>2020-12-06T07:51:02.231000+00:00</time>
      </trkpt>
      <trkpt lat="0" lon="0">
        <time>2020-12-06T07:51:02.239000+00:00</time>
      </trkpt>
      <trkpt lat="0" lon="0">
        <time>2020-12-06T07:51:02.241000+00:00</time>
      </trkpt>
      <trkpt lat="47.26195" lon="-1.43508">
        <ele>3</ele>
        <time>2020-12-06T07:51:03.223000+00:00</time>
      </trkpt>
      <trkpt lat="0" lon="0">
        <time>2020-12-06T07:51:03.227000+00:00</time>
      </trkpt>
      <trkpt lat="0" lon="0">
        <time>2020-12-06T07:51:03.239000+00:00</time>
      </trkpt>
      <trkpt lat="0" lon="0">
        <time>2020-12-06T07:51:03.243000+00:00</time>
      </trkpt>
      <trkpt lat="47.26192" lon="-1.43502">
        <ele>3</ele>
        <time>2020-12-06T07:51:04.286000+00:00</time>
      </trkpt>
      <trkpt lat="0" lon="0">
        <time>2020-12-06T07:51:04.288000+00:00</time>
      </trkpt>
      <trkpt lat="0" lon="0">
        <time>2020-12-06T07:51:04.290000+00:00</time>
      </trkpt>
      <trkpt lat="0" lon="0">
        <time>2020-12-06T07:51:04.294000+00:00</time>
      </trkpt>
      <trkpt lat="47.26189" lon="-1.43497">
        <ele>3</ele>
        <time>2020-12-06T07:51:05.240000+00:00</time>
      </trkpt>
      <trkpt lat="0" lon="0">
        <time>2020-12-06T07:51:05.253000+00:00</time>
      </trkpt>
      <trkpt lat="0" lon="0">
        <time>2020-12-06T07:51:05.259000+00:00</time>
      </trkpt>
      <trkpt lat="0" lon="0">
        <time>2020-12-06T07:51:05.261000+00:00</time>
      </trkpt>
      <trkpt lat="47.26186" lon="-1.43491">
        <ele>3</ele>
        <time>2020-12-06T07:51:06.237000+00:00</time>
      </trkpt>
      <trkpt lat="0" lon="0">
        <time>2020-12-06T07:51:06.248000+00:00</time>
      </trkpt>
      <trkpt lat="0" lon="0">
        <time>2020-12-06T07:51:06.255000+00:00</time>
      </trkpt>
      <trkpt lat="0" lon="0">
        <time>2020-12-06T07:51:06.258000+00:00</time>
      </trkpt>
      <trkpt lat="47.26183" lon="-1.43485">
        <ele>3</ele>
        <time>2020-12-06T07:51:07.237000+00:00</time>
      </trkpt>
      <trkpt lat="0" lon="0">
        <time>2020-12-06T07:51:07.244000+00:00</time>
      </trkpt>
      <trkpt lat="0" lon="0">
        <time>2020-12-06T07:51:07.245000+00:00</time>
      </trkpt>
      <trkpt lat="0" lon="0">
        <time>2020-12-06T07:51:07.246000+00:00</time>
      </trkpt>
      <trkpt lat="47.2618" lon="-1.4348">
        <ele>3</ele>
        <time>2020-12-06T07:51:08.244000+00:00</time>
      </trkpt>
      <trkpt lat="0" lon="0">
        <time>2020-12-06T07:51:08.255000+00:00</time>
      </trkpt>
      <trkpt lat="0" lon="0">
        <time>2020-12-06T07:51:08.259000+00:00</time>
      </trkpt>
      <trkpt lat="0" lon="0">
        <time>2020-12-06T07:51:08.260000+00:00</time>
      </trkpt>
      <trkpt lat="47.26177" lon="-1.43474">
        <ele>3</ele>
        <time>2020-12-06T07:51:09.241000+00:00</time>
      </trkpt>
      <trkpt lat="0" lon="0">
        <time>2020-12-06T07:51:09.249000+00:00</time>
      </trkpt>
      <trkpt lat="0" lon="0">
        <time>2020-12-06T07:51:09.255000+00:00</time>
      </trkpt>
      <trkpt lat="0" lon="0">
        <time>2020-12-06T07:51:09.256000+00:00</time>
      </trkpt>
      <trkpt lat="47.26173" lon="-1.43468">
        <ele>3</ele>
        <time>2020-12-06T07:51:10.234000+00:00</time>
      </trkpt>
      <trkpt lat="0" lon="0">
        <time>2020-12-06T07:51:10.239000+00:00</time>
      </trkpt>
      <trkpt lat="0" lon="0">
        <time>2020-12-06T07:51:10.248000+00:00</time>
      </trkpt>
      <trkpt lat="0" lon="0">
        <time>2020-12-06T07:51:10.254000+00:00</time>
      </trkpt>
      <trkpt lat="47.2617" lon="-1.43463">
        <ele>3</ele>
        <time>2020-12-06T07:51:11.217000+00:00</time>
      </trkpt>
      <trkpt lat="0" lon="0">
        <time>2020-12-06T07:51:11.219000+00:00</time>
      </trkpt>
      <trkpt lat="0" lon="0">
        <time>2020-12-06T07:51:11.224000+00:00</time>
      </trkpt>
      <trkpt lat="0" lon="0">
        <time>2020-12-06T07:51:11.225000+00:00</time>
      </trkpt>
      <trkpt lat="47.26166" lon="-1.43457">
        <ele>4</ele>
        <time>2020-12-06T07:51:12.266000+00:00</time>
      </trkpt>
      <trkpt lat="0" lon="0">
        <time>2020-12-06T07:51:12.274000+00:00</time>
      </trkpt>
      <trkpt lat="0" lon="0">
        <time>2020-12-06T07:51:12.276000+00:00</time>
      </trkpt>
      <trkpt lat="0" lon="0">
        <time>2020-12-06T07:51:12.278000+00:00</time>
      </trkpt>
      <trkpt lat="47.26162" lon="-1.43451">
        <ele>4</ele>
        <time>2020-12-06T07:51:13.227000+00:00</time>
      </trkpt>
      <trkpt lat="0" lon="0">
        <time>2020-12-06T07:51:13.243000+00:00</time>
      </trkpt>
      <trkpt lat="0" lon="0">
        <time>2020-12-06T07:51:13.248000+00:00</time>
      </trkpt>
      <trkpt lat="0" lon="0">
        <time>2020-12-06T07:51:13.251000+00:00</time>
      </trkpt>
      <trkpt lat="47.26158" lon="-1.43445">
        <ele>4</ele>
        <time>2020-12-06T07:51:14.248000+00:00</time>
      </trkpt>
      <trkpt lat="0" lon="0">
        <time>2020-12-06T07:51:14.253000+00:00</time>
      </trkpt>
      <trkpt lat="0" lon="0">
        <time>2020-12-06T07:51:14.269000+00:00</time>
      </trkpt>
      <trkpt lat="0" lon="0">
        <time>2020-12-06T07:51:14.274000+00:00</time>
      </trkpt>
      <trkpt lat="47.26154" lon="-1.43439">
        <ele>4</ele>
        <time>2020-12-06T07:51:15.237000+00:00</time>
      </trkpt>
      <trkpt lat="0" lon="0">
        <time>2020-12-06T07:51:15.240000+00:00</time>
      </trkpt>
      <trkpt lat="0" lon="0">
        <time>2020-12-06T07:51:15.246000+00:00</time>
      </trkpt>
      <trkpt lat="0" lon="0">
        <time>2020-12-06T07:51:15.250000+00:00</time>
      </trkpt>
      <trkpt lat="47.2615" lon="-1.43434">
        <ele>4</ele>
        <time>2020-12-06T07:51:16.264000+00:00</time>
      </trkpt>
      <trkpt lat="0" lon="0">
        <time>2020-12-06T07:51:16.271000+00:00</time>
      </trkpt>
      <trkpt lat="0" lon="0">
        <time>2020-12-06T07:51:16.274000+00:00</time>
      </trkpt>
      <trkpt lat="0" lon="0">
        <time>2020-12-06T07:51:16.279000+00:00</time>
      </trkpt>
      <trkpt lat="47.26146" lon="-1.43428">
        <ele>4</ele>
        <time>2020-12-06T07:51:17.243000+00:00</time>
      </trkpt>
      <trkpt lat="0" lon="0">
        <time>2020-12-06T07:51:17.254000+00:00</time>
      </trkpt>
      <trkpt lat="0" lon="0">
        <time>2020-12-06T07:51:17.260000+00:00</time>
      </trkpt>
      <trkpt lat="0" lon="0">
        <time>2020-12-06T07:51:17.262000+00:00</time>
      </trkpt>
      <trkpt lat="47.26142" lon="-1.43422">
        <ele>5</ele>
        <time>2020-12-06T07:51:18.235000+00:00</time>
      </trkpt>
      <trkpt lat="0" lon="0">
        <time>2020-12-06T07:51:18.243000+00:00</time>
      </trkpt>
      <trkpt lat="0" lon="0">
        <time>2020-12-06T07:51:18.251000+00:00</time>
      </trkpt>
      <trkpt lat="0" lon="0">
        <time>2020-12-06T07:51:18.254000+00:00</time>
      </trkpt>
      <trkpt lat="47.26138" lon="-1.43417">
        <ele>5</ele>
        <time>2020-12-06T07:51:19.222000+00:00</time>
      </trkpt>
      <trkpt lat="0" lon="0">
        <time>2020-12-06T07:51:19.226000+00:00</time>
      </trkpt>
      <trkpt lat="0" lon="0">
        <time>2020-12-06T07:51:19.232000+00:00</time>
      </trkpt>
      <trkpt lat="0" lon="0">
        <time>2020-12-06T07:51:19.234000+00:00</time>
      </trkpt>
      <trkpt lat="47.26134" lon="-1.43411">
        <ele>5</ele>
        <time>2020-12-06T07:51:20.243000+00:00</time>
      </trkpt>
      <trkpt lat="0" lon="0">
        <time>2020-12-06T07:51:20.250000+00:00</time>
      </trkpt>
      <trkpt lat="0" lon="0">
        <time>2020-12-06T07:51:20.256000+00:00</time>
      </trkpt>
      <trkpt lat="0" lon="0">
        <time>2020-12-06T07:51:20.258000+00:00</time>
      </trkpt>
      <trkpt lat="47.2613" lon="-1.43406">
        <ele>5</ele>
        <time>2020-12-06T07:51:21.227000+00:00</time>
      </trkpt>
      <trkpt lat="0" lon="0">
        <time>2020-12-06T07:51:21.241000+00:00</time>
      </trkpt>
      <trkpt lat="0" lon="0">
        <time>2020-12-06T07:51:21.243000+00:00</time>
      </trkpt>
      <trkpt lat="0" lon="0">
        <time>2020-12-06T07:51:21.244000+00:00</time>
      </trkpt>
      <trkpt lat="47.26127" lon="-1.43401">
        <ele>5</ele>
        <time>2020-12-06T07:51:22.262000+00:00</time>
      </trkpt>
      <trkpt lat="0" lon="0">
        <time>2020-12-06T07:51:22.267000+00:00</time>
      </trkpt>
      <trkpt lat="0" lon="0">
        <time>2020-12-06T07:51:22.273000+00:00</time>
      </trkpt>
      <trkpt lat="0" lon="0">
        <time>2020-12-06T07:51:22.274000+00:00</time>
      </trkpt>
      <trkpt lat="47.26123" lon="-1.43395">
        <ele>5</ele>
        <time>2020-12-06T07:51:23.241000+00:00</time>
      </trkpt>
      <trkpt lat="0" lon="0">
        <time>2020-12-06T07:51:23.249000+00:00</time>
      </trkpt>
      <trkpt lat="0" lon="0">
        <time>2020-12-06T07:51:23.251000+00:00</time>
      </trkpt>
      <trkpt lat="0" lon="0">
        <time>2020-12-06T07:51:23.252000+00:00</time>
      </trkpt>
      <trkpt lat="47.26119" lon="-1.4339">
        <ele>5</ele>
        <time>2020-12-06T07:51:24.210000+00:00</time>
      </trkpt>
      <trkpt lat="0" lon="0">
        <time>2020-12-06T07:51:24.222000+00:00</time>
      </trkpt>
      <trkpt lat="0" lon="0">
        <time>2020-12-06T07:51:24.226000+00:00</time>
      </trkpt>
      <trkpt lat="0" lon="0">
        <time>2020-12-06T07:51:24.228000+00:00</time>
      </trkpt>
      <trkpt lat="47.26116" lon="-1.43385">
        <ele>5</ele>
        <time>2020-12-06T07:51:25.232000+00:00</time>
      </trkpt>
      <trkpt lat="0" lon="0">
        <time>2020-12-06T07:51:25.239000+00:00</time>
      </trkpt>
      <trkpt lat="0" lon="0">
        <time>2020-12-06T07:51:25.241000+00:00</time>
      </trkpt>
      <trkpt lat="0" lon="0">
        <time>2020-12-06T07:51:25.242000+00:00</time>
      </trkpt>
      <trkpt lat="47.26112" lon="-1.4338">
        <ele>5</ele>
        <time>2020-12-06T07:51:26.278000+00:00</time>
      </trkpt>
      <trkpt lat="0" lon="0">
        <time>2020-12-06T07:51:26.283000+00:00</time>
      </trkpt>
      <trkpt lat="0" lon="0">
        <time>2020-12-06T07:51:26.290000+00:00</time>
      </trkpt>
      <trkpt lat="0" lon="0">
        <time>2020-12-06T07:51:26.293000+00:00</time>
      </trkpt>
      <trkpt lat="47.26108" lon="-1.43375">
        <ele>5</ele>
        <time>2020-12-06T07:51:27.236000+00:00</time>
      </trkpt>
      <trkpt lat="0" lon="0">
        <time>2020-12-06T07:51:27.250000+00:00</time>
      </trkpt>
      <trkpt lat="0" lon="0">
        <time>2020-12-06T07:51:27.255000+00:00</time>
      </trkpt>
      <trkpt lat="0" lon="0">
        <time>2020-12-06T07:51:27.256000+00:00</time>
      </trkpt>
      <trkpt lat="47.26104" lon="-1.4337">
        <ele>5</ele>
        <time>2020-12-06T07:51:28.276000+00:00</time>
      </trkpt>
      <trkpt lat="0" lon="0">
        <time>2020-12-06T07:51:28.278000+00:00</time>
      </trkpt>
      <trkpt lat="0" lon="0">
        <time>2020-12-06T07:51:28.279000+00:00</time>
      </trkpt>
      <trkpt lat="0" lon="0">
        <time>2020-12-06T07:51:28.280000+00:00</time>
      </trkpt>
      <trkpt lat="47.26101" lon="-1.43364">
        <ele>5</ele>
        <time>2020-12-06T07:51:29.247000+00:00</time>
      </trkpt>
      <trkpt lat="0" lon="0">
        <time>2020-12-06T07:51:29.256000+00:00</time>
      </trkpt>
      <trkpt lat="0" lon="0">
        <time>2020-12-06T07:51:29.257000+00:00</time>
      </trkpt>
      <trkpt lat="0" lon="0">
        <time>2020-12-06T07:51:29.258000+00:00</time>
      </trkpt>
      <trkpt lat="47.26097" lon="-1.43359">
        <ele>5</ele>
        <time>2020-12-06T07:51:30.248000+00:00</time>
      </trkpt>
      <trkpt lat="0" lon="0">
        <time>2020-12-06T07:51:30.252000+00:00</time>
      </trkpt>
      <trkpt lat="0" lon="0">
        <time>2020-12-06T07:51:30.267000+00:00</time>
      </trkpt>
      <trkpt lat="0" lon="0">
        <time>2020-12-06T07:51:30.271000+00:00</time>
      </trkpt>
      <trkpt lat="47.26093" lon="-1.43353">
        <ele>5</ele>
        <time>2020-12-06T07:51:31.279000+00:00</time>
      </trkpt>
      <trkpt lat="0" lon="0">
        <time>2020-12-06T07:51:31.286000+00:00</time>
      </trkpt>
      <trkpt lat="0" lon="0">
        <time>2020-12-06T07:51:31.288000+00:00</time>
      </trkpt>
      <trkpt lat="0" lon="0">
        <time>2020-12-06T07:51:31.289000+00:00</time>
      </trkpt>
      <trkpt lat="47.26089" lon="-1.43348">
        <ele>5</ele>
        <time>2020-12-06T07:51:32.234000+00:00</time>
      </trkpt>
      <trkpt lat="0" lon="0">
        <time>2020-12-06T07:51:32.245000+00:00</time>
      </trkpt>
      <trkpt lat="0" lon="0">
        <time>2020-12-06T07:51:32.249000+00:00</time>
      </trkpt>
      <trkpt lat="0" lon="0">
        <time>2020-12-06T07:51:32.251000+00:00</time>
      </trkpt>
      <trkpt lat="47.26085" lon="-1.43342">
        <ele>5</ele>
        <time>2020-12-06T07:51:33.232000+00:00</time>
      </trkpt>
      <trkpt lat="0" lon="0">
        <time>2020-12-06T07:51:33.240000+00:00</time>
      </trkpt>
      <trkpt lat="0" lon="0">
        <time>2020-12-06T07:51:33.242000+00:00</time>
      </trkpt>
      <trkpt lat="0" lon="0">
        <time>2020-12-06T07:51:33.243000+00:00</time>
      </trkpt>
      <trkpt lat="47.2608" lon="-1.43336">
        <ele>5</ele>
        <time>2020-12-06T07:51:34.242000+00:00</time>
      </trkpt>
      <trkpt lat="0" lon="0">
        <time>2020-12-06T07:51:34.249000+00:00</time>
      </trkpt>
      <trkpt lat="0" lon="0">
        <time>2020-12-06T07:51:34.250000+00:00</time>
      </trkpt>
      <trkpt lat="0" lon="0">
        <time>2020-12-06T07:51:34.251000+00:00</time>
      </trkpt>
      <trkpt lat="47.26076" lon="-1.4333">
        <ele>5</ele>
        <time>2020-12-06T07:51:35.251000+00:00</time>
      </trkpt>
      <trkpt lat="0" lon="0">
        <time>2020-12-06T07:51:35.270000+00:00</time>
      </trkpt>
      <trkpt lat="0" lon="0">
        <time>2020-12-06T07:51:35.272000+00:00</time>
      </trkpt>
      <trkpt lat="0" lon="0">
        <time>2020-12-06T07:51:35.275000+00:00</time>
      </trkpt>
      <trkpt lat="47.26072" lon="-1.43325">
        <ele>4</ele>
        <time>2020-12-06T07:51:36.239000+00:00</time>
      </trkpt>
      <trkpt lat="0" lon="0">
        <time>2020-12-06T07:51:36.248000+00:00</time>
      </trkpt>
      <trkpt lat="0" lon="0">
        <time>2020-12-06T07:51:36.259000+00:00</time>
      </trkpt>
      <trkpt lat="0" lon="0">
        <time>2020-12-06T07:51:36.260000+00:00</time>
      </trkpt>
      <trkpt lat="47.26068" lon="-1.43318">
        <ele>4</ele>
        <time>2020-12-06T07:51:37.246000+00:00</time>
      </trkpt>
      <trkpt lat="0" lon="0">
        <time>2020-12-06T07:51:37.249000+00:00</time>
      </trkpt>
      <trkpt lat="0" lon="0">
        <time>2020-12-06T07:51:37.257000+00:00</time>
      </trkpt>
      <trkpt lat="0" lon="0">
        <time>2020-12-06T07:51:37.258000+00:00</time>
      </trkpt>
      <trkpt lat="47.26063" lon="-1.43312">
        <ele>4</ele>
        <time>2020-12-06T07:51:38.238000+00:00</time>
      </trkpt>
      <trkpt lat="0" lon="0">
        <time>2020-12-06T07:51:38.250000+00:00</time>
      </trkpt>
      <trkpt lat="0" lon="0">
        <time>2020-12-06T07:51:38.258000+00:00</time>
      </trkpt>
      <trkpt lat="0" lon="0">
        <time>2020-12-06T07:51:38.261000+00:00</time>
      </trkpt>
      <trkpt lat="47.26058" lon="-1.43305">
        <ele>3</ele>
        <time>2020-12-06T07:51:39.240000+00:00</time>
      </trkpt>
      <trkpt lat="0" lon="0">
        <time>2020-12-06T07:51:39.243000+00:00</time>
      </trkpt>
      <trkpt lat="0" lon="0">
        <time>2020-12-06T07:51:39.251000+00:00</time>
      </trkpt>
      <trkpt lat="0" lon="0">
        <time>2020-12-06T07:51:39.253000+00:00</time>
      </trkpt>
      <trkpt lat="47.26054" lon="-1.43299">
        <ele>3</ele>
        <time>2020-12-06T07:51:40.231000+00:00</time>
      </trkpt>
      <trkpt lat="0" lon="0">
        <time>2020-12-06T07:51:40.237000+00:00</time>
      </trkpt>
      <trkpt lat="0" lon="0">
        <time>2020-12-06T07:51:40.239000+00:00</time>
      </trkpt>
      <trkpt lat="0" lon="0">
        <time>2020-12-06T07:51:40.240000+00:00</time>
      </trkpt>
      <trkpt lat="47.26049" lon="-1.43293">
        <ele>3</ele>
        <time>2020-12-06T07:51:41.258000+00:00</time>
      </trkpt>
      <trkpt lat="0" lon="0">
        <time>2020-12-06T07:51:41.277000+00:00</time>
      </trkpt>
      <trkpt lat="0" lon="0">
        <time>2020-12-06T07:51:41.281000+00:00</time>
      </trkpt>
      <trkpt lat="0" lon="0">
        <time>2020-12-06T07:51:41.282000+00:00</time>
      </trkpt>
      <trkpt lat="47.26044" lon="-1.43286">
        <ele>3</ele>
        <time>2020-12-06T07:51:42.269000+00:00</time>
      </trkpt>
      <trkpt lat="0" lon="0">
        <time>2020-12-06T07:51:42.277000+00:00</time>
      </trkpt>
      <trkpt lat="0" lon="0">
        <time>2020-12-06T07:51:42.281000+00:00</time>
      </trkpt>
      <trkpt lat="0" lon="0">
        <time>2020-12-06T07:51:42.284000+00:00</time>
      </trkpt>
      <trkpt lat="47.26039" lon="-1.43279">
        <ele>3</ele>
        <time>2020-12-06T07:51:43.232000+00:00</time>
      </trkpt>
      <trkpt lat="0" lon="0">
        <time>2020-12-06T07:51:43.247000+00:00</time>
      </trkpt>
      <trkpt lat="0" lon="0">
        <time>2020-12-06T07:51:43.249000+00:00</time>
      </trkpt>
      <trkpt lat="0" lon="0">
        <time>2020-12-06T07:51:43.251000+00:00</time>
      </trkpt>
      <trkpt lat="47.26035" lon="-1.43273">
        <ele>3</ele>
        <time>2020-12-06T07:51:44.249000+00:00</time>
      </trkpt>
      <trkpt lat="0" lon="0">
        <time>2020-12-06T07:51:44.254000+00:00</time>
      </trkpt>
      <trkpt lat="0" lon="0">
        <time>2020-12-06T07:51:44.260000+00:00</time>
      </trkpt>
      <trkpt lat="0" lon="0">
        <time>2020-12-06T07:51:44.262000+00:00</time>
      </trkpt>
      <trkpt lat="47.2603" lon="-1.43266">
        <ele>3</ele>
        <time>2020-12-06T07:51:45.211000+00:00</time>
      </trkpt>
      <trkpt lat="0" lon="0">
        <time>2020-12-06T07:51:45.222000+00:00</time>
      </trkpt>
      <trkpt lat="0" lon="0">
        <time>2020-12-06T07:51:45.227000+00:00</time>
      </trkpt>
      <trkpt lat="0" lon="0">
        <time>2020-12-06T07:51:45.230000+00:00</time>
      </trkpt>
      <trkpt lat="47.26026" lon="-1.43259">
        <ele>4</ele>
        <time>2020-12-06T07:51:46.212000+00:00</time>
      </trkpt>
      <trkpt lat="0" lon="0">
        <time>2020-12-06T07:51:46.223000+00:00</time>
      </trkpt>
      <trkpt lat="0" lon="0">
        <time>2020-12-06T07:51:46.228000+00:00</time>
      </trkpt>
      <trkpt lat="0" lon="0">
        <time>2020-12-06T07:51:46.231000+00:00</time>
      </trkpt>
      <trkpt lat="47.26022" lon="-1.43253">
        <ele>4</ele>
        <time>2020-12-06T07:51:47.245000+00:00</time>
      </trkpt>
      <trkpt lat="0" lon="0">
        <time>2020-12-06T07:51:47.248000+00:00</time>
      </trkpt>
      <trkpt lat="0" lon="0">
        <time>2020-12-06T07:51:47.259000+00:00</time>
      </trkpt>
      <trkpt lat="0" lon="0">
        <time>2020-12-06T07:51:47.262000+00:00</time>
      </trkpt>
      <trkpt lat="47.26017" lon="-1.43246">
        <ele>5</ele>
        <time>2020-12-06T07:51:48.251000+00:00</time>
      </trkpt>
      <trkpt lat="0" lon="0">
        <time>2020-12-06T07:51:48.255000+00:00</time>
      </trkpt>
      <trkpt lat="0" lon="0">
        <time>2020-12-06T07:51:48.265000+00:00</time>
      </trkpt>
      <trkpt lat="0" lon="0">
        <time>2020-12-06T07:51:48.266000+00:00</time>
      </trkpt>
      <trkpt lat="47.26012" lon="-1.43239">
        <ele>5</ele>
        <time>2020-12-06T07:51:49.230000+00:00</time>
      </trkpt>
      <trkpt lat="0" lon="0">
        <time>2020-12-06T07:51:49.238000+00:00</time>
      </trkpt>
      <trkpt lat="0" lon="0">
        <time>2020-12-06T07:51:49.241000+00:00</time>
      </trkpt>
      <trkpt lat="0" lon="0">
        <time>2020-12-06T07:51:49.242000+00:00</time>
      </trkpt>
      <trkpt lat="47.26008" lon="-1.43232">
        <ele>5</ele>
        <time>2020-12-06T07:51:50.230000+00:00</time>
      </trkpt>
      <trkpt lat="0" lon="0">
        <time>2020-12-06T07:51:50.242000+00:00</time>
      </trkpt>
      <trkpt lat="0" lon="0">
        <time>2020-12-06T07:51:50.253000+00:00</time>
      </trkpt>
      <trkpt lat="0" lon="0">
        <time>2020-12-06T07:51:50.254000+00:00</time>
      </trkpt>
      <trkpt lat="47.26003" lon="-1.43225">
        <ele>6</ele>
        <time>2020-12-06T07:51:51.252000+00:00</time>
      </trkpt>
      <trkpt lat="0" lon="0">
        <time>2020-12-06T07:51:51.264000+00:00</time>
      </trkpt>
      <trkpt lat="0" lon="0">
        <time>2020-12-06T07:51:51.268000+00:00</time>
      </trkpt>
      <trkpt lat="0" lon="0">
        <time>2020-12-06T07:51:51.269000+00:00</time>
      </trkpt>
      <trkpt lat="47.25998" lon="-1.43218">
        <ele>6</ele>
        <time>2020-12-06T07:51:52.181000+00:00</time>
      </trkpt>
      <trkpt lat="0" lon="0">
        <time>2020-12-06T07:51:52.184000+00:00</time>
      </trkpt>
      <trkpt lat="0" lon="0">
        <time>2020-12-06T07:51:52.197000+00:00</time>
      </trkpt>
      <trkpt lat="0" lon="0">
        <time>2020-12-06T07:51:52.198000+00:00</time>
      </trkpt>
      <trkpt lat="47.25993" lon="-1.43211">
        <ele>6</ele>
        <time>2020-12-06T07:51:53.246000+00:00</time>
      </trkpt>
      <trkpt lat="0" lon="0">
        <time>2020-12-06T07:51:53.253000+00:00</time>
      </trkpt>
      <trkpt lat="0" lon="0">
        <time>2020-12-06T07:51:53.264000+00:00</time>
      </trkpt>
      <trkpt lat="0" lon="0">
        <time>2020-12-06T07:51:53.265000+00:00</time>
      </trkpt>
      <trkpt lat="47.25988" lon="-1.43203">
        <ele>6</ele>
        <time>2020-12-06T07:51:54.212000+00:00</time>
      </trkpt>
      <trkpt lat="0" lon="0">
        <time>2020-12-06T07:51:54.216000+00:00</time>
      </trkpt>
      <trkpt lat="0" lon="0">
        <time>2020-12-06T07:51:54.221000+00:00</time>
      </trkpt>
      <trkpt lat="0" lon="0">
        <time>2020-12-06T07:51:54.229000+00:00</time>
      </trkpt>
      <trkpt lat="47.25983" lon="-1.43196">
        <ele>6</ele>
        <time>2020-12-06T07:51:55.243000+00:00</time>
      </trkpt>
      <trkpt lat="0" lon="0">
        <time>2020-12-06T07:51:55.245000+00:00</time>
      </trkpt>
      <trkpt lat="0" lon="0">
        <time>2020-12-06T07:51:55.246000+00:00</time>
      </trkpt>
      <trkpt lat="0" lon="0">
        <time>2020-12-06T07:51:55.247000+00:00</time>
      </trkpt>
      <trkpt lat="47.25979" lon="-1.43189">
        <ele>6</ele>
        <time>2020-12-06T07:51:56.238000+00:00</time>
      </trkpt>
      <trkpt lat="0" lon="0">
        <time>2020-12-06T07:51:56.242000+00:00</time>
      </trkpt>
      <trkpt lat="0" lon="0">
        <time>2020-12-06T07:51:56.248000+00:00</time>
      </trkpt>
      <trkpt lat="0" lon="0">
        <time>2020-12-06T07:51:56.250000+00:00</time>
      </trkpt>
      <trkpt lat="47.25974" lon="-1.43182">
        <ele>6</ele>
        <time>2020-12-06T07:51:57.231000+00:00</time>
      </trkpt>
      <trkpt lat="0" lon="0">
        <time>2020-12-06T07:51:57.242000+00:00</time>
      </trkpt>
      <trkpt lat="0" lon="0">
        <time>2020-12-06T07:51:57.244000+00:00</time>
      </trkpt>
      <trkpt lat="0" lon="0">
        <time>2020-12-06T07:51:57.245000+00:00</time>
      </trkpt>
      <trkpt lat="47.25969" lon="-1.43175">
        <ele>6</ele>
        <time>2020-12-06T07:51:58.233000+00:00</time>
      </trkpt>
      <trkpt lat="0" lon="0">
        <time>2020-12-06T07:51:58.250000+00:00</time>
      </trkpt>
      <trkpt lat="0" lon="0">
        <time>2020-12-06T07:51:58.264000+00:00</time>
      </trkpt>
      <trkpt lat="0" lon="0">
        <time>2020-12-06T07:51:58.269000+00:00</time>
      </trkpt>
      <trkpt lat="47.25964" lon="-1.43168">
        <ele>6</ele>
        <time>2020-12-06T07:51:59.215000+00:00</time>
      </trkpt>
      <trkpt lat="0" lon="0">
        <time>2020-12-06T07:51:59.225000+00:00</time>
      </trkpt>
      <trkpt lat="0" lon="0">
        <time>2020-12-06T07:51:59.240000+00:00</time>
      </trkpt>
      <trkpt lat="0" lon="0">
        <time>2020-12-06T07:51:59.242000+00:00</time>
      </trkpt>
      <trkpt lat="47.25958" lon="-1.43161">
        <ele>6</ele>
        <time>2020-12-06T07:52:00.227000+00:00</time>
      </trkpt>
      <trkpt lat="0" lon="0">
        <time>2020-12-06T07:52:00.234000+00:00</time>
      </trkpt>
      <trkpt lat="0" lon="0">
        <time>2020-12-06T07:52:00.240000+00:00</time>
      </trkpt>
      <trkpt lat="0" lon="0">
        <time>2020-12-06T07:52:00.242000+00:00</time>
      </trkpt>
      <trkpt lat="47.25953" lon="-1.43154">
        <ele>6</ele>
        <time>2020-12-06T07:52:01.228000+00:00</time>
      </trkpt>
      <trkpt lat="0" lon="0">
        <time>2020-12-06T07:52:01.238000+00:00</time>
      </trkpt>
      <trkpt lat="0" lon="0">
        <time>2020-12-06T07:52:01.240000+00:00</time>
      </trkpt>
      <trkpt lat="47.25948" lon="-1.43147">
        <ele>6</ele>
        <time>2020-12-06T07:52:02.233000+00:00</time>
      </trkpt>
      <trkpt lat="0" lon="0">
        <time>2020-12-06T07:52:02.236000+00:00</time>
      </trkpt>
      <trkpt lat="0" lon="0">
        <time>2020-12-06T07:52:02.240000+00:00</time>
      </trkpt>
      <trkpt lat="0" lon="0">
        <time>2020-12-06T07:52:02.244000+00:00</time>
      </trkpt>
      <trkpt lat="47.25943" lon="-1.4314">
        <ele>6</ele>
        <time>2020-12-06T07:52:03.262000+00:00</time>
      </trkpt>
      <trkpt lat="0" lon="0">
        <time>2020-12-06T07:52:03.264000+00:00</time>
      </trkpt>
      <trkpt lat="0" lon="0">
        <time>2020-12-06T07:52:03.266000+00:00</time>
      </trkpt>
      <trkpt lat="47.25937" lon="-1.43133">
        <ele>6</ele>
        <time>2020-12-06T07:52:04.228000+00:00</time>
      </trkpt>
      <trkpt lat="0" lon="0">
        <time>2020-12-06T07:52:04.236000+00:00</time>
      </trkpt>
      <trkpt lat="0" lon="0">
        <time>2020-12-06T07:52:04.245000+00:00</time>
      </trkpt>
      <trkpt lat="0" lon="0">
        <time>2020-12-06T07:52:04.247000+00:00</time>
      </trkpt>
      <trkpt lat="47.25932" lon="-1.43125">
        <ele>6</ele>
        <time>2020-12-06T07:52:05.239000+00:00</time>
      </trkpt>
      <trkpt lat="0" lon="0">
        <time>2020-12-06T07:52:05.243000+00:00</time>
      </trkpt>
      <trkpt lat="0" lon="0">
        <time>2020-12-06T07:52:05.249000+00:00</time>
      </trkpt>
      <trkpt lat="0" lon="0">
        <time>2020-12-06T07:52:05.250000+00:00</time>
      </trkpt>
      <trkpt lat="47.25927" lon="-1.43117">
        <ele>6</ele>
        <time>2020-12-06T07:52:06.223000+00:00</time>
      </trkpt>
      <trkpt lat="0" lon="0">
        <time>2020-12-06T07:52:06.226000+00:00</time>
      </trkpt>
      <trkpt lat="0" lon="0">
        <time>2020-12-06T07:52:06.234000+00:00</time>
      </trkpt>
      <trkpt lat="0" lon="0">
        <time>2020-12-06T07:52:06.236000+00:00</time>
      </trkpt>
      <trkpt lat="47.25922" lon="-1.43109">
        <ele>6</ele>
        <time>2020-12-06T07:52:07.230000+00:00</time>
      </trkpt>
      <trkpt lat="0" lon="0">
        <time>2020-12-06T07:52:07.238000+00:00</time>
      </trkpt>
      <trkpt lat="0" lon="0">
        <time>2020-12-06T07:52:07.243000+00:00</time>
      </trkpt>
      <trkpt lat="0" lon="0">
        <time>2020-12-06T07:52:07.245000+00:00</time>
      </trkpt>
      <trkpt lat="47.25918" lon="-1.43101">
        <ele>6</ele>
        <time>2020-12-06T07:52:08.245000+00:00</time>
      </trkpt>
      <trkpt lat="0" lon="0">
        <time>2020-12-06T07:52:08.264000+00:00</time>
      </trkpt>
      <trkpt lat="0" lon="0">
        <time>2020-12-06T07:52:08.270000+00:00</time>
      </trkpt>
      <trkpt lat="0" lon="0">
        <time>2020-12-06T07:52:08.271000+00:00</time>
      </trkpt>
      <trkpt lat="47.25914" lon="-1.43092">
        <ele>6</ele>
        <time>2020-12-06T07:52:09.249000+00:00</time>
      </trkpt>
      <trkpt lat="0" lon="0">
        <time>2020-12-06T07:52:09.253000+00:00</time>
      </trkpt>
      <trkpt lat="0" lon="0">
        <time>2020-12-06T07:52:09.257000+00:00</time>
      </trkpt>
      <trkpt lat="0" lon="0">
        <time>2020-12-06T07:52:09.259000+00:00</time>
      </trkpt>
      <trkpt lat="47.25909" lon="-1.43083">
        <ele>6</ele>
        <time>2020-12-06T07:52:10.242000+00:00</time>
      </trkpt>
      <trkpt lat="0" lon="0">
        <time>2020-12-06T07:52:10.256000+00:00</time>
      </trkpt>
      <trkpt lat="0" lon="0">
        <time>2020-12-06T07:52:10.260000+00:00</time>
      </trkpt>
      <trkpt lat="0" lon="0">
        <time>2020-12-06T07:52:10.262000+00:00</time>
      </trkpt>
      <trkpt lat="47.25905" lon="-1.43074">
        <ele>5</ele>
        <time>2020-12-06T07:52:11.231000+00:00</time>
      </trkpt>
      <trkpt lat="0" lon="0">
        <time>2020-12-06T07:52:11.240000+00:00</time>
      </trkpt>
      <trkpt lat="0" lon="0">
        <time>2020-12-06T07:52:11.247000+00:00</time>
      </trkpt>
      <trkpt lat="0" lon="0">
        <time>2020-12-06T07:52:11.248000+00:00</time>
      </trkpt>
      <trkpt lat="47.25902" lon="-1.43064">
        <ele>5</ele>
        <time>2020-12-06T07:52:12.263000+00:00</time>
      </trkpt>
      <trkpt lat="0" lon="0">
        <time>2020-12-06T07:52:12.290000+00:00</time>
      </trkpt>
      <trkpt lat="0" lon="0">
        <time>2020-12-06T07:52:12.292000+00:00</time>
      </trkpt>
      <trkpt lat="47.25898" lon="-1.43054">
        <ele>5</ele>
        <time>2020-12-06T07:52:13.227000+00:00</time>
      </trkpt>
      <trkpt lat="0" lon="0">
        <time>2020-12-06T07:52:13.229000+00:00</time>
      </trkpt>
      <trkpt lat="0" lon="0">
        <time>2020-12-06T07:52:13.231000+00:00</time>
      </trkpt>
      <trkpt lat="0" lon="0">
        <time>2020-12-06T07:52:13.232000+00:00</time>
      </trkpt>
      <trkpt lat="47.25894" lon="-1.43045">
        <ele>5</ele>
        <time>2020-12-06T07:52:14.238000+00:00</time>
      </trkpt>
      <trkpt lat="0" lon="0">
        <time>2020-12-06T07:52:14.241000+00:00</time>
      </trkpt>
      <trkpt lat="0" lon="0">
        <time>2020-12-06T07:52:14.249000+00:00</time>
      </trkpt>
      <trkpt lat="0" lon="0">
        <time>2020-12-06T07:52:14.250000+00:00</time>
      </trkpt>
      <trkpt lat="47.2589" lon="-1.43035">
        <ele>4</ele>
        <time>2020-12-06T07:52:15.228000+00:00</time>
      </trkpt>
      <trkpt lat="0" lon="0">
        <time>2020-12-06T07:52:15.243000+00:00</time>
      </trkpt>
      <trkpt lat="0" lon="0">
        <time>2020-12-06T07:52:15.247000+00:00</time>
      </trkpt>
      <trkpt lat="0" lon="0">
        <time>2020-12-06T07:52:15.249000+00:00</time>
      </trkpt>
      <trkpt lat="47.25887" lon="-1.43025">
        <ele>4</ele>
        <time>2020-12-06T07:52:16.253000+00:00</time>
      </trkpt>
      <trkpt lat="0" lon="0">
        <time>2020-12-06T07:52:16.266000+00:00</time>
      </trkpt>
      <trkpt lat="0" lon="0">
        <time>2020-12-06T07:52:16.268000+00:00</time>
      </trkpt>
      <trkpt lat="0" lon="0">
        <time>2020-12-06T07:52:16.269000+00:00</time>
      </trkpt>
      <trkpt lat="47.25883" lon="-1.43016">
        <ele>3</ele>
        <time>2020-12-06T07:52:17.221000+00:00</time>
      </trkpt>
      <trkpt lat="0" lon="0">
        <time>2020-12-06T07:52:17.227000+00:00</time>
      </trkpt>
      <trkpt lat="0" lon="0">
        <time>2020-12-06T07:52:17.230000+00:00</time>
      </trkpt>
      <trkpt lat="0" lon="0">
        <time>2020-12-06T07:52:17.234000+00:00</time>
      </trkpt>
      <trkpt lat="47.2588" lon="-1.43006">
        <ele>3</ele>
        <time>2020-12-06T07:52:18.227000+00:00</time>
      </trkpt>
      <trkpt lat="0" lon="0">
        <time>2020-12-06T07:52:18.240000+00:00</time>
      </trkpt>
      <trkpt lat="0" lon="0">
        <time>2020-12-06T07:52:18.243000+00:00</time>
      </trkpt>
      <trkpt lat="0" lon="0">
        <time>2020-12-06T07:52:18.249000+00:00</time>
      </trkpt>
      <trkpt lat="47.25876" lon="-1.42997">
        <ele>3</ele>
        <time>2020-12-06T07:52:19.241000+00:00</time>
      </trkpt>
      <trkpt lat="0" lon="0">
        <time>2020-12-06T07:52:19.256000+00:00</time>
      </trkpt>
      <trkpt lat="0" lon="0">
        <time>2020-12-06T07:52:19.259000+00:00</time>
      </trkpt>
      <trkpt lat="0" lon="0">
        <time>2020-12-06T07:52:19.261000+00:00</time>
      </trkpt>
      <trkpt lat="47.25873" lon="-1.42988">
        <ele>2</ele>
        <time>2020-12-06T07:52:20.225000+00:00</time>
      </trkpt>
      <trkpt lat="0" lon="0">
        <time>2020-12-06T07:52:20.227000+00:00</time>
      </trkpt>
      <trkpt lat="0" lon="0">
        <time>2020-12-06T07:52:20.239000+00:00</time>
      </trkpt>
      <trkpt lat="0" lon="0">
        <time>2020-12-06T07:52:20.244000+00:00</time>
      </trkpt>
      <trkpt lat="47.2587" lon="-1.42979">
        <ele>2</ele>
        <time>2020-12-06T07:52:21.243000+00:00</time>
      </trkpt>
      <trkpt lat="0" lon="0">
        <time>2020-12-06T07:52:21.250000+00:00</time>
      </trkpt>
      <trkpt lat="0" lon="0">
        <time>2020-12-06T07:52:21.254000+00:00</time>
      </trkpt>
      <trkpt lat="0" lon="0">
        <time>2020-12-06T07:52:21.257000+00:00</time>
      </trkpt>
      <trkpt lat="47.25867" lon="-1.4297">
        <ele>2</ele>
        <time>2020-12-06T07:52:22.240000+00:00</time>
      </trkpt>
      <trkpt lat="0" lon="0">
        <time>2020-12-06T07:52:22.250000+00:00</time>
      </trkpt>
      <trkpt lat="0" lon="0">
        <time>2020-12-06T07:52:22.254000+00:00</time>
      </trkpt>
      <trkpt lat="0" lon="0">
        <time>2020-12-06T07:52:22.256000+00:00</time>
      </trkpt>
      <trkpt lat="47.25863" lon="-1.42962">
        <ele>2</ele>
        <time>2020-12-06T07:52:23.197000+00:00</time>
      </trkpt>
      <trkpt lat="0" lon="0">
        <time>2020-12-06T07:52:23.198000+00:00</time>
      </trkpt>
      <trkpt lat="0" lon="0">
        <time>2020-12-06T07:52:23.199000+00:00</time>
      </trkpt>
      <trkpt lat="47.2586" lon="-1.42953">
        <ele>2</ele>
        <time>2020-12-06T07:52:24.227000+00:00</time>
      </trkpt>
      <trkpt lat="0" lon="0">
        <time>2020-12-06T07:52:24.230000+00:00</time>
      </trkpt>
      <trkpt lat="0" lon="0">
        <time>2020-12-06T07:52:24.237000+00:00</time>
      </trkpt>
      <trkpt lat="0" lon="0">
        <time>2020-12-06T07:52:24.243000+00:00</time>
      </trkpt>
      <trkpt lat="47.25857" lon="-1.42945">
        <ele>2</ele>
        <time>2020-12-06T07:52:25.175000+00:00</time>
      </trkpt>
      <trkpt lat="0" lon="0">
        <time>2020-12-06T07:52:25.184000+00:00</time>
      </trkpt>
      <trkpt lat="0" lon="0">
        <time>2020-12-06T07:52:25.193000+00:00</time>
      </trkpt>
      <trkpt lat="0" lon="0">
        <time>2020-12-06T07:52:25.195000+00:00</time>
      </trkpt>
      <trkpt lat="47.25855" lon="-1.42937">
        <ele>2</ele>
        <time>2020-12-06T07:52:26.251000+00:00</time>
      </trkpt>
      <trkpt lat="0" lon="0">
        <time>2020-12-06T07:52:26.258000+00:00</time>
      </trkpt>
      <trkpt lat="0" lon="0">
        <time>2020-12-06T07:52:26.260000+00:00</time>
      </trkpt>
      <trkpt lat="0" lon="0">
        <time>2020-12-06T07:52:26.261000+00:00</time>
      </trkpt>
      <trkpt lat="47.25852" lon="-1.4293">
        <ele>2</ele>
        <time>2020-12-06T07:52:27.248000+00:00</time>
      </trkpt>
      <trkpt lat="0" lon="0">
        <time>2020-12-06T07:52:27.255000+00:00</time>
      </trkpt>
      <trkpt lat="0" lon="0">
        <time>2020-12-06T07:52:27.257000+00:00</time>
      </trkpt>
      <trkpt lat="0" lon="0">
        <time>2020-12-06T07:52:27.263000+00:00</time>
      </trkpt>
      <trkpt lat="47.2585" lon="-1.42922">
        <ele>1</ele>
        <time>2020-12-06T07:52:28.190000+00:00</time>
      </trkpt>
      <trkpt lat="0" lon="0">
        <time>2020-12-06T07:52:28.193000+00:00</time>
      </trkpt>
      <trkpt lat="0" lon="0">
        <time>2020-12-06T07:52:28.221000+00:00</time>
      </trkpt>
      <trkpt lat="0" lon="0">
        <time>2020-12-06T07:52:28.222000+00:00</time>
      </trkpt>
      <trkpt lat="47.25847" lon="-1.42915">
        <ele>1</ele>
        <time>2020-12-06T07:52:29.232000+00:00</time>
      </trkpt>
      <trkpt lat="0" lon="0">
        <time>2020-12-06T07:52:29.238000+00:00</time>
      </trkpt>
      <trkpt lat="0" lon="0">
        <time>2020-12-06T07:52:29.240000+00:00</time>
      </trkpt>
      <trkpt lat="0" lon="0">
        <time>2020-12-06T07:52:29.241000+00:00</time>
      </trkpt>
      <trkpt lat="47.25844" lon="-1.42908">
        <ele>1</ele>
        <time>2020-12-06T07:52:30.247000+00:00</time>
      </trkpt>
      <trkpt lat="0" lon="0">
        <time>2020-12-06T07:52:30.251000+00:00</time>
      </trkpt>
      <trkpt lat="0" lon="0">
        <time>2020-12-06T07:52:30.254000+00:00</time>
      </trkpt>
      <trkpt lat="0" lon="0">
        <time>2020-12-06T07:52:30.258000+00:00</time>
      </trkpt>
      <trkpt lat="47.25841" lon="-1.42901">
        <ele>1</ele>
        <time>2020-12-06T07:52:31.283000+00:00</time>
      </trkpt>
      <trkpt lat="0" lon="0">
        <time>2020-12-06T07:52:31.289000+00:00</time>
      </trkpt>
      <trkpt lat="0" lon="0">
        <time>2020-12-06T07:52:31.291000+00:00</time>
      </trkpt>
      <trkpt lat="0" lon="0">
        <time>2020-12-06T07:52:31.292000+00:00</time>
      </trkpt>
      <trkpt lat="47.25839" lon="-1.42893">
        <ele>1</ele>
        <time>2020-12-06T07:52:32.241000+00:00</time>
      </trkpt>
      <trkpt lat="0" lon="0">
        <time>2020-12-06T07:52:32.253000+00:00</time>
      </trkpt>
      <trkpt lat="0" lon="0">
        <time>2020-12-06T07:52:32.256000+00:00</time>
      </trkpt>
      <trkpt lat="0" lon="0">
        <time>2020-12-06T07:52:32.258000+00:00</time>
      </trkpt>
      <trkpt lat="47.25836" lon="-1.42886">
        <ele>1</ele>
        <time>2020-12-06T07:52:33.235000+00:00</time>
      </trkpt>
      <trkpt lat="0" lon="0">
        <time>2020-12-06T07:52:33.240000+00:00</time>
      </trkpt>
      <trkpt lat="0" lon="0">
        <time>2020-12-06T07:52:33.244000+00:00</time>
      </trkpt>
      <trkpt lat="0" lon="0">
        <time>2020-12-06T07:52:33.256000+00:00</time>
      </trkpt>
      <trkpt lat="47.25833" lon="-1.42879">
        <ele>1</ele>
        <time>2020-12-06T07:52:34.251000+00:00</time>
      </trkpt>
      <trkpt lat="0" lon="0">
        <time>2020-12-06T07:52:34.270000+00:00</time>
      </trkpt>
      <trkpt lat="0" lon="0">
        <time>2020-12-06T07:52:34.273000+00:00</time>
      </trkpt>
      <trkpt lat="0" lon="0">
        <time>2020-12-06T07:52:34.275000+00:00</time>
      </trkpt>
      <trkpt lat="47.2583" lon="-1.42872">
        <ele>1</ele>
        <time>2020-12-06T07:52:35.255000+00:00</time>
      </trkpt>
      <trkpt lat="0" lon="0">
        <time>2020-12-06T07:52:35.267000+00:00</time>
      </trkpt>
      <trkpt lat="0" lon="0">
        <time>2020-12-06T07:52:35.272000+00:00</time>
      </trkpt>
      <trkpt lat="0" lon="0">
        <time>2020-12-06T07:52:35.277000+00:00</time>
      </trkpt>
      <trkpt lat="47.25827" lon="-1.42865">
        <ele>1</ele>
        <time>2020-12-06T07:52:36.262000+00:00</time>
      </trkpt>
      <trkpt lat="0" lon="0">
        <time>2020-12-06T07:52:36.270000+00:00</time>
      </trkpt>
      <trkpt lat="0" lon="0">
        <time>2020-12-06T07:52:36.273000+00:00</time>
      </trkpt>
      <trkpt lat="0" lon="0">
        <time>2020-12-06T07:52:36.279000+00:00</time>
      </trkpt>
      <trkpt lat="47.25824" lon="-1.42858">
        <ele>1</ele>
        <time>2020-12-06T07:52:37.255000+00:00</time>
      </trkpt>
      <trkpt lat="0" lon="0">
        <time>2020-12-06T07:52:37.261000+00:00</time>
      </trkpt>
      <trkpt lat="0" lon="0">
        <time>2020-12-06T07:52:37.265000+00:00</time>
      </trkpt>
      <trkpt lat="0" lon="0">
        <time>2020-12-06T07:52:37.267000+00:00</time>
      </trkpt>
      <trkpt lat="47.25821" lon="-1.4285">
        <ele>1</ele>
        <time>2020-12-06T07:52:38.259000+00:00</time>
      </trkpt>
      <trkpt lat="0" lon="0">
        <time>2020-12-06T07:52:38.266000+00:00</time>
      </trkpt>
      <trkpt lat="0" lon="0">
        <time>2020-12-06T07:52:38.275000+00:00</time>
      </trkpt>
      <trkpt lat="0" lon="0">
        <time>2020-12-06T07:52:38.278000+00:00</time>
      </trkpt>
      <trkpt lat="47.25818" lon="-1.42843">
        <ele>1</ele>
        <time>2020-12-06T07:52:39.274000+00:00</time>
      </trkpt>
      <trkpt lat="0" lon="0">
        <time>2020-12-06T07:52:39.277000+00:00</time>
      </trkpt>
      <trkpt lat="0" lon="0">
        <time>2020-12-06T07:52:39.282000+00:00</time>
      </trkpt>
      <trkpt lat="0" lon="0">
        <time>2020-12-06T07:52:39.289000+00:00</time>
      </trkpt>
      <trkpt lat="47.25814" lon="-1.42835">
        <ele>1</ele>
        <time>2020-12-06T07:52:40.279000+00:00</time>
      </trkpt>
      <trkpt lat="0" lon="0">
        <time>2020-12-06T07:52:40.290000+00:00</time>
      </trkpt>
      <trkpt lat="0" lon="0">
        <time>2020-12-06T07:52:40.295000+00:00</time>
      </trkpt>
      <trkpt lat="0" lon="0">
        <time>2020-12-06T07:52:40.297000+00:00</time>
      </trkpt>
      <trkpt lat="47.25811" lon="-1.42827">
        <ele>1</ele>
        <time>2020-12-06T07:52:41.287000+00:00</time>
      </trkpt>
      <trkpt lat="0" lon="0">
        <time>2020-12-06T07:52:41.291000+00:00</time>
      </trkpt>
      <trkpt lat="0" lon="0">
        <time>2020-12-06T07:52:41.297000+00:00</time>
      </trkpt>
      <trkpt lat="0" lon="0">
        <time>2020-12-06T07:52:41.300000+00:00</time>
      </trkpt>
      <trkpt lat="47.25808" lon="-1.42819">
        <ele>1</ele>
        <time>2020-12-06T07:52:42.257000+00:00</time>
      </trkpt>
      <trkpt lat="0" lon="0">
        <time>2020-12-06T07:52:42.263000+00:00</time>
      </trkpt>
      <trkpt lat="0" lon="0">
        <time>2020-12-06T07:52:42.266000+00:00</time>
      </trkpt>
      <trkpt lat="0" lon="0">
        <time>2020-12-06T07:52:42.268000+00:00</time>
      </trkpt>
      <trkpt lat="47.25805" lon="-1.4281">
        <ele>1</ele>
        <time>2020-12-06T07:52:43.290000+00:00</time>
      </trkpt>
      <trkpt lat="0" lon="0">
        <time>2020-12-06T07:52:43.294000+00:00</time>
      </trkpt>
      <trkpt lat="0" lon="0">
        <time>2020-12-06T07:52:43.295000+00:00</time>
      </trkpt>
      <trkpt lat="0" lon="0">
        <time>2020-12-06T07:52:43.296000+00:00</time>
      </trkpt>
      <trkpt lat="47.25801" lon="-1.42802">
        <ele>1</ele>
        <time>2020-12-06T07:52:44.252000+00:00</time>
      </trkpt>
      <trkpt lat="0" lon="0">
        <time>2020-12-06T07:52:44.261000+00:00</time>
      </trkpt>
      <trkpt lat="0" lon="0">
        <time>2020-12-06T07:52:44.266000+00:00</time>
      </trkpt>
      <trkpt lat="0" lon="0">
        <time>2020-12-06T07:52:44.268000+00:00</time>
      </trkpt>
      <trkpt lat="47.25798" lon="-1.42794">
        <ele>1</ele>
        <time>2020-12-06T07:52:45.272000+00:00</time>
      </trkpt>
      <trkpt lat="0" lon="0">
        <time>2020-12-06T07:52:45.274000+00:00</time>
      </trkpt>
      <trkpt lat="0" lon="0">
        <time>2020-12-06T07:52:45.276000+00:00</time>
      </trkpt>
      <trkpt lat="0" lon="0">
        <time>2020-12-06T07:52:45.277000+00:00</time>
      </trkpt>
      <trkpt lat="47.25795" lon="-1.42785">
        <ele>1</ele>
        <time>2020-12-06T07:52:46.274000+00:00</time>
      </trkpt>
      <trkpt lat="0" lon="0">
        <time>2020-12-06T07:52:46.280000+00:00</time>
      </trkpt>
      <trkpt lat="0" lon="0">
        <time>2020-12-06T07:52:46.283000+00:00</time>
      </trkpt>
      <trkpt lat="0" lon="0">
        <time>2020-12-06T07:52:46.285000+00:00</time>
      </trkpt>
      <trkpt lat="47.25791" lon="-1.42777">
        <ele>1</ele>
        <time>2020-12-06T07:52:47.253000+00:00</time>
      </trkpt>
      <trkpt lat="0" lon="0">
        <time>2020-12-06T07:52:47.255000+00:00</time>
      </trkpt>
      <trkpt lat="0" lon="0">
        <time>2020-12-06T07:52:47.260000+00:00</time>
      </trkpt>
      <trkpt lat="0" lon="0">
        <time>2020-12-06T07:52:47.263000+00:00</time>
      </trkpt>
      <trkpt lat="47.25788" lon="-1.42768">
        <ele>1</ele>
        <time>2020-12-06T07:52:48.233000+00:00</time>
      </trkpt>
      <trkpt lat="0" lon="0">
        <time>2020-12-06T07:52:48.240000+00:00</time>
      </trkpt>
      <trkpt lat="0" lon="0">
        <time>2020-12-06T07:52:48.252000+00:00</time>
      </trkpt>
      <trkpt lat="0" lon="0">
        <time>2020-12-06T07:52:48.257000+00:00</time>
      </trkpt>
      <trkpt lat="47.25785" lon="-1.4276">
        <ele>1</ele>
        <time>2020-12-06T07:52:49.282000+00:00</time>
      </trkpt>
      <trkpt lat="0" lon="0">
        <time>2020-12-06T07:52:49.296000+00:00</time>
      </trkpt>
      <trkpt lat="0" lon="0">
        <time>2020-12-06T07:52:49.304000+00:00</time>
      </trkpt>
      <trkpt lat="0" lon="0">
        <time>2020-12-06T07:52:49.308000+00:00</time>
      </trkpt>
      <trkpt lat="47.25781" lon="-1.42751">
        <ele>1</ele>
        <time>2020-12-06T07:52:50.265000+00:00</time>
      </trkpt>
      <trkpt lat="0" lon="0">
        <time>2020-12-06T07:52:50.283000+00:00</time>
      </trkpt>
      <trkpt lat="0" lon="0">
        <time>2020-12-06T07:52:50.290000+00:00</time>
      </trkpt>
      <trkpt lat="0" lon="0">
        <time>2020-12-06T07:52:50.294000+00:00</time>
      </trkpt>
      <trkpt lat="47.25778" lon="-1.42743">
        <ele>1</ele>
        <time>2020-12-06T07:52:51.263000+00:00</time>
      </trkpt>
      <trkpt lat="0" lon="0">
        <time>2020-12-06T07:52:51.277000+00:00</time>
      </trkpt>
      <trkpt lat="0" lon="0">
        <time>2020-12-06T07:52:51.279000+00:00</time>
      </trkpt>
      <trkpt lat="0" lon="0">
        <time>2020-12-06T07:52:51.280000+00:00</time>
      </trkpt>
      <trkpt lat="47.25774" lon="-1.42734">
        <ele>1</ele>
        <time>2020-12-06T07:52:52.283000+00:00</time>
      </trkpt>
      <trkpt lat="0" lon="0">
        <time>2020-12-06T07:52:52.288000+00:00</time>
      </trkpt>
      <trkpt lat="0" lon="0">
        <time>2020-12-06T07:52:52.295000+00:00</time>
      </trkpt>
      <trkpt lat="0" lon="0">
        <time>2020-12-06T07:52:52.299000+00:00</time>
      </trkpt>
      <trkpt lat="47.25771" lon="-1.42726">
        <ele>1</ele>
        <time>2020-12-06T07:52:53.270000+00:00</time>
      </trkpt>
      <trkpt lat="0" lon="0">
        <time>2020-12-06T07:52:53.273000+00:00</time>
      </trkpt>
      <trkpt lat="0" lon="0">
        <time>2020-12-06T07:52:53.277000+00:00</time>
      </trkpt>
      <trkpt lat="0" lon="0">
        <time>2020-12-06T07:52:53.280000+00:00</time>
      </trkpt>
      <trkpt lat="47.25767" lon="-1.42717">
        <ele>2</ele>
        <time>2020-12-06T07:52:54.287000+00:00</time>
      </trkpt>
      <trkpt lat="0" lon="0">
        <time>2020-12-06T07:52:54.296000+00:00</time>
      </trkpt>
      <trkpt lat="0" lon="0">
        <time>2020-12-06T07:52:54.305000+00:00</time>
      </trkpt>
      <trkpt lat="0" lon="0">
        <time>2020-12-06T07:52:54.307000+00:00</time>
      </trkpt>
      <trkpt lat="47.25764" lon="-1.42708">
        <ele>2</ele>
        <time>2020-12-06T07:52:55.253000+00:00</time>
      </trkpt>
      <trkpt lat="0" lon="0">
        <time>2020-12-06T07:52:55.265000+00:00</time>
      </trkpt>
      <trkpt lat="0" lon="0">
        <time>2020-12-06T07:52:55.272000+00:00</time>
      </trkpt>
      <trkpt lat="0" lon="0">
        <time>2020-12-06T07:52:55.274000+00:00</time>
      </trkpt>
      <trkpt lat="47.25761" lon="-1.427">
        <ele>3</ele>
        <time>2020-12-06T07:52:56.281000+00:00</time>
      </trkpt>
      <trkpt lat="0" lon="0">
        <time>2020-12-06T07:52:56.285000+00:00</time>
      </trkpt>
      <trkpt lat="0" lon="0">
        <time>2020-12-06T07:52:56.302000+00:00</time>
      </trkpt>
      <trkpt lat="0" lon="0">
        <time>2020-12-06T07:52:56.307000+00:00</time>
      </trkpt>
      <trkpt lat="47.25757" lon="-1.42691">
        <ele>3</ele>
        <time>2020-12-06T07:52:57.239000+00:00</time>
      </trkpt>
      <trkpt lat="0" lon="0">
        <time>2020-12-06T07:52:57.249000+00:00</time>
      </trkpt>
      <trkpt lat="0" lon="0">
        <time>2020-12-06T07:52:57.252000+00:00</time>
      </trkpt>
      <trkpt lat="0" lon="0">
        <time>2020-12-06T07:52:57.254000+00:00</time>
      </trkpt>
      <trkpt lat="47.25754" lon="-1.42683">
        <ele>4</ele>
        <time>2020-12-06T07:52:58.250000+00:00</time>
      </trkpt>
      <trkpt lat="0" lon="0">
        <time>2020-12-06T07:52:58.255000+00:00</time>
      </trkpt>
      <trkpt lat="0" lon="0">
        <time>2020-12-06T07:52:58.259000+00:00</time>
      </trkpt>
      <trkpt lat="0" lon="0">
        <time>2020-12-06T07:52:58.262000+00:00</time>
      </trkpt>
      <trkpt lat="47.25751" lon="-1.42674">
        <ele>4</ele>
        <time>2020-12-06T07:52:59.218000+00:00</time>
      </trkpt>
      <trkpt lat="0" lon="0">
        <time>2020-12-06T07:52:59.222000+00:00</time>
      </trkpt>
      <trkpt lat="0" lon="0">
        <time>2020-12-06T07:52:59.228000+00:00</time>
      </trkpt>
      <trkpt lat="0" lon="0">
        <time>2020-12-06T07:52:59.236000+00:00</time>
      </trkpt>
      <trkpt lat="47.25747" lon="-1.42666">
        <ele>5</ele>
        <time>2020-12-06T07:53:00.251000+00:00</time>
      </trkpt>
      <trkpt lat="0" lon="0">
        <time>2020-12-06T07:53:00.254000+00:00</time>
      </trkpt>
      <trkpt lat="0" lon="0">
        <time>2020-12-06T07:53:00.258000+00:00</time>
      </trkpt>
      <trkpt lat="0" lon="0">
        <time>2020-12-06T07:53:00.262000+00:00</time>
      </trkpt>
      <trkpt lat="47.25744" lon="-1.42658">
        <ele>5</ele>
        <time>2020-12-06T07:53:01.267000+00:00</time>
      </trkpt>
      <trkpt lat="0" lon="0">
        <time>2020-12-06T07:53:01.269000+00:00</time>
      </trkpt>
      <trkpt lat="0" lon="0">
        <time>2020-12-06T07:53:01.272000+00:00</time>
      </trkpt>
      <trkpt lat="0" lon="0">
        <time>2020-12-06T07:53:01.274000+00:00</time>
      </trkpt>
      <trkpt lat="47.25741" lon="-1.42649">
        <ele>5</ele>
        <time>2020-12-06T07:53:02.240000+00:00</time>
      </trkpt>
      <trkpt lat="0" lon="0">
        <time>2020-12-06T07:53:02.244000+00:00</time>
      </trkpt>
      <trkpt lat="0" lon="0">
        <time>2020-12-06T07:53:02.247000+00:00</time>
      </trkpt>
      <trkpt lat="0" lon="0">
        <time>2020-12-06T07:53:02.249000+00:00</time>
      </trkpt>
      <trkpt lat="47.25738" lon="-1.42641">
        <ele>5</ele>
        <time>2020-12-06T07:53:03.246000+00:00</time>
      </trkpt>
      <trkpt lat="0" lon="0">
        <time>2020-12-06T07:53:03.254000+00:00</time>
      </trkpt>
      <trkpt lat="0" lon="0">
        <time>2020-12-06T07:53:03.267000+00:00</time>
      </trkpt>
      <trkpt lat="0" lon="0">
        <time>2020-12-06T07:53:03.269000+00:00</time>
      </trkpt>
      <trkpt lat="47.25735" lon="-1.42634">
        <ele>6</ele>
        <time>2020-12-06T07:53:04.261000+00:00</time>
      </trkpt>
      <trkpt lat="0" lon="0">
        <time>2020-12-06T07:53:04.264000+00:00</time>
      </trkpt>
      <trkpt lat="0" lon="0">
        <time>2020-12-06T07:53:04.272000+00:00</time>
      </trkpt>
      <trkpt lat="0" lon="0">
        <time>2020-12-06T07:53:04.276000+00:00</time>
      </trkpt>
      <trkpt lat="47.25732" lon="-1.42627">
        <ele>6</ele>
        <time>2020-12-06T07:53:05.267000+00:00</time>
      </trkpt>
      <trkpt lat="0" lon="0">
        <time>2020-12-06T07:53:05.274000+00:00</time>
      </trkpt>
      <trkpt lat="0" lon="0">
        <time>2020-12-06T07:53:05.276000+00:00</time>
      </trkpt>
      <trkpt lat="0" lon="0">
        <time>2020-12-06T07:53:05.278000+00:00</time>
      </trkpt>
      <trkpt lat="47.25728" lon="-1.42621">
        <ele>6</ele>
        <time>2020-12-06T07:53:06.233000+00:00</time>
      </trkpt>
      <trkpt lat="0" lon="0">
        <time>2020-12-06T07:53:06.235000+00:00</time>
      </trkpt>
      <trkpt lat="0" lon="0">
        <time>2020-12-06T07:53:06.236000+00:00</time>
      </trkpt>
      <trkpt lat="47.25724" lon="-1.42617">
        <ele>6</ele>
        <time>2020-12-06T07:53:07.249000+00:00</time>
      </trkpt>
      <trkpt lat="0" lon="0">
        <time>2020-12-06T07:53:07.263000+00:00</time>
      </trkpt>
      <trkpt lat="0" lon="0">
        <time>2020-12-06T07:53:07.267000+00:00</time>
      </trkpt>
      <trkpt lat="0" lon="0">
        <time>2020-12-06T07:53:07.269000+00:00</time>
      </trkpt>
      <trkpt lat="47.2572" lon="-1.42614">
        <ele>6</ele>
        <time>2020-12-06T07:53:08.240000+00:00</time>
      </trkpt>
      <trkpt lat="0" lon="0">
        <time>2020-12-06T07:53:08.250000+00:00</time>
      </trkpt>
      <trkpt lat="0" lon="0">
        <time>2020-12-06T07:53:08.263000+00:00</time>
      </trkpt>
      <trkpt lat="0" lon="0">
        <time>2020-12-06T07:53:08.268000+00:00</time>
      </trkpt>
      <trkpt lat="47.25715" lon="-1.42613">
        <ele>6</ele>
        <time>2020-12-06T07:53:09.274000+00:00</time>
      </trkpt>
      <trkpt lat="0" lon="0">
        <time>2020-12-06T07:53:09.279000+00:00</time>
      </trkpt>
      <trkpt lat="0" lon="0">
        <time>2020-12-06T07:53:09.282000+00:00</time>
      </trkpt>
      <trkpt lat="0" lon="0">
        <time>2020-12-06T07:53:09.284000+00:00</time>
      </trkpt>
      <trkpt lat="47.25709" lon="-1.42613">
        <ele>6</ele>
        <time>2020-12-06T07:53:10.262000+00:00</time>
      </trkpt>
      <trkpt lat="0" lon="0">
        <time>2020-12-06T07:53:10.265000+00:00</time>
      </trkpt>
      <trkpt lat="0" lon="0">
        <time>2020-12-06T07:53:10.271000+00:00</time>
      </trkpt>
      <trkpt lat="0" lon="0">
        <time>2020-12-06T07:53:10.273000+00:00</time>
      </trkpt>
      <trkpt lat="47.25704" lon="-1.42614">
        <ele>6</ele>
        <time>2020-12-06T07:53:11.259000+00:00</time>
      </trkpt>
      <trkpt lat="0" lon="0">
        <time>2020-12-06T07:53:11.262000+00:00</time>
      </trkpt>
      <trkpt lat="0" lon="0">
        <time>2020-12-06T07:53:11.266000+00:00</time>
      </trkpt>
      <trkpt lat="0" lon="0">
        <time>2020-12-06T07:53:11.267000+00:00</time>
      </trkpt>
      <trkpt lat="47.25698" lon="-1.42616">
        <ele>6</ele>
        <time>2020-12-06T07:53:12.277000+00:00</time>
      </trkpt>
      <trkpt lat="0" lon="0">
        <time>2020-12-06T07:53:12.290000+00:00</time>
      </trkpt>
      <trkpt lat="0" lon="0">
        <time>2020-12-06T07:53:12.294000+00:00</time>
      </trkpt>
      <trkpt lat="0" lon="0">
        <time>2020-12-06T07:53:12.296000+00:00</time>
      </trkpt>
      <trkpt lat="47.25694" lon="-1.42618">
        <ele>6</ele>
        <time>2020-12-06T07:53:13.253000+00:00</time>
      </trkpt>
      <trkpt lat="0" lon="0">
        <time>2020-12-06T07:53:13.261000+00:00</time>
      </trkpt>
      <trkpt lat="0" lon="0">
        <time>2020-12-06T07:53:13.263000+00:00</time>
      </trkpt>
      <trkpt lat="0" lon="0">
        <time>2020-12-06T07:53:13.266000+00:00</time>
      </trkpt>
      <trkpt lat="47.25689" lon="-1.42621">
        <ele>6</ele>
        <time>2020-12-06T07:53:14.284000+00:00</time>
      </trkpt>
      <trkpt lat="0" lon="0">
        <time>2020-12-06T07:53:14.290000+00:00</time>
      </trkpt>
      <trkpt lat="0" lon="0">
        <time>2020-12-06T07:53:14.295000+00:00</time>
      </trkpt>
      <trkpt lat="0" lon="0">
        <time>2020-12-06T07:53:14.297000+00:00</time>
      </trkpt>
      <trkpt lat="47.25686" lon="-1.42624">
        <ele>6</ele>
        <time>2020-12-06T07:53:15.257000+00:00</time>
      </trkpt>
      <trkpt lat="0" lon="0">
        <time>2020-12-06T07:53:15.265000+00:00</time>
      </trkpt>
      <trkpt lat="0" lon="0">
        <time>2020-12-06T07:53:15.274000+00:00</time>
      </trkpt>
      <trkpt lat="0" lon="0">
        <time>2020-12-06T07:53:15.276000+00:00</time>
      </trkpt>
      <trkpt lat="47.25684" lon="-1.42628">
        <ele>6</ele>
        <time>2020-12-06T07:53:16.245000+00:00</time>
      </trkpt>
      <trkpt lat="0" lon="0">
        <time>2020-12-06T07:53:16.261000+00:00</time>
      </trkpt>
      <trkpt lat="0" lon="0">
        <time>2020-12-06T07:53:16.269000+00:00</time>
      </trkpt>
      <trkpt lat="0" lon="0">
        <time>2020-12-06T07:53:16.271000+00:00</time>
      </trkpt>
      <trkpt lat="47.25683" lon="-1.42631">
        <ele>6</ele>
        <time>2020-12-06T07:53:17.262000+00:00</time>
      </trkpt>
      <trkpt lat="0" lon="0">
        <time>2020-12-06T07:53:17.265000+00:00</time>
      </trkpt>
      <trkpt lat="0" lon="0">
        <time>2020-12-06T07:53:17.267000+00:00</time>
      </trkpt>
      <trkpt lat="0" lon="0">
        <time>2020-12-06T07:53:17.268000+00:00</time>
      </trkpt>
      <trkpt lat="47.25683" lon="-1.42635">
        <ele>6</ele>
        <time>2020-12-06T07:53:18.223000+00:00</time>
      </trkpt>
      <trkpt lat="0" lon="0">
        <time>2020-12-06T07:53:18.226000+00:00</time>
      </trkpt>
      <trkpt lat="0" lon="0">
        <time>2020-12-06T07:53:18.230000+00:00</time>
      </trkpt>
      <trkpt lat="0" lon="0">
        <time>2020-12-06T07:53:18.232000+00:00</time>
      </trkpt>
      <trkpt lat="47.25685" lon="-1.42637">
        <ele>6</ele>
        <time>2020-12-06T07:53:19.186000+00:00</time>
      </trkpt>
      <trkpt lat="0" lon="0">
        <time>2020-12-06T07:53:19.199000+00:00</time>
      </trkpt>
      <trkpt lat="0" lon="0">
        <time>2020-12-06T07:53:19.203000+00:00</time>
      </trkpt>
      <trkpt lat="0" lon="0">
        <time>2020-12-06T07:53:19.205000+00:00</time>
      </trkpt>
      <trkpt lat="47.25687" lon="-1.4264">
        <ele>6</ele>
        <time>2020-12-06T07:53:20.239000+00:00</time>
      </trkpt>
      <trkpt lat="0" lon="0">
        <time>2020-12-06T07:53:20.249000+00:00</time>
      </trkpt>
      <trkpt lat="0" lon="0">
        <time>2020-12-06T07:53:20.253000+00:00</time>
      </trkpt>
      <trkpt lat="0" lon="0">
        <time>2020-12-06T07:53:20.258000+00:00</time>
      </trkpt>
      <trkpt lat="47.25691" lon="-1.42642">
        <ele>6</ele>
        <time>2020-12-06T07:53:21.275000+00:00</time>
      </trkpt>
      <trkpt lat="0" lon="0">
        <time>2020-12-06T07:53:21.279000+00:00</time>
      </trkpt>
      <trkpt lat="0" lon="0">
        <time>2020-12-06T07:53:21.283000+00:00</time>
      </trkpt>
      <trkpt lat="0" lon="0">
        <time>2020-12-06T07:53:21.285000+00:00</time>
      </trkpt>
      <trkpt lat="47.25696" lon="-1.42643">
        <ele>6</ele>
        <time>2020-12-06T07:53:22.245000+00:00</time>
      </trkpt>
      <trkpt lat="0" lon="0">
        <time>2020-12-06T07:53:22.253000+00:00</time>
      </trkpt>
      <trkpt lat="0" lon="0">
        <time>2020-12-06T07:53:22.259000+00:00</time>
      </trkpt>
      <trkpt lat="0" lon="0">
        <time>2020-12-06T07:53:22.266000+00:00</time>
      </trkpt>
      <trkpt lat="47.25701" lon="-1.42645">
        <ele>6</ele>
        <time>2020-12-06T07:53:23.227000+00:00</time>
      </trkpt>
      <trkpt lat="0" lon="0">
        <time>2020-12-06T07:53:23.238000+00:00</time>
      </trkpt>
      <trkpt lat="0" lon="0">
        <time>2020-12-06T07:53:23.241000+00:00</time>
      </trkpt>
      <trkpt lat="0" lon="0">
        <time>2020-12-06T07:53:23.243000+00:00</time>
      </trkpt>
      <trkpt lat="47.25707" lon="-1.42646">
        <ele>6</ele>
        <time>2020-12-06T07:53:24.213000+00:00</time>
      </trkpt>
      <trkpt lat="0" lon="0">
        <time>2020-12-06T07:53:24.226000+00:00</time>
      </trkpt>
      <trkpt lat="0" lon="0">
        <time>2020-12-06T07:53:24.230000+00:00</time>
      </trkpt>
      <trkpt lat="0" lon="0">
        <time>2020-12-06T07:53:24.232000+00:00</time>
      </trkpt>
      <trkpt lat="47.25713" lon="-1.42647">
        <ele>5</ele>
        <time>2020-12-06T07:53:25.238000+00:00</time>
      </trkpt>
      <trkpt lat="0" lon="0">
        <time>2020-12-06T07:53:25.241000+00:00</time>
      </trkpt>
      <trkpt lat="0" lon="0">
        <time>2020-12-06T07:53:25.244000+00:00</time>
      </trkpt>
      <trkpt lat="0" lon="0">
        <time>2020-12-06T07:53:25.246000+00:00</time>
      </trkpt>
      <trkpt lat="47.2572" lon="-1.42647">
        <ele>5</ele>
        <time>2020-12-06T07:53:26.278000+00:00</time>
      </trkpt>
      <trkpt lat="0" lon="0">
        <time>2020-12-06T07:53:26.291000+00:00</time>
      </trkpt>
      <trkpt lat="0" lon="0">
        <time>2020-12-06T07:53:26.297000+00:00</time>
      </trkpt>
      <trkpt lat="0" lon="0">
        <time>2020-12-06T07:53:26.298000+00:00</time>
      </trkpt>
      <trkpt lat="47.25726" lon="-1.42646">
        <ele>5</ele>
        <time>2020-12-06T07:53:27.234000+00:00</time>
      </trkpt>
      <trkpt lat="0" lon="0">
        <time>2020-12-06T07:53:27.244000+00:00</time>
      </trkpt>
      <trkpt lat="0" lon="0">
        <time>2020-12-06T07:53:27.246000+00:00</time>
      </trkpt>
      <trkpt lat="0" lon="0">
        <time>2020-12-06T07:53:27.247000+00:00</time>
      </trkpt>
      <trkpt lat="47.25732" lon="-1.42645">
        <ele>5</ele>
        <time>2020-12-06T07:53:28.252000+00:00</time>
      </trkpt>
      <trkpt lat="0" lon="0">
        <time>2020-12-06T07:53:28.259000+00:00</time>
      </trkpt>
      <trkpt lat="0" lon="0">
        <time>2020-12-06T07:53:28.262000+00:00</time>
      </trkpt>
      <trkpt lat="0" lon="0">
        <time>2020-12-06T07:53:28.264000+00:00</time>
      </trkpt>
      <trkpt lat="47.25737" lon="-1.42642">
        <ele>5</ele>
        <time>2020-12-06T07:53:29.253000+00:00</time>
      </trkpt>
      <trkpt lat="0" lon="0">
        <time>2020-12-06T07:53:29.256000+00:00</time>
      </trkpt>
      <trkpt lat="0" lon="0">
        <time>2020-12-06T07:53:29.262000+00:00</time>
      </trkpt>
      <trkpt lat="0" lon="0">
        <time>2020-12-06T07:53:29.263000+00:00</time>
      </trkpt>
      <trkpt lat="47.25743" lon="-1.42638">
        <ele>6</ele>
        <time>2020-12-06T07:53:30.246000+00:00</time>
      </trkpt>
      <trkpt lat="0" lon="0">
        <time>2020-12-06T07:53:30.263000+00:00</time>
      </trkpt>
      <trkpt lat="0" lon="0">
        <time>2020-12-06T07:53:30.273000+00:00</time>
      </trkpt>
      <trkpt lat="0" lon="0">
        <time>2020-12-06T07:53:30.275000+00:00</time>
      </trkpt>
      <trkpt lat="47.25747" lon="-1.42633">
        <ele>6</ele>
        <time>2020-12-06T07:53:31.261000+00:00</time>
      </trkpt>
      <trkpt lat="0" lon="0">
        <time>2020-12-06T07:53:31.264000+00:00</time>
      </trkpt>
      <trkpt lat="0" lon="0">
        <time>2020-12-06T07:53:31.267000+00:00</time>
      </trkpt>
      <trkpt lat="0" lon="0">
        <time>2020-12-06T07:53:31.269000+00:00</time>
      </trkpt>
      <trkpt lat="47.25752" lon="-1.42628">
        <ele>6</ele>
        <time>2020-12-06T07:53:32.253000+00:00</time>
      </trkpt>
      <trkpt lat="0" lon="0">
        <time>2020-12-06T07:53:32.264000+00:00</time>
      </trkpt>
      <trkpt lat="0" lon="0">
        <time>2020-12-06T07:53:32.271000+00:00</time>
      </trkpt>
      <trkpt lat="0" lon="0">
        <time>2020-12-06T07:53:32.272000+00:00</time>
      </trkpt>
      <trkpt lat="47.25756" lon="-1.42622">
        <ele>6</ele>
        <time>2020-12-06T07:53:33.284000+00:00</time>
      </trkpt>
      <trkpt lat="0" lon="0">
        <time>2020-12-06T07:53:33.295000+00:00</time>
      </trkpt>
      <trkpt lat="0" lon="0">
        <time>2020-12-06T07:53:33.301000+00:00</time>
      </trkpt>
      <trkpt lat="0" lon="0">
        <time>2020-12-06T07:53:33.304000+00:00</time>
      </trkpt>
      <trkpt lat="47.2576" lon="-1.42616">
        <ele>6</ele>
        <time>2020-12-06T07:53:34.270000+00:00</time>
      </trkpt>
      <trkpt lat="0" lon="0">
        <time>2020-12-06T07:53:34.273000+00:00</time>
      </trkpt>
      <trkpt lat="0" lon="0">
        <time>2020-12-06T07:53:34.276000+00:00</time>
      </trkpt>
      <trkpt lat="0" lon="0">
        <time>2020-12-06T07:53:34.279000+00:00</time>
      </trkpt>
      <trkpt lat="47.25764" lon="-1.42609">
        <ele>6</ele>
        <time>2020-12-06T07:53:35.236000+00:00</time>
      </trkpt>
      <trkpt lat="0" lon="0">
        <time>2020-12-06T07:53:35.239000+00:00</time>
      </trkpt>
      <trkpt lat="0" lon="0">
        <time>2020-12-06T07:53:35.243000+00:00</time>
      </trkpt>
      <trkpt lat="0" lon="0">
        <time>2020-12-06T07:53:35.245000+00:00</time>
      </trkpt>
      <trkpt lat="47.25768" lon="-1.42603">
        <ele>7</ele>
        <time>2020-12-06T07:53:36.246000+00:00</time>
      </trkpt>
      <trkpt lat="0" lon="0">
        <time>2020-12-06T07:53:36.249000+00:00</time>
      </trkpt>
      <trkpt lat="0" lon="0">
        <time>2020-12-06T07:53:36.252000+00:00</time>
      </trkpt>
      <trkpt lat="0" lon="0">
        <time>2020-12-06T07:53:36.254000+00:00</time>
      </trkpt>
      <trkpt lat="47.25773" lon="-1.42596">
        <ele>7</ele>
        <time>2020-12-06T07:53:37.268000+00:00</time>
      </trkpt>
      <trkpt lat="0" lon="0">
        <time>2020-12-06T07:53:37.275000+00:00</time>
      </trkpt>
      <trkpt lat="0" lon="0">
        <time>2020-12-06T07:53:37.279000+00:00</time>
      </trkpt>
      <trkpt lat="0" lon="0">
        <time>2020-12-06T07:53:37.280000+00:00</time>
      </trkpt>
      <trkpt lat="47.25777" lon="-1.42588">
        <ele>7</ele>
        <time>2020-12-06T07:53:38.244000+00:00</time>
      </trkpt>
      <trkpt lat="0" lon="0">
        <time>2020-12-06T07:53:38.249000+00:00</time>
      </trkpt>
      <trkpt lat="0" lon="0">
        <time>2020-12-06T07:53:38.254000+00:00</time>
      </trkpt>
      <trkpt lat="0" lon="0">
        <time>2020-12-06T07:53:38.256000+00:00</time>
      </trkpt>
      <trkpt lat="47.25782" lon="-1.42582">
        <ele>7</ele>
        <time>2020-12-06T07:53:39.239000+00:00</time>
      </trkpt>
      <trkpt lat="0" lon="0">
        <time>2020-12-06T07:53:39.241000+00:00</time>
      </trkpt>
      <trkpt lat="0" lon="0">
        <time>2020-12-06T07:53:39.243000+00:00</time>
      </trkpt>
      <trkpt lat="0" lon="0">
        <time>2020-12-06T07:53:39.245000+00:00</time>
      </trkpt>
      <trkpt lat="47.25787" lon="-1.42575">
        <ele>7</ele>
        <time>2020-12-06T07:53:40.236000+00:00</time>
      </trkpt>
      <trkpt lat="0" lon="0">
        <time>2020-12-06T07:53:40.241000+00:00</time>
      </trkpt>
      <trkpt lat="0" lon="0">
        <time>2020-12-06T07:53:40.243000+00:00</time>
      </trkpt>
      <trkpt lat="0" lon="0">
        <time>2020-12-06T07:53:40.245000+00:00</time>
      </trkpt>
      <trkpt lat="47.25793" lon="-1.42569">
        <ele>7</ele>
        <time>2020-12-06T07:53:41.246000+00:00</time>
      </trkpt>
      <trkpt lat="0" lon="0">
        <time>2020-12-06T07:53:41.260000+00:00</time>
      </trkpt>
      <trkpt lat="0" lon="0">
        <time>2020-12-06T07:53:41.263000+00:00</time>
      </trkpt>
      <trkpt lat="0" lon="0">
        <time>2020-12-06T07:53:41.267000+00:00</time>
      </trkpt>
      <trkpt lat="47.25798" lon="-1.42563">
        <ele>7</ele>
        <time>2020-12-06T07:53:42.215000+00:00</time>
      </trkpt>
      <trkpt lat="0" lon="0">
        <time>2020-12-06T07:53:42.234000+00:00</time>
      </trkpt>
      <trkpt lat="0" lon="0">
        <time>2020-12-06T07:53:42.238000+00:00</time>
      </trkpt>
      <trkpt lat="0" lon="0">
        <time>2020-12-06T07:53:42.241000+00:00</time>
      </trkpt>
      <trkpt lat="47.25804" lon="-1.42557">
        <ele>7</ele>
        <time>2020-12-06T07:53:43.242000+00:00</time>
      </trkpt>
      <trkpt lat="0" lon="0">
        <time>2020-12-06T07:53:43.252000+00:00</time>
      </trkpt>
      <trkpt lat="0" lon="0">
        <time>2020-12-06T07:53:43.264000+00:00</time>
      </trkpt>
      <trkpt lat="0" lon="0">
        <time>2020-12-06T07:53:43.266000+00:00</time>
      </trkpt>
      <trkpt lat="47.2581" lon="-1.42551">
        <ele>7</ele>
        <time>2020-12-06T07:53:44.227000+00:00</time>
      </trkpt>
      <trkpt lat="0" lon="0">
        <time>2020-12-06T07:53:44.235000+00:00</time>
      </trkpt>
      <trkpt lat="0" lon="0">
        <time>2020-12-06T07:53:44.245000+00:00</time>
      </trkpt>
      <trkpt lat="0" lon="0">
        <time>2020-12-06T07:53:44.257000+00:00</time>
      </trkpt>
      <trkpt lat="47.25816" lon="-1.42546">
        <ele>7</ele>
        <time>2020-12-06T07:53:45.243000+00:00</time>
      </trkpt>
      <trkpt lat="0" lon="0">
        <time>2020-12-06T07:53:45.256000+00:00</time>
      </trkpt>
      <trkpt lat="0" lon="0">
        <time>2020-12-06T07:53:45.263000+00:00</time>
      </trkpt>
      <trkpt lat="0" lon="0">
        <time>2020-12-06T07:53:45.266000+00:00</time>
      </trkpt>
      <trkpt lat="47.25822" lon="-1.42541">
        <ele>7</ele>
        <time>2020-12-06T07:53:46.271000+00:00</time>
      </trkpt>
      <trkpt lat="0" lon="0">
        <time>2020-12-06T07:53:46.281000+00:00</time>
      </trkpt>
      <trkpt lat="0" lon="0">
        <time>2020-12-06T07:53:46.289000+00:00</time>
      </trkpt>
      <trkpt lat="0" lon="0">
        <time>2020-12-06T07:53:46.295000+00:00</time>
      </trkpt>
      <trkpt lat="47.25828" lon="-1.42536">
        <ele>7</ele>
        <time>2020-12-06T07:53:47.246000+00:00</time>
      </trkpt>
      <trkpt lat="0" lon="0">
        <time>2020-12-06T07:53:47.251000+00:00</time>
      </trkpt>
      <trkpt lat="0" lon="0">
        <time>2020-12-06T07:53:47.256000+00:00</time>
      </trkpt>
      <trkpt lat="0" lon="0">
        <time>2020-12-06T07:53:47.258000+00:00</time>
      </trkpt>
      <trkpt lat="47.25834" lon="-1.4253">
        <ele>7</ele>
        <time>2020-12-06T07:53:48.146000+00:00</time>
      </trkpt>
      <trkpt lat="0" lon="0">
        <time>2020-12-06T07:53:48.151000+00:00</time>
      </trkpt>
      <trkpt lat="0" lon="0">
        <time>2020-12-06T07:53:48.159000+00:00</time>
      </trkpt>
      <trkpt lat="47.2584" lon="-1.42526">
        <ele>7</ele>
        <time>2020-12-06T07:53:49.232000+00:00</time>
      </trkpt>
      <trkpt lat="0" lon="0">
        <time>2020-12-06T07:53:49.251000+00:00</time>
      </trkpt>
      <trkpt lat="0" lon="0">
        <time>2020-12-06T07:53:49.257000+00:00</time>
      </trkpt>
      <trkpt lat="0" lon="0">
        <time>2020-12-06T07:53:49.259000+00:00</time>
      </trkpt>
      <trkpt lat="47.25846" lon="-1.42521">
        <ele>7</ele>
        <time>2020-12-06T07:53:50.232000+00:00</time>
      </trkpt>
      <trkpt lat="0" lon="0">
        <time>2020-12-06T07:53:50.250000+00:00</time>
      </trkpt>
      <trkpt lat="0" lon="0">
        <time>2020-12-06T07:53:50.254000+00:00</time>
      </trkpt>
      <trkpt lat="0" lon="0">
        <time>2020-12-06T07:53:50.255000+00:00</time>
      </trkpt>
      <trkpt lat="47.25852" lon="-1.42516">
        <ele>7</ele>
        <time>2020-12-06T07:53:51.287000+00:00</time>
      </trkpt>
      <trkpt lat="0" lon="0">
        <time>2020-12-06T07:53:51.293000+00:00</time>
      </trkpt>
      <trkpt lat="0" lon="0">
        <time>2020-12-06T07:53:51.297000+00:00</time>
      </trkpt>
      <trkpt lat="0" lon="0">
        <time>2020-12-06T07:53:51.299000+00:00</time>
      </trkpt>
      <trkpt lat="47.25858" lon="-1.42512">
        <ele>7</ele>
        <time>2020-12-06T07:53:52.261000+00:00</time>
      </trkpt>
      <trkpt lat="0" lon="0">
        <time>2020-12-06T07:53:52.274000+00:00</time>
      </trkpt>
      <trkpt lat="0" lon="0">
        <time>2020-12-06T07:53:52.278000+00:00</time>
      </trkpt>
      <trkpt lat="0" lon="0">
        <time>2020-12-06T07:53:52.280000+00:00</time>
      </trkpt>
      <trkpt lat="47.25864" lon="-1.42507">
        <ele>7</ele>
        <time>2020-12-06T07:53:53.261000+00:00</time>
      </trkpt>
      <trkpt lat="0" lon="0">
        <time>2020-12-06T07:53:53.276000+00:00</time>
      </trkpt>
      <trkpt lat="0" lon="0">
        <time>2020-12-06T07:53:53.278000+00:00</time>
      </trkpt>
      <trkpt lat="0" lon="0">
        <time>2020-12-06T07:53:53.279000+00:00</time>
      </trkpt>
      <trkpt lat="47.25869" lon="-1.42503">
        <ele>7</ele>
        <time>2020-12-06T07:53:54.240000+00:00</time>
      </trkpt>
      <trkpt lat="0" lon="0">
        <time>2020-12-06T07:53:54.244000+00:00</time>
      </trkpt>
      <trkpt lat="0" lon="0">
        <time>2020-12-06T07:53:54.255000+00:00</time>
      </trkpt>
      <trkpt lat="0" lon="0">
        <time>2020-12-06T07:53:54.259000+00:00</time>
      </trkpt>
      <trkpt lat="47.25875" lon="-1.42499">
        <ele>7</ele>
        <time>2020-12-06T07:53:55.224000+00:00</time>
      </trkpt>
      <trkpt lat="0" lon="0">
        <time>2020-12-06T07:53:55.240000+00:00</time>
      </trkpt>
      <trkpt lat="0" lon="0">
        <time>2020-12-06T07:53:55.243000+00:00</time>
      </trkpt>
      <trkpt lat="0" lon="0">
        <time>2020-12-06T07:53:55.246000+00:00</time>
      </trkpt>
      <trkpt lat="47.25881" lon="-1.42495">
        <ele>7</ele>
        <time>2020-12-06T07:53:56.260000+00:00</time>
      </trkpt>
      <trkpt lat="0" lon="0">
        <time>2020-12-06T07:53:56.264000+00:00</time>
      </trkpt>
      <trkpt lat="0" lon="0">
        <time>2020-12-06T07:53:56.276000+00:00</time>
      </trkpt>
      <trkpt lat="0" lon="0">
        <time>2020-12-06T07:53:56.283000+00:00</time>
      </trkpt>
      <trkpt lat="47.25888" lon="-1.42491">
        <ele>7</ele>
        <time>2020-12-06T07:53:57.271000+00:00</time>
      </trkpt>
      <trkpt lat="0" lon="0">
        <time>2020-12-06T07:53:57.275000+00:00</time>
      </trkpt>
      <trkpt lat="0" lon="0">
        <time>2020-12-06T07:53:57.282000+00:00</time>
      </trkpt>
      <trkpt lat="0" lon="0">
        <time>2020-12-06T07:53:57.285000+00:00</time>
      </trkpt>
      <trkpt lat="47.25893" lon="-1.42487">
        <ele>7</ele>
        <time>2020-12-06T07:53:58.238000+00:00</time>
      </trkpt>
      <trkpt lat="0" lon="0">
        <time>2020-12-06T07:53:58.246000+00:00</time>
      </trkpt>
      <trkpt lat="0" lon="0">
        <time>2020-12-06T07:53:58.271000+00:00</time>
      </trkpt>
      <trkpt lat="0" lon="0">
        <time>2020-12-06T07:53:58.276000+00:00</time>
      </trkpt>
      <trkpt lat="47.25899" lon="-1.42483">
        <ele>7</ele>
        <time>2020-12-06T07:53:59.238000+00:00</time>
      </trkpt>
      <trkpt lat="0" lon="0">
        <time>2020-12-06T07:53:59.251000+00:00</time>
      </trkpt>
      <trkpt lat="0" lon="0">
        <time>2020-12-06T07:53:59.255000+00:00</time>
      </trkpt>
      <trkpt lat="0" lon="0">
        <time>2020-12-06T07:53:59.257000+00:00</time>
      </trkpt>
      <trkpt lat="47.25905" lon="-1.42478">
        <ele>6</ele>
        <time>2020-12-06T07:54:00.213000+00:00</time>
      </trkpt>
      <trkpt lat="0" lon="0">
        <time>2020-12-06T07:54:00.216000+00:00</time>
      </trkpt>
      <trkpt lat="0" lon="0">
        <time>2020-12-06T07:54:00.223000+00:00</time>
      </trkpt>
      <trkpt lat="0" lon="0">
        <time>2020-12-06T07:54:00.225000+00:00</time>
      </trkpt>
      <trkpt lat="47.2591" lon="-1.42473">
        <ele>6</ele>
        <time>2020-12-06T07:54:01.236000+00:00</time>
      </trkpt>
      <trkpt lat="0" lon="0">
        <time>2020-12-06T07:54:01.239000+00:00</time>
      </trkpt>
      <trkpt lat="0" lon="0">
        <time>2020-12-06T07:54:01.244000+00:00</time>
      </trkpt>
      <trkpt lat="0" lon="0">
        <time>2020-12-06T07:54:01.245000+00:00</time>
      </trkpt>
      <trkpt lat="47.25915" lon="-1.42467">
        <ele>6</ele>
        <time>2020-12-06T07:54:02.239000+00:00</time>
      </trkpt>
      <trkpt lat="0" lon="0">
        <time>2020-12-06T07:54:02.243000+00:00</time>
      </trkpt>
      <trkpt lat="0" lon="0">
        <time>2020-12-06T07:54:02.254000+00:00</time>
      </trkpt>
      <trkpt lat="0" lon="0">
        <time>2020-12-06T07:54:02.258000+00:00</time>
      </trkpt>
      <trkpt lat="47.2592" lon="-1.42462">
        <ele>6</ele>
        <time>2020-12-06T07:54:03.249000+00:00</time>
      </trkpt>
      <trkpt lat="0" lon="0">
        <time>2020-12-06T07:54:03.255000+00:00</time>
      </trkpt>
      <trkpt lat="0" lon="0">
        <time>2020-12-06T07:54:03.257000+00:00</time>
      </trkpt>
      <trkpt lat="0" lon="0">
        <time>2020-12-06T07:54:03.258000+00:00</time>
      </trkpt>
      <trkpt lat="47.25925" lon="-1.42456">
        <ele>6</ele>
        <time>2020-12-06T07:54:04.220000+00:00</time>
      </trkpt>
      <trkpt lat="0" lon="0">
        <time>2020-12-06T07:54:04.231000+00:00</time>
      </trkpt>
      <trkpt lat="0" lon="0">
        <time>2020-12-06T07:54:04.235000+00:00</time>
      </trkpt>
      <trkpt lat="0" lon="0">
        <time>2020-12-06T07:54:04.237000+00:00</time>
      </trkpt>
      <trkpt lat="47.2593" lon="-1.4245">
        <ele>6</ele>
        <time>2020-12-06T07:54:05.242000+00:00</time>
      </trkpt>
      <trkpt lat="0" lon="0">
        <time>2020-12-06T07:54:05.252000+00:00</time>
      </trkpt>
      <trkpt lat="0" lon="0">
        <time>2020-12-06T07:54:05.256000+00:00</time>
      </trkpt>
      <trkpt lat="0" lon="0">
        <time>2020-12-06T07:54:05.258000+00:00</time>
      </trkpt>
      <trkpt lat="47.25935" lon="-1.42444">
        <ele>6</ele>
        <time>2020-12-06T07:54:06.247000+00:00</time>
      </trkpt>
      <trkpt lat="0" lon="0">
        <time>2020-12-06T07:54:06.251000+00:00</time>
      </trkpt>
      <trkpt lat="0" lon="0">
        <time>2020-12-06T07:54:06.255000+00:00</time>
      </trkpt>
      <trkpt lat="0" lon="0">
        <time>2020-12-06T07:54:06.257000+00:00</time>
      </trkpt>
      <trkpt lat="47.2594" lon="-1.42438">
        <ele>6</ele>
        <time>2020-12-06T07:54:07.151000+00:00</time>
      </trkpt>
      <trkpt lat="0" lon="0">
        <time>2020-12-06T07:54:07.154000+00:00</time>
      </trkpt>
      <trkpt lat="0" lon="0">
        <time>2020-12-06T07:54:07.160000+00:00</time>
      </trkpt>
      <trkpt lat="0" lon="0">
        <time>2020-12-06T07:54:07.161000+00:00</time>
      </trkpt>
      <trkpt lat="47.25944" lon="-1.42432">
        <ele>6</ele>
        <time>2020-12-06T07:54:08.243000+00:00</time>
      </trkpt>
      <trkpt lat="0" lon="0">
        <time>2020-12-06T07:54:08.260000+00:00</time>
      </trkpt>
      <trkpt lat="0" lon="0">
        <time>2020-12-06T07:54:08.263000+00:00</time>
      </trkpt>
      <trkpt lat="0" lon="0">
        <time>2020-12-06T07:54:08.271000+00:00</time>
      </trkpt>
      <trkpt lat="47.25948" lon="-1.42425">
        <ele>6</ele>
        <time>2020-12-06T07:54:09.282000+00:00</time>
      </trkpt>
      <trkpt lat="0" lon="0">
        <time>2020-12-06T07:54:09.287000+00:00</time>
      </trkpt>
      <trkpt lat="0" lon="0">
        <time>2020-12-06T07:54:09.292000+00:00</time>
      </trkpt>
      <trkpt lat="0" lon="0">
        <time>2020-12-06T07:54:09.297000+00:00</time>
      </trkpt>
      <trkpt lat="47.25953" lon="-1.42419">
        <ele>6</ele>
        <time>2020-12-06T07:54:10.199000+00:00</time>
      </trkpt>
      <trkpt lat="0" lon="0">
        <time>2020-12-06T07:54:10.200000+00:00</time>
      </trkpt>
      <trkpt lat="0" lon="0">
        <time>2020-12-06T07:54:10.201000+00:00</time>
      </trkpt>
      <trkpt lat="0" lon="0">
        <time>2020-12-06T07:54:10.202000+00:00</time>
      </trkpt>
      <trkpt lat="47.25957" lon="-1.42413">
        <ele>6</ele>
        <time>2020-12-06T07:54:11.257000+00:00</time>
      </trkpt>
      <trkpt lat="0" lon="0">
        <time>2020-12-06T07:54:11.267000+00:00</time>
      </trkpt>
      <trkpt lat="0" lon="0">
        <time>2020-12-06T07:54:11.270000+00:00</time>
      </trkpt>
      <trkpt lat="0" lon="0">
        <time>2020-12-06T07:54:11.272000+00:00</time>
      </trkpt>
      <trkpt lat="47.25961" lon="-1.42407">
        <ele>6</ele>
        <time>2020-12-06T07:54:12.258000+00:00</time>
      </trkpt>
      <trkpt lat="0" lon="0">
        <time>2020-12-06T07:54:12.272000+00:00</time>
      </trkpt>
      <trkpt lat="0" lon="0">
        <time>2020-12-06T07:54:12.280000+00:00</time>
      </trkpt>
      <trkpt lat="0" lon="0">
        <time>2020-12-06T07:54:12.284000+00:00</time>
      </trkpt>
      <trkpt lat="47.25966" lon="-1.42401">
        <ele>6</ele>
        <time>2020-12-06T07:54:13.241000+00:00</time>
      </trkpt>
      <trkpt lat="0" lon="0">
        <time>2020-12-06T07:54:13.251000+00:00</time>
      </trkpt>
      <trkpt lat="0" lon="0">
        <time>2020-12-06T07:54:13.254000+00:00</time>
      </trkpt>
      <trkpt lat="0" lon="0">
        <time>2020-12-06T07:54:13.256000+00:00</time>
      </trkpt>
      <trkpt lat="47.2597" lon="-1.42394">
        <ele>6</ele>
        <time>2020-12-06T07:54:14.287000+00:00</time>
      </trkpt>
      <trkpt lat="0" lon="0">
        <time>2020-12-06T07:54:14.303000+00:00</time>
      </trkpt>
      <trkpt lat="0" lon="0">
        <time>2020-12-06T07:54:14.307000+00:00</time>
      </trkpt>
      <trkpt lat="0" lon="0">
        <time>2020-12-06T07:54:14.310000+00:00</time>
      </trkpt>
      <trkpt lat="47.25974" lon="-1.42388">
        <ele>6</ele>
        <time>2020-12-06T07:54:15.276000+00:00</time>
      </trkpt>
      <trkpt lat="0" lon="0">
        <time>2020-12-06T07:54:15.281000+00:00</time>
      </trkpt>
      <trkpt lat="0" lon="0">
        <time>2020-12-06T07:54:15.286000+00:00</time>
      </trkpt>
      <trkpt lat="0" lon="0">
        <time>2020-12-06T07:54:15.289000+00:00</time>
      </trkpt>
      <trkpt lat="47.25979" lon="-1.42382">
        <ele>6</ele>
        <time>2020-12-06T07:54:16.261000+00:00</time>
      </trkpt>
      <trkpt lat="0" lon="0">
        <time>2020-12-06T07:54:16.273000+00:00</time>
      </trkpt>
      <trkpt lat="0" lon="0">
        <time>2020-12-06T07:54:16.274000+00:00</time>
      </trkpt>
      <trkpt lat="0" lon="0">
        <time>2020-12-06T07:54:16.276000+00:00</time>
      </trkpt>
      <trkpt lat="47.25984" lon="-1.42376">
        <ele>6</ele>
        <time>2020-12-06T07:54:17.267000+00:00</time>
      </trkpt>
      <trkpt lat="0" lon="0">
        <time>2020-12-06T07:54:17.279000+00:00</time>
      </trkpt>
      <trkpt lat="0" lon="0">
        <time>2020-12-06T07:54:17.285000+00:00</time>
      </trkpt>
      <trkpt lat="0" lon="0">
        <time>2020-12-06T07:54:17.286000+00:00</time>
      </trkpt>
      <trkpt lat="47.25989" lon="-1.4237">
        <ele>6</ele>
        <time>2020-12-06T07:54:18.259000+00:00</time>
      </trkpt>
      <trkpt lat="0" lon="0">
        <time>2020-12-06T07:54:18.279000+00:00</time>
      </trkpt>
      <trkpt lat="0" lon="0">
        <time>2020-12-06T07:54:18.284000+00:00</time>
      </trkpt>
      <trkpt lat="0" lon="0">
        <time>2020-12-06T07:54:18.293000+00:00</time>
      </trkpt>
      <trkpt lat="47.25994" lon="-1.42364">
        <ele>6</ele>
        <time>2020-12-06T07:54:19.277000+00:00</time>
      </trkpt>
      <trkpt lat="0" lon="0">
        <time>2020-12-06T07:54:19.286000+00:00</time>
      </trkpt>
      <trkpt lat="0" lon="0">
        <time>2020-12-06T07:54:19.294000+00:00</time>
      </trkpt>
      <trkpt lat="0" lon="0">
        <time>2020-12-06T07:54:19.296000+00:00</time>
      </trkpt>
      <trkpt lat="47.25999" lon="-1.42358">
        <ele>6</ele>
        <time>2020-12-06T07:54:20.274000+00:00</time>
      </trkpt>
      <trkpt lat="0" lon="0">
        <time>2020-12-06T07:54:20.286000+00:00</time>
      </trkpt>
      <trkpt lat="0" lon="0">
        <time>2020-12-06T07:54:20.291000+00:00</time>
      </trkpt>
      <trkpt lat="0" lon="0">
        <time>2020-12-06T07:54:20.294000+00:00</time>
      </trkpt>
      <trkpt lat="47.26004" lon="-1.42352">
        <ele>6</ele>
        <time>2020-12-06T07:54:21.237000+00:00</time>
      </trkpt>
      <trkpt lat="0" lon="0">
        <time>2020-12-06T07:54:21.246000+00:00</time>
      </trkpt>
      <trkpt lat="0" lon="0">
        <time>2020-12-06T07:54:21.251000+00:00</time>
      </trkpt>
      <trkpt lat="0" lon="0">
        <time>2020-12-06T07:54:21.260000+00:00</time>
      </trkpt>
      <trkpt lat="47.26009" lon="-1.42346">
        <ele>6</ele>
        <time>2020-12-06T07:54:22.273000+00:00</time>
      </trkpt>
      <trkpt lat="0" lon="0">
        <time>2020-12-06T07:54:22.290000+00:00</time>
      </trkpt>
      <trkpt lat="0" lon="0">
        <time>2020-12-06T07:54:22.296000+00:00</time>
      </trkpt>
      <trkpt lat="0" lon="0">
        <time>2020-12-06T07:54:22.303000+00:00</time>
      </trkpt>
      <trkpt lat="47.26013" lon="-1.42339">
        <ele>6</ele>
        <time>2020-12-06T07:54:23.261000+00:00</time>
      </trkpt>
      <trkpt lat="0" lon="0">
        <time>2020-12-06T07:54:23.276000+00:00</time>
      </trkpt>
      <trkpt lat="0" lon="0">
        <time>2020-12-06T07:54:23.281000+00:00</time>
      </trkpt>
      <trkpt lat="0" lon="0">
        <time>2020-12-06T07:54:23.282000+00:00</time>
      </trkpt>
      <trkpt lat="47.26018" lon="-1.42333">
        <ele>6</ele>
        <time>2020-12-06T07:54:24.195000+00:00</time>
      </trkpt>
      <trkpt lat="0" lon="0">
        <time>2020-12-06T07:54:24.201000+00:00</time>
      </trkpt>
      <trkpt lat="0" lon="0">
        <time>2020-12-06T07:54:24.205000+00:00</time>
      </trkpt>
      <trkpt lat="0" lon="0">
        <time>2020-12-06T07:54:24.206000+00:00</time>
      </trkpt>
      <trkpt lat="47.26023" lon="-1.42326">
        <ele>6</ele>
        <time>2020-12-06T07:54:25.214000+00:00</time>
      </trkpt>
      <trkpt lat="0" lon="0">
        <time>2020-12-06T07:54:25.229000+00:00</time>
      </trkpt>
      <trkpt lat="0" lon="0">
        <time>2020-12-06T07:54:25.232000+00:00</time>
      </trkpt>
      <trkpt lat="0" lon="0">
        <time>2020-12-06T07:54:25.235000+00:00</time>
      </trkpt>
      <trkpt lat="47.26027" lon="-1.4232">
        <ele>6</ele>
        <time>2020-12-06T07:54:26.263000+00:00</time>
      </trkpt>
      <trkpt lat="0" lon="0">
        <time>2020-12-06T07:54:26.267000+00:00</time>
      </trkpt>
      <trkpt lat="0" lon="0">
        <time>2020-12-06T07:54:26.276000+00:00</time>
      </trkpt>
      <trkpt lat="0" lon="0">
        <time>2020-12-06T07:54:26.279000+00:00</time>
      </trkpt>
      <trkpt lat="47.26032" lon="-1.42313">
        <ele>6</ele>
        <time>2020-12-06T07:54:27.264000+00:00</time>
      </trkpt>
      <trkpt lat="0" lon="0">
        <time>2020-12-06T07:54:27.267000+00:00</time>
      </trkpt>
      <trkpt lat="0" lon="0">
        <time>2020-12-06T07:54:27.278000+00:00</time>
      </trkpt>
      <trkpt lat="0" lon="0">
        <time>2020-12-06T07:54:27.281000+00:00</time>
      </trkpt>
      <trkpt lat="47.26037" lon="-1.42306">
        <ele>6</ele>
        <time>2020-12-06T07:54:28.264000+00:00</time>
      </trkpt>
      <trkpt lat="0" lon="0">
        <time>2020-12-06T07:54:28.276000+00:00</time>
      </trkpt>
      <trkpt lat="0" lon="0">
        <time>2020-12-06T07:54:28.284000+00:00</time>
      </trkpt>
      <trkpt lat="0" lon="0">
        <time>2020-12-06T07:54:28.293000+00:00</time>
      </trkpt>
      <trkpt lat="47.26041" lon="-1.423">
        <ele>6</ele>
        <time>2020-12-06T07:54:29.229000+00:00</time>
      </trkpt>
      <trkpt lat="0" lon="0">
        <time>2020-12-06T07:54:29.237000+00:00</time>
      </trkpt>
      <trkpt lat="0" lon="0">
        <time>2020-12-06T07:54:29.244000+00:00</time>
      </trkpt>
      <trkpt lat="0" lon="0">
        <time>2020-12-06T07:54:29.247000+00:00</time>
      </trkpt>
      <trkpt lat="47.26046" lon="-1.42293">
        <ele>6</ele>
        <time>2020-12-06T07:54:30.239000+00:00</time>
      </trkpt>
      <trkpt lat="0" lon="0">
        <time>2020-12-06T07:54:30.247000+00:00</time>
      </trkpt>
      <trkpt lat="0" lon="0">
        <time>2020-12-06T07:54:30.252000+00:00</time>
      </trkpt>
      <trkpt lat="0" lon="0">
        <time>2020-12-06T07:54:30.254000+00:00</time>
      </trkpt>
      <trkpt lat="47.2605" lon="-1.42287">
        <ele>6</ele>
        <time>2020-12-06T07:54:31.261000+00:00</time>
      </trkpt>
      <trkpt lat="0" lon="0">
        <time>2020-12-06T07:54:31.269000+00:00</time>
      </trkpt>
      <trkpt lat="0" lon="0">
        <time>2020-12-06T07:54:31.291000+00:00</time>
      </trkpt>
      <trkpt lat="0" lon="0">
        <time>2020-12-06T07:54:31.300000+00:00</time>
      </trkpt>
      <trkpt lat="47.26055" lon="-1.42281">
        <ele>6</ele>
        <time>2020-12-06T07:54:32.247000+00:00</time>
      </trkpt>
      <trkpt lat="0" lon="0">
        <time>2020-12-06T07:54:32.256000+00:00</time>
      </trkpt>
      <trkpt lat="0" lon="0">
        <time>2020-12-06T07:54:32.260000+00:00</time>
      </trkpt>
      <trkpt lat="0" lon="0">
        <time>2020-12-06T07:54:32.265000+00:00</time>
      </trkpt>
      <trkpt lat="47.2606" lon="-1.42275">
        <ele>6</ele>
        <time>2020-12-06T07:54:33.291000+00:00</time>
      </trkpt>
      <trkpt lat="0" lon="0">
        <time>2020-12-06T07:54:33.298000+00:00</time>
      </trkpt>
      <trkpt lat="0" lon="0">
        <time>2020-12-06T07:54:33.299000+00:00</time>
      </trkpt>
      <trkpt lat="0" lon="0">
        <time>2020-12-06T07:54:33.300000+00:00</time>
      </trkpt>
      <trkpt lat="47.26064" lon="-1.42268">
        <ele>5</ele>
        <time>2020-12-06T07:54:34.175000+00:00</time>
      </trkpt>
      <trkpt lat="0" lon="0">
        <time>2020-12-06T07:54:34.178000+00:00</time>
      </trkpt>
      <trkpt lat="0" lon="0">
        <time>2020-12-06T07:54:34.179000+00:00</time>
      </trkpt>
      <trkpt lat="47.26069" lon="-1.42262">
        <ele>5</ele>
        <time>2020-12-06T07:54:35.243000+00:00</time>
      </trkpt>
      <trkpt lat="0" lon="0">
        <time>2020-12-06T07:54:35.256000+00:00</time>
      </trkpt>
      <trkpt lat="0" lon="0">
        <time>2020-12-06T07:54:35.262000+00:00</time>
      </trkpt>
      <trkpt lat="0" lon="0">
        <time>2020-12-06T07:54:35.270000+00:00</time>
      </trkpt>
      <trkpt lat="47.26074" lon="-1.42256">
        <ele>5</ele>
        <time>2020-12-06T07:54:36.278000+00:00</time>
      </trkpt>
      <trkpt lat="0" lon="0">
        <time>2020-12-06T07:54:36.289000+00:00</time>
      </trkpt>
      <trkpt lat="0" lon="0">
        <time>2020-12-06T07:54:36.304000+00:00</time>
      </trkpt>
      <trkpt lat="0" lon="0">
        <time>2020-12-06T07:54:36.306000+00:00</time>
      </trkpt>
      <trkpt lat="47.26078" lon="-1.4225">
        <ele>5</ele>
        <time>2020-12-06T07:54:37.175000+00:00</time>
      </trkpt>
      <trkpt lat="0" lon="0">
        <time>2020-12-06T07:54:37.177000+00:00</time>
      </trkpt>
      <trkpt lat="0" lon="0">
        <time>2020-12-06T07:54:37.178000+00:00</time>
      </trkpt>
      <trkpt lat="0" lon="0">
        <time>2020-12-06T07:54:37.179000+00:00</time>
      </trkpt>
      <trkpt lat="47.26083" lon="-1.42244">
        <ele>5</ele>
        <time>2020-12-06T07:54:38.218000+00:00</time>
      </trkpt>
      <trkpt lat="0" lon="0">
        <time>2020-12-06T07:54:38.224000+00:00</time>
      </trkpt>
      <trkpt lat="0" lon="0">
        <time>2020-12-06T07:54:38.237000+00:00</time>
      </trkpt>
      <trkpt lat="0" lon="0">
        <time>2020-12-06T07:54:38.239000+00:00</time>
      </trkpt>
      <trkpt lat="47.26088" lon="-1.42238">
        <ele>5</ele>
        <time>2020-12-06T07:54:39.249000+00:00</time>
      </trkpt>
      <trkpt lat="0" lon="0">
        <time>2020-12-06T07:54:39.269000+00:00</time>
      </trkpt>
      <trkpt lat="0" lon="0">
        <time>2020-12-06T07:54:39.273000+00:00</time>
      </trkpt>
      <trkpt lat="0" lon="0">
        <time>2020-12-06T07:54:39.275000+00:00</time>
      </trkpt>
      <trkpt lat="47.26093" lon="-1.42231">
        <ele>5</ele>
        <time>2020-12-06T07:54:40.248000+00:00</time>
      </trkpt>
      <trkpt lat="0" lon="0">
        <time>2020-12-06T07:54:40.265000+00:00</time>
      </trkpt>
      <trkpt lat="0" lon="0">
        <time>2020-12-06T07:54:40.274000+00:00</time>
      </trkpt>
      <trkpt lat="0" lon="0">
        <time>2020-12-06T07:54:40.280000+00:00</time>
      </trkpt>
      <trkpt lat="47.26098" lon="-1.42225">
        <ele>5</ele>
        <time>2020-12-06T07:54:41.254000+00:00</time>
      </trkpt>
      <trkpt lat="0" lon="0">
        <time>2020-12-06T07:54:41.262000+00:00</time>
      </trkpt>
      <trkpt lat="0" lon="0">
        <time>2020-12-06T07:54:41.264000+00:00</time>
      </trkpt>
      <trkpt lat="0" lon="0">
        <time>2020-12-06T07:54:41.265000+00:00</time>
      </trkpt>
      <trkpt lat="47.26102" lon="-1.42219">
        <ele>5</ele>
        <time>2020-12-06T07:54:42.278000+00:00</time>
      </trkpt>
      <trkpt lat="0" lon="0">
        <time>2020-12-06T07:54:42.282000+00:00</time>
      </trkpt>
      <trkpt lat="0" lon="0">
        <time>2020-12-06T07:54:42.286000+00:00</time>
      </trkpt>
      <trkpt lat="0" lon="0">
        <time>2020-12-06T07:54:42.289000+00:00</time>
      </trkpt>
      <trkpt lat="47.26107" lon="-1.42213">
        <ele>5</ele>
        <time>2020-12-06T07:54:43.253000+00:00</time>
      </trkpt>
      <trkpt lat="0" lon="0">
        <time>2020-12-06T07:54:43.261000+00:00</time>
      </trkpt>
      <trkpt lat="0" lon="0">
        <time>2020-12-06T07:54:43.265000+00:00</time>
      </trkpt>
      <trkpt lat="0" lon="0">
        <time>2020-12-06T07:54:43.267000+00:00</time>
      </trkpt>
      <trkpt lat="47.26112" lon="-1.42207">
        <ele>5</ele>
        <time>2020-12-06T07:54:44.266000+00:00</time>
      </trkpt>
      <trkpt lat="0" lon="0">
        <time>2020-12-06T07:54:44.275000+00:00</time>
      </trkpt>
      <trkpt lat="0" lon="0">
        <time>2020-12-06T07:54:44.279000+00:00</time>
      </trkpt>
      <trkpt lat="0" lon="0">
        <time>2020-12-06T07:54:44.281000+00:00</time>
      </trkpt>
      <trkpt lat="47.26117" lon="-1.422">
        <ele>5</ele>
        <time>2020-12-06T07:54:45.288000+00:00</time>
      </trkpt>
      <trkpt lat="0" lon="0">
        <time>2020-12-06T07:54:45.291000+00:00</time>
      </trkpt>
      <trkpt lat="0" lon="0">
        <time>2020-12-06T07:54:45.295000+00:00</time>
      </trkpt>
      <trkpt lat="0" lon="0">
        <time>2020-12-06T07:54:45.298000+00:00</time>
      </trkpt>
      <trkpt lat="47.26122" lon="-1.42194">
        <ele>5</ele>
        <time>2020-12-06T07:54:46.286000+00:00</time>
      </trkpt>
      <trkpt lat="0" lon="0">
        <time>2020-12-06T07:54:46.295000+00:00</time>
      </trkpt>
      <trkpt lat="0" lon="0">
        <time>2020-12-06T07:54:46.300000+00:00</time>
      </trkpt>
      <trkpt lat="0" lon="0">
        <time>2020-12-06T07:54:46.306000+00:00</time>
      </trkpt>
      <trkpt lat="47.26127" lon="-1.42188">
        <ele>5</ele>
        <time>2020-12-06T07:54:47.168000+00:00</time>
      </trkpt>
      <trkpt lat="0" lon="0">
        <time>2020-12-06T07:54:47.176000+00:00</time>
      </trkpt>
      <trkpt lat="0" lon="0">
        <time>2020-12-06T07:54:47.179000+00:00</time>
      </trkpt>
      <trkpt lat="0" lon="0">
        <time>2020-12-06T07:54:47.181000+00:00</time>
      </trkpt>
      <trkpt lat="47.26131" lon="-1.42181">
        <ele>5</ele>
        <time>2020-12-06T07:54:48.231000+00:00</time>
      </trkpt>
      <trkpt lat="0" lon="0">
        <time>2020-12-06T07:54:48.242000+00:00</time>
      </trkpt>
      <trkpt lat="0" lon="0">
        <time>2020-12-06T07:54:48.249000+00:00</time>
      </trkpt>
      <trkpt lat="0" lon="0">
        <time>2020-12-06T07:54:48.255000+00:00</time>
      </trkpt>
      <trkpt lat="47.26136" lon="-1.42175">
        <ele>5</ele>
        <time>2020-12-06T07:54:49.258000+00:00</time>
      </trkpt>
      <trkpt lat="0" lon="0">
        <time>2020-12-06T07:54:49.260000+00:00</time>
      </trkpt>
      <trkpt lat="0" lon="0">
        <time>2020-12-06T07:54:49.262000+00:00</time>
      </trkpt>
      <trkpt lat="0" lon="0">
        <time>2020-12-06T07:54:49.263000+00:00</time>
      </trkpt>
      <trkpt lat="47.2614" lon="-1.42168">
        <ele>5</ele>
        <time>2020-12-06T07:54:50.254000+00:00</time>
      </trkpt>
      <trkpt lat="0" lon="0">
        <time>2020-12-06T07:54:50.262000+00:00</time>
      </trkpt>
      <trkpt lat="0" lon="0">
        <time>2020-12-06T07:54:50.266000+00:00</time>
      </trkpt>
      <trkpt lat="0" lon="0">
        <time>2020-12-06T07:54:50.269000+00:00</time>
      </trkpt>
      <trkpt lat="47.26145" lon="-1.42162">
        <ele>5</ele>
        <time>2020-12-06T07:54:51.247000+00:00</time>
      </trkpt>
      <trkpt lat="0" lon="0">
        <time>2020-12-06T07:54:51.252000+00:00</time>
      </trkpt>
      <trkpt lat="0" lon="0">
        <time>2020-12-06T07:54:51.254000+00:00</time>
      </trkpt>
      <trkpt lat="0" lon="0">
        <time>2020-12-06T07:54:51.255000+00:00</time>
      </trkpt>
      <trkpt lat="47.26149" lon="-1.42155">
        <ele>5</ele>
        <time>2020-12-06T07:54:52.263000+00:00</time>
      </trkpt>
      <trkpt lat="0" lon="0">
        <time>2020-12-06T07:54:52.269000+00:00</time>
      </trkpt>
      <trkpt lat="0" lon="0">
        <time>2020-12-06T07:54:52.279000+00:00</time>
      </trkpt>
      <trkpt lat="0" lon="0">
        <time>2020-12-06T07:54:52.281000+00:00</time>
      </trkpt>
      <trkpt lat="47.26153" lon="-1.42148">
        <ele>5</ele>
        <time>2020-12-06T07:54:53.234000+00:00</time>
      </trkpt>
      <trkpt lat="0" lon="0">
        <time>2020-12-06T07:54:53.251000+00:00</time>
      </trkpt>
      <trkpt lat="0" lon="0">
        <time>2020-12-06T07:54:53.253000+00:00</time>
      </trkpt>
      <trkpt lat="0" lon="0">
        <time>2020-12-06T07:54:53.254000+00:00</time>
      </trkpt>
      <trkpt lat="47.26157" lon="-1.42141">
        <ele>5</ele>
        <time>2020-12-06T07:54:54.239000+00:00</time>
      </trkpt>
      <trkpt lat="0" lon="0">
        <time>2020-12-06T07:54:54.261000+00:00</time>
      </trkpt>
      <trkpt lat="0" lon="0">
        <time>2020-12-06T07:54:54.265000+00:00</time>
      </trkpt>
      <trkpt lat="0" lon="0">
        <time>2020-12-06T07:54:54.269000+00:00</time>
      </trkpt>
      <trkpt lat="47.26161" lon="-1.42134">
        <ele>5</ele>
        <time>2020-12-06T07:54:55.240000+00:00</time>
      </trkpt>
      <trkpt lat="0" lon="0">
        <time>2020-12-06T07:54:55.253000+00:00</time>
      </trkpt>
      <trkpt lat="0" lon="0">
        <time>2020-12-06T07:54:55.256000+00:00</time>
      </trkpt>
      <trkpt lat="0" lon="0">
        <time>2020-12-06T07:54:55.258000+00:00</time>
      </trkpt>
      <trkpt lat="47.26164" lon="-1.42128">
        <ele>5</ele>
        <time>2020-12-06T07:54:56.218000+00:00</time>
      </trkpt>
      <trkpt lat="0" lon="0">
        <time>2020-12-06T07:54:56.223000+00:00</time>
      </trkpt>
      <trkpt lat="0" lon="0">
        <time>2020-12-06T07:54:56.230000+00:00</time>
      </trkpt>
      <trkpt lat="0" lon="0">
        <time>2020-12-06T07:54:56.231000+00:00</time>
      </trkpt>
      <trkpt lat="47.26167" lon="-1.42122">
        <ele>5</ele>
        <time>2020-12-06T07:54:57.240000+00:00</time>
      </trkpt>
      <trkpt lat="0" lon="0">
        <time>2020-12-06T07:54:57.251000+00:00</time>
      </trkpt>
      <trkpt lat="0" lon="0">
        <time>2020-12-06T07:54:57.259000+00:00</time>
      </trkpt>
      <trkpt lat="0" lon="0">
        <time>2020-12-06T07:54:57.262000+00:00</time>
      </trkpt>
      <trkpt lat="47.2617" lon="-1.42116">
        <ele>5</ele>
        <time>2020-12-06T07:54:58.255000+00:00</time>
      </trkpt>
      <trkpt lat="0" lon="0">
        <time>2020-12-06T07:54:58.264000+00:00</time>
      </trkpt>
      <trkpt lat="0" lon="0">
        <time>2020-12-06T07:54:58.271000+00:00</time>
      </trkpt>
      <trkpt lat="0" lon="0">
        <time>2020-12-06T07:54:58.273000+00:00</time>
      </trkpt>
      <trkpt lat="47.26173" lon="-1.4211">
        <ele>5</ele>
        <time>2020-12-06T07:54:59.273000+00:00</time>
      </trkpt>
      <trkpt lat="0" lon="0">
        <time>2020-12-06T07:54:59.278000+00:00</time>
      </trkpt>
      <trkpt lat="0" lon="0">
        <time>2020-12-06T07:54:59.282000+00:00</time>
      </trkpt>
      <trkpt lat="0" lon="0">
        <time>2020-12-06T07:54:59.285000+00:00</time>
      </trkpt>
      <trkpt lat="47.26176" lon="-1.42105">
        <ele>5</ele>
        <time>2020-12-06T07:55:00.243000+00:00</time>
      </trkpt>
      <trkpt lat="0" lon="0">
        <time>2020-12-06T07:55:00.249000+00:00</time>
      </trkpt>
      <trkpt lat="0" lon="0">
        <time>2020-12-06T07:55:00.253000+00:00</time>
      </trkpt>
      <trkpt lat="0" lon="0">
        <time>2020-12-06T07:55:00.256000+00:00</time>
      </trkpt>
      <trkpt lat="47.26179" lon="-1.421">
        <ele>5</ele>
        <time>2020-12-06T07:55:01.297000+00:00</time>
      </trkpt>
      <trkpt lat="0" lon="0">
        <time>2020-12-06T07:55:01.303000+00:00</time>
      </trkpt>
      <trkpt lat="0" lon="0">
        <time>2020-12-06T07:55:01.321000+00:00</time>
      </trkpt>
      <trkpt lat="0" lon="0">
        <time>2020-12-06T07:55:01.322000+00:00</time>
      </trkpt>
      <trkpt lat="47.26182" lon="-1.42094">
        <ele>5</ele>
        <time>2020-12-06T07:55:02.285000+00:00</time>
      </trkpt>
      <trkpt lat="0" lon="0">
        <time>2020-12-06T07:55:02.298000+00:00</time>
      </trkpt>
      <trkpt lat="0" lon="0">
        <time>2020-12-06T07:55:02.305000+00:00</time>
      </trkpt>
      <trkpt lat="0" lon="0">
        <time>2020-12-06T07:55:02.309000+00:00</time>
      </trkpt>
      <trkpt lat="47.26186" lon="-1.42088">
        <ele>5</ele>
        <time>2020-12-06T07:55:03.188000+00:00</time>
      </trkpt>
      <trkpt lat="0" lon="0">
        <time>2020-12-06T07:55:03.195000+00:00</time>
      </trkpt>
      <trkpt lat="0" lon="0">
        <time>2020-12-06T07:55:03.199000+00:00</time>
      </trkpt>
      <trkpt lat="0" lon="0">
        <time>2020-12-06T07:55:03.211000+00:00</time>
      </trkpt>
      <trkpt lat="47.26189" lon="-1.42083">
        <ele>6</ele>
        <time>2020-12-06T07:55:04.256000+00:00</time>
      </trkpt>
      <trkpt lat="0" lon="0">
        <time>2020-12-06T07:55:04.275000+00:00</time>
      </trkpt>
      <trkpt lat="0" lon="0">
        <time>2020-12-06T07:55:04.280000+00:00</time>
      </trkpt>
      <trkpt lat="0" lon="0">
        <time>2020-12-06T07:55:04.282000+00:00</time>
      </trkpt>
      <trkpt lat="47.26193" lon="-1.42077">
        <ele>6</ele>
        <time>2020-12-06T07:55:05.262000+00:00</time>
      </trkpt>
      <trkpt lat="0" lon="0">
        <time>2020-12-06T07:55:05.268000+00:00</time>
      </trkpt>
      <trkpt lat="0" lon="0">
        <time>2020-12-06T07:55:05.272000+00:00</time>
      </trkpt>
      <trkpt lat="0" lon="0">
        <time>2020-12-06T07:55:05.274000+00:00</time>
      </trkpt>
      <trkpt lat="47.26196" lon="-1.42072">
        <ele>6</ele>
        <time>2020-12-06T07:55:06.175000+00:00</time>
      </trkpt>
      <trkpt lat="0" lon="0">
        <time>2020-12-06T07:55:06.181000+00:00</time>
      </trkpt>
      <trkpt lat="0" lon="0">
        <time>2020-12-06T07:55:06.184000+00:00</time>
      </trkpt>
      <trkpt lat="0" lon="0">
        <time>2020-12-06T07:55:06.186000+00:00</time>
      </trkpt>
      <trkpt lat="47.262" lon="-1.42068">
        <ele>6</ele>
        <time>2020-12-06T07:55:07.228000+00:00</time>
      </trkpt>
      <trkpt lat="0" lon="0">
        <time>2020-12-06T07:55:07.234000+00:00</time>
      </trkpt>
      <trkpt lat="0" lon="0">
        <time>2020-12-06T07:55:07.238000+00:00</time>
      </trkpt>
      <trkpt lat="0" lon="0">
        <time>2020-12-06T07:55:07.241000+00:00</time>
      </trkpt>
      <trkpt lat="47.26204" lon="-1.42064">
        <ele>6</ele>
        <time>2020-12-06T07:55:08.229000+00:00</time>
      </trkpt>
      <trkpt lat="0" lon="0">
        <time>2020-12-06T07:55:08.233000+00:00</time>
      </trkpt>
      <trkpt lat="0" lon="0">
        <time>2020-12-06T07:55:08.235000+00:00</time>
      </trkpt>
      <trkpt lat="0" lon="0">
        <time>2020-12-06T07:55:08.236000+00:00</time>
      </trkpt>
      <trkpt lat="47.26208" lon="-1.42061">
        <ele>6</ele>
        <time>2020-12-06T07:55:09.279000+00:00</time>
      </trkpt>
      <trkpt lat="0" lon="0">
        <time>2020-12-06T07:55:09.287000+00:00</time>
      </trkpt>
      <trkpt lat="0" lon="0">
        <time>2020-12-06T07:55:09.299000+00:00</time>
      </trkpt>
      <trkpt lat="0" lon="0">
        <time>2020-12-06T07:55:09.307000+00:00</time>
      </trkpt>
      <trkpt lat="47.26212" lon="-1.42057">
        <ele>6</ele>
        <time>2020-12-06T07:55:10.249000+00:00</time>
      </trkpt>
      <trkpt lat="0" lon="0">
        <time>2020-12-06T07:55:10.258000+00:00</time>
      </trkpt>
      <trkpt lat="0" lon="0">
        <time>2020-12-06T07:55:10.261000+00:00</time>
      </trkpt>
      <trkpt lat="0" lon="0">
        <time>2020-12-06T07:55:10.263000+00:00</time>
      </trkpt>
      <trkpt lat="47.26216" lon="-1.42052">
        <ele>6</ele>
        <time>2020-12-06T07:55:11.242000+00:00</time>
      </trkpt>
      <trkpt lat="0" lon="0">
        <time>2020-12-06T07:55:11.248000+00:00</time>
      </trkpt>
      <trkpt lat="0" lon="0">
        <time>2020-12-06T07:55:11.252000+00:00</time>
      </trkpt>
      <trkpt lat="0" lon="0">
        <time>2020-12-06T07:55:11.254000+00:00</time>
      </trkpt>
      <trkpt lat="47.2622" lon="-1.42046">
        <ele>6</ele>
        <time>2020-12-06T07:55:12.245000+00:00</time>
      </trkpt>
      <trkpt lat="0" lon="0">
        <time>2020-12-06T07:55:12.257000+00:00</time>
      </trkpt>
      <trkpt lat="0" lon="0">
        <time>2020-12-06T07:55:12.261000+00:00</time>
      </trkpt>
      <trkpt lat="0" lon="0">
        <time>2020-12-06T07:55:12.263000+00:00</time>
      </trkpt>
      <trkpt lat="47.26224" lon="-1.4204">
        <ele>6</ele>
        <time>2020-12-06T07:55:13.263000+00:00</time>
      </trkpt>
      <trkpt lat="0" lon="0">
        <time>2020-12-06T07:55:13.272000+00:00</time>
      </trkpt>
      <trkpt lat="0" lon="0">
        <time>2020-12-06T07:55:13.275000+00:00</time>
      </trkpt>
      <trkpt lat="0" lon="0">
        <time>2020-12-06T07:55:13.277000+00:00</time>
      </trkpt>
      <trkpt lat="47.26227" lon="-1.42033">
        <ele>6</ele>
        <time>2020-12-06T07:55:14.287000+00:00</time>
      </trkpt>
      <trkpt lat="0" lon="0">
        <time>2020-12-06T07:55:14.296000+00:00</time>
      </trkpt>
      <trkpt lat="0" lon="0">
        <time>2020-12-06T07:55:14.303000+00:00</time>
      </trkpt>
      <trkpt lat="0" lon="0">
        <time>2020-12-06T07:55:14.308000+00:00</time>
      </trkpt>
      <trkpt lat="47.26231" lon="-1.42026">
        <ele>6</ele>
        <time>2020-12-06T07:55:15.249000+00:00</time>
      </trkpt>
      <trkpt lat="0" lon="0">
        <time>2020-12-06T07:55:15.258000+00:00</time>
      </trkpt>
      <trkpt lat="0" lon="0">
        <time>2020-12-06T07:55:15.263000+00:00</time>
      </trkpt>
      <trkpt lat="0" lon="0">
        <time>2020-12-06T07:55:15.266000+00:00</time>
      </trkpt>
      <trkpt lat="47.26234" lon="-1.42018">
        <ele>6</ele>
        <time>2020-12-06T07:55:16.270000+00:00</time>
      </trkpt>
      <trkpt lat="0" lon="0">
        <time>2020-12-06T07:55:16.280000+00:00</time>
      </trkpt>
      <trkpt lat="0" lon="0">
        <time>2020-12-06T07:55:16.286000+00:00</time>
      </trkpt>
      <trkpt lat="0" lon="0">
        <time>2020-12-06T07:55:16.288000+00:00</time>
      </trkpt>
      <trkpt lat="47.26238" lon="-1.4201">
        <ele>6</ele>
        <time>2020-12-06T07:55:17.234000+00:00</time>
      </trkpt>
      <trkpt lat="0" lon="0">
        <time>2020-12-06T07:55:17.255000+00:00</time>
      </trkpt>
      <trkpt lat="0" lon="0">
        <time>2020-12-06T07:55:17.264000+00:00</time>
      </trkpt>
      <trkpt lat="0" lon="0">
        <time>2020-12-06T07:55:17.266000+00:00</time>
      </trkpt>
      <trkpt lat="47.26241" lon="-1.42002">
        <ele>6</ele>
        <time>2020-12-06T07:55:18.297000+00:00</time>
      </trkpt>
      <trkpt lat="0" lon="0">
        <time>2020-12-06T07:55:18.310000+00:00</time>
      </trkpt>
      <trkpt lat="0" lon="0">
        <time>2020-12-06T07:55:18.317000+00:00</time>
      </trkpt>
      <trkpt lat="0" lon="0">
        <time>2020-12-06T07:55:18.321000+00:00</time>
      </trkpt>
      <trkpt lat="47.26245" lon="-1.41994">
        <ele>6</ele>
        <time>2020-12-06T07:55:19.248000+00:00</time>
      </trkpt>
      <trkpt lat="0" lon="0">
        <time>2020-12-06T07:55:19.259000+00:00</time>
      </trkpt>
      <trkpt lat="0" lon="0">
        <time>2020-12-06T07:55:19.264000+00:00</time>
      </trkpt>
      <trkpt lat="0" lon="0">
        <time>2020-12-06T07:55:19.266000+00:00</time>
      </trkpt>
      <trkpt lat="47.26249" lon="-1.41986">
        <ele>6</ele>
        <time>2020-12-06T07:55:20.193000+00:00</time>
      </trkpt>
      <trkpt lat="0" lon="0">
        <time>2020-12-06T07:55:20.207000+00:00</time>
      </trkpt>
      <trkpt lat="0" lon="0">
        <time>2020-12-06T07:55:20.210000+00:00</time>
      </trkpt>
      <trkpt lat="0" lon="0">
        <time>2020-12-06T07:55:20.216000+00:00</time>
      </trkpt>
      <trkpt lat="47.26253" lon="-1.41978">
        <ele>6</ele>
        <time>2020-12-06T07:55:21.234000+00:00</time>
      </trkpt>
      <trkpt lat="0" lon="0">
        <time>2020-12-06T07:55:21.246000+00:00</time>
      </trkpt>
      <trkpt lat="0" lon="0">
        <time>2020-12-06T07:55:21.250000+00:00</time>
      </trkpt>
      <trkpt lat="0" lon="0">
        <time>2020-12-06T07:55:21.253000+00:00</time>
      </trkpt>
      <trkpt lat="47.26257" lon="-1.4197">
        <ele>6</ele>
        <time>2020-12-06T07:55:22.231000+00:00</time>
      </trkpt>
      <trkpt lat="0" lon="0">
        <time>2020-12-06T07:55:22.237000+00:00</time>
      </trkpt>
      <trkpt lat="0" lon="0">
        <time>2020-12-06T07:55:22.247000+00:00</time>
      </trkpt>
      <trkpt lat="0" lon="0">
        <time>2020-12-06T07:55:22.253000+00:00</time>
      </trkpt>
      <trkpt lat="47.26261" lon="-1.41963">
        <ele>6</ele>
        <time>2020-12-06T07:55:23.262000+00:00</time>
      </trkpt>
      <trkpt lat="0" lon="0">
        <time>2020-12-06T07:55:23.265000+00:00</time>
      </trkpt>
      <trkpt lat="0" lon="0">
        <time>2020-12-06T07:55:23.271000+00:00</time>
      </trkpt>
      <trkpt lat="0" lon="0">
        <time>2020-12-06T07:55:23.273000+00:00</time>
      </trkpt>
      <trkpt lat="47.26266" lon="-1.41955">
        <ele>6</ele>
        <time>2020-12-06T07:55:24.285000+00:00</time>
      </trkpt>
      <trkpt lat="0" lon="0">
        <time>2020-12-06T07:55:24.294000+00:00</time>
      </trkpt>
      <trkpt lat="0" lon="0">
        <time>2020-12-06T07:55:24.298000+00:00</time>
      </trkpt>
      <trkpt lat="0" lon="0">
        <time>2020-12-06T07:55:24.300000+00:00</time>
      </trkpt>
      <trkpt lat="47.2627" lon="-1.41948">
        <ele>6</ele>
        <time>2020-12-06T07:55:25.229000+00:00</time>
      </trkpt>
      <trkpt lat="0" lon="0">
        <time>2020-12-06T07:55:25.248000+00:00</time>
      </trkpt>
      <trkpt lat="0" lon="0">
        <time>2020-12-06T07:55:25.250000+00:00</time>
      </trkpt>
      <trkpt lat="0" lon="0">
        <time>2020-12-06T07:55:25.251000+00:00</time>
      </trkpt>
      <trkpt lat="47.26274" lon="-1.4194">
        <ele>6</ele>
        <time>2020-12-06T07:55:26.229000+00:00</time>
      </trkpt>
      <trkpt lat="0" lon="0">
        <time>2020-12-06T07:55:26.239000+00:00</time>
      </trkpt>
      <trkpt lat="0" lon="0">
        <time>2020-12-06T07:55:26.242000+00:00</time>
      </trkpt>
      <trkpt lat="0" lon="0">
        <time>2020-12-06T07:55:26.245000+00:00</time>
      </trkpt>
      <trkpt lat="47.26278" lon="-1.41932">
        <ele>6</ele>
        <time>2020-12-06T07:55:27.298000+00:00</time>
      </trkpt>
      <trkpt lat="0" lon="0">
        <time>2020-12-06T07:55:27.315000+00:00</time>
      </trkpt>
      <trkpt lat="0" lon="0">
        <time>2020-12-06T07:55:27.322000+00:00</time>
      </trkpt>
      <trkpt lat="0" lon="0">
        <time>2020-12-06T07:55:27.324000+00:00</time>
      </trkpt>
      <trkpt lat="47.26283" lon="-1.41925">
        <ele>6</ele>
        <time>2020-12-06T07:55:28.267000+00:00</time>
      </trkpt>
      <trkpt lat="0" lon="0">
        <time>2020-12-06T07:55:28.276000+00:00</time>
      </trkpt>
      <trkpt lat="0" lon="0">
        <time>2020-12-06T07:55:28.285000+00:00</time>
      </trkpt>
      <trkpt lat="0" lon="0">
        <time>2020-12-06T07:55:28.286000+00:00</time>
      </trkpt>
      <trkpt lat="47.26287" lon="-1.41917">
        <ele>6</ele>
        <time>2020-12-06T07:55:29.241000+00:00</time>
      </trkpt>
      <trkpt lat="0" lon="0">
        <time>2020-12-06T07:55:29.252000+00:00</time>
      </trkpt>
      <trkpt lat="0" lon="0">
        <time>2020-12-06T07:55:29.253000+00:00</time>
      </trkpt>
      <trkpt lat="0" lon="0">
        <time>2020-12-06T07:55:29.254000+00:00</time>
      </trkpt>
      <trkpt lat="47.26291" lon="-1.4191">
        <ele>6</ele>
        <time>2020-12-06T07:55:30.272000+00:00</time>
      </trkpt>
      <trkpt lat="0" lon="0">
        <time>2020-12-06T07:55:30.279000+00:00</time>
      </trkpt>
      <trkpt lat="0" lon="0">
        <time>2020-12-06T07:55:30.293000+00:00</time>
      </trkpt>
      <trkpt lat="0" lon="0">
        <time>2020-12-06T07:55:30.301000+00:00</time>
      </trkpt>
      <trkpt lat="47.26296" lon="-1.41903">
        <ele>6</ele>
        <time>2020-12-06T07:55:31.274000+00:00</time>
      </trkpt>
      <trkpt lat="0" lon="0">
        <time>2020-12-06T07:55:31.288000+00:00</time>
      </trkpt>
      <trkpt lat="0" lon="0">
        <time>2020-12-06T07:55:31.295000+00:00</time>
      </trkpt>
      <trkpt lat="0" lon="0">
        <time>2020-12-06T07:55:31.296000+00:00</time>
      </trkpt>
      <trkpt lat="47.263" lon="-1.41896">
        <ele>6</ele>
        <time>2020-12-06T07:55:32.237000+00:00</time>
      </trkpt>
      <trkpt lat="0" lon="0">
        <time>2020-12-06T07:55:32.245000+00:00</time>
      </trkpt>
      <trkpt lat="0" lon="0">
        <time>2020-12-06T07:55:32.254000+00:00</time>
      </trkpt>
      <trkpt lat="0" lon="0">
        <time>2020-12-06T07:55:32.258000+00:00</time>
      </trkpt>
      <trkpt lat="47.26304" lon="-1.41889">
        <ele>6</ele>
        <time>2020-12-06T07:55:33.268000+00:00</time>
      </trkpt>
      <trkpt lat="0" lon="0">
        <time>2020-12-06T07:55:33.277000+00:00</time>
      </trkpt>
      <trkpt lat="0" lon="0">
        <time>2020-12-06T07:55:33.281000+00:00</time>
      </trkpt>
      <trkpt lat="0" lon="0">
        <time>2020-12-06T07:55:33.282000+00:00</time>
      </trkpt>
      <trkpt lat="47.26308" lon="-1.41882">
        <ele>6</ele>
        <time>2020-12-06T07:55:34.255000+00:00</time>
      </trkpt>
      <trkpt lat="0" lon="0">
        <time>2020-12-06T07:55:34.274000+00:00</time>
      </trkpt>
      <trkpt lat="0" lon="0">
        <time>2020-12-06T07:55:34.281000+00:00</time>
      </trkpt>
      <trkpt lat="0" lon="0">
        <time>2020-12-06T07:55:34.284000+00:00</time>
      </trkpt>
      <trkpt lat="47.26312" lon="-1.41874">
        <ele>6</ele>
        <time>2020-12-06T07:55:35.254000+00:00</time>
      </trkpt>
      <trkpt lat="0" lon="0">
        <time>2020-12-06T07:55:35.260000+00:00</time>
      </trkpt>
      <trkpt lat="0" lon="0">
        <time>2020-12-06T07:55:35.266000+00:00</time>
      </trkpt>
      <trkpt lat="0" lon="0">
        <time>2020-12-06T07:55:35.268000+00:00</time>
      </trkpt>
      <trkpt lat="47.26316" lon="-1.41867">
        <ele>6</ele>
        <time>2020-12-06T07:55:36.254000+00:00</time>
      </trkpt>
      <trkpt lat="0" lon="0">
        <time>2020-12-06T07:55:36.268000+00:00</time>
      </trkpt>
      <trkpt lat="0" lon="0">
        <time>2020-12-06T07:55:36.272000+00:00</time>
      </trkpt>
      <trkpt lat="0" lon="0">
        <time>2020-12-06T07:55:36.279000+00:00</time>
      </trkpt>
      <trkpt lat="47.2632" lon="-1.4186">
        <ele>6</ele>
        <time>2020-12-06T07:55:37.264000+00:00</time>
      </trkpt>
      <trkpt lat="0" lon="0">
        <time>2020-12-06T07:55:37.275000+00:00</time>
      </trkpt>
      <trkpt lat="0" lon="0">
        <time>2020-12-06T07:55:37.280000+00:00</time>
      </trkpt>
      <trkpt lat="0" lon="0">
        <time>2020-12-06T07:55:37.281000+00:00</time>
      </trkpt>
      <trkpt lat="47.26324" lon="-1.41854">
        <ele>6</ele>
        <time>2020-12-06T07:55:38.278000+00:00</time>
      </trkpt>
      <trkpt lat="0" lon="0">
        <time>2020-12-06T07:55:38.290000+00:00</time>
      </trkpt>
      <trkpt lat="0" lon="0">
        <time>2020-12-06T07:55:38.293000+00:00</time>
      </trkpt>
      <trkpt lat="0" lon="0">
        <time>2020-12-06T07:55:38.295000+00:00</time>
      </trkpt>
      <trkpt lat="47.26329" lon="-1.41847">
        <ele>6</ele>
        <time>2020-12-06T07:55:39.260000+00:00</time>
      </trkpt>
      <trkpt lat="0" lon="0">
        <time>2020-12-06T07:55:39.277000+00:00</time>
      </trkpt>
      <trkpt lat="0" lon="0">
        <time>2020-12-06T07:55:39.285000+00:00</time>
      </trkpt>
      <trkpt lat="0" lon="0">
        <time>2020-12-06T07:55:39.287000+00:00</time>
      </trkpt>
      <trkpt lat="47.26333" lon="-1.4184">
        <ele>6</ele>
        <time>2020-12-06T07:55:40.244000+00:00</time>
      </trkpt>
      <trkpt lat="0" lon="0">
        <time>2020-12-06T07:55:40.250000+00:00</time>
      </trkpt>
      <trkpt lat="0" lon="0">
        <time>2020-12-06T07:55:40.262000+00:00</time>
      </trkpt>
      <trkpt lat="0" lon="0">
        <time>2020-12-06T07:55:40.264000+00:00</time>
      </trkpt>
      <trkpt lat="47.26337" lon="-1.41833">
        <ele>5</ele>
        <time>2020-12-06T07:55:41.256000+00:00</time>
      </trkpt>
      <trkpt lat="0" lon="0">
        <time>2020-12-06T07:55:41.266000+00:00</time>
      </trkpt>
      <trkpt lat="0" lon="0">
        <time>2020-12-06T07:55:41.270000+00:00</time>
      </trkpt>
      <trkpt lat="0" lon="0">
        <time>2020-12-06T07:55:41.275000+00:00</time>
      </trkpt>
      <trkpt lat="47.2634" lon="-1.41826">
        <ele>5</ele>
        <time>2020-12-06T07:55:42.238000+00:00</time>
      </trkpt>
      <trkpt lat="0" lon="0">
        <time>2020-12-06T07:55:42.245000+00:00</time>
      </trkpt>
      <trkpt lat="0" lon="0">
        <time>2020-12-06T07:55:42.247000+00:00</time>
      </trkpt>
      <trkpt lat="0" lon="0">
        <time>2020-12-06T07:55:42.249000+00:00</time>
      </trkpt>
      <trkpt lat="47.26344" lon="-1.4182">
        <ele>5</ele>
        <time>2020-12-06T07:55:43.237000+00:00</time>
      </trkpt>
      <trkpt lat="0" lon="0">
        <time>2020-12-06T07:55:43.244000+00:00</time>
      </trkpt>
      <trkpt lat="0" lon="0">
        <time>2020-12-06T07:55:43.249000+00:00</time>
      </trkpt>
      <trkpt lat="0" lon="0">
        <time>2020-12-06T07:55:43.252000+00:00</time>
      </trkpt>
      <trkpt lat="47.26348" lon="-1.41813">
        <ele>5</ele>
        <time>2020-12-06T07:55:44.277000+00:00</time>
      </trkpt>
      <trkpt lat="0" lon="0">
        <time>2020-12-06T07:55:44.281000+00:00</time>
      </trkpt>
      <trkpt lat="0" lon="0">
        <time>2020-12-06T07:55:44.290000+00:00</time>
      </trkpt>
      <trkpt lat="0" lon="0">
        <time>2020-12-06T07:55:44.292000+00:00</time>
      </trkpt>
      <trkpt lat="47.26352" lon="-1.41806">
        <ele>5</ele>
        <time>2020-12-06T07:55:45.268000+00:00</time>
      </trkpt>
      <trkpt lat="0" lon="0">
        <time>2020-12-06T07:55:45.272000+00:00</time>
      </trkpt>
      <trkpt lat="0" lon="0">
        <time>2020-12-06T07:55:45.275000+00:00</time>
      </trkpt>
      <trkpt lat="0" lon="0">
        <time>2020-12-06T07:55:45.277000+00:00</time>
      </trkpt>
      <trkpt lat="47.26356" lon="-1.41799">
        <ele>5</ele>
        <time>2020-12-06T07:55:46.231000+00:00</time>
      </trkpt>
      <trkpt lat="0" lon="0">
        <time>2020-12-06T07:55:46.239000+00:00</time>
      </trkpt>
      <trkpt lat="0" lon="0">
        <time>2020-12-06T07:55:46.249000+00:00</time>
      </trkpt>
      <trkpt lat="0" lon="0">
        <time>2020-12-06T07:55:46.251000+00:00</time>
      </trkpt>
      <trkpt lat="47.2636" lon="-1.41792">
        <ele>5</ele>
        <time>2020-12-06T07:55:47.218000+00:00</time>
      </trkpt>
      <trkpt lat="0" lon="0">
        <time>2020-12-06T07:55:47.223000+00:00</time>
      </trkpt>
      <trkpt lat="0" lon="0">
        <time>2020-12-06T07:55:47.235000+00:00</time>
      </trkpt>
      <trkpt lat="0" lon="0">
        <time>2020-12-06T07:55:47.237000+00:00</time>
      </trkpt>
      <trkpt lat="47.26364" lon="-1.41785">
        <ele>5</ele>
        <time>2020-12-06T07:55:48.258000+00:00</time>
      </trkpt>
      <trkpt lat="0" lon="0">
        <time>2020-12-06T07:55:48.269000+00:00</time>
      </trkpt>
      <trkpt lat="0" lon="0">
        <time>2020-12-06T07:55:48.273000+00:00</time>
      </trkpt>
      <trkpt lat="0" lon="0">
        <time>2020-12-06T07:55:48.276000+00:00</time>
      </trkpt>
      <trkpt lat="47.26369" lon="-1.41778">
        <ele>5</ele>
        <time>2020-12-06T07:55:49.241000+00:00</time>
      </trkpt>
      <trkpt lat="0" lon="0">
        <time>2020-12-06T07:55:49.252000+00:00</time>
      </trkpt>
      <trkpt lat="0" lon="0">
        <time>2020-12-06T07:55:49.257000+00:00</time>
      </trkpt>
      <trkpt lat="0" lon="0">
        <time>2020-12-06T07:55:49.266000+00:00</time>
      </trkpt>
      <trkpt lat="47.26373" lon="-1.41771">
        <ele>5</ele>
        <time>2020-12-06T07:55:50.229000+00:00</time>
      </trkpt>
      <trkpt lat="0" lon="0">
        <time>2020-12-06T07:55:50.235000+00:00</time>
      </trkpt>
      <trkpt lat="0" lon="0">
        <time>2020-12-06T07:55:50.239000+00:00</time>
      </trkpt>
      <trkpt lat="0" lon="0">
        <time>2020-12-06T07:55:50.243000+00:00</time>
      </trkpt>
      <trkpt lat="47.26377" lon="-1.41764">
        <ele>5</ele>
        <time>2020-12-06T07:55:51.247000+00:00</time>
      </trkpt>
      <trkpt lat="0" lon="0">
        <time>2020-12-06T07:55:51.250000+00:00</time>
      </trkpt>
      <trkpt lat="0" lon="0">
        <time>2020-12-06T07:55:51.256000+00:00</time>
      </trkpt>
      <trkpt lat="0" lon="0">
        <time>2020-12-06T07:55:51.258000+00:00</time>
      </trkpt>
      <trkpt lat="47.26381" lon="-1.41757">
        <ele>5</ele>
        <time>2020-12-06T07:55:52.245000+00:00</time>
      </trkpt>
      <trkpt lat="0" lon="0">
        <time>2020-12-06T07:55:52.252000+00:00</time>
      </trkpt>
      <trkpt lat="0" lon="0">
        <time>2020-12-06T07:55:52.259000+00:00</time>
      </trkpt>
      <trkpt lat="0" lon="0">
        <time>2020-12-06T07:55:52.265000+00:00</time>
      </trkpt>
      <trkpt lat="47.26386" lon="-1.4175">
        <ele>5</ele>
        <time>2020-12-06T07:55:53.279000+00:00</time>
      </trkpt>
      <trkpt lat="0" lon="0">
        <time>2020-12-06T07:55:53.285000+00:00</time>
      </trkpt>
      <trkpt lat="0" lon="0">
        <time>2020-12-06T07:55:53.289000+00:00</time>
      </trkpt>
      <trkpt lat="0" lon="0">
        <time>2020-12-06T07:55:53.291000+00:00</time>
      </trkpt>
      <trkpt lat="47.2639" lon="-1.41744">
        <ele>6</ele>
        <time>2020-12-06T07:55:54.185000+00:00</time>
      </trkpt>
      <trkpt lat="0" lon="0">
        <time>2020-12-06T07:55:54.190000+00:00</time>
      </trkpt>
      <trkpt lat="0" lon="0">
        <time>2020-12-06T07:55:54.197000+00:00</time>
      </trkpt>
      <trkpt lat="0" lon="0">
        <time>2020-12-06T07:55:54.199000+00:00</time>
      </trkpt>
      <trkpt lat="47.26394" lon="-1.41737">
        <ele>6</ele>
        <time>2020-12-06T07:55:55.262000+00:00</time>
      </trkpt>
      <trkpt lat="0" lon="0">
        <time>2020-12-06T07:55:55.279000+00:00</time>
      </trkpt>
      <trkpt lat="0" lon="0">
        <time>2020-12-06T07:55:55.282000+00:00</time>
      </trkpt>
      <trkpt lat="0" lon="0">
        <time>2020-12-06T07:55:55.284000+00:00</time>
      </trkpt>
      <trkpt lat="47.26398" lon="-1.4173">
        <ele>6</ele>
        <time>2020-12-06T07:55:56.242000+00:00</time>
      </trkpt>
      <trkpt lat="0" lon="0">
        <time>2020-12-06T07:55:56.246000+00:00</time>
      </trkpt>
      <trkpt lat="0" lon="0">
        <time>2020-12-06T07:55:56.256000+00:00</time>
      </trkpt>
      <trkpt lat="0" lon="0">
        <time>2020-12-06T07:55:56.258000+00:00</time>
      </trkpt>
      <trkpt lat="47.26402" lon="-1.41723">
        <ele>7</ele>
        <time>2020-12-06T07:55:57.231000+00:00</time>
      </trkpt>
      <trkpt lat="0" lon="0">
        <time>2020-12-06T07:55:57.250000+00:00</time>
      </trkpt>
      <trkpt lat="0" lon="0">
        <time>2020-12-06T07:55:57.261000+00:00</time>
      </trkpt>
      <trkpt lat="0" lon="0">
        <time>2020-12-06T07:55:57.262000+00:00</time>
      </trkpt>
      <trkpt lat="47.26406" lon="-1.41716">
        <ele>7</ele>
        <time>2020-12-06T07:55:58.230000+00:00</time>
      </trkpt>
      <trkpt lat="0" lon="0">
        <time>2020-12-06T07:55:58.234000+00:00</time>
      </trkpt>
      <trkpt lat="0" lon="0">
        <time>2020-12-06T07:55:58.241000+00:00</time>
      </trkpt>
      <trkpt lat="0" lon="0">
        <time>2020-12-06T07:55:58.243000+00:00</time>
      </trkpt>
      <trkpt lat="47.2641" lon="-1.4171">
        <ele>7</ele>
        <time>2020-12-06T07:55:59.265000+00:00</time>
      </trkpt>
      <trkpt lat="0" lon="0">
        <time>2020-12-06T07:55:59.279000+00:00</time>
      </trkpt>
      <trkpt lat="0" lon="0">
        <time>2020-12-06T07:55:59.283000+00:00</time>
      </trkpt>
      <trkpt lat="0" lon="0">
        <time>2020-12-06T07:55:59.285000+00:00</time>
      </trkpt>
      <trkpt lat="47.26413" lon="-1.41703">
        <ele>8</ele>
        <time>2020-12-06T07:56:00.268000+00:00</time>
      </trkpt>
      <trkpt lat="0" lon="0">
        <time>2020-12-06T07:56:00.272000+00:00</time>
      </trkpt>
      <trkpt lat="0" lon="0">
        <time>2020-12-06T07:56:00.276000+00:00</time>
      </trkpt>
      <trkpt lat="0" lon="0">
        <time>2020-12-06T07:56:00.279000+00:00</time>
      </trkpt>
      <trkpt lat="47.26417" lon="-1.41696">
        <ele>8</ele>
        <time>2020-12-06T07:56:01.217000+00:00</time>
      </trkpt>
      <trkpt lat="0" lon="0">
        <time>2020-12-06T07:56:01.229000+00:00</time>
      </trkpt>
      <trkpt lat="0" lon="0">
        <time>2020-12-06T07:56:01.231000+00:00</time>
      </trkpt>
      <trkpt lat="0" lon="0">
        <time>2020-12-06T07:56:01.235000+00:00</time>
      </trkpt>
      <trkpt lat="47.26421" lon="-1.41689">
        <ele>8</ele>
        <time>2020-12-06T07:56:02.262000+00:00</time>
      </trkpt>
      <trkpt lat="0" lon="0">
        <time>2020-12-06T07:56:02.277000+00:00</time>
      </trkpt>
      <trkpt lat="0" lon="0">
        <time>2020-12-06T07:56:02.281000+00:00</time>
      </trkpt>
      <trkpt lat="0" lon="0">
        <time>2020-12-06T07:56:02.283000+00:00</time>
      </trkpt>
      <trkpt lat="47.26425" lon="-1.41682">
        <ele>8</ele>
        <time>2020-12-06T07:56:03.285000+00:00</time>
      </trkpt>
      <trkpt lat="0" lon="0">
        <time>2020-12-06T07:56:03.295000+00:00</time>
      </trkpt>
      <trkpt lat="0" lon="0">
        <time>2020-12-06T07:56:03.299000+00:00</time>
      </trkpt>
      <trkpt lat="0" lon="0">
        <time>2020-12-06T07:56:03.301000+00:00</time>
      </trkpt>
      <trkpt lat="47.26429" lon="-1.41676">
        <ele>8</ele>
        <time>2020-12-06T07:56:04.235000+00:00</time>
      </trkpt>
      <trkpt lat="0" lon="0">
        <time>2020-12-06T07:56:04.256000+00:00</time>
      </trkpt>
      <trkpt lat="0" lon="0">
        <time>2020-12-06T07:56:04.262000+00:00</time>
      </trkpt>
      <trkpt lat="0" lon="0">
        <time>2020-12-06T07:56:04.268000+00:00</time>
      </trkpt>
      <trkpt lat="47.26433" lon="-1.41669">
        <ele>8</ele>
        <time>2020-12-06T07:56:05.205000+00:00</time>
      </trkpt>
      <trkpt lat="0" lon="0">
        <time>2020-12-06T07:56:05.214000+00:00</time>
      </trkpt>
      <trkpt lat="0" lon="0">
        <time>2020-12-06T07:56:05.215000+00:00</time>
      </trkpt>
      <trkpt lat="47.26437" lon="-1.41662">
        <ele>7</ele>
        <time>2020-12-06T07:56:06.261000+00:00</time>
      </trkpt>
      <trkpt lat="0" lon="0">
        <time>2020-12-06T07:56:06.279000+00:00</time>
      </trkpt>
      <trkpt lat="0" lon="0">
        <time>2020-12-06T07:56:06.289000+00:00</time>
      </trkpt>
      <trkpt lat="0" lon="0">
        <time>2020-12-06T07:56:06.291000+00:00</time>
      </trkpt>
      <trkpt lat="47.26441" lon="-1.41656">
        <ele>7</ele>
        <time>2020-12-06T07:56:07.239000+00:00</time>
      </trkpt>
      <trkpt lat="0" lon="0">
        <time>2020-12-06T07:56:07.254000+00:00</time>
      </trkpt>
      <trkpt lat="0" lon="0">
        <time>2020-12-06T07:56:07.255000+00:00</time>
      </trkpt>
      <trkpt lat="0" lon="0">
        <time>2020-12-06T07:56:07.256000+00:00</time>
      </trkpt>
      <trkpt lat="47.26444" lon="-1.41649">
        <ele>7</ele>
        <time>2020-12-06T07:56:08.251000+00:00</time>
      </trkpt>
      <trkpt lat="0" lon="0">
        <time>2020-12-06T07:56:08.265000+00:00</time>
      </trkpt>
      <trkpt lat="0" lon="0">
        <time>2020-12-06T07:56:08.276000+00:00</time>
      </trkpt>
      <trkpt lat="0" lon="0">
        <time>2020-12-06T07:56:08.279000+00:00</time>
      </trkpt>
      <trkpt lat="47.26448" lon="-1.41642">
        <ele>6</ele>
        <time>2020-12-06T07:56:09.259000+00:00</time>
      </trkpt>
      <trkpt lat="0" lon="0">
        <time>2020-12-06T07:56:09.281000+00:00</time>
      </trkpt>
      <trkpt lat="0" lon="0">
        <time>2020-12-06T07:56:09.286000+00:00</time>
      </trkpt>
      <trkpt lat="0" lon="0">
        <time>2020-12-06T07:56:09.291000+00:00</time>
      </trkpt>
      <trkpt lat="47.26452" lon="-1.41635">
        <ele>6</ele>
        <time>2020-12-06T07:56:10.273000+00:00</time>
      </trkpt>
      <trkpt lat="0" lon="0">
        <time>2020-12-06T07:56:10.283000+00:00</time>
      </trkpt>
      <trkpt lat="0" lon="0">
        <time>2020-12-06T07:56:10.287000+00:00</time>
      </trkpt>
      <trkpt lat="0" lon="0">
        <time>2020-12-06T07:56:10.289000+00:00</time>
      </trkpt>
      <trkpt lat="47.26456" lon="-1.41628">
        <ele>6</ele>
        <time>2020-12-06T07:56:11.241000+00:00</time>
      </trkpt>
      <trkpt lat="0" lon="0">
        <time>2020-12-06T07:56:11.243000+00:00</time>
      </trkpt>
      <trkpt lat="0" lon="0">
        <time>2020-12-06T07:56:11.244000+00:00</time>
      </trkpt>
      <trkpt lat="0" lon="0">
        <time>2020-12-06T07:56:11.245000+00:00</time>
      </trkpt>
      <trkpt lat="47.2646" lon="-1.41621">
        <ele>6</ele>
        <time>2020-12-06T07:56:12.268000+00:00</time>
      </trkpt>
      <trkpt lat="0" lon="0">
        <time>2020-12-06T07:56:12.279000+00:00</time>
      </trkpt>
      <trkpt lat="0" lon="0">
        <time>2020-12-06T07:56:12.286000+00:00</time>
      </trkpt>
      <trkpt lat="0" lon="0">
        <time>2020-12-06T07:56:12.289000+00:00</time>
      </trkpt>
      <trkpt lat="47.26464" lon="-1.41614">
        <ele>5</ele>
        <time>2020-12-06T07:56:13.239000+00:00</time>
      </trkpt>
      <trkpt lat="0" lon="0">
        <time>2020-12-06T07:56:13.242000+00:00</time>
      </trkpt>
      <trkpt lat="0" lon="0">
        <time>2020-12-06T07:56:13.248000+00:00</time>
      </trkpt>
      <trkpt lat="0" lon="0">
        <time>2020-12-06T07:56:13.251000+00:00</time>
      </trkpt>
      <trkpt lat="47.26468" lon="-1.41607">
        <ele>5</ele>
        <time>2020-12-06T07:56:14.215000+00:00</time>
      </trkpt>
      <trkpt lat="0" lon="0">
        <time>2020-12-06T07:56:14.226000+00:00</time>
      </trkpt>
      <trkpt lat="0" lon="0">
        <time>2020-12-06T07:56:14.230000+00:00</time>
      </trkpt>
      <trkpt lat="0" lon="0">
        <time>2020-12-06T07:56:14.232000+00:00</time>
      </trkpt>
      <trkpt lat="47.26472" lon="-1.416">
        <ele>5</ele>
        <time>2020-12-06T07:56:15.262000+00:00</time>
      </trkpt>
      <trkpt lat="0" lon="0">
        <time>2020-12-06T07:56:15.266000+00:00</time>
      </trkpt>
      <trkpt lat="0" lon="0">
        <time>2020-12-06T07:56:15.272000+00:00</time>
      </trkpt>
      <trkpt lat="0" lon="0">
        <time>2020-12-06T07:56:15.274000+00:00</time>
      </trkpt>
      <trkpt lat="47.26476" lon="-1.41593">
        <ele>5</ele>
        <time>2020-12-06T07:56:16.262000+00:00</time>
      </trkpt>
      <trkpt lat="0" lon="0">
        <time>2020-12-06T07:56:16.270000+00:00</time>
      </trkpt>
      <trkpt lat="0" lon="0">
        <time>2020-12-06T07:56:16.275000+00:00</time>
      </trkpt>
      <trkpt lat="0" lon="0">
        <time>2020-12-06T07:56:16.277000+00:00</time>
      </trkpt>
      <trkpt lat="47.2648" lon="-1.41586">
        <ele>5</ele>
        <time>2020-12-06T07:56:17.246000+00:00</time>
      </trkpt>
      <trkpt lat="0" lon="0">
        <time>2020-12-06T07:56:17.261000+00:00</time>
      </trkpt>
      <trkpt lat="0" lon="0">
        <time>2020-12-06T07:56:17.275000+00:00</time>
      </trkpt>
      <trkpt lat="47.26484" lon="-1.41579">
        <ele>5</ele>
        <time>2020-12-06T07:56:18.259000+00:00</time>
      </trkpt>
      <trkpt lat="0" lon="0">
        <time>2020-12-06T07:56:18.263000+00:00</time>
      </trkpt>
      <trkpt lat="0" lon="0">
        <time>2020-12-06T07:56:18.273000+00:00</time>
      </trkpt>
      <trkpt lat="0" lon="0">
        <time>2020-12-06T07:56:18.275000+00:00</time>
      </trkpt>
      <trkpt lat="47.26488" lon="-1.41573">
        <ele>5</ele>
        <time>2020-12-06T07:56:19.263000+00:00</time>
      </trkpt>
      <trkpt lat="0" lon="0">
        <time>2020-12-06T07:56:19.275000+00:00</time>
      </trkpt>
      <trkpt lat="0" lon="0">
        <time>2020-12-06T07:56:19.279000+00:00</time>
      </trkpt>
      <trkpt lat="0" lon="0">
        <time>2020-12-06T07:56:19.284000+00:00</time>
      </trkpt>
      <trkpt lat="47.26492" lon="-1.41566">
        <ele>5</ele>
        <time>2020-12-06T07:56:20.230000+00:00</time>
      </trkpt>
      <trkpt lat="0" lon="0">
        <time>2020-12-06T07:56:20.240000+00:00</time>
      </trkpt>
      <trkpt lat="0" lon="0">
        <time>2020-12-06T07:56:20.247000+00:00</time>
      </trkpt>
      <trkpt lat="0" lon="0">
        <time>2020-12-06T07:56:20.249000+00:00</time>
      </trkpt>
      <trkpt lat="47.26496" lon="-1.41559">
        <ele>5</ele>
        <time>2020-12-06T07:56:21.214000+00:00</time>
      </trkpt>
      <trkpt lat="0" lon="0">
        <time>2020-12-06T07:56:21.219000+00:00</time>
      </trkpt>
      <trkpt lat="0" lon="0">
        <time>2020-12-06T07:56:21.226000+00:00</time>
      </trkpt>
      <trkpt lat="0" lon="0">
        <time>2020-12-06T07:56:21.235000+00:00</time>
      </trkpt>
      <trkpt lat="47.265" lon="-1.41553">
        <ele>5</ele>
        <time>2020-12-06T07:56:22.257000+00:00</time>
      </trkpt>
      <trkpt lat="0" lon="0">
        <time>2020-12-06T07:56:22.263000+00:00</time>
      </trkpt>
      <trkpt lat="0" lon="0">
        <time>2020-12-06T07:56:22.267000+00:00</time>
      </trkpt>
      <trkpt lat="0" lon="0">
        <time>2020-12-06T07:56:22.272000+00:00</time>
      </trkpt>
      <trkpt lat="47.26504" lon="-1.41546">
        <ele>5</ele>
        <time>2020-12-06T07:56:23.281000+00:00</time>
      </trkpt>
      <trkpt lat="0" lon="0">
        <time>2020-12-06T07:56:23.285000+00:00</time>
      </trkpt>
      <trkpt lat="0" lon="0">
        <time>2020-12-06T07:56:23.286000+00:00</time>
      </trkpt>
      <trkpt lat="0" lon="0">
        <time>2020-12-06T07:56:23.287000+00:00</time>
      </trkpt>
      <trkpt lat="47.26508" lon="-1.41539">
        <ele>4</ele>
        <time>2020-12-06T07:56:24.249000+00:00</time>
      </trkpt>
      <trkpt lat="0" lon="0">
        <time>2020-12-06T07:56:24.267000+00:00</time>
      </trkpt>
      <trkpt lat="0" lon="0">
        <time>2020-12-06T07:56:24.279000+00:00</time>
      </trkpt>
      <trkpt lat="0" lon="0">
        <time>2020-12-06T07:56:24.281000+00:00</time>
      </trkpt>
      <trkpt lat="47.26512" lon="-1.41533">
        <ele>4</ele>
        <time>2020-12-06T07:56:25.256000+00:00</time>
      </trkpt>
      <trkpt lat="0" lon="0">
        <time>2020-12-06T07:56:25.269000+00:00</time>
      </trkpt>
      <trkpt lat="0" lon="0">
        <time>2020-12-06T07:56:25.285000+00:00</time>
      </trkpt>
      <trkpt lat="0" lon="0">
        <time>2020-12-06T07:56:25.286000+00:00</time>
      </trkpt>
      <trkpt lat="47.26516" lon="-1.41526">
        <ele>4</ele>
        <time>2020-12-06T07:56:26.238000+00:00</time>
      </trkpt>
      <trkpt lat="0" lon="0">
        <time>2020-12-06T07:56:26.253000+00:00</time>
      </trkpt>
      <trkpt lat="0" lon="0">
        <time>2020-12-06T07:56:26.255000+00:00</time>
      </trkpt>
      <trkpt lat="0" lon="0">
        <time>2020-12-06T07:56:26.256000+00:00</time>
      </trkpt>
      <trkpt lat="47.2652" lon="-1.41519">
        <ele>4</ele>
        <time>2020-12-06T07:56:27.261000+00:00</time>
      </trkpt>
      <trkpt lat="0" lon="0">
        <time>2020-12-06T07:56:27.274000+00:00</time>
      </trkpt>
      <trkpt lat="0" lon="0">
        <time>2020-12-06T07:56:27.278000+00:00</time>
      </trkpt>
      <trkpt lat="0" lon="0">
        <time>2020-12-06T07:56:27.281000+00:00</time>
      </trkpt>
      <trkpt lat="47.26524" lon="-1.41512">
        <ele>4</ele>
        <time>2020-12-06T07:56:28.218000+00:00</time>
      </trkpt>
      <trkpt lat="0" lon="0">
        <time>2020-12-06T07:56:28.227000+00:00</time>
      </trkpt>
      <trkpt lat="0" lon="0">
        <time>2020-12-06T07:56:28.234000+00:00</time>
      </trkpt>
      <trkpt lat="0" lon="0">
        <time>2020-12-06T07:56:28.237000+00:00</time>
      </trkpt>
      <trkpt lat="47.26528" lon="-1.41505">
        <ele>4</ele>
        <time>2020-12-06T07:56:29.205000+00:00</time>
      </trkpt>
      <trkpt lat="0" lon="0">
        <time>2020-12-06T07:56:29.213000+00:00</time>
      </trkpt>
      <trkpt lat="0" lon="0">
        <time>2020-12-06T07:56:29.215000+00:00</time>
      </trkpt>
      <trkpt lat="0" lon="0">
        <time>2020-12-06T07:56:29.216000+00:00</time>
      </trkpt>
      <trkpt lat="47.26533" lon="-1.41499">
        <ele>4</ele>
        <time>2020-12-06T07:56:30.223000+00:00</time>
      </trkpt>
      <trkpt lat="0" lon="0">
        <time>2020-12-06T07:56:30.226000+00:00</time>
      </trkpt>
      <trkpt lat="0" lon="0">
        <time>2020-12-06T07:56:30.232000+00:00</time>
      </trkpt>
      <trkpt lat="0" lon="0">
        <time>2020-12-06T07:56:30.234000+00:00</time>
      </trkpt>
      <trkpt lat="47.26537" lon="-1.41492">
        <ele>4</ele>
        <time>2020-12-06T07:56:31.278000+00:00</time>
      </trkpt>
      <trkpt lat="0" lon="0">
        <time>2020-12-06T07:56:31.288000+00:00</time>
      </trkpt>
      <trkpt lat="0" lon="0">
        <time>2020-12-06T07:56:31.295000+00:00</time>
      </trkpt>
      <trkpt lat="0" lon="0">
        <time>2020-12-06T07:56:31.298000+00:00</time>
      </trkpt>
      <trkpt lat="47.26541" lon="-1.41485">
        <ele>5</ele>
        <time>2020-12-06T07:56:32.279000+00:00</time>
      </trkpt>
      <trkpt lat="0" lon="0">
        <time>2020-12-06T07:56:32.303000+00:00</time>
      </trkpt>
      <trkpt lat="0" lon="0">
        <time>2020-12-06T07:56:32.316000+00:00</time>
      </trkpt>
      <trkpt lat="0" lon="0">
        <time>2020-12-06T07:56:32.321000+00:00</time>
      </trkpt>
      <trkpt lat="47.26545" lon="-1.41478">
        <ele>5</ele>
        <time>2020-12-06T07:56:33.262000+00:00</time>
      </trkpt>
      <trkpt lat="0" lon="0">
        <time>2020-12-06T07:56:33.280000+00:00</time>
      </trkpt>
      <trkpt lat="0" lon="0">
        <time>2020-12-06T07:56:33.283000+00:00</time>
      </trkpt>
      <trkpt lat="0" lon="0">
        <time>2020-12-06T07:56:33.285000+00:00</time>
      </trkpt>
      <trkpt lat="47.26549" lon="-1.41472">
        <ele>5</ele>
        <time>2020-12-06T07:56:34.198000+00:00</time>
      </trkpt>
      <trkpt lat="0" lon="0">
        <time>2020-12-06T07:56:34.201000+00:00</time>
      </trkpt>
      <trkpt lat="0" lon="0">
        <time>2020-12-06T07:56:34.216000+00:00</time>
      </trkpt>
      <trkpt lat="0" lon="0">
        <time>2020-12-06T07:56:34.218000+00:00</time>
      </trkpt>
      <trkpt lat="47.26553" lon="-1.41465">
        <ele>5</ele>
        <time>2020-12-06T07:56:35.189000+00:00</time>
      </trkpt>
      <trkpt lat="0" lon="0">
        <time>2020-12-06T07:56:35.190000+00:00</time>
      </trkpt>
      <trkpt lat="0" lon="0">
        <time>2020-12-06T07:56:35.192000+00:00</time>
      </trkpt>
      <trkpt lat="0" lon="0">
        <time>2020-12-06T07:56:35.193000+00:00</time>
      </trkpt>
      <trkpt lat="47.26558" lon="-1.41458">
        <ele>5</ele>
        <time>2020-12-06T07:56:36.260000+00:00</time>
      </trkpt>
      <trkpt lat="0" lon="0">
        <time>2020-12-06T07:56:36.270000+00:00</time>
      </trkpt>
      <trkpt lat="0" lon="0">
        <time>2020-12-06T07:56:36.289000+00:00</time>
      </trkpt>
      <trkpt lat="0" lon="0">
        <time>2020-12-06T07:56:36.294000+00:00</time>
      </trkpt>
      <trkpt lat="47.26562" lon="-1.41451">
        <ele>5</ele>
        <time>2020-12-06T07:56:37.224000+00:00</time>
      </trkpt>
      <trkpt lat="0" lon="0">
        <time>2020-12-06T07:56:37.227000+00:00</time>
      </trkpt>
      <trkpt lat="0" lon="0">
        <time>2020-12-06T07:56:37.232000+00:00</time>
      </trkpt>
      <trkpt lat="0" lon="0">
        <time>2020-12-06T07:56:37.237000+00:00</time>
      </trkpt>
      <trkpt lat="47.26566" lon="-1.41444">
        <ele>5</ele>
        <time>2020-12-06T07:56:38.237000+00:00</time>
      </trkpt>
      <trkpt lat="0" lon="0">
        <time>2020-12-06T07:56:38.240000+00:00</time>
      </trkpt>
      <trkpt lat="0" lon="0">
        <time>2020-12-06T07:56:38.258000+00:00</time>
      </trkpt>
      <trkpt lat="0" lon="0">
        <time>2020-12-06T07:56:38.263000+00:00</time>
      </trkpt>
      <trkpt lat="47.2657" lon="-1.41437">
        <ele>5</ele>
        <time>2020-12-06T07:56:39.231000+00:00</time>
      </trkpt>
      <trkpt lat="0" lon="0">
        <time>2020-12-06T07:56:39.239000+00:00</time>
      </trkpt>
      <trkpt lat="0" lon="0">
        <time>2020-12-06T07:56:39.242000+00:00</time>
      </trkpt>
      <trkpt lat="0" lon="0">
        <time>2020-12-06T07:56:39.243000+00:00</time>
      </trkpt>
      <trkpt lat="47.26573" lon="-1.4143">
        <ele>5</ele>
        <time>2020-12-06T07:56:40.225000+00:00</time>
      </trkpt>
      <trkpt lat="0" lon="0">
        <time>2020-12-06T07:56:40.245000+00:00</time>
      </trkpt>
      <trkpt lat="0" lon="0">
        <time>2020-12-06T07:56:40.249000+00:00</time>
      </trkpt>
      <trkpt lat="0" lon="0">
        <time>2020-12-06T07:56:40.252000+00:00</time>
      </trkpt>
      <trkpt lat="47.26577" lon="-1.41422">
        <ele>5</ele>
        <time>2020-12-06T07:56:41.248000+00:00</time>
      </trkpt>
      <trkpt lat="0" lon="0">
        <time>2020-12-06T07:56:41.251000+00:00</time>
      </trkpt>
      <trkpt lat="0" lon="0">
        <time>2020-12-06T07:56:41.262000+00:00</time>
      </trkpt>
      <trkpt lat="0" lon="0">
        <time>2020-12-06T07:56:41.266000+00:00</time>
      </trkpt>
      <trkpt lat="47.26581" lon="-1.41414">
        <ele>5</ele>
        <time>2020-12-06T07:56:42.280000+00:00</time>
      </trkpt>
      <trkpt lat="0" lon="0">
        <time>2020-12-06T07:56:42.283000+00:00</time>
      </trkpt>
      <trkpt lat="0" lon="0">
        <time>2020-12-06T07:56:42.287000+00:00</time>
      </trkpt>
      <trkpt lat="0" lon="0">
        <time>2020-12-06T07:56:42.289000+00:00</time>
      </trkpt>
      <trkpt lat="47.26584" lon="-1.41406">
        <ele>6</ele>
        <time>2020-12-06T07:56:43.296000+00:00</time>
      </trkpt>
      <trkpt lat="0" lon="0">
        <time>2020-12-06T07:56:43.305000+00:00</time>
      </trkpt>
      <trkpt lat="0" lon="0">
        <time>2020-12-06T07:56:43.308000+00:00</time>
      </trkpt>
      <trkpt lat="0" lon="0">
        <time>2020-12-06T07:56:43.310000+00:00</time>
      </trkpt>
      <trkpt lat="47.26588" lon="-1.41398">
        <ele>6</ele>
        <time>2020-12-06T07:56:44.229000+00:00</time>
      </trkpt>
      <trkpt lat="0" lon="0">
        <time>2020-12-06T07:56:44.242000+00:00</time>
      </trkpt>
      <trkpt lat="0" lon="0">
        <time>2020-12-06T07:56:44.244000+00:00</time>
      </trkpt>
      <trkpt lat="0" lon="0">
        <time>2020-12-06T07:56:44.245000+00:00</time>
      </trkpt>
      <trkpt lat="47.26591" lon="-1.4139">
        <ele>6</ele>
        <time>2020-12-06T07:56:45.245000+00:00</time>
      </trkpt>
      <trkpt lat="0" lon="0">
        <time>2020-12-06T07:56:45.253000+00:00</time>
      </trkpt>
      <trkpt lat="0" lon="0">
        <time>2020-12-06T07:56:45.257000+00:00</time>
      </trkpt>
      <trkpt lat="0" lon="0">
        <time>2020-12-06T07:56:45.259000+00:00</time>
      </trkpt>
      <trkpt lat="47.26595" lon="-1.41382">
        <ele>6</ele>
        <time>2020-12-06T07:56:46.269000+00:00</time>
      </trkpt>
      <trkpt lat="0" lon="0">
        <time>2020-12-06T07:56:46.276000+00:00</time>
      </trkpt>
      <trkpt lat="0" lon="0">
        <time>2020-12-06T07:56:46.278000+00:00</time>
      </trkpt>
      <trkpt lat="0" lon="0">
        <time>2020-12-06T07:56:46.279000+00:00</time>
      </trkpt>
      <trkpt lat="47.26598" lon="-1.41374">
        <ele>6</ele>
        <time>2020-12-06T07:56:47.253000+00:00</time>
      </trkpt>
      <trkpt lat="0" lon="0">
        <time>2020-12-06T07:56:47.257000+00:00</time>
      </trkpt>
      <trkpt lat="0" lon="0">
        <time>2020-12-06T07:56:47.264000+00:00</time>
      </trkpt>
      <trkpt lat="0" lon="0">
        <time>2020-12-06T07:56:47.267000+00:00</time>
      </trkpt>
      <trkpt lat="47.26601" lon="-1.41365">
        <ele>6</ele>
        <time>2020-12-06T07:56:48.292000+00:00</time>
      </trkpt>
      <trkpt lat="0" lon="0">
        <time>2020-12-06T07:56:48.307000+00:00</time>
      </trkpt>
      <trkpt lat="0" lon="0">
        <time>2020-12-06T07:56:48.312000+00:00</time>
      </trkpt>
      <trkpt lat="0" lon="0">
        <time>2020-12-06T07:56:48.314000+00:00</time>
      </trkpt>
      <trkpt lat="47.26604" lon="-1.41357">
        <ele>6</ele>
        <time>2020-12-06T07:56:49.281000+00:00</time>
      </trkpt>
      <trkpt lat="0" lon="0">
        <time>2020-12-06T07:56:49.285000+00:00</time>
      </trkpt>
      <trkpt lat="0" lon="0">
        <time>2020-12-06T07:56:49.294000+00:00</time>
      </trkpt>
      <trkpt lat="0" lon="0">
        <time>2020-12-06T07:56:49.298000+00:00</time>
      </trkpt>
      <trkpt lat="47.26607" lon="-1.41349">
        <ele>6</ele>
        <time>2020-12-06T07:56:50.298000+00:00</time>
      </trkpt>
      <trkpt lat="0" lon="0">
        <time>2020-12-06T07:56:50.307000+00:00</time>
      </trkpt>
      <trkpt lat="0" lon="0">
        <time>2020-12-06T07:56:50.312000+00:00</time>
      </trkpt>
      <trkpt lat="0" lon="0">
        <time>2020-12-06T07:56:50.314000+00:00</time>
      </trkpt>
      <trkpt lat="47.2661" lon="-1.4134">
        <ele>6</ele>
        <time>2020-12-06T07:56:51.280000+00:00</time>
      </trkpt>
      <trkpt lat="0" lon="0">
        <time>2020-12-06T07:56:51.287000+00:00</time>
      </trkpt>
      <trkpt lat="0" lon="0">
        <time>2020-12-06T07:56:51.292000+00:00</time>
      </trkpt>
      <trkpt lat="0" lon="0">
        <time>2020-12-06T07:56:51.297000+00:00</time>
      </trkpt>
      <trkpt lat="47.26613" lon="-1.41332">
        <ele>6</ele>
        <time>2020-12-06T07:56:52.270000+00:00</time>
      </trkpt>
      <trkpt lat="0" lon="0">
        <time>2020-12-06T07:56:52.272000+00:00</time>
      </trkpt>
      <trkpt lat="0" lon="0">
        <time>2020-12-06T07:56:52.273000+00:00</time>
      </trkpt>
      <trkpt lat="0" lon="0">
        <time>2020-12-06T07:56:52.274000+00:00</time>
      </trkpt>
      <trkpt lat="47.26616" lon="-1.41324">
        <ele>6</ele>
        <time>2020-12-06T07:56:53.248000+00:00</time>
      </trkpt>
      <trkpt lat="0" lon="0">
        <time>2020-12-06T07:56:53.271000+00:00</time>
      </trkpt>
      <trkpt lat="0" lon="0">
        <time>2020-12-06T07:56:53.276000+00:00</time>
      </trkpt>
      <trkpt lat="0" lon="0">
        <time>2020-12-06T07:56:53.282000+00:00</time>
      </trkpt>
      <trkpt lat="47.2662" lon="-1.41317">
        <ele>6</ele>
        <time>2020-12-06T07:56:54.254000+00:00</time>
      </trkpt>
      <trkpt lat="0" lon="0">
        <time>2020-12-06T07:56:54.264000+00:00</time>
      </trkpt>
      <trkpt lat="0" lon="0">
        <time>2020-12-06T07:56:54.268000+00:00</time>
      </trkpt>
      <trkpt lat="0" lon="0">
        <time>2020-12-06T07:56:54.272000+00:00</time>
      </trkpt>
      <trkpt lat="47.26623" lon="-1.41309">
        <ele>6</ele>
        <time>2020-12-06T07:56:55.280000+00:00</time>
      </trkpt>
      <trkpt lat="0" lon="0">
        <time>2020-12-06T07:56:55.288000+00:00</time>
      </trkpt>
      <trkpt lat="0" lon="0">
        <time>2020-12-06T07:56:55.293000+00:00</time>
      </trkpt>
      <trkpt lat="0" lon="0">
        <time>2020-12-06T07:56:55.297000+00:00</time>
      </trkpt>
      <trkpt lat="47.26627" lon="-1.41302">
        <ele>6</ele>
        <time>2020-12-06T07:56:56.258000+00:00</time>
      </trkpt>
      <trkpt lat="0" lon="0">
        <time>2020-12-06T07:56:56.271000+00:00</time>
      </trkpt>
      <trkpt lat="0" lon="0">
        <time>2020-12-06T07:56:56.278000+00:00</time>
      </trkpt>
      <trkpt lat="0" lon="0">
        <time>2020-12-06T07:56:56.280000+00:00</time>
      </trkpt>
      <trkpt lat="47.2663" lon="-1.41294">
        <ele>6</ele>
        <time>2020-12-06T07:56:57.275000+00:00</time>
      </trkpt>
      <trkpt lat="0" lon="0">
        <time>2020-12-06T07:56:57.281000+00:00</time>
      </trkpt>
      <trkpt lat="0" lon="0">
        <time>2020-12-06T07:56:57.285000+00:00</time>
      </trkpt>
      <trkpt lat="0" lon="0">
        <time>2020-12-06T07:56:57.287000+00:00</time>
      </trkpt>
      <trkpt lat="47.26634" lon="-1.41287">
        <ele>6</ele>
        <time>2020-12-06T07:56:58.241000+00:00</time>
      </trkpt>
      <trkpt lat="0" lon="0">
        <time>2020-12-06T07:56:58.245000+00:00</time>
      </trkpt>
      <trkpt lat="0" lon="0">
        <time>2020-12-06T07:56:58.248000+00:00</time>
      </trkpt>
      <trkpt lat="0" lon="0">
        <time>2020-12-06T07:56:58.251000+00:00</time>
      </trkpt>
      <trkpt lat="47.26638" lon="-1.41281">
        <ele>6</ele>
        <time>2020-12-06T07:56:59.256000+00:00</time>
      </trkpt>
      <trkpt lat="0" lon="0">
        <time>2020-12-06T07:56:59.263000+00:00</time>
      </trkpt>
      <trkpt lat="0" lon="0">
        <time>2020-12-06T07:56:59.265000+00:00</time>
      </trkpt>
      <trkpt lat="0" lon="0">
        <time>2020-12-06T07:56:59.267000+00:00</time>
      </trkpt>
      <trkpt lat="47.26642" lon="-1.41274">
        <ele>6</ele>
        <time>2020-12-06T07:57:00.243000+00:00</time>
      </trkpt>
      <trkpt lat="0" lon="0">
        <time>2020-12-06T07:57:00.246000+00:00</time>
      </trkpt>
      <trkpt lat="0" lon="0">
        <time>2020-12-06T07:57:00.250000+00:00</time>
      </trkpt>
      <trkpt lat="0" lon="0">
        <time>2020-12-06T07:57:00.258000+00:00</time>
      </trkpt>
      <trkpt lat="47.26647" lon="-1.41267">
        <ele>6</ele>
        <time>2020-12-06T07:57:01.293000+00:00</time>
      </trkpt>
      <trkpt lat="0" lon="0">
        <time>2020-12-06T07:57:01.301000+00:00</time>
      </trkpt>
      <trkpt lat="0" lon="0">
        <time>2020-12-06T07:57:01.304000+00:00</time>
      </trkpt>
      <trkpt lat="0" lon="0">
        <time>2020-12-06T07:57:01.307000+00:00</time>
      </trkpt>
      <trkpt lat="47.26651" lon="-1.41261">
        <ele>6</ele>
        <time>2020-12-06T07:57:02.264000+00:00</time>
      </trkpt>
      <trkpt lat="0" lon="0">
        <time>2020-12-06T07:57:02.276000+00:00</time>
      </trkpt>
      <trkpt lat="0" lon="0">
        <time>2020-12-06T07:57:02.283000+00:00</time>
      </trkpt>
      <trkpt lat="0" lon="0">
        <time>2020-12-06T07:57:02.286000+00:00</time>
      </trkpt>
      <trkpt lat="47.26655" lon="-1.41255">
        <ele>6</ele>
        <time>2020-12-06T07:57:03.251000+00:00</time>
      </trkpt>
      <trkpt lat="0" lon="0">
        <time>2020-12-06T07:57:03.256000+00:00</time>
      </trkpt>
      <trkpt lat="0" lon="0">
        <time>2020-12-06T07:57:03.265000+00:00</time>
      </trkpt>
      <trkpt lat="0" lon="0">
        <time>2020-12-06T07:57:03.276000+00:00</time>
      </trkpt>
      <trkpt lat="47.2666" lon="-1.41249">
        <ele>6</ele>
        <time>2020-12-06T07:57:04.222000+00:00</time>
      </trkpt>
      <trkpt lat="0" lon="0">
        <time>2020-12-06T07:57:04.223000+00:00</time>
      </trkpt>
      <trkpt lat="0" lon="0">
        <time>2020-12-06T07:57:04.224000+00:00</time>
      </trkpt>
      <trkpt lat="0" lon="0">
        <time>2020-12-06T07:57:04.225000+00:00</time>
      </trkpt>
      <trkpt lat="47.26664" lon="-1.41242">
        <ele>6</ele>
        <time>2020-12-06T07:57:05.197000+00:00</time>
      </trkpt>
      <trkpt lat="0" lon="0">
        <time>2020-12-06T07:57:05.202000+00:00</time>
      </trkpt>
      <trkpt lat="0" lon="0">
        <time>2020-12-06T07:57:05.213000+00:00</time>
      </trkpt>
      <trkpt lat="0" lon="0">
        <time>2020-12-06T07:57:05.215000+00:00</time>
      </trkpt>
      <trkpt lat="47.26669" lon="-1.41236">
        <ele>6</ele>
        <time>2020-12-06T07:57:06.232000+00:00</time>
      </trkpt>
      <trkpt lat="0" lon="0">
        <time>2020-12-06T07:57:06.233000+00:00</time>
      </trkpt>
      <trkpt lat="0" lon="0">
        <time>2020-12-06T07:57:06.235000+00:00</time>
      </trkpt>
      <trkpt lat="47.26673" lon="-1.41229">
        <ele>6</ele>
        <time>2020-12-06T07:57:07.147000+00:00</time>
      </trkpt>
      <trkpt lat="0" lon="0">
        <time>2020-12-06T07:57:07.155000+00:00</time>
      </trkpt>
      <trkpt lat="0" lon="0">
        <time>2020-12-06T07:57:07.161000+00:00</time>
      </trkpt>
      <trkpt lat="0" lon="0">
        <time>2020-12-06T07:57:07.163000+00:00</time>
      </trkpt>
      <trkpt lat="47.26678" lon="-1.41223">
        <ele>6</ele>
        <time>2020-12-06T07:57:08.227000+00:00</time>
      </trkpt>
      <trkpt lat="0" lon="0">
        <time>2020-12-06T07:57:08.237000+00:00</time>
      </trkpt>
      <trkpt lat="0" lon="0">
        <time>2020-12-06T07:57:08.247000+00:00</time>
      </trkpt>
      <trkpt lat="0" lon="0">
        <time>2020-12-06T07:57:08.251000+00:00</time>
      </trkpt>
      <trkpt lat="47.26683" lon="-1.41217">
        <ele>6</ele>
        <time>2020-12-06T07:57:09.255000+00:00</time>
      </trkpt>
      <trkpt lat="0" lon="0">
        <time>2020-12-06T07:57:09.260000+00:00</time>
      </trkpt>
      <trkpt lat="0" lon="0">
        <time>2020-12-06T07:57:09.279000+00:00</time>
      </trkpt>
      <trkpt lat="0" lon="0">
        <time>2020-12-06T07:57:09.281000+00:00</time>
      </trkpt>
      <trkpt lat="47.26687" lon="-1.41211">
        <ele>6</ele>
        <time>2020-12-06T07:57:10.250000+00:00</time>
      </trkpt>
      <trkpt lat="0" lon="0">
        <time>2020-12-06T07:57:10.267000+00:00</time>
      </trkpt>
      <trkpt lat="0" lon="0">
        <time>2020-12-06T07:57:10.275000+00:00</time>
      </trkpt>
      <trkpt lat="0" lon="0">
        <time>2020-12-06T07:57:10.281000+00:00</time>
      </trkpt>
      <trkpt lat="47.26692" lon="-1.41205">
        <ele>6</ele>
        <time>2020-12-06T07:57:11.262000+00:00</time>
      </trkpt>
      <trkpt lat="0" lon="0">
        <time>2020-12-06T07:57:11.275000+00:00</time>
      </trkpt>
      <trkpt lat="0" lon="0">
        <time>2020-12-06T07:57:11.279000+00:00</time>
      </trkpt>
      <trkpt lat="0" lon="0">
        <time>2020-12-06T07:57:11.282000+00:00</time>
      </trkpt>
      <trkpt lat="47.26697" lon="-1.41199">
        <ele>6</ele>
        <time>2020-12-06T07:57:12.276000+00:00</time>
      </trkpt>
      <trkpt lat="0" lon="0">
        <time>2020-12-06T07:57:12.283000+00:00</time>
      </trkpt>
      <trkpt lat="0" lon="0">
        <time>2020-12-06T07:57:12.294000+00:00</time>
      </trkpt>
      <trkpt lat="0" lon="0">
        <time>2020-12-06T07:57:12.298000+00:00</time>
      </trkpt>
      <trkpt lat="47.26702" lon="-1.41194">
        <ele>6</ele>
        <time>2020-12-06T07:57:13.252000+00:00</time>
      </trkpt>
      <trkpt lat="0" lon="0">
        <time>2020-12-06T07:57:13.270000+00:00</time>
      </trkpt>
      <trkpt lat="0" lon="0">
        <time>2020-12-06T07:57:13.275000+00:00</time>
      </trkpt>
      <trkpt lat="0" lon="0">
        <time>2020-12-06T07:57:13.278000+00:00</time>
      </trkpt>
      <trkpt lat="47.26707" lon="-1.41189">
        <ele>6</ele>
        <time>2020-12-06T07:57:14.247000+00:00</time>
      </trkpt>
      <trkpt lat="0" lon="0">
        <time>2020-12-06T07:57:14.263000+00:00</time>
      </trkpt>
      <trkpt lat="0" lon="0">
        <time>2020-12-06T07:57:14.273000+00:00</time>
      </trkpt>
      <trkpt lat="0" lon="0">
        <time>2020-12-06T07:57:14.275000+00:00</time>
      </trkpt>
      <trkpt lat="47.26712" lon="-1.41183">
        <ele>7</ele>
        <time>2020-12-06T07:57:15.233000+00:00</time>
      </trkpt>
      <trkpt lat="0" lon="0">
        <time>2020-12-06T07:57:15.243000+00:00</time>
      </trkpt>
      <trkpt lat="0" lon="0">
        <time>2020-12-06T07:57:15.245000+00:00</time>
      </trkpt>
      <trkpt lat="0" lon="0">
        <time>2020-12-06T07:57:15.246000+00:00</time>
      </trkpt>
      <trkpt lat="47.26717" lon="-1.41178">
        <ele>7</ele>
        <time>2020-12-06T07:57:16.232000+00:00</time>
      </trkpt>
      <trkpt lat="0" lon="0">
        <time>2020-12-06T07:57:16.237000+00:00</time>
      </trkpt>
      <trkpt lat="0" lon="0">
        <time>2020-12-06T07:57:16.241000+00:00</time>
      </trkpt>
      <trkpt lat="0" lon="0">
        <time>2020-12-06T07:57:16.245000+00:00</time>
      </trkpt>
      <trkpt lat="47.26721" lon="-1.41172">
        <ele>7</ele>
        <time>2020-12-06T07:57:17.241000+00:00</time>
      </trkpt>
      <trkpt lat="0" lon="0">
        <time>2020-12-06T07:57:17.243000+00:00</time>
      </trkpt>
      <trkpt lat="0" lon="0">
        <time>2020-12-06T07:57:17.247000+00:00</time>
      </trkpt>
      <trkpt lat="0" lon="0">
        <time>2020-12-06T07:57:17.249000+00:00</time>
      </trkpt>
      <trkpt lat="47.26726" lon="-1.41167">
        <ele>7</ele>
        <time>2020-12-06T07:57:18.225000+00:00</time>
      </trkpt>
      <trkpt lat="0" lon="0">
        <time>2020-12-06T07:57:18.232000+00:00</time>
      </trkpt>
      <trkpt lat="0" lon="0">
        <time>2020-12-06T07:57:18.234000+00:00</time>
      </trkpt>
      <trkpt lat="0" lon="0">
        <time>2020-12-06T07:57:18.235000+00:00</time>
      </trkpt>
      <trkpt lat="47.26731" lon="-1.41162">
        <ele>7</ele>
        <time>2020-12-06T07:57:19.235000+00:00</time>
      </trkpt>
      <trkpt lat="0" lon="0">
        <time>2020-12-06T07:57:19.250000+00:00</time>
      </trkpt>
      <trkpt lat="0" lon="0">
        <time>2020-12-06T07:57:19.262000+00:00</time>
      </trkpt>
      <trkpt lat="0" lon="0">
        <time>2020-12-06T07:57:19.265000+00:00</time>
      </trkpt>
      <trkpt lat="47.26736" lon="-1.41156">
        <ele>7</ele>
        <time>2020-12-06T07:57:20.271000+00:00</time>
      </trkpt>
      <trkpt lat="0" lon="0">
        <time>2020-12-06T07:57:20.283000+00:00</time>
      </trkpt>
      <trkpt lat="0" lon="0">
        <time>2020-12-06T07:57:20.289000+00:00</time>
      </trkpt>
      <trkpt lat="0" lon="0">
        <time>2020-12-06T07:57:20.291000+00:00</time>
      </trkpt>
      <trkpt lat="47.26741" lon="-1.41151">
        <ele>7</ele>
        <time>2020-12-06T07:57:21.221000+00:00</time>
      </trkpt>
      <trkpt lat="0" lon="0">
        <time>2020-12-06T07:57:21.225000+00:00</time>
      </trkpt>
      <trkpt lat="0" lon="0">
        <time>2020-12-06T07:57:21.229000+00:00</time>
      </trkpt>
      <trkpt lat="0" lon="0">
        <time>2020-12-06T07:57:21.231000+00:00</time>
      </trkpt>
      <trkpt lat="47.26746" lon="-1.41145">
        <ele>7</ele>
        <time>2020-12-06T07:57:22.264000+00:00</time>
      </trkpt>
      <trkpt lat="0" lon="0">
        <time>2020-12-06T07:57:22.287000+00:00</time>
      </trkpt>
      <trkpt lat="0" lon="0">
        <time>2020-12-06T07:57:22.290000+00:00</time>
      </trkpt>
      <trkpt lat="0" lon="0">
        <time>2020-12-06T07:57:22.292000+00:00</time>
      </trkpt>
      <trkpt lat="47.26751" lon="-1.4114">
        <ele>7</ele>
        <time>2020-12-06T07:57:23.242000+00:00</time>
      </trkpt>
      <trkpt lat="0" lon="0">
        <time>2020-12-06T07:57:23.250000+00:00</time>
      </trkpt>
      <trkpt lat="0" lon="0">
        <time>2020-12-06T07:57:23.253000+00:00</time>
      </trkpt>
      <trkpt lat="0" lon="0">
        <time>2020-12-06T07:57:23.255000+00:00</time>
      </trkpt>
      <trkpt lat="47.26756" lon="-1.41134">
        <ele>7</ele>
        <time>2020-12-06T07:57:24.280000+00:00</time>
      </trkpt>
      <trkpt lat="0" lon="0">
        <time>2020-12-06T07:57:24.285000+00:00</time>
      </trkpt>
      <trkpt lat="0" lon="0">
        <time>2020-12-06T07:57:24.293000+00:00</time>
      </trkpt>
      <trkpt lat="0" lon="0">
        <time>2020-12-06T07:57:24.297000+00:00</time>
      </trkpt>
      <trkpt lat="47.26762" lon="-1.41128">
        <ele>6</ele>
        <time>2020-12-06T07:57:25.249000+00:00</time>
      </trkpt>
      <trkpt lat="0" lon="0">
        <time>2020-12-06T07:57:25.268000+00:00</time>
      </trkpt>
      <trkpt lat="0" lon="0">
        <time>2020-12-06T07:57:25.275000+00:00</time>
      </trkpt>
      <trkpt lat="0" lon="0">
        <time>2020-12-06T07:57:25.283000+00:00</time>
      </trkpt>
      <trkpt lat="47.26767" lon="-1.41123">
        <ele>6</ele>
        <time>2020-12-06T07:57:26.265000+00:00</time>
      </trkpt>
      <trkpt lat="0" lon="0">
        <time>2020-12-06T07:57:26.271000+00:00</time>
      </trkpt>
      <trkpt lat="0" lon="0">
        <time>2020-12-06T07:57:26.278000+00:00</time>
      </trkpt>
      <trkpt lat="0" lon="0">
        <time>2020-12-06T07:57:26.279000+00:00</time>
      </trkpt>
      <trkpt lat="47.26772" lon="-1.41117">
        <ele>6</ele>
        <time>2020-12-06T07:57:27.255000+00:00</time>
      </trkpt>
      <trkpt lat="0" lon="0">
        <time>2020-12-06T07:57:27.266000+00:00</time>
      </trkpt>
      <trkpt lat="0" lon="0">
        <time>2020-12-06T07:57:27.273000+00:00</time>
      </trkpt>
      <trkpt lat="0" lon="0">
        <time>2020-12-06T07:57:27.279000+00:00</time>
      </trkpt>
      <trkpt lat="47.26776" lon="-1.4111">
        <ele>6</ele>
        <time>2020-12-06T07:57:28.223000+00:00</time>
      </trkpt>
      <trkpt lat="0" lon="0">
        <time>2020-12-06T07:57:28.239000+00:00</time>
      </trkpt>
      <trkpt lat="0" lon="0">
        <time>2020-12-06T07:57:28.242000+00:00</time>
      </trkpt>
      <trkpt lat="0" lon="0">
        <time>2020-12-06T07:57:28.246000+00:00</time>
      </trkpt>
      <trkpt lat="47.2678" lon="-1.41103">
        <ele>6</ele>
        <time>2020-12-06T07:57:29.228000+00:00</time>
      </trkpt>
      <trkpt lat="0" lon="0">
        <time>2020-12-06T07:57:29.239000+00:00</time>
      </trkpt>
      <trkpt lat="0" lon="0">
        <time>2020-12-06T07:57:29.243000+00:00</time>
      </trkpt>
      <trkpt lat="0" lon="0">
        <time>2020-12-06T07:57:29.246000+00:00</time>
      </trkpt>
      <trkpt lat="47.26784" lon="-1.41096">
        <ele>6</ele>
        <time>2020-12-06T07:57:30.241000+00:00</time>
      </trkpt>
      <trkpt lat="0" lon="0">
        <time>2020-12-06T07:57:30.258000+00:00</time>
      </trkpt>
      <trkpt lat="0" lon="0">
        <time>2020-12-06T07:57:30.262000+00:00</time>
      </trkpt>
      <trkpt lat="0" lon="0">
        <time>2020-12-06T07:57:30.267000+00:00</time>
      </trkpt>
      <trkpt lat="47.26787" lon="-1.41088">
        <ele>6</ele>
        <time>2020-12-06T07:57:31.281000+00:00</time>
      </trkpt>
      <trkpt lat="0" lon="0">
        <time>2020-12-06T07:57:31.288000+00:00</time>
      </trkpt>
      <trkpt lat="0" lon="0">
        <time>2020-12-06T07:57:31.295000+00:00</time>
      </trkpt>
      <trkpt lat="0" lon="0">
        <time>2020-12-06T07:57:31.299000+00:00</time>
      </trkpt>
      <trkpt lat="47.2679" lon="-1.4108">
        <ele>5</ele>
        <time>2020-12-06T07:57:32.265000+00:00</time>
      </trkpt>
      <trkpt lat="0" lon="0">
        <time>2020-12-06T07:57:32.269000+00:00</time>
      </trkpt>
      <trkpt lat="0" lon="0">
        <time>2020-12-06T07:57:32.273000+00:00</time>
      </trkpt>
      <trkpt lat="0" lon="0">
        <time>2020-12-06T07:57:32.274000+00:00</time>
      </trkpt>
      <trkpt lat="47.26792" lon="-1.41072">
        <ele>5</ele>
        <time>2020-12-06T07:57:33.251000+00:00</time>
      </trkpt>
      <trkpt lat="0" lon="0">
        <time>2020-12-06T07:57:33.262000+00:00</time>
      </trkpt>
      <trkpt lat="0" lon="0">
        <time>2020-12-06T07:57:33.274000+00:00</time>
      </trkpt>
      <trkpt lat="0" lon="0">
        <time>2020-12-06T07:57:33.277000+00:00</time>
      </trkpt>
      <trkpt lat="47.26794" lon="-1.41063">
        <ele>5</ele>
        <time>2020-12-06T07:57:34.259000+00:00</time>
      </trkpt>
      <trkpt lat="0" lon="0">
        <time>2020-12-06T07:57:34.267000+00:00</time>
      </trkpt>
      <trkpt lat="0" lon="0">
        <time>2020-12-06T07:57:34.275000+00:00</time>
      </trkpt>
      <trkpt lat="0" lon="0">
        <time>2020-12-06T07:57:34.277000+00:00</time>
      </trkpt>
      <trkpt lat="47.26796" lon="-1.41055">
        <ele>5</ele>
        <time>2020-12-06T07:57:35.262000+00:00</time>
      </trkpt>
      <trkpt lat="0" lon="0">
        <time>2020-12-06T07:57:35.282000+00:00</time>
      </trkpt>
      <trkpt lat="0" lon="0">
        <time>2020-12-06T07:57:35.286000+00:00</time>
      </trkpt>
      <trkpt lat="0" lon="0">
        <time>2020-12-06T07:57:35.287000+00:00</time>
      </trkpt>
      <trkpt lat="47.26799" lon="-1.41047">
        <ele>5</ele>
        <time>2020-12-06T07:57:36.269000+00:00</time>
      </trkpt>
      <trkpt lat="0" lon="0">
        <time>2020-12-06T07:57:36.285000+00:00</time>
      </trkpt>
      <trkpt lat="0" lon="0">
        <time>2020-12-06T07:57:36.295000+00:00</time>
      </trkpt>
      <trkpt lat="0" lon="0">
        <time>2020-12-06T07:57:36.297000+00:00</time>
      </trkpt>
      <trkpt lat="47.26801" lon="-1.41039">
        <ele>5</ele>
        <time>2020-12-06T07:57:37.285000+00:00</time>
      </trkpt>
      <trkpt lat="0" lon="0">
        <time>2020-12-06T07:57:37.288000+00:00</time>
      </trkpt>
      <trkpt lat="0" lon="0">
        <time>2020-12-06T07:57:37.299000+00:00</time>
      </trkpt>
      <trkpt lat="0" lon="0">
        <time>2020-12-06T07:57:37.301000+00:00</time>
      </trkpt>
      <trkpt lat="47.26802" lon="-1.41031">
        <ele>5</ele>
        <time>2020-12-06T07:57:38.273000+00:00</time>
      </trkpt>
      <trkpt lat="0" lon="0">
        <time>2020-12-06T07:57:38.287000+00:00</time>
      </trkpt>
      <trkpt lat="0" lon="0">
        <time>2020-12-06T07:57:38.289000+00:00</time>
      </trkpt>
      <trkpt lat="0" lon="0">
        <time>2020-12-06T07:57:38.290000+00:00</time>
      </trkpt>
      <trkpt lat="47.26805" lon="-1.41024">
        <ele>5</ele>
        <time>2020-12-06T07:57:39.231000+00:00</time>
      </trkpt>
      <trkpt lat="0" lon="0">
        <time>2020-12-06T07:57:39.243000+00:00</time>
      </trkpt>
      <trkpt lat="0" lon="0">
        <time>2020-12-06T07:57:39.249000+00:00</time>
      </trkpt>
      <trkpt lat="0" lon="0">
        <time>2020-12-06T07:57:39.252000+00:00</time>
      </trkpt>
      <trkpt lat="47.26807" lon="-1.41017">
        <ele>5</ele>
        <time>2020-12-06T07:57:40.241000+00:00</time>
      </trkpt>
      <trkpt lat="0" lon="0">
        <time>2020-12-06T07:57:40.258000+00:00</time>
      </trkpt>
      <trkpt lat="0" lon="0">
        <time>2020-12-06T07:57:40.262000+00:00</time>
      </trkpt>
      <trkpt lat="0" lon="0">
        <time>2020-12-06T07:57:40.263000+00:00</time>
      </trkpt>
      <trkpt lat="47.26811" lon="-1.4101">
        <ele>5</ele>
        <time>2020-12-06T07:57:41.256000+00:00</time>
      </trkpt>
      <trkpt lat="0" lon="0">
        <time>2020-12-06T07:57:41.269000+00:00</time>
      </trkpt>
      <trkpt lat="0" lon="0">
        <time>2020-12-06T07:57:41.272000+00:00</time>
      </trkpt>
      <trkpt lat="0" lon="0">
        <time>2020-12-06T07:57:41.274000+00:00</time>
      </trkpt>
      <trkpt lat="47.26814" lon="-1.41003">
        <ele>5</ele>
        <time>2020-12-06T07:57:42.246000+00:00</time>
      </trkpt>
      <trkpt lat="0" lon="0">
        <time>2020-12-06T07:57:42.251000+00:00</time>
      </trkpt>
      <trkpt lat="0" lon="0">
        <time>2020-12-06T07:57:42.259000+00:00</time>
      </trkpt>
      <trkpt lat="0" lon="0">
        <time>2020-12-06T07:57:42.265000+00:00</time>
      </trkpt>
      <trkpt lat="47.26818" lon="-1.40997">
        <ele>5</ele>
        <time>2020-12-06T07:57:43.246000+00:00</time>
      </trkpt>
      <trkpt lat="0" lon="0">
        <time>2020-12-06T07:57:43.254000+00:00</time>
      </trkpt>
      <trkpt lat="0" lon="0">
        <time>2020-12-06T07:57:43.258000+00:00</time>
      </trkpt>
      <trkpt lat="0" lon="0">
        <time>2020-12-06T07:57:43.260000+00:00</time>
      </trkpt>
      <trkpt lat="47.26823" lon="-1.40991">
        <ele>5</ele>
        <time>2020-12-06T07:57:44.271000+00:00</time>
      </trkpt>
      <trkpt lat="0" lon="0">
        <time>2020-12-06T07:57:44.273000+00:00</time>
      </trkpt>
      <trkpt lat="0" lon="0">
        <time>2020-12-06T07:57:44.274000+00:00</time>
      </trkpt>
      <trkpt lat="0" lon="0">
        <time>2020-12-06T07:57:44.275000+00:00</time>
      </trkpt>
      <trkpt lat="47.26827" lon="-1.40984">
        <ele>6</ele>
        <time>2020-12-06T07:57:45.265000+00:00</time>
      </trkpt>
      <trkpt lat="0" lon="0">
        <time>2020-12-06T07:57:45.272000+00:00</time>
      </trkpt>
      <trkpt lat="0" lon="0">
        <time>2020-12-06T07:57:45.279000+00:00</time>
      </trkpt>
      <trkpt lat="0" lon="0">
        <time>2020-12-06T07:57:45.280000+00:00</time>
      </trkpt>
      <trkpt lat="47.26831" lon="-1.40977">
        <ele>6</ele>
        <time>2020-12-06T07:57:46.226000+00:00</time>
      </trkpt>
      <trkpt lat="0" lon="0">
        <time>2020-12-06T07:57:46.234000+00:00</time>
      </trkpt>
      <trkpt lat="0" lon="0">
        <time>2020-12-06T07:57:46.238000+00:00</time>
      </trkpt>
      <trkpt lat="0" lon="0">
        <time>2020-12-06T07:57:46.239000+00:00</time>
      </trkpt>
      <trkpt lat="47.26834" lon="-1.40971">
        <ele>6</ele>
        <time>2020-12-06T07:57:47.276000+00:00</time>
      </trkpt>
      <trkpt lat="0" lon="0">
        <time>2020-12-06T07:57:47.280000+00:00</time>
      </trkpt>
      <trkpt lat="0" lon="0">
        <time>2020-12-06T07:57:47.286000+00:00</time>
      </trkpt>
      <trkpt lat="0" lon="0">
        <time>2020-12-06T07:57:47.287000+00:00</time>
      </trkpt>
      <trkpt lat="47.26838" lon="-1.40964">
        <ele>6</ele>
        <time>2020-12-06T07:57:48.243000+00:00</time>
      </trkpt>
      <trkpt lat="0" lon="0">
        <time>2020-12-06T07:57:48.249000+00:00</time>
      </trkpt>
      <trkpt lat="0" lon="0">
        <time>2020-12-06T07:57:48.259000+00:00</time>
      </trkpt>
      <trkpt lat="0" lon="0">
        <time>2020-12-06T07:57:48.262000+00:00</time>
      </trkpt>
      <trkpt lat="47.26842" lon="-1.40957">
        <ele>6</ele>
        <time>2020-12-06T07:57:49.230000+00:00</time>
      </trkpt>
      <trkpt lat="0" lon="0">
        <time>2020-12-06T07:57:49.248000+00:00</time>
      </trkpt>
      <trkpt lat="0" lon="0">
        <time>2020-12-06T07:57:49.253000+00:00</time>
      </trkpt>
      <trkpt lat="0" lon="0">
        <time>2020-12-06T07:57:49.256000+00:00</time>
      </trkpt>
      <trkpt lat="47.26845" lon="-1.4095">
        <ele>6</ele>
        <time>2020-12-06T07:57:50.291000+00:00</time>
      </trkpt>
      <trkpt lat="0" lon="0">
        <time>2020-12-06T07:57:50.294000+00:00</time>
      </trkpt>
      <trkpt lat="0" lon="0">
        <time>2020-12-06T07:57:50.304000+00:00</time>
      </trkpt>
      <trkpt lat="0" lon="0">
        <time>2020-12-06T07:57:50.307000+00:00</time>
      </trkpt>
      <trkpt lat="47.26848" lon="-1.40943">
        <ele>6</ele>
        <time>2020-12-06T07:57:51.274000+00:00</time>
      </trkpt>
      <trkpt lat="0" lon="0">
        <time>2020-12-06T07:57:51.281000+00:00</time>
      </trkpt>
      <trkpt lat="0" lon="0">
        <time>2020-12-06T07:57:51.286000+00:00</time>
      </trkpt>
      <trkpt lat="0" lon="0">
        <time>2020-12-06T07:57:51.293000+00:00</time>
      </trkpt>
      <trkpt lat="47.26851" lon="-1.40937">
        <ele>6</ele>
        <time>2020-12-06T07:57:52.262000+00:00</time>
      </trkpt>
      <trkpt lat="0" lon="0">
        <time>2020-12-06T07:57:52.267000+00:00</time>
      </trkpt>
      <trkpt lat="0" lon="0">
        <time>2020-12-06T07:57:52.272000+00:00</time>
      </trkpt>
      <trkpt lat="0" lon="0">
        <time>2020-12-06T07:57:52.275000+00:00</time>
      </trkpt>
      <trkpt lat="47.26854" lon="-1.40931">
        <ele>6</ele>
        <time>2020-12-06T07:57:53.275000+00:00</time>
      </trkpt>
      <trkpt lat="0" lon="0">
        <time>2020-12-06T07:57:53.290000+00:00</time>
      </trkpt>
      <trkpt lat="0" lon="0">
        <time>2020-12-06T07:57:53.293000+00:00</time>
      </trkpt>
      <trkpt lat="0" lon="0">
        <time>2020-12-06T07:57:53.297000+00:00</time>
      </trkpt>
      <trkpt lat="47.26858" lon="-1.40925">
        <ele>6</ele>
        <time>2020-12-06T07:57:54.277000+00:00</time>
      </trkpt>
      <trkpt lat="0" lon="0">
        <time>2020-12-06T07:57:54.287000+00:00</time>
      </trkpt>
      <trkpt lat="0" lon="0">
        <time>2020-12-06T07:57:54.291000+00:00</time>
      </trkpt>
      <trkpt lat="0" lon="0">
        <time>2020-12-06T07:57:54.293000+00:00</time>
      </trkpt>
      <trkpt lat="47.26862" lon="-1.4092">
        <ele>6</ele>
        <time>2020-12-06T07:57:55.262000+00:00</time>
      </trkpt>
      <trkpt lat="0" lon="0">
        <time>2020-12-06T07:57:55.274000+00:00</time>
      </trkpt>
      <trkpt lat="0" lon="0">
        <time>2020-12-06T07:57:55.279000+00:00</time>
      </trkpt>
      <trkpt lat="0" lon="0">
        <time>2020-12-06T07:57:55.286000+00:00</time>
      </trkpt>
      <trkpt lat="47.26865" lon="-1.40914">
        <ele>6</ele>
        <time>2020-12-06T07:57:56.250000+00:00</time>
      </trkpt>
      <trkpt lat="0" lon="0">
        <time>2020-12-06T07:57:56.253000+00:00</time>
      </trkpt>
      <trkpt lat="0" lon="0">
        <time>2020-12-06T07:57:56.257000+00:00</time>
      </trkpt>
      <trkpt lat="0" lon="0">
        <time>2020-12-06T07:57:56.261000+00:00</time>
      </trkpt>
      <trkpt lat="47.26869" lon="-1.40908">
        <ele>6</ele>
        <time>2020-12-06T07:57:57.225000+00:00</time>
      </trkpt>
      <trkpt lat="0" lon="0">
        <time>2020-12-06T07:57:57.228000+00:00</time>
      </trkpt>
      <trkpt lat="0" lon="0">
        <time>2020-12-06T07:57:57.240000+00:00</time>
      </trkpt>
      <trkpt lat="0" lon="0">
        <time>2020-12-06T07:57:57.247000+00:00</time>
      </trkpt>
      <trkpt lat="47.26873" lon="-1.40902">
        <ele>6</ele>
        <time>2020-12-06T07:57:58.260000+00:00</time>
      </trkpt>
      <trkpt lat="0" lon="0">
        <time>2020-12-06T07:57:58.267000+00:00</time>
      </trkpt>
      <trkpt lat="0" lon="0">
        <time>2020-12-06T07:57:58.282000+00:00</time>
      </trkpt>
      <trkpt lat="0" lon="0">
        <time>2020-12-06T07:57:58.285000+00:00</time>
      </trkpt>
      <trkpt lat="47.26876" lon="-1.40895">
        <ele>6</ele>
        <time>2020-12-06T07:57:59.234000+00:00</time>
      </trkpt>
      <trkpt lat="0" lon="0">
        <time>2020-12-06T07:57:59.249000+00:00</time>
      </trkpt>
      <trkpt lat="0" lon="0">
        <time>2020-12-06T07:57:59.257000+00:00</time>
      </trkpt>
      <trkpt lat="0" lon="0">
        <time>2020-12-06T07:57:59.259000+00:00</time>
      </trkpt>
      <trkpt lat="47.26879" lon="-1.40887">
        <ele>6</ele>
        <time>2020-12-06T07:58:00.242000+00:00</time>
      </trkpt>
      <trkpt lat="0" lon="0">
        <time>2020-12-06T07:58:00.246000+00:00</time>
      </trkpt>
      <trkpt lat="0" lon="0">
        <time>2020-12-06T07:58:00.250000+00:00</time>
      </trkpt>
      <trkpt lat="0" lon="0">
        <time>2020-12-06T07:58:00.254000+00:00</time>
      </trkpt>
      <trkpt lat="47.26883" lon="-1.40879">
        <ele>6</ele>
        <time>2020-12-06T07:58:01.280000+00:00</time>
      </trkpt>
      <trkpt lat="0" lon="0">
        <time>2020-12-06T07:58:01.288000+00:00</time>
      </trkpt>
      <trkpt lat="0" lon="0">
        <time>2020-12-06T07:58:01.291000+00:00</time>
      </trkpt>
      <trkpt lat="0" lon="0">
        <time>2020-12-06T07:58:01.293000+00:00</time>
      </trkpt>
      <trkpt lat="47.26887" lon="-1.4087">
        <ele>6</ele>
        <time>2020-12-06T07:58:02.238000+00:00</time>
      </trkpt>
      <trkpt lat="0" lon="0">
        <time>2020-12-06T07:58:02.248000+00:00</time>
      </trkpt>
      <trkpt lat="0" lon="0">
        <time>2020-12-06T07:58:02.251000+00:00</time>
      </trkpt>
      <trkpt lat="0" lon="0">
        <time>2020-12-06T07:58:02.254000+00:00</time>
      </trkpt>
      <trkpt lat="47.26891" lon="-1.40862">
        <ele>6</ele>
        <time>2020-12-06T07:58:03.228000+00:00</time>
      </trkpt>
      <trkpt lat="0" lon="0">
        <time>2020-12-06T07:58:03.234000+00:00</time>
      </trkpt>
      <trkpt lat="0" lon="0">
        <time>2020-12-06T07:58:03.242000+00:00</time>
      </trkpt>
      <trkpt lat="0" lon="0">
        <time>2020-12-06T07:58:03.244000+00:00</time>
      </trkpt>
      <trkpt lat="47.26895" lon="-1.40853">
        <ele>6</ele>
        <time>2020-12-06T07:58:04.259000+00:00</time>
      </trkpt>
      <trkpt lat="0" lon="0">
        <time>2020-12-06T07:58:04.278000+00:00</time>
      </trkpt>
      <trkpt lat="0" lon="0">
        <time>2020-12-06T07:58:04.286000+00:00</time>
      </trkpt>
      <trkpt lat="0" lon="0">
        <time>2020-12-06T07:58:04.288000+00:00</time>
      </trkpt>
      <trkpt lat="47.269" lon="-1.40845">
        <ele>6</ele>
        <time>2020-12-06T07:58:05.253000+00:00</time>
      </trkpt>
      <trkpt lat="0" lon="0">
        <time>2020-12-06T07:58:05.265000+00:00</time>
      </trkpt>
      <trkpt lat="0" lon="0">
        <time>2020-12-06T07:58:05.283000+00:00</time>
      </trkpt>
      <trkpt lat="0" lon="0">
        <time>2020-12-06T07:58:05.284000+00:00</time>
      </trkpt>
      <trkpt lat="47.26904" lon="-1.40837">
        <ele>6</ele>
        <time>2020-12-06T07:58:06.221000+00:00</time>
      </trkpt>
      <trkpt lat="0" lon="0">
        <time>2020-12-06T07:58:06.230000+00:00</time>
      </trkpt>
      <trkpt lat="0" lon="0">
        <time>2020-12-06T07:58:06.237000+00:00</time>
      </trkpt>
      <trkpt lat="0" lon="0">
        <time>2020-12-06T07:58:06.243000+00:00</time>
      </trkpt>
      <trkpt lat="47.26908" lon="-1.40829">
        <ele>5</ele>
        <time>2020-12-06T07:58:07.267000+00:00</time>
      </trkpt>
      <trkpt lat="0" lon="0">
        <time>2020-12-06T07:58:07.280000+00:00</time>
      </trkpt>
      <trkpt lat="0" lon="0">
        <time>2020-12-06T07:58:07.283000+00:00</time>
      </trkpt>
      <trkpt lat="0" lon="0">
        <time>2020-12-06T07:58:07.284000+00:00</time>
      </trkpt>
      <trkpt lat="47.26912" lon="-1.40821">
        <ele>5</ele>
        <time>2020-12-06T07:58:08.209000+00:00</time>
      </trkpt>
      <trkpt lat="0" lon="0">
        <time>2020-12-06T07:58:08.215000+00:00</time>
      </trkpt>
      <trkpt lat="0" lon="0">
        <time>2020-12-06T07:58:08.225000+00:00</time>
      </trkpt>
      <trkpt lat="0" lon="0">
        <time>2020-12-06T07:58:08.234000+00:00</time>
      </trkpt>
      <trkpt lat="47.26916" lon="-1.40813">
        <ele>5</ele>
        <time>2020-12-06T07:58:09.271000+00:00</time>
      </trkpt>
      <trkpt lat="0" lon="0">
        <time>2020-12-06T07:58:09.275000+00:00</time>
      </trkpt>
      <trkpt lat="0" lon="0">
        <time>2020-12-06T07:58:09.281000+00:00</time>
      </trkpt>
      <trkpt lat="0" lon="0">
        <time>2020-12-06T07:58:09.283000+00:00</time>
      </trkpt>
      <trkpt lat="47.2692" lon="-1.40806">
        <ele>5</ele>
        <time>2020-12-06T07:58:10.247000+00:00</time>
      </trkpt>
      <trkpt lat="0" lon="0">
        <time>2020-12-06T07:58:10.256000+00:00</time>
      </trkpt>
      <trkpt lat="0" lon="0">
        <time>2020-12-06T07:58:10.266000+00:00</time>
      </trkpt>
      <trkpt lat="0" lon="0">
        <time>2020-12-06T07:58:10.269000+00:00</time>
      </trkpt>
      <trkpt lat="47.26924" lon="-1.40798">
        <ele>5</ele>
        <time>2020-12-06T07:58:11.243000+00:00</time>
      </trkpt>
      <trkpt lat="0" lon="0">
        <time>2020-12-06T07:58:11.257000+00:00</time>
      </trkpt>
      <trkpt lat="0" lon="0">
        <time>2020-12-06T07:58:11.261000+00:00</time>
      </trkpt>
      <trkpt lat="0" lon="0">
        <time>2020-12-06T07:58:11.263000+00:00</time>
      </trkpt>
      <trkpt lat="47.26928" lon="-1.4079">
        <ele>5</ele>
        <time>2020-12-06T07:58:12.278000+00:00</time>
      </trkpt>
      <trkpt lat="0" lon="0">
        <time>2020-12-06T07:58:12.283000+00:00</time>
      </trkpt>
      <trkpt lat="0" lon="0">
        <time>2020-12-06T07:58:12.287000+00:00</time>
      </trkpt>
      <trkpt lat="0" lon="0">
        <time>2020-12-06T07:58:12.289000+00:00</time>
      </trkpt>
      <trkpt lat="47.26931" lon="-1.40782">
        <ele>5</ele>
        <time>2020-12-06T07:58:13.273000+00:00</time>
      </trkpt>
      <trkpt lat="0" lon="0">
        <time>2020-12-06T07:58:13.275000+00:00</time>
      </trkpt>
      <trkpt lat="0" lon="0">
        <time>2020-12-06T07:58:13.278000+00:00</time>
      </trkpt>
      <trkpt lat="0" lon="0">
        <time>2020-12-06T07:58:13.279000+00:00</time>
      </trkpt>
      <trkpt lat="47.26934" lon="-1.40774">
        <ele>5</ele>
        <time>2020-12-06T07:58:14.255000+00:00</time>
      </trkpt>
      <trkpt lat="0" lon="0">
        <time>2020-12-06T07:58:14.271000+00:00</time>
      </trkpt>
      <trkpt lat="0" lon="0">
        <time>2020-12-06T07:58:14.275000+00:00</time>
      </trkpt>
      <trkpt lat="0" lon="0">
        <time>2020-12-06T07:58:14.280000+00:00</time>
      </trkpt>
      <trkpt lat="47.26937" lon="-1.40765">
        <ele>5</ele>
        <time>2020-12-06T07:58:15.251000+00:00</time>
      </trkpt>
      <trkpt lat="0" lon="0">
        <time>2020-12-06T07:58:15.255000+00:00</time>
      </trkpt>
      <trkpt lat="0" lon="0">
        <time>2020-12-06T07:58:15.256000+00:00</time>
      </trkpt>
      <trkpt lat="0" lon="0">
        <time>2020-12-06T07:58:15.257000+00:00</time>
      </trkpt>
      <trkpt lat="47.26939" lon="-1.40757">
        <ele>5</ele>
        <time>2020-12-06T07:58:16.287000+00:00</time>
      </trkpt>
      <trkpt lat="0" lon="0">
        <time>2020-12-06T07:58:16.298000+00:00</time>
      </trkpt>
      <trkpt lat="0" lon="0">
        <time>2020-12-06T07:58:16.307000+00:00</time>
      </trkpt>
      <trkpt lat="0" lon="0">
        <time>2020-12-06T07:58:16.310000+00:00</time>
      </trkpt>
      <trkpt lat="47.2694" lon="-1.40748">
        <ele>5</ele>
        <time>2020-12-06T07:58:17.248000+00:00</time>
      </trkpt>
      <trkpt lat="0" lon="0">
        <time>2020-12-06T07:58:17.251000+00:00</time>
      </trkpt>
      <trkpt lat="0" lon="0">
        <time>2020-12-06T07:58:17.260000+00:00</time>
      </trkpt>
      <trkpt lat="0" lon="0">
        <time>2020-12-06T07:58:17.262000+00:00</time>
      </trkpt>
      <trkpt lat="47.26941" lon="-1.40739">
        <ele>5</ele>
        <time>2020-12-06T07:58:18.259000+00:00</time>
      </trkpt>
      <trkpt lat="0" lon="0">
        <time>2020-12-06T07:58:18.267000+00:00</time>
      </trkpt>
      <trkpt lat="0" lon="0">
        <time>2020-12-06T07:58:18.273000+00:00</time>
      </trkpt>
      <trkpt lat="0" lon="0">
        <time>2020-12-06T07:58:18.276000+00:00</time>
      </trkpt>
      <trkpt lat="47.26942" lon="-1.40729">
        <ele>5</ele>
        <time>2020-12-06T07:58:19.222000+00:00</time>
      </trkpt>
      <trkpt lat="0" lon="0">
        <time>2020-12-06T07:58:19.224000+00:00</time>
      </trkpt>
      <trkpt lat="0" lon="0">
        <time>2020-12-06T07:58:19.226000+00:00</time>
      </trkpt>
      <trkpt lat="47.26943" lon="-1.40719">
        <ele>5</ele>
        <time>2020-12-06T07:58:20.262000+00:00</time>
      </trkpt>
      <trkpt lat="0" lon="0">
        <time>2020-12-06T07:58:20.272000+00:00</time>
      </trkpt>
      <trkpt lat="0" lon="0">
        <time>2020-12-06T07:58:20.281000+00:00</time>
      </trkpt>
      <trkpt lat="0" lon="0">
        <time>2020-12-06T07:58:20.284000+00:00</time>
      </trkpt>
      <trkpt lat="47.26943" lon="-1.40709">
        <ele>5</ele>
        <time>2020-12-06T07:58:21.286000+00:00</time>
      </trkpt>
      <trkpt lat="0" lon="0">
        <time>2020-12-06T07:58:21.294000+00:00</time>
      </trkpt>
      <trkpt lat="0" lon="0">
        <time>2020-12-06T07:58:21.301000+00:00</time>
      </trkpt>
      <trkpt lat="0" lon="0">
        <time>2020-12-06T07:58:21.302000+00:00</time>
      </trkpt>
      <trkpt lat="47.26943" lon="-1.40699">
        <ele>5</ele>
        <time>2020-12-06T07:58:22.174000+00:00</time>
      </trkpt>
      <trkpt lat="0" lon="0">
        <time>2020-12-06T07:58:22.175000+00:00</time>
      </trkpt>
      <trkpt lat="0" lon="0">
        <time>2020-12-06T07:58:22.180000+00:00</time>
      </trkpt>
      <trkpt lat="0" lon="0">
        <time>2020-12-06T07:58:22.181000+00:00</time>
      </trkpt>
      <trkpt lat="47.26943" lon="-1.40689">
        <ele>4</ele>
        <time>2020-12-06T07:58:23.247000+00:00</time>
      </trkpt>
      <trkpt lat="0" lon="0">
        <time>2020-12-06T07:58:23.258000+00:00</time>
      </trkpt>
      <trkpt lat="0" lon="0">
        <time>2020-12-06T07:58:23.261000+00:00</time>
      </trkpt>
      <trkpt lat="0" lon="0">
        <time>2020-12-06T07:58:23.265000+00:00</time>
      </trkpt>
      <trkpt lat="47.26942" lon="-1.40678">
        <ele>4</ele>
        <time>2020-12-06T07:58:24.267000+00:00</time>
      </trkpt>
      <trkpt lat="0" lon="0">
        <time>2020-12-06T07:58:24.274000+00:00</time>
      </trkpt>
      <trkpt lat="0" lon="0">
        <time>2020-12-06T07:58:24.284000+00:00</time>
      </trkpt>
      <trkpt lat="0" lon="0">
        <time>2020-12-06T07:58:24.286000+00:00</time>
      </trkpt>
      <trkpt lat="47.26942" lon="-1.40668">
        <ele>4</ele>
        <time>2020-12-06T07:58:25.556000+00:00</time>
      </trkpt>
      <trkpt lat="0" lon="0">
        <time>2020-12-06T07:58:25.573000+00:00</time>
      </trkpt>
      <trkpt lat="0" lon="0">
        <time>2020-12-06T07:58:25.582000+00:00</time>
      </trkpt>
      <trkpt lat="0" lon="0">
        <time>2020-12-06T07:58:25.584000+00:00</time>
      </trkpt>
      <trkpt lat="47.26942" lon="-1.40658">
        <ele>4</ele>
        <time>2020-12-06T07:58:26.245000+00:00</time>
      </trkpt>
      <trkpt lat="0" lon="0">
        <time>2020-12-06T07:58:26.262000+00:00</time>
      </trkpt>
      <trkpt lat="0" lon="0">
        <time>2020-12-06T07:58:26.274000+00:00</time>
      </trkpt>
      <trkpt lat="0" lon="0">
        <time>2020-12-06T07:58:26.280000+00:00</time>
      </trkpt>
      <trkpt lat="47.26943" lon="-1.40648">
        <ele>4</ele>
        <time>2020-12-06T07:58:27.257000+00:00</time>
      </trkpt>
      <trkpt lat="0" lon="0">
        <time>2020-12-06T07:58:27.275000+00:00</time>
      </trkpt>
      <trkpt lat="0" lon="0">
        <time>2020-12-06T07:58:27.281000+00:00</time>
      </trkpt>
      <trkpt lat="0" lon="0">
        <time>2020-12-06T07:58:27.286000+00:00</time>
      </trkpt>
      <trkpt lat="47.26943" lon="-1.40638">
        <ele>4</ele>
        <time>2020-12-06T07:58:28.249000+00:00</time>
      </trkpt>
      <trkpt lat="0" lon="0">
        <time>2020-12-06T07:58:28.267000+00:00</time>
      </trkpt>
      <trkpt lat="0" lon="0">
        <time>2020-12-06T07:58:28.278000+00:00</time>
      </trkpt>
      <trkpt lat="0" lon="0">
        <time>2020-12-06T07:58:28.279000+00:00</time>
      </trkpt>
      <trkpt lat="47.26943" lon="-1.40628">
        <ele>4</ele>
        <time>2020-12-06T07:58:29.238000+00:00</time>
      </trkpt>
      <trkpt lat="0" lon="0">
        <time>2020-12-06T07:58:29.251000+00:00</time>
      </trkpt>
      <trkpt lat="0" lon="0">
        <time>2020-12-06T07:58:29.258000+00:00</time>
      </trkpt>
      <trkpt lat="0" lon="0">
        <time>2020-12-06T07:58:29.261000+00:00</time>
      </trkpt>
      <trkpt lat="47.26943" lon="-1.40619">
        <ele>4</ele>
        <time>2020-12-06T07:58:30.228000+00:00</time>
      </trkpt>
      <trkpt lat="0" lon="0">
        <time>2020-12-06T07:58:30.234000+00:00</time>
      </trkpt>
      <trkpt lat="0" lon="0">
        <time>2020-12-06T07:58:30.238000+00:00</time>
      </trkpt>
      <trkpt lat="0" lon="0">
        <time>2020-12-06T07:58:30.240000+00:00</time>
      </trkpt>
      <trkpt lat="47.26944" lon="-1.4061">
        <ele>4</ele>
        <time>2020-12-06T07:58:31.245000+00:00</time>
      </trkpt>
      <trkpt lat="0" lon="0">
        <time>2020-12-06T07:58:31.261000+00:00</time>
      </trkpt>
      <trkpt lat="0" lon="0">
        <time>2020-12-06T07:58:31.269000+00:00</time>
      </trkpt>
      <trkpt lat="0" lon="0">
        <time>2020-12-06T07:58:31.271000+00:00</time>
      </trkpt>
      <trkpt lat="47.26945" lon="-1.406">
        <ele>4</ele>
        <time>2020-12-06T07:58:32.240000+00:00</time>
      </trkpt>
      <trkpt lat="0" lon="0">
        <time>2020-12-06T07:58:32.245000+00:00</time>
      </trkpt>
      <trkpt lat="0" lon="0">
        <time>2020-12-06T07:58:32.254000+00:00</time>
      </trkpt>
      <trkpt lat="0" lon="0">
        <time>2020-12-06T07:58:32.260000+00:00</time>
      </trkpt>
      <trkpt lat="47.26946" lon="-1.40591">
        <ele>4</ele>
        <time>2020-12-06T07:58:33.235000+00:00</time>
      </trkpt>
      <trkpt lat="0" lon="0">
        <time>2020-12-06T07:58:33.251000+00:00</time>
      </trkpt>
      <trkpt lat="0" lon="0">
        <time>2020-12-06T07:58:33.255000+00:00</time>
      </trkpt>
      <trkpt lat="0" lon="0">
        <time>2020-12-06T07:58:33.264000+00:00</time>
      </trkpt>
      <trkpt lat="47.26948" lon="-1.40582">
        <ele>4</ele>
        <time>2020-12-06T07:58:34.263000+00:00</time>
      </trkpt>
      <trkpt lat="0" lon="0">
        <time>2020-12-06T07:58:34.276000+00:00</time>
      </trkpt>
      <trkpt lat="0" lon="0">
        <time>2020-12-06T07:58:34.279000+00:00</time>
      </trkpt>
      <trkpt lat="0" lon="0">
        <time>2020-12-06T07:58:34.282000+00:00</time>
      </trkpt>
      <trkpt lat="47.26949" lon="-1.40573">
        <ele>4</ele>
        <time>2020-12-06T07:58:35.233000+00:00</time>
      </trkpt>
      <trkpt lat="0" lon="0">
        <time>2020-12-06T07:58:35.246000+00:00</time>
      </trkpt>
      <trkpt lat="0" lon="0">
        <time>2020-12-06T07:58:35.253000+00:00</time>
      </trkpt>
      <trkpt lat="0" lon="0">
        <time>2020-12-06T07:58:35.255000+00:00</time>
      </trkpt>
      <trkpt lat="47.26952" lon="-1.40564">
        <ele>4</ele>
        <time>2020-12-06T07:58:36.238000+00:00</time>
      </trkpt>
      <trkpt lat="0" lon="0">
        <time>2020-12-06T07:58:36.245000+00:00</time>
      </trkpt>
      <trkpt lat="0" lon="0">
        <time>2020-12-06T07:58:36.249000+00:00</time>
      </trkpt>
      <trkpt lat="0" lon="0">
        <time>2020-12-06T07:58:36.251000+00:00</time>
      </trkpt>
      <trkpt lat="47.26955" lon="-1.40556">
        <ele>4</ele>
        <time>2020-12-06T07:58:37.234000+00:00</time>
      </trkpt>
      <trkpt lat="0" lon="0">
        <time>2020-12-06T07:58:37.252000+00:00</time>
      </trkpt>
      <trkpt lat="0" lon="0">
        <time>2020-12-06T07:58:37.256000+00:00</time>
      </trkpt>
      <trkpt lat="0" lon="0">
        <time>2020-12-06T07:58:37.261000+00:00</time>
      </trkpt>
      <trkpt lat="47.26958" lon="-1.40548">
        <ele>4</ele>
        <time>2020-12-06T07:58:38.284000+00:00</time>
      </trkpt>
      <trkpt lat="0" lon="0">
        <time>2020-12-06T07:58:38.301000+00:00</time>
      </trkpt>
      <trkpt lat="0" lon="0">
        <time>2020-12-06T07:58:38.306000+00:00</time>
      </trkpt>
      <trkpt lat="0" lon="0">
        <time>2020-12-06T07:58:38.309000+00:00</time>
      </trkpt>
      <trkpt lat="47.26962" lon="-1.4054">
        <ele>4</ele>
        <time>2020-12-06T07:58:39.279000+00:00</time>
      </trkpt>
      <trkpt lat="0" lon="0">
        <time>2020-12-06T07:58:39.293000+00:00</time>
      </trkpt>
      <trkpt lat="0" lon="0">
        <time>2020-12-06T07:58:39.299000+00:00</time>
      </trkpt>
      <trkpt lat="0" lon="0">
        <time>2020-12-06T07:58:39.301000+00:00</time>
      </trkpt>
      <trkpt lat="47.26965" lon="-1.40532">
        <ele>4</ele>
        <time>2020-12-06T07:58:40.255000+00:00</time>
      </trkpt>
      <trkpt lat="0" lon="0">
        <time>2020-12-06T07:58:40.262000+00:00</time>
      </trkpt>
      <trkpt lat="0" lon="0">
        <time>2020-12-06T07:58:40.269000+00:00</time>
      </trkpt>
      <trkpt lat="0" lon="0">
        <time>2020-12-06T07:58:40.271000+00:00</time>
      </trkpt>
      <trkpt lat="47.26969" lon="-1.40524">
        <ele>4</ele>
        <time>2020-12-06T07:58:41.221000+00:00</time>
      </trkpt>
      <trkpt lat="0" lon="0">
        <time>2020-12-06T07:58:41.227000+00:00</time>
      </trkpt>
      <trkpt lat="0" lon="0">
        <time>2020-12-06T07:58:41.232000+00:00</time>
      </trkpt>
      <trkpt lat="0" lon="0">
        <time>2020-12-06T07:58:41.237000+00:00</time>
      </trkpt>
      <trkpt lat="47.26973" lon="-1.40516">
        <ele>4</ele>
        <time>2020-12-06T07:58:42.250000+00:00</time>
      </trkpt>
      <trkpt lat="0" lon="0">
        <time>2020-12-06T07:58:42.255000+00:00</time>
      </trkpt>
      <trkpt lat="0" lon="0">
        <time>2020-12-06T07:58:42.261000+00:00</time>
      </trkpt>
      <trkpt lat="0" lon="0">
        <time>2020-12-06T07:58:42.264000+00:00</time>
      </trkpt>
      <trkpt lat="47.26978" lon="-1.40509">
        <ele>4</ele>
        <time>2020-12-06T07:58:43.238000+00:00</time>
      </trkpt>
      <trkpt lat="0" lon="0">
        <time>2020-12-06T07:58:43.254000+00:00</time>
      </trkpt>
      <trkpt lat="0" lon="0">
        <time>2020-12-06T07:58:43.258000+00:00</time>
      </trkpt>
      <trkpt lat="0" lon="0">
        <time>2020-12-06T07:58:43.263000+00:00</time>
      </trkpt>
      <trkpt lat="47.26983" lon="-1.40502">
        <ele>4</ele>
        <time>2020-12-06T07:58:44.285000+00:00</time>
      </trkpt>
      <trkpt lat="0" lon="0">
        <time>2020-12-06T07:58:44.297000+00:00</time>
      </trkpt>
      <trkpt lat="0" lon="0">
        <time>2020-12-06T07:58:44.303000+00:00</time>
      </trkpt>
      <trkpt lat="0" lon="0">
        <time>2020-12-06T07:58:44.306000+00:00</time>
      </trkpt>
      <trkpt lat="47.26988" lon="-1.40495">
        <ele>4</ele>
        <time>2020-12-06T07:58:45.240000+00:00</time>
      </trkpt>
      <trkpt lat="0" lon="0">
        <time>2020-12-06T07:58:45.250000+00:00</time>
      </trkpt>
      <trkpt lat="0" lon="0">
        <time>2020-12-06T07:58:45.254000+00:00</time>
      </trkpt>
      <trkpt lat="0" lon="0">
        <time>2020-12-06T07:58:45.256000+00:00</time>
      </trkpt>
      <trkpt lat="47.26993" lon="-1.40488">
        <ele>4</ele>
        <time>2020-12-06T07:58:46.260000+00:00</time>
      </trkpt>
      <trkpt lat="0" lon="0">
        <time>2020-12-06T07:58:46.272000+00:00</time>
      </trkpt>
      <trkpt lat="0" lon="0">
        <time>2020-12-06T07:58:46.276000+00:00</time>
      </trkpt>
      <trkpt lat="0" lon="0">
        <time>2020-12-06T07:58:46.278000+00:00</time>
      </trkpt>
      <trkpt lat="47.26998" lon="-1.40481">
        <ele>4</ele>
        <time>2020-12-06T07:58:47.260000+00:00</time>
      </trkpt>
      <trkpt lat="0" lon="0">
        <time>2020-12-06T07:58:47.262000+00:00</time>
      </trkpt>
      <trkpt lat="0" lon="0">
        <time>2020-12-06T07:58:47.263000+00:00</time>
      </trkpt>
      <trkpt lat="0" lon="0">
        <time>2020-12-06T07:58:47.264000+00:00</time>
      </trkpt>
      <trkpt lat="47.27003" lon="-1.40474">
        <ele>4</ele>
        <time>2020-12-06T07:58:48.244000+00:00</time>
      </trkpt>
      <trkpt lat="0" lon="0">
        <time>2020-12-06T07:58:48.253000+00:00</time>
      </trkpt>
      <trkpt lat="0" lon="0">
        <time>2020-12-06T07:58:48.265000+00:00</time>
      </trkpt>
      <trkpt lat="0" lon="0">
        <time>2020-12-06T07:58:48.267000+00:00</time>
      </trkpt>
      <trkpt lat="47.27008" lon="-1.40467">
        <ele>4</ele>
        <time>2020-12-06T07:58:49.246000+00:00</time>
      </trkpt>
      <trkpt lat="0" lon="0">
        <time>2020-12-06T07:58:49.260000+00:00</time>
      </trkpt>
      <trkpt lat="0" lon="0">
        <time>2020-12-06T07:58:49.266000+00:00</time>
      </trkpt>
      <trkpt lat="0" lon="0">
        <time>2020-12-06T07:58:49.269000+00:00</time>
      </trkpt>
      <trkpt lat="47.27013" lon="-1.4046">
        <ele>4</ele>
        <time>2020-12-06T07:58:50.261000+00:00</time>
      </trkpt>
      <trkpt lat="0" lon="0">
        <time>2020-12-06T07:58:50.266000+00:00</time>
      </trkpt>
      <trkpt lat="0" lon="0">
        <time>2020-12-06T07:58:50.274000+00:00</time>
      </trkpt>
      <trkpt lat="0" lon="0">
        <time>2020-12-06T07:58:50.276000+00:00</time>
      </trkpt>
      <trkpt lat="47.27018" lon="-1.40453">
        <ele>4</ele>
        <time>2020-12-06T07:58:51.227000+00:00</time>
      </trkpt>
      <trkpt lat="0" lon="0">
        <time>2020-12-06T07:58:51.239000+00:00</time>
      </trkpt>
      <trkpt lat="0" lon="0">
        <time>2020-12-06T07:58:51.243000+00:00</time>
      </trkpt>
      <trkpt lat="0" lon="0">
        <time>2020-12-06T07:58:51.245000+00:00</time>
      </trkpt>
      <trkpt lat="47.27023" lon="-1.40447">
        <ele>4</ele>
        <time>2020-12-06T07:58:52.214000+00:00</time>
      </trkpt>
      <trkpt lat="0" lon="0">
        <time>2020-12-06T07:58:52.227000+00:00</time>
      </trkpt>
      <trkpt lat="0" lon="0">
        <time>2020-12-06T07:58:52.231000+00:00</time>
      </trkpt>
      <trkpt lat="0" lon="0">
        <time>2020-12-06T07:58:52.234000+00:00</time>
      </trkpt>
      <trkpt lat="47.27028" lon="-1.4044">
        <ele>4</ele>
        <time>2020-12-06T07:58:53.283000+00:00</time>
      </trkpt>
      <trkpt lat="0" lon="0">
        <time>2020-12-06T07:58:53.288000+00:00</time>
      </trkpt>
      <trkpt lat="0" lon="0">
        <time>2020-12-06T07:58:53.291000+00:00</time>
      </trkpt>
      <trkpt lat="0" lon="0">
        <time>2020-12-06T07:58:53.293000+00:00</time>
      </trkpt>
      <trkpt lat="47.27033" lon="-1.40433">
        <ele>4</ele>
        <time>2020-12-06T07:58:54.303000+00:00</time>
      </trkpt>
      <trkpt lat="0" lon="0">
        <time>2020-12-06T07:58:54.313000+00:00</time>
      </trkpt>
      <trkpt lat="0" lon="0">
        <time>2020-12-06T07:58:54.322000+00:00</time>
      </trkpt>
      <trkpt lat="0" lon="0">
        <time>2020-12-06T07:58:54.327000+00:00</time>
      </trkpt>
      <trkpt lat="47.27042" lon="-1.40419">
        <ele>4</ele>
        <time>2020-12-06T07:58:56.183000+00:00</time>
      </trkpt>
      <trkpt lat="0" lon="0">
        <time>2020-12-06T07:58:56.185000+00:00</time>
      </trkpt>
      <trkpt lat="0" lon="0">
        <time>2020-12-06T07:58:56.187000+00:00</time>
      </trkpt>
      <trkpt lat="0" lon="0">
        <time>2020-12-06T07:58:56.188000+00:00</time>
      </trkpt>
      <trkpt lat="47.27047" lon="-1.40412">
        <ele>5</ele>
        <time>2020-12-06T07:58:57.248000+00:00</time>
      </trkpt>
      <trkpt lat="0" lon="0">
        <time>2020-12-06T07:58:57.253000+00:00</time>
      </trkpt>
      <trkpt lat="0" lon="0">
        <time>2020-12-06T07:58:57.264000+00:00</time>
      </trkpt>
      <trkpt lat="0" lon="0">
        <time>2020-12-06T07:58:57.266000+00:00</time>
      </trkpt>
      <trkpt lat="47.27051" lon="-1.40405">
        <ele>5</ele>
        <time>2020-12-06T07:58:58.281000+00:00</time>
      </trkpt>
      <trkpt lat="0" lon="0">
        <time>2020-12-06T07:58:58.299000+00:00</time>
      </trkpt>
      <trkpt lat="0" lon="0">
        <time>2020-12-06T07:58:58.308000+00:00</time>
      </trkpt>
      <trkpt lat="0" lon="0">
        <time>2020-12-06T07:58:58.311000+00:00</time>
      </trkpt>
      <trkpt lat="47.27056" lon="-1.40399">
        <ele>5</ele>
        <time>2020-12-06T07:58:59.263000+00:00</time>
      </trkpt>
      <trkpt lat="0" lon="0">
        <time>2020-12-06T07:58:59.274000+00:00</time>
      </trkpt>
      <trkpt lat="0" lon="0">
        <time>2020-12-06T07:58:59.280000+00:00</time>
      </trkpt>
      <trkpt lat="0" lon="0">
        <time>2020-12-06T07:58:59.282000+00:00</time>
      </trkpt>
      <trkpt lat="47.2706" lon="-1.40392">
        <ele>5</ele>
        <time>2020-12-06T07:59:00.212000+00:00</time>
      </trkpt>
      <trkpt lat="0" lon="0">
        <time>2020-12-06T07:59:00.221000+00:00</time>
      </trkpt>
      <trkpt lat="0" lon="0">
        <time>2020-12-06T07:59:00.227000+00:00</time>
      </trkpt>
      <trkpt lat="0" lon="0">
        <time>2020-12-06T07:59:00.229000+00:00</time>
      </trkpt>
      <trkpt lat="47.27065" lon="-1.40385">
        <ele>5</ele>
        <time>2020-12-06T07:59:01.257000+00:00</time>
      </trkpt>
      <trkpt lat="0" lon="0">
        <time>2020-12-06T07:59:01.265000+00:00</time>
      </trkpt>
      <trkpt lat="0" lon="0">
        <time>2020-12-06T07:59:01.275000+00:00</time>
      </trkpt>
      <trkpt lat="0" lon="0">
        <time>2020-12-06T07:59:01.276000+00:00</time>
      </trkpt>
      <trkpt lat="47.27069" lon="-1.40378">
        <ele>5</ele>
        <time>2020-12-06T07:59:02.227000+00:00</time>
      </trkpt>
      <trkpt lat="0" lon="0">
        <time>2020-12-06T07:59:02.232000+00:00</time>
      </trkpt>
      <trkpt lat="0" lon="0">
        <time>2020-12-06T07:59:02.242000+00:00</time>
      </trkpt>
      <trkpt lat="0" lon="0">
        <time>2020-12-06T07:59:02.248000+00:00</time>
      </trkpt>
      <trkpt lat="47.27074" lon="-1.40371">
        <ele>5</ele>
        <time>2020-12-06T07:59:03.259000+00:00</time>
      </trkpt>
      <trkpt lat="0" lon="0">
        <time>2020-12-06T07:59:03.269000+00:00</time>
      </trkpt>
      <trkpt lat="0" lon="0">
        <time>2020-12-06T07:59:03.279000+00:00</time>
      </trkpt>
      <trkpt lat="0" lon="0">
        <time>2020-12-06T07:59:03.281000+00:00</time>
      </trkpt>
      <trkpt lat="47.27078" lon="-1.40364">
        <ele>5</ele>
        <time>2020-12-06T07:59:04.271000+00:00</time>
      </trkpt>
      <trkpt lat="0" lon="0">
        <time>2020-12-06T07:59:04.286000+00:00</time>
      </trkpt>
      <trkpt lat="0" lon="0">
        <time>2020-12-06T07:59:04.297000+00:00</time>
      </trkpt>
      <trkpt lat="0" lon="0">
        <time>2020-12-06T07:59:04.299000+00:00</time>
      </trkpt>
      <trkpt lat="47.27083" lon="-1.40358">
        <ele>5</ele>
        <time>2020-12-06T07:59:05.181000+00:00</time>
      </trkpt>
      <trkpt lat="0" lon="0">
        <time>2020-12-06T07:59:05.194000+00:00</time>
      </trkpt>
      <trkpt lat="0" lon="0">
        <time>2020-12-06T07:59:05.203000+00:00</time>
      </trkpt>
      <trkpt lat="0" lon="0">
        <time>2020-12-06T07:59:05.205000+00:00</time>
      </trkpt>
      <trkpt lat="47.27087" lon="-1.40351">
        <ele>5</ele>
        <time>2020-12-06T07:59:06.161000+00:00</time>
      </trkpt>
      <trkpt lat="0" lon="0">
        <time>2020-12-06T07:59:06.171000+00:00</time>
      </trkpt>
      <trkpt lat="0" lon="0">
        <time>2020-12-06T07:59:06.172000+00:00</time>
      </trkpt>
      <trkpt lat="0" lon="0">
        <time>2020-12-06T07:59:06.175000+00:00</time>
      </trkpt>
      <trkpt lat="47.27092" lon="-1.40344">
        <ele>5</ele>
        <time>2020-12-06T07:59:07.155000+00:00</time>
      </trkpt>
      <trkpt lat="0" lon="0">
        <time>2020-12-06T07:59:07.158000+00:00</time>
      </trkpt>
      <trkpt lat="0" lon="0">
        <time>2020-12-06T07:59:07.165000+00:00</time>
      </trkpt>
      <trkpt lat="0" lon="0">
        <time>2020-12-06T07:59:07.166000+00:00</time>
      </trkpt>
      <trkpt lat="47.27096" lon="-1.40337">
        <ele>5</ele>
        <time>2020-12-06T07:59:08.275000+00:00</time>
      </trkpt>
      <trkpt lat="0" lon="0">
        <time>2020-12-06T07:59:08.283000+00:00</time>
      </trkpt>
      <trkpt lat="0" lon="0">
        <time>2020-12-06T07:59:08.292000+00:00</time>
      </trkpt>
      <trkpt lat="0" lon="0">
        <time>2020-12-06T07:59:08.302000+00:00</time>
      </trkpt>
      <trkpt lat="47.27101" lon="-1.4033">
        <ele>5</ele>
        <time>2020-12-06T07:59:09.242000+00:00</time>
      </trkpt>
      <trkpt lat="0" lon="0">
        <time>2020-12-06T07:59:09.249000+00:00</time>
      </trkpt>
      <trkpt lat="0" lon="0">
        <time>2020-12-06T07:59:09.254000+00:00</time>
      </trkpt>
      <trkpt lat="0" lon="0">
        <time>2020-12-06T07:59:09.256000+00:00</time>
      </trkpt>
      <trkpt lat="47.27105" lon="-1.40323">
        <ele>5</ele>
        <time>2020-12-06T07:59:10.227000+00:00</time>
      </trkpt>
      <trkpt lat="0" lon="0">
        <time>2020-12-06T07:59:10.247000+00:00</time>
      </trkpt>
      <trkpt lat="0" lon="0">
        <time>2020-12-06T07:59:10.250000+00:00</time>
      </trkpt>
      <trkpt lat="0" lon="0">
        <time>2020-12-06T07:59:10.252000+00:00</time>
      </trkpt>
      <trkpt lat="47.2711" lon="-1.40316">
        <ele>5</ele>
        <time>2020-12-06T07:59:11.270000+00:00</time>
      </trkpt>
      <trkpt lat="0" lon="0">
        <time>2020-12-06T07:59:11.288000+00:00</time>
      </trkpt>
      <trkpt lat="0" lon="0">
        <time>2020-12-06T07:59:11.294000+00:00</time>
      </trkpt>
      <trkpt lat="0" lon="0">
        <time>2020-12-06T07:59:11.296000+00:00</time>
      </trkpt>
      <trkpt lat="47.27114" lon="-1.40309">
        <ele>5</ele>
        <time>2020-12-06T07:59:12.255000+00:00</time>
      </trkpt>
      <trkpt lat="0" lon="0">
        <time>2020-12-06T07:59:12.261000+00:00</time>
      </trkpt>
      <trkpt lat="0" lon="0">
        <time>2020-12-06T07:59:12.266000+00:00</time>
      </trkpt>
      <trkpt lat="0" lon="0">
        <time>2020-12-06T07:59:12.267000+00:00</time>
      </trkpt>
      <trkpt lat="47.27119" lon="-1.40301">
        <ele>5</ele>
        <time>2020-12-06T07:59:13.234000+00:00</time>
      </trkpt>
      <trkpt lat="0" lon="0">
        <time>2020-12-06T07:59:13.251000+00:00</time>
      </trkpt>
      <trkpt lat="0" lon="0">
        <time>2020-12-06T07:59:13.254000+00:00</time>
      </trkpt>
      <trkpt lat="0" lon="0">
        <time>2020-12-06T07:59:13.257000+00:00</time>
      </trkpt>
      <trkpt lat="47.27123" lon="-1.40295">
        <ele>5</ele>
        <time>2020-12-06T07:59:14.273000+00:00</time>
      </trkpt>
      <trkpt lat="0" lon="0">
        <time>2020-12-06T07:59:14.287000+00:00</time>
      </trkpt>
      <trkpt lat="0" lon="0">
        <time>2020-12-06T07:59:14.297000+00:00</time>
      </trkpt>
      <trkpt lat="0" lon="0">
        <time>2020-12-06T07:59:14.299000+00:00</time>
      </trkpt>
      <trkpt lat="47.27128" lon="-1.40287">
        <ele>5</ele>
        <time>2020-12-06T07:59:15.239000+00:00</time>
      </trkpt>
      <trkpt lat="0" lon="0">
        <time>2020-12-06T07:59:15.248000+00:00</time>
      </trkpt>
      <trkpt lat="0" lon="0">
        <time>2020-12-06T07:59:15.254000+00:00</time>
      </trkpt>
      <trkpt lat="0" lon="0">
        <time>2020-12-06T07:59:15.257000+00:00</time>
      </trkpt>
      <trkpt lat="47.27132" lon="-1.4028">
        <ele>5</ele>
        <time>2020-12-06T07:59:16.252000+00:00</time>
      </trkpt>
      <trkpt lat="0" lon="0">
        <time>2020-12-06T07:59:16.253000+00:00</time>
      </trkpt>
      <trkpt lat="0" lon="0">
        <time>2020-12-06T07:59:16.257000+00:00</time>
      </trkpt>
      <trkpt lat="47.27136" lon="-1.40274">
        <ele>5</ele>
        <time>2020-12-06T07:59:17.241000+00:00</time>
      </trkpt>
      <trkpt lat="0" lon="0">
        <time>2020-12-06T07:59:17.254000+00:00</time>
      </trkpt>
      <trkpt lat="0" lon="0">
        <time>2020-12-06T07:59:17.259000+00:00</time>
      </trkpt>
      <trkpt lat="0" lon="0">
        <time>2020-12-06T07:59:17.261000+00:00</time>
      </trkpt>
      <trkpt lat="47.27141" lon="-1.40267">
        <ele>5</ele>
        <time>2020-12-06T07:59:18.173000+00:00</time>
      </trkpt>
      <trkpt lat="0" lon="0">
        <time>2020-12-06T07:59:18.176000+00:00</time>
      </trkpt>
      <trkpt lat="0" lon="0">
        <time>2020-12-06T07:59:18.181000+00:00</time>
      </trkpt>
      <trkpt lat="0" lon="0">
        <time>2020-12-06T07:59:18.183000+00:00</time>
      </trkpt>
      <trkpt lat="47.27145" lon="-1.4026">
        <ele>5</ele>
        <time>2020-12-06T07:59:19.219000+00:00</time>
      </trkpt>
      <trkpt lat="0" lon="0">
        <time>2020-12-06T07:59:19.224000+00:00</time>
      </trkpt>
      <trkpt lat="0" lon="0">
        <time>2020-12-06T07:59:19.226000+00:00</time>
      </trkpt>
      <trkpt lat="0" lon="0">
        <time>2020-12-06T07:59:19.228000+00:00</time>
      </trkpt>
      <trkpt lat="47.2715" lon="-1.40253">
        <ele>5</ele>
        <time>2020-12-06T07:59:20.177000+00:00</time>
      </trkpt>
      <trkpt lat="0" lon="0">
        <time>2020-12-06T07:59:20.179000+00:00</time>
      </trkpt>
      <trkpt lat="0" lon="0">
        <time>2020-12-06T07:59:20.181000+00:00</time>
      </trkpt>
      <trkpt lat="0" lon="0">
        <time>2020-12-06T07:59:20.183000+00:00</time>
      </trkpt>
      <trkpt lat="47.27154" lon="-1.40246">
        <ele>5</ele>
        <time>2020-12-06T07:59:21.242000+00:00</time>
      </trkpt>
      <trkpt lat="0" lon="0">
        <time>2020-12-06T07:59:21.245000+00:00</time>
      </trkpt>
      <trkpt lat="0" lon="0">
        <time>2020-12-06T07:59:21.252000+00:00</time>
      </trkpt>
      <trkpt lat="0" lon="0">
        <time>2020-12-06T07:59:21.254000+00:00</time>
      </trkpt>
      <trkpt lat="47.27158" lon="-1.40239">
        <ele>5</ele>
        <time>2020-12-06T07:59:22.267000+00:00</time>
      </trkpt>
      <trkpt lat="0" lon="0">
        <time>2020-12-06T07:59:22.270000+00:00</time>
      </trkpt>
      <trkpt lat="0" lon="0">
        <time>2020-12-06T07:59:22.283000+00:00</time>
      </trkpt>
      <trkpt lat="0" lon="0">
        <time>2020-12-06T07:59:22.288000+00:00</time>
      </trkpt>
      <trkpt lat="47.27162" lon="-1.40232">
        <ele>5</ele>
        <time>2020-12-06T07:59:23.253000+00:00</time>
      </trkpt>
      <trkpt lat="0" lon="0">
        <time>2020-12-06T07:59:23.264000+00:00</time>
      </trkpt>
      <trkpt lat="0" lon="0">
        <time>2020-12-06T07:59:23.268000+00:00</time>
      </trkpt>
      <trkpt lat="0" lon="0">
        <time>2020-12-06T07:59:23.271000+00:00</time>
      </trkpt>
      <trkpt lat="47.27166" lon="-1.40225">
        <ele>5</ele>
        <time>2020-12-06T07:59:24.261000+00:00</time>
      </trkpt>
      <trkpt lat="0" lon="0">
        <time>2020-12-06T07:59:24.275000+00:00</time>
      </trkpt>
      <trkpt lat="0" lon="0">
        <time>2020-12-06T07:59:24.285000+00:00</time>
      </trkpt>
      <trkpt lat="0" lon="0">
        <time>2020-12-06T07:59:24.287000+00:00</time>
      </trkpt>
      <trkpt lat="47.27171" lon="-1.40218">
        <ele>5</ele>
        <time>2020-12-06T07:59:25.249000+00:00</time>
      </trkpt>
      <trkpt lat="0" lon="0">
        <time>2020-12-06T07:59:25.269000+00:00</time>
      </trkpt>
      <trkpt lat="0" lon="0">
        <time>2020-12-06T07:59:25.272000+00:00</time>
      </trkpt>
      <trkpt lat="0" lon="0">
        <time>2020-12-06T07:59:25.274000+00:00</time>
      </trkpt>
      <trkpt lat="47.27175" lon="-1.40211">
        <ele>5</ele>
        <time>2020-12-06T07:59:26.246000+00:00</time>
      </trkpt>
      <trkpt lat="0" lon="0">
        <time>2020-12-06T07:59:26.259000+00:00</time>
      </trkpt>
      <trkpt lat="0" lon="0">
        <time>2020-12-06T07:59:26.261000+00:00</time>
      </trkpt>
      <trkpt lat="0" lon="0">
        <time>2020-12-06T07:59:26.262000+00:00</time>
      </trkpt>
      <trkpt lat="47.2718" lon="-1.40204">
        <ele>5</ele>
        <time>2020-12-06T07:59:27.263000+00:00</time>
      </trkpt>
      <trkpt lat="0" lon="0">
        <time>2020-12-06T07:59:27.268000+00:00</time>
      </trkpt>
      <trkpt lat="0" lon="0">
        <time>2020-12-06T07:59:27.278000+00:00</time>
      </trkpt>
      <trkpt lat="0" lon="0">
        <time>2020-12-06T07:59:27.281000+00:00</time>
      </trkpt>
      <trkpt lat="47.27184" lon="-1.40197">
        <ele>5</ele>
        <time>2020-12-06T07:59:28.258000+00:00</time>
      </trkpt>
      <trkpt lat="0" lon="0">
        <time>2020-12-06T07:59:28.270000+00:00</time>
      </trkpt>
      <trkpt lat="0" lon="0">
        <time>2020-12-06T07:59:28.274000+00:00</time>
      </trkpt>
      <trkpt lat="0" lon="0">
        <time>2020-12-06T07:59:28.275000+00:00</time>
      </trkpt>
      <trkpt lat="47.27189" lon="-1.40191">
        <ele>5</ele>
        <time>2020-12-06T07:59:29.257000+00:00</time>
      </trkpt>
      <trkpt lat="0" lon="0">
        <time>2020-12-06T07:59:29.270000+00:00</time>
      </trkpt>
      <trkpt lat="0" lon="0">
        <time>2020-12-06T07:59:29.277000+00:00</time>
      </trkpt>
      <trkpt lat="0" lon="0">
        <time>2020-12-06T07:59:29.284000+00:00</time>
      </trkpt>
      <trkpt lat="47.27194" lon="-1.40184">
        <ele>5</ele>
        <time>2020-12-06T07:59:30.249000+00:00</time>
      </trkpt>
      <trkpt lat="0" lon="0">
        <time>2020-12-06T07:59:30.260000+00:00</time>
      </trkpt>
      <trkpt lat="0" lon="0">
        <time>2020-12-06T07:59:30.269000+00:00</time>
      </trkpt>
      <trkpt lat="0" lon="0">
        <time>2020-12-06T07:59:30.271000+00:00</time>
      </trkpt>
      <trkpt lat="47.27199" lon="-1.40178">
        <ele>5</ele>
        <time>2020-12-06T07:59:31.269000+00:00</time>
      </trkpt>
      <trkpt lat="0" lon="0">
        <time>2020-12-06T07:59:31.273000+00:00</time>
      </trkpt>
      <trkpt lat="0" lon="0">
        <time>2020-12-06T07:59:31.278000+00:00</time>
      </trkpt>
      <trkpt lat="0" lon="0">
        <time>2020-12-06T07:59:31.280000+00:00</time>
      </trkpt>
      <trkpt lat="47.27204" lon="-1.40172">
        <ele>5</ele>
        <time>2020-12-06T07:59:32.246000+00:00</time>
      </trkpt>
      <trkpt lat="0" lon="0">
        <time>2020-12-06T07:59:32.256000+00:00</time>
      </trkpt>
      <trkpt lat="0" lon="0">
        <time>2020-12-06T07:59:32.262000+00:00</time>
      </trkpt>
      <trkpt lat="0" lon="0">
        <time>2020-12-06T07:59:32.264000+00:00</time>
      </trkpt>
      <trkpt lat="47.27209" lon="-1.40165">
        <ele>6</ele>
        <time>2020-12-06T07:59:33.258000+00:00</time>
      </trkpt>
      <trkpt lat="0" lon="0">
        <time>2020-12-06T07:59:33.270000+00:00</time>
      </trkpt>
      <trkpt lat="0" lon="0">
        <time>2020-12-06T07:59:33.287000+00:00</time>
      </trkpt>
      <trkpt lat="0" lon="0">
        <time>2020-12-06T07:59:33.290000+00:00</time>
      </trkpt>
      <trkpt lat="47.27213" lon="-1.40158">
        <ele>6</ele>
        <time>2020-12-06T07:59:34.265000+00:00</time>
      </trkpt>
      <trkpt lat="0" lon="0">
        <time>2020-12-06T07:59:34.271000+00:00</time>
      </trkpt>
      <trkpt lat="0" lon="0">
        <time>2020-12-06T07:59:34.274000+00:00</time>
      </trkpt>
      <trkpt lat="0" lon="0">
        <time>2020-12-06T07:59:34.275000+00:00</time>
      </trkpt>
      <trkpt lat="47.27218" lon="-1.40151">
        <ele>6</ele>
        <time>2020-12-06T07:59:35.235000+00:00</time>
      </trkpt>
      <trkpt lat="0" lon="0">
        <time>2020-12-06T07:59:35.238000+00:00</time>
      </trkpt>
      <trkpt lat="0" lon="0">
        <time>2020-12-06T07:59:35.259000+00:00</time>
      </trkpt>
      <trkpt lat="0" lon="0">
        <time>2020-12-06T07:59:35.261000+00:00</time>
      </trkpt>
      <trkpt lat="47.27222" lon="-1.40143">
        <ele>6</ele>
        <time>2020-12-06T07:59:36.277000+00:00</time>
      </trkpt>
      <trkpt lat="0" lon="0">
        <time>2020-12-06T07:59:36.293000+00:00</time>
      </trkpt>
      <trkpt lat="0" lon="0">
        <time>2020-12-06T07:59:36.304000+00:00</time>
      </trkpt>
      <trkpt lat="0" lon="0">
        <time>2020-12-06T07:59:36.311000+00:00</time>
      </trkpt>
      <trkpt lat="47.27226" lon="-1.40136">
        <ele>6</ele>
        <time>2020-12-06T07:59:37.236000+00:00</time>
      </trkpt>
      <trkpt lat="0" lon="0">
        <time>2020-12-06T07:59:37.253000+00:00</time>
      </trkpt>
      <trkpt lat="0" lon="0">
        <time>2020-12-06T07:59:37.257000+00:00</time>
      </trkpt>
      <trkpt lat="0" lon="0">
        <time>2020-12-06T07:59:37.259000+00:00</time>
      </trkpt>
      <trkpt lat="47.27231" lon="-1.40129">
        <ele>6</ele>
        <time>2020-12-06T07:59:38.257000+00:00</time>
      </trkpt>
      <trkpt lat="0" lon="0">
        <time>2020-12-06T07:59:38.272000+00:00</time>
      </trkpt>
      <trkpt lat="0" lon="0">
        <time>2020-12-06T07:59:38.277000+00:00</time>
      </trkpt>
      <trkpt lat="0" lon="0">
        <time>2020-12-06T07:59:38.279000+00:00</time>
      </trkpt>
      <trkpt lat="47.27235" lon="-1.40122">
        <ele>6</ele>
        <time>2020-12-06T07:59:39.240000+00:00</time>
      </trkpt>
      <trkpt lat="0" lon="0">
        <time>2020-12-06T07:59:39.249000+00:00</time>
      </trkpt>
      <trkpt lat="0" lon="0">
        <time>2020-12-06T07:59:39.253000+00:00</time>
      </trkpt>
      <trkpt lat="0" lon="0">
        <time>2020-12-06T07:59:39.255000+00:00</time>
      </trkpt>
      <trkpt lat="47.2724" lon="-1.40115">
        <ele>6</ele>
        <time>2020-12-06T07:59:40.281000+00:00</time>
      </trkpt>
      <trkpt lat="0" lon="0">
        <time>2020-12-06T07:59:40.293000+00:00</time>
      </trkpt>
      <trkpt lat="0" lon="0">
        <time>2020-12-06T07:59:40.295000+00:00</time>
      </trkpt>
      <trkpt lat="0" lon="0">
        <time>2020-12-06T07:59:40.296000+00:00</time>
      </trkpt>
      <trkpt lat="47.27244" lon="-1.40109">
        <ele>6</ele>
        <time>2020-12-06T07:59:41.256000+00:00</time>
      </trkpt>
      <trkpt lat="0" lon="0">
        <time>2020-12-06T07:59:41.262000+00:00</time>
      </trkpt>
      <trkpt lat="0" lon="0">
        <time>2020-12-06T07:59:41.276000+00:00</time>
      </trkpt>
      <trkpt lat="0" lon="0">
        <time>2020-12-06T07:59:41.278000+00:00</time>
      </trkpt>
      <trkpt lat="47.27248" lon="-1.40102">
        <ele>6</ele>
        <time>2020-12-06T07:59:42.287000+00:00</time>
      </trkpt>
      <trkpt lat="0" lon="0">
        <time>2020-12-06T07:59:42.310000+00:00</time>
      </trkpt>
      <trkpt lat="0" lon="0">
        <time>2020-12-06T07:59:42.315000+00:00</time>
      </trkpt>
      <trkpt lat="0" lon="0">
        <time>2020-12-06T07:59:42.317000+00:00</time>
      </trkpt>
      <trkpt lat="47.27253" lon="-1.40095">
        <ele>7</ele>
        <time>2020-12-06T07:59:43.261000+00:00</time>
      </trkpt>
      <trkpt lat="0" lon="0">
        <time>2020-12-06T07:59:43.267000+00:00</time>
      </trkpt>
      <trkpt lat="0" lon="0">
        <time>2020-12-06T07:59:43.274000+00:00</time>
      </trkpt>
      <trkpt lat="0" lon="0">
        <time>2020-12-06T07:59:43.284000+00:00</time>
      </trkpt>
      <trkpt lat="47.27257" lon="-1.40088">
        <ele>7</ele>
        <time>2020-12-06T07:59:44.268000+00:00</time>
      </trkpt>
      <trkpt lat="0" lon="0">
        <time>2020-12-06T07:59:44.277000+00:00</time>
      </trkpt>
      <trkpt lat="0" lon="0">
        <time>2020-12-06T07:59:44.281000+00:00</time>
      </trkpt>
      <trkpt lat="0" lon="0">
        <time>2020-12-06T07:59:44.283000+00:00</time>
      </trkpt>
      <trkpt lat="47.27261" lon="-1.40082">
        <ele>7</ele>
        <time>2020-12-06T07:59:45.258000+00:00</time>
      </trkpt>
      <trkpt lat="0" lon="0">
        <time>2020-12-06T07:59:45.267000+00:00</time>
      </trkpt>
      <trkpt lat="0" lon="0">
        <time>2020-12-06T07:59:45.272000+00:00</time>
      </trkpt>
      <trkpt lat="0" lon="0">
        <time>2020-12-06T07:59:45.274000+00:00</time>
      </trkpt>
      <trkpt lat="47.27266" lon="-1.40075">
        <ele>7</ele>
        <time>2020-12-06T07:59:46.263000+00:00</time>
      </trkpt>
      <trkpt lat="0" lon="0">
        <time>2020-12-06T07:59:46.264000+00:00</time>
      </trkpt>
      <trkpt lat="0" lon="0">
        <time>2020-12-06T07:59:46.266000+00:00</time>
      </trkpt>
      <trkpt lat="0" lon="0">
        <time>2020-12-06T07:59:46.274000+00:00</time>
      </trkpt>
      <trkpt lat="47.2727" lon="-1.40068">
        <ele>7</ele>
        <time>2020-12-06T07:59:47.274000+00:00</time>
      </trkpt>
      <trkpt lat="0" lon="0">
        <time>2020-12-06T07:59:47.287000+00:00</time>
      </trkpt>
      <trkpt lat="0" lon="0">
        <time>2020-12-06T07:59:47.295000+00:00</time>
      </trkpt>
      <trkpt lat="0" lon="0">
        <time>2020-12-06T07:59:47.296000+00:00</time>
      </trkpt>
      <trkpt lat="47.27274" lon="-1.40061">
        <ele>7</ele>
        <time>2020-12-06T07:59:48.251000+00:00</time>
      </trkpt>
      <trkpt lat="0" lon="0">
        <time>2020-12-06T07:59:48.267000+00:00</time>
      </trkpt>
      <trkpt lat="0" lon="0">
        <time>2020-12-06T07:59:48.271000+00:00</time>
      </trkpt>
      <trkpt lat="0" lon="0">
        <time>2020-12-06T07:59:48.277000+00:00</time>
      </trkpt>
      <trkpt lat="47.27279" lon="-1.40055">
        <ele>7</ele>
        <time>2020-12-06T07:59:49.179000+00:00</time>
      </trkpt>
      <trkpt lat="0" lon="0">
        <time>2020-12-06T07:59:49.183000+00:00</time>
      </trkpt>
      <trkpt lat="0" lon="0">
        <time>2020-12-06T07:59:49.191000+00:00</time>
      </trkpt>
      <trkpt lat="0" lon="0">
        <time>2020-12-06T07:59:49.192000+00:00</time>
      </trkpt>
      <trkpt lat="47.27283" lon="-1.40048">
        <ele>7</ele>
        <time>2020-12-06T07:59:50.256000+00:00</time>
      </trkpt>
      <trkpt lat="0" lon="0">
        <time>2020-12-06T07:59:50.266000+00:00</time>
      </trkpt>
      <trkpt lat="0" lon="0">
        <time>2020-12-06T07:59:50.271000+00:00</time>
      </trkpt>
      <trkpt lat="0" lon="0">
        <time>2020-12-06T07:59:50.273000+00:00</time>
      </trkpt>
      <trkpt lat="47.27288" lon="-1.40042">
        <ele>7</ele>
        <time>2020-12-06T07:59:51.243000+00:00</time>
      </trkpt>
      <trkpt lat="0" lon="0">
        <time>2020-12-06T07:59:51.247000+00:00</time>
      </trkpt>
      <trkpt lat="0" lon="0">
        <time>2020-12-06T07:59:51.259000+00:00</time>
      </trkpt>
      <trkpt lat="0" lon="0">
        <time>2020-12-06T07:59:51.268000+00:00</time>
      </trkpt>
      <trkpt lat="47.27292" lon="-1.40035">
        <ele>6</ele>
        <time>2020-12-06T07:59:52.223000+00:00</time>
      </trkpt>
      <trkpt lat="0" lon="0">
        <time>2020-12-06T07:59:52.225000+00:00</time>
      </trkpt>
      <trkpt lat="0" lon="0">
        <time>2020-12-06T07:59:52.226000+00:00</time>
      </trkpt>
      <trkpt lat="0" lon="0">
        <time>2020-12-06T07:59:52.227000+00:00</time>
      </trkpt>
      <trkpt lat="47.27296" lon="-1.40029">
        <ele>6</ele>
        <time>2020-12-06T07:59:53.267000+00:00</time>
      </trkpt>
      <trkpt lat="0" lon="0">
        <time>2020-12-06T07:59:53.272000+00:00</time>
      </trkpt>
      <trkpt lat="0" lon="0">
        <time>2020-12-06T07:59:53.275000+00:00</time>
      </trkpt>
      <trkpt lat="0" lon="0">
        <time>2020-12-06T07:59:53.280000+00:00</time>
      </trkpt>
      <trkpt lat="47.273" lon="-1.40022">
        <ele>6</ele>
        <time>2020-12-06T07:59:54.257000+00:00</time>
      </trkpt>
      <trkpt lat="0" lon="0">
        <time>2020-12-06T07:59:54.263000+00:00</time>
      </trkpt>
      <trkpt lat="0" lon="0">
        <time>2020-12-06T07:59:54.271000+00:00</time>
      </trkpt>
      <trkpt lat="0" lon="0">
        <time>2020-12-06T07:59:54.274000+00:00</time>
      </trkpt>
      <trkpt lat="47.27305" lon="-1.40015">
        <ele>6</ele>
        <time>2020-12-06T07:59:55.218000+00:00</time>
      </trkpt>
      <trkpt lat="0" lon="0">
        <time>2020-12-06T07:59:55.230000+00:00</time>
      </trkpt>
      <trkpt lat="0" lon="0">
        <time>2020-12-06T07:59:55.239000+00:00</time>
      </trkpt>
      <trkpt lat="0" lon="0">
        <time>2020-12-06T07:59:55.242000+00:00</time>
      </trkpt>
      <trkpt lat="47.27309" lon="-1.40008">
        <ele>6</ele>
        <time>2020-12-06T07:59:56.273000+00:00</time>
      </trkpt>
      <trkpt lat="0" lon="0">
        <time>2020-12-06T07:59:56.285000+00:00</time>
      </trkpt>
      <trkpt lat="0" lon="0">
        <time>2020-12-06T07:59:56.297000+00:00</time>
      </trkpt>
      <trkpt lat="0" lon="0">
        <time>2020-12-06T07:59:56.298000+00:00</time>
      </trkpt>
      <trkpt lat="47.27313" lon="-1.40002">
        <ele>6</ele>
        <time>2020-12-06T07:59:57.248000+00:00</time>
      </trkpt>
      <trkpt lat="0" lon="0">
        <time>2020-12-06T07:59:57.259000+00:00</time>
      </trkpt>
      <trkpt lat="0" lon="0">
        <time>2020-12-06T07:59:57.263000+00:00</time>
      </trkpt>
      <trkpt lat="0" lon="0">
        <time>2020-12-06T07:59:57.265000+00:00</time>
      </trkpt>
      <trkpt lat="47.27317" lon="-1.39995">
        <ele>6</ele>
        <time>2020-12-06T07:59:58.270000+00:00</time>
      </trkpt>
      <trkpt lat="0" lon="0">
        <time>2020-12-06T07:59:58.276000+00:00</time>
      </trkpt>
      <trkpt lat="0" lon="0">
        <time>2020-12-06T07:59:58.278000+00:00</time>
      </trkpt>
      <trkpt lat="0" lon="0">
        <time>2020-12-06T07:59:58.282000+00:00</time>
      </trkpt>
      <trkpt lat="47.27321" lon="-1.39988">
        <ele>6</ele>
        <time>2020-12-06T07:59:59.260000+00:00</time>
      </trkpt>
      <trkpt lat="0" lon="0">
        <time>2020-12-06T07:59:59.267000+00:00</time>
      </trkpt>
      <trkpt lat="0" lon="0">
        <time>2020-12-06T07:59:59.271000+00:00</time>
      </trkpt>
      <trkpt lat="0" lon="0">
        <time>2020-12-06T07:59:59.279000+00:00</time>
      </trkpt>
      <trkpt lat="47.27325" lon="-1.39981">
        <ele>6</ele>
        <time>2020-12-06T08:00:00.283000+00:00</time>
      </trkpt>
      <trkpt lat="0" lon="0">
        <time>2020-12-06T08:00:00.293000+00:00</time>
      </trkpt>
      <trkpt lat="0" lon="0">
        <time>2020-12-06T08:00:00.303000+00:00</time>
      </trkpt>
      <trkpt lat="0" lon="0">
        <time>2020-12-06T08:00:00.310000+00:00</time>
      </trkpt>
      <trkpt lat="47.27329" lon="-1.39974">
        <ele>6</ele>
        <time>2020-12-06T08:00:01.255000+00:00</time>
      </trkpt>
      <trkpt lat="0" lon="0">
        <time>2020-12-06T08:00:01.266000+00:00</time>
      </trkpt>
      <trkpt lat="0" lon="0">
        <time>2020-12-06T08:00:01.270000+00:00</time>
      </trkpt>
      <trkpt lat="0" lon="0">
        <time>2020-12-06T08:00:01.273000+00:00</time>
      </trkpt>
      <trkpt lat="47.27334" lon="-1.39967">
        <ele>6</ele>
        <time>2020-12-06T08:00:02.237000+00:00</time>
      </trkpt>
      <trkpt lat="0" lon="0">
        <time>2020-12-06T08:00:02.256000+00:00</time>
      </trkpt>
      <trkpt lat="0" lon="0">
        <time>2020-12-06T08:00:02.259000+00:00</time>
      </trkpt>
      <trkpt lat="0" lon="0">
        <time>2020-12-06T08:00:02.262000+00:00</time>
      </trkpt>
      <trkpt lat="47.27338" lon="-1.3996">
        <ele>5</ele>
        <time>2020-12-06T08:00:03.238000+00:00</time>
      </trkpt>
      <trkpt lat="0" lon="0">
        <time>2020-12-06T08:00:03.243000+00:00</time>
      </trkpt>
      <trkpt lat="0" lon="0">
        <time>2020-12-06T08:00:03.250000+00:00</time>
      </trkpt>
      <trkpt lat="0" lon="0">
        <time>2020-12-06T08:00:03.253000+00:00</time>
      </trkpt>
      <trkpt lat="47.27342" lon="-1.39954">
        <ele>5</ele>
        <time>2020-12-06T08:00:04.295000+00:00</time>
      </trkpt>
      <trkpt lat="0" lon="0">
        <time>2020-12-06T08:00:04.297000+00:00</time>
      </trkpt>
      <trkpt lat="0" lon="0">
        <time>2020-12-06T08:00:04.300000+00:00</time>
      </trkpt>
      <trkpt lat="0" lon="0">
        <time>2020-12-06T08:00:04.301000+00:00</time>
      </trkpt>
      <trkpt lat="47.27346" lon="-1.39947">
        <ele>5</ele>
        <time>2020-12-06T08:00:05.249000+00:00</time>
      </trkpt>
      <trkpt lat="0" lon="0">
        <time>2020-12-06T08:00:05.254000+00:00</time>
      </trkpt>
      <trkpt lat="0" lon="0">
        <time>2020-12-06T08:00:05.268000+00:00</time>
      </trkpt>
      <trkpt lat="0" lon="0">
        <time>2020-12-06T08:00:05.270000+00:00</time>
      </trkpt>
      <trkpt lat="47.2735" lon="-1.39941">
        <ele>5</ele>
        <time>2020-12-06T08:00:06.275000+00:00</time>
      </trkpt>
      <trkpt lat="0" lon="0">
        <time>2020-12-06T08:00:06.295000+00:00</time>
      </trkpt>
      <trkpt lat="0" lon="0">
        <time>2020-12-06T08:00:06.304000+00:00</time>
      </trkpt>
      <trkpt lat="0" lon="0">
        <time>2020-12-06T08:00:06.306000+00:00</time>
      </trkpt>
      <trkpt lat="47.27354" lon="-1.39934">
        <ele>5</ele>
        <time>2020-12-06T08:00:07.246000+00:00</time>
      </trkpt>
      <trkpt lat="0" lon="0">
        <time>2020-12-06T08:00:07.259000+00:00</time>
      </trkpt>
      <trkpt lat="0" lon="0">
        <time>2020-12-06T08:00:07.263000+00:00</time>
      </trkpt>
      <trkpt lat="0" lon="0">
        <time>2020-12-06T08:00:07.267000+00:00</time>
      </trkpt>
      <trkpt lat="47.27358" lon="-1.39927">
        <ele>5</ele>
        <time>2020-12-06T08:00:08.261000+00:00</time>
      </trkpt>
      <trkpt lat="0" lon="0">
        <time>2020-12-06T08:00:08.282000+00:00</time>
      </trkpt>
      <trkpt lat="0" lon="0">
        <time>2020-12-06T08:00:08.289000+00:00</time>
      </trkpt>
      <trkpt lat="0" lon="0">
        <time>2020-12-06T08:00:08.291000+00:00</time>
      </trkpt>
      <trkpt lat="47.27362" lon="-1.39921">
        <ele>5</ele>
        <time>2020-12-06T08:00:09.258000+00:00</time>
      </trkpt>
      <trkpt lat="0" lon="0">
        <time>2020-12-06T08:00:09.280000+00:00</time>
      </trkpt>
      <trkpt lat="0" lon="0">
        <time>2020-12-06T08:00:09.287000+00:00</time>
      </trkpt>
      <trkpt lat="0" lon="0">
        <time>2020-12-06T08:00:09.290000+00:00</time>
      </trkpt>
      <trkpt lat="47.27366" lon="-1.39914">
        <ele>5</ele>
        <time>2020-12-06T08:00:10.252000+00:00</time>
      </trkpt>
      <trkpt lat="0" lon="0">
        <time>2020-12-06T08:00:10.255000+00:00</time>
      </trkpt>
      <trkpt lat="0" lon="0">
        <time>2020-12-06T08:00:10.269000+00:00</time>
      </trkpt>
      <trkpt lat="0" lon="0">
        <time>2020-12-06T08:00:10.271000+00:00</time>
      </trkpt>
      <trkpt lat="47.2737" lon="-1.39908">
        <ele>5</ele>
        <time>2020-12-06T08:00:11.264000+00:00</time>
      </trkpt>
      <trkpt lat="0" lon="0">
        <time>2020-12-06T08:00:11.268000+00:00</time>
      </trkpt>
      <trkpt lat="0" lon="0">
        <time>2020-12-06T08:00:11.271000+00:00</time>
      </trkpt>
      <trkpt lat="0" lon="0">
        <time>2020-12-06T08:00:11.273000+00:00</time>
      </trkpt>
      <trkpt lat="47.27375" lon="-1.39901">
        <ele>5</ele>
        <time>2020-12-06T08:00:12.261000+00:00</time>
      </trkpt>
      <trkpt lat="0" lon="0">
        <time>2020-12-06T08:00:12.275000+00:00</time>
      </trkpt>
      <trkpt lat="0" lon="0">
        <time>2020-12-06T08:00:12.288000+00:00</time>
      </trkpt>
      <trkpt lat="0" lon="0">
        <time>2020-12-06T08:00:12.290000+00:00</time>
      </trkpt>
      <trkpt lat="47.27379" lon="-1.39895">
        <ele>5</ele>
        <time>2020-12-06T08:00:13.263000+00:00</time>
      </trkpt>
      <trkpt lat="0" lon="0">
        <time>2020-12-06T08:00:13.276000+00:00</time>
      </trkpt>
      <trkpt lat="0" lon="0">
        <time>2020-12-06T08:00:13.281000+00:00</time>
      </trkpt>
      <trkpt lat="0" lon="0">
        <time>2020-12-06T08:00:13.285000+00:00</time>
      </trkpt>
      <trkpt lat="47.27383" lon="-1.39889">
        <ele>5</ele>
        <time>2020-12-06T08:00:14.303000+00:00</time>
      </trkpt>
      <trkpt lat="0" lon="0">
        <time>2020-12-06T08:00:14.316000+00:00</time>
      </trkpt>
      <trkpt lat="0" lon="0">
        <time>2020-12-06T08:00:14.324000+00:00</time>
      </trkpt>
      <trkpt lat="0" lon="0">
        <time>2020-12-06T08:00:14.330000+00:00</time>
      </trkpt>
      <trkpt lat="47.27388" lon="-1.39884">
        <ele>5</ele>
        <time>2020-12-06T08:00:15.259000+00:00</time>
      </trkpt>
      <trkpt lat="0" lon="0">
        <time>2020-12-06T08:00:15.267000+00:00</time>
      </trkpt>
      <trkpt lat="0" lon="0">
        <time>2020-12-06T08:00:15.274000+00:00</time>
      </trkpt>
      <trkpt lat="0" lon="0">
        <time>2020-12-06T08:00:15.276000+00:00</time>
      </trkpt>
      <trkpt lat="47.27393" lon="-1.39881">
        <ele>4</ele>
        <time>2020-12-06T08:00:16.238000+00:00</time>
      </trkpt>
      <trkpt lat="0" lon="0">
        <time>2020-12-06T08:00:16.243000+00:00</time>
      </trkpt>
      <trkpt lat="0" lon="0">
        <time>2020-12-06T08:00:16.245000+00:00</time>
      </trkpt>
      <trkpt lat="0" lon="0">
        <time>2020-12-06T08:00:16.246000+00:00</time>
      </trkpt>
      <trkpt lat="47.27398" lon="-1.39879">
        <ele>4</ele>
        <time>2020-12-06T08:00:17.245000+00:00</time>
      </trkpt>
      <trkpt lat="0" lon="0">
        <time>2020-12-06T08:00:17.257000+00:00</time>
      </trkpt>
      <trkpt lat="0" lon="0">
        <time>2020-12-06T08:00:17.261000+00:00</time>
      </trkpt>
      <trkpt lat="0" lon="0">
        <time>2020-12-06T08:00:17.263000+00:00</time>
      </trkpt>
      <trkpt lat="47.27404" lon="-1.39877">
        <ele>4</ele>
        <time>2020-12-06T08:00:18.245000+00:00</time>
      </trkpt>
      <trkpt lat="0" lon="0">
        <time>2020-12-06T08:00:18.250000+00:00</time>
      </trkpt>
      <trkpt lat="0" lon="0">
        <time>2020-12-06T08:00:18.254000+00:00</time>
      </trkpt>
      <trkpt lat="0" lon="0">
        <time>2020-12-06T08:00:18.256000+00:00</time>
      </trkpt>
      <trkpt lat="47.2741" lon="-1.39877">
        <ele>4</ele>
        <time>2020-12-06T08:00:19.239000+00:00</time>
      </trkpt>
      <trkpt lat="0" lon="0">
        <time>2020-12-06T08:00:19.246000+00:00</time>
      </trkpt>
      <trkpt lat="0" lon="0">
        <time>2020-12-06T08:00:19.250000+00:00</time>
      </trkpt>
      <trkpt lat="0" lon="0">
        <time>2020-12-06T08:00:19.253000+00:00</time>
      </trkpt>
      <trkpt lat="47.27416" lon="-1.39877">
        <ele>4</ele>
        <time>2020-12-06T08:00:20.266000+00:00</time>
      </trkpt>
      <trkpt lat="0" lon="0">
        <time>2020-12-06T08:00:20.282000+00:00</time>
      </trkpt>
      <trkpt lat="0" lon="0">
        <time>2020-12-06T08:00:20.285000+00:00</time>
      </trkpt>
      <trkpt lat="0" lon="0">
        <time>2020-12-06T08:00:20.287000+00:00</time>
      </trkpt>
      <trkpt lat="47.27422" lon="-1.39877">
        <ele>4</ele>
        <time>2020-12-06T08:00:21.230000+00:00</time>
      </trkpt>
      <trkpt lat="0" lon="0">
        <time>2020-12-06T08:00:21.242000+00:00</time>
      </trkpt>
      <trkpt lat="0" lon="0">
        <time>2020-12-06T08:00:21.250000+00:00</time>
      </trkpt>
      <trkpt lat="0" lon="0">
        <time>2020-12-06T08:00:21.255000+00:00</time>
      </trkpt>
      <trkpt lat="47.27427" lon="-1.39875">
        <ele>4</ele>
        <time>2020-12-06T08:00:22.218000+00:00</time>
      </trkpt>
      <trkpt lat="0" lon="0">
        <time>2020-12-06T08:00:22.222000+00:00</time>
      </trkpt>
      <trkpt lat="0" lon="0">
        <time>2020-12-06T08:00:22.226000+00:00</time>
      </trkpt>
      <trkpt lat="0" lon="0">
        <time>2020-12-06T08:00:22.227000+00:00</time>
      </trkpt>
      <trkpt lat="47.27432" lon="-1.39873">
        <ele>4</ele>
        <time>2020-12-06T08:00:23.254000+00:00</time>
      </trkpt>
      <trkpt lat="0" lon="0">
        <time>2020-12-06T08:00:23.263000+00:00</time>
      </trkpt>
      <trkpt lat="0" lon="0">
        <time>2020-12-06T08:00:23.267000+00:00</time>
      </trkpt>
      <trkpt lat="0" lon="0">
        <time>2020-12-06T08:00:23.269000+00:00</time>
      </trkpt>
      <trkpt lat="47.27436" lon="-1.39869">
        <ele>4</ele>
        <time>2020-12-06T08:00:24.267000+00:00</time>
      </trkpt>
      <trkpt lat="0" lon="0">
        <time>2020-12-06T08:00:24.284000+00:00</time>
      </trkpt>
      <trkpt lat="0" lon="0">
        <time>2020-12-06T08:00:24.293000+00:00</time>
      </trkpt>
      <trkpt lat="0" lon="0">
        <time>2020-12-06T08:00:24.295000+00:00</time>
      </trkpt>
      <trkpt lat="47.27439" lon="-1.39865">
        <ele>4</ele>
        <time>2020-12-06T08:00:25.255000+00:00</time>
      </trkpt>
      <trkpt lat="0" lon="0">
        <time>2020-12-06T08:00:25.267000+00:00</time>
      </trkpt>
      <trkpt lat="0" lon="0">
        <time>2020-12-06T08:00:25.281000+00:00</time>
      </trkpt>
      <trkpt lat="0" lon="0">
        <time>2020-12-06T08:00:25.285000+00:00</time>
      </trkpt>
      <trkpt lat="47.27442" lon="-1.39859">
        <ele>4</ele>
        <time>2020-12-06T08:00:26.247000+00:00</time>
      </trkpt>
      <trkpt lat="0" lon="0">
        <time>2020-12-06T08:00:26.254000+00:00</time>
      </trkpt>
      <trkpt lat="0" lon="0">
        <time>2020-12-06T08:00:26.265000+00:00</time>
      </trkpt>
      <trkpt lat="0" lon="0">
        <time>2020-12-06T08:00:26.266000+00:00</time>
      </trkpt>
      <trkpt lat="47.27445" lon="-1.39853">
        <ele>4</ele>
        <time>2020-12-06T08:00:27.239000+00:00</time>
      </trkpt>
      <trkpt lat="0" lon="0">
        <time>2020-12-06T08:00:27.245000+00:00</time>
      </trkpt>
      <trkpt lat="0" lon="0">
        <time>2020-12-06T08:00:27.253000+00:00</time>
      </trkpt>
      <trkpt lat="0" lon="0">
        <time>2020-12-06T08:00:27.256000+00:00</time>
      </trkpt>
      <trkpt lat="47.27447" lon="-1.39846">
        <ele>4</ele>
        <time>2020-12-06T08:00:28.215000+00:00</time>
      </trkpt>
      <trkpt lat="0" lon="0">
        <time>2020-12-06T08:00:28.218000+00:00</time>
      </trkpt>
      <trkpt lat="0" lon="0">
        <time>2020-12-06T08:00:28.224000+00:00</time>
      </trkpt>
      <trkpt lat="0" lon="0">
        <time>2020-12-06T08:00:28.226000+00:00</time>
      </trkpt>
      <trkpt lat="47.27449" lon="-1.39838">
        <ele>4</ele>
        <time>2020-12-06T08:00:29.232000+00:00</time>
      </trkpt>
      <trkpt lat="0" lon="0">
        <time>2020-12-06T08:00:29.243000+00:00</time>
      </trkpt>
      <trkpt lat="0" lon="0">
        <time>2020-12-06T08:00:29.245000+00:00</time>
      </trkpt>
      <trkpt lat="0" lon="0">
        <time>2020-12-06T08:00:29.247000+00:00</time>
      </trkpt>
      <trkpt lat="47.27451" lon="-1.3983">
        <ele>4</ele>
        <time>2020-12-06T08:00:30.261000+00:00</time>
      </trkpt>
      <trkpt lat="0" lon="0">
        <time>2020-12-06T08:00:30.270000+00:00</time>
      </trkpt>
      <trkpt lat="0" lon="0">
        <time>2020-12-06T08:00:30.278000+00:00</time>
      </trkpt>
      <trkpt lat="0" lon="0">
        <time>2020-12-06T08:00:30.281000+00:00</time>
      </trkpt>
      <trkpt lat="47.27454" lon="-1.39822">
        <ele>4</ele>
        <time>2020-12-06T08:00:31.241000+00:00</time>
      </trkpt>
      <trkpt lat="0" lon="0">
        <time>2020-12-06T08:00:31.253000+00:00</time>
      </trkpt>
      <trkpt lat="0" lon="0">
        <time>2020-12-06T08:00:31.258000+00:00</time>
      </trkpt>
      <trkpt lat="0" lon="0">
        <time>2020-12-06T08:00:31.260000+00:00</time>
      </trkpt>
      <trkpt lat="47.27456" lon="-1.39813">
        <ele>4</ele>
        <time>2020-12-06T08:00:32.273000+00:00</time>
      </trkpt>
      <trkpt lat="0" lon="0">
        <time>2020-12-06T08:00:32.284000+00:00</time>
      </trkpt>
      <trkpt lat="0" lon="0">
        <time>2020-12-06T08:00:32.289000+00:00</time>
      </trkpt>
      <trkpt lat="0" lon="0">
        <time>2020-12-06T08:00:32.291000+00:00</time>
      </trkpt>
      <trkpt lat="47.27459" lon="-1.39804">
        <ele>4</ele>
        <time>2020-12-06T08:00:33.266000+00:00</time>
      </trkpt>
      <trkpt lat="0" lon="0">
        <time>2020-12-06T08:00:33.283000+00:00</time>
      </trkpt>
      <trkpt lat="0" lon="0">
        <time>2020-12-06T08:00:33.288000+00:00</time>
      </trkpt>
      <trkpt lat="0" lon="0">
        <time>2020-12-06T08:00:33.290000+00:00</time>
      </trkpt>
      <trkpt lat="47.27462" lon="-1.39795">
        <ele>4</ele>
        <time>2020-12-06T08:00:34.234000+00:00</time>
      </trkpt>
      <trkpt lat="0" lon="0">
        <time>2020-12-06T08:00:34.247000+00:00</time>
      </trkpt>
      <trkpt lat="0" lon="0">
        <time>2020-12-06T08:00:34.255000+00:00</time>
      </trkpt>
      <trkpt lat="0" lon="0">
        <time>2020-12-06T08:00:34.257000+00:00</time>
      </trkpt>
      <trkpt lat="47.27466" lon="-1.39786">
        <ele>4</ele>
        <time>2020-12-06T08:00:35.237000+00:00</time>
      </trkpt>
      <trkpt lat="0" lon="0">
        <time>2020-12-06T08:00:35.241000+00:00</time>
      </trkpt>
      <trkpt lat="0" lon="0">
        <time>2020-12-06T08:00:35.245000+00:00</time>
      </trkpt>
      <trkpt lat="0" lon="0">
        <time>2020-12-06T08:00:35.260000+00:00</time>
      </trkpt>
      <trkpt lat="47.27469" lon="-1.39777">
        <ele>4</ele>
        <time>2020-12-06T08:00:36.269000+00:00</time>
      </trkpt>
      <trkpt lat="0" lon="0">
        <time>2020-12-06T08:00:36.284000+00:00</time>
      </trkpt>
      <trkpt lat="0" lon="0">
        <time>2020-12-06T08:00:36.288000+00:00</time>
      </trkpt>
      <trkpt lat="0" lon="0">
        <time>2020-12-06T08:00:36.290000+00:00</time>
      </trkpt>
      <trkpt lat="47.27473" lon="-1.39767">
        <ele>4</ele>
        <time>2020-12-06T08:00:37.232000+00:00</time>
      </trkpt>
      <trkpt lat="0" lon="0">
        <time>2020-12-06T08:00:37.234000+00:00</time>
      </trkpt>
      <trkpt lat="0" lon="0">
        <time>2020-12-06T08:00:37.259000+00:00</time>
      </trkpt>
      <trkpt lat="0" lon="0">
        <time>2020-12-06T08:00:37.262000+00:00</time>
      </trkpt>
      <trkpt lat="47.27477" lon="-1.39758">
        <ele>4</ele>
        <time>2020-12-06T08:00:38.258000+00:00</time>
      </trkpt>
      <trkpt lat="0" lon="0">
        <time>2020-12-06T08:00:38.282000+00:00</time>
      </trkpt>
      <trkpt lat="0" lon="0">
        <time>2020-12-06T08:00:38.288000+00:00</time>
      </trkpt>
      <trkpt lat="0" lon="0">
        <time>2020-12-06T08:00:38.291000+00:00</time>
      </trkpt>
      <trkpt lat="47.2748" lon="-1.3975">
        <ele>5</ele>
        <time>2020-12-06T08:00:39.258000+00:00</time>
      </trkpt>
      <trkpt lat="0" lon="0">
        <time>2020-12-06T08:00:39.266000+00:00</time>
      </trkpt>
      <trkpt lat="0" lon="0">
        <time>2020-12-06T08:00:39.267000+00:00</time>
      </trkpt>
      <trkpt lat="0" lon="0">
        <time>2020-12-06T08:00:39.268000+00:00</time>
      </trkpt>
      <trkpt lat="47.27484" lon="-1.39741">
        <ele>4</ele>
        <time>2020-12-06T08:00:40.185000+00:00</time>
      </trkpt>
      <trkpt lat="0" lon="0">
        <time>2020-12-06T08:00:40.192000+00:00</time>
      </trkpt>
      <trkpt lat="0" lon="0">
        <time>2020-12-06T08:00:40.202000+00:00</time>
      </trkpt>
      <trkpt lat="0" lon="0">
        <time>2020-12-06T08:00:40.204000+00:00</time>
      </trkpt>
      <trkpt lat="47.27488" lon="-1.39732">
        <ele>4</ele>
        <time>2020-12-06T08:00:41.269000+00:00</time>
      </trkpt>
      <trkpt lat="0" lon="0">
        <time>2020-12-06T08:00:41.279000+00:00</time>
      </trkpt>
      <trkpt lat="0" lon="0">
        <time>2020-12-06T08:00:41.289000+00:00</time>
      </trkpt>
      <trkpt lat="0" lon="0">
        <time>2020-12-06T08:00:41.294000+00:00</time>
      </trkpt>
      <trkpt lat="47.27491" lon="-1.39724">
        <ele>4</ele>
        <time>2020-12-06T08:00:42.233000+00:00</time>
      </trkpt>
      <trkpt lat="0" lon="0">
        <time>2020-12-06T08:00:42.243000+00:00</time>
      </trkpt>
      <trkpt lat="0" lon="0">
        <time>2020-12-06T08:00:42.247000+00:00</time>
      </trkpt>
      <trkpt lat="0" lon="0">
        <time>2020-12-06T08:00:42.250000+00:00</time>
      </trkpt>
      <trkpt lat="47.27495" lon="-1.39716">
        <ele>4</ele>
        <time>2020-12-06T08:00:43.250000+00:00</time>
      </trkpt>
      <trkpt lat="0" lon="0">
        <time>2020-12-06T08:00:43.259000+00:00</time>
      </trkpt>
      <trkpt lat="0" lon="0">
        <time>2020-12-06T08:00:43.263000+00:00</time>
      </trkpt>
      <trkpt lat="0" lon="0">
        <time>2020-12-06T08:00:43.266000+00:00</time>
      </trkpt>
      <trkpt lat="47.27498" lon="-1.39708">
        <ele>4</ele>
        <time>2020-12-06T08:00:44.228000+00:00</time>
      </trkpt>
      <trkpt lat="0" lon="0">
        <time>2020-12-06T08:00:44.237000+00:00</time>
      </trkpt>
      <trkpt lat="0" lon="0">
        <time>2020-12-06T08:00:44.248000+00:00</time>
      </trkpt>
      <trkpt lat="0" lon="0">
        <time>2020-12-06T08:00:44.250000+00:00</time>
      </trkpt>
      <trkpt lat="47.27502" lon="-1.39701">
        <ele>4</ele>
        <time>2020-12-06T08:00:45.196000+00:00</time>
      </trkpt>
      <trkpt lat="0" lon="0">
        <time>2020-12-06T08:00:45.211000+00:00</time>
      </trkpt>
      <trkpt lat="0" lon="0">
        <time>2020-12-06T08:00:45.218000+00:00</time>
      </trkpt>
      <trkpt lat="0" lon="0">
        <time>2020-12-06T08:00:45.219000+00:00</time>
      </trkpt>
      <trkpt lat="47.27506" lon="-1.39693">
        <ele>4</ele>
        <time>2020-12-06T08:00:46.270000+00:00</time>
      </trkpt>
      <trkpt lat="0" lon="0">
        <time>2020-12-06T08:00:46.280000+00:00</time>
      </trkpt>
      <trkpt lat="0" lon="0">
        <time>2020-12-06T08:00:46.290000+00:00</time>
      </trkpt>
      <trkpt lat="0" lon="0">
        <time>2020-12-06T08:00:46.293000+00:00</time>
      </trkpt>
      <trkpt lat="47.27511" lon="-1.39686">
        <ele>4</ele>
        <time>2020-12-06T08:00:47.243000+00:00</time>
      </trkpt>
      <trkpt lat="0" lon="0">
        <time>2020-12-06T08:00:47.246000+00:00</time>
      </trkpt>
      <trkpt lat="0" lon="0">
        <time>2020-12-06T08:00:47.251000+00:00</time>
      </trkpt>
      <trkpt lat="0" lon="0">
        <time>2020-12-06T08:00:47.253000+00:00</time>
      </trkpt>
      <trkpt lat="47.27515" lon="-1.39679">
        <ele>4</ele>
        <time>2020-12-06T08:00:48.246000+00:00</time>
      </trkpt>
      <trkpt lat="0" lon="0">
        <time>2020-12-06T08:00:48.250000+00:00</time>
      </trkpt>
      <trkpt lat="0" lon="0">
        <time>2020-12-06T08:00:48.259000+00:00</time>
      </trkpt>
      <trkpt lat="0" lon="0">
        <time>2020-12-06T08:00:48.270000+00:00</time>
      </trkpt>
      <trkpt lat="47.27519" lon="-1.39672">
        <ele>4</ele>
        <time>2020-12-06T08:00:49.242000+00:00</time>
      </trkpt>
      <trkpt lat="0" lon="0">
        <time>2020-12-06T08:00:49.263000+00:00</time>
      </trkpt>
      <trkpt lat="0" lon="0">
        <time>2020-12-06T08:00:49.266000+00:00</time>
      </trkpt>
      <trkpt lat="0" lon="0">
        <time>2020-12-06T08:00:49.268000+00:00</time>
      </trkpt>
      <trkpt lat="47.27524" lon="-1.39665">
        <ele>4</ele>
        <time>2020-12-06T08:00:50.259000+00:00</time>
      </trkpt>
      <trkpt lat="0" lon="0">
        <time>2020-12-06T08:00:50.265000+00:00</time>
      </trkpt>
      <trkpt lat="0" lon="0">
        <time>2020-12-06T08:00:50.266000+00:00</time>
      </trkpt>
      <trkpt lat="0" lon="0">
        <time>2020-12-06T08:00:50.267000+00:00</time>
      </trkpt>
      <trkpt lat="47.27529" lon="-1.39658">
        <ele>4</ele>
        <time>2020-12-06T08:00:51.236000+00:00</time>
      </trkpt>
      <trkpt lat="0" lon="0">
        <time>2020-12-06T08:00:51.243000+00:00</time>
      </trkpt>
      <trkpt lat="0" lon="0">
        <time>2020-12-06T08:00:51.253000+00:00</time>
      </trkpt>
      <trkpt lat="0" lon="0">
        <time>2020-12-06T08:00:51.262000+00:00</time>
      </trkpt>
      <trkpt lat="47.27533" lon="-1.39652">
        <ele>4</ele>
        <time>2020-12-06T08:00:52.285000+00:00</time>
      </trkpt>
      <trkpt lat="0" lon="0">
        <time>2020-12-06T08:00:52.291000+00:00</time>
      </trkpt>
      <trkpt lat="0" lon="0">
        <time>2020-12-06T08:00:52.304000+00:00</time>
      </trkpt>
      <trkpt lat="0" lon="0">
        <time>2020-12-06T08:00:52.306000+00:00</time>
      </trkpt>
      <trkpt lat="47.27538" lon="-1.39645">
        <ele>4</ele>
        <time>2020-12-06T08:00:53.266000+00:00</time>
      </trkpt>
      <trkpt lat="0" lon="0">
        <time>2020-12-06T08:00:53.270000+00:00</time>
      </trkpt>
      <trkpt lat="0" lon="0">
        <time>2020-12-06T08:00:53.275000+00:00</time>
      </trkpt>
      <trkpt lat="0" lon="0">
        <time>2020-12-06T08:00:53.278000+00:00</time>
      </trkpt>
      <trkpt lat="47.27542" lon="-1.39638">
        <ele>4</ele>
        <time>2020-12-06T08:00:54.286000+00:00</time>
      </trkpt>
      <trkpt lat="0" lon="0">
        <time>2020-12-06T08:00:54.297000+00:00</time>
      </trkpt>
      <trkpt lat="0" lon="0">
        <time>2020-12-06T08:00:54.308000+00:00</time>
      </trkpt>
      <trkpt lat="0" lon="0">
        <time>2020-12-06T08:00:54.311000+00:00</time>
      </trkpt>
      <trkpt lat="47.27547" lon="-1.39631">
        <ele>3</ele>
        <time>2020-12-06T08:00:55.248000+00:00</time>
      </trkpt>
      <trkpt lat="0" lon="0">
        <time>2020-12-06T08:00:55.257000+00:00</time>
      </trkpt>
      <trkpt lat="0" lon="0">
        <time>2020-12-06T08:00:55.260000+00:00</time>
      </trkpt>
      <trkpt lat="0" lon="0">
        <time>2020-12-06T08:00:55.262000+00:00</time>
      </trkpt>
      <trkpt lat="47.27551" lon="-1.39624">
        <ele>3</ele>
        <time>2020-12-06T08:00:56.258000+00:00</time>
      </trkpt>
      <trkpt lat="0" lon="0">
        <time>2020-12-06T08:00:56.262000+00:00</time>
      </trkpt>
      <trkpt lat="0" lon="0">
        <time>2020-12-06T08:00:56.277000+00:00</time>
      </trkpt>
      <trkpt lat="0" lon="0">
        <time>2020-12-06T08:00:56.278000+00:00</time>
      </trkpt>
      <trkpt lat="47.27556" lon="-1.39617">
        <ele>3</ele>
        <time>2020-12-06T08:00:57.284000+00:00</time>
      </trkpt>
      <trkpt lat="0" lon="0">
        <time>2020-12-06T08:00:57.287000+00:00</time>
      </trkpt>
      <trkpt lat="0" lon="0">
        <time>2020-12-06T08:00:57.294000+00:00</time>
      </trkpt>
      <trkpt lat="0" lon="0">
        <time>2020-12-06T08:00:57.296000+00:00</time>
      </trkpt>
      <trkpt lat="47.2756" lon="-1.3961">
        <ele>3</ele>
        <time>2020-12-06T08:00:58.276000+00:00</time>
      </trkpt>
      <trkpt lat="0" lon="0">
        <time>2020-12-06T08:00:58.280000+00:00</time>
      </trkpt>
      <trkpt lat="0" lon="0">
        <time>2020-12-06T08:00:58.288000+00:00</time>
      </trkpt>
      <trkpt lat="0" lon="0">
        <time>2020-12-06T08:00:58.292000+00:00</time>
      </trkpt>
      <trkpt lat="47.27565" lon="-1.39603">
        <ele>3</ele>
        <time>2020-12-06T08:00:59.257000+00:00</time>
      </trkpt>
      <trkpt lat="0" lon="0">
        <time>2020-12-06T08:00:59.269000+00:00</time>
      </trkpt>
      <trkpt lat="0" lon="0">
        <time>2020-12-06T08:00:59.273000+00:00</time>
      </trkpt>
      <trkpt lat="0" lon="0">
        <time>2020-12-06T08:00:59.275000+00:00</time>
      </trkpt>
      <trkpt lat="47.2757" lon="-1.39596">
        <ele>3</ele>
        <time>2020-12-06T08:01:00.260000+00:00</time>
      </trkpt>
      <trkpt lat="0" lon="0">
        <time>2020-12-06T08:01:00.264000+00:00</time>
      </trkpt>
      <trkpt lat="0" lon="0">
        <time>2020-12-06T08:01:00.271000+00:00</time>
      </trkpt>
      <trkpt lat="0" lon="0">
        <time>2020-12-06T08:01:00.273000+00:00</time>
      </trkpt>
      <trkpt lat="47.27574" lon="-1.3959">
        <ele>3</ele>
        <time>2020-12-06T08:01:01.262000+00:00</time>
      </trkpt>
      <trkpt lat="0" lon="0">
        <time>2020-12-06T08:01:01.277000+00:00</time>
      </trkpt>
      <trkpt lat="0" lon="0">
        <time>2020-12-06T08:01:01.281000+00:00</time>
      </trkpt>
      <trkpt lat="0" lon="0">
        <time>2020-12-06T08:01:01.283000+00:00</time>
      </trkpt>
      <trkpt lat="47.27579" lon="-1.39583">
        <ele>3</ele>
        <time>2020-12-06T08:01:02.303000+00:00</time>
      </trkpt>
      <trkpt lat="0" lon="0">
        <time>2020-12-06T08:01:02.306000+00:00</time>
      </trkpt>
      <trkpt lat="0" lon="0">
        <time>2020-12-06T08:01:02.309000+00:00</time>
      </trkpt>
      <trkpt lat="0" lon="0">
        <time>2020-12-06T08:01:02.310000+00:00</time>
      </trkpt>
      <trkpt lat="47.27583" lon="-1.39576">
        <ele>3</ele>
        <time>2020-12-06T08:01:03.235000+00:00</time>
      </trkpt>
      <trkpt lat="0" lon="0">
        <time>2020-12-06T08:01:03.247000+00:00</time>
      </trkpt>
      <trkpt lat="0" lon="0">
        <time>2020-12-06T08:01:03.251000+00:00</time>
      </trkpt>
      <trkpt lat="0" lon="0">
        <time>2020-12-06T08:01:03.253000+00:00</time>
      </trkpt>
      <trkpt lat="47.27588" lon="-1.3957">
        <ele>3</ele>
        <time>2020-12-06T08:01:04.229000+00:00</time>
      </trkpt>
      <trkpt lat="0" lon="0">
        <time>2020-12-06T08:01:04.242000+00:00</time>
      </trkpt>
      <trkpt lat="0" lon="0">
        <time>2020-12-06T08:01:04.254000+00:00</time>
      </trkpt>
      <trkpt lat="0" lon="0">
        <time>2020-12-06T08:01:04.257000+00:00</time>
      </trkpt>
      <trkpt lat="47.27592" lon="-1.39563">
        <ele>3</ele>
        <time>2020-12-06T08:01:05.273000+00:00</time>
      </trkpt>
      <trkpt lat="0" lon="0">
        <time>2020-12-06T08:01:05.275000+00:00</time>
      </trkpt>
      <trkpt lat="0" lon="0">
        <time>2020-12-06T08:01:05.279000+00:00</time>
      </trkpt>
      <trkpt lat="0" lon="0">
        <time>2020-12-06T08:01:05.280000+00:00</time>
      </trkpt>
      <trkpt lat="47.27596" lon="-1.39556">
        <ele>3</ele>
        <time>2020-12-06T08:01:06.258000+00:00</time>
      </trkpt>
      <trkpt lat="0" lon="0">
        <time>2020-12-06T08:01:06.274000+00:00</time>
      </trkpt>
      <trkpt lat="0" lon="0">
        <time>2020-12-06T08:01:06.280000+00:00</time>
      </trkpt>
      <trkpt lat="0" lon="0">
        <time>2020-12-06T08:01:06.282000+00:00</time>
      </trkpt>
      <trkpt lat="47.276" lon="-1.3955">
        <ele>3</ele>
        <time>2020-12-06T08:01:07.279000+00:00</time>
      </trkpt>
      <trkpt lat="0" lon="0">
        <time>2020-12-06T08:01:07.298000+00:00</time>
      </trkpt>
      <trkpt lat="0" lon="0">
        <time>2020-12-06T08:01:07.301000+00:00</time>
      </trkpt>
      <trkpt lat="0" lon="0">
        <time>2020-12-06T08:01:07.304000+00:00</time>
      </trkpt>
      <trkpt lat="47.27605" lon="-1.39544">
        <ele>4</ele>
        <time>2020-12-06T08:01:08.263000+00:00</time>
      </trkpt>
      <trkpt lat="0" lon="0">
        <time>2020-12-06T08:01:08.268000+00:00</time>
      </trkpt>
      <trkpt lat="0" lon="0">
        <time>2020-12-06T08:01:08.270000+00:00</time>
      </trkpt>
      <trkpt lat="0" lon="0">
        <time>2020-12-06T08:01:08.271000+00:00</time>
      </trkpt>
      <trkpt lat="47.27608" lon="-1.39537">
        <ele>4</ele>
        <time>2020-12-06T08:01:09.216000+00:00</time>
      </trkpt>
      <trkpt lat="0" lon="0">
        <time>2020-12-06T08:01:09.226000+00:00</time>
      </trkpt>
      <trkpt lat="0" lon="0">
        <time>2020-12-06T08:01:09.229000+00:00</time>
      </trkpt>
      <trkpt lat="0" lon="0">
        <time>2020-12-06T08:01:09.231000+00:00</time>
      </trkpt>
      <trkpt lat="47.27612" lon="-1.39532">
        <ele>4</ele>
        <time>2020-12-06T08:01:10.265000+00:00</time>
      </trkpt>
      <trkpt lat="0" lon="0">
        <time>2020-12-06T08:01:10.279000+00:00</time>
      </trkpt>
      <trkpt lat="0" lon="0">
        <time>2020-12-06T08:01:10.285000+00:00</time>
      </trkpt>
      <trkpt lat="0" lon="0">
        <time>2020-12-06T08:01:10.287000+00:00</time>
      </trkpt>
      <trkpt lat="47.27615" lon="-1.39526">
        <ele>4</ele>
        <time>2020-12-06T08:01:11.206000+00:00</time>
      </trkpt>
      <trkpt lat="0" lon="0">
        <time>2020-12-06T08:01:11.215000+00:00</time>
      </trkpt>
      <trkpt lat="0" lon="0">
        <time>2020-12-06T08:01:11.225000+00:00</time>
      </trkpt>
      <trkpt lat="0" lon="0">
        <time>2020-12-06T08:01:11.228000+00:00</time>
      </trkpt>
      <trkpt lat="47.27618" lon="-1.39521">
        <ele>4</ele>
        <time>2020-12-06T08:01:12.262000+00:00</time>
      </trkpt>
      <trkpt lat="0" lon="0">
        <time>2020-12-06T08:01:12.270000+00:00</time>
      </trkpt>
      <trkpt lat="0" lon="0">
        <time>2020-12-06T08:01:12.274000+00:00</time>
      </trkpt>
      <trkpt lat="0" lon="0">
        <time>2020-12-06T08:01:12.275000+00:00</time>
      </trkpt>
      <trkpt lat="47.27622" lon="-1.39517">
        <ele>5</ele>
        <time>2020-12-06T08:01:13.227000+00:00</time>
      </trkpt>
      <trkpt lat="0" lon="0">
        <time>2020-12-06T08:01:13.237000+00:00</time>
      </trkpt>
      <trkpt lat="0" lon="0">
        <time>2020-12-06T08:01:13.244000+00:00</time>
      </trkpt>
      <trkpt lat="0" lon="0">
        <time>2020-12-06T08:01:13.245000+00:00</time>
      </trkpt>
      <trkpt lat="47.27625" lon="-1.39513">
        <ele>5</ele>
        <time>2020-12-06T08:01:14.217000+00:00</time>
      </trkpt>
      <trkpt lat="0" lon="0">
        <time>2020-12-06T08:01:14.219000+00:00</time>
      </trkpt>
      <trkpt lat="0" lon="0">
        <time>2020-12-06T08:01:14.221000+00:00</time>
      </trkpt>
      <trkpt lat="0" lon="0">
        <time>2020-12-06T08:01:14.222000+00:00</time>
      </trkpt>
      <trkpt lat="47.27629" lon="-1.3951">
        <ele>5</ele>
        <time>2020-12-06T08:01:15.241000+00:00</time>
      </trkpt>
      <trkpt lat="0" lon="0">
        <time>2020-12-06T08:01:15.256000+00:00</time>
      </trkpt>
      <trkpt lat="0" lon="0">
        <time>2020-12-06T08:01:15.261000+00:00</time>
      </trkpt>
      <trkpt lat="0" lon="0">
        <time>2020-12-06T08:01:15.262000+00:00</time>
      </trkpt>
      <trkpt lat="47.27632" lon="-1.39505">
        <ele>5</ele>
        <time>2020-12-06T08:01:16.260000+00:00</time>
      </trkpt>
      <trkpt lat="0" lon="0">
        <time>2020-12-06T08:01:16.287000+00:00</time>
      </trkpt>
      <trkpt lat="0" lon="0">
        <time>2020-12-06T08:01:16.294000+00:00</time>
      </trkpt>
      <trkpt lat="0" lon="0">
        <time>2020-12-06T08:01:16.299000+00:00</time>
      </trkpt>
      <trkpt lat="47.27636" lon="-1.39501">
        <ele>5</ele>
        <time>2020-12-06T08:01:17.252000+00:00</time>
      </trkpt>
      <trkpt lat="0" lon="0">
        <time>2020-12-06T08:01:17.261000+00:00</time>
      </trkpt>
      <trkpt lat="0" lon="0">
        <time>2020-12-06T08:01:17.265000+00:00</time>
      </trkpt>
      <trkpt lat="0" lon="0">
        <time>2020-12-06T08:01:17.279000+00:00</time>
      </trkpt>
      <trkpt lat="47.27639" lon="-1.39495">
        <ele>6</ele>
        <time>2020-12-06T08:01:18.295000+00:00</time>
      </trkpt>
      <trkpt lat="0" lon="0">
        <time>2020-12-06T08:01:18.310000+00:00</time>
      </trkpt>
      <trkpt lat="0" lon="0">
        <time>2020-12-06T08:01:18.319000+00:00</time>
      </trkpt>
      <trkpt lat="0" lon="0">
        <time>2020-12-06T08:01:18.325000+00:00</time>
      </trkpt>
      <trkpt lat="47.27642" lon="-1.3949">
        <ele>6</ele>
        <time>2020-12-06T08:01:19.221000+00:00</time>
      </trkpt>
      <trkpt lat="0" lon="0">
        <time>2020-12-06T08:01:19.224000+00:00</time>
      </trkpt>
      <trkpt lat="0" lon="0">
        <time>2020-12-06T08:01:19.232000+00:00</time>
      </trkpt>
      <trkpt lat="0" lon="0">
        <time>2020-12-06T08:01:19.234000+00:00</time>
      </trkpt>
      <trkpt lat="47.27646" lon="-1.39484">
        <ele>6</ele>
        <time>2020-12-06T08:01:20.239000+00:00</time>
      </trkpt>
      <trkpt lat="0" lon="0">
        <time>2020-12-06T08:01:20.245000+00:00</time>
      </trkpt>
      <trkpt lat="0" lon="0">
        <time>2020-12-06T08:01:20.247000+00:00</time>
      </trkpt>
      <trkpt lat="0" lon="0">
        <time>2020-12-06T08:01:20.249000+00:00</time>
      </trkpt>
      <trkpt lat="47.27649" lon="-1.39478">
        <ele>6</ele>
        <time>2020-12-06T08:01:21.258000+00:00</time>
      </trkpt>
      <trkpt lat="0" lon="0">
        <time>2020-12-06T08:01:21.265000+00:00</time>
      </trkpt>
      <trkpt lat="0" lon="0">
        <time>2020-12-06T08:01:21.269000+00:00</time>
      </trkpt>
      <trkpt lat="0" lon="0">
        <time>2020-12-06T08:01:21.271000+00:00</time>
      </trkpt>
      <trkpt lat="47.27652" lon="-1.39472">
        <ele>6</ele>
        <time>2020-12-06T08:01:22.274000+00:00</time>
      </trkpt>
      <trkpt lat="0" lon="0">
        <time>2020-12-06T08:01:22.279000+00:00</time>
      </trkpt>
      <trkpt lat="0" lon="0">
        <time>2020-12-06T08:01:22.282000+00:00</time>
      </trkpt>
      <trkpt lat="0" lon="0">
        <time>2020-12-06T08:01:22.285000+00:00</time>
      </trkpt>
      <trkpt lat="47.27656" lon="-1.39466">
        <ele>6</ele>
        <time>2020-12-06T08:01:23.269000+00:00</time>
      </trkpt>
      <trkpt lat="0" lon="0">
        <time>2020-12-06T08:01:23.273000+00:00</time>
      </trkpt>
      <trkpt lat="0" lon="0">
        <time>2020-12-06T08:01:23.282000+00:00</time>
      </trkpt>
      <trkpt lat="0" lon="0">
        <time>2020-12-06T08:01:23.285000+00:00</time>
      </trkpt>
      <trkpt lat="47.2766" lon="-1.39459">
        <ele>6</ele>
        <time>2020-12-06T08:01:24.204000+00:00</time>
      </trkpt>
      <trkpt lat="0" lon="0">
        <time>2020-12-06T08:01:24.206000+00:00</time>
      </trkpt>
      <trkpt lat="0" lon="0">
        <time>2020-12-06T08:01:24.207000+00:00</time>
      </trkpt>
      <trkpt lat="0" lon="0">
        <time>2020-12-06T08:01:24.208000+00:00</time>
      </trkpt>
      <trkpt lat="47.27663" lon="-1.39453">
        <ele>6</ele>
        <time>2020-12-06T08:01:25.249000+00:00</time>
      </trkpt>
      <trkpt lat="0" lon="0">
        <time>2020-12-06T08:01:25.253000+00:00</time>
      </trkpt>
      <trkpt lat="0" lon="0">
        <time>2020-12-06T08:01:25.260000+00:00</time>
      </trkpt>
      <trkpt lat="0" lon="0">
        <time>2020-12-06T08:01:25.268000+00:00</time>
      </trkpt>
      <trkpt lat="47.27667" lon="-1.39446">
        <ele>6</ele>
        <time>2020-12-06T08:01:26.264000+00:00</time>
      </trkpt>
      <trkpt lat="0" lon="0">
        <time>2020-12-06T08:01:26.271000+00:00</time>
      </trkpt>
      <trkpt lat="0" lon="0">
        <time>2020-12-06T08:01:26.273000+00:00</time>
      </trkpt>
      <trkpt lat="0" lon="0">
        <time>2020-12-06T08:01:26.280000+00:00</time>
      </trkpt>
      <trkpt lat="47.27671" lon="-1.39439">
        <ele>6</ele>
        <time>2020-12-06T08:01:27.221000+00:00</time>
      </trkpt>
      <trkpt lat="0" lon="0">
        <time>2020-12-06T08:01:27.227000+00:00</time>
      </trkpt>
      <trkpt lat="0" lon="0">
        <time>2020-12-06T08:01:27.239000+00:00</time>
      </trkpt>
      <trkpt lat="0" lon="0">
        <time>2020-12-06T08:01:27.241000+00:00</time>
      </trkpt>
      <trkpt lat="47.27675" lon="-1.39432">
        <ele>6</ele>
        <time>2020-12-06T08:01:28.161000+00:00</time>
      </trkpt>
      <trkpt lat="0" lon="0">
        <time>2020-12-06T08:01:28.165000+00:00</time>
      </trkpt>
      <trkpt lat="0" lon="0">
        <time>2020-12-06T08:01:28.167000+00:00</time>
      </trkpt>
      <trkpt lat="0" lon="0">
        <time>2020-12-06T08:01:28.173000+00:00</time>
      </trkpt>
      <trkpt lat="47.27679" lon="-1.39425">
        <ele>6</ele>
        <time>2020-12-06T08:01:29.229000+00:00</time>
      </trkpt>
      <trkpt lat="0" lon="0">
        <time>2020-12-06T08:01:29.237000+00:00</time>
      </trkpt>
      <trkpt lat="0" lon="0">
        <time>2020-12-06T08:01:29.240000+00:00</time>
      </trkpt>
      <trkpt lat="0" lon="0">
        <time>2020-12-06T08:01:29.246000+00:00</time>
      </trkpt>
      <trkpt lat="47.27683" lon="-1.39418">
        <ele>6</ele>
        <time>2020-12-06T08:01:30.186000+00:00</time>
      </trkpt>
      <trkpt lat="0" lon="0">
        <time>2020-12-06T08:01:30.193000+00:00</time>
      </trkpt>
      <trkpt lat="0" lon="0">
        <time>2020-12-06T08:01:30.197000+00:00</time>
      </trkpt>
      <trkpt lat="0" lon="0">
        <time>2020-12-06T08:01:30.200000+00:00</time>
      </trkpt>
      <trkpt lat="47.27687" lon="-1.39411">
        <ele>6</ele>
        <time>2020-12-06T08:01:31.195000+00:00</time>
      </trkpt>
      <trkpt lat="0" lon="0">
        <time>2020-12-06T08:01:31.200000+00:00</time>
      </trkpt>
      <trkpt lat="0" lon="0">
        <time>2020-12-06T08:01:31.201000+00:00</time>
      </trkpt>
      <trkpt lat="47.2769" lon="-1.39403">
        <ele>6</ele>
        <time>2020-12-06T08:01:32.273000+00:00</time>
      </trkpt>
      <trkpt lat="0" lon="0">
        <time>2020-12-06T08:01:32.277000+00:00</time>
      </trkpt>
      <trkpt lat="0" lon="0">
        <time>2020-12-06T08:01:32.281000+00:00</time>
      </trkpt>
      <trkpt lat="0" lon="0">
        <time>2020-12-06T08:01:32.283000+00:00</time>
      </trkpt>
      <trkpt lat="47.27694" lon="-1.39396">
        <ele>5</ele>
        <time>2020-12-06T08:01:33.176000+00:00</time>
      </trkpt>
      <trkpt lat="0" lon="0">
        <time>2020-12-06T08:01:33.177000+00:00</time>
      </trkpt>
      <trkpt lat="0" lon="0">
        <time>2020-12-06T08:01:33.179000+00:00</time>
      </trkpt>
      <trkpt lat="47.27698" lon="-1.39388">
        <ele>5</ele>
        <time>2020-12-06T08:01:34.264000+00:00</time>
      </trkpt>
      <trkpt lat="0" lon="0">
        <time>2020-12-06T08:01:34.273000+00:00</time>
      </trkpt>
      <trkpt lat="0" lon="0">
        <time>2020-12-06T08:01:34.277000+00:00</time>
      </trkpt>
      <trkpt lat="0" lon="0">
        <time>2020-12-06T08:01:34.279000+00:00</time>
      </trkpt>
      <trkpt lat="47.27702" lon="-1.3938">
        <ele>5</ele>
        <time>2020-12-06T08:01:35.220000+00:00</time>
      </trkpt>
      <trkpt lat="0" lon="0">
        <time>2020-12-06T08:01:35.228000+00:00</time>
      </trkpt>
      <trkpt lat="0" lon="0">
        <time>2020-12-06T08:01:35.231000+00:00</time>
      </trkpt>
      <trkpt lat="0" lon="0">
        <time>2020-12-06T08:01:35.245000+00:00</time>
      </trkpt>
      <trkpt lat="47.27705" lon="-1.39372">
        <ele>5</ele>
        <time>2020-12-06T08:01:36.233000+00:00</time>
      </trkpt>
      <trkpt lat="0" lon="0">
        <time>2020-12-06T08:01:36.247000+00:00</time>
      </trkpt>
      <trkpt lat="0" lon="0">
        <time>2020-12-06T08:01:36.252000+00:00</time>
      </trkpt>
      <trkpt lat="0" lon="0">
        <time>2020-12-06T08:01:36.254000+00:00</time>
      </trkpt>
      <trkpt lat="47.27709" lon="-1.39364">
        <ele>5</ele>
        <time>2020-12-06T08:01:37.221000+00:00</time>
      </trkpt>
      <trkpt lat="0" lon="0">
        <time>2020-12-06T08:01:37.223000+00:00</time>
      </trkpt>
      <trkpt lat="0" lon="0">
        <time>2020-12-06T08:01:37.225000+00:00</time>
      </trkpt>
      <trkpt lat="0" lon="0">
        <time>2020-12-06T08:01:37.226000+00:00</time>
      </trkpt>
      <trkpt lat="47.27712" lon="-1.39356">
        <ele>5</ele>
        <time>2020-12-06T08:01:38.247000+00:00</time>
      </trkpt>
      <trkpt lat="0" lon="0">
        <time>2020-12-06T08:01:38.253000+00:00</time>
      </trkpt>
      <trkpt lat="0" lon="0">
        <time>2020-12-06T08:01:38.259000+00:00</time>
      </trkpt>
      <trkpt lat="0" lon="0">
        <time>2020-12-06T08:01:38.260000+00:00</time>
      </trkpt>
      <trkpt lat="47.27716" lon="-1.39348">
        <ele>5</ele>
        <time>2020-12-06T08:01:39.202000+00:00</time>
      </trkpt>
      <trkpt lat="0" lon="0">
        <time>2020-12-06T08:01:39.203000+00:00</time>
      </trkpt>
      <trkpt lat="0" lon="0">
        <time>2020-12-06T08:01:39.206000+00:00</time>
      </trkpt>
      <trkpt lat="0" lon="0">
        <time>2020-12-06T08:01:39.210000+00:00</time>
      </trkpt>
      <trkpt lat="47.2772" lon="-1.3934">
        <ele>5</ele>
        <time>2020-12-06T08:01:40.243000+00:00</time>
      </trkpt>
      <trkpt lat="0" lon="0">
        <time>2020-12-06T08:01:40.249000+00:00</time>
      </trkpt>
      <trkpt lat="0" lon="0">
        <time>2020-12-06T08:01:40.253000+00:00</time>
      </trkpt>
      <trkpt lat="0" lon="0">
        <time>2020-12-06T08:01:40.255000+00:00</time>
      </trkpt>
      <trkpt lat="47.27723" lon="-1.39332">
        <ele>5</ele>
        <time>2020-12-06T08:01:41.222000+00:00</time>
      </trkpt>
      <trkpt lat="0" lon="0">
        <time>2020-12-06T08:01:41.234000+00:00</time>
      </trkpt>
      <trkpt lat="0" lon="0">
        <time>2020-12-06T08:01:41.236000+00:00</time>
      </trkpt>
      <trkpt lat="0" lon="0">
        <time>2020-12-06T08:01:41.237000+00:00</time>
      </trkpt>
      <trkpt lat="47.27726" lon="-1.39324">
        <ele>5</ele>
        <time>2020-12-06T08:01:42.227000+00:00</time>
      </trkpt>
      <trkpt lat="0" lon="0">
        <time>2020-12-06T08:01:42.244000+00:00</time>
      </trkpt>
      <trkpt lat="0" lon="0">
        <time>2020-12-06T08:01:42.251000+00:00</time>
      </trkpt>
      <trkpt lat="0" lon="0">
        <time>2020-12-06T08:01:42.254000+00:00</time>
      </trkpt>
      <trkpt lat="47.2773" lon="-1.39316">
        <ele>5</ele>
        <time>2020-12-06T08:01:43.251000+00:00</time>
      </trkpt>
      <trkpt lat="0" lon="0">
        <time>2020-12-06T08:01:43.259000+00:00</time>
      </trkpt>
      <trkpt lat="0" lon="0">
        <time>2020-12-06T08:01:43.269000+00:00</time>
      </trkpt>
      <trkpt lat="0" lon="0">
        <time>2020-12-06T08:01:43.271000+00:00</time>
      </trkpt>
      <trkpt lat="47.27733" lon="-1.39308">
        <ele>6</ele>
        <time>2020-12-06T08:01:44.262000+00:00</time>
      </trkpt>
      <trkpt lat="0" lon="0">
        <time>2020-12-06T08:01:44.276000+00:00</time>
      </trkpt>
      <trkpt lat="0" lon="0">
        <time>2020-12-06T08:01:44.282000+00:00</time>
      </trkpt>
      <trkpt lat="0" lon="0">
        <time>2020-12-06T08:01:44.283000+00:00</time>
      </trkpt>
      <trkpt lat="47.27736" lon="-1.39299">
        <ele>6</ele>
        <time>2020-12-06T08:01:45.235000+00:00</time>
      </trkpt>
      <trkpt lat="0" lon="0">
        <time>2020-12-06T08:01:45.249000+00:00</time>
      </trkpt>
      <trkpt lat="0" lon="0">
        <time>2020-12-06T08:01:45.261000+00:00</time>
      </trkpt>
      <trkpt lat="0" lon="0">
        <time>2020-12-06T08:01:45.269000+00:00</time>
      </trkpt>
      <trkpt lat="47.27739" lon="-1.39291">
        <ele>6</ele>
        <time>2020-12-06T08:01:46.253000+00:00</time>
      </trkpt>
      <trkpt lat="0" lon="0">
        <time>2020-12-06T08:01:46.259000+00:00</time>
      </trkpt>
      <trkpt lat="0" lon="0">
        <time>2020-12-06T08:01:46.271000+00:00</time>
      </trkpt>
      <trkpt lat="0" lon="0">
        <time>2020-12-06T08:01:46.273000+00:00</time>
      </trkpt>
      <trkpt lat="47.27742" lon="-1.39283">
        <ele>6</ele>
        <time>2020-12-06T08:01:47.241000+00:00</time>
      </trkpt>
      <trkpt lat="0" lon="0">
        <time>2020-12-06T08:01:47.256000+00:00</time>
      </trkpt>
      <trkpt lat="0" lon="0">
        <time>2020-12-06T08:01:47.265000+00:00</time>
      </trkpt>
      <trkpt lat="0" lon="0">
        <time>2020-12-06T08:01:47.271000+00:00</time>
      </trkpt>
      <trkpt lat="47.27745" lon="-1.39275">
        <ele>6</ele>
        <time>2020-12-06T08:01:48.256000+00:00</time>
      </trkpt>
      <trkpt lat="0" lon="0">
        <time>2020-12-06T08:01:48.267000+00:00</time>
      </trkpt>
      <trkpt lat="0" lon="0">
        <time>2020-12-06T08:01:48.271000+00:00</time>
      </trkpt>
      <trkpt lat="0" lon="0">
        <time>2020-12-06T08:01:48.276000+00:00</time>
      </trkpt>
      <trkpt lat="47.27749" lon="-1.39267">
        <ele>6</ele>
        <time>2020-12-06T08:01:49.239000+00:00</time>
      </trkpt>
      <trkpt lat="0" lon="0">
        <time>2020-12-06T08:01:49.246000+00:00</time>
      </trkpt>
      <trkpt lat="0" lon="0">
        <time>2020-12-06T08:01:49.259000+00:00</time>
      </trkpt>
      <trkpt lat="0" lon="0">
        <time>2020-12-06T08:01:49.265000+00:00</time>
      </trkpt>
      <trkpt lat="47.27752" lon="-1.3926">
        <ele>6</ele>
        <time>2020-12-06T08:01:50.198000+00:00</time>
      </trkpt>
      <trkpt lat="0" lon="0">
        <time>2020-12-06T08:01:50.205000+00:00</time>
      </trkpt>
      <trkpt lat="0" lon="0">
        <time>2020-12-06T08:01:50.208000+00:00</time>
      </trkpt>
      <trkpt lat="0" lon="0">
        <time>2020-12-06T08:01:50.209000+00:00</time>
      </trkpt>
      <trkpt lat="47.27755" lon="-1.39252">
        <ele>6</ele>
        <time>2020-12-06T08:01:51.131000+00:00</time>
      </trkpt>
      <trkpt lat="0" lon="0">
        <time>2020-12-06T08:01:51.142000+00:00</time>
      </trkpt>
      <trkpt lat="0" lon="0">
        <time>2020-12-06T08:01:51.146000+00:00</time>
      </trkpt>
      <trkpt lat="0" lon="0">
        <time>2020-12-06T08:01:51.147000+00:00</time>
      </trkpt>
      <trkpt lat="47.27758" lon="-1.39244">
        <ele>6</ele>
        <time>2020-12-06T08:01:52.222000+00:00</time>
      </trkpt>
      <trkpt lat="0" lon="0">
        <time>2020-12-06T08:01:52.229000+00:00</time>
      </trkpt>
      <trkpt lat="0" lon="0">
        <time>2020-12-06T08:01:52.235000+00:00</time>
      </trkpt>
      <trkpt lat="0" lon="0">
        <time>2020-12-06T08:01:52.237000+00:00</time>
      </trkpt>
      <trkpt lat="47.27762" lon="-1.39236">
        <ele>6</ele>
        <time>2020-12-06T08:01:53.278000+00:00</time>
      </trkpt>
      <trkpt lat="0" lon="0">
        <time>2020-12-06T08:01:53.286000+00:00</time>
      </trkpt>
      <trkpt lat="0" lon="0">
        <time>2020-12-06T08:01:53.290000+00:00</time>
      </trkpt>
      <trkpt lat="0" lon="0">
        <time>2020-12-06T08:01:53.291000+00:00</time>
      </trkpt>
      <trkpt lat="47.27765" lon="-1.39229">
        <ele>6</ele>
        <time>2020-12-06T08:01:54.242000+00:00</time>
      </trkpt>
      <trkpt lat="0" lon="0">
        <time>2020-12-06T08:01:54.245000+00:00</time>
      </trkpt>
      <trkpt lat="0" lon="0">
        <time>2020-12-06T08:01:54.260000+00:00</time>
      </trkpt>
      <trkpt lat="0" lon="0">
        <time>2020-12-06T08:01:54.263000+00:00</time>
      </trkpt>
      <trkpt lat="47.27768" lon="-1.39221">
        <ele>6</ele>
        <time>2020-12-06T08:01:55.212000+00:00</time>
      </trkpt>
      <trkpt lat="0" lon="0">
        <time>2020-12-06T08:01:55.220000+00:00</time>
      </trkpt>
      <trkpt lat="0" lon="0">
        <time>2020-12-06T08:01:55.223000+00:00</time>
      </trkpt>
      <trkpt lat="0" lon="0">
        <time>2020-12-06T08:01:55.225000+00:00</time>
      </trkpt>
      <trkpt lat="47.27772" lon="-1.39214">
        <ele>6</ele>
        <time>2020-12-06T08:01:56.235000+00:00</time>
      </trkpt>
      <trkpt lat="0" lon="0">
        <time>2020-12-06T08:01:56.245000+00:00</time>
      </trkpt>
      <trkpt lat="0" lon="0">
        <time>2020-12-06T08:01:56.249000+00:00</time>
      </trkpt>
      <trkpt lat="0" lon="0">
        <time>2020-12-06T08:01:56.259000+00:00</time>
      </trkpt>
      <trkpt lat="47.27775" lon="-1.39206">
        <ele>6</ele>
        <time>2020-12-06T08:01:57.169000+00:00</time>
      </trkpt>
      <trkpt lat="0" lon="0">
        <time>2020-12-06T08:01:57.187000+00:00</time>
      </trkpt>
      <trkpt lat="0" lon="0">
        <time>2020-12-06T08:01:57.189000+00:00</time>
      </trkpt>
      <trkpt lat="0" lon="0">
        <time>2020-12-06T08:01:57.190000+00:00</time>
      </trkpt>
      <trkpt lat="47.27779" lon="-1.39199">
        <ele>5</ele>
        <time>2020-12-06T08:01:58.226000+00:00</time>
      </trkpt>
      <trkpt lat="0" lon="0">
        <time>2020-12-06T08:01:58.229000+00:00</time>
      </trkpt>
      <trkpt lat="0" lon="0">
        <time>2020-12-06T08:01:58.236000+00:00</time>
      </trkpt>
      <trkpt lat="0" lon="0">
        <time>2020-12-06T08:01:58.238000+00:00</time>
      </trkpt>
      <trkpt lat="47.27783" lon="-1.39191">
        <ele>5</ele>
        <time>2020-12-06T08:01:59.247000+00:00</time>
      </trkpt>
      <trkpt lat="0" lon="0">
        <time>2020-12-06T08:01:59.251000+00:00</time>
      </trkpt>
      <trkpt lat="0" lon="0">
        <time>2020-12-06T08:01:59.274000+00:00</time>
      </trkpt>
      <trkpt lat="0" lon="0">
        <time>2020-12-06T08:01:59.281000+00:00</time>
      </trkpt>
      <trkpt lat="47.27786" lon="-1.39183">
        <ele>5</ele>
        <time>2020-12-06T08:02:00.243000+00:00</time>
      </trkpt>
      <trkpt lat="0" lon="0">
        <time>2020-12-06T08:02:00.258000+00:00</time>
      </trkpt>
      <trkpt lat="0" lon="0">
        <time>2020-12-06T08:02:00.264000+00:00</time>
      </trkpt>
      <trkpt lat="0" lon="0">
        <time>2020-12-06T08:02:00.266000+00:00</time>
      </trkpt>
      <trkpt lat="47.2779" lon="-1.39176">
        <ele>5</ele>
        <time>2020-12-06T08:02:01.237000+00:00</time>
      </trkpt>
      <trkpt lat="0" lon="0">
        <time>2020-12-06T08:02:01.249000+00:00</time>
      </trkpt>
      <trkpt lat="0" lon="0">
        <time>2020-12-06T08:02:01.254000+00:00</time>
      </trkpt>
      <trkpt lat="0" lon="0">
        <time>2020-12-06T08:02:01.259000+00:00</time>
      </trkpt>
      <trkpt lat="47.27794" lon="-1.39168">
        <ele>5</ele>
        <time>2020-12-06T08:02:02.215000+00:00</time>
      </trkpt>
      <trkpt lat="0" lon="0">
        <time>2020-12-06T08:02:02.219000+00:00</time>
      </trkpt>
      <trkpt lat="0" lon="0">
        <time>2020-12-06T08:02:02.224000+00:00</time>
      </trkpt>
      <trkpt lat="0" lon="0">
        <time>2020-12-06T08:02:02.225000+00:00</time>
      </trkpt>
      <trkpt lat="47.27798" lon="-1.39161">
        <ele>5</ele>
        <time>2020-12-06T08:02:03.238000+00:00</time>
      </trkpt>
      <trkpt lat="0" lon="0">
        <time>2020-12-06T08:02:03.246000+00:00</time>
      </trkpt>
      <trkpt lat="0" lon="0">
        <time>2020-12-06T08:02:03.253000+00:00</time>
      </trkpt>
      <trkpt lat="0" lon="0">
        <time>2020-12-06T08:02:03.257000+00:00</time>
      </trkpt>
      <trkpt lat="47.27802" lon="-1.39154">
        <ele>5</ele>
        <time>2020-12-06T08:02:04.220000+00:00</time>
      </trkpt>
      <trkpt lat="0" lon="0">
        <time>2020-12-06T08:02:04.231000+00:00</time>
      </trkpt>
      <trkpt lat="0" lon="0">
        <time>2020-12-06T08:02:04.235000+00:00</time>
      </trkpt>
      <trkpt lat="0" lon="0">
        <time>2020-12-06T08:02:04.239000+00:00</time>
      </trkpt>
      <trkpt lat="47.27805" lon="-1.39147">
        <ele>5</ele>
        <time>2020-12-06T08:02:05.230000+00:00</time>
      </trkpt>
      <trkpt lat="0" lon="0">
        <time>2020-12-06T08:02:05.249000+00:00</time>
      </trkpt>
      <trkpt lat="0" lon="0">
        <time>2020-12-06T08:02:05.253000+00:00</time>
      </trkpt>
      <trkpt lat="0" lon="0">
        <time>2020-12-06T08:02:05.254000+00:00</time>
      </trkpt>
      <trkpt lat="47.27809" lon="-1.39141">
        <ele>5</ele>
        <time>2020-12-06T08:02:06.216000+00:00</time>
      </trkpt>
      <trkpt lat="0" lon="0">
        <time>2020-12-06T08:02:06.222000+00:00</time>
      </trkpt>
      <trkpt lat="0" lon="0">
        <time>2020-12-06T08:02:06.224000+00:00</time>
      </trkpt>
      <trkpt lat="0" lon="0">
        <time>2020-12-06T08:02:06.225000+00:00</time>
      </trkpt>
      <trkpt lat="47.27813" lon="-1.39134">
        <ele>5</ele>
        <time>2020-12-06T08:02:07.252000+00:00</time>
      </trkpt>
      <trkpt lat="0" lon="0">
        <time>2020-12-06T08:02:07.261000+00:00</time>
      </trkpt>
      <trkpt lat="0" lon="0">
        <time>2020-12-06T08:02:07.273000+00:00</time>
      </trkpt>
      <trkpt lat="0" lon="0">
        <time>2020-12-06T08:02:07.274000+00:00</time>
      </trkpt>
      <trkpt lat="47.27817" lon="-1.39127">
        <ele>5</ele>
        <time>2020-12-06T08:02:08.267000+00:00</time>
      </trkpt>
      <trkpt lat="0" lon="0">
        <time>2020-12-06T08:02:08.282000+00:00</time>
      </trkpt>
      <trkpt lat="0" lon="0">
        <time>2020-12-06T08:02:08.289000+00:00</time>
      </trkpt>
      <trkpt lat="0" lon="0">
        <time>2020-12-06T08:02:08.291000+00:00</time>
      </trkpt>
      <trkpt lat="47.27821" lon="-1.39121">
        <ele>5</ele>
        <time>2020-12-06T08:02:09.251000+00:00</time>
      </trkpt>
      <trkpt lat="0" lon="0">
        <time>2020-12-06T08:02:09.255000+00:00</time>
      </trkpt>
      <trkpt lat="0" lon="0">
        <time>2020-12-06T08:02:09.259000+00:00</time>
      </trkpt>
      <trkpt lat="0" lon="0">
        <time>2020-12-06T08:02:09.268000+00:00</time>
      </trkpt>
      <trkpt lat="47.27826" lon="-1.39115">
        <ele>5</ele>
        <time>2020-12-06T08:02:10.255000+00:00</time>
      </trkpt>
      <trkpt lat="0" lon="0">
        <time>2020-12-06T08:02:10.258000+00:00</time>
      </trkpt>
      <trkpt lat="0" lon="0">
        <time>2020-12-06T08:02:10.263000+00:00</time>
      </trkpt>
      <trkpt lat="0" lon="0">
        <time>2020-12-06T08:02:10.270000+00:00</time>
      </trkpt>
      <trkpt lat="47.2783" lon="-1.39108">
        <ele>5</ele>
        <time>2020-12-06T08:02:11.228000+00:00</time>
      </trkpt>
      <trkpt lat="0" lon="0">
        <time>2020-12-06T08:02:11.232000+00:00</time>
      </trkpt>
      <trkpt lat="0" lon="0">
        <time>2020-12-06T08:02:11.247000+00:00</time>
      </trkpt>
      <trkpt lat="0" lon="0">
        <time>2020-12-06T08:02:11.249000+00:00</time>
      </trkpt>
      <trkpt lat="47.27834" lon="-1.39102">
        <ele>5</ele>
        <time>2020-12-06T08:02:12.226000+00:00</time>
      </trkpt>
      <trkpt lat="0" lon="0">
        <time>2020-12-06T08:02:12.242000+00:00</time>
      </trkpt>
      <trkpt lat="0" lon="0">
        <time>2020-12-06T08:02:12.246000+00:00</time>
      </trkpt>
      <trkpt lat="0" lon="0">
        <time>2020-12-06T08:02:12.249000+00:00</time>
      </trkpt>
      <trkpt lat="47.27838" lon="-1.39095">
        <ele>5</ele>
        <time>2020-12-06T08:02:13.227000+00:00</time>
      </trkpt>
      <trkpt lat="0" lon="0">
        <time>2020-12-06T08:02:13.231000+00:00</time>
      </trkpt>
      <trkpt lat="0" lon="0">
        <time>2020-12-06T08:02:13.239000+00:00</time>
      </trkpt>
      <trkpt lat="0" lon="0">
        <time>2020-12-06T08:02:13.242000+00:00</time>
      </trkpt>
      <trkpt lat="47.27842" lon="-1.39089">
        <ele>5</ele>
        <time>2020-12-06T08:02:14.234000+00:00</time>
      </trkpt>
      <trkpt lat="0" lon="0">
        <time>2020-12-06T08:02:14.239000+00:00</time>
      </trkpt>
      <trkpt lat="0" lon="0">
        <time>2020-12-06T08:02:14.242000+00:00</time>
      </trkpt>
      <trkpt lat="0" lon="0">
        <time>2020-12-06T08:02:14.251000+00:00</time>
      </trkpt>
      <trkpt lat="47.27846" lon="-1.39082">
        <ele>5</ele>
        <time>2020-12-06T08:02:15.250000+00:00</time>
      </trkpt>
      <trkpt lat="0" lon="0">
        <time>2020-12-06T08:02:15.260000+00:00</time>
      </trkpt>
      <trkpt lat="0" lon="0">
        <time>2020-12-06T08:02:15.266000+00:00</time>
      </trkpt>
      <trkpt lat="0" lon="0">
        <time>2020-12-06T08:02:15.269000+00:00</time>
      </trkpt>
      <trkpt lat="47.27851" lon="-1.39075">
        <ele>5</ele>
        <time>2020-12-06T08:02:16.249000+00:00</time>
      </trkpt>
      <trkpt lat="0" lon="0">
        <time>2020-12-06T08:02:16.253000+00:00</time>
      </trkpt>
      <trkpt lat="0" lon="0">
        <time>2020-12-06T08:02:16.266000+00:00</time>
      </trkpt>
      <trkpt lat="0" lon="0">
        <time>2020-12-06T08:02:16.269000+00:00</time>
      </trkpt>
      <trkpt lat="47.27855" lon="-1.39069">
        <ele>5</ele>
        <time>2020-12-06T08:02:17.205000+00:00</time>
      </trkpt>
      <trkpt lat="0" lon="0">
        <time>2020-12-06T08:02:17.209000+00:00</time>
      </trkpt>
      <trkpt lat="0" lon="0">
        <time>2020-12-06T08:02:17.215000+00:00</time>
      </trkpt>
      <trkpt lat="0" lon="0">
        <time>2020-12-06T08:02:17.221000+00:00</time>
      </trkpt>
      <trkpt lat="47.2786" lon="-1.39062">
        <ele>5</ele>
        <time>2020-12-06T08:02:18.243000+00:00</time>
      </trkpt>
      <trkpt lat="0" lon="0">
        <time>2020-12-06T08:02:18.260000+00:00</time>
      </trkpt>
      <trkpt lat="0" lon="0">
        <time>2020-12-06T08:02:18.264000+00:00</time>
      </trkpt>
      <trkpt lat="0" lon="0">
        <time>2020-12-06T08:02:18.271000+00:00</time>
      </trkpt>
      <trkpt lat="47.27864" lon="-1.39055">
        <ele>5</ele>
        <time>2020-12-06T08:02:19.234000+00:00</time>
      </trkpt>
      <trkpt lat="0" lon="0">
        <time>2020-12-06T08:02:19.255000+00:00</time>
      </trkpt>
      <trkpt lat="0" lon="0">
        <time>2020-12-06T08:02:19.265000+00:00</time>
      </trkpt>
      <trkpt lat="0" lon="0">
        <time>2020-12-06T08:02:19.276000+00:00</time>
      </trkpt>
      <trkpt lat="47.27869" lon="-1.39048">
        <ele>5</ele>
        <time>2020-12-06T08:02:20.255000+00:00</time>
      </trkpt>
      <trkpt lat="0" lon="0">
        <time>2020-12-06T08:02:20.263000+00:00</time>
      </trkpt>
      <trkpt lat="0" lon="0">
        <time>2020-12-06T08:02:20.273000+00:00</time>
      </trkpt>
      <trkpt lat="0" lon="0">
        <time>2020-12-06T08:02:20.275000+00:00</time>
      </trkpt>
      <trkpt lat="47.27873" lon="-1.39042">
        <ele>5</ele>
        <time>2020-12-06T08:02:21.259000+00:00</time>
      </trkpt>
      <trkpt lat="0" lon="0">
        <time>2020-12-06T08:02:21.280000+00:00</time>
      </trkpt>
      <trkpt lat="0" lon="0">
        <time>2020-12-06T08:02:21.286000+00:00</time>
      </trkpt>
      <trkpt lat="0" lon="0">
        <time>2020-12-06T08:02:21.289000+00:00</time>
      </trkpt>
      <trkpt lat="47.27878" lon="-1.39035">
        <ele>5</ele>
        <time>2020-12-06T08:02:22.236000+00:00</time>
      </trkpt>
      <trkpt lat="0" lon="0">
        <time>2020-12-06T08:02:22.239000+00:00</time>
      </trkpt>
      <trkpt lat="0" lon="0">
        <time>2020-12-06T08:02:22.256000+00:00</time>
      </trkpt>
      <trkpt lat="0" lon="0">
        <time>2020-12-06T08:02:22.262000+00:00</time>
      </trkpt>
      <trkpt lat="47.27882" lon="-1.39028">
        <ele>5</ele>
        <time>2020-12-06T08:02:23.261000+00:00</time>
      </trkpt>
      <trkpt lat="0" lon="0">
        <time>2020-12-06T08:02:23.266000+00:00</time>
      </trkpt>
      <trkpt lat="0" lon="0">
        <time>2020-12-06T08:02:23.272000+00:00</time>
      </trkpt>
      <trkpt lat="0" lon="0">
        <time>2020-12-06T08:02:23.279000+00:00</time>
      </trkpt>
      <trkpt lat="47.27887" lon="-1.39022">
        <ele>5</ele>
        <time>2020-12-06T08:02:24.263000+00:00</time>
      </trkpt>
      <trkpt lat="0" lon="0">
        <time>2020-12-06T08:02:24.268000+00:00</time>
      </trkpt>
      <trkpt lat="0" lon="0">
        <time>2020-12-06T08:02:24.273000+00:00</time>
      </trkpt>
      <trkpt lat="0" lon="0">
        <time>2020-12-06T08:02:24.275000+00:00</time>
      </trkpt>
      <trkpt lat="47.27891" lon="-1.39015">
        <ele>5</ele>
        <time>2020-12-06T08:02:25.321000+00:00</time>
      </trkpt>
      <trkpt lat="0" lon="0">
        <time>2020-12-06T08:02:25.329000+00:00</time>
      </trkpt>
      <trkpt lat="0" lon="0">
        <time>2020-12-06T08:02:25.334000+00:00</time>
      </trkpt>
      <trkpt lat="0" lon="0">
        <time>2020-12-06T08:02:25.335000+00:00</time>
      </trkpt>
      <trkpt lat="47.27896" lon="-1.39008">
        <ele>5</ele>
        <time>2020-12-06T08:02:26.232000+00:00</time>
      </trkpt>
      <trkpt lat="0" lon="0">
        <time>2020-12-06T08:02:26.250000+00:00</time>
      </trkpt>
      <trkpt lat="0" lon="0">
        <time>2020-12-06T08:02:26.253000+00:00</time>
      </trkpt>
      <trkpt lat="0" lon="0">
        <time>2020-12-06T08:02:26.257000+00:00</time>
      </trkpt>
      <trkpt lat="47.27901" lon="-1.39002">
        <ele>5</ele>
        <time>2020-12-06T08:02:27.179000+00:00</time>
      </trkpt>
      <trkpt lat="0" lon="0">
        <time>2020-12-06T08:02:27.190000+00:00</time>
      </trkpt>
      <trkpt lat="0" lon="0">
        <time>2020-12-06T08:02:27.198000+00:00</time>
      </trkpt>
      <trkpt lat="0" lon="0">
        <time>2020-12-06T08:02:27.203000+00:00</time>
      </trkpt>
      <trkpt lat="47.27905" lon="-1.38996">
        <ele>5</ele>
        <time>2020-12-06T08:02:28.209000+00:00</time>
      </trkpt>
      <trkpt lat="0" lon="0">
        <time>2020-12-06T08:02:28.211000+00:00</time>
      </trkpt>
      <trkpt lat="0" lon="0">
        <time>2020-12-06T08:02:28.212000+00:00</time>
      </trkpt>
      <trkpt lat="0" lon="0">
        <time>2020-12-06T08:02:28.214000+00:00</time>
      </trkpt>
      <trkpt lat="47.2791" lon="-1.38989">
        <ele>5</ele>
        <time>2020-12-06T08:02:29.229000+00:00</time>
      </trkpt>
      <trkpt lat="0" lon="0">
        <time>2020-12-06T08:02:29.239000+00:00</time>
      </trkpt>
      <trkpt lat="0" lon="0">
        <time>2020-12-06T08:02:29.244000+00:00</time>
      </trkpt>
      <trkpt lat="0" lon="0">
        <time>2020-12-06T08:02:29.246000+00:00</time>
      </trkpt>
      <trkpt lat="47.27915" lon="-1.38982">
        <ele>5</ele>
        <time>2020-12-06T08:02:30.258000+00:00</time>
      </trkpt>
      <trkpt lat="0" lon="0">
        <time>2020-12-06T08:02:30.263000+00:00</time>
      </trkpt>
      <trkpt lat="0" lon="0">
        <time>2020-12-06T08:02:30.267000+00:00</time>
      </trkpt>
      <trkpt lat="0" lon="0">
        <time>2020-12-06T08:02:30.269000+00:00</time>
      </trkpt>
      <trkpt lat="47.27919" lon="-1.38975">
        <ele>4</ele>
        <time>2020-12-06T08:02:31.264000+00:00</time>
      </trkpt>
      <trkpt lat="0" lon="0">
        <time>2020-12-06T08:02:31.270000+00:00</time>
      </trkpt>
      <trkpt lat="0" lon="0">
        <time>2020-12-06T08:02:31.279000+00:00</time>
      </trkpt>
      <trkpt lat="0" lon="0">
        <time>2020-12-06T08:02:31.281000+00:00</time>
      </trkpt>
      <trkpt lat="47.27923" lon="-1.38968">
        <ele>4</ele>
        <time>2020-12-06T08:02:32.233000+00:00</time>
      </trkpt>
      <trkpt lat="0" lon="0">
        <time>2020-12-06T08:02:32.241000+00:00</time>
      </trkpt>
      <trkpt lat="0" lon="0">
        <time>2020-12-06T08:02:32.244000+00:00</time>
      </trkpt>
      <trkpt lat="0" lon="0">
        <time>2020-12-06T08:02:32.247000+00:00</time>
      </trkpt>
      <trkpt lat="47.27928" lon="-1.38961">
        <ele>4</ele>
        <time>2020-12-06T08:02:33.214000+00:00</time>
      </trkpt>
      <trkpt lat="0" lon="0">
        <time>2020-12-06T08:02:33.225000+00:00</time>
      </trkpt>
      <trkpt lat="0" lon="0">
        <time>2020-12-06T08:02:33.232000+00:00</time>
      </trkpt>
      <trkpt lat="0" lon="0">
        <time>2020-12-06T08:02:33.234000+00:00</time>
      </trkpt>
      <trkpt lat="47.27932" lon="-1.38954">
        <ele>4</ele>
        <time>2020-12-06T08:02:34.237000+00:00</time>
      </trkpt>
      <trkpt lat="0" lon="0">
        <time>2020-12-06T08:02:34.245000+00:00</time>
      </trkpt>
      <trkpt lat="0" lon="0">
        <time>2020-12-06T08:02:34.248000+00:00</time>
      </trkpt>
      <trkpt lat="0" lon="0">
        <time>2020-12-06T08:02:34.249000+00:00</time>
      </trkpt>
      <trkpt lat="47.27936" lon="-1.38947">
        <ele>4</ele>
        <time>2020-12-06T08:02:35.187000+00:00</time>
      </trkpt>
      <trkpt lat="0" lon="0">
        <time>2020-12-06T08:02:35.197000+00:00</time>
      </trkpt>
      <trkpt lat="0" lon="0">
        <time>2020-12-06T08:02:35.203000+00:00</time>
      </trkpt>
      <trkpt lat="0" lon="0">
        <time>2020-12-06T08:02:35.205000+00:00</time>
      </trkpt>
      <trkpt lat="47.2794" lon="-1.3894">
        <ele>5</ele>
        <time>2020-12-06T08:02:36.223000+00:00</time>
      </trkpt>
      <trkpt lat="0" lon="0">
        <time>2020-12-06T08:02:36.235000+00:00</time>
      </trkpt>
      <trkpt lat="0" lon="0">
        <time>2020-12-06T08:02:36.241000+00:00</time>
      </trkpt>
      <trkpt lat="0" lon="0">
        <time>2020-12-06T08:02:36.245000+00:00</time>
      </trkpt>
      <trkpt lat="47.27944" lon="-1.38934">
        <ele>5</ele>
        <time>2020-12-06T08:02:37.227000+00:00</time>
      </trkpt>
      <trkpt lat="0" lon="0">
        <time>2020-12-06T08:02:37.251000+00:00</time>
      </trkpt>
      <trkpt lat="0" lon="0">
        <time>2020-12-06T08:02:37.259000+00:00</time>
      </trkpt>
      <trkpt lat="0" lon="0">
        <time>2020-12-06T08:02:37.260000+00:00</time>
      </trkpt>
      <trkpt lat="47.27948" lon="-1.38927">
        <ele>5</ele>
        <time>2020-12-06T08:02:38.246000+00:00</time>
      </trkpt>
      <trkpt lat="0" lon="0">
        <time>2020-12-06T08:02:38.263000+00:00</time>
      </trkpt>
      <trkpt lat="0" lon="0">
        <time>2020-12-06T08:02:38.269000+00:00</time>
      </trkpt>
      <trkpt lat="0" lon="0">
        <time>2020-12-06T08:02:38.276000+00:00</time>
      </trkpt>
      <trkpt lat="47.27952" lon="-1.38921">
        <ele>5</ele>
        <time>2020-12-06T08:02:39.194000+00:00</time>
      </trkpt>
      <trkpt lat="0" lon="0">
        <time>2020-12-06T08:02:39.213000+00:00</time>
      </trkpt>
      <trkpt lat="0" lon="0">
        <time>2020-12-06T08:02:39.215000+00:00</time>
      </trkpt>
      <trkpt lat="0" lon="0">
        <time>2020-12-06T08:02:39.217000+00:00</time>
      </trkpt>
      <trkpt lat="47.27956" lon="-1.38914">
        <ele>5</ele>
        <time>2020-12-06T08:02:40.210000+00:00</time>
      </trkpt>
      <trkpt lat="0" lon="0">
        <time>2020-12-06T08:02:40.215000+00:00</time>
      </trkpt>
      <trkpt lat="0" lon="0">
        <time>2020-12-06T08:02:40.222000+00:00</time>
      </trkpt>
      <trkpt lat="0" lon="0">
        <time>2020-12-06T08:02:40.238000+00:00</time>
      </trkpt>
      <trkpt lat="47.27961" lon="-1.38907">
        <ele>5</ele>
        <time>2020-12-06T08:02:41.251000+00:00</time>
      </trkpt>
      <trkpt lat="0" lon="0">
        <time>2020-12-06T08:02:41.257000+00:00</time>
      </trkpt>
      <trkpt lat="0" lon="0">
        <time>2020-12-06T08:02:41.265000+00:00</time>
      </trkpt>
      <trkpt lat="0" lon="0">
        <time>2020-12-06T08:02:41.267000+00:00</time>
      </trkpt>
      <trkpt lat="47.27965" lon="-1.38901">
        <ele>5</ele>
        <time>2020-12-06T08:02:42.247000+00:00</time>
      </trkpt>
      <trkpt lat="0" lon="0">
        <time>2020-12-06T08:02:42.252000+00:00</time>
      </trkpt>
      <trkpt lat="0" lon="0">
        <time>2020-12-06T08:02:42.260000+00:00</time>
      </trkpt>
      <trkpt lat="0" lon="0">
        <time>2020-12-06T08:02:42.264000+00:00</time>
      </trkpt>
      <trkpt lat="47.27969" lon="-1.38894">
        <ele>5</ele>
        <time>2020-12-06T08:02:43.210000+00:00</time>
      </trkpt>
      <trkpt lat="0" lon="0">
        <time>2020-12-06T08:02:43.221000+00:00</time>
      </trkpt>
      <trkpt lat="0" lon="0">
        <time>2020-12-06T08:02:43.227000+00:00</time>
      </trkpt>
      <trkpt lat="0" lon="0">
        <time>2020-12-06T08:02:43.234000+00:00</time>
      </trkpt>
      <trkpt lat="47.27973" lon="-1.38888">
        <ele>5</ele>
        <time>2020-12-06T08:02:44.183000+00:00</time>
      </trkpt>
      <trkpt lat="0" lon="0">
        <time>2020-12-06T08:02:44.196000+00:00</time>
      </trkpt>
      <trkpt lat="0" lon="0">
        <time>2020-12-06T08:02:44.200000+00:00</time>
      </trkpt>
      <trkpt lat="0" lon="0">
        <time>2020-12-06T08:02:44.202000+00:00</time>
      </trkpt>
      <trkpt lat="47.27978" lon="-1.38881">
        <ele>5</ele>
        <time>2020-12-06T08:02:45.170000+00:00</time>
      </trkpt>
      <trkpt lat="0" lon="0">
        <time>2020-12-06T08:02:45.172000+00:00</time>
      </trkpt>
      <trkpt lat="0" lon="0">
        <time>2020-12-06T08:02:45.176000+00:00</time>
      </trkpt>
      <trkpt lat="0" lon="0">
        <time>2020-12-06T08:02:45.177000+00:00</time>
      </trkpt>
      <trkpt lat="47.27982" lon="-1.38874">
        <ele>5</ele>
        <time>2020-12-06T08:02:46.168000+00:00</time>
      </trkpt>
      <trkpt lat="0" lon="0">
        <time>2020-12-06T08:02:46.176000+00:00</time>
      </trkpt>
      <trkpt lat="0" lon="0">
        <time>2020-12-06T08:02:46.179000+00:00</time>
      </trkpt>
      <trkpt lat="0" lon="0">
        <time>2020-12-06T08:02:46.184000+00:00</time>
      </trkpt>
      <trkpt lat="47.27987" lon="-1.38867">
        <ele>5</ele>
        <time>2020-12-06T08:02:47.250000+00:00</time>
      </trkpt>
      <trkpt lat="0" lon="0">
        <time>2020-12-06T08:02:47.255000+00:00</time>
      </trkpt>
      <trkpt lat="0" lon="0">
        <time>2020-12-06T08:02:47.263000+00:00</time>
      </trkpt>
      <trkpt lat="0" lon="0">
        <time>2020-12-06T08:02:47.267000+00:00</time>
      </trkpt>
      <trkpt lat="47.27991" lon="-1.38861">
        <ele>5</ele>
        <time>2020-12-06T08:02:48.247000+00:00</time>
      </trkpt>
      <trkpt lat="0" lon="0">
        <time>2020-12-06T08:02:48.262000+00:00</time>
      </trkpt>
      <trkpt lat="0" lon="0">
        <time>2020-12-06T08:02:48.272000+00:00</time>
      </trkpt>
      <trkpt lat="0" lon="0">
        <time>2020-12-06T08:02:48.274000+00:00</time>
      </trkpt>
      <trkpt lat="47.27996" lon="-1.38854">
        <ele>5</ele>
        <time>2020-12-06T08:02:49.248000+00:00</time>
      </trkpt>
      <trkpt lat="0" lon="0">
        <time>2020-12-06T08:02:49.254000+00:00</time>
      </trkpt>
      <trkpt lat="0" lon="0">
        <time>2020-12-06T08:02:49.260000+00:00</time>
      </trkpt>
      <trkpt lat="0" lon="0">
        <time>2020-12-06T08:02:49.262000+00:00</time>
      </trkpt>
      <trkpt lat="47.28" lon="-1.38848">
        <ele>6</ele>
        <time>2020-12-06T08:02:50.266000+00:00</time>
      </trkpt>
      <trkpt lat="0" lon="0">
        <time>2020-12-06T08:02:50.281000+00:00</time>
      </trkpt>
      <trkpt lat="0" lon="0">
        <time>2020-12-06T08:02:50.285000+00:00</time>
      </trkpt>
      <trkpt lat="0" lon="0">
        <time>2020-12-06T08:02:50.288000+00:00</time>
      </trkpt>
      <trkpt lat="47.28005" lon="-1.38842">
        <ele>5</ele>
        <time>2020-12-06T08:02:51.202000+00:00</time>
      </trkpt>
      <trkpt lat="0" lon="0">
        <time>2020-12-06T08:02:51.219000+00:00</time>
      </trkpt>
      <trkpt lat="0" lon="0">
        <time>2020-12-06T08:02:51.226000+00:00</time>
      </trkpt>
      <trkpt lat="0" lon="0">
        <time>2020-12-06T08:02:51.227000+00:00</time>
      </trkpt>
      <trkpt lat="47.2801" lon="-1.38836">
        <ele>5</ele>
        <time>2020-12-06T08:02:52.190000+00:00</time>
      </trkpt>
      <trkpt lat="0" lon="0">
        <time>2020-12-06T08:02:52.194000+00:00</time>
      </trkpt>
      <trkpt lat="0" lon="0">
        <time>2020-12-06T08:02:52.199000+00:00</time>
      </trkpt>
      <trkpt lat="0" lon="0">
        <time>2020-12-06T08:02:52.202000+00:00</time>
      </trkpt>
      <trkpt lat="47.28015" lon="-1.3883">
        <ele>6</ele>
        <time>2020-12-06T08:02:53.225000+00:00</time>
      </trkpt>
      <trkpt lat="0" lon="0">
        <time>2020-12-06T08:02:53.239000+00:00</time>
      </trkpt>
      <trkpt lat="0" lon="0">
        <time>2020-12-06T08:02:53.244000+00:00</time>
      </trkpt>
      <trkpt lat="0" lon="0">
        <time>2020-12-06T08:02:53.247000+00:00</time>
      </trkpt>
      <trkpt lat="47.2802" lon="-1.38824">
        <ele>6</ele>
        <time>2020-12-06T08:02:54.233000+00:00</time>
      </trkpt>
      <trkpt lat="0" lon="0">
        <time>2020-12-06T08:02:54.242000+00:00</time>
      </trkpt>
      <trkpt lat="0" lon="0">
        <time>2020-12-06T08:02:54.245000+00:00</time>
      </trkpt>
      <trkpt lat="0" lon="0">
        <time>2020-12-06T08:02:54.249000+00:00</time>
      </trkpt>
      <trkpt lat="47.28025" lon="-1.38819">
        <ele>6</ele>
        <time>2020-12-06T08:02:55.199000+00:00</time>
      </trkpt>
      <trkpt lat="0" lon="0">
        <time>2020-12-06T08:02:55.206000+00:00</time>
      </trkpt>
      <trkpt lat="0" lon="0">
        <time>2020-12-06T08:02:55.207000+00:00</time>
      </trkpt>
      <trkpt lat="0" lon="0">
        <time>2020-12-06T08:02:55.208000+00:00</time>
      </trkpt>
      <trkpt lat="47.28031" lon="-1.38814">
        <ele>6</ele>
        <time>2020-12-06T08:02:56.204000+00:00</time>
      </trkpt>
      <trkpt lat="0" lon="0">
        <time>2020-12-06T08:02:56.211000+00:00</time>
      </trkpt>
      <trkpt lat="0" lon="0">
        <time>2020-12-06T08:02:56.216000+00:00</time>
      </trkpt>
      <trkpt lat="0" lon="0">
        <time>2020-12-06T08:02:56.219000+00:00</time>
      </trkpt>
      <trkpt lat="47.28036" lon="-1.38809">
        <ele>6</ele>
        <time>2020-12-06T08:02:57.207000+00:00</time>
      </trkpt>
      <trkpt lat="0" lon="0">
        <time>2020-12-06T08:02:57.211000+00:00</time>
      </trkpt>
      <trkpt lat="0" lon="0">
        <time>2020-12-06T08:02:57.220000+00:00</time>
      </trkpt>
      <trkpt lat="0" lon="0">
        <time>2020-12-06T08:02:57.224000+00:00</time>
      </trkpt>
      <trkpt lat="47.28041" lon="-1.38804">
        <ele>6</ele>
        <time>2020-12-06T08:02:58.225000+00:00</time>
      </trkpt>
      <trkpt lat="0" lon="0">
        <time>2020-12-06T08:02:58.234000+00:00</time>
      </trkpt>
      <trkpt lat="0" lon="0">
        <time>2020-12-06T08:02:58.241000+00:00</time>
      </trkpt>
      <trkpt lat="0" lon="0">
        <time>2020-12-06T08:02:58.243000+00:00</time>
      </trkpt>
      <trkpt lat="47.28047" lon="-1.388">
        <ele>6</ele>
        <time>2020-12-06T08:02:59.236000+00:00</time>
      </trkpt>
      <trkpt lat="0" lon="0">
        <time>2020-12-06T08:02:59.246000+00:00</time>
      </trkpt>
      <trkpt lat="0" lon="0">
        <time>2020-12-06T08:02:59.249000+00:00</time>
      </trkpt>
      <trkpt lat="0" lon="0">
        <time>2020-12-06T08:02:59.251000+00:00</time>
      </trkpt>
      <trkpt lat="47.28052" lon="-1.38796">
        <ele>6</ele>
        <time>2020-12-06T08:03:00.190000+00:00</time>
      </trkpt>
      <trkpt lat="0" lon="0">
        <time>2020-12-06T08:03:00.202000+00:00</time>
      </trkpt>
      <trkpt lat="0" lon="0">
        <time>2020-12-06T08:03:00.209000+00:00</time>
      </trkpt>
      <trkpt lat="0" lon="0">
        <time>2020-12-06T08:03:00.211000+00:00</time>
      </trkpt>
      <trkpt lat="47.28058" lon="-1.38792">
        <ele>6</ele>
        <time>2020-12-06T08:03:01.222000+00:00</time>
      </trkpt>
      <trkpt lat="0" lon="0">
        <time>2020-12-06T08:03:01.236000+00:00</time>
      </trkpt>
      <trkpt lat="0" lon="0">
        <time>2020-12-06T08:03:01.242000+00:00</time>
      </trkpt>
      <trkpt lat="0" lon="0">
        <time>2020-12-06T08:03:01.245000+00:00</time>
      </trkpt>
      <trkpt lat="47.28064" lon="-1.38789">
        <ele>6</ele>
        <time>2020-12-06T08:03:02.206000+00:00</time>
      </trkpt>
      <trkpt lat="0" lon="0">
        <time>2020-12-06T08:03:02.217000+00:00</time>
      </trkpt>
      <trkpt lat="0" lon="0">
        <time>2020-12-06T08:03:02.219000+00:00</time>
      </trkpt>
      <trkpt lat="0" lon="0">
        <time>2020-12-06T08:03:02.223000+00:00</time>
      </trkpt>
      <trkpt lat="47.2807" lon="-1.38785">
        <ele>6</ele>
        <time>2020-12-06T08:03:03.205000+00:00</time>
      </trkpt>
      <trkpt lat="0" lon="0">
        <time>2020-12-06T08:03:03.217000+00:00</time>
      </trkpt>
      <trkpt lat="0" lon="0">
        <time>2020-12-06T08:03:03.220000+00:00</time>
      </trkpt>
      <trkpt lat="0" lon="0">
        <time>2020-12-06T08:03:03.222000+00:00</time>
      </trkpt>
      <trkpt lat="47.28076" lon="-1.38781">
        <ele>6</ele>
        <time>2020-12-06T08:03:04.237000+00:00</time>
      </trkpt>
      <trkpt lat="0" lon="0">
        <time>2020-12-06T08:03:04.243000+00:00</time>
      </trkpt>
      <trkpt lat="0" lon="0">
        <time>2020-12-06T08:03:04.247000+00:00</time>
      </trkpt>
      <trkpt lat="0" lon="0">
        <time>2020-12-06T08:03:04.250000+00:00</time>
      </trkpt>
      <trkpt lat="47.28081" lon="-1.38777">
        <ele>6</ele>
        <time>2020-12-06T08:03:05.239000+00:00</time>
      </trkpt>
      <trkpt lat="0" lon="0">
        <time>2020-12-06T08:03:05.243000+00:00</time>
      </trkpt>
      <trkpt lat="0" lon="0">
        <time>2020-12-06T08:03:05.247000+00:00</time>
      </trkpt>
      <trkpt lat="0" lon="0">
        <time>2020-12-06T08:03:05.249000+00:00</time>
      </trkpt>
      <trkpt lat="47.28087" lon="-1.38773">
        <ele>5</ele>
        <time>2020-12-06T08:03:06.229000+00:00</time>
      </trkpt>
      <trkpt lat="0" lon="0">
        <time>2020-12-06T08:03:06.234000+00:00</time>
      </trkpt>
      <trkpt lat="0" lon="0">
        <time>2020-12-06T08:03:06.243000+00:00</time>
      </trkpt>
      <trkpt lat="0" lon="0">
        <time>2020-12-06T08:03:06.245000+00:00</time>
      </trkpt>
      <trkpt lat="47.28093" lon="-1.38771">
        <ele>5</ele>
        <time>2020-12-06T08:03:07.212000+00:00</time>
      </trkpt>
      <trkpt lat="0" lon="0">
        <time>2020-12-06T08:03:07.220000+00:00</time>
      </trkpt>
      <trkpt lat="0" lon="0">
        <time>2020-12-06T08:03:07.222000+00:00</time>
      </trkpt>
      <trkpt lat="0" lon="0">
        <time>2020-12-06T08:03:07.224000+00:00</time>
      </trkpt>
      <trkpt lat="47.28099" lon="-1.38769">
        <ele>5</ele>
        <time>2020-12-06T08:03:08.216000+00:00</time>
      </trkpt>
      <trkpt lat="0" lon="0">
        <time>2020-12-06T08:03:08.232000+00:00</time>
      </trkpt>
      <trkpt lat="0" lon="0">
        <time>2020-12-06T08:03:08.239000+00:00</time>
      </trkpt>
      <trkpt lat="0" lon="0">
        <time>2020-12-06T08:03:08.241000+00:00</time>
      </trkpt>
      <trkpt lat="47.28105" lon="-1.38767">
        <ele>5</ele>
        <time>2020-12-06T08:03:09.201000+00:00</time>
      </trkpt>
      <trkpt lat="0" lon="0">
        <time>2020-12-06T08:03:09.212000+00:00</time>
      </trkpt>
      <trkpt lat="0" lon="0">
        <time>2020-12-06T08:03:09.217000+00:00</time>
      </trkpt>
      <trkpt lat="0" lon="0">
        <time>2020-12-06T08:03:09.222000+00:00</time>
      </trkpt>
      <trkpt lat="47.28111" lon="-1.38765">
        <ele>5</ele>
        <time>2020-12-06T08:03:10.223000+00:00</time>
      </trkpt>
      <trkpt lat="0" lon="0">
        <time>2020-12-06T08:03:10.227000+00:00</time>
      </trkpt>
      <trkpt lat="0" lon="0">
        <time>2020-12-06T08:03:10.229000+00:00</time>
      </trkpt>
      <trkpt lat="0" lon="0">
        <time>2020-12-06T08:03:10.230000+00:00</time>
      </trkpt>
      <trkpt lat="47.28117" lon="-1.38762">
        <ele>5</ele>
        <time>2020-12-06T08:03:11.232000+00:00</time>
      </trkpt>
      <trkpt lat="0" lon="0">
        <time>2020-12-06T08:03:11.236000+00:00</time>
      </trkpt>
      <trkpt lat="0" lon="0">
        <time>2020-12-06T08:03:11.238000+00:00</time>
      </trkpt>
      <trkpt lat="0" lon="0">
        <time>2020-12-06T08:03:11.242000+00:00</time>
      </trkpt>
      <trkpt lat="47.28122" lon="-1.3876">
        <ele>5</ele>
        <time>2020-12-06T08:03:12.212000+00:00</time>
      </trkpt>
      <trkpt lat="0" lon="0">
        <time>2020-12-06T08:03:12.237000+00:00</time>
      </trkpt>
      <trkpt lat="0" lon="0">
        <time>2020-12-06T08:03:12.240000+00:00</time>
      </trkpt>
      <trkpt lat="0" lon="0">
        <time>2020-12-06T08:03:12.242000+00:00</time>
      </trkpt>
      <trkpt lat="47.28128" lon="-1.38757">
        <ele>5</ele>
        <time>2020-12-06T08:03:13.229000+00:00</time>
      </trkpt>
      <trkpt lat="0" lon="0">
        <time>2020-12-06T08:03:13.233000+00:00</time>
      </trkpt>
      <trkpt lat="0" lon="0">
        <time>2020-12-06T08:03:13.238000+00:00</time>
      </trkpt>
      <trkpt lat="0" lon="0">
        <time>2020-12-06T08:03:13.240000+00:00</time>
      </trkpt>
      <trkpt lat="47.28133" lon="-1.38754">
        <ele>5</ele>
        <time>2020-12-06T08:03:14.211000+00:00</time>
      </trkpt>
      <trkpt lat="0" lon="0">
        <time>2020-12-06T08:03:14.222000+00:00</time>
      </trkpt>
      <trkpt lat="0" lon="0">
        <time>2020-12-06T08:03:14.232000+00:00</time>
      </trkpt>
      <trkpt lat="0" lon="0">
        <time>2020-12-06T08:03:14.234000+00:00</time>
      </trkpt>
      <trkpt lat="47.28138" lon="-1.3875">
        <ele>5</ele>
        <time>2020-12-06T08:03:15.231000+00:00</time>
      </trkpt>
      <trkpt lat="0" lon="0">
        <time>2020-12-06T08:03:15.235000+00:00</time>
      </trkpt>
      <trkpt lat="0" lon="0">
        <time>2020-12-06T08:03:15.244000+00:00</time>
      </trkpt>
      <trkpt lat="0" lon="0">
        <time>2020-12-06T08:03:15.246000+00:00</time>
      </trkpt>
      <trkpt lat="47.28144" lon="-1.38747">
        <ele>6</ele>
        <time>2020-12-06T08:03:16.193000+00:00</time>
      </trkpt>
      <trkpt lat="0" lon="0">
        <time>2020-12-06T08:03:16.197000+00:00</time>
      </trkpt>
      <trkpt lat="0" lon="0">
        <time>2020-12-06T08:03:16.203000+00:00</time>
      </trkpt>
      <trkpt lat="0" lon="0">
        <time>2020-12-06T08:03:16.206000+00:00</time>
      </trkpt>
      <trkpt lat="47.28149" lon="-1.38743">
        <ele>6</ele>
        <time>2020-12-06T08:03:17.226000+00:00</time>
      </trkpt>
      <trkpt lat="0" lon="0">
        <time>2020-12-06T08:03:17.234000+00:00</time>
      </trkpt>
      <trkpt lat="0" lon="0">
        <time>2020-12-06T08:03:17.239000+00:00</time>
      </trkpt>
      <trkpt lat="0" lon="0">
        <time>2020-12-06T08:03:17.242000+00:00</time>
      </trkpt>
      <trkpt lat="47.28154" lon="-1.38738">
        <ele>6</ele>
        <time>2020-12-06T08:03:18.236000+00:00</time>
      </trkpt>
      <trkpt lat="0" lon="0">
        <time>2020-12-06T08:03:18.250000+00:00</time>
      </trkpt>
      <trkpt lat="0" lon="0">
        <time>2020-12-06T08:03:18.254000+00:00</time>
      </trkpt>
      <trkpt lat="0" lon="0">
        <time>2020-12-06T08:03:18.258000+00:00</time>
      </trkpt>
      <trkpt lat="47.28159" lon="-1.38734">
        <ele>6</ele>
        <time>2020-12-06T08:03:19.187000+00:00</time>
      </trkpt>
      <trkpt lat="0" lon="0">
        <time>2020-12-06T08:03:19.207000+00:00</time>
      </trkpt>
      <trkpt lat="0" lon="0">
        <time>2020-12-06T08:03:19.213000+00:00</time>
      </trkpt>
      <trkpt lat="0" lon="0">
        <time>2020-12-06T08:03:19.215000+00:00</time>
      </trkpt>
      <trkpt lat="47.28164" lon="-1.38729">
        <ele>6</ele>
        <time>2020-12-06T08:03:20.208000+00:00</time>
      </trkpt>
      <trkpt lat="0" lon="0">
        <time>2020-12-06T08:03:20.215000+00:00</time>
      </trkpt>
      <trkpt lat="0" lon="0">
        <time>2020-12-06T08:03:20.224000+00:00</time>
      </trkpt>
      <trkpt lat="0" lon="0">
        <time>2020-12-06T08:03:20.227000+00:00</time>
      </trkpt>
      <trkpt lat="47.28169" lon="-1.38724">
        <ele>6</ele>
        <time>2020-12-06T08:03:21.202000+00:00</time>
      </trkpt>
      <trkpt lat="0" lon="0">
        <time>2020-12-06T08:03:21.210000+00:00</time>
      </trkpt>
      <trkpt lat="0" lon="0">
        <time>2020-12-06T08:03:21.221000+00:00</time>
      </trkpt>
      <trkpt lat="0" lon="0">
        <time>2020-12-06T08:03:21.223000+00:00</time>
      </trkpt>
      <trkpt lat="47.28174" lon="-1.38719">
        <ele>6</ele>
        <time>2020-12-06T08:03:22.160000+00:00</time>
      </trkpt>
      <trkpt lat="0" lon="0">
        <time>2020-12-06T08:03:22.167000+00:00</time>
      </trkpt>
      <trkpt lat="0" lon="0">
        <time>2020-12-06T08:03:22.169000+00:00</time>
      </trkpt>
      <trkpt lat="47.28178" lon="-1.38713">
        <ele>6</ele>
        <time>2020-12-06T08:03:23.181000+00:00</time>
      </trkpt>
      <trkpt lat="0" lon="0">
        <time>2020-12-06T08:03:23.183000+00:00</time>
      </trkpt>
      <trkpt lat="0" lon="0">
        <time>2020-12-06T08:03:23.188000+00:00</time>
      </trkpt>
      <trkpt lat="0" lon="0">
        <time>2020-12-06T08:03:23.190000+00:00</time>
      </trkpt>
      <trkpt lat="47.28182" lon="-1.38707">
        <ele>6</ele>
        <time>2020-12-06T08:03:24.215000+00:00</time>
      </trkpt>
      <trkpt lat="0" lon="0">
        <time>2020-12-06T08:03:24.222000+00:00</time>
      </trkpt>
      <trkpt lat="0" lon="0">
        <time>2020-12-06T08:03:24.224000+00:00</time>
      </trkpt>
      <trkpt lat="0" lon="0">
        <time>2020-12-06T08:03:24.225000+00:00</time>
      </trkpt>
      <trkpt lat="47.28185" lon="-1.387">
        <ele>6</ele>
        <time>2020-12-06T08:03:25.181000+00:00</time>
      </trkpt>
      <trkpt lat="0" lon="0">
        <time>2020-12-06T08:03:25.185000+00:00</time>
      </trkpt>
      <trkpt lat="0" lon="0">
        <time>2020-12-06T08:03:25.189000+00:00</time>
      </trkpt>
      <trkpt lat="0" lon="0">
        <time>2020-12-06T08:03:25.191000+00:00</time>
      </trkpt>
      <trkpt lat="47.28188" lon="-1.38692">
        <ele>6</ele>
        <time>2020-12-06T08:03:26.199000+00:00</time>
      </trkpt>
      <trkpt lat="0" lon="0">
        <time>2020-12-06T08:03:26.202000+00:00</time>
      </trkpt>
      <trkpt lat="0" lon="0">
        <time>2020-12-06T08:03:26.210000+00:00</time>
      </trkpt>
      <trkpt lat="0" lon="0">
        <time>2020-12-06T08:03:26.211000+00:00</time>
      </trkpt>
      <trkpt lat="47.28191" lon="-1.38684">
        <ele>6</ele>
        <time>2020-12-06T08:03:27.222000+00:00</time>
      </trkpt>
      <trkpt lat="0" lon="0">
        <time>2020-12-06T08:03:27.225000+00:00</time>
      </trkpt>
      <trkpt lat="0" lon="0">
        <time>2020-12-06T08:03:27.231000+00:00</time>
      </trkpt>
      <trkpt lat="0" lon="0">
        <time>2020-12-06T08:03:27.233000+00:00</time>
      </trkpt>
      <trkpt lat="47.28193" lon="-1.38676">
        <ele>7</ele>
        <time>2020-12-06T08:03:28.233000+00:00</time>
      </trkpt>
      <trkpt lat="0" lon="0">
        <time>2020-12-06T08:03:28.252000+00:00</time>
      </trkpt>
      <trkpt lat="0" lon="0">
        <time>2020-12-06T08:03:28.262000+00:00</time>
      </trkpt>
      <trkpt lat="0" lon="0">
        <time>2020-12-06T08:03:28.264000+00:00</time>
      </trkpt>
      <trkpt lat="47.28195" lon="-1.38667">
        <ele>7</ele>
        <time>2020-12-06T08:03:29.218000+00:00</time>
      </trkpt>
      <trkpt lat="0" lon="0">
        <time>2020-12-06T08:03:29.237000+00:00</time>
      </trkpt>
      <trkpt lat="0" lon="0">
        <time>2020-12-06T08:03:29.243000+00:00</time>
      </trkpt>
      <trkpt lat="0" lon="0">
        <time>2020-12-06T08:03:29.246000+00:00</time>
      </trkpt>
      <trkpt lat="47.28197" lon="-1.38659">
        <ele>7</ele>
        <time>2020-12-06T08:03:30.205000+00:00</time>
      </trkpt>
      <trkpt lat="0" lon="0">
        <time>2020-12-06T08:03:30.225000+00:00</time>
      </trkpt>
      <trkpt lat="0" lon="0">
        <time>2020-12-06T08:03:30.229000+00:00</time>
      </trkpt>
      <trkpt lat="0" lon="0">
        <time>2020-12-06T08:03:30.230000+00:00</time>
      </trkpt>
      <trkpt lat="47.28199" lon="-1.3865">
        <ele>6</ele>
        <time>2020-12-06T08:03:31.194000+00:00</time>
      </trkpt>
      <trkpt lat="0" lon="0">
        <time>2020-12-06T08:03:31.209000+00:00</time>
      </trkpt>
      <trkpt lat="0" lon="0">
        <time>2020-12-06T08:03:31.213000+00:00</time>
      </trkpt>
      <trkpt lat="0" lon="0">
        <time>2020-12-06T08:03:31.215000+00:00</time>
      </trkpt>
      <trkpt lat="47.28202" lon="-1.38641">
        <ele>6</ele>
        <time>2020-12-06T08:03:32.211000+00:00</time>
      </trkpt>
      <trkpt lat="0" lon="0">
        <time>2020-12-06T08:03:32.214000+00:00</time>
      </trkpt>
      <trkpt lat="0" lon="0">
        <time>2020-12-06T08:03:32.223000+00:00</time>
      </trkpt>
      <trkpt lat="0" lon="0">
        <time>2020-12-06T08:03:32.229000+00:00</time>
      </trkpt>
      <trkpt lat="47.28203" lon="-1.38632">
        <ele>6</ele>
        <time>2020-12-06T08:03:33.219000+00:00</time>
      </trkpt>
      <trkpt lat="0" lon="0">
        <time>2020-12-06T08:03:33.222000+00:00</time>
      </trkpt>
      <trkpt lat="0" lon="0">
        <time>2020-12-06T08:03:33.238000+00:00</time>
      </trkpt>
      <trkpt lat="0" lon="0">
        <time>2020-12-06T08:03:33.241000+00:00</time>
      </trkpt>
      <trkpt lat="47.28205" lon="-1.38623">
        <ele>6</ele>
        <time>2020-12-06T08:03:34.203000+00:00</time>
      </trkpt>
      <trkpt lat="0" lon="0">
        <time>2020-12-06T08:03:34.206000+00:00</time>
      </trkpt>
      <trkpt lat="0" lon="0">
        <time>2020-12-06T08:03:34.214000+00:00</time>
      </trkpt>
      <trkpt lat="0" lon="0">
        <time>2020-12-06T08:03:34.222000+00:00</time>
      </trkpt>
      <trkpt lat="47.28206" lon="-1.38613">
        <ele>6</ele>
        <time>2020-12-06T08:03:35.236000+00:00</time>
      </trkpt>
      <trkpt lat="0" lon="0">
        <time>2020-12-06T08:03:35.244000+00:00</time>
      </trkpt>
      <trkpt lat="0" lon="0">
        <time>2020-12-06T08:03:35.250000+00:00</time>
      </trkpt>
      <trkpt lat="0" lon="0">
        <time>2020-12-06T08:03:35.252000+00:00</time>
      </trkpt>
      <trkpt lat="47.28207" lon="-1.38604">
        <ele>5</ele>
        <time>2020-12-06T08:03:36.200000+00:00</time>
      </trkpt>
      <trkpt lat="0" lon="0">
        <time>2020-12-06T08:03:36.206000+00:00</time>
      </trkpt>
      <trkpt lat="0" lon="0">
        <time>2020-12-06T08:03:36.209000+00:00</time>
      </trkpt>
      <trkpt lat="0" lon="0">
        <time>2020-12-06T08:03:36.210000+00:00</time>
      </trkpt>
      <trkpt lat="47.28208" lon="-1.38595">
        <ele>5</ele>
        <time>2020-12-06T08:03:37.239000+00:00</time>
      </trkpt>
      <trkpt lat="0" lon="0">
        <time>2020-12-06T08:03:37.243000+00:00</time>
      </trkpt>
      <trkpt lat="0" lon="0">
        <time>2020-12-06T08:03:37.248000+00:00</time>
      </trkpt>
      <trkpt lat="0" lon="0">
        <time>2020-12-06T08:03:37.249000+00:00</time>
      </trkpt>
      <trkpt lat="47.28209" lon="-1.38585">
        <ele>5</ele>
        <time>2020-12-06T08:03:38.204000+00:00</time>
      </trkpt>
      <trkpt lat="0" lon="0">
        <time>2020-12-06T08:03:38.207000+00:00</time>
      </trkpt>
      <trkpt lat="0" lon="0">
        <time>2020-12-06T08:03:38.220000+00:00</time>
      </trkpt>
      <trkpt lat="0" lon="0">
        <time>2020-12-06T08:03:38.221000+00:00</time>
      </trkpt>
      <trkpt lat="47.28209" lon="-1.38576">
        <ele>5</ele>
        <time>2020-12-06T08:03:39.217000+00:00</time>
      </trkpt>
      <trkpt lat="0" lon="0">
        <time>2020-12-06T08:03:39.223000+00:00</time>
      </trkpt>
      <trkpt lat="0" lon="0">
        <time>2020-12-06T08:03:39.230000+00:00</time>
      </trkpt>
      <trkpt lat="0" lon="0">
        <time>2020-12-06T08:03:39.232000+00:00</time>
      </trkpt>
      <trkpt lat="47.28209" lon="-1.38566">
        <ele>5</ele>
        <time>2020-12-06T08:03:40.208000+00:00</time>
      </trkpt>
      <trkpt lat="0" lon="0">
        <time>2020-12-06T08:03:40.215000+00:00</time>
      </trkpt>
      <trkpt lat="0" lon="0">
        <time>2020-12-06T08:03:40.220000+00:00</time>
      </trkpt>
      <trkpt lat="0" lon="0">
        <time>2020-12-06T08:03:40.224000+00:00</time>
      </trkpt>
      <trkpt lat="47.28209" lon="-1.38557">
        <ele>5</ele>
        <time>2020-12-06T08:03:41.218000+00:00</time>
      </trkpt>
      <trkpt lat="0" lon="0">
        <time>2020-12-06T08:03:41.221000+00:00</time>
      </trkpt>
      <trkpt lat="0" lon="0">
        <time>2020-12-06T08:03:41.225000+00:00</time>
      </trkpt>
      <trkpt lat="0" lon="0">
        <time>2020-12-06T08:03:41.226000+00:00</time>
      </trkpt>
      <trkpt lat="47.28209" lon="-1.38547">
        <ele>5</ele>
        <time>2020-12-06T08:03:42.214000+00:00</time>
      </trkpt>
      <trkpt lat="0" lon="0">
        <time>2020-12-06T08:03:42.219000+00:00</time>
      </trkpt>
      <trkpt lat="0" lon="0">
        <time>2020-12-06T08:03:42.225000+00:00</time>
      </trkpt>
      <trkpt lat="0" lon="0">
        <time>2020-12-06T08:03:42.227000+00:00</time>
      </trkpt>
      <trkpt lat="47.28209" lon="-1.38537">
        <ele>6</ele>
        <time>2020-12-06T08:03:43.210000+00:00</time>
      </trkpt>
      <trkpt lat="0" lon="0">
        <time>2020-12-06T08:03:43.213000+00:00</time>
      </trkpt>
      <trkpt lat="0" lon="0">
        <time>2020-12-06T08:03:43.217000+00:00</time>
      </trkpt>
      <trkpt lat="0" lon="0">
        <time>2020-12-06T08:03:43.219000+00:00</time>
      </trkpt>
      <trkpt lat="47.28209" lon="-1.38528">
        <ele>6</ele>
        <time>2020-12-06T08:03:44.227000+00:00</time>
      </trkpt>
      <trkpt lat="0" lon="0">
        <time>2020-12-06T08:03:44.240000+00:00</time>
      </trkpt>
      <trkpt lat="0" lon="0">
        <time>2020-12-06T08:03:44.243000+00:00</time>
      </trkpt>
      <trkpt lat="0" lon="0">
        <time>2020-12-06T08:03:44.245000+00:00</time>
      </trkpt>
      <trkpt lat="47.28209" lon="-1.38518">
        <ele>6</ele>
        <time>2020-12-06T08:03:45.222000+00:00</time>
      </trkpt>
      <trkpt lat="0" lon="0">
        <time>2020-12-06T08:03:45.234000+00:00</time>
      </trkpt>
      <trkpt lat="0" lon="0">
        <time>2020-12-06T08:03:45.238000+00:00</time>
      </trkpt>
      <trkpt lat="0" lon="0">
        <time>2020-12-06T08:03:45.241000+00:00</time>
      </trkpt>
      <trkpt lat="47.2821" lon="-1.38509">
        <ele>6</ele>
        <time>2020-12-06T08:03:46.223000+00:00</time>
      </trkpt>
      <trkpt lat="0" lon="0">
        <time>2020-12-06T08:03:46.226000+00:00</time>
      </trkpt>
      <trkpt lat="0" lon="0">
        <time>2020-12-06T08:03:46.235000+00:00</time>
      </trkpt>
      <trkpt lat="0" lon="0">
        <time>2020-12-06T08:03:46.237000+00:00</time>
      </trkpt>
      <trkpt lat="47.28211" lon="-1.385">
        <ele>6</ele>
        <time>2020-12-06T08:03:47.209000+00:00</time>
      </trkpt>
      <trkpt lat="0" lon="0">
        <time>2020-12-06T08:03:47.220000+00:00</time>
      </trkpt>
      <trkpt lat="0" lon="0">
        <time>2020-12-06T08:03:47.226000+00:00</time>
      </trkpt>
      <trkpt lat="0" lon="0">
        <time>2020-12-06T08:03:47.228000+00:00</time>
      </trkpt>
      <trkpt lat="47.28213" lon="-1.38491">
        <ele>6</ele>
        <time>2020-12-06T08:03:48.206000+00:00</time>
      </trkpt>
      <trkpt lat="0" lon="0">
        <time>2020-12-06T08:03:48.214000+00:00</time>
      </trkpt>
      <trkpt lat="0" lon="0">
        <time>2020-12-06T08:03:48.218000+00:00</time>
      </trkpt>
      <trkpt lat="0" lon="0">
        <time>2020-12-06T08:03:48.225000+00:00</time>
      </trkpt>
      <trkpt lat="47.28215" lon="-1.38483">
        <ele>6</ele>
        <time>2020-12-06T08:03:49.189000+00:00</time>
      </trkpt>
      <trkpt lat="0" lon="0">
        <time>2020-12-06T08:03:49.199000+00:00</time>
      </trkpt>
      <trkpt lat="0" lon="0">
        <time>2020-12-06T08:03:49.201000+00:00</time>
      </trkpt>
      <trkpt lat="0" lon="0">
        <time>2020-12-06T08:03:49.202000+00:00</time>
      </trkpt>
      <trkpt lat="47.28217" lon="-1.38474">
        <ele>6</ele>
        <time>2020-12-06T08:03:50.228000+00:00</time>
      </trkpt>
      <trkpt lat="0" lon="0">
        <time>2020-12-06T08:03:50.243000+00:00</time>
      </trkpt>
      <trkpt lat="0" lon="0">
        <time>2020-12-06T08:03:50.249000+00:00</time>
      </trkpt>
      <trkpt lat="0" lon="0">
        <time>2020-12-06T08:03:50.251000+00:00</time>
      </trkpt>
      <trkpt lat="47.2822" lon="-1.38466">
        <ele>6</ele>
        <time>2020-12-06T08:03:51.226000+00:00</time>
      </trkpt>
      <trkpt lat="0" lon="0">
        <time>2020-12-06T08:03:51.246000+00:00</time>
      </trkpt>
      <trkpt lat="0" lon="0">
        <time>2020-12-06T08:03:51.249000+00:00</time>
      </trkpt>
      <trkpt lat="0" lon="0">
        <time>2020-12-06T08:03:51.251000+00:00</time>
      </trkpt>
      <trkpt lat="47.28223" lon="-1.38459">
        <ele>6</ele>
        <time>2020-12-06T08:03:52.190000+00:00</time>
      </trkpt>
      <trkpt lat="0" lon="0">
        <time>2020-12-06T08:03:52.208000+00:00</time>
      </trkpt>
      <trkpt lat="0" lon="0">
        <time>2020-12-06T08:03:52.212000+00:00</time>
      </trkpt>
      <trkpt lat="0" lon="0">
        <time>2020-12-06T08:03:52.216000+00:00</time>
      </trkpt>
      <trkpt lat="47.28227" lon="-1.38451">
        <ele>6</ele>
        <time>2020-12-06T08:03:53.225000+00:00</time>
      </trkpt>
      <trkpt lat="0" lon="0">
        <time>2020-12-06T08:03:53.231000+00:00</time>
      </trkpt>
      <trkpt lat="0" lon="0">
        <time>2020-12-06T08:03:53.242000+00:00</time>
      </trkpt>
      <trkpt lat="0" lon="0">
        <time>2020-12-06T08:03:53.244000+00:00</time>
      </trkpt>
      <trkpt lat="47.2823" lon="-1.38443">
        <ele>6</ele>
        <time>2020-12-06T08:03:54.233000+00:00</time>
      </trkpt>
      <trkpt lat="0" lon="0">
        <time>2020-12-06T08:03:54.242000+00:00</time>
      </trkpt>
      <trkpt lat="0" lon="0">
        <time>2020-12-06T08:03:54.243000+00:00</time>
      </trkpt>
      <trkpt lat="0" lon="0">
        <time>2020-12-06T08:03:54.244000+00:00</time>
      </trkpt>
      <trkpt lat="47.28234" lon="-1.38436">
        <ele>6</ele>
        <time>2020-12-06T08:03:55.227000+00:00</time>
      </trkpt>
      <trkpt lat="0" lon="0">
        <time>2020-12-06T08:03:55.237000+00:00</time>
      </trkpt>
      <trkpt lat="0" lon="0">
        <time>2020-12-06T08:03:55.241000+00:00</time>
      </trkpt>
      <trkpt lat="0" lon="0">
        <time>2020-12-06T08:03:55.243000+00:00</time>
      </trkpt>
      <trkpt lat="47.28238" lon="-1.38429">
        <ele>6</ele>
        <time>2020-12-06T08:03:56.206000+00:00</time>
      </trkpt>
      <trkpt lat="0" lon="0">
        <time>2020-12-06T08:03:56.209000+00:00</time>
      </trkpt>
      <trkpt lat="0" lon="0">
        <time>2020-12-06T08:03:56.213000+00:00</time>
      </trkpt>
      <trkpt lat="47.28242" lon="-1.38422">
        <ele>6</ele>
        <time>2020-12-06T08:03:57.225000+00:00</time>
      </trkpt>
      <trkpt lat="0" lon="0">
        <time>2020-12-06T08:03:57.235000+00:00</time>
      </trkpt>
      <trkpt lat="0" lon="0">
        <time>2020-12-06T08:03:57.237000+00:00</time>
      </trkpt>
      <trkpt lat="0" lon="0">
        <time>2020-12-06T08:03:57.238000+00:00</time>
      </trkpt>
      <trkpt lat="47.28246" lon="-1.38416">
        <ele>6</ele>
        <time>2020-12-06T08:03:58.203000+00:00</time>
      </trkpt>
      <trkpt lat="0" lon="0">
        <time>2020-12-06T08:03:58.205000+00:00</time>
      </trkpt>
      <trkpt lat="0" lon="0">
        <time>2020-12-06T08:03:58.217000+00:00</time>
      </trkpt>
      <trkpt lat="0" lon="0">
        <time>2020-12-06T08:03:58.219000+00:00</time>
      </trkpt>
      <trkpt lat="47.2825" lon="-1.38409">
        <ele>6</ele>
        <time>2020-12-06T08:03:59.211000+00:00</time>
      </trkpt>
      <trkpt lat="0" lon="0">
        <time>2020-12-06T08:03:59.214000+00:00</time>
      </trkpt>
      <trkpt lat="0" lon="0">
        <time>2020-12-06T08:03:59.216000+00:00</time>
      </trkpt>
      <trkpt lat="0" lon="0">
        <time>2020-12-06T08:03:59.218000+00:00</time>
      </trkpt>
      <trkpt lat="47.28255" lon="-1.38402">
        <ele>6</ele>
        <time>2020-12-06T08:04:00.209000+00:00</time>
      </trkpt>
      <trkpt lat="0" lon="0">
        <time>2020-12-06T08:04:00.225000+00:00</time>
      </trkpt>
      <trkpt lat="0" lon="0">
        <time>2020-12-06T08:04:00.230000+00:00</time>
      </trkpt>
      <trkpt lat="0" lon="0">
        <time>2020-12-06T08:04:00.232000+00:00</time>
      </trkpt>
      <trkpt lat="47.28259" lon="-1.38395">
        <ele>6</ele>
        <time>2020-12-06T08:04:01.216000+00:00</time>
      </trkpt>
      <trkpt lat="0" lon="0">
        <time>2020-12-06T08:04:01.230000+00:00</time>
      </trkpt>
      <trkpt lat="0" lon="0">
        <time>2020-12-06T08:04:01.236000+00:00</time>
      </trkpt>
      <trkpt lat="0" lon="0">
        <time>2020-12-06T08:04:01.238000+00:00</time>
      </trkpt>
      <trkpt lat="47.28263" lon="-1.38387">
        <ele>6</ele>
        <time>2020-12-06T08:04:02.201000+00:00</time>
      </trkpt>
      <trkpt lat="0" lon="0">
        <time>2020-12-06T08:04:02.220000+00:00</time>
      </trkpt>
      <trkpt lat="0" lon="0">
        <time>2020-12-06T08:04:02.227000+00:00</time>
      </trkpt>
      <trkpt lat="0" lon="0">
        <time>2020-12-06T08:04:02.230000+00:00</time>
      </trkpt>
      <trkpt lat="47.28267" lon="-1.3838">
        <ele>6</ele>
        <time>2020-12-06T08:04:03.201000+00:00</time>
      </trkpt>
      <trkpt lat="0" lon="0">
        <time>2020-12-06T08:04:03.209000+00:00</time>
      </trkpt>
      <trkpt lat="0" lon="0">
        <time>2020-12-06T08:04:03.212000+00:00</time>
      </trkpt>
      <trkpt lat="0" lon="0">
        <time>2020-12-06T08:04:03.214000+00:00</time>
      </trkpt>
      <trkpt lat="47.28271" lon="-1.38372">
        <ele>6</ele>
        <time>2020-12-06T08:04:04.196000+00:00</time>
      </trkpt>
      <trkpt lat="0" lon="0">
        <time>2020-12-06T08:04:04.205000+00:00</time>
      </trkpt>
      <trkpt lat="0" lon="0">
        <time>2020-12-06T08:04:04.213000+00:00</time>
      </trkpt>
      <trkpt lat="0" lon="0">
        <time>2020-12-06T08:04:04.215000+00:00</time>
      </trkpt>
      <trkpt lat="47.28275" lon="-1.38364">
        <ele>6</ele>
        <time>2020-12-06T08:04:05.166000+00:00</time>
      </trkpt>
      <trkpt lat="0" lon="0">
        <time>2020-12-06T08:04:05.171000+00:00</time>
      </trkpt>
      <trkpt lat="0" lon="0">
        <time>2020-12-06T08:04:05.175000+00:00</time>
      </trkpt>
      <trkpt lat="0" lon="0">
        <time>2020-12-06T08:04:05.176000+00:00</time>
      </trkpt>
      <trkpt lat="47.28279" lon="-1.38357">
        <ele>6</ele>
        <time>2020-12-06T08:04:06.200000+00:00</time>
      </trkpt>
      <trkpt lat="0" lon="0">
        <time>2020-12-06T08:04:06.212000+00:00</time>
      </trkpt>
      <trkpt lat="0" lon="0">
        <time>2020-12-06T08:04:06.216000+00:00</time>
      </trkpt>
      <trkpt lat="0" lon="0">
        <time>2020-12-06T08:04:06.220000+00:00</time>
      </trkpt>
      <trkpt lat="47.28283" lon="-1.38349">
        <ele>6</ele>
        <time>2020-12-06T08:04:07.198000+00:00</time>
      </trkpt>
      <trkpt lat="0" lon="0">
        <time>2020-12-06T08:04:07.205000+00:00</time>
      </trkpt>
      <trkpt lat="0" lon="0">
        <time>2020-12-06T08:04:07.211000+00:00</time>
      </trkpt>
      <trkpt lat="0" lon="0">
        <time>2020-12-06T08:04:07.212000+00:00</time>
      </trkpt>
      <trkpt lat="47.28287" lon="-1.38341">
        <ele>6</ele>
        <time>2020-12-06T08:04:08.209000+00:00</time>
      </trkpt>
      <trkpt lat="0" lon="0">
        <time>2020-12-06T08:04:08.213000+00:00</time>
      </trkpt>
      <trkpt lat="0" lon="0">
        <time>2020-12-06T08:04:08.217000+00:00</time>
      </trkpt>
      <trkpt lat="0" lon="0">
        <time>2020-12-06T08:04:08.219000+00:00</time>
      </trkpt>
      <trkpt lat="47.2829" lon="-1.38334">
        <ele>6</ele>
        <time>2020-12-06T08:04:09.226000+00:00</time>
      </trkpt>
      <trkpt lat="0" lon="0">
        <time>2020-12-06T08:04:09.239000+00:00</time>
      </trkpt>
      <trkpt lat="0" lon="0">
        <time>2020-12-06T08:04:09.242000+00:00</time>
      </trkpt>
      <trkpt lat="0" lon="0">
        <time>2020-12-06T08:04:09.244000+00:00</time>
      </trkpt>
      <trkpt lat="47.28294" lon="-1.38326">
        <ele>6</ele>
        <time>2020-12-06T08:04:10.202000+00:00</time>
      </trkpt>
      <trkpt lat="0" lon="0">
        <time>2020-12-06T08:04:10.205000+00:00</time>
      </trkpt>
      <trkpt lat="0" lon="0">
        <time>2020-12-06T08:04:10.210000+00:00</time>
      </trkpt>
      <trkpt lat="47.28298" lon="-1.38318">
        <ele>6</ele>
        <time>2020-12-06T08:04:11.207000+00:00</time>
      </trkpt>
      <trkpt lat="0" lon="0">
        <time>2020-12-06T08:04:11.212000+00:00</time>
      </trkpt>
      <trkpt lat="0" lon="0">
        <time>2020-12-06T08:04:11.231000+00:00</time>
      </trkpt>
      <trkpt lat="0" lon="0">
        <time>2020-12-06T08:04:11.232000+00:00</time>
      </trkpt>
      <trkpt lat="47.28301" lon="-1.3831">
        <ele>6</ele>
        <time>2020-12-06T08:04:12.194000+00:00</time>
      </trkpt>
      <trkpt lat="0" lon="0">
        <time>2020-12-06T08:04:12.214000+00:00</time>
      </trkpt>
      <trkpt lat="0" lon="0">
        <time>2020-12-06T08:04:12.217000+00:00</time>
      </trkpt>
      <trkpt lat="0" lon="0">
        <time>2020-12-06T08:04:12.219000+00:00</time>
      </trkpt>
      <trkpt lat="47.28305" lon="-1.38303">
        <ele>6</ele>
        <time>2020-12-06T08:04:13.217000+00:00</time>
      </trkpt>
      <trkpt lat="0" lon="0">
        <time>2020-12-06T08:04:13.226000+00:00</time>
      </trkpt>
      <trkpt lat="0" lon="0">
        <time>2020-12-06T08:04:13.228000+00:00</time>
      </trkpt>
      <trkpt lat="0" lon="0">
        <time>2020-12-06T08:04:13.229000+00:00</time>
      </trkpt>
      <trkpt lat="47.28309" lon="-1.38295">
        <ele>6</ele>
        <time>2020-12-06T08:04:14.191000+00:00</time>
      </trkpt>
      <trkpt lat="0" lon="0">
        <time>2020-12-06T08:04:14.204000+00:00</time>
      </trkpt>
      <trkpt lat="0" lon="0">
        <time>2020-12-06T08:04:14.207000+00:00</time>
      </trkpt>
      <trkpt lat="0" lon="0">
        <time>2020-12-06T08:04:14.212000+00:00</time>
      </trkpt>
      <trkpt lat="47.28312" lon="-1.38288">
        <ele>6</ele>
        <time>2020-12-06T08:04:15.221000+00:00</time>
      </trkpt>
      <trkpt lat="0" lon="0">
        <time>2020-12-06T08:04:15.225000+00:00</time>
      </trkpt>
      <trkpt lat="0" lon="0">
        <time>2020-12-06T08:04:15.235000+00:00</time>
      </trkpt>
      <trkpt lat="0" lon="0">
        <time>2020-12-06T08:04:15.236000+00:00</time>
      </trkpt>
      <trkpt lat="47.28316" lon="-1.38281">
        <ele>6</ele>
        <time>2020-12-06T08:04:16.185000+00:00</time>
      </trkpt>
      <trkpt lat="0" lon="0">
        <time>2020-12-06T08:04:16.190000+00:00</time>
      </trkpt>
      <trkpt lat="0" lon="0">
        <time>2020-12-06T08:04:16.191000+00:00</time>
      </trkpt>
      <trkpt lat="0" lon="0">
        <time>2020-12-06T08:04:16.192000+00:00</time>
      </trkpt>
      <trkpt lat="47.2832" lon="-1.38275">
        <ele>6</ele>
        <time>2020-12-06T08:04:17.222000+00:00</time>
      </trkpt>
      <trkpt lat="0" lon="0">
        <time>2020-12-06T08:04:17.226000+00:00</time>
      </trkpt>
      <trkpt lat="0" lon="0">
        <time>2020-12-06T08:04:17.235000+00:00</time>
      </trkpt>
      <trkpt lat="0" lon="0">
        <time>2020-12-06T08:04:17.236000+00:00</time>
      </trkpt>
      <trkpt lat="47.28324" lon="-1.38268">
        <ele>6</ele>
        <time>2020-12-06T08:04:18.213000+00:00</time>
      </trkpt>
      <trkpt lat="0" lon="0">
        <time>2020-12-06T08:04:18.218000+00:00</time>
      </trkpt>
      <trkpt lat="0" lon="0">
        <time>2020-12-06T08:04:18.222000+00:00</time>
      </trkpt>
      <trkpt lat="0" lon="0">
        <time>2020-12-06T08:04:18.224000+00:00</time>
      </trkpt>
      <trkpt lat="47.28328" lon="-1.38262">
        <ele>6</ele>
        <time>2020-12-06T08:04:19.182000+00:00</time>
      </trkpt>
      <trkpt lat="0" lon="0">
        <time>2020-12-06T08:04:19.188000+00:00</time>
      </trkpt>
      <trkpt lat="0" lon="0">
        <time>2020-12-06T08:04:19.190000+00:00</time>
      </trkpt>
      <trkpt lat="47.28332" lon="-1.38256">
        <ele>6</ele>
        <time>2020-12-06T08:04:20.199000+00:00</time>
      </trkpt>
      <trkpt lat="0" lon="0">
        <time>2020-12-06T08:04:20.202000+00:00</time>
      </trkpt>
      <trkpt lat="0" lon="0">
        <time>2020-12-06T08:04:20.209000+00:00</time>
      </trkpt>
      <trkpt lat="0" lon="0">
        <time>2020-12-06T08:04:20.210000+00:00</time>
      </trkpt>
      <trkpt lat="47.28336" lon="-1.38251">
        <ele>6</ele>
        <time>2020-12-06T08:04:21.210000+00:00</time>
      </trkpt>
      <trkpt lat="0" lon="0">
        <time>2020-12-06T08:04:21.233000+00:00</time>
      </trkpt>
      <trkpt lat="0" lon="0">
        <time>2020-12-06T08:04:21.235000+00:00</time>
      </trkpt>
      <trkpt lat="0" lon="0">
        <time>2020-12-06T08:04:21.236000+00:00</time>
      </trkpt>
      <trkpt lat="47.2834" lon="-1.38245">
        <ele>6</ele>
        <time>2020-12-06T08:04:22.201000+00:00</time>
      </trkpt>
      <trkpt lat="0" lon="0">
        <time>2020-12-06T08:04:22.208000+00:00</time>
      </trkpt>
      <trkpt lat="0" lon="0">
        <time>2020-12-06T08:04:22.217000+00:00</time>
      </trkpt>
      <trkpt lat="0" lon="0">
        <time>2020-12-06T08:04:22.218000+00:00</time>
      </trkpt>
      <trkpt lat="47.28344" lon="-1.38239">
        <ele>6</ele>
        <time>2020-12-06T08:04:23.196000+00:00</time>
      </trkpt>
      <trkpt lat="0" lon="0">
        <time>2020-12-06T08:04:23.207000+00:00</time>
      </trkpt>
      <trkpt lat="0" lon="0">
        <time>2020-12-06T08:04:23.212000+00:00</time>
      </trkpt>
      <trkpt lat="0" lon="0">
        <time>2020-12-06T08:04:23.214000+00:00</time>
      </trkpt>
      <trkpt lat="47.28349" lon="-1.38233">
        <ele>6</ele>
        <time>2020-12-06T08:04:24.232000+00:00</time>
      </trkpt>
      <trkpt lat="0" lon="0">
        <time>2020-12-06T08:04:24.240000+00:00</time>
      </trkpt>
      <trkpt lat="0" lon="0">
        <time>2020-12-06T08:04:24.242000+00:00</time>
      </trkpt>
      <trkpt lat="0" lon="0">
        <time>2020-12-06T08:04:24.244000+00:00</time>
      </trkpt>
      <trkpt lat="47.28352" lon="-1.38227">
        <ele>6</ele>
        <time>2020-12-06T08:04:25.196000+00:00</time>
      </trkpt>
      <trkpt lat="0" lon="0">
        <time>2020-12-06T08:04:25.201000+00:00</time>
      </trkpt>
      <trkpt lat="0" lon="0">
        <time>2020-12-06T08:04:25.205000+00:00</time>
      </trkpt>
      <trkpt lat="0" lon="0">
        <time>2020-12-06T08:04:25.207000+00:00</time>
      </trkpt>
      <trkpt lat="47.28356" lon="-1.38219">
        <ele>6</ele>
        <time>2020-12-06T08:04:26.209000+00:00</time>
      </trkpt>
      <trkpt lat="0" lon="0">
        <time>2020-12-06T08:04:26.218000+00:00</time>
      </trkpt>
      <trkpt lat="0" lon="0">
        <time>2020-12-06T08:04:26.221000+00:00</time>
      </trkpt>
      <trkpt lat="0" lon="0">
        <time>2020-12-06T08:04:26.223000+00:00</time>
      </trkpt>
      <trkpt lat="47.28359" lon="-1.38212">
        <ele>6</ele>
        <time>2020-12-06T08:04:27.206000+00:00</time>
      </trkpt>
      <trkpt lat="0" lon="0">
        <time>2020-12-06T08:04:27.230000+00:00</time>
      </trkpt>
      <trkpt lat="0" lon="0">
        <time>2020-12-06T08:04:27.233000+00:00</time>
      </trkpt>
      <trkpt lat="0" lon="0">
        <time>2020-12-06T08:04:27.234000+00:00</time>
      </trkpt>
      <trkpt lat="47.28361" lon="-1.38204">
        <ele>6</ele>
        <time>2020-12-06T08:04:28.230000+00:00</time>
      </trkpt>
      <trkpt lat="0" lon="0">
        <time>2020-12-06T08:04:28.232000+00:00</time>
      </trkpt>
      <trkpt lat="0" lon="0">
        <time>2020-12-06T08:04:28.235000+00:00</time>
      </trkpt>
      <trkpt lat="0" lon="0">
        <time>2020-12-06T08:04:28.238000+00:00</time>
      </trkpt>
      <trkpt lat="47.28363" lon="-1.38196">
        <ele>6</ele>
        <time>2020-12-06T08:04:29.221000+00:00</time>
      </trkpt>
      <trkpt lat="0" lon="0">
        <time>2020-12-06T08:04:29.230000+00:00</time>
      </trkpt>
      <trkpt lat="0" lon="0">
        <time>2020-12-06T08:04:29.235000+00:00</time>
      </trkpt>
      <trkpt lat="47.28365" lon="-1.38188">
        <ele>5</ele>
        <time>2020-12-06T08:04:30.226000+00:00</time>
      </trkpt>
      <trkpt lat="0" lon="0">
        <time>2020-12-06T08:04:30.239000+00:00</time>
      </trkpt>
      <trkpt lat="0" lon="0">
        <time>2020-12-06T08:04:30.247000+00:00</time>
      </trkpt>
      <trkpt lat="0" lon="0">
        <time>2020-12-06T08:04:30.249000+00:00</time>
      </trkpt>
      <trkpt lat="47.28367" lon="-1.38179">
        <ele>5</ele>
        <time>2020-12-06T08:04:31.218000+00:00</time>
      </trkpt>
      <trkpt lat="0" lon="0">
        <time>2020-12-06T08:04:31.234000+00:00</time>
      </trkpt>
      <trkpt lat="0" lon="0">
        <time>2020-12-06T08:04:31.238000+00:00</time>
      </trkpt>
      <trkpt lat="0" lon="0">
        <time>2020-12-06T08:04:31.241000+00:00</time>
      </trkpt>
      <trkpt lat="47.28369" lon="-1.38171">
        <ele>5</ele>
        <time>2020-12-06T08:04:32.207000+00:00</time>
      </trkpt>
      <trkpt lat="0" lon="0">
        <time>2020-12-06T08:04:32.210000+00:00</time>
      </trkpt>
      <trkpt lat="0" lon="0">
        <time>2020-12-06T08:04:32.220000+00:00</time>
      </trkpt>
      <trkpt lat="0" lon="0">
        <time>2020-12-06T08:04:32.222000+00:00</time>
      </trkpt>
      <trkpt lat="47.28371" lon="-1.38162">
        <ele>5</ele>
        <time>2020-12-06T08:04:33.213000+00:00</time>
      </trkpt>
      <trkpt lat="0" lon="0">
        <time>2020-12-06T08:04:33.216000+00:00</time>
      </trkpt>
      <trkpt lat="0" lon="0">
        <time>2020-12-06T08:04:33.227000+00:00</time>
      </trkpt>
      <trkpt lat="0" lon="0">
        <time>2020-12-06T08:04:33.228000+00:00</time>
      </trkpt>
      <trkpt lat="47.28374" lon="-1.38154">
        <ele>5</ele>
        <time>2020-12-06T08:04:34.234000+00:00</time>
      </trkpt>
      <trkpt lat="0" lon="0">
        <time>2020-12-06T08:04:34.235000+00:00</time>
      </trkpt>
      <trkpt lat="0" lon="0">
        <time>2020-12-06T08:04:34.236000+00:00</time>
      </trkpt>
      <trkpt lat="0" lon="0">
        <time>2020-12-06T08:04:34.237000+00:00</time>
      </trkpt>
      <trkpt lat="47.28376" lon="-1.38145">
        <ele>5</ele>
        <time>2020-12-06T08:04:35.235000+00:00</time>
      </trkpt>
      <trkpt lat="0" lon="0">
        <time>2020-12-06T08:04:35.236000+00:00</time>
      </trkpt>
      <trkpt lat="0" lon="0">
        <time>2020-12-06T08:04:35.239000+00:00</time>
      </trkpt>
      <trkpt lat="0" lon="0">
        <time>2020-12-06T08:04:35.240000+00:00</time>
      </trkpt>
      <trkpt lat="47.28378" lon="-1.38137">
        <ele>5</ele>
        <time>2020-12-06T08:04:36.228000+00:00</time>
      </trkpt>
      <trkpt lat="0" lon="0">
        <time>2020-12-06T08:04:36.237000+00:00</time>
      </trkpt>
      <trkpt lat="0" lon="0">
        <time>2020-12-06T08:04:36.243000+00:00</time>
      </trkpt>
      <trkpt lat="0" lon="0">
        <time>2020-12-06T08:04:36.246000+00:00</time>
      </trkpt>
      <trkpt lat="47.28381" lon="-1.38128">
        <ele>5</ele>
        <time>2020-12-06T08:04:37.218000+00:00</time>
      </trkpt>
      <trkpt lat="0" lon="0">
        <time>2020-12-06T08:04:37.232000+00:00</time>
      </trkpt>
      <trkpt lat="0" lon="0">
        <time>2020-12-06T08:04:37.238000+00:00</time>
      </trkpt>
      <trkpt lat="0" lon="0">
        <time>2020-12-06T08:04:37.239000+00:00</time>
      </trkpt>
      <trkpt lat="47.28384" lon="-1.38121">
        <ele>5</ele>
        <time>2020-12-06T08:04:38.214000+00:00</time>
      </trkpt>
      <trkpt lat="0" lon="0">
        <time>2020-12-06T08:04:38.223000+00:00</time>
      </trkpt>
      <trkpt lat="0" lon="0">
        <time>2020-12-06T08:04:38.235000+00:00</time>
      </trkpt>
      <trkpt lat="0" lon="0">
        <time>2020-12-06T08:04:38.241000+00:00</time>
      </trkpt>
      <trkpt lat="47.28387" lon="-1.38113">
        <ele>5</ele>
        <time>2020-12-06T08:04:39.225000+00:00</time>
      </trkpt>
      <trkpt lat="0" lon="0">
        <time>2020-12-06T08:04:39.231000+00:00</time>
      </trkpt>
      <trkpt lat="0" lon="0">
        <time>2020-12-06T08:04:39.240000+00:00</time>
      </trkpt>
      <trkpt lat="0" lon="0">
        <time>2020-12-06T08:04:39.243000+00:00</time>
      </trkpt>
      <trkpt lat="47.28391" lon="-1.38107">
        <ele>5</ele>
        <time>2020-12-06T08:04:40.218000+00:00</time>
      </trkpt>
      <trkpt lat="0" lon="0">
        <time>2020-12-06T08:04:40.225000+00:00</time>
      </trkpt>
      <trkpt lat="0" lon="0">
        <time>2020-12-06T08:04:40.229000+00:00</time>
      </trkpt>
      <trkpt lat="0" lon="0">
        <time>2020-12-06T08:04:40.230000+00:00</time>
      </trkpt>
      <trkpt lat="47.28394" lon="-1.381">
        <ele>5</ele>
        <time>2020-12-06T08:04:41.216000+00:00</time>
      </trkpt>
      <trkpt lat="0" lon="0">
        <time>2020-12-06T08:04:41.233000+00:00</time>
      </trkpt>
      <trkpt lat="0" lon="0">
        <time>2020-12-06T08:04:41.237000+00:00</time>
      </trkpt>
      <trkpt lat="0" lon="0">
        <time>2020-12-06T08:04:41.239000+00:00</time>
      </trkpt>
      <trkpt lat="47.28398" lon="-1.38094">
        <ele>5</ele>
        <time>2020-12-06T08:04:42.244000+00:00</time>
      </trkpt>
      <trkpt lat="0" lon="0">
        <time>2020-12-06T08:04:42.248000+00:00</time>
      </trkpt>
      <trkpt lat="0" lon="0">
        <time>2020-12-06T08:04:42.257000+00:00</time>
      </trkpt>
      <trkpt lat="0" lon="0">
        <time>2020-12-06T08:04:42.258000+00:00</time>
      </trkpt>
      <trkpt lat="47.28402" lon="-1.38089">
        <ele>5</ele>
        <time>2020-12-06T08:04:43.224000+00:00</time>
      </trkpt>
      <trkpt lat="0" lon="0">
        <time>2020-12-06T08:04:43.227000+00:00</time>
      </trkpt>
      <trkpt lat="0" lon="0">
        <time>2020-12-06T08:04:43.231000+00:00</time>
      </trkpt>
      <trkpt lat="0" lon="0">
        <time>2020-12-06T08:04:43.234000+00:00</time>
      </trkpt>
      <trkpt lat="47.28407" lon="-1.38083">
        <ele>5</ele>
        <time>2020-12-06T08:04:44.214000+00:00</time>
      </trkpt>
      <trkpt lat="0" lon="0">
        <time>2020-12-06T08:04:44.219000+00:00</time>
      </trkpt>
      <trkpt lat="0" lon="0">
        <time>2020-12-06T08:04:44.224000+00:00</time>
      </trkpt>
      <trkpt lat="0" lon="0">
        <time>2020-12-06T08:04:44.226000+00:00</time>
      </trkpt>
      <trkpt lat="47.28411" lon="-1.38078">
        <ele>5</ele>
        <time>2020-12-06T08:04:45.157000+00:00</time>
      </trkpt>
      <trkpt lat="0" lon="0">
        <time>2020-12-06T08:04:45.160000+00:00</time>
      </trkpt>
      <trkpt lat="0" lon="0">
        <time>2020-12-06T08:04:45.172000+00:00</time>
      </trkpt>
      <trkpt lat="0" lon="0">
        <time>2020-12-06T08:04:45.174000+00:00</time>
      </trkpt>
      <trkpt lat="47.28416" lon="-1.38072">
        <ele>5</ele>
        <time>2020-12-06T08:04:46.158000+00:00</time>
      </trkpt>
      <trkpt lat="0" lon="0">
        <time>2020-12-06T08:04:46.169000+00:00</time>
      </trkpt>
      <trkpt lat="0" lon="0">
        <time>2020-12-06T08:04:46.172000+00:00</time>
      </trkpt>
      <trkpt lat="0" lon="0">
        <time>2020-12-06T08:04:46.174000+00:00</time>
      </trkpt>
      <trkpt lat="47.28421" lon="-1.38067">
        <ele>5</ele>
        <time>2020-12-06T08:04:47.150000+00:00</time>
      </trkpt>
      <trkpt lat="0" lon="0">
        <time>2020-12-06T08:04:47.154000+00:00</time>
      </trkpt>
      <trkpt lat="0" lon="0">
        <time>2020-12-06T08:04:47.157000+00:00</time>
      </trkpt>
      <trkpt lat="0" lon="0">
        <time>2020-12-06T08:04:47.158000+00:00</time>
      </trkpt>
      <trkpt lat="47.28426" lon="-1.38062">
        <ele>5</ele>
        <time>2020-12-06T08:04:48.183000+00:00</time>
      </trkpt>
      <trkpt lat="0" lon="0">
        <time>2020-12-06T08:04:48.189000+00:00</time>
      </trkpt>
      <trkpt lat="0" lon="0">
        <time>2020-12-06T08:04:48.194000+00:00</time>
      </trkpt>
      <trkpt lat="0" lon="0">
        <time>2020-12-06T08:04:48.195000+00:00</time>
      </trkpt>
      <trkpt lat="47.28431" lon="-1.38057">
        <ele>5</ele>
        <time>2020-12-06T08:04:49.195000+00:00</time>
      </trkpt>
      <trkpt lat="0" lon="0">
        <time>2020-12-06T08:04:49.209000+00:00</time>
      </trkpt>
      <trkpt lat="0" lon="0">
        <time>2020-12-06T08:04:49.219000+00:00</time>
      </trkpt>
      <trkpt lat="0" lon="0">
        <time>2020-12-06T08:04:49.221000+00:00</time>
      </trkpt>
      <trkpt lat="47.28436" lon="-1.38052">
        <ele>5</ele>
        <time>2020-12-06T08:04:50.219000+00:00</time>
      </trkpt>
      <trkpt lat="0" lon="0">
        <time>2020-12-06T08:04:50.233000+00:00</time>
      </trkpt>
      <trkpt lat="0" lon="0">
        <time>2020-12-06T08:04:50.234000+00:00</time>
      </trkpt>
      <trkpt lat="0" lon="0">
        <time>2020-12-06T08:04:50.235000+00:00</time>
      </trkpt>
      <trkpt lat="47.2844" lon="-1.38048">
        <ele>5</ele>
        <time>2020-12-06T08:04:51.225000+00:00</time>
      </trkpt>
      <trkpt lat="0" lon="0">
        <time>2020-12-06T08:04:51.234000+00:00</time>
      </trkpt>
      <trkpt lat="0" lon="0">
        <time>2020-12-06T08:04:51.237000+00:00</time>
      </trkpt>
      <trkpt lat="0" lon="0">
        <time>2020-12-06T08:04:51.242000+00:00</time>
      </trkpt>
      <trkpt lat="47.28445" lon="-1.38043">
        <ele>5</ele>
        <time>2020-12-06T08:04:52.206000+00:00</time>
      </trkpt>
      <trkpt lat="0" lon="0">
        <time>2020-12-06T08:04:52.209000+00:00</time>
      </trkpt>
      <trkpt lat="0" lon="0">
        <time>2020-12-06T08:04:52.218000+00:00</time>
      </trkpt>
      <trkpt lat="0" lon="0">
        <time>2020-12-06T08:04:52.220000+00:00</time>
      </trkpt>
      <trkpt lat="47.2845" lon="-1.38038">
        <ele>5</ele>
        <time>2020-12-06T08:04:53.226000+00:00</time>
      </trkpt>
      <trkpt lat="0" lon="0">
        <time>2020-12-06T08:04:53.228000+00:00</time>
      </trkpt>
      <trkpt lat="0" lon="0">
        <time>2020-12-06T08:04:53.236000+00:00</time>
      </trkpt>
      <trkpt lat="0" lon="0">
        <time>2020-12-06T08:04:53.238000+00:00</time>
      </trkpt>
      <trkpt lat="47.28454" lon="-1.38034">
        <ele>5</ele>
        <time>2020-12-06T08:04:54.235000+00:00</time>
      </trkpt>
      <trkpt lat="0" lon="0">
        <time>2020-12-06T08:04:54.244000+00:00</time>
      </trkpt>
      <trkpt lat="0" lon="0">
        <time>2020-12-06T08:04:54.245000+00:00</time>
      </trkpt>
      <trkpt lat="0" lon="0">
        <time>2020-12-06T08:04:54.246000+00:00</time>
      </trkpt>
      <trkpt lat="47.28459" lon="-1.38029">
        <ele>6</ele>
        <time>2020-12-06T08:04:55.230000+00:00</time>
      </trkpt>
      <trkpt lat="0" lon="0">
        <time>2020-12-06T08:04:55.243000+00:00</time>
      </trkpt>
      <trkpt lat="0" lon="0">
        <time>2020-12-06T08:04:55.245000+00:00</time>
      </trkpt>
      <trkpt lat="0" lon="0">
        <time>2020-12-06T08:04:55.247000+00:00</time>
      </trkpt>
      <trkpt lat="47.28462" lon="-1.38025">
        <ele>6</ele>
        <time>2020-12-06T08:04:56.209000+00:00</time>
      </trkpt>
      <trkpt lat="0" lon="0">
        <time>2020-12-06T08:04:56.212000+00:00</time>
      </trkpt>
      <trkpt lat="0" lon="0">
        <time>2020-12-06T08:04:56.220000+00:00</time>
      </trkpt>
      <trkpt lat="0" lon="0">
        <time>2020-12-06T08:04:56.222000+00:00</time>
      </trkpt>
      <trkpt lat="47.28466" lon="-1.38021">
        <ele>6</ele>
        <time>2020-12-06T08:04:57.193000+00:00</time>
      </trkpt>
      <trkpt lat="0" lon="0">
        <time>2020-12-06T08:04:57.200000+00:00</time>
      </trkpt>
      <trkpt lat="0" lon="0">
        <time>2020-12-06T08:04:57.207000+00:00</time>
      </trkpt>
      <trkpt lat="0" lon="0">
        <time>2020-12-06T08:04:57.209000+00:00</time>
      </trkpt>
      <trkpt lat="47.2847" lon="-1.38018">
        <ele>6</ele>
        <time>2020-12-06T08:04:58.218000+00:00</time>
      </trkpt>
      <trkpt lat="0" lon="0">
        <time>2020-12-06T08:04:58.232000+00:00</time>
      </trkpt>
      <trkpt lat="0" lon="0">
        <time>2020-12-06T08:04:58.234000+00:00</time>
      </trkpt>
      <trkpt lat="0" lon="0">
        <time>2020-12-06T08:04:58.235000+00:00</time>
      </trkpt>
      <trkpt lat="47.28475" lon="-1.38015">
        <ele>6</ele>
        <time>2020-12-06T08:04:59.216000+00:00</time>
      </trkpt>
      <trkpt lat="0" lon="0">
        <time>2020-12-06T08:04:59.227000+00:00</time>
      </trkpt>
      <trkpt lat="0" lon="0">
        <time>2020-12-06T08:04:59.234000+00:00</time>
      </trkpt>
      <trkpt lat="0" lon="0">
        <time>2020-12-06T08:04:59.237000+00:00</time>
      </trkpt>
      <trkpt lat="47.28479" lon="-1.38014">
        <ele>6</ele>
        <time>2020-12-06T08:05:00.231000+00:00</time>
      </trkpt>
      <trkpt lat="0" lon="0">
        <time>2020-12-06T08:05:00.239000+00:00</time>
      </trkpt>
      <trkpt lat="0" lon="0">
        <time>2020-12-06T08:05:00.244000+00:00</time>
      </trkpt>
      <trkpt lat="0" lon="0">
        <time>2020-12-06T08:05:00.249000+00:00</time>
      </trkpt>
      <trkpt lat="47.28484" lon="-1.38014">
        <ele>6</ele>
        <time>2020-12-06T08:05:01.234000+00:00</time>
      </trkpt>
      <trkpt lat="0" lon="0">
        <time>2020-12-06T08:05:01.239000+00:00</time>
      </trkpt>
      <trkpt lat="0" lon="0">
        <time>2020-12-06T08:05:01.248000+00:00</time>
      </trkpt>
      <trkpt lat="0" lon="0">
        <time>2020-12-06T08:05:01.249000+00:00</time>
      </trkpt>
      <trkpt lat="47.28489" lon="-1.38013">
        <ele>6</ele>
        <time>2020-12-06T08:05:02.220000+00:00</time>
      </trkpt>
      <trkpt lat="0" lon="0">
        <time>2020-12-06T08:05:02.224000+00:00</time>
      </trkpt>
      <trkpt lat="0" lon="0">
        <time>2020-12-06T08:05:02.227000+00:00</time>
      </trkpt>
      <trkpt lat="0" lon="0">
        <time>2020-12-06T08:05:02.231000+00:00</time>
      </trkpt>
      <trkpt lat="47.28495" lon="-1.38013">
        <ele>6</ele>
        <time>2020-12-06T08:05:03.184000+00:00</time>
      </trkpt>
      <trkpt lat="0" lon="0">
        <time>2020-12-06T08:05:03.185000+00:00</time>
      </trkpt>
      <trkpt lat="0" lon="0">
        <time>2020-12-06T08:05:03.186000+00:00</time>
      </trkpt>
      <trkpt lat="0" lon="0">
        <time>2020-12-06T08:05:03.187000+00:00</time>
      </trkpt>
      <trkpt lat="47.285" lon="-1.38012">
        <ele>6</ele>
        <time>2020-12-06T08:05:04.265000+00:00</time>
      </trkpt>
      <trkpt lat="0" lon="0">
        <time>2020-12-06T08:05:04.269000+00:00</time>
      </trkpt>
      <trkpt lat="0" lon="0">
        <time>2020-12-06T08:05:04.271000+00:00</time>
      </trkpt>
      <trkpt lat="0" lon="0">
        <time>2020-12-06T08:05:04.275000+00:00</time>
      </trkpt>
      <trkpt lat="47.28506" lon="-1.3801">
        <ele>6</ele>
        <time>2020-12-06T08:05:05.199000+00:00</time>
      </trkpt>
      <trkpt lat="0" lon="0">
        <time>2020-12-06T08:05:05.204000+00:00</time>
      </trkpt>
      <trkpt lat="0" lon="0">
        <time>2020-12-06T08:05:05.205000+00:00</time>
      </trkpt>
      <trkpt lat="0" lon="0">
        <time>2020-12-06T08:05:05.206000+00:00</time>
      </trkpt>
      <trkpt lat="47.28511" lon="-1.38007">
        <ele>6</ele>
        <time>2020-12-06T08:05:06.236000+00:00</time>
      </trkpt>
      <trkpt lat="0" lon="0">
        <time>2020-12-06T08:05:06.243000+00:00</time>
      </trkpt>
      <trkpt lat="0" lon="0">
        <time>2020-12-06T08:05:06.252000+00:00</time>
      </trkpt>
      <trkpt lat="0" lon="0">
        <time>2020-12-06T08:05:06.254000+00:00</time>
      </trkpt>
      <trkpt lat="47.28515" lon="-1.38003">
        <ele>6</ele>
        <time>2020-12-06T08:05:07.269000+00:00</time>
      </trkpt>
      <trkpt lat="0" lon="0">
        <time>2020-12-06T08:05:07.272000+00:00</time>
      </trkpt>
      <trkpt lat="0" lon="0">
        <time>2020-12-06T08:05:07.280000+00:00</time>
      </trkpt>
      <trkpt lat="0" lon="0">
        <time>2020-12-06T08:05:07.282000+00:00</time>
      </trkpt>
      <trkpt lat="47.28519" lon="-1.37999">
        <ele>5</ele>
        <time>2020-12-06T08:05:08.231000+00:00</time>
      </trkpt>
      <trkpt lat="0" lon="0">
        <time>2020-12-06T08:05:08.235000+00:00</time>
      </trkpt>
      <trkpt lat="0" lon="0">
        <time>2020-12-06T08:05:08.236000+00:00</time>
      </trkpt>
      <trkpt lat="0" lon="0">
        <time>2020-12-06T08:05:08.242000+00:00</time>
      </trkpt>
      <trkpt lat="47.28522" lon="-1.37994">
        <ele>5</ele>
        <time>2020-12-06T08:05:09.227000+00:00</time>
      </trkpt>
      <trkpt lat="0" lon="0">
        <time>2020-12-06T08:05:09.230000+00:00</time>
      </trkpt>
      <trkpt lat="0" lon="0">
        <time>2020-12-06T08:05:09.243000+00:00</time>
      </trkpt>
      <trkpt lat="0" lon="0">
        <time>2020-12-06T08:05:09.250000+00:00</time>
      </trkpt>
      <trkpt lat="47.28526" lon="-1.37988">
        <ele>5</ele>
        <time>2020-12-06T08:05:10.241000+00:00</time>
      </trkpt>
      <trkpt lat="0" lon="0">
        <time>2020-12-06T08:05:10.252000+00:00</time>
      </trkpt>
      <trkpt lat="0" lon="0">
        <time>2020-12-06T08:05:10.263000+00:00</time>
      </trkpt>
      <trkpt lat="0" lon="0">
        <time>2020-12-06T08:05:10.267000+00:00</time>
      </trkpt>
      <trkpt lat="47.28528" lon="-1.37982">
        <ele>5</ele>
        <time>2020-12-06T08:05:11.244000+00:00</time>
      </trkpt>
      <trkpt lat="0" lon="0">
        <time>2020-12-06T08:05:11.248000+00:00</time>
      </trkpt>
      <trkpt lat="0" lon="0">
        <time>2020-12-06T08:05:11.256000+00:00</time>
      </trkpt>
      <trkpt lat="0" lon="0">
        <time>2020-12-06T08:05:11.258000+00:00</time>
      </trkpt>
      <trkpt lat="47.28531" lon="-1.37976">
        <ele>5</ele>
        <time>2020-12-06T08:05:12.243000+00:00</time>
      </trkpt>
      <trkpt lat="0" lon="0">
        <time>2020-12-06T08:05:12.250000+00:00</time>
      </trkpt>
      <trkpt lat="0" lon="0">
        <time>2020-12-06T08:05:12.257000+00:00</time>
      </trkpt>
      <trkpt lat="0" lon="0">
        <time>2020-12-06T08:05:12.258000+00:00</time>
      </trkpt>
      <trkpt lat="47.28533" lon="-1.3797">
        <ele>5</ele>
        <time>2020-12-06T08:05:13.223000+00:00</time>
      </trkpt>
      <trkpt lat="0" lon="0">
        <time>2020-12-06T08:05:13.224000+00:00</time>
      </trkpt>
      <trkpt lat="0" lon="0">
        <time>2020-12-06T08:05:13.225000+00:00</time>
      </trkpt>
      <trkpt lat="0" lon="0">
        <time>2020-12-06T08:05:13.226000+00:00</time>
      </trkpt>
      <trkpt lat="47.28535" lon="-1.37963">
        <ele>5</ele>
        <time>2020-12-06T08:05:14.250000+00:00</time>
      </trkpt>
      <trkpt lat="0" lon="0">
        <time>2020-12-06T08:05:14.257000+00:00</time>
      </trkpt>
      <trkpt lat="0" lon="0">
        <time>2020-12-06T08:05:14.259000+00:00</time>
      </trkpt>
      <trkpt lat="0" lon="0">
        <time>2020-12-06T08:05:14.260000+00:00</time>
      </trkpt>
      <trkpt lat="47.28537" lon="-1.37956">
        <ele>5</ele>
        <time>2020-12-06T08:05:15.266000+00:00</time>
      </trkpt>
      <trkpt lat="0" lon="0">
        <time>2020-12-06T08:05:15.271000+00:00</time>
      </trkpt>
      <trkpt lat="0" lon="0">
        <time>2020-12-06T08:05:15.278000+00:00</time>
      </trkpt>
      <trkpt lat="0" lon="0">
        <time>2020-12-06T08:05:15.280000+00:00</time>
      </trkpt>
      <trkpt lat="47.2854" lon="-1.37949">
        <ele>5</ele>
        <time>2020-12-06T08:05:16.182000+00:00</time>
      </trkpt>
      <trkpt lat="0" lon="0">
        <time>2020-12-06T08:05:16.203000+00:00</time>
      </trkpt>
      <trkpt lat="0" lon="0">
        <time>2020-12-06T08:05:16.207000+00:00</time>
      </trkpt>
      <trkpt lat="0" lon="0">
        <time>2020-12-06T08:05:16.213000+00:00</time>
      </trkpt>
      <trkpt lat="47.28542" lon="-1.37942">
        <ele>5</ele>
        <time>2020-12-06T08:05:17.236000+00:00</time>
      </trkpt>
      <trkpt lat="0" lon="0">
        <time>2020-12-06T08:05:17.242000+00:00</time>
      </trkpt>
      <trkpt lat="0" lon="0">
        <time>2020-12-06T08:05:17.248000+00:00</time>
      </trkpt>
      <trkpt lat="0" lon="0">
        <time>2020-12-06T08:05:17.249000+00:00</time>
      </trkpt>
      <trkpt lat="47.28545" lon="-1.37935">
        <ele>5</ele>
        <time>2020-12-06T08:05:18.253000+00:00</time>
      </trkpt>
      <trkpt lat="0" lon="0">
        <time>2020-12-06T08:05:18.272000+00:00</time>
      </trkpt>
      <trkpt lat="0" lon="0">
        <time>2020-12-06T08:05:18.280000+00:00</time>
      </trkpt>
      <trkpt lat="0" lon="0">
        <time>2020-12-06T08:05:18.282000+00:00</time>
      </trkpt>
      <trkpt lat="47.28549" lon="-1.37929">
        <ele>5</ele>
        <time>2020-12-06T08:05:19.231000+00:00</time>
      </trkpt>
      <trkpt lat="0" lon="0">
        <time>2020-12-06T08:05:19.236000+00:00</time>
      </trkpt>
      <trkpt lat="0" lon="0">
        <time>2020-12-06T08:05:19.241000+00:00</time>
      </trkpt>
      <trkpt lat="0" lon="0">
        <time>2020-12-06T08:05:19.242000+00:00</time>
      </trkpt>
      <trkpt lat="47.28552" lon="-1.37922">
        <ele>5</ele>
        <time>2020-12-06T08:05:20.242000+00:00</time>
      </trkpt>
      <trkpt lat="0" lon="0">
        <time>2020-12-06T08:05:20.250000+00:00</time>
      </trkpt>
      <trkpt lat="0" lon="0">
        <time>2020-12-06T08:05:20.252000+00:00</time>
      </trkpt>
      <trkpt lat="0" lon="0">
        <time>2020-12-06T08:05:20.253000+00:00</time>
      </trkpt>
      <trkpt lat="47.28556" lon="-1.37916">
        <ele>5</ele>
        <time>2020-12-06T08:05:21.247000+00:00</time>
      </trkpt>
      <trkpt lat="0" lon="0">
        <time>2020-12-06T08:05:21.258000+00:00</time>
      </trkpt>
      <trkpt lat="0" lon="0">
        <time>2020-12-06T08:05:21.260000+00:00</time>
      </trkpt>
      <trkpt lat="0" lon="0">
        <time>2020-12-06T08:05:21.261000+00:00</time>
      </trkpt>
      <trkpt lat="47.2856" lon="-1.3791">
        <ele>5</ele>
        <time>2020-12-06T08:05:22.216000+00:00</time>
      </trkpt>
      <trkpt lat="0" lon="0">
        <time>2020-12-06T08:05:22.219000+00:00</time>
      </trkpt>
      <trkpt lat="0" lon="0">
        <time>2020-12-06T08:05:22.224000+00:00</time>
      </trkpt>
      <trkpt lat="0" lon="0">
        <time>2020-12-06T08:05:22.226000+00:00</time>
      </trkpt>
      <trkpt lat="47.28564" lon="-1.37905">
        <ele>5</ele>
        <time>2020-12-06T08:05:23.220000+00:00</time>
      </trkpt>
      <trkpt lat="0" lon="0">
        <time>2020-12-06T08:05:23.229000+00:00</time>
      </trkpt>
      <trkpt lat="0" lon="0">
        <time>2020-12-06T08:05:23.230000+00:00</time>
      </trkpt>
      <trkpt lat="0" lon="0">
        <time>2020-12-06T08:05:23.231000+00:00</time>
      </trkpt>
      <trkpt lat="47.28568" lon="-1.37899">
        <ele>5</ele>
        <time>2020-12-06T08:05:24.228000+00:00</time>
      </trkpt>
      <trkpt lat="0" lon="0">
        <time>2020-12-06T08:05:24.234000+00:00</time>
      </trkpt>
      <trkpt lat="0" lon="0">
        <time>2020-12-06T08:05:24.236000+00:00</time>
      </trkpt>
      <trkpt lat="0" lon="0">
        <time>2020-12-06T08:05:24.238000+00:00</time>
      </trkpt>
      <trkpt lat="47.28573" lon="-1.37893">
        <ele>5</ele>
        <time>2020-12-06T08:05:25.233000+00:00</time>
      </trkpt>
      <trkpt lat="0" lon="0">
        <time>2020-12-06T08:05:25.244000+00:00</time>
      </trkpt>
      <trkpt lat="0" lon="0">
        <time>2020-12-06T08:05:25.251000+00:00</time>
      </trkpt>
      <trkpt lat="0" lon="0">
        <time>2020-12-06T08:05:25.252000+00:00</time>
      </trkpt>
      <trkpt lat="47.28577" lon="-1.37888">
        <ele>5</ele>
        <time>2020-12-06T08:05:26.200000+00:00</time>
      </trkpt>
      <trkpt lat="0" lon="0">
        <time>2020-12-06T08:05:26.215000+00:00</time>
      </trkpt>
      <trkpt lat="0" lon="0">
        <time>2020-12-06T08:05:26.217000+00:00</time>
      </trkpt>
      <trkpt lat="0" lon="0">
        <time>2020-12-06T08:05:26.218000+00:00</time>
      </trkpt>
      <trkpt lat="47.28582" lon="-1.37882">
        <ele>5</ele>
        <time>2020-12-06T08:05:27.209000+00:00</time>
      </trkpt>
      <trkpt lat="0" lon="0">
        <time>2020-12-06T08:05:27.210000+00:00</time>
      </trkpt>
      <trkpt lat="0" lon="0">
        <time>2020-12-06T08:05:27.211000+00:00</time>
      </trkpt>
      <trkpt lat="0" lon="0">
        <time>2020-12-06T08:05:27.213000+00:00</time>
      </trkpt>
      <trkpt lat="47.28586" lon="-1.37877">
        <ele>5</ele>
        <time>2020-12-06T08:05:28.175000+00:00</time>
      </trkpt>
      <trkpt lat="0" lon="0">
        <time>2020-12-06T08:05:28.177000+00:00</time>
      </trkpt>
      <trkpt lat="0" lon="0">
        <time>2020-12-06T08:05:28.178000+00:00</time>
      </trkpt>
      <trkpt lat="0" lon="0">
        <time>2020-12-06T08:05:28.181000+00:00</time>
      </trkpt>
      <trkpt lat="47.28591" lon="-1.37871">
        <ele>6</ele>
        <time>2020-12-06T08:05:29.218000+00:00</time>
      </trkpt>
      <trkpt lat="0" lon="0">
        <time>2020-12-06T08:05:29.227000+00:00</time>
      </trkpt>
      <trkpt lat="0" lon="0">
        <time>2020-12-06T08:05:29.228000+00:00</time>
      </trkpt>
      <trkpt lat="0" lon="0">
        <time>2020-12-06T08:05:29.229000+00:00</time>
      </trkpt>
      <trkpt lat="47.28596" lon="-1.37866">
        <ele>6</ele>
        <time>2020-12-06T08:05:30.229000+00:00</time>
      </trkpt>
      <trkpt lat="0" lon="0">
        <time>2020-12-06T08:05:30.237000+00:00</time>
      </trkpt>
      <trkpt lat="0" lon="0">
        <time>2020-12-06T08:05:30.239000+00:00</time>
      </trkpt>
      <trkpt lat="0" lon="0">
        <time>2020-12-06T08:05:30.240000+00:00</time>
      </trkpt>
      <trkpt lat="47.28601" lon="-1.37861">
        <ele>6</ele>
        <time>2020-12-06T08:05:31.243000+00:00</time>
      </trkpt>
      <trkpt lat="0" lon="0">
        <time>2020-12-06T08:05:31.261000+00:00</time>
      </trkpt>
      <trkpt lat="0" lon="0">
        <time>2020-12-06T08:05:31.267000+00:00</time>
      </trkpt>
      <trkpt lat="0" lon="0">
        <time>2020-12-06T08:05:31.268000+00:00</time>
      </trkpt>
      <trkpt lat="47.28605" lon="-1.37855">
        <ele>6</ele>
        <time>2020-12-06T08:05:32.230000+00:00</time>
      </trkpt>
      <trkpt lat="0" lon="0">
        <time>2020-12-06T08:05:32.240000+00:00</time>
      </trkpt>
      <trkpt lat="0" lon="0">
        <time>2020-12-06T08:05:32.244000+00:00</time>
      </trkpt>
      <trkpt lat="0" lon="0">
        <time>2020-12-06T08:05:32.246000+00:00</time>
      </trkpt>
      <trkpt lat="47.2861" lon="-1.3785">
        <ele>6</ele>
        <time>2020-12-06T08:05:33.210000+00:00</time>
      </trkpt>
      <trkpt lat="0" lon="0">
        <time>2020-12-06T08:05:33.219000+00:00</time>
      </trkpt>
      <trkpt lat="0" lon="0">
        <time>2020-12-06T08:05:33.229000+00:00</time>
      </trkpt>
      <trkpt lat="47.28615" lon="-1.37845">
        <ele>6</ele>
        <time>2020-12-06T08:05:34.222000+00:00</time>
      </trkpt>
      <trkpt lat="0" lon="0">
        <time>2020-12-06T08:05:34.231000+00:00</time>
      </trkpt>
      <trkpt lat="0" lon="0">
        <time>2020-12-06T08:05:34.239000+00:00</time>
      </trkpt>
      <trkpt lat="0" lon="0">
        <time>2020-12-06T08:05:34.246000+00:00</time>
      </trkpt>
      <trkpt lat="47.2862" lon="-1.3784">
        <ele>6</ele>
        <time>2020-12-06T08:05:35.209000+00:00</time>
      </trkpt>
      <trkpt lat="0" lon="0">
        <time>2020-12-06T08:05:35.211000+00:00</time>
      </trkpt>
      <trkpt lat="0" lon="0">
        <time>2020-12-06T08:05:35.218000+00:00</time>
      </trkpt>
      <trkpt lat="0" lon="0">
        <time>2020-12-06T08:05:35.220000+00:00</time>
      </trkpt>
      <trkpt lat="47.28624" lon="-1.37835">
        <ele>6</ele>
        <time>2020-12-06T08:05:36.242000+00:00</time>
      </trkpt>
      <trkpt lat="0" lon="0">
        <time>2020-12-06T08:05:36.245000+00:00</time>
      </trkpt>
      <trkpt lat="0" lon="0">
        <time>2020-12-06T08:05:36.249000+00:00</time>
      </trkpt>
      <trkpt lat="0" lon="0">
        <time>2020-12-06T08:05:36.250000+00:00</time>
      </trkpt>
      <trkpt lat="47.28629" lon="-1.37829">
        <ele>7</ele>
        <time>2020-12-06T08:05:37.231000+00:00</time>
      </trkpt>
      <trkpt lat="0" lon="0">
        <time>2020-12-06T08:05:37.234000+00:00</time>
      </trkpt>
      <trkpt lat="0" lon="0">
        <time>2020-12-06T08:05:37.238000+00:00</time>
      </trkpt>
      <trkpt lat="0" lon="0">
        <time>2020-12-06T08:05:37.245000+00:00</time>
      </trkpt>
      <trkpt lat="47.28633" lon="-1.37824">
        <ele>7</ele>
        <time>2020-12-06T08:05:38.207000+00:00</time>
      </trkpt>
      <trkpt lat="0" lon="0">
        <time>2020-12-06T08:05:38.209000+00:00</time>
      </trkpt>
      <trkpt lat="0" lon="0">
        <time>2020-12-06T08:05:38.211000+00:00</time>
      </trkpt>
      <trkpt lat="0" lon="0">
        <time>2020-12-06T08:05:38.212000+00:00</time>
      </trkpt>
      <trkpt lat="47.28638" lon="-1.37819">
        <ele>7</ele>
        <time>2020-12-06T08:05:39.226000+00:00</time>
      </trkpt>
      <trkpt lat="0" lon="0">
        <time>2020-12-06T08:05:39.232000+00:00</time>
      </trkpt>
      <trkpt lat="0" lon="0">
        <time>2020-12-06T08:05:39.240000+00:00</time>
      </trkpt>
      <trkpt lat="0" lon="0">
        <time>2020-12-06T08:05:39.244000+00:00</time>
      </trkpt>
      <trkpt lat="47.28642" lon="-1.37814">
        <ele>7</ele>
        <time>2020-12-06T08:05:40.240000+00:00</time>
      </trkpt>
      <trkpt lat="0" lon="0">
        <time>2020-12-06T08:05:40.247000+00:00</time>
      </trkpt>
      <trkpt lat="0" lon="0">
        <time>2020-12-06T08:05:40.249000+00:00</time>
      </trkpt>
      <trkpt lat="0" lon="0">
        <time>2020-12-06T08:05:40.250000+00:00</time>
      </trkpt>
      <trkpt lat="47.28647" lon="-1.37808">
        <ele>7</ele>
        <time>2020-12-06T08:05:41.198000+00:00</time>
      </trkpt>
      <trkpt lat="0" lon="0">
        <time>2020-12-06T08:05:41.214000+00:00</time>
      </trkpt>
      <trkpt lat="0" lon="0">
        <time>2020-12-06T08:05:41.215000+00:00</time>
      </trkpt>
      <trkpt lat="0" lon="0">
        <time>2020-12-06T08:05:41.216000+00:00</time>
      </trkpt>
      <trkpt lat="47.28651" lon="-1.37803">
        <ele>7</ele>
        <time>2020-12-06T08:05:42.231000+00:00</time>
      </trkpt>
      <trkpt lat="0" lon="0">
        <time>2020-12-06T08:05:42.247000+00:00</time>
      </trkpt>
      <trkpt lat="0" lon="0">
        <time>2020-12-06T08:05:42.257000+00:00</time>
      </trkpt>
      <trkpt lat="0" lon="0">
        <time>2020-12-06T08:05:42.259000+00:00</time>
      </trkpt>
      <trkpt lat="47.28656" lon="-1.37798">
        <ele>7</ele>
        <time>2020-12-06T08:05:43.204000+00:00</time>
      </trkpt>
      <trkpt lat="0" lon="0">
        <time>2020-12-06T08:05:43.215000+00:00</time>
      </trkpt>
      <trkpt lat="0" lon="0">
        <time>2020-12-06T08:05:43.225000+00:00</time>
      </trkpt>
      <trkpt lat="0" lon="0">
        <time>2020-12-06T08:05:43.228000+00:00</time>
      </trkpt>
      <trkpt lat="47.28661" lon="-1.37792">
        <ele>7</ele>
        <time>2020-12-06T08:05:44.229000+00:00</time>
      </trkpt>
      <trkpt lat="0" lon="0">
        <time>2020-12-06T08:05:44.230000+00:00</time>
      </trkpt>
      <trkpt lat="0" lon="0">
        <time>2020-12-06T08:05:44.234000+00:00</time>
      </trkpt>
      <trkpt lat="0" lon="0">
        <time>2020-12-06T08:05:44.235000+00:00</time>
      </trkpt>
      <trkpt lat="47.28666" lon="-1.37787">
        <ele>7</ele>
        <time>2020-12-06T08:05:45.201000+00:00</time>
      </trkpt>
      <trkpt lat="0" lon="0">
        <time>2020-12-06T08:05:45.210000+00:00</time>
      </trkpt>
      <trkpt lat="0" lon="0">
        <time>2020-12-06T08:05:45.213000+00:00</time>
      </trkpt>
      <trkpt lat="0" lon="0">
        <time>2020-12-06T08:05:45.215000+00:00</time>
      </trkpt>
      <trkpt lat="47.2867" lon="-1.37782">
        <ele>6</ele>
        <time>2020-12-06T08:05:46.233000+00:00</time>
      </trkpt>
      <trkpt lat="0" lon="0">
        <time>2020-12-06T08:05:46.236000+00:00</time>
      </trkpt>
      <trkpt lat="0" lon="0">
        <time>2020-12-06T08:05:46.239000+00:00</time>
      </trkpt>
      <trkpt lat="47.28675" lon="-1.37777">
        <ele>6</ele>
        <time>2020-12-06T08:05:47.195000+00:00</time>
      </trkpt>
      <trkpt lat="0" lon="0">
        <time>2020-12-06T08:05:47.197000+00:00</time>
      </trkpt>
      <trkpt lat="0" lon="0">
        <time>2020-12-06T08:05:47.198000+00:00</time>
      </trkpt>
      <trkpt lat="0" lon="0">
        <time>2020-12-06T08:05:47.199000+00:00</time>
      </trkpt>
      <trkpt lat="47.2868" lon="-1.37771">
        <ele>6</ele>
        <time>2020-12-06T08:05:48.237000+00:00</time>
      </trkpt>
      <trkpt lat="0" lon="0">
        <time>2020-12-06T08:05:48.242000+00:00</time>
      </trkpt>
      <trkpt lat="0" lon="0">
        <time>2020-12-06T08:05:48.254000+00:00</time>
      </trkpt>
      <trkpt lat="0" lon="0">
        <time>2020-12-06T08:05:48.263000+00:00</time>
      </trkpt>
      <trkpt lat="47.28685" lon="-1.37766">
        <ele>6</ele>
        <time>2020-12-06T08:05:49.203000+00:00</time>
      </trkpt>
      <trkpt lat="0" lon="0">
        <time>2020-12-06T08:05:49.209000+00:00</time>
      </trkpt>
      <trkpt lat="0" lon="0">
        <time>2020-12-06T08:05:49.217000+00:00</time>
      </trkpt>
      <trkpt lat="0" lon="0">
        <time>2020-12-06T08:05:49.219000+00:00</time>
      </trkpt>
      <trkpt lat="47.28689" lon="-1.37761">
        <ele>6</ele>
        <time>2020-12-06T08:05:50.270000+00:00</time>
      </trkpt>
      <trkpt lat="0" lon="0">
        <time>2020-12-06T08:05:50.274000+00:00</time>
      </trkpt>
      <trkpt lat="0" lon="0">
        <time>2020-12-06T08:05:50.284000+00:00</time>
      </trkpt>
      <trkpt lat="0" lon="0">
        <time>2020-12-06T08:05:50.290000+00:00</time>
      </trkpt>
      <trkpt lat="47.28694" lon="-1.37756">
        <ele>6</ele>
        <time>2020-12-06T08:05:51.251000+00:00</time>
      </trkpt>
      <trkpt lat="0" lon="0">
        <time>2020-12-06T08:05:51.255000+00:00</time>
      </trkpt>
      <trkpt lat="0" lon="0">
        <time>2020-12-06T08:05:51.257000+00:00</time>
      </trkpt>
      <trkpt lat="0" lon="0">
        <time>2020-12-06T08:05:51.259000+00:00</time>
      </trkpt>
      <trkpt lat="47.28699" lon="-1.37751">
        <ele>6</ele>
        <time>2020-12-06T08:05:52.218000+00:00</time>
      </trkpt>
      <trkpt lat="0" lon="0">
        <time>2020-12-06T08:05:52.248000+00:00</time>
      </trkpt>
      <trkpt lat="0" lon="0">
        <time>2020-12-06T08:05:52.249000+00:00</time>
      </trkpt>
      <trkpt lat="0" lon="0">
        <time>2020-12-06T08:05:52.250000+00:00</time>
      </trkpt>
      <trkpt lat="47.28703" lon="-1.37746">
        <ele>6</ele>
        <time>2020-12-06T08:05:53.212000+00:00</time>
      </trkpt>
      <trkpt lat="0" lon="0">
        <time>2020-12-06T08:05:53.219000+00:00</time>
      </trkpt>
      <trkpt lat="0" lon="0">
        <time>2020-12-06T08:05:53.227000+00:00</time>
      </trkpt>
      <trkpt lat="0" lon="0">
        <time>2020-12-06T08:05:53.234000+00:00</time>
      </trkpt>
      <trkpt lat="47.28708" lon="-1.37741">
        <ele>6</ele>
        <time>2020-12-06T08:05:54.177000+00:00</time>
      </trkpt>
      <trkpt lat="0" lon="0">
        <time>2020-12-06T08:05:54.179000+00:00</time>
      </trkpt>
      <trkpt lat="0" lon="0">
        <time>2020-12-06T08:05:54.180000+00:00</time>
      </trkpt>
      <trkpt lat="47.28713" lon="-1.37736">
        <ele>6</ele>
        <time>2020-12-06T08:05:55.176000+00:00</time>
      </trkpt>
      <trkpt lat="0" lon="0">
        <time>2020-12-06T08:05:55.180000+00:00</time>
      </trkpt>
      <trkpt lat="0" lon="0">
        <time>2020-12-06T08:05:55.181000+00:00</time>
      </trkpt>
      <trkpt lat="0" lon="0">
        <time>2020-12-06T08:05:55.182000+00:00</time>
      </trkpt>
      <trkpt lat="47.28718" lon="-1.37732">
        <ele>6</ele>
        <time>2020-12-06T08:05:56.242000+00:00</time>
      </trkpt>
      <trkpt lat="0" lon="0">
        <time>2020-12-06T08:05:56.253000+00:00</time>
      </trkpt>
      <trkpt lat="0" lon="0">
        <time>2020-12-06T08:05:56.255000+00:00</time>
      </trkpt>
      <trkpt lat="0" lon="0">
        <time>2020-12-06T08:05:56.256000+00:00</time>
      </trkpt>
      <trkpt lat="47.28723" lon="-1.37727">
        <ele>6</ele>
        <time>2020-12-06T08:05:57.155000+00:00</time>
      </trkpt>
      <trkpt lat="0" lon="0">
        <time>2020-12-06T08:05:57.157000+00:00</time>
      </trkpt>
      <trkpt lat="0" lon="0">
        <time>2020-12-06T08:05:57.158000+00:00</time>
      </trkpt>
      <trkpt lat="0" lon="0">
        <time>2020-12-06T08:05:57.159000+00:00</time>
      </trkpt>
      <trkpt lat="47.28728" lon="-1.37722">
        <ele>6</ele>
        <time>2020-12-06T08:05:58.229000+00:00</time>
      </trkpt>
      <trkpt lat="0" lon="0">
        <time>2020-12-06T08:05:58.250000+00:00</time>
      </trkpt>
      <trkpt lat="0" lon="0">
        <time>2020-12-06T08:05:58.253000+00:00</time>
      </trkpt>
      <trkpt lat="0" lon="0">
        <time>2020-12-06T08:05:58.255000+00:00</time>
      </trkpt>
      <trkpt lat="47.28733" lon="-1.37716">
        <ele>6</ele>
        <time>2020-12-06T08:05:59.205000+00:00</time>
      </trkpt>
      <trkpt lat="0" lon="0">
        <time>2020-12-06T08:05:59.212000+00:00</time>
      </trkpt>
      <trkpt lat="0" lon="0">
        <time>2020-12-06T08:05:59.221000+00:00</time>
      </trkpt>
      <trkpt lat="0" lon="0">
        <time>2020-12-06T08:05:59.223000+00:00</time>
      </trkpt>
      <trkpt lat="47.28738" lon="-1.37711">
        <ele>5</ele>
        <time>2020-12-06T08:06:00.246000+00:00</time>
      </trkpt>
      <trkpt lat="0" lon="0">
        <time>2020-12-06T08:06:00.254000+00:00</time>
      </trkpt>
      <trkpt lat="0" lon="0">
        <time>2020-12-06T08:06:00.255000+00:00</time>
      </trkpt>
      <trkpt lat="47.28743" lon="-1.37705">
        <ele>5</ele>
        <time>2020-12-06T08:06:01.262000+00:00</time>
      </trkpt>
      <trkpt lat="0" lon="0">
        <time>2020-12-06T08:06:01.264000+00:00</time>
      </trkpt>
      <trkpt lat="0" lon="0">
        <time>2020-12-06T08:06:01.265000+00:00</time>
      </trkpt>
      <trkpt lat="0" lon="0">
        <time>2020-12-06T08:06:01.266000+00:00</time>
      </trkpt>
      <trkpt lat="47.28747" lon="-1.37699">
        <ele>5</ele>
        <time>2020-12-06T08:06:02.199000+00:00</time>
      </trkpt>
      <trkpt lat="0" lon="0">
        <time>2020-12-06T08:06:02.204000+00:00</time>
      </trkpt>
      <trkpt lat="0" lon="0">
        <time>2020-12-06T08:06:02.207000+00:00</time>
      </trkpt>
      <trkpt lat="0" lon="0">
        <time>2020-12-06T08:06:02.210000+00:00</time>
      </trkpt>
      <trkpt lat="47.28751" lon="-1.37693">
        <ele>5</ele>
        <time>2020-12-06T08:06:03.213000+00:00</time>
      </trkpt>
      <trkpt lat="0" lon="0">
        <time>2020-12-06T08:06:03.216000+00:00</time>
      </trkpt>
      <trkpt lat="0" lon="0">
        <time>2020-12-06T08:06:03.224000+00:00</time>
      </trkpt>
      <trkpt lat="0" lon="0">
        <time>2020-12-06T08:06:03.226000+00:00</time>
      </trkpt>
      <trkpt lat="47.28756" lon="-1.37687">
        <ele>5</ele>
        <time>2020-12-06T08:06:04.239000+00:00</time>
      </trkpt>
      <trkpt lat="0" lon="0">
        <time>2020-12-06T08:06:04.265000+00:00</time>
      </trkpt>
      <trkpt lat="0" lon="0">
        <time>2020-12-06T08:06:04.269000+00:00</time>
      </trkpt>
      <trkpt lat="0" lon="0">
        <time>2020-12-06T08:06:04.271000+00:00</time>
      </trkpt>
      <trkpt lat="47.2876" lon="-1.37681">
        <ele>5</ele>
        <time>2020-12-06T08:06:05.209000+00:00</time>
      </trkpt>
      <trkpt lat="0" lon="0">
        <time>2020-12-06T08:06:05.212000+00:00</time>
      </trkpt>
      <trkpt lat="0" lon="0">
        <time>2020-12-06T08:06:05.216000+00:00</time>
      </trkpt>
      <trkpt lat="0" lon="0">
        <time>2020-12-06T08:06:05.220000+00:00</time>
      </trkpt>
      <trkpt lat="47.28765" lon="-1.37675">
        <ele>5</ele>
        <time>2020-12-06T08:06:06.235000+00:00</time>
      </trkpt>
      <trkpt lat="0" lon="0">
        <time>2020-12-06T08:06:06.241000+00:00</time>
      </trkpt>
      <trkpt lat="0" lon="0">
        <time>2020-12-06T08:06:06.258000+00:00</time>
      </trkpt>
      <trkpt lat="0" lon="0">
        <time>2020-12-06T08:06:06.261000+00:00</time>
      </trkpt>
      <trkpt lat="47.28769" lon="-1.3767">
        <ele>4</ele>
        <time>2020-12-06T08:06:07.225000+00:00</time>
      </trkpt>
      <trkpt lat="0" lon="0">
        <time>2020-12-06T08:06:07.231000+00:00</time>
      </trkpt>
      <trkpt lat="0" lon="0">
        <time>2020-12-06T08:06:07.237000+00:00</time>
      </trkpt>
      <trkpt lat="0" lon="0">
        <time>2020-12-06T08:06:07.257000+00:00</time>
      </trkpt>
      <trkpt lat="47.28773" lon="-1.37664">
        <ele>4</ele>
        <time>2020-12-06T08:06:08.172000+00:00</time>
      </trkpt>
      <trkpt lat="0" lon="0">
        <time>2020-12-06T08:06:08.182000+00:00</time>
      </trkpt>
      <trkpt lat="0" lon="0">
        <time>2020-12-06T08:06:08.184000+00:00</time>
      </trkpt>
      <trkpt lat="0" lon="0">
        <time>2020-12-06T08:06:08.185000+00:00</time>
      </trkpt>
      <trkpt lat="47.28778" lon="-1.37659">
        <ele>4</ele>
        <time>2020-12-06T08:06:09.259000+00:00</time>
      </trkpt>
      <trkpt lat="0" lon="0">
        <time>2020-12-06T08:06:09.262000+00:00</time>
      </trkpt>
      <trkpt lat="0" lon="0">
        <time>2020-12-06T08:06:09.275000+00:00</time>
      </trkpt>
      <trkpt lat="0" lon="0">
        <time>2020-12-06T08:06:09.278000+00:00</time>
      </trkpt>
      <trkpt lat="47.28782" lon="-1.37653">
        <ele>4</ele>
        <time>2020-12-06T08:06:10.182000+00:00</time>
      </trkpt>
      <trkpt lat="0" lon="0">
        <time>2020-12-06T08:06:10.190000+00:00</time>
      </trkpt>
      <trkpt lat="0" lon="0">
        <time>2020-12-06T08:06:10.194000+00:00</time>
      </trkpt>
      <trkpt lat="0" lon="0">
        <time>2020-12-06T08:06:10.196000+00:00</time>
      </trkpt>
      <trkpt lat="47.28787" lon="-1.37648">
        <ele>4</ele>
        <time>2020-12-06T08:06:11.220000+00:00</time>
      </trkpt>
      <trkpt lat="0" lon="0">
        <time>2020-12-06T08:06:11.232000+00:00</time>
      </trkpt>
      <trkpt lat="0" lon="0">
        <time>2020-12-06T08:06:11.235000+00:00</time>
      </trkpt>
      <trkpt lat="0" lon="0">
        <time>2020-12-06T08:06:11.238000+00:00</time>
      </trkpt>
      <trkpt lat="47.28791" lon="-1.37643">
        <ele>4</ele>
        <time>2020-12-06T08:06:12.232000+00:00</time>
      </trkpt>
      <trkpt lat="0" lon="0">
        <time>2020-12-06T08:06:12.237000+00:00</time>
      </trkpt>
      <trkpt lat="0" lon="0">
        <time>2020-12-06T08:06:12.253000+00:00</time>
      </trkpt>
      <trkpt lat="0" lon="0">
        <time>2020-12-06T08:06:12.255000+00:00</time>
      </trkpt>
      <trkpt lat="47.28795" lon="-1.37639">
        <ele>4</ele>
        <time>2020-12-06T08:06:13.192000+00:00</time>
      </trkpt>
      <trkpt lat="0" lon="0">
        <time>2020-12-06T08:06:13.202000+00:00</time>
      </trkpt>
      <trkpt lat="0" lon="0">
        <time>2020-12-06T08:06:13.206000+00:00</time>
      </trkpt>
      <trkpt lat="0" lon="0">
        <time>2020-12-06T08:06:13.207000+00:00</time>
      </trkpt>
      <trkpt lat="47.288" lon="-1.37635">
        <ele>5</ele>
        <time>2020-12-06T08:06:14.250000+00:00</time>
      </trkpt>
      <trkpt lat="0" lon="0">
        <time>2020-12-06T08:06:14.257000+00:00</time>
      </trkpt>
      <trkpt lat="0" lon="0">
        <time>2020-12-06T08:06:14.262000+00:00</time>
      </trkpt>
      <trkpt lat="0" lon="0">
        <time>2020-12-06T08:06:14.266000+00:00</time>
      </trkpt>
      <trkpt lat="47.28804" lon="-1.37631">
        <ele>5</ele>
        <time>2020-12-06T08:06:15.247000+00:00</time>
      </trkpt>
      <trkpt lat="0" lon="0">
        <time>2020-12-06T08:06:15.251000+00:00</time>
      </trkpt>
      <trkpt lat="0" lon="0">
        <time>2020-12-06T08:06:15.255000+00:00</time>
      </trkpt>
      <trkpt lat="0" lon="0">
        <time>2020-12-06T08:06:15.256000+00:00</time>
      </trkpt>
      <trkpt lat="47.28808" lon="-1.37628">
        <ele>5</ele>
        <time>2020-12-06T08:06:16.208000+00:00</time>
      </trkpt>
      <trkpt lat="0" lon="0">
        <time>2020-12-06T08:06:16.211000+00:00</time>
      </trkpt>
      <trkpt lat="0" lon="0">
        <time>2020-12-06T08:06:16.222000+00:00</time>
      </trkpt>
      <trkpt lat="0" lon="0">
        <time>2020-12-06T08:06:16.224000+00:00</time>
      </trkpt>
      <trkpt lat="47.28812" lon="-1.37625">
        <ele>5</ele>
        <time>2020-12-06T08:06:17.250000+00:00</time>
      </trkpt>
      <trkpt lat="0" lon="0">
        <time>2020-12-06T08:06:17.253000+00:00</time>
      </trkpt>
      <trkpt lat="0" lon="0">
        <time>2020-12-06T08:06:17.261000+00:00</time>
      </trkpt>
      <trkpt lat="0" lon="0">
        <time>2020-12-06T08:06:17.262000+00:00</time>
      </trkpt>
      <trkpt lat="47.28816" lon="-1.37622">
        <ele>5</ele>
        <time>2020-12-06T08:06:18.231000+00:00</time>
      </trkpt>
      <trkpt lat="0" lon="0">
        <time>2020-12-06T08:06:18.244000+00:00</time>
      </trkpt>
      <trkpt lat="0" lon="0">
        <time>2020-12-06T08:06:18.247000+00:00</time>
      </trkpt>
      <trkpt lat="0" lon="0">
        <time>2020-12-06T08:06:18.257000+00:00</time>
      </trkpt>
      <trkpt lat="47.28819" lon="-1.37619">
        <ele>5</ele>
        <time>2020-12-06T08:06:19.231000+00:00</time>
      </trkpt>
      <trkpt lat="0" lon="0">
        <time>2020-12-06T08:06:19.237000+00:00</time>
      </trkpt>
      <trkpt lat="0" lon="0">
        <time>2020-12-06T08:06:19.242000+00:00</time>
      </trkpt>
      <trkpt lat="0" lon="0">
        <time>2020-12-06T08:06:19.244000+00:00</time>
      </trkpt>
      <trkpt lat="47.28822" lon="-1.37617">
        <ele>5</ele>
        <time>2020-12-06T08:06:20.227000+00:00</time>
      </trkpt>
      <trkpt lat="0" lon="0">
        <time>2020-12-06T08:06:20.241000+00:00</time>
      </trkpt>
      <trkpt lat="0" lon="0">
        <time>2020-12-06T08:06:20.244000+00:00</time>
      </trkpt>
      <trkpt lat="0" lon="0">
        <time>2020-12-06T08:06:20.246000+00:00</time>
      </trkpt>
      <trkpt lat="47.28825" lon="-1.37614">
        <ele>5</ele>
        <time>2020-12-06T08:06:21.218000+00:00</time>
      </trkpt>
      <trkpt lat="0" lon="0">
        <time>2020-12-06T08:06:21.235000+00:00</time>
      </trkpt>
      <trkpt lat="0" lon="0">
        <time>2020-12-06T08:06:21.243000+00:00</time>
      </trkpt>
      <trkpt lat="0" lon="0">
        <time>2020-12-06T08:06:21.245000+00:00</time>
      </trkpt>
      <trkpt lat="47.28828" lon="-1.37612">
        <ele>5</ele>
        <time>2020-12-06T08:06:22.224000+00:00</time>
      </trkpt>
      <trkpt lat="0" lon="0">
        <time>2020-12-06T08:06:22.235000+00:00</time>
      </trkpt>
      <trkpt lat="0" lon="0">
        <time>2020-12-06T08:06:22.241000+00:00</time>
      </trkpt>
      <trkpt lat="0" lon="0">
        <time>2020-12-06T08:06:22.242000+00:00</time>
      </trkpt>
      <trkpt lat="47.2883" lon="-1.37609">
        <ele>5</ele>
        <time>2020-12-06T08:06:23.254000+00:00</time>
      </trkpt>
      <trkpt lat="0" lon="0">
        <time>2020-12-06T08:06:23.259000+00:00</time>
      </trkpt>
      <trkpt lat="0" lon="0">
        <time>2020-12-06T08:06:23.263000+00:00</time>
      </trkpt>
      <trkpt lat="0" lon="0">
        <time>2020-12-06T08:06:23.266000+00:00</time>
      </trkpt>
      <trkpt lat="47.28832" lon="-1.37607">
        <ele>5</ele>
        <time>2020-12-06T08:06:24.229000+00:00</time>
      </trkpt>
      <trkpt lat="0" lon="0">
        <time>2020-12-06T08:06:24.234000+00:00</time>
      </trkpt>
      <trkpt lat="0" lon="0">
        <time>2020-12-06T08:06:24.236000+00:00</time>
      </trkpt>
      <trkpt lat="0" lon="0">
        <time>2020-12-06T08:06:24.237000+00:00</time>
      </trkpt>
      <trkpt lat="47.28833" lon="-1.37604">
        <ele>5</ele>
        <time>2020-12-06T08:06:25.230000+00:00</time>
      </trkpt>
      <trkpt lat="0" lon="0">
        <time>2020-12-06T08:06:25.237000+00:00</time>
      </trkpt>
      <trkpt lat="0" lon="0">
        <time>2020-12-06T08:06:25.243000+00:00</time>
      </trkpt>
      <trkpt lat="0" lon="0">
        <time>2020-12-06T08:06:25.249000+00:00</time>
      </trkpt>
      <trkpt lat="47.28834" lon="-1.37602">
        <ele>5</ele>
        <time>2020-12-06T08:06:26.237000+00:00</time>
      </trkpt>
      <trkpt lat="0" lon="0">
        <time>2020-12-06T08:06:26.247000+00:00</time>
      </trkpt>
      <trkpt lat="0" lon="0">
        <time>2020-12-06T08:06:26.253000+00:00</time>
      </trkpt>
      <trkpt lat="0" lon="0">
        <time>2020-12-06T08:06:26.255000+00:00</time>
      </trkpt>
      <trkpt lat="47.28835" lon="-1.376">
        <ele>5</ele>
        <time>2020-12-06T08:06:27.225000+00:00</time>
      </trkpt>
      <trkpt lat="0" lon="0">
        <time>2020-12-06T08:06:27.233000+00:00</time>
      </trkpt>
      <trkpt lat="0" lon="0">
        <time>2020-12-06T08:06:27.238000+00:00</time>
      </trkpt>
      <trkpt lat="0" lon="0">
        <time>2020-12-06T08:06:27.240000+00:00</time>
      </trkpt>
      <trkpt lat="47.28834" lon="-1.37599">
        <ele>5</ele>
        <time>2020-12-06T08:06:28.226000+00:00</time>
      </trkpt>
      <trkpt lat="0" lon="0">
        <time>2020-12-06T08:06:28.236000+00:00</time>
      </trkpt>
      <trkpt lat="0" lon="0">
        <time>2020-12-06T08:06:28.239000+00:00</time>
      </trkpt>
      <trkpt lat="0" lon="0">
        <time>2020-12-06T08:06:28.241000+00:00</time>
      </trkpt>
      <trkpt lat="47.28834" lon="-1.37598">
        <ele>5</ele>
        <time>2020-12-06T08:06:29.211000+00:00</time>
      </trkpt>
      <trkpt lat="0" lon="0">
        <time>2020-12-06T08:06:29.221000+00:00</time>
      </trkpt>
      <trkpt lat="0" lon="0">
        <time>2020-12-06T08:06:29.230000+00:00</time>
      </trkpt>
      <trkpt lat="0" lon="0">
        <time>2020-12-06T08:06:29.234000+00:00</time>
      </trkpt>
      <trkpt lat="47.28832" lon="-1.37598">
        <ele>5</ele>
        <time>2020-12-06T08:06:30.237000+00:00</time>
      </trkpt>
      <trkpt lat="0" lon="0">
        <time>2020-12-06T08:06:30.245000+00:00</time>
      </trkpt>
      <trkpt lat="0" lon="0">
        <time>2020-12-06T08:06:30.246000+00:00</time>
      </trkpt>
      <trkpt lat="0" lon="0">
        <time>2020-12-06T08:06:30.247000+00:00</time>
      </trkpt>
      <trkpt lat="47.28831" lon="-1.37599">
        <ele>5</ele>
        <time>2020-12-06T08:06:31.252000+00:00</time>
      </trkpt>
      <trkpt lat="0" lon="0">
        <time>2020-12-06T08:06:31.258000+00:00</time>
      </trkpt>
      <trkpt lat="0" lon="0">
        <time>2020-12-06T08:06:31.262000+00:00</time>
      </trkpt>
      <trkpt lat="0" lon="0">
        <time>2020-12-06T08:06:31.263000+00:00</time>
      </trkpt>
      <trkpt lat="47.28829" lon="-1.37601">
        <ele>5</ele>
        <time>2020-12-06T08:06:32.231000+00:00</time>
      </trkpt>
      <trkpt lat="0" lon="0">
        <time>2020-12-06T08:06:32.234000+00:00</time>
      </trkpt>
      <trkpt lat="0" lon="0">
        <time>2020-12-06T08:06:32.246000+00:00</time>
      </trkpt>
      <trkpt lat="0" lon="0">
        <time>2020-12-06T08:06:32.248000+00:00</time>
      </trkpt>
      <trkpt lat="47.28826" lon="-1.37603">
        <ele>5</ele>
        <time>2020-12-06T08:06:33.245000+00:00</time>
      </trkpt>
      <trkpt lat="0" lon="0">
        <time>2020-12-06T08:06:33.254000+00:00</time>
      </trkpt>
      <trkpt lat="0" lon="0">
        <time>2020-12-06T08:06:33.260000+00:00</time>
      </trkpt>
      <trkpt lat="0" lon="0">
        <time>2020-12-06T08:06:33.261000+00:00</time>
      </trkpt>
      <trkpt lat="47.28824" lon="-1.37606">
        <ele>5</ele>
        <time>2020-12-06T08:06:34.240000+00:00</time>
      </trkpt>
      <trkpt lat="0" lon="0">
        <time>2020-12-06T08:06:34.258000+00:00</time>
      </trkpt>
      <trkpt lat="0" lon="0">
        <time>2020-12-06T08:06:34.261000+00:00</time>
      </trkpt>
      <trkpt lat="0" lon="0">
        <time>2020-12-06T08:06:34.264000+00:00</time>
      </trkpt>
      <trkpt lat="47.28821" lon="-1.37608">
        <ele>5</ele>
        <time>2020-12-06T08:06:35.258000+00:00</time>
      </trkpt>
      <trkpt lat="0" lon="0">
        <time>2020-12-06T08:06:35.265000+00:00</time>
      </trkpt>
      <trkpt lat="0" lon="0">
        <time>2020-12-06T08:06:35.276000+00:00</time>
      </trkpt>
      <trkpt lat="0" lon="0">
        <time>2020-12-06T08:06:35.284000+00:00</time>
      </trkpt>
      <trkpt lat="47.28803" lon="-1.37626">
        <ele>5</ele>
        <time>2020-12-06T08:06:36.269000+00:00</time>
      </trkpt>
      <trkpt lat="0" lon="0">
        <time>2020-12-06T08:06:36.276000+00:00</time>
      </trkpt>
      <trkpt lat="0" lon="0">
        <time>2020-12-06T08:06:36.278000+00:00</time>
      </trkpt>
      <trkpt lat="0" lon="0">
        <time>2020-12-06T08:06:36.280000+00:00</time>
      </trkpt>
      <trkpt lat="47.28799" lon="-1.3763">
        <ele>5</ele>
        <time>2020-12-06T08:06:37.268000+00:00</time>
      </trkpt>
      <trkpt lat="0" lon="0">
        <time>2020-12-06T08:06:37.280000+00:00</time>
      </trkpt>
      <trkpt lat="0" lon="0">
        <time>2020-12-06T08:06:37.284000+00:00</time>
      </trkpt>
      <trkpt lat="0" lon="0">
        <time>2020-12-06T08:06:37.286000+00:00</time>
      </trkpt>
      <trkpt lat="47.28795" lon="-1.37633">
        <ele>5</ele>
        <time>2020-12-06T08:06:38.325000+00:00</time>
      </trkpt>
      <trkpt lat="0" lon="0">
        <time>2020-12-06T08:06:38.328000+00:00</time>
      </trkpt>
      <trkpt lat="0" lon="0">
        <time>2020-12-06T08:06:38.332000+00:00</time>
      </trkpt>
      <trkpt lat="0" lon="0">
        <time>2020-12-06T08:06:38.336000+00:00</time>
      </trkpt>
      <trkpt lat="47.28792" lon="-1.37636">
        <ele>5</ele>
        <time>2020-12-06T08:06:39.320000+00:00</time>
      </trkpt>
      <trkpt lat="0" lon="0">
        <time>2020-12-06T08:06:39.324000+00:00</time>
      </trkpt>
      <trkpt lat="0" lon="0">
        <time>2020-12-06T08:06:39.329000+00:00</time>
      </trkpt>
      <trkpt lat="0" lon="0">
        <time>2020-12-06T08:06:39.331000+00:00</time>
      </trkpt>
      <trkpt lat="47.28789" lon="-1.37638">
        <ele>5</ele>
        <time>2020-12-06T08:06:40.317000+00:00</time>
      </trkpt>
      <trkpt lat="0" lon="0">
        <time>2020-12-06T08:06:40.320000+00:00</time>
      </trkpt>
      <trkpt lat="0" lon="0">
        <time>2020-12-06T08:06:40.324000+00:00</time>
      </trkpt>
      <trkpt lat="0" lon="0">
        <time>2020-12-06T08:06:40.326000+00:00</time>
      </trkpt>
      <trkpt lat="47.28787" lon="-1.37639">
        <ele>5</ele>
        <time>2020-12-06T08:06:41.302000+00:00</time>
      </trkpt>
      <trkpt lat="0" lon="0">
        <time>2020-12-06T08:06:41.315000+00:00</time>
      </trkpt>
      <trkpt lat="0" lon="0">
        <time>2020-12-06T08:06:41.322000+00:00</time>
      </trkpt>
      <trkpt lat="0" lon="0">
        <time>2020-12-06T08:06:41.328000+00:00</time>
      </trkpt>
      <trkpt lat="47.28785" lon="-1.37638">
        <ele>5</ele>
        <time>2020-12-06T08:06:42.327000+00:00</time>
      </trkpt>
      <trkpt lat="0" lon="0">
        <time>2020-12-06T08:06:42.343000+00:00</time>
      </trkpt>
      <trkpt lat="0" lon="0">
        <time>2020-12-06T08:06:42.345000+00:00</time>
      </trkpt>
      <trkpt lat="0" lon="0">
        <time>2020-12-06T08:06:42.347000+00:00</time>
      </trkpt>
      <trkpt lat="47.28784" lon="-1.37637">
        <ele>5</ele>
        <time>2020-12-06T08:06:43.330000+00:00</time>
      </trkpt>
      <trkpt lat="0" lon="0">
        <time>2020-12-06T08:06:43.342000+00:00</time>
      </trkpt>
      <trkpt lat="0" lon="0">
        <time>2020-12-06T08:06:43.344000+00:00</time>
      </trkpt>
      <trkpt lat="0" lon="0">
        <time>2020-12-06T08:06:43.346000+00:00</time>
      </trkpt>
      <trkpt lat="47.28784" lon="-1.37635">
        <ele>5</ele>
        <time>2020-12-06T08:06:44.325000+00:00</time>
      </trkpt>
      <trkpt lat="0" lon="0">
        <time>2020-12-06T08:06:44.329000+00:00</time>
      </trkpt>
      <trkpt lat="0" lon="0">
        <time>2020-12-06T08:06:44.333000+00:00</time>
      </trkpt>
      <trkpt lat="0" lon="0">
        <time>2020-12-06T08:06:44.336000+00:00</time>
      </trkpt>
      <trkpt lat="47.28785" lon="-1.37632">
        <ele>5</ele>
        <time>2020-12-06T08:06:45.317000+00:00</time>
      </trkpt>
      <trkpt lat="0" lon="0">
        <time>2020-12-06T08:06:45.327000+00:00</time>
      </trkpt>
      <trkpt lat="0" lon="0">
        <time>2020-12-06T08:06:45.329000+00:00</time>
      </trkpt>
      <trkpt lat="0" lon="0">
        <time>2020-12-06T08:06:45.331000+00:00</time>
      </trkpt>
      <trkpt lat="47.28787" lon="-1.37629">
        <ele>5</ele>
        <time>2020-12-06T08:06:46.347000+00:00</time>
      </trkpt>
      <trkpt lat="0" lon="0">
        <time>2020-12-06T08:06:46.351000+00:00</time>
      </trkpt>
      <trkpt lat="0" lon="0">
        <time>2020-12-06T08:06:46.357000+00:00</time>
      </trkpt>
      <trkpt lat="0" lon="0">
        <time>2020-12-06T08:06:46.362000+00:00</time>
      </trkpt>
      <trkpt lat="47.28789" lon="-1.37625">
        <ele>5</ele>
        <time>2020-12-06T08:06:47.317000+00:00</time>
      </trkpt>
      <trkpt lat="0" lon="0">
        <time>2020-12-06T08:06:47.326000+00:00</time>
      </trkpt>
      <trkpt lat="0" lon="0">
        <time>2020-12-06T08:06:47.337000+00:00</time>
      </trkpt>
      <trkpt lat="0" lon="0">
        <time>2020-12-06T08:06:47.339000+00:00</time>
      </trkpt>
      <trkpt lat="47.28792" lon="-1.37621">
        <ele>5</ele>
        <time>2020-12-06T08:06:48.305000+00:00</time>
      </trkpt>
      <trkpt lat="0" lon="0">
        <time>2020-12-06T08:06:48.310000+00:00</time>
      </trkpt>
      <trkpt lat="0" lon="0">
        <time>2020-12-06T08:06:48.317000+00:00</time>
      </trkpt>
      <trkpt lat="0" lon="0">
        <time>2020-12-06T08:06:48.318000+00:00</time>
      </trkpt>
      <trkpt lat="47.28796" lon="-1.37617">
        <ele>5</ele>
        <time>2020-12-06T08:06:49.320000+00:00</time>
      </trkpt>
      <trkpt lat="0" lon="0">
        <time>2020-12-06T08:06:49.337000+00:00</time>
      </trkpt>
      <trkpt lat="0" lon="0">
        <time>2020-12-06T08:06:49.342000+00:00</time>
      </trkpt>
      <trkpt lat="0" lon="0">
        <time>2020-12-06T08:06:49.345000+00:00</time>
      </trkpt>
      <trkpt lat="47.28799" lon="-1.37612">
        <ele>5</ele>
        <time>2020-12-06T08:06:50.339000+00:00</time>
      </trkpt>
      <trkpt lat="0" lon="0">
        <time>2020-12-06T08:06:50.348000+00:00</time>
      </trkpt>
      <trkpt lat="0" lon="0">
        <time>2020-12-06T08:06:50.353000+00:00</time>
      </trkpt>
      <trkpt lat="0" lon="0">
        <time>2020-12-06T08:06:50.361000+00:00</time>
      </trkpt>
      <trkpt lat="47.28803" lon="-1.37608">
        <ele>5</ele>
        <time>2020-12-06T08:06:51.349000+00:00</time>
      </trkpt>
      <trkpt lat="0" lon="0">
        <time>2020-12-06T08:06:51.356000+00:00</time>
      </trkpt>
      <trkpt lat="0" lon="0">
        <time>2020-12-06T08:06:51.361000+00:00</time>
      </trkpt>
      <trkpt lat="0" lon="0">
        <time>2020-12-06T08:06:51.363000+00:00</time>
      </trkpt>
      <trkpt lat="47.28807" lon="-1.37604">
        <ele>5</ele>
        <time>2020-12-06T08:06:52.316000+00:00</time>
      </trkpt>
      <trkpt lat="0" lon="0">
        <time>2020-12-06T08:06:52.336000+00:00</time>
      </trkpt>
      <trkpt lat="0" lon="0">
        <time>2020-12-06T08:06:52.343000+00:00</time>
      </trkpt>
      <trkpt lat="0" lon="0">
        <time>2020-12-06T08:06:52.345000+00:00</time>
      </trkpt>
      <trkpt lat="47.28811" lon="-1.376">
        <ele>5</ele>
        <time>2020-12-06T08:06:53.355000+00:00</time>
      </trkpt>
      <trkpt lat="0" lon="0">
        <time>2020-12-06T08:06:53.358000+00:00</time>
      </trkpt>
      <trkpt lat="0" lon="0">
        <time>2020-12-06T08:06:53.365000+00:00</time>
      </trkpt>
      <trkpt lat="0" lon="0">
        <time>2020-12-06T08:06:53.367000+00:00</time>
      </trkpt>
      <trkpt lat="47.28815" lon="-1.37597">
        <ele>5</ele>
        <time>2020-12-06T08:06:54.357000+00:00</time>
      </trkpt>
      <trkpt lat="0" lon="0">
        <time>2020-12-06T08:06:54.361000+00:00</time>
      </trkpt>
      <trkpt lat="0" lon="0">
        <time>2020-12-06T08:06:54.363000+00:00</time>
      </trkpt>
      <trkpt lat="0" lon="0">
        <time>2020-12-06T08:06:54.365000+00:00</time>
      </trkpt>
      <trkpt lat="47.28819" lon="-1.37595">
        <ele>5</ele>
        <time>2020-12-06T08:06:55.327000+00:00</time>
      </trkpt>
      <trkpt lat="0" lon="0">
        <time>2020-12-06T08:06:55.333000+00:00</time>
      </trkpt>
      <trkpt lat="0" lon="0">
        <time>2020-12-06T08:06:55.337000+00:00</time>
      </trkpt>
      <trkpt lat="0" lon="0">
        <time>2020-12-06T08:06:55.339000+00:00</time>
      </trkpt>
      <trkpt lat="47.28823" lon="-1.37592">
        <ele>5</ele>
        <time>2020-12-06T08:06:56.336000+00:00</time>
      </trkpt>
      <trkpt lat="0" lon="0">
        <time>2020-12-06T08:06:56.345000+00:00</time>
      </trkpt>
      <trkpt lat="0" lon="0">
        <time>2020-12-06T08:06:56.349000+00:00</time>
      </trkpt>
      <trkpt lat="0" lon="0">
        <time>2020-12-06T08:06:56.351000+00:00</time>
      </trkpt>
      <trkpt lat="47.28827" lon="-1.37591">
        <ele>5</ele>
        <time>2020-12-06T08:06:57.355000+00:00</time>
      </trkpt>
      <trkpt lat="0" lon="0">
        <time>2020-12-06T08:06:57.368000+00:00</time>
      </trkpt>
      <trkpt lat="0" lon="0">
        <time>2020-12-06T08:06:57.372000+00:00</time>
      </trkpt>
      <trkpt lat="0" lon="0">
        <time>2020-12-06T08:06:57.374000+00:00</time>
      </trkpt>
      <trkpt lat="47.2883" lon="-1.3759">
        <ele>5</ele>
        <time>2020-12-06T08:06:58.342000+00:00</time>
      </trkpt>
      <trkpt lat="0" lon="0">
        <time>2020-12-06T08:06:58.351000+00:00</time>
      </trkpt>
      <trkpt lat="0" lon="0">
        <time>2020-12-06T08:06:58.362000+00:00</time>
      </trkpt>
      <trkpt lat="0" lon="0">
        <time>2020-12-06T08:06:58.365000+00:00</time>
      </trkpt>
      <trkpt lat="47.28833" lon="-1.3759">
        <ele>5</ele>
        <time>2020-12-06T08:06:59.310000+00:00</time>
      </trkpt>
      <trkpt lat="0" lon="0">
        <time>2020-12-06T08:06:59.314000+00:00</time>
      </trkpt>
      <trkpt lat="0" lon="0">
        <time>2020-12-06T08:06:59.331000+00:00</time>
      </trkpt>
      <trkpt lat="0" lon="0">
        <time>2020-12-06T08:06:59.339000+00:00</time>
      </trkpt>
      <trkpt lat="47.28836" lon="-1.37589">
        <ele>5</ele>
        <time>2020-12-06T08:07:00.412000+00:00</time>
      </trkpt>
      <trkpt lat="0" lon="0">
        <time>2020-12-06T08:07:00.413000+00:00</time>
      </trkpt>
      <trkpt lat="0" lon="0">
        <time>2020-12-06T08:07:00.415000+00:00</time>
      </trkpt>
      <trkpt lat="0" lon="0">
        <time>2020-12-06T08:07:00.416000+00:00</time>
      </trkpt>
      <trkpt lat="47.28838" lon="-1.3759">
        <ele>5</ele>
        <time>2020-12-06T08:07:01.316000+00:00</time>
      </trkpt>
      <trkpt lat="0" lon="0">
        <time>2020-12-06T08:07:01.338000+00:00</time>
      </trkpt>
      <trkpt lat="0" lon="0">
        <time>2020-12-06T08:07:01.342000+00:00</time>
      </trkpt>
      <trkpt lat="0" lon="0">
        <time>2020-12-06T08:07:01.344000+00:00</time>
      </trkpt>
      <trkpt lat="47.28839" lon="-1.3759">
        <ele>5</ele>
        <time>2020-12-06T08:07:02.295000+00:00</time>
      </trkpt>
      <trkpt lat="0" lon="0">
        <time>2020-12-06T08:07:02.303000+00:00</time>
      </trkpt>
      <trkpt lat="0" lon="0">
        <time>2020-12-06T08:07:02.310000+00:00</time>
      </trkpt>
      <trkpt lat="0" lon="0">
        <time>2020-12-06T08:07:02.312000+00:00</time>
      </trkpt>
      <trkpt lat="47.2884" lon="-1.3759">
        <ele>5</ele>
        <time>2020-12-06T08:07:03.296000+00:00</time>
      </trkpt>
      <trkpt lat="0" lon="0">
        <time>2020-12-06T08:07:03.301000+00:00</time>
      </trkpt>
      <trkpt lat="0" lon="0">
        <time>2020-12-06T08:07:03.306000+00:00</time>
      </trkpt>
      <trkpt lat="0" lon="0">
        <time>2020-12-06T08:07:03.308000+00:00</time>
      </trkpt>
      <trkpt lat="47.28841" lon="-1.37591">
        <ele>5</ele>
        <time>2020-12-06T08:07:04.357000+00:00</time>
      </trkpt>
      <trkpt lat="0" lon="0">
        <time>2020-12-06T08:07:04.365000+00:00</time>
      </trkpt>
      <trkpt lat="0" lon="0">
        <time>2020-12-06T08:07:04.376000+00:00</time>
      </trkpt>
      <trkpt lat="0" lon="0">
        <time>2020-12-06T08:07:04.378000+00:00</time>
      </trkpt>
      <trkpt lat="47.28841" lon="-1.37592">
        <ele>5</ele>
        <time>2020-12-06T08:07:05.329000+00:00</time>
      </trkpt>
      <trkpt lat="0" lon="0">
        <time>2020-12-06T08:07:05.337000+00:00</time>
      </trkpt>
      <trkpt lat="0" lon="0">
        <time>2020-12-06T08:07:05.345000+00:00</time>
      </trkpt>
      <trkpt lat="0" lon="0">
        <time>2020-12-06T08:07:05.348000+00:00</time>
      </trkpt>
      <trkpt lat="47.28841" lon="-1.37592">
        <ele>5</ele>
        <time>2020-12-06T08:07:06.362000+00:00</time>
      </trkpt>
      <trkpt lat="0" lon="0">
        <time>2020-12-06T08:07:06.370000+00:00</time>
      </trkpt>
      <trkpt lat="0" lon="0">
        <time>2020-12-06T08:07:06.371000+00:00</time>
      </trkpt>
      <trkpt lat="0" lon="0">
        <time>2020-12-06T08:07:06.372000+00:00</time>
      </trkpt>
      <trkpt lat="47.28842" lon="-1.37593">
        <ele>5</ele>
        <time>2020-12-06T08:07:07.332000+00:00</time>
      </trkpt>
      <trkpt lat="0" lon="0">
        <time>2020-12-06T08:07:07.335000+00:00</time>
      </trkpt>
      <trkpt lat="0" lon="0">
        <time>2020-12-06T08:07:07.339000+00:00</time>
      </trkpt>
      <trkpt lat="0" lon="0">
        <time>2020-12-06T08:07:07.342000+00:00</time>
      </trkpt>
      <trkpt lat="47.28841" lon="-1.37593">
        <ele>5</ele>
        <time>2020-12-06T08:07:08.328000+00:00</time>
      </trkpt>
      <trkpt lat="0" lon="0">
        <time>2020-12-06T08:07:08.336000+00:00</time>
      </trkpt>
      <trkpt lat="0" lon="0">
        <time>2020-12-06T08:07:08.341000+00:00</time>
      </trkpt>
      <trkpt lat="0" lon="0">
        <time>2020-12-06T08:07:08.346000+00:00</time>
      </trkpt>
      <trkpt lat="47.28841" lon="-1.37594">
        <ele>5</ele>
        <time>2020-12-06T08:07:09.324000+00:00</time>
      </trkpt>
      <trkpt lat="0" lon="0">
        <time>2020-12-06T08:07:09.330000+00:00</time>
      </trkpt>
      <trkpt lat="0" lon="0">
        <time>2020-12-06T08:07:09.335000+00:00</time>
      </trkpt>
      <trkpt lat="0" lon="0">
        <time>2020-12-06T08:07:09.337000+00:00</time>
      </trkpt>
      <trkpt lat="47.28841" lon="-1.37594">
        <ele>5</ele>
        <time>2020-12-06T08:07:10.230000+00:00</time>
      </trkpt>
      <trkpt lat="0" lon="0">
        <time>2020-12-06T08:07:10.234000+00:00</time>
      </trkpt>
      <trkpt lat="0" lon="0">
        <time>2020-12-06T08:07:10.238000+00:00</time>
      </trkpt>
      <trkpt lat="0" lon="0">
        <time>2020-12-06T08:07:10.240000+00:00</time>
      </trkpt>
      <trkpt lat="47.28841" lon="-1.37595">
        <ele>5</ele>
        <time>2020-12-06T08:07:11.262000+00:00</time>
      </trkpt>
      <trkpt lat="0" lon="0">
        <time>2020-12-06T08:07:11.265000+00:00</time>
      </trkpt>
      <trkpt lat="0" lon="0">
        <time>2020-12-06T08:07:11.277000+00:00</time>
      </trkpt>
      <trkpt lat="0" lon="0">
        <time>2020-12-06T08:07:11.282000+00:00</time>
      </trkpt>
      <trkpt lat="47.2884" lon="-1.37596">
        <ele>5</ele>
        <time>2020-12-06T08:07:12.345000+00:00</time>
      </trkpt>
      <trkpt lat="0" lon="0">
        <time>2020-12-06T08:07:12.347000+00:00</time>
      </trkpt>
      <trkpt lat="0" lon="0">
        <time>2020-12-06T08:07:12.351000+00:00</time>
      </trkpt>
      <trkpt lat="0" lon="0">
        <time>2020-12-06T08:07:12.353000+00:00</time>
      </trkpt>
      <trkpt lat="47.2884" lon="-1.37596">
        <ele>5</ele>
        <time>2020-12-06T08:07:13.325000+00:00</time>
      </trkpt>
      <trkpt lat="0" lon="0">
        <time>2020-12-06T08:07:13.339000+00:00</time>
      </trkpt>
      <trkpt lat="0" lon="0">
        <time>2020-12-06T08:07:13.344000+00:00</time>
      </trkpt>
      <trkpt lat="0" lon="0">
        <time>2020-12-06T08:07:13.359000+00:00</time>
      </trkpt>
      <trkpt lat="47.28852" lon="-1.37614">
        <ele>5</ele>
        <time>2020-12-06T08:07:14.333000+00:00</time>
      </trkpt>
      <trkpt lat="0" lon="0">
        <time>2020-12-06T08:07:14.336000+00:00</time>
      </trkpt>
      <trkpt lat="0" lon="0">
        <time>2020-12-06T08:07:14.339000+00:00</time>
      </trkpt>
      <trkpt lat="0" lon="0">
        <time>2020-12-06T08:07:14.341000+00:00</time>
      </trkpt>
      <trkpt lat="47.28855" lon="-1.37617">
        <ele>5</ele>
        <time>2020-12-06T08:07:15.387000+00:00</time>
      </trkpt>
      <trkpt lat="0" lon="0">
        <time>2020-12-06T08:07:15.391000+00:00</time>
      </trkpt>
      <trkpt lat="0" lon="0">
        <time>2020-12-06T08:07:15.394000+00:00</time>
      </trkpt>
      <trkpt lat="0" lon="0">
        <time>2020-12-06T08:07:15.396000+00:00</time>
      </trkpt>
      <trkpt lat="47.28857" lon="-1.3762">
        <ele>5</ele>
        <time>2020-12-06T08:07:16.399000+00:00</time>
      </trkpt>
      <trkpt lat="0" lon="0">
        <time>2020-12-06T08:07:16.406000+00:00</time>
      </trkpt>
      <trkpt lat="0" lon="0">
        <time>2020-12-06T08:07:16.410000+00:00</time>
      </trkpt>
      <trkpt lat="0" lon="0">
        <time>2020-12-06T08:07:16.411000+00:00</time>
      </trkpt>
      <trkpt lat="47.2886" lon="-1.37623">
        <ele>5</ele>
        <time>2020-12-06T08:07:17.399000+00:00</time>
      </trkpt>
      <trkpt lat="0" lon="0">
        <time>2020-12-06T08:07:17.408000+00:00</time>
      </trkpt>
      <trkpt lat="0" lon="0">
        <time>2020-12-06T08:07:17.414000+00:00</time>
      </trkpt>
      <trkpt lat="0" lon="0">
        <time>2020-12-06T08:07:17.416000+00:00</time>
      </trkpt>
      <trkpt lat="47.28863" lon="-1.37627">
        <ele>4</ele>
        <time>2020-12-06T08:07:18.368000+00:00</time>
      </trkpt>
      <trkpt lat="0" lon="0">
        <time>2020-12-06T08:07:18.370000+00:00</time>
      </trkpt>
      <trkpt lat="0" lon="0">
        <time>2020-12-06T08:07:18.373000+00:00</time>
      </trkpt>
      <trkpt lat="0" lon="0">
        <time>2020-12-06T08:07:18.374000+00:00</time>
      </trkpt>
      <trkpt lat="47.28866" lon="-1.37631">
        <ele>4</ele>
        <time>2020-12-06T08:07:19.393000+00:00</time>
      </trkpt>
      <trkpt lat="0" lon="0">
        <time>2020-12-06T08:07:19.399000+00:00</time>
      </trkpt>
      <trkpt lat="0" lon="0">
        <time>2020-12-06T08:07:19.404000+00:00</time>
      </trkpt>
      <trkpt lat="0" lon="0">
        <time>2020-12-06T08:07:19.405000+00:00</time>
      </trkpt>
      <trkpt lat="47.28869" lon="-1.37635">
        <ele>4</ele>
        <time>2020-12-06T08:07:20.405000+00:00</time>
      </trkpt>
      <trkpt lat="0" lon="0">
        <time>2020-12-06T08:07:20.427000+00:00</time>
      </trkpt>
      <trkpt lat="0" lon="0">
        <time>2020-12-06T08:07:20.431000+00:00</time>
      </trkpt>
      <trkpt lat="0" lon="0">
        <time>2020-12-06T08:07:20.433000+00:00</time>
      </trkpt>
      <trkpt lat="47.28872" lon="-1.37638">
        <ele>4</ele>
        <time>2020-12-06T08:07:21.374000+00:00</time>
      </trkpt>
      <trkpt lat="0" lon="0">
        <time>2020-12-06T08:07:21.379000+00:00</time>
      </trkpt>
      <trkpt lat="0" lon="0">
        <time>2020-12-06T08:07:21.387000+00:00</time>
      </trkpt>
      <trkpt lat="0" lon="0">
        <time>2020-12-06T08:07:21.389000+00:00</time>
      </trkpt>
      <trkpt lat="47.28875" lon="-1.37642">
        <ele>4</ele>
        <time>2020-12-06T08:07:22.388000+00:00</time>
      </trkpt>
      <trkpt lat="0" lon="0">
        <time>2020-12-06T08:07:22.396000+00:00</time>
      </trkpt>
      <trkpt lat="0" lon="0">
        <time>2020-12-06T08:07:22.401000+00:00</time>
      </trkpt>
      <trkpt lat="0" lon="0">
        <time>2020-12-06T08:07:22.403000+00:00</time>
      </trkpt>
      <trkpt lat="47.28878" lon="-1.37646">
        <ele>4</ele>
        <time>2020-12-06T08:07:23.368000+00:00</time>
      </trkpt>
      <trkpt lat="0" lon="0">
        <time>2020-12-06T08:07:23.376000+00:00</time>
      </trkpt>
      <trkpt lat="0" lon="0">
        <time>2020-12-06T08:07:23.383000+00:00</time>
      </trkpt>
      <trkpt lat="0" lon="0">
        <time>2020-12-06T08:07:23.386000+00:00</time>
      </trkpt>
      <trkpt lat="47.28881" lon="-1.3765">
        <ele>4</ele>
        <time>2020-12-06T08:07:24.367000+00:00</time>
      </trkpt>
      <trkpt lat="0" lon="0">
        <time>2020-12-06T08:07:24.372000+00:00</time>
      </trkpt>
      <trkpt lat="0" lon="0">
        <time>2020-12-06T08:07:24.377000+00:00</time>
      </trkpt>
      <trkpt lat="0" lon="0">
        <time>2020-12-06T08:07:24.385000+00:00</time>
      </trkpt>
      <trkpt lat="47.28883" lon="-1.37653">
        <ele>4</ele>
        <time>2020-12-06T08:07:25.366000+00:00</time>
      </trkpt>
      <trkpt lat="0" lon="0">
        <time>2020-12-06T08:07:25.384000+00:00</time>
      </trkpt>
      <trkpt lat="0" lon="0">
        <time>2020-12-06T08:07:25.387000+00:00</time>
      </trkpt>
      <trkpt lat="0" lon="0">
        <time>2020-12-06T08:07:25.389000+00:00</time>
      </trkpt>
      <trkpt lat="47.28886" lon="-1.37656">
        <ele>4</ele>
        <time>2020-12-06T08:07:26.367000+00:00</time>
      </trkpt>
      <trkpt lat="0" lon="0">
        <time>2020-12-06T08:07:26.377000+00:00</time>
      </trkpt>
      <trkpt lat="0" lon="0">
        <time>2020-12-06T08:07:26.386000+00:00</time>
      </trkpt>
      <trkpt lat="0" lon="0">
        <time>2020-12-06T08:07:26.388000+00:00</time>
      </trkpt>
      <trkpt lat="47.28889" lon="-1.3766">
        <ele>4</ele>
        <time>2020-12-06T08:07:27.384000+00:00</time>
      </trkpt>
      <trkpt lat="0" lon="0">
        <time>2020-12-06T08:07:27.407000+00:00</time>
      </trkpt>
      <trkpt lat="0" lon="0">
        <time>2020-12-06T08:07:27.414000+00:00</time>
      </trkpt>
      <trkpt lat="0" lon="0">
        <time>2020-12-06T08:07:27.418000+00:00</time>
      </trkpt>
      <trkpt lat="47.28891" lon="-1.37663">
        <ele>4</ele>
        <time>2020-12-06T08:07:28.390000+00:00</time>
      </trkpt>
      <trkpt lat="0" lon="0">
        <time>2020-12-06T08:07:28.399000+00:00</time>
      </trkpt>
      <trkpt lat="0" lon="0">
        <time>2020-12-06T08:07:28.406000+00:00</time>
      </trkpt>
      <trkpt lat="0" lon="0">
        <time>2020-12-06T08:07:28.408000+00:00</time>
      </trkpt>
      <trkpt lat="47.28894" lon="-1.37667">
        <ele>4</ele>
        <time>2020-12-06T08:07:29.336000+00:00</time>
      </trkpt>
      <trkpt lat="0" lon="0">
        <time>2020-12-06T08:07:29.347000+00:00</time>
      </trkpt>
      <trkpt lat="0" lon="0">
        <time>2020-12-06T08:07:29.351000+00:00</time>
      </trkpt>
      <trkpt lat="0" lon="0">
        <time>2020-12-06T08:07:29.353000+00:00</time>
      </trkpt>
      <trkpt lat="47.28896" lon="-1.3767">
        <ele>3</ele>
        <time>2020-12-06T08:07:30.345000+00:00</time>
      </trkpt>
      <trkpt lat="0" lon="0">
        <time>2020-12-06T08:07:30.351000+00:00</time>
      </trkpt>
      <trkpt lat="0" lon="0">
        <time>2020-12-06T08:07:30.355000+00:00</time>
      </trkpt>
      <trkpt lat="0" lon="0">
        <time>2020-12-06T08:07:30.357000+00:00</time>
      </trkpt>
      <trkpt lat="47.28899" lon="-1.37672">
        <ele>3</ele>
        <time>2020-12-06T08:07:31.337000+00:00</time>
      </trkpt>
      <trkpt lat="0" lon="0">
        <time>2020-12-06T08:07:31.348000+00:00</time>
      </trkpt>
      <trkpt lat="0" lon="0">
        <time>2020-12-06T08:07:31.354000+00:00</time>
      </trkpt>
      <trkpt lat="0" lon="0">
        <time>2020-12-06T08:07:31.356000+00:00</time>
      </trkpt>
      <trkpt lat="47.28901" lon="-1.37675">
        <ele>3</ele>
        <time>2020-12-06T08:07:32.343000+00:00</time>
      </trkpt>
      <trkpt lat="0" lon="0">
        <time>2020-12-06T08:07:32.357000+00:00</time>
      </trkpt>
      <trkpt lat="0" lon="0">
        <time>2020-12-06T08:07:32.362000+00:00</time>
      </trkpt>
      <trkpt lat="0" lon="0">
        <time>2020-12-06T08:07:32.367000+00:00</time>
      </trkpt>
      <trkpt lat="47.28902" lon="-1.37677">
        <ele>3</ele>
        <time>2020-12-06T08:07:33.357000+00:00</time>
      </trkpt>
      <trkpt lat="0" lon="0">
        <time>2020-12-06T08:07:33.363000+00:00</time>
      </trkpt>
      <trkpt lat="0" lon="0">
        <time>2020-12-06T08:07:33.369000+00:00</time>
      </trkpt>
      <trkpt lat="0" lon="0">
        <time>2020-12-06T08:07:33.371000+00:00</time>
      </trkpt>
      <trkpt lat="47.28904" lon="-1.37679">
        <ele>3</ele>
        <time>2020-12-06T08:07:34.385000+00:00</time>
      </trkpt>
      <trkpt lat="0" lon="0">
        <time>2020-12-06T08:07:34.394000+00:00</time>
      </trkpt>
      <trkpt lat="0" lon="0">
        <time>2020-12-06T08:07:34.398000+00:00</time>
      </trkpt>
      <trkpt lat="0" lon="0">
        <time>2020-12-06T08:07:34.402000+00:00</time>
      </trkpt>
      <trkpt lat="47.28905" lon="-1.3768">
        <ele>3</ele>
        <time>2020-12-06T08:07:35.347000+00:00</time>
      </trkpt>
      <trkpt lat="0" lon="0">
        <time>2020-12-06T08:07:35.355000+00:00</time>
      </trkpt>
      <trkpt lat="0" lon="0">
        <time>2020-12-06T08:07:35.359000+00:00</time>
      </trkpt>
      <trkpt lat="0" lon="0">
        <time>2020-12-06T08:07:35.365000+00:00</time>
      </trkpt>
      <trkpt lat="47.28906" lon="-1.37681">
        <ele>3</ele>
        <time>2020-12-06T08:07:36.404000+00:00</time>
      </trkpt>
      <trkpt lat="0" lon="0">
        <time>2020-12-06T08:07:36.408000+00:00</time>
      </trkpt>
      <trkpt lat="0" lon="0">
        <time>2020-12-06T08:07:36.416000+00:00</time>
      </trkpt>
      <trkpt lat="0" lon="0">
        <time>2020-12-06T08:07:36.419000+00:00</time>
      </trkpt>
      <trkpt lat="47.28906" lon="-1.37682">
        <ele>3</ele>
        <time>2020-12-06T08:07:37.375000+00:00</time>
      </trkpt>
      <trkpt lat="0" lon="0">
        <time>2020-12-06T08:07:37.391000+00:00</time>
      </trkpt>
      <trkpt lat="0" lon="0">
        <time>2020-12-06T08:07:37.400000+00:00</time>
      </trkpt>
      <trkpt lat="0" lon="0">
        <time>2020-12-06T08:07:37.404000+00:00</time>
      </trkpt>
      <trkpt lat="47.28906" lon="-1.37682">
        <ele>3</ele>
        <time>2020-12-06T08:07:38.368000+00:00</time>
      </trkpt>
      <trkpt lat="0" lon="0">
        <time>2020-12-06T08:07:38.373000+00:00</time>
      </trkpt>
      <trkpt lat="0" lon="0">
        <time>2020-12-06T08:07:38.380000+00:00</time>
      </trkpt>
      <trkpt lat="0" lon="0">
        <time>2020-12-06T08:07:38.387000+00:00</time>
      </trkpt>
      <trkpt lat="47.28906" lon="-1.37682">
        <ele>3</ele>
        <time>2020-12-06T08:07:39.374000+00:00</time>
      </trkpt>
      <trkpt lat="0" lon="0">
        <time>2020-12-06T08:07:39.383000+00:00</time>
      </trkpt>
      <trkpt lat="0" lon="0">
        <time>2020-12-06T08:07:39.387000+00:00</time>
      </trkpt>
      <trkpt lat="0" lon="0">
        <time>2020-12-06T08:07:39.390000+00:00</time>
      </trkpt>
      <trkpt lat="47.28906" lon="-1.37682">
        <ele>3</ele>
        <time>2020-12-06T08:07:40.381000+00:00</time>
      </trkpt>
      <trkpt lat="0" lon="0">
        <time>2020-12-06T08:07:40.383000+00:00</time>
      </trkpt>
      <trkpt lat="0" lon="0">
        <time>2020-12-06T08:07:40.385000+00:00</time>
      </trkpt>
      <trkpt lat="0" lon="0">
        <time>2020-12-06T08:07:40.386000+00:00</time>
      </trkpt>
      <trkpt lat="47.28906" lon="-1.37682">
        <ele>3</ele>
        <time>2020-12-06T08:07:41.357000+00:00</time>
      </trkpt>
      <trkpt lat="0" lon="0">
        <time>2020-12-06T08:07:41.368000+00:00</time>
      </trkpt>
      <trkpt lat="0" lon="0">
        <time>2020-12-06T08:07:41.375000+00:00</time>
      </trkpt>
      <trkpt lat="0" lon="0">
        <time>2020-12-06T08:07:41.380000+00:00</time>
      </trkpt>
      <trkpt lat="47.28906" lon="-1.37682">
        <ele>3</ele>
        <time>2020-12-06T08:07:42.373000+00:00</time>
      </trkpt>
      <trkpt lat="0" lon="0">
        <time>2020-12-06T08:07:42.389000+00:00</time>
      </trkpt>
      <trkpt lat="0" lon="0">
        <time>2020-12-06T08:07:42.400000+00:00</time>
      </trkpt>
      <trkpt lat="0" lon="0">
        <time>2020-12-06T08:07:42.402000+00:00</time>
      </trkpt>
      <trkpt lat="47.28906" lon="-1.37682">
        <ele>3</ele>
        <time>2020-12-06T08:07:43.326000+00:00</time>
      </trkpt>
      <trkpt lat="0" lon="0">
        <time>2020-12-06T08:07:43.330000+00:00</time>
      </trkpt>
      <trkpt lat="0" lon="0">
        <time>2020-12-06T08:07:43.331000+00:00</time>
      </trkpt>
      <trkpt lat="0" lon="0">
        <time>2020-12-06T08:07:43.333000+00:00</time>
      </trkpt>
      <trkpt lat="47.28906" lon="-1.37681">
        <ele>3</ele>
        <time>2020-12-06T08:07:44.358000+00:00</time>
      </trkpt>
      <trkpt lat="0" lon="0">
        <time>2020-12-06T08:07:44.367000+00:00</time>
      </trkpt>
      <trkpt lat="0" lon="0">
        <time>2020-12-06T08:07:44.371000+00:00</time>
      </trkpt>
      <trkpt lat="0" lon="0">
        <time>2020-12-06T08:07:44.373000+00:00</time>
      </trkpt>
      <trkpt lat="47.28906" lon="-1.37681">
        <ele>3</ele>
        <time>2020-12-06T08:07:45.380000+00:00</time>
      </trkpt>
      <trkpt lat="0" lon="0">
        <time>2020-12-06T08:07:45.388000+00:00</time>
      </trkpt>
      <trkpt lat="0" lon="0">
        <time>2020-12-06T08:07:45.393000+00:00</time>
      </trkpt>
      <trkpt lat="0" lon="0">
        <time>2020-12-06T08:07:45.403000+00:00</time>
      </trkpt>
      <trkpt lat="47.28907" lon="-1.37681">
        <ele>3</ele>
        <time>2020-12-06T08:07:46.373000+00:00</time>
      </trkpt>
      <trkpt lat="0" lon="0">
        <time>2020-12-06T08:07:46.377000+00:00</time>
      </trkpt>
      <trkpt lat="0" lon="0">
        <time>2020-12-06T08:07:46.381000+00:00</time>
      </trkpt>
      <trkpt lat="0" lon="0">
        <time>2020-12-06T08:07:46.397000+00:00</time>
      </trkpt>
      <trkpt lat="47.28926" lon="-1.37694">
        <ele>3</ele>
        <time>2020-12-06T08:07:47.345000+00:00</time>
      </trkpt>
      <trkpt lat="0" lon="0">
        <time>2020-12-06T08:07:47.346000+00:00</time>
      </trkpt>
      <trkpt lat="0" lon="0">
        <time>2020-12-06T08:07:47.347000+00:00</time>
      </trkpt>
      <trkpt lat="47.28929" lon="-1.37698">
        <ele>3</ele>
        <time>2020-12-06T08:07:48.412000+00:00</time>
      </trkpt>
      <trkpt lat="0" lon="0">
        <time>2020-12-06T08:07:48.417000+00:00</time>
      </trkpt>
      <trkpt lat="0" lon="0">
        <time>2020-12-06T08:07:48.432000+00:00</time>
      </trkpt>
      <trkpt lat="0" lon="0">
        <time>2020-12-06T08:07:48.434000+00:00</time>
      </trkpt>
      <trkpt lat="47.28933" lon="-1.37702">
        <ele>3</ele>
        <time>2020-12-06T08:07:49.435000+00:00</time>
      </trkpt>
      <trkpt lat="0" lon="0">
        <time>2020-12-06T08:07:49.442000+00:00</time>
      </trkpt>
      <trkpt lat="0" lon="0">
        <time>2020-12-06T08:07:49.448000+00:00</time>
      </trkpt>
      <trkpt lat="0" lon="0">
        <time>2020-12-06T08:07:49.451000+00:00</time>
      </trkpt>
      <trkpt lat="47.28936" lon="-1.37707">
        <ele>3</ele>
        <time>2020-12-06T08:07:50.391000+00:00</time>
      </trkpt>
      <trkpt lat="0" lon="0">
        <time>2020-12-06T08:07:50.395000+00:00</time>
      </trkpt>
      <trkpt lat="0" lon="0">
        <time>2020-12-06T08:07:50.408000+00:00</time>
      </trkpt>
      <trkpt lat="0" lon="0">
        <time>2020-12-06T08:07:50.411000+00:00</time>
      </trkpt>
      <trkpt lat="47.2894" lon="-1.37712">
        <ele>3</ele>
        <time>2020-12-06T08:07:51.453000+00:00</time>
      </trkpt>
      <trkpt lat="0" lon="0">
        <time>2020-12-06T08:07:51.458000+00:00</time>
      </trkpt>
      <trkpt lat="0" lon="0">
        <time>2020-12-06T08:07:51.461000+00:00</time>
      </trkpt>
      <trkpt lat="0" lon="0">
        <time>2020-12-06T08:07:51.462000+00:00</time>
      </trkpt>
      <trkpt lat="47.28944" lon="-1.37717">
        <ele>3</ele>
        <time>2020-12-06T08:07:52.417000+00:00</time>
      </trkpt>
      <trkpt lat="0" lon="0">
        <time>2020-12-06T08:07:52.424000+00:00</time>
      </trkpt>
      <trkpt lat="0" lon="0">
        <time>2020-12-06T08:07:52.429000+00:00</time>
      </trkpt>
      <trkpt lat="0" lon="0">
        <time>2020-12-06T08:07:52.432000+00:00</time>
      </trkpt>
      <trkpt lat="47.28948" lon="-1.37723">
        <ele>3</ele>
        <time>2020-12-06T08:07:53.406000+00:00</time>
      </trkpt>
      <trkpt lat="0" lon="0">
        <time>2020-12-06T08:07:53.417000+00:00</time>
      </trkpt>
      <trkpt lat="0" lon="0">
        <time>2020-12-06T08:07:53.427000+00:00</time>
      </trkpt>
      <trkpt lat="0" lon="0">
        <time>2020-12-06T08:07:53.429000+00:00</time>
      </trkpt>
      <trkpt lat="47.28953" lon="-1.37728">
        <ele>3</ele>
        <time>2020-12-06T08:07:54.422000+00:00</time>
      </trkpt>
      <trkpt lat="0" lon="0">
        <time>2020-12-06T08:07:54.427000+00:00</time>
      </trkpt>
      <trkpt lat="0" lon="0">
        <time>2020-12-06T08:07:54.431000+00:00</time>
      </trkpt>
      <trkpt lat="0" lon="0">
        <time>2020-12-06T08:07:54.443000+00:00</time>
      </trkpt>
      <trkpt lat="47.28957" lon="-1.37734">
        <ele>3</ele>
        <time>2020-12-06T08:07:55.449000+00:00</time>
      </trkpt>
      <trkpt lat="0" lon="0">
        <time>2020-12-06T08:07:55.456000+00:00</time>
      </trkpt>
      <trkpt lat="0" lon="0">
        <time>2020-12-06T08:07:55.467000+00:00</time>
      </trkpt>
      <trkpt lat="0" lon="0">
        <time>2020-12-06T08:07:55.470000+00:00</time>
      </trkpt>
      <trkpt lat="47.28961" lon="-1.3774">
        <ele>3</ele>
        <time>2020-12-06T08:07:56.429000+00:00</time>
      </trkpt>
      <trkpt lat="0" lon="0">
        <time>2020-12-06T08:07:56.436000+00:00</time>
      </trkpt>
      <trkpt lat="0" lon="0">
        <time>2020-12-06T08:07:56.440000+00:00</time>
      </trkpt>
      <trkpt lat="0" lon="0">
        <time>2020-12-06T08:07:56.443000+00:00</time>
      </trkpt>
      <trkpt lat="47.28965" lon="-1.37746">
        <ele>3</ele>
        <time>2020-12-06T08:07:57.414000+00:00</time>
      </trkpt>
      <trkpt lat="0" lon="0">
        <time>2020-12-06T08:07:57.419000+00:00</time>
      </trkpt>
      <trkpt lat="0" lon="0">
        <time>2020-12-06T08:07:57.425000+00:00</time>
      </trkpt>
      <trkpt lat="0" lon="0">
        <time>2020-12-06T08:07:57.433000+00:00</time>
      </trkpt>
      <trkpt lat="47.2897" lon="-1.37751">
        <ele>3</ele>
        <time>2020-12-06T08:07:58.456000+00:00</time>
      </trkpt>
      <trkpt lat="0" lon="0">
        <time>2020-12-06T08:07:58.469000+00:00</time>
      </trkpt>
      <trkpt lat="0" lon="0">
        <time>2020-12-06T08:07:58.474000+00:00</time>
      </trkpt>
      <trkpt lat="0" lon="0">
        <time>2020-12-06T08:07:58.480000+00:00</time>
      </trkpt>
      <trkpt lat="47.28974" lon="-1.37757">
        <ele>3</ele>
        <time>2020-12-06T08:07:59.453000+00:00</time>
      </trkpt>
      <trkpt lat="0" lon="0">
        <time>2020-12-06T08:07:59.459000+00:00</time>
      </trkpt>
      <trkpt lat="0" lon="0">
        <time>2020-12-06T08:07:59.464000+00:00</time>
      </trkpt>
      <trkpt lat="0" lon="0">
        <time>2020-12-06T08:07:59.466000+00:00</time>
      </trkpt>
      <trkpt lat="47.28979" lon="-1.37763">
        <ele>3</ele>
        <time>2020-12-06T08:08:00.418000+00:00</time>
      </trkpt>
      <trkpt lat="0" lon="0">
        <time>2020-12-06T08:08:00.421000+00:00</time>
      </trkpt>
      <trkpt lat="0" lon="0">
        <time>2020-12-06T08:08:00.425000+00:00</time>
      </trkpt>
      <trkpt lat="0" lon="0">
        <time>2020-12-06T08:08:00.427000+00:00</time>
      </trkpt>
      <trkpt lat="47.28983" lon="-1.37769">
        <ele>3</ele>
        <time>2020-12-06T08:08:01.435000+00:00</time>
      </trkpt>
      <trkpt lat="0" lon="0">
        <time>2020-12-06T08:08:01.456000+00:00</time>
      </trkpt>
      <trkpt lat="0" lon="0">
        <time>2020-12-06T08:08:01.462000+00:00</time>
      </trkpt>
      <trkpt lat="0" lon="0">
        <time>2020-12-06T08:08:01.472000+00:00</time>
      </trkpt>
      <trkpt lat="47.28987" lon="-1.37774">
        <ele>3</ele>
        <time>2020-12-06T08:08:02.423000+00:00</time>
      </trkpt>
      <trkpt lat="0" lon="0">
        <time>2020-12-06T08:08:02.426000+00:00</time>
      </trkpt>
      <trkpt lat="0" lon="0">
        <time>2020-12-06T08:08:02.433000+00:00</time>
      </trkpt>
      <trkpt lat="0" lon="0">
        <time>2020-12-06T08:08:02.435000+00:00</time>
      </trkpt>
      <trkpt lat="47.28992" lon="-1.3778">
        <ele>3</ele>
        <time>2020-12-06T08:08:03.409000+00:00</time>
      </trkpt>
      <trkpt lat="0" lon="0">
        <time>2020-12-06T08:08:03.426000+00:00</time>
      </trkpt>
      <trkpt lat="0" lon="0">
        <time>2020-12-06T08:08:03.437000+00:00</time>
      </trkpt>
      <trkpt lat="0" lon="0">
        <time>2020-12-06T08:08:03.440000+00:00</time>
      </trkpt>
      <trkpt lat="47.28996" lon="-1.37785">
        <ele>3</ele>
        <time>2020-12-06T08:08:04.427000+00:00</time>
      </trkpt>
      <trkpt lat="0" lon="0">
        <time>2020-12-06T08:08:04.436000+00:00</time>
      </trkpt>
      <trkpt lat="0" lon="0">
        <time>2020-12-06T08:08:04.438000+00:00</time>
      </trkpt>
      <trkpt lat="0" lon="0">
        <time>2020-12-06T08:08:04.439000+00:00</time>
      </trkpt>
      <trkpt lat="47.29" lon="-1.37791">
        <ele>4</ele>
        <time>2020-12-06T08:08:05.413000+00:00</time>
      </trkpt>
      <trkpt lat="0" lon="0">
        <time>2020-12-06T08:08:05.430000+00:00</time>
      </trkpt>
      <trkpt lat="0" lon="0">
        <time>2020-12-06T08:08:05.437000+00:00</time>
      </trkpt>
      <trkpt lat="0" lon="0">
        <time>2020-12-06T08:08:05.440000+00:00</time>
      </trkpt>
      <trkpt lat="47.29005" lon="-1.37796">
        <ele>4</ele>
        <time>2020-12-06T08:08:06.405000+00:00</time>
      </trkpt>
      <trkpt lat="0" lon="0">
        <time>2020-12-06T08:08:06.423000+00:00</time>
      </trkpt>
      <trkpt lat="0" lon="0">
        <time>2020-12-06T08:08:06.429000+00:00</time>
      </trkpt>
      <trkpt lat="0" lon="0">
        <time>2020-12-06T08:08:06.436000+00:00</time>
      </trkpt>
      <trkpt lat="47.29009" lon="-1.37801">
        <ele>4</ele>
        <time>2020-12-06T08:08:07.440000+00:00</time>
      </trkpt>
      <trkpt lat="0" lon="0">
        <time>2020-12-06T08:08:07.444000+00:00</time>
      </trkpt>
      <trkpt lat="0" lon="0">
        <time>2020-12-06T08:08:07.447000+00:00</time>
      </trkpt>
      <trkpt lat="0" lon="0">
        <time>2020-12-06T08:08:07.450000+00:00</time>
      </trkpt>
      <trkpt lat="47.29013" lon="-1.37806">
        <ele>4</ele>
        <time>2020-12-06T08:08:08.442000+00:00</time>
      </trkpt>
      <trkpt lat="0" lon="0">
        <time>2020-12-06T08:08:08.443000+00:00</time>
      </trkpt>
      <trkpt lat="0" lon="0">
        <time>2020-12-06T08:08:08.445000+00:00</time>
      </trkpt>
      <trkpt lat="47.29017" lon="-1.37811">
        <ele>4</ele>
        <time>2020-12-06T08:08:09.402000+00:00</time>
      </trkpt>
      <trkpt lat="0" lon="0">
        <time>2020-12-06T08:08:09.418000+00:00</time>
      </trkpt>
      <trkpt lat="0" lon="0">
        <time>2020-12-06T08:08:09.421000+00:00</time>
      </trkpt>
      <trkpt lat="0" lon="0">
        <time>2020-12-06T08:08:09.422000+00:00</time>
      </trkpt>
      <trkpt lat="47.29022" lon="-1.37816">
        <ele>4</ele>
        <time>2020-12-06T08:08:10.426000+00:00</time>
      </trkpt>
      <trkpt lat="0" lon="0">
        <time>2020-12-06T08:08:10.447000+00:00</time>
      </trkpt>
      <trkpt lat="0" lon="0">
        <time>2020-12-06T08:08:10.456000+00:00</time>
      </trkpt>
      <trkpt lat="0" lon="0">
        <time>2020-12-06T08:08:10.460000+00:00</time>
      </trkpt>
      <trkpt lat="47.29026" lon="-1.3782">
        <ele>4</ele>
        <time>2020-12-06T08:08:11.443000+00:00</time>
      </trkpt>
      <trkpt lat="0" lon="0">
        <time>2020-12-06T08:08:11.447000+00:00</time>
      </trkpt>
      <trkpt lat="0" lon="0">
        <time>2020-12-06T08:08:11.452000+00:00</time>
      </trkpt>
      <trkpt lat="0" lon="0">
        <time>2020-12-06T08:08:11.454000+00:00</time>
      </trkpt>
      <trkpt lat="47.29031" lon="-1.37824">
        <ele>4</ele>
        <time>2020-12-06T08:08:12.387000+00:00</time>
      </trkpt>
      <trkpt lat="0" lon="0">
        <time>2020-12-06T08:08:12.401000+00:00</time>
      </trkpt>
      <trkpt lat="0" lon="0">
        <time>2020-12-06T08:08:12.405000+00:00</time>
      </trkpt>
      <trkpt lat="0" lon="0">
        <time>2020-12-06T08:08:12.408000+00:00</time>
      </trkpt>
      <trkpt lat="47.29035" lon="-1.37828">
        <ele>4</ele>
        <time>2020-12-06T08:08:13.399000+00:00</time>
      </trkpt>
      <trkpt lat="0" lon="0">
        <time>2020-12-06T08:08:13.402000+00:00</time>
      </trkpt>
      <trkpt lat="0" lon="0">
        <time>2020-12-06T08:08:13.410000+00:00</time>
      </trkpt>
      <trkpt lat="0" lon="0">
        <time>2020-12-06T08:08:13.413000+00:00</time>
      </trkpt>
      <trkpt lat="47.2904" lon="-1.37832">
        <ele>4</ele>
        <time>2020-12-06T08:08:14.371000+00:00</time>
      </trkpt>
      <trkpt lat="0" lon="0">
        <time>2020-12-06T08:08:14.376000+00:00</time>
      </trkpt>
      <trkpt lat="0" lon="0">
        <time>2020-12-06T08:08:14.380000+00:00</time>
      </trkpt>
      <trkpt lat="0" lon="0">
        <time>2020-12-06T08:08:14.382000+00:00</time>
      </trkpt>
      <trkpt lat="47.29045" lon="-1.37836">
        <ele>5</ele>
        <time>2020-12-06T08:08:15.427000+00:00</time>
      </trkpt>
      <trkpt lat="0" lon="0">
        <time>2020-12-06T08:08:15.440000+00:00</time>
      </trkpt>
      <trkpt lat="0" lon="0">
        <time>2020-12-06T08:08:15.447000+00:00</time>
      </trkpt>
      <trkpt lat="0" lon="0">
        <time>2020-12-06T08:08:15.450000+00:00</time>
      </trkpt>
      <trkpt lat="47.2905" lon="-1.3784">
        <ele>5</ele>
        <time>2020-12-06T08:08:16.437000+00:00</time>
      </trkpt>
      <trkpt lat="0" lon="0">
        <time>2020-12-06T08:08:16.440000+00:00</time>
      </trkpt>
      <trkpt lat="0" lon="0">
        <time>2020-12-06T08:08:16.453000+00:00</time>
      </trkpt>
      <trkpt lat="0" lon="0">
        <time>2020-12-06T08:08:16.454000+00:00</time>
      </trkpt>
      <trkpt lat="47.29055" lon="-1.37844">
        <ele>5</ele>
        <time>2020-12-06T08:08:17.468000+00:00</time>
      </trkpt>
      <trkpt lat="0" lon="0">
        <time>2020-12-06T08:08:17.483000+00:00</time>
      </trkpt>
      <trkpt lat="0" lon="0">
        <time>2020-12-06T08:08:17.488000+00:00</time>
      </trkpt>
      <trkpt lat="0" lon="0">
        <time>2020-12-06T08:08:17.490000+00:00</time>
      </trkpt>
      <trkpt lat="47.2906" lon="-1.37848">
        <ele>5</ele>
        <time>2020-12-06T08:08:18.398000+00:00</time>
      </trkpt>
      <trkpt lat="0" lon="0">
        <time>2020-12-06T08:08:18.406000+00:00</time>
      </trkpt>
      <trkpt lat="0" lon="0">
        <time>2020-12-06T08:08:18.408000+00:00</time>
      </trkpt>
      <trkpt lat="0" lon="0">
        <time>2020-12-06T08:08:18.409000+00:00</time>
      </trkpt>
      <trkpt lat="47.29066" lon="-1.3785">
        <ele>5</ele>
        <time>2020-12-06T08:08:19.391000+00:00</time>
      </trkpt>
      <trkpt lat="0" lon="0">
        <time>2020-12-06T08:08:19.396000+00:00</time>
      </trkpt>
      <trkpt lat="0" lon="0">
        <time>2020-12-06T08:08:19.397000+00:00</time>
      </trkpt>
      <trkpt lat="0" lon="0">
        <time>2020-12-06T08:08:19.398000+00:00</time>
      </trkpt>
      <trkpt lat="47.29071" lon="-1.37851">
        <ele>5</ele>
        <time>2020-12-06T08:08:20.401000+00:00</time>
      </trkpt>
      <trkpt lat="0" lon="0">
        <time>2020-12-06T08:08:20.404000+00:00</time>
      </trkpt>
      <trkpt lat="0" lon="0">
        <time>2020-12-06T08:08:20.417000+00:00</time>
      </trkpt>
      <trkpt lat="0" lon="0">
        <time>2020-12-06T08:08:20.424000+00:00</time>
      </trkpt>
      <trkpt lat="47.29077" lon="-1.3785">
        <ele>6</ele>
        <time>2020-12-06T08:08:21.422000+00:00</time>
      </trkpt>
      <trkpt lat="0" lon="0">
        <time>2020-12-06T08:08:21.446000+00:00</time>
      </trkpt>
      <trkpt lat="0" lon="0">
        <time>2020-12-06T08:08:21.453000+00:00</time>
      </trkpt>
      <trkpt lat="0" lon="0">
        <time>2020-12-06T08:08:21.456000+00:00</time>
      </trkpt>
      <trkpt lat="47.29082" lon="-1.37848">
        <ele>6</ele>
        <time>2020-12-06T08:08:22.363000+00:00</time>
      </trkpt>
      <trkpt lat="0" lon="0">
        <time>2020-12-06T08:08:22.373000+00:00</time>
      </trkpt>
      <trkpt lat="0" lon="0">
        <time>2020-12-06T08:08:22.381000+00:00</time>
      </trkpt>
      <trkpt lat="0" lon="0">
        <time>2020-12-06T08:08:22.383000+00:00</time>
      </trkpt>
      <trkpt lat="47.29086" lon="-1.37844">
        <ele>6</ele>
        <time>2020-12-06T08:08:23.357000+00:00</time>
      </trkpt>
      <trkpt lat="0" lon="0">
        <time>2020-12-06T08:08:23.370000+00:00</time>
      </trkpt>
      <trkpt lat="0" lon="0">
        <time>2020-12-06T08:08:23.374000+00:00</time>
      </trkpt>
      <trkpt lat="0" lon="0">
        <time>2020-12-06T08:08:23.381000+00:00</time>
      </trkpt>
      <trkpt lat="47.29091" lon="-1.37839">
        <ele>6</ele>
        <time>2020-12-06T08:08:24.391000+00:00</time>
      </trkpt>
      <trkpt lat="0" lon="0">
        <time>2020-12-06T08:08:24.394000+00:00</time>
      </trkpt>
      <trkpt lat="0" lon="0">
        <time>2020-12-06T08:08:24.410000+00:00</time>
      </trkpt>
      <trkpt lat="0" lon="0">
        <time>2020-12-06T08:08:24.415000+00:00</time>
      </trkpt>
      <trkpt lat="47.29096" lon="-1.37832">
        <ele>5</ele>
        <time>2020-12-06T08:08:25.404000+00:00</time>
      </trkpt>
      <trkpt lat="0" lon="0">
        <time>2020-12-06T08:08:25.416000+00:00</time>
      </trkpt>
      <trkpt lat="0" lon="0">
        <time>2020-12-06T08:08:25.418000+00:00</time>
      </trkpt>
      <trkpt lat="0" lon="0">
        <time>2020-12-06T08:08:25.420000+00:00</time>
      </trkpt>
      <trkpt lat="47.29101" lon="-1.37825">
        <ele>5</ele>
        <time>2020-12-06T08:08:26.419000+00:00</time>
      </trkpt>
      <trkpt lat="0" lon="0">
        <time>2020-12-06T08:08:26.424000+00:00</time>
      </trkpt>
      <trkpt lat="0" lon="0">
        <time>2020-12-06T08:08:26.431000+00:00</time>
      </trkpt>
      <trkpt lat="0" lon="0">
        <time>2020-12-06T08:08:26.434000+00:00</time>
      </trkpt>
      <trkpt lat="47.29106" lon="-1.37818">
        <ele>5</ele>
        <time>2020-12-06T08:08:27.416000+00:00</time>
      </trkpt>
      <trkpt lat="0" lon="0">
        <time>2020-12-06T08:08:27.431000+00:00</time>
      </trkpt>
      <trkpt lat="0" lon="0">
        <time>2020-12-06T08:08:27.438000+00:00</time>
      </trkpt>
      <trkpt lat="0" lon="0">
        <time>2020-12-06T08:08:27.441000+00:00</time>
      </trkpt>
      <trkpt lat="47.2911" lon="-1.3781">
        <ele>5</ele>
        <time>2020-12-06T08:08:28.409000+00:00</time>
      </trkpt>
      <trkpt lat="0" lon="0">
        <time>2020-12-06T08:08:28.423000+00:00</time>
      </trkpt>
      <trkpt lat="0" lon="0">
        <time>2020-12-06T08:08:28.432000+00:00</time>
      </trkpt>
      <trkpt lat="0" lon="0">
        <time>2020-12-06T08:08:28.433000+00:00</time>
      </trkpt>
      <trkpt lat="47.29115" lon="-1.37801">
        <ele>5</ele>
        <time>2020-12-06T08:08:29.413000+00:00</time>
      </trkpt>
      <trkpt lat="0" lon="0">
        <time>2020-12-06T08:08:29.426000+00:00</time>
      </trkpt>
      <trkpt lat="0" lon="0">
        <time>2020-12-06T08:08:29.430000+00:00</time>
      </trkpt>
      <trkpt lat="0" lon="0">
        <time>2020-12-06T08:08:29.432000+00:00</time>
      </trkpt>
      <trkpt lat="47.29119" lon="-1.37792">
        <ele>5</ele>
        <time>2020-12-06T08:08:30.355000+00:00</time>
      </trkpt>
      <trkpt lat="0" lon="0">
        <time>2020-12-06T08:08:30.363000+00:00</time>
      </trkpt>
      <trkpt lat="0" lon="0">
        <time>2020-12-06T08:08:30.366000+00:00</time>
      </trkpt>
      <trkpt lat="0" lon="0">
        <time>2020-12-06T08:08:30.367000+00:00</time>
      </trkpt>
      <trkpt lat="47.29124" lon="-1.37783">
        <ele>5</ele>
        <time>2020-12-06T08:08:31.423000+00:00</time>
      </trkpt>
      <trkpt lat="0" lon="0">
        <time>2020-12-06T08:08:31.426000+00:00</time>
      </trkpt>
      <trkpt lat="0" lon="0">
        <time>2020-12-06T08:08:31.434000+00:00</time>
      </trkpt>
      <trkpt lat="0" lon="0">
        <time>2020-12-06T08:08:31.436000+00:00</time>
      </trkpt>
      <trkpt lat="47.29128" lon="-1.37774">
        <ele>5</ele>
        <time>2020-12-06T08:08:32.430000+00:00</time>
      </trkpt>
      <trkpt lat="0" lon="0">
        <time>2020-12-06T08:08:32.435000+00:00</time>
      </trkpt>
      <trkpt lat="0" lon="0">
        <time>2020-12-06T08:08:32.447000+00:00</time>
      </trkpt>
      <trkpt lat="0" lon="0">
        <time>2020-12-06T08:08:32.461000+00:00</time>
      </trkpt>
      <trkpt lat="47.29132" lon="-1.37764">
        <ele>5</ele>
        <time>2020-12-06T08:08:33.425000+00:00</time>
      </trkpt>
      <trkpt lat="0" lon="0">
        <time>2020-12-06T08:08:33.429000+00:00</time>
      </trkpt>
      <trkpt lat="0" lon="0">
        <time>2020-12-06T08:08:33.445000+00:00</time>
      </trkpt>
      <trkpt lat="0" lon="0">
        <time>2020-12-06T08:08:33.450000+00:00</time>
      </trkpt>
      <trkpt lat="47.29136" lon="-1.37755">
        <ele>5</ele>
        <time>2020-12-06T08:08:34.402000+00:00</time>
      </trkpt>
      <trkpt lat="0" lon="0">
        <time>2020-12-06T08:08:34.413000+00:00</time>
      </trkpt>
      <trkpt lat="0" lon="0">
        <time>2020-12-06T08:08:34.422000+00:00</time>
      </trkpt>
      <trkpt lat="0" lon="0">
        <time>2020-12-06T08:08:34.424000+00:00</time>
      </trkpt>
      <trkpt lat="47.2914" lon="-1.37746">
        <ele>5</ele>
        <time>2020-12-06T08:08:35.395000+00:00</time>
      </trkpt>
      <trkpt lat="0" lon="0">
        <time>2020-12-06T08:08:35.404000+00:00</time>
      </trkpt>
      <trkpt lat="0" lon="0">
        <time>2020-12-06T08:08:35.407000+00:00</time>
      </trkpt>
      <trkpt lat="0" lon="0">
        <time>2020-12-06T08:08:35.409000+00:00</time>
      </trkpt>
      <trkpt lat="47.29144" lon="-1.37737">
        <ele>5</ele>
        <time>2020-12-06T08:08:36.428000+00:00</time>
      </trkpt>
      <trkpt lat="0" lon="0">
        <time>2020-12-06T08:08:36.433000+00:00</time>
      </trkpt>
      <trkpt lat="0" lon="0">
        <time>2020-12-06T08:08:36.437000+00:00</time>
      </trkpt>
      <trkpt lat="0" lon="0">
        <time>2020-12-06T08:08:36.442000+00:00</time>
      </trkpt>
      <trkpt lat="47.29148" lon="-1.37727">
        <ele>5</ele>
        <time>2020-12-06T08:08:37.412000+00:00</time>
      </trkpt>
      <trkpt lat="0" lon="0">
        <time>2020-12-06T08:08:37.419000+00:00</time>
      </trkpt>
      <trkpt lat="0" lon="0">
        <time>2020-12-06T08:08:37.422000+00:00</time>
      </trkpt>
      <trkpt lat="0" lon="0">
        <time>2020-12-06T08:08:37.423000+00:00</time>
      </trkpt>
      <trkpt lat="47.29152" lon="-1.37718">
        <ele>5</ele>
        <time>2020-12-06T08:08:38.425000+00:00</time>
      </trkpt>
      <trkpt lat="0" lon="0">
        <time>2020-12-06T08:08:38.443000+00:00</time>
      </trkpt>
      <trkpt lat="0" lon="0">
        <time>2020-12-06T08:08:38.448000+00:00</time>
      </trkpt>
      <trkpt lat="0" lon="0">
        <time>2020-12-06T08:08:38.449000+00:00</time>
      </trkpt>
      <trkpt lat="47.29156" lon="-1.37709">
        <ele>4</ele>
        <time>2020-12-06T08:08:39.408000+00:00</time>
      </trkpt>
      <trkpt lat="0" lon="0">
        <time>2020-12-06T08:08:39.412000+00:00</time>
      </trkpt>
      <trkpt lat="0" lon="0">
        <time>2020-12-06T08:08:39.423000+00:00</time>
      </trkpt>
      <trkpt lat="0" lon="0">
        <time>2020-12-06T08:08:39.426000+00:00</time>
      </trkpt>
      <trkpt lat="47.2916" lon="-1.377">
        <ele>4</ele>
        <time>2020-12-06T08:08:40.395000+00:00</time>
      </trkpt>
      <trkpt lat="0" lon="0">
        <time>2020-12-06T08:08:40.397000+00:00</time>
      </trkpt>
      <trkpt lat="0" lon="0">
        <time>2020-12-06T08:08:40.399000+00:00</time>
      </trkpt>
      <trkpt lat="0" lon="0">
        <time>2020-12-06T08:08:40.403000+00:00</time>
      </trkpt>
      <trkpt lat="47.29164" lon="-1.37691">
        <ele>4</ele>
        <time>2020-12-06T08:08:41.425000+00:00</time>
      </trkpt>
      <trkpt lat="0" lon="0">
        <time>2020-12-06T08:08:41.432000+00:00</time>
      </trkpt>
      <trkpt lat="0" lon="0">
        <time>2020-12-06T08:08:41.436000+00:00</time>
      </trkpt>
      <trkpt lat="0" lon="0">
        <time>2020-12-06T08:08:41.441000+00:00</time>
      </trkpt>
      <trkpt lat="47.29168" lon="-1.37682">
        <ele>4</ele>
        <time>2020-12-06T08:08:42.397000+00:00</time>
      </trkpt>
      <trkpt lat="0" lon="0">
        <time>2020-12-06T08:08:42.406000+00:00</time>
      </trkpt>
      <trkpt lat="0" lon="0">
        <time>2020-12-06T08:08:42.410000+00:00</time>
      </trkpt>
      <trkpt lat="0" lon="0">
        <time>2020-12-06T08:08:42.412000+00:00</time>
      </trkpt>
      <trkpt lat="47.29172" lon="-1.37673">
        <ele>4</ele>
        <time>2020-12-06T08:08:43.415000+00:00</time>
      </trkpt>
      <trkpt lat="0" lon="0">
        <time>2020-12-06T08:08:43.429000+00:00</time>
      </trkpt>
      <trkpt lat="0" lon="0">
        <time>2020-12-06T08:08:43.436000+00:00</time>
      </trkpt>
      <trkpt lat="0" lon="0">
        <time>2020-12-06T08:08:43.437000+00:00</time>
      </trkpt>
      <trkpt lat="47.29176" lon="-1.37665">
        <ele>3</ele>
        <time>2020-12-06T08:08:44.409000+00:00</time>
      </trkpt>
      <trkpt lat="0" lon="0">
        <time>2020-12-06T08:08:44.419000+00:00</time>
      </trkpt>
      <trkpt lat="0" lon="0">
        <time>2020-12-06T08:08:44.423000+00:00</time>
      </trkpt>
      <trkpt lat="0" lon="0">
        <time>2020-12-06T08:08:44.425000+00:00</time>
      </trkpt>
      <trkpt lat="47.29179" lon="-1.37656">
        <ele>3</ele>
        <time>2020-12-06T08:08:45.452000+00:00</time>
      </trkpt>
      <trkpt lat="0" lon="0">
        <time>2020-12-06T08:08:45.466000+00:00</time>
      </trkpt>
      <trkpt lat="0" lon="0">
        <time>2020-12-06T08:08:45.470000+00:00</time>
      </trkpt>
      <trkpt lat="0" lon="0">
        <time>2020-12-06T08:08:45.474000+00:00</time>
      </trkpt>
      <trkpt lat="47.29183" lon="-1.37647">
        <ele>3</ele>
        <time>2020-12-06T08:08:46.422000+00:00</time>
      </trkpt>
      <trkpt lat="0" lon="0">
        <time>2020-12-06T08:08:46.433000+00:00</time>
      </trkpt>
      <trkpt lat="0" lon="0">
        <time>2020-12-06T08:08:46.439000+00:00</time>
      </trkpt>
      <trkpt lat="0" lon="0">
        <time>2020-12-06T08:08:46.444000+00:00</time>
      </trkpt>
      <trkpt lat="47.29187" lon="-1.37638">
        <ele>3</ele>
        <time>2020-12-06T08:08:47.409000+00:00</time>
      </trkpt>
      <trkpt lat="0" lon="0">
        <time>2020-12-06T08:08:47.426000+00:00</time>
      </trkpt>
      <trkpt lat="0" lon="0">
        <time>2020-12-06T08:08:47.434000+00:00</time>
      </trkpt>
      <trkpt lat="0" lon="0">
        <time>2020-12-06T08:08:47.436000+00:00</time>
      </trkpt>
      <trkpt lat="47.2919" lon="-1.3763">
        <ele>3</ele>
        <time>2020-12-06T08:08:48.396000+00:00</time>
      </trkpt>
      <trkpt lat="0" lon="0">
        <time>2020-12-06T08:08:48.409000+00:00</time>
      </trkpt>
      <trkpt lat="0" lon="0">
        <time>2020-12-06T08:08:48.410000+00:00</time>
      </trkpt>
      <trkpt lat="0" lon="0">
        <time>2020-12-06T08:08:48.411000+00:00</time>
      </trkpt>
      <trkpt lat="47.29194" lon="-1.37621">
        <ele>3</ele>
        <time>2020-12-06T08:08:49.408000+00:00</time>
      </trkpt>
      <trkpt lat="0" lon="0">
        <time>2020-12-06T08:08:49.412000+00:00</time>
      </trkpt>
      <trkpt lat="0" lon="0">
        <time>2020-12-06T08:08:49.433000+00:00</time>
      </trkpt>
      <trkpt lat="0" lon="0">
        <time>2020-12-06T08:08:49.435000+00:00</time>
      </trkpt>
      <trkpt lat="47.29197" lon="-1.37612">
        <ele>3</ele>
        <time>2020-12-06T08:08:50.436000+00:00</time>
      </trkpt>
      <trkpt lat="0" lon="0">
        <time>2020-12-06T08:08:50.452000+00:00</time>
      </trkpt>
      <trkpt lat="0" lon="0">
        <time>2020-12-06T08:08:50.455000+00:00</time>
      </trkpt>
      <trkpt lat="0" lon="0">
        <time>2020-12-06T08:08:50.458000+00:00</time>
      </trkpt>
      <trkpt lat="47.29201" lon="-1.37604">
        <ele>3</ele>
        <time>2020-12-06T08:08:51.419000+00:00</time>
      </trkpt>
      <trkpt lat="0" lon="0">
        <time>2020-12-06T08:08:51.433000+00:00</time>
      </trkpt>
      <trkpt lat="0" lon="0">
        <time>2020-12-06T08:08:51.437000+00:00</time>
      </trkpt>
      <trkpt lat="0" lon="0">
        <time>2020-12-06T08:08:51.439000+00:00</time>
      </trkpt>
      <trkpt lat="47.29204" lon="-1.37595">
        <ele>3</ele>
        <time>2020-12-06T08:08:52.429000+00:00</time>
      </trkpt>
      <trkpt lat="0" lon="0">
        <time>2020-12-06T08:08:52.441000+00:00</time>
      </trkpt>
      <trkpt lat="0" lon="0">
        <time>2020-12-06T08:08:52.450000+00:00</time>
      </trkpt>
      <trkpt lat="0" lon="0">
        <time>2020-12-06T08:08:52.452000+00:00</time>
      </trkpt>
      <trkpt lat="47.29207" lon="-1.37587">
        <ele>3</ele>
        <time>2020-12-06T08:08:53.404000+00:00</time>
      </trkpt>
      <trkpt lat="0" lon="0">
        <time>2020-12-06T08:08:53.410000+00:00</time>
      </trkpt>
      <trkpt lat="0" lon="0">
        <time>2020-12-06T08:08:53.414000+00:00</time>
      </trkpt>
      <trkpt lat="0" lon="0">
        <time>2020-12-06T08:08:53.417000+00:00</time>
      </trkpt>
      <trkpt lat="47.29211" lon="-1.37578">
        <ele>4</ele>
        <time>2020-12-06T08:08:54.420000+00:00</time>
      </trkpt>
      <trkpt lat="0" lon="0">
        <time>2020-12-06T08:08:54.425000+00:00</time>
      </trkpt>
      <trkpt lat="0" lon="0">
        <time>2020-12-06T08:08:54.431000+00:00</time>
      </trkpt>
      <trkpt lat="0" lon="0">
        <time>2020-12-06T08:08:54.432000+00:00</time>
      </trkpt>
      <trkpt lat="47.29214" lon="-1.3757">
        <ele>4</ele>
        <time>2020-12-06T08:08:55.412000+00:00</time>
      </trkpt>
      <trkpt lat="0" lon="0">
        <time>2020-12-06T08:08:55.420000+00:00</time>
      </trkpt>
      <trkpt lat="0" lon="0">
        <time>2020-12-06T08:08:55.425000+00:00</time>
      </trkpt>
      <trkpt lat="0" lon="0">
        <time>2020-12-06T08:08:55.427000+00:00</time>
      </trkpt>
      <trkpt lat="47.29217" lon="-1.37561">
        <ele>4</ele>
        <time>2020-12-06T08:08:56.408000+00:00</time>
      </trkpt>
      <trkpt lat="0" lon="0">
        <time>2020-12-06T08:08:56.415000+00:00</time>
      </trkpt>
      <trkpt lat="0" lon="0">
        <time>2020-12-06T08:08:56.421000+00:00</time>
      </trkpt>
      <trkpt lat="0" lon="0">
        <time>2020-12-06T08:08:56.423000+00:00</time>
      </trkpt>
      <trkpt lat="47.2922" lon="-1.37553">
        <ele>4</ele>
        <time>2020-12-06T08:08:57.418000+00:00</time>
      </trkpt>
      <trkpt lat="0" lon="0">
        <time>2020-12-06T08:08:57.429000+00:00</time>
      </trkpt>
      <trkpt lat="0" lon="0">
        <time>2020-12-06T08:08:57.432000+00:00</time>
      </trkpt>
      <trkpt lat="0" lon="0">
        <time>2020-12-06T08:08:57.435000+00:00</time>
      </trkpt>
      <trkpt lat="47.29223" lon="-1.37544">
        <ele>4</ele>
        <time>2020-12-06T08:08:58.418000+00:00</time>
      </trkpt>
      <trkpt lat="0" lon="0">
        <time>2020-12-06T08:08:58.428000+00:00</time>
      </trkpt>
      <trkpt lat="0" lon="0">
        <time>2020-12-06T08:08:58.432000+00:00</time>
      </trkpt>
      <trkpt lat="0" lon="0">
        <time>2020-12-06T08:08:58.433000+00:00</time>
      </trkpt>
      <trkpt lat="47.29226" lon="-1.37536">
        <ele>4</ele>
        <time>2020-12-06T08:08:59.396000+00:00</time>
      </trkpt>
      <trkpt lat="0" lon="0">
        <time>2020-12-06T08:08:59.411000+00:00</time>
      </trkpt>
      <trkpt lat="0" lon="0">
        <time>2020-12-06T08:08:59.414000+00:00</time>
      </trkpt>
      <trkpt lat="0" lon="0">
        <time>2020-12-06T08:08:59.417000+00:00</time>
      </trkpt>
      <trkpt lat="47.29228" lon="-1.37527">
        <ele>3</ele>
        <time>2020-12-06T08:09:00.433000+00:00</time>
      </trkpt>
      <trkpt lat="0" lon="0">
        <time>2020-12-06T08:09:00.435000+00:00</time>
      </trkpt>
      <trkpt lat="0" lon="0">
        <time>2020-12-06T08:09:00.441000+00:00</time>
      </trkpt>
      <trkpt lat="0" lon="0">
        <time>2020-12-06T08:09:00.444000+00:00</time>
      </trkpt>
      <trkpt lat="47.29231" lon="-1.37519">
        <ele>3</ele>
        <time>2020-12-06T08:09:01.407000+00:00</time>
      </trkpt>
      <trkpt lat="0" lon="0">
        <time>2020-12-06T08:09:01.413000+00:00</time>
      </trkpt>
      <trkpt lat="0" lon="0">
        <time>2020-12-06T08:09:01.425000+00:00</time>
      </trkpt>
      <trkpt lat="0" lon="0">
        <time>2020-12-06T08:09:01.427000+00:00</time>
      </trkpt>
      <trkpt lat="47.29234" lon="-1.37511">
        <ele>3</ele>
        <time>2020-12-06T08:09:02.425000+00:00</time>
      </trkpt>
      <trkpt lat="0" lon="0">
        <time>2020-12-06T08:09:02.434000+00:00</time>
      </trkpt>
      <trkpt lat="0" lon="0">
        <time>2020-12-06T08:09:02.437000+00:00</time>
      </trkpt>
      <trkpt lat="0" lon="0">
        <time>2020-12-06T08:09:02.439000+00:00</time>
      </trkpt>
      <trkpt lat="47.29237" lon="-1.37502">
        <ele>3</ele>
        <time>2020-12-06T08:09:03.425000+00:00</time>
      </trkpt>
      <trkpt lat="0" lon="0">
        <time>2020-12-06T08:09:03.437000+00:00</time>
      </trkpt>
      <trkpt lat="0" lon="0">
        <time>2020-12-06T08:09:03.441000+00:00</time>
      </trkpt>
      <trkpt lat="0" lon="0">
        <time>2020-12-06T08:09:03.446000+00:00</time>
      </trkpt>
      <trkpt lat="47.29239" lon="-1.37493">
        <ele>3</ele>
        <time>2020-12-06T08:09:04.360000+00:00</time>
      </trkpt>
      <trkpt lat="0" lon="0">
        <time>2020-12-06T08:09:04.365000+00:00</time>
      </trkpt>
      <trkpt lat="0" lon="0">
        <time>2020-12-06T08:09:04.372000+00:00</time>
      </trkpt>
      <trkpt lat="0" lon="0">
        <time>2020-12-06T08:09:04.374000+00:00</time>
      </trkpt>
      <trkpt lat="47.29242" lon="-1.37485">
        <ele>4</ele>
        <time>2020-12-06T08:09:05.413000+00:00</time>
      </trkpt>
      <trkpt lat="0" lon="0">
        <time>2020-12-06T08:09:05.420000+00:00</time>
      </trkpt>
      <trkpt lat="0" lon="0">
        <time>2020-12-06T08:09:05.436000+00:00</time>
      </trkpt>
      <trkpt lat="0" lon="0">
        <time>2020-12-06T08:09:05.440000+00:00</time>
      </trkpt>
      <trkpt lat="47.29245" lon="-1.37477">
        <ele>4</ele>
        <time>2020-12-06T08:09:06.441000+00:00</time>
      </trkpt>
      <trkpt lat="0" lon="0">
        <time>2020-12-06T08:09:06.444000+00:00</time>
      </trkpt>
      <trkpt lat="0" lon="0">
        <time>2020-12-06T08:09:06.445000+00:00</time>
      </trkpt>
      <trkpt lat="0" lon="0">
        <time>2020-12-06T08:09:06.446000+00:00</time>
      </trkpt>
      <trkpt lat="47.29248" lon="-1.37468">
        <ele>4</ele>
        <time>2020-12-06T08:09:07.412000+00:00</time>
      </trkpt>
      <trkpt lat="0" lon="0">
        <time>2020-12-06T08:09:07.428000+00:00</time>
      </trkpt>
      <trkpt lat="0" lon="0">
        <time>2020-12-06T08:09:07.431000+00:00</time>
      </trkpt>
      <trkpt lat="0" lon="0">
        <time>2020-12-06T08:09:07.434000+00:00</time>
      </trkpt>
      <trkpt lat="47.29251" lon="-1.3746">
        <ele>4</ele>
        <time>2020-12-06T08:09:08.416000+00:00</time>
      </trkpt>
      <trkpt lat="0" lon="0">
        <time>2020-12-06T08:09:08.419000+00:00</time>
      </trkpt>
      <trkpt lat="0" lon="0">
        <time>2020-12-06T08:09:08.426000+00:00</time>
      </trkpt>
      <trkpt lat="0" lon="0">
        <time>2020-12-06T08:09:08.428000+00:00</time>
      </trkpt>
      <trkpt lat="47.29254" lon="-1.37452">
        <ele>4</ele>
        <time>2020-12-06T08:09:09.468000+00:00</time>
      </trkpt>
      <trkpt lat="0" lon="0">
        <time>2020-12-06T08:09:09.476000+00:00</time>
      </trkpt>
      <trkpt lat="0" lon="0">
        <time>2020-12-06T08:09:09.481000+00:00</time>
      </trkpt>
      <trkpt lat="0" lon="0">
        <time>2020-12-06T08:09:09.486000+00:00</time>
      </trkpt>
      <trkpt lat="47.29257" lon="-1.37443">
        <ele>4</ele>
        <time>2020-12-06T08:09:10.445000+00:00</time>
      </trkpt>
      <trkpt lat="0" lon="0">
        <time>2020-12-06T08:09:10.456000+00:00</time>
      </trkpt>
      <trkpt lat="0" lon="0">
        <time>2020-12-06T08:09:10.468000+00:00</time>
      </trkpt>
      <trkpt lat="0" lon="0">
        <time>2020-12-06T08:09:10.476000+00:00</time>
      </trkpt>
      <trkpt lat="47.29261" lon="-1.37435">
        <ele>4</ele>
        <time>2020-12-06T08:09:11.414000+00:00</time>
      </trkpt>
      <trkpt lat="0" lon="0">
        <time>2020-12-06T08:09:11.425000+00:00</time>
      </trkpt>
      <trkpt lat="0" lon="0">
        <time>2020-12-06T08:09:11.427000+00:00</time>
      </trkpt>
      <trkpt lat="0" lon="0">
        <time>2020-12-06T08:09:11.431000+00:00</time>
      </trkpt>
      <trkpt lat="47.29264" lon="-1.37426">
        <ele>5</ele>
        <time>2020-12-06T08:09:12.434000+00:00</time>
      </trkpt>
      <trkpt lat="0" lon="0">
        <time>2020-12-06T08:09:12.451000+00:00</time>
      </trkpt>
      <trkpt lat="0" lon="0">
        <time>2020-12-06T08:09:12.453000+00:00</time>
      </trkpt>
      <trkpt lat="0" lon="0">
        <time>2020-12-06T08:09:12.455000+00:00</time>
      </trkpt>
      <trkpt lat="47.29268" lon="-1.37418">
        <ele>5</ele>
        <time>2020-12-06T08:09:13.415000+00:00</time>
      </trkpt>
      <trkpt lat="0" lon="0">
        <time>2020-12-06T08:09:13.432000+00:00</time>
      </trkpt>
      <trkpt lat="0" lon="0">
        <time>2020-12-06T08:09:13.437000+00:00</time>
      </trkpt>
      <trkpt lat="0" lon="0">
        <time>2020-12-06T08:09:13.439000+00:00</time>
      </trkpt>
      <trkpt lat="47.29271" lon="-1.3741">
        <ele>5</ele>
        <time>2020-12-06T08:09:14.412000+00:00</time>
      </trkpt>
      <trkpt lat="0" lon="0">
        <time>2020-12-06T08:09:14.418000+00:00</time>
      </trkpt>
      <trkpt lat="0" lon="0">
        <time>2020-12-06T08:09:14.425000+00:00</time>
      </trkpt>
      <trkpt lat="0" lon="0">
        <time>2020-12-06T08:09:14.426000+00:00</time>
      </trkpt>
      <trkpt lat="47.29275" lon="-1.37402">
        <ele>5</ele>
        <time>2020-12-06T08:09:15.400000+00:00</time>
      </trkpt>
      <trkpt lat="0" lon="0">
        <time>2020-12-06T08:09:15.408000+00:00</time>
      </trkpt>
      <trkpt lat="0" lon="0">
        <time>2020-12-06T08:09:15.421000+00:00</time>
      </trkpt>
      <trkpt lat="0" lon="0">
        <time>2020-12-06T08:09:15.426000+00:00</time>
      </trkpt>
      <trkpt lat="47.29278" lon="-1.37394">
        <ele>5</ele>
        <time>2020-12-06T08:09:16.407000+00:00</time>
      </trkpt>
      <trkpt lat="0" lon="0">
        <time>2020-12-06T08:09:16.430000+00:00</time>
      </trkpt>
      <trkpt lat="0" lon="0">
        <time>2020-12-06T08:09:16.435000+00:00</time>
      </trkpt>
      <trkpt lat="0" lon="0">
        <time>2020-12-06T08:09:16.440000+00:00</time>
      </trkpt>
      <trkpt lat="47.29282" lon="-1.37386">
        <ele>5</ele>
        <time>2020-12-06T08:09:17.411000+00:00</time>
      </trkpt>
      <trkpt lat="0" lon="0">
        <time>2020-12-06T08:09:17.426000+00:00</time>
      </trkpt>
      <trkpt lat="0" lon="0">
        <time>2020-12-06T08:09:17.432000+00:00</time>
      </trkpt>
      <trkpt lat="0" lon="0">
        <time>2020-12-06T08:09:17.434000+00:00</time>
      </trkpt>
      <trkpt lat="47.29286" lon="-1.37378">
        <ele>5</ele>
        <time>2020-12-06T08:09:18.404000+00:00</time>
      </trkpt>
      <trkpt lat="0" lon="0">
        <time>2020-12-06T08:09:18.419000+00:00</time>
      </trkpt>
      <trkpt lat="0" lon="0">
        <time>2020-12-06T08:09:18.423000+00:00</time>
      </trkpt>
      <trkpt lat="0" lon="0">
        <time>2020-12-06T08:09:18.426000+00:00</time>
      </trkpt>
      <trkpt lat="47.2929" lon="-1.3737">
        <ele>5</ele>
        <time>2020-12-06T08:09:19.415000+00:00</time>
      </trkpt>
      <trkpt lat="0" lon="0">
        <time>2020-12-06T08:09:19.419000+00:00</time>
      </trkpt>
      <trkpt lat="0" lon="0">
        <time>2020-12-06T08:09:19.423000+00:00</time>
      </trkpt>
      <trkpt lat="0" lon="0">
        <time>2020-12-06T08:09:19.430000+00:00</time>
      </trkpt>
      <trkpt lat="47.29293" lon="-1.37363">
        <ele>5</ele>
        <time>2020-12-06T08:09:20.429000+00:00</time>
      </trkpt>
      <trkpt lat="0" lon="0">
        <time>2020-12-06T08:09:20.439000+00:00</time>
      </trkpt>
      <trkpt lat="0" lon="0">
        <time>2020-12-06T08:09:20.443000+00:00</time>
      </trkpt>
      <trkpt lat="0" lon="0">
        <time>2020-12-06T08:09:20.445000+00:00</time>
      </trkpt>
      <trkpt lat="47.29297" lon="-1.37356">
        <ele>5</ele>
        <time>2020-12-06T08:09:21.433000+00:00</time>
      </trkpt>
      <trkpt lat="0" lon="0">
        <time>2020-12-06T08:09:21.453000+00:00</time>
      </trkpt>
      <trkpt lat="0" lon="0">
        <time>2020-12-06T08:09:21.458000+00:00</time>
      </trkpt>
      <trkpt lat="0" lon="0">
        <time>2020-12-06T08:09:21.462000+00:00</time>
      </trkpt>
      <trkpt lat="47.293" lon="-1.37348">
        <ele>5</ele>
        <time>2020-12-06T08:09:22.403000+00:00</time>
      </trkpt>
      <trkpt lat="0" lon="0">
        <time>2020-12-06T08:09:22.415000+00:00</time>
      </trkpt>
      <trkpt lat="0" lon="0">
        <time>2020-12-06T08:09:22.431000+00:00</time>
      </trkpt>
      <trkpt lat="0" lon="0">
        <time>2020-12-06T08:09:22.435000+00:00</time>
      </trkpt>
      <trkpt lat="47.29304" lon="-1.37341">
        <ele>5</ele>
        <time>2020-12-06T08:09:23.382000+00:00</time>
      </trkpt>
      <trkpt lat="0" lon="0">
        <time>2020-12-06T08:09:23.400000+00:00</time>
      </trkpt>
      <trkpt lat="0" lon="0">
        <time>2020-12-06T08:09:23.404000+00:00</time>
      </trkpt>
      <trkpt lat="0" lon="0">
        <time>2020-12-06T08:09:23.405000+00:00</time>
      </trkpt>
      <trkpt lat="47.29307" lon="-1.37334">
        <ele>5</ele>
        <time>2020-12-06T08:09:24.408000+00:00</time>
      </trkpt>
      <trkpt lat="0" lon="0">
        <time>2020-12-06T08:09:24.424000+00:00</time>
      </trkpt>
      <trkpt lat="0" lon="0">
        <time>2020-12-06T08:09:24.434000+00:00</time>
      </trkpt>
      <trkpt lat="0" lon="0">
        <time>2020-12-06T08:09:24.438000+00:00</time>
      </trkpt>
      <trkpt lat="47.2931" lon="-1.37327">
        <ele>5</ele>
        <time>2020-12-06T08:09:25.394000+00:00</time>
      </trkpt>
      <trkpt lat="0" lon="0">
        <time>2020-12-06T08:09:25.400000+00:00</time>
      </trkpt>
      <trkpt lat="0" lon="0">
        <time>2020-12-06T08:09:25.401000+00:00</time>
      </trkpt>
      <trkpt lat="0" lon="0">
        <time>2020-12-06T08:09:25.403000+00:00</time>
      </trkpt>
      <trkpt lat="47.29314" lon="-1.37319">
        <ele>5</ele>
        <time>2020-12-06T08:09:26.385000+00:00</time>
      </trkpt>
      <trkpt lat="0" lon="0">
        <time>2020-12-06T08:09:26.391000+00:00</time>
      </trkpt>
      <trkpt lat="0" lon="0">
        <time>2020-12-06T08:09:26.397000+00:00</time>
      </trkpt>
      <trkpt lat="0" lon="0">
        <time>2020-12-06T08:09:26.398000+00:00</time>
      </trkpt>
      <trkpt lat="47.29317" lon="-1.37312">
        <ele>5</ele>
        <time>2020-12-06T08:09:27.409000+00:00</time>
      </trkpt>
      <trkpt lat="0" lon="0">
        <time>2020-12-06T08:09:27.413000+00:00</time>
      </trkpt>
      <trkpt lat="0" lon="0">
        <time>2020-12-06T08:09:27.417000+00:00</time>
      </trkpt>
      <trkpt lat="0" lon="0">
        <time>2020-12-06T08:09:27.420000+00:00</time>
      </trkpt>
      <trkpt lat="47.29321" lon="-1.37304">
        <ele>5</ele>
        <time>2020-12-06T08:09:28.441000+00:00</time>
      </trkpt>
      <trkpt lat="0" lon="0">
        <time>2020-12-06T08:09:28.454000+00:00</time>
      </trkpt>
      <trkpt lat="0" lon="0">
        <time>2020-12-06T08:09:28.458000+00:00</time>
      </trkpt>
      <trkpt lat="0" lon="0">
        <time>2020-12-06T08:09:28.465000+00:00</time>
      </trkpt>
      <trkpt lat="47.29324" lon="-1.37297">
        <ele>5</ele>
        <time>2020-12-06T08:09:29.417000+00:00</time>
      </trkpt>
      <trkpt lat="0" lon="0">
        <time>2020-12-06T08:09:29.419000+00:00</time>
      </trkpt>
      <trkpt lat="0" lon="0">
        <time>2020-12-06T08:09:29.421000+00:00</time>
      </trkpt>
      <trkpt lat="0" lon="0">
        <time>2020-12-06T08:09:29.424000+00:00</time>
      </trkpt>
      <trkpt lat="47.29328" lon="-1.37289">
        <ele>5</ele>
        <time>2020-12-06T08:09:30.420000+00:00</time>
      </trkpt>
      <trkpt lat="0" lon="0">
        <time>2020-12-06T08:09:30.422000+00:00</time>
      </trkpt>
      <trkpt lat="0" lon="0">
        <time>2020-12-06T08:09:30.424000+00:00</time>
      </trkpt>
      <trkpt lat="0" lon="0">
        <time>2020-12-06T08:09:30.427000+00:00</time>
      </trkpt>
      <trkpt lat="47.29331" lon="-1.37281">
        <ele>5</ele>
        <time>2020-12-06T08:09:31.434000+00:00</time>
      </trkpt>
      <trkpt lat="0" lon="0">
        <time>2020-12-06T08:09:31.443000+00:00</time>
      </trkpt>
      <trkpt lat="0" lon="0">
        <time>2020-12-06T08:09:31.453000+00:00</time>
      </trkpt>
      <trkpt lat="0" lon="0">
        <time>2020-12-06T08:09:31.456000+00:00</time>
      </trkpt>
      <trkpt lat="47.29334" lon="-1.37272">
        <ele>5</ele>
        <time>2020-12-06T08:09:32.402000+00:00</time>
      </trkpt>
      <trkpt lat="0" lon="0">
        <time>2020-12-06T08:09:32.426000+00:00</time>
      </trkpt>
      <trkpt lat="0" lon="0">
        <time>2020-12-06T08:09:32.431000+00:00</time>
      </trkpt>
      <trkpt lat="0" lon="0">
        <time>2020-12-06T08:09:32.433000+00:00</time>
      </trkpt>
      <trkpt lat="47.29337" lon="-1.37264">
        <ele>5</ele>
        <time>2020-12-06T08:09:33.407000+00:00</time>
      </trkpt>
      <trkpt lat="0" lon="0">
        <time>2020-12-06T08:09:33.415000+00:00</time>
      </trkpt>
      <trkpt lat="0" lon="0">
        <time>2020-12-06T08:09:33.425000+00:00</time>
      </trkpt>
      <trkpt lat="0" lon="0">
        <time>2020-12-06T08:09:33.427000+00:00</time>
      </trkpt>
      <trkpt lat="47.2934" lon="-1.37255">
        <ele>5</ele>
        <time>2020-12-06T08:09:34.410000+00:00</time>
      </trkpt>
      <trkpt lat="0" lon="0">
        <time>2020-12-06T08:09:34.426000+00:00</time>
      </trkpt>
      <trkpt lat="0" lon="0">
        <time>2020-12-06T08:09:34.435000+00:00</time>
      </trkpt>
      <trkpt lat="0" lon="0">
        <time>2020-12-06T08:09:34.438000+00:00</time>
      </trkpt>
      <trkpt lat="47.29342" lon="-1.37246">
        <ele>5</ele>
        <time>2020-12-06T08:09:35.420000+00:00</time>
      </trkpt>
      <trkpt lat="0" lon="0">
        <time>2020-12-06T08:09:35.427000+00:00</time>
      </trkpt>
      <trkpt lat="0" lon="0">
        <time>2020-12-06T08:09:35.429000+00:00</time>
      </trkpt>
      <trkpt lat="0" lon="0">
        <time>2020-12-06T08:09:35.430000+00:00</time>
      </trkpt>
      <trkpt lat="47.29344" lon="-1.37237">
        <ele>5</ele>
        <time>2020-12-06T08:09:36.427000+00:00</time>
      </trkpt>
      <trkpt lat="0" lon="0">
        <time>2020-12-06T08:09:36.431000+00:00</time>
      </trkpt>
      <trkpt lat="0" lon="0">
        <time>2020-12-06T08:09:36.445000+00:00</time>
      </trkpt>
      <trkpt lat="0" lon="0">
        <time>2020-12-06T08:09:36.447000+00:00</time>
      </trkpt>
      <trkpt lat="47.29347" lon="-1.37228">
        <ele>5</ele>
        <time>2020-12-06T08:09:37.436000+00:00</time>
      </trkpt>
      <trkpt lat="0" lon="0">
        <time>2020-12-06T08:09:37.447000+00:00</time>
      </trkpt>
      <trkpt lat="0" lon="0">
        <time>2020-12-06T08:09:37.458000+00:00</time>
      </trkpt>
      <trkpt lat="0" lon="0">
        <time>2020-12-06T08:09:37.461000+00:00</time>
      </trkpt>
      <trkpt lat="47.2935" lon="-1.3722">
        <ele>5</ele>
        <time>2020-12-06T08:09:38.452000+00:00</time>
      </trkpt>
      <trkpt lat="0" lon="0">
        <time>2020-12-06T08:09:38.470000+00:00</time>
      </trkpt>
      <trkpt lat="0" lon="0">
        <time>2020-12-06T08:09:38.479000+00:00</time>
      </trkpt>
      <trkpt lat="0" lon="0">
        <time>2020-12-06T08:09:38.485000+00:00</time>
      </trkpt>
      <trkpt lat="47.29353" lon="-1.37211">
        <ele>5</ele>
        <time>2020-12-06T08:09:39.410000+00:00</time>
      </trkpt>
      <trkpt lat="0" lon="0">
        <time>2020-12-06T08:09:39.432000+00:00</time>
      </trkpt>
      <trkpt lat="0" lon="0">
        <time>2020-12-06T08:09:39.437000+00:00</time>
      </trkpt>
      <trkpt lat="0" lon="0">
        <time>2020-12-06T08:09:39.439000+00:00</time>
      </trkpt>
      <trkpt lat="47.29356" lon="-1.37203">
        <ele>5</ele>
        <time>2020-12-06T08:09:40.366000+00:00</time>
      </trkpt>
      <trkpt lat="0" lon="0">
        <time>2020-12-06T08:09:40.375000+00:00</time>
      </trkpt>
      <trkpt lat="0" lon="0">
        <time>2020-12-06T08:09:40.381000+00:00</time>
      </trkpt>
      <trkpt lat="0" lon="0">
        <time>2020-12-06T08:09:40.383000+00:00</time>
      </trkpt>
      <trkpt lat="47.2936" lon="-1.37195">
        <ele>5</ele>
        <time>2020-12-06T08:09:41.412000+00:00</time>
      </trkpt>
      <trkpt lat="0" lon="0">
        <time>2020-12-06T08:09:41.418000+00:00</time>
      </trkpt>
      <trkpt lat="0" lon="0">
        <time>2020-12-06T08:09:41.421000+00:00</time>
      </trkpt>
      <trkpt lat="0" lon="0">
        <time>2020-12-06T08:09:41.422000+00:00</time>
      </trkpt>
      <trkpt lat="47.29363" lon="-1.37187">
        <ele>5</ele>
        <time>2020-12-06T08:09:42.424000+00:00</time>
      </trkpt>
      <trkpt lat="0" lon="0">
        <time>2020-12-06T08:09:42.428000+00:00</time>
      </trkpt>
      <trkpt lat="0" lon="0">
        <time>2020-12-06T08:09:42.436000+00:00</time>
      </trkpt>
      <trkpt lat="0" lon="0">
        <time>2020-12-06T08:09:42.441000+00:00</time>
      </trkpt>
      <trkpt lat="47.29367" lon="-1.37179">
        <ele>5</ele>
        <time>2020-12-06T08:09:43.416000+00:00</time>
      </trkpt>
      <trkpt lat="0" lon="0">
        <time>2020-12-06T08:09:43.426000+00:00</time>
      </trkpt>
      <trkpt lat="0" lon="0">
        <time>2020-12-06T08:09:43.430000+00:00</time>
      </trkpt>
      <trkpt lat="0" lon="0">
        <time>2020-12-06T08:09:43.432000+00:00</time>
      </trkpt>
      <trkpt lat="47.29371" lon="-1.37172">
        <ele>5</ele>
        <time>2020-12-06T08:09:44.387000+00:00</time>
      </trkpt>
      <trkpt lat="0" lon="0">
        <time>2020-12-06T08:09:44.391000+00:00</time>
      </trkpt>
      <trkpt lat="0" lon="0">
        <time>2020-12-06T08:09:44.403000+00:00</time>
      </trkpt>
      <trkpt lat="0" lon="0">
        <time>2020-12-06T08:09:44.405000+00:00</time>
      </trkpt>
      <trkpt lat="47.29375" lon="-1.37165">
        <ele>5</ele>
        <time>2020-12-06T08:09:45.420000+00:00</time>
      </trkpt>
      <trkpt lat="0" lon="0">
        <time>2020-12-06T08:09:45.423000+00:00</time>
      </trkpt>
      <trkpt lat="0" lon="0">
        <time>2020-12-06T08:09:45.433000+00:00</time>
      </trkpt>
      <trkpt lat="0" lon="0">
        <time>2020-12-06T08:09:45.437000+00:00</time>
      </trkpt>
      <trkpt lat="47.2938" lon="-1.37158">
        <ele>5</ele>
        <time>2020-12-06T08:09:46.368000+00:00</time>
      </trkpt>
      <trkpt lat="0" lon="0">
        <time>2020-12-06T08:09:46.372000+00:00</time>
      </trkpt>
      <trkpt lat="0" lon="0">
        <time>2020-12-06T08:09:46.374000+00:00</time>
      </trkpt>
      <trkpt lat="0" lon="0">
        <time>2020-12-06T08:09:46.375000+00:00</time>
      </trkpt>
      <trkpt lat="47.29384" lon="-1.37151">
        <ele>5</ele>
        <time>2020-12-06T08:09:47.381000+00:00</time>
      </trkpt>
      <trkpt lat="0" lon="0">
        <time>2020-12-06T08:09:47.384000+00:00</time>
      </trkpt>
      <trkpt lat="0" lon="0">
        <time>2020-12-06T08:09:47.386000+00:00</time>
      </trkpt>
      <trkpt lat="0" lon="0">
        <time>2020-12-06T08:09:47.388000+00:00</time>
      </trkpt>
      <trkpt lat="47.29389" lon="-1.37144">
        <ele>5</ele>
        <time>2020-12-06T08:09:48.386000+00:00</time>
      </trkpt>
      <trkpt lat="0" lon="0">
        <time>2020-12-06T08:09:48.398000+00:00</time>
      </trkpt>
      <trkpt lat="0" lon="0">
        <time>2020-12-06T08:09:48.401000+00:00</time>
      </trkpt>
      <trkpt lat="0" lon="0">
        <time>2020-12-06T08:09:48.402000+00:00</time>
      </trkpt>
      <trkpt lat="47.29394" lon="-1.37137">
        <ele>5</ele>
        <time>2020-12-06T08:09:49.406000+00:00</time>
      </trkpt>
      <trkpt lat="0" lon="0">
        <time>2020-12-06T08:09:49.416000+00:00</time>
      </trkpt>
      <trkpt lat="0" lon="0">
        <time>2020-12-06T08:09:49.421000+00:00</time>
      </trkpt>
      <trkpt lat="0" lon="0">
        <time>2020-12-06T08:09:49.431000+00:00</time>
      </trkpt>
      <trkpt lat="47.29398" lon="-1.3713">
        <ele>5</ele>
        <time>2020-12-06T08:09:50.415000+00:00</time>
      </trkpt>
      <trkpt lat="0" lon="0">
        <time>2020-12-06T08:09:50.422000+00:00</time>
      </trkpt>
      <trkpt lat="0" lon="0">
        <time>2020-12-06T08:09:50.429000+00:00</time>
      </trkpt>
      <trkpt lat="0" lon="0">
        <time>2020-12-06T08:09:50.431000+00:00</time>
      </trkpt>
      <trkpt lat="47.29403" lon="-1.37123">
        <ele>5</ele>
        <time>2020-12-06T08:09:51.414000+00:00</time>
      </trkpt>
      <trkpt lat="0" lon="0">
        <time>2020-12-06T08:09:51.418000+00:00</time>
      </trkpt>
      <trkpt lat="0" lon="0">
        <time>2020-12-06T08:09:51.427000+00:00</time>
      </trkpt>
      <trkpt lat="0" lon="0">
        <time>2020-12-06T08:09:51.429000+00:00</time>
      </trkpt>
      <trkpt lat="47.29408" lon="-1.37116">
        <ele>5</ele>
        <time>2020-12-06T08:09:52.407000+00:00</time>
      </trkpt>
      <trkpt lat="0" lon="0">
        <time>2020-12-06T08:09:52.410000+00:00</time>
      </trkpt>
      <trkpt lat="0" lon="0">
        <time>2020-12-06T08:09:52.415000+00:00</time>
      </trkpt>
      <trkpt lat="0" lon="0">
        <time>2020-12-06T08:09:52.417000+00:00</time>
      </trkpt>
      <trkpt lat="47.29412" lon="-1.37109">
        <ele>5</ele>
        <time>2020-12-06T08:09:53.385000+00:00</time>
      </trkpt>
      <trkpt lat="0" lon="0">
        <time>2020-12-06T08:09:53.387000+00:00</time>
      </trkpt>
      <trkpt lat="0" lon="0">
        <time>2020-12-06T08:09:53.401000+00:00</time>
      </trkpt>
      <trkpt lat="0" lon="0">
        <time>2020-12-06T08:09:53.402000+00:00</time>
      </trkpt>
      <trkpt lat="47.29417" lon="-1.37101">
        <ele>5</ele>
        <time>2020-12-06T08:09:54.412000+00:00</time>
      </trkpt>
      <trkpt lat="0" lon="0">
        <time>2020-12-06T08:09:54.422000+00:00</time>
      </trkpt>
      <trkpt lat="0" lon="0">
        <time>2020-12-06T08:09:54.429000+00:00</time>
      </trkpt>
      <trkpt lat="0" lon="0">
        <time>2020-12-06T08:09:54.431000+00:00</time>
      </trkpt>
      <trkpt lat="47.29421" lon="-1.37093">
        <ele>4</ele>
        <time>2020-12-06T08:09:55.415000+00:00</time>
      </trkpt>
      <trkpt lat="0" lon="0">
        <time>2020-12-06T08:09:55.421000+00:00</time>
      </trkpt>
      <trkpt lat="0" lon="0">
        <time>2020-12-06T08:09:55.437000+00:00</time>
      </trkpt>
      <trkpt lat="0" lon="0">
        <time>2020-12-06T08:09:55.441000+00:00</time>
      </trkpt>
      <trkpt lat="47.29425" lon="-1.37086">
        <ele>4</ele>
        <time>2020-12-06T08:09:56.417000+00:00</time>
      </trkpt>
      <trkpt lat="0" lon="0">
        <time>2020-12-06T08:09:56.424000+00:00</time>
      </trkpt>
      <trkpt lat="0" lon="0">
        <time>2020-12-06T08:09:56.428000+00:00</time>
      </trkpt>
      <trkpt lat="0" lon="0">
        <time>2020-12-06T08:09:56.429000+00:00</time>
      </trkpt>
      <trkpt lat="47.29429" lon="-1.37078">
        <ele>4</ele>
        <time>2020-12-06T08:09:57.341000+00:00</time>
      </trkpt>
      <trkpt lat="0" lon="0">
        <time>2020-12-06T08:09:57.358000+00:00</time>
      </trkpt>
      <trkpt lat="0" lon="0">
        <time>2020-12-06T08:09:57.364000+00:00</time>
      </trkpt>
      <trkpt lat="0" lon="0">
        <time>2020-12-06T08:09:57.366000+00:00</time>
      </trkpt>
      <trkpt lat="47.29433" lon="-1.3707">
        <ele>4</ele>
        <time>2020-12-06T08:09:58.423000+00:00</time>
      </trkpt>
      <trkpt lat="0" lon="0">
        <time>2020-12-06T08:09:58.427000+00:00</time>
      </trkpt>
      <trkpt lat="0" lon="0">
        <time>2020-12-06T08:09:58.432000+00:00</time>
      </trkpt>
      <trkpt lat="0" lon="0">
        <time>2020-12-06T08:09:58.434000+00:00</time>
      </trkpt>
      <trkpt lat="47.29437" lon="-1.37062">
        <ele>4</ele>
        <time>2020-12-06T08:09:59.377000+00:00</time>
      </trkpt>
      <trkpt lat="0" lon="0">
        <time>2020-12-06T08:09:59.385000+00:00</time>
      </trkpt>
      <trkpt lat="0" lon="0">
        <time>2020-12-06T08:09:59.387000+00:00</time>
      </trkpt>
      <trkpt lat="0" lon="0">
        <time>2020-12-06T08:09:59.388000+00:00</time>
      </trkpt>
      <trkpt lat="47.29441" lon="-1.37054">
        <ele>4</ele>
        <time>2020-12-06T08:10:00.400000+00:00</time>
      </trkpt>
      <trkpt lat="0" lon="0">
        <time>2020-12-06T08:10:00.418000+00:00</time>
      </trkpt>
      <trkpt lat="0" lon="0">
        <time>2020-12-06T08:10:00.427000+00:00</time>
      </trkpt>
      <trkpt lat="0" lon="0">
        <time>2020-12-06T08:10:00.432000+00:00</time>
      </trkpt>
      <trkpt lat="47.29445" lon="-1.37046">
        <ele>4</ele>
        <time>2020-12-06T08:10:01.416000+00:00</time>
      </trkpt>
      <trkpt lat="0" lon="0">
        <time>2020-12-06T08:10:01.435000+00:00</time>
      </trkpt>
      <trkpt lat="0" lon="0">
        <time>2020-12-06T08:10:01.439000+00:00</time>
      </trkpt>
      <trkpt lat="0" lon="0">
        <time>2020-12-06T08:10:01.444000+00:00</time>
      </trkpt>
      <trkpt lat="47.29449" lon="-1.37038">
        <ele>4</ele>
        <time>2020-12-06T08:10:02.411000+00:00</time>
      </trkpt>
      <trkpt lat="0" lon="0">
        <time>2020-12-06T08:10:02.417000+00:00</time>
      </trkpt>
      <trkpt lat="0" lon="0">
        <time>2020-12-06T08:10:02.428000+00:00</time>
      </trkpt>
      <trkpt lat="0" lon="0">
        <time>2020-12-06T08:10:02.431000+00:00</time>
      </trkpt>
      <trkpt lat="47.29453" lon="-1.37029">
        <ele>4</ele>
        <time>2020-12-06T08:10:03.380000+00:00</time>
      </trkpt>
      <trkpt lat="0" lon="0">
        <time>2020-12-06T08:10:03.388000+00:00</time>
      </trkpt>
      <trkpt lat="0" lon="0">
        <time>2020-12-06T08:10:03.397000+00:00</time>
      </trkpt>
      <trkpt lat="0" lon="0">
        <time>2020-12-06T08:10:03.403000+00:00</time>
      </trkpt>
      <trkpt lat="47.29456" lon="-1.3702">
        <ele>4</ele>
        <time>2020-12-06T08:10:04.422000+00:00</time>
      </trkpt>
      <trkpt lat="0" lon="0">
        <time>2020-12-06T08:10:04.438000+00:00</time>
      </trkpt>
      <trkpt lat="0" lon="0">
        <time>2020-12-06T08:10:04.442000+00:00</time>
      </trkpt>
      <trkpt lat="0" lon="0">
        <time>2020-12-06T08:10:04.449000+00:00</time>
      </trkpt>
      <trkpt lat="47.29459" lon="-1.37011">
        <ele>4</ele>
        <time>2020-12-06T08:10:05.366000+00:00</time>
      </trkpt>
      <trkpt lat="0" lon="0">
        <time>2020-12-06T08:10:05.368000+00:00</time>
      </trkpt>
      <trkpt lat="0" lon="0">
        <time>2020-12-06T08:10:05.369000+00:00</time>
      </trkpt>
      <trkpt lat="0" lon="0">
        <time>2020-12-06T08:10:05.370000+00:00</time>
      </trkpt>
      <trkpt lat="47.29462" lon="-1.37002">
        <ele>4</ele>
        <time>2020-12-06T08:10:06.342000+00:00</time>
      </trkpt>
      <trkpt lat="0" lon="0">
        <time>2020-12-06T08:10:06.349000+00:00</time>
      </trkpt>
      <trkpt lat="0" lon="0">
        <time>2020-12-06T08:10:06.357000+00:00</time>
      </trkpt>
      <trkpt lat="0" lon="0">
        <time>2020-12-06T08:10:06.366000+00:00</time>
      </trkpt>
      <trkpt lat="47.29465" lon="-1.36993">
        <ele>4</ele>
        <time>2020-12-06T08:10:07.401000+00:00</time>
      </trkpt>
      <trkpt lat="0" lon="0">
        <time>2020-12-06T08:10:07.409000+00:00</time>
      </trkpt>
      <trkpt lat="0" lon="0">
        <time>2020-12-06T08:10:07.414000+00:00</time>
      </trkpt>
      <trkpt lat="0" lon="0">
        <time>2020-12-06T08:10:07.416000+00:00</time>
      </trkpt>
      <trkpt lat="47.29468" lon="-1.36983">
        <ele>4</ele>
        <time>2020-12-06T08:10:08.407000+00:00</time>
      </trkpt>
      <trkpt lat="0" lon="0">
        <time>2020-12-06T08:10:08.413000+00:00</time>
      </trkpt>
      <trkpt lat="0" lon="0">
        <time>2020-12-06T08:10:08.419000+00:00</time>
      </trkpt>
      <trkpt lat="0" lon="0">
        <time>2020-12-06T08:10:08.422000+00:00</time>
      </trkpt>
      <trkpt lat="47.2947" lon="-1.36974">
        <ele>4</ele>
        <time>2020-12-06T08:10:09.420000+00:00</time>
      </trkpt>
      <trkpt lat="0" lon="0">
        <time>2020-12-06T08:10:09.435000+00:00</time>
      </trkpt>
      <trkpt lat="0" lon="0">
        <time>2020-12-06T08:10:09.450000+00:00</time>
      </trkpt>
      <trkpt lat="0" lon="0">
        <time>2020-12-06T08:10:09.452000+00:00</time>
      </trkpt>
      <trkpt lat="47.29473" lon="-1.36964">
        <ele>4</ele>
        <time>2020-12-06T08:10:10.413000+00:00</time>
      </trkpt>
      <trkpt lat="0" lon="0">
        <time>2020-12-06T08:10:10.426000+00:00</time>
      </trkpt>
      <trkpt lat="0" lon="0">
        <time>2020-12-06T08:10:10.436000+00:00</time>
      </trkpt>
      <trkpt lat="0" lon="0">
        <time>2020-12-06T08:10:10.438000+00:00</time>
      </trkpt>
      <trkpt lat="47.29475" lon="-1.36954">
        <ele>4</ele>
        <time>2020-12-06T08:10:11.438000+00:00</time>
      </trkpt>
      <trkpt lat="0" lon="0">
        <time>2020-12-06T08:10:11.442000+00:00</time>
      </trkpt>
      <trkpt lat="0" lon="0">
        <time>2020-12-06T08:10:11.445000+00:00</time>
      </trkpt>
      <trkpt lat="0" lon="0">
        <time>2020-12-06T08:10:11.447000+00:00</time>
      </trkpt>
      <trkpt lat="47.29478" lon="-1.36945">
        <ele>4</ele>
        <time>2020-12-06T08:10:12.444000+00:00</time>
      </trkpt>
      <trkpt lat="0" lon="0">
        <time>2020-12-06T08:10:12.456000+00:00</time>
      </trkpt>
      <trkpt lat="0" lon="0">
        <time>2020-12-06T08:10:12.460000+00:00</time>
      </trkpt>
      <trkpt lat="0" lon="0">
        <time>2020-12-06T08:10:12.462000+00:00</time>
      </trkpt>
      <trkpt lat="47.29481" lon="-1.36936">
        <ele>4</ele>
        <time>2020-12-06T08:10:13.433000+00:00</time>
      </trkpt>
      <trkpt lat="0" lon="0">
        <time>2020-12-06T08:10:13.444000+00:00</time>
      </trkpt>
      <trkpt lat="0" lon="0">
        <time>2020-12-06T08:10:13.450000+00:00</time>
      </trkpt>
      <trkpt lat="0" lon="0">
        <time>2020-12-06T08:10:13.453000+00:00</time>
      </trkpt>
      <trkpt lat="47.29483" lon="-1.36926">
        <ele>4</ele>
        <time>2020-12-06T08:10:14.403000+00:00</time>
      </trkpt>
      <trkpt lat="0" lon="0">
        <time>2020-12-06T08:10:14.409000+00:00</time>
      </trkpt>
      <trkpt lat="0" lon="0">
        <time>2020-12-06T08:10:14.412000+00:00</time>
      </trkpt>
      <trkpt lat="0" lon="0">
        <time>2020-12-06T08:10:14.414000+00:00</time>
      </trkpt>
      <trkpt lat="47.29486" lon="-1.36917">
        <ele>4</ele>
        <time>2020-12-06T08:10:15.437000+00:00</time>
      </trkpt>
      <trkpt lat="0" lon="0">
        <time>2020-12-06T08:10:15.441000+00:00</time>
      </trkpt>
      <trkpt lat="0" lon="0">
        <time>2020-12-06T08:10:15.443000+00:00</time>
      </trkpt>
      <trkpt lat="47.29491" lon="-1.369">
        <ele>5</ele>
        <time>2020-12-06T08:10:17.389000+00:00</time>
      </trkpt>
      <trkpt lat="0" lon="0">
        <time>2020-12-06T08:10:17.398000+00:00</time>
      </trkpt>
      <trkpt lat="0" lon="0">
        <time>2020-12-06T08:10:17.406000+00:00</time>
      </trkpt>
      <trkpt lat="0" lon="0">
        <time>2020-12-06T08:10:17.412000+00:00</time>
      </trkpt>
      <trkpt lat="47.29494" lon="-1.36891">
        <ele>5</ele>
        <time>2020-12-06T08:10:18.446000+00:00</time>
      </trkpt>
      <trkpt lat="0" lon="0">
        <time>2020-12-06T08:10:18.459000+00:00</time>
      </trkpt>
      <trkpt lat="0" lon="0">
        <time>2020-12-06T08:10:18.463000+00:00</time>
      </trkpt>
      <trkpt lat="0" lon="0">
        <time>2020-12-06T08:10:18.464000+00:00</time>
      </trkpt>
      <trkpt lat="47.29497" lon="-1.36883">
        <ele>5</ele>
        <time>2020-12-06T08:10:19.422000+00:00</time>
      </trkpt>
      <trkpt lat="0" lon="0">
        <time>2020-12-06T08:10:19.446000+00:00</time>
      </trkpt>
      <trkpt lat="0" lon="0">
        <time>2020-12-06T08:10:19.451000+00:00</time>
      </trkpt>
      <trkpt lat="0" lon="0">
        <time>2020-12-06T08:10:19.457000+00:00</time>
      </trkpt>
      <trkpt lat="47.29499" lon="-1.36875">
        <ele>6</ele>
        <time>2020-12-06T08:10:20.411000+00:00</time>
      </trkpt>
      <trkpt lat="0" lon="0">
        <time>2020-12-06T08:10:20.428000+00:00</time>
      </trkpt>
      <trkpt lat="0" lon="0">
        <time>2020-12-06T08:10:20.433000+00:00</time>
      </trkpt>
      <trkpt lat="0" lon="0">
        <time>2020-12-06T08:10:20.439000+00:00</time>
      </trkpt>
      <trkpt lat="47.29502" lon="-1.36867">
        <ele>6</ele>
        <time>2020-12-06T08:10:21.393000+00:00</time>
      </trkpt>
      <trkpt lat="0" lon="0">
        <time>2020-12-06T08:10:21.398000+00:00</time>
      </trkpt>
      <trkpt lat="0" lon="0">
        <time>2020-12-06T08:10:21.402000+00:00</time>
      </trkpt>
      <trkpt lat="0" lon="0">
        <time>2020-12-06T08:10:21.409000+00:00</time>
      </trkpt>
      <trkpt lat="47.29505" lon="-1.36858">
        <ele>6</ele>
        <time>2020-12-06T08:10:22.457000+00:00</time>
      </trkpt>
      <trkpt lat="0" lon="0">
        <time>2020-12-06T08:10:22.471000+00:00</time>
      </trkpt>
      <trkpt lat="0" lon="0">
        <time>2020-12-06T08:10:22.477000+00:00</time>
      </trkpt>
      <trkpt lat="0" lon="0">
        <time>2020-12-06T08:10:22.480000+00:00</time>
      </trkpt>
      <trkpt lat="47.29509" lon="-1.3685">
        <ele>6</ele>
        <time>2020-12-06T08:10:23.426000+00:00</time>
      </trkpt>
      <trkpt lat="0" lon="0">
        <time>2020-12-06T08:10:23.438000+00:00</time>
      </trkpt>
      <trkpt lat="0" lon="0">
        <time>2020-12-06T08:10:23.448000+00:00</time>
      </trkpt>
      <trkpt lat="0" lon="0">
        <time>2020-12-06T08:10:23.450000+00:00</time>
      </trkpt>
      <trkpt lat="47.29512" lon="-1.36842">
        <ele>6</ele>
        <time>2020-12-06T08:10:24.406000+00:00</time>
      </trkpt>
      <trkpt lat="0" lon="0">
        <time>2020-12-06T08:10:24.420000+00:00</time>
      </trkpt>
      <trkpt lat="0" lon="0">
        <time>2020-12-06T08:10:24.428000+00:00</time>
      </trkpt>
      <trkpt lat="0" lon="0">
        <time>2020-12-06T08:10:24.431000+00:00</time>
      </trkpt>
      <trkpt lat="47.29516" lon="-1.36833">
        <ele>6</ele>
        <time>2020-12-06T08:10:25.418000+00:00</time>
      </trkpt>
      <trkpt lat="0" lon="0">
        <time>2020-12-06T08:10:25.429000+00:00</time>
      </trkpt>
      <trkpt lat="0" lon="0">
        <time>2020-12-06T08:10:25.433000+00:00</time>
      </trkpt>
      <trkpt lat="0" lon="0">
        <time>2020-12-06T08:10:25.437000+00:00</time>
      </trkpt>
      <trkpt lat="47.2952" lon="-1.36825">
        <ele>6</ele>
        <time>2020-12-06T08:10:26.430000+00:00</time>
      </trkpt>
      <trkpt lat="0" lon="0">
        <time>2020-12-06T08:10:26.433000+00:00</time>
      </trkpt>
      <trkpt lat="0" lon="0">
        <time>2020-12-06T08:10:26.437000+00:00</time>
      </trkpt>
      <trkpt lat="0" lon="0">
        <time>2020-12-06T08:10:26.441000+00:00</time>
      </trkpt>
      <trkpt lat="47.29523" lon="-1.36817">
        <ele>6</ele>
        <time>2020-12-06T08:10:27.439000+00:00</time>
      </trkpt>
      <trkpt lat="0" lon="0">
        <time>2020-12-06T08:10:27.451000+00:00</time>
      </trkpt>
      <trkpt lat="0" lon="0">
        <time>2020-12-06T08:10:27.456000+00:00</time>
      </trkpt>
      <trkpt lat="0" lon="0">
        <time>2020-12-06T08:10:27.462000+00:00</time>
      </trkpt>
      <trkpt lat="47.29527" lon="-1.36809">
        <ele>5</ele>
        <time>2020-12-06T08:10:28.468000+00:00</time>
      </trkpt>
      <trkpt lat="0" lon="0">
        <time>2020-12-06T08:10:28.474000+00:00</time>
      </trkpt>
      <trkpt lat="0" lon="0">
        <time>2020-12-06T08:10:28.484000+00:00</time>
      </trkpt>
      <trkpt lat="0" lon="0">
        <time>2020-12-06T08:10:28.486000+00:00</time>
      </trkpt>
      <trkpt lat="47.2953" lon="-1.368">
        <ele>5</ele>
        <time>2020-12-06T08:10:29.389000+00:00</time>
      </trkpt>
      <trkpt lat="0" lon="0">
        <time>2020-12-06T08:10:29.398000+00:00</time>
      </trkpt>
      <trkpt lat="0" lon="0">
        <time>2020-12-06T08:10:29.402000+00:00</time>
      </trkpt>
      <trkpt lat="0" lon="0">
        <time>2020-12-06T08:10:29.407000+00:00</time>
      </trkpt>
      <trkpt lat="47.29534" lon="-1.36792">
        <ele>5</ele>
        <time>2020-12-06T08:10:30.453000+00:00</time>
      </trkpt>
      <trkpt lat="0" lon="0">
        <time>2020-12-06T08:10:30.459000+00:00</time>
      </trkpt>
      <trkpt lat="0" lon="0">
        <time>2020-12-06T08:10:30.470000+00:00</time>
      </trkpt>
      <trkpt lat="0" lon="0">
        <time>2020-12-06T08:10:30.473000+00:00</time>
      </trkpt>
      <trkpt lat="47.29537" lon="-1.36784">
        <ele>5</ele>
        <time>2020-12-06T08:10:31.395000+00:00</time>
      </trkpt>
      <trkpt lat="0" lon="0">
        <time>2020-12-06T08:10:31.398000+00:00</time>
      </trkpt>
      <trkpt lat="0" lon="0">
        <time>2020-12-06T08:10:31.403000+00:00</time>
      </trkpt>
      <trkpt lat="0" lon="0">
        <time>2020-12-06T08:10:31.406000+00:00</time>
      </trkpt>
      <trkpt lat="47.29541" lon="-1.36776">
        <ele>5</ele>
        <time>2020-12-06T08:10:32.449000+00:00</time>
      </trkpt>
      <trkpt lat="0" lon="0">
        <time>2020-12-06T08:10:32.460000+00:00</time>
      </trkpt>
      <trkpt lat="0" lon="0">
        <time>2020-12-06T08:10:32.462000+00:00</time>
      </trkpt>
      <trkpt lat="0" lon="0">
        <time>2020-12-06T08:10:32.463000+00:00</time>
      </trkpt>
      <trkpt lat="47.29544" lon="-1.36768">
        <ele>5</ele>
        <time>2020-12-06T08:10:33.425000+00:00</time>
      </trkpt>
      <trkpt lat="0" lon="0">
        <time>2020-12-06T08:10:33.441000+00:00</time>
      </trkpt>
      <trkpt lat="0" lon="0">
        <time>2020-12-06T08:10:33.445000+00:00</time>
      </trkpt>
      <trkpt lat="0" lon="0">
        <time>2020-12-06T08:10:33.448000+00:00</time>
      </trkpt>
      <trkpt lat="47.29548" lon="-1.3676">
        <ele>5</ele>
        <time>2020-12-06T08:10:34.436000+00:00</time>
      </trkpt>
      <trkpt lat="0" lon="0">
        <time>2020-12-06T08:10:34.447000+00:00</time>
      </trkpt>
      <trkpt lat="0" lon="0">
        <time>2020-12-06T08:10:34.448000+00:00</time>
      </trkpt>
      <trkpt lat="0" lon="0">
        <time>2020-12-06T08:10:34.449000+00:00</time>
      </trkpt>
      <trkpt lat="47.29551" lon="-1.36752">
        <ele>5</ele>
        <time>2020-12-06T08:10:35.411000+00:00</time>
      </trkpt>
      <trkpt lat="0" lon="0">
        <time>2020-12-06T08:10:35.422000+00:00</time>
      </trkpt>
      <trkpt lat="0" lon="0">
        <time>2020-12-06T08:10:35.427000+00:00</time>
      </trkpt>
      <trkpt lat="0" lon="0">
        <time>2020-12-06T08:10:35.429000+00:00</time>
      </trkpt>
      <trkpt lat="47.29555" lon="-1.36744">
        <ele>5</ele>
        <time>2020-12-06T08:10:36.424000+00:00</time>
      </trkpt>
      <trkpt lat="0" lon="0">
        <time>2020-12-06T08:10:36.447000+00:00</time>
      </trkpt>
      <trkpt lat="0" lon="0">
        <time>2020-12-06T08:10:36.452000+00:00</time>
      </trkpt>
      <trkpt lat="0" lon="0">
        <time>2020-12-06T08:10:36.456000+00:00</time>
      </trkpt>
      <trkpt lat="47.29558" lon="-1.36736">
        <ele>5</ele>
        <time>2020-12-06T08:10:37.449000+00:00</time>
      </trkpt>
      <trkpt lat="0" lon="0">
        <time>2020-12-06T08:10:37.461000+00:00</time>
      </trkpt>
      <trkpt lat="0" lon="0">
        <time>2020-12-06T08:10:37.465000+00:00</time>
      </trkpt>
      <trkpt lat="0" lon="0">
        <time>2020-12-06T08:10:37.468000+00:00</time>
      </trkpt>
      <trkpt lat="47.29562" lon="-1.36728">
        <ele>5</ele>
        <time>2020-12-06T08:10:38.441000+00:00</time>
      </trkpt>
      <trkpt lat="0" lon="0">
        <time>2020-12-06T08:10:38.447000+00:00</time>
      </trkpt>
      <trkpt lat="0" lon="0">
        <time>2020-12-06T08:10:38.453000+00:00</time>
      </trkpt>
      <trkpt lat="0" lon="0">
        <time>2020-12-06T08:10:38.456000+00:00</time>
      </trkpt>
      <trkpt lat="47.29565" lon="-1.36719">
        <ele>5</ele>
        <time>2020-12-06T08:10:39.425000+00:00</time>
      </trkpt>
      <trkpt lat="0" lon="0">
        <time>2020-12-06T08:10:39.431000+00:00</time>
      </trkpt>
      <trkpt lat="0" lon="0">
        <time>2020-12-06T08:10:39.435000+00:00</time>
      </trkpt>
      <trkpt lat="0" lon="0">
        <time>2020-12-06T08:10:39.444000+00:00</time>
      </trkpt>
      <trkpt lat="47.29569" lon="-1.36711">
        <ele>5</ele>
        <time>2020-12-06T08:10:40.433000+00:00</time>
      </trkpt>
      <trkpt lat="0" lon="0">
        <time>2020-12-06T08:10:40.446000+00:00</time>
      </trkpt>
      <trkpt lat="0" lon="0">
        <time>2020-12-06T08:10:40.452000+00:00</time>
      </trkpt>
      <trkpt lat="0" lon="0">
        <time>2020-12-06T08:10:40.459000+00:00</time>
      </trkpt>
      <trkpt lat="47.29572" lon="-1.36703">
        <ele>5</ele>
        <time>2020-12-06T08:10:41.428000+00:00</time>
      </trkpt>
      <trkpt lat="0" lon="0">
        <time>2020-12-06T08:10:41.432000+00:00</time>
      </trkpt>
      <trkpt lat="0" lon="0">
        <time>2020-12-06T08:10:41.440000+00:00</time>
      </trkpt>
      <trkpt lat="0" lon="0">
        <time>2020-12-06T08:10:41.444000+00:00</time>
      </trkpt>
      <trkpt lat="47.29575" lon="-1.36695">
        <ele>5</ele>
        <time>2020-12-06T08:10:42.437000+00:00</time>
      </trkpt>
      <trkpt lat="0" lon="0">
        <time>2020-12-06T08:10:42.460000+00:00</time>
      </trkpt>
      <trkpt lat="0" lon="0">
        <time>2020-12-06T08:10:42.465000+00:00</time>
      </trkpt>
      <trkpt lat="0" lon="0">
        <time>2020-12-06T08:10:42.468000+00:00</time>
      </trkpt>
      <trkpt lat="47.29578" lon="-1.36686">
        <ele>5</ele>
        <time>2020-12-06T08:10:43.421000+00:00</time>
      </trkpt>
      <trkpt lat="0" lon="0">
        <time>2020-12-06T08:10:43.429000+00:00</time>
      </trkpt>
      <trkpt lat="0" lon="0">
        <time>2020-12-06T08:10:43.446000+00:00</time>
      </trkpt>
      <trkpt lat="0" lon="0">
        <time>2020-12-06T08:10:43.448000+00:00</time>
      </trkpt>
      <trkpt lat="47.29581" lon="-1.36678">
        <ele>5</ele>
        <time>2020-12-06T08:10:44.413000+00:00</time>
      </trkpt>
      <trkpt lat="0" lon="0">
        <time>2020-12-06T08:10:44.414000+00:00</time>
      </trkpt>
      <trkpt lat="0" lon="0">
        <time>2020-12-06T08:10:44.416000+00:00</time>
      </trkpt>
      <trkpt lat="0" lon="0">
        <time>2020-12-06T08:10:44.417000+00:00</time>
      </trkpt>
      <trkpt lat="47.29584" lon="-1.36669">
        <ele>4</ele>
        <time>2020-12-06T08:10:45.442000+00:00</time>
      </trkpt>
      <trkpt lat="0" lon="0">
        <time>2020-12-06T08:10:45.451000+00:00</time>
      </trkpt>
      <trkpt lat="0" lon="0">
        <time>2020-12-06T08:10:45.455000+00:00</time>
      </trkpt>
      <trkpt lat="0" lon="0">
        <time>2020-12-06T08:10:45.457000+00:00</time>
      </trkpt>
      <trkpt lat="47.29587" lon="-1.3666">
        <ele>4</ele>
        <time>2020-12-06T08:10:46.367000+00:00</time>
      </trkpt>
      <trkpt lat="0" lon="0">
        <time>2020-12-06T08:10:46.373000+00:00</time>
      </trkpt>
      <trkpt lat="0" lon="0">
        <time>2020-12-06T08:10:46.381000+00:00</time>
      </trkpt>
      <trkpt lat="0" lon="0">
        <time>2020-12-06T08:10:46.384000+00:00</time>
      </trkpt>
      <trkpt lat="47.29589" lon="-1.36651">
        <ele>4</ele>
        <time>2020-12-06T08:10:47.429000+00:00</time>
      </trkpt>
      <trkpt lat="0" lon="0">
        <time>2020-12-06T08:10:47.446000+00:00</time>
      </trkpt>
      <trkpt lat="0" lon="0">
        <time>2020-12-06T08:10:47.450000+00:00</time>
      </trkpt>
      <trkpt lat="0" lon="0">
        <time>2020-12-06T08:10:47.452000+00:00</time>
      </trkpt>
      <trkpt lat="47.29592" lon="-1.36642">
        <ele>4</ele>
        <time>2020-12-06T08:10:48.417000+00:00</time>
      </trkpt>
      <trkpt lat="0" lon="0">
        <time>2020-12-06T08:10:48.429000+00:00</time>
      </trkpt>
      <trkpt lat="0" lon="0">
        <time>2020-12-06T08:10:48.433000+00:00</time>
      </trkpt>
      <trkpt lat="0" lon="0">
        <time>2020-12-06T08:10:48.439000+00:00</time>
      </trkpt>
      <trkpt lat="47.29594" lon="-1.36633">
        <ele>4</ele>
        <time>2020-12-06T08:10:49.429000+00:00</time>
      </trkpt>
      <trkpt lat="0" lon="0">
        <time>2020-12-06T08:10:49.438000+00:00</time>
      </trkpt>
      <trkpt lat="0" lon="0">
        <time>2020-12-06T08:10:49.441000+00:00</time>
      </trkpt>
      <trkpt lat="0" lon="0">
        <time>2020-12-06T08:10:49.443000+00:00</time>
      </trkpt>
      <trkpt lat="47.29596" lon="-1.36624">
        <ele>4</ele>
        <time>2020-12-06T08:10:50.397000+00:00</time>
      </trkpt>
      <trkpt lat="0" lon="0">
        <time>2020-12-06T08:10:50.407000+00:00</time>
      </trkpt>
      <trkpt lat="0" lon="0">
        <time>2020-12-06T08:10:50.411000+00:00</time>
      </trkpt>
      <trkpt lat="0" lon="0">
        <time>2020-12-06T08:10:50.413000+00:00</time>
      </trkpt>
      <trkpt lat="47.29599" lon="-1.36615">
        <ele>4</ele>
        <time>2020-12-06T08:10:51.433000+00:00</time>
      </trkpt>
      <trkpt lat="0" lon="0">
        <time>2020-12-06T08:10:51.447000+00:00</time>
      </trkpt>
      <trkpt lat="0" lon="0">
        <time>2020-12-06T08:10:51.451000+00:00</time>
      </trkpt>
      <trkpt lat="47.29601" lon="-1.36606">
        <ele>4</ele>
        <time>2020-12-06T08:10:52.427000+00:00</time>
      </trkpt>
      <trkpt lat="0" lon="0">
        <time>2020-12-06T08:10:52.439000+00:00</time>
      </trkpt>
      <trkpt lat="0" lon="0">
        <time>2020-12-06T08:10:52.448000+00:00</time>
      </trkpt>
      <trkpt lat="0" lon="0">
        <time>2020-12-06T08:10:52.452000+00:00</time>
      </trkpt>
      <trkpt lat="47.29604" lon="-1.36597">
        <ele>4</ele>
        <time>2020-12-06T08:10:53.435000+00:00</time>
      </trkpt>
      <trkpt lat="0" lon="0">
        <time>2020-12-06T08:10:53.452000+00:00</time>
      </trkpt>
      <trkpt lat="0" lon="0">
        <time>2020-12-06T08:10:53.460000+00:00</time>
      </trkpt>
      <trkpt lat="0" lon="0">
        <time>2020-12-06T08:10:53.462000+00:00</time>
      </trkpt>
      <trkpt lat="47.29606" lon="-1.36588">
        <ele>4</ele>
        <time>2020-12-06T08:10:54.414000+00:00</time>
      </trkpt>
      <trkpt lat="0" lon="0">
        <time>2020-12-06T08:10:54.426000+00:00</time>
      </trkpt>
      <trkpt lat="0" lon="0">
        <time>2020-12-06T08:10:54.429000+00:00</time>
      </trkpt>
      <trkpt lat="0" lon="0">
        <time>2020-12-06T08:10:54.432000+00:00</time>
      </trkpt>
      <trkpt lat="47.29608" lon="-1.36578">
        <ele>5</ele>
        <time>2020-12-06T08:10:55.396000+00:00</time>
      </trkpt>
      <trkpt lat="0" lon="0">
        <time>2020-12-06T08:10:55.405000+00:00</time>
      </trkpt>
      <trkpt lat="0" lon="0">
        <time>2020-12-06T08:10:55.412000+00:00</time>
      </trkpt>
      <trkpt lat="0" lon="0">
        <time>2020-12-06T08:10:55.414000+00:00</time>
      </trkpt>
      <trkpt lat="47.29611" lon="-1.36569">
        <ele>5</ele>
        <time>2020-12-06T08:10:56.406000+00:00</time>
      </trkpt>
      <trkpt lat="0" lon="0">
        <time>2020-12-06T08:10:56.410000+00:00</time>
      </trkpt>
      <trkpt lat="0" lon="0">
        <time>2020-12-06T08:10:56.422000+00:00</time>
      </trkpt>
      <trkpt lat="0" lon="0">
        <time>2020-12-06T08:10:56.428000+00:00</time>
      </trkpt>
      <trkpt lat="47.29613" lon="-1.3656">
        <ele>5</ele>
        <time>2020-12-06T08:10:57.402000+00:00</time>
      </trkpt>
      <trkpt lat="0" lon="0">
        <time>2020-12-06T08:10:57.420000+00:00</time>
      </trkpt>
      <trkpt lat="0" lon="0">
        <time>2020-12-06T08:10:57.432000+00:00</time>
      </trkpt>
      <trkpt lat="0" lon="0">
        <time>2020-12-06T08:10:57.437000+00:00</time>
      </trkpt>
      <trkpt lat="47.29616" lon="-1.36551">
        <ele>5</ele>
        <time>2020-12-06T08:10:58.412000+00:00</time>
      </trkpt>
      <trkpt lat="0" lon="0">
        <time>2020-12-06T08:10:58.429000+00:00</time>
      </trkpt>
      <trkpt lat="0" lon="0">
        <time>2020-12-06T08:10:58.434000+00:00</time>
      </trkpt>
      <trkpt lat="0" lon="0">
        <time>2020-12-06T08:10:58.436000+00:00</time>
      </trkpt>
      <trkpt lat="47.29618" lon="-1.36542">
        <ele>5</ele>
        <time>2020-12-06T08:10:59.434000+00:00</time>
      </trkpt>
      <trkpt lat="0" lon="0">
        <time>2020-12-06T08:10:59.453000+00:00</time>
      </trkpt>
      <trkpt lat="0" lon="0">
        <time>2020-12-06T08:10:59.456000+00:00</time>
      </trkpt>
      <trkpt lat="0" lon="0">
        <time>2020-12-06T08:10:59.458000+00:00</time>
      </trkpt>
      <trkpt lat="47.29621" lon="-1.36532">
        <ele>5</ele>
        <time>2020-12-06T08:11:00.418000+00:00</time>
      </trkpt>
      <trkpt lat="0" lon="0">
        <time>2020-12-06T08:11:00.421000+00:00</time>
      </trkpt>
      <trkpt lat="0" lon="0">
        <time>2020-12-06T08:11:00.431000+00:00</time>
      </trkpt>
      <trkpt lat="0" lon="0">
        <time>2020-12-06T08:11:00.438000+00:00</time>
      </trkpt>
      <trkpt lat="47.29623" lon="-1.36523">
        <ele>5</ele>
        <time>2020-12-06T08:11:01.434000+00:00</time>
      </trkpt>
      <trkpt lat="0" lon="0">
        <time>2020-12-06T08:11:01.444000+00:00</time>
      </trkpt>
      <trkpt lat="0" lon="0">
        <time>2020-12-06T08:11:01.447000+00:00</time>
      </trkpt>
      <trkpt lat="0" lon="0">
        <time>2020-12-06T08:11:01.448000+00:00</time>
      </trkpt>
      <trkpt lat="47.29626" lon="-1.36514">
        <ele>5</ele>
        <time>2020-12-06T08:11:02.456000+00:00</time>
      </trkpt>
      <trkpt lat="0" lon="0">
        <time>2020-12-06T08:11:02.459000+00:00</time>
      </trkpt>
      <trkpt lat="0" lon="0">
        <time>2020-12-06T08:11:02.463000+00:00</time>
      </trkpt>
      <trkpt lat="0" lon="0">
        <time>2020-12-06T08:11:02.465000+00:00</time>
      </trkpt>
      <trkpt lat="47.29629" lon="-1.36506">
        <ele>5</ele>
        <time>2020-12-06T08:11:03.433000+00:00</time>
      </trkpt>
      <trkpt lat="0" lon="0">
        <time>2020-12-06T08:11:03.453000+00:00</time>
      </trkpt>
      <trkpt lat="0" lon="0">
        <time>2020-12-06T08:11:03.460000+00:00</time>
      </trkpt>
      <trkpt lat="0" lon="0">
        <time>2020-12-06T08:11:03.461000+00:00</time>
      </trkpt>
      <trkpt lat="47.29631" lon="-1.36497">
        <ele>5</ele>
        <time>2020-12-06T08:11:04.397000+00:00</time>
      </trkpt>
      <trkpt lat="0" lon="0">
        <time>2020-12-06T08:11:04.401000+00:00</time>
      </trkpt>
      <trkpt lat="0" lon="0">
        <time>2020-12-06T08:11:04.410000+00:00</time>
      </trkpt>
      <trkpt lat="0" lon="0">
        <time>2020-12-06T08:11:04.412000+00:00</time>
      </trkpt>
      <trkpt lat="47.29634" lon="-1.36488">
        <ele>5</ele>
        <time>2020-12-06T08:11:05.455000+00:00</time>
      </trkpt>
      <trkpt lat="0" lon="0">
        <time>2020-12-06T08:11:05.470000+00:00</time>
      </trkpt>
      <trkpt lat="0" lon="0">
        <time>2020-12-06T08:11:05.476000+00:00</time>
      </trkpt>
      <trkpt lat="0" lon="0">
        <time>2020-12-06T08:11:05.479000+00:00</time>
      </trkpt>
      <trkpt lat="47.29637" lon="-1.3648">
        <ele>5</ele>
        <time>2020-12-06T08:11:06.434000+00:00</time>
      </trkpt>
      <trkpt lat="0" lon="0">
        <time>2020-12-06T08:11:06.445000+00:00</time>
      </trkpt>
      <trkpt lat="0" lon="0">
        <time>2020-12-06T08:11:06.451000+00:00</time>
      </trkpt>
      <trkpt lat="0" lon="0">
        <time>2020-12-06T08:11:06.453000+00:00</time>
      </trkpt>
      <trkpt lat="47.29641" lon="-1.36471">
        <ele>5</ele>
        <time>2020-12-06T08:11:07.439000+00:00</time>
      </trkpt>
      <trkpt lat="0" lon="0">
        <time>2020-12-06T08:11:07.444000+00:00</time>
      </trkpt>
      <trkpt lat="0" lon="0">
        <time>2020-12-06T08:11:07.447000+00:00</time>
      </trkpt>
      <trkpt lat="0" lon="0">
        <time>2020-12-06T08:11:07.448000+00:00</time>
      </trkpt>
      <trkpt lat="47.29644" lon="-1.36463">
        <ele>5</ele>
        <time>2020-12-06T08:11:08.428000+00:00</time>
      </trkpt>
      <trkpt lat="0" lon="0">
        <time>2020-12-06T08:11:08.433000+00:00</time>
      </trkpt>
      <trkpt lat="0" lon="0">
        <time>2020-12-06T08:11:08.447000+00:00</time>
      </trkpt>
      <trkpt lat="0" lon="0">
        <time>2020-12-06T08:11:08.450000+00:00</time>
      </trkpt>
      <trkpt lat="47.29648" lon="-1.36455">
        <ele>5</ele>
        <time>2020-12-06T08:11:09.430000+00:00</time>
      </trkpt>
      <trkpt lat="0" lon="0">
        <time>2020-12-06T08:11:09.442000+00:00</time>
      </trkpt>
      <trkpt lat="0" lon="0">
        <time>2020-12-06T08:11:09.445000+00:00</time>
      </trkpt>
      <trkpt lat="0" lon="0">
        <time>2020-12-06T08:11:09.447000+00:00</time>
      </trkpt>
      <trkpt lat="47.29652" lon="-1.36447">
        <ele>5</ele>
        <time>2020-12-06T08:11:10.425000+00:00</time>
      </trkpt>
      <trkpt lat="0" lon="0">
        <time>2020-12-06T08:11:10.430000+00:00</time>
      </trkpt>
      <trkpt lat="0" lon="0">
        <time>2020-12-06T08:11:10.436000+00:00</time>
      </trkpt>
      <trkpt lat="0" lon="0">
        <time>2020-12-06T08:11:10.438000+00:00</time>
      </trkpt>
      <trkpt lat="47.29656" lon="-1.3644">
        <ele>5</ele>
        <time>2020-12-06T08:11:11.412000+00:00</time>
      </trkpt>
      <trkpt lat="0" lon="0">
        <time>2020-12-06T08:11:11.416000+00:00</time>
      </trkpt>
      <trkpt lat="0" lon="0">
        <time>2020-12-06T08:11:11.419000+00:00</time>
      </trkpt>
      <trkpt lat="0" lon="0">
        <time>2020-12-06T08:11:11.420000+00:00</time>
      </trkpt>
      <trkpt lat="47.2966" lon="-1.36432">
        <ele>5</ele>
        <time>2020-12-06T08:11:12.409000+00:00</time>
      </trkpt>
      <trkpt lat="0" lon="0">
        <time>2020-12-06T08:11:12.421000+00:00</time>
      </trkpt>
      <trkpt lat="0" lon="0">
        <time>2020-12-06T08:11:12.430000+00:00</time>
      </trkpt>
      <trkpt lat="0" lon="0">
        <time>2020-12-06T08:11:12.435000+00:00</time>
      </trkpt>
      <trkpt lat="47.29665" lon="-1.36425">
        <ele>5</ele>
        <time>2020-12-06T08:11:13.450000+00:00</time>
      </trkpt>
      <trkpt lat="0" lon="0">
        <time>2020-12-06T08:11:13.456000+00:00</time>
      </trkpt>
      <trkpt lat="0" lon="0">
        <time>2020-12-06T08:11:13.475000+00:00</time>
      </trkpt>
      <trkpt lat="0" lon="0">
        <time>2020-12-06T08:11:13.477000+00:00</time>
      </trkpt>
      <trkpt lat="47.29669" lon="-1.36417">
        <ele>6</ele>
        <time>2020-12-06T08:11:14.422000+00:00</time>
      </trkpt>
      <trkpt lat="0" lon="0">
        <time>2020-12-06T08:11:14.431000+00:00</time>
      </trkpt>
      <trkpt lat="0" lon="0">
        <time>2020-12-06T08:11:14.440000+00:00</time>
      </trkpt>
      <trkpt lat="0" lon="0">
        <time>2020-12-06T08:11:14.445000+00:00</time>
      </trkpt>
      <trkpt lat="47.29673" lon="-1.3641">
        <ele>5</ele>
        <time>2020-12-06T08:11:15.473000+00:00</time>
      </trkpt>
      <trkpt lat="0" lon="0">
        <time>2020-12-06T08:11:15.482000+00:00</time>
      </trkpt>
      <trkpt lat="0" lon="0">
        <time>2020-12-06T08:11:15.492000+00:00</time>
      </trkpt>
      <trkpt lat="0" lon="0">
        <time>2020-12-06T08:11:15.493000+00:00</time>
      </trkpt>
      <trkpt lat="47.29677" lon="-1.36403">
        <ele>5</ele>
        <time>2020-12-06T08:11:16.456000+00:00</time>
      </trkpt>
      <trkpt lat="0" lon="0">
        <time>2020-12-06T08:11:16.459000+00:00</time>
      </trkpt>
      <trkpt lat="0" lon="0">
        <time>2020-12-06T08:11:16.467000+00:00</time>
      </trkpt>
      <trkpt lat="0" lon="0">
        <time>2020-12-06T08:11:16.471000+00:00</time>
      </trkpt>
      <trkpt lat="47.29681" lon="-1.36395">
        <ele>5</ele>
        <time>2020-12-06T08:11:17.427000+00:00</time>
      </trkpt>
      <trkpt lat="0" lon="0">
        <time>2020-12-06T08:11:17.441000+00:00</time>
      </trkpt>
      <trkpt lat="0" lon="0">
        <time>2020-12-06T08:11:17.452000+00:00</time>
      </trkpt>
      <trkpt lat="0" lon="0">
        <time>2020-12-06T08:11:17.458000+00:00</time>
      </trkpt>
      <trkpt lat="47.29685" lon="-1.36388">
        <ele>5</ele>
        <time>2020-12-06T08:11:18.407000+00:00</time>
      </trkpt>
      <trkpt lat="0" lon="0">
        <time>2020-12-06T08:11:18.422000+00:00</time>
      </trkpt>
      <trkpt lat="0" lon="0">
        <time>2020-12-06T08:11:18.432000+00:00</time>
      </trkpt>
      <trkpt lat="0" lon="0">
        <time>2020-12-06T08:11:18.435000+00:00</time>
      </trkpt>
      <trkpt lat="47.2969" lon="-1.36381">
        <ele>5</ele>
        <time>2020-12-06T08:11:19.362000+00:00</time>
      </trkpt>
      <trkpt lat="0" lon="0">
        <time>2020-12-06T08:11:19.370000+00:00</time>
      </trkpt>
      <trkpt lat="0" lon="0">
        <time>2020-12-06T08:11:19.371000+00:00</time>
      </trkpt>
      <trkpt lat="47.29694" lon="-1.36373">
        <ele>5</ele>
        <time>2020-12-06T08:11:20.433000+00:00</time>
      </trkpt>
      <trkpt lat="0" lon="0">
        <time>2020-12-06T08:11:20.438000+00:00</time>
      </trkpt>
      <trkpt lat="0" lon="0">
        <time>2020-12-06T08:11:20.445000+00:00</time>
      </trkpt>
      <trkpt lat="0" lon="0">
        <time>2020-12-06T08:11:20.447000+00:00</time>
      </trkpt>
      <trkpt lat="47.29698" lon="-1.36366">
        <ele>5</ele>
        <time>2020-12-06T08:11:21.398000+00:00</time>
      </trkpt>
      <trkpt lat="0" lon="0">
        <time>2020-12-06T08:11:21.408000+00:00</time>
      </trkpt>
      <trkpt lat="0" lon="0">
        <time>2020-12-06T08:11:21.415000+00:00</time>
      </trkpt>
      <trkpt lat="0" lon="0">
        <time>2020-12-06T08:11:21.419000+00:00</time>
      </trkpt>
      <trkpt lat="47.29703" lon="-1.36359">
        <ele>5</ele>
        <time>2020-12-06T08:11:22.427000+00:00</time>
      </trkpt>
      <trkpt lat="0" lon="0">
        <time>2020-12-06T08:11:22.436000+00:00</time>
      </trkpt>
      <trkpt lat="0" lon="0">
        <time>2020-12-06T08:11:22.447000+00:00</time>
      </trkpt>
      <trkpt lat="0" lon="0">
        <time>2020-12-06T08:11:22.452000+00:00</time>
      </trkpt>
      <trkpt lat="47.29707" lon="-1.36352">
        <ele>5</ele>
        <time>2020-12-06T08:11:23.428000+00:00</time>
      </trkpt>
      <trkpt lat="0" lon="0">
        <time>2020-12-06T08:11:23.436000+00:00</time>
      </trkpt>
      <trkpt lat="0" lon="0">
        <time>2020-12-06T08:11:23.442000+00:00</time>
      </trkpt>
      <trkpt lat="0" lon="0">
        <time>2020-12-06T08:11:23.444000+00:00</time>
      </trkpt>
      <trkpt lat="47.29711" lon="-1.36345">
        <ele>5</ele>
        <time>2020-12-06T08:11:24.447000+00:00</time>
      </trkpt>
      <trkpt lat="0" lon="0">
        <time>2020-12-06T08:11:24.454000+00:00</time>
      </trkpt>
      <trkpt lat="0" lon="0">
        <time>2020-12-06T08:11:24.456000+00:00</time>
      </trkpt>
      <trkpt lat="47.29716" lon="-1.36338">
        <ele>5</ele>
        <time>2020-12-06T08:11:25.427000+00:00</time>
      </trkpt>
      <trkpt lat="0" lon="0">
        <time>2020-12-06T08:11:25.438000+00:00</time>
      </trkpt>
      <trkpt lat="0" lon="0">
        <time>2020-12-06T08:11:25.453000+00:00</time>
      </trkpt>
      <trkpt lat="0" lon="0">
        <time>2020-12-06T08:11:25.458000+00:00</time>
      </trkpt>
      <trkpt lat="47.2972" lon="-1.3633">
        <ele>5</ele>
        <time>2020-12-06T08:11:26.420000+00:00</time>
      </trkpt>
      <trkpt lat="0" lon="0">
        <time>2020-12-06T08:11:26.431000+00:00</time>
      </trkpt>
      <trkpt lat="0" lon="0">
        <time>2020-12-06T08:11:26.433000+00:00</time>
      </trkpt>
      <trkpt lat="0" lon="0">
        <time>2020-12-06T08:11:26.434000+00:00</time>
      </trkpt>
      <trkpt lat="47.29724" lon="-1.36323">
        <ele>5</ele>
        <time>2020-12-06T08:11:27.417000+00:00</time>
      </trkpt>
      <trkpt lat="0" lon="0">
        <time>2020-12-06T08:11:27.421000+00:00</time>
      </trkpt>
      <trkpt lat="0" lon="0">
        <time>2020-12-06T08:11:27.428000+00:00</time>
      </trkpt>
      <trkpt lat="0" lon="0">
        <time>2020-12-06T08:11:27.430000+00:00</time>
      </trkpt>
      <trkpt lat="47.29728" lon="-1.36315">
        <ele>6</ele>
        <time>2020-12-06T08:11:28.386000+00:00</time>
      </trkpt>
      <trkpt lat="0" lon="0">
        <time>2020-12-06T08:11:28.399000+00:00</time>
      </trkpt>
      <trkpt lat="0" lon="0">
        <time>2020-12-06T08:11:28.404000+00:00</time>
      </trkpt>
      <trkpt lat="0" lon="0">
        <time>2020-12-06T08:11:28.407000+00:00</time>
      </trkpt>
      <trkpt lat="47.29732" lon="-1.36307">
        <ele>6</ele>
        <time>2020-12-06T08:11:29.416000+00:00</time>
      </trkpt>
      <trkpt lat="0" lon="0">
        <time>2020-12-06T08:11:29.422000+00:00</time>
      </trkpt>
      <trkpt lat="0" lon="0">
        <time>2020-12-06T08:11:29.428000+00:00</time>
      </trkpt>
      <trkpt lat="0" lon="0">
        <time>2020-12-06T08:11:29.430000+00:00</time>
      </trkpt>
      <trkpt lat="47.29736" lon="-1.36299">
        <ele>6</ele>
        <time>2020-12-06T08:11:30.434000+00:00</time>
      </trkpt>
      <trkpt lat="0" lon="0">
        <time>2020-12-06T08:11:30.439000+00:00</time>
      </trkpt>
      <trkpt lat="0" lon="0">
        <time>2020-12-06T08:11:30.450000+00:00</time>
      </trkpt>
      <trkpt lat="0" lon="0">
        <time>2020-12-06T08:11:30.458000+00:00</time>
      </trkpt>
      <trkpt lat="47.2974" lon="-1.36292">
        <ele>6</ele>
        <time>2020-12-06T08:11:31.390000+00:00</time>
      </trkpt>
      <trkpt lat="0" lon="0">
        <time>2020-12-06T08:11:31.392000+00:00</time>
      </trkpt>
      <trkpt lat="0" lon="0">
        <time>2020-12-06T08:11:31.396000+00:00</time>
      </trkpt>
      <trkpt lat="0" lon="0">
        <time>2020-12-06T08:11:31.397000+00:00</time>
      </trkpt>
      <trkpt lat="47.29744" lon="-1.36284">
        <ele>6</ele>
        <time>2020-12-06T08:11:32.400000+00:00</time>
      </trkpt>
      <trkpt lat="0" lon="0">
        <time>2020-12-06T08:11:32.411000+00:00</time>
      </trkpt>
      <trkpt lat="0" lon="0">
        <time>2020-12-06T08:11:32.413000+00:00</time>
      </trkpt>
      <trkpt lat="0" lon="0">
        <time>2020-12-06T08:11:32.414000+00:00</time>
      </trkpt>
      <trkpt lat="47.29748" lon="-1.36276">
        <ele>6</ele>
        <time>2020-12-06T08:11:33.389000+00:00</time>
      </trkpt>
      <trkpt lat="0" lon="0">
        <time>2020-12-06T08:11:33.405000+00:00</time>
      </trkpt>
      <trkpt lat="0" lon="0">
        <time>2020-12-06T08:11:33.411000+00:00</time>
      </trkpt>
      <trkpt lat="0" lon="0">
        <time>2020-12-06T08:11:33.412000+00:00</time>
      </trkpt>
      <trkpt lat="47.29752" lon="-1.36269">
        <ele>6</ele>
        <time>2020-12-06T08:11:34.443000+00:00</time>
      </trkpt>
      <trkpt lat="0" lon="0">
        <time>2020-12-06T08:11:34.452000+00:00</time>
      </trkpt>
      <trkpt lat="0" lon="0">
        <time>2020-12-06T08:11:34.462000+00:00</time>
      </trkpt>
      <trkpt lat="0" lon="0">
        <time>2020-12-06T08:11:34.464000+00:00</time>
      </trkpt>
      <trkpt lat="47.29756" lon="-1.36262">
        <ele>5</ele>
        <time>2020-12-06T08:11:35.444000+00:00</time>
      </trkpt>
      <trkpt lat="0" lon="0">
        <time>2020-12-06T08:11:35.446000+00:00</time>
      </trkpt>
      <trkpt lat="0" lon="0">
        <time>2020-12-06T08:11:35.448000+00:00</time>
      </trkpt>
      <trkpt lat="0" lon="0">
        <time>2020-12-06T08:11:35.450000+00:00</time>
      </trkpt>
      <trkpt lat="47.2976" lon="-1.36254">
        <ele>5</ele>
        <time>2020-12-06T08:11:36.426000+00:00</time>
      </trkpt>
      <trkpt lat="0" lon="0">
        <time>2020-12-06T08:11:36.442000+00:00</time>
      </trkpt>
      <trkpt lat="0" lon="0">
        <time>2020-12-06T08:11:36.446000+00:00</time>
      </trkpt>
      <trkpt lat="0" lon="0">
        <time>2020-12-06T08:11:36.450000+00:00</time>
      </trkpt>
      <trkpt lat="47.29764" lon="-1.36247">
        <ele>5</ele>
        <time>2020-12-06T08:11:37.406000+00:00</time>
      </trkpt>
      <trkpt lat="0" lon="0">
        <time>2020-12-06T08:11:37.421000+00:00</time>
      </trkpt>
      <trkpt lat="0" lon="0">
        <time>2020-12-06T08:11:37.425000+00:00</time>
      </trkpt>
      <trkpt lat="0" lon="0">
        <time>2020-12-06T08:11:37.427000+00:00</time>
      </trkpt>
      <trkpt lat="47.29769" lon="-1.3624">
        <ele>5</ele>
        <time>2020-12-06T08:11:38.401000+00:00</time>
      </trkpt>
      <trkpt lat="0" lon="0">
        <time>2020-12-06T08:11:38.404000+00:00</time>
      </trkpt>
      <trkpt lat="0" lon="0">
        <time>2020-12-06T08:11:38.418000+00:00</time>
      </trkpt>
      <trkpt lat="0" lon="0">
        <time>2020-12-06T08:11:38.429000+00:00</time>
      </trkpt>
      <trkpt lat="47.29773" lon="-1.36232">
        <ele>5</ele>
        <time>2020-12-06T08:11:39.434000+00:00</time>
      </trkpt>
      <trkpt lat="0" lon="0">
        <time>2020-12-06T08:11:39.448000+00:00</time>
      </trkpt>
      <trkpt lat="0" lon="0">
        <time>2020-12-06T08:11:39.456000+00:00</time>
      </trkpt>
      <trkpt lat="0" lon="0">
        <time>2020-12-06T08:11:39.458000+00:00</time>
      </trkpt>
      <trkpt lat="47.29777" lon="-1.36225">
        <ele>5</ele>
        <time>2020-12-06T08:11:40.424000+00:00</time>
      </trkpt>
      <trkpt lat="0" lon="0">
        <time>2020-12-06T08:11:40.434000+00:00</time>
      </trkpt>
      <trkpt lat="0" lon="0">
        <time>2020-12-06T08:11:40.438000+00:00</time>
      </trkpt>
      <trkpt lat="0" lon="0">
        <time>2020-12-06T08:11:40.441000+00:00</time>
      </trkpt>
      <trkpt lat="47.29782" lon="-1.36218">
        <ele>5</ele>
        <time>2020-12-06T08:11:41.412000+00:00</time>
      </trkpt>
      <trkpt lat="0" lon="0">
        <time>2020-12-06T08:11:41.420000+00:00</time>
      </trkpt>
      <trkpt lat="0" lon="0">
        <time>2020-12-06T08:11:41.425000+00:00</time>
      </trkpt>
      <trkpt lat="0" lon="0">
        <time>2020-12-06T08:11:41.426000+00:00</time>
      </trkpt>
      <trkpt lat="47.29786" lon="-1.36211">
        <ele>4</ele>
        <time>2020-12-06T08:11:42.437000+00:00</time>
      </trkpt>
      <trkpt lat="0" lon="0">
        <time>2020-12-06T08:11:42.440000+00:00</time>
      </trkpt>
      <trkpt lat="0" lon="0">
        <time>2020-12-06T08:11:42.447000+00:00</time>
      </trkpt>
      <trkpt lat="0" lon="0">
        <time>2020-12-06T08:11:42.448000+00:00</time>
      </trkpt>
      <trkpt lat="47.29791" lon="-1.36204">
        <ele>4</ele>
        <time>2020-12-06T08:11:43.398000+00:00</time>
      </trkpt>
      <trkpt lat="0" lon="0">
        <time>2020-12-06T08:11:43.407000+00:00</time>
      </trkpt>
      <trkpt lat="0" lon="0">
        <time>2020-12-06T08:11:43.409000+00:00</time>
      </trkpt>
      <trkpt lat="0" lon="0">
        <time>2020-12-06T08:11:43.410000+00:00</time>
      </trkpt>
      <trkpt lat="47.29795" lon="-1.36196">
        <ele>4</ele>
        <time>2020-12-06T08:11:44.394000+00:00</time>
      </trkpt>
      <trkpt lat="0" lon="0">
        <time>2020-12-06T08:11:44.407000+00:00</time>
      </trkpt>
      <trkpt lat="0" lon="0">
        <time>2020-12-06T08:11:44.410000+00:00</time>
      </trkpt>
      <trkpt lat="0" lon="0">
        <time>2020-12-06T08:11:44.417000+00:00</time>
      </trkpt>
      <trkpt lat="47.298" lon="-1.3619">
        <ele>4</ele>
        <time>2020-12-06T08:11:45.453000+00:00</time>
      </trkpt>
      <trkpt lat="0" lon="0">
        <time>2020-12-06T08:11:45.457000+00:00</time>
      </trkpt>
      <trkpt lat="0" lon="0">
        <time>2020-12-06T08:11:45.466000+00:00</time>
      </trkpt>
      <trkpt lat="0" lon="0">
        <time>2020-12-06T08:11:45.469000+00:00</time>
      </trkpt>
      <trkpt lat="47.29805" lon="-1.36183">
        <ele>4</ele>
        <time>2020-12-06T08:11:46.430000+00:00</time>
      </trkpt>
      <trkpt lat="0" lon="0">
        <time>2020-12-06T08:11:46.448000+00:00</time>
      </trkpt>
      <trkpt lat="0" lon="0">
        <time>2020-12-06T08:11:46.457000+00:00</time>
      </trkpt>
      <trkpt lat="0" lon="0">
        <time>2020-12-06T08:11:46.460000+00:00</time>
      </trkpt>
      <trkpt lat="47.2981" lon="-1.36176">
        <ele>4</ele>
        <time>2020-12-06T08:11:47.383000+00:00</time>
      </trkpt>
      <trkpt lat="0" lon="0">
        <time>2020-12-06T08:11:47.386000+00:00</time>
      </trkpt>
      <trkpt lat="0" lon="0">
        <time>2020-12-06T08:11:47.399000+00:00</time>
      </trkpt>
      <trkpt lat="0" lon="0">
        <time>2020-12-06T08:11:47.401000+00:00</time>
      </trkpt>
      <trkpt lat="47.29815" lon="-1.3617">
        <ele>4</ele>
        <time>2020-12-06T08:11:48.415000+00:00</time>
      </trkpt>
      <trkpt lat="0" lon="0">
        <time>2020-12-06T08:11:48.439000+00:00</time>
      </trkpt>
      <trkpt lat="0" lon="0">
        <time>2020-12-06T08:11:48.446000+00:00</time>
      </trkpt>
      <trkpt lat="0" lon="0">
        <time>2020-12-06T08:11:48.449000+00:00</time>
      </trkpt>
      <trkpt lat="47.2982" lon="-1.36164">
        <ele>4</ele>
        <time>2020-12-06T08:11:49.418000+00:00</time>
      </trkpt>
      <trkpt lat="0" lon="0">
        <time>2020-12-06T08:11:49.425000+00:00</time>
      </trkpt>
      <trkpt lat="0" lon="0">
        <time>2020-12-06T08:11:49.434000+00:00</time>
      </trkpt>
      <trkpt lat="0" lon="0">
        <time>2020-12-06T08:11:49.441000+00:00</time>
      </trkpt>
      <trkpt lat="47.29826" lon="-1.36158">
        <ele>4</ele>
        <time>2020-12-06T08:11:50.413000+00:00</time>
      </trkpt>
      <trkpt lat="0" lon="0">
        <time>2020-12-06T08:11:50.418000+00:00</time>
      </trkpt>
      <trkpt lat="0" lon="0">
        <time>2020-12-06T08:11:50.426000+00:00</time>
      </trkpt>
      <trkpt lat="0" lon="0">
        <time>2020-12-06T08:11:50.430000+00:00</time>
      </trkpt>
      <trkpt lat="47.29831" lon="-1.36151">
        <ele>4</ele>
        <time>2020-12-06T08:11:51.396000+00:00</time>
      </trkpt>
      <trkpt lat="0" lon="0">
        <time>2020-12-06T08:11:51.411000+00:00</time>
      </trkpt>
      <trkpt lat="0" lon="0">
        <time>2020-12-06T08:11:51.418000+00:00</time>
      </trkpt>
      <trkpt lat="0" lon="0">
        <time>2020-12-06T08:11:51.420000+00:00</time>
      </trkpt>
      <trkpt lat="47.29837" lon="-1.36146">
        <ele>4</ele>
        <time>2020-12-06T08:11:52.407000+00:00</time>
      </trkpt>
      <trkpt lat="0" lon="0">
        <time>2020-12-06T08:11:52.416000+00:00</time>
      </trkpt>
      <trkpt lat="0" lon="0">
        <time>2020-12-06T08:11:52.426000+00:00</time>
      </trkpt>
      <trkpt lat="0" lon="0">
        <time>2020-12-06T08:11:52.429000+00:00</time>
      </trkpt>
      <trkpt lat="47.29842" lon="-1.3614">
        <ele>4</ele>
        <time>2020-12-06T08:11:53.444000+00:00</time>
      </trkpt>
      <trkpt lat="0" lon="0">
        <time>2020-12-06T08:11:53.458000+00:00</time>
      </trkpt>
      <trkpt lat="0" lon="0">
        <time>2020-12-06T08:11:53.462000+00:00</time>
      </trkpt>
      <trkpt lat="0" lon="0">
        <time>2020-12-06T08:11:53.465000+00:00</time>
      </trkpt>
      <trkpt lat="47.29847" lon="-1.36135">
        <ele>4</ele>
        <time>2020-12-06T08:11:54.418000+00:00</time>
      </trkpt>
      <trkpt lat="0" lon="0">
        <time>2020-12-06T08:11:54.434000+00:00</time>
      </trkpt>
      <trkpt lat="0" lon="0">
        <time>2020-12-06T08:11:54.442000+00:00</time>
      </trkpt>
      <trkpt lat="0" lon="0">
        <time>2020-12-06T08:11:54.448000+00:00</time>
      </trkpt>
      <trkpt lat="47.29853" lon="-1.3613">
        <ele>4</ele>
        <time>2020-12-06T08:11:55.442000+00:00</time>
      </trkpt>
      <trkpt lat="0" lon="0">
        <time>2020-12-06T08:11:55.459000+00:00</time>
      </trkpt>
      <trkpt lat="0" lon="0">
        <time>2020-12-06T08:11:55.463000+00:00</time>
      </trkpt>
      <trkpt lat="0" lon="0">
        <time>2020-12-06T08:11:55.465000+00:00</time>
      </trkpt>
      <trkpt lat="47.29859" lon="-1.36126">
        <ele>4</ele>
        <time>2020-12-06T08:11:56.417000+00:00</time>
      </trkpt>
      <trkpt lat="0" lon="0">
        <time>2020-12-06T08:11:56.436000+00:00</time>
      </trkpt>
      <trkpt lat="0" lon="0">
        <time>2020-12-06T08:11:56.441000+00:00</time>
      </trkpt>
      <trkpt lat="0" lon="0">
        <time>2020-12-06T08:11:56.443000+00:00</time>
      </trkpt>
      <trkpt lat="47.29865" lon="-1.36122">
        <ele>5</ele>
        <time>2020-12-06T08:11:57.419000+00:00</time>
      </trkpt>
      <trkpt lat="0" lon="0">
        <time>2020-12-06T08:11:57.432000+00:00</time>
      </trkpt>
      <trkpt lat="0" lon="0">
        <time>2020-12-06T08:11:57.436000+00:00</time>
      </trkpt>
      <trkpt lat="0" lon="0">
        <time>2020-12-06T08:11:57.439000+00:00</time>
      </trkpt>
      <trkpt lat="47.29872" lon="-1.36118">
        <ele>5</ele>
        <time>2020-12-06T08:11:58.404000+00:00</time>
      </trkpt>
      <trkpt lat="0" lon="0">
        <time>2020-12-06T08:11:58.408000+00:00</time>
      </trkpt>
      <trkpt lat="0" lon="0">
        <time>2020-12-06T08:11:58.415000+00:00</time>
      </trkpt>
      <trkpt lat="0" lon="0">
        <time>2020-12-06T08:11:58.418000+00:00</time>
      </trkpt>
      <trkpt lat="47.29878" lon="-1.36114">
        <ele>5</ele>
        <time>2020-12-06T08:11:59.413000+00:00</time>
      </trkpt>
      <trkpt lat="0" lon="0">
        <time>2020-12-06T08:11:59.428000+00:00</time>
      </trkpt>
      <trkpt lat="0" lon="0">
        <time>2020-12-06T08:11:59.431000+00:00</time>
      </trkpt>
      <trkpt lat="0" lon="0">
        <time>2020-12-06T08:11:59.434000+00:00</time>
      </trkpt>
      <trkpt lat="47.29884" lon="-1.3611">
        <ele>6</ele>
        <time>2020-12-06T08:12:00.421000+00:00</time>
      </trkpt>
      <trkpt lat="0" lon="0">
        <time>2020-12-06T08:12:00.429000+00:00</time>
      </trkpt>
      <trkpt lat="0" lon="0">
        <time>2020-12-06T08:12:00.434000+00:00</time>
      </trkpt>
      <trkpt lat="0" lon="0">
        <time>2020-12-06T08:12:00.436000+00:00</time>
      </trkpt>
      <trkpt lat="47.2989" lon="-1.36105">
        <ele>6</ele>
        <time>2020-12-06T08:12:01.442000+00:00</time>
      </trkpt>
      <trkpt lat="0" lon="0">
        <time>2020-12-06T08:12:01.444000+00:00</time>
      </trkpt>
      <trkpt lat="0" lon="0">
        <time>2020-12-06T08:12:01.445000+00:00</time>
      </trkpt>
      <trkpt lat="0" lon="0">
        <time>2020-12-06T08:12:01.446000+00:00</time>
      </trkpt>
      <trkpt lat="47.29896" lon="-1.361">
        <ele>6</ele>
        <time>2020-12-06T08:12:02.418000+00:00</time>
      </trkpt>
      <trkpt lat="0" lon="0">
        <time>2020-12-06T08:12:02.431000+00:00</time>
      </trkpt>
      <trkpt lat="0" lon="0">
        <time>2020-12-06T08:12:02.436000+00:00</time>
      </trkpt>
      <trkpt lat="0" lon="0">
        <time>2020-12-06T08:12:02.437000+00:00</time>
      </trkpt>
      <trkpt lat="47.29901" lon="-1.36095">
        <ele>7</ele>
        <time>2020-12-06T08:12:03.430000+00:00</time>
      </trkpt>
      <trkpt lat="0" lon="0">
        <time>2020-12-06T08:12:03.456000+00:00</time>
      </trkpt>
      <trkpt lat="0" lon="0">
        <time>2020-12-06T08:12:03.465000+00:00</time>
      </trkpt>
      <trkpt lat="0" lon="0">
        <time>2020-12-06T08:12:03.473000+00:00</time>
      </trkpt>
      <trkpt lat="47.29907" lon="-1.36089">
        <ele>7</ele>
        <time>2020-12-06T08:12:04.446000+00:00</time>
      </trkpt>
      <trkpt lat="0" lon="0">
        <time>2020-12-06T08:12:04.461000+00:00</time>
      </trkpt>
      <trkpt lat="0" lon="0">
        <time>2020-12-06T08:12:04.465000+00:00</time>
      </trkpt>
      <trkpt lat="0" lon="0">
        <time>2020-12-06T08:12:04.467000+00:00</time>
      </trkpt>
      <trkpt lat="47.29912" lon="-1.36082">
        <ele>7</ele>
        <time>2020-12-06T08:12:05.408000+00:00</time>
      </trkpt>
      <trkpt lat="0" lon="0">
        <time>2020-12-06T08:12:05.412000+00:00</time>
      </trkpt>
      <trkpt lat="0" lon="0">
        <time>2020-12-06T08:12:05.416000+00:00</time>
      </trkpt>
      <trkpt lat="0" lon="0">
        <time>2020-12-06T08:12:05.418000+00:00</time>
      </trkpt>
      <trkpt lat="47.29917" lon="-1.36075">
        <ele>7</ele>
        <time>2020-12-06T08:12:06.411000+00:00</time>
      </trkpt>
      <trkpt lat="0" lon="0">
        <time>2020-12-06T08:12:06.414000+00:00</time>
      </trkpt>
      <trkpt lat="0" lon="0">
        <time>2020-12-06T08:12:06.423000+00:00</time>
      </trkpt>
      <trkpt lat="0" lon="0">
        <time>2020-12-06T08:12:06.425000+00:00</time>
      </trkpt>
      <trkpt lat="47.29921" lon="-1.36068">
        <ele>7</ele>
        <time>2020-12-06T08:12:07.434000+00:00</time>
      </trkpt>
      <trkpt lat="0" lon="0">
        <time>2020-12-06T08:12:07.441000+00:00</time>
      </trkpt>
      <trkpt lat="0" lon="0">
        <time>2020-12-06T08:12:07.453000+00:00</time>
      </trkpt>
      <trkpt lat="0" lon="0">
        <time>2020-12-06T08:12:07.466000+00:00</time>
      </trkpt>
      <trkpt lat="47.29925" lon="-1.3606">
        <ele>7</ele>
        <time>2020-12-06T08:12:08.453000+00:00</time>
      </trkpt>
      <trkpt lat="0" lon="0">
        <time>2020-12-06T08:12:08.465000+00:00</time>
      </trkpt>
      <trkpt lat="0" lon="0">
        <time>2020-12-06T08:12:08.475000+00:00</time>
      </trkpt>
      <trkpt lat="0" lon="0">
        <time>2020-12-06T08:12:08.481000+00:00</time>
      </trkpt>
      <trkpt lat="47.29928" lon="-1.36052">
        <ele>7</ele>
        <time>2020-12-06T08:12:09.458000+00:00</time>
      </trkpt>
      <trkpt lat="0" lon="0">
        <time>2020-12-06T08:12:09.478000+00:00</time>
      </trkpt>
      <trkpt lat="0" lon="0">
        <time>2020-12-06T08:12:09.486000+00:00</time>
      </trkpt>
      <trkpt lat="0" lon="0">
        <time>2020-12-06T08:12:09.493000+00:00</time>
      </trkpt>
      <trkpt lat="47.29931" lon="-1.36044">
        <ele>7</ele>
        <time>2020-12-06T08:12:10.368000+00:00</time>
      </trkpt>
      <trkpt lat="0" lon="0">
        <time>2020-12-06T08:12:10.373000+00:00</time>
      </trkpt>
      <trkpt lat="0" lon="0">
        <time>2020-12-06T08:12:10.374000+00:00</time>
      </trkpt>
      <trkpt lat="0" lon="0">
        <time>2020-12-06T08:12:10.377000+00:00</time>
      </trkpt>
      <trkpt lat="47.29935" lon="-1.36036">
        <ele>7</ele>
        <time>2020-12-06T08:12:11.432000+00:00</time>
      </trkpt>
      <trkpt lat="0" lon="0">
        <time>2020-12-06T08:12:11.442000+00:00</time>
      </trkpt>
      <trkpt lat="0" lon="0">
        <time>2020-12-06T08:12:11.448000+00:00</time>
      </trkpt>
      <trkpt lat="0" lon="0">
        <time>2020-12-06T08:12:11.450000+00:00</time>
      </trkpt>
      <trkpt lat="47.29938" lon="-1.36028">
        <ele>7</ele>
        <time>2020-12-06T08:12:12.422000+00:00</time>
      </trkpt>
      <trkpt lat="0" lon="0">
        <time>2020-12-06T08:12:12.426000+00:00</time>
      </trkpt>
      <trkpt lat="0" lon="0">
        <time>2020-12-06T08:12:12.437000+00:00</time>
      </trkpt>
      <trkpt lat="0" lon="0">
        <time>2020-12-06T08:12:12.439000+00:00</time>
      </trkpt>
      <trkpt lat="47.29941" lon="-1.3602">
        <ele>6</ele>
        <time>2020-12-06T08:12:13.422000+00:00</time>
      </trkpt>
      <trkpt lat="0" lon="0">
        <time>2020-12-06T08:12:13.440000+00:00</time>
      </trkpt>
      <trkpt lat="0" lon="0">
        <time>2020-12-06T08:12:13.443000+00:00</time>
      </trkpt>
      <trkpt lat="0" lon="0">
        <time>2020-12-06T08:12:13.445000+00:00</time>
      </trkpt>
      <trkpt lat="47.29944" lon="-1.36013">
        <ele>6</ele>
        <time>2020-12-06T08:12:14.358000+00:00</time>
      </trkpt>
      <trkpt lat="0" lon="0">
        <time>2020-12-06T08:12:14.378000+00:00</time>
      </trkpt>
      <trkpt lat="0" lon="0">
        <time>2020-12-06T08:12:14.382000+00:00</time>
      </trkpt>
      <trkpt lat="0" lon="0">
        <time>2020-12-06T08:12:14.385000+00:00</time>
      </trkpt>
      <trkpt lat="47.29947" lon="-1.36005">
        <ele>6</ele>
        <time>2020-12-06T08:12:15.388000+00:00</time>
      </trkpt>
      <trkpt lat="0" lon="0">
        <time>2020-12-06T08:12:15.399000+00:00</time>
      </trkpt>
      <trkpt lat="0" lon="0">
        <time>2020-12-06T08:12:15.409000+00:00</time>
      </trkpt>
      <trkpt lat="0" lon="0">
        <time>2020-12-06T08:12:15.410000+00:00</time>
      </trkpt>
      <trkpt lat="47.2995" lon="-1.35997">
        <ele>6</ele>
        <time>2020-12-06T08:12:16.436000+00:00</time>
      </trkpt>
      <trkpt lat="0" lon="0">
        <time>2020-12-06T08:12:16.443000+00:00</time>
      </trkpt>
      <trkpt lat="0" lon="0">
        <time>2020-12-06T08:12:16.446000+00:00</time>
      </trkpt>
      <trkpt lat="0" lon="0">
        <time>2020-12-06T08:12:16.451000+00:00</time>
      </trkpt>
      <trkpt lat="47.29952" lon="-1.35989">
        <ele>6</ele>
        <time>2020-12-06T08:12:17.422000+00:00</time>
      </trkpt>
      <trkpt lat="0" lon="0">
        <time>2020-12-06T08:12:17.430000+00:00</time>
      </trkpt>
      <trkpt lat="0" lon="0">
        <time>2020-12-06T08:12:17.438000+00:00</time>
      </trkpt>
      <trkpt lat="0" lon="0">
        <time>2020-12-06T08:12:17.442000+00:00</time>
      </trkpt>
      <trkpt lat="47.29954" lon="-1.35981">
        <ele>6</ele>
        <time>2020-12-06T08:12:18.441000+00:00</time>
      </trkpt>
      <trkpt lat="0" lon="0">
        <time>2020-12-06T08:12:18.459000+00:00</time>
      </trkpt>
      <trkpt lat="0" lon="0">
        <time>2020-12-06T08:12:18.468000+00:00</time>
      </trkpt>
      <trkpt lat="0" lon="0">
        <time>2020-12-06T08:12:18.471000+00:00</time>
      </trkpt>
      <trkpt lat="47.29956" lon="-1.35974">
        <ele>6</ele>
        <time>2020-12-06T08:12:19.435000+00:00</time>
      </trkpt>
      <trkpt lat="0" lon="0">
        <time>2020-12-06T08:12:19.456000+00:00</time>
      </trkpt>
      <trkpt lat="0" lon="0">
        <time>2020-12-06T08:12:19.460000+00:00</time>
      </trkpt>
      <trkpt lat="0" lon="0">
        <time>2020-12-06T08:12:19.462000+00:00</time>
      </trkpt>
      <trkpt lat="47.29958" lon="-1.35966">
        <ele>5</ele>
        <time>2020-12-06T08:12:20.416000+00:00</time>
      </trkpt>
      <trkpt lat="0" lon="0">
        <time>2020-12-06T08:12:20.432000+00:00</time>
      </trkpt>
      <trkpt lat="0" lon="0">
        <time>2020-12-06T08:12:20.438000+00:00</time>
      </trkpt>
      <trkpt lat="0" lon="0">
        <time>2020-12-06T08:12:20.440000+00:00</time>
      </trkpt>
      <trkpt lat="47.2996" lon="-1.35959">
        <ele>5</ele>
        <time>2020-12-06T08:12:21.364000+00:00</time>
      </trkpt>
      <trkpt lat="0" lon="0">
        <time>2020-12-06T08:12:21.377000+00:00</time>
      </trkpt>
      <trkpt lat="0" lon="0">
        <time>2020-12-06T08:12:21.380000+00:00</time>
      </trkpt>
      <trkpt lat="0" lon="0">
        <time>2020-12-06T08:12:21.382000+00:00</time>
      </trkpt>
      <trkpt lat="47.29963" lon="-1.35952">
        <ele>5</ele>
        <time>2020-12-06T08:12:22.448000+00:00</time>
      </trkpt>
      <trkpt lat="0" lon="0">
        <time>2020-12-06T08:12:22.466000+00:00</time>
      </trkpt>
      <trkpt lat="0" lon="0">
        <time>2020-12-06T08:12:22.477000+00:00</time>
      </trkpt>
      <trkpt lat="0" lon="0">
        <time>2020-12-06T08:12:22.480000+00:00</time>
      </trkpt>
      <trkpt lat="47.29966" lon="-1.35945">
        <ele>5</ele>
        <time>2020-12-06T08:12:23.432000+00:00</time>
      </trkpt>
      <trkpt lat="0" lon="0">
        <time>2020-12-06T08:12:23.442000+00:00</time>
      </trkpt>
      <trkpt lat="0" lon="0">
        <time>2020-12-06T08:12:23.446000+00:00</time>
      </trkpt>
      <trkpt lat="0" lon="0">
        <time>2020-12-06T08:12:23.452000+00:00</time>
      </trkpt>
      <trkpt lat="47.29969" lon="-1.35939">
        <ele>5</ele>
        <time>2020-12-06T08:12:24.451000+00:00</time>
      </trkpt>
      <trkpt lat="0" lon="0">
        <time>2020-12-06T08:12:24.456000+00:00</time>
      </trkpt>
      <trkpt lat="0" lon="0">
        <time>2020-12-06T08:12:24.465000+00:00</time>
      </trkpt>
      <trkpt lat="0" lon="0">
        <time>2020-12-06T08:12:24.467000+00:00</time>
      </trkpt>
      <trkpt lat="47.29973" lon="-1.35932">
        <ele>5</ele>
        <time>2020-12-06T08:12:25.385000+00:00</time>
      </trkpt>
      <trkpt lat="0" lon="0">
        <time>2020-12-06T08:12:25.396000+00:00</time>
      </trkpt>
      <trkpt lat="0" lon="0">
        <time>2020-12-06T08:12:25.401000+00:00</time>
      </trkpt>
      <trkpt lat="0" lon="0">
        <time>2020-12-06T08:12:25.404000+00:00</time>
      </trkpt>
      <trkpt lat="47.29977" lon="-1.35926">
        <ele>5</ele>
        <time>2020-12-06T08:12:26.426000+00:00</time>
      </trkpt>
      <trkpt lat="0" lon="0">
        <time>2020-12-06T08:12:26.432000+00:00</time>
      </trkpt>
      <trkpt lat="0" lon="0">
        <time>2020-12-06T08:12:26.440000+00:00</time>
      </trkpt>
      <trkpt lat="0" lon="0">
        <time>2020-12-06T08:12:26.442000+00:00</time>
      </trkpt>
      <trkpt lat="47.2998" lon="-1.35919">
        <ele>5</ele>
        <time>2020-12-06T08:12:27.431000+00:00</time>
      </trkpt>
      <trkpt lat="0" lon="0">
        <time>2020-12-06T08:12:27.434000+00:00</time>
      </trkpt>
      <trkpt lat="0" lon="0">
        <time>2020-12-06T08:12:27.441000+00:00</time>
      </trkpt>
      <trkpt lat="0" lon="0">
        <time>2020-12-06T08:12:27.442000+00:00</time>
      </trkpt>
      <trkpt lat="47.29984" lon="-1.35912">
        <ele>4</ele>
        <time>2020-12-06T08:12:28.434000+00:00</time>
      </trkpt>
      <trkpt lat="0" lon="0">
        <time>2020-12-06T08:12:28.453000+00:00</time>
      </trkpt>
      <trkpt lat="0" lon="0">
        <time>2020-12-06T08:12:28.466000+00:00</time>
      </trkpt>
      <trkpt lat="0" lon="0">
        <time>2020-12-06T08:12:28.469000+00:00</time>
      </trkpt>
      <trkpt lat="47.29988" lon="-1.35906">
        <ele>4</ele>
        <time>2020-12-06T08:12:29.441000+00:00</time>
      </trkpt>
      <trkpt lat="0" lon="0">
        <time>2020-12-06T08:12:29.449000+00:00</time>
      </trkpt>
      <trkpt lat="0" lon="0">
        <time>2020-12-06T08:12:29.455000+00:00</time>
      </trkpt>
      <trkpt lat="0" lon="0">
        <time>2020-12-06T08:12:29.457000+00:00</time>
      </trkpt>
      <trkpt lat="47.29992" lon="-1.35899">
        <ele>4</ele>
        <time>2020-12-06T08:12:30.462000+00:00</time>
      </trkpt>
      <trkpt lat="0" lon="0">
        <time>2020-12-06T08:12:30.477000+00:00</time>
      </trkpt>
      <trkpt lat="0" lon="0">
        <time>2020-12-06T08:12:30.485000+00:00</time>
      </trkpt>
      <trkpt lat="0" lon="0">
        <time>2020-12-06T08:12:30.492000+00:00</time>
      </trkpt>
      <trkpt lat="47.29996" lon="-1.35892">
        <ele>4</ele>
        <time>2020-12-06T08:12:31.436000+00:00</time>
      </trkpt>
      <trkpt lat="0" lon="0">
        <time>2020-12-06T08:12:31.449000+00:00</time>
      </trkpt>
      <trkpt lat="0" lon="0">
        <time>2020-12-06T08:12:31.455000+00:00</time>
      </trkpt>
      <trkpt lat="0" lon="0">
        <time>2020-12-06T08:12:31.459000+00:00</time>
      </trkpt>
      <trkpt lat="47.3" lon="-1.35885">
        <ele>4</ele>
        <time>2020-12-06T08:12:32.426000+00:00</time>
      </trkpt>
      <trkpt lat="0" lon="0">
        <time>2020-12-06T08:12:32.436000+00:00</time>
      </trkpt>
      <trkpt lat="0" lon="0">
        <time>2020-12-06T08:12:32.440000+00:00</time>
      </trkpt>
      <trkpt lat="0" lon="0">
        <time>2020-12-06T08:12:32.443000+00:00</time>
      </trkpt>
      <trkpt lat="47.30004" lon="-1.35878">
        <ele>4</ele>
        <time>2020-12-06T08:12:33.455000+00:00</time>
      </trkpt>
      <trkpt lat="0" lon="0">
        <time>2020-12-06T08:12:33.459000+00:00</time>
      </trkpt>
      <trkpt lat="0" lon="0">
        <time>2020-12-06T08:12:33.460000+00:00</time>
      </trkpt>
      <trkpt lat="0" lon="0">
        <time>2020-12-06T08:12:33.464000+00:00</time>
      </trkpt>
      <trkpt lat="47.30008" lon="-1.35871">
        <ele>4</ele>
        <time>2020-12-06T08:12:34.429000+00:00</time>
      </trkpt>
      <trkpt lat="0" lon="0">
        <time>2020-12-06T08:12:34.436000+00:00</time>
      </trkpt>
      <trkpt lat="0" lon="0">
        <time>2020-12-06T08:12:34.443000+00:00</time>
      </trkpt>
      <trkpt lat="0" lon="0">
        <time>2020-12-06T08:12:34.446000+00:00</time>
      </trkpt>
      <trkpt lat="47.30012" lon="-1.35864">
        <ele>4</ele>
        <time>2020-12-06T08:12:35.400000+00:00</time>
      </trkpt>
      <trkpt lat="0" lon="0">
        <time>2020-12-06T08:12:35.426000+00:00</time>
      </trkpt>
      <trkpt lat="0" lon="0">
        <time>2020-12-06T08:12:35.433000+00:00</time>
      </trkpt>
      <trkpt lat="0" lon="0">
        <time>2020-12-06T08:12:35.435000+00:00</time>
      </trkpt>
      <trkpt lat="47.30016" lon="-1.35856">
        <ele>4</ele>
        <time>2020-12-06T08:12:36.392000+00:00</time>
      </trkpt>
      <trkpt lat="0" lon="0">
        <time>2020-12-06T08:12:36.397000+00:00</time>
      </trkpt>
      <trkpt lat="0" lon="0">
        <time>2020-12-06T08:12:36.404000+00:00</time>
      </trkpt>
      <trkpt lat="0" lon="0">
        <time>2020-12-06T08:12:36.412000+00:00</time>
      </trkpt>
      <trkpt lat="47.30019" lon="-1.35848">
        <ele>4</ele>
        <time>2020-12-06T08:12:37.418000+00:00</time>
      </trkpt>
      <trkpt lat="0" lon="0">
        <time>2020-12-06T08:12:37.428000+00:00</time>
      </trkpt>
      <trkpt lat="0" lon="0">
        <time>2020-12-06T08:12:37.430000+00:00</time>
      </trkpt>
      <trkpt lat="0" lon="0">
        <time>2020-12-06T08:12:37.431000+00:00</time>
      </trkpt>
      <trkpt lat="47.30023" lon="-1.35841">
        <ele>4</ele>
        <time>2020-12-06T08:12:38.411000+00:00</time>
      </trkpt>
      <trkpt lat="0" lon="0">
        <time>2020-12-06T08:12:38.423000+00:00</time>
      </trkpt>
      <trkpt lat="0" lon="0">
        <time>2020-12-06T08:12:38.434000+00:00</time>
      </trkpt>
      <trkpt lat="0" lon="0">
        <time>2020-12-06T08:12:38.440000+00:00</time>
      </trkpt>
      <trkpt lat="47.30027" lon="-1.35833">
        <ele>4</ele>
        <time>2020-12-06T08:12:39.396000+00:00</time>
      </trkpt>
      <trkpt lat="0" lon="0">
        <time>2020-12-06T08:12:39.413000+00:00</time>
      </trkpt>
      <trkpt lat="0" lon="0">
        <time>2020-12-06T08:12:39.417000+00:00</time>
      </trkpt>
      <trkpt lat="0" lon="0">
        <time>2020-12-06T08:12:39.420000+00:00</time>
      </trkpt>
      <trkpt lat="47.30031" lon="-1.35825">
        <ele>4</ele>
        <time>2020-12-06T08:12:40.439000+00:00</time>
      </trkpt>
      <trkpt lat="0" lon="0">
        <time>2020-12-06T08:12:40.444000+00:00</time>
      </trkpt>
      <trkpt lat="0" lon="0">
        <time>2020-12-06T08:12:40.448000+00:00</time>
      </trkpt>
      <trkpt lat="0" lon="0">
        <time>2020-12-06T08:12:40.451000+00:00</time>
      </trkpt>
      <trkpt lat="47.30035" lon="-1.35818">
        <ele>4</ele>
        <time>2020-12-06T08:12:41.420000+00:00</time>
      </trkpt>
      <trkpt lat="0" lon="0">
        <time>2020-12-06T08:12:41.434000+00:00</time>
      </trkpt>
      <trkpt lat="0" lon="0">
        <time>2020-12-06T08:12:41.436000+00:00</time>
      </trkpt>
      <trkpt lat="0" lon="0">
        <time>2020-12-06T08:12:41.437000+00:00</time>
      </trkpt>
      <trkpt lat="47.30039" lon="-1.3581">
        <ele>4</ele>
        <time>2020-12-06T08:12:42.433000+00:00</time>
      </trkpt>
      <trkpt lat="0" lon="0">
        <time>2020-12-06T08:12:42.439000+00:00</time>
      </trkpt>
      <trkpt lat="0" lon="0">
        <time>2020-12-06T08:12:42.443000+00:00</time>
      </trkpt>
      <trkpt lat="0" lon="0">
        <time>2020-12-06T08:12:42.445000+00:00</time>
      </trkpt>
      <trkpt lat="47.30043" lon="-1.35802">
        <ele>4</ele>
        <time>2020-12-06T08:12:43.462000+00:00</time>
      </trkpt>
      <trkpt lat="0" lon="0">
        <time>2020-12-06T08:12:43.467000+00:00</time>
      </trkpt>
      <trkpt lat="0" lon="0">
        <time>2020-12-06T08:12:43.492000+00:00</time>
      </trkpt>
      <trkpt lat="0" lon="0">
        <time>2020-12-06T08:12:43.495000+00:00</time>
      </trkpt>
      <trkpt lat="47.30047" lon="-1.35795">
        <ele>5</ele>
        <time>2020-12-06T08:12:44.354000+00:00</time>
      </trkpt>
      <trkpt lat="0" lon="0">
        <time>2020-12-06T08:12:44.362000+00:00</time>
      </trkpt>
      <trkpt lat="0" lon="0">
        <time>2020-12-06T08:12:44.364000+00:00</time>
      </trkpt>
      <trkpt lat="0" lon="0">
        <time>2020-12-06T08:12:44.365000+00:00</time>
      </trkpt>
      <trkpt lat="47.30051" lon="-1.35787">
        <ele>5</ele>
        <time>2020-12-06T08:12:45.408000+00:00</time>
      </trkpt>
      <trkpt lat="0" lon="0">
        <time>2020-12-06T08:12:45.410000+00:00</time>
      </trkpt>
      <trkpt lat="0" lon="0">
        <time>2020-12-06T08:12:45.414000+00:00</time>
      </trkpt>
      <trkpt lat="0" lon="0">
        <time>2020-12-06T08:12:45.415000+00:00</time>
      </trkpt>
      <trkpt lat="47.30054" lon="-1.3578">
        <ele>5</ele>
        <time>2020-12-06T08:12:46.427000+00:00</time>
      </trkpt>
      <trkpt lat="0" lon="0">
        <time>2020-12-06T08:12:46.432000+00:00</time>
      </trkpt>
      <trkpt lat="0" lon="0">
        <time>2020-12-06T08:12:46.438000+00:00</time>
      </trkpt>
      <trkpt lat="0" lon="0">
        <time>2020-12-06T08:12:46.442000+00:00</time>
      </trkpt>
      <trkpt lat="47.30058" lon="-1.35772">
        <ele>5</ele>
        <time>2020-12-06T08:12:47.384000+00:00</time>
      </trkpt>
      <trkpt lat="0" lon="0">
        <time>2020-12-06T08:12:47.391000+00:00</time>
      </trkpt>
      <trkpt lat="0" lon="0">
        <time>2020-12-06T08:12:47.393000+00:00</time>
      </trkpt>
      <trkpt lat="0" lon="0">
        <time>2020-12-06T08:12:47.395000+00:00</time>
      </trkpt>
      <trkpt lat="47.30062" lon="-1.35764">
        <ele>5</ele>
        <time>2020-12-06T08:12:48.410000+00:00</time>
      </trkpt>
      <trkpt lat="0" lon="0">
        <time>2020-12-06T08:12:48.417000+00:00</time>
      </trkpt>
      <trkpt lat="0" lon="0">
        <time>2020-12-06T08:12:48.420000+00:00</time>
      </trkpt>
      <trkpt lat="0" lon="0">
        <time>2020-12-06T08:12:48.423000+00:00</time>
      </trkpt>
      <trkpt lat="47.30066" lon="-1.35757">
        <ele>5</ele>
        <time>2020-12-06T08:12:49.422000+00:00</time>
      </trkpt>
      <trkpt lat="0" lon="0">
        <time>2020-12-06T08:12:49.432000+00:00</time>
      </trkpt>
      <trkpt lat="0" lon="0">
        <time>2020-12-06T08:12:49.440000+00:00</time>
      </trkpt>
      <trkpt lat="0" lon="0">
        <time>2020-12-06T08:12:49.444000+00:00</time>
      </trkpt>
      <trkpt lat="47.30069" lon="-1.35749">
        <ele>5</ele>
        <time>2020-12-06T08:12:50.397000+00:00</time>
      </trkpt>
      <trkpt lat="0" lon="0">
        <time>2020-12-06T08:12:50.405000+00:00</time>
      </trkpt>
      <trkpt lat="0" lon="0">
        <time>2020-12-06T08:12:50.416000+00:00</time>
      </trkpt>
      <trkpt lat="0" lon="0">
        <time>2020-12-06T08:12:50.420000+00:00</time>
      </trkpt>
      <trkpt lat="47.30073" lon="-1.35742">
        <ele>5</ele>
        <time>2020-12-06T08:12:51.462000+00:00</time>
      </trkpt>
      <trkpt lat="0" lon="0">
        <time>2020-12-06T08:12:51.470000+00:00</time>
      </trkpt>
      <trkpt lat="0" lon="0">
        <time>2020-12-06T08:12:51.474000+00:00</time>
      </trkpt>
      <trkpt lat="0" lon="0">
        <time>2020-12-06T08:12:51.476000+00:00</time>
      </trkpt>
      <trkpt lat="47.30077" lon="-1.35734">
        <ele>5</ele>
        <time>2020-12-06T08:12:52.424000+00:00</time>
      </trkpt>
      <trkpt lat="0" lon="0">
        <time>2020-12-06T08:12:52.429000+00:00</time>
      </trkpt>
      <trkpt lat="0" lon="0">
        <time>2020-12-06T08:12:52.439000+00:00</time>
      </trkpt>
      <trkpt lat="0" lon="0">
        <time>2020-12-06T08:12:52.442000+00:00</time>
      </trkpt>
      <trkpt lat="47.30081" lon="-1.35727">
        <ele>5</ele>
        <time>2020-12-06T08:12:53.424000+00:00</time>
      </trkpt>
      <trkpt lat="0" lon="0">
        <time>2020-12-06T08:12:53.435000+00:00</time>
      </trkpt>
      <trkpt lat="0" lon="0">
        <time>2020-12-06T08:12:53.442000+00:00</time>
      </trkpt>
      <trkpt lat="0" lon="0">
        <time>2020-12-06T08:12:53.444000+00:00</time>
      </trkpt>
      <trkpt lat="47.30084" lon="-1.3572">
        <ele>6</ele>
        <time>2020-12-06T08:12:54.421000+00:00</time>
      </trkpt>
      <trkpt lat="0" lon="0">
        <time>2020-12-06T08:12:54.431000+00:00</time>
      </trkpt>
      <trkpt lat="0" lon="0">
        <time>2020-12-06T08:12:54.437000+00:00</time>
      </trkpt>
      <trkpt lat="0" lon="0">
        <time>2020-12-06T08:12:54.440000+00:00</time>
      </trkpt>
      <trkpt lat="47.30088" lon="-1.35712">
        <ele>6</ele>
        <time>2020-12-06T08:12:55.416000+00:00</time>
      </trkpt>
      <trkpt lat="0" lon="0">
        <time>2020-12-06T08:12:55.426000+00:00</time>
      </trkpt>
      <trkpt lat="0" lon="0">
        <time>2020-12-06T08:12:55.431000+00:00</time>
      </trkpt>
      <trkpt lat="0" lon="0">
        <time>2020-12-06T08:12:55.433000+00:00</time>
      </trkpt>
      <trkpt lat="47.30092" lon="-1.35705">
        <ele>6</ele>
        <time>2020-12-06T08:12:56.462000+00:00</time>
      </trkpt>
      <trkpt lat="0" lon="0">
        <time>2020-12-06T08:12:56.468000+00:00</time>
      </trkpt>
      <trkpt lat="0" lon="0">
        <time>2020-12-06T08:12:56.471000+00:00</time>
      </trkpt>
      <trkpt lat="0" lon="0">
        <time>2020-12-06T08:12:56.473000+00:00</time>
      </trkpt>
      <trkpt lat="47.30095" lon="-1.35697">
        <ele>6</ele>
        <time>2020-12-06T08:12:57.408000+00:00</time>
      </trkpt>
      <trkpt lat="0" lon="0">
        <time>2020-12-06T08:12:57.410000+00:00</time>
      </trkpt>
      <trkpt lat="0" lon="0">
        <time>2020-12-06T08:12:57.412000+00:00</time>
      </trkpt>
      <trkpt lat="0" lon="0">
        <time>2020-12-06T08:12:57.413000+00:00</time>
      </trkpt>
      <trkpt lat="47.30099" lon="-1.35689">
        <ele>6</ele>
        <time>2020-12-06T08:12:58.405000+00:00</time>
      </trkpt>
      <trkpt lat="0" lon="0">
        <time>2020-12-06T08:12:58.416000+00:00</time>
      </trkpt>
      <trkpt lat="0" lon="0">
        <time>2020-12-06T08:12:58.419000+00:00</time>
      </trkpt>
      <trkpt lat="0" lon="0">
        <time>2020-12-06T08:12:58.421000+00:00</time>
      </trkpt>
      <trkpt lat="47.30102" lon="-1.35681">
        <ele>6</ele>
        <time>2020-12-06T08:12:59.442000+00:00</time>
      </trkpt>
      <trkpt lat="0" lon="0">
        <time>2020-12-06T08:12:59.451000+00:00</time>
      </trkpt>
      <trkpt lat="0" lon="0">
        <time>2020-12-06T08:12:59.456000+00:00</time>
      </trkpt>
      <trkpt lat="0" lon="0">
        <time>2020-12-06T08:12:59.460000+00:00</time>
      </trkpt>
      <trkpt lat="47.30106" lon="-1.35672">
        <ele>6</ele>
        <time>2020-12-06T08:13:00.418000+00:00</time>
      </trkpt>
      <trkpt lat="0" lon="0">
        <time>2020-12-06T08:13:00.429000+00:00</time>
      </trkpt>
      <trkpt lat="0" lon="0">
        <time>2020-12-06T08:13:00.433000+00:00</time>
      </trkpt>
      <trkpt lat="0" lon="0">
        <time>2020-12-06T08:13:00.435000+00:00</time>
      </trkpt>
      <trkpt lat="47.30109" lon="-1.35664">
        <ele>6</ele>
        <time>2020-12-06T08:13:01.417000+00:00</time>
      </trkpt>
      <trkpt lat="0" lon="0">
        <time>2020-12-06T08:13:01.433000+00:00</time>
      </trkpt>
      <trkpt lat="0" lon="0">
        <time>2020-12-06T08:13:01.436000+00:00</time>
      </trkpt>
      <trkpt lat="0" lon="0">
        <time>2020-12-06T08:13:01.438000+00:00</time>
      </trkpt>
      <trkpt lat="47.30113" lon="-1.35656">
        <ele>6</ele>
        <time>2020-12-06T08:13:02.415000+00:00</time>
      </trkpt>
      <trkpt lat="0" lon="0">
        <time>2020-12-06T08:13:02.420000+00:00</time>
      </trkpt>
      <trkpt lat="0" lon="0">
        <time>2020-12-06T08:13:02.426000+00:00</time>
      </trkpt>
      <trkpt lat="0" lon="0">
        <time>2020-12-06T08:13:02.427000+00:00</time>
      </trkpt>
      <trkpt lat="47.30116" lon="-1.35647">
        <ele>6</ele>
        <time>2020-12-06T08:13:03.422000+00:00</time>
      </trkpt>
      <trkpt lat="0" lon="0">
        <time>2020-12-06T08:13:03.429000+00:00</time>
      </trkpt>
      <trkpt lat="0" lon="0">
        <time>2020-12-06T08:13:03.431000+00:00</time>
      </trkpt>
      <trkpt lat="0" lon="0">
        <time>2020-12-06T08:13:03.432000+00:00</time>
      </trkpt>
      <trkpt lat="47.30119" lon="-1.35639">
        <ele>6</ele>
        <time>2020-12-06T08:13:04.393000+00:00</time>
      </trkpt>
      <trkpt lat="0" lon="0">
        <time>2020-12-06T08:13:04.397000+00:00</time>
      </trkpt>
      <trkpt lat="0" lon="0">
        <time>2020-12-06T08:13:04.401000+00:00</time>
      </trkpt>
      <trkpt lat="0" lon="0">
        <time>2020-12-06T08:13:04.404000+00:00</time>
      </trkpt>
      <trkpt lat="47.30123" lon="-1.35631">
        <ele>6</ele>
        <time>2020-12-06T08:13:05.421000+00:00</time>
      </trkpt>
      <trkpt lat="0" lon="0">
        <time>2020-12-06T08:13:05.426000+00:00</time>
      </trkpt>
      <trkpt lat="0" lon="0">
        <time>2020-12-06T08:13:05.434000+00:00</time>
      </trkpt>
      <trkpt lat="0" lon="0">
        <time>2020-12-06T08:13:05.437000+00:00</time>
      </trkpt>
      <trkpt lat="47.30127" lon="-1.35623">
        <ele>6</ele>
        <time>2020-12-06T08:13:06.394000+00:00</time>
      </trkpt>
      <trkpt lat="0" lon="0">
        <time>2020-12-06T08:13:06.397000+00:00</time>
      </trkpt>
      <trkpt lat="0" lon="0">
        <time>2020-12-06T08:13:06.401000+00:00</time>
      </trkpt>
      <trkpt lat="0" lon="0">
        <time>2020-12-06T08:13:06.409000+00:00</time>
      </trkpt>
      <trkpt lat="47.30131" lon="-1.35615">
        <ele>6</ele>
        <time>2020-12-06T08:13:07.372000+00:00</time>
      </trkpt>
      <trkpt lat="0" lon="0">
        <time>2020-12-06T08:13:07.387000+00:00</time>
      </trkpt>
      <trkpt lat="0" lon="0">
        <time>2020-12-06T08:13:07.394000+00:00</time>
      </trkpt>
      <trkpt lat="0" lon="0">
        <time>2020-12-06T08:13:07.398000+00:00</time>
      </trkpt>
      <trkpt lat="47.30134" lon="-1.35607">
        <ele>6</ele>
        <time>2020-12-06T08:13:08.395000+00:00</time>
      </trkpt>
      <trkpt lat="0" lon="0">
        <time>2020-12-06T08:13:08.400000+00:00</time>
      </trkpt>
      <trkpt lat="0" lon="0">
        <time>2020-12-06T08:13:08.405000+00:00</time>
      </trkpt>
      <trkpt lat="0" lon="0">
        <time>2020-12-06T08:13:08.409000+00:00</time>
      </trkpt>
      <trkpt lat="47.30138" lon="-1.35599">
        <ele>6</ele>
        <time>2020-12-06T08:13:09.338000+00:00</time>
      </trkpt>
      <trkpt lat="0" lon="0">
        <time>2020-12-06T08:13:09.351000+00:00</time>
      </trkpt>
      <trkpt lat="0" lon="0">
        <time>2020-12-06T08:13:09.357000+00:00</time>
      </trkpt>
      <trkpt lat="0" lon="0">
        <time>2020-12-06T08:13:09.363000+00:00</time>
      </trkpt>
      <trkpt lat="47.30142" lon="-1.35591">
        <ele>6</ele>
        <time>2020-12-06T08:13:10.437000+00:00</time>
      </trkpt>
      <trkpt lat="0" lon="0">
        <time>2020-12-06T08:13:10.452000+00:00</time>
      </trkpt>
      <trkpt lat="0" lon="0">
        <time>2020-12-06T08:13:10.464000+00:00</time>
      </trkpt>
      <trkpt lat="0" lon="0">
        <time>2020-12-06T08:13:10.467000+00:00</time>
      </trkpt>
      <trkpt lat="47.30146" lon="-1.35582">
        <ele>6</ele>
        <time>2020-12-06T08:13:11.398000+00:00</time>
      </trkpt>
      <trkpt lat="0" lon="0">
        <time>2020-12-06T08:13:11.414000+00:00</time>
      </trkpt>
      <trkpt lat="0" lon="0">
        <time>2020-12-06T08:13:11.418000+00:00</time>
      </trkpt>
      <trkpt lat="0" lon="0">
        <time>2020-12-06T08:13:11.420000+00:00</time>
      </trkpt>
      <trkpt lat="47.30149" lon="-1.35574">
        <ele>6</ele>
        <time>2020-12-06T08:13:12.339000+00:00</time>
      </trkpt>
      <trkpt lat="0" lon="0">
        <time>2020-12-06T08:13:12.355000+00:00</time>
      </trkpt>
      <trkpt lat="0" lon="0">
        <time>2020-12-06T08:13:12.364000+00:00</time>
      </trkpt>
      <trkpt lat="0" lon="0">
        <time>2020-12-06T08:13:12.366000+00:00</time>
      </trkpt>
      <trkpt lat="47.30153" lon="-1.35566">
        <ele>6</ele>
        <time>2020-12-06T08:13:13.336000+00:00</time>
      </trkpt>
      <trkpt lat="0" lon="0">
        <time>2020-12-06T08:13:13.338000+00:00</time>
      </trkpt>
      <trkpt lat="0" lon="0">
        <time>2020-12-06T08:13:13.341000+00:00</time>
      </trkpt>
      <trkpt lat="0" lon="0">
        <time>2020-12-06T08:13:13.342000+00:00</time>
      </trkpt>
      <trkpt lat="47.30157" lon="-1.35557">
        <ele>6</ele>
        <time>2020-12-06T08:13:14.394000+00:00</time>
      </trkpt>
      <trkpt lat="0" lon="0">
        <time>2020-12-06T08:13:14.404000+00:00</time>
      </trkpt>
      <trkpt lat="0" lon="0">
        <time>2020-12-06T08:13:14.405000+00:00</time>
      </trkpt>
      <trkpt lat="0" lon="0">
        <time>2020-12-06T08:13:14.406000+00:00</time>
      </trkpt>
      <trkpt lat="47.3016" lon="-1.35549">
        <ele>6</ele>
        <time>2020-12-06T08:13:15.413000+00:00</time>
      </trkpt>
      <trkpt lat="0" lon="0">
        <time>2020-12-06T08:13:15.422000+00:00</time>
      </trkpt>
      <trkpt lat="0" lon="0">
        <time>2020-12-06T08:13:15.429000+00:00</time>
      </trkpt>
      <trkpt lat="0" lon="0">
        <time>2020-12-06T08:13:15.431000+00:00</time>
      </trkpt>
      <trkpt lat="47.30164" lon="-1.35541">
        <ele>6</ele>
        <time>2020-12-06T08:13:16.410000+00:00</time>
      </trkpt>
      <trkpt lat="0" lon="0">
        <time>2020-12-06T08:13:16.425000+00:00</time>
      </trkpt>
      <trkpt lat="0" lon="0">
        <time>2020-12-06T08:13:16.433000+00:00</time>
      </trkpt>
      <trkpt lat="0" lon="0">
        <time>2020-12-06T08:13:16.437000+00:00</time>
      </trkpt>
      <trkpt lat="47.30168" lon="-1.35533">
        <ele>6</ele>
        <time>2020-12-06T08:13:17.444000+00:00</time>
      </trkpt>
      <trkpt lat="0" lon="0">
        <time>2020-12-06T08:13:17.449000+00:00</time>
      </trkpt>
      <trkpt lat="0" lon="0">
        <time>2020-12-06T08:13:17.455000+00:00</time>
      </trkpt>
      <trkpt lat="0" lon="0">
        <time>2020-12-06T08:13:17.459000+00:00</time>
      </trkpt>
      <trkpt lat="47.30171" lon="-1.35524">
        <ele>6</ele>
        <time>2020-12-06T08:13:18.405000+00:00</time>
      </trkpt>
      <trkpt lat="0" lon="0">
        <time>2020-12-06T08:13:18.410000+00:00</time>
      </trkpt>
      <trkpt lat="0" lon="0">
        <time>2020-12-06T08:13:18.421000+00:00</time>
      </trkpt>
      <trkpt lat="0" lon="0">
        <time>2020-12-06T08:13:18.429000+00:00</time>
      </trkpt>
      <trkpt lat="47.30175" lon="-1.35516">
        <ele>6</ele>
        <time>2020-12-06T08:13:19.387000+00:00</time>
      </trkpt>
      <trkpt lat="0" lon="0">
        <time>2020-12-06T08:13:19.399000+00:00</time>
      </trkpt>
      <trkpt lat="0" lon="0">
        <time>2020-12-06T08:13:19.415000+00:00</time>
      </trkpt>
      <trkpt lat="0" lon="0">
        <time>2020-12-06T08:13:19.417000+00:00</time>
      </trkpt>
      <trkpt lat="47.30179" lon="-1.35508">
        <ele>6</ele>
        <time>2020-12-06T08:13:20.375000+00:00</time>
      </trkpt>
      <trkpt lat="0" lon="0">
        <time>2020-12-06T08:13:20.383000+00:00</time>
      </trkpt>
      <trkpt lat="0" lon="0">
        <time>2020-12-06T08:13:20.386000+00:00</time>
      </trkpt>
      <trkpt lat="0" lon="0">
        <time>2020-12-06T08:13:20.389000+00:00</time>
      </trkpt>
      <trkpt lat="47.30182" lon="-1.355">
        <ele>6</ele>
        <time>2020-12-06T08:13:21.432000+00:00</time>
      </trkpt>
      <trkpt lat="0" lon="0">
        <time>2020-12-06T08:13:21.440000+00:00</time>
      </trkpt>
      <trkpt lat="0" lon="0">
        <time>2020-12-06T08:13:21.448000+00:00</time>
      </trkpt>
      <trkpt lat="0" lon="0">
        <time>2020-12-06T08:13:21.450000+00:00</time>
      </trkpt>
      <trkpt lat="47.30186" lon="-1.35492">
        <ele>6</ele>
        <time>2020-12-06T08:13:22.442000+00:00</time>
      </trkpt>
      <trkpt lat="0" lon="0">
        <time>2020-12-06T08:13:22.456000+00:00</time>
      </trkpt>
      <trkpt lat="0" lon="0">
        <time>2020-12-06T08:13:22.466000+00:00</time>
      </trkpt>
      <trkpt lat="0" lon="0">
        <time>2020-12-06T08:13:22.469000+00:00</time>
      </trkpt>
      <trkpt lat="47.3019" lon="-1.35483">
        <ele>6</ele>
        <time>2020-12-06T08:13:23.446000+00:00</time>
      </trkpt>
      <trkpt lat="0" lon="0">
        <time>2020-12-06T08:13:23.451000+00:00</time>
      </trkpt>
      <trkpt lat="0" lon="0">
        <time>2020-12-06T08:13:23.457000+00:00</time>
      </trkpt>
      <trkpt lat="0" lon="0">
        <time>2020-12-06T08:13:23.459000+00:00</time>
      </trkpt>
      <trkpt lat="47.30193" lon="-1.35475">
        <ele>6</ele>
        <time>2020-12-06T08:13:24.398000+00:00</time>
      </trkpt>
      <trkpt lat="0" lon="0">
        <time>2020-12-06T08:13:24.412000+00:00</time>
      </trkpt>
      <trkpt lat="0" lon="0">
        <time>2020-12-06T08:13:24.419000+00:00</time>
      </trkpt>
      <trkpt lat="0" lon="0">
        <time>2020-12-06T08:13:24.422000+00:00</time>
      </trkpt>
      <trkpt lat="47.30197" lon="-1.35467">
        <ele>6</ele>
        <time>2020-12-06T08:13:25.427000+00:00</time>
      </trkpt>
      <trkpt lat="0" lon="0">
        <time>2020-12-06T08:13:25.430000+00:00</time>
      </trkpt>
      <trkpt lat="0" lon="0">
        <time>2020-12-06T08:13:25.440000+00:00</time>
      </trkpt>
      <trkpt lat="0" lon="0">
        <time>2020-12-06T08:13:25.443000+00:00</time>
      </trkpt>
      <trkpt lat="47.302" lon="-1.35458">
        <ele>6</ele>
        <time>2020-12-06T08:13:26.422000+00:00</time>
      </trkpt>
      <trkpt lat="0" lon="0">
        <time>2020-12-06T08:13:26.442000+00:00</time>
      </trkpt>
      <trkpt lat="0" lon="0">
        <time>2020-12-06T08:13:26.454000+00:00</time>
      </trkpt>
      <trkpt lat="0" lon="0">
        <time>2020-12-06T08:13:26.456000+00:00</time>
      </trkpt>
      <trkpt lat="47.30203" lon="-1.3545">
        <ele>6</ele>
        <time>2020-12-06T08:13:27.428000+00:00</time>
      </trkpt>
      <trkpt lat="0" lon="0">
        <time>2020-12-06T08:13:27.441000+00:00</time>
      </trkpt>
      <trkpt lat="0" lon="0">
        <time>2020-12-06T08:13:27.445000+00:00</time>
      </trkpt>
      <trkpt lat="0" lon="0">
        <time>2020-12-06T08:13:27.448000+00:00</time>
      </trkpt>
      <trkpt lat="47.30206" lon="-1.35442">
        <ele>6</ele>
        <time>2020-12-06T08:13:28.437000+00:00</time>
      </trkpt>
      <trkpt lat="0" lon="0">
        <time>2020-12-06T08:13:28.453000+00:00</time>
      </trkpt>
      <trkpt lat="0" lon="0">
        <time>2020-12-06T08:13:28.456000+00:00</time>
      </trkpt>
      <trkpt lat="0" lon="0">
        <time>2020-12-06T08:13:28.458000+00:00</time>
      </trkpt>
      <trkpt lat="47.3021" lon="-1.35433">
        <ele>6</ele>
        <time>2020-12-06T08:13:29.482000+00:00</time>
      </trkpt>
      <trkpt lat="0" lon="0">
        <time>2020-12-06T08:13:29.486000+00:00</time>
      </trkpt>
      <trkpt lat="0" lon="0">
        <time>2020-12-06T08:13:29.492000+00:00</time>
      </trkpt>
      <trkpt lat="0" lon="0">
        <time>2020-12-06T08:13:29.494000+00:00</time>
      </trkpt>
      <trkpt lat="47.30213" lon="-1.35425">
        <ele>6</ele>
        <time>2020-12-06T08:13:30.450000+00:00</time>
      </trkpt>
      <trkpt lat="0" lon="0">
        <time>2020-12-06T08:13:30.463000+00:00</time>
      </trkpt>
      <trkpt lat="0" lon="0">
        <time>2020-12-06T08:13:30.471000+00:00</time>
      </trkpt>
      <trkpt lat="0" lon="0">
        <time>2020-12-06T08:13:30.473000+00:00</time>
      </trkpt>
      <trkpt lat="47.30216" lon="-1.35417">
        <ele>6</ele>
        <time>2020-12-06T08:13:31.374000+00:00</time>
      </trkpt>
      <trkpt lat="0" lon="0">
        <time>2020-12-06T08:13:31.389000+00:00</time>
      </trkpt>
      <trkpt lat="0" lon="0">
        <time>2020-12-06T08:13:31.392000+00:00</time>
      </trkpt>
      <trkpt lat="0" lon="0">
        <time>2020-12-06T08:13:31.394000+00:00</time>
      </trkpt>
      <trkpt lat="47.30219" lon="-1.35409">
        <ele>5</ele>
        <time>2020-12-06T08:13:32.438000+00:00</time>
      </trkpt>
      <trkpt lat="0" lon="0">
        <time>2020-12-06T08:13:32.442000+00:00</time>
      </trkpt>
      <trkpt lat="0" lon="0">
        <time>2020-12-06T08:13:32.449000+00:00</time>
      </trkpt>
      <trkpt lat="0" lon="0">
        <time>2020-12-06T08:13:32.451000+00:00</time>
      </trkpt>
      <trkpt lat="47.30222" lon="-1.35401">
        <ele>5</ele>
        <time>2020-12-06T08:13:33.433000+00:00</time>
      </trkpt>
      <trkpt lat="0" lon="0">
        <time>2020-12-06T08:13:33.444000+00:00</time>
      </trkpt>
      <trkpt lat="0" lon="0">
        <time>2020-12-06T08:13:33.454000+00:00</time>
      </trkpt>
      <trkpt lat="0" lon="0">
        <time>2020-12-06T08:13:33.456000+00:00</time>
      </trkpt>
      <trkpt lat="47.30224" lon="-1.35393">
        <ele>5</ele>
        <time>2020-12-06T08:13:34.425000+00:00</time>
      </trkpt>
      <trkpt lat="0" lon="0">
        <time>2020-12-06T08:13:34.434000+00:00</time>
      </trkpt>
      <trkpt lat="0" lon="0">
        <time>2020-12-06T08:13:34.442000+00:00</time>
      </trkpt>
      <trkpt lat="0" lon="0">
        <time>2020-12-06T08:13:34.443000+00:00</time>
      </trkpt>
      <trkpt lat="47.30227" lon="-1.35385">
        <ele>5</ele>
        <time>2020-12-06T08:13:35.410000+00:00</time>
      </trkpt>
      <trkpt lat="0" lon="0">
        <time>2020-12-06T08:13:35.418000+00:00</time>
      </trkpt>
      <trkpt lat="0" lon="0">
        <time>2020-12-06T08:13:35.429000+00:00</time>
      </trkpt>
      <trkpt lat="0" lon="0">
        <time>2020-12-06T08:13:35.433000+00:00</time>
      </trkpt>
      <trkpt lat="47.3023" lon="-1.35378">
        <ele>5</ele>
        <time>2020-12-06T08:13:36.436000+00:00</time>
      </trkpt>
      <trkpt lat="0" lon="0">
        <time>2020-12-06T08:13:36.439000+00:00</time>
      </trkpt>
      <trkpt lat="0" lon="0">
        <time>2020-12-06T08:13:36.448000+00:00</time>
      </trkpt>
      <trkpt lat="0" lon="0">
        <time>2020-12-06T08:13:36.451000+00:00</time>
      </trkpt>
      <trkpt lat="47.30233" lon="-1.3537">
        <ele>5</ele>
        <time>2020-12-06T08:13:37.434000+00:00</time>
      </trkpt>
      <trkpt lat="0" lon="0">
        <time>2020-12-06T08:13:37.451000+00:00</time>
      </trkpt>
      <trkpt lat="0" lon="0">
        <time>2020-12-06T08:13:37.461000+00:00</time>
      </trkpt>
      <trkpt lat="0" lon="0">
        <time>2020-12-06T08:13:37.463000+00:00</time>
      </trkpt>
      <trkpt lat="47.30236" lon="-1.35363">
        <ele>5</ele>
        <time>2020-12-06T08:13:38.469000+00:00</time>
      </trkpt>
      <trkpt lat="0" lon="0">
        <time>2020-12-06T08:13:38.477000+00:00</time>
      </trkpt>
      <trkpt lat="0" lon="0">
        <time>2020-12-06T08:13:38.481000+00:00</time>
      </trkpt>
      <trkpt lat="0" lon="0">
        <time>2020-12-06T08:13:38.484000+00:00</time>
      </trkpt>
      <trkpt lat="47.30239" lon="-1.35355">
        <ele>5</ele>
        <time>2020-12-06T08:13:39.445000+00:00</time>
      </trkpt>
      <trkpt lat="0" lon="0">
        <time>2020-12-06T08:13:39.461000+00:00</time>
      </trkpt>
      <trkpt lat="0" lon="0">
        <time>2020-12-06T08:13:39.465000+00:00</time>
      </trkpt>
      <trkpt lat="0" lon="0">
        <time>2020-12-06T08:13:39.469000+00:00</time>
      </trkpt>
      <trkpt lat="47.30241" lon="-1.35348">
        <ele>5</ele>
        <time>2020-12-06T08:13:40.389000+00:00</time>
      </trkpt>
      <trkpt lat="0" lon="0">
        <time>2020-12-06T08:13:40.395000+00:00</time>
      </trkpt>
      <trkpt lat="0" lon="0">
        <time>2020-12-06T08:13:40.403000+00:00</time>
      </trkpt>
      <trkpt lat="0" lon="0">
        <time>2020-12-06T08:13:40.405000+00:00</time>
      </trkpt>
      <trkpt lat="47.30242" lon="-1.35339">
        <ele>4</ele>
        <time>2020-12-06T08:13:41.425000+00:00</time>
      </trkpt>
      <trkpt lat="0" lon="0">
        <time>2020-12-06T08:13:41.439000+00:00</time>
      </trkpt>
      <trkpt lat="0" lon="0">
        <time>2020-12-06T08:13:41.446000+00:00</time>
      </trkpt>
      <trkpt lat="0" lon="0">
        <time>2020-12-06T08:13:41.450000+00:00</time>
      </trkpt>
      <trkpt lat="47.30243" lon="-1.3533">
        <ele>4</ele>
        <time>2020-12-06T08:13:42.424000+00:00</time>
      </trkpt>
      <trkpt lat="0" lon="0">
        <time>2020-12-06T08:13:42.432000+00:00</time>
      </trkpt>
      <trkpt lat="0" lon="0">
        <time>2020-12-06T08:13:42.433000+00:00</time>
      </trkpt>
      <trkpt lat="0" lon="0">
        <time>2020-12-06T08:13:42.434000+00:00</time>
      </trkpt>
      <trkpt lat="47.30244" lon="-1.35321">
        <ele>5</ele>
        <time>2020-12-06T08:13:43.413000+00:00</time>
      </trkpt>
      <trkpt lat="0" lon="0">
        <time>2020-12-06T08:13:43.419000+00:00</time>
      </trkpt>
      <trkpt lat="0" lon="0">
        <time>2020-12-06T08:13:43.426000+00:00</time>
      </trkpt>
      <trkpt lat="0" lon="0">
        <time>2020-12-06T08:13:43.428000+00:00</time>
      </trkpt>
      <trkpt lat="47.30244" lon="-1.35312">
        <ele>5</ele>
        <time>2020-12-06T08:13:44.398000+00:00</time>
      </trkpt>
      <trkpt lat="0" lon="0">
        <time>2020-12-06T08:13:44.414000+00:00</time>
      </trkpt>
      <trkpt lat="0" lon="0">
        <time>2020-12-06T08:13:44.418000+00:00</time>
      </trkpt>
      <trkpt lat="0" lon="0">
        <time>2020-12-06T08:13:44.421000+00:00</time>
      </trkpt>
      <trkpt lat="47.30245" lon="-1.35302">
        <ele>5</ele>
        <time>2020-12-06T08:13:45.426000+00:00</time>
      </trkpt>
      <trkpt lat="0" lon="0">
        <time>2020-12-06T08:13:45.453000+00:00</time>
      </trkpt>
      <trkpt lat="0" lon="0">
        <time>2020-12-06T08:13:45.458000+00:00</time>
      </trkpt>
      <trkpt lat="0" lon="0">
        <time>2020-12-06T08:13:45.460000+00:00</time>
      </trkpt>
      <trkpt lat="47.30245" lon="-1.35292">
        <ele>5</ele>
        <time>2020-12-06T08:13:46.422000+00:00</time>
      </trkpt>
      <trkpt lat="0" lon="0">
        <time>2020-12-06T08:13:46.431000+00:00</time>
      </trkpt>
      <trkpt lat="0" lon="0">
        <time>2020-12-06T08:13:46.436000+00:00</time>
      </trkpt>
      <trkpt lat="0" lon="0">
        <time>2020-12-06T08:13:46.442000+00:00</time>
      </trkpt>
      <trkpt lat="47.30246" lon="-1.35283">
        <ele>5</ele>
        <time>2020-12-06T08:13:47.433000+00:00</time>
      </trkpt>
      <trkpt lat="0" lon="0">
        <time>2020-12-06T08:13:47.438000+00:00</time>
      </trkpt>
      <trkpt lat="0" lon="0">
        <time>2020-12-06T08:13:47.446000+00:00</time>
      </trkpt>
      <trkpt lat="0" lon="0">
        <time>2020-12-06T08:13:47.449000+00:00</time>
      </trkpt>
      <trkpt lat="47.30247" lon="-1.35274">
        <ele>5</ele>
        <time>2020-12-06T08:13:48.378000+00:00</time>
      </trkpt>
      <trkpt lat="0" lon="0">
        <time>2020-12-06T08:13:48.380000+00:00</time>
      </trkpt>
      <trkpt lat="0" lon="0">
        <time>2020-12-06T08:13:48.382000+00:00</time>
      </trkpt>
      <trkpt lat="0" lon="0">
        <time>2020-12-06T08:13:48.383000+00:00</time>
      </trkpt>
      <trkpt lat="47.30248" lon="-1.35265">
        <ele>5</ele>
        <time>2020-12-06T08:13:49.402000+00:00</time>
      </trkpt>
      <trkpt lat="0" lon="0">
        <time>2020-12-06T08:13:49.406000+00:00</time>
      </trkpt>
      <trkpt lat="0" lon="0">
        <time>2020-12-06T08:13:49.418000+00:00</time>
      </trkpt>
      <trkpt lat="0" lon="0">
        <time>2020-12-06T08:13:49.420000+00:00</time>
      </trkpt>
      <trkpt lat="47.30249" lon="-1.35256">
        <ele>5</ele>
        <time>2020-12-06T08:13:50.431000+00:00</time>
      </trkpt>
      <trkpt lat="0" lon="0">
        <time>2020-12-06T08:13:50.443000+00:00</time>
      </trkpt>
      <trkpt lat="0" lon="0">
        <time>2020-12-06T08:13:50.448000+00:00</time>
      </trkpt>
      <trkpt lat="0" lon="0">
        <time>2020-12-06T08:13:50.450000+00:00</time>
      </trkpt>
      <trkpt lat="47.30251" lon="-1.35247">
        <ele>6</ele>
        <time>2020-12-06T08:13:51.435000+00:00</time>
      </trkpt>
      <trkpt lat="0" lon="0">
        <time>2020-12-06T08:13:51.445000+00:00</time>
      </trkpt>
      <trkpt lat="0" lon="0">
        <time>2020-12-06T08:13:51.452000+00:00</time>
      </trkpt>
      <trkpt lat="0" lon="0">
        <time>2020-12-06T08:13:51.454000+00:00</time>
      </trkpt>
      <trkpt lat="47.30253" lon="-1.35238">
        <ele>6</ele>
        <time>2020-12-06T08:13:52.407000+00:00</time>
      </trkpt>
      <trkpt lat="0" lon="0">
        <time>2020-12-06T08:13:52.423000+00:00</time>
      </trkpt>
      <trkpt lat="0" lon="0">
        <time>2020-12-06T08:13:52.432000+00:00</time>
      </trkpt>
      <trkpt lat="0" lon="0">
        <time>2020-12-06T08:13:52.436000+00:00</time>
      </trkpt>
      <trkpt lat="47.30255" lon="-1.3523">
        <ele>6</ele>
        <time>2020-12-06T08:13:53.444000+00:00</time>
      </trkpt>
      <trkpt lat="0" lon="0">
        <time>2020-12-06T08:13:53.447000+00:00</time>
      </trkpt>
      <trkpt lat="0" lon="0">
        <time>2020-12-06T08:13:53.450000+00:00</time>
      </trkpt>
      <trkpt lat="0" lon="0">
        <time>2020-12-06T08:13:53.453000+00:00</time>
      </trkpt>
      <trkpt lat="47.30258" lon="-1.35221">
        <ele>6</ele>
        <time>2020-12-06T08:13:54.399000+00:00</time>
      </trkpt>
      <trkpt lat="0" lon="0">
        <time>2020-12-06T08:13:54.405000+00:00</time>
      </trkpt>
      <trkpt lat="0" lon="0">
        <time>2020-12-06T08:13:54.407000+00:00</time>
      </trkpt>
      <trkpt lat="0" lon="0">
        <time>2020-12-06T08:13:54.412000+00:00</time>
      </trkpt>
      <trkpt lat="47.30261" lon="-1.35213">
        <ele>6</ele>
        <time>2020-12-06T08:13:55.394000+00:00</time>
      </trkpt>
      <trkpt lat="0" lon="0">
        <time>2020-12-06T08:13:55.402000+00:00</time>
      </trkpt>
      <trkpt lat="0" lon="0">
        <time>2020-12-06T08:13:55.422000+00:00</time>
      </trkpt>
      <trkpt lat="0" lon="0">
        <time>2020-12-06T08:13:55.426000+00:00</time>
      </trkpt>
      <trkpt lat="47.30263" lon="-1.35204">
        <ele>6</ele>
        <time>2020-12-06T08:13:56.401000+00:00</time>
      </trkpt>
      <trkpt lat="0" lon="0">
        <time>2020-12-06T08:13:56.410000+00:00</time>
      </trkpt>
      <trkpt lat="0" lon="0">
        <time>2020-12-06T08:13:56.414000+00:00</time>
      </trkpt>
      <trkpt lat="0" lon="0">
        <time>2020-12-06T08:13:56.416000+00:00</time>
      </trkpt>
      <trkpt lat="47.30266" lon="-1.35196">
        <ele>6</ele>
        <time>2020-12-06T08:13:57.407000+00:00</time>
      </trkpt>
      <trkpt lat="0" lon="0">
        <time>2020-12-06T08:13:57.424000+00:00</time>
      </trkpt>
      <trkpt lat="0" lon="0">
        <time>2020-12-06T08:13:57.431000+00:00</time>
      </trkpt>
      <trkpt lat="0" lon="0">
        <time>2020-12-06T08:13:57.433000+00:00</time>
      </trkpt>
      <trkpt lat="47.30268" lon="-1.35187">
        <ele>6</ele>
        <time>2020-12-06T08:13:58.327000+00:00</time>
      </trkpt>
      <trkpt lat="0" lon="0">
        <time>2020-12-06T08:13:58.329000+00:00</time>
      </trkpt>
      <trkpt lat="0" lon="0">
        <time>2020-12-06T08:13:58.331000+00:00</time>
      </trkpt>
      <trkpt lat="0" lon="0">
        <time>2020-12-06T08:13:58.332000+00:00</time>
      </trkpt>
      <trkpt lat="47.30271" lon="-1.35179">
        <ele>6</ele>
        <time>2020-12-06T08:13:59.392000+00:00</time>
      </trkpt>
      <trkpt lat="0" lon="0">
        <time>2020-12-06T08:13:59.402000+00:00</time>
      </trkpt>
      <trkpt lat="0" lon="0">
        <time>2020-12-06T08:13:59.414000+00:00</time>
      </trkpt>
      <trkpt lat="0" lon="0">
        <time>2020-12-06T08:13:59.420000+00:00</time>
      </trkpt>
      <trkpt lat="47.30273" lon="-1.3517">
        <ele>6</ele>
        <time>2020-12-06T08:14:00.411000+00:00</time>
      </trkpt>
      <trkpt lat="0" lon="0">
        <time>2020-12-06T08:14:00.415000+00:00</time>
      </trkpt>
      <trkpt lat="0" lon="0">
        <time>2020-12-06T08:14:00.434000+00:00</time>
      </trkpt>
      <trkpt lat="0" lon="0">
        <time>2020-12-06T08:14:00.437000+00:00</time>
      </trkpt>
      <trkpt lat="47.30274" lon="-1.35162">
        <ele>5</ele>
        <time>2020-12-06T08:14:01.400000+00:00</time>
      </trkpt>
      <trkpt lat="0" lon="0">
        <time>2020-12-06T08:14:01.408000+00:00</time>
      </trkpt>
      <trkpt lat="0" lon="0">
        <time>2020-12-06T08:14:01.418000+00:00</time>
      </trkpt>
      <trkpt lat="0" lon="0">
        <time>2020-12-06T08:14:01.420000+00:00</time>
      </trkpt>
      <trkpt lat="47.30274" lon="-1.35154">
        <ele>5</ele>
        <time>2020-12-06T08:14:02.400000+00:00</time>
      </trkpt>
      <trkpt lat="0" lon="0">
        <time>2020-12-06T08:14:02.411000+00:00</time>
      </trkpt>
      <trkpt lat="0" lon="0">
        <time>2020-12-06T08:14:02.419000+00:00</time>
      </trkpt>
      <trkpt lat="0" lon="0">
        <time>2020-12-06T08:14:02.422000+00:00</time>
      </trkpt>
      <trkpt lat="47.30274" lon="-1.35146">
        <ele>5</ele>
        <time>2020-12-06T08:14:03.338000+00:00</time>
      </trkpt>
      <trkpt lat="0" lon="0">
        <time>2020-12-06T08:14:03.353000+00:00</time>
      </trkpt>
      <trkpt lat="0" lon="0">
        <time>2020-12-06T08:14:03.358000+00:00</time>
      </trkpt>
      <trkpt lat="0" lon="0">
        <time>2020-12-06T08:14:03.360000+00:00</time>
      </trkpt>
      <trkpt lat="47.30272" lon="-1.35139">
        <ele>5</ele>
        <time>2020-12-06T08:14:04.370000+00:00</time>
      </trkpt>
      <trkpt lat="0" lon="0">
        <time>2020-12-06T08:14:04.376000+00:00</time>
      </trkpt>
      <trkpt lat="0" lon="0">
        <time>2020-12-06T08:14:04.389000+00:00</time>
      </trkpt>
      <trkpt lat="0" lon="0">
        <time>2020-12-06T08:14:04.398000+00:00</time>
      </trkpt>
      <trkpt lat="47.30269" lon="-1.35133">
        <ele>5</ele>
        <time>2020-12-06T08:14:05.378000+00:00</time>
      </trkpt>
      <trkpt lat="0" lon="0">
        <time>2020-12-06T08:14:05.389000+00:00</time>
      </trkpt>
      <trkpt lat="0" lon="0">
        <time>2020-12-06T08:14:05.393000+00:00</time>
      </trkpt>
      <trkpt lat="0" lon="0">
        <time>2020-12-06T08:14:05.395000+00:00</time>
      </trkpt>
      <trkpt lat="47.30266" lon="-1.35127">
        <ele>5</ele>
        <time>2020-12-06T08:14:06.397000+00:00</time>
      </trkpt>
      <trkpt lat="0" lon="0">
        <time>2020-12-06T08:14:06.403000+00:00</time>
      </trkpt>
      <trkpt lat="0" lon="0">
        <time>2020-12-06T08:14:06.408000+00:00</time>
      </trkpt>
      <trkpt lat="0" lon="0">
        <time>2020-12-06T08:14:06.410000+00:00</time>
      </trkpt>
      <trkpt lat="47.30263" lon="-1.35122">
        <ele>5</ele>
        <time>2020-12-06T08:14:07.379000+00:00</time>
      </trkpt>
      <trkpt lat="0" lon="0">
        <time>2020-12-06T08:14:07.380000+00:00</time>
      </trkpt>
      <trkpt lat="0" lon="0">
        <time>2020-12-06T08:14:07.382000+00:00</time>
      </trkpt>
      <trkpt lat="47.3026" lon="-1.35117">
        <ele>5</ele>
        <time>2020-12-06T08:14:08.332000+00:00</time>
      </trkpt>
      <trkpt lat="0" lon="0">
        <time>2020-12-06T08:14:08.339000+00:00</time>
      </trkpt>
      <trkpt lat="0" lon="0">
        <time>2020-12-06T08:14:08.344000+00:00</time>
      </trkpt>
      <trkpt lat="0" lon="0">
        <time>2020-12-06T08:14:08.345000+00:00</time>
      </trkpt>
      <trkpt lat="47.30258" lon="-1.35111">
        <ele>5</ele>
        <time>2020-12-06T08:14:09.376000+00:00</time>
      </trkpt>
      <trkpt lat="0" lon="0">
        <time>2020-12-06T08:14:09.379000+00:00</time>
      </trkpt>
      <trkpt lat="0" lon="0">
        <time>2020-12-06T08:14:09.383000+00:00</time>
      </trkpt>
      <trkpt lat="0" lon="0">
        <time>2020-12-06T08:14:09.385000+00:00</time>
      </trkpt>
      <trkpt lat="47.30256" lon="-1.35106">
        <ele>5</ele>
        <time>2020-12-06T08:14:10.363000+00:00</time>
      </trkpt>
      <trkpt lat="0" lon="0">
        <time>2020-12-06T08:14:10.375000+00:00</time>
      </trkpt>
      <trkpt lat="0" lon="0">
        <time>2020-12-06T08:14:10.379000+00:00</time>
      </trkpt>
      <trkpt lat="0" lon="0">
        <time>2020-12-06T08:14:10.382000+00:00</time>
      </trkpt>
      <trkpt lat="47.30255" lon="-1.351">
        <ele>5</ele>
        <time>2020-12-06T08:14:11.372000+00:00</time>
      </trkpt>
      <trkpt lat="0" lon="0">
        <time>2020-12-06T08:14:11.380000+00:00</time>
      </trkpt>
      <trkpt lat="0" lon="0">
        <time>2020-12-06T08:14:11.391000+00:00</time>
      </trkpt>
      <trkpt lat="0" lon="0">
        <time>2020-12-06T08:14:11.393000+00:00</time>
      </trkpt>
      <trkpt lat="47.30254" lon="-1.35094">
        <ele>5</ele>
        <time>2020-12-06T08:14:12.391000+00:00</time>
      </trkpt>
      <trkpt lat="0" lon="0">
        <time>2020-12-06T08:14:12.395000+00:00</time>
      </trkpt>
      <trkpt lat="0" lon="0">
        <time>2020-12-06T08:14:12.402000+00:00</time>
      </trkpt>
      <trkpt lat="0" lon="0">
        <time>2020-12-06T08:14:12.405000+00:00</time>
      </trkpt>
      <trkpt lat="47.30254" lon="-1.35089">
        <ele>5</ele>
        <time>2020-12-06T08:14:13.400000+00:00</time>
      </trkpt>
      <trkpt lat="0" lon="0">
        <time>2020-12-06T08:14:13.406000+00:00</time>
      </trkpt>
      <trkpt lat="0" lon="0">
        <time>2020-12-06T08:14:13.411000+00:00</time>
      </trkpt>
      <trkpt lat="0" lon="0">
        <time>2020-12-06T08:14:13.413000+00:00</time>
      </trkpt>
      <trkpt lat="47.30254" lon="-1.35083">
        <ele>5</ele>
        <time>2020-12-06T08:14:14.407000+00:00</time>
      </trkpt>
      <trkpt lat="0" lon="0">
        <time>2020-12-06T08:14:14.413000+00:00</time>
      </trkpt>
      <trkpt lat="0" lon="0">
        <time>2020-12-06T08:14:14.416000+00:00</time>
      </trkpt>
      <trkpt lat="0" lon="0">
        <time>2020-12-06T08:14:14.418000+00:00</time>
      </trkpt>
      <trkpt lat="47.30254" lon="-1.35077">
        <ele>5</ele>
        <time>2020-12-06T08:14:15.421000+00:00</time>
      </trkpt>
      <trkpt lat="0" lon="0">
        <time>2020-12-06T08:14:15.428000+00:00</time>
      </trkpt>
      <trkpt lat="0" lon="0">
        <time>2020-12-06T08:14:15.446000+00:00</time>
      </trkpt>
      <trkpt lat="0" lon="0">
        <time>2020-12-06T08:14:15.448000+00:00</time>
      </trkpt>
      <trkpt lat="47.30254" lon="-1.35072">
        <ele>5</ele>
        <time>2020-12-06T08:14:16.394000+00:00</time>
      </trkpt>
      <trkpt lat="0" lon="0">
        <time>2020-12-06T08:14:16.397000+00:00</time>
      </trkpt>
      <trkpt lat="0" lon="0">
        <time>2020-12-06T08:14:16.401000+00:00</time>
      </trkpt>
      <trkpt lat="0" lon="0">
        <time>2020-12-06T08:14:16.404000+00:00</time>
      </trkpt>
      <trkpt lat="47.30254" lon="-1.35066">
        <ele>5</ele>
        <time>2020-12-06T08:14:17.402000+00:00</time>
      </trkpt>
      <trkpt lat="0" lon="0">
        <time>2020-12-06T08:14:17.414000+00:00</time>
      </trkpt>
      <trkpt lat="0" lon="0">
        <time>2020-12-06T08:14:17.420000+00:00</time>
      </trkpt>
      <trkpt lat="0" lon="0">
        <time>2020-12-06T08:14:17.424000+00:00</time>
      </trkpt>
      <trkpt lat="47.30253" lon="-1.35061">
        <ele>5</ele>
        <time>2020-12-06T08:14:18.433000+00:00</time>
      </trkpt>
      <trkpt lat="0" lon="0">
        <time>2020-12-06T08:14:18.437000+00:00</time>
      </trkpt>
      <trkpt lat="0" lon="0">
        <time>2020-12-06T08:14:18.442000+00:00</time>
      </trkpt>
      <trkpt lat="0" lon="0">
        <time>2020-12-06T08:14:18.444000+00:00</time>
      </trkpt>
      <trkpt lat="47.30252" lon="-1.35056">
        <ele>5</ele>
        <time>2020-12-06T08:14:19.443000+00:00</time>
      </trkpt>
      <trkpt lat="0" lon="0">
        <time>2020-12-06T08:14:19.454000+00:00</time>
      </trkpt>
      <trkpt lat="0" lon="0">
        <time>2020-12-06T08:14:19.458000+00:00</time>
      </trkpt>
      <trkpt lat="0" lon="0">
        <time>2020-12-06T08:14:19.461000+00:00</time>
      </trkpt>
      <trkpt lat="47.30251" lon="-1.35051">
        <ele>5</ele>
        <time>2020-12-06T08:14:20.326000+00:00</time>
      </trkpt>
      <trkpt lat="0" lon="0">
        <time>2020-12-06T08:14:20.329000+00:00</time>
      </trkpt>
      <trkpt lat="0" lon="0">
        <time>2020-12-06T08:14:20.332000+00:00</time>
      </trkpt>
      <trkpt lat="0" lon="0">
        <time>2020-12-06T08:14:20.333000+00:00</time>
      </trkpt>
      <trkpt lat="47.3025" lon="-1.35046">
        <ele>5</ele>
        <time>2020-12-06T08:14:21.417000+00:00</time>
      </trkpt>
      <trkpt lat="0" lon="0">
        <time>2020-12-06T08:14:21.435000+00:00</time>
      </trkpt>
      <trkpt lat="0" lon="0">
        <time>2020-12-06T08:14:21.439000+00:00</time>
      </trkpt>
      <trkpt lat="0" lon="0">
        <time>2020-12-06T08:14:21.441000+00:00</time>
      </trkpt>
      <trkpt lat="47.30248" lon="-1.35041">
        <ele>6</ele>
        <time>2020-12-06T08:14:22.423000+00:00</time>
      </trkpt>
      <trkpt lat="0" lon="0">
        <time>2020-12-06T08:14:22.426000+00:00</time>
      </trkpt>
      <trkpt lat="0" lon="0">
        <time>2020-12-06T08:14:22.432000+00:00</time>
      </trkpt>
      <trkpt lat="0" lon="0">
        <time>2020-12-06T08:14:22.436000+00:00</time>
      </trkpt>
      <trkpt lat="47.30246" lon="-1.35036">
        <ele>6</ele>
        <time>2020-12-06T08:14:23.386000+00:00</time>
      </trkpt>
      <trkpt lat="0" lon="0">
        <time>2020-12-06T08:14:23.408000+00:00</time>
      </trkpt>
      <trkpt lat="0" lon="0">
        <time>2020-12-06T08:14:23.412000+00:00</time>
      </trkpt>
      <trkpt lat="0" lon="0">
        <time>2020-12-06T08:14:23.413000+00:00</time>
      </trkpt>
      <trkpt lat="47.30244" lon="-1.35031">
        <ele>6</ele>
        <time>2020-12-06T08:14:24.440000+00:00</time>
      </trkpt>
      <trkpt lat="0" lon="0">
        <time>2020-12-06T08:14:24.443000+00:00</time>
      </trkpt>
      <trkpt lat="0" lon="0">
        <time>2020-12-06T08:14:24.451000+00:00</time>
      </trkpt>
      <trkpt lat="0" lon="0">
        <time>2020-12-06T08:14:24.458000+00:00</time>
      </trkpt>
      <trkpt lat="47.30241" lon="-1.35026">
        <ele>6</ele>
        <time>2020-12-06T08:14:25.419000+00:00</time>
      </trkpt>
      <trkpt lat="0" lon="0">
        <time>2020-12-06T08:14:25.435000+00:00</time>
      </trkpt>
      <trkpt lat="0" lon="0">
        <time>2020-12-06T08:14:25.442000+00:00</time>
      </trkpt>
      <trkpt lat="0" lon="0">
        <time>2020-12-06T08:14:25.449000+00:00</time>
      </trkpt>
      <trkpt lat="47.30239" lon="-1.35022">
        <ele>6</ele>
        <time>2020-12-06T08:14:26.341000+00:00</time>
      </trkpt>
      <trkpt lat="0" lon="0">
        <time>2020-12-06T08:14:26.362000+00:00</time>
      </trkpt>
      <trkpt lat="0" lon="0">
        <time>2020-12-06T08:14:26.366000+00:00</time>
      </trkpt>
      <trkpt lat="0" lon="0">
        <time>2020-12-06T08:14:26.369000+00:00</time>
      </trkpt>
      <trkpt lat="47.30236" lon="-1.35017">
        <ele>6</ele>
        <time>2020-12-06T08:14:27.359000+00:00</time>
      </trkpt>
      <trkpt lat="0" lon="0">
        <time>2020-12-06T08:14:27.361000+00:00</time>
      </trkpt>
      <trkpt lat="0" lon="0">
        <time>2020-12-06T08:14:27.370000+00:00</time>
      </trkpt>
      <trkpt lat="0" lon="0">
        <time>2020-12-06T08:14:27.372000+00:00</time>
      </trkpt>
      <trkpt lat="47.30233" lon="-1.35012">
        <ele>6</ele>
        <time>2020-12-06T08:14:28.361000+00:00</time>
      </trkpt>
      <trkpt lat="0" lon="0">
        <time>2020-12-06T08:14:28.370000+00:00</time>
      </trkpt>
      <trkpt lat="0" lon="0">
        <time>2020-12-06T08:14:28.375000+00:00</time>
      </trkpt>
      <trkpt lat="0" lon="0">
        <time>2020-12-06T08:14:28.377000+00:00</time>
      </trkpt>
      <trkpt lat="47.3023" lon="-1.35006">
        <ele>6</ele>
        <time>2020-12-06T08:14:29.363000+00:00</time>
      </trkpt>
      <trkpt lat="0" lon="0">
        <time>2020-12-06T08:14:29.375000+00:00</time>
      </trkpt>
      <trkpt lat="0" lon="0">
        <time>2020-12-06T08:14:29.378000+00:00</time>
      </trkpt>
      <trkpt lat="0" lon="0">
        <time>2020-12-06T08:14:29.382000+00:00</time>
      </trkpt>
      <trkpt lat="47.30226" lon="-1.35001">
        <ele>6</ele>
        <time>2020-12-06T08:14:30.428000+00:00</time>
      </trkpt>
      <trkpt lat="0" lon="0">
        <time>2020-12-06T08:14:30.445000+00:00</time>
      </trkpt>
      <trkpt lat="0" lon="0">
        <time>2020-12-06T08:14:30.454000+00:00</time>
      </trkpt>
      <trkpt lat="0" lon="0">
        <time>2020-12-06T08:14:30.456000+00:00</time>
      </trkpt>
      <trkpt lat="47.30223" lon="-1.34995">
        <ele>6</ele>
        <time>2020-12-06T08:14:31.457000+00:00</time>
      </trkpt>
      <trkpt lat="0" lon="0">
        <time>2020-12-06T08:14:31.466000+00:00</time>
      </trkpt>
      <trkpt lat="0" lon="0">
        <time>2020-12-06T08:14:31.473000+00:00</time>
      </trkpt>
      <trkpt lat="0" lon="0">
        <time>2020-12-06T08:14:31.481000+00:00</time>
      </trkpt>
      <trkpt lat="47.3022" lon="-1.34988">
        <ele>6</ele>
        <time>2020-12-06T08:14:32.440000+00:00</time>
      </trkpt>
      <trkpt lat="0" lon="0">
        <time>2020-12-06T08:14:32.445000+00:00</time>
      </trkpt>
      <trkpt lat="0" lon="0">
        <time>2020-12-06T08:14:32.452000+00:00</time>
      </trkpt>
      <trkpt lat="0" lon="0">
        <time>2020-12-06T08:14:32.454000+00:00</time>
      </trkpt>
      <trkpt lat="47.30218" lon="-1.34982">
        <ele>6</ele>
        <time>2020-12-06T08:14:33.406000+00:00</time>
      </trkpt>
      <trkpt lat="0" lon="0">
        <time>2020-12-06T08:14:33.418000+00:00</time>
      </trkpt>
      <trkpt lat="0" lon="0">
        <time>2020-12-06T08:14:33.422000+00:00</time>
      </trkpt>
      <trkpt lat="0" lon="0">
        <time>2020-12-06T08:14:33.426000+00:00</time>
      </trkpt>
      <trkpt lat="47.30215" lon="-1.34975">
        <ele>6</ele>
        <time>2020-12-06T08:14:34.430000+00:00</time>
      </trkpt>
      <trkpt lat="0" lon="0">
        <time>2020-12-06T08:14:34.435000+00:00</time>
      </trkpt>
      <trkpt lat="0" lon="0">
        <time>2020-12-06T08:14:34.441000+00:00</time>
      </trkpt>
      <trkpt lat="0" lon="0">
        <time>2020-12-06T08:14:34.443000+00:00</time>
      </trkpt>
      <trkpt lat="47.30213" lon="-1.34968">
        <ele>6</ele>
        <time>2020-12-06T08:14:35.434000+00:00</time>
      </trkpt>
      <trkpt lat="0" lon="0">
        <time>2020-12-06T08:14:35.438000+00:00</time>
      </trkpt>
      <trkpt lat="0" lon="0">
        <time>2020-12-06T08:14:35.444000+00:00</time>
      </trkpt>
      <trkpt lat="0" lon="0">
        <time>2020-12-06T08:14:35.447000+00:00</time>
      </trkpt>
      <trkpt lat="47.30211" lon="-1.34961">
        <ele>6</ele>
        <time>2020-12-06T08:14:36.431000+00:00</time>
      </trkpt>
      <trkpt lat="0" lon="0">
        <time>2020-12-06T08:14:36.437000+00:00</time>
      </trkpt>
      <trkpt lat="0" lon="0">
        <time>2020-12-06T08:14:36.440000+00:00</time>
      </trkpt>
      <trkpt lat="0" lon="0">
        <time>2020-12-06T08:14:36.441000+00:00</time>
      </trkpt>
      <trkpt lat="47.30209" lon="-1.34953">
        <ele>6</ele>
        <time>2020-12-06T08:14:37.439000+00:00</time>
      </trkpt>
      <trkpt lat="0" lon="0">
        <time>2020-12-06T08:14:37.449000+00:00</time>
      </trkpt>
      <trkpt lat="0" lon="0">
        <time>2020-12-06T08:14:37.453000+00:00</time>
      </trkpt>
      <trkpt lat="0" lon="0">
        <time>2020-12-06T08:14:37.458000+00:00</time>
      </trkpt>
      <trkpt lat="47.30207" lon="-1.34946">
        <ele>6</ele>
        <time>2020-12-06T08:14:38.424000+00:00</time>
      </trkpt>
      <trkpt lat="0" lon="0">
        <time>2020-12-06T08:14:38.431000+00:00</time>
      </trkpt>
      <trkpt lat="0" lon="0">
        <time>2020-12-06T08:14:38.434000+00:00</time>
      </trkpt>
      <trkpt lat="0" lon="0">
        <time>2020-12-06T08:14:38.436000+00:00</time>
      </trkpt>
      <trkpt lat="47.30205" lon="-1.34939">
        <ele>6</ele>
        <time>2020-12-06T08:14:39.438000+00:00</time>
      </trkpt>
      <trkpt lat="0" lon="0">
        <time>2020-12-06T08:14:39.442000+00:00</time>
      </trkpt>
      <trkpt lat="0" lon="0">
        <time>2020-12-06T08:14:39.449000+00:00</time>
      </trkpt>
      <trkpt lat="0" lon="0">
        <time>2020-12-06T08:14:39.451000+00:00</time>
      </trkpt>
      <trkpt lat="47.30203" lon="-1.34932">
        <ele>6</ele>
        <time>2020-12-06T08:14:40.400000+00:00</time>
      </trkpt>
      <trkpt lat="0" lon="0">
        <time>2020-12-06T08:14:40.412000+00:00</time>
      </trkpt>
      <trkpt lat="0" lon="0">
        <time>2020-12-06T08:14:40.417000+00:00</time>
      </trkpt>
      <trkpt lat="0" lon="0">
        <time>2020-12-06T08:14:40.420000+00:00</time>
      </trkpt>
      <trkpt lat="47.302" lon="-1.34925">
        <ele>6</ele>
        <time>2020-12-06T08:14:41.417000+00:00</time>
      </trkpt>
      <trkpt lat="0" lon="0">
        <time>2020-12-06T08:14:41.435000+00:00</time>
      </trkpt>
      <trkpt lat="0" lon="0">
        <time>2020-12-06T08:14:41.439000+00:00</time>
      </trkpt>
      <trkpt lat="0" lon="0">
        <time>2020-12-06T08:14:41.444000+00:00</time>
      </trkpt>
      <trkpt lat="47.30198" lon="-1.34919">
        <ele>6</ele>
        <time>2020-12-06T08:14:42.468000+00:00</time>
      </trkpt>
      <trkpt lat="0" lon="0">
        <time>2020-12-06T08:14:42.485000+00:00</time>
      </trkpt>
      <trkpt lat="0" lon="0">
        <time>2020-12-06T08:14:42.490000+00:00</time>
      </trkpt>
      <trkpt lat="0" lon="0">
        <time>2020-12-06T08:14:42.493000+00:00</time>
      </trkpt>
      <trkpt lat="47.30196" lon="-1.34914">
        <ele>6</ele>
        <time>2020-12-06T08:14:43.413000+00:00</time>
      </trkpt>
      <trkpt lat="0" lon="0">
        <time>2020-12-06T08:14:43.431000+00:00</time>
      </trkpt>
      <trkpt lat="0" lon="0">
        <time>2020-12-06T08:14:43.434000+00:00</time>
      </trkpt>
      <trkpt lat="0" lon="0">
        <time>2020-12-06T08:14:43.436000+00:00</time>
      </trkpt>
      <trkpt lat="47.30193" lon="-1.34909">
        <ele>6</ele>
        <time>2020-12-06T08:14:44.369000+00:00</time>
      </trkpt>
      <trkpt lat="0" lon="0">
        <time>2020-12-06T08:14:44.379000+00:00</time>
      </trkpt>
      <trkpt lat="0" lon="0">
        <time>2020-12-06T08:14:44.386000+00:00</time>
      </trkpt>
      <trkpt lat="0" lon="0">
        <time>2020-12-06T08:14:44.388000+00:00</time>
      </trkpt>
      <trkpt lat="47.3019" lon="-1.34905">
        <ele>6</ele>
        <time>2020-12-06T08:14:45.346000+00:00</time>
      </trkpt>
      <trkpt lat="0" lon="0">
        <time>2020-12-06T08:14:45.352000+00:00</time>
      </trkpt>
      <trkpt lat="0" lon="0">
        <time>2020-12-06T08:14:45.359000+00:00</time>
      </trkpt>
      <trkpt lat="0" lon="0">
        <time>2020-12-06T08:14:45.373000+00:00</time>
      </trkpt>
      <trkpt lat="47.30187" lon="-1.34901">
        <ele>6</ele>
        <time>2020-12-06T08:14:46.418000+00:00</time>
      </trkpt>
      <trkpt lat="0" lon="0">
        <time>2020-12-06T08:14:46.433000+00:00</time>
      </trkpt>
      <trkpt lat="0" lon="0">
        <time>2020-12-06T08:14:46.443000+00:00</time>
      </trkpt>
      <trkpt lat="0" lon="0">
        <time>2020-12-06T08:14:46.448000+00:00</time>
      </trkpt>
      <trkpt lat="47.30185" lon="-1.34895">
        <ele>6</ele>
        <time>2020-12-06T08:14:47.410000+00:00</time>
      </trkpt>
      <trkpt lat="0" lon="0">
        <time>2020-12-06T08:14:47.421000+00:00</time>
      </trkpt>
      <trkpt lat="0" lon="0">
        <time>2020-12-06T08:14:47.434000+00:00</time>
      </trkpt>
      <trkpt lat="0" lon="0">
        <time>2020-12-06T08:14:47.439000+00:00</time>
      </trkpt>
      <trkpt lat="47.30182" lon="-1.3489">
        <ele>6</ele>
        <time>2020-12-06T08:14:48.347000+00:00</time>
      </trkpt>
      <trkpt lat="0" lon="0">
        <time>2020-12-06T08:14:48.350000+00:00</time>
      </trkpt>
      <trkpt lat="0" lon="0">
        <time>2020-12-06T08:14:48.361000+00:00</time>
      </trkpt>
      <trkpt lat="0" lon="0">
        <time>2020-12-06T08:14:48.362000+00:00</time>
      </trkpt>
      <trkpt lat="47.3018" lon="-1.34884">
        <ele>6</ele>
        <time>2020-12-06T08:14:49.397000+00:00</time>
      </trkpt>
      <trkpt lat="0" lon="0">
        <time>2020-12-06T08:14:49.413000+00:00</time>
      </trkpt>
      <trkpt lat="0" lon="0">
        <time>2020-12-06T08:14:49.428000+00:00</time>
      </trkpt>
      <trkpt lat="0" lon="0">
        <time>2020-12-06T08:14:49.432000+00:00</time>
      </trkpt>
      <trkpt lat="47.30179" lon="-1.34877">
        <ele>6</ele>
        <time>2020-12-06T08:14:50.416000+00:00</time>
      </trkpt>
      <trkpt lat="0" lon="0">
        <time>2020-12-06T08:14:50.431000+00:00</time>
      </trkpt>
      <trkpt lat="0" lon="0">
        <time>2020-12-06T08:14:50.433000+00:00</time>
      </trkpt>
      <trkpt lat="0" lon="0">
        <time>2020-12-06T08:14:50.434000+00:00</time>
      </trkpt>
      <trkpt lat="47.30177" lon="-1.34871">
        <ele>6</ele>
        <time>2020-12-06T08:14:51.392000+00:00</time>
      </trkpt>
      <trkpt lat="0" lon="0">
        <time>2020-12-06T08:14:51.398000+00:00</time>
      </trkpt>
      <trkpt lat="0" lon="0">
        <time>2020-12-06T08:14:51.402000+00:00</time>
      </trkpt>
      <trkpt lat="0" lon="0">
        <time>2020-12-06T08:14:51.405000+00:00</time>
      </trkpt>
      <trkpt lat="47.30175" lon="-1.34864">
        <ele>6</ele>
        <time>2020-12-06T08:14:52.400000+00:00</time>
      </trkpt>
      <trkpt lat="0" lon="0">
        <time>2020-12-06T08:14:52.406000+00:00</time>
      </trkpt>
      <trkpt lat="0" lon="0">
        <time>2020-12-06T08:14:52.410000+00:00</time>
      </trkpt>
      <trkpt lat="0" lon="0">
        <time>2020-12-06T08:14:52.413000+00:00</time>
      </trkpt>
      <trkpt lat="47.30173" lon="-1.34857">
        <ele>6</ele>
        <time>2020-12-06T08:14:53.371000+00:00</time>
      </trkpt>
      <trkpt lat="0" lon="0">
        <time>2020-12-06T08:14:53.376000+00:00</time>
      </trkpt>
      <trkpt lat="0" lon="0">
        <time>2020-12-06T08:14:53.384000+00:00</time>
      </trkpt>
      <trkpt lat="0" lon="0">
        <time>2020-12-06T08:14:53.386000+00:00</time>
      </trkpt>
      <trkpt lat="47.30172" lon="-1.34851">
        <ele>6</ele>
        <time>2020-12-06T08:14:54.434000+00:00</time>
      </trkpt>
      <trkpt lat="0" lon="0">
        <time>2020-12-06T08:14:54.452000+00:00</time>
      </trkpt>
      <trkpt lat="0" lon="0">
        <time>2020-12-06T08:14:54.461000+00:00</time>
      </trkpt>
      <trkpt lat="0" lon="0">
        <time>2020-12-06T08:14:54.462000+00:00</time>
      </trkpt>
      <trkpt lat="47.3017" lon="-1.34844">
        <ele>6</ele>
        <time>2020-12-06T08:14:55.442000+00:00</time>
      </trkpt>
      <trkpt lat="0" lon="0">
        <time>2020-12-06T08:14:55.446000+00:00</time>
      </trkpt>
      <trkpt lat="0" lon="0">
        <time>2020-12-06T08:14:55.459000+00:00</time>
      </trkpt>
      <trkpt lat="0" lon="0">
        <time>2020-12-06T08:14:55.462000+00:00</time>
      </trkpt>
      <trkpt lat="47.30169" lon="-1.34838">
        <ele>6</ele>
        <time>2020-12-06T08:14:56.387000+00:00</time>
      </trkpt>
      <trkpt lat="0" lon="0">
        <time>2020-12-06T08:14:56.406000+00:00</time>
      </trkpt>
      <trkpt lat="0" lon="0">
        <time>2020-12-06T08:14:56.411000+00:00</time>
      </trkpt>
      <trkpt lat="0" lon="0">
        <time>2020-12-06T08:14:56.413000+00:00</time>
      </trkpt>
      <trkpt lat="47.30167" lon="-1.34832">
        <ele>6</ele>
        <time>2020-12-06T08:14:57.433000+00:00</time>
      </trkpt>
      <trkpt lat="0" lon="0">
        <time>2020-12-06T08:14:57.444000+00:00</time>
      </trkpt>
      <trkpt lat="0" lon="0">
        <time>2020-12-06T08:14:57.447000+00:00</time>
      </trkpt>
      <trkpt lat="0" lon="0">
        <time>2020-12-06T08:14:57.459000+00:00</time>
      </trkpt>
      <trkpt lat="47.30165" lon="-1.34826">
        <ele>6</ele>
        <time>2020-12-06T08:14:58.409000+00:00</time>
      </trkpt>
      <trkpt lat="0" lon="0">
        <time>2020-12-06T08:14:58.414000+00:00</time>
      </trkpt>
      <trkpt lat="0" lon="0">
        <time>2020-12-06T08:14:58.421000+00:00</time>
      </trkpt>
      <trkpt lat="0" lon="0">
        <time>2020-12-06T08:14:58.423000+00:00</time>
      </trkpt>
      <trkpt lat="47.30164" lon="-1.3482">
        <ele>6</ele>
        <time>2020-12-06T08:14:59.424000+00:00</time>
      </trkpt>
      <trkpt lat="0" lon="0">
        <time>2020-12-06T08:14:59.429000+00:00</time>
      </trkpt>
      <trkpt lat="0" lon="0">
        <time>2020-12-06T08:14:59.435000+00:00</time>
      </trkpt>
      <trkpt lat="0" lon="0">
        <time>2020-12-06T08:14:59.437000+00:00</time>
      </trkpt>
      <trkpt lat="47.30162" lon="-1.34814">
        <ele>6</ele>
        <time>2020-12-06T08:15:00.393000+00:00</time>
      </trkpt>
      <trkpt lat="0" lon="0">
        <time>2020-12-06T08:15:00.397000+00:00</time>
      </trkpt>
      <trkpt lat="0" lon="0">
        <time>2020-12-06T08:15:00.400000+00:00</time>
      </trkpt>
      <trkpt lat="0" lon="0">
        <time>2020-12-06T08:15:00.401000+00:00</time>
      </trkpt>
      <trkpt lat="47.3016" lon="-1.34808">
        <ele>6</ele>
        <time>2020-12-06T08:15:01.447000+00:00</time>
      </trkpt>
      <trkpt lat="0" lon="0">
        <time>2020-12-06T08:15:01.458000+00:00</time>
      </trkpt>
      <trkpt lat="0" lon="0">
        <time>2020-12-06T08:15:01.463000+00:00</time>
      </trkpt>
      <trkpt lat="0" lon="0">
        <time>2020-12-06T08:15:01.470000+00:00</time>
      </trkpt>
      <trkpt lat="47.30159" lon="-1.34801">
        <ele>6</ele>
        <time>2020-12-06T08:15:02.408000+00:00</time>
      </trkpt>
      <trkpt lat="0" lon="0">
        <time>2020-12-06T08:15:02.434000+00:00</time>
      </trkpt>
      <trkpt lat="0" lon="0">
        <time>2020-12-06T08:15:02.439000+00:00</time>
      </trkpt>
      <trkpt lat="0" lon="0">
        <time>2020-12-06T08:15:02.441000+00:00</time>
      </trkpt>
      <trkpt lat="47.30157" lon="-1.34794">
        <ele>6</ele>
        <time>2020-12-06T08:15:03.336000+00:00</time>
      </trkpt>
      <trkpt lat="0" lon="0">
        <time>2020-12-06T08:15:03.346000+00:00</time>
      </trkpt>
      <trkpt lat="0" lon="0">
        <time>2020-12-06T08:15:03.357000+00:00</time>
      </trkpt>
      <trkpt lat="0" lon="0">
        <time>2020-12-06T08:15:03.360000+00:00</time>
      </trkpt>
      <trkpt lat="47.30156" lon="-1.34787">
        <ele>6</ele>
        <time>2020-12-06T08:15:04.416000+00:00</time>
      </trkpt>
      <trkpt lat="0" lon="0">
        <time>2020-12-06T08:15:04.424000+00:00</time>
      </trkpt>
      <trkpt lat="0" lon="0">
        <time>2020-12-06T08:15:04.431000+00:00</time>
      </trkpt>
      <trkpt lat="0" lon="0">
        <time>2020-12-06T08:15:04.433000+00:00</time>
      </trkpt>
      <trkpt lat="47.30155" lon="-1.3478">
        <ele>6</ele>
        <time>2020-12-06T08:15:05.433000+00:00</time>
      </trkpt>
      <trkpt lat="0" lon="0">
        <time>2020-12-06T08:15:05.440000+00:00</time>
      </trkpt>
      <trkpt lat="0" lon="0">
        <time>2020-12-06T08:15:05.445000+00:00</time>
      </trkpt>
      <trkpt lat="0" lon="0">
        <time>2020-12-06T08:15:05.447000+00:00</time>
      </trkpt>
      <trkpt lat="47.30154" lon="-1.34772">
        <ele>6</ele>
        <time>2020-12-06T08:15:06.427000+00:00</time>
      </trkpt>
      <trkpt lat="0" lon="0">
        <time>2020-12-06T08:15:06.441000+00:00</time>
      </trkpt>
      <trkpt lat="0" lon="0">
        <time>2020-12-06T08:15:06.445000+00:00</time>
      </trkpt>
      <trkpt lat="0" lon="0">
        <time>2020-12-06T08:15:06.447000+00:00</time>
      </trkpt>
      <trkpt lat="47.30153" lon="-1.34764">
        <ele>6</ele>
        <time>2020-12-06T08:15:07.396000+00:00</time>
      </trkpt>
      <trkpt lat="0" lon="0">
        <time>2020-12-06T08:15:07.400000+00:00</time>
      </trkpt>
      <trkpt lat="0" lon="0">
        <time>2020-12-06T08:15:07.407000+00:00</time>
      </trkpt>
      <trkpt lat="0" lon="0">
        <time>2020-12-06T08:15:07.409000+00:00</time>
      </trkpt>
      <trkpt lat="47.30152" lon="-1.34756">
        <ele>6</ele>
        <time>2020-12-06T08:15:08.405000+00:00</time>
      </trkpt>
      <trkpt lat="0" lon="0">
        <time>2020-12-06T08:15:08.416000+00:00</time>
      </trkpt>
      <trkpt lat="0" lon="0">
        <time>2020-12-06T08:15:08.421000+00:00</time>
      </trkpt>
      <trkpt lat="0" lon="0">
        <time>2020-12-06T08:15:08.423000+00:00</time>
      </trkpt>
      <trkpt lat="47.30152" lon="-1.34748">
        <ele>6</ele>
        <time>2020-12-06T08:15:09.430000+00:00</time>
      </trkpt>
      <trkpt lat="0" lon="0">
        <time>2020-12-06T08:15:09.435000+00:00</time>
      </trkpt>
      <trkpt lat="0" lon="0">
        <time>2020-12-06T08:15:09.442000+00:00</time>
      </trkpt>
      <trkpt lat="0" lon="0">
        <time>2020-12-06T08:15:09.446000+00:00</time>
      </trkpt>
      <trkpt lat="47.30151" lon="-1.3474">
        <ele>6</ele>
        <time>2020-12-06T08:15:10.439000+00:00</time>
      </trkpt>
      <trkpt lat="0" lon="0">
        <time>2020-12-06T08:15:10.458000+00:00</time>
      </trkpt>
      <trkpt lat="0" lon="0">
        <time>2020-12-06T08:15:10.465000+00:00</time>
      </trkpt>
      <trkpt lat="0" lon="0">
        <time>2020-12-06T08:15:10.467000+00:00</time>
      </trkpt>
      <trkpt lat="47.30151" lon="-1.34732">
        <ele>6</ele>
        <time>2020-12-06T08:15:11.431000+00:00</time>
      </trkpt>
      <trkpt lat="0" lon="0">
        <time>2020-12-06T08:15:11.434000+00:00</time>
      </trkpt>
      <trkpt lat="0" lon="0">
        <time>2020-12-06T08:15:11.438000+00:00</time>
      </trkpt>
      <trkpt lat="0" lon="0">
        <time>2020-12-06T08:15:11.440000+00:00</time>
      </trkpt>
      <trkpt lat="47.30151" lon="-1.34724">
        <ele>6</ele>
        <time>2020-12-06T08:15:12.379000+00:00</time>
      </trkpt>
      <trkpt lat="0" lon="0">
        <time>2020-12-06T08:15:12.391000+00:00</time>
      </trkpt>
      <trkpt lat="0" lon="0">
        <time>2020-12-06T08:15:12.397000+00:00</time>
      </trkpt>
      <trkpt lat="0" lon="0">
        <time>2020-12-06T08:15:12.399000+00:00</time>
      </trkpt>
      <trkpt lat="47.30151" lon="-1.34717">
        <ele>6</ele>
        <time>2020-12-06T08:15:13.357000+00:00</time>
      </trkpt>
      <trkpt lat="0" lon="0">
        <time>2020-12-06T08:15:13.362000+00:00</time>
      </trkpt>
      <trkpt lat="0" lon="0">
        <time>2020-12-06T08:15:13.368000+00:00</time>
      </trkpt>
      <trkpt lat="0" lon="0">
        <time>2020-12-06T08:15:13.370000+00:00</time>
      </trkpt>
      <trkpt lat="47.30151" lon="-1.3471">
        <ele>6</ele>
        <time>2020-12-06T08:15:14.396000+00:00</time>
      </trkpt>
      <trkpt lat="0" lon="0">
        <time>2020-12-06T08:15:14.410000+00:00</time>
      </trkpt>
      <trkpt lat="0" lon="0">
        <time>2020-12-06T08:15:14.414000+00:00</time>
      </trkpt>
      <trkpt lat="0" lon="0">
        <time>2020-12-06T08:15:14.416000+00:00</time>
      </trkpt>
      <trkpt lat="47.30151" lon="-1.34704">
        <ele>6</ele>
        <time>2020-12-06T08:15:15.398000+00:00</time>
      </trkpt>
      <trkpt lat="0" lon="0">
        <time>2020-12-06T08:15:15.406000+00:00</time>
      </trkpt>
      <trkpt lat="0" lon="0">
        <time>2020-12-06T08:15:15.410000+00:00</time>
      </trkpt>
      <trkpt lat="0" lon="0">
        <time>2020-12-06T08:15:15.412000+00:00</time>
      </trkpt>
      <trkpt lat="47.30152" lon="-1.34697">
        <ele>6</ele>
        <time>2020-12-06T08:15:16.360000+00:00</time>
      </trkpt>
      <trkpt lat="0" lon="0">
        <time>2020-12-06T08:15:16.370000+00:00</time>
      </trkpt>
      <trkpt lat="0" lon="0">
        <time>2020-12-06T08:15:16.378000+00:00</time>
      </trkpt>
      <trkpt lat="0" lon="0">
        <time>2020-12-06T08:15:16.380000+00:00</time>
      </trkpt>
      <trkpt lat="47.30153" lon="-1.34691">
        <ele>6</ele>
        <time>2020-12-06T08:15:17.464000+00:00</time>
      </trkpt>
      <trkpt lat="0" lon="0">
        <time>2020-12-06T08:15:17.478000+00:00</time>
      </trkpt>
      <trkpt lat="0" lon="0">
        <time>2020-12-06T08:15:17.482000+00:00</time>
      </trkpt>
      <trkpt lat="0" lon="0">
        <time>2020-12-06T08:15:17.484000+00:00</time>
      </trkpt>
      <trkpt lat="47.30153" lon="-1.34685">
        <ele>6</ele>
        <time>2020-12-06T08:15:18.421000+00:00</time>
      </trkpt>
      <trkpt lat="0" lon="0">
        <time>2020-12-06T08:15:18.431000+00:00</time>
      </trkpt>
      <trkpt lat="0" lon="0">
        <time>2020-12-06T08:15:18.436000+00:00</time>
      </trkpt>
      <trkpt lat="0" lon="0">
        <time>2020-12-06T08:15:18.440000+00:00</time>
      </trkpt>
      <trkpt lat="47.30153" lon="-1.34679">
        <ele>6</ele>
        <time>2020-12-06T08:15:19.421000+00:00</time>
      </trkpt>
      <trkpt lat="0" lon="0">
        <time>2020-12-06T08:15:19.444000+00:00</time>
      </trkpt>
      <trkpt lat="0" lon="0">
        <time>2020-12-06T08:15:19.448000+00:00</time>
      </trkpt>
      <trkpt lat="0" lon="0">
        <time>2020-12-06T08:15:19.450000+00:00</time>
      </trkpt>
      <trkpt lat="47.30153" lon="-1.34673">
        <ele>6</ele>
        <time>2020-12-06T08:15:20.417000+00:00</time>
      </trkpt>
      <trkpt lat="0" lon="0">
        <time>2020-12-06T08:15:20.437000+00:00</time>
      </trkpt>
      <trkpt lat="0" lon="0">
        <time>2020-12-06T08:15:20.447000+00:00</time>
      </trkpt>
      <trkpt lat="0" lon="0">
        <time>2020-12-06T08:15:20.452000+00:00</time>
      </trkpt>
      <trkpt lat="47.30153" lon="-1.34667">
        <ele>6</ele>
        <time>2020-12-06T08:15:21.341000+00:00</time>
      </trkpt>
      <trkpt lat="0" lon="0">
        <time>2020-12-06T08:15:21.345000+00:00</time>
      </trkpt>
      <trkpt lat="0" lon="0">
        <time>2020-12-06T08:15:21.351000+00:00</time>
      </trkpt>
      <trkpt lat="0" lon="0">
        <time>2020-12-06T08:15:21.353000+00:00</time>
      </trkpt>
      <trkpt lat="47.30152" lon="-1.3466">
        <ele>6</ele>
        <time>2020-12-06T08:15:22.468000+00:00</time>
      </trkpt>
      <trkpt lat="0" lon="0">
        <time>2020-12-06T08:15:22.480000+00:00</time>
      </trkpt>
      <trkpt lat="0" lon="0">
        <time>2020-12-06T08:15:22.488000+00:00</time>
      </trkpt>
      <trkpt lat="0" lon="0">
        <time>2020-12-06T08:15:22.490000+00:00</time>
      </trkpt>
      <trkpt lat="47.30151" lon="-1.34653">
        <ele>6</ele>
        <time>2020-12-06T08:15:23.419000+00:00</time>
      </trkpt>
      <trkpt lat="0" lon="0">
        <time>2020-12-06T08:15:23.431000+00:00</time>
      </trkpt>
      <trkpt lat="0" lon="0">
        <time>2020-12-06T08:15:23.444000+00:00</time>
      </trkpt>
      <trkpt lat="0" lon="0">
        <time>2020-12-06T08:15:23.446000+00:00</time>
      </trkpt>
      <trkpt lat="47.30149" lon="-1.34646">
        <ele>6</ele>
        <time>2020-12-06T08:15:24.351000+00:00</time>
      </trkpt>
      <trkpt lat="0" lon="0">
        <time>2020-12-06T08:15:24.354000+00:00</time>
      </trkpt>
      <trkpt lat="0" lon="0">
        <time>2020-12-06T08:15:24.364000+00:00</time>
      </trkpt>
      <trkpt lat="0" lon="0">
        <time>2020-12-06T08:15:24.366000+00:00</time>
      </trkpt>
      <trkpt lat="47.30148" lon="-1.34639">
        <ele>6</ele>
        <time>2020-12-06T08:15:25.444000+00:00</time>
      </trkpt>
      <trkpt lat="0" lon="0">
        <time>2020-12-06T08:15:25.449000+00:00</time>
      </trkpt>
      <trkpt lat="0" lon="0">
        <time>2020-12-06T08:15:25.451000+00:00</time>
      </trkpt>
      <trkpt lat="0" lon="0">
        <time>2020-12-06T08:15:25.452000+00:00</time>
      </trkpt>
      <trkpt lat="47.30147" lon="-1.34632">
        <ele>6</ele>
        <time>2020-12-06T08:15:26.365000+00:00</time>
      </trkpt>
      <trkpt lat="0" lon="0">
        <time>2020-12-06T08:15:26.367000+00:00</time>
      </trkpt>
      <trkpt lat="0" lon="0">
        <time>2020-12-06T08:15:26.369000+00:00</time>
      </trkpt>
      <trkpt lat="0" lon="0">
        <time>2020-12-06T08:15:26.370000+00:00</time>
      </trkpt>
      <trkpt lat="47.30146" lon="-1.34624">
        <ele>6</ele>
        <time>2020-12-06T08:15:27.380000+00:00</time>
      </trkpt>
      <trkpt lat="0" lon="0">
        <time>2020-12-06T08:15:27.394000+00:00</time>
      </trkpt>
      <trkpt lat="0" lon="0">
        <time>2020-12-06T08:15:27.401000+00:00</time>
      </trkpt>
      <trkpt lat="0" lon="0">
        <time>2020-12-06T08:15:27.405000+00:00</time>
      </trkpt>
      <trkpt lat="47.30145" lon="-1.34617">
        <ele>6</ele>
        <time>2020-12-06T08:15:28.453000+00:00</time>
      </trkpt>
      <trkpt lat="0" lon="0">
        <time>2020-12-06T08:15:28.465000+00:00</time>
      </trkpt>
      <trkpt lat="0" lon="0">
        <time>2020-12-06T08:15:28.470000+00:00</time>
      </trkpt>
      <trkpt lat="0" lon="0">
        <time>2020-12-06T08:15:28.478000+00:00</time>
      </trkpt>
      <trkpt lat="47.30145" lon="-1.3461">
        <ele>6</ele>
        <time>2020-12-06T08:15:29.454000+00:00</time>
      </trkpt>
      <trkpt lat="0" lon="0">
        <time>2020-12-06T08:15:29.479000+00:00</time>
      </trkpt>
      <trkpt lat="0" lon="0">
        <time>2020-12-06T08:15:29.487000+00:00</time>
      </trkpt>
      <trkpt lat="0" lon="0">
        <time>2020-12-06T08:15:29.490000+00:00</time>
      </trkpt>
      <trkpt lat="47.30145" lon="-1.34602">
        <ele>6</ele>
        <time>2020-12-06T08:15:30.442000+00:00</time>
      </trkpt>
      <trkpt lat="0" lon="0">
        <time>2020-12-06T08:15:30.460000+00:00</time>
      </trkpt>
      <trkpt lat="0" lon="0">
        <time>2020-12-06T08:15:30.464000+00:00</time>
      </trkpt>
      <trkpt lat="0" lon="0">
        <time>2020-12-06T08:15:30.466000+00:00</time>
      </trkpt>
      <trkpt lat="47.30146" lon="-1.34595">
        <ele>6</ele>
        <time>2020-12-06T08:15:31.438000+00:00</time>
      </trkpt>
      <trkpt lat="0" lon="0">
        <time>2020-12-06T08:15:31.457000+00:00</time>
      </trkpt>
      <trkpt lat="0" lon="0">
        <time>2020-12-06T08:15:31.464000+00:00</time>
      </trkpt>
      <trkpt lat="0" lon="0">
        <time>2020-12-06T08:15:31.466000+00:00</time>
      </trkpt>
      <trkpt lat="47.30147" lon="-1.34587">
        <ele>6</ele>
        <time>2020-12-06T08:15:32.414000+00:00</time>
      </trkpt>
      <trkpt lat="0" lon="0">
        <time>2020-12-06T08:15:32.424000+00:00</time>
      </trkpt>
      <trkpt lat="0" lon="0">
        <time>2020-12-06T08:15:32.437000+00:00</time>
      </trkpt>
      <trkpt lat="0" lon="0">
        <time>2020-12-06T08:15:32.440000+00:00</time>
      </trkpt>
      <trkpt lat="47.30148" lon="-1.34579">
        <ele>5</ele>
        <time>2020-12-06T08:15:33.412000+00:00</time>
      </trkpt>
      <trkpt lat="0" lon="0">
        <time>2020-12-06T08:15:33.422000+00:00</time>
      </trkpt>
      <trkpt lat="0" lon="0">
        <time>2020-12-06T08:15:33.426000+00:00</time>
      </trkpt>
      <trkpt lat="0" lon="0">
        <time>2020-12-06T08:15:33.432000+00:00</time>
      </trkpt>
      <trkpt lat="47.30149" lon="-1.34572">
        <ele>5</ele>
        <time>2020-12-06T08:15:34.433000+00:00</time>
      </trkpt>
      <trkpt lat="0" lon="0">
        <time>2020-12-06T08:15:34.440000+00:00</time>
      </trkpt>
      <trkpt lat="0" lon="0">
        <time>2020-12-06T08:15:34.455000+00:00</time>
      </trkpt>
      <trkpt lat="0" lon="0">
        <time>2020-12-06T08:15:34.459000+00:00</time>
      </trkpt>
      <trkpt lat="47.3015" lon="-1.34564">
        <ele>5</ele>
        <time>2020-12-06T08:15:35.349000+00:00</time>
      </trkpt>
      <trkpt lat="0" lon="0">
        <time>2020-12-06T08:15:35.353000+00:00</time>
      </trkpt>
      <trkpt lat="0" lon="0">
        <time>2020-12-06T08:15:35.355000+00:00</time>
      </trkpt>
      <trkpt lat="47.30151" lon="-1.34558">
        <ele>5</ele>
        <time>2020-12-06T08:15:36.424000+00:00</time>
      </trkpt>
      <trkpt lat="0" lon="0">
        <time>2020-12-06T08:15:36.437000+00:00</time>
      </trkpt>
      <trkpt lat="0" lon="0">
        <time>2020-12-06T08:15:36.443000+00:00</time>
      </trkpt>
      <trkpt lat="0" lon="0">
        <time>2020-12-06T08:15:36.444000+00:00</time>
      </trkpt>
      <trkpt lat="47.30151" lon="-1.34552">
        <ele>5</ele>
        <time>2020-12-06T08:15:37.490000+00:00</time>
      </trkpt>
      <trkpt lat="0" lon="0">
        <time>2020-12-06T08:15:37.498000+00:00</time>
      </trkpt>
      <trkpt lat="0" lon="0">
        <time>2020-12-06T08:15:37.501000+00:00</time>
      </trkpt>
      <trkpt lat="0" lon="0">
        <time>2020-12-06T08:15:37.504000+00:00</time>
      </trkpt>
      <trkpt lat="47.3015" lon="-1.34547">
        <ele>5</ele>
        <time>2020-12-06T08:15:38.419000+00:00</time>
      </trkpt>
      <trkpt lat="0" lon="0">
        <time>2020-12-06T08:15:38.423000+00:00</time>
      </trkpt>
      <trkpt lat="0" lon="0">
        <time>2020-12-06T08:15:38.434000+00:00</time>
      </trkpt>
      <trkpt lat="0" lon="0">
        <time>2020-12-06T08:15:38.439000+00:00</time>
      </trkpt>
      <trkpt lat="47.30149" lon="-1.34542">
        <ele>5</ele>
        <time>2020-12-06T08:15:39.330000+00:00</time>
      </trkpt>
      <trkpt lat="0" lon="0">
        <time>2020-12-06T08:15:39.334000+00:00</time>
      </trkpt>
      <trkpt lat="0" lon="0">
        <time>2020-12-06T08:15:39.336000+00:00</time>
      </trkpt>
      <trkpt lat="0" lon="0">
        <time>2020-12-06T08:15:39.337000+00:00</time>
      </trkpt>
      <trkpt lat="47.30147" lon="-1.34539">
        <ele>5</ele>
        <time>2020-12-06T08:15:40.405000+00:00</time>
      </trkpt>
      <trkpt lat="0" lon="0">
        <time>2020-12-06T08:15:40.416000+00:00</time>
      </trkpt>
      <trkpt lat="0" lon="0">
        <time>2020-12-06T08:15:40.420000+00:00</time>
      </trkpt>
      <trkpt lat="0" lon="0">
        <time>2020-12-06T08:15:40.422000+00:00</time>
      </trkpt>
      <trkpt lat="47.30144" lon="-1.34536">
        <ele>5</ele>
        <time>2020-12-06T08:15:41.472000+00:00</time>
      </trkpt>
      <trkpt lat="0" lon="0">
        <time>2020-12-06T08:15:41.480000+00:00</time>
      </trkpt>
      <trkpt lat="0" lon="0">
        <time>2020-12-06T08:15:41.497000+00:00</time>
      </trkpt>
      <trkpt lat="0" lon="0">
        <time>2020-12-06T08:15:41.500000+00:00</time>
      </trkpt>
      <trkpt lat="47.30141" lon="-1.34533">
        <ele>5</ele>
        <time>2020-12-06T08:15:42.401000+00:00</time>
      </trkpt>
      <trkpt lat="0" lon="0">
        <time>2020-12-06T08:15:42.403000+00:00</time>
      </trkpt>
      <trkpt lat="0" lon="0">
        <time>2020-12-06T08:15:42.405000+00:00</time>
      </trkpt>
      <trkpt lat="0" lon="0">
        <time>2020-12-06T08:15:42.406000+00:00</time>
      </trkpt>
      <trkpt lat="47.30137" lon="-1.34531">
        <ele>5</ele>
        <time>2020-12-06T08:15:43.418000+00:00</time>
      </trkpt>
      <trkpt lat="0" lon="0">
        <time>2020-12-06T08:15:43.423000+00:00</time>
      </trkpt>
      <trkpt lat="0" lon="0">
        <time>2020-12-06T08:15:43.427000+00:00</time>
      </trkpt>
      <trkpt lat="0" lon="0">
        <time>2020-12-06T08:15:43.429000+00:00</time>
      </trkpt>
      <trkpt lat="47.30132" lon="-1.34529">
        <ele>5</ele>
        <time>2020-12-06T08:15:44.422000+00:00</time>
      </trkpt>
      <trkpt lat="0" lon="0">
        <time>2020-12-06T08:15:44.429000+00:00</time>
      </trkpt>
      <trkpt lat="0" lon="0">
        <time>2020-12-06T08:15:44.432000+00:00</time>
      </trkpt>
      <trkpt lat="0" lon="0">
        <time>2020-12-06T08:15:44.436000+00:00</time>
      </trkpt>
      <trkpt lat="47.30127" lon="-1.34528">
        <ele>5</ele>
        <time>2020-12-06T08:15:45.453000+00:00</time>
      </trkpt>
      <trkpt lat="0" lon="0">
        <time>2020-12-06T08:15:45.469000+00:00</time>
      </trkpt>
      <trkpt lat="0" lon="0">
        <time>2020-12-06T08:15:45.475000+00:00</time>
      </trkpt>
      <trkpt lat="0" lon="0">
        <time>2020-12-06T08:15:45.482000+00:00</time>
      </trkpt>
      <trkpt lat="47.30122" lon="-1.34527">
        <ele>5</ele>
        <time>2020-12-06T08:15:46.441000+00:00</time>
      </trkpt>
      <trkpt lat="0" lon="0">
        <time>2020-12-06T08:15:46.451000+00:00</time>
      </trkpt>
      <trkpt lat="0" lon="0">
        <time>2020-12-06T08:15:46.456000+00:00</time>
      </trkpt>
      <trkpt lat="0" lon="0">
        <time>2020-12-06T08:15:46.459000+00:00</time>
      </trkpt>
      <trkpt lat="47.30116" lon="-1.34527">
        <ele>5</ele>
        <time>2020-12-06T08:15:47.412000+00:00</time>
      </trkpt>
      <trkpt lat="0" lon="0">
        <time>2020-12-06T08:15:47.418000+00:00</time>
      </trkpt>
      <trkpt lat="0" lon="0">
        <time>2020-12-06T08:15:47.422000+00:00</time>
      </trkpt>
      <trkpt lat="0" lon="0">
        <time>2020-12-06T08:15:47.426000+00:00</time>
      </trkpt>
      <trkpt lat="47.3011" lon="-1.34526">
        <ele>5</ele>
        <time>2020-12-06T08:15:48.366000+00:00</time>
      </trkpt>
      <trkpt lat="0" lon="0">
        <time>2020-12-06T08:15:48.378000+00:00</time>
      </trkpt>
      <trkpt lat="0" lon="0">
        <time>2020-12-06T08:15:48.384000+00:00</time>
      </trkpt>
      <trkpt lat="0" lon="0">
        <time>2020-12-06T08:15:48.388000+00:00</time>
      </trkpt>
      <trkpt lat="47.30104" lon="-1.34524">
        <ele>5</ele>
        <time>2020-12-06T08:15:49.396000+00:00</time>
      </trkpt>
      <trkpt lat="0" lon="0">
        <time>2020-12-06T08:15:49.404000+00:00</time>
      </trkpt>
      <trkpt lat="0" lon="0">
        <time>2020-12-06T08:15:49.410000+00:00</time>
      </trkpt>
      <trkpt lat="0" lon="0">
        <time>2020-12-06T08:15:49.413000+00:00</time>
      </trkpt>
      <trkpt lat="47.30099" lon="-1.34521">
        <ele>5</ele>
        <time>2020-12-06T08:15:50.376000+00:00</time>
      </trkpt>
      <trkpt lat="0" lon="0">
        <time>2020-12-06T08:15:50.382000+00:00</time>
      </trkpt>
      <trkpt lat="0" lon="0">
        <time>2020-12-06T08:15:50.391000+00:00</time>
      </trkpt>
      <trkpt lat="0" lon="0">
        <time>2020-12-06T08:15:50.395000+00:00</time>
      </trkpt>
      <trkpt lat="47.30094" lon="-1.34517">
        <ele>5</ele>
        <time>2020-12-06T08:15:51.407000+00:00</time>
      </trkpt>
      <trkpt lat="0" lon="0">
        <time>2020-12-06T08:15:51.411000+00:00</time>
      </trkpt>
      <trkpt lat="0" lon="0">
        <time>2020-12-06T08:15:51.425000+00:00</time>
      </trkpt>
      <trkpt lat="0" lon="0">
        <time>2020-12-06T08:15:51.428000+00:00</time>
      </trkpt>
      <trkpt lat="47.30089" lon="-1.34513">
        <ele>5</ele>
        <time>2020-12-06T08:15:52.380000+00:00</time>
      </trkpt>
      <trkpt lat="0" lon="0">
        <time>2020-12-06T08:15:52.400000+00:00</time>
      </trkpt>
      <trkpt lat="0" lon="0">
        <time>2020-12-06T08:15:52.406000+00:00</time>
      </trkpt>
      <trkpt lat="0" lon="0">
        <time>2020-12-06T08:15:52.407000+00:00</time>
      </trkpt>
      <trkpt lat="47.30085" lon="-1.34509">
        <ele>5</ele>
        <time>2020-12-06T08:15:53.420000+00:00</time>
      </trkpt>
      <trkpt lat="0" lon="0">
        <time>2020-12-06T08:15:53.439000+00:00</time>
      </trkpt>
      <trkpt lat="0" lon="0">
        <time>2020-12-06T08:15:53.447000+00:00</time>
      </trkpt>
      <trkpt lat="0" lon="0">
        <time>2020-12-06T08:15:53.451000+00:00</time>
      </trkpt>
      <trkpt lat="47.3008" lon="-1.34503">
        <ele>6</ele>
        <time>2020-12-06T08:15:54.390000+00:00</time>
      </trkpt>
      <trkpt lat="0" lon="0">
        <time>2020-12-06T08:15:54.395000+00:00</time>
      </trkpt>
      <trkpt lat="0" lon="0">
        <time>2020-12-06T08:15:54.400000+00:00</time>
      </trkpt>
      <trkpt lat="0" lon="0">
        <time>2020-12-06T08:15:54.403000+00:00</time>
      </trkpt>
      <trkpt lat="47.30077" lon="-1.34498">
        <ele>6</ele>
        <time>2020-12-06T08:15:55.399000+00:00</time>
      </trkpt>
      <trkpt lat="0" lon="0">
        <time>2020-12-06T08:15:55.412000+00:00</time>
      </trkpt>
      <trkpt lat="0" lon="0">
        <time>2020-12-06T08:15:55.418000+00:00</time>
      </trkpt>
      <trkpt lat="0" lon="0">
        <time>2020-12-06T08:15:55.421000+00:00</time>
      </trkpt>
      <trkpt lat="47.30074" lon="-1.34491">
        <ele>6</ele>
        <time>2020-12-06T08:15:56.377000+00:00</time>
      </trkpt>
      <trkpt lat="0" lon="0">
        <time>2020-12-06T08:15:56.381000+00:00</time>
      </trkpt>
      <trkpt lat="0" lon="0">
        <time>2020-12-06T08:15:56.387000+00:00</time>
      </trkpt>
      <trkpt lat="0" lon="0">
        <time>2020-12-06T08:15:56.389000+00:00</time>
      </trkpt>
      <trkpt lat="47.30072" lon="-1.34484">
        <ele>6</ele>
        <time>2020-12-06T08:15:57.418000+00:00</time>
      </trkpt>
      <trkpt lat="0" lon="0">
        <time>2020-12-06T08:15:57.431000+00:00</time>
      </trkpt>
      <trkpt lat="0" lon="0">
        <time>2020-12-06T08:15:57.439000+00:00</time>
      </trkpt>
      <trkpt lat="0" lon="0">
        <time>2020-12-06T08:15:57.441000+00:00</time>
      </trkpt>
      <trkpt lat="47.3007" lon="-1.34476">
        <ele>6</ele>
        <time>2020-12-06T08:15:58.410000+00:00</time>
      </trkpt>
      <trkpt lat="0" lon="0">
        <time>2020-12-06T08:15:58.422000+00:00</time>
      </trkpt>
      <trkpt lat="0" lon="0">
        <time>2020-12-06T08:15:58.431000+00:00</time>
      </trkpt>
      <trkpt lat="0" lon="0">
        <time>2020-12-06T08:15:58.433000+00:00</time>
      </trkpt>
      <trkpt lat="47.30068" lon="-1.34467">
        <ele>6</ele>
        <time>2020-12-06T08:15:59.407000+00:00</time>
      </trkpt>
      <trkpt lat="0" lon="0">
        <time>2020-12-06T08:15:59.411000+00:00</time>
      </trkpt>
      <trkpt lat="0" lon="0">
        <time>2020-12-06T08:15:59.417000+00:00</time>
      </trkpt>
      <trkpt lat="0" lon="0">
        <time>2020-12-06T08:15:59.420000+00:00</time>
      </trkpt>
      <trkpt lat="47.30066" lon="-1.34458">
        <ele>6</ele>
        <time>2020-12-06T08:16:00.420000+00:00</time>
      </trkpt>
      <trkpt lat="0" lon="0">
        <time>2020-12-06T08:16:00.434000+00:00</time>
      </trkpt>
      <trkpt lat="0" lon="0">
        <time>2020-12-06T08:16:00.440000+00:00</time>
      </trkpt>
      <trkpt lat="0" lon="0">
        <time>2020-12-06T08:16:00.443000+00:00</time>
      </trkpt>
      <trkpt lat="47.30064" lon="-1.34449">
        <ele>6</ele>
        <time>2020-12-06T08:16:01.402000+00:00</time>
      </trkpt>
      <trkpt lat="0" lon="0">
        <time>2020-12-06T08:16:01.413000+00:00</time>
      </trkpt>
      <trkpt lat="0" lon="0">
        <time>2020-12-06T08:16:01.416000+00:00</time>
      </trkpt>
      <trkpt lat="0" lon="0">
        <time>2020-12-06T08:16:01.423000+00:00</time>
      </trkpt>
      <trkpt lat="47.30063" lon="-1.34439">
        <ele>6</ele>
        <time>2020-12-06T08:16:02.375000+00:00</time>
      </trkpt>
      <trkpt lat="0" lon="0">
        <time>2020-12-06T08:16:02.386000+00:00</time>
      </trkpt>
      <trkpt lat="0" lon="0">
        <time>2020-12-06T08:16:02.390000+00:00</time>
      </trkpt>
      <trkpt lat="0" lon="0">
        <time>2020-12-06T08:16:02.392000+00:00</time>
      </trkpt>
      <trkpt lat="47.30062" lon="-1.3443">
        <ele>6</ele>
        <time>2020-12-06T08:16:03.370000+00:00</time>
      </trkpt>
      <trkpt lat="0" lon="0">
        <time>2020-12-06T08:16:03.384000+00:00</time>
      </trkpt>
      <trkpt lat="0" lon="0">
        <time>2020-12-06T08:16:03.390000+00:00</time>
      </trkpt>
      <trkpt lat="0" lon="0">
        <time>2020-12-06T08:16:03.394000+00:00</time>
      </trkpt>
      <trkpt lat="47.3006" lon="-1.3442">
        <ele>6</ele>
        <time>2020-12-06T08:16:04.415000+00:00</time>
      </trkpt>
      <trkpt lat="0" lon="0">
        <time>2020-12-06T08:16:04.418000+00:00</time>
      </trkpt>
      <trkpt lat="0" lon="0">
        <time>2020-12-06T08:16:04.423000+00:00</time>
      </trkpt>
      <trkpt lat="0" lon="0">
        <time>2020-12-06T08:16:04.424000+00:00</time>
      </trkpt>
      <trkpt lat="47.30059" lon="-1.3441">
        <ele>6</ele>
        <time>2020-12-06T08:16:05.480000+00:00</time>
      </trkpt>
      <trkpt lat="0" lon="0">
        <time>2020-12-06T08:16:05.493000+00:00</time>
      </trkpt>
      <trkpt lat="0" lon="0">
        <time>2020-12-06T08:16:05.494000+00:00</time>
      </trkpt>
      <trkpt lat="47.30058" lon="-1.34401">
        <ele>6</ele>
        <time>2020-12-06T08:16:06.377000+00:00</time>
      </trkpt>
      <trkpt lat="0" lon="0">
        <time>2020-12-06T08:16:06.386000+00:00</time>
      </trkpt>
      <trkpt lat="0" lon="0">
        <time>2020-12-06T08:16:06.389000+00:00</time>
      </trkpt>
      <trkpt lat="0" lon="0">
        <time>2020-12-06T08:16:06.391000+00:00</time>
      </trkpt>
      <trkpt lat="47.30057" lon="-1.34391">
        <ele>6</ele>
        <time>2020-12-06T08:16:07.381000+00:00</time>
      </trkpt>
      <trkpt lat="0" lon="0">
        <time>2020-12-06T08:16:07.392000+00:00</time>
      </trkpt>
      <trkpt lat="0" lon="0">
        <time>2020-12-06T08:16:07.398000+00:00</time>
      </trkpt>
      <trkpt lat="0" lon="0">
        <time>2020-12-06T08:16:07.400000+00:00</time>
      </trkpt>
      <trkpt lat="47.30056" lon="-1.34381">
        <ele>6</ele>
        <time>2020-12-06T08:16:08.363000+00:00</time>
      </trkpt>
      <trkpt lat="0" lon="0">
        <time>2020-12-06T08:16:08.375000+00:00</time>
      </trkpt>
      <trkpt lat="0" lon="0">
        <time>2020-12-06T08:16:08.382000+00:00</time>
      </trkpt>
      <trkpt lat="0" lon="0">
        <time>2020-12-06T08:16:08.384000+00:00</time>
      </trkpt>
      <trkpt lat="47.30054" lon="-1.34372">
        <ele>6</ele>
        <time>2020-12-06T08:16:09.379000+00:00</time>
      </trkpt>
      <trkpt lat="0" lon="0">
        <time>2020-12-06T08:16:09.391000+00:00</time>
      </trkpt>
      <trkpt lat="0" lon="0">
        <time>2020-12-06T08:16:09.396000+00:00</time>
      </trkpt>
      <trkpt lat="0" lon="0">
        <time>2020-12-06T08:16:09.406000+00:00</time>
      </trkpt>
      <trkpt lat="47.30053" lon="-1.34362">
        <ele>6</ele>
        <time>2020-12-06T08:16:10.369000+00:00</time>
      </trkpt>
      <trkpt lat="0" lon="0">
        <time>2020-12-06T08:16:10.374000+00:00</time>
      </trkpt>
      <trkpt lat="0" lon="0">
        <time>2020-12-06T08:16:10.391000+00:00</time>
      </trkpt>
      <trkpt lat="0" lon="0">
        <time>2020-12-06T08:16:10.394000+00:00</time>
      </trkpt>
      <trkpt lat="47.30052" lon="-1.34352">
        <ele>6</ele>
        <time>2020-12-06T08:16:11.373000+00:00</time>
      </trkpt>
      <trkpt lat="0" lon="0">
        <time>2020-12-06T08:16:11.374000+00:00</time>
      </trkpt>
      <trkpt lat="0" lon="0">
        <time>2020-12-06T08:16:11.375000+00:00</time>
      </trkpt>
      <trkpt lat="0" lon="0">
        <time>2020-12-06T08:16:11.376000+00:00</time>
      </trkpt>
      <trkpt lat="47.3005" lon="-1.34343">
        <ele>6</ele>
        <time>2020-12-06T08:16:12.362000+00:00</time>
      </trkpt>
      <trkpt lat="0" lon="0">
        <time>2020-12-06T08:16:12.376000+00:00</time>
      </trkpt>
      <trkpt lat="0" lon="0">
        <time>2020-12-06T08:16:12.378000+00:00</time>
      </trkpt>
      <trkpt lat="0" lon="0">
        <time>2020-12-06T08:16:12.381000+00:00</time>
      </trkpt>
      <trkpt lat="47.30049" lon="-1.34333">
        <ele>6</ele>
        <time>2020-12-06T08:16:13.394000+00:00</time>
      </trkpt>
      <trkpt lat="0" lon="0">
        <time>2020-12-06T08:16:13.408000+00:00</time>
      </trkpt>
      <trkpt lat="0" lon="0">
        <time>2020-12-06T08:16:13.417000+00:00</time>
      </trkpt>
      <trkpt lat="0" lon="0">
        <time>2020-12-06T08:16:13.418000+00:00</time>
      </trkpt>
      <trkpt lat="47.30047" lon="-1.34324">
        <ele>6</ele>
        <time>2020-12-06T08:16:14.362000+00:00</time>
      </trkpt>
      <trkpt lat="0" lon="0">
        <time>2020-12-06T08:16:14.370000+00:00</time>
      </trkpt>
      <trkpt lat="0" lon="0">
        <time>2020-12-06T08:16:14.374000+00:00</time>
      </trkpt>
      <trkpt lat="0" lon="0">
        <time>2020-12-06T08:16:14.378000+00:00</time>
      </trkpt>
      <trkpt lat="47.30046" lon="-1.34315">
        <ele>6</ele>
        <time>2020-12-06T08:16:15.380000+00:00</time>
      </trkpt>
      <trkpt lat="0" lon="0">
        <time>2020-12-06T08:16:15.389000+00:00</time>
      </trkpt>
      <trkpt lat="0" lon="0">
        <time>2020-12-06T08:16:15.391000+00:00</time>
      </trkpt>
      <trkpt lat="0" lon="0">
        <time>2020-12-06T08:16:15.392000+00:00</time>
      </trkpt>
      <trkpt lat="47.30045" lon="-1.34305">
        <ele>6</ele>
        <time>2020-12-06T08:16:16.376000+00:00</time>
      </trkpt>
      <trkpt lat="0" lon="0">
        <time>2020-12-06T08:16:16.384000+00:00</time>
      </trkpt>
      <trkpt lat="0" lon="0">
        <time>2020-12-06T08:16:16.392000+00:00</time>
      </trkpt>
      <trkpt lat="0" lon="0">
        <time>2020-12-06T08:16:16.395000+00:00</time>
      </trkpt>
      <trkpt lat="47.30043" lon="-1.34296">
        <ele>6</ele>
        <time>2020-12-06T08:16:17.382000+00:00</time>
      </trkpt>
      <trkpt lat="0" lon="0">
        <time>2020-12-06T08:16:17.388000+00:00</time>
      </trkpt>
      <trkpt lat="0" lon="0">
        <time>2020-12-06T08:16:17.399000+00:00</time>
      </trkpt>
      <trkpt lat="0" lon="0">
        <time>2020-12-06T08:16:17.400000+00:00</time>
      </trkpt>
      <trkpt lat="47.30042" lon="-1.34287">
        <ele>6</ele>
        <time>2020-12-06T08:16:18.348000+00:00</time>
      </trkpt>
      <trkpt lat="0" lon="0">
        <time>2020-12-06T08:16:18.353000+00:00</time>
      </trkpt>
      <trkpt lat="0" lon="0">
        <time>2020-12-06T08:16:18.356000+00:00</time>
      </trkpt>
      <trkpt lat="0" lon="0">
        <time>2020-12-06T08:16:18.358000+00:00</time>
      </trkpt>
      <trkpt lat="47.3004" lon="-1.34278">
        <ele>6</ele>
        <time>2020-12-06T08:16:19.358000+00:00</time>
      </trkpt>
      <trkpt lat="0" lon="0">
        <time>2020-12-06T08:16:19.371000+00:00</time>
      </trkpt>
      <trkpt lat="0" lon="0">
        <time>2020-12-06T08:16:19.390000+00:00</time>
      </trkpt>
      <trkpt lat="0" lon="0">
        <time>2020-12-06T08:16:19.392000+00:00</time>
      </trkpt>
      <trkpt lat="47.30038" lon="-1.34269">
        <ele>6</ele>
        <time>2020-12-06T08:16:20.383000+00:00</time>
      </trkpt>
      <trkpt lat="0" lon="0">
        <time>2020-12-06T08:16:20.398000+00:00</time>
      </trkpt>
      <trkpt lat="0" lon="0">
        <time>2020-12-06T08:16:20.407000+00:00</time>
      </trkpt>
      <trkpt lat="0" lon="0">
        <time>2020-12-06T08:16:20.413000+00:00</time>
      </trkpt>
      <trkpt lat="47.30037" lon="-1.3426">
        <ele>6</ele>
        <time>2020-12-06T08:16:21.379000+00:00</time>
      </trkpt>
      <trkpt lat="0" lon="0">
        <time>2020-12-06T08:16:21.391000+00:00</time>
      </trkpt>
      <trkpt lat="0" lon="0">
        <time>2020-12-06T08:16:21.398000+00:00</time>
      </trkpt>
      <trkpt lat="0" lon="0">
        <time>2020-12-06T08:16:21.400000+00:00</time>
      </trkpt>
      <trkpt lat="47.30035" lon="-1.34251">
        <ele>6</ele>
        <time>2020-12-06T08:16:22.354000+00:00</time>
      </trkpt>
      <trkpt lat="0" lon="0">
        <time>2020-12-06T08:16:22.364000+00:00</time>
      </trkpt>
      <trkpt lat="0" lon="0">
        <time>2020-12-06T08:16:22.368000+00:00</time>
      </trkpt>
      <trkpt lat="0" lon="0">
        <time>2020-12-06T08:16:22.369000+00:00</time>
      </trkpt>
      <trkpt lat="47.30033" lon="-1.34242">
        <ele>6</ele>
        <time>2020-12-06T08:16:23.360000+00:00</time>
      </trkpt>
      <trkpt lat="0" lon="0">
        <time>2020-12-06T08:16:23.366000+00:00</time>
      </trkpt>
      <trkpt lat="0" lon="0">
        <time>2020-12-06T08:16:23.368000+00:00</time>
      </trkpt>
      <trkpt lat="47.30032" lon="-1.34233">
        <ele>6</ele>
        <time>2020-12-06T08:16:24.374000+00:00</time>
      </trkpt>
      <trkpt lat="0" lon="0">
        <time>2020-12-06T08:16:24.382000+00:00</time>
      </trkpt>
      <trkpt lat="0" lon="0">
        <time>2020-12-06T08:16:24.384000+00:00</time>
      </trkpt>
      <trkpt lat="0" lon="0">
        <time>2020-12-06T08:16:24.385000+00:00</time>
      </trkpt>
      <trkpt lat="47.3003" lon="-1.34223">
        <ele>6</ele>
        <time>2020-12-06T08:16:25.348000+00:00</time>
      </trkpt>
      <trkpt lat="0" lon="0">
        <time>2020-12-06T08:16:25.360000+00:00</time>
      </trkpt>
      <trkpt lat="0" lon="0">
        <time>2020-12-06T08:16:25.366000+00:00</time>
      </trkpt>
      <trkpt lat="0" lon="0">
        <time>2020-12-06T08:16:25.369000+00:00</time>
      </trkpt>
      <trkpt lat="47.30028" lon="-1.34214">
        <ele>6</ele>
        <time>2020-12-06T08:16:26.373000+00:00</time>
      </trkpt>
      <trkpt lat="0" lon="0">
        <time>2020-12-06T08:16:26.376000+00:00</time>
      </trkpt>
      <trkpt lat="0" lon="0">
        <time>2020-12-06T08:16:26.380000+00:00</time>
      </trkpt>
      <trkpt lat="0" lon="0">
        <time>2020-12-06T08:16:26.382000+00:00</time>
      </trkpt>
      <trkpt lat="47.30026" lon="-1.34205">
        <ele>6</ele>
        <time>2020-12-06T08:16:27.360000+00:00</time>
      </trkpt>
      <trkpt lat="0" lon="0">
        <time>2020-12-06T08:16:27.363000+00:00</time>
      </trkpt>
      <trkpt lat="0" lon="0">
        <time>2020-12-06T08:16:27.380000+00:00</time>
      </trkpt>
      <trkpt lat="0" lon="0">
        <time>2020-12-06T08:16:27.381000+00:00</time>
      </trkpt>
      <trkpt lat="47.30025" lon="-1.34196">
        <ele>6</ele>
        <time>2020-12-06T08:16:28.336000+00:00</time>
      </trkpt>
      <trkpt lat="0" lon="0">
        <time>2020-12-06T08:16:28.337000+00:00</time>
      </trkpt>
      <trkpt lat="0" lon="0">
        <time>2020-12-06T08:16:28.341000+00:00</time>
      </trkpt>
      <trkpt lat="0" lon="0">
        <time>2020-12-06T08:16:28.342000+00:00</time>
      </trkpt>
      <trkpt lat="47.30023" lon="-1.34187">
        <ele>5</ele>
        <time>2020-12-06T08:16:29.371000+00:00</time>
      </trkpt>
      <trkpt lat="0" lon="0">
        <time>2020-12-06T08:16:29.384000+00:00</time>
      </trkpt>
      <trkpt lat="0" lon="0">
        <time>2020-12-06T08:16:29.388000+00:00</time>
      </trkpt>
      <trkpt lat="0" lon="0">
        <time>2020-12-06T08:16:29.390000+00:00</time>
      </trkpt>
      <trkpt lat="47.30021" lon="-1.34177">
        <ele>5</ele>
        <time>2020-12-06T08:16:30.377000+00:00</time>
      </trkpt>
      <trkpt lat="0" lon="0">
        <time>2020-12-06T08:16:30.396000+00:00</time>
      </trkpt>
      <trkpt lat="0" lon="0">
        <time>2020-12-06T08:16:30.402000+00:00</time>
      </trkpt>
      <trkpt lat="0" lon="0">
        <time>2020-12-06T08:16:30.407000+00:00</time>
      </trkpt>
      <trkpt lat="47.30019" lon="-1.34168">
        <ele>5</ele>
        <time>2020-12-06T08:16:31.418000+00:00</time>
      </trkpt>
      <trkpt lat="0" lon="0">
        <time>2020-12-06T08:16:31.424000+00:00</time>
      </trkpt>
      <trkpt lat="0" lon="0">
        <time>2020-12-06T08:16:31.434000+00:00</time>
      </trkpt>
      <trkpt lat="0" lon="0">
        <time>2020-12-06T08:16:31.438000+00:00</time>
      </trkpt>
      <trkpt lat="47.30017" lon="-1.34159">
        <ele>5</ele>
        <time>2020-12-06T08:16:32.371000+00:00</time>
      </trkpt>
      <trkpt lat="0" lon="0">
        <time>2020-12-06T08:16:32.375000+00:00</time>
      </trkpt>
      <trkpt lat="0" lon="0">
        <time>2020-12-06T08:16:32.380000+00:00</time>
      </trkpt>
      <trkpt lat="0" lon="0">
        <time>2020-12-06T08:16:32.384000+00:00</time>
      </trkpt>
      <trkpt lat="47.30015" lon="-1.3415">
        <ele>5</ele>
        <time>2020-12-06T08:16:33.372000+00:00</time>
      </trkpt>
      <trkpt lat="0" lon="0">
        <time>2020-12-06T08:16:33.391000+00:00</time>
      </trkpt>
      <trkpt lat="0" lon="0">
        <time>2020-12-06T08:16:33.399000+00:00</time>
      </trkpt>
      <trkpt lat="0" lon="0">
        <time>2020-12-06T08:16:33.402000+00:00</time>
      </trkpt>
      <trkpt lat="47.30014" lon="-1.34141">
        <ele>5</ele>
        <time>2020-12-06T08:16:34.328000+00:00</time>
      </trkpt>
      <trkpt lat="0" lon="0">
        <time>2020-12-06T08:16:34.332000+00:00</time>
      </trkpt>
      <trkpt lat="0" lon="0">
        <time>2020-12-06T08:16:34.347000+00:00</time>
      </trkpt>
      <trkpt lat="0" lon="0">
        <time>2020-12-06T08:16:34.349000+00:00</time>
      </trkpt>
      <trkpt lat="47.30013" lon="-1.34132">
        <ele>5</ele>
        <time>2020-12-06T08:16:35.386000+00:00</time>
      </trkpt>
      <trkpt lat="0" lon="0">
        <time>2020-12-06T08:16:35.392000+00:00</time>
      </trkpt>
      <trkpt lat="0" lon="0">
        <time>2020-12-06T08:16:35.398000+00:00</time>
      </trkpt>
      <trkpt lat="0" lon="0">
        <time>2020-12-06T08:16:35.404000+00:00</time>
      </trkpt>
      <trkpt lat="47.30012" lon="-1.34124">
        <ele>5</ele>
        <time>2020-12-06T08:16:36.322000+00:00</time>
      </trkpt>
      <trkpt lat="0" lon="0">
        <time>2020-12-06T08:16:36.329000+00:00</time>
      </trkpt>
      <trkpt lat="0" lon="0">
        <time>2020-12-06T08:16:36.332000+00:00</time>
      </trkpt>
      <trkpt lat="0" lon="0">
        <time>2020-12-06T08:16:36.334000+00:00</time>
      </trkpt>
      <trkpt lat="47.30013" lon="-1.34116">
        <ele>5</ele>
        <time>2020-12-06T08:16:37.333000+00:00</time>
      </trkpt>
      <trkpt lat="0" lon="0">
        <time>2020-12-06T08:16:37.339000+00:00</time>
      </trkpt>
      <trkpt lat="0" lon="0">
        <time>2020-12-06T08:16:37.348000+00:00</time>
      </trkpt>
      <trkpt lat="0" lon="0">
        <time>2020-12-06T08:16:37.350000+00:00</time>
      </trkpt>
      <trkpt lat="47.30015" lon="-1.34108">
        <ele>5</ele>
        <time>2020-12-06T08:16:38.332000+00:00</time>
      </trkpt>
      <trkpt lat="0" lon="0">
        <time>2020-12-06T08:16:38.335000+00:00</time>
      </trkpt>
      <trkpt lat="0" lon="0">
        <time>2020-12-06T08:16:38.346000+00:00</time>
      </trkpt>
      <trkpt lat="0" lon="0">
        <time>2020-12-06T08:16:38.356000+00:00</time>
      </trkpt>
      <trkpt lat="47.30018" lon="-1.34102">
        <ele>5</ele>
        <time>2020-12-06T08:16:39.319000+00:00</time>
      </trkpt>
      <trkpt lat="0" lon="0">
        <time>2020-12-06T08:16:39.322000+00:00</time>
      </trkpt>
      <trkpt lat="0" lon="0">
        <time>2020-12-06T08:16:39.329000+00:00</time>
      </trkpt>
      <trkpt lat="0" lon="0">
        <time>2020-12-06T08:16:39.331000+00:00</time>
      </trkpt>
      <trkpt lat="47.30022" lon="-1.34096">
        <ele>5</ele>
        <time>2020-12-06T08:16:40.380000+00:00</time>
      </trkpt>
      <trkpt lat="0" lon="0">
        <time>2020-12-06T08:16:40.381000+00:00</time>
      </trkpt>
      <trkpt lat="0" lon="0">
        <time>2020-12-06T08:16:40.383000+00:00</time>
      </trkpt>
      <trkpt lat="0" lon="0">
        <time>2020-12-06T08:16:40.384000+00:00</time>
      </trkpt>
      <trkpt lat="47.30027" lon="-1.34091">
        <ele>5</ele>
        <time>2020-12-06T08:16:41.353000+00:00</time>
      </trkpt>
      <trkpt lat="0" lon="0">
        <time>2020-12-06T08:16:41.363000+00:00</time>
      </trkpt>
      <trkpt lat="0" lon="0">
        <time>2020-12-06T08:16:41.367000+00:00</time>
      </trkpt>
      <trkpt lat="0" lon="0">
        <time>2020-12-06T08:16:41.369000+00:00</time>
      </trkpt>
      <trkpt lat="47.30033" lon="-1.34087">
        <ele>5</ele>
        <time>2020-12-06T08:16:42.382000+00:00</time>
      </trkpt>
      <trkpt lat="0" lon="0">
        <time>2020-12-06T08:16:42.385000+00:00</time>
      </trkpt>
      <trkpt lat="0" lon="0">
        <time>2020-12-06T08:16:42.394000+00:00</time>
      </trkpt>
      <trkpt lat="0" lon="0">
        <time>2020-12-06T08:16:42.397000+00:00</time>
      </trkpt>
      <trkpt lat="47.30039" lon="-1.34085">
        <ele>5</ele>
        <time>2020-12-06T08:16:43.393000+00:00</time>
      </trkpt>
      <trkpt lat="0" lon="0">
        <time>2020-12-06T08:16:43.410000+00:00</time>
      </trkpt>
      <trkpt lat="0" lon="0">
        <time>2020-12-06T08:16:43.418000+00:00</time>
      </trkpt>
      <trkpt lat="0" lon="0">
        <time>2020-12-06T08:16:43.420000+00:00</time>
      </trkpt>
      <trkpt lat="47.30046" lon="-1.34083">
        <ele>6</ele>
        <time>2020-12-06T08:16:44.401000+00:00</time>
      </trkpt>
      <trkpt lat="0" lon="0">
        <time>2020-12-06T08:16:44.409000+00:00</time>
      </trkpt>
      <trkpt lat="0" lon="0">
        <time>2020-12-06T08:16:44.411000+00:00</time>
      </trkpt>
      <trkpt lat="0" lon="0">
        <time>2020-12-06T08:16:44.412000+00:00</time>
      </trkpt>
      <trkpt lat="47.30053" lon="-1.34084">
        <ele>6</ele>
        <time>2020-12-06T08:16:45.391000+00:00</time>
      </trkpt>
      <trkpt lat="0" lon="0">
        <time>2020-12-06T08:16:45.402000+00:00</time>
      </trkpt>
      <trkpt lat="0" lon="0">
        <time>2020-12-06T08:16:45.408000+00:00</time>
      </trkpt>
      <trkpt lat="0" lon="0">
        <time>2020-12-06T08:16:45.410000+00:00</time>
      </trkpt>
      <trkpt lat="47.3006" lon="-1.34086">
        <ele>5</ele>
        <time>2020-12-06T08:16:46.337000+00:00</time>
      </trkpt>
      <trkpt lat="0" lon="0">
        <time>2020-12-06T08:16:46.351000+00:00</time>
      </trkpt>
      <trkpt lat="0" lon="0">
        <time>2020-12-06T08:16:46.354000+00:00</time>
      </trkpt>
      <trkpt lat="0" lon="0">
        <time>2020-12-06T08:16:46.356000+00:00</time>
      </trkpt>
      <trkpt lat="47.30066" lon="-1.34089">
        <ele>5</ele>
        <time>2020-12-06T08:16:47.344000+00:00</time>
      </trkpt>
      <trkpt lat="0" lon="0">
        <time>2020-12-06T08:16:47.348000+00:00</time>
      </trkpt>
      <trkpt lat="0" lon="0">
        <time>2020-12-06T08:16:47.358000+00:00</time>
      </trkpt>
      <trkpt lat="0" lon="0">
        <time>2020-12-06T08:16:47.362000+00:00</time>
      </trkpt>
      <trkpt lat="47.30072" lon="-1.34094">
        <ele>5</ele>
        <time>2020-12-06T08:16:48.367000+00:00</time>
      </trkpt>
      <trkpt lat="0" lon="0">
        <time>2020-12-06T08:16:48.375000+00:00</time>
      </trkpt>
      <trkpt lat="0" lon="0">
        <time>2020-12-06T08:16:48.379000+00:00</time>
      </trkpt>
      <trkpt lat="0" lon="0">
        <time>2020-12-06T08:16:48.381000+00:00</time>
      </trkpt>
      <trkpt lat="47.30078" lon="-1.341">
        <ele>5</ele>
        <time>2020-12-06T08:16:49.396000+00:00</time>
      </trkpt>
      <trkpt lat="0" lon="0">
        <time>2020-12-06T08:16:49.417000+00:00</time>
      </trkpt>
      <trkpt lat="0" lon="0">
        <time>2020-12-06T08:16:49.422000+00:00</time>
      </trkpt>
      <trkpt lat="0" lon="0">
        <time>2020-12-06T08:16:49.425000+00:00</time>
      </trkpt>
      <trkpt lat="47.30084" lon="-1.34106">
        <ele>5</ele>
        <time>2020-12-06T08:16:50.335000+00:00</time>
      </trkpt>
      <trkpt lat="0" lon="0">
        <time>2020-12-06T08:16:50.340000+00:00</time>
      </trkpt>
      <trkpt lat="0" lon="0">
        <time>2020-12-06T08:16:50.343000+00:00</time>
      </trkpt>
      <trkpt lat="0" lon="0">
        <time>2020-12-06T08:16:50.347000+00:00</time>
      </trkpt>
      <trkpt lat="47.30089" lon="-1.34113">
        <ele>5</ele>
        <time>2020-12-06T08:16:51.397000+00:00</time>
      </trkpt>
      <trkpt lat="0" lon="0">
        <time>2020-12-06T08:16:51.416000+00:00</time>
      </trkpt>
      <trkpt lat="0" lon="0">
        <time>2020-12-06T08:16:51.423000+00:00</time>
      </trkpt>
      <trkpt lat="0" lon="0">
        <time>2020-12-06T08:16:51.426000+00:00</time>
      </trkpt>
      <trkpt lat="47.30094" lon="-1.3412">
        <ele>5</ele>
        <time>2020-12-06T08:16:52.399000+00:00</time>
      </trkpt>
      <trkpt lat="0" lon="0">
        <time>2020-12-06T08:16:52.403000+00:00</time>
      </trkpt>
      <trkpt lat="0" lon="0">
        <time>2020-12-06T08:16:52.405000+00:00</time>
      </trkpt>
      <trkpt lat="0" lon="0">
        <time>2020-12-06T08:16:52.406000+00:00</time>
      </trkpt>
      <trkpt lat="47.30099" lon="-1.34126">
        <ele>5</ele>
        <time>2020-12-06T08:16:53.372000+00:00</time>
      </trkpt>
      <trkpt lat="0" lon="0">
        <time>2020-12-06T08:16:53.377000+00:00</time>
      </trkpt>
      <trkpt lat="0" lon="0">
        <time>2020-12-06T08:16:53.385000+00:00</time>
      </trkpt>
      <trkpt lat="0" lon="0">
        <time>2020-12-06T08:16:53.387000+00:00</time>
      </trkpt>
      <trkpt lat="47.30103" lon="-1.34131">
        <ele>5</ele>
        <time>2020-12-06T08:16:54.316000+00:00</time>
      </trkpt>
      <trkpt lat="0" lon="0">
        <time>2020-12-06T08:16:54.319000+00:00</time>
      </trkpt>
      <trkpt lat="0" lon="0">
        <time>2020-12-06T08:16:54.325000+00:00</time>
      </trkpt>
      <trkpt lat="0" lon="0">
        <time>2020-12-06T08:16:54.326000+00:00</time>
      </trkpt>
      <trkpt lat="47.30108" lon="-1.34134">
        <ele>5</ele>
        <time>2020-12-06T08:16:55.335000+00:00</time>
      </trkpt>
      <trkpt lat="0" lon="0">
        <time>2020-12-06T08:16:55.337000+00:00</time>
      </trkpt>
      <trkpt lat="0" lon="0">
        <time>2020-12-06T08:16:55.345000+00:00</time>
      </trkpt>
      <trkpt lat="0" lon="0">
        <time>2020-12-06T08:16:55.348000+00:00</time>
      </trkpt>
      <trkpt lat="47.30111" lon="-1.34134">
        <ele>5</ele>
        <time>2020-12-06T08:16:56.364000+00:00</time>
      </trkpt>
      <trkpt lat="0" lon="0">
        <time>2020-12-06T08:16:56.369000+00:00</time>
      </trkpt>
      <trkpt lat="0" lon="0">
        <time>2020-12-06T08:16:56.372000+00:00</time>
      </trkpt>
      <trkpt lat="0" lon="0">
        <time>2020-12-06T08:16:56.374000+00:00</time>
      </trkpt>
      <trkpt lat="47.30114" lon="-1.34133">
        <ele>5</ele>
        <time>2020-12-06T08:16:57.380000+00:00</time>
      </trkpt>
      <trkpt lat="0" lon="0">
        <time>2020-12-06T08:16:57.386000+00:00</time>
      </trkpt>
      <trkpt lat="0" lon="0">
        <time>2020-12-06T08:16:57.397000+00:00</time>
      </trkpt>
      <trkpt lat="0" lon="0">
        <time>2020-12-06T08:16:57.400000+00:00</time>
      </trkpt>
      <trkpt lat="47.30116" lon="-1.3413">
        <ele>5</ele>
        <time>2020-12-06T08:16:58.389000+00:00</time>
      </trkpt>
      <trkpt lat="0" lon="0">
        <time>2020-12-06T08:16:58.409000+00:00</time>
      </trkpt>
      <trkpt lat="0" lon="0">
        <time>2020-12-06T08:16:58.412000+00:00</time>
      </trkpt>
      <trkpt lat="0" lon="0">
        <time>2020-12-06T08:16:58.413000+00:00</time>
      </trkpt>
      <trkpt lat="47.30118" lon="-1.34126">
        <ele>5</ele>
        <time>2020-12-06T08:16:59.373000+00:00</time>
      </trkpt>
      <trkpt lat="0" lon="0">
        <time>2020-12-06T08:16:59.387000+00:00</time>
      </trkpt>
      <trkpt lat="0" lon="0">
        <time>2020-12-06T08:16:59.390000+00:00</time>
      </trkpt>
      <trkpt lat="0" lon="0">
        <time>2020-12-06T08:16:59.394000+00:00</time>
      </trkpt>
      <trkpt lat="47.3012" lon="-1.3412">
        <ele>5</ele>
        <time>2020-12-06T08:17:00.370000+00:00</time>
      </trkpt>
      <trkpt lat="0" lon="0">
        <time>2020-12-06T08:17:00.383000+00:00</time>
      </trkpt>
      <trkpt lat="0" lon="0">
        <time>2020-12-06T08:17:00.394000+00:00</time>
      </trkpt>
      <trkpt lat="0" lon="0">
        <time>2020-12-06T08:17:00.397000+00:00</time>
      </trkpt>
      <trkpt lat="47.30122" lon="-1.34114">
        <ele>5</ele>
        <time>2020-12-06T08:17:01.390000+00:00</time>
      </trkpt>
      <trkpt lat="0" lon="0">
        <time>2020-12-06T08:17:01.399000+00:00</time>
      </trkpt>
      <trkpt lat="0" lon="0">
        <time>2020-12-06T08:17:01.405000+00:00</time>
      </trkpt>
      <trkpt lat="0" lon="0">
        <time>2020-12-06T08:17:01.407000+00:00</time>
      </trkpt>
      <trkpt lat="47.30124" lon="-1.34107">
        <ele>5</ele>
        <time>2020-12-06T08:17:02.389000+00:00</time>
      </trkpt>
      <trkpt lat="0" lon="0">
        <time>2020-12-06T08:17:02.401000+00:00</time>
      </trkpt>
      <trkpt lat="0" lon="0">
        <time>2020-12-06T08:17:02.406000+00:00</time>
      </trkpt>
      <trkpt lat="0" lon="0">
        <time>2020-12-06T08:17:02.407000+00:00</time>
      </trkpt>
      <trkpt lat="47.30127" lon="-1.34099">
        <ele>5</ele>
        <time>2020-12-06T08:17:03.395000+00:00</time>
      </trkpt>
      <trkpt lat="0" lon="0">
        <time>2020-12-06T08:17:03.402000+00:00</time>
      </trkpt>
      <trkpt lat="0" lon="0">
        <time>2020-12-06T08:17:03.407000+00:00</time>
      </trkpt>
      <trkpt lat="0" lon="0">
        <time>2020-12-06T08:17:03.410000+00:00</time>
      </trkpt>
      <trkpt lat="47.30129" lon="-1.34092">
        <ele>5</ele>
        <time>2020-12-06T08:17:04.374000+00:00</time>
      </trkpt>
      <trkpt lat="0" lon="0">
        <time>2020-12-06T08:17:04.388000+00:00</time>
      </trkpt>
      <trkpt lat="0" lon="0">
        <time>2020-12-06T08:17:04.391000+00:00</time>
      </trkpt>
      <trkpt lat="0" lon="0">
        <time>2020-12-06T08:17:04.393000+00:00</time>
      </trkpt>
      <trkpt lat="47.30131" lon="-1.34084">
        <ele>5</ele>
        <time>2020-12-06T08:17:05.358000+00:00</time>
      </trkpt>
      <trkpt lat="0" lon="0">
        <time>2020-12-06T08:17:05.368000+00:00</time>
      </trkpt>
      <trkpt lat="0" lon="0">
        <time>2020-12-06T08:17:05.373000+00:00</time>
      </trkpt>
      <trkpt lat="0" lon="0">
        <time>2020-12-06T08:17:05.377000+00:00</time>
      </trkpt>
      <trkpt lat="47.30134" lon="-1.34077">
        <ele>5</ele>
        <time>2020-12-06T08:17:06.382000+00:00</time>
      </trkpt>
      <trkpt lat="0" lon="0">
        <time>2020-12-06T08:17:06.394000+00:00</time>
      </trkpt>
      <trkpt lat="0" lon="0">
        <time>2020-12-06T08:17:06.396000+00:00</time>
      </trkpt>
      <trkpt lat="0" lon="0">
        <time>2020-12-06T08:17:06.398000+00:00</time>
      </trkpt>
      <trkpt lat="47.30138" lon="-1.3407">
        <ele>5</ele>
        <time>2020-12-06T08:17:07.354000+00:00</time>
      </trkpt>
      <trkpt lat="0" lon="0">
        <time>2020-12-06T08:17:07.357000+00:00</time>
      </trkpt>
      <trkpt lat="0" lon="0">
        <time>2020-12-06T08:17:07.371000+00:00</time>
      </trkpt>
      <trkpt lat="0" lon="0">
        <time>2020-12-06T08:17:07.373000+00:00</time>
      </trkpt>
      <trkpt lat="47.30142" lon="-1.34063">
        <ele>5</ele>
        <time>2020-12-06T08:17:08.393000+00:00</time>
      </trkpt>
      <trkpt lat="0" lon="0">
        <time>2020-12-06T08:17:08.398000+00:00</time>
      </trkpt>
      <trkpt lat="0" lon="0">
        <time>2020-12-06T08:17:08.399000+00:00</time>
      </trkpt>
      <trkpt lat="0" lon="0">
        <time>2020-12-06T08:17:08.400000+00:00</time>
      </trkpt>
      <trkpt lat="47.30146" lon="-1.34057">
        <ele>5</ele>
        <time>2020-12-06T08:17:09.391000+00:00</time>
      </trkpt>
      <trkpt lat="0" lon="0">
        <time>2020-12-06T08:17:09.394000+00:00</time>
      </trkpt>
      <trkpt lat="0" lon="0">
        <time>2020-12-06T08:17:09.404000+00:00</time>
      </trkpt>
      <trkpt lat="0" lon="0">
        <time>2020-12-06T08:17:09.408000+00:00</time>
      </trkpt>
      <trkpt lat="47.30151" lon="-1.34051">
        <ele>5</ele>
        <time>2020-12-06T08:17:10.392000+00:00</time>
      </trkpt>
      <trkpt lat="0" lon="0">
        <time>2020-12-06T08:17:10.395000+00:00</time>
      </trkpt>
      <trkpt lat="0" lon="0">
        <time>2020-12-06T08:17:10.398000+00:00</time>
      </trkpt>
      <trkpt lat="0" lon="0">
        <time>2020-12-06T08:17:10.400000+00:00</time>
      </trkpt>
      <trkpt lat="47.30156" lon="-1.34045">
        <ele>5</ele>
        <time>2020-12-06T08:17:11.372000+00:00</time>
      </trkpt>
      <trkpt lat="0" lon="0">
        <time>2020-12-06T08:17:11.376000+00:00</time>
      </trkpt>
      <trkpt lat="0" lon="0">
        <time>2020-12-06T08:17:11.381000+00:00</time>
      </trkpt>
      <trkpt lat="0" lon="0">
        <time>2020-12-06T08:17:11.385000+00:00</time>
      </trkpt>
      <trkpt lat="47.3016" lon="-1.34039">
        <ele>5</ele>
        <time>2020-12-06T08:17:12.377000+00:00</time>
      </trkpt>
      <trkpt lat="0" lon="0">
        <time>2020-12-06T08:17:12.380000+00:00</time>
      </trkpt>
      <trkpt lat="0" lon="0">
        <time>2020-12-06T08:17:12.390000+00:00</time>
      </trkpt>
      <trkpt lat="0" lon="0">
        <time>2020-12-06T08:17:12.392000+00:00</time>
      </trkpt>
      <trkpt lat="47.30165" lon="-1.34033">
        <ele>5</ele>
        <time>2020-12-06T08:17:13.402000+00:00</time>
      </trkpt>
      <trkpt lat="0" lon="0">
        <time>2020-12-06T08:17:13.415000+00:00</time>
      </trkpt>
      <trkpt lat="0" lon="0">
        <time>2020-12-06T08:17:13.422000+00:00</time>
      </trkpt>
      <trkpt lat="0" lon="0">
        <time>2020-12-06T08:17:13.424000+00:00</time>
      </trkpt>
      <trkpt lat="47.3017" lon="-1.34027">
        <ele>5</ele>
        <time>2020-12-06T08:17:14.404000+00:00</time>
      </trkpt>
      <trkpt lat="0" lon="0">
        <time>2020-12-06T08:17:14.408000+00:00</time>
      </trkpt>
      <trkpt lat="0" lon="0">
        <time>2020-12-06T08:17:14.410000+00:00</time>
      </trkpt>
      <trkpt lat="47.30175" lon="-1.34021">
        <ele>5</ele>
        <time>2020-12-06T08:17:15.395000+00:00</time>
      </trkpt>
      <trkpt lat="0" lon="0">
        <time>2020-12-06T08:17:15.398000+00:00</time>
      </trkpt>
      <trkpt lat="0" lon="0">
        <time>2020-12-06T08:17:15.406000+00:00</time>
      </trkpt>
      <trkpt lat="0" lon="0">
        <time>2020-12-06T08:17:15.407000+00:00</time>
      </trkpt>
      <trkpt lat="47.30181" lon="-1.34015">
        <ele>5</ele>
        <time>2020-12-06T08:17:16.350000+00:00</time>
      </trkpt>
      <trkpt lat="0" lon="0">
        <time>2020-12-06T08:17:16.351000+00:00</time>
      </trkpt>
      <trkpt lat="0" lon="0">
        <time>2020-12-06T08:17:16.354000+00:00</time>
      </trkpt>
      <trkpt lat="0" lon="0">
        <time>2020-12-06T08:17:16.355000+00:00</time>
      </trkpt>
      <trkpt lat="47.30186" lon="-1.3401">
        <ele>5</ele>
        <time>2020-12-06T08:17:17.425000+00:00</time>
      </trkpt>
      <trkpt lat="0" lon="0">
        <time>2020-12-06T08:17:17.433000+00:00</time>
      </trkpt>
      <trkpt lat="0" lon="0">
        <time>2020-12-06T08:17:17.443000+00:00</time>
      </trkpt>
      <trkpt lat="0" lon="0">
        <time>2020-12-06T08:17:17.445000+00:00</time>
      </trkpt>
      <trkpt lat="47.30191" lon="-1.34004">
        <ele>5</ele>
        <time>2020-12-06T08:17:18.410000+00:00</time>
      </trkpt>
      <trkpt lat="0" lon="0">
        <time>2020-12-06T08:17:18.414000+00:00</time>
      </trkpt>
      <trkpt lat="0" lon="0">
        <time>2020-12-06T08:17:18.424000+00:00</time>
      </trkpt>
      <trkpt lat="0" lon="0">
        <time>2020-12-06T08:17:18.427000+00:00</time>
      </trkpt>
      <trkpt lat="47.30195" lon="-1.33999">
        <ele>5</ele>
        <time>2020-12-06T08:17:19.402000+00:00</time>
      </trkpt>
      <trkpt lat="0" lon="0">
        <time>2020-12-06T08:17:19.420000+00:00</time>
      </trkpt>
      <trkpt lat="0" lon="0">
        <time>2020-12-06T08:17:19.423000+00:00</time>
      </trkpt>
      <trkpt lat="0" lon="0">
        <time>2020-12-06T08:17:19.433000+00:00</time>
      </trkpt>
      <trkpt lat="47.302" lon="-1.33994">
        <ele>5</ele>
        <time>2020-12-06T08:17:20.400000+00:00</time>
      </trkpt>
      <trkpt lat="0" lon="0">
        <time>2020-12-06T08:17:20.405000+00:00</time>
      </trkpt>
      <trkpt lat="0" lon="0">
        <time>2020-12-06T08:17:20.414000+00:00</time>
      </trkpt>
      <trkpt lat="0" lon="0">
        <time>2020-12-06T08:17:20.416000+00:00</time>
      </trkpt>
      <trkpt lat="47.30205" lon="-1.33989">
        <ele>5</ele>
        <time>2020-12-06T08:17:21.381000+00:00</time>
      </trkpt>
      <trkpt lat="0" lon="0">
        <time>2020-12-06T08:17:21.393000+00:00</time>
      </trkpt>
      <trkpt lat="0" lon="0">
        <time>2020-12-06T08:17:21.398000+00:00</time>
      </trkpt>
      <trkpt lat="0" lon="0">
        <time>2020-12-06T08:17:21.403000+00:00</time>
      </trkpt>
      <trkpt lat="47.30209" lon="-1.33984">
        <ele>5</ele>
        <time>2020-12-06T08:17:22.398000+00:00</time>
      </trkpt>
      <trkpt lat="0" lon="0">
        <time>2020-12-06T08:17:22.407000+00:00</time>
      </trkpt>
      <trkpt lat="0" lon="0">
        <time>2020-12-06T08:17:22.414000+00:00</time>
      </trkpt>
      <trkpt lat="0" lon="0">
        <time>2020-12-06T08:17:22.417000+00:00</time>
      </trkpt>
      <trkpt lat="47.30214" lon="-1.3398">
        <ele>5</ele>
        <time>2020-12-06T08:17:23.423000+00:00</time>
      </trkpt>
      <trkpt lat="0" lon="0">
        <time>2020-12-06T08:17:23.426000+00:00</time>
      </trkpt>
      <trkpt lat="0" lon="0">
        <time>2020-12-06T08:17:23.431000+00:00</time>
      </trkpt>
      <trkpt lat="0" lon="0">
        <time>2020-12-06T08:17:23.432000+00:00</time>
      </trkpt>
      <trkpt lat="47.30217" lon="-1.33977">
        <ele>5</ele>
        <time>2020-12-06T08:17:24.360000+00:00</time>
      </trkpt>
      <trkpt lat="0" lon="0">
        <time>2020-12-06T08:17:24.367000+00:00</time>
      </trkpt>
      <trkpt lat="0" lon="0">
        <time>2020-12-06T08:17:24.378000+00:00</time>
      </trkpt>
      <trkpt lat="0" lon="0">
        <time>2020-12-06T08:17:24.381000+00:00</time>
      </trkpt>
      <trkpt lat="47.30221" lon="-1.33975">
        <ele>6</ele>
        <time>2020-12-06T08:17:25.385000+00:00</time>
      </trkpt>
      <trkpt lat="0" lon="0">
        <time>2020-12-06T08:17:25.394000+00:00</time>
      </trkpt>
      <trkpt lat="0" lon="0">
        <time>2020-12-06T08:17:25.398000+00:00</time>
      </trkpt>
      <trkpt lat="0" lon="0">
        <time>2020-12-06T08:17:25.400000+00:00</time>
      </trkpt>
      <trkpt lat="47.30224" lon="-1.33975">
        <ele>6</ele>
        <time>2020-12-06T08:17:26.374000+00:00</time>
      </trkpt>
      <trkpt lat="0" lon="0">
        <time>2020-12-06T08:17:26.383000+00:00</time>
      </trkpt>
      <trkpt lat="0" lon="0">
        <time>2020-12-06T08:17:26.386000+00:00</time>
      </trkpt>
      <trkpt lat="0" lon="0">
        <time>2020-12-06T08:17:26.388000+00:00</time>
      </trkpt>
      <trkpt lat="47.30226" lon="-1.33977">
        <ele>6</ele>
        <time>2020-12-06T08:17:27.391000+00:00</time>
      </trkpt>
      <trkpt lat="0" lon="0">
        <time>2020-12-06T08:17:27.394000+00:00</time>
      </trkpt>
      <trkpt lat="0" lon="0">
        <time>2020-12-06T08:17:27.407000+00:00</time>
      </trkpt>
      <trkpt lat="0" lon="0">
        <time>2020-12-06T08:17:27.408000+00:00</time>
      </trkpt>
      <trkpt lat="47.30228" lon="-1.3398">
        <ele>6</ele>
        <time>2020-12-06T08:17:28.367000+00:00</time>
      </trkpt>
      <trkpt lat="0" lon="0">
        <time>2020-12-06T08:17:28.375000+00:00</time>
      </trkpt>
      <trkpt lat="0" lon="0">
        <time>2020-12-06T08:17:28.377000+00:00</time>
      </trkpt>
      <trkpt lat="0" lon="0">
        <time>2020-12-06T08:17:28.378000+00:00</time>
      </trkpt>
      <trkpt lat="47.30229" lon="-1.33985">
        <ele>6</ele>
        <time>2020-12-06T08:17:29.347000+00:00</time>
      </trkpt>
      <trkpt lat="0" lon="0">
        <time>2020-12-06T08:17:29.361000+00:00</time>
      </trkpt>
      <trkpt lat="0" lon="0">
        <time>2020-12-06T08:17:29.364000+00:00</time>
      </trkpt>
      <trkpt lat="0" lon="0">
        <time>2020-12-06T08:17:29.367000+00:00</time>
      </trkpt>
      <trkpt lat="47.30231" lon="-1.33991">
        <ele>5</ele>
        <time>2020-12-06T08:17:30.353000+00:00</time>
      </trkpt>
      <trkpt lat="0" lon="0">
        <time>2020-12-06T08:17:30.362000+00:00</time>
      </trkpt>
      <trkpt lat="0" lon="0">
        <time>2020-12-06T08:17:30.367000+00:00</time>
      </trkpt>
      <trkpt lat="0" lon="0">
        <time>2020-12-06T08:17:30.368000+00:00</time>
      </trkpt>
      <trkpt lat="47.30232" lon="-1.33997">
        <ele>5</ele>
        <time>2020-12-06T08:17:31.384000+00:00</time>
      </trkpt>
      <trkpt lat="0" lon="0">
        <time>2020-12-06T08:17:31.400000+00:00</time>
      </trkpt>
      <trkpt lat="0" lon="0">
        <time>2020-12-06T08:17:31.403000+00:00</time>
      </trkpt>
      <trkpt lat="0" lon="0">
        <time>2020-12-06T08:17:31.406000+00:00</time>
      </trkpt>
      <trkpt lat="47.30234" lon="-1.34004">
        <ele>5</ele>
        <time>2020-12-06T08:17:32.407000+00:00</time>
      </trkpt>
      <trkpt lat="0" lon="0">
        <time>2020-12-06T08:17:32.409000+00:00</time>
      </trkpt>
      <trkpt lat="0" lon="0">
        <time>2020-12-06T08:17:32.410000+00:00</time>
      </trkpt>
      <trkpt lat="0" lon="0">
        <time>2020-12-06T08:17:32.411000+00:00</time>
      </trkpt>
      <trkpt lat="47.30235" lon="-1.34012">
        <ele>5</ele>
        <time>2020-12-06T08:17:33.388000+00:00</time>
      </trkpt>
      <trkpt lat="0" lon="0">
        <time>2020-12-06T08:17:33.396000+00:00</time>
      </trkpt>
      <trkpt lat="0" lon="0">
        <time>2020-12-06T08:17:33.400000+00:00</time>
      </trkpt>
      <trkpt lat="0" lon="0">
        <time>2020-12-06T08:17:33.401000+00:00</time>
      </trkpt>
      <trkpt lat="47.30237" lon="-1.34021">
        <ele>5</ele>
        <time>2020-12-06T08:17:34.392000+00:00</time>
      </trkpt>
      <trkpt lat="0" lon="0">
        <time>2020-12-06T08:17:34.406000+00:00</time>
      </trkpt>
      <trkpt lat="0" lon="0">
        <time>2020-12-06T08:17:34.412000+00:00</time>
      </trkpt>
      <trkpt lat="0" lon="0">
        <time>2020-12-06T08:17:34.414000+00:00</time>
      </trkpt>
      <trkpt lat="47.30238" lon="-1.3403">
        <ele>5</ele>
        <time>2020-12-06T08:17:35.404000+00:00</time>
      </trkpt>
      <trkpt lat="0" lon="0">
        <time>2020-12-06T08:17:35.407000+00:00</time>
      </trkpt>
      <trkpt lat="0" lon="0">
        <time>2020-12-06T08:17:35.409000+00:00</time>
      </trkpt>
      <trkpt lat="0" lon="0">
        <time>2020-12-06T08:17:35.411000+00:00</time>
      </trkpt>
      <trkpt lat="47.30239" lon="-1.3404">
        <ele>5</ele>
        <time>2020-12-06T08:17:36.393000+00:00</time>
      </trkpt>
      <trkpt lat="0" lon="0">
        <time>2020-12-06T08:17:36.397000+00:00</time>
      </trkpt>
      <trkpt lat="0" lon="0">
        <time>2020-12-06T08:17:36.405000+00:00</time>
      </trkpt>
      <trkpt lat="0" lon="0">
        <time>2020-12-06T08:17:36.406000+00:00</time>
      </trkpt>
      <trkpt lat="47.30241" lon="-1.34049">
        <ele>5</ele>
        <time>2020-12-06T08:17:37.399000+00:00</time>
      </trkpt>
      <trkpt lat="0" lon="0">
        <time>2020-12-06T08:17:37.402000+00:00</time>
      </trkpt>
      <trkpt lat="0" lon="0">
        <time>2020-12-06T08:17:37.424000+00:00</time>
      </trkpt>
      <trkpt lat="0" lon="0">
        <time>2020-12-06T08:17:37.426000+00:00</time>
      </trkpt>
      <trkpt lat="47.30243" lon="-1.34059">
        <ele>5</ele>
        <time>2020-12-06T08:17:38.359000+00:00</time>
      </trkpt>
      <trkpt lat="0" lon="0">
        <time>2020-12-06T08:17:38.364000+00:00</time>
      </trkpt>
      <trkpt lat="0" lon="0">
        <time>2020-12-06T08:17:38.365000+00:00</time>
      </trkpt>
      <trkpt lat="0" lon="0">
        <time>2020-12-06T08:17:38.366000+00:00</time>
      </trkpt>
      <trkpt lat="47.30245" lon="-1.34068">
        <ele>5</ele>
        <time>2020-12-06T08:17:39.380000+00:00</time>
      </trkpt>
      <trkpt lat="0" lon="0">
        <time>2020-12-06T08:17:39.395000+00:00</time>
      </trkpt>
      <trkpt lat="0" lon="0">
        <time>2020-12-06T08:17:39.399000+00:00</time>
      </trkpt>
      <trkpt lat="0" lon="0">
        <time>2020-12-06T08:17:39.401000+00:00</time>
      </trkpt>
      <trkpt lat="47.30247" lon="-1.34077">
        <ele>6</ele>
        <time>2020-12-06T08:17:40.410000+00:00</time>
      </trkpt>
      <trkpt lat="0" lon="0">
        <time>2020-12-06T08:17:40.413000+00:00</time>
      </trkpt>
      <trkpt lat="0" lon="0">
        <time>2020-12-06T08:17:40.425000+00:00</time>
      </trkpt>
      <trkpt lat="0" lon="0">
        <time>2020-12-06T08:17:40.428000+00:00</time>
      </trkpt>
      <trkpt lat="47.30249" lon="-1.34086">
        <ele>6</ele>
        <time>2020-12-06T08:17:41.389000+00:00</time>
      </trkpt>
      <trkpt lat="0" lon="0">
        <time>2020-12-06T08:17:41.392000+00:00</time>
      </trkpt>
      <trkpt lat="0" lon="0">
        <time>2020-12-06T08:17:41.396000+00:00</time>
      </trkpt>
      <trkpt lat="0" lon="0">
        <time>2020-12-06T08:17:41.398000+00:00</time>
      </trkpt>
      <trkpt lat="47.30251" lon="-1.34094">
        <ele>6</ele>
        <time>2020-12-06T08:17:42.374000+00:00</time>
      </trkpt>
      <trkpt lat="0" lon="0">
        <time>2020-12-06T08:17:42.392000+00:00</time>
      </trkpt>
      <trkpt lat="0" lon="0">
        <time>2020-12-06T08:17:42.395000+00:00</time>
      </trkpt>
      <trkpt lat="0" lon="0">
        <time>2020-12-06T08:17:42.397000+00:00</time>
      </trkpt>
      <trkpt lat="47.30253" lon="-1.34101">
        <ele>6</ele>
        <time>2020-12-06T08:17:43.401000+00:00</time>
      </trkpt>
      <trkpt lat="0" lon="0">
        <time>2020-12-06T08:17:43.404000+00:00</time>
      </trkpt>
      <trkpt lat="0" lon="0">
        <time>2020-12-06T08:17:43.408000+00:00</time>
      </trkpt>
      <trkpt lat="0" lon="0">
        <time>2020-12-06T08:17:43.410000+00:00</time>
      </trkpt>
      <trkpt lat="47.30256" lon="-1.34107">
        <ele>6</ele>
        <time>2020-12-06T08:17:44.393000+00:00</time>
      </trkpt>
      <trkpt lat="0" lon="0">
        <time>2020-12-06T08:17:44.402000+00:00</time>
      </trkpt>
      <trkpt lat="0" lon="0">
        <time>2020-12-06T08:17:44.404000+00:00</time>
      </trkpt>
      <trkpt lat="0" lon="0">
        <time>2020-12-06T08:17:44.405000+00:00</time>
      </trkpt>
      <trkpt lat="47.30259" lon="-1.34111">
        <ele>6</ele>
        <time>2020-12-06T08:17:45.365000+00:00</time>
      </trkpt>
      <trkpt lat="0" lon="0">
        <time>2020-12-06T08:17:45.372000+00:00</time>
      </trkpt>
      <trkpt lat="0" lon="0">
        <time>2020-12-06T08:17:45.374000+00:00</time>
      </trkpt>
      <trkpt lat="0" lon="0">
        <time>2020-12-06T08:17:45.375000+00:00</time>
      </trkpt>
      <trkpt lat="47.30262" lon="-1.34113">
        <ele>6</ele>
        <time>2020-12-06T08:17:46.380000+00:00</time>
      </trkpt>
      <trkpt lat="0" lon="0">
        <time>2020-12-06T08:17:46.383000+00:00</time>
      </trkpt>
      <trkpt lat="0" lon="0">
        <time>2020-12-06T08:17:46.389000+00:00</time>
      </trkpt>
      <trkpt lat="0" lon="0">
        <time>2020-12-06T08:17:46.391000+00:00</time>
      </trkpt>
      <trkpt lat="47.30266" lon="-1.34113">
        <ele>6</ele>
        <time>2020-12-06T08:17:47.385000+00:00</time>
      </trkpt>
      <trkpt lat="0" lon="0">
        <time>2020-12-06T08:17:47.389000+00:00</time>
      </trkpt>
      <trkpt lat="0" lon="0">
        <time>2020-12-06T08:17:47.396000+00:00</time>
      </trkpt>
      <trkpt lat="0" lon="0">
        <time>2020-12-06T08:17:47.397000+00:00</time>
      </trkpt>
      <trkpt lat="47.3027" lon="-1.34112">
        <ele>6</ele>
        <time>2020-12-06T08:17:48.393000+00:00</time>
      </trkpt>
      <trkpt lat="0" lon="0">
        <time>2020-12-06T08:17:48.400000+00:00</time>
      </trkpt>
      <trkpt lat="0" lon="0">
        <time>2020-12-06T08:17:48.404000+00:00</time>
      </trkpt>
      <trkpt lat="0" lon="0">
        <time>2020-12-06T08:17:48.405000+00:00</time>
      </trkpt>
      <trkpt lat="47.30274" lon="-1.34109">
        <ele>6</ele>
        <time>2020-12-06T08:17:49.431000+00:00</time>
      </trkpt>
      <trkpt lat="0" lon="0">
        <time>2020-12-06T08:17:49.440000+00:00</time>
      </trkpt>
      <trkpt lat="0" lon="0">
        <time>2020-12-06T08:17:49.444000+00:00</time>
      </trkpt>
      <trkpt lat="0" lon="0">
        <time>2020-12-06T08:17:49.445000+00:00</time>
      </trkpt>
      <trkpt lat="47.30278" lon="-1.34105">
        <ele>6</ele>
        <time>2020-12-06T08:17:50.399000+00:00</time>
      </trkpt>
      <trkpt lat="0" lon="0">
        <time>2020-12-06T08:17:50.406000+00:00</time>
      </trkpt>
      <trkpt lat="0" lon="0">
        <time>2020-12-06T08:17:50.418000+00:00</time>
      </trkpt>
      <trkpt lat="0" lon="0">
        <time>2020-12-06T08:17:50.420000+00:00</time>
      </trkpt>
      <trkpt lat="47.30283" lon="-1.341">
        <ele>6</ele>
        <time>2020-12-06T08:17:51.406000+00:00</time>
      </trkpt>
      <trkpt lat="0" lon="0">
        <time>2020-12-06T08:17:51.409000+00:00</time>
      </trkpt>
      <trkpt lat="0" lon="0">
        <time>2020-12-06T08:17:51.424000+00:00</time>
      </trkpt>
      <trkpt lat="0" lon="0">
        <time>2020-12-06T08:17:51.425000+00:00</time>
      </trkpt>
      <trkpt lat="47.30287" lon="-1.34094">
        <ele>6</ele>
        <time>2020-12-06T08:17:52.402000+00:00</time>
      </trkpt>
      <trkpt lat="0" lon="0">
        <time>2020-12-06T08:17:52.411000+00:00</time>
      </trkpt>
      <trkpt lat="0" lon="0">
        <time>2020-12-06T08:17:52.415000+00:00</time>
      </trkpt>
      <trkpt lat="0" lon="0">
        <time>2020-12-06T08:17:52.418000+00:00</time>
      </trkpt>
      <trkpt lat="47.30292" lon="-1.34088">
        <ele>6</ele>
        <time>2020-12-06T08:17:53.390000+00:00</time>
      </trkpt>
      <trkpt lat="0" lon="0">
        <time>2020-12-06T08:17:53.393000+00:00</time>
      </trkpt>
      <trkpt lat="0" lon="0">
        <time>2020-12-06T08:17:53.395000+00:00</time>
      </trkpt>
      <trkpt lat="0" lon="0">
        <time>2020-12-06T08:17:53.401000+00:00</time>
      </trkpt>
      <trkpt lat="47.30297" lon="-1.34081">
        <ele>6</ele>
        <time>2020-12-06T08:17:54.406000+00:00</time>
      </trkpt>
      <trkpt lat="0" lon="0">
        <time>2020-12-06T08:17:54.412000+00:00</time>
      </trkpt>
      <trkpt lat="0" lon="0">
        <time>2020-12-06T08:17:54.420000+00:00</time>
      </trkpt>
      <trkpt lat="0" lon="0">
        <time>2020-12-06T08:17:54.432000+00:00</time>
      </trkpt>
      <trkpt lat="47.30303" lon="-1.34074">
        <ele>6</ele>
        <time>2020-12-06T08:17:55.382000+00:00</time>
      </trkpt>
      <trkpt lat="0" lon="0">
        <time>2020-12-06T08:17:55.389000+00:00</time>
      </trkpt>
      <trkpt lat="0" lon="0">
        <time>2020-12-06T08:17:55.397000+00:00</time>
      </trkpt>
      <trkpt lat="0" lon="0">
        <time>2020-12-06T08:17:55.398000+00:00</time>
      </trkpt>
      <trkpt lat="47.30308" lon="-1.34067">
        <ele>6</ele>
        <time>2020-12-06T08:17:56.380000+00:00</time>
      </trkpt>
      <trkpt lat="0" lon="0">
        <time>2020-12-06T08:17:56.384000+00:00</time>
      </trkpt>
      <trkpt lat="0" lon="0">
        <time>2020-12-06T08:17:56.387000+00:00</time>
      </trkpt>
      <trkpt lat="0" lon="0">
        <time>2020-12-06T08:17:56.388000+00:00</time>
      </trkpt>
      <trkpt lat="47.30314" lon="-1.3406">
        <ele>6</ele>
        <time>2020-12-06T08:17:57.385000+00:00</time>
      </trkpt>
      <trkpt lat="0" lon="0">
        <time>2020-12-06T08:17:57.397000+00:00</time>
      </trkpt>
      <trkpt lat="0" lon="0">
        <time>2020-12-06T08:17:57.406000+00:00</time>
      </trkpt>
      <trkpt lat="0" lon="0">
        <time>2020-12-06T08:17:57.408000+00:00</time>
      </trkpt>
      <trkpt lat="47.30319" lon="-1.34053">
        <ele>6</ele>
        <time>2020-12-06T08:17:58.388000+00:00</time>
      </trkpt>
      <trkpt lat="0" lon="0">
        <time>2020-12-06T08:17:58.404000+00:00</time>
      </trkpt>
      <trkpt lat="0" lon="0">
        <time>2020-12-06T08:17:58.412000+00:00</time>
      </trkpt>
      <trkpt lat="0" lon="0">
        <time>2020-12-06T08:17:58.416000+00:00</time>
      </trkpt>
      <trkpt lat="47.30323" lon="-1.34046">
        <ele>6</ele>
        <time>2020-12-06T08:17:59.400000+00:00</time>
      </trkpt>
      <trkpt lat="0" lon="0">
        <time>2020-12-06T08:17:59.407000+00:00</time>
      </trkpt>
      <trkpt lat="0" lon="0">
        <time>2020-12-06T08:17:59.413000+00:00</time>
      </trkpt>
      <trkpt lat="0" lon="0">
        <time>2020-12-06T08:17:59.415000+00:00</time>
      </trkpt>
      <trkpt lat="47.30328" lon="-1.34038">
        <ele>7</ele>
        <time>2020-12-06T08:18:00.396000+00:00</time>
      </trkpt>
      <trkpt lat="0" lon="0">
        <time>2020-12-06T08:18:00.407000+00:00</time>
      </trkpt>
      <trkpt lat="0" lon="0">
        <time>2020-12-06T08:18:00.410000+00:00</time>
      </trkpt>
      <trkpt lat="0" lon="0">
        <time>2020-12-06T08:18:00.419000+00:00</time>
      </trkpt>
      <trkpt lat="47.30332" lon="-1.34031">
        <ele>7</ele>
        <time>2020-12-06T08:18:01.420000+00:00</time>
      </trkpt>
      <trkpt lat="0" lon="0">
        <time>2020-12-06T08:18:01.421000+00:00</time>
      </trkpt>
      <trkpt lat="0" lon="0">
        <time>2020-12-06T08:18:01.423000+00:00</time>
      </trkpt>
      <trkpt lat="0" lon="0">
        <time>2020-12-06T08:18:01.425000+00:00</time>
      </trkpt>
      <trkpt lat="47.30336" lon="-1.34023">
        <ele>7</ele>
        <time>2020-12-06T08:18:02.398000+00:00</time>
      </trkpt>
      <trkpt lat="0" lon="0">
        <time>2020-12-06T08:18:02.401000+00:00</time>
      </trkpt>
      <trkpt lat="0" lon="0">
        <time>2020-12-06T08:18:02.410000+00:00</time>
      </trkpt>
      <trkpt lat="0" lon="0">
        <time>2020-12-06T08:18:02.412000+00:00</time>
      </trkpt>
      <trkpt lat="47.3034" lon="-1.34016">
        <ele>7</ele>
        <time>2020-12-06T08:18:03.401000+00:00</time>
      </trkpt>
      <trkpt lat="0" lon="0">
        <time>2020-12-06T08:18:03.413000+00:00</time>
      </trkpt>
      <trkpt lat="0" lon="0">
        <time>2020-12-06T08:18:03.419000+00:00</time>
      </trkpt>
      <trkpt lat="0" lon="0">
        <time>2020-12-06T08:18:03.421000+00:00</time>
      </trkpt>
      <trkpt lat="47.30344" lon="-1.34008">
        <ele>7</ele>
        <time>2020-12-06T08:18:04.404000+00:00</time>
      </trkpt>
      <trkpt lat="0" lon="0">
        <time>2020-12-06T08:18:04.408000+00:00</time>
      </trkpt>
      <trkpt lat="0" lon="0">
        <time>2020-12-06T08:18:04.410000+00:00</time>
      </trkpt>
      <trkpt lat="0" lon="0">
        <time>2020-12-06T08:18:04.411000+00:00</time>
      </trkpt>
      <trkpt lat="47.30348" lon="-1.34001">
        <ele>8</ele>
        <time>2020-12-06T08:18:05.383000+00:00</time>
      </trkpt>
      <trkpt lat="0" lon="0">
        <time>2020-12-06T08:18:05.386000+00:00</time>
      </trkpt>
      <trkpt lat="0" lon="0">
        <time>2020-12-06T08:18:05.394000+00:00</time>
      </trkpt>
      <trkpt lat="0" lon="0">
        <time>2020-12-06T08:18:05.397000+00:00</time>
      </trkpt>
      <trkpt lat="47.30351" lon="-1.33994">
        <ele>8</ele>
        <time>2020-12-06T08:18:06.439000+00:00</time>
      </trkpt>
      <trkpt lat="0" lon="0">
        <time>2020-12-06T08:18:06.455000+00:00</time>
      </trkpt>
      <trkpt lat="0" lon="0">
        <time>2020-12-06T08:18:06.465000+00:00</time>
      </trkpt>
      <trkpt lat="0" lon="0">
        <time>2020-12-06T08:18:06.468000+00:00</time>
      </trkpt>
      <trkpt lat="47.30355" lon="-1.33988">
        <ele>8</ele>
        <time>2020-12-06T08:18:07.393000+00:00</time>
      </trkpt>
      <trkpt lat="0" lon="0">
        <time>2020-12-06T08:18:07.396000+00:00</time>
      </trkpt>
      <trkpt lat="0" lon="0">
        <time>2020-12-06T08:18:07.398000+00:00</time>
      </trkpt>
      <trkpt lat="0" lon="0">
        <time>2020-12-06T08:18:07.411000+00:00</time>
      </trkpt>
      <trkpt lat="47.30358" lon="-1.33981">
        <ele>8</ele>
        <time>2020-12-06T08:18:08.402000+00:00</time>
      </trkpt>
      <trkpt lat="0" lon="0">
        <time>2020-12-06T08:18:08.408000+00:00</time>
      </trkpt>
      <trkpt lat="0" lon="0">
        <time>2020-12-06T08:18:08.410000+00:00</time>
      </trkpt>
      <trkpt lat="0" lon="0">
        <time>2020-12-06T08:18:08.411000+00:00</time>
      </trkpt>
      <trkpt lat="47.30361" lon="-1.33974">
        <ele>8</ele>
        <time>2020-12-06T08:18:09.376000+00:00</time>
      </trkpt>
      <trkpt lat="0" lon="0">
        <time>2020-12-06T08:18:09.390000+00:00</time>
      </trkpt>
      <trkpt lat="0" lon="0">
        <time>2020-12-06T08:18:09.394000+00:00</time>
      </trkpt>
      <trkpt lat="47.30364" lon="-1.33967">
        <ele>8</ele>
        <time>2020-12-06T08:18:10.401000+00:00</time>
      </trkpt>
      <trkpt lat="0" lon="0">
        <time>2020-12-06T08:18:10.413000+00:00</time>
      </trkpt>
      <trkpt lat="0" lon="0">
        <time>2020-12-06T08:18:10.417000+00:00</time>
      </trkpt>
      <trkpt lat="0" lon="0">
        <time>2020-12-06T08:18:10.419000+00:00</time>
      </trkpt>
      <trkpt lat="47.30367" lon="-1.33961">
        <ele>8</ele>
        <time>2020-12-06T08:18:11.403000+00:00</time>
      </trkpt>
      <trkpt lat="0" lon="0">
        <time>2020-12-06T08:18:11.410000+00:00</time>
      </trkpt>
      <trkpt lat="0" lon="0">
        <time>2020-12-06T08:18:11.414000+00:00</time>
      </trkpt>
      <trkpt lat="0" lon="0">
        <time>2020-12-06T08:18:11.417000+00:00</time>
      </trkpt>
      <trkpt lat="47.3037" lon="-1.33955">
        <ele>8</ele>
        <time>2020-12-06T08:18:12.423000+00:00</time>
      </trkpt>
      <trkpt lat="0" lon="0">
        <time>2020-12-06T08:18:12.434000+00:00</time>
      </trkpt>
      <trkpt lat="0" lon="0">
        <time>2020-12-06T08:18:12.439000+00:00</time>
      </trkpt>
      <trkpt lat="0" lon="0">
        <time>2020-12-06T08:18:12.441000+00:00</time>
      </trkpt>
      <trkpt lat="47.30373" lon="-1.3395">
        <ele>8</ele>
        <time>2020-12-06T08:18:13.398000+00:00</time>
      </trkpt>
      <trkpt lat="0" lon="0">
        <time>2020-12-06T08:18:13.401000+00:00</time>
      </trkpt>
      <trkpt lat="0" lon="0">
        <time>2020-12-06T08:18:13.408000+00:00</time>
      </trkpt>
      <trkpt lat="0" lon="0">
        <time>2020-12-06T08:18:13.410000+00:00</time>
      </trkpt>
      <trkpt lat="47.30377" lon="-1.33947">
        <ele>8</ele>
        <time>2020-12-06T08:18:14.371000+00:00</time>
      </trkpt>
      <trkpt lat="0" lon="0">
        <time>2020-12-06T08:18:14.384000+00:00</time>
      </trkpt>
      <trkpt lat="0" lon="0">
        <time>2020-12-06T08:18:14.391000+00:00</time>
      </trkpt>
      <trkpt lat="0" lon="0">
        <time>2020-12-06T08:18:14.392000+00:00</time>
      </trkpt>
      <trkpt lat="47.30381" lon="-1.33944">
        <ele>8</ele>
        <time>2020-12-06T08:18:15.416000+00:00</time>
      </trkpt>
      <trkpt lat="0" lon="0">
        <time>2020-12-06T08:18:15.425000+00:00</time>
      </trkpt>
      <trkpt lat="0" lon="0">
        <time>2020-12-06T08:18:15.430000+00:00</time>
      </trkpt>
      <trkpt lat="0" lon="0">
        <time>2020-12-06T08:18:15.432000+00:00</time>
      </trkpt>
      <trkpt lat="47.30385" lon="-1.33941">
        <ele>8</ele>
        <time>2020-12-06T08:18:16.421000+00:00</time>
      </trkpt>
      <trkpt lat="0" lon="0">
        <time>2020-12-06T08:18:16.434000+00:00</time>
      </trkpt>
      <trkpt lat="0" lon="0">
        <time>2020-12-06T08:18:16.440000+00:00</time>
      </trkpt>
      <trkpt lat="0" lon="0">
        <time>2020-12-06T08:18:16.448000+00:00</time>
      </trkpt>
      <trkpt lat="47.30389" lon="-1.33937">
        <ele>8</ele>
        <time>2020-12-06T08:18:17.373000+00:00</time>
      </trkpt>
      <trkpt lat="0" lon="0">
        <time>2020-12-06T08:18:17.386000+00:00</time>
      </trkpt>
      <trkpt lat="0" lon="0">
        <time>2020-12-06T08:18:17.396000+00:00</time>
      </trkpt>
      <trkpt lat="0" lon="0">
        <time>2020-12-06T08:18:17.397000+00:00</time>
      </trkpt>
      <trkpt lat="47.30392" lon="-1.33934">
        <ele>8</ele>
        <time>2020-12-06T08:18:18.401000+00:00</time>
      </trkpt>
      <trkpt lat="0" lon="0">
        <time>2020-12-06T08:18:18.411000+00:00</time>
      </trkpt>
      <trkpt lat="0" lon="0">
        <time>2020-12-06T08:18:18.413000+00:00</time>
      </trkpt>
      <trkpt lat="0" lon="0">
        <time>2020-12-06T08:18:18.420000+00:00</time>
      </trkpt>
      <trkpt lat="47.30396" lon="-1.3393">
        <ele>8</ele>
        <time>2020-12-06T08:18:19.397000+00:00</time>
      </trkpt>
      <trkpt lat="0" lon="0">
        <time>2020-12-06T08:18:19.401000+00:00</time>
      </trkpt>
      <trkpt lat="0" lon="0">
        <time>2020-12-06T08:18:19.415000+00:00</time>
      </trkpt>
      <trkpt lat="0" lon="0">
        <time>2020-12-06T08:18:19.417000+00:00</time>
      </trkpt>
      <trkpt lat="47.304" lon="-1.33925">
        <ele>8</ele>
        <time>2020-12-06T08:18:20.415000+00:00</time>
      </trkpt>
      <trkpt lat="0" lon="0">
        <time>2020-12-06T08:18:20.427000+00:00</time>
      </trkpt>
      <trkpt lat="0" lon="0">
        <time>2020-12-06T08:18:20.431000+00:00</time>
      </trkpt>
      <trkpt lat="0" lon="0">
        <time>2020-12-06T08:18:20.434000+00:00</time>
      </trkpt>
      <trkpt lat="47.30404" lon="-1.33921">
        <ele>8</ele>
        <time>2020-12-06T08:18:21.411000+00:00</time>
      </trkpt>
      <trkpt lat="0" lon="0">
        <time>2020-12-06T08:18:21.414000+00:00</time>
      </trkpt>
      <trkpt lat="0" lon="0">
        <time>2020-12-06T08:18:21.423000+00:00</time>
      </trkpt>
      <trkpt lat="0" lon="0">
        <time>2020-12-06T08:18:21.425000+00:00</time>
      </trkpt>
      <trkpt lat="47.30408" lon="-1.33916">
        <ele>8</ele>
        <time>2020-12-06T08:18:22.389000+00:00</time>
      </trkpt>
      <trkpt lat="0" lon="0">
        <time>2020-12-06T08:18:22.390000+00:00</time>
      </trkpt>
      <trkpt lat="0" lon="0">
        <time>2020-12-06T08:18:22.391000+00:00</time>
      </trkpt>
      <trkpt lat="0" lon="0">
        <time>2020-12-06T08:18:22.392000+00:00</time>
      </trkpt>
      <trkpt lat="47.30412" lon="-1.33911">
        <ele>8</ele>
        <time>2020-12-06T08:18:23.389000+00:00</time>
      </trkpt>
      <trkpt lat="0" lon="0">
        <time>2020-12-06T08:18:23.393000+00:00</time>
      </trkpt>
      <trkpt lat="0" lon="0">
        <time>2020-12-06T08:18:23.398000+00:00</time>
      </trkpt>
      <trkpt lat="0" lon="0">
        <time>2020-12-06T08:18:23.402000+00:00</time>
      </trkpt>
      <trkpt lat="47.30416" lon="-1.33905">
        <ele>8</ele>
        <time>2020-12-06T08:18:24.400000+00:00</time>
      </trkpt>
      <trkpt lat="0" lon="0">
        <time>2020-12-06T08:18:24.408000+00:00</time>
      </trkpt>
      <trkpt lat="0" lon="0">
        <time>2020-12-06T08:18:24.411000+00:00</time>
      </trkpt>
      <trkpt lat="0" lon="0">
        <time>2020-12-06T08:18:24.413000+00:00</time>
      </trkpt>
      <trkpt lat="47.3042" lon="-1.339">
        <ele>8</ele>
        <time>2020-12-06T08:18:25.410000+00:00</time>
      </trkpt>
      <trkpt lat="0" lon="0">
        <time>2020-12-06T08:18:25.420000+00:00</time>
      </trkpt>
      <trkpt lat="0" lon="0">
        <time>2020-12-06T08:18:25.424000+00:00</time>
      </trkpt>
      <trkpt lat="0" lon="0">
        <time>2020-12-06T08:18:25.426000+00:00</time>
      </trkpt>
      <trkpt lat="47.30425" lon="-1.33895">
        <ele>8</ele>
        <time>2020-12-06T08:18:26.375000+00:00</time>
      </trkpt>
      <trkpt lat="0" lon="0">
        <time>2020-12-06T08:18:26.384000+00:00</time>
      </trkpt>
      <trkpt lat="0" lon="0">
        <time>2020-12-06T08:18:26.387000+00:00</time>
      </trkpt>
      <trkpt lat="0" lon="0">
        <time>2020-12-06T08:18:26.388000+00:00</time>
      </trkpt>
      <trkpt lat="47.30429" lon="-1.3389">
        <ele>7</ele>
        <time>2020-12-06T08:18:27.417000+00:00</time>
      </trkpt>
      <trkpt lat="0" lon="0">
        <time>2020-12-06T08:18:27.427000+00:00</time>
      </trkpt>
      <trkpt lat="0" lon="0">
        <time>2020-12-06T08:18:27.431000+00:00</time>
      </trkpt>
      <trkpt lat="0" lon="0">
        <time>2020-12-06T08:18:27.435000+00:00</time>
      </trkpt>
      <trkpt lat="47.30434" lon="-1.33885">
        <ele>7</ele>
        <time>2020-12-06T08:18:28.372000+00:00</time>
      </trkpt>
      <trkpt lat="0" lon="0">
        <time>2020-12-06T08:18:28.385000+00:00</time>
      </trkpt>
      <trkpt lat="0" lon="0">
        <time>2020-12-06T08:18:28.392000+00:00</time>
      </trkpt>
      <trkpt lat="0" lon="0">
        <time>2020-12-06T08:18:28.395000+00:00</time>
      </trkpt>
      <trkpt lat="47.30438" lon="-1.3388">
        <ele>7</ele>
        <time>2020-12-06T08:18:29.409000+00:00</time>
      </trkpt>
      <trkpt lat="0" lon="0">
        <time>2020-12-06T08:18:29.415000+00:00</time>
      </trkpt>
      <trkpt lat="0" lon="0">
        <time>2020-12-06T08:18:29.418000+00:00</time>
      </trkpt>
      <trkpt lat="0" lon="0">
        <time>2020-12-06T08:18:29.420000+00:00</time>
      </trkpt>
      <trkpt lat="47.30443" lon="-1.33875">
        <ele>7</ele>
        <time>2020-12-06T08:18:30.423000+00:00</time>
      </trkpt>
      <trkpt lat="0" lon="0">
        <time>2020-12-06T08:18:30.427000+00:00</time>
      </trkpt>
      <trkpt lat="0" lon="0">
        <time>2020-12-06T08:18:30.431000+00:00</time>
      </trkpt>
      <trkpt lat="0" lon="0">
        <time>2020-12-06T08:18:30.433000+00:00</time>
      </trkpt>
      <trkpt lat="47.30447" lon="-1.3387">
        <ele>7</ele>
        <time>2020-12-06T08:18:31.401000+00:00</time>
      </trkpt>
      <trkpt lat="0" lon="0">
        <time>2020-12-06T08:18:31.403000+00:00</time>
      </trkpt>
      <trkpt lat="0" lon="0">
        <time>2020-12-06T08:18:31.408000+00:00</time>
      </trkpt>
      <trkpt lat="0" lon="0">
        <time>2020-12-06T08:18:31.410000+00:00</time>
      </trkpt>
      <trkpt lat="47.30452" lon="-1.33865">
        <ele>7</ele>
        <time>2020-12-06T08:18:32.402000+00:00</time>
      </trkpt>
      <trkpt lat="0" lon="0">
        <time>2020-12-06T08:18:32.408000+00:00</time>
      </trkpt>
      <trkpt lat="0" lon="0">
        <time>2020-12-06T08:18:32.409000+00:00</time>
      </trkpt>
      <trkpt lat="0" lon="0">
        <time>2020-12-06T08:18:32.410000+00:00</time>
      </trkpt>
      <trkpt lat="47.30457" lon="-1.33861">
        <ele>7</ele>
        <time>2020-12-06T08:18:33.381000+00:00</time>
      </trkpt>
      <trkpt lat="0" lon="0">
        <time>2020-12-06T08:18:33.384000+00:00</time>
      </trkpt>
      <trkpt lat="0" lon="0">
        <time>2020-12-06T08:18:33.386000+00:00</time>
      </trkpt>
      <trkpt lat="0" lon="0">
        <time>2020-12-06T08:18:33.394000+00:00</time>
      </trkpt>
      <trkpt lat="47.30462" lon="-1.33856">
        <ele>7</ele>
        <time>2020-12-06T08:18:34.413000+00:00</time>
      </trkpt>
      <trkpt lat="0" lon="0">
        <time>2020-12-06T08:18:34.414000+00:00</time>
      </trkpt>
      <trkpt lat="0" lon="0">
        <time>2020-12-06T08:18:34.419000+00:00</time>
      </trkpt>
      <trkpt lat="0" lon="0">
        <time>2020-12-06T08:18:34.420000+00:00</time>
      </trkpt>
      <trkpt lat="47.30467" lon="-1.33851">
        <ele>6</ele>
        <time>2020-12-06T08:18:35.438000+00:00</time>
      </trkpt>
      <trkpt lat="0" lon="0">
        <time>2020-12-06T08:18:35.441000+00:00</time>
      </trkpt>
      <trkpt lat="0" lon="0">
        <time>2020-12-06T08:18:35.451000+00:00</time>
      </trkpt>
      <trkpt lat="0" lon="0">
        <time>2020-12-06T08:18:35.457000+00:00</time>
      </trkpt>
      <trkpt lat="47.30472" lon="-1.33846">
        <ele>6</ele>
        <time>2020-12-06T08:18:36.395000+00:00</time>
      </trkpt>
      <trkpt lat="0" lon="0">
        <time>2020-12-06T08:18:36.403000+00:00</time>
      </trkpt>
      <trkpt lat="0" lon="0">
        <time>2020-12-06T08:18:36.407000+00:00</time>
      </trkpt>
      <trkpt lat="0" lon="0">
        <time>2020-12-06T08:18:36.409000+00:00</time>
      </trkpt>
      <trkpt lat="47.30477" lon="-1.33841">
        <ele>6</ele>
        <time>2020-12-06T08:18:37.405000+00:00</time>
      </trkpt>
      <trkpt lat="0" lon="0">
        <time>2020-12-06T08:18:37.409000+00:00</time>
      </trkpt>
      <trkpt lat="0" lon="0">
        <time>2020-12-06T08:18:37.415000+00:00</time>
      </trkpt>
      <trkpt lat="0" lon="0">
        <time>2020-12-06T08:18:37.417000+00:00</time>
      </trkpt>
      <trkpt lat="47.30482" lon="-1.33836">
        <ele>6</ele>
        <time>2020-12-06T08:18:38.379000+00:00</time>
      </trkpt>
      <trkpt lat="0" lon="0">
        <time>2020-12-06T08:18:38.381000+00:00</time>
      </trkpt>
      <trkpt lat="0" lon="0">
        <time>2020-12-06T08:18:38.382000+00:00</time>
      </trkpt>
      <trkpt lat="0" lon="0">
        <time>2020-12-06T08:18:38.383000+00:00</time>
      </trkpt>
      <trkpt lat="47.30487" lon="-1.33832">
        <ele>6</ele>
        <time>2020-12-06T08:18:39.413000+00:00</time>
      </trkpt>
      <trkpt lat="0" lon="0">
        <time>2020-12-06T08:18:39.414000+00:00</time>
      </trkpt>
      <trkpt lat="0" lon="0">
        <time>2020-12-06T08:18:39.416000+00:00</time>
      </trkpt>
      <trkpt lat="0" lon="0">
        <time>2020-12-06T08:18:39.417000+00:00</time>
      </trkpt>
      <trkpt lat="47.30493" lon="-1.33827">
        <ele>6</ele>
        <time>2020-12-06T08:18:40.413000+00:00</time>
      </trkpt>
      <trkpt lat="0" lon="0">
        <time>2020-12-06T08:18:40.417000+00:00</time>
      </trkpt>
      <trkpt lat="0" lon="0">
        <time>2020-12-06T08:18:40.420000+00:00</time>
      </trkpt>
      <trkpt lat="0" lon="0">
        <time>2020-12-06T08:18:40.423000+00:00</time>
      </trkpt>
      <trkpt lat="47.30498" lon="-1.33823">
        <ele>7</ele>
        <time>2020-12-06T08:18:41.388000+00:00</time>
      </trkpt>
      <trkpt lat="0" lon="0">
        <time>2020-12-06T08:18:41.400000+00:00</time>
      </trkpt>
      <trkpt lat="0" lon="0">
        <time>2020-12-06T08:18:41.402000+00:00</time>
      </trkpt>
      <trkpt lat="0" lon="0">
        <time>2020-12-06T08:18:41.403000+00:00</time>
      </trkpt>
      <trkpt lat="47.30503" lon="-1.33819">
        <ele>7</ele>
        <time>2020-12-06T08:18:42.398000+00:00</time>
      </trkpt>
      <trkpt lat="0" lon="0">
        <time>2020-12-06T08:18:42.404000+00:00</time>
      </trkpt>
      <trkpt lat="0" lon="0">
        <time>2020-12-06T08:18:42.412000+00:00</time>
      </trkpt>
      <trkpt lat="0" lon="0">
        <time>2020-12-06T08:18:42.415000+00:00</time>
      </trkpt>
      <trkpt lat="47.30509" lon="-1.33815">
        <ele>7</ele>
        <time>2020-12-06T08:18:43.426000+00:00</time>
      </trkpt>
      <trkpt lat="0" lon="0">
        <time>2020-12-06T08:18:43.442000+00:00</time>
      </trkpt>
      <trkpt lat="0" lon="0">
        <time>2020-12-06T08:18:43.448000+00:00</time>
      </trkpt>
      <trkpt lat="0" lon="0">
        <time>2020-12-06T08:18:43.450000+00:00</time>
      </trkpt>
      <trkpt lat="47.30514" lon="-1.33811">
        <ele>7</ele>
        <time>2020-12-06T08:18:44.388000+00:00</time>
      </trkpt>
      <trkpt lat="0" lon="0">
        <time>2020-12-06T08:18:44.392000+00:00</time>
      </trkpt>
      <trkpt lat="0" lon="0">
        <time>2020-12-06T08:18:44.395000+00:00</time>
      </trkpt>
      <trkpt lat="0" lon="0">
        <time>2020-12-06T08:18:44.397000+00:00</time>
      </trkpt>
      <trkpt lat="47.30519" lon="-1.33808">
        <ele>7</ele>
        <time>2020-12-06T08:18:45.432000+00:00</time>
      </trkpt>
      <trkpt lat="0" lon="0">
        <time>2020-12-06T08:18:45.436000+00:00</time>
      </trkpt>
      <trkpt lat="0" lon="0">
        <time>2020-12-06T08:18:45.441000+00:00</time>
      </trkpt>
      <trkpt lat="0" lon="0">
        <time>2020-12-06T08:18:45.447000+00:00</time>
      </trkpt>
      <trkpt lat="47.30525" lon="-1.33805">
        <ele>6</ele>
        <time>2020-12-06T08:18:46.401000+00:00</time>
      </trkpt>
      <trkpt lat="0" lon="0">
        <time>2020-12-06T08:18:46.408000+00:00</time>
      </trkpt>
      <trkpt lat="0" lon="0">
        <time>2020-12-06T08:18:46.412000+00:00</time>
      </trkpt>
      <trkpt lat="0" lon="0">
        <time>2020-12-06T08:18:46.416000+00:00</time>
      </trkpt>
      <trkpt lat="47.3053" lon="-1.33802">
        <ele>6</ele>
        <time>2020-12-06T08:18:47.396000+00:00</time>
      </trkpt>
      <trkpt lat="0" lon="0">
        <time>2020-12-06T08:18:47.400000+00:00</time>
      </trkpt>
      <trkpt lat="0" lon="0">
        <time>2020-12-06T08:18:47.401000+00:00</time>
      </trkpt>
      <trkpt lat="0" lon="0">
        <time>2020-12-06T08:18:47.402000+00:00</time>
      </trkpt>
      <trkpt lat="47.30536" lon="-1.33799">
        <ele>6</ele>
        <time>2020-12-06T08:18:48.416000+00:00</time>
      </trkpt>
      <trkpt lat="0" lon="0">
        <time>2020-12-06T08:18:48.419000+00:00</time>
      </trkpt>
      <trkpt lat="0" lon="0">
        <time>2020-12-06T08:18:48.430000+00:00</time>
      </trkpt>
      <trkpt lat="0" lon="0">
        <time>2020-12-06T08:18:48.431000+00:00</time>
      </trkpt>
      <trkpt lat="47.30541" lon="-1.33796">
        <ele>6</ele>
        <time>2020-12-06T08:18:49.397000+00:00</time>
      </trkpt>
      <trkpt lat="0" lon="0">
        <time>2020-12-06T08:18:49.399000+00:00</time>
      </trkpt>
      <trkpt lat="0" lon="0">
        <time>2020-12-06T08:18:49.401000+00:00</time>
      </trkpt>
      <trkpt lat="0" lon="0">
        <time>2020-12-06T08:18:49.402000+00:00</time>
      </trkpt>
      <trkpt lat="47.30547" lon="-1.33793">
        <ele>6</ele>
        <time>2020-12-06T08:18:50.408000+00:00</time>
      </trkpt>
      <trkpt lat="0" lon="0">
        <time>2020-12-06T08:18:50.417000+00:00</time>
      </trkpt>
      <trkpt lat="0" lon="0">
        <time>2020-12-06T08:18:50.421000+00:00</time>
      </trkpt>
      <trkpt lat="0" lon="0">
        <time>2020-12-06T08:18:50.423000+00:00</time>
      </trkpt>
      <trkpt lat="47.30552" lon="-1.33791">
        <ele>6</ele>
        <time>2020-12-06T08:18:51.362000+00:00</time>
      </trkpt>
      <trkpt lat="0" lon="0">
        <time>2020-12-06T08:18:51.365000+00:00</time>
      </trkpt>
      <trkpt lat="0" lon="0">
        <time>2020-12-06T08:18:51.382000+00:00</time>
      </trkpt>
      <trkpt lat="0" lon="0">
        <time>2020-12-06T08:18:51.383000+00:00</time>
      </trkpt>
      <trkpt lat="47.30558" lon="-1.33788">
        <ele>6</ele>
        <time>2020-12-06T08:18:52.392000+00:00</time>
      </trkpt>
      <trkpt lat="0" lon="0">
        <time>2020-12-06T08:18:52.405000+00:00</time>
      </trkpt>
      <trkpt lat="0" lon="0">
        <time>2020-12-06T08:18:52.412000+00:00</time>
      </trkpt>
      <trkpt lat="0" lon="0">
        <time>2020-12-06T08:18:52.414000+00:00</time>
      </trkpt>
      <trkpt lat="47.30563" lon="-1.33785">
        <ele>6</ele>
        <time>2020-12-06T08:18:53.416000+00:00</time>
      </trkpt>
      <trkpt lat="0" lon="0">
        <time>2020-12-06T08:18:53.421000+00:00</time>
      </trkpt>
      <trkpt lat="0" lon="0">
        <time>2020-12-06T08:18:53.424000+00:00</time>
      </trkpt>
      <trkpt lat="0" lon="0">
        <time>2020-12-06T08:18:53.427000+00:00</time>
      </trkpt>
      <trkpt lat="47.30569" lon="-1.33782">
        <ele>6</ele>
        <time>2020-12-06T08:18:54.422000+00:00</time>
      </trkpt>
      <trkpt lat="0" lon="0">
        <time>2020-12-06T08:18:54.423000+00:00</time>
      </trkpt>
      <trkpt lat="0" lon="0">
        <time>2020-12-06T08:18:54.424000+00:00</time>
      </trkpt>
      <trkpt lat="47.30574" lon="-1.33779">
        <ele>6</ele>
        <time>2020-12-06T08:18:55.356000+00:00</time>
      </trkpt>
      <trkpt lat="0" lon="0">
        <time>2020-12-06T08:18:55.374000+00:00</time>
      </trkpt>
      <trkpt lat="0" lon="0">
        <time>2020-12-06T08:18:55.383000+00:00</time>
      </trkpt>
      <trkpt lat="0" lon="0">
        <time>2020-12-06T08:18:55.384000+00:00</time>
      </trkpt>
      <trkpt lat="47.30579" lon="-1.33777">
        <ele>6</ele>
        <time>2020-12-06T08:18:56.365000+00:00</time>
      </trkpt>
      <trkpt lat="0" lon="0">
        <time>2020-12-06T08:18:56.371000+00:00</time>
      </trkpt>
      <trkpt lat="0" lon="0">
        <time>2020-12-06T08:18:56.372000+00:00</time>
      </trkpt>
      <trkpt lat="0" lon="0">
        <time>2020-12-06T08:18:56.373000+00:00</time>
      </trkpt>
      <trkpt lat="47.30585" lon="-1.33774">
        <ele>6</ele>
        <time>2020-12-06T08:18:57.377000+00:00</time>
      </trkpt>
      <trkpt lat="0" lon="0">
        <time>2020-12-06T08:18:57.390000+00:00</time>
      </trkpt>
      <trkpt lat="0" lon="0">
        <time>2020-12-06T08:18:57.396000+00:00</time>
      </trkpt>
      <trkpt lat="0" lon="0">
        <time>2020-12-06T08:18:57.399000+00:00</time>
      </trkpt>
      <trkpt lat="47.3059" lon="-1.33772">
        <ele>6</ele>
        <time>2020-12-06T08:18:58.381000+00:00</time>
      </trkpt>
      <trkpt lat="0" lon="0">
        <time>2020-12-06T08:18:58.400000+00:00</time>
      </trkpt>
      <trkpt lat="0" lon="0">
        <time>2020-12-06T08:18:58.416000+00:00</time>
      </trkpt>
      <trkpt lat="0" lon="0">
        <time>2020-12-06T08:18:58.417000+00:00</time>
      </trkpt>
      <trkpt lat="47.30596" lon="-1.3377">
        <ele>6</ele>
        <time>2020-12-06T08:18:59.349000+00:00</time>
      </trkpt>
      <trkpt lat="0" lon="0">
        <time>2020-12-06T08:18:59.354000+00:00</time>
      </trkpt>
      <trkpt lat="0" lon="0">
        <time>2020-12-06T08:18:59.365000+00:00</time>
      </trkpt>
      <trkpt lat="0" lon="0">
        <time>2020-12-06T08:18:59.368000+00:00</time>
      </trkpt>
      <trkpt lat="47.30601" lon="-1.33768">
        <ele>6</ele>
        <time>2020-12-06T08:19:00.367000+00:00</time>
      </trkpt>
      <trkpt lat="0" lon="0">
        <time>2020-12-06T08:19:00.378000+00:00</time>
      </trkpt>
      <trkpt lat="0" lon="0">
        <time>2020-12-06T08:19:00.383000+00:00</time>
      </trkpt>
      <trkpt lat="0" lon="0">
        <time>2020-12-06T08:19:00.386000+00:00</time>
      </trkpt>
      <trkpt lat="47.30606" lon="-1.33766">
        <ele>6</ele>
        <time>2020-12-06T08:19:01.353000+00:00</time>
      </trkpt>
      <trkpt lat="0" lon="0">
        <time>2020-12-06T08:19:01.360000+00:00</time>
      </trkpt>
      <trkpt lat="0" lon="0">
        <time>2020-12-06T08:19:01.363000+00:00</time>
      </trkpt>
      <trkpt lat="0" lon="0">
        <time>2020-12-06T08:19:01.365000+00:00</time>
      </trkpt>
      <trkpt lat="47.30612" lon="-1.33764">
        <ele>6</ele>
        <time>2020-12-06T08:19:02.368000+00:00</time>
      </trkpt>
      <trkpt lat="0" lon="0">
        <time>2020-12-06T08:19:02.372000+00:00</time>
      </trkpt>
      <trkpt lat="0" lon="0">
        <time>2020-12-06T08:19:02.376000+00:00</time>
      </trkpt>
      <trkpt lat="0" lon="0">
        <time>2020-12-06T08:19:02.379000+00:00</time>
      </trkpt>
      <trkpt lat="47.30617" lon="-1.33763">
        <ele>6</ele>
        <time>2020-12-06T08:19:03.378000+00:00</time>
      </trkpt>
      <trkpt lat="0" lon="0">
        <time>2020-12-06T08:19:03.393000+00:00</time>
      </trkpt>
      <trkpt lat="0" lon="0">
        <time>2020-12-06T08:19:03.405000+00:00</time>
      </trkpt>
      <trkpt lat="0" lon="0">
        <time>2020-12-06T08:19:03.407000+00:00</time>
      </trkpt>
      <trkpt lat="47.30623" lon="-1.33762">
        <ele>6</ele>
        <time>2020-12-06T08:19:04.366000+00:00</time>
      </trkpt>
      <trkpt lat="0" lon="0">
        <time>2020-12-06T08:19:04.369000+00:00</time>
      </trkpt>
      <trkpt lat="0" lon="0">
        <time>2020-12-06T08:19:04.376000+00:00</time>
      </trkpt>
      <trkpt lat="0" lon="0">
        <time>2020-12-06T08:19:04.380000+00:00</time>
      </trkpt>
      <trkpt lat="47.30628" lon="-1.3376">
        <ele>6</ele>
        <time>2020-12-06T08:19:05.384000+00:00</time>
      </trkpt>
      <trkpt lat="0" lon="0">
        <time>2020-12-06T08:19:05.394000+00:00</time>
      </trkpt>
      <trkpt lat="0" lon="0">
        <time>2020-12-06T08:19:05.402000+00:00</time>
      </trkpt>
      <trkpt lat="0" lon="0">
        <time>2020-12-06T08:19:05.404000+00:00</time>
      </trkpt>
      <trkpt lat="47.30634" lon="-1.33759">
        <ele>6</ele>
        <time>2020-12-06T08:19:06.363000+00:00</time>
      </trkpt>
      <trkpt lat="0" lon="0">
        <time>2020-12-06T08:19:06.381000+00:00</time>
      </trkpt>
      <trkpt lat="0" lon="0">
        <time>2020-12-06T08:19:06.387000+00:00</time>
      </trkpt>
      <trkpt lat="0" lon="0">
        <time>2020-12-06T08:19:06.392000+00:00</time>
      </trkpt>
      <trkpt lat="47.30639" lon="-1.33757">
        <ele>6</ele>
        <time>2020-12-06T08:19:07.361000+00:00</time>
      </trkpt>
      <trkpt lat="0" lon="0">
        <time>2020-12-06T08:19:07.374000+00:00</time>
      </trkpt>
      <trkpt lat="0" lon="0">
        <time>2020-12-06T08:19:07.384000+00:00</time>
      </trkpt>
      <trkpt lat="0" lon="0">
        <time>2020-12-06T08:19:07.391000+00:00</time>
      </trkpt>
      <trkpt lat="47.30645" lon="-1.33756">
        <ele>6</ele>
        <time>2020-12-06T08:19:08.381000+00:00</time>
      </trkpt>
      <trkpt lat="0" lon="0">
        <time>2020-12-06T08:19:08.385000+00:00</time>
      </trkpt>
      <trkpt lat="0" lon="0">
        <time>2020-12-06T08:19:08.390000+00:00</time>
      </trkpt>
      <trkpt lat="0" lon="0">
        <time>2020-12-06T08:19:08.392000+00:00</time>
      </trkpt>
      <trkpt lat="47.30651" lon="-1.33754">
        <ele>6</ele>
        <time>2020-12-06T08:19:09.358000+00:00</time>
      </trkpt>
      <trkpt lat="0" lon="0">
        <time>2020-12-06T08:19:09.378000+00:00</time>
      </trkpt>
      <trkpt lat="0" lon="0">
        <time>2020-12-06T08:19:09.381000+00:00</time>
      </trkpt>
      <trkpt lat="0" lon="0">
        <time>2020-12-06T08:19:09.383000+00:00</time>
      </trkpt>
      <trkpt lat="47.30656" lon="-1.33752">
        <ele>6</ele>
        <time>2020-12-06T08:19:10.369000+00:00</time>
      </trkpt>
      <trkpt lat="0" lon="0">
        <time>2020-12-06T08:19:10.374000+00:00</time>
      </trkpt>
      <trkpt lat="0" lon="0">
        <time>2020-12-06T08:19:10.378000+00:00</time>
      </trkpt>
      <trkpt lat="0" lon="0">
        <time>2020-12-06T08:19:10.379000+00:00</time>
      </trkpt>
      <trkpt lat="47.30662" lon="-1.3375">
        <ele>6</ele>
        <time>2020-12-06T08:19:11.358000+00:00</time>
      </trkpt>
      <trkpt lat="0" lon="0">
        <time>2020-12-06T08:19:11.365000+00:00</time>
      </trkpt>
      <trkpt lat="0" lon="0">
        <time>2020-12-06T08:19:11.369000+00:00</time>
      </trkpt>
      <trkpt lat="0" lon="0">
        <time>2020-12-06T08:19:11.372000+00:00</time>
      </trkpt>
      <trkpt lat="47.30667" lon="-1.33747">
        <ele>6</ele>
        <time>2020-12-06T08:19:12.379000+00:00</time>
      </trkpt>
      <trkpt lat="0" lon="0">
        <time>2020-12-06T08:19:12.388000+00:00</time>
      </trkpt>
      <trkpt lat="0" lon="0">
        <time>2020-12-06T08:19:12.391000+00:00</time>
      </trkpt>
      <trkpt lat="0" lon="0">
        <time>2020-12-06T08:19:12.394000+00:00</time>
      </trkpt>
      <trkpt lat="47.30673" lon="-1.33744">
        <ele>6</ele>
        <time>2020-12-06T08:19:13.376000+00:00</time>
      </trkpt>
      <trkpt lat="0" lon="0">
        <time>2020-12-06T08:19:13.389000+00:00</time>
      </trkpt>
      <trkpt lat="0" lon="0">
        <time>2020-12-06T08:19:13.396000+00:00</time>
      </trkpt>
      <trkpt lat="0" lon="0">
        <time>2020-12-06T08:19:13.399000+00:00</time>
      </trkpt>
      <trkpt lat="47.30678" lon="-1.33741">
        <ele>6</ele>
        <time>2020-12-06T08:19:14.367000+00:00</time>
      </trkpt>
      <trkpt lat="0" lon="0">
        <time>2020-12-06T08:19:14.374000+00:00</time>
      </trkpt>
      <trkpt lat="0" lon="0">
        <time>2020-12-06T08:19:14.376000+00:00</time>
      </trkpt>
      <trkpt lat="0" lon="0">
        <time>2020-12-06T08:19:14.377000+00:00</time>
      </trkpt>
      <trkpt lat="47.30683" lon="-1.33737">
        <ele>6</ele>
        <time>2020-12-06T08:19:15.382000+00:00</time>
      </trkpt>
      <trkpt lat="0" lon="0">
        <time>2020-12-06T08:19:15.391000+00:00</time>
      </trkpt>
      <trkpt lat="0" lon="0">
        <time>2020-12-06T08:19:15.395000+00:00</time>
      </trkpt>
      <trkpt lat="0" lon="0">
        <time>2020-12-06T08:19:15.401000+00:00</time>
      </trkpt>
      <trkpt lat="47.30688" lon="-1.33733">
        <ele>6</ele>
        <time>2020-12-06T08:19:16.307000+00:00</time>
      </trkpt>
      <trkpt lat="0" lon="0">
        <time>2020-12-06T08:19:16.314000+00:00</time>
      </trkpt>
      <trkpt lat="0" lon="0">
        <time>2020-12-06T08:19:16.322000+00:00</time>
      </trkpt>
      <trkpt lat="0" lon="0">
        <time>2020-12-06T08:19:16.328000+00:00</time>
      </trkpt>
      <trkpt lat="47.30694" lon="-1.33728">
        <ele>6</ele>
        <time>2020-12-06T08:19:17.361000+00:00</time>
      </trkpt>
      <trkpt lat="0" lon="0">
        <time>2020-12-06T08:19:17.364000+00:00</time>
      </trkpt>
      <trkpt lat="0" lon="0">
        <time>2020-12-06T08:19:17.370000+00:00</time>
      </trkpt>
      <trkpt lat="0" lon="0">
        <time>2020-12-06T08:19:17.376000+00:00</time>
      </trkpt>
      <trkpt lat="47.30699" lon="-1.33723">
        <ele>6</ele>
        <time>2020-12-06T08:19:18.366000+00:00</time>
      </trkpt>
      <trkpt lat="0" lon="0">
        <time>2020-12-06T08:19:18.381000+00:00</time>
      </trkpt>
      <trkpt lat="0" lon="0">
        <time>2020-12-06T08:19:18.385000+00:00</time>
      </trkpt>
      <trkpt lat="0" lon="0">
        <time>2020-12-06T08:19:18.387000+00:00</time>
      </trkpt>
      <trkpt lat="47.30703" lon="-1.33717">
        <ele>6</ele>
        <time>2020-12-06T08:19:19.372000+00:00</time>
      </trkpt>
      <trkpt lat="0" lon="0">
        <time>2020-12-06T08:19:19.387000+00:00</time>
      </trkpt>
      <trkpt lat="0" lon="0">
        <time>2020-12-06T08:19:19.391000+00:00</time>
      </trkpt>
      <trkpt lat="0" lon="0">
        <time>2020-12-06T08:19:19.393000+00:00</time>
      </trkpt>
      <trkpt lat="47.30708" lon="-1.33711">
        <ele>6</ele>
        <time>2020-12-06T08:19:20.382000+00:00</time>
      </trkpt>
      <trkpt lat="0" lon="0">
        <time>2020-12-06T08:19:20.386000+00:00</time>
      </trkpt>
      <trkpt lat="0" lon="0">
        <time>2020-12-06T08:19:20.395000+00:00</time>
      </trkpt>
      <trkpt lat="0" lon="0">
        <time>2020-12-06T08:19:20.397000+00:00</time>
      </trkpt>
      <trkpt lat="47.30712" lon="-1.33704">
        <ele>6</ele>
        <time>2020-12-06T08:19:21.385000+00:00</time>
      </trkpt>
      <trkpt lat="0" lon="0">
        <time>2020-12-06T08:19:21.394000+00:00</time>
      </trkpt>
      <trkpt lat="0" lon="0">
        <time>2020-12-06T08:19:21.395000+00:00</time>
      </trkpt>
      <trkpt lat="47.30716" lon="-1.33697">
        <ele>6</ele>
        <time>2020-12-06T08:19:22.388000+00:00</time>
      </trkpt>
      <trkpt lat="0" lon="0">
        <time>2020-12-06T08:19:22.393000+00:00</time>
      </trkpt>
      <trkpt lat="0" lon="0">
        <time>2020-12-06T08:19:22.397000+00:00</time>
      </trkpt>
      <trkpt lat="0" lon="0">
        <time>2020-12-06T08:19:22.399000+00:00</time>
      </trkpt>
      <trkpt lat="47.30719" lon="-1.3369">
        <ele>6</ele>
        <time>2020-12-06T08:19:23.389000+00:00</time>
      </trkpt>
      <trkpt lat="0" lon="0">
        <time>2020-12-06T08:19:23.392000+00:00</time>
      </trkpt>
      <trkpt lat="0" lon="0">
        <time>2020-12-06T08:19:23.395000+00:00</time>
      </trkpt>
      <trkpt lat="0" lon="0">
        <time>2020-12-06T08:19:23.397000+00:00</time>
      </trkpt>
      <trkpt lat="47.30722" lon="-1.33682">
        <ele>6</ele>
        <time>2020-12-06T08:19:24.393000+00:00</time>
      </trkpt>
      <trkpt lat="0" lon="0">
        <time>2020-12-06T08:19:24.403000+00:00</time>
      </trkpt>
      <trkpt lat="0" lon="0">
        <time>2020-12-06T08:19:24.409000+00:00</time>
      </trkpt>
      <trkpt lat="0" lon="0">
        <time>2020-12-06T08:19:24.411000+00:00</time>
      </trkpt>
      <trkpt lat="47.30725" lon="-1.33675">
        <ele>6</ele>
        <time>2020-12-06T08:19:25.438000+00:00</time>
      </trkpt>
      <trkpt lat="0" lon="0">
        <time>2020-12-06T08:19:25.464000+00:00</time>
      </trkpt>
      <trkpt lat="0" lon="0">
        <time>2020-12-06T08:19:25.467000+00:00</time>
      </trkpt>
      <trkpt lat="47.30727" lon="-1.33667">
        <ele>6</ele>
        <time>2020-12-06T08:19:26.364000+00:00</time>
      </trkpt>
      <trkpt lat="0" lon="0">
        <time>2020-12-06T08:19:26.367000+00:00</time>
      </trkpt>
      <trkpt lat="0" lon="0">
        <time>2020-12-06T08:19:26.369000+00:00</time>
      </trkpt>
      <trkpt lat="47.3073" lon="-1.3366">
        <ele>6</ele>
        <time>2020-12-06T08:19:27.351000+00:00</time>
      </trkpt>
      <trkpt lat="0" lon="0">
        <time>2020-12-06T08:19:27.354000+00:00</time>
      </trkpt>
      <trkpt lat="0" lon="0">
        <time>2020-12-06T08:19:27.357000+00:00</time>
      </trkpt>
      <trkpt lat="0" lon="0">
        <time>2020-12-06T08:19:27.359000+00:00</time>
      </trkpt>
      <trkpt lat="47.30732" lon="-1.33652">
        <ele>6</ele>
        <time>2020-12-06T08:19:28.356000+00:00</time>
      </trkpt>
      <trkpt lat="0" lon="0">
        <time>2020-12-06T08:19:28.357000+00:00</time>
      </trkpt>
      <trkpt lat="0" lon="0">
        <time>2020-12-06T08:19:28.358000+00:00</time>
      </trkpt>
      <trkpt lat="47.30735" lon="-1.33644">
        <ele>6</ele>
        <time>2020-12-06T08:19:29.316000+00:00</time>
      </trkpt>
      <trkpt lat="0" lon="0">
        <time>2020-12-06T08:19:29.320000+00:00</time>
      </trkpt>
      <trkpt lat="0" lon="0">
        <time>2020-12-06T08:19:29.328000+00:00</time>
      </trkpt>
      <trkpt lat="0" lon="0">
        <time>2020-12-06T08:19:29.329000+00:00</time>
      </trkpt>
      <trkpt lat="47.30737" lon="-1.33637">
        <ele>6</ele>
        <time>2020-12-06T08:19:30.363000+00:00</time>
      </trkpt>
      <trkpt lat="0" lon="0">
        <time>2020-12-06T08:19:30.364000+00:00</time>
      </trkpt>
      <trkpt lat="0" lon="0">
        <time>2020-12-06T08:19:30.366000+00:00</time>
      </trkpt>
      <trkpt lat="0" lon="0">
        <time>2020-12-06T08:19:30.369000+00:00</time>
      </trkpt>
      <trkpt lat="47.30739" lon="-1.3363">
        <ele>6</ele>
        <time>2020-12-06T08:19:31.389000+00:00</time>
      </trkpt>
      <trkpt lat="0" lon="0">
        <time>2020-12-06T08:19:31.392000+00:00</time>
      </trkpt>
      <trkpt lat="0" lon="0">
        <time>2020-12-06T08:19:31.396000+00:00</time>
      </trkpt>
      <trkpt lat="0" lon="0">
        <time>2020-12-06T08:19:31.398000+00:00</time>
      </trkpt>
      <trkpt lat="47.30742" lon="-1.33624">
        <ele>6</ele>
        <time>2020-12-06T08:19:32.353000+00:00</time>
      </trkpt>
      <trkpt lat="0" lon="0">
        <time>2020-12-06T08:19:32.367000+00:00</time>
      </trkpt>
      <trkpt lat="0" lon="0">
        <time>2020-12-06T08:19:32.372000+00:00</time>
      </trkpt>
      <trkpt lat="0" lon="0">
        <time>2020-12-06T08:19:32.373000+00:00</time>
      </trkpt>
      <trkpt lat="47.30744" lon="-1.33618">
        <ele>6</ele>
        <time>2020-12-06T08:19:33.374000+00:00</time>
      </trkpt>
      <trkpt lat="0" lon="0">
        <time>2020-12-06T08:19:33.378000+00:00</time>
      </trkpt>
      <trkpt lat="0" lon="0">
        <time>2020-12-06T08:19:33.382000+00:00</time>
      </trkpt>
      <trkpt lat="0" lon="0">
        <time>2020-12-06T08:19:33.392000+00:00</time>
      </trkpt>
      <trkpt lat="47.30746" lon="-1.33613">
        <ele>6</ele>
        <time>2020-12-06T08:19:34.377000+00:00</time>
      </trkpt>
      <trkpt lat="0" lon="0">
        <time>2020-12-06T08:19:34.390000+00:00</time>
      </trkpt>
      <trkpt lat="0" lon="0">
        <time>2020-12-06T08:19:34.393000+00:00</time>
      </trkpt>
      <trkpt lat="0" lon="0">
        <time>2020-12-06T08:19:34.395000+00:00</time>
      </trkpt>
      <trkpt lat="47.30748" lon="-1.33608">
        <ele>6</ele>
        <time>2020-12-06T08:19:35.389000+00:00</time>
      </trkpt>
      <trkpt lat="0" lon="0">
        <time>2020-12-06T08:19:35.394000+00:00</time>
      </trkpt>
      <trkpt lat="0" lon="0">
        <time>2020-12-06T08:19:35.398000+00:00</time>
      </trkpt>
      <trkpt lat="0" lon="0">
        <time>2020-12-06T08:19:35.400000+00:00</time>
      </trkpt>
      <trkpt lat="47.3075" lon="-1.33604">
        <ele>6</ele>
        <time>2020-12-06T08:19:36.355000+00:00</time>
      </trkpt>
      <trkpt lat="0" lon="0">
        <time>2020-12-06T08:19:36.356000+00:00</time>
      </trkpt>
      <trkpt lat="0" lon="0">
        <time>2020-12-06T08:19:36.357000+00:00</time>
      </trkpt>
      <trkpt lat="47.30752" lon="-1.336">
        <ele>6</ele>
        <time>2020-12-06T08:19:37.395000+00:00</time>
      </trkpt>
      <trkpt lat="0" lon="0">
        <time>2020-12-06T08:19:37.410000+00:00</time>
      </trkpt>
      <trkpt lat="0" lon="0">
        <time>2020-12-06T08:19:37.421000+00:00</time>
      </trkpt>
      <trkpt lat="0" lon="0">
        <time>2020-12-06T08:19:37.428000+00:00</time>
      </trkpt>
      <trkpt lat="47.30755" lon="-1.33596">
        <ele>6</ele>
        <time>2020-12-06T08:19:38.382000+00:00</time>
      </trkpt>
      <trkpt lat="0" lon="0">
        <time>2020-12-06T08:19:38.401000+00:00</time>
      </trkpt>
      <trkpt lat="0" lon="0">
        <time>2020-12-06T08:19:38.405000+00:00</time>
      </trkpt>
      <trkpt lat="0" lon="0">
        <time>2020-12-06T08:19:38.406000+00:00</time>
      </trkpt>
      <trkpt lat="47.30758" lon="-1.33591">
        <ele>6</ele>
        <time>2020-12-06T08:19:39.425000+00:00</time>
      </trkpt>
      <trkpt lat="0" lon="0">
        <time>2020-12-06T08:19:39.433000+00:00</time>
      </trkpt>
      <trkpt lat="0" lon="0">
        <time>2020-12-06T08:19:39.438000+00:00</time>
      </trkpt>
      <trkpt lat="0" lon="0">
        <time>2020-12-06T08:19:39.440000+00:00</time>
      </trkpt>
      <trkpt lat="47.3076" lon="-1.33587">
        <ele>6</ele>
        <time>2020-12-06T08:19:40.377000+00:00</time>
      </trkpt>
      <trkpt lat="0" lon="0">
        <time>2020-12-06T08:19:40.382000+00:00</time>
      </trkpt>
      <trkpt lat="0" lon="0">
        <time>2020-12-06T08:19:40.390000+00:00</time>
      </trkpt>
      <trkpt lat="0" lon="0">
        <time>2020-12-06T08:19:40.394000+00:00</time>
      </trkpt>
      <trkpt lat="47.30763" lon="-1.33582">
        <ele>6</ele>
        <time>2020-12-06T08:19:41.408000+00:00</time>
      </trkpt>
      <trkpt lat="0" lon="0">
        <time>2020-12-06T08:19:41.412000+00:00</time>
      </trkpt>
      <trkpt lat="0" lon="0">
        <time>2020-12-06T08:19:41.419000+00:00</time>
      </trkpt>
      <trkpt lat="0" lon="0">
        <time>2020-12-06T08:19:41.422000+00:00</time>
      </trkpt>
      <trkpt lat="47.30766" lon="-1.33578">
        <ele>6</ele>
        <time>2020-12-06T08:19:42.402000+00:00</time>
      </trkpt>
      <trkpt lat="0" lon="0">
        <time>2020-12-06T08:19:42.418000+00:00</time>
      </trkpt>
      <trkpt lat="0" lon="0">
        <time>2020-12-06T08:19:42.420000+00:00</time>
      </trkpt>
      <trkpt lat="47.30768" lon="-1.33573">
        <ele>6</ele>
        <time>2020-12-06T08:19:43.416000+00:00</time>
      </trkpt>
      <trkpt lat="0" lon="0">
        <time>2020-12-06T08:19:43.423000+00:00</time>
      </trkpt>
      <trkpt lat="0" lon="0">
        <time>2020-12-06T08:19:43.428000+00:00</time>
      </trkpt>
      <trkpt lat="0" lon="0">
        <time>2020-12-06T08:19:43.435000+00:00</time>
      </trkpt>
      <trkpt lat="47.30771" lon="-1.33567">
        <ele>6</ele>
        <time>2020-12-06T08:19:44.390000+00:00</time>
      </trkpt>
      <trkpt lat="0" lon="0">
        <time>2020-12-06T08:19:44.397000+00:00</time>
      </trkpt>
      <trkpt lat="0" lon="0">
        <time>2020-12-06T08:19:44.401000+00:00</time>
      </trkpt>
      <trkpt lat="0" lon="0">
        <time>2020-12-06T08:19:44.403000+00:00</time>
      </trkpt>
      <trkpt lat="47.30773" lon="-1.33562">
        <ele>6</ele>
        <time>2020-12-06T08:19:45.421000+00:00</time>
      </trkpt>
      <trkpt lat="0" lon="0">
        <time>2020-12-06T08:19:45.434000+00:00</time>
      </trkpt>
      <trkpt lat="0" lon="0">
        <time>2020-12-06T08:19:45.438000+00:00</time>
      </trkpt>
      <trkpt lat="0" lon="0">
        <time>2020-12-06T08:19:45.444000+00:00</time>
      </trkpt>
      <trkpt lat="47.30775" lon="-1.33557">
        <ele>6</ele>
        <time>2020-12-06T08:19:46.394000+00:00</time>
      </trkpt>
      <trkpt lat="0" lon="0">
        <time>2020-12-06T08:19:46.420000+00:00</time>
      </trkpt>
      <trkpt lat="0" lon="0">
        <time>2020-12-06T08:19:46.425000+00:00</time>
      </trkpt>
      <trkpt lat="0" lon="0">
        <time>2020-12-06T08:19:46.427000+00:00</time>
      </trkpt>
      <trkpt lat="47.30777" lon="-1.33551">
        <ele>6</ele>
        <time>2020-12-06T08:19:47.420000+00:00</time>
      </trkpt>
      <trkpt lat="0" lon="0">
        <time>2020-12-06T08:19:47.421000+00:00</time>
      </trkpt>
      <trkpt lat="0" lon="0">
        <time>2020-12-06T08:19:47.423000+00:00</time>
      </trkpt>
      <trkpt lat="0" lon="0">
        <time>2020-12-06T08:19:47.425000+00:00</time>
      </trkpt>
      <trkpt lat="47.30779" lon="-1.33546">
        <ele>6</ele>
        <time>2020-12-06T08:19:48.402000+00:00</time>
      </trkpt>
      <trkpt lat="0" lon="0">
        <time>2020-12-06T08:19:48.411000+00:00</time>
      </trkpt>
      <trkpt lat="0" lon="0">
        <time>2020-12-06T08:19:48.421000+00:00</time>
      </trkpt>
      <trkpt lat="0" lon="0">
        <time>2020-12-06T08:19:48.427000+00:00</time>
      </trkpt>
      <trkpt lat="47.30782" lon="-1.3354">
        <ele>6</ele>
        <time>2020-12-06T08:19:49.425000+00:00</time>
      </trkpt>
      <trkpt lat="0" lon="0">
        <time>2020-12-06T08:19:49.435000+00:00</time>
      </trkpt>
      <trkpt lat="0" lon="0">
        <time>2020-12-06T08:19:49.439000+00:00</time>
      </trkpt>
      <trkpt lat="0" lon="0">
        <time>2020-12-06T08:19:49.446000+00:00</time>
      </trkpt>
      <trkpt lat="47.30784" lon="-1.33534">
        <ele>6</ele>
        <time>2020-12-06T08:19:50.409000+00:00</time>
      </trkpt>
      <trkpt lat="0" lon="0">
        <time>2020-12-06T08:19:50.410000+00:00</time>
      </trkpt>
      <trkpt lat="0" lon="0">
        <time>2020-12-06T08:19:50.413000+00:00</time>
      </trkpt>
      <trkpt lat="0" lon="0">
        <time>2020-12-06T08:19:50.414000+00:00</time>
      </trkpt>
      <trkpt lat="47.30787" lon="-1.33528">
        <ele>6</ele>
        <time>2020-12-06T08:19:51.414000+00:00</time>
      </trkpt>
      <trkpt lat="0" lon="0">
        <time>2020-12-06T08:19:51.418000+00:00</time>
      </trkpt>
      <trkpt lat="0" lon="0">
        <time>2020-12-06T08:19:51.427000+00:00</time>
      </trkpt>
      <trkpt lat="0" lon="0">
        <time>2020-12-06T08:19:51.431000+00:00</time>
      </trkpt>
      <trkpt lat="47.3079" lon="-1.33522">
        <ele>6</ele>
        <time>2020-12-06T08:19:52.443000+00:00</time>
      </trkpt>
      <trkpt lat="0" lon="0">
        <time>2020-12-06T08:19:52.447000+00:00</time>
      </trkpt>
      <trkpt lat="0" lon="0">
        <time>2020-12-06T08:19:52.454000+00:00</time>
      </trkpt>
      <trkpt lat="0" lon="0">
        <time>2020-12-06T08:19:52.455000+00:00</time>
      </trkpt>
      <trkpt lat="47.30793" lon="-1.33516">
        <ele>6</ele>
        <time>2020-12-06T08:19:53.448000+00:00</time>
      </trkpt>
      <trkpt lat="0" lon="0">
        <time>2020-12-06T08:19:53.455000+00:00</time>
      </trkpt>
      <trkpt lat="0" lon="0">
        <time>2020-12-06T08:19:53.458000+00:00</time>
      </trkpt>
      <trkpt lat="0" lon="0">
        <time>2020-12-06T08:19:53.463000+00:00</time>
      </trkpt>
      <trkpt lat="47.30796" lon="-1.3351">
        <ele>6</ele>
        <time>2020-12-06T08:19:54.408000+00:00</time>
      </trkpt>
      <trkpt lat="0" lon="0">
        <time>2020-12-06T08:19:54.429000+00:00</time>
      </trkpt>
      <trkpt lat="0" lon="0">
        <time>2020-12-06T08:19:54.437000+00:00</time>
      </trkpt>
      <trkpt lat="0" lon="0">
        <time>2020-12-06T08:19:54.441000+00:00</time>
      </trkpt>
      <trkpt lat="47.30799" lon="-1.33503">
        <ele>6</ele>
        <time>2020-12-06T08:19:55.429000+00:00</time>
      </trkpt>
      <trkpt lat="0" lon="0">
        <time>2020-12-06T08:19:55.441000+00:00</time>
      </trkpt>
      <trkpt lat="0" lon="0">
        <time>2020-12-06T08:19:55.443000+00:00</time>
      </trkpt>
      <trkpt lat="0" lon="0">
        <time>2020-12-06T08:19:55.444000+00:00</time>
      </trkpt>
      <trkpt lat="47.30803" lon="-1.33496">
        <ele>6</ele>
        <time>2020-12-06T08:19:56.405000+00:00</time>
      </trkpt>
      <trkpt lat="0" lon="0">
        <time>2020-12-06T08:19:56.415000+00:00</time>
      </trkpt>
      <trkpt lat="0" lon="0">
        <time>2020-12-06T08:19:56.420000+00:00</time>
      </trkpt>
      <trkpt lat="0" lon="0">
        <time>2020-12-06T08:19:56.421000+00:00</time>
      </trkpt>
      <trkpt lat="47.30806" lon="-1.3349">
        <ele>6</ele>
        <time>2020-12-06T08:19:57.408000+00:00</time>
      </trkpt>
      <trkpt lat="0" lon="0">
        <time>2020-12-06T08:19:57.424000+00:00</time>
      </trkpt>
      <trkpt lat="0" lon="0">
        <time>2020-12-06T08:19:57.434000+00:00</time>
      </trkpt>
      <trkpt lat="0" lon="0">
        <time>2020-12-06T08:19:57.439000+00:00</time>
      </trkpt>
      <trkpt lat="47.30809" lon="-1.33483">
        <ele>6</ele>
        <time>2020-12-06T08:19:58.387000+00:00</time>
      </trkpt>
      <trkpt lat="0" lon="0">
        <time>2020-12-06T08:19:58.393000+00:00</time>
      </trkpt>
      <trkpt lat="0" lon="0">
        <time>2020-12-06T08:19:58.394000+00:00</time>
      </trkpt>
      <trkpt lat="0" lon="0">
        <time>2020-12-06T08:19:58.395000+00:00</time>
      </trkpt>
      <trkpt lat="47.30812" lon="-1.33477">
        <ele>6</ele>
        <time>2020-12-06T08:19:59.413000+00:00</time>
      </trkpt>
      <trkpt lat="0" lon="0">
        <time>2020-12-06T08:19:59.422000+00:00</time>
      </trkpt>
      <trkpt lat="0" lon="0">
        <time>2020-12-06T08:19:59.427000+00:00</time>
      </trkpt>
      <trkpt lat="0" lon="0">
        <time>2020-12-06T08:19:59.429000+00:00</time>
      </trkpt>
      <trkpt lat="47.30816" lon="-1.3347">
        <ele>6</ele>
        <time>2020-12-06T08:20:00.436000+00:00</time>
      </trkpt>
      <trkpt lat="0" lon="0">
        <time>2020-12-06T08:20:00.442000+00:00</time>
      </trkpt>
      <trkpt lat="0" lon="0">
        <time>2020-12-06T08:20:00.447000+00:00</time>
      </trkpt>
      <trkpt lat="0" lon="0">
        <time>2020-12-06T08:20:00.450000+00:00</time>
      </trkpt>
      <trkpt lat="47.30819" lon="-1.33463">
        <ele>6</ele>
        <time>2020-12-06T08:20:01.434000+00:00</time>
      </trkpt>
      <trkpt lat="0" lon="0">
        <time>2020-12-06T08:20:01.443000+00:00</time>
      </trkpt>
      <trkpt lat="0" lon="0">
        <time>2020-12-06T08:20:01.446000+00:00</time>
      </trkpt>
      <trkpt lat="0" lon="0">
        <time>2020-12-06T08:20:01.448000+00:00</time>
      </trkpt>
      <trkpt lat="47.30823" lon="-1.33456">
        <ele>6</ele>
        <time>2020-12-06T08:20:02.445000+00:00</time>
      </trkpt>
      <trkpt lat="0" lon="0">
        <time>2020-12-06T08:20:02.447000+00:00</time>
      </trkpt>
      <trkpt lat="0" lon="0">
        <time>2020-12-06T08:20:02.449000+00:00</time>
      </trkpt>
      <trkpt lat="0" lon="0">
        <time>2020-12-06T08:20:02.450000+00:00</time>
      </trkpt>
      <trkpt lat="47.30826" lon="-1.33449">
        <ele>6</ele>
        <time>2020-12-06T08:20:03.449000+00:00</time>
      </trkpt>
      <trkpt lat="0" lon="0">
        <time>2020-12-06T08:20:03.465000+00:00</time>
      </trkpt>
      <trkpt lat="0" lon="0">
        <time>2020-12-06T08:20:03.468000+00:00</time>
      </trkpt>
      <trkpt lat="0" lon="0">
        <time>2020-12-06T08:20:03.470000+00:00</time>
      </trkpt>
      <trkpt lat="47.3083" lon="-1.33442">
        <ele>6</ele>
        <time>2020-12-06T08:20:04.398000+00:00</time>
      </trkpt>
      <trkpt lat="0" lon="0">
        <time>2020-12-06T08:20:04.400000+00:00</time>
      </trkpt>
      <trkpt lat="0" lon="0">
        <time>2020-12-06T08:20:04.402000+00:00</time>
      </trkpt>
      <trkpt lat="0" lon="0">
        <time>2020-12-06T08:20:04.403000+00:00</time>
      </trkpt>
      <trkpt lat="47.30834" lon="-1.33435">
        <ele>7</ele>
        <time>2020-12-06T08:20:05.422000+00:00</time>
      </trkpt>
      <trkpt lat="0" lon="0">
        <time>2020-12-06T08:20:05.425000+00:00</time>
      </trkpt>
      <trkpt lat="0" lon="0">
        <time>2020-12-06T08:20:05.430000+00:00</time>
      </trkpt>
      <trkpt lat="0" lon="0">
        <time>2020-12-06T08:20:05.432000+00:00</time>
      </trkpt>
      <trkpt lat="47.30838" lon="-1.33428">
        <ele>7</ele>
        <time>2020-12-06T08:20:06.433000+00:00</time>
      </trkpt>
      <trkpt lat="0" lon="0">
        <time>2020-12-06T08:20:06.437000+00:00</time>
      </trkpt>
      <trkpt lat="0" lon="0">
        <time>2020-12-06T08:20:06.447000+00:00</time>
      </trkpt>
      <trkpt lat="0" lon="0">
        <time>2020-12-06T08:20:06.455000+00:00</time>
      </trkpt>
      <trkpt lat="47.30841" lon="-1.33421">
        <ele>7</ele>
        <time>2020-12-06T08:20:07.457000+00:00</time>
      </trkpt>
      <trkpt lat="0" lon="0">
        <time>2020-12-06T08:20:07.462000+00:00</time>
      </trkpt>
      <trkpt lat="0" lon="0">
        <time>2020-12-06T08:20:07.466000+00:00</time>
      </trkpt>
      <trkpt lat="0" lon="0">
        <time>2020-12-06T08:20:07.469000+00:00</time>
      </trkpt>
      <trkpt lat="47.30845" lon="-1.33415">
        <ele>7</ele>
        <time>2020-12-06T08:20:08.370000+00:00</time>
      </trkpt>
      <trkpt lat="0" lon="0">
        <time>2020-12-06T08:20:08.371000+00:00</time>
      </trkpt>
      <trkpt lat="0" lon="0">
        <time>2020-12-06T08:20:08.372000+00:00</time>
      </trkpt>
      <trkpt lat="0" lon="0">
        <time>2020-12-06T08:20:08.373000+00:00</time>
      </trkpt>
      <trkpt lat="47.30849" lon="-1.33409">
        <ele>7</ele>
        <time>2020-12-06T08:20:09.413000+00:00</time>
      </trkpt>
      <trkpt lat="0" lon="0">
        <time>2020-12-06T08:20:09.417000+00:00</time>
      </trkpt>
      <trkpt lat="0" lon="0">
        <time>2020-12-06T08:20:09.431000+00:00</time>
      </trkpt>
      <trkpt lat="0" lon="0">
        <time>2020-12-06T08:20:09.436000+00:00</time>
      </trkpt>
      <trkpt lat="47.30853" lon="-1.33403">
        <ele>7</ele>
        <time>2020-12-06T08:20:10.412000+00:00</time>
      </trkpt>
      <trkpt lat="0" lon="0">
        <time>2020-12-06T08:20:10.420000+00:00</time>
      </trkpt>
      <trkpt lat="0" lon="0">
        <time>2020-12-06T08:20:10.422000+00:00</time>
      </trkpt>
      <trkpt lat="0" lon="0">
        <time>2020-12-06T08:20:10.423000+00:00</time>
      </trkpt>
      <trkpt lat="47.30857" lon="-1.33397">
        <ele>7</ele>
        <time>2020-12-06T08:20:11.442000+00:00</time>
      </trkpt>
      <trkpt lat="0" lon="0">
        <time>2020-12-06T08:20:11.450000+00:00</time>
      </trkpt>
      <trkpt lat="0" lon="0">
        <time>2020-12-06T08:20:11.454000+00:00</time>
      </trkpt>
      <trkpt lat="0" lon="0">
        <time>2020-12-06T08:20:11.456000+00:00</time>
      </trkpt>
      <trkpt lat="47.30861" lon="-1.33391">
        <ele>7</ele>
        <time>2020-12-06T08:20:12.374000+00:00</time>
      </trkpt>
      <trkpt lat="0" lon="0">
        <time>2020-12-06T08:20:12.376000+00:00</time>
      </trkpt>
      <trkpt lat="0" lon="0">
        <time>2020-12-06T08:20:12.386000+00:00</time>
      </trkpt>
      <trkpt lat="0" lon="0">
        <time>2020-12-06T08:20:12.389000+00:00</time>
      </trkpt>
      <trkpt lat="47.30865" lon="-1.33385">
        <ele>7</ele>
        <time>2020-12-06T08:20:13.396000+00:00</time>
      </trkpt>
      <trkpt lat="0" lon="0">
        <time>2020-12-06T08:20:13.406000+00:00</time>
      </trkpt>
      <trkpt lat="0" lon="0">
        <time>2020-12-06T08:20:13.409000+00:00</time>
      </trkpt>
      <trkpt lat="0" lon="0">
        <time>2020-12-06T08:20:13.410000+00:00</time>
      </trkpt>
      <trkpt lat="47.30869" lon="-1.3338">
        <ele>7</ele>
        <time>2020-12-06T08:20:14.448000+00:00</time>
      </trkpt>
      <trkpt lat="0" lon="0">
        <time>2020-12-06T08:20:14.452000+00:00</time>
      </trkpt>
      <trkpt lat="0" lon="0">
        <time>2020-12-06T08:20:14.456000+00:00</time>
      </trkpt>
      <trkpt lat="0" lon="0">
        <time>2020-12-06T08:20:14.458000+00:00</time>
      </trkpt>
      <trkpt lat="47.30873" lon="-1.33374">
        <ele>7</ele>
        <time>2020-12-06T08:20:15.392000+00:00</time>
      </trkpt>
      <trkpt lat="0" lon="0">
        <time>2020-12-06T08:20:15.398000+00:00</time>
      </trkpt>
      <trkpt lat="0" lon="0">
        <time>2020-12-06T08:20:15.401000+00:00</time>
      </trkpt>
      <trkpt lat="0" lon="0">
        <time>2020-12-06T08:20:15.403000+00:00</time>
      </trkpt>
      <trkpt lat="47.30877" lon="-1.33368">
        <ele>7</ele>
        <time>2020-12-06T08:20:16.424000+00:00</time>
      </trkpt>
      <trkpt lat="0" lon="0">
        <time>2020-12-06T08:20:16.425000+00:00</time>
      </trkpt>
      <trkpt lat="0" lon="0">
        <time>2020-12-06T08:20:16.427000+00:00</time>
      </trkpt>
      <trkpt lat="0" lon="0">
        <time>2020-12-06T08:20:16.428000+00:00</time>
      </trkpt>
      <trkpt lat="47.30881" lon="-1.33363">
        <ele>7</ele>
        <time>2020-12-06T08:20:17.395000+00:00</time>
      </trkpt>
      <trkpt lat="0" lon="0">
        <time>2020-12-06T08:20:17.410000+00:00</time>
      </trkpt>
      <trkpt lat="0" lon="0">
        <time>2020-12-06T08:20:17.414000+00:00</time>
      </trkpt>
      <trkpt lat="0" lon="0">
        <time>2020-12-06T08:20:17.418000+00:00</time>
      </trkpt>
      <trkpt lat="47.30885" lon="-1.33358">
        <ele>7</ele>
        <time>2020-12-06T08:20:18.427000+00:00</time>
      </trkpt>
      <trkpt lat="0" lon="0">
        <time>2020-12-06T08:20:18.438000+00:00</time>
      </trkpt>
      <trkpt lat="0" lon="0">
        <time>2020-12-06T08:20:18.448000+00:00</time>
      </trkpt>
      <trkpt lat="0" lon="0">
        <time>2020-12-06T08:20:18.450000+00:00</time>
      </trkpt>
      <trkpt lat="47.30889" lon="-1.33352">
        <ele>7</ele>
        <time>2020-12-06T08:20:19.429000+00:00</time>
      </trkpt>
      <trkpt lat="0" lon="0">
        <time>2020-12-06T08:20:19.438000+00:00</time>
      </trkpt>
      <trkpt lat="0" lon="0">
        <time>2020-12-06T08:20:19.444000+00:00</time>
      </trkpt>
      <trkpt lat="0" lon="0">
        <time>2020-12-06T08:20:19.446000+00:00</time>
      </trkpt>
      <trkpt lat="47.30893" lon="-1.33347">
        <ele>7</ele>
        <time>2020-12-06T08:20:20.443000+00:00</time>
      </trkpt>
      <trkpt lat="0" lon="0">
        <time>2020-12-06T08:20:20.445000+00:00</time>
      </trkpt>
      <trkpt lat="0" lon="0">
        <time>2020-12-06T08:20:20.446000+00:00</time>
      </trkpt>
      <trkpt lat="0" lon="0">
        <time>2020-12-06T08:20:20.447000+00:00</time>
      </trkpt>
      <trkpt lat="47.30898" lon="-1.33342">
        <ele>8</ele>
        <time>2020-12-06T08:20:21.406000+00:00</time>
      </trkpt>
      <trkpt lat="0" lon="0">
        <time>2020-12-06T08:20:21.414000+00:00</time>
      </trkpt>
      <trkpt lat="0" lon="0">
        <time>2020-12-06T08:20:21.422000+00:00</time>
      </trkpt>
      <trkpt lat="0" lon="0">
        <time>2020-12-06T08:20:21.424000+00:00</time>
      </trkpt>
      <trkpt lat="47.30902" lon="-1.33336">
        <ele>8</ele>
        <time>2020-12-06T08:20:22.426000+00:00</time>
      </trkpt>
      <trkpt lat="0" lon="0">
        <time>2020-12-06T08:20:22.430000+00:00</time>
      </trkpt>
      <trkpt lat="0" lon="0">
        <time>2020-12-06T08:20:22.436000+00:00</time>
      </trkpt>
      <trkpt lat="0" lon="0">
        <time>2020-12-06T08:20:22.438000+00:00</time>
      </trkpt>
      <trkpt lat="47.30906" lon="-1.33331">
        <ele>8</ele>
        <time>2020-12-06T08:20:23.412000+00:00</time>
      </trkpt>
      <trkpt lat="0" lon="0">
        <time>2020-12-06T08:20:23.421000+00:00</time>
      </trkpt>
      <trkpt lat="0" lon="0">
        <time>2020-12-06T08:20:23.427000+00:00</time>
      </trkpt>
      <trkpt lat="0" lon="0">
        <time>2020-12-06T08:20:23.429000+00:00</time>
      </trkpt>
      <trkpt lat="47.3091" lon="-1.33326">
        <ele>8</ele>
        <time>2020-12-06T08:20:24.434000+00:00</time>
      </trkpt>
      <trkpt lat="0" lon="0">
        <time>2020-12-06T08:20:24.437000+00:00</time>
      </trkpt>
      <trkpt lat="0" lon="0">
        <time>2020-12-06T08:20:24.438000+00:00</time>
      </trkpt>
      <trkpt lat="0" lon="0">
        <time>2020-12-06T08:20:24.444000+00:00</time>
      </trkpt>
      <trkpt lat="47.30915" lon="-1.3332">
        <ele>8</ele>
        <time>2020-12-06T08:20:25.422000+00:00</time>
      </trkpt>
      <trkpt lat="0" lon="0">
        <time>2020-12-06T08:20:25.436000+00:00</time>
      </trkpt>
      <trkpt lat="0" lon="0">
        <time>2020-12-06T08:20:25.443000+00:00</time>
      </trkpt>
      <trkpt lat="0" lon="0">
        <time>2020-12-06T08:20:25.446000+00:00</time>
      </trkpt>
      <trkpt lat="47.30919" lon="-1.33315">
        <ele>8</ele>
        <time>2020-12-06T08:20:26.408000+00:00</time>
      </trkpt>
      <trkpt lat="0" lon="0">
        <time>2020-12-06T08:20:26.414000+00:00</time>
      </trkpt>
      <trkpt lat="0" lon="0">
        <time>2020-12-06T08:20:26.418000+00:00</time>
      </trkpt>
      <trkpt lat="0" lon="0">
        <time>2020-12-06T08:20:26.433000+00:00</time>
      </trkpt>
      <trkpt lat="47.30923" lon="-1.33309">
        <ele>8</ele>
        <time>2020-12-06T08:20:27.367000+00:00</time>
      </trkpt>
      <trkpt lat="0" lon="0">
        <time>2020-12-06T08:20:27.368000+00:00</time>
      </trkpt>
      <trkpt lat="0" lon="0">
        <time>2020-12-06T08:20:27.370000+00:00</time>
      </trkpt>
      <trkpt lat="0" lon="0">
        <time>2020-12-06T08:20:27.371000+00:00</time>
      </trkpt>
      <trkpt lat="47.30928" lon="-1.33304">
        <ele>7</ele>
        <time>2020-12-06T08:20:28.437000+00:00</time>
      </trkpt>
      <trkpt lat="0" lon="0">
        <time>2020-12-06T08:20:28.445000+00:00</time>
      </trkpt>
      <trkpt lat="0" lon="0">
        <time>2020-12-06T08:20:28.450000+00:00</time>
      </trkpt>
      <trkpt lat="0" lon="0">
        <time>2020-12-06T08:20:28.453000+00:00</time>
      </trkpt>
      <trkpt lat="47.30932" lon="-1.33299">
        <ele>7</ele>
        <time>2020-12-06T08:20:29.408000+00:00</time>
      </trkpt>
      <trkpt lat="0" lon="0">
        <time>2020-12-06T08:20:29.414000+00:00</time>
      </trkpt>
      <trkpt lat="0" lon="0">
        <time>2020-12-06T08:20:29.420000+00:00</time>
      </trkpt>
      <trkpt lat="0" lon="0">
        <time>2020-12-06T08:20:29.425000+00:00</time>
      </trkpt>
      <trkpt lat="47.30936" lon="-1.33293">
        <ele>7</ele>
        <time>2020-12-06T08:20:30.399000+00:00</time>
      </trkpt>
      <trkpt lat="0" lon="0">
        <time>2020-12-06T08:20:30.406000+00:00</time>
      </trkpt>
      <trkpt lat="0" lon="0">
        <time>2020-12-06T08:20:30.414000+00:00</time>
      </trkpt>
      <trkpt lat="0" lon="0">
        <time>2020-12-06T08:20:30.416000+00:00</time>
      </trkpt>
      <trkpt lat="47.30941" lon="-1.33288">
        <ele>7</ele>
        <time>2020-12-06T08:20:31.441000+00:00</time>
      </trkpt>
      <trkpt lat="0" lon="0">
        <time>2020-12-06T08:20:31.447000+00:00</time>
      </trkpt>
      <trkpt lat="0" lon="0">
        <time>2020-12-06T08:20:31.450000+00:00</time>
      </trkpt>
      <trkpt lat="0" lon="0">
        <time>2020-12-06T08:20:31.452000+00:00</time>
      </trkpt>
      <trkpt lat="47.30945" lon="-1.33283">
        <ele>7</ele>
        <time>2020-12-06T08:20:32.393000+00:00</time>
      </trkpt>
      <trkpt lat="0" lon="0">
        <time>2020-12-06T08:20:32.401000+00:00</time>
      </trkpt>
      <trkpt lat="0" lon="0">
        <time>2020-12-06T08:20:32.407000+00:00</time>
      </trkpt>
      <trkpt lat="0" lon="0">
        <time>2020-12-06T08:20:32.410000+00:00</time>
      </trkpt>
      <trkpt lat="47.30949" lon="-1.33278">
        <ele>7</ele>
        <time>2020-12-06T08:20:33.418000+00:00</time>
      </trkpt>
      <trkpt lat="0" lon="0">
        <time>2020-12-06T08:20:33.425000+00:00</time>
      </trkpt>
      <trkpt lat="0" lon="0">
        <time>2020-12-06T08:20:33.437000+00:00</time>
      </trkpt>
      <trkpt lat="0" lon="0">
        <time>2020-12-06T08:20:33.439000+00:00</time>
      </trkpt>
      <trkpt lat="47.30953" lon="-1.33273">
        <ele>7</ele>
        <time>2020-12-06T08:20:34.413000+00:00</time>
      </trkpt>
      <trkpt lat="0" lon="0">
        <time>2020-12-06T08:20:34.417000+00:00</time>
      </trkpt>
      <trkpt lat="0" lon="0">
        <time>2020-12-06T08:20:34.421000+00:00</time>
      </trkpt>
      <trkpt lat="0" lon="0">
        <time>2020-12-06T08:20:34.422000+00:00</time>
      </trkpt>
      <trkpt lat="47.30958" lon="-1.33268">
        <ele>7</ele>
        <time>2020-12-06T08:20:35.398000+00:00</time>
      </trkpt>
      <trkpt lat="0" lon="0">
        <time>2020-12-06T08:20:35.404000+00:00</time>
      </trkpt>
      <trkpt lat="0" lon="0">
        <time>2020-12-06T08:20:35.416000+00:00</time>
      </trkpt>
      <trkpt lat="0" lon="0">
        <time>2020-12-06T08:20:35.417000+00:00</time>
      </trkpt>
      <trkpt lat="47.30962" lon="-1.33263">
        <ele>6</ele>
        <time>2020-12-06T08:20:36.428000+00:00</time>
      </trkpt>
      <trkpt lat="0" lon="0">
        <time>2020-12-06T08:20:36.444000+00:00</time>
      </trkpt>
      <trkpt lat="0" lon="0">
        <time>2020-12-06T08:20:36.449000+00:00</time>
      </trkpt>
      <trkpt lat="0" lon="0">
        <time>2020-12-06T08:20:36.451000+00:00</time>
      </trkpt>
      <trkpt lat="47.30966" lon="-1.33258">
        <ele>6</ele>
        <time>2020-12-06T08:20:37.413000+00:00</time>
      </trkpt>
      <trkpt lat="0" lon="0">
        <time>2020-12-06T08:20:37.424000+00:00</time>
      </trkpt>
      <trkpt lat="0" lon="0">
        <time>2020-12-06T08:20:37.427000+00:00</time>
      </trkpt>
      <trkpt lat="0" lon="0">
        <time>2020-12-06T08:20:37.429000+00:00</time>
      </trkpt>
      <trkpt lat="47.3097" lon="-1.33253">
        <ele>6</ele>
        <time>2020-12-06T08:20:38.429000+00:00</time>
      </trkpt>
      <trkpt lat="0" lon="0">
        <time>2020-12-06T08:20:38.439000+00:00</time>
      </trkpt>
      <trkpt lat="0" lon="0">
        <time>2020-12-06T08:20:38.448000+00:00</time>
      </trkpt>
      <trkpt lat="0" lon="0">
        <time>2020-12-06T08:20:38.449000+00:00</time>
      </trkpt>
      <trkpt lat="47.30974" lon="-1.33248">
        <ele>7</ele>
        <time>2020-12-06T08:20:39.436000+00:00</time>
      </trkpt>
      <trkpt lat="0" lon="0">
        <time>2020-12-06T08:20:39.442000+00:00</time>
      </trkpt>
      <trkpt lat="0" lon="0">
        <time>2020-12-06T08:20:39.447000+00:00</time>
      </trkpt>
      <trkpt lat="0" lon="0">
        <time>2020-12-06T08:20:39.449000+00:00</time>
      </trkpt>
      <trkpt lat="47.30978" lon="-1.33244">
        <ele>7</ele>
        <time>2020-12-06T08:20:40.431000+00:00</time>
      </trkpt>
      <trkpt lat="0" lon="0">
        <time>2020-12-06T08:20:40.441000+00:00</time>
      </trkpt>
      <trkpt lat="0" lon="0">
        <time>2020-12-06T08:20:40.447000+00:00</time>
      </trkpt>
      <trkpt lat="0" lon="0">
        <time>2020-12-06T08:20:40.452000+00:00</time>
      </trkpt>
      <trkpt lat="47.30982" lon="-1.3324">
        <ele>7</ele>
        <time>2020-12-06T08:20:41.415000+00:00</time>
      </trkpt>
      <trkpt lat="0" lon="0">
        <time>2020-12-06T08:20:41.424000+00:00</time>
      </trkpt>
      <trkpt lat="0" lon="0">
        <time>2020-12-06T08:20:41.429000+00:00</time>
      </trkpt>
      <trkpt lat="0" lon="0">
        <time>2020-12-06T08:20:41.432000+00:00</time>
      </trkpt>
      <trkpt lat="47.30986" lon="-1.33236">
        <ele>7</ele>
        <time>2020-12-06T08:20:42.450000+00:00</time>
      </trkpt>
      <trkpt lat="0" lon="0">
        <time>2020-12-06T08:20:42.453000+00:00</time>
      </trkpt>
      <trkpt lat="0" lon="0">
        <time>2020-12-06T08:20:42.461000+00:00</time>
      </trkpt>
      <trkpt lat="0" lon="0">
        <time>2020-12-06T08:20:42.463000+00:00</time>
      </trkpt>
      <trkpt lat="47.3099" lon="-1.33232">
        <ele>7</ele>
        <time>2020-12-06T08:20:43.431000+00:00</time>
      </trkpt>
      <trkpt lat="0" lon="0">
        <time>2020-12-06T08:20:43.437000+00:00</time>
      </trkpt>
      <trkpt lat="0" lon="0">
        <time>2020-12-06T08:20:43.441000+00:00</time>
      </trkpt>
      <trkpt lat="0" lon="0">
        <time>2020-12-06T08:20:43.442000+00:00</time>
      </trkpt>
      <trkpt lat="47.30994" lon="-1.33227">
        <ele>7</ele>
        <time>2020-12-06T08:20:44.424000+00:00</time>
      </trkpt>
      <trkpt lat="0" lon="0">
        <time>2020-12-06T08:20:44.441000+00:00</time>
      </trkpt>
      <trkpt lat="0" lon="0">
        <time>2020-12-06T08:20:44.447000+00:00</time>
      </trkpt>
      <trkpt lat="0" lon="0">
        <time>2020-12-06T08:20:44.449000+00:00</time>
      </trkpt>
      <trkpt lat="47.30997" lon="-1.33223">
        <ele>7</ele>
        <time>2020-12-06T08:20:45.319000+00:00</time>
      </trkpt>
      <trkpt lat="0" lon="0">
        <time>2020-12-06T08:20:45.328000+00:00</time>
      </trkpt>
      <trkpt lat="0" lon="0">
        <time>2020-12-06T08:20:45.337000+00:00</time>
      </trkpt>
      <trkpt lat="0" lon="0">
        <time>2020-12-06T08:20:45.339000+00:00</time>
      </trkpt>
      <trkpt lat="47.31001" lon="-1.33219">
        <ele>6</ele>
        <time>2020-12-06T08:20:46.428000+00:00</time>
      </trkpt>
      <trkpt lat="0" lon="0">
        <time>2020-12-06T08:20:46.435000+00:00</time>
      </trkpt>
      <trkpt lat="0" lon="0">
        <time>2020-12-06T08:20:46.439000+00:00</time>
      </trkpt>
      <trkpt lat="0" lon="0">
        <time>2020-12-06T08:20:46.441000+00:00</time>
      </trkpt>
      <trkpt lat="47.31004" lon="-1.33215">
        <ele>6</ele>
        <time>2020-12-06T08:20:47.413000+00:00</time>
      </trkpt>
      <trkpt lat="0" lon="0">
        <time>2020-12-06T08:20:47.418000+00:00</time>
      </trkpt>
      <trkpt lat="0" lon="0">
        <time>2020-12-06T08:20:47.425000+00:00</time>
      </trkpt>
      <trkpt lat="0" lon="0">
        <time>2020-12-06T08:20:47.426000+00:00</time>
      </trkpt>
      <trkpt lat="47.31007" lon="-1.33211">
        <ele>6</ele>
        <time>2020-12-06T08:20:48.429000+00:00</time>
      </trkpt>
      <trkpt lat="0" lon="0">
        <time>2020-12-06T08:20:48.442000+00:00</time>
      </trkpt>
      <trkpt lat="0" lon="0">
        <time>2020-12-06T08:20:48.446000+00:00</time>
      </trkpt>
      <trkpt lat="0" lon="0">
        <time>2020-12-06T08:20:48.448000+00:00</time>
      </trkpt>
      <trkpt lat="47.31011" lon="-1.33208">
        <ele>6</ele>
        <time>2020-12-06T08:20:49.393000+00:00</time>
      </trkpt>
      <trkpt lat="0" lon="0">
        <time>2020-12-06T08:20:49.396000+00:00</time>
      </trkpt>
      <trkpt lat="0" lon="0">
        <time>2020-12-06T08:20:49.401000+00:00</time>
      </trkpt>
      <trkpt lat="0" lon="0">
        <time>2020-12-06T08:20:49.402000+00:00</time>
      </trkpt>
      <trkpt lat="47.31014" lon="-1.33204">
        <ele>6</ele>
        <time>2020-12-06T08:20:50.407000+00:00</time>
      </trkpt>
      <trkpt lat="0" lon="0">
        <time>2020-12-06T08:20:50.418000+00:00</time>
      </trkpt>
      <trkpt lat="0" lon="0">
        <time>2020-12-06T08:20:50.422000+00:00</time>
      </trkpt>
      <trkpt lat="47.31017" lon="-1.33201">
        <ele>6</ele>
        <time>2020-12-06T08:20:51.396000+00:00</time>
      </trkpt>
      <trkpt lat="0" lon="0">
        <time>2020-12-06T08:20:51.407000+00:00</time>
      </trkpt>
      <trkpt lat="0" lon="0">
        <time>2020-12-06T08:20:51.410000+00:00</time>
      </trkpt>
      <trkpt lat="0" lon="0">
        <time>2020-12-06T08:20:51.411000+00:00</time>
      </trkpt>
      <trkpt lat="47.3102" lon="-1.33199">
        <ele>6</ele>
        <time>2020-12-06T08:20:52.417000+00:00</time>
      </trkpt>
      <trkpt lat="0" lon="0">
        <time>2020-12-06T08:20:52.424000+00:00</time>
      </trkpt>
      <trkpt lat="0" lon="0">
        <time>2020-12-06T08:20:52.430000+00:00</time>
      </trkpt>
      <trkpt lat="0" lon="0">
        <time>2020-12-06T08:20:52.432000+00:00</time>
      </trkpt>
      <trkpt lat="47.31024" lon="-1.33197">
        <ele>6</ele>
        <time>2020-12-06T08:20:53.398000+00:00</time>
      </trkpt>
      <trkpt lat="0" lon="0">
        <time>2020-12-06T08:20:53.416000+00:00</time>
      </trkpt>
      <trkpt lat="0" lon="0">
        <time>2020-12-06T08:20:53.420000+00:00</time>
      </trkpt>
      <trkpt lat="0" lon="0">
        <time>2020-12-06T08:20:53.421000+00:00</time>
      </trkpt>
      <trkpt lat="47.31027" lon="-1.33195">
        <ele>6</ele>
        <time>2020-12-06T08:20:54.406000+00:00</time>
      </trkpt>
      <trkpt lat="0" lon="0">
        <time>2020-12-06T08:20:54.410000+00:00</time>
      </trkpt>
      <trkpt lat="0" lon="0">
        <time>2020-12-06T08:20:54.414000+00:00</time>
      </trkpt>
      <trkpt lat="0" lon="0">
        <time>2020-12-06T08:20:54.416000+00:00</time>
      </trkpt>
      <trkpt lat="47.3103" lon="-1.33194">
        <ele>7</ele>
        <time>2020-12-06T08:20:55.443000+00:00</time>
      </trkpt>
      <trkpt lat="0" lon="0">
        <time>2020-12-06T08:20:55.448000+00:00</time>
      </trkpt>
      <trkpt lat="0" lon="0">
        <time>2020-12-06T08:20:55.450000+00:00</time>
      </trkpt>
      <trkpt lat="0" lon="0">
        <time>2020-12-06T08:20:55.452000+00:00</time>
      </trkpt>
      <trkpt lat="47.31033" lon="-1.33192">
        <ele>7</ele>
        <time>2020-12-06T08:20:56.427000+00:00</time>
      </trkpt>
      <trkpt lat="0" lon="0">
        <time>2020-12-06T08:20:56.431000+00:00</time>
      </trkpt>
      <trkpt lat="0" lon="0">
        <time>2020-12-06T08:20:56.436000+00:00</time>
      </trkpt>
      <trkpt lat="0" lon="0">
        <time>2020-12-06T08:20:56.438000+00:00</time>
      </trkpt>
      <trkpt lat="47.31036" lon="-1.3319">
        <ele>7</ele>
        <time>2020-12-06T08:20:57.438000+00:00</time>
      </trkpt>
      <trkpt lat="0" lon="0">
        <time>2020-12-06T08:20:57.452000+00:00</time>
      </trkpt>
      <trkpt lat="0" lon="0">
        <time>2020-12-06T08:20:57.458000+00:00</time>
      </trkpt>
      <trkpt lat="0" lon="0">
        <time>2020-12-06T08:20:57.465000+00:00</time>
      </trkpt>
      <trkpt lat="47.31039" lon="-1.33188">
        <ele>7</ele>
        <time>2020-12-06T08:20:58.439000+00:00</time>
      </trkpt>
      <trkpt lat="0" lon="0">
        <time>2020-12-06T08:20:58.441000+00:00</time>
      </trkpt>
      <trkpt lat="0" lon="0">
        <time>2020-12-06T08:20:58.446000+00:00</time>
      </trkpt>
      <trkpt lat="0" lon="0">
        <time>2020-12-06T08:20:58.450000+00:00</time>
      </trkpt>
      <trkpt lat="47.31042" lon="-1.33186">
        <ele>7</ele>
        <time>2020-12-06T08:20:59.427000+00:00</time>
      </trkpt>
      <trkpt lat="0" lon="0">
        <time>2020-12-06T08:20:59.436000+00:00</time>
      </trkpt>
      <trkpt lat="0" lon="0">
        <time>2020-12-06T08:20:59.439000+00:00</time>
      </trkpt>
      <trkpt lat="0" lon="0">
        <time>2020-12-06T08:20:59.440000+00:00</time>
      </trkpt>
      <trkpt lat="47.31045" lon="-1.33183">
        <ele>7</ele>
        <time>2020-12-06T08:21:00.440000+00:00</time>
      </trkpt>
      <trkpt lat="0" lon="0">
        <time>2020-12-06T08:21:00.442000+00:00</time>
      </trkpt>
      <trkpt lat="0" lon="0">
        <time>2020-12-06T08:21:00.445000+00:00</time>
      </trkpt>
      <trkpt lat="0" lon="0">
        <time>2020-12-06T08:21:00.446000+00:00</time>
      </trkpt>
      <trkpt lat="47.31048" lon="-1.3318">
        <ele>7</ele>
        <time>2020-12-06T08:21:01.449000+00:00</time>
      </trkpt>
      <trkpt lat="0" lon="0">
        <time>2020-12-06T08:21:01.450000+00:00</time>
      </trkpt>
      <trkpt lat="0" lon="0">
        <time>2020-12-06T08:21:01.452000+00:00</time>
      </trkpt>
      <trkpt lat="0" lon="0">
        <time>2020-12-06T08:21:01.454000+00:00</time>
      </trkpt>
      <trkpt lat="47.31051" lon="-1.33176">
        <ele>7</ele>
        <time>2020-12-06T08:21:02.443000+00:00</time>
      </trkpt>
      <trkpt lat="0" lon="0">
        <time>2020-12-06T08:21:02.445000+00:00</time>
      </trkpt>
      <trkpt lat="0" lon="0">
        <time>2020-12-06T08:21:02.449000+00:00</time>
      </trkpt>
      <trkpt lat="0" lon="0">
        <time>2020-12-06T08:21:02.450000+00:00</time>
      </trkpt>
      <trkpt lat="47.31054" lon="-1.33172">
        <ele>7</ele>
        <time>2020-12-06T08:21:03.411000+00:00</time>
      </trkpt>
      <trkpt lat="0" lon="0">
        <time>2020-12-06T08:21:03.419000+00:00</time>
      </trkpt>
      <trkpt lat="0" lon="0">
        <time>2020-12-06T08:21:03.423000+00:00</time>
      </trkpt>
      <trkpt lat="0" lon="0">
        <time>2020-12-06T08:21:03.429000+00:00</time>
      </trkpt>
      <trkpt lat="47.31057" lon="-1.33168">
        <ele>7</ele>
        <time>2020-12-06T08:21:04.432000+00:00</time>
      </trkpt>
      <trkpt lat="0" lon="0">
        <time>2020-12-06T08:21:04.438000+00:00</time>
      </trkpt>
      <trkpt lat="0" lon="0">
        <time>2020-12-06T08:21:04.447000+00:00</time>
      </trkpt>
      <trkpt lat="0" lon="0">
        <time>2020-12-06T08:21:04.449000+00:00</time>
      </trkpt>
      <trkpt lat="47.31061" lon="-1.33164">
        <ele>7</ele>
        <time>2020-12-06T08:21:05.448000+00:00</time>
      </trkpt>
      <trkpt lat="0" lon="0">
        <time>2020-12-06T08:21:05.458000+00:00</time>
      </trkpt>
      <trkpt lat="0" lon="0">
        <time>2020-12-06T08:21:05.466000+00:00</time>
      </trkpt>
      <trkpt lat="0" lon="0">
        <time>2020-12-06T08:21:05.468000+00:00</time>
      </trkpt>
      <trkpt lat="47.31064" lon="-1.33159">
        <ele>7</ele>
        <time>2020-12-06T08:21:06.454000+00:00</time>
      </trkpt>
      <trkpt lat="0" lon="0">
        <time>2020-12-06T08:21:06.455000+00:00</time>
      </trkpt>
      <trkpt lat="0" lon="0">
        <time>2020-12-06T08:21:06.458000+00:00</time>
      </trkpt>
      <trkpt lat="0" lon="0">
        <time>2020-12-06T08:21:06.459000+00:00</time>
      </trkpt>
      <trkpt lat="47.31068" lon="-1.33153">
        <ele>7</ele>
        <time>2020-12-06T08:21:07.446000+00:00</time>
      </trkpt>
      <trkpt lat="0" lon="0">
        <time>2020-12-06T08:21:07.450000+00:00</time>
      </trkpt>
      <trkpt lat="0" lon="0">
        <time>2020-12-06T08:21:07.461000+00:00</time>
      </trkpt>
      <trkpt lat="0" lon="0">
        <time>2020-12-06T08:21:07.462000+00:00</time>
      </trkpt>
      <trkpt lat="47.31071" lon="-1.33148">
        <ele>7</ele>
        <time>2020-12-06T08:21:08.464000+00:00</time>
      </trkpt>
      <trkpt lat="0" lon="0">
        <time>2020-12-06T08:21:08.468000+00:00</time>
      </trkpt>
      <trkpt lat="0" lon="0">
        <time>2020-12-06T08:21:08.483000+00:00</time>
      </trkpt>
      <trkpt lat="0" lon="0">
        <time>2020-12-06T08:21:08.485000+00:00</time>
      </trkpt>
      <trkpt lat="47.31075" lon="-1.33142">
        <ele>7</ele>
        <time>2020-12-06T08:21:09.465000+00:00</time>
      </trkpt>
      <trkpt lat="0" lon="0">
        <time>2020-12-06T08:21:09.477000+00:00</time>
      </trkpt>
      <trkpt lat="0" lon="0">
        <time>2020-12-06T08:21:09.484000+00:00</time>
      </trkpt>
      <trkpt lat="0" lon="0">
        <time>2020-12-06T08:21:09.485000+00:00</time>
      </trkpt>
      <trkpt lat="47.31079" lon="-1.33137">
        <ele>7</ele>
        <time>2020-12-06T08:21:10.415000+00:00</time>
      </trkpt>
      <trkpt lat="0" lon="0">
        <time>2020-12-06T08:21:10.424000+00:00</time>
      </trkpt>
      <trkpt lat="0" lon="0">
        <time>2020-12-06T08:21:10.428000+00:00</time>
      </trkpt>
      <trkpt lat="0" lon="0">
        <time>2020-12-06T08:21:10.430000+00:00</time>
      </trkpt>
      <trkpt lat="47.31083" lon="-1.33131">
        <ele>7</ele>
        <time>2020-12-06T08:21:11.416000+00:00</time>
      </trkpt>
      <trkpt lat="0" lon="0">
        <time>2020-12-06T08:21:11.429000+00:00</time>
      </trkpt>
      <trkpt lat="0" lon="0">
        <time>2020-12-06T08:21:11.434000+00:00</time>
      </trkpt>
      <trkpt lat="0" lon="0">
        <time>2020-12-06T08:21:11.441000+00:00</time>
      </trkpt>
      <trkpt lat="47.31088" lon="-1.33125">
        <ele>6</ele>
        <time>2020-12-06T08:21:12.421000+00:00</time>
      </trkpt>
      <trkpt lat="0" lon="0">
        <time>2020-12-06T08:21:12.440000+00:00</time>
      </trkpt>
      <trkpt lat="0" lon="0">
        <time>2020-12-06T08:21:12.448000+00:00</time>
      </trkpt>
      <trkpt lat="0" lon="0">
        <time>2020-12-06T08:21:12.449000+00:00</time>
      </trkpt>
      <trkpt lat="47.31092" lon="-1.33119">
        <ele>6</ele>
        <time>2020-12-06T08:21:13.439000+00:00</time>
      </trkpt>
      <trkpt lat="0" lon="0">
        <time>2020-12-06T08:21:13.449000+00:00</time>
      </trkpt>
      <trkpt lat="0" lon="0">
        <time>2020-12-06T08:21:13.458000+00:00</time>
      </trkpt>
      <trkpt lat="0" lon="0">
        <time>2020-12-06T08:21:13.459000+00:00</time>
      </trkpt>
      <trkpt lat="47.31096" lon="-1.33114">
        <ele>6</ele>
        <time>2020-12-06T08:21:14.423000+00:00</time>
      </trkpt>
      <trkpt lat="0" lon="0">
        <time>2020-12-06T08:21:14.433000+00:00</time>
      </trkpt>
      <trkpt lat="0" lon="0">
        <time>2020-12-06T08:21:14.437000+00:00</time>
      </trkpt>
      <trkpt lat="0" lon="0">
        <time>2020-12-06T08:21:14.438000+00:00</time>
      </trkpt>
      <trkpt lat="47.31101" lon="-1.33109">
        <ele>6</ele>
        <time>2020-12-06T08:21:15.453000+00:00</time>
      </trkpt>
      <trkpt lat="0" lon="0">
        <time>2020-12-06T08:21:15.463000+00:00</time>
      </trkpt>
      <trkpt lat="0" lon="0">
        <time>2020-12-06T08:21:15.470000+00:00</time>
      </trkpt>
      <trkpt lat="0" lon="0">
        <time>2020-12-06T08:21:15.471000+00:00</time>
      </trkpt>
      <trkpt lat="47.31105" lon="-1.33103">
        <ele>6</ele>
        <time>2020-12-06T08:21:16.410000+00:00</time>
      </trkpt>
      <trkpt lat="0" lon="0">
        <time>2020-12-06T08:21:16.421000+00:00</time>
      </trkpt>
      <trkpt lat="0" lon="0">
        <time>2020-12-06T08:21:16.433000+00:00</time>
      </trkpt>
      <trkpt lat="0" lon="0">
        <time>2020-12-06T08:21:16.435000+00:00</time>
      </trkpt>
      <trkpt lat="47.3111" lon="-1.33098">
        <ele>6</ele>
        <time>2020-12-06T08:21:17.374000+00:00</time>
      </trkpt>
      <trkpt lat="0" lon="0">
        <time>2020-12-06T08:21:17.377000+00:00</time>
      </trkpt>
      <trkpt lat="0" lon="0">
        <time>2020-12-06T08:21:17.389000+00:00</time>
      </trkpt>
      <trkpt lat="0" lon="0">
        <time>2020-12-06T08:21:17.391000+00:00</time>
      </trkpt>
      <trkpt lat="47.31115" lon="-1.33093">
        <ele>6</ele>
        <time>2020-12-06T08:21:18.388000+00:00</time>
      </trkpt>
      <trkpt lat="0" lon="0">
        <time>2020-12-06T08:21:18.391000+00:00</time>
      </trkpt>
      <trkpt lat="0" lon="0">
        <time>2020-12-06T08:21:18.394000+00:00</time>
      </trkpt>
      <trkpt lat="0" lon="0">
        <time>2020-12-06T08:21:18.396000+00:00</time>
      </trkpt>
      <trkpt lat="47.31119" lon="-1.33088">
        <ele>6</ele>
        <time>2020-12-06T08:21:19.369000+00:00</time>
      </trkpt>
      <trkpt lat="0" lon="0">
        <time>2020-12-06T08:21:19.374000+00:00</time>
      </trkpt>
      <trkpt lat="0" lon="0">
        <time>2020-12-06T08:21:19.377000+00:00</time>
      </trkpt>
      <trkpt lat="0" lon="0">
        <time>2020-12-06T08:21:19.379000+00:00</time>
      </trkpt>
      <trkpt lat="47.31124" lon="-1.33083">
        <ele>6</ele>
        <time>2020-12-06T08:21:20.358000+00:00</time>
      </trkpt>
      <trkpt lat="0" lon="0">
        <time>2020-12-06T08:21:20.361000+00:00</time>
      </trkpt>
      <trkpt lat="0" lon="0">
        <time>2020-12-06T08:21:20.368000+00:00</time>
      </trkpt>
      <trkpt lat="0" lon="0">
        <time>2020-12-06T08:21:20.369000+00:00</time>
      </trkpt>
      <trkpt lat="47.31129" lon="-1.33078">
        <ele>6</ele>
        <time>2020-12-06T08:21:21.467000+00:00</time>
      </trkpt>
      <trkpt lat="0" lon="0">
        <time>2020-12-06T08:21:21.476000+00:00</time>
      </trkpt>
      <trkpt lat="0" lon="0">
        <time>2020-12-06T08:21:21.484000+00:00</time>
      </trkpt>
      <trkpt lat="0" lon="0">
        <time>2020-12-06T08:21:21.485000+00:00</time>
      </trkpt>
      <trkpt lat="47.31134" lon="-1.33074">
        <ele>6</ele>
        <time>2020-12-06T08:21:22.439000+00:00</time>
      </trkpt>
      <trkpt lat="0" lon="0">
        <time>2020-12-06T08:21:22.446000+00:00</time>
      </trkpt>
      <trkpt lat="0" lon="0">
        <time>2020-12-06T08:21:22.450000+00:00</time>
      </trkpt>
      <trkpt lat="0" lon="0">
        <time>2020-12-06T08:21:22.451000+00:00</time>
      </trkpt>
      <trkpt lat="47.31139" lon="-1.33069">
        <ele>6</ele>
        <time>2020-12-06T08:21:23.426000+00:00</time>
      </trkpt>
      <trkpt lat="0" lon="0">
        <time>2020-12-06T08:21:23.433000+00:00</time>
      </trkpt>
      <trkpt lat="0" lon="0">
        <time>2020-12-06T08:21:23.437000+00:00</time>
      </trkpt>
      <trkpt lat="0" lon="0">
        <time>2020-12-06T08:21:23.443000+00:00</time>
      </trkpt>
      <trkpt lat="47.31144" lon="-1.33065">
        <ele>6</ele>
        <time>2020-12-06T08:21:24.446000+00:00</time>
      </trkpt>
      <trkpt lat="0" lon="0">
        <time>2020-12-06T08:21:24.453000+00:00</time>
      </trkpt>
      <trkpt lat="0" lon="0">
        <time>2020-12-06T08:21:24.457000+00:00</time>
      </trkpt>
      <trkpt lat="0" lon="0">
        <time>2020-12-06T08:21:24.458000+00:00</time>
      </trkpt>
      <trkpt lat="47.31148" lon="-1.3306">
        <ele>6</ele>
        <time>2020-12-06T08:21:25.406000+00:00</time>
      </trkpt>
      <trkpt lat="0" lon="0">
        <time>2020-12-06T08:21:25.410000+00:00</time>
      </trkpt>
      <trkpt lat="0" lon="0">
        <time>2020-12-06T08:21:25.425000+00:00</time>
      </trkpt>
      <trkpt lat="0" lon="0">
        <time>2020-12-06T08:21:25.430000+00:00</time>
      </trkpt>
      <trkpt lat="47.31153" lon="-1.33056">
        <ele>6</ele>
        <time>2020-12-06T08:21:26.425000+00:00</time>
      </trkpt>
      <trkpt lat="0" lon="0">
        <time>2020-12-06T08:21:26.436000+00:00</time>
      </trkpt>
      <trkpt lat="0" lon="0">
        <time>2020-12-06T08:21:26.439000+00:00</time>
      </trkpt>
      <trkpt lat="0" lon="0">
        <time>2020-12-06T08:21:26.440000+00:00</time>
      </trkpt>
      <trkpt lat="47.31158" lon="-1.33051">
        <ele>6</ele>
        <time>2020-12-06T08:21:27.364000+00:00</time>
      </trkpt>
      <trkpt lat="0" lon="0">
        <time>2020-12-06T08:21:27.367000+00:00</time>
      </trkpt>
      <trkpt lat="0" lon="0">
        <time>2020-12-06T08:21:27.370000+00:00</time>
      </trkpt>
      <trkpt lat="0" lon="0">
        <time>2020-12-06T08:21:27.373000+00:00</time>
      </trkpt>
      <trkpt lat="47.31163" lon="-1.33046">
        <ele>6</ele>
        <time>2020-12-06T08:21:28.469000+00:00</time>
      </trkpt>
      <trkpt lat="0" lon="0">
        <time>2020-12-06T08:21:28.475000+00:00</time>
      </trkpt>
      <trkpt lat="0" lon="0">
        <time>2020-12-06T08:21:28.479000+00:00</time>
      </trkpt>
      <trkpt lat="0" lon="0">
        <time>2020-12-06T08:21:28.482000+00:00</time>
      </trkpt>
      <trkpt lat="47.31167" lon="-1.33041">
        <ele>7</ele>
        <time>2020-12-06T08:21:29.417000+00:00</time>
      </trkpt>
      <trkpt lat="0" lon="0">
        <time>2020-12-06T08:21:29.423000+00:00</time>
      </trkpt>
      <trkpt lat="0" lon="0">
        <time>2020-12-06T08:21:29.426000+00:00</time>
      </trkpt>
      <trkpt lat="0" lon="0">
        <time>2020-12-06T08:21:29.429000+00:00</time>
      </trkpt>
      <trkpt lat="47.31172" lon="-1.33036">
        <ele>7</ele>
        <time>2020-12-06T08:21:30.410000+00:00</time>
      </trkpt>
      <trkpt lat="0" lon="0">
        <time>2020-12-06T08:21:30.418000+00:00</time>
      </trkpt>
      <trkpt lat="0" lon="0">
        <time>2020-12-06T08:21:30.427000+00:00</time>
      </trkpt>
      <trkpt lat="0" lon="0">
        <time>2020-12-06T08:21:30.429000+00:00</time>
      </trkpt>
      <trkpt lat="47.31176" lon="-1.33031">
        <ele>7</ele>
        <time>2020-12-06T08:21:31.454000+00:00</time>
      </trkpt>
      <trkpt lat="0" lon="0">
        <time>2020-12-06T08:21:31.460000+00:00</time>
      </trkpt>
      <trkpt lat="0" lon="0">
        <time>2020-12-06T08:21:31.471000+00:00</time>
      </trkpt>
      <trkpt lat="0" lon="0">
        <time>2020-12-06T08:21:31.474000+00:00</time>
      </trkpt>
      <trkpt lat="47.31181" lon="-1.33027">
        <ele>7</ele>
        <time>2020-12-06T08:21:32.415000+00:00</time>
      </trkpt>
      <trkpt lat="0" lon="0">
        <time>2020-12-06T08:21:32.431000+00:00</time>
      </trkpt>
      <trkpt lat="0" lon="0">
        <time>2020-12-06T08:21:32.435000+00:00</time>
      </trkpt>
      <trkpt lat="0" lon="0">
        <time>2020-12-06T08:21:32.438000+00:00</time>
      </trkpt>
      <trkpt lat="47.31186" lon="-1.33022">
        <ele>7</ele>
        <time>2020-12-06T08:21:33.389000+00:00</time>
      </trkpt>
      <trkpt lat="0" lon="0">
        <time>2020-12-06T08:21:33.392000+00:00</time>
      </trkpt>
      <trkpt lat="0" lon="0">
        <time>2020-12-06T08:21:33.395000+00:00</time>
      </trkpt>
      <trkpt lat="0" lon="0">
        <time>2020-12-06T08:21:33.402000+00:00</time>
      </trkpt>
      <trkpt lat="47.3119" lon="-1.33017">
        <ele>7</ele>
        <time>2020-12-06T08:21:34.387000+00:00</time>
      </trkpt>
      <trkpt lat="0" lon="0">
        <time>2020-12-06T08:21:34.392000+00:00</time>
      </trkpt>
      <trkpt lat="0" lon="0">
        <time>2020-12-06T08:21:34.398000+00:00</time>
      </trkpt>
      <trkpt lat="0" lon="0">
        <time>2020-12-06T08:21:34.401000+00:00</time>
      </trkpt>
      <trkpt lat="47.31194" lon="-1.33012">
        <ele>7</ele>
        <time>2020-12-06T08:21:35.392000+00:00</time>
      </trkpt>
      <trkpt lat="0" lon="0">
        <time>2020-12-06T08:21:35.396000+00:00</time>
      </trkpt>
      <trkpt lat="0" lon="0">
        <time>2020-12-06T08:21:35.401000+00:00</time>
      </trkpt>
      <trkpt lat="0" lon="0">
        <time>2020-12-06T08:21:35.403000+00:00</time>
      </trkpt>
      <trkpt lat="47.31199" lon="-1.33007">
        <ele>7</ele>
        <time>2020-12-06T08:21:36.390000+00:00</time>
      </trkpt>
      <trkpt lat="0" lon="0">
        <time>2020-12-06T08:21:36.397000+00:00</time>
      </trkpt>
      <trkpt lat="0" lon="0">
        <time>2020-12-06T08:21:36.402000+00:00</time>
      </trkpt>
      <trkpt lat="0" lon="0">
        <time>2020-12-06T08:21:36.404000+00:00</time>
      </trkpt>
      <trkpt lat="47.31203" lon="-1.33002">
        <ele>7</ele>
        <time>2020-12-06T08:21:37.417000+00:00</time>
      </trkpt>
      <trkpt lat="0" lon="0">
        <time>2020-12-06T08:21:37.430000+00:00</time>
      </trkpt>
      <trkpt lat="0" lon="0">
        <time>2020-12-06T08:21:37.433000+00:00</time>
      </trkpt>
      <trkpt lat="0" lon="0">
        <time>2020-12-06T08:21:37.436000+00:00</time>
      </trkpt>
      <trkpt lat="47.31208" lon="-1.32997">
        <ele>7</ele>
        <time>2020-12-06T08:21:38.424000+00:00</time>
      </trkpt>
      <trkpt lat="0" lon="0">
        <time>2020-12-06T08:21:38.454000+00:00</time>
      </trkpt>
      <trkpt lat="0" lon="0">
        <time>2020-12-06T08:21:38.461000+00:00</time>
      </trkpt>
      <trkpt lat="0" lon="0">
        <time>2020-12-06T08:21:38.462000+00:00</time>
      </trkpt>
      <trkpt lat="47.31212" lon="-1.32993">
        <ele>7</ele>
        <time>2020-12-06T08:21:39.444000+00:00</time>
      </trkpt>
      <trkpt lat="0" lon="0">
        <time>2020-12-06T08:21:39.450000+00:00</time>
      </trkpt>
      <trkpt lat="0" lon="0">
        <time>2020-12-06T08:21:39.454000+00:00</time>
      </trkpt>
      <trkpt lat="0" lon="0">
        <time>2020-12-06T08:21:39.457000+00:00</time>
      </trkpt>
      <trkpt lat="47.31217" lon="-1.3299">
        <ele>7</ele>
        <time>2020-12-06T08:21:40.405000+00:00</time>
      </trkpt>
      <trkpt lat="0" lon="0">
        <time>2020-12-06T08:21:40.408000+00:00</time>
      </trkpt>
      <trkpt lat="0" lon="0">
        <time>2020-12-06T08:21:40.413000+00:00</time>
      </trkpt>
      <trkpt lat="0" lon="0">
        <time>2020-12-06T08:21:40.415000+00:00</time>
      </trkpt>
      <trkpt lat="47.31222" lon="-1.32987">
        <ele>7</ele>
        <time>2020-12-06T08:21:41.440000+00:00</time>
      </trkpt>
      <trkpt lat="0" lon="0">
        <time>2020-12-06T08:21:41.446000+00:00</time>
      </trkpt>
      <trkpt lat="0" lon="0">
        <time>2020-12-06T08:21:41.448000+00:00</time>
      </trkpt>
      <trkpt lat="47.31226" lon="-1.32984">
        <ele>7</ele>
        <time>2020-12-06T08:21:42.429000+00:00</time>
      </trkpt>
      <trkpt lat="0" lon="0">
        <time>2020-12-06T08:21:42.445000+00:00</time>
      </trkpt>
      <trkpt lat="0" lon="0">
        <time>2020-12-06T08:21:42.449000+00:00</time>
      </trkpt>
      <trkpt lat="0" lon="0">
        <time>2020-12-06T08:21:42.453000+00:00</time>
      </trkpt>
      <trkpt lat="47.31231" lon="-1.32982">
        <ele>7</ele>
        <time>2020-12-06T08:21:43.416000+00:00</time>
      </trkpt>
      <trkpt lat="0" lon="0">
        <time>2020-12-06T08:21:43.427000+00:00</time>
      </trkpt>
      <trkpt lat="0" lon="0">
        <time>2020-12-06T08:21:43.436000+00:00</time>
      </trkpt>
      <trkpt lat="0" lon="0">
        <time>2020-12-06T08:21:43.439000+00:00</time>
      </trkpt>
      <trkpt lat="47.31236" lon="-1.3298">
        <ele>7</ele>
        <time>2020-12-06T08:21:44.439000+00:00</time>
      </trkpt>
      <trkpt lat="0" lon="0">
        <time>2020-12-06T08:21:44.442000+00:00</time>
      </trkpt>
      <trkpt lat="0" lon="0">
        <time>2020-12-06T08:21:44.452000+00:00</time>
      </trkpt>
      <trkpt lat="0" lon="0">
        <time>2020-12-06T08:21:44.453000+00:00</time>
      </trkpt>
      <trkpt lat="47.31241" lon="-1.32977">
        <ele>7</ele>
        <time>2020-12-06T08:21:45.451000+00:00</time>
      </trkpt>
      <trkpt lat="0" lon="0">
        <time>2020-12-06T08:21:45.458000+00:00</time>
      </trkpt>
      <trkpt lat="0" lon="0">
        <time>2020-12-06T08:21:45.471000+00:00</time>
      </trkpt>
      <trkpt lat="0" lon="0">
        <time>2020-12-06T08:21:45.478000+00:00</time>
      </trkpt>
      <trkpt lat="47.31246" lon="-1.32975">
        <ele>7</ele>
        <time>2020-12-06T08:21:46.402000+00:00</time>
      </trkpt>
      <trkpt lat="0" lon="0">
        <time>2020-12-06T08:21:46.409000+00:00</time>
      </trkpt>
      <trkpt lat="0" lon="0">
        <time>2020-12-06T08:21:46.420000+00:00</time>
      </trkpt>
      <trkpt lat="0" lon="0">
        <time>2020-12-06T08:21:46.424000+00:00</time>
      </trkpt>
      <trkpt lat="47.31251" lon="-1.32973">
        <ele>7</ele>
        <time>2020-12-06T08:21:47.462000+00:00</time>
      </trkpt>
      <trkpt lat="0" lon="0">
        <time>2020-12-06T08:21:47.472000+00:00</time>
      </trkpt>
      <trkpt lat="0" lon="0">
        <time>2020-12-06T08:21:47.474000+00:00</time>
      </trkpt>
      <trkpt lat="47.31256" lon="-1.3297">
        <ele>7</ele>
        <time>2020-12-06T08:21:48.421000+00:00</time>
      </trkpt>
      <trkpt lat="0" lon="0">
        <time>2020-12-06T08:21:48.440000+00:00</time>
      </trkpt>
      <trkpt lat="0" lon="0">
        <time>2020-12-06T08:21:48.450000+00:00</time>
      </trkpt>
      <trkpt lat="0" lon="0">
        <time>2020-12-06T08:21:48.452000+00:00</time>
      </trkpt>
      <trkpt lat="47.31261" lon="-1.32967">
        <ele>7</ele>
        <time>2020-12-06T08:21:49.404000+00:00</time>
      </trkpt>
      <trkpt lat="0" lon="0">
        <time>2020-12-06T08:21:49.417000+00:00</time>
      </trkpt>
      <trkpt lat="0" lon="0">
        <time>2020-12-06T08:21:49.421000+00:00</time>
      </trkpt>
      <trkpt lat="0" lon="0">
        <time>2020-12-06T08:21:49.426000+00:00</time>
      </trkpt>
      <trkpt lat="47.31266" lon="-1.32964">
        <ele>8</ele>
        <time>2020-12-06T08:21:50.418000+00:00</time>
      </trkpt>
      <trkpt lat="0" lon="0">
        <time>2020-12-06T08:21:50.423000+00:00</time>
      </trkpt>
      <trkpt lat="0" lon="0">
        <time>2020-12-06T08:21:50.444000+00:00</time>
      </trkpt>
      <trkpt lat="0" lon="0">
        <time>2020-12-06T08:21:50.448000+00:00</time>
      </trkpt>
      <trkpt lat="47.31271" lon="-1.32961">
        <ele>8</ele>
        <time>2020-12-06T08:21:51.446000+00:00</time>
      </trkpt>
      <trkpt lat="0" lon="0">
        <time>2020-12-06T08:21:51.471000+00:00</time>
      </trkpt>
      <trkpt lat="0" lon="0">
        <time>2020-12-06T08:21:51.477000+00:00</time>
      </trkpt>
      <trkpt lat="0" lon="0">
        <time>2020-12-06T08:21:51.481000+00:00</time>
      </trkpt>
      <trkpt lat="47.31276" lon="-1.32958">
        <ele>8</ele>
        <time>2020-12-06T08:21:52.461000+00:00</time>
      </trkpt>
      <trkpt lat="0" lon="0">
        <time>2020-12-06T08:21:52.479000+00:00</time>
      </trkpt>
      <trkpt lat="0" lon="0">
        <time>2020-12-06T08:21:52.482000+00:00</time>
      </trkpt>
      <trkpt lat="0" lon="0">
        <time>2020-12-06T08:21:52.485000+00:00</time>
      </trkpt>
      <trkpt lat="47.31281" lon="-1.32954">
        <ele>8</ele>
        <time>2020-12-06T08:21:53.436000+00:00</time>
      </trkpt>
      <trkpt lat="0" lon="0">
        <time>2020-12-06T08:21:53.437000+00:00</time>
      </trkpt>
      <trkpt lat="0" lon="0">
        <time>2020-12-06T08:21:53.439000+00:00</time>
      </trkpt>
      <trkpt lat="0" lon="0">
        <time>2020-12-06T08:21:53.440000+00:00</time>
      </trkpt>
      <trkpt lat="47.31286" lon="-1.32951">
        <ele>8</ele>
        <time>2020-12-06T08:21:54.406000+00:00</time>
      </trkpt>
      <trkpt lat="0" lon="0">
        <time>2020-12-06T08:21:54.410000+00:00</time>
      </trkpt>
      <trkpt lat="0" lon="0">
        <time>2020-12-06T08:21:54.434000+00:00</time>
      </trkpt>
      <trkpt lat="0" lon="0">
        <time>2020-12-06T08:21:54.443000+00:00</time>
      </trkpt>
      <trkpt lat="47.3129" lon="-1.32947">
        <ele>8</ele>
        <time>2020-12-06T08:21:55.421000+00:00</time>
      </trkpt>
      <trkpt lat="0" lon="0">
        <time>2020-12-06T08:21:55.439000+00:00</time>
      </trkpt>
      <trkpt lat="0" lon="0">
        <time>2020-12-06T08:21:55.444000+00:00</time>
      </trkpt>
      <trkpt lat="0" lon="0">
        <time>2020-12-06T08:21:55.446000+00:00</time>
      </trkpt>
      <trkpt lat="47.31295" lon="-1.32943">
        <ele>8</ele>
        <time>2020-12-06T08:21:56.440000+00:00</time>
      </trkpt>
      <trkpt lat="0" lon="0">
        <time>2020-12-06T08:21:56.444000+00:00</time>
      </trkpt>
      <trkpt lat="0" lon="0">
        <time>2020-12-06T08:21:56.457000+00:00</time>
      </trkpt>
      <trkpt lat="0" lon="0">
        <time>2020-12-06T08:21:56.459000+00:00</time>
      </trkpt>
      <trkpt lat="47.313" lon="-1.32939">
        <ele>9</ele>
        <time>2020-12-06T08:21:57.448000+00:00</time>
      </trkpt>
      <trkpt lat="0" lon="0">
        <time>2020-12-06T08:21:57.458000+00:00</time>
      </trkpt>
      <trkpt lat="0" lon="0">
        <time>2020-12-06T08:21:57.462000+00:00</time>
      </trkpt>
      <trkpt lat="0" lon="0">
        <time>2020-12-06T08:21:57.464000+00:00</time>
      </trkpt>
      <trkpt lat="47.31304" lon="-1.32935">
        <ele>9</ele>
        <time>2020-12-06T08:21:58.419000+00:00</time>
      </trkpt>
      <trkpt lat="0" lon="0">
        <time>2020-12-06T08:21:58.430000+00:00</time>
      </trkpt>
      <trkpt lat="0" lon="0">
        <time>2020-12-06T08:21:58.436000+00:00</time>
      </trkpt>
      <trkpt lat="0" lon="0">
        <time>2020-12-06T08:21:58.440000+00:00</time>
      </trkpt>
      <trkpt lat="47.31309" lon="-1.32931">
        <ele>9</ele>
        <time>2020-12-06T08:21:59.441000+00:00</time>
      </trkpt>
      <trkpt lat="0" lon="0">
        <time>2020-12-06T08:21:59.450000+00:00</time>
      </trkpt>
      <trkpt lat="0" lon="0">
        <time>2020-12-06T08:21:59.457000+00:00</time>
      </trkpt>
      <trkpt lat="0" lon="0">
        <time>2020-12-06T08:21:59.462000+00:00</time>
      </trkpt>
      <trkpt lat="47.31314" lon="-1.32927">
        <ele>9</ele>
        <time>2020-12-06T08:22:00.428000+00:00</time>
      </trkpt>
      <trkpt lat="0" lon="0">
        <time>2020-12-06T08:22:00.437000+00:00</time>
      </trkpt>
      <trkpt lat="0" lon="0">
        <time>2020-12-06T08:22:00.448000+00:00</time>
      </trkpt>
      <trkpt lat="0" lon="0">
        <time>2020-12-06T08:22:00.451000+00:00</time>
      </trkpt>
      <trkpt lat="47.31318" lon="-1.32923">
        <ele>9</ele>
        <time>2020-12-06T08:22:01.423000+00:00</time>
      </trkpt>
      <trkpt lat="0" lon="0">
        <time>2020-12-06T08:22:01.426000+00:00</time>
      </trkpt>
      <trkpt lat="0" lon="0">
        <time>2020-12-06T08:22:01.433000+00:00</time>
      </trkpt>
      <trkpt lat="0" lon="0">
        <time>2020-12-06T08:22:01.441000+00:00</time>
      </trkpt>
      <trkpt lat="47.31323" lon="-1.32919">
        <ele>9</ele>
        <time>2020-12-06T08:22:02.404000+00:00</time>
      </trkpt>
      <trkpt lat="0" lon="0">
        <time>2020-12-06T08:22:02.416000+00:00</time>
      </trkpt>
      <trkpt lat="0" lon="0">
        <time>2020-12-06T08:22:02.421000+00:00</time>
      </trkpt>
      <trkpt lat="0" lon="0">
        <time>2020-12-06T08:22:02.424000+00:00</time>
      </trkpt>
      <trkpt lat="47.31328" lon="-1.32915">
        <ele>9</ele>
        <time>2020-12-06T08:22:03.420000+00:00</time>
      </trkpt>
      <trkpt lat="0" lon="0">
        <time>2020-12-06T08:22:03.424000+00:00</time>
      </trkpt>
      <trkpt lat="0" lon="0">
        <time>2020-12-06T08:22:03.427000+00:00</time>
      </trkpt>
      <trkpt lat="0" lon="0">
        <time>2020-12-06T08:22:03.430000+00:00</time>
      </trkpt>
      <trkpt lat="47.31332" lon="-1.3291">
        <ele>10</ele>
        <time>2020-12-06T08:22:04.442000+00:00</time>
      </trkpt>
      <trkpt lat="0" lon="0">
        <time>2020-12-06T08:22:04.450000+00:00</time>
      </trkpt>
      <trkpt lat="0" lon="0">
        <time>2020-12-06T08:22:04.452000+00:00</time>
      </trkpt>
      <trkpt lat="0" lon="0">
        <time>2020-12-06T08:22:04.453000+00:00</time>
      </trkpt>
      <trkpt lat="47.31337" lon="-1.32906">
        <ele>10</ele>
        <time>2020-12-06T08:22:05.410000+00:00</time>
      </trkpt>
      <trkpt lat="0" lon="0">
        <time>2020-12-06T08:22:05.430000+00:00</time>
      </trkpt>
      <trkpt lat="0" lon="0">
        <time>2020-12-06T08:22:05.441000+00:00</time>
      </trkpt>
      <trkpt lat="0" lon="0">
        <time>2020-12-06T08:22:05.448000+00:00</time>
      </trkpt>
      <trkpt lat="47.31342" lon="-1.32902">
        <ele>10</ele>
        <time>2020-12-06T08:22:06.430000+00:00</time>
      </trkpt>
      <trkpt lat="0" lon="0">
        <time>2020-12-06T08:22:06.438000+00:00</time>
      </trkpt>
      <trkpt lat="0" lon="0">
        <time>2020-12-06T08:22:06.439000+00:00</time>
      </trkpt>
      <trkpt lat="0" lon="0">
        <time>2020-12-06T08:22:06.442000+00:00</time>
      </trkpt>
      <trkpt lat="47.31346" lon="-1.32897">
        <ele>10</ele>
        <time>2020-12-06T08:22:07.395000+00:00</time>
      </trkpt>
      <trkpt lat="0" lon="0">
        <time>2020-12-06T08:22:07.404000+00:00</time>
      </trkpt>
      <trkpt lat="0" lon="0">
        <time>2020-12-06T08:22:07.409000+00:00</time>
      </trkpt>
      <trkpt lat="0" lon="0">
        <time>2020-12-06T08:22:07.411000+00:00</time>
      </trkpt>
      <trkpt lat="47.31351" lon="-1.32893">
        <ele>10</ele>
        <time>2020-12-06T08:22:08.443000+00:00</time>
      </trkpt>
      <trkpt lat="0" lon="0">
        <time>2020-12-06T08:22:08.449000+00:00</time>
      </trkpt>
      <trkpt lat="0" lon="0">
        <time>2020-12-06T08:22:08.454000+00:00</time>
      </trkpt>
      <trkpt lat="0" lon="0">
        <time>2020-12-06T08:22:08.456000+00:00</time>
      </trkpt>
      <trkpt lat="47.31356" lon="-1.32889">
        <ele>10</ele>
        <time>2020-12-06T08:22:09.408000+00:00</time>
      </trkpt>
      <trkpt lat="0" lon="0">
        <time>2020-12-06T08:22:09.411000+00:00</time>
      </trkpt>
      <trkpt lat="0" lon="0">
        <time>2020-12-06T08:22:09.415000+00:00</time>
      </trkpt>
      <trkpt lat="0" lon="0">
        <time>2020-12-06T08:22:09.417000+00:00</time>
      </trkpt>
      <trkpt lat="47.31361" lon="-1.32885">
        <ele>10</ele>
        <time>2020-12-06T08:22:10.399000+00:00</time>
      </trkpt>
      <trkpt lat="0" lon="0">
        <time>2020-12-06T08:22:10.402000+00:00</time>
      </trkpt>
      <trkpt lat="0" lon="0">
        <time>2020-12-06T08:22:10.415000+00:00</time>
      </trkpt>
      <trkpt lat="0" lon="0">
        <time>2020-12-06T08:22:10.418000+00:00</time>
      </trkpt>
      <trkpt lat="47.31366" lon="-1.3288">
        <ele>10</ele>
        <time>2020-12-06T08:22:11.394000+00:00</time>
      </trkpt>
      <trkpt lat="0" lon="0">
        <time>2020-12-06T08:22:11.396000+00:00</time>
      </trkpt>
      <trkpt lat="0" lon="0">
        <time>2020-12-06T08:22:11.398000+00:00</time>
      </trkpt>
      <trkpt lat="0" lon="0">
        <time>2020-12-06T08:22:11.399000+00:00</time>
      </trkpt>
      <trkpt lat="47.3137" lon="-1.32876">
        <ele>10</ele>
        <time>2020-12-06T08:22:12.420000+00:00</time>
      </trkpt>
      <trkpt lat="0" lon="0">
        <time>2020-12-06T08:22:12.428000+00:00</time>
      </trkpt>
      <trkpt lat="0" lon="0">
        <time>2020-12-06T08:22:12.433000+00:00</time>
      </trkpt>
      <trkpt lat="0" lon="0">
        <time>2020-12-06T08:22:12.435000+00:00</time>
      </trkpt>
      <trkpt lat="47.31375" lon="-1.32872">
        <ele>10</ele>
        <time>2020-12-06T08:22:13.406000+00:00</time>
      </trkpt>
      <trkpt lat="0" lon="0">
        <time>2020-12-06T08:22:13.414000+00:00</time>
      </trkpt>
      <trkpt lat="0" lon="0">
        <time>2020-12-06T08:22:13.423000+00:00</time>
      </trkpt>
      <trkpt lat="0" lon="0">
        <time>2020-12-06T08:22:13.426000+00:00</time>
      </trkpt>
      <trkpt lat="47.3138" lon="-1.32868">
        <ele>10</ele>
        <time>2020-12-06T08:22:14.426000+00:00</time>
      </trkpt>
      <trkpt lat="0" lon="0">
        <time>2020-12-06T08:22:14.446000+00:00</time>
      </trkpt>
      <trkpt lat="0" lon="0">
        <time>2020-12-06T08:22:14.453000+00:00</time>
      </trkpt>
      <trkpt lat="0" lon="0">
        <time>2020-12-06T08:22:14.455000+00:00</time>
      </trkpt>
      <trkpt lat="47.31385" lon="-1.32864">
        <ele>10</ele>
        <time>2020-12-06T08:22:15.393000+00:00</time>
      </trkpt>
      <trkpt lat="0" lon="0">
        <time>2020-12-06T08:22:15.401000+00:00</time>
      </trkpt>
      <trkpt lat="0" lon="0">
        <time>2020-12-06T08:22:15.413000+00:00</time>
      </trkpt>
      <trkpt lat="0" lon="0">
        <time>2020-12-06T08:22:15.415000+00:00</time>
      </trkpt>
      <trkpt lat="47.3139" lon="-1.3286">
        <ele>10</ele>
        <time>2020-12-06T08:22:16.425000+00:00</time>
      </trkpt>
      <trkpt lat="0" lon="0">
        <time>2020-12-06T08:22:16.440000+00:00</time>
      </trkpt>
      <trkpt lat="0" lon="0">
        <time>2020-12-06T08:22:16.453000+00:00</time>
      </trkpt>
      <trkpt lat="0" lon="0">
        <time>2020-12-06T08:22:16.456000+00:00</time>
      </trkpt>
      <trkpt lat="47.31395" lon="-1.32855">
        <ele>10</ele>
        <time>2020-12-06T08:22:17.410000+00:00</time>
      </trkpt>
      <trkpt lat="0" lon="0">
        <time>2020-12-06T08:22:17.422000+00:00</time>
      </trkpt>
      <trkpt lat="0" lon="0">
        <time>2020-12-06T08:22:17.429000+00:00</time>
      </trkpt>
      <trkpt lat="0" lon="0">
        <time>2020-12-06T08:22:17.434000+00:00</time>
      </trkpt>
      <trkpt lat="47.314" lon="-1.32851">
        <ele>10</ele>
        <time>2020-12-06T08:22:18.434000+00:00</time>
      </trkpt>
      <trkpt lat="0" lon="0">
        <time>2020-12-06T08:22:18.445000+00:00</time>
      </trkpt>
      <trkpt lat="0" lon="0">
        <time>2020-12-06T08:22:18.450000+00:00</time>
      </trkpt>
      <trkpt lat="0" lon="0">
        <time>2020-12-06T08:22:18.454000+00:00</time>
      </trkpt>
      <trkpt lat="47.31405" lon="-1.32847">
        <ele>10</ele>
        <time>2020-12-06T08:22:19.441000+00:00</time>
      </trkpt>
      <trkpt lat="0" lon="0">
        <time>2020-12-06T08:22:19.445000+00:00</time>
      </trkpt>
      <trkpt lat="0" lon="0">
        <time>2020-12-06T08:22:19.450000+00:00</time>
      </trkpt>
      <trkpt lat="0" lon="0">
        <time>2020-12-06T08:22:19.453000+00:00</time>
      </trkpt>
      <trkpt lat="47.3141" lon="-1.32843">
        <ele>10</ele>
        <time>2020-12-06T08:22:20.419000+00:00</time>
      </trkpt>
      <trkpt lat="0" lon="0">
        <time>2020-12-06T08:22:20.433000+00:00</time>
      </trkpt>
      <trkpt lat="0" lon="0">
        <time>2020-12-06T08:22:20.437000+00:00</time>
      </trkpt>
      <trkpt lat="0" lon="0">
        <time>2020-12-06T08:22:20.445000+00:00</time>
      </trkpt>
      <trkpt lat="47.31415" lon="-1.32838">
        <ele>10</ele>
        <time>2020-12-06T08:22:21.406000+00:00</time>
      </trkpt>
      <trkpt lat="0" lon="0">
        <time>2020-12-06T08:22:21.409000+00:00</time>
      </trkpt>
      <trkpt lat="0" lon="0">
        <time>2020-12-06T08:22:21.419000+00:00</time>
      </trkpt>
      <trkpt lat="0" lon="0">
        <time>2020-12-06T08:22:21.424000+00:00</time>
      </trkpt>
      <trkpt lat="47.31421" lon="-1.32834">
        <ele>10</ele>
        <time>2020-12-06T08:22:22.387000+00:00</time>
      </trkpt>
      <trkpt lat="0" lon="0">
        <time>2020-12-06T08:22:22.392000+00:00</time>
      </trkpt>
      <trkpt lat="0" lon="0">
        <time>2020-12-06T08:22:22.400000+00:00</time>
      </trkpt>
      <trkpt lat="0" lon="0">
        <time>2020-12-06T08:22:22.402000+00:00</time>
      </trkpt>
      <trkpt lat="47.31426" lon="-1.3283">
        <ele>10</ele>
        <time>2020-12-06T08:22:23.432000+00:00</time>
      </trkpt>
      <trkpt lat="0" lon="0">
        <time>2020-12-06T08:22:23.445000+00:00</time>
      </trkpt>
      <trkpt lat="0" lon="0">
        <time>2020-12-06T08:22:23.456000+00:00</time>
      </trkpt>
      <trkpt lat="0" lon="0">
        <time>2020-12-06T08:22:23.457000+00:00</time>
      </trkpt>
      <trkpt lat="47.31431" lon="-1.32825">
        <ele>11</ele>
        <time>2020-12-06T08:22:24.416000+00:00</time>
      </trkpt>
      <trkpt lat="0" lon="0">
        <time>2020-12-06T08:22:24.420000+00:00</time>
      </trkpt>
      <trkpt lat="0" lon="0">
        <time>2020-12-06T08:22:24.426000+00:00</time>
      </trkpt>
      <trkpt lat="0" lon="0">
        <time>2020-12-06T08:22:24.433000+00:00</time>
      </trkpt>
      <trkpt lat="47.31437" lon="-1.32821">
        <ele>11</ele>
        <time>2020-12-06T08:22:25.422000+00:00</time>
      </trkpt>
      <trkpt lat="0" lon="0">
        <time>2020-12-06T08:22:25.426000+00:00</time>
      </trkpt>
      <trkpt lat="0" lon="0">
        <time>2020-12-06T08:22:25.435000+00:00</time>
      </trkpt>
      <trkpt lat="0" lon="0">
        <time>2020-12-06T08:22:25.437000+00:00</time>
      </trkpt>
      <trkpt lat="47.31442" lon="-1.32816">
        <ele>11</ele>
        <time>2020-12-06T08:22:26.391000+00:00</time>
      </trkpt>
      <trkpt lat="0" lon="0">
        <time>2020-12-06T08:22:26.399000+00:00</time>
      </trkpt>
      <trkpt lat="0" lon="0">
        <time>2020-12-06T08:22:26.405000+00:00</time>
      </trkpt>
      <trkpt lat="0" lon="0">
        <time>2020-12-06T08:22:26.410000+00:00</time>
      </trkpt>
      <trkpt lat="47.31447" lon="-1.32812">
        <ele>11</ele>
        <time>2020-12-06T08:22:27.435000+00:00</time>
      </trkpt>
      <trkpt lat="0" lon="0">
        <time>2020-12-06T08:22:27.439000+00:00</time>
      </trkpt>
      <trkpt lat="0" lon="0">
        <time>2020-12-06T08:22:27.448000+00:00</time>
      </trkpt>
      <trkpt lat="0" lon="0">
        <time>2020-12-06T08:22:27.452000+00:00</time>
      </trkpt>
      <trkpt lat="47.31453" lon="-1.32807">
        <ele>11</ele>
        <time>2020-12-06T08:22:28.445000+00:00</time>
      </trkpt>
      <trkpt lat="0" lon="0">
        <time>2020-12-06T08:22:28.455000+00:00</time>
      </trkpt>
      <trkpt lat="0" lon="0">
        <time>2020-12-06T08:22:28.459000+00:00</time>
      </trkpt>
      <trkpt lat="0" lon="0">
        <time>2020-12-06T08:22:28.462000+00:00</time>
      </trkpt>
      <trkpt lat="47.31458" lon="-1.32803">
        <ele>11</ele>
        <time>2020-12-06T08:22:29.426000+00:00</time>
      </trkpt>
      <trkpt lat="0" lon="0">
        <time>2020-12-06T08:22:29.436000+00:00</time>
      </trkpt>
      <trkpt lat="0" lon="0">
        <time>2020-12-06T08:22:29.442000+00:00</time>
      </trkpt>
      <trkpt lat="0" lon="0">
        <time>2020-12-06T08:22:29.445000+00:00</time>
      </trkpt>
      <trkpt lat="47.31464" lon="-1.32798">
        <ele>11</ele>
        <time>2020-12-06T08:22:30.377000+00:00</time>
      </trkpt>
      <trkpt lat="0" lon="0">
        <time>2020-12-06T08:22:30.381000+00:00</time>
      </trkpt>
      <trkpt lat="0" lon="0">
        <time>2020-12-06T08:22:30.390000+00:00</time>
      </trkpt>
      <trkpt lat="0" lon="0">
        <time>2020-12-06T08:22:30.393000+00:00</time>
      </trkpt>
      <trkpt lat="47.3147" lon="-1.32794">
        <ele>11</ele>
        <time>2020-12-06T08:22:31.439000+00:00</time>
      </trkpt>
      <trkpt lat="0" lon="0">
        <time>2020-12-06T08:22:31.450000+00:00</time>
      </trkpt>
      <trkpt lat="0" lon="0">
        <time>2020-12-06T08:22:31.455000+00:00</time>
      </trkpt>
      <trkpt lat="0" lon="0">
        <time>2020-12-06T08:22:31.457000+00:00</time>
      </trkpt>
      <trkpt lat="47.31475" lon="-1.32789">
        <ele>12</ele>
        <time>2020-12-06T08:22:32.429000+00:00</time>
      </trkpt>
      <trkpt lat="0" lon="0">
        <time>2020-12-06T08:22:32.432000+00:00</time>
      </trkpt>
      <trkpt lat="0" lon="0">
        <time>2020-12-06T08:22:32.440000+00:00</time>
      </trkpt>
      <trkpt lat="0" lon="0">
        <time>2020-12-06T08:22:32.441000+00:00</time>
      </trkpt>
      <trkpt lat="47.3148" lon="-1.32785">
        <ele>12</ele>
        <time>2020-12-06T08:22:33.426000+00:00</time>
      </trkpt>
      <trkpt lat="0" lon="0">
        <time>2020-12-06T08:22:33.437000+00:00</time>
      </trkpt>
      <trkpt lat="0" lon="0">
        <time>2020-12-06T08:22:33.441000+00:00</time>
      </trkpt>
      <trkpt lat="0" lon="0">
        <time>2020-12-06T08:22:33.443000+00:00</time>
      </trkpt>
      <trkpt lat="47.31485" lon="-1.32781">
        <ele>12</ele>
        <time>2020-12-06T08:22:34.411000+00:00</time>
      </trkpt>
      <trkpt lat="0" lon="0">
        <time>2020-12-06T08:22:34.414000+00:00</time>
      </trkpt>
      <trkpt lat="0" lon="0">
        <time>2020-12-06T08:22:34.428000+00:00</time>
      </trkpt>
      <trkpt lat="0" lon="0">
        <time>2020-12-06T08:22:34.430000+00:00</time>
      </trkpt>
      <trkpt lat="47.31491" lon="-1.32776">
        <ele>12</ele>
        <time>2020-12-06T08:22:35.417000+00:00</time>
      </trkpt>
      <trkpt lat="0" lon="0">
        <time>2020-12-06T08:22:35.436000+00:00</time>
      </trkpt>
      <trkpt lat="0" lon="0">
        <time>2020-12-06T08:22:35.440000+00:00</time>
      </trkpt>
      <trkpt lat="0" lon="0">
        <time>2020-12-06T08:22:35.444000+00:00</time>
      </trkpt>
      <trkpt lat="47.31495" lon="-1.32772">
        <ele>12</ele>
        <time>2020-12-06T08:22:36.470000+00:00</time>
      </trkpt>
      <trkpt lat="0" lon="0">
        <time>2020-12-06T08:22:36.484000+00:00</time>
      </trkpt>
      <trkpt lat="0" lon="0">
        <time>2020-12-06T08:22:36.488000+00:00</time>
      </trkpt>
      <trkpt lat="0" lon="0">
        <time>2020-12-06T08:22:36.491000+00:00</time>
      </trkpt>
      <trkpt lat="47.315" lon="-1.32767">
        <ele>12</ele>
        <time>2020-12-06T08:22:37.418000+00:00</time>
      </trkpt>
      <trkpt lat="0" lon="0">
        <time>2020-12-06T08:22:37.429000+00:00</time>
      </trkpt>
      <trkpt lat="0" lon="0">
        <time>2020-12-06T08:22:37.433000+00:00</time>
      </trkpt>
      <trkpt lat="0" lon="0">
        <time>2020-12-06T08:22:37.440000+00:00</time>
      </trkpt>
      <trkpt lat="47.31505" lon="-1.32762">
        <ele>13</ele>
        <time>2020-12-06T08:22:38.426000+00:00</time>
      </trkpt>
      <trkpt lat="0" lon="0">
        <time>2020-12-06T08:22:38.431000+00:00</time>
      </trkpt>
      <trkpt lat="0" lon="0">
        <time>2020-12-06T08:22:38.439000+00:00</time>
      </trkpt>
      <trkpt lat="0" lon="0">
        <time>2020-12-06T08:22:38.440000+00:00</time>
      </trkpt>
      <trkpt lat="47.3151" lon="-1.32757">
        <ele>13</ele>
        <time>2020-12-06T08:22:39.421000+00:00</time>
      </trkpt>
      <trkpt lat="0" lon="0">
        <time>2020-12-06T08:22:39.428000+00:00</time>
      </trkpt>
      <trkpt lat="0" lon="0">
        <time>2020-12-06T08:22:39.433000+00:00</time>
      </trkpt>
      <trkpt lat="0" lon="0">
        <time>2020-12-06T08:22:39.439000+00:00</time>
      </trkpt>
      <trkpt lat="47.31515" lon="-1.32752">
        <ele>13</ele>
        <time>2020-12-06T08:22:40.427000+00:00</time>
      </trkpt>
      <trkpt lat="0" lon="0">
        <time>2020-12-06T08:22:40.436000+00:00</time>
      </trkpt>
      <trkpt lat="0" lon="0">
        <time>2020-12-06T08:22:40.449000+00:00</time>
      </trkpt>
      <trkpt lat="0" lon="0">
        <time>2020-12-06T08:22:40.452000+00:00</time>
      </trkpt>
      <trkpt lat="47.31519" lon="-1.32747">
        <ele>13</ele>
        <time>2020-12-06T08:22:41.429000+00:00</time>
      </trkpt>
      <trkpt lat="0" lon="0">
        <time>2020-12-06T08:22:41.442000+00:00</time>
      </trkpt>
      <trkpt lat="0" lon="0">
        <time>2020-12-06T08:22:41.452000+00:00</time>
      </trkpt>
      <trkpt lat="0" lon="0">
        <time>2020-12-06T08:22:41.454000+00:00</time>
      </trkpt>
      <trkpt lat="47.31524" lon="-1.32741">
        <ele>14</ele>
        <time>2020-12-06T08:22:42.419000+00:00</time>
      </trkpt>
      <trkpt lat="0" lon="0">
        <time>2020-12-06T08:22:42.444000+00:00</time>
      </trkpt>
      <trkpt lat="0" lon="0">
        <time>2020-12-06T08:22:42.450000+00:00</time>
      </trkpt>
      <trkpt lat="0" lon="0">
        <time>2020-12-06T08:22:42.459000+00:00</time>
      </trkpt>
      <trkpt lat="47.31528" lon="-1.32736">
        <ele>15</ele>
        <time>2020-12-06T08:22:43.445000+00:00</time>
      </trkpt>
      <trkpt lat="0" lon="0">
        <time>2020-12-06T08:22:43.459000+00:00</time>
      </trkpt>
      <trkpt lat="0" lon="0">
        <time>2020-12-06T08:22:43.469000+00:00</time>
      </trkpt>
      <trkpt lat="0" lon="0">
        <time>2020-12-06T08:22:43.471000+00:00</time>
      </trkpt>
      <trkpt lat="47.31532" lon="-1.3273">
        <ele>15</ele>
        <time>2020-12-06T08:22:44.443000+00:00</time>
      </trkpt>
      <trkpt lat="0" lon="0">
        <time>2020-12-06T08:22:44.446000+00:00</time>
      </trkpt>
      <trkpt lat="0" lon="0">
        <time>2020-12-06T08:22:44.455000+00:00</time>
      </trkpt>
      <trkpt lat="0" lon="0">
        <time>2020-12-06T08:22:44.456000+00:00</time>
      </trkpt>
      <trkpt lat="47.31537" lon="-1.32724">
        <ele>16</ele>
        <time>2020-12-06T08:22:45.448000+00:00</time>
      </trkpt>
      <trkpt lat="0" lon="0">
        <time>2020-12-06T08:22:45.457000+00:00</time>
      </trkpt>
      <trkpt lat="0" lon="0">
        <time>2020-12-06T08:22:45.461000+00:00</time>
      </trkpt>
      <trkpt lat="0" lon="0">
        <time>2020-12-06T08:22:45.465000+00:00</time>
      </trkpt>
      <trkpt lat="47.31542" lon="-1.32718">
        <ele>17</ele>
        <time>2020-12-06T08:22:46.433000+00:00</time>
      </trkpt>
      <trkpt lat="0" lon="0">
        <time>2020-12-06T08:22:46.438000+00:00</time>
      </trkpt>
      <trkpt lat="0" lon="0">
        <time>2020-12-06T08:22:46.443000+00:00</time>
      </trkpt>
      <trkpt lat="0" lon="0">
        <time>2020-12-06T08:22:46.445000+00:00</time>
      </trkpt>
      <trkpt lat="47.31546" lon="-1.32713">
        <ele>17</ele>
        <time>2020-12-06T08:22:47.425000+00:00</time>
      </trkpt>
      <trkpt lat="0" lon="0">
        <time>2020-12-06T08:22:47.430000+00:00</time>
      </trkpt>
      <trkpt lat="0" lon="0">
        <time>2020-12-06T08:22:47.435000+00:00</time>
      </trkpt>
      <trkpt lat="0" lon="0">
        <time>2020-12-06T08:22:47.437000+00:00</time>
      </trkpt>
      <trkpt lat="47.31551" lon="-1.32707">
        <ele>18</ele>
        <time>2020-12-06T08:22:48.447000+00:00</time>
      </trkpt>
      <trkpt lat="0" lon="0">
        <time>2020-12-06T08:22:48.456000+00:00</time>
      </trkpt>
      <trkpt lat="0" lon="0">
        <time>2020-12-06T08:22:48.470000+00:00</time>
      </trkpt>
      <trkpt lat="0" lon="0">
        <time>2020-12-06T08:22:48.472000+00:00</time>
      </trkpt>
      <trkpt lat="47.31555" lon="-1.32701">
        <ele>19</ele>
        <time>2020-12-06T08:22:49.461000+00:00</time>
      </trkpt>
      <trkpt lat="0" lon="0">
        <time>2020-12-06T08:22:49.474000+00:00</time>
      </trkpt>
      <trkpt lat="0" lon="0">
        <time>2020-12-06T08:22:49.479000+00:00</time>
      </trkpt>
      <trkpt lat="0" lon="0">
        <time>2020-12-06T08:22:49.482000+00:00</time>
      </trkpt>
      <trkpt lat="47.3156" lon="-1.32695">
        <ele>19</ele>
        <time>2020-12-06T08:22:50.433000+00:00</time>
      </trkpt>
      <trkpt lat="0" lon="0">
        <time>2020-12-06T08:22:50.440000+00:00</time>
      </trkpt>
      <trkpt lat="0" lon="0">
        <time>2020-12-06T08:22:50.442000+00:00</time>
      </trkpt>
      <trkpt lat="0" lon="0">
        <time>2020-12-06T08:22:50.443000+00:00</time>
      </trkpt>
      <trkpt lat="47.31564" lon="-1.32689">
        <ele>20</ele>
        <time>2020-12-06T08:22:51.435000+00:00</time>
      </trkpt>
      <trkpt lat="0" lon="0">
        <time>2020-12-06T08:22:51.452000+00:00</time>
      </trkpt>
      <trkpt lat="0" lon="0">
        <time>2020-12-06T08:22:51.456000+00:00</time>
      </trkpt>
      <trkpt lat="0" lon="0">
        <time>2020-12-06T08:22:51.461000+00:00</time>
      </trkpt>
      <trkpt lat="47.31569" lon="-1.32683">
        <ele>20</ele>
        <time>2020-12-06T08:22:52.425000+00:00</time>
      </trkpt>
      <trkpt lat="0" lon="0">
        <time>2020-12-06T08:22:52.433000+00:00</time>
      </trkpt>
      <trkpt lat="0" lon="0">
        <time>2020-12-06T08:22:52.444000+00:00</time>
      </trkpt>
      <trkpt lat="0" lon="0">
        <time>2020-12-06T08:22:52.449000+00:00</time>
      </trkpt>
      <trkpt lat="47.31573" lon="-1.32677">
        <ele>21</ele>
        <time>2020-12-06T08:22:53.418000+00:00</time>
      </trkpt>
      <trkpt lat="0" lon="0">
        <time>2020-12-06T08:22:53.421000+00:00</time>
      </trkpt>
      <trkpt lat="0" lon="0">
        <time>2020-12-06T08:22:53.425000+00:00</time>
      </trkpt>
      <trkpt lat="0" lon="0">
        <time>2020-12-06T08:22:53.428000+00:00</time>
      </trkpt>
      <trkpt lat="47.31578" lon="-1.32671">
        <ele>21</ele>
        <time>2020-12-06T08:22:54.435000+00:00</time>
      </trkpt>
      <trkpt lat="0" lon="0">
        <time>2020-12-06T08:22:54.443000+00:00</time>
      </trkpt>
      <trkpt lat="0" lon="0">
        <time>2020-12-06T08:22:54.448000+00:00</time>
      </trkpt>
      <trkpt lat="0" lon="0">
        <time>2020-12-06T08:22:54.450000+00:00</time>
      </trkpt>
      <trkpt lat="47.31582" lon="-1.32665">
        <ele>22</ele>
        <time>2020-12-06T08:22:55.415000+00:00</time>
      </trkpt>
      <trkpt lat="0" lon="0">
        <time>2020-12-06T08:22:55.425000+00:00</time>
      </trkpt>
      <trkpt lat="0" lon="0">
        <time>2020-12-06T08:22:55.429000+00:00</time>
      </trkpt>
      <trkpt lat="0" lon="0">
        <time>2020-12-06T08:22:55.434000+00:00</time>
      </trkpt>
      <trkpt lat="47.31587" lon="-1.32659">
        <ele>23</ele>
        <time>2020-12-06T08:22:56.411000+00:00</time>
      </trkpt>
      <trkpt lat="0" lon="0">
        <time>2020-12-06T08:22:56.415000+00:00</time>
      </trkpt>
      <trkpt lat="0" lon="0">
        <time>2020-12-06T08:22:56.421000+00:00</time>
      </trkpt>
      <trkpt lat="0" lon="0">
        <time>2020-12-06T08:22:56.424000+00:00</time>
      </trkpt>
      <trkpt lat="47.31592" lon="-1.32653">
        <ele>23</ele>
        <time>2020-12-06T08:22:57.412000+00:00</time>
      </trkpt>
      <trkpt lat="0" lon="0">
        <time>2020-12-06T08:22:57.419000+00:00</time>
      </trkpt>
      <trkpt lat="0" lon="0">
        <time>2020-12-06T08:22:57.427000+00:00</time>
      </trkpt>
      <trkpt lat="0" lon="0">
        <time>2020-12-06T08:22:57.430000+00:00</time>
      </trkpt>
      <trkpt lat="47.31597" lon="-1.32646">
        <ele>24</ele>
        <time>2020-12-06T08:22:58.446000+00:00</time>
      </trkpt>
      <trkpt lat="0" lon="0">
        <time>2020-12-06T08:22:58.456000+00:00</time>
      </trkpt>
      <trkpt lat="0" lon="0">
        <time>2020-12-06T08:22:58.460000+00:00</time>
      </trkpt>
      <trkpt lat="0" lon="0">
        <time>2020-12-06T08:22:58.462000+00:00</time>
      </trkpt>
      <trkpt lat="47.31602" lon="-1.32639">
        <ele>24</ele>
        <time>2020-12-06T08:22:59.472000+00:00</time>
      </trkpt>
      <trkpt lat="0" lon="0">
        <time>2020-12-06T08:22:59.501000+00:00</time>
      </trkpt>
      <trkpt lat="0" lon="0">
        <time>2020-12-06T08:22:59.512000+00:00</time>
      </trkpt>
      <trkpt lat="0" lon="0">
        <time>2020-12-06T08:22:59.520000+00:00</time>
      </trkpt>
      <trkpt lat="47.31607" lon="-1.32632">
        <ele>25</ele>
        <time>2020-12-06T08:23:00.442000+00:00</time>
      </trkpt>
      <trkpt lat="0" lon="0">
        <time>2020-12-06T08:23:00.455000+00:00</time>
      </trkpt>
      <trkpt lat="0" lon="0">
        <time>2020-12-06T08:23:00.462000+00:00</time>
      </trkpt>
      <trkpt lat="0" lon="0">
        <time>2020-12-06T08:23:00.464000+00:00</time>
      </trkpt>
      <trkpt lat="47.31611" lon="-1.32626">
        <ele>25</ele>
        <time>2020-12-06T08:23:01.401000+00:00</time>
      </trkpt>
      <trkpt lat="0" lon="0">
        <time>2020-12-06T08:23:01.403000+00:00</time>
      </trkpt>
      <trkpt lat="0" lon="0">
        <time>2020-12-06T08:23:01.404000+00:00</time>
      </trkpt>
      <trkpt lat="0" lon="0">
        <time>2020-12-06T08:23:01.405000+00:00</time>
      </trkpt>
      <trkpt lat="47.31616" lon="-1.32619">
        <ele>26</ele>
        <time>2020-12-06T08:23:02.444000+00:00</time>
      </trkpt>
      <trkpt lat="0" lon="0">
        <time>2020-12-06T08:23:02.459000+00:00</time>
      </trkpt>
      <trkpt lat="0" lon="0">
        <time>2020-12-06T08:23:02.462000+00:00</time>
      </trkpt>
      <trkpt lat="0" lon="0">
        <time>2020-12-06T08:23:02.463000+00:00</time>
      </trkpt>
      <trkpt lat="47.31621" lon="-1.32612">
        <ele>26</ele>
        <time>2020-12-06T08:23:03.435000+00:00</time>
      </trkpt>
      <trkpt lat="0" lon="0">
        <time>2020-12-06T08:23:03.449000+00:00</time>
      </trkpt>
      <trkpt lat="0" lon="0">
        <time>2020-12-06T08:23:03.458000+00:00</time>
      </trkpt>
      <trkpt lat="0" lon="0">
        <time>2020-12-06T08:23:03.460000+00:00</time>
      </trkpt>
      <trkpt lat="47.31626" lon="-1.32605">
        <ele>26</ele>
        <time>2020-12-06T08:23:04.427000+00:00</time>
      </trkpt>
      <trkpt lat="0" lon="0">
        <time>2020-12-06T08:23:04.434000+00:00</time>
      </trkpt>
      <trkpt lat="0" lon="0">
        <time>2020-12-06T08:23:04.448000+00:00</time>
      </trkpt>
      <trkpt lat="0" lon="0">
        <time>2020-12-06T08:23:04.450000+00:00</time>
      </trkpt>
      <trkpt lat="47.3163" lon="-1.32598">
        <ele>26</ele>
        <time>2020-12-06T08:23:05.437000+00:00</time>
      </trkpt>
      <trkpt lat="0" lon="0">
        <time>2020-12-06T08:23:05.442000+00:00</time>
      </trkpt>
      <trkpt lat="0" lon="0">
        <time>2020-12-06T08:23:05.448000+00:00</time>
      </trkpt>
      <trkpt lat="0" lon="0">
        <time>2020-12-06T08:23:05.450000+00:00</time>
      </trkpt>
      <trkpt lat="47.31634" lon="-1.32591">
        <ele>26</ele>
        <time>2020-12-06T08:23:06.417000+00:00</time>
      </trkpt>
      <trkpt lat="0" lon="0">
        <time>2020-12-06T08:23:06.425000+00:00</time>
      </trkpt>
      <trkpt lat="0" lon="0">
        <time>2020-12-06T08:23:06.430000+00:00</time>
      </trkpt>
      <trkpt lat="0" lon="0">
        <time>2020-12-06T08:23:06.435000+00:00</time>
      </trkpt>
      <trkpt lat="47.31639" lon="-1.32583">
        <ele>27</ele>
        <time>2020-12-06T08:23:07.432000+00:00</time>
      </trkpt>
      <trkpt lat="0" lon="0">
        <time>2020-12-06T08:23:07.442000+00:00</time>
      </trkpt>
      <trkpt lat="0" lon="0">
        <time>2020-12-06T08:23:07.446000+00:00</time>
      </trkpt>
      <trkpt lat="0" lon="0">
        <time>2020-12-06T08:23:07.450000+00:00</time>
      </trkpt>
      <trkpt lat="47.31643" lon="-1.32576">
        <ele>27</ele>
        <time>2020-12-06T08:23:08.406000+00:00</time>
      </trkpt>
      <trkpt lat="0" lon="0">
        <time>2020-12-06T08:23:08.411000+00:00</time>
      </trkpt>
      <trkpt lat="0" lon="0">
        <time>2020-12-06T08:23:08.414000+00:00</time>
      </trkpt>
      <trkpt lat="0" lon="0">
        <time>2020-12-06T08:23:08.415000+00:00</time>
      </trkpt>
      <trkpt lat="47.31647" lon="-1.32569">
        <ele>27</ele>
        <time>2020-12-06T08:23:09.473000+00:00</time>
      </trkpt>
      <trkpt lat="0" lon="0">
        <time>2020-12-06T08:23:09.477000+00:00</time>
      </trkpt>
      <trkpt lat="0" lon="0">
        <time>2020-12-06T08:23:09.482000+00:00</time>
      </trkpt>
      <trkpt lat="0" lon="0">
        <time>2020-12-06T08:23:09.485000+00:00</time>
      </trkpt>
      <trkpt lat="47.31651" lon="-1.32561">
        <ele>27</ele>
        <time>2020-12-06T08:23:10.417000+00:00</time>
      </trkpt>
      <trkpt lat="0" lon="0">
        <time>2020-12-06T08:23:10.428000+00:00</time>
      </trkpt>
      <trkpt lat="0" lon="0">
        <time>2020-12-06T08:23:10.442000+00:00</time>
      </trkpt>
      <trkpt lat="0" lon="0">
        <time>2020-12-06T08:23:10.445000+00:00</time>
      </trkpt>
      <trkpt lat="47.31655" lon="-1.32554">
        <ele>27</ele>
        <time>2020-12-06T08:23:11.430000+00:00</time>
      </trkpt>
      <trkpt lat="0" lon="0">
        <time>2020-12-06T08:23:11.436000+00:00</time>
      </trkpt>
      <trkpt lat="0" lon="0">
        <time>2020-12-06T08:23:11.440000+00:00</time>
      </trkpt>
      <trkpt lat="0" lon="0">
        <time>2020-12-06T08:23:11.442000+00:00</time>
      </trkpt>
      <trkpt lat="47.31658" lon="-1.32547">
        <ele>27</ele>
        <time>2020-12-06T08:23:12.412000+00:00</time>
      </trkpt>
      <trkpt lat="0" lon="0">
        <time>2020-12-06T08:23:12.430000+00:00</time>
      </trkpt>
      <trkpt lat="0" lon="0">
        <time>2020-12-06T08:23:12.433000+00:00</time>
      </trkpt>
      <trkpt lat="0" lon="0">
        <time>2020-12-06T08:23:12.435000+00:00</time>
      </trkpt>
      <trkpt lat="47.31662" lon="-1.32539">
        <ele>28</ele>
        <time>2020-12-06T08:23:13.405000+00:00</time>
      </trkpt>
      <trkpt lat="0" lon="0">
        <time>2020-12-06T08:23:13.408000+00:00</time>
      </trkpt>
      <trkpt lat="0" lon="0">
        <time>2020-12-06T08:23:13.415000+00:00</time>
      </trkpt>
      <trkpt lat="0" lon="0">
        <time>2020-12-06T08:23:13.417000+00:00</time>
      </trkpt>
      <trkpt lat="47.31666" lon="-1.32532">
        <ele>28</ele>
        <time>2020-12-06T08:23:14.444000+00:00</time>
      </trkpt>
      <trkpt lat="0" lon="0">
        <time>2020-12-06T08:23:14.449000+00:00</time>
      </trkpt>
      <trkpt lat="0" lon="0">
        <time>2020-12-06T08:23:14.454000+00:00</time>
      </trkpt>
      <trkpt lat="0" lon="0">
        <time>2020-12-06T08:23:14.456000+00:00</time>
      </trkpt>
      <trkpt lat="47.31669" lon="-1.32524">
        <ele>28</ele>
        <time>2020-12-06T08:23:15.419000+00:00</time>
      </trkpt>
      <trkpt lat="0" lon="0">
        <time>2020-12-06T08:23:15.424000+00:00</time>
      </trkpt>
      <trkpt lat="0" lon="0">
        <time>2020-12-06T08:23:15.429000+00:00</time>
      </trkpt>
      <trkpt lat="0" lon="0">
        <time>2020-12-06T08:23:15.438000+00:00</time>
      </trkpt>
      <trkpt lat="47.31672" lon="-1.32516">
        <ele>29</ele>
        <time>2020-12-06T08:23:16.471000+00:00</time>
      </trkpt>
      <trkpt lat="0" lon="0">
        <time>2020-12-06T08:23:16.474000+00:00</time>
      </trkpt>
      <trkpt lat="0" lon="0">
        <time>2020-12-06T08:23:16.480000+00:00</time>
      </trkpt>
      <trkpt lat="0" lon="0">
        <time>2020-12-06T08:23:16.482000+00:00</time>
      </trkpt>
      <trkpt lat="47.31675" lon="-1.32509">
        <ele>29</ele>
        <time>2020-12-06T08:23:17.460000+00:00</time>
      </trkpt>
      <trkpt lat="0" lon="0">
        <time>2020-12-06T08:23:17.462000+00:00</time>
      </trkpt>
      <trkpt lat="0" lon="0">
        <time>2020-12-06T08:23:17.463000+00:00</time>
      </trkpt>
      <trkpt lat="0" lon="0">
        <time>2020-12-06T08:23:17.464000+00:00</time>
      </trkpt>
      <trkpt lat="47.31678" lon="-1.32502">
        <ele>29</ele>
        <time>2020-12-06T08:23:18.388000+00:00</time>
      </trkpt>
      <trkpt lat="0" lon="0">
        <time>2020-12-06T08:23:18.394000+00:00</time>
      </trkpt>
      <trkpt lat="0" lon="0">
        <time>2020-12-06T08:23:18.397000+00:00</time>
      </trkpt>
      <trkpt lat="0" lon="0">
        <time>2020-12-06T08:23:18.398000+00:00</time>
      </trkpt>
      <trkpt lat="47.31681" lon="-1.32495">
        <ele>29</ele>
        <time>2020-12-06T08:23:19.449000+00:00</time>
      </trkpt>
      <trkpt lat="0" lon="0">
        <time>2020-12-06T08:23:19.459000+00:00</time>
      </trkpt>
      <trkpt lat="0" lon="0">
        <time>2020-12-06T08:23:19.469000+00:00</time>
      </trkpt>
      <trkpt lat="0" lon="0">
        <time>2020-12-06T08:23:19.470000+00:00</time>
      </trkpt>
      <trkpt lat="47.31683" lon="-1.32488">
        <ele>30</ele>
        <time>2020-12-06T08:23:20.420000+00:00</time>
      </trkpt>
      <trkpt lat="0" lon="0">
        <time>2020-12-06T08:23:20.425000+00:00</time>
      </trkpt>
      <trkpt lat="0" lon="0">
        <time>2020-12-06T08:23:20.429000+00:00</time>
      </trkpt>
      <trkpt lat="0" lon="0">
        <time>2020-12-06T08:23:20.431000+00:00</time>
      </trkpt>
      <trkpt lat="47.31685" lon="-1.32482">
        <ele>30</ele>
        <time>2020-12-06T08:23:21.469000+00:00</time>
      </trkpt>
      <trkpt lat="0" lon="0">
        <time>2020-12-06T08:23:21.473000+00:00</time>
      </trkpt>
      <trkpt lat="0" lon="0">
        <time>2020-12-06T08:23:21.477000+00:00</time>
      </trkpt>
      <trkpt lat="0" lon="0">
        <time>2020-12-06T08:23:21.481000+00:00</time>
      </trkpt>
      <trkpt lat="47.31686" lon="-1.32477">
        <ele>30</ele>
        <time>2020-12-06T08:23:22.428000+00:00</time>
      </trkpt>
      <trkpt lat="0" lon="0">
        <time>2020-12-06T08:23:22.434000+00:00</time>
      </trkpt>
      <trkpt lat="0" lon="0">
        <time>2020-12-06T08:23:22.438000+00:00</time>
      </trkpt>
      <trkpt lat="0" lon="0">
        <time>2020-12-06T08:23:22.440000+00:00</time>
      </trkpt>
      <trkpt lat="47.31687" lon="-1.32472">
        <ele>31</ele>
        <time>2020-12-06T08:23:23.463000+00:00</time>
      </trkpt>
      <trkpt lat="0" lon="0">
        <time>2020-12-06T08:23:23.478000+00:00</time>
      </trkpt>
      <trkpt lat="0" lon="0">
        <time>2020-12-06T08:23:23.496000+00:00</time>
      </trkpt>
      <trkpt lat="0" lon="0">
        <time>2020-12-06T08:23:23.499000+00:00</time>
      </trkpt>
      <trkpt lat="47.31689" lon="-1.32469">
        <ele>31</ele>
        <time>2020-12-06T08:23:24.397000+00:00</time>
      </trkpt>
      <trkpt lat="0" lon="0">
        <time>2020-12-06T08:23:24.398000+00:00</time>
      </trkpt>
      <trkpt lat="0" lon="0">
        <time>2020-12-06T08:23:24.400000+00:00</time>
      </trkpt>
      <trkpt lat="47.3169" lon="-1.32466">
        <ele>31</ele>
        <time>2020-12-06T08:23:25.424000+00:00</time>
      </trkpt>
      <trkpt lat="0" lon="0">
        <time>2020-12-06T08:23:25.434000+00:00</time>
      </trkpt>
      <trkpt lat="0" lon="0">
        <time>2020-12-06T08:23:25.439000+00:00</time>
      </trkpt>
      <trkpt lat="0" lon="0">
        <time>2020-12-06T08:23:25.442000+00:00</time>
      </trkpt>
      <trkpt lat="47.31692" lon="-1.32464">
        <ele>30</ele>
        <time>2020-12-06T08:23:26.410000+00:00</time>
      </trkpt>
      <trkpt lat="0" lon="0">
        <time>2020-12-06T08:23:26.415000+00:00</time>
      </trkpt>
      <trkpt lat="0" lon="0">
        <time>2020-12-06T08:23:26.418000+00:00</time>
      </trkpt>
      <trkpt lat="0" lon="0">
        <time>2020-12-06T08:23:26.426000+00:00</time>
      </trkpt>
      <trkpt lat="47.31694" lon="-1.32464">
        <ele>30</ele>
        <time>2020-12-06T08:23:27.431000+00:00</time>
      </trkpt>
      <trkpt lat="0" lon="0">
        <time>2020-12-06T08:23:27.454000+00:00</time>
      </trkpt>
      <trkpt lat="0" lon="0">
        <time>2020-12-06T08:23:27.458000+00:00</time>
      </trkpt>
      <trkpt lat="0" lon="0">
        <time>2020-12-06T08:23:27.463000+00:00</time>
      </trkpt>
      <trkpt lat="47.31696" lon="-1.32464">
        <ele>29</ele>
        <time>2020-12-06T08:23:28.426000+00:00</time>
      </trkpt>
      <trkpt lat="0" lon="0">
        <time>2020-12-06T08:23:28.436000+00:00</time>
      </trkpt>
      <trkpt lat="0" lon="0">
        <time>2020-12-06T08:23:28.449000+00:00</time>
      </trkpt>
      <trkpt lat="0" lon="0">
        <time>2020-12-06T08:23:28.455000+00:00</time>
      </trkpt>
      <trkpt lat="47.31699" lon="-1.32465">
        <ele>28</ele>
        <time>2020-12-06T08:23:29.408000+00:00</time>
      </trkpt>
      <trkpt lat="0" lon="0">
        <time>2020-12-06T08:23:29.418000+00:00</time>
      </trkpt>
      <trkpt lat="0" lon="0">
        <time>2020-12-06T08:23:29.424000+00:00</time>
      </trkpt>
      <trkpt lat="0" lon="0">
        <time>2020-12-06T08:23:29.431000+00:00</time>
      </trkpt>
      <trkpt lat="47.31702" lon="-1.32467">
        <ele>27</ele>
        <time>2020-12-06T08:23:30.386000+00:00</time>
      </trkpt>
      <trkpt lat="0" lon="0">
        <time>2020-12-06T08:23:30.387000+00:00</time>
      </trkpt>
      <trkpt lat="0" lon="0">
        <time>2020-12-06T08:23:30.389000+00:00</time>
      </trkpt>
      <trkpt lat="47.31704" lon="-1.32469">
        <ele>26</ele>
        <time>2020-12-06T08:23:31.423000+00:00</time>
      </trkpt>
      <trkpt lat="0" lon="0">
        <time>2020-12-06T08:23:31.436000+00:00</time>
      </trkpt>
      <trkpt lat="0" lon="0">
        <time>2020-12-06T08:23:31.441000+00:00</time>
      </trkpt>
      <trkpt lat="0" lon="0">
        <time>2020-12-06T08:23:31.443000+00:00</time>
      </trkpt>
      <trkpt lat="47.31707" lon="-1.3247">
        <ele>25</ele>
        <time>2020-12-06T08:23:32.412000+00:00</time>
      </trkpt>
      <trkpt lat="0" lon="0">
        <time>2020-12-06T08:23:32.423000+00:00</time>
      </trkpt>
      <trkpt lat="0" lon="0">
        <time>2020-12-06T08:23:32.427000+00:00</time>
      </trkpt>
      <trkpt lat="0" lon="0">
        <time>2020-12-06T08:23:32.428000+00:00</time>
      </trkpt>
      <trkpt lat="47.3171" lon="-1.32471">
        <ele>24</ele>
        <time>2020-12-06T08:23:33.414000+00:00</time>
      </trkpt>
      <trkpt lat="0" lon="0">
        <time>2020-12-06T08:23:33.417000+00:00</time>
      </trkpt>
      <trkpt lat="0" lon="0">
        <time>2020-12-06T08:23:33.420000+00:00</time>
      </trkpt>
      <trkpt lat="0" lon="0">
        <time>2020-12-06T08:23:33.423000+00:00</time>
      </trkpt>
      <trkpt lat="47.31713" lon="-1.32472">
        <ele>23</ele>
        <time>2020-12-06T08:23:34.413000+00:00</time>
      </trkpt>
      <trkpt lat="0" lon="0">
        <time>2020-12-06T08:23:34.426000+00:00</time>
      </trkpt>
      <trkpt lat="0" lon="0">
        <time>2020-12-06T08:23:34.430000+00:00</time>
      </trkpt>
      <trkpt lat="0" lon="0">
        <time>2020-12-06T08:23:34.432000+00:00</time>
      </trkpt>
      <trkpt lat="47.31717" lon="-1.32472">
        <ele>22</ele>
        <time>2020-12-06T08:23:35.402000+00:00</time>
      </trkpt>
      <trkpt lat="0" lon="0">
        <time>2020-12-06T08:23:35.421000+00:00</time>
      </trkpt>
      <trkpt lat="0" lon="0">
        <time>2020-12-06T08:23:35.424000+00:00</time>
      </trkpt>
      <trkpt lat="0" lon="0">
        <time>2020-12-06T08:23:35.425000+00:00</time>
      </trkpt>
      <trkpt lat="47.31721" lon="-1.32471">
        <ele>21</ele>
        <time>2020-12-06T08:23:36.442000+00:00</time>
      </trkpt>
      <trkpt lat="0" lon="0">
        <time>2020-12-06T08:23:36.445000+00:00</time>
      </trkpt>
      <trkpt lat="0" lon="0">
        <time>2020-12-06T08:23:36.450000+00:00</time>
      </trkpt>
      <trkpt lat="0" lon="0">
        <time>2020-12-06T08:23:36.451000+00:00</time>
      </trkpt>
      <trkpt lat="47.31725" lon="-1.3247">
        <ele>20</ele>
        <time>2020-12-06T08:23:37.401000+00:00</time>
      </trkpt>
      <trkpt lat="0" lon="0">
        <time>2020-12-06T08:23:37.408000+00:00</time>
      </trkpt>
      <trkpt lat="0" lon="0">
        <time>2020-12-06T08:23:37.420000+00:00</time>
      </trkpt>
      <trkpt lat="0" lon="0">
        <time>2020-12-06T08:23:37.422000+00:00</time>
      </trkpt>
      <trkpt lat="47.31729" lon="-1.32469">
        <ele>19</ele>
        <time>2020-12-06T08:23:38.433000+00:00</time>
      </trkpt>
      <trkpt lat="0" lon="0">
        <time>2020-12-06T08:23:38.438000+00:00</time>
      </trkpt>
      <trkpt lat="0" lon="0">
        <time>2020-12-06T08:23:38.442000+00:00</time>
      </trkpt>
      <trkpt lat="0" lon="0">
        <time>2020-12-06T08:23:38.461000+00:00</time>
      </trkpt>
      <trkpt lat="47.31733" lon="-1.32469">
        <ele>18</ele>
        <time>2020-12-06T08:23:39.458000+00:00</time>
      </trkpt>
      <trkpt lat="0" lon="0">
        <time>2020-12-06T08:23:39.469000+00:00</time>
      </trkpt>
      <trkpt lat="0" lon="0">
        <time>2020-12-06T08:23:39.474000+00:00</time>
      </trkpt>
      <trkpt lat="0" lon="0">
        <time>2020-12-06T08:23:39.478000+00:00</time>
      </trkpt>
      <trkpt lat="47.31737" lon="-1.32468">
        <ele>17</ele>
        <time>2020-12-06T08:23:40.400000+00:00</time>
      </trkpt>
      <trkpt lat="0" lon="0">
        <time>2020-12-06T08:23:40.424000+00:00</time>
      </trkpt>
      <trkpt lat="0" lon="0">
        <time>2020-12-06T08:23:40.434000+00:00</time>
      </trkpt>
      <trkpt lat="0" lon="0">
        <time>2020-12-06T08:23:40.437000+00:00</time>
      </trkpt>
      <trkpt lat="47.31741" lon="-1.32468">
        <ele>16</ele>
        <time>2020-12-06T08:23:41.424000+00:00</time>
      </trkpt>
      <trkpt lat="0" lon="0">
        <time>2020-12-06T08:23:41.440000+00:00</time>
      </trkpt>
      <trkpt lat="0" lon="0">
        <time>2020-12-06T08:23:41.449000+00:00</time>
      </trkpt>
      <trkpt lat="0" lon="0">
        <time>2020-12-06T08:23:41.452000+00:00</time>
      </trkpt>
      <trkpt lat="47.31744" lon="-1.32468">
        <ele>15</ele>
        <time>2020-12-06T08:23:42.405000+00:00</time>
      </trkpt>
      <trkpt lat="0" lon="0">
        <time>2020-12-06T08:23:42.416000+00:00</time>
      </trkpt>
      <trkpt lat="0" lon="0">
        <time>2020-12-06T08:23:42.426000+00:00</time>
      </trkpt>
      <trkpt lat="0" lon="0">
        <time>2020-12-06T08:23:42.427000+00:00</time>
      </trkpt>
      <trkpt lat="47.31746" lon="-1.32469">
        <ele>14</ele>
        <time>2020-12-06T08:23:43.375000+00:00</time>
      </trkpt>
      <trkpt lat="0" lon="0">
        <time>2020-12-06T08:23:43.388000+00:00</time>
      </trkpt>
      <trkpt lat="0" lon="0">
        <time>2020-12-06T08:23:43.392000+00:00</time>
      </trkpt>
      <trkpt lat="0" lon="0">
        <time>2020-12-06T08:23:43.394000+00:00</time>
      </trkpt>
      <trkpt lat="47.31749" lon="-1.32471">
        <ele>13</ele>
        <time>2020-12-06T08:23:44.432000+00:00</time>
      </trkpt>
      <trkpt lat="0" lon="0">
        <time>2020-12-06T08:23:44.458000+00:00</time>
      </trkpt>
      <trkpt lat="0" lon="0">
        <time>2020-12-06T08:23:44.464000+00:00</time>
      </trkpt>
      <trkpt lat="0" lon="0">
        <time>2020-12-06T08:23:44.465000+00:00</time>
      </trkpt>
      <trkpt lat="47.31751" lon="-1.32472">
        <ele>12</ele>
        <time>2020-12-06T08:23:45.430000+00:00</time>
      </trkpt>
      <trkpt lat="0" lon="0">
        <time>2020-12-06T08:23:45.446000+00:00</time>
      </trkpt>
      <trkpt lat="0" lon="0">
        <time>2020-12-06T08:23:45.450000+00:00</time>
      </trkpt>
      <trkpt lat="0" lon="0">
        <time>2020-12-06T08:23:45.452000+00:00</time>
      </trkpt>
      <trkpt lat="47.31753" lon="-1.32475">
        <ele>12</ele>
        <time>2020-12-06T08:23:46.426000+00:00</time>
      </trkpt>
      <trkpt lat="0" lon="0">
        <time>2020-12-06T08:23:46.440000+00:00</time>
      </trkpt>
      <trkpt lat="0" lon="0">
        <time>2020-12-06T08:23:46.448000+00:00</time>
      </trkpt>
      <trkpt lat="0" lon="0">
        <time>2020-12-06T08:23:46.453000+00:00</time>
      </trkpt>
      <trkpt lat="47.31756" lon="-1.32477">
        <ele>12</ele>
        <time>2020-12-06T08:23:47.450000+00:00</time>
      </trkpt>
      <trkpt lat="0" lon="0">
        <time>2020-12-06T08:23:47.455000+00:00</time>
      </trkpt>
      <trkpt lat="0" lon="0">
        <time>2020-12-06T08:23:47.457000+00:00</time>
      </trkpt>
      <trkpt lat="0" lon="0">
        <time>2020-12-06T08:23:47.460000+00:00</time>
      </trkpt>
      <trkpt lat="47.31758" lon="-1.3248">
        <ele>11</ele>
        <time>2020-12-06T08:23:48.454000+00:00</time>
      </trkpt>
      <trkpt lat="0" lon="0">
        <time>2020-12-06T08:23:48.466000+00:00</time>
      </trkpt>
      <trkpt lat="0" lon="0">
        <time>2020-12-06T08:23:48.474000+00:00</time>
      </trkpt>
      <trkpt lat="0" lon="0">
        <time>2020-12-06T08:23:48.479000+00:00</time>
      </trkpt>
      <trkpt lat="47.3176" lon="-1.32482">
        <ele>11</ele>
        <time>2020-12-06T08:23:49.436000+00:00</time>
      </trkpt>
      <trkpt lat="0" lon="0">
        <time>2020-12-06T08:23:49.446000+00:00</time>
      </trkpt>
      <trkpt lat="0" lon="0">
        <time>2020-12-06T08:23:49.453000+00:00</time>
      </trkpt>
      <trkpt lat="0" lon="0">
        <time>2020-12-06T08:23:49.459000+00:00</time>
      </trkpt>
      <trkpt lat="47.31762" lon="-1.32484">
        <ele>10</ele>
        <time>2020-12-06T08:23:50.424000+00:00</time>
      </trkpt>
      <trkpt lat="0" lon="0">
        <time>2020-12-06T08:23:50.427000+00:00</time>
      </trkpt>
      <trkpt lat="0" lon="0">
        <time>2020-12-06T08:23:50.431000+00:00</time>
      </trkpt>
      <trkpt lat="0" lon="0">
        <time>2020-12-06T08:23:50.432000+00:00</time>
      </trkpt>
      <trkpt lat="47.31765" lon="-1.32486">
        <ele>10</ele>
        <time>2020-12-06T08:23:51.418000+00:00</time>
      </trkpt>
      <trkpt lat="0" lon="0">
        <time>2020-12-06T08:23:51.436000+00:00</time>
      </trkpt>
      <trkpt lat="0" lon="0">
        <time>2020-12-06T08:23:51.448000+00:00</time>
      </trkpt>
      <trkpt lat="0" lon="0">
        <time>2020-12-06T08:23:51.450000+00:00</time>
      </trkpt>
      <trkpt lat="47.31767" lon="-1.32486">
        <ele>10</ele>
        <time>2020-12-06T08:23:52.406000+00:00</time>
      </trkpt>
      <trkpt lat="0" lon="0">
        <time>2020-12-06T08:23:52.410000+00:00</time>
      </trkpt>
      <trkpt lat="0" lon="0">
        <time>2020-12-06T08:23:52.425000+00:00</time>
      </trkpt>
      <trkpt lat="0" lon="0">
        <time>2020-12-06T08:23:52.433000+00:00</time>
      </trkpt>
      <trkpt lat="47.31769" lon="-1.32486">
        <ele>10</ele>
        <time>2020-12-06T08:23:53.404000+00:00</time>
      </trkpt>
      <trkpt lat="0" lon="0">
        <time>2020-12-06T08:23:53.420000+00:00</time>
      </trkpt>
      <trkpt lat="0" lon="0">
        <time>2020-12-06T08:23:53.427000+00:00</time>
      </trkpt>
      <trkpt lat="0" lon="0">
        <time>2020-12-06T08:23:53.432000+00:00</time>
      </trkpt>
      <trkpt lat="47.31771" lon="-1.32484">
        <ele>10</ele>
        <time>2020-12-06T08:23:54.413000+00:00</time>
      </trkpt>
      <trkpt lat="0" lon="0">
        <time>2020-12-06T08:23:54.427000+00:00</time>
      </trkpt>
      <trkpt lat="0" lon="0">
        <time>2020-12-06T08:23:54.430000+00:00</time>
      </trkpt>
      <trkpt lat="0" lon="0">
        <time>2020-12-06T08:23:54.433000+00:00</time>
      </trkpt>
      <trkpt lat="47.31774" lon="-1.32482">
        <ele>10</ele>
        <time>2020-12-06T08:23:55.458000+00:00</time>
      </trkpt>
      <trkpt lat="0" lon="0">
        <time>2020-12-06T08:23:55.462000+00:00</time>
      </trkpt>
      <trkpt lat="0" lon="0">
        <time>2020-12-06T08:23:55.468000+00:00</time>
      </trkpt>
      <trkpt lat="0" lon="0">
        <time>2020-12-06T08:23:55.474000+00:00</time>
      </trkpt>
      <trkpt lat="47.31777" lon="-1.3248">
        <ele>9</ele>
        <time>2020-12-06T08:23:56.438000+00:00</time>
      </trkpt>
      <trkpt lat="0" lon="0">
        <time>2020-12-06T08:23:56.448000+00:00</time>
      </trkpt>
      <trkpt lat="0" lon="0">
        <time>2020-12-06T08:23:56.462000+00:00</time>
      </trkpt>
      <trkpt lat="0" lon="0">
        <time>2020-12-06T08:23:56.464000+00:00</time>
      </trkpt>
      <trkpt lat="47.3178" lon="-1.32476">
        <ele>9</ele>
        <time>2020-12-06T08:23:57.374000+00:00</time>
      </trkpt>
      <trkpt lat="0" lon="0">
        <time>2020-12-06T08:23:57.389000+00:00</time>
      </trkpt>
      <trkpt lat="0" lon="0">
        <time>2020-12-06T08:23:57.400000+00:00</time>
      </trkpt>
      <trkpt lat="0" lon="0">
        <time>2020-12-06T08:23:57.402000+00:00</time>
      </trkpt>
      <trkpt lat="47.31783" lon="-1.32473">
        <ele>9</ele>
        <time>2020-12-06T08:23:58.451000+00:00</time>
      </trkpt>
      <trkpt lat="0" lon="0">
        <time>2020-12-06T08:23:58.455000+00:00</time>
      </trkpt>
      <trkpt lat="0" lon="0">
        <time>2020-12-06T08:23:58.458000+00:00</time>
      </trkpt>
      <trkpt lat="0" lon="0">
        <time>2020-12-06T08:23:58.460000+00:00</time>
      </trkpt>
      <trkpt lat="47.31786" lon="-1.32469">
        <ele>9</ele>
        <time>2020-12-06T08:23:59.454000+00:00</time>
      </trkpt>
      <trkpt lat="0" lon="0">
        <time>2020-12-06T08:23:59.462000+00:00</time>
      </trkpt>
      <trkpt lat="0" lon="0">
        <time>2020-12-06T08:23:59.472000+00:00</time>
      </trkpt>
      <trkpt lat="0" lon="0">
        <time>2020-12-06T08:23:59.476000+00:00</time>
      </trkpt>
      <trkpt lat="47.3179" lon="-1.32465">
        <ele>9</ele>
        <time>2020-12-06T08:24:00.405000+00:00</time>
      </trkpt>
      <trkpt lat="0" lon="0">
        <time>2020-12-06T08:24:00.416000+00:00</time>
      </trkpt>
      <trkpt lat="0" lon="0">
        <time>2020-12-06T08:24:00.422000+00:00</time>
      </trkpt>
      <trkpt lat="0" lon="0">
        <time>2020-12-06T08:24:00.424000+00:00</time>
      </trkpt>
      <trkpt lat="47.31794" lon="-1.32461">
        <ele>9</ele>
        <time>2020-12-06T08:24:01.422000+00:00</time>
      </trkpt>
      <trkpt lat="0" lon="0">
        <time>2020-12-06T08:24:01.428000+00:00</time>
      </trkpt>
      <trkpt lat="0" lon="0">
        <time>2020-12-06T08:24:01.433000+00:00</time>
      </trkpt>
      <trkpt lat="0" lon="0">
        <time>2020-12-06T08:24:01.437000+00:00</time>
      </trkpt>
      <trkpt lat="47.31798" lon="-1.32457">
        <ele>8</ele>
        <time>2020-12-06T08:24:02.420000+00:00</time>
      </trkpt>
      <trkpt lat="0" lon="0">
        <time>2020-12-06T08:24:02.430000+00:00</time>
      </trkpt>
      <trkpt lat="0" lon="0">
        <time>2020-12-06T08:24:02.434000+00:00</time>
      </trkpt>
      <trkpt lat="0" lon="0">
        <time>2020-12-06T08:24:02.441000+00:00</time>
      </trkpt>
      <trkpt lat="47.31801" lon="-1.32453">
        <ele>8</ele>
        <time>2020-12-06T08:24:03.426000+00:00</time>
      </trkpt>
      <trkpt lat="0" lon="0">
        <time>2020-12-06T08:24:03.437000+00:00</time>
      </trkpt>
      <trkpt lat="0" lon="0">
        <time>2020-12-06T08:24:03.445000+00:00</time>
      </trkpt>
      <trkpt lat="0" lon="0">
        <time>2020-12-06T08:24:03.447000+00:00</time>
      </trkpt>
      <trkpt lat="47.31805" lon="-1.32449">
        <ele>8</ele>
        <time>2020-12-06T08:24:04.476000+00:00</time>
      </trkpt>
      <trkpt lat="0" lon="0">
        <time>2020-12-06T08:24:04.483000+00:00</time>
      </trkpt>
      <trkpt lat="0" lon="0">
        <time>2020-12-06T08:24:04.485000+00:00</time>
      </trkpt>
      <trkpt lat="0" lon="0">
        <time>2020-12-06T08:24:04.486000+00:00</time>
      </trkpt>
      <trkpt lat="47.31809" lon="-1.32445">
        <ele>8</ele>
        <time>2020-12-06T08:24:05.440000+00:00</time>
      </trkpt>
      <trkpt lat="0" lon="0">
        <time>2020-12-06T08:24:05.458000+00:00</time>
      </trkpt>
      <trkpt lat="0" lon="0">
        <time>2020-12-06T08:24:05.462000+00:00</time>
      </trkpt>
      <trkpt lat="0" lon="0">
        <time>2020-12-06T08:24:05.467000+00:00</time>
      </trkpt>
      <trkpt lat="47.31813" lon="-1.32441">
        <ele>7</ele>
        <time>2020-12-06T08:24:06.453000+00:00</time>
      </trkpt>
      <trkpt lat="0" lon="0">
        <time>2020-12-06T08:24:06.458000+00:00</time>
      </trkpt>
      <trkpt lat="0" lon="0">
        <time>2020-12-06T08:24:06.466000+00:00</time>
      </trkpt>
      <trkpt lat="0" lon="0">
        <time>2020-12-06T08:24:06.468000+00:00</time>
      </trkpt>
      <trkpt lat="47.31816" lon="-1.32436">
        <ele>7</ele>
        <time>2020-12-06T08:24:07.464000+00:00</time>
      </trkpt>
      <trkpt lat="0" lon="0">
        <time>2020-12-06T08:24:07.468000+00:00</time>
      </trkpt>
      <trkpt lat="0" lon="0">
        <time>2020-12-06T08:24:07.475000+00:00</time>
      </trkpt>
      <trkpt lat="0" lon="0">
        <time>2020-12-06T08:24:07.477000+00:00</time>
      </trkpt>
      <trkpt lat="47.31819" lon="-1.32433">
        <ele>7</ele>
        <time>2020-12-06T08:24:08.413000+00:00</time>
      </trkpt>
      <trkpt lat="0" lon="0">
        <time>2020-12-06T08:24:08.424000+00:00</time>
      </trkpt>
      <trkpt lat="0" lon="0">
        <time>2020-12-06T08:24:08.427000+00:00</time>
      </trkpt>
      <trkpt lat="0" lon="0">
        <time>2020-12-06T08:24:08.429000+00:00</time>
      </trkpt>
      <trkpt lat="47.31822" lon="-1.32429">
        <ele>7</ele>
        <time>2020-12-06T08:24:09.427000+00:00</time>
      </trkpt>
      <trkpt lat="0" lon="0">
        <time>2020-12-06T08:24:09.437000+00:00</time>
      </trkpt>
      <trkpt lat="0" lon="0">
        <time>2020-12-06T08:24:09.441000+00:00</time>
      </trkpt>
      <trkpt lat="0" lon="0">
        <time>2020-12-06T08:24:09.443000+00:00</time>
      </trkpt>
      <trkpt lat="47.31825" lon="-1.32425">
        <ele>6</ele>
        <time>2020-12-06T08:24:10.437000+00:00</time>
      </trkpt>
      <trkpt lat="0" lon="0">
        <time>2020-12-06T08:24:10.443000+00:00</time>
      </trkpt>
      <trkpt lat="0" lon="0">
        <time>2020-12-06T08:24:10.445000+00:00</time>
      </trkpt>
      <trkpt lat="0" lon="0">
        <time>2020-12-06T08:24:10.446000+00:00</time>
      </trkpt>
      <trkpt lat="47.31828" lon="-1.32422">
        <ele>6</ele>
        <time>2020-12-06T08:24:11.436000+00:00</time>
      </trkpt>
      <trkpt lat="0" lon="0">
        <time>2020-12-06T08:24:11.452000+00:00</time>
      </trkpt>
      <trkpt lat="0" lon="0">
        <time>2020-12-06T08:24:11.463000+00:00</time>
      </trkpt>
      <trkpt lat="0" lon="0">
        <time>2020-12-06T08:24:11.465000+00:00</time>
      </trkpt>
      <trkpt lat="47.31832" lon="-1.32419">
        <ele>6</ele>
        <time>2020-12-06T08:24:12.420000+00:00</time>
      </trkpt>
      <trkpt lat="0" lon="0">
        <time>2020-12-06T08:24:12.435000+00:00</time>
      </trkpt>
      <trkpt lat="0" lon="0">
        <time>2020-12-06T08:24:12.439000+00:00</time>
      </trkpt>
      <trkpt lat="0" lon="0">
        <time>2020-12-06T08:24:12.445000+00:00</time>
      </trkpt>
      <trkpt lat="47.31835" lon="-1.32416">
        <ele>5</ele>
        <time>2020-12-06T08:24:13.445000+00:00</time>
      </trkpt>
      <trkpt lat="0" lon="0">
        <time>2020-12-06T08:24:13.449000+00:00</time>
      </trkpt>
      <trkpt lat="0" lon="0">
        <time>2020-12-06T08:24:13.457000+00:00</time>
      </trkpt>
      <trkpt lat="0" lon="0">
        <time>2020-12-06T08:24:13.459000+00:00</time>
      </trkpt>
      <trkpt lat="47.31838" lon="-1.32412">
        <ele>5</ele>
        <time>2020-12-06T08:24:14.413000+00:00</time>
      </trkpt>
      <trkpt lat="0" lon="0">
        <time>2020-12-06T08:24:14.423000+00:00</time>
      </trkpt>
      <trkpt lat="0" lon="0">
        <time>2020-12-06T08:24:14.432000+00:00</time>
      </trkpt>
      <trkpt lat="0" lon="0">
        <time>2020-12-06T08:24:14.438000+00:00</time>
      </trkpt>
      <trkpt lat="47.31841" lon="-1.32408">
        <ele>5</ele>
        <time>2020-12-06T08:24:15.365000+00:00</time>
      </trkpt>
      <trkpt lat="0" lon="0">
        <time>2020-12-06T08:24:15.367000+00:00</time>
      </trkpt>
      <trkpt lat="0" lon="0">
        <time>2020-12-06T08:24:15.368000+00:00</time>
      </trkpt>
      <trkpt lat="0" lon="0">
        <time>2020-12-06T08:24:15.369000+00:00</time>
      </trkpt>
      <trkpt lat="47.31845" lon="-1.32404">
        <ele>5</ele>
        <time>2020-12-06T08:24:16.431000+00:00</time>
      </trkpt>
      <trkpt lat="0" lon="0">
        <time>2020-12-06T08:24:16.433000+00:00</time>
      </trkpt>
      <trkpt lat="0" lon="0">
        <time>2020-12-06T08:24:16.438000+00:00</time>
      </trkpt>
      <trkpt lat="0" lon="0">
        <time>2020-12-06T08:24:16.439000+00:00</time>
      </trkpt>
      <trkpt lat="47.31848" lon="-1.324">
        <ele>5</ele>
        <time>2020-12-06T08:24:17.394000+00:00</time>
      </trkpt>
      <trkpt lat="0" lon="0">
        <time>2020-12-06T08:24:17.415000+00:00</time>
      </trkpt>
      <trkpt lat="0" lon="0">
        <time>2020-12-06T08:24:17.418000+00:00</time>
      </trkpt>
      <trkpt lat="0" lon="0">
        <time>2020-12-06T08:24:17.420000+00:00</time>
      </trkpt>
      <trkpt lat="47.31851" lon="-1.32395">
        <ele>5</ele>
        <time>2020-12-06T08:24:18.419000+00:00</time>
      </trkpt>
      <trkpt lat="0" lon="0">
        <time>2020-12-06T08:24:18.435000+00:00</time>
      </trkpt>
      <trkpt lat="0" lon="0">
        <time>2020-12-06T08:24:18.437000+00:00</time>
      </trkpt>
      <trkpt lat="0" lon="0">
        <time>2020-12-06T08:24:18.438000+00:00</time>
      </trkpt>
      <trkpt lat="47.31854" lon="-1.3239">
        <ele>5</ele>
        <time>2020-12-06T08:24:19.431000+00:00</time>
      </trkpt>
      <trkpt lat="0" lon="0">
        <time>2020-12-06T08:24:19.436000+00:00</time>
      </trkpt>
      <trkpt lat="0" lon="0">
        <time>2020-12-06T08:24:19.444000+00:00</time>
      </trkpt>
      <trkpt lat="0" lon="0">
        <time>2020-12-06T08:24:19.445000+00:00</time>
      </trkpt>
      <trkpt lat="47.31857" lon="-1.32385">
        <ele>5</ele>
        <time>2020-12-06T08:24:20.398000+00:00</time>
      </trkpt>
      <trkpt lat="0" lon="0">
        <time>2020-12-06T08:24:20.406000+00:00</time>
      </trkpt>
      <trkpt lat="0" lon="0">
        <time>2020-12-06T08:24:20.410000+00:00</time>
      </trkpt>
      <trkpt lat="0" lon="0">
        <time>2020-12-06T08:24:20.411000+00:00</time>
      </trkpt>
      <trkpt lat="47.3186" lon="-1.3238">
        <ele>5</ele>
        <time>2020-12-06T08:24:21.388000+00:00</time>
      </trkpt>
      <trkpt lat="0" lon="0">
        <time>2020-12-06T08:24:21.399000+00:00</time>
      </trkpt>
      <trkpt lat="0" lon="0">
        <time>2020-12-06T08:24:21.406000+00:00</time>
      </trkpt>
      <trkpt lat="0" lon="0">
        <time>2020-12-06T08:24:21.411000+00:00</time>
      </trkpt>
      <trkpt lat="47.31863" lon="-1.32375">
        <ele>5</ele>
        <time>2020-12-06T08:24:22.403000+00:00</time>
      </trkpt>
      <trkpt lat="0" lon="0">
        <time>2020-12-06T08:24:22.416000+00:00</time>
      </trkpt>
      <trkpt lat="0" lon="0">
        <time>2020-12-06T08:24:22.423000+00:00</time>
      </trkpt>
      <trkpt lat="0" lon="0">
        <time>2020-12-06T08:24:22.429000+00:00</time>
      </trkpt>
      <trkpt lat="47.31866" lon="-1.32369">
        <ele>5</ele>
        <time>2020-12-06T08:24:23.413000+00:00</time>
      </trkpt>
      <trkpt lat="0" lon="0">
        <time>2020-12-06T08:24:23.418000+00:00</time>
      </trkpt>
      <trkpt lat="0" lon="0">
        <time>2020-12-06T08:24:23.424000+00:00</time>
      </trkpt>
      <trkpt lat="0" lon="0">
        <time>2020-12-06T08:24:23.427000+00:00</time>
      </trkpt>
      <trkpt lat="47.31868" lon="-1.32364">
        <ele>5</ele>
        <time>2020-12-06T08:24:24.422000+00:00</time>
      </trkpt>
      <trkpt lat="0" lon="0">
        <time>2020-12-06T08:24:24.425000+00:00</time>
      </trkpt>
      <trkpt lat="0" lon="0">
        <time>2020-12-06T08:24:24.436000+00:00</time>
      </trkpt>
      <trkpt lat="0" lon="0">
        <time>2020-12-06T08:24:24.438000+00:00</time>
      </trkpt>
      <trkpt lat="47.31871" lon="-1.32359">
        <ele>5</ele>
        <time>2020-12-06T08:24:25.431000+00:00</time>
      </trkpt>
      <trkpt lat="0" lon="0">
        <time>2020-12-06T08:24:25.439000+00:00</time>
      </trkpt>
      <trkpt lat="0" lon="0">
        <time>2020-12-06T08:24:25.445000+00:00</time>
      </trkpt>
      <trkpt lat="0" lon="0">
        <time>2020-12-06T08:24:25.452000+00:00</time>
      </trkpt>
      <trkpt lat="47.31874" lon="-1.32353">
        <ele>5</ele>
        <time>2020-12-06T08:24:26.394000+00:00</time>
      </trkpt>
      <trkpt lat="0" lon="0">
        <time>2020-12-06T08:24:26.397000+00:00</time>
      </trkpt>
      <trkpt lat="0" lon="0">
        <time>2020-12-06T08:24:26.399000+00:00</time>
      </trkpt>
      <trkpt lat="0" lon="0">
        <time>2020-12-06T08:24:26.400000+00:00</time>
      </trkpt>
      <trkpt lat="47.31877" lon="-1.32348">
        <ele>5</ele>
        <time>2020-12-06T08:24:27.423000+00:00</time>
      </trkpt>
      <trkpt lat="0" lon="0">
        <time>2020-12-06T08:24:27.429000+00:00</time>
      </trkpt>
      <trkpt lat="0" lon="0">
        <time>2020-12-06T08:24:27.433000+00:00</time>
      </trkpt>
      <trkpt lat="0" lon="0">
        <time>2020-12-06T08:24:27.435000+00:00</time>
      </trkpt>
      <trkpt lat="47.3188" lon="-1.32342">
        <ele>5</ele>
        <time>2020-12-06T08:24:28.438000+00:00</time>
      </trkpt>
      <trkpt lat="0" lon="0">
        <time>2020-12-06T08:24:28.448000+00:00</time>
      </trkpt>
      <trkpt lat="0" lon="0">
        <time>2020-12-06T08:24:28.453000+00:00</time>
      </trkpt>
      <trkpt lat="0" lon="0">
        <time>2020-12-06T08:24:28.455000+00:00</time>
      </trkpt>
      <trkpt lat="47.31883" lon="-1.32337">
        <ele>5</ele>
        <time>2020-12-06T08:24:29.386000+00:00</time>
      </trkpt>
      <trkpt lat="0" lon="0">
        <time>2020-12-06T08:24:29.400000+00:00</time>
      </trkpt>
      <trkpt lat="0" lon="0">
        <time>2020-12-06T08:24:29.406000+00:00</time>
      </trkpt>
      <trkpt lat="0" lon="0">
        <time>2020-12-06T08:24:29.412000+00:00</time>
      </trkpt>
      <trkpt lat="47.31885" lon="-1.32331">
        <ele>6</ele>
        <time>2020-12-06T08:24:30.404000+00:00</time>
      </trkpt>
      <trkpt lat="0" lon="0">
        <time>2020-12-06T08:24:30.408000+00:00</time>
      </trkpt>
      <trkpt lat="0" lon="0">
        <time>2020-12-06T08:24:30.418000+00:00</time>
      </trkpt>
      <trkpt lat="0" lon="0">
        <time>2020-12-06T08:24:30.421000+00:00</time>
      </trkpt>
      <trkpt lat="47.31888" lon="-1.32326">
        <ele>6</ele>
        <time>2020-12-06T08:24:31.429000+00:00</time>
      </trkpt>
      <trkpt lat="0" lon="0">
        <time>2020-12-06T08:24:31.436000+00:00</time>
      </trkpt>
      <trkpt lat="0" lon="0">
        <time>2020-12-06T08:24:31.444000+00:00</time>
      </trkpt>
      <trkpt lat="0" lon="0">
        <time>2020-12-06T08:24:31.455000+00:00</time>
      </trkpt>
      <trkpt lat="47.31891" lon="-1.32321">
        <ele>6</ele>
        <time>2020-12-06T08:24:32.424000+00:00</time>
      </trkpt>
      <trkpt lat="0" lon="0">
        <time>2020-12-06T08:24:32.438000+00:00</time>
      </trkpt>
      <trkpt lat="0" lon="0">
        <time>2020-12-06T08:24:32.442000+00:00</time>
      </trkpt>
      <trkpt lat="0" lon="0">
        <time>2020-12-06T08:24:32.444000+00:00</time>
      </trkpt>
      <trkpt lat="47.31894" lon="-1.32315">
        <ele>6</ele>
        <time>2020-12-06T08:24:33.414000+00:00</time>
      </trkpt>
      <trkpt lat="0" lon="0">
        <time>2020-12-06T08:24:33.424000+00:00</time>
      </trkpt>
      <trkpt lat="0" lon="0">
        <time>2020-12-06T08:24:33.433000+00:00</time>
      </trkpt>
      <trkpt lat="0" lon="0">
        <time>2020-12-06T08:24:33.435000+00:00</time>
      </trkpt>
      <trkpt lat="47.31897" lon="-1.3231">
        <ele>6</ele>
        <time>2020-12-06T08:24:34.392000+00:00</time>
      </trkpt>
      <trkpt lat="0" lon="0">
        <time>2020-12-06T08:24:34.408000+00:00</time>
      </trkpt>
      <trkpt lat="0" lon="0">
        <time>2020-12-06T08:24:34.415000+00:00</time>
      </trkpt>
      <trkpt lat="0" lon="0">
        <time>2020-12-06T08:24:34.417000+00:00</time>
      </trkpt>
      <trkpt lat="47.319" lon="-1.32304">
        <ele>7</ele>
        <time>2020-12-06T08:24:35.413000+00:00</time>
      </trkpt>
      <trkpt lat="0" lon="0">
        <time>2020-12-06T08:24:35.421000+00:00</time>
      </trkpt>
      <trkpt lat="0" lon="0">
        <time>2020-12-06T08:24:35.429000+00:00</time>
      </trkpt>
      <trkpt lat="0" lon="0">
        <time>2020-12-06T08:24:35.431000+00:00</time>
      </trkpt>
      <trkpt lat="47.31903" lon="-1.32298">
        <ele>7</ele>
        <time>2020-12-06T08:24:36.377000+00:00</time>
      </trkpt>
      <trkpt lat="0" lon="0">
        <time>2020-12-06T08:24:36.380000+00:00</time>
      </trkpt>
      <trkpt lat="0" lon="0">
        <time>2020-12-06T08:24:36.386000+00:00</time>
      </trkpt>
      <trkpt lat="0" lon="0">
        <time>2020-12-06T08:24:36.387000+00:00</time>
      </trkpt>
      <trkpt lat="47.31905" lon="-1.32293">
        <ele>7</ele>
        <time>2020-12-06T08:24:37.398000+00:00</time>
      </trkpt>
      <trkpt lat="0" lon="0">
        <time>2020-12-06T08:24:37.403000+00:00</time>
      </trkpt>
      <trkpt lat="0" lon="0">
        <time>2020-12-06T08:24:37.409000+00:00</time>
      </trkpt>
      <trkpt lat="0" lon="0">
        <time>2020-12-06T08:24:37.412000+00:00</time>
      </trkpt>
      <trkpt lat="47.31907" lon="-1.32287">
        <ele>8</ele>
        <time>2020-12-06T08:24:38.401000+00:00</time>
      </trkpt>
      <trkpt lat="0" lon="0">
        <time>2020-12-06T08:24:38.412000+00:00</time>
      </trkpt>
      <trkpt lat="0" lon="0">
        <time>2020-12-06T08:24:38.415000+00:00</time>
      </trkpt>
      <trkpt lat="0" lon="0">
        <time>2020-12-06T08:24:38.417000+00:00</time>
      </trkpt>
      <trkpt lat="47.31909" lon="-1.32282">
        <ele>8</ele>
        <time>2020-12-06T08:24:39.429000+00:00</time>
      </trkpt>
      <trkpt lat="0" lon="0">
        <time>2020-12-06T08:24:39.447000+00:00</time>
      </trkpt>
      <trkpt lat="0" lon="0">
        <time>2020-12-06T08:24:39.456000+00:00</time>
      </trkpt>
      <trkpt lat="0" lon="0">
        <time>2020-12-06T08:24:39.461000+00:00</time>
      </trkpt>
      <trkpt lat="47.31912" lon="-1.32276">
        <ele>8</ele>
        <time>2020-12-06T08:24:40.430000+00:00</time>
      </trkpt>
      <trkpt lat="0" lon="0">
        <time>2020-12-06T08:24:40.436000+00:00</time>
      </trkpt>
      <trkpt lat="0" lon="0">
        <time>2020-12-06T08:24:40.440000+00:00</time>
      </trkpt>
      <trkpt lat="0" lon="0">
        <time>2020-12-06T08:24:40.442000+00:00</time>
      </trkpt>
      <trkpt lat="47.31914" lon="-1.32271">
        <ele>8</ele>
        <time>2020-12-06T08:24:41.421000+00:00</time>
      </trkpt>
      <trkpt lat="0" lon="0">
        <time>2020-12-06T08:24:41.431000+00:00</time>
      </trkpt>
      <trkpt lat="0" lon="0">
        <time>2020-12-06T08:24:41.437000+00:00</time>
      </trkpt>
      <trkpt lat="0" lon="0">
        <time>2020-12-06T08:24:41.439000+00:00</time>
      </trkpt>
      <trkpt lat="47.31916" lon="-1.32266">
        <ele>9</ele>
        <time>2020-12-06T08:24:42.452000+00:00</time>
      </trkpt>
      <trkpt lat="0" lon="0">
        <time>2020-12-06T08:24:42.460000+00:00</time>
      </trkpt>
      <trkpt lat="0" lon="0">
        <time>2020-12-06T08:24:42.461000+00:00</time>
      </trkpt>
      <trkpt lat="0" lon="0">
        <time>2020-12-06T08:24:42.462000+00:00</time>
      </trkpt>
      <trkpt lat="47.31917" lon="-1.3226">
        <ele>9</ele>
        <time>2020-12-06T08:24:43.426000+00:00</time>
      </trkpt>
      <trkpt lat="0" lon="0">
        <time>2020-12-06T08:24:43.429000+00:00</time>
      </trkpt>
      <trkpt lat="0" lon="0">
        <time>2020-12-06T08:24:43.436000+00:00</time>
      </trkpt>
      <trkpt lat="0" lon="0">
        <time>2020-12-06T08:24:43.438000+00:00</time>
      </trkpt>
      <trkpt lat="47.31919" lon="-1.32254">
        <ele>9</ele>
        <time>2020-12-06T08:24:44.458000+00:00</time>
      </trkpt>
      <trkpt lat="0" lon="0">
        <time>2020-12-06T08:24:44.467000+00:00</time>
      </trkpt>
      <trkpt lat="0" lon="0">
        <time>2020-12-06T08:24:44.472000+00:00</time>
      </trkpt>
      <trkpt lat="0" lon="0">
        <time>2020-12-06T08:24:44.475000+00:00</time>
      </trkpt>
      <trkpt lat="47.3192" lon="-1.32248">
        <ele>10</ele>
        <time>2020-12-06T08:24:45.396000+00:00</time>
      </trkpt>
      <trkpt lat="0" lon="0">
        <time>2020-12-06T08:24:45.399000+00:00</time>
      </trkpt>
      <trkpt lat="0" lon="0">
        <time>2020-12-06T08:24:45.406000+00:00</time>
      </trkpt>
      <trkpt lat="0" lon="0">
        <time>2020-12-06T08:24:45.412000+00:00</time>
      </trkpt>
      <trkpt lat="47.31922" lon="-1.32242">
        <ele>10</ele>
        <time>2020-12-06T08:24:46.416000+00:00</time>
      </trkpt>
      <trkpt lat="0" lon="0">
        <time>2020-12-06T08:24:46.424000+00:00</time>
      </trkpt>
      <trkpt lat="0" lon="0">
        <time>2020-12-06T08:24:46.428000+00:00</time>
      </trkpt>
      <trkpt lat="0" lon="0">
        <time>2020-12-06T08:24:46.437000+00:00</time>
      </trkpt>
      <trkpt lat="47.31922" lon="-1.32236">
        <ele>10</ele>
        <time>2020-12-06T08:24:47.442000+00:00</time>
      </trkpt>
      <trkpt lat="0" lon="0">
        <time>2020-12-06T08:24:47.457000+00:00</time>
      </trkpt>
      <trkpt lat="0" lon="0">
        <time>2020-12-06T08:24:47.466000+00:00</time>
      </trkpt>
      <trkpt lat="0" lon="0">
        <time>2020-12-06T08:24:47.467000+00:00</time>
      </trkpt>
      <trkpt lat="47.31922" lon="-1.32229">
        <ele>10</ele>
        <time>2020-12-06T08:24:48.454000+00:00</time>
      </trkpt>
      <trkpt lat="0" lon="0">
        <time>2020-12-06T08:24:48.463000+00:00</time>
      </trkpt>
      <trkpt lat="0" lon="0">
        <time>2020-12-06T08:24:48.471000+00:00</time>
      </trkpt>
      <trkpt lat="0" lon="0">
        <time>2020-12-06T08:24:48.473000+00:00</time>
      </trkpt>
      <trkpt lat="47.31922" lon="-1.32223">
        <ele>10</ele>
        <time>2020-12-06T08:24:49.404000+00:00</time>
      </trkpt>
      <trkpt lat="0" lon="0">
        <time>2020-12-06T08:24:49.414000+00:00</time>
      </trkpt>
      <trkpt lat="0" lon="0">
        <time>2020-12-06T08:24:49.423000+00:00</time>
      </trkpt>
      <trkpt lat="0" lon="0">
        <time>2020-12-06T08:24:49.425000+00:00</time>
      </trkpt>
      <trkpt lat="47.3192" lon="-1.32218">
        <ele>10</ele>
        <time>2020-12-06T08:24:50.410000+00:00</time>
      </trkpt>
      <trkpt lat="0" lon="0">
        <time>2020-12-06T08:24:50.434000+00:00</time>
      </trkpt>
      <trkpt lat="0" lon="0">
        <time>2020-12-06T08:24:50.440000+00:00</time>
      </trkpt>
      <trkpt lat="0" lon="0">
        <time>2020-12-06T08:24:50.444000+00:00</time>
      </trkpt>
      <trkpt lat="47.31918" lon="-1.32213">
        <ele>10</ele>
        <time>2020-12-06T08:24:51.457000+00:00</time>
      </trkpt>
      <trkpt lat="0" lon="0">
        <time>2020-12-06T08:24:51.468000+00:00</time>
      </trkpt>
      <trkpt lat="0" lon="0">
        <time>2020-12-06T08:24:51.472000+00:00</time>
      </trkpt>
      <trkpt lat="0" lon="0">
        <time>2020-12-06T08:24:51.474000+00:00</time>
      </trkpt>
      <trkpt lat="47.31916" lon="-1.32209">
        <ele>10</ele>
        <time>2020-12-06T08:24:52.449000+00:00</time>
      </trkpt>
      <trkpt lat="0" lon="0">
        <time>2020-12-06T08:24:52.460000+00:00</time>
      </trkpt>
      <trkpt lat="0" lon="0">
        <time>2020-12-06T08:24:52.465000+00:00</time>
      </trkpt>
      <trkpt lat="0" lon="0">
        <time>2020-12-06T08:24:52.468000+00:00</time>
      </trkpt>
      <trkpt lat="47.31913" lon="-1.32204">
        <ele>10</ele>
        <time>2020-12-06T08:24:53.419000+00:00</time>
      </trkpt>
      <trkpt lat="0" lon="0">
        <time>2020-12-06T08:24:53.427000+00:00</time>
      </trkpt>
      <trkpt lat="0" lon="0">
        <time>2020-12-06T08:24:53.437000+00:00</time>
      </trkpt>
      <trkpt lat="0" lon="0">
        <time>2020-12-06T08:24:53.441000+00:00</time>
      </trkpt>
      <trkpt lat="47.31911" lon="-1.322">
        <ele>10</ele>
        <time>2020-12-06T08:24:54.410000+00:00</time>
      </trkpt>
      <trkpt lat="0" lon="0">
        <time>2020-12-06T08:24:54.422000+00:00</time>
      </trkpt>
      <trkpt lat="0" lon="0">
        <time>2020-12-06T08:24:54.426000+00:00</time>
      </trkpt>
      <trkpt lat="0" lon="0">
        <time>2020-12-06T08:24:54.428000+00:00</time>
      </trkpt>
      <trkpt lat="47.31908" lon="-1.32196">
        <ele>10</ele>
        <time>2020-12-06T08:24:55.415000+00:00</time>
      </trkpt>
      <trkpt lat="0" lon="0">
        <time>2020-12-06T08:24:55.425000+00:00</time>
      </trkpt>
      <trkpt lat="0" lon="0">
        <time>2020-12-06T08:24:55.433000+00:00</time>
      </trkpt>
      <trkpt lat="0" lon="0">
        <time>2020-12-06T08:24:55.439000+00:00</time>
      </trkpt>
      <trkpt lat="47.31906" lon="-1.32193">
        <ele>11</ele>
        <time>2020-12-06T08:24:56.430000+00:00</time>
      </trkpt>
      <trkpt lat="0" lon="0">
        <time>2020-12-06T08:24:56.441000+00:00</time>
      </trkpt>
      <trkpt lat="0" lon="0">
        <time>2020-12-06T08:24:56.443000+00:00</time>
      </trkpt>
      <trkpt lat="47.31905" lon="-1.32189">
        <ele>11</ele>
        <time>2020-12-06T08:24:57.389000+00:00</time>
      </trkpt>
      <trkpt lat="0" lon="0">
        <time>2020-12-06T08:24:57.393000+00:00</time>
      </trkpt>
      <trkpt lat="0" lon="0">
        <time>2020-12-06T08:24:57.400000+00:00</time>
      </trkpt>
      <trkpt lat="0" lon="0">
        <time>2020-12-06T08:24:57.401000+00:00</time>
      </trkpt>
      <trkpt lat="47.31904" lon="-1.32187">
        <ele>11</ele>
        <time>2020-12-06T08:24:58.452000+00:00</time>
      </trkpt>
      <trkpt lat="0" lon="0">
        <time>2020-12-06T08:24:58.467000+00:00</time>
      </trkpt>
      <trkpt lat="0" lon="0">
        <time>2020-12-06T08:24:58.481000+00:00</time>
      </trkpt>
      <trkpt lat="0" lon="0">
        <time>2020-12-06T08:24:58.490000+00:00</time>
      </trkpt>
      <trkpt lat="47.31904" lon="-1.32184">
        <ele>11</ele>
        <time>2020-12-06T08:24:59.406000+00:00</time>
      </trkpt>
      <trkpt lat="0" lon="0">
        <time>2020-12-06T08:24:59.414000+00:00</time>
      </trkpt>
      <trkpt lat="0" lon="0">
        <time>2020-12-06T08:24:59.418000+00:00</time>
      </trkpt>
      <trkpt lat="0" lon="0">
        <time>2020-12-06T08:24:59.421000+00:00</time>
      </trkpt>
      <trkpt lat="47.31905" lon="-1.32182">
        <ele>11</ele>
        <time>2020-12-06T08:25:00.403000+00:00</time>
      </trkpt>
      <trkpt lat="0" lon="0">
        <time>2020-12-06T08:25:00.420000+00:00</time>
      </trkpt>
      <trkpt lat="0" lon="0">
        <time>2020-12-06T08:25:00.423000+00:00</time>
      </trkpt>
      <trkpt lat="0" lon="0">
        <time>2020-12-06T08:25:00.425000+00:00</time>
      </trkpt>
      <trkpt lat="47.31906" lon="-1.3218">
        <ele>11</ele>
        <time>2020-12-06T08:25:01.455000+00:00</time>
      </trkpt>
      <trkpt lat="0" lon="0">
        <time>2020-12-06T08:25:01.463000+00:00</time>
      </trkpt>
      <trkpt lat="0" lon="0">
        <time>2020-12-06T08:25:01.467000+00:00</time>
      </trkpt>
      <trkpt lat="0" lon="0">
        <time>2020-12-06T08:25:01.469000+00:00</time>
      </trkpt>
      <trkpt lat="47.31908" lon="-1.32178">
        <ele>11</ele>
        <time>2020-12-06T08:25:02.429000+00:00</time>
      </trkpt>
      <trkpt lat="0" lon="0">
        <time>2020-12-06T08:25:02.432000+00:00</time>
      </trkpt>
      <trkpt lat="0" lon="0">
        <time>2020-12-06T08:25:02.439000+00:00</time>
      </trkpt>
      <trkpt lat="0" lon="0">
        <time>2020-12-06T08:25:02.441000+00:00</time>
      </trkpt>
      <trkpt lat="47.3191" lon="-1.32176">
        <ele>11</ele>
        <time>2020-12-06T08:25:03.426000+00:00</time>
      </trkpt>
      <trkpt lat="0" lon="0">
        <time>2020-12-06T08:25:03.433000+00:00</time>
      </trkpt>
      <trkpt lat="0" lon="0">
        <time>2020-12-06T08:25:03.443000+00:00</time>
      </trkpt>
      <trkpt lat="0" lon="0">
        <time>2020-12-06T08:25:03.445000+00:00</time>
      </trkpt>
      <trkpt lat="47.31912" lon="-1.32174">
        <ele>11</ele>
        <time>2020-12-06T08:25:04.405000+00:00</time>
      </trkpt>
      <trkpt lat="0" lon="0">
        <time>2020-12-06T08:25:04.409000+00:00</time>
      </trkpt>
      <trkpt lat="0" lon="0">
        <time>2020-12-06T08:25:04.415000+00:00</time>
      </trkpt>
      <trkpt lat="0" lon="0">
        <time>2020-12-06T08:25:04.417000+00:00</time>
      </trkpt>
      <trkpt lat="47.31914" lon="-1.32171">
        <ele>11</ele>
        <time>2020-12-06T08:25:05.436000+00:00</time>
      </trkpt>
      <trkpt lat="0" lon="0">
        <time>2020-12-06T08:25:05.442000+00:00</time>
      </trkpt>
      <trkpt lat="0" lon="0">
        <time>2020-12-06T08:25:05.444000+00:00</time>
      </trkpt>
      <trkpt lat="0" lon="0">
        <time>2020-12-06T08:25:05.445000+00:00</time>
      </trkpt>
      <trkpt lat="47.31916" lon="-1.32168">
        <ele>11</ele>
        <time>2020-12-06T08:25:06.425000+00:00</time>
      </trkpt>
      <trkpt lat="0" lon="0">
        <time>2020-12-06T08:25:06.434000+00:00</time>
      </trkpt>
      <trkpt lat="0" lon="0">
        <time>2020-12-06T08:25:06.440000+00:00</time>
      </trkpt>
      <trkpt lat="0" lon="0">
        <time>2020-12-06T08:25:06.443000+00:00</time>
      </trkpt>
      <trkpt lat="47.31919" lon="-1.32164">
        <ele>11</ele>
        <time>2020-12-06T08:25:07.417000+00:00</time>
      </trkpt>
      <trkpt lat="0" lon="0">
        <time>2020-12-06T08:25:07.425000+00:00</time>
      </trkpt>
      <trkpt lat="0" lon="0">
        <time>2020-12-06T08:25:07.430000+00:00</time>
      </trkpt>
      <trkpt lat="0" lon="0">
        <time>2020-12-06T08:25:07.432000+00:00</time>
      </trkpt>
      <trkpt lat="47.31922" lon="-1.32161">
        <ele>11</ele>
        <time>2020-12-06T08:25:08.462000+00:00</time>
      </trkpt>
      <trkpt lat="0" lon="0">
        <time>2020-12-06T08:25:08.474000+00:00</time>
      </trkpt>
      <trkpt lat="0" lon="0">
        <time>2020-12-06T08:25:08.478000+00:00</time>
      </trkpt>
      <trkpt lat="0" lon="0">
        <time>2020-12-06T08:25:08.484000+00:00</time>
      </trkpt>
      <trkpt lat="47.31925" lon="-1.32158">
        <ele>11</ele>
        <time>2020-12-06T08:25:09.418000+00:00</time>
      </trkpt>
      <trkpt lat="0" lon="0">
        <time>2020-12-06T08:25:09.430000+00:00</time>
      </trkpt>
      <trkpt lat="0" lon="0">
        <time>2020-12-06T08:25:09.434000+00:00</time>
      </trkpt>
      <trkpt lat="0" lon="0">
        <time>2020-12-06T08:25:09.436000+00:00</time>
      </trkpt>
      <trkpt lat="47.31928" lon="-1.32155">
        <ele>11</ele>
        <time>2020-12-06T08:25:10.428000+00:00</time>
      </trkpt>
      <trkpt lat="0" lon="0">
        <time>2020-12-06T08:25:10.436000+00:00</time>
      </trkpt>
      <trkpt lat="0" lon="0">
        <time>2020-12-06T08:25:10.440000+00:00</time>
      </trkpt>
      <trkpt lat="0" lon="0">
        <time>2020-12-06T08:25:10.442000+00:00</time>
      </trkpt>
      <trkpt lat="47.3193" lon="-1.32151">
        <ele>11</ele>
        <time>2020-12-06T08:25:11.406000+00:00</time>
      </trkpt>
      <trkpt lat="0" lon="0">
        <time>2020-12-06T08:25:11.411000+00:00</time>
      </trkpt>
      <trkpt lat="0" lon="0">
        <time>2020-12-06T08:25:11.419000+00:00</time>
      </trkpt>
      <trkpt lat="0" lon="0">
        <time>2020-12-06T08:25:11.423000+00:00</time>
      </trkpt>
      <trkpt lat="47.31934" lon="-1.32148">
        <ele>11</ele>
        <time>2020-12-06T08:25:12.432000+00:00</time>
      </trkpt>
      <trkpt lat="0" lon="0">
        <time>2020-12-06T08:25:12.436000+00:00</time>
      </trkpt>
      <trkpt lat="0" lon="0">
        <time>2020-12-06T08:25:12.441000+00:00</time>
      </trkpt>
      <trkpt lat="0" lon="0">
        <time>2020-12-06T08:25:12.443000+00:00</time>
      </trkpt>
      <trkpt lat="47.31937" lon="-1.32143">
        <ele>11</ele>
        <time>2020-12-06T08:25:13.414000+00:00</time>
      </trkpt>
      <trkpt lat="0" lon="0">
        <time>2020-12-06T08:25:13.417000+00:00</time>
      </trkpt>
      <trkpt lat="0" lon="0">
        <time>2020-12-06T08:25:13.425000+00:00</time>
      </trkpt>
      <trkpt lat="0" lon="0">
        <time>2020-12-06T08:25:13.427000+00:00</time>
      </trkpt>
      <trkpt lat="47.3194" lon="-1.32138">
        <ele>11</ele>
        <time>2020-12-06T08:25:14.421000+00:00</time>
      </trkpt>
      <trkpt lat="0" lon="0">
        <time>2020-12-06T08:25:14.434000+00:00</time>
      </trkpt>
      <trkpt lat="0" lon="0">
        <time>2020-12-06T08:25:14.436000+00:00</time>
      </trkpt>
      <trkpt lat="0" lon="0">
        <time>2020-12-06T08:25:14.438000+00:00</time>
      </trkpt>
      <trkpt lat="47.31943" lon="-1.32132">
        <ele>11</ele>
        <time>2020-12-06T08:25:15.462000+00:00</time>
      </trkpt>
      <trkpt lat="0" lon="0">
        <time>2020-12-06T08:25:15.480000+00:00</time>
      </trkpt>
      <trkpt lat="0" lon="0">
        <time>2020-12-06T08:25:15.485000+00:00</time>
      </trkpt>
      <trkpt lat="0" lon="0">
        <time>2020-12-06T08:25:15.493000+00:00</time>
      </trkpt>
      <trkpt lat="47.31945" lon="-1.32126">
        <ele>10</ele>
        <time>2020-12-06T08:25:16.430000+00:00</time>
      </trkpt>
      <trkpt lat="0" lon="0">
        <time>2020-12-06T08:25:16.436000+00:00</time>
      </trkpt>
      <trkpt lat="0" lon="0">
        <time>2020-12-06T08:25:16.442000+00:00</time>
      </trkpt>
      <trkpt lat="0" lon="0">
        <time>2020-12-06T08:25:16.445000+00:00</time>
      </trkpt>
      <trkpt lat="47.31947" lon="-1.32119">
        <ele>10</ele>
        <time>2020-12-06T08:25:17.381000+00:00</time>
      </trkpt>
      <trkpt lat="0" lon="0">
        <time>2020-12-06T08:25:17.385000+00:00</time>
      </trkpt>
      <trkpt lat="0" lon="0">
        <time>2020-12-06T08:25:17.388000+00:00</time>
      </trkpt>
      <trkpt lat="0" lon="0">
        <time>2020-12-06T08:25:17.391000+00:00</time>
      </trkpt>
      <trkpt lat="47.31949" lon="-1.32112">
        <ele>10</ele>
        <time>2020-12-06T08:25:18.407000+00:00</time>
      </trkpt>
      <trkpt lat="0" lon="0">
        <time>2020-12-06T08:25:18.417000+00:00</time>
      </trkpt>
      <trkpt lat="0" lon="0">
        <time>2020-12-06T08:25:18.419000+00:00</time>
      </trkpt>
      <trkpt lat="0" lon="0">
        <time>2020-12-06T08:25:18.420000+00:00</time>
      </trkpt>
      <trkpt lat="47.31951" lon="-1.32105">
        <ele>10</ele>
        <time>2020-12-06T08:25:19.412000+00:00</time>
      </trkpt>
      <trkpt lat="0" lon="0">
        <time>2020-12-06T08:25:19.415000+00:00</time>
      </trkpt>
      <trkpt lat="0" lon="0">
        <time>2020-12-06T08:25:19.424000+00:00</time>
      </trkpt>
      <trkpt lat="0" lon="0">
        <time>2020-12-06T08:25:19.427000+00:00</time>
      </trkpt>
      <trkpt lat="47.31953" lon="-1.32098">
        <ele>10</ele>
        <time>2020-12-06T08:25:20.450000+00:00</time>
      </trkpt>
      <trkpt lat="0" lon="0">
        <time>2020-12-06T08:25:20.460000+00:00</time>
      </trkpt>
      <trkpt lat="0" lon="0">
        <time>2020-12-06T08:25:20.464000+00:00</time>
      </trkpt>
      <trkpt lat="0" lon="0">
        <time>2020-12-06T08:25:20.469000+00:00</time>
      </trkpt>
      <trkpt lat="47.31955" lon="-1.32091">
        <ele>10</ele>
        <time>2020-12-06T08:25:21.429000+00:00</time>
      </trkpt>
      <trkpt lat="0" lon="0">
        <time>2020-12-06T08:25:21.438000+00:00</time>
      </trkpt>
      <trkpt lat="0" lon="0">
        <time>2020-12-06T08:25:21.442000+00:00</time>
      </trkpt>
      <trkpt lat="0" lon="0">
        <time>2020-12-06T08:25:21.443000+00:00</time>
      </trkpt>
      <trkpt lat="47.31957" lon="-1.32083">
        <ele>9</ele>
        <time>2020-12-06T08:25:22.446000+00:00</time>
      </trkpt>
      <trkpt lat="0" lon="0">
        <time>2020-12-06T08:25:22.454000+00:00</time>
      </trkpt>
      <trkpt lat="0" lon="0">
        <time>2020-12-06T08:25:22.460000+00:00</time>
      </trkpt>
      <trkpt lat="0" lon="0">
        <time>2020-12-06T08:25:22.469000+00:00</time>
      </trkpt>
      <trkpt lat="47.31958" lon="-1.32077">
        <ele>9</ele>
        <time>2020-12-06T08:25:23.452000+00:00</time>
      </trkpt>
      <trkpt lat="0" lon="0">
        <time>2020-12-06T08:25:23.456000+00:00</time>
      </trkpt>
      <trkpt lat="0" lon="0">
        <time>2020-12-06T08:25:23.458000+00:00</time>
      </trkpt>
      <trkpt lat="0" lon="0">
        <time>2020-12-06T08:25:23.461000+00:00</time>
      </trkpt>
      <trkpt lat="47.3196" lon="-1.3207">
        <ele>9</ele>
        <time>2020-12-06T08:25:24.432000+00:00</time>
      </trkpt>
      <trkpt lat="0" lon="0">
        <time>2020-12-06T08:25:24.440000+00:00</time>
      </trkpt>
      <trkpt lat="0" lon="0">
        <time>2020-12-06T08:25:24.443000+00:00</time>
      </trkpt>
      <trkpt lat="0" lon="0">
        <time>2020-12-06T08:25:24.450000+00:00</time>
      </trkpt>
      <trkpt lat="47.31961" lon="-1.32063">
        <ele>9</ele>
        <time>2020-12-06T08:25:25.473000+00:00</time>
      </trkpt>
      <trkpt lat="0" lon="0">
        <time>2020-12-06T08:25:25.479000+00:00</time>
      </trkpt>
      <trkpt lat="0" lon="0">
        <time>2020-12-06T08:25:25.493000+00:00</time>
      </trkpt>
      <trkpt lat="0" lon="0">
        <time>2020-12-06T08:25:25.496000+00:00</time>
      </trkpt>
      <trkpt lat="47.31963" lon="-1.32057">
        <ele>9</ele>
        <time>2020-12-06T08:25:26.472000+00:00</time>
      </trkpt>
      <trkpt lat="0" lon="0">
        <time>2020-12-06T08:25:26.482000+00:00</time>
      </trkpt>
      <trkpt lat="0" lon="0">
        <time>2020-12-06T08:25:26.488000+00:00</time>
      </trkpt>
      <trkpt lat="0" lon="0">
        <time>2020-12-06T08:25:26.490000+00:00</time>
      </trkpt>
      <trkpt lat="47.31964" lon="-1.32051">
        <ele>9</ele>
        <time>2020-12-06T08:25:27.468000+00:00</time>
      </trkpt>
      <trkpt lat="0" lon="0">
        <time>2020-12-06T08:25:27.477000+00:00</time>
      </trkpt>
      <trkpt lat="0" lon="0">
        <time>2020-12-06T08:25:27.488000+00:00</time>
      </trkpt>
      <trkpt lat="0" lon="0">
        <time>2020-12-06T08:25:27.491000+00:00</time>
      </trkpt>
      <trkpt lat="47.31966" lon="-1.32045">
        <ele>9</ele>
        <time>2020-12-06T08:25:28.418000+00:00</time>
      </trkpt>
      <trkpt lat="0" lon="0">
        <time>2020-12-06T08:25:28.426000+00:00</time>
      </trkpt>
      <trkpt lat="0" lon="0">
        <time>2020-12-06T08:25:28.431000+00:00</time>
      </trkpt>
      <trkpt lat="0" lon="0">
        <time>2020-12-06T08:25:28.437000+00:00</time>
      </trkpt>
      <trkpt lat="47.31967" lon="-1.32039">
        <ele>9</ele>
        <time>2020-12-06T08:25:29.363000+00:00</time>
      </trkpt>
      <trkpt lat="0" lon="0">
        <time>2020-12-06T08:25:29.365000+00:00</time>
      </trkpt>
      <trkpt lat="0" lon="0">
        <time>2020-12-06T08:25:29.371000+00:00</time>
      </trkpt>
      <trkpt lat="0" lon="0">
        <time>2020-12-06T08:25:29.374000+00:00</time>
      </trkpt>
      <trkpt lat="47.31969" lon="-1.32033">
        <ele>9</ele>
        <time>2020-12-06T08:25:30.441000+00:00</time>
      </trkpt>
      <trkpt lat="0" lon="0">
        <time>2020-12-06T08:25:30.453000+00:00</time>
      </trkpt>
      <trkpt lat="0" lon="0">
        <time>2020-12-06T08:25:30.462000+00:00</time>
      </trkpt>
      <trkpt lat="0" lon="0">
        <time>2020-12-06T08:25:30.466000+00:00</time>
      </trkpt>
      <trkpt lat="47.31971" lon="-1.32027">
        <ele>9</ele>
        <time>2020-12-06T08:25:31.396000+00:00</time>
      </trkpt>
      <trkpt lat="0" lon="0">
        <time>2020-12-06T08:25:31.417000+00:00</time>
      </trkpt>
      <trkpt lat="0" lon="0">
        <time>2020-12-06T08:25:31.422000+00:00</time>
      </trkpt>
      <trkpt lat="0" lon="0">
        <time>2020-12-06T08:25:31.426000+00:00</time>
      </trkpt>
      <trkpt lat="47.31972" lon="-1.3202">
        <ele>9</ele>
        <time>2020-12-06T08:25:32.438000+00:00</time>
      </trkpt>
      <trkpt lat="0" lon="0">
        <time>2020-12-06T08:25:32.453000+00:00</time>
      </trkpt>
      <trkpt lat="0" lon="0">
        <time>2020-12-06T08:25:32.459000+00:00</time>
      </trkpt>
      <trkpt lat="0" lon="0">
        <time>2020-12-06T08:25:32.461000+00:00</time>
      </trkpt>
      <trkpt lat="47.31973" lon="-1.32014">
        <ele>9</ele>
        <time>2020-12-06T08:25:33.433000+00:00</time>
      </trkpt>
      <trkpt lat="0" lon="0">
        <time>2020-12-06T08:25:33.437000+00:00</time>
      </trkpt>
      <trkpt lat="0" lon="0">
        <time>2020-12-06T08:25:33.441000+00:00</time>
      </trkpt>
      <trkpt lat="0" lon="0">
        <time>2020-12-06T08:25:33.444000+00:00</time>
      </trkpt>
      <trkpt lat="47.31973" lon="-1.32009">
        <ele>9</ele>
        <time>2020-12-06T08:25:34.410000+00:00</time>
      </trkpt>
      <trkpt lat="0" lon="0">
        <time>2020-12-06T08:25:34.417000+00:00</time>
      </trkpt>
      <trkpt lat="0" lon="0">
        <time>2020-12-06T08:25:34.425000+00:00</time>
      </trkpt>
      <trkpt lat="0" lon="0">
        <time>2020-12-06T08:25:34.426000+00:00</time>
      </trkpt>
      <trkpt lat="47.31973" lon="-1.32004">
        <ele>9</ele>
        <time>2020-12-06T08:25:35.418000+00:00</time>
      </trkpt>
      <trkpt lat="0" lon="0">
        <time>2020-12-06T08:25:35.436000+00:00</time>
      </trkpt>
      <trkpt lat="0" lon="0">
        <time>2020-12-06T08:25:35.440000+00:00</time>
      </trkpt>
      <trkpt lat="0" lon="0">
        <time>2020-12-06T08:25:35.443000+00:00</time>
      </trkpt>
      <trkpt lat="47.31972" lon="-1.32001">
        <ele>9</ele>
        <time>2020-12-06T08:25:36.402000+00:00</time>
      </trkpt>
      <trkpt lat="0" lon="0">
        <time>2020-12-06T08:25:36.417000+00:00</time>
      </trkpt>
      <trkpt lat="0" lon="0">
        <time>2020-12-06T08:25:36.420000+00:00</time>
      </trkpt>
      <trkpt lat="0" lon="0">
        <time>2020-12-06T08:25:36.422000+00:00</time>
      </trkpt>
      <trkpt lat="47.31971" lon="-1.31998">
        <ele>8</ele>
        <time>2020-12-06T08:25:37.409000+00:00</time>
      </trkpt>
      <trkpt lat="0" lon="0">
        <time>2020-12-06T08:25:37.422000+00:00</time>
      </trkpt>
      <trkpt lat="0" lon="0">
        <time>2020-12-06T08:25:37.432000+00:00</time>
      </trkpt>
      <trkpt lat="0" lon="0">
        <time>2020-12-06T08:25:37.434000+00:00</time>
      </trkpt>
      <trkpt lat="47.31969" lon="-1.31996">
        <ele>8</ele>
        <time>2020-12-06T08:25:38.379000+00:00</time>
      </trkpt>
      <trkpt lat="0" lon="0">
        <time>2020-12-06T08:25:38.392000+00:00</time>
      </trkpt>
      <trkpt lat="0" lon="0">
        <time>2020-12-06T08:25:38.404000+00:00</time>
      </trkpt>
      <trkpt lat="0" lon="0">
        <time>2020-12-06T08:25:38.406000+00:00</time>
      </trkpt>
      <trkpt lat="47.31966" lon="-1.31995">
        <ele>8</ele>
        <time>2020-12-06T08:25:39.403000+00:00</time>
      </trkpt>
      <trkpt lat="0" lon="0">
        <time>2020-12-06T08:25:39.405000+00:00</time>
      </trkpt>
      <trkpt lat="0" lon="0">
        <time>2020-12-06T08:25:39.409000+00:00</time>
      </trkpt>
      <trkpt lat="0" lon="0">
        <time>2020-12-06T08:25:39.410000+00:00</time>
      </trkpt>
      <trkpt lat="47.31962" lon="-1.31995">
        <ele>8</ele>
        <time>2020-12-06T08:25:40.440000+00:00</time>
      </trkpt>
      <trkpt lat="0" lon="0">
        <time>2020-12-06T08:25:40.454000+00:00</time>
      </trkpt>
      <trkpt lat="0" lon="0">
        <time>2020-12-06T08:25:40.457000+00:00</time>
      </trkpt>
      <trkpt lat="0" lon="0">
        <time>2020-12-06T08:25:40.459000+00:00</time>
      </trkpt>
      <trkpt lat="47.31959" lon="-1.31996">
        <ele>8</ele>
        <time>2020-12-06T08:25:41.434000+00:00</time>
      </trkpt>
      <trkpt lat="0" lon="0">
        <time>2020-12-06T08:25:41.442000+00:00</time>
      </trkpt>
      <trkpt lat="0" lon="0">
        <time>2020-12-06T08:25:41.450000+00:00</time>
      </trkpt>
      <trkpt lat="0" lon="0">
        <time>2020-12-06T08:25:41.452000+00:00</time>
      </trkpt>
      <trkpt lat="47.31955" lon="-1.31997">
        <ele>8</ele>
        <time>2020-12-06T08:25:42.448000+00:00</time>
      </trkpt>
      <trkpt lat="0" lon="0">
        <time>2020-12-06T08:25:42.457000+00:00</time>
      </trkpt>
      <trkpt lat="0" lon="0">
        <time>2020-12-06T08:25:42.462000+00:00</time>
      </trkpt>
      <trkpt lat="0" lon="0">
        <time>2020-12-06T08:25:42.464000+00:00</time>
      </trkpt>
      <trkpt lat="47.31951" lon="-1.31998">
        <ele>8</ele>
        <time>2020-12-06T08:25:43.457000+00:00</time>
      </trkpt>
      <trkpt lat="0" lon="0">
        <time>2020-12-06T08:25:43.462000+00:00</time>
      </trkpt>
      <trkpt lat="0" lon="0">
        <time>2020-12-06T08:25:43.480000+00:00</time>
      </trkpt>
      <trkpt lat="0" lon="0">
        <time>2020-12-06T08:25:43.483000+00:00</time>
      </trkpt>
      <trkpt lat="47.31946" lon="-1.32">
        <ele>9</ele>
        <time>2020-12-06T08:25:44.444000+00:00</time>
      </trkpt>
      <trkpt lat="0" lon="0">
        <time>2020-12-06T08:25:44.448000+00:00</time>
      </trkpt>
      <trkpt lat="0" lon="0">
        <time>2020-12-06T08:25:44.461000+00:00</time>
      </trkpt>
      <trkpt lat="0" lon="0">
        <time>2020-12-06T08:25:44.463000+00:00</time>
      </trkpt>
      <trkpt lat="47.31942" lon="-1.32001">
        <ele>9</ele>
        <time>2020-12-06T08:25:45.440000+00:00</time>
      </trkpt>
      <trkpt lat="0" lon="0">
        <time>2020-12-06T08:25:45.443000+00:00</time>
      </trkpt>
      <trkpt lat="0" lon="0">
        <time>2020-12-06T08:25:45.448000+00:00</time>
      </trkpt>
      <trkpt lat="0" lon="0">
        <time>2020-12-06T08:25:45.450000+00:00</time>
      </trkpt>
      <trkpt lat="47.31937" lon="-1.32003">
        <ele>9</ele>
        <time>2020-12-06T08:25:46.427000+00:00</time>
      </trkpt>
      <trkpt lat="0" lon="0">
        <time>2020-12-06T08:25:46.436000+00:00</time>
      </trkpt>
      <trkpt lat="0" lon="0">
        <time>2020-12-06T08:25:46.447000+00:00</time>
      </trkpt>
      <trkpt lat="0" lon="0">
        <time>2020-12-06T08:25:46.449000+00:00</time>
      </trkpt>
      <trkpt lat="47.31932" lon="-1.32004">
        <ele>9</ele>
        <time>2020-12-06T08:25:47.466000+00:00</time>
      </trkpt>
      <trkpt lat="0" lon="0">
        <time>2020-12-06T08:25:47.473000+00:00</time>
      </trkpt>
      <trkpt lat="0" lon="0">
        <time>2020-12-06T08:25:47.477000+00:00</time>
      </trkpt>
      <trkpt lat="0" lon="0">
        <time>2020-12-06T08:25:47.479000+00:00</time>
      </trkpt>
      <trkpt lat="47.31926" lon="-1.32005">
        <ele>9</ele>
        <time>2020-12-06T08:25:48.440000+00:00</time>
      </trkpt>
      <trkpt lat="0" lon="0">
        <time>2020-12-06T08:25:48.444000+00:00</time>
      </trkpt>
      <trkpt lat="0" lon="0">
        <time>2020-12-06T08:25:48.453000+00:00</time>
      </trkpt>
      <trkpt lat="0" lon="0">
        <time>2020-12-06T08:25:48.456000+00:00</time>
      </trkpt>
      <trkpt lat="47.31921" lon="-1.32006">
        <ele>9</ele>
        <time>2020-12-06T08:25:49.468000+00:00</time>
      </trkpt>
      <trkpt lat="0" lon="0">
        <time>2020-12-06T08:25:49.476000+00:00</time>
      </trkpt>
      <trkpt lat="0" lon="0">
        <time>2020-12-06T08:25:49.485000+00:00</time>
      </trkpt>
      <trkpt lat="0" lon="0">
        <time>2020-12-06T08:25:49.487000+00:00</time>
      </trkpt>
      <trkpt lat="47.31915" lon="-1.32007">
        <ele>9</ele>
        <time>2020-12-06T08:25:50.450000+00:00</time>
      </trkpt>
      <trkpt lat="0" lon="0">
        <time>2020-12-06T08:25:50.458000+00:00</time>
      </trkpt>
      <trkpt lat="0" lon="0">
        <time>2020-12-06T08:25:50.470000+00:00</time>
      </trkpt>
      <trkpt lat="0" lon="0">
        <time>2020-12-06T08:25:50.474000+00:00</time>
      </trkpt>
      <trkpt lat="47.31909" lon="-1.32007">
        <ele>9</ele>
        <time>2020-12-06T08:25:51.433000+00:00</time>
      </trkpt>
      <trkpt lat="0" lon="0">
        <time>2020-12-06T08:25:51.436000+00:00</time>
      </trkpt>
      <trkpt lat="0" lon="0">
        <time>2020-12-06T08:25:51.441000+00:00</time>
      </trkpt>
      <trkpt lat="0" lon="0">
        <time>2020-12-06T08:25:51.442000+00:00</time>
      </trkpt>
      <trkpt lat="47.31904" lon="-1.32007">
        <ele>9</ele>
        <time>2020-12-06T08:25:52.485000+00:00</time>
      </trkpt>
      <trkpt lat="0" lon="0">
        <time>2020-12-06T08:25:52.495000+00:00</time>
      </trkpt>
      <trkpt lat="0" lon="0">
        <time>2020-12-06T08:25:52.499000+00:00</time>
      </trkpt>
      <trkpt lat="0" lon="0">
        <time>2020-12-06T08:25:52.501000+00:00</time>
      </trkpt>
      <trkpt lat="47.31898" lon="-1.32006">
        <ele>9</ele>
        <time>2020-12-06T08:25:53.470000+00:00</time>
      </trkpt>
      <trkpt lat="0" lon="0">
        <time>2020-12-06T08:25:53.477000+00:00</time>
      </trkpt>
      <trkpt lat="0" lon="0">
        <time>2020-12-06T08:25:53.498000+00:00</time>
      </trkpt>
      <trkpt lat="0" lon="0">
        <time>2020-12-06T08:25:53.501000+00:00</time>
      </trkpt>
      <trkpt lat="47.31892" lon="-1.32005">
        <ele>9</ele>
        <time>2020-12-06T08:25:54.466000+00:00</time>
      </trkpt>
      <trkpt lat="0" lon="0">
        <time>2020-12-06T08:25:54.490000+00:00</time>
      </trkpt>
      <trkpt lat="0" lon="0">
        <time>2020-12-06T08:25:54.493000+00:00</time>
      </trkpt>
      <trkpt lat="0" lon="0">
        <time>2020-12-06T08:25:54.495000+00:00</time>
      </trkpt>
      <trkpt lat="47.31886" lon="-1.32004">
        <ele>10</ele>
        <time>2020-12-06T08:25:55.425000+00:00</time>
      </trkpt>
      <trkpt lat="0" lon="0">
        <time>2020-12-06T08:25:55.429000+00:00</time>
      </trkpt>
      <trkpt lat="0" lon="0">
        <time>2020-12-06T08:25:55.440000+00:00</time>
      </trkpt>
      <trkpt lat="0" lon="0">
        <time>2020-12-06T08:25:55.442000+00:00</time>
      </trkpt>
      <trkpt lat="47.31881" lon="-1.32002">
        <ele>10</ele>
        <time>2020-12-06T08:25:56.478000+00:00</time>
      </trkpt>
      <trkpt lat="0" lon="0">
        <time>2020-12-06T08:25:56.480000+00:00</time>
      </trkpt>
      <trkpt lat="0" lon="0">
        <time>2020-12-06T08:25:56.488000+00:00</time>
      </trkpt>
      <trkpt lat="0" lon="0">
        <time>2020-12-06T08:25:56.492000+00:00</time>
      </trkpt>
      <trkpt lat="47.31875" lon="-1.31999">
        <ele>10</ele>
        <time>2020-12-06T08:25:57.430000+00:00</time>
      </trkpt>
      <trkpt lat="0" lon="0">
        <time>2020-12-06T08:25:57.446000+00:00</time>
      </trkpt>
      <trkpt lat="0" lon="0">
        <time>2020-12-06T08:25:57.451000+00:00</time>
      </trkpt>
      <trkpt lat="0" lon="0">
        <time>2020-12-06T08:25:57.453000+00:00</time>
      </trkpt>
      <trkpt lat="47.3187" lon="-1.31997">
        <ele>10</ele>
        <time>2020-12-06T08:25:58.420000+00:00</time>
      </trkpt>
      <trkpt lat="0" lon="0">
        <time>2020-12-06T08:25:58.433000+00:00</time>
      </trkpt>
      <trkpt lat="0" lon="0">
        <time>2020-12-06T08:25:58.445000+00:00</time>
      </trkpt>
      <trkpt lat="0" lon="0">
        <time>2020-12-06T08:25:58.448000+00:00</time>
      </trkpt>
      <trkpt lat="47.31864" lon="-1.31993">
        <ele>11</ele>
        <time>2020-12-06T08:25:59.427000+00:00</time>
      </trkpt>
      <trkpt lat="0" lon="0">
        <time>2020-12-06T08:25:59.431000+00:00</time>
      </trkpt>
      <trkpt lat="0" lon="0">
        <time>2020-12-06T08:25:59.439000+00:00</time>
      </trkpt>
      <trkpt lat="0" lon="0">
        <time>2020-12-06T08:25:59.444000+00:00</time>
      </trkpt>
      <trkpt lat="47.31859" lon="-1.3199">
        <ele>11</ele>
        <time>2020-12-06T08:26:00.435000+00:00</time>
      </trkpt>
      <trkpt lat="0" lon="0">
        <time>2020-12-06T08:26:00.440000+00:00</time>
      </trkpt>
      <trkpt lat="0" lon="0">
        <time>2020-12-06T08:26:00.454000+00:00</time>
      </trkpt>
      <trkpt lat="0" lon="0">
        <time>2020-12-06T08:26:00.459000+00:00</time>
      </trkpt>
      <trkpt lat="47.31853" lon="-1.31986">
        <ele>11</ele>
        <time>2020-12-06T08:26:01.430000+00:00</time>
      </trkpt>
      <trkpt lat="0" lon="0">
        <time>2020-12-06T08:26:01.446000+00:00</time>
      </trkpt>
      <trkpt lat="0" lon="0">
        <time>2020-12-06T08:26:01.457000+00:00</time>
      </trkpt>
      <trkpt lat="0" lon="0">
        <time>2020-12-06T08:26:01.458000+00:00</time>
      </trkpt>
      <trkpt lat="47.31848" lon="-1.31982">
        <ele>12</ele>
        <time>2020-12-06T08:26:02.396000+00:00</time>
      </trkpt>
      <trkpt lat="0" lon="0">
        <time>2020-12-06T08:26:02.416000+00:00</time>
      </trkpt>
      <trkpt lat="0" lon="0">
        <time>2020-12-06T08:26:02.422000+00:00</time>
      </trkpt>
      <trkpt lat="0" lon="0">
        <time>2020-12-06T08:26:02.426000+00:00</time>
      </trkpt>
      <trkpt lat="47.31843" lon="-1.31978">
        <ele>12</ele>
        <time>2020-12-06T08:26:03.400000+00:00</time>
      </trkpt>
      <trkpt lat="0" lon="0">
        <time>2020-12-06T08:26:03.404000+00:00</time>
      </trkpt>
      <trkpt lat="0" lon="0">
        <time>2020-12-06T08:26:03.408000+00:00</time>
      </trkpt>
      <trkpt lat="0" lon="0">
        <time>2020-12-06T08:26:03.410000+00:00</time>
      </trkpt>
      <trkpt lat="47.31838" lon="-1.31974">
        <ele>12</ele>
        <time>2020-12-06T08:26:04.401000+00:00</time>
      </trkpt>
      <trkpt lat="0" lon="0">
        <time>2020-12-06T08:26:04.404000+00:00</time>
      </trkpt>
      <trkpt lat="0" lon="0">
        <time>2020-12-06T08:26:04.405000+00:00</time>
      </trkpt>
      <trkpt lat="0" lon="0">
        <time>2020-12-06T08:26:04.406000+00:00</time>
      </trkpt>
      <trkpt lat="47.31834" lon="-1.3197">
        <ele>13</ele>
        <time>2020-12-06T08:26:05.475000+00:00</time>
      </trkpt>
      <trkpt lat="0" lon="0">
        <time>2020-12-06T08:26:05.490000+00:00</time>
      </trkpt>
      <trkpt lat="0" lon="0">
        <time>2020-12-06T08:26:05.496000+00:00</time>
      </trkpt>
      <trkpt lat="0" lon="0">
        <time>2020-12-06T08:26:05.498000+00:00</time>
      </trkpt>
      <trkpt lat="47.31829" lon="-1.31966">
        <ele>14</ele>
        <time>2020-12-06T08:26:06.438000+00:00</time>
      </trkpt>
      <trkpt lat="0" lon="0">
        <time>2020-12-06T08:26:06.453000+00:00</time>
      </trkpt>
      <trkpt lat="0" lon="0">
        <time>2020-12-06T08:26:06.456000+00:00</time>
      </trkpt>
      <trkpt lat="0" lon="0">
        <time>2020-12-06T08:26:06.458000+00:00</time>
      </trkpt>
      <trkpt lat="47.31825" lon="-1.31963">
        <ele>15</ele>
        <time>2020-12-06T08:26:07.412000+00:00</time>
      </trkpt>
      <trkpt lat="0" lon="0">
        <time>2020-12-06T08:26:07.415000+00:00</time>
      </trkpt>
      <trkpt lat="0" lon="0">
        <time>2020-12-06T08:26:07.422000+00:00</time>
      </trkpt>
      <trkpt lat="0" lon="0">
        <time>2020-12-06T08:26:07.424000+00:00</time>
      </trkpt>
      <trkpt lat="47.31821" lon="-1.31959">
        <ele>16</ele>
        <time>2020-12-06T08:26:08.446000+00:00</time>
      </trkpt>
      <trkpt lat="0" lon="0">
        <time>2020-12-06T08:26:08.454000+00:00</time>
      </trkpt>
      <trkpt lat="0" lon="0">
        <time>2020-12-06T08:26:08.471000+00:00</time>
      </trkpt>
      <trkpt lat="0" lon="0">
        <time>2020-12-06T08:26:08.473000+00:00</time>
      </trkpt>
      <trkpt lat="47.31817" lon="-1.31955">
        <ele>17</ele>
        <time>2020-12-06T08:26:09.415000+00:00</time>
      </trkpt>
      <trkpt lat="0" lon="0">
        <time>2020-12-06T08:26:09.435000+00:00</time>
      </trkpt>
      <trkpt lat="0" lon="0">
        <time>2020-12-06T08:26:09.441000+00:00</time>
      </trkpt>
      <trkpt lat="0" lon="0">
        <time>2020-12-06T08:26:09.442000+00:00</time>
      </trkpt>
      <trkpt lat="47.31814" lon="-1.31951">
        <ele>18</ele>
        <time>2020-12-06T08:26:10.416000+00:00</time>
      </trkpt>
      <trkpt lat="0" lon="0">
        <time>2020-12-06T08:26:10.421000+00:00</time>
      </trkpt>
      <trkpt lat="0" lon="0">
        <time>2020-12-06T08:26:10.433000+00:00</time>
      </trkpt>
      <trkpt lat="0" lon="0">
        <time>2020-12-06T08:26:10.435000+00:00</time>
      </trkpt>
      <trkpt lat="47.31812" lon="-1.31947">
        <ele>18</ele>
        <time>2020-12-06T08:26:11.310000+00:00</time>
      </trkpt>
      <trkpt lat="0" lon="0">
        <time>2020-12-06T08:26:11.314000+00:00</time>
      </trkpt>
      <trkpt lat="0" lon="0">
        <time>2020-12-06T08:26:11.318000+00:00</time>
      </trkpt>
      <trkpt lat="0" lon="0">
        <time>2020-12-06T08:26:11.321000+00:00</time>
      </trkpt>
      <trkpt lat="47.31811" lon="-1.31941">
        <ele>19</ele>
        <time>2020-12-06T08:26:12.401000+00:00</time>
      </trkpt>
      <trkpt lat="0" lon="0">
        <time>2020-12-06T08:26:12.407000+00:00</time>
      </trkpt>
      <trkpt lat="0" lon="0">
        <time>2020-12-06T08:26:12.421000+00:00</time>
      </trkpt>
      <trkpt lat="0" lon="0">
        <time>2020-12-06T08:26:12.423000+00:00</time>
      </trkpt>
      <trkpt lat="47.31811" lon="-1.31936">
        <ele>19</ele>
        <time>2020-12-06T08:26:13.421000+00:00</time>
      </trkpt>
      <trkpt lat="0" lon="0">
        <time>2020-12-06T08:26:13.437000+00:00</time>
      </trkpt>
      <trkpt lat="0" lon="0">
        <time>2020-12-06T08:26:13.441000+00:00</time>
      </trkpt>
      <trkpt lat="0" lon="0">
        <time>2020-12-06T08:26:13.443000+00:00</time>
      </trkpt>
      <trkpt lat="47.31812" lon="-1.31929">
        <ele>19</ele>
        <time>2020-12-06T08:26:14.429000+00:00</time>
      </trkpt>
      <trkpt lat="0" lon="0">
        <time>2020-12-06T08:26:14.432000+00:00</time>
      </trkpt>
      <trkpt lat="0" lon="0">
        <time>2020-12-06T08:26:14.437000+00:00</time>
      </trkpt>
      <trkpt lat="0" lon="0">
        <time>2020-12-06T08:26:14.445000+00:00</time>
      </trkpt>
      <trkpt lat="47.31813" lon="-1.31922">
        <ele>19</ele>
        <time>2020-12-06T08:26:15.399000+00:00</time>
      </trkpt>
      <trkpt lat="0" lon="0">
        <time>2020-12-06T08:26:15.412000+00:00</time>
      </trkpt>
      <trkpt lat="0" lon="0">
        <time>2020-12-06T08:26:15.423000+00:00</time>
      </trkpt>
      <trkpt lat="0" lon="0">
        <time>2020-12-06T08:26:15.425000+00:00</time>
      </trkpt>
      <trkpt lat="47.31814" lon="-1.31914">
        <ele>19</ele>
        <time>2020-12-06T08:26:16.353000+00:00</time>
      </trkpt>
      <trkpt lat="0" lon="0">
        <time>2020-12-06T08:26:16.360000+00:00</time>
      </trkpt>
      <trkpt lat="0" lon="0">
        <time>2020-12-06T08:26:16.362000+00:00</time>
      </trkpt>
      <trkpt lat="0" lon="0">
        <time>2020-12-06T08:26:16.364000+00:00</time>
      </trkpt>
      <trkpt lat="47.31816" lon="-1.31905">
        <ele>19</ele>
        <time>2020-12-06T08:26:17.428000+00:00</time>
      </trkpt>
      <trkpt lat="0" lon="0">
        <time>2020-12-06T08:26:17.437000+00:00</time>
      </trkpt>
      <trkpt lat="0" lon="0">
        <time>2020-12-06T08:26:17.446000+00:00</time>
      </trkpt>
      <trkpt lat="0" lon="0">
        <time>2020-12-06T08:26:17.448000+00:00</time>
      </trkpt>
      <trkpt lat="47.31819" lon="-1.31896">
        <ele>18</ele>
        <time>2020-12-06T08:26:18.396000+00:00</time>
      </trkpt>
      <trkpt lat="0" lon="0">
        <time>2020-12-06T08:26:18.410000+00:00</time>
      </trkpt>
      <trkpt lat="0" lon="0">
        <time>2020-12-06T08:26:18.413000+00:00</time>
      </trkpt>
      <trkpt lat="0" lon="0">
        <time>2020-12-06T08:26:18.415000+00:00</time>
      </trkpt>
      <trkpt lat="47.31821" lon="-1.31887">
        <ele>18</ele>
        <time>2020-12-06T08:26:19.403000+00:00</time>
      </trkpt>
      <trkpt lat="0" lon="0">
        <time>2020-12-06T08:26:19.408000+00:00</time>
      </trkpt>
      <trkpt lat="0" lon="0">
        <time>2020-12-06T08:26:19.412000+00:00</time>
      </trkpt>
      <trkpt lat="0" lon="0">
        <time>2020-12-06T08:26:19.413000+00:00</time>
      </trkpt>
      <trkpt lat="47.31824" lon="-1.31877">
        <ele>17</ele>
        <time>2020-12-06T08:26:20.421000+00:00</time>
      </trkpt>
      <trkpt lat="0" lon="0">
        <time>2020-12-06T08:26:20.428000+00:00</time>
      </trkpt>
      <trkpt lat="0" lon="0">
        <time>2020-12-06T08:26:20.440000+00:00</time>
      </trkpt>
      <trkpt lat="0" lon="0">
        <time>2020-12-06T08:26:20.442000+00:00</time>
      </trkpt>
      <trkpt lat="47.31828" lon="-1.31867">
        <ele>17</ele>
        <time>2020-12-06T08:26:21.466000+00:00</time>
      </trkpt>
      <trkpt lat="0" lon="0">
        <time>2020-12-06T08:26:21.477000+00:00</time>
      </trkpt>
      <trkpt lat="0" lon="0">
        <time>2020-12-06T08:26:21.482000+00:00</time>
      </trkpt>
      <trkpt lat="0" lon="0">
        <time>2020-12-06T08:26:21.484000+00:00</time>
      </trkpt>
      <trkpt lat="47.31831" lon="-1.31858">
        <ele>17</ele>
        <time>2020-12-06T08:26:22.433000+00:00</time>
      </trkpt>
      <trkpt lat="0" lon="0">
        <time>2020-12-06T08:26:22.444000+00:00</time>
      </trkpt>
      <trkpt lat="0" lon="0">
        <time>2020-12-06T08:26:22.448000+00:00</time>
      </trkpt>
      <trkpt lat="0" lon="0">
        <time>2020-12-06T08:26:22.450000+00:00</time>
      </trkpt>
      <trkpt lat="47.31834" lon="-1.31848">
        <ele>16</ele>
        <time>2020-12-06T08:26:23.419000+00:00</time>
      </trkpt>
      <trkpt lat="0" lon="0">
        <time>2020-12-06T08:26:23.427000+00:00</time>
      </trkpt>
      <trkpt lat="0" lon="0">
        <time>2020-12-06T08:26:23.441000+00:00</time>
      </trkpt>
      <trkpt lat="0" lon="0">
        <time>2020-12-06T08:26:23.445000+00:00</time>
      </trkpt>
      <trkpt lat="47.31837" lon="-1.31838">
        <ele>16</ele>
        <time>2020-12-06T08:26:24.396000+00:00</time>
      </trkpt>
      <trkpt lat="0" lon="0">
        <time>2020-12-06T08:26:24.408000+00:00</time>
      </trkpt>
      <trkpt lat="0" lon="0">
        <time>2020-12-06T08:26:24.416000+00:00</time>
      </trkpt>
      <trkpt lat="0" lon="0">
        <time>2020-12-06T08:26:24.423000+00:00</time>
      </trkpt>
      <trkpt lat="47.3184" lon="-1.31828">
        <ele>16</ele>
        <time>2020-12-06T08:26:25.412000+00:00</time>
      </trkpt>
      <trkpt lat="0" lon="0">
        <time>2020-12-06T08:26:25.425000+00:00</time>
      </trkpt>
      <trkpt lat="0" lon="0">
        <time>2020-12-06T08:26:25.431000+00:00</time>
      </trkpt>
      <trkpt lat="0" lon="0">
        <time>2020-12-06T08:26:25.434000+00:00</time>
      </trkpt>
      <trkpt lat="47.31843" lon="-1.31819">
        <ele>16</ele>
        <time>2020-12-06T08:26:26.408000+00:00</time>
      </trkpt>
      <trkpt lat="0" lon="0">
        <time>2020-12-06T08:26:26.418000+00:00</time>
      </trkpt>
      <trkpt lat="0" lon="0">
        <time>2020-12-06T08:26:26.420000+00:00</time>
      </trkpt>
      <trkpt lat="0" lon="0">
        <time>2020-12-06T08:26:26.422000+00:00</time>
      </trkpt>
      <trkpt lat="47.31846" lon="-1.31809">
        <ele>16</ele>
        <time>2020-12-06T08:26:27.404000+00:00</time>
      </trkpt>
      <trkpt lat="0" lon="0">
        <time>2020-12-06T08:26:27.437000+00:00</time>
      </trkpt>
      <trkpt lat="0" lon="0">
        <time>2020-12-06T08:26:27.442000+00:00</time>
      </trkpt>
      <trkpt lat="0" lon="0">
        <time>2020-12-06T08:26:27.444000+00:00</time>
      </trkpt>
      <trkpt lat="47.31849" lon="-1.318">
        <ele>16</ele>
        <time>2020-12-06T08:26:28.414000+00:00</time>
      </trkpt>
      <trkpt lat="0" lon="0">
        <time>2020-12-06T08:26:28.424000+00:00</time>
      </trkpt>
      <trkpt lat="0" lon="0">
        <time>2020-12-06T08:26:28.428000+00:00</time>
      </trkpt>
      <trkpt lat="0" lon="0">
        <time>2020-12-06T08:26:28.429000+00:00</time>
      </trkpt>
      <trkpt lat="47.31851" lon="-1.3179">
        <ele>16</ele>
        <time>2020-12-06T08:26:29.406000+00:00</time>
      </trkpt>
      <trkpt lat="0" lon="0">
        <time>2020-12-06T08:26:29.414000+00:00</time>
      </trkpt>
      <trkpt lat="0" lon="0">
        <time>2020-12-06T08:26:29.418000+00:00</time>
      </trkpt>
      <trkpt lat="0" lon="0">
        <time>2020-12-06T08:26:29.420000+00:00</time>
      </trkpt>
      <trkpt lat="47.31854" lon="-1.31781">
        <ele>16</ele>
        <time>2020-12-06T08:26:30.423000+00:00</time>
      </trkpt>
      <trkpt lat="0" lon="0">
        <time>2020-12-06T08:26:30.426000+00:00</time>
      </trkpt>
      <trkpt lat="0" lon="0">
        <time>2020-12-06T08:26:30.429000+00:00</time>
      </trkpt>
      <trkpt lat="0" lon="0">
        <time>2020-12-06T08:26:30.431000+00:00</time>
      </trkpt>
      <trkpt lat="47.31856" lon="-1.31772">
        <ele>16</ele>
        <time>2020-12-06T08:26:31.434000+00:00</time>
      </trkpt>
      <trkpt lat="0" lon="0">
        <time>2020-12-06T08:26:31.445000+00:00</time>
      </trkpt>
      <trkpt lat="0" lon="0">
        <time>2020-12-06T08:26:31.449000+00:00</time>
      </trkpt>
      <trkpt lat="0" lon="0">
        <time>2020-12-06T08:26:31.451000+00:00</time>
      </trkpt>
      <trkpt lat="47.31858" lon="-1.31763">
        <ele>16</ele>
        <time>2020-12-06T08:26:32.394000+00:00</time>
      </trkpt>
      <trkpt lat="0" lon="0">
        <time>2020-12-06T08:26:32.409000+00:00</time>
      </trkpt>
      <trkpt lat="0" lon="0">
        <time>2020-12-06T08:26:32.413000+00:00</time>
      </trkpt>
      <trkpt lat="0" lon="0">
        <time>2020-12-06T08:26:32.416000+00:00</time>
      </trkpt>
      <trkpt lat="47.3186" lon="-1.31754">
        <ele>16</ele>
        <time>2020-12-06T08:26:33.420000+00:00</time>
      </trkpt>
      <trkpt lat="0" lon="0">
        <time>2020-12-06T08:26:33.442000+00:00</time>
      </trkpt>
      <trkpt lat="0" lon="0">
        <time>2020-12-06T08:26:33.448000+00:00</time>
      </trkpt>
      <trkpt lat="0" lon="0">
        <time>2020-12-06T08:26:33.455000+00:00</time>
      </trkpt>
      <trkpt lat="47.31861" lon="-1.31745">
        <ele>16</ele>
        <time>2020-12-06T08:26:34.472000+00:00</time>
      </trkpt>
      <trkpt lat="0" lon="0">
        <time>2020-12-06T08:26:34.481000+00:00</time>
      </trkpt>
      <trkpt lat="0" lon="0">
        <time>2020-12-06T08:26:34.486000+00:00</time>
      </trkpt>
      <trkpt lat="0" lon="0">
        <time>2020-12-06T08:26:34.497000+00:00</time>
      </trkpt>
      <trkpt lat="47.31863" lon="-1.31736">
        <ele>16</ele>
        <time>2020-12-06T08:26:35.417000+00:00</time>
      </trkpt>
      <trkpt lat="0" lon="0">
        <time>2020-12-06T08:26:35.426000+00:00</time>
      </trkpt>
      <trkpt lat="0" lon="0">
        <time>2020-12-06T08:26:35.430000+00:00</time>
      </trkpt>
      <trkpt lat="0" lon="0">
        <time>2020-12-06T08:26:35.432000+00:00</time>
      </trkpt>
      <trkpt lat="47.31864" lon="-1.31728">
        <ele>16</ele>
        <time>2020-12-06T08:26:36.446000+00:00</time>
      </trkpt>
      <trkpt lat="0" lon="0">
        <time>2020-12-06T08:26:36.454000+00:00</time>
      </trkpt>
      <trkpt lat="0" lon="0">
        <time>2020-12-06T08:26:36.459000+00:00</time>
      </trkpt>
      <trkpt lat="0" lon="0">
        <time>2020-12-06T08:26:36.461000+00:00</time>
      </trkpt>
      <trkpt lat="47.31865" lon="-1.31719">
        <ele>16</ele>
        <time>2020-12-06T08:26:37.456000+00:00</time>
      </trkpt>
      <trkpt lat="0" lon="0">
        <time>2020-12-06T08:26:37.463000+00:00</time>
      </trkpt>
      <trkpt lat="0" lon="0">
        <time>2020-12-06T08:26:37.467000+00:00</time>
      </trkpt>
      <trkpt lat="0" lon="0">
        <time>2020-12-06T08:26:37.469000+00:00</time>
      </trkpt>
      <trkpt lat="47.31866" lon="-1.31711">
        <ele>16</ele>
        <time>2020-12-06T08:26:38.417000+00:00</time>
      </trkpt>
      <trkpt lat="0" lon="0">
        <time>2020-12-06T08:26:38.427000+00:00</time>
      </trkpt>
      <trkpt lat="0" lon="0">
        <time>2020-12-06T08:26:38.434000+00:00</time>
      </trkpt>
      <trkpt lat="0" lon="0">
        <time>2020-12-06T08:26:38.454000+00:00</time>
      </trkpt>
      <trkpt lat="47.31866" lon="-1.31702">
        <ele>16</ele>
        <time>2020-12-06T08:26:39.442000+00:00</time>
      </trkpt>
      <trkpt lat="0" lon="0">
        <time>2020-12-06T08:26:39.446000+00:00</time>
      </trkpt>
      <trkpt lat="0" lon="0">
        <time>2020-12-06T08:26:39.455000+00:00</time>
      </trkpt>
      <trkpt lat="0" lon="0">
        <time>2020-12-06T08:26:39.457000+00:00</time>
      </trkpt>
      <trkpt lat="47.31866" lon="-1.31694">
        <ele>16</ele>
        <time>2020-12-06T08:26:40.442000+00:00</time>
      </trkpt>
      <trkpt lat="0" lon="0">
        <time>2020-12-06T08:26:40.446000+00:00</time>
      </trkpt>
      <trkpt lat="0" lon="0">
        <time>2020-12-06T08:26:40.457000+00:00</time>
      </trkpt>
      <trkpt lat="0" lon="0">
        <time>2020-12-06T08:26:40.459000+00:00</time>
      </trkpt>
      <trkpt lat="47.31866" lon="-1.31685">
        <ele>16</ele>
        <time>2020-12-06T08:26:41.394000+00:00</time>
      </trkpt>
      <trkpt lat="0" lon="0">
        <time>2020-12-06T08:26:41.407000+00:00</time>
      </trkpt>
      <trkpt lat="0" lon="0">
        <time>2020-12-06T08:26:41.410000+00:00</time>
      </trkpt>
      <trkpt lat="0" lon="0">
        <time>2020-12-06T08:26:41.412000+00:00</time>
      </trkpt>
      <trkpt lat="47.31865" lon="-1.31677">
        <ele>17</ele>
        <time>2020-12-06T08:26:42.434000+00:00</time>
      </trkpt>
      <trkpt lat="0" lon="0">
        <time>2020-12-06T08:26:42.438000+00:00</time>
      </trkpt>
      <trkpt lat="0" lon="0">
        <time>2020-12-06T08:26:42.445000+00:00</time>
      </trkpt>
      <trkpt lat="0" lon="0">
        <time>2020-12-06T08:26:42.454000+00:00</time>
      </trkpt>
      <trkpt lat="47.31865" lon="-1.31668">
        <ele>17</ele>
        <time>2020-12-06T08:26:43.443000+00:00</time>
      </trkpt>
      <trkpt lat="0" lon="0">
        <time>2020-12-06T08:26:43.451000+00:00</time>
      </trkpt>
      <trkpt lat="0" lon="0">
        <time>2020-12-06T08:26:43.463000+00:00</time>
      </trkpt>
      <trkpt lat="0" lon="0">
        <time>2020-12-06T08:26:43.466000+00:00</time>
      </trkpt>
      <trkpt lat="47.31864" lon="-1.3166">
        <ele>17</ele>
        <time>2020-12-06T08:26:44.433000+00:00</time>
      </trkpt>
      <trkpt lat="0" lon="0">
        <time>2020-12-06T08:26:44.446000+00:00</time>
      </trkpt>
      <trkpt lat="0" lon="0">
        <time>2020-12-06T08:26:44.455000+00:00</time>
      </trkpt>
      <trkpt lat="0" lon="0">
        <time>2020-12-06T08:26:44.459000+00:00</time>
      </trkpt>
      <trkpt lat="47.31864" lon="-1.31651">
        <ele>17</ele>
        <time>2020-12-06T08:26:45.417000+00:00</time>
      </trkpt>
      <trkpt lat="0" lon="0">
        <time>2020-12-06T08:26:45.428000+00:00</time>
      </trkpt>
      <trkpt lat="0" lon="0">
        <time>2020-12-06T08:26:45.433000+00:00</time>
      </trkpt>
      <trkpt lat="0" lon="0">
        <time>2020-12-06T08:26:45.435000+00:00</time>
      </trkpt>
      <trkpt lat="47.31864" lon="-1.31643">
        <ele>17</ele>
        <time>2020-12-06T08:26:46.381000+00:00</time>
      </trkpt>
      <trkpt lat="0" lon="0">
        <time>2020-12-06T08:26:46.399000+00:00</time>
      </trkpt>
      <trkpt lat="0" lon="0">
        <time>2020-12-06T08:26:46.406000+00:00</time>
      </trkpt>
      <trkpt lat="0" lon="0">
        <time>2020-12-06T08:26:46.411000+00:00</time>
      </trkpt>
      <trkpt lat="47.31864" lon="-1.31635">
        <ele>16</ele>
        <time>2020-12-06T08:26:47.441000+00:00</time>
      </trkpt>
      <trkpt lat="0" lon="0">
        <time>2020-12-06T08:26:47.449000+00:00</time>
      </trkpt>
      <trkpt lat="0" lon="0">
        <time>2020-12-06T08:26:47.453000+00:00</time>
      </trkpt>
      <trkpt lat="0" lon="0">
        <time>2020-12-06T08:26:47.455000+00:00</time>
      </trkpt>
      <trkpt lat="47.31865" lon="-1.31626">
        <ele>16</ele>
        <time>2020-12-06T08:26:48.395000+00:00</time>
      </trkpt>
      <trkpt lat="0" lon="0">
        <time>2020-12-06T08:26:48.401000+00:00</time>
      </trkpt>
      <trkpt lat="0" lon="0">
        <time>2020-12-06T08:26:48.403000+00:00</time>
      </trkpt>
      <trkpt lat="47.31866" lon="-1.31618">
        <ele>16</ele>
        <time>2020-12-06T08:26:49.425000+00:00</time>
      </trkpt>
      <trkpt lat="0" lon="0">
        <time>2020-12-06T08:26:49.433000+00:00</time>
      </trkpt>
      <trkpt lat="0" lon="0">
        <time>2020-12-06T08:26:49.437000+00:00</time>
      </trkpt>
      <trkpt lat="0" lon="0">
        <time>2020-12-06T08:26:49.441000+00:00</time>
      </trkpt>
      <trkpt lat="47.31867" lon="-1.3161">
        <ele>16</ele>
        <time>2020-12-06T08:26:50.409000+00:00</time>
      </trkpt>
      <trkpt lat="0" lon="0">
        <time>2020-12-06T08:26:50.417000+00:00</time>
      </trkpt>
      <trkpt lat="0" lon="0">
        <time>2020-12-06T08:26:50.423000+00:00</time>
      </trkpt>
      <trkpt lat="0" lon="0">
        <time>2020-12-06T08:26:50.425000+00:00</time>
      </trkpt>
      <trkpt lat="47.31869" lon="-1.31601">
        <ele>16</ele>
        <time>2020-12-06T08:26:51.412000+00:00</time>
      </trkpt>
      <trkpt lat="0" lon="0">
        <time>2020-12-06T08:26:51.417000+00:00</time>
      </trkpt>
      <trkpt lat="0" lon="0">
        <time>2020-12-06T08:26:51.424000+00:00</time>
      </trkpt>
      <trkpt lat="0" lon="0">
        <time>2020-12-06T08:26:51.431000+00:00</time>
      </trkpt>
      <trkpt lat="47.3187" lon="-1.31593">
        <ele>15</ele>
        <time>2020-12-06T08:26:52.441000+00:00</time>
      </trkpt>
      <trkpt lat="0" lon="0">
        <time>2020-12-06T08:26:52.450000+00:00</time>
      </trkpt>
      <trkpt lat="0" lon="0">
        <time>2020-12-06T08:26:52.453000+00:00</time>
      </trkpt>
      <trkpt lat="0" lon="0">
        <time>2020-12-06T08:26:52.455000+00:00</time>
      </trkpt>
      <trkpt lat="47.31872" lon="-1.31584">
        <ele>15</ele>
        <time>2020-12-06T08:26:53.429000+00:00</time>
      </trkpt>
      <trkpt lat="0" lon="0">
        <time>2020-12-06T08:26:53.439000+00:00</time>
      </trkpt>
      <trkpt lat="0" lon="0">
        <time>2020-12-06T08:26:53.447000+00:00</time>
      </trkpt>
      <trkpt lat="0" lon="0">
        <time>2020-12-06T08:26:53.451000+00:00</time>
      </trkpt>
      <trkpt lat="47.31874" lon="-1.31576">
        <ele>15</ele>
        <time>2020-12-06T08:26:54.404000+00:00</time>
      </trkpt>
      <trkpt lat="0" lon="0">
        <time>2020-12-06T08:26:54.410000+00:00</time>
      </trkpt>
      <trkpt lat="0" lon="0">
        <time>2020-12-06T08:26:54.413000+00:00</time>
      </trkpt>
      <trkpt lat="0" lon="0">
        <time>2020-12-06T08:26:54.414000+00:00</time>
      </trkpt>
      <trkpt lat="47.31876" lon="-1.31567">
        <ele>15</ele>
        <time>2020-12-06T08:26:55.429000+00:00</time>
      </trkpt>
      <trkpt lat="0" lon="0">
        <time>2020-12-06T08:26:55.443000+00:00</time>
      </trkpt>
      <trkpt lat="0" lon="0">
        <time>2020-12-06T08:26:55.448000+00:00</time>
      </trkpt>
      <trkpt lat="0" lon="0">
        <time>2020-12-06T08:26:55.451000+00:00</time>
      </trkpt>
      <trkpt lat="47.31879" lon="-1.31559">
        <ele>16</ele>
        <time>2020-12-06T08:26:56.438000+00:00</time>
      </trkpt>
      <trkpt lat="0" lon="0">
        <time>2020-12-06T08:26:56.447000+00:00</time>
      </trkpt>
      <trkpt lat="0" lon="0">
        <time>2020-12-06T08:26:56.450000+00:00</time>
      </trkpt>
      <trkpt lat="0" lon="0">
        <time>2020-12-06T08:26:56.452000+00:00</time>
      </trkpt>
      <trkpt lat="47.31881" lon="-1.3155">
        <ele>16</ele>
        <time>2020-12-06T08:26:57.465000+00:00</time>
      </trkpt>
      <trkpt lat="0" lon="0">
        <time>2020-12-06T08:26:57.477000+00:00</time>
      </trkpt>
      <trkpt lat="0" lon="0">
        <time>2020-12-06T08:26:57.478000+00:00</time>
      </trkpt>
      <trkpt lat="0" lon="0">
        <time>2020-12-06T08:26:57.479000+00:00</time>
      </trkpt>
      <trkpt lat="47.31883" lon="-1.31541">
        <ele>16</ele>
        <time>2020-12-06T08:26:58.433000+00:00</time>
      </trkpt>
      <trkpt lat="0" lon="0">
        <time>2020-12-06T08:26:58.448000+00:00</time>
      </trkpt>
      <trkpt lat="0" lon="0">
        <time>2020-12-06T08:26:58.451000+00:00</time>
      </trkpt>
      <trkpt lat="0" lon="0">
        <time>2020-12-06T08:26:58.454000+00:00</time>
      </trkpt>
      <trkpt lat="47.31885" lon="-1.31532">
        <ele>16</ele>
        <time>2020-12-06T08:26:59.422000+00:00</time>
      </trkpt>
      <trkpt lat="0" lon="0">
        <time>2020-12-06T08:26:59.426000+00:00</time>
      </trkpt>
      <trkpt lat="0" lon="0">
        <time>2020-12-06T08:26:59.431000+00:00</time>
      </trkpt>
      <trkpt lat="0" lon="0">
        <time>2020-12-06T08:26:59.439000+00:00</time>
      </trkpt>
      <trkpt lat="47.31888" lon="-1.31523">
        <ele>16</ele>
        <time>2020-12-06T08:27:00.402000+00:00</time>
      </trkpt>
      <trkpt lat="0" lon="0">
        <time>2020-12-06T08:27:00.404000+00:00</time>
      </trkpt>
      <trkpt lat="0" lon="0">
        <time>2020-12-06T08:27:00.406000+00:00</time>
      </trkpt>
      <trkpt lat="0" lon="0">
        <time>2020-12-06T08:27:00.407000+00:00</time>
      </trkpt>
      <trkpt lat="47.3189" lon="-1.31514">
        <ele>16</ele>
        <time>2020-12-06T08:27:01.406000+00:00</time>
      </trkpt>
      <trkpt lat="0" lon="0">
        <time>2020-12-06T08:27:01.409000+00:00</time>
      </trkpt>
      <trkpt lat="0" lon="0">
        <time>2020-12-06T08:27:01.413000+00:00</time>
      </trkpt>
      <trkpt lat="0" lon="0">
        <time>2020-12-06T08:27:01.416000+00:00</time>
      </trkpt>
      <trkpt lat="47.31892" lon="-1.31505">
        <ele>16</ele>
        <time>2020-12-06T08:27:02.413000+00:00</time>
      </trkpt>
      <trkpt lat="0" lon="0">
        <time>2020-12-06T08:27:02.430000+00:00</time>
      </trkpt>
      <trkpt lat="0" lon="0">
        <time>2020-12-06T08:27:02.436000+00:00</time>
      </trkpt>
      <trkpt lat="0" lon="0">
        <time>2020-12-06T08:27:02.439000+00:00</time>
      </trkpt>
      <trkpt lat="47.31894" lon="-1.31496">
        <ele>16</ele>
        <time>2020-12-06T08:27:03.422000+00:00</time>
      </trkpt>
      <trkpt lat="0" lon="0">
        <time>2020-12-06T08:27:03.436000+00:00</time>
      </trkpt>
      <trkpt lat="0" lon="0">
        <time>2020-12-06T08:27:03.446000+00:00</time>
      </trkpt>
      <trkpt lat="0" lon="0">
        <time>2020-12-06T08:27:03.449000+00:00</time>
      </trkpt>
      <trkpt lat="47.31896" lon="-1.31487">
        <ele>16</ele>
        <time>2020-12-06T08:27:04.439000+00:00</time>
      </trkpt>
      <trkpt lat="0" lon="0">
        <time>2020-12-06T08:27:04.455000+00:00</time>
      </trkpt>
      <trkpt lat="0" lon="0">
        <time>2020-12-06T08:27:04.465000+00:00</time>
      </trkpt>
      <trkpt lat="0" lon="0">
        <time>2020-12-06T08:27:04.468000+00:00</time>
      </trkpt>
      <trkpt lat="47.31898" lon="-1.31477">
        <ele>17</ele>
        <time>2020-12-06T08:27:05.342000+00:00</time>
      </trkpt>
      <trkpt lat="0" lon="0">
        <time>2020-12-06T08:27:05.360000+00:00</time>
      </trkpt>
      <trkpt lat="0" lon="0">
        <time>2020-12-06T08:27:05.364000+00:00</time>
      </trkpt>
      <trkpt lat="0" lon="0">
        <time>2020-12-06T08:27:05.367000+00:00</time>
      </trkpt>
      <trkpt lat="47.31901" lon="-1.31468">
        <ele>17</ele>
        <time>2020-12-06T08:27:06.411000+00:00</time>
      </trkpt>
      <trkpt lat="0" lon="0">
        <time>2020-12-06T08:27:06.417000+00:00</time>
      </trkpt>
      <trkpt lat="0" lon="0">
        <time>2020-12-06T08:27:06.423000+00:00</time>
      </trkpt>
      <trkpt lat="0" lon="0">
        <time>2020-12-06T08:27:06.426000+00:00</time>
      </trkpt>
      <trkpt lat="47.31903" lon="-1.31458">
        <ele>17</ele>
        <time>2020-12-06T08:27:07.389000+00:00</time>
      </trkpt>
      <trkpt lat="0" lon="0">
        <time>2020-12-06T08:27:07.400000+00:00</time>
      </trkpt>
      <trkpt lat="0" lon="0">
        <time>2020-12-06T08:27:07.404000+00:00</time>
      </trkpt>
      <trkpt lat="0" lon="0">
        <time>2020-12-06T08:27:07.407000+00:00</time>
      </trkpt>
      <trkpt lat="47.31906" lon="-1.31449">
        <ele>17</ele>
        <time>2020-12-06T08:27:08.706000+00:00</time>
      </trkpt>
      <trkpt lat="0" lon="0">
        <time>2020-12-06T08:27:08.732000+00:00</time>
      </trkpt>
      <trkpt lat="0" lon="0">
        <time>2020-12-06T08:27:08.740000+00:00</time>
      </trkpt>
      <trkpt lat="0" lon="0">
        <time>2020-12-06T08:27:08.743000+00:00</time>
      </trkpt>
      <trkpt lat="47.31909" lon="-1.31439">
        <ele>17</ele>
        <time>2020-12-06T08:27:09.455000+00:00</time>
      </trkpt>
      <trkpt lat="0" lon="0">
        <time>2020-12-06T08:27:09.459000+00:00</time>
      </trkpt>
      <trkpt lat="0" lon="0">
        <time>2020-12-06T08:27:09.470000+00:00</time>
      </trkpt>
      <trkpt lat="0" lon="0">
        <time>2020-12-06T08:27:09.475000+00:00</time>
      </trkpt>
      <trkpt lat="47.31912" lon="-1.3143">
        <ele>17</ele>
        <time>2020-12-06T08:27:10.464000+00:00</time>
      </trkpt>
      <trkpt lat="0" lon="0">
        <time>2020-12-06T08:27:10.468000+00:00</time>
      </trkpt>
      <trkpt lat="0" lon="0">
        <time>2020-12-06T08:27:10.479000+00:00</time>
      </trkpt>
      <trkpt lat="0" lon="0">
        <time>2020-12-06T08:27:10.482000+00:00</time>
      </trkpt>
      <trkpt lat="47.31915" lon="-1.31421">
        <ele>17</ele>
        <time>2020-12-06T08:27:11.460000+00:00</time>
      </trkpt>
      <trkpt lat="0" lon="0">
        <time>2020-12-06T08:27:11.479000+00:00</time>
      </trkpt>
      <trkpt lat="0" lon="0">
        <time>2020-12-06T08:27:11.484000+00:00</time>
      </trkpt>
      <trkpt lat="0" lon="0">
        <time>2020-12-06T08:27:11.486000+00:00</time>
      </trkpt>
      <trkpt lat="47.31919" lon="-1.31412">
        <ele>17</ele>
        <time>2020-12-06T08:27:12.454000+00:00</time>
      </trkpt>
      <trkpt lat="0" lon="0">
        <time>2020-12-06T08:27:12.472000+00:00</time>
      </trkpt>
      <trkpt lat="0" lon="0">
        <time>2020-12-06T08:27:12.475000+00:00</time>
      </trkpt>
      <trkpt lat="0" lon="0">
        <time>2020-12-06T08:27:12.476000+00:00</time>
      </trkpt>
      <trkpt lat="47.31922" lon="-1.31403">
        <ele>17</ele>
        <time>2020-12-06T08:27:13.379000+00:00</time>
      </trkpt>
      <trkpt lat="0" lon="0">
        <time>2020-12-06T08:27:13.382000+00:00</time>
      </trkpt>
      <trkpt lat="0" lon="0">
        <time>2020-12-06T08:27:13.388000+00:00</time>
      </trkpt>
      <trkpt lat="0" lon="0">
        <time>2020-12-06T08:27:13.390000+00:00</time>
      </trkpt>
      <trkpt lat="47.31926" lon="-1.31393">
        <ele>16</ele>
        <time>2020-12-06T08:27:14.410000+00:00</time>
      </trkpt>
      <trkpt lat="0" lon="0">
        <time>2020-12-06T08:27:14.418000+00:00</time>
      </trkpt>
      <trkpt lat="0" lon="0">
        <time>2020-12-06T08:27:14.432000+00:00</time>
      </trkpt>
      <trkpt lat="0" lon="0">
        <time>2020-12-06T08:27:14.434000+00:00</time>
      </trkpt>
      <trkpt lat="47.31929" lon="-1.31384">
        <ele>16</ele>
        <time>2020-12-06T08:27:15.441000+00:00</time>
      </trkpt>
      <trkpt lat="0" lon="0">
        <time>2020-12-06T08:27:15.452000+00:00</time>
      </trkpt>
      <trkpt lat="0" lon="0">
        <time>2020-12-06T08:27:15.456000+00:00</time>
      </trkpt>
      <trkpt lat="0" lon="0">
        <time>2020-12-06T08:27:15.459000+00:00</time>
      </trkpt>
      <trkpt lat="47.31933" lon="-1.31375">
        <ele>15</ele>
        <time>2020-12-06T08:27:16.445000+00:00</time>
      </trkpt>
      <trkpt lat="0" lon="0">
        <time>2020-12-06T08:27:16.459000+00:00</time>
      </trkpt>
      <trkpt lat="0" lon="0">
        <time>2020-12-06T08:27:16.467000+00:00</time>
      </trkpt>
      <trkpt lat="0" lon="0">
        <time>2020-12-06T08:27:16.470000+00:00</time>
      </trkpt>
      <trkpt lat="47.31936" lon="-1.31366">
        <ele>15</ele>
        <time>2020-12-06T08:27:17.472000+00:00</time>
      </trkpt>
      <trkpt lat="0" lon="0">
        <time>2020-12-06T08:27:17.483000+00:00</time>
      </trkpt>
      <trkpt lat="0" lon="0">
        <time>2020-12-06T08:27:17.486000+00:00</time>
      </trkpt>
      <trkpt lat="0" lon="0">
        <time>2020-12-06T08:27:17.488000+00:00</time>
      </trkpt>
      <trkpt lat="47.3194" lon="-1.31357">
        <ele>15</ele>
        <time>2020-12-06T08:27:18.476000+00:00</time>
      </trkpt>
      <trkpt lat="0" lon="0">
        <time>2020-12-06T08:27:18.478000+00:00</time>
      </trkpt>
      <trkpt lat="0" lon="0">
        <time>2020-12-06T08:27:18.483000+00:00</time>
      </trkpt>
      <trkpt lat="0" lon="0">
        <time>2020-12-06T08:27:18.484000+00:00</time>
      </trkpt>
      <trkpt lat="47.31943" lon="-1.31349">
        <ele>14</ele>
        <time>2020-12-06T08:27:19.455000+00:00</time>
      </trkpt>
      <trkpt lat="0" lon="0">
        <time>2020-12-06T08:27:19.465000+00:00</time>
      </trkpt>
      <trkpt lat="0" lon="0">
        <time>2020-12-06T08:27:19.469000+00:00</time>
      </trkpt>
      <trkpt lat="0" lon="0">
        <time>2020-12-06T08:27:19.472000+00:00</time>
      </trkpt>
      <trkpt lat="47.31946" lon="-1.3134">
        <ele>14</ele>
        <time>2020-12-06T08:27:20.444000+00:00</time>
      </trkpt>
      <trkpt lat="0" lon="0">
        <time>2020-12-06T08:27:20.462000+00:00</time>
      </trkpt>
      <trkpt lat="0" lon="0">
        <time>2020-12-06T08:27:20.468000+00:00</time>
      </trkpt>
      <trkpt lat="0" lon="0">
        <time>2020-12-06T08:27:20.469000+00:00</time>
      </trkpt>
      <trkpt lat="47.3195" lon="-1.31332">
        <ele>14</ele>
        <time>2020-12-06T08:27:21.440000+00:00</time>
      </trkpt>
      <trkpt lat="0" lon="0">
        <time>2020-12-06T08:27:21.444000+00:00</time>
      </trkpt>
      <trkpt lat="0" lon="0">
        <time>2020-12-06T08:27:21.448000+00:00</time>
      </trkpt>
      <trkpt lat="0" lon="0">
        <time>2020-12-06T08:27:21.451000+00:00</time>
      </trkpt>
      <trkpt lat="47.31953" lon="-1.31324">
        <ele>14</ele>
        <time>2020-12-06T08:27:22.437000+00:00</time>
      </trkpt>
      <trkpt lat="0" lon="0">
        <time>2020-12-06T08:27:22.461000+00:00</time>
      </trkpt>
      <trkpt lat="0" lon="0">
        <time>2020-12-06T08:27:22.472000+00:00</time>
      </trkpt>
      <trkpt lat="0" lon="0">
        <time>2020-12-06T08:27:22.473000+00:00</time>
      </trkpt>
      <trkpt lat="47.31957" lon="-1.31315">
        <ele>14</ele>
        <time>2020-12-06T08:27:23.406000+00:00</time>
      </trkpt>
      <trkpt lat="0" lon="0">
        <time>2020-12-06T08:27:23.412000+00:00</time>
      </trkpt>
      <trkpt lat="0" lon="0">
        <time>2020-12-06T08:27:23.425000+00:00</time>
      </trkpt>
      <trkpt lat="0" lon="0">
        <time>2020-12-06T08:27:23.427000+00:00</time>
      </trkpt>
      <trkpt lat="47.3196" lon="-1.31307">
        <ele>14</ele>
        <time>2020-12-06T08:27:24.412000+00:00</time>
      </trkpt>
      <trkpt lat="0" lon="0">
        <time>2020-12-06T08:27:24.417000+00:00</time>
      </trkpt>
      <trkpt lat="0" lon="0">
        <time>2020-12-06T08:27:24.423000+00:00</time>
      </trkpt>
      <trkpt lat="0" lon="0">
        <time>2020-12-06T08:27:24.424000+00:00</time>
      </trkpt>
      <trkpt lat="47.31963" lon="-1.31299">
        <ele>14</ele>
        <time>2020-12-06T08:27:25.442000+00:00</time>
      </trkpt>
      <trkpt lat="0" lon="0">
        <time>2020-12-06T08:27:25.446000+00:00</time>
      </trkpt>
      <trkpt lat="0" lon="0">
        <time>2020-12-06T08:27:25.450000+00:00</time>
      </trkpt>
      <trkpt lat="0" lon="0">
        <time>2020-12-06T08:27:25.462000+00:00</time>
      </trkpt>
      <trkpt lat="47.31967" lon="-1.31291">
        <ele>15</ele>
        <time>2020-12-06T08:27:26.434000+00:00</time>
      </trkpt>
      <trkpt lat="0" lon="0">
        <time>2020-12-06T08:27:26.443000+00:00</time>
      </trkpt>
      <trkpt lat="0" lon="0">
        <time>2020-12-06T08:27:26.447000+00:00</time>
      </trkpt>
      <trkpt lat="0" lon="0">
        <time>2020-12-06T08:27:26.449000+00:00</time>
      </trkpt>
      <trkpt lat="47.3197" lon="-1.31283">
        <ele>15</ele>
        <time>2020-12-06T08:27:27.442000+00:00</time>
      </trkpt>
      <trkpt lat="0" lon="0">
        <time>2020-12-06T08:27:27.452000+00:00</time>
      </trkpt>
      <trkpt lat="0" lon="0">
        <time>2020-12-06T08:27:27.457000+00:00</time>
      </trkpt>
      <trkpt lat="0" lon="0">
        <time>2020-12-06T08:27:27.458000+00:00</time>
      </trkpt>
      <trkpt lat="47.31973" lon="-1.31276">
        <ele>15</ele>
        <time>2020-12-06T08:27:28.420000+00:00</time>
      </trkpt>
      <trkpt lat="0" lon="0">
        <time>2020-12-06T08:27:28.432000+00:00</time>
      </trkpt>
      <trkpt lat="0" lon="0">
        <time>2020-12-06T08:27:28.435000+00:00</time>
      </trkpt>
      <trkpt lat="0" lon="0">
        <time>2020-12-06T08:27:28.438000+00:00</time>
      </trkpt>
      <trkpt lat="47.31976" lon="-1.31268">
        <ele>15</ele>
        <time>2020-12-06T08:27:29.449000+00:00</time>
      </trkpt>
      <trkpt lat="0" lon="0">
        <time>2020-12-06T08:27:29.457000+00:00</time>
      </trkpt>
      <trkpt lat="0" lon="0">
        <time>2020-12-06T08:27:29.459000+00:00</time>
      </trkpt>
      <trkpt lat="0" lon="0">
        <time>2020-12-06T08:27:29.460000+00:00</time>
      </trkpt>
      <trkpt lat="47.31979" lon="-1.3126">
        <ele>15</ele>
        <time>2020-12-06T08:27:30.430000+00:00</time>
      </trkpt>
      <trkpt lat="0" lon="0">
        <time>2020-12-06T08:27:30.446000+00:00</time>
      </trkpt>
      <trkpt lat="0" lon="0">
        <time>2020-12-06T08:27:30.457000+00:00</time>
      </trkpt>
      <trkpt lat="0" lon="0">
        <time>2020-12-06T08:27:30.460000+00:00</time>
      </trkpt>
      <trkpt lat="47.31982" lon="-1.31253">
        <ele>16</ele>
        <time>2020-12-06T08:27:31.465000+00:00</time>
      </trkpt>
      <trkpt lat="0" lon="0">
        <time>2020-12-06T08:27:31.483000+00:00</time>
      </trkpt>
      <trkpt lat="0" lon="0">
        <time>2020-12-06T08:27:31.488000+00:00</time>
      </trkpt>
      <trkpt lat="0" lon="0">
        <time>2020-12-06T08:27:31.491000+00:00</time>
      </trkpt>
      <trkpt lat="47.31985" lon="-1.31245">
        <ele>16</ele>
        <time>2020-12-06T08:27:32.471000+00:00</time>
      </trkpt>
      <trkpt lat="0" lon="0">
        <time>2020-12-06T08:27:32.481000+00:00</time>
      </trkpt>
      <trkpt lat="0" lon="0">
        <time>2020-12-06T08:27:32.490000+00:00</time>
      </trkpt>
      <trkpt lat="0" lon="0">
        <time>2020-12-06T08:27:32.492000+00:00</time>
      </trkpt>
      <trkpt lat="47.31988" lon="-1.31238">
        <ele>16</ele>
        <time>2020-12-06T08:27:33.433000+00:00</time>
      </trkpt>
      <trkpt lat="0" lon="0">
        <time>2020-12-06T08:27:33.448000+00:00</time>
      </trkpt>
      <trkpt lat="0" lon="0">
        <time>2020-12-06T08:27:33.451000+00:00</time>
      </trkpt>
      <trkpt lat="0" lon="0">
        <time>2020-12-06T08:27:33.453000+00:00</time>
      </trkpt>
      <trkpt lat="47.31991" lon="-1.31231">
        <ele>17</ele>
        <time>2020-12-06T08:27:34.452000+00:00</time>
      </trkpt>
      <trkpt lat="0" lon="0">
        <time>2020-12-06T08:27:34.462000+00:00</time>
      </trkpt>
      <trkpt lat="0" lon="0">
        <time>2020-12-06T08:27:34.468000+00:00</time>
      </trkpt>
      <trkpt lat="0" lon="0">
        <time>2020-12-06T08:27:34.470000+00:00</time>
      </trkpt>
      <trkpt lat="47.31993" lon="-1.31224">
        <ele>17</ele>
        <time>2020-12-06T08:27:35.418000+00:00</time>
      </trkpt>
      <trkpt lat="0" lon="0">
        <time>2020-12-06T08:27:35.428000+00:00</time>
      </trkpt>
      <trkpt lat="0" lon="0">
        <time>2020-12-06T08:27:35.437000+00:00</time>
      </trkpt>
      <trkpt lat="0" lon="0">
        <time>2020-12-06T08:27:35.441000+00:00</time>
      </trkpt>
      <trkpt lat="47.31996" lon="-1.31216">
        <ele>17</ele>
        <time>2020-12-06T08:27:36.460000+00:00</time>
      </trkpt>
      <trkpt lat="0" lon="0">
        <time>2020-12-06T08:27:36.473000+00:00</time>
      </trkpt>
      <trkpt lat="0" lon="0">
        <time>2020-12-06T08:27:36.480000+00:00</time>
      </trkpt>
      <trkpt lat="0" lon="0">
        <time>2020-12-06T08:27:36.483000+00:00</time>
      </trkpt>
      <trkpt lat="47.31999" lon="-1.31209">
        <ele>18</ele>
        <time>2020-12-06T08:27:37.463000+00:00</time>
      </trkpt>
      <trkpt lat="0" lon="0">
        <time>2020-12-06T08:27:37.480000+00:00</time>
      </trkpt>
      <trkpt lat="0" lon="0">
        <time>2020-12-06T08:27:37.488000+00:00</time>
      </trkpt>
      <trkpt lat="0" lon="0">
        <time>2020-12-06T08:27:37.490000+00:00</time>
      </trkpt>
      <trkpt lat="47.32002" lon="-1.31201">
        <ele>18</ele>
        <time>2020-12-06T08:27:38.420000+00:00</time>
      </trkpt>
      <trkpt lat="0" lon="0">
        <time>2020-12-06T08:27:38.440000+00:00</time>
      </trkpt>
      <trkpt lat="0" lon="0">
        <time>2020-12-06T08:27:38.443000+00:00</time>
      </trkpt>
      <trkpt lat="0" lon="0">
        <time>2020-12-06T08:27:38.445000+00:00</time>
      </trkpt>
      <trkpt lat="47.32005" lon="-1.31193">
        <ele>18</ele>
        <time>2020-12-06T08:27:39.443000+00:00</time>
      </trkpt>
      <trkpt lat="0" lon="0">
        <time>2020-12-06T08:27:39.453000+00:00</time>
      </trkpt>
      <trkpt lat="0" lon="0">
        <time>2020-12-06T08:27:39.457000+00:00</time>
      </trkpt>
      <trkpt lat="0" lon="0">
        <time>2020-12-06T08:27:39.464000+00:00</time>
      </trkpt>
      <trkpt lat="47.32008" lon="-1.31185">
        <ele>18</ele>
        <time>2020-12-06T08:27:40.465000+00:00</time>
      </trkpt>
      <trkpt lat="0" lon="0">
        <time>2020-12-06T08:27:40.469000+00:00</time>
      </trkpt>
      <trkpt lat="0" lon="0">
        <time>2020-12-06T08:27:40.473000+00:00</time>
      </trkpt>
      <trkpt lat="0" lon="0">
        <time>2020-12-06T08:27:40.474000+00:00</time>
      </trkpt>
      <trkpt lat="47.3201" lon="-1.31177">
        <ele>18</ele>
        <time>2020-12-06T08:27:41.416000+00:00</time>
      </trkpt>
      <trkpt lat="0" lon="0">
        <time>2020-12-06T08:27:41.420000+00:00</time>
      </trkpt>
      <trkpt lat="0" lon="0">
        <time>2020-12-06T08:27:41.425000+00:00</time>
      </trkpt>
      <trkpt lat="0" lon="0">
        <time>2020-12-06T08:27:41.427000+00:00</time>
      </trkpt>
      <trkpt lat="47.32013" lon="-1.31169">
        <ele>18</ele>
        <time>2020-12-06T08:27:42.424000+00:00</time>
      </trkpt>
      <trkpt lat="0" lon="0">
        <time>2020-12-06T08:27:42.433000+00:00</time>
      </trkpt>
      <trkpt lat="0" lon="0">
        <time>2020-12-06T08:27:42.437000+00:00</time>
      </trkpt>
      <trkpt lat="0" lon="0">
        <time>2020-12-06T08:27:42.439000+00:00</time>
      </trkpt>
      <trkpt lat="47.32015" lon="-1.31161">
        <ele>18</ele>
        <time>2020-12-06T08:27:43.419000+00:00</time>
      </trkpt>
      <trkpt lat="0" lon="0">
        <time>2020-12-06T08:27:43.432000+00:00</time>
      </trkpt>
      <trkpt lat="0" lon="0">
        <time>2020-12-06T08:27:43.435000+00:00</time>
      </trkpt>
      <trkpt lat="0" lon="0">
        <time>2020-12-06T08:27:43.438000+00:00</time>
      </trkpt>
      <trkpt lat="47.32018" lon="-1.31152">
        <ele>18</ele>
        <time>2020-12-06T08:27:44.460000+00:00</time>
      </trkpt>
      <trkpt lat="0" lon="0">
        <time>2020-12-06T08:27:44.466000+00:00</time>
      </trkpt>
      <trkpt lat="0" lon="0">
        <time>2020-12-06T08:27:44.470000+00:00</time>
      </trkpt>
      <trkpt lat="0" lon="0">
        <time>2020-12-06T08:27:44.473000+00:00</time>
      </trkpt>
      <trkpt lat="47.3202" lon="-1.31144">
        <ele>18</ele>
        <time>2020-12-06T08:27:45.417000+00:00</time>
      </trkpt>
      <trkpt lat="0" lon="0">
        <time>2020-12-06T08:27:45.421000+00:00</time>
      </trkpt>
      <trkpt lat="0" lon="0">
        <time>2020-12-06T08:27:45.425000+00:00</time>
      </trkpt>
      <trkpt lat="0" lon="0">
        <time>2020-12-06T08:27:45.427000+00:00</time>
      </trkpt>
      <trkpt lat="47.32022" lon="-1.31135">
        <ele>18</ele>
        <time>2020-12-06T08:27:46.417000+00:00</time>
      </trkpt>
      <trkpt lat="0" lon="0">
        <time>2020-12-06T08:27:46.430000+00:00</time>
      </trkpt>
      <trkpt lat="0" lon="0">
        <time>2020-12-06T08:27:46.435000+00:00</time>
      </trkpt>
      <trkpt lat="0" lon="0">
        <time>2020-12-06T08:27:46.437000+00:00</time>
      </trkpt>
      <trkpt lat="47.32024" lon="-1.31127">
        <ele>18</ele>
        <time>2020-12-06T08:27:47.406000+00:00</time>
      </trkpt>
      <trkpt lat="0" lon="0">
        <time>2020-12-06T08:27:47.408000+00:00</time>
      </trkpt>
      <trkpt lat="0" lon="0">
        <time>2020-12-06T08:27:47.409000+00:00</time>
      </trkpt>
      <trkpt lat="0" lon="0">
        <time>2020-12-06T08:27:47.411000+00:00</time>
      </trkpt>
      <trkpt lat="47.32026" lon="-1.31118">
        <ele>18</ele>
        <time>2020-12-06T08:27:48.424000+00:00</time>
      </trkpt>
      <trkpt lat="0" lon="0">
        <time>2020-12-06T08:27:48.435000+00:00</time>
      </trkpt>
      <trkpt lat="0" lon="0">
        <time>2020-12-06T08:27:48.450000+00:00</time>
      </trkpt>
      <trkpt lat="0" lon="0">
        <time>2020-12-06T08:27:48.454000+00:00</time>
      </trkpt>
      <trkpt lat="47.32028" lon="-1.3111">
        <ele>18</ele>
        <time>2020-12-06T08:27:49.448000+00:00</time>
      </trkpt>
      <trkpt lat="0" lon="0">
        <time>2020-12-06T08:27:49.462000+00:00</time>
      </trkpt>
      <trkpt lat="0" lon="0">
        <time>2020-12-06T08:27:49.469000+00:00</time>
      </trkpt>
      <trkpt lat="0" lon="0">
        <time>2020-12-06T08:27:49.472000+00:00</time>
      </trkpt>
      <trkpt lat="47.3203" lon="-1.31101">
        <ele>17</ele>
        <time>2020-12-06T08:27:50.505000+00:00</time>
      </trkpt>
      <trkpt lat="0" lon="0">
        <time>2020-12-06T08:27:50.515000+00:00</time>
      </trkpt>
      <trkpt lat="0" lon="0">
        <time>2020-12-06T08:27:50.526000+00:00</time>
      </trkpt>
      <trkpt lat="0" lon="0">
        <time>2020-12-06T08:27:50.528000+00:00</time>
      </trkpt>
      <trkpt lat="47.32032" lon="-1.31092">
        <ele>17</ele>
        <time>2020-12-06T08:27:51.426000+00:00</time>
      </trkpt>
      <trkpt lat="0" lon="0">
        <time>2020-12-06T08:27:51.433000+00:00</time>
      </trkpt>
      <trkpt lat="0" lon="0">
        <time>2020-12-06T08:27:51.441000+00:00</time>
      </trkpt>
      <trkpt lat="0" lon="0">
        <time>2020-12-06T08:27:51.445000+00:00</time>
      </trkpt>
      <trkpt lat="47.32035" lon="-1.31084">
        <ele>17</ele>
        <time>2020-12-06T08:27:52.441000+00:00</time>
      </trkpt>
      <trkpt lat="0" lon="0">
        <time>2020-12-06T08:27:52.456000+00:00</time>
      </trkpt>
      <trkpt lat="0" lon="0">
        <time>2020-12-06T08:27:52.460000+00:00</time>
      </trkpt>
      <trkpt lat="0" lon="0">
        <time>2020-12-06T08:27:52.463000+00:00</time>
      </trkpt>
      <trkpt lat="47.32037" lon="-1.31076">
        <ele>17</ele>
        <time>2020-12-06T08:27:53.376000+00:00</time>
      </trkpt>
      <trkpt lat="0" lon="0">
        <time>2020-12-06T08:27:53.385000+00:00</time>
      </trkpt>
      <trkpt lat="0" lon="0">
        <time>2020-12-06T08:27:53.396000+00:00</time>
      </trkpt>
      <trkpt lat="0" lon="0">
        <time>2020-12-06T08:27:53.401000+00:00</time>
      </trkpt>
      <trkpt lat="47.3204" lon="-1.31068">
        <ele>17</ele>
        <time>2020-12-06T08:27:54.394000+00:00</time>
      </trkpt>
      <trkpt lat="0" lon="0">
        <time>2020-12-06T08:27:54.399000+00:00</time>
      </trkpt>
      <trkpt lat="0" lon="0">
        <time>2020-12-06T08:27:54.406000+00:00</time>
      </trkpt>
      <trkpt lat="0" lon="0">
        <time>2020-12-06T08:27:54.408000+00:00</time>
      </trkpt>
      <trkpt lat="47.32043" lon="-1.3106">
        <ele>16</ele>
        <time>2020-12-06T08:27:55.411000+00:00</time>
      </trkpt>
      <trkpt lat="0" lon="0">
        <time>2020-12-06T08:27:55.424000+00:00</time>
      </trkpt>
      <trkpt lat="0" lon="0">
        <time>2020-12-06T08:27:55.433000+00:00</time>
      </trkpt>
      <trkpt lat="0" lon="0">
        <time>2020-12-06T08:27:55.435000+00:00</time>
      </trkpt>
      <trkpt lat="47.32046" lon="-1.31052">
        <ele>16</ele>
        <time>2020-12-06T08:27:56.428000+00:00</time>
      </trkpt>
      <trkpt lat="0" lon="0">
        <time>2020-12-06T08:27:56.446000+00:00</time>
      </trkpt>
      <trkpt lat="0" lon="0">
        <time>2020-12-06T08:27:56.453000+00:00</time>
      </trkpt>
      <trkpt lat="0" lon="0">
        <time>2020-12-06T08:27:56.456000+00:00</time>
      </trkpt>
      <trkpt lat="47.32049" lon="-1.31044">
        <ele>16</ele>
        <time>2020-12-06T08:27:57.443000+00:00</time>
      </trkpt>
      <trkpt lat="0" lon="0">
        <time>2020-12-06T08:27:57.453000+00:00</time>
      </trkpt>
      <trkpt lat="0" lon="0">
        <time>2020-12-06T08:27:57.456000+00:00</time>
      </trkpt>
      <trkpt lat="0" lon="0">
        <time>2020-12-06T08:27:57.458000+00:00</time>
      </trkpt>
      <trkpt lat="47.32052" lon="-1.31036">
        <ele>16</ele>
        <time>2020-12-06T08:27:58.401000+00:00</time>
      </trkpt>
      <trkpt lat="0" lon="0">
        <time>2020-12-06T08:27:58.409000+00:00</time>
      </trkpt>
      <trkpt lat="0" lon="0">
        <time>2020-12-06T08:27:58.414000+00:00</time>
      </trkpt>
      <trkpt lat="0" lon="0">
        <time>2020-12-06T08:27:58.417000+00:00</time>
      </trkpt>
      <trkpt lat="47.32055" lon="-1.31029">
        <ele>16</ele>
        <time>2020-12-06T08:27:59.387000+00:00</time>
      </trkpt>
      <trkpt lat="0" lon="0">
        <time>2020-12-06T08:27:59.390000+00:00</time>
      </trkpt>
      <trkpt lat="0" lon="0">
        <time>2020-12-06T08:27:59.392000+00:00</time>
      </trkpt>
      <trkpt lat="0" lon="0">
        <time>2020-12-06T08:27:59.393000+00:00</time>
      </trkpt>
      <trkpt lat="47.32058" lon="-1.31021">
        <ele>16</ele>
        <time>2020-12-06T08:28:00.323000+00:00</time>
      </trkpt>
      <trkpt lat="0" lon="0">
        <time>2020-12-06T08:28:00.329000+00:00</time>
      </trkpt>
      <trkpt lat="0" lon="0">
        <time>2020-12-06T08:28:00.339000+00:00</time>
      </trkpt>
      <trkpt lat="0" lon="0">
        <time>2020-12-06T08:28:00.341000+00:00</time>
      </trkpt>
      <trkpt lat="47.32061" lon="-1.31013">
        <ele>16</ele>
        <time>2020-12-06T08:28:01.443000+00:00</time>
      </trkpt>
      <trkpt lat="0" lon="0">
        <time>2020-12-06T08:28:01.464000+00:00</time>
      </trkpt>
      <trkpt lat="0" lon="0">
        <time>2020-12-06T08:28:01.472000+00:00</time>
      </trkpt>
      <trkpt lat="0" lon="0">
        <time>2020-12-06T08:28:01.474000+00:00</time>
      </trkpt>
      <trkpt lat="47.32064" lon="-1.31005">
        <ele>16</ele>
        <time>2020-12-06T08:28:02.429000+00:00</time>
      </trkpt>
      <trkpt lat="0" lon="0">
        <time>2020-12-06T08:28:02.441000+00:00</time>
      </trkpt>
      <trkpt lat="0" lon="0">
        <time>2020-12-06T08:28:02.444000+00:00</time>
      </trkpt>
      <trkpt lat="0" lon="0">
        <time>2020-12-06T08:28:02.445000+00:00</time>
      </trkpt>
      <trkpt lat="47.32067" lon="-1.30998">
        <ele>16</ele>
        <time>2020-12-06T08:28:03.396000+00:00</time>
      </trkpt>
      <trkpt lat="0" lon="0">
        <time>2020-12-06T08:28:03.406000+00:00</time>
      </trkpt>
      <trkpt lat="0" lon="0">
        <time>2020-12-06T08:28:03.415000+00:00</time>
      </trkpt>
      <trkpt lat="0" lon="0">
        <time>2020-12-06T08:28:03.416000+00:00</time>
      </trkpt>
      <trkpt lat="47.3207" lon="-1.3099">
        <ele>16</ele>
        <time>2020-12-06T08:28:04.432000+00:00</time>
      </trkpt>
      <trkpt lat="0" lon="0">
        <time>2020-12-06T08:28:04.449000+00:00</time>
      </trkpt>
      <trkpt lat="0" lon="0">
        <time>2020-12-06T08:28:04.457000+00:00</time>
      </trkpt>
      <trkpt lat="0" lon="0">
        <time>2020-12-06T08:28:04.463000+00:00</time>
      </trkpt>
      <trkpt lat="47.32073" lon="-1.30982">
        <ele>16</ele>
        <time>2020-12-06T08:28:05.413000+00:00</time>
      </trkpt>
      <trkpt lat="0" lon="0">
        <time>2020-12-06T08:28:05.429000+00:00</time>
      </trkpt>
      <trkpt lat="0" lon="0">
        <time>2020-12-06T08:28:05.436000+00:00</time>
      </trkpt>
      <trkpt lat="0" lon="0">
        <time>2020-12-06T08:28:05.438000+00:00</time>
      </trkpt>
      <trkpt lat="47.32075" lon="-1.30974">
        <ele>17</ele>
        <time>2020-12-06T08:28:06.458000+00:00</time>
      </trkpt>
      <trkpt lat="0" lon="0">
        <time>2020-12-06T08:28:06.461000+00:00</time>
      </trkpt>
      <trkpt lat="0" lon="0">
        <time>2020-12-06T08:28:06.465000+00:00</time>
      </trkpt>
      <trkpt lat="0" lon="0">
        <time>2020-12-06T08:28:06.468000+00:00</time>
      </trkpt>
      <trkpt lat="47.32078" lon="-1.30966">
        <ele>17</ele>
        <time>2020-12-06T08:28:07.416000+00:00</time>
      </trkpt>
      <trkpt lat="0" lon="0">
        <time>2020-12-06T08:28:07.421000+00:00</time>
      </trkpt>
      <trkpt lat="0" lon="0">
        <time>2020-12-06T08:28:07.432000+00:00</time>
      </trkpt>
      <trkpt lat="0" lon="0">
        <time>2020-12-06T08:28:07.434000+00:00</time>
      </trkpt>
      <trkpt lat="47.32081" lon="-1.30957">
        <ele>17</ele>
        <time>2020-12-06T08:28:08.426000+00:00</time>
      </trkpt>
      <trkpt lat="0" lon="0">
        <time>2020-12-06T08:28:08.432000+00:00</time>
      </trkpt>
      <trkpt lat="0" lon="0">
        <time>2020-12-06T08:28:08.440000+00:00</time>
      </trkpt>
      <trkpt lat="0" lon="0">
        <time>2020-12-06T08:28:08.446000+00:00</time>
      </trkpt>
      <trkpt lat="47.32083" lon="-1.30949">
        <ele>18</ele>
        <time>2020-12-06T08:28:09.429000+00:00</time>
      </trkpt>
      <trkpt lat="0" lon="0">
        <time>2020-12-06T08:28:09.441000+00:00</time>
      </trkpt>
      <trkpt lat="0" lon="0">
        <time>2020-12-06T08:28:09.448000+00:00</time>
      </trkpt>
      <trkpt lat="0" lon="0">
        <time>2020-12-06T08:28:09.454000+00:00</time>
      </trkpt>
      <trkpt lat="47.32086" lon="-1.30941">
        <ele>18</ele>
        <time>2020-12-06T08:28:10.389000+00:00</time>
      </trkpt>
      <trkpt lat="0" lon="0">
        <time>2020-12-06T08:28:10.392000+00:00</time>
      </trkpt>
      <trkpt lat="0" lon="0">
        <time>2020-12-06T08:28:10.393000+00:00</time>
      </trkpt>
      <trkpt lat="0" lon="0">
        <time>2020-12-06T08:28:10.394000+00:00</time>
      </trkpt>
      <trkpt lat="47.32089" lon="-1.30933">
        <ele>18</ele>
        <time>2020-12-06T08:28:11.401000+00:00</time>
      </trkpt>
      <trkpt lat="0" lon="0">
        <time>2020-12-06T08:28:11.406000+00:00</time>
      </trkpt>
      <trkpt lat="0" lon="0">
        <time>2020-12-06T08:28:11.412000+00:00</time>
      </trkpt>
      <trkpt lat="0" lon="0">
        <time>2020-12-06T08:28:11.414000+00:00</time>
      </trkpt>
      <trkpt lat="47.32092" lon="-1.30925">
        <ele>18</ele>
        <time>2020-12-06T08:28:12.433000+00:00</time>
      </trkpt>
      <trkpt lat="0" lon="0">
        <time>2020-12-06T08:28:12.446000+00:00</time>
      </trkpt>
      <trkpt lat="0" lon="0">
        <time>2020-12-06T08:28:12.451000+00:00</time>
      </trkpt>
      <trkpt lat="0" lon="0">
        <time>2020-12-06T08:28:12.453000+00:00</time>
      </trkpt>
      <trkpt lat="47.32095" lon="-1.30917">
        <ele>18</ele>
        <time>2020-12-06T08:28:13.412000+00:00</time>
      </trkpt>
      <trkpt lat="0" lon="0">
        <time>2020-12-06T08:28:13.418000+00:00</time>
      </trkpt>
      <trkpt lat="0" lon="0">
        <time>2020-12-06T08:28:13.424000+00:00</time>
      </trkpt>
      <trkpt lat="0" lon="0">
        <time>2020-12-06T08:28:13.427000+00:00</time>
      </trkpt>
      <trkpt lat="47.32097" lon="-1.30909">
        <ele>18</ele>
        <time>2020-12-06T08:28:14.416000+00:00</time>
      </trkpt>
      <trkpt lat="0" lon="0">
        <time>2020-12-06T08:28:14.421000+00:00</time>
      </trkpt>
      <trkpt lat="0" lon="0">
        <time>2020-12-06T08:28:14.427000+00:00</time>
      </trkpt>
      <trkpt lat="0" lon="0">
        <time>2020-12-06T08:28:14.429000+00:00</time>
      </trkpt>
      <trkpt lat="47.321" lon="-1.30901">
        <ele>18</ele>
        <time>2020-12-06T08:28:15.407000+00:00</time>
      </trkpt>
      <trkpt lat="0" lon="0">
        <time>2020-12-06T08:28:15.422000+00:00</time>
      </trkpt>
      <trkpt lat="0" lon="0">
        <time>2020-12-06T08:28:15.429000+00:00</time>
      </trkpt>
      <trkpt lat="0" lon="0">
        <time>2020-12-06T08:28:15.432000+00:00</time>
      </trkpt>
      <trkpt lat="47.32102" lon="-1.30893">
        <ele>18</ele>
        <time>2020-12-06T08:28:16.378000+00:00</time>
      </trkpt>
      <trkpt lat="0" lon="0">
        <time>2020-12-06T08:28:16.389000+00:00</time>
      </trkpt>
      <trkpt lat="0" lon="0">
        <time>2020-12-06T08:28:16.390000+00:00</time>
      </trkpt>
      <trkpt lat="0" lon="0">
        <time>2020-12-06T08:28:16.391000+00:00</time>
      </trkpt>
      <trkpt lat="47.32104" lon="-1.30886">
        <ele>18</ele>
        <time>2020-12-06T08:28:17.442000+00:00</time>
      </trkpt>
      <trkpt lat="0" lon="0">
        <time>2020-12-06T08:28:17.453000+00:00</time>
      </trkpt>
      <trkpt lat="0" lon="0">
        <time>2020-12-06T08:28:17.457000+00:00</time>
      </trkpt>
      <trkpt lat="0" lon="0">
        <time>2020-12-06T08:28:17.460000+00:00</time>
      </trkpt>
      <trkpt lat="47.32106" lon="-1.30879">
        <ele>18</ele>
        <time>2020-12-06T08:28:18.433000+00:00</time>
      </trkpt>
      <trkpt lat="0" lon="0">
        <time>2020-12-06T08:28:18.438000+00:00</time>
      </trkpt>
      <trkpt lat="0" lon="0">
        <time>2020-12-06T08:28:18.442000+00:00</time>
      </trkpt>
      <trkpt lat="0" lon="0">
        <time>2020-12-06T08:28:18.447000+00:00</time>
      </trkpt>
      <trkpt lat="47.32108" lon="-1.30873">
        <ele>18</ele>
        <time>2020-12-06T08:28:19.455000+00:00</time>
      </trkpt>
      <trkpt lat="0" lon="0">
        <time>2020-12-06T08:28:19.472000+00:00</time>
      </trkpt>
      <trkpt lat="0" lon="0">
        <time>2020-12-06T08:28:19.482000+00:00</time>
      </trkpt>
      <trkpt lat="0" lon="0">
        <time>2020-12-06T08:28:19.486000+00:00</time>
      </trkpt>
      <trkpt lat="47.32109" lon="-1.30867">
        <ele>18</ele>
        <time>2020-12-06T08:28:20.437000+00:00</time>
      </trkpt>
      <trkpt lat="0" lon="0">
        <time>2020-12-06T08:28:20.447000+00:00</time>
      </trkpt>
      <trkpt lat="0" lon="0">
        <time>2020-12-06T08:28:20.451000+00:00</time>
      </trkpt>
      <trkpt lat="0" lon="0">
        <time>2020-12-06T08:28:20.453000+00:00</time>
      </trkpt>
      <trkpt lat="47.3211" lon="-1.30861">
        <ele>18</ele>
        <time>2020-12-06T08:28:21.385000+00:00</time>
      </trkpt>
      <trkpt lat="0" lon="0">
        <time>2020-12-06T08:28:21.392000+00:00</time>
      </trkpt>
      <trkpt lat="0" lon="0">
        <time>2020-12-06T08:28:21.405000+00:00</time>
      </trkpt>
      <trkpt lat="0" lon="0">
        <time>2020-12-06T08:28:21.408000+00:00</time>
      </trkpt>
      <trkpt lat="47.32109" lon="-1.30857">
        <ele>19</ele>
        <time>2020-12-06T08:28:22.381000+00:00</time>
      </trkpt>
      <trkpt lat="0" lon="0">
        <time>2020-12-06T08:28:22.385000+00:00</time>
      </trkpt>
      <trkpt lat="0" lon="0">
        <time>2020-12-06T08:28:22.387000+00:00</time>
      </trkpt>
      <trkpt lat="0" lon="0">
        <time>2020-12-06T08:28:22.388000+00:00</time>
      </trkpt>
      <trkpt lat="47.32108" lon="-1.30853">
        <ele>19</ele>
        <time>2020-12-06T08:28:23.426000+00:00</time>
      </trkpt>
      <trkpt lat="0" lon="0">
        <time>2020-12-06T08:28:23.439000+00:00</time>
      </trkpt>
      <trkpt lat="0" lon="0">
        <time>2020-12-06T08:28:23.447000+00:00</time>
      </trkpt>
      <trkpt lat="0" lon="0">
        <time>2020-12-06T08:28:23.456000+00:00</time>
      </trkpt>
      <trkpt lat="47.32106" lon="-1.3085">
        <ele>19</ele>
        <time>2020-12-06T08:28:24.398000+00:00</time>
      </trkpt>
      <trkpt lat="0" lon="0">
        <time>2020-12-06T08:28:24.404000+00:00</time>
      </trkpt>
      <trkpt lat="0" lon="0">
        <time>2020-12-06T08:28:24.412000+00:00</time>
      </trkpt>
      <trkpt lat="0" lon="0">
        <time>2020-12-06T08:28:24.414000+00:00</time>
      </trkpt>
      <trkpt lat="47.32104" lon="-1.30848">
        <ele>20</ele>
        <time>2020-12-06T08:28:25.485000+00:00</time>
      </trkpt>
      <trkpt lat="0" lon="0">
        <time>2020-12-06T08:28:25.496000+00:00</time>
      </trkpt>
      <trkpt lat="0" lon="0">
        <time>2020-12-06T08:28:25.503000+00:00</time>
      </trkpt>
      <trkpt lat="0" lon="0">
        <time>2020-12-06T08:28:25.505000+00:00</time>
      </trkpt>
      <trkpt lat="47.32101" lon="-1.30846">
        <ele>20</ele>
        <time>2020-12-06T08:28:26.396000+00:00</time>
      </trkpt>
      <trkpt lat="0" lon="0">
        <time>2020-12-06T08:28:26.409000+00:00</time>
      </trkpt>
      <trkpt lat="0" lon="0">
        <time>2020-12-06T08:28:26.412000+00:00</time>
      </trkpt>
      <trkpt lat="0" lon="0">
        <time>2020-12-06T08:28:26.419000+00:00</time>
      </trkpt>
      <trkpt lat="47.32098" lon="-1.30844">
        <ele>20</ele>
        <time>2020-12-06T08:28:27.432000+00:00</time>
      </trkpt>
      <trkpt lat="0" lon="0">
        <time>2020-12-06T08:28:27.446000+00:00</time>
      </trkpt>
      <trkpt lat="0" lon="0">
        <time>2020-12-06T08:28:27.454000+00:00</time>
      </trkpt>
      <trkpt lat="0" lon="0">
        <time>2020-12-06T08:28:27.456000+00:00</time>
      </trkpt>
      <trkpt lat="47.32095" lon="-1.30843">
        <ele>21</ele>
        <time>2020-12-06T08:28:28.417000+00:00</time>
      </trkpt>
      <trkpt lat="0" lon="0">
        <time>2020-12-06T08:28:28.421000+00:00</time>
      </trkpt>
      <trkpt lat="0" lon="0">
        <time>2020-12-06T08:28:28.423000+00:00</time>
      </trkpt>
      <trkpt lat="0" lon="0">
        <time>2020-12-06T08:28:28.424000+00:00</time>
      </trkpt>
      <trkpt lat="47.32092" lon="-1.30842">
        <ele>21</ele>
        <time>2020-12-06T08:28:29.428000+00:00</time>
      </trkpt>
      <trkpt lat="0" lon="0">
        <time>2020-12-06T08:28:29.444000+00:00</time>
      </trkpt>
      <trkpt lat="0" lon="0">
        <time>2020-12-06T08:28:29.454000+00:00</time>
      </trkpt>
      <trkpt lat="0" lon="0">
        <time>2020-12-06T08:28:29.455000+00:00</time>
      </trkpt>
      <trkpt lat="47.32089" lon="-1.30841">
        <ele>22</ele>
        <time>2020-12-06T08:28:30.445000+00:00</time>
      </trkpt>
      <trkpt lat="0" lon="0">
        <time>2020-12-06T08:28:30.449000+00:00</time>
      </trkpt>
      <trkpt lat="0" lon="0">
        <time>2020-12-06T08:28:30.456000+00:00</time>
      </trkpt>
      <trkpt lat="0" lon="0">
        <time>2020-12-06T08:28:30.457000+00:00</time>
      </trkpt>
      <trkpt lat="47.32085" lon="-1.3084">
        <ele>22</ele>
        <time>2020-12-06T08:28:31.410000+00:00</time>
      </trkpt>
      <trkpt lat="0" lon="0">
        <time>2020-12-06T08:28:31.423000+00:00</time>
      </trkpt>
      <trkpt lat="0" lon="0">
        <time>2020-12-06T08:28:31.428000+00:00</time>
      </trkpt>
      <trkpt lat="0" lon="0">
        <time>2020-12-06T08:28:31.429000+00:00</time>
      </trkpt>
      <trkpt lat="47.32082" lon="-1.3084">
        <ele>22</ele>
        <time>2020-12-06T08:28:32.406000+00:00</time>
      </trkpt>
      <trkpt lat="0" lon="0">
        <time>2020-12-06T08:28:32.425000+00:00</time>
      </trkpt>
      <trkpt lat="0" lon="0">
        <time>2020-12-06T08:28:32.436000+00:00</time>
      </trkpt>
      <trkpt lat="0" lon="0">
        <time>2020-12-06T08:28:32.440000+00:00</time>
      </trkpt>
      <trkpt lat="47.32079" lon="-1.30839">
        <ele>23</ele>
        <time>2020-12-06T08:28:33.354000+00:00</time>
      </trkpt>
      <trkpt lat="0" lon="0">
        <time>2020-12-06T08:28:33.368000+00:00</time>
      </trkpt>
      <trkpt lat="0" lon="0">
        <time>2020-12-06T08:28:33.379000+00:00</time>
      </trkpt>
      <trkpt lat="0" lon="0">
        <time>2020-12-06T08:28:33.386000+00:00</time>
      </trkpt>
      <trkpt lat="47.32076" lon="-1.30839">
        <ele>23</ele>
        <time>2020-12-06T08:28:34.417000+00:00</time>
      </trkpt>
      <trkpt lat="0" lon="0">
        <time>2020-12-06T08:28:34.430000+00:00</time>
      </trkpt>
      <trkpt lat="0" lon="0">
        <time>2020-12-06T08:28:34.433000+00:00</time>
      </trkpt>
      <trkpt lat="0" lon="0">
        <time>2020-12-06T08:28:34.435000+00:00</time>
      </trkpt>
      <trkpt lat="47.32073" lon="-1.30839">
        <ele>23</ele>
        <time>2020-12-06T08:28:35.420000+00:00</time>
      </trkpt>
      <trkpt lat="0" lon="0">
        <time>2020-12-06T08:28:35.424000+00:00</time>
      </trkpt>
      <trkpt lat="0" lon="0">
        <time>2020-12-06T08:28:35.428000+00:00</time>
      </trkpt>
      <trkpt lat="0" lon="0">
        <time>2020-12-06T08:28:35.430000+00:00</time>
      </trkpt>
      <trkpt lat="47.3207" lon="-1.30838">
        <ele>24</ele>
        <time>2020-12-06T08:28:36.401000+00:00</time>
      </trkpt>
      <trkpt lat="0" lon="0">
        <time>2020-12-06T08:28:36.421000+00:00</time>
      </trkpt>
      <trkpt lat="0" lon="0">
        <time>2020-12-06T08:28:36.429000+00:00</time>
      </trkpt>
      <trkpt lat="0" lon="0">
        <time>2020-12-06T08:28:36.430000+00:00</time>
      </trkpt>
      <trkpt lat="47.32068" lon="-1.30838">
        <ele>24</ele>
        <time>2020-12-06T08:28:37.413000+00:00</time>
      </trkpt>
      <trkpt lat="0" lon="0">
        <time>2020-12-06T08:28:37.416000+00:00</time>
      </trkpt>
      <trkpt lat="0" lon="0">
        <time>2020-12-06T08:28:37.420000+00:00</time>
      </trkpt>
      <trkpt lat="0" lon="0">
        <time>2020-12-06T08:28:37.425000+00:00</time>
      </trkpt>
      <trkpt lat="47.32065" lon="-1.30838">
        <ele>24</ele>
        <time>2020-12-06T08:28:38.401000+00:00</time>
      </trkpt>
      <trkpt lat="0" lon="0">
        <time>2020-12-06T08:28:38.418000+00:00</time>
      </trkpt>
      <trkpt lat="0" lon="0">
        <time>2020-12-06T08:28:38.422000+00:00</time>
      </trkpt>
      <trkpt lat="0" lon="0">
        <time>2020-12-06T08:28:38.423000+00:00</time>
      </trkpt>
      <trkpt lat="47.32062" lon="-1.30838">
        <ele>24</ele>
        <time>2020-12-06T08:28:39.394000+00:00</time>
      </trkpt>
      <trkpt lat="0" lon="0">
        <time>2020-12-06T08:28:39.398000+00:00</time>
      </trkpt>
      <trkpt lat="0" lon="0">
        <time>2020-12-06T08:28:39.405000+00:00</time>
      </trkpt>
      <trkpt lat="0" lon="0">
        <time>2020-12-06T08:28:39.408000+00:00</time>
      </trkpt>
      <trkpt lat="47.3206" lon="-1.30837">
        <ele>25</ele>
        <time>2020-12-06T08:28:40.386000+00:00</time>
      </trkpt>
      <trkpt lat="0" lon="0">
        <time>2020-12-06T08:28:40.388000+00:00</time>
      </trkpt>
      <trkpt lat="0" lon="0">
        <time>2020-12-06T08:28:40.390000+00:00</time>
      </trkpt>
      <trkpt lat="0" lon="0">
        <time>2020-12-06T08:28:40.392000+00:00</time>
      </trkpt>
      <trkpt lat="47.32058" lon="-1.30837">
        <ele>25</ele>
        <time>2020-12-06T08:28:41.429000+00:00</time>
      </trkpt>
      <trkpt lat="0" lon="0">
        <time>2020-12-06T08:28:41.438000+00:00</time>
      </trkpt>
      <trkpt lat="0" lon="0">
        <time>2020-12-06T08:28:41.441000+00:00</time>
      </trkpt>
      <trkpt lat="0" lon="0">
        <time>2020-12-06T08:28:41.443000+00:00</time>
      </trkpt>
      <trkpt lat="47.32055" lon="-1.30836">
        <ele>25</ele>
        <time>2020-12-06T08:28:42.439000+00:00</time>
      </trkpt>
      <trkpt lat="0" lon="0">
        <time>2020-12-06T08:28:42.444000+00:00</time>
      </trkpt>
      <trkpt lat="0" lon="0">
        <time>2020-12-06T08:28:42.448000+00:00</time>
      </trkpt>
      <trkpt lat="0" lon="0">
        <time>2020-12-06T08:28:42.450000+00:00</time>
      </trkpt>
      <trkpt lat="47.32053" lon="-1.30836">
        <ele>25</ele>
        <time>2020-12-06T08:28:43.420000+00:00</time>
      </trkpt>
      <trkpt lat="0" lon="0">
        <time>2020-12-06T08:28:43.438000+00:00</time>
      </trkpt>
      <trkpt lat="0" lon="0">
        <time>2020-12-06T08:28:43.449000+00:00</time>
      </trkpt>
      <trkpt lat="0" lon="0">
        <time>2020-12-06T08:28:43.452000+00:00</time>
      </trkpt>
      <trkpt lat="47.32051" lon="-1.30836">
        <ele>25</ele>
        <time>2020-12-06T08:28:44.438000+00:00</time>
      </trkpt>
      <trkpt lat="0" lon="0">
        <time>2020-12-06T08:28:44.452000+00:00</time>
      </trkpt>
      <trkpt lat="0" lon="0">
        <time>2020-12-06T08:28:44.454000+00:00</time>
      </trkpt>
      <trkpt lat="0" lon="0">
        <time>2020-12-06T08:28:44.456000+00:00</time>
      </trkpt>
      <trkpt lat="47.3205" lon="-1.30835">
        <ele>26</ele>
        <time>2020-12-06T08:28:45.429000+00:00</time>
      </trkpt>
      <trkpt lat="0" lon="0">
        <time>2020-12-06T08:28:45.435000+00:00</time>
      </trkpt>
      <trkpt lat="0" lon="0">
        <time>2020-12-06T08:28:45.444000+00:00</time>
      </trkpt>
      <trkpt lat="0" lon="0">
        <time>2020-12-06T08:28:45.448000+00:00</time>
      </trkpt>
      <trkpt lat="47.32048" lon="-1.30835">
        <ele>26</ele>
        <time>2020-12-06T08:28:46.412000+00:00</time>
      </trkpt>
      <trkpt lat="0" lon="0">
        <time>2020-12-06T08:28:46.414000+00:00</time>
      </trkpt>
      <trkpt lat="0" lon="0">
        <time>2020-12-06T08:28:46.421000+00:00</time>
      </trkpt>
      <trkpt lat="0" lon="0">
        <time>2020-12-06T08:28:46.422000+00:00</time>
      </trkpt>
      <trkpt lat="47.32046" lon="-1.30835">
        <ele>26</ele>
        <time>2020-12-06T08:28:47.438000+00:00</time>
      </trkpt>
      <trkpt lat="0" lon="0">
        <time>2020-12-06T08:28:47.448000+00:00</time>
      </trkpt>
      <trkpt lat="0" lon="0">
        <time>2020-12-06T08:28:47.460000+00:00</time>
      </trkpt>
      <trkpt lat="0" lon="0">
        <time>2020-12-06T08:28:47.463000+00:00</time>
      </trkpt>
      <trkpt lat="47.32044" lon="-1.30834">
        <ele>26</ele>
        <time>2020-12-06T08:28:48.472000+00:00</time>
      </trkpt>
      <trkpt lat="0" lon="0">
        <time>2020-12-06T08:28:48.478000+00:00</time>
      </trkpt>
      <trkpt lat="0" lon="0">
        <time>2020-12-06T08:28:48.481000+00:00</time>
      </trkpt>
      <trkpt lat="0" lon="0">
        <time>2020-12-06T08:28:48.484000+00:00</time>
      </trkpt>
      <trkpt lat="47.32043" lon="-1.30834">
        <ele>26</ele>
        <time>2020-12-06T08:28:49.398000+00:00</time>
      </trkpt>
      <trkpt lat="0" lon="0">
        <time>2020-12-06T08:28:49.409000+00:00</time>
      </trkpt>
      <trkpt lat="0" lon="0">
        <time>2020-12-06T08:28:49.413000+00:00</time>
      </trkpt>
      <trkpt lat="0" lon="0">
        <time>2020-12-06T08:28:49.415000+00:00</time>
      </trkpt>
      <trkpt lat="47.32041" lon="-1.30834">
        <ele>27</ele>
        <time>2020-12-06T08:28:50.416000+00:00</time>
      </trkpt>
      <trkpt lat="0" lon="0">
        <time>2020-12-06T08:28:50.429000+00:00</time>
      </trkpt>
      <trkpt lat="0" lon="0">
        <time>2020-12-06T08:28:50.432000+00:00</time>
      </trkpt>
      <trkpt lat="0" lon="0">
        <time>2020-12-06T08:28:50.434000+00:00</time>
      </trkpt>
      <trkpt lat="47.3204" lon="-1.30834">
        <ele>27</ele>
        <time>2020-12-06T08:28:51.397000+00:00</time>
      </trkpt>
      <trkpt lat="0" lon="0">
        <time>2020-12-06T08:28:51.413000+00:00</time>
      </trkpt>
      <trkpt lat="0" lon="0">
        <time>2020-12-06T08:28:51.419000+00:00</time>
      </trkpt>
      <trkpt lat="0" lon="0">
        <time>2020-12-06T08:28:51.423000+00:00</time>
      </trkpt>
      <trkpt lat="47.32039" lon="-1.30834">
        <ele>27</ele>
        <time>2020-12-06T08:28:52.418000+00:00</time>
      </trkpt>
      <trkpt lat="0" lon="0">
        <time>2020-12-06T08:28:52.431000+00:00</time>
      </trkpt>
      <trkpt lat="0" lon="0">
        <time>2020-12-06T08:28:52.433000+00:00</time>
      </trkpt>
      <trkpt lat="47.32037" lon="-1.30834">
        <ele>27</ele>
        <time>2020-12-06T08:28:53.447000+00:00</time>
      </trkpt>
      <trkpt lat="0" lon="0">
        <time>2020-12-06T08:28:53.465000+00:00</time>
      </trkpt>
      <trkpt lat="0" lon="0">
        <time>2020-12-06T08:28:53.476000+00:00</time>
      </trkpt>
      <trkpt lat="0" lon="0">
        <time>2020-12-06T08:28:53.480000+00:00</time>
      </trkpt>
      <trkpt lat="47.32036" lon="-1.30834">
        <ele>27</ele>
        <time>2020-12-06T08:28:54.430000+00:00</time>
      </trkpt>
      <trkpt lat="0" lon="0">
        <time>2020-12-06T08:28:54.441000+00:00</time>
      </trkpt>
      <trkpt lat="0" lon="0">
        <time>2020-12-06T08:28:54.442000+00:00</time>
      </trkpt>
      <trkpt lat="0" lon="0">
        <time>2020-12-06T08:28:54.447000+00:00</time>
      </trkpt>
      <trkpt lat="47.32035" lon="-1.30834">
        <ele>27</ele>
        <time>2020-12-06T08:28:55.364000+00:00</time>
      </trkpt>
      <trkpt lat="0" lon="0">
        <time>2020-12-06T08:28:55.367000+00:00</time>
      </trkpt>
      <trkpt lat="0" lon="0">
        <time>2020-12-06T08:28:55.380000+00:00</time>
      </trkpt>
      <trkpt lat="0" lon="0">
        <time>2020-12-06T08:28:55.381000+00:00</time>
      </trkpt>
      <trkpt lat="47.32033" lon="-1.30834">
        <ele>27</ele>
        <time>2020-12-06T08:28:56.416000+00:00</time>
      </trkpt>
      <trkpt lat="0" lon="0">
        <time>2020-12-06T08:28:56.437000+00:00</time>
      </trkpt>
      <trkpt lat="0" lon="0">
        <time>2020-12-06T08:28:56.447000+00:00</time>
      </trkpt>
      <trkpt lat="0" lon="0">
        <time>2020-12-06T08:28:56.449000+00:00</time>
      </trkpt>
      <trkpt lat="47.32032" lon="-1.30835">
        <ele>27</ele>
        <time>2020-12-06T08:28:57.438000+00:00</time>
      </trkpt>
      <trkpt lat="0" lon="0">
        <time>2020-12-06T08:28:57.441000+00:00</time>
      </trkpt>
      <trkpt lat="0" lon="0">
        <time>2020-12-06T08:28:57.444000+00:00</time>
      </trkpt>
      <trkpt lat="0" lon="0">
        <time>2020-12-06T08:28:57.446000+00:00</time>
      </trkpt>
      <trkpt lat="47.3203" lon="-1.30835">
        <ele>28</ele>
        <time>2020-12-06T08:28:58.433000+00:00</time>
      </trkpt>
      <trkpt lat="0" lon="0">
        <time>2020-12-06T08:28:58.449000+00:00</time>
      </trkpt>
      <trkpt lat="0" lon="0">
        <time>2020-12-06T08:28:58.453000+00:00</time>
      </trkpt>
      <trkpt lat="0" lon="0">
        <time>2020-12-06T08:28:58.461000+00:00</time>
      </trkpt>
      <trkpt lat="47.32029" lon="-1.30835">
        <ele>28</ele>
        <time>2020-12-06T08:28:59.403000+00:00</time>
      </trkpt>
      <trkpt lat="0" lon="0">
        <time>2020-12-06T08:28:59.412000+00:00</time>
      </trkpt>
      <trkpt lat="0" lon="0">
        <time>2020-12-06T08:28:59.418000+00:00</time>
      </trkpt>
      <trkpt lat="0" lon="0">
        <time>2020-12-06T08:28:59.420000+00:00</time>
      </trkpt>
      <trkpt lat="47.32027" lon="-1.30835">
        <ele>28</ele>
        <time>2020-12-06T08:29:00.421000+00:00</time>
      </trkpt>
      <trkpt lat="0" lon="0">
        <time>2020-12-06T08:29:00.425000+00:00</time>
      </trkpt>
      <trkpt lat="0" lon="0">
        <time>2020-12-06T08:29:00.429000+00:00</time>
      </trkpt>
      <trkpt lat="0" lon="0">
        <time>2020-12-06T08:29:00.432000+00:00</time>
      </trkpt>
      <trkpt lat="47.32026" lon="-1.30835">
        <ele>28</ele>
        <time>2020-12-06T08:29:01.429000+00:00</time>
      </trkpt>
      <trkpt lat="0" lon="0">
        <time>2020-12-06T08:29:01.435000+00:00</time>
      </trkpt>
      <trkpt lat="0" lon="0">
        <time>2020-12-06T08:29:01.439000+00:00</time>
      </trkpt>
      <trkpt lat="0" lon="0">
        <time>2020-12-06T08:29:01.441000+00:00</time>
      </trkpt>
      <trkpt lat="47.32024" lon="-1.30836">
        <ele>28</ele>
        <time>2020-12-06T08:29:02.424000+00:00</time>
      </trkpt>
      <trkpt lat="0" lon="0">
        <time>2020-12-06T08:29:02.435000+00:00</time>
      </trkpt>
      <trkpt lat="0" lon="0">
        <time>2020-12-06T08:29:02.440000+00:00</time>
      </trkpt>
      <trkpt lat="0" lon="0">
        <time>2020-12-06T08:29:02.442000+00:00</time>
      </trkpt>
      <trkpt lat="47.32022" lon="-1.30836">
        <ele>28</ele>
        <time>2020-12-06T08:29:03.429000+00:00</time>
      </trkpt>
      <trkpt lat="0" lon="0">
        <time>2020-12-06T08:29:03.431000+00:00</time>
      </trkpt>
      <trkpt lat="0" lon="0">
        <time>2020-12-06T08:29:03.439000+00:00</time>
      </trkpt>
      <trkpt lat="0" lon="0">
        <time>2020-12-06T08:29:03.441000+00:00</time>
      </trkpt>
      <trkpt lat="47.32021" lon="-1.30836">
        <ele>28</ele>
        <time>2020-12-06T08:29:04.433000+00:00</time>
      </trkpt>
      <trkpt lat="0" lon="0">
        <time>2020-12-06T08:29:04.452000+00:00</time>
      </trkpt>
      <trkpt lat="0" lon="0">
        <time>2020-12-06T08:29:04.456000+00:00</time>
      </trkpt>
      <trkpt lat="0" lon="0">
        <time>2020-12-06T08:29:04.460000+00:00</time>
      </trkpt>
      <trkpt lat="47.32019" lon="-1.30836">
        <ele>28</ele>
        <time>2020-12-06T08:29:05.377000+00:00</time>
      </trkpt>
      <trkpt lat="0" lon="0">
        <time>2020-12-06T08:29:05.381000+00:00</time>
      </trkpt>
      <trkpt lat="0" lon="0">
        <time>2020-12-06T08:29:05.391000+00:00</time>
      </trkpt>
      <trkpt lat="0" lon="0">
        <time>2020-12-06T08:29:05.395000+00:00</time>
      </trkpt>
      <trkpt lat="47.32018" lon="-1.30837">
        <ele>29</ele>
        <time>2020-12-06T08:29:06.405000+00:00</time>
      </trkpt>
      <trkpt lat="0" lon="0">
        <time>2020-12-06T08:29:06.416000+00:00</time>
      </trkpt>
      <trkpt lat="0" lon="0">
        <time>2020-12-06T08:29:06.421000+00:00</time>
      </trkpt>
      <trkpt lat="0" lon="0">
        <time>2020-12-06T08:29:06.423000+00:00</time>
      </trkpt>
      <trkpt lat="47.32016" lon="-1.30837">
        <ele>29</ele>
        <time>2020-12-06T08:29:07.431000+00:00</time>
      </trkpt>
      <trkpt lat="0" lon="0">
        <time>2020-12-06T08:29:07.446000+00:00</time>
      </trkpt>
      <trkpt lat="0" lon="0">
        <time>2020-12-06T08:29:07.453000+00:00</time>
      </trkpt>
      <trkpt lat="0" lon="0">
        <time>2020-12-06T08:29:07.460000+00:00</time>
      </trkpt>
      <trkpt lat="47.32014" lon="-1.30837">
        <ele>29</ele>
        <time>2020-12-06T08:29:08.444000+00:00</time>
      </trkpt>
      <trkpt lat="0" lon="0">
        <time>2020-12-06T08:29:08.454000+00:00</time>
      </trkpt>
      <trkpt lat="0" lon="0">
        <time>2020-12-06T08:29:08.467000+00:00</time>
      </trkpt>
      <trkpt lat="0" lon="0">
        <time>2020-12-06T08:29:08.469000+00:00</time>
      </trkpt>
      <trkpt lat="47.32013" lon="-1.30837">
        <ele>29</ele>
        <time>2020-12-06T08:29:09.440000+00:00</time>
      </trkpt>
      <trkpt lat="0" lon="0">
        <time>2020-12-06T08:29:09.449000+00:00</time>
      </trkpt>
      <trkpt lat="0" lon="0">
        <time>2020-12-06T08:29:09.453000+00:00</time>
      </trkpt>
      <trkpt lat="0" lon="0">
        <time>2020-12-06T08:29:09.456000+00:00</time>
      </trkpt>
      <trkpt lat="47.32011" lon="-1.30837">
        <ele>29</ele>
        <time>2020-12-06T08:29:10.415000+00:00</time>
      </trkpt>
      <trkpt lat="0" lon="0">
        <time>2020-12-06T08:29:10.424000+00:00</time>
      </trkpt>
      <trkpt lat="0" lon="0">
        <time>2020-12-06T08:29:10.433000+00:00</time>
      </trkpt>
      <trkpt lat="0" lon="0">
        <time>2020-12-06T08:29:10.434000+00:00</time>
      </trkpt>
      <trkpt lat="47.32009" lon="-1.30837">
        <ele>29</ele>
        <time>2020-12-06T08:29:11.431000+00:00</time>
      </trkpt>
      <trkpt lat="0" lon="0">
        <time>2020-12-06T08:29:11.449000+00:00</time>
      </trkpt>
      <trkpt lat="0" lon="0">
        <time>2020-12-06T08:29:11.454000+00:00</time>
      </trkpt>
      <trkpt lat="0" lon="0">
        <time>2020-12-06T08:29:11.456000+00:00</time>
      </trkpt>
      <trkpt lat="47.32007" lon="-1.30836">
        <ele>30</ele>
        <time>2020-12-06T08:29:12.408000+00:00</time>
      </trkpt>
      <trkpt lat="0" lon="0">
        <time>2020-12-06T08:29:12.411000+00:00</time>
      </trkpt>
      <trkpt lat="0" lon="0">
        <time>2020-12-06T08:29:12.415000+00:00</time>
      </trkpt>
      <trkpt lat="0" lon="0">
        <time>2020-12-06T08:29:12.417000+00:00</time>
      </trkpt>
      <trkpt lat="47.32005" lon="-1.30836">
        <ele>30</ele>
        <time>2020-12-06T08:29:13.441000+00:00</time>
      </trkpt>
      <trkpt lat="0" lon="0">
        <time>2020-12-06T08:29:13.457000+00:00</time>
      </trkpt>
      <trkpt lat="0" lon="0">
        <time>2020-12-06T08:29:13.461000+00:00</time>
      </trkpt>
      <trkpt lat="0" lon="0">
        <time>2020-12-06T08:29:13.462000+00:00</time>
      </trkpt>
      <trkpt lat="47.32004" lon="-1.30835">
        <ele>30</ele>
        <time>2020-12-06T08:29:14.429000+00:00</time>
      </trkpt>
      <trkpt lat="0" lon="0">
        <time>2020-12-06T08:29:14.433000+00:00</time>
      </trkpt>
      <trkpt lat="0" lon="0">
        <time>2020-12-06T08:29:14.438000+00:00</time>
      </trkpt>
      <trkpt lat="0" lon="0">
        <time>2020-12-06T08:29:14.440000+00:00</time>
      </trkpt>
      <trkpt lat="47.32002" lon="-1.30835">
        <ele>30</ele>
        <time>2020-12-06T08:29:15.426000+00:00</time>
      </trkpt>
      <trkpt lat="0" lon="0">
        <time>2020-12-06T08:29:15.433000+00:00</time>
      </trkpt>
      <trkpt lat="0" lon="0">
        <time>2020-12-06T08:29:15.435000+00:00</time>
      </trkpt>
      <trkpt lat="0" lon="0">
        <time>2020-12-06T08:29:15.436000+00:00</time>
      </trkpt>
      <trkpt lat="47.32" lon="-1.30835">
        <ele>30</ele>
        <time>2020-12-06T08:29:16.414000+00:00</time>
      </trkpt>
      <trkpt lat="0" lon="0">
        <time>2020-12-06T08:29:16.434000+00:00</time>
      </trkpt>
      <trkpt lat="0" lon="0">
        <time>2020-12-06T08:29:16.438000+00:00</time>
      </trkpt>
      <trkpt lat="0" lon="0">
        <time>2020-12-06T08:29:16.440000+00:00</time>
      </trkpt>
      <trkpt lat="47.31998" lon="-1.30834">
        <ele>31</ele>
        <time>2020-12-06T08:29:17.394000+00:00</time>
      </trkpt>
      <trkpt lat="0" lon="0">
        <time>2020-12-06T08:29:17.400000+00:00</time>
      </trkpt>
      <trkpt lat="0" lon="0">
        <time>2020-12-06T08:29:17.407000+00:00</time>
      </trkpt>
      <trkpt lat="0" lon="0">
        <time>2020-12-06T08:29:17.409000+00:00</time>
      </trkpt>
      <trkpt lat="47.31997" lon="-1.30834">
        <ele>31</ele>
        <time>2020-12-06T08:29:18.420000+00:00</time>
      </trkpt>
      <trkpt lat="0" lon="0">
        <time>2020-12-06T08:29:18.425000+00:00</time>
      </trkpt>
      <trkpt lat="0" lon="0">
        <time>2020-12-06T08:29:18.429000+00:00</time>
      </trkpt>
      <trkpt lat="0" lon="0">
        <time>2020-12-06T08:29:18.436000+00:00</time>
      </trkpt>
      <trkpt lat="47.31995" lon="-1.30833">
        <ele>31</ele>
        <time>2020-12-06T08:29:19.426000+00:00</time>
      </trkpt>
      <trkpt lat="0" lon="0">
        <time>2020-12-06T08:29:19.428000+00:00</time>
      </trkpt>
      <trkpt lat="0" lon="0">
        <time>2020-12-06T08:29:19.429000+00:00</time>
      </trkpt>
      <trkpt lat="0" lon="0">
        <time>2020-12-06T08:29:19.430000+00:00</time>
      </trkpt>
      <trkpt lat="47.31993" lon="-1.30833">
        <ele>31</ele>
        <time>2020-12-06T08:29:20.406000+00:00</time>
      </trkpt>
      <trkpt lat="0" lon="0">
        <time>2020-12-06T08:29:20.417000+00:00</time>
      </trkpt>
      <trkpt lat="0" lon="0">
        <time>2020-12-06T08:29:20.424000+00:00</time>
      </trkpt>
      <trkpt lat="0" lon="0">
        <time>2020-12-06T08:29:20.427000+00:00</time>
      </trkpt>
      <trkpt lat="47.31992" lon="-1.30832">
        <ele>31</ele>
        <time>2020-12-06T08:29:21.394000+00:00</time>
      </trkpt>
      <trkpt lat="0" lon="0">
        <time>2020-12-06T08:29:21.402000+00:00</time>
      </trkpt>
      <trkpt lat="0" lon="0">
        <time>2020-12-06T08:29:21.405000+00:00</time>
      </trkpt>
      <trkpt lat="0" lon="0">
        <time>2020-12-06T08:29:21.409000+00:00</time>
      </trkpt>
      <trkpt lat="47.3199" lon="-1.30832">
        <ele>31</ele>
        <time>2020-12-06T08:29:22.431000+00:00</time>
      </trkpt>
      <trkpt lat="0" lon="0">
        <time>2020-12-06T08:29:22.438000+00:00</time>
      </trkpt>
      <trkpt lat="0" lon="0">
        <time>2020-12-06T08:29:22.442000+00:00</time>
      </trkpt>
      <trkpt lat="0" lon="0">
        <time>2020-12-06T08:29:22.449000+00:00</time>
      </trkpt>
      <trkpt lat="47.31988" lon="-1.30832">
        <ele>31</ele>
        <time>2020-12-06T08:29:23.440000+00:00</time>
      </trkpt>
      <trkpt lat="0" lon="0">
        <time>2020-12-06T08:29:23.454000+00:00</time>
      </trkpt>
      <trkpt lat="0" lon="0">
        <time>2020-12-06T08:29:23.464000+00:00</time>
      </trkpt>
      <trkpt lat="0" lon="0">
        <time>2020-12-06T08:29:23.468000+00:00</time>
      </trkpt>
      <trkpt lat="47.31987" lon="-1.30831">
        <ele>31</ele>
        <time>2020-12-06T08:29:24.438000+00:00</time>
      </trkpt>
      <trkpt lat="0" lon="0">
        <time>2020-12-06T08:29:24.442000+00:00</time>
      </trkpt>
      <trkpt lat="0" lon="0">
        <time>2020-12-06T08:29:24.455000+00:00</time>
      </trkpt>
      <trkpt lat="0" lon="0">
        <time>2020-12-06T08:29:24.457000+00:00</time>
      </trkpt>
      <trkpt lat="47.31986" lon="-1.30831">
        <ele>31</ele>
        <time>2020-12-06T08:29:25.436000+00:00</time>
      </trkpt>
      <trkpt lat="0" lon="0">
        <time>2020-12-06T08:29:25.439000+00:00</time>
      </trkpt>
      <trkpt lat="0" lon="0">
        <time>2020-12-06T08:29:25.454000+00:00</time>
      </trkpt>
      <trkpt lat="0" lon="0">
        <time>2020-12-06T08:29:25.458000+00:00</time>
      </trkpt>
      <trkpt lat="47.31984" lon="-1.3083">
        <ele>32</ele>
        <time>2020-12-06T08:29:26.409000+00:00</time>
      </trkpt>
      <trkpt lat="0" lon="0">
        <time>2020-12-06T08:29:26.416000+00:00</time>
      </trkpt>
      <trkpt lat="0" lon="0">
        <time>2020-12-06T08:29:26.419000+00:00</time>
      </trkpt>
      <trkpt lat="0" lon="0">
        <time>2020-12-06T08:29:26.423000+00:00</time>
      </trkpt>
      <trkpt lat="47.31982" lon="-1.30829">
        <ele>32</ele>
        <time>2020-12-06T08:29:27.434000+00:00</time>
      </trkpt>
      <trkpt lat="0" lon="0">
        <time>2020-12-06T08:29:27.440000+00:00</time>
      </trkpt>
      <trkpt lat="0" lon="0">
        <time>2020-12-06T08:29:27.457000+00:00</time>
      </trkpt>
      <trkpt lat="0" lon="0">
        <time>2020-12-06T08:29:27.462000+00:00</time>
      </trkpt>
      <trkpt lat="47.31981" lon="-1.30829">
        <ele>32</ele>
        <time>2020-12-06T08:29:28.422000+00:00</time>
      </trkpt>
      <trkpt lat="0" lon="0">
        <time>2020-12-06T08:29:28.425000+00:00</time>
      </trkpt>
      <trkpt lat="0" lon="0">
        <time>2020-12-06T08:29:28.439000+00:00</time>
      </trkpt>
      <trkpt lat="0" lon="0">
        <time>2020-12-06T08:29:28.441000+00:00</time>
      </trkpt>
      <trkpt lat="47.31979" lon="-1.30828">
        <ele>32</ele>
        <time>2020-12-06T08:29:29.435000+00:00</time>
      </trkpt>
      <trkpt lat="0" lon="0">
        <time>2020-12-06T08:29:29.439000+00:00</time>
      </trkpt>
      <trkpt lat="0" lon="0">
        <time>2020-12-06T08:29:29.448000+00:00</time>
      </trkpt>
      <trkpt lat="0" lon="0">
        <time>2020-12-06T08:29:29.451000+00:00</time>
      </trkpt>
      <trkpt lat="47.31978" lon="-1.30827">
        <ele>32</ele>
        <time>2020-12-06T08:29:30.423000+00:00</time>
      </trkpt>
      <trkpt lat="0" lon="0">
        <time>2020-12-06T08:29:30.432000+00:00</time>
      </trkpt>
      <trkpt lat="0" lon="0">
        <time>2020-12-06T08:29:30.434000+00:00</time>
      </trkpt>
      <trkpt lat="0" lon="0">
        <time>2020-12-06T08:29:30.435000+00:00</time>
      </trkpt>
      <trkpt lat="47.31976" lon="-1.30826">
        <ele>32</ele>
        <time>2020-12-06T08:29:31.419000+00:00</time>
      </trkpt>
      <trkpt lat="0" lon="0">
        <time>2020-12-06T08:29:31.442000+00:00</time>
      </trkpt>
      <trkpt lat="0" lon="0">
        <time>2020-12-06T08:29:31.450000+00:00</time>
      </trkpt>
      <trkpt lat="0" lon="0">
        <time>2020-12-06T08:29:31.455000+00:00</time>
      </trkpt>
      <trkpt lat="47.31975" lon="-1.30825">
        <ele>32</ele>
        <time>2020-12-06T08:29:32.404000+00:00</time>
      </trkpt>
      <trkpt lat="0" lon="0">
        <time>2020-12-06T08:29:32.409000+00:00</time>
      </trkpt>
      <trkpt lat="0" lon="0">
        <time>2020-12-06T08:29:32.412000+00:00</time>
      </trkpt>
      <trkpt lat="0" lon="0">
        <time>2020-12-06T08:29:32.414000+00:00</time>
      </trkpt>
      <trkpt lat="47.31974" lon="-1.30824">
        <ele>32</ele>
        <time>2020-12-06T08:29:33.452000+00:00</time>
      </trkpt>
      <trkpt lat="0" lon="0">
        <time>2020-12-06T08:29:33.462000+00:00</time>
      </trkpt>
      <trkpt lat="0" lon="0">
        <time>2020-12-06T08:29:33.475000+00:00</time>
      </trkpt>
      <trkpt lat="0" lon="0">
        <time>2020-12-06T08:29:33.477000+00:00</time>
      </trkpt>
      <trkpt lat="47.31972" lon="-1.30823">
        <ele>32</ele>
        <time>2020-12-06T08:29:34.440000+00:00</time>
      </trkpt>
      <trkpt lat="0" lon="0">
        <time>2020-12-06T08:29:34.453000+00:00</time>
      </trkpt>
      <trkpt lat="0" lon="0">
        <time>2020-12-06T08:29:34.457000+00:00</time>
      </trkpt>
      <trkpt lat="0" lon="0">
        <time>2020-12-06T08:29:34.459000+00:00</time>
      </trkpt>
      <trkpt lat="47.3197" lon="-1.30822">
        <ele>33</ele>
        <time>2020-12-06T08:29:35.398000+00:00</time>
      </trkpt>
      <trkpt lat="0" lon="0">
        <time>2020-12-06T08:29:35.403000+00:00</time>
      </trkpt>
      <trkpt lat="0" lon="0">
        <time>2020-12-06T08:29:35.416000+00:00</time>
      </trkpt>
      <trkpt lat="0" lon="0">
        <time>2020-12-06T08:29:35.418000+00:00</time>
      </trkpt>
      <trkpt lat="47.31969" lon="-1.30821">
        <ele>33</ele>
        <time>2020-12-06T08:29:36.432000+00:00</time>
      </trkpt>
      <trkpt lat="0" lon="0">
        <time>2020-12-06T08:29:36.435000+00:00</time>
      </trkpt>
      <trkpt lat="0" lon="0">
        <time>2020-12-06T08:29:36.445000+00:00</time>
      </trkpt>
      <trkpt lat="0" lon="0">
        <time>2020-12-06T08:29:36.447000+00:00</time>
      </trkpt>
      <trkpt lat="47.31967" lon="-1.3082">
        <ele>33</ele>
        <time>2020-12-06T08:29:37.423000+00:00</time>
      </trkpt>
      <trkpt lat="0" lon="0">
        <time>2020-12-06T08:29:37.431000+00:00</time>
      </trkpt>
      <trkpt lat="0" lon="0">
        <time>2020-12-06T08:29:37.434000+00:00</time>
      </trkpt>
      <trkpt lat="0" lon="0">
        <time>2020-12-06T08:29:37.437000+00:00</time>
      </trkpt>
      <trkpt lat="47.31965" lon="-1.30819">
        <ele>33</ele>
        <time>2020-12-06T08:29:38.445000+00:00</time>
      </trkpt>
      <trkpt lat="0" lon="0">
        <time>2020-12-06T08:29:38.455000+00:00</time>
      </trkpt>
      <trkpt lat="0" lon="0">
        <time>2020-12-06T08:29:38.457000+00:00</time>
      </trkpt>
      <trkpt lat="0" lon="0">
        <time>2020-12-06T08:29:38.458000+00:00</time>
      </trkpt>
      <trkpt lat="47.31964" lon="-1.30818">
        <ele>33</ele>
        <time>2020-12-06T08:29:39.394000+00:00</time>
      </trkpt>
      <trkpt lat="0" lon="0">
        <time>2020-12-06T08:29:39.402000+00:00</time>
      </trkpt>
      <trkpt lat="0" lon="0">
        <time>2020-12-06T08:29:39.415000+00:00</time>
      </trkpt>
      <trkpt lat="0" lon="0">
        <time>2020-12-06T08:29:39.424000+00:00</time>
      </trkpt>
      <trkpt lat="47.31962" lon="-1.30817">
        <ele>33</ele>
        <time>2020-12-06T08:29:40.428000+00:00</time>
      </trkpt>
      <trkpt lat="0" lon="0">
        <time>2020-12-06T08:29:40.438000+00:00</time>
      </trkpt>
      <trkpt lat="0" lon="0">
        <time>2020-12-06T08:29:40.442000+00:00</time>
      </trkpt>
      <trkpt lat="0" lon="0">
        <time>2020-12-06T08:29:40.445000+00:00</time>
      </trkpt>
      <trkpt lat="47.3196" lon="-1.30816">
        <ele>33</ele>
        <time>2020-12-06T08:29:41.428000+00:00</time>
      </trkpt>
      <trkpt lat="0" lon="0">
        <time>2020-12-06T08:29:41.448000+00:00</time>
      </trkpt>
      <trkpt lat="0" lon="0">
        <time>2020-12-06T08:29:41.454000+00:00</time>
      </trkpt>
      <trkpt lat="0" lon="0">
        <time>2020-12-06T08:29:41.460000+00:00</time>
      </trkpt>
      <trkpt lat="47.31959" lon="-1.30814">
        <ele>33</ele>
        <time>2020-12-06T08:29:42.409000+00:00</time>
      </trkpt>
      <trkpt lat="0" lon="0">
        <time>2020-12-06T08:29:42.412000+00:00</time>
      </trkpt>
      <trkpt lat="0" lon="0">
        <time>2020-12-06T08:29:42.421000+00:00</time>
      </trkpt>
      <trkpt lat="0" lon="0">
        <time>2020-12-06T08:29:42.423000+00:00</time>
      </trkpt>
      <trkpt lat="47.31957" lon="-1.30813">
        <ele>34</ele>
        <time>2020-12-06T08:29:43.451000+00:00</time>
      </trkpt>
      <trkpt lat="0" lon="0">
        <time>2020-12-06T08:29:43.464000+00:00</time>
      </trkpt>
      <trkpt lat="0" lon="0">
        <time>2020-12-06T08:29:43.472000+00:00</time>
      </trkpt>
      <trkpt lat="0" lon="0">
        <time>2020-12-06T08:29:43.478000+00:00</time>
      </trkpt>
      <trkpt lat="47.31956" lon="-1.30811">
        <ele>34</ele>
        <time>2020-12-06T08:29:44.413000+00:00</time>
      </trkpt>
      <trkpt lat="0" lon="0">
        <time>2020-12-06T08:29:44.427000+00:00</time>
      </trkpt>
      <trkpt lat="0" lon="0">
        <time>2020-12-06T08:29:44.432000+00:00</time>
      </trkpt>
      <trkpt lat="0" lon="0">
        <time>2020-12-06T08:29:44.433000+00:00</time>
      </trkpt>
      <trkpt lat="47.31954" lon="-1.3081">
        <ele>34</ele>
        <time>2020-12-06T08:29:45.432000+00:00</time>
      </trkpt>
      <trkpt lat="0" lon="0">
        <time>2020-12-06T08:29:45.447000+00:00</time>
      </trkpt>
      <trkpt lat="0" lon="0">
        <time>2020-12-06T08:29:45.458000+00:00</time>
      </trkpt>
      <trkpt lat="0" lon="0">
        <time>2020-12-06T08:29:45.464000+00:00</time>
      </trkpt>
      <trkpt lat="47.31953" lon="-1.30808">
        <ele>34</ele>
        <time>2020-12-06T08:29:46.417000+00:00</time>
      </trkpt>
      <trkpt lat="0" lon="0">
        <time>2020-12-06T08:29:46.432000+00:00</time>
      </trkpt>
      <trkpt lat="0" lon="0">
        <time>2020-12-06T08:29:46.435000+00:00</time>
      </trkpt>
      <trkpt lat="0" lon="0">
        <time>2020-12-06T08:29:46.437000+00:00</time>
      </trkpt>
      <trkpt lat="47.31952" lon="-1.30807">
        <ele>34</ele>
        <time>2020-12-06T08:29:47.438000+00:00</time>
      </trkpt>
      <trkpt lat="0" lon="0">
        <time>2020-12-06T08:29:47.449000+00:00</time>
      </trkpt>
      <trkpt lat="0" lon="0">
        <time>2020-12-06T08:29:47.453000+00:00</time>
      </trkpt>
      <trkpt lat="0" lon="0">
        <time>2020-12-06T08:29:47.455000+00:00</time>
      </trkpt>
      <trkpt lat="47.3195" lon="-1.30805">
        <ele>34</ele>
        <time>2020-12-06T08:29:48.398000+00:00</time>
      </trkpt>
      <trkpt lat="0" lon="0">
        <time>2020-12-06T08:29:48.401000+00:00</time>
      </trkpt>
      <trkpt lat="0" lon="0">
        <time>2020-12-06T08:29:48.410000+00:00</time>
      </trkpt>
      <trkpt lat="0" lon="0">
        <time>2020-12-06T08:29:48.416000+00:00</time>
      </trkpt>
      <trkpt lat="47.31949" lon="-1.30803">
        <ele>34</ele>
        <time>2020-12-06T08:29:49.365000+00:00</time>
      </trkpt>
      <trkpt lat="0" lon="0">
        <time>2020-12-06T08:29:49.372000+00:00</time>
      </trkpt>
      <trkpt lat="0" lon="0">
        <time>2020-12-06T08:29:49.376000+00:00</time>
      </trkpt>
      <trkpt lat="0" lon="0">
        <time>2020-12-06T08:29:49.377000+00:00</time>
      </trkpt>
      <trkpt lat="47.31947" lon="-1.30802">
        <ele>35</ele>
        <time>2020-12-06T08:29:50.387000+00:00</time>
      </trkpt>
      <trkpt lat="0" lon="0">
        <time>2020-12-06T08:29:50.403000+00:00</time>
      </trkpt>
      <trkpt lat="0" lon="0">
        <time>2020-12-06T08:29:50.407000+00:00</time>
      </trkpt>
      <trkpt lat="0" lon="0">
        <time>2020-12-06T08:29:50.410000+00:00</time>
      </trkpt>
      <trkpt lat="47.31945" lon="-1.308">
        <ele>35</ele>
        <time>2020-12-06T08:29:51.395000+00:00</time>
      </trkpt>
      <trkpt lat="0" lon="0">
        <time>2020-12-06T08:29:51.412000+00:00</time>
      </trkpt>
      <trkpt lat="0" lon="0">
        <time>2020-12-06T08:29:51.416000+00:00</time>
      </trkpt>
      <trkpt lat="0" lon="0">
        <time>2020-12-06T08:29:51.418000+00:00</time>
      </trkpt>
      <trkpt lat="47.31944" lon="-1.30798">
        <ele>35</ele>
        <time>2020-12-06T08:29:52.457000+00:00</time>
      </trkpt>
      <trkpt lat="0" lon="0">
        <time>2020-12-06T08:29:52.479000+00:00</time>
      </trkpt>
      <trkpt lat="0" lon="0">
        <time>2020-12-06T08:29:52.486000+00:00</time>
      </trkpt>
      <trkpt lat="0" lon="0">
        <time>2020-12-06T08:29:52.490000+00:00</time>
      </trkpt>
      <trkpt lat="47.31942" lon="-1.30797">
        <ele>35</ele>
        <time>2020-12-06T08:29:53.441000+00:00</time>
      </trkpt>
      <trkpt lat="0" lon="0">
        <time>2020-12-06T08:29:53.448000+00:00</time>
      </trkpt>
      <trkpt lat="0" lon="0">
        <time>2020-12-06T08:29:53.461000+00:00</time>
      </trkpt>
      <trkpt lat="0" lon="0">
        <time>2020-12-06T08:29:53.463000+00:00</time>
      </trkpt>
      <trkpt lat="47.3194" lon="-1.30795">
        <ele>35</ele>
        <time>2020-12-06T08:29:54.388000+00:00</time>
      </trkpt>
      <trkpt lat="0" lon="0">
        <time>2020-12-06T08:29:54.395000+00:00</time>
      </trkpt>
      <trkpt lat="0" lon="0">
        <time>2020-12-06T08:29:54.401000+00:00</time>
      </trkpt>
      <trkpt lat="0" lon="0">
        <time>2020-12-06T08:29:54.403000+00:00</time>
      </trkpt>
      <trkpt lat="47.31938" lon="-1.30794">
        <ele>35</ele>
        <time>2020-12-06T08:29:55.439000+00:00</time>
      </trkpt>
      <trkpt lat="0" lon="0">
        <time>2020-12-06T08:29:55.441000+00:00</time>
      </trkpt>
      <trkpt lat="0" lon="0">
        <time>2020-12-06T08:29:55.442000+00:00</time>
      </trkpt>
      <trkpt lat="0" lon="0">
        <time>2020-12-06T08:29:55.443000+00:00</time>
      </trkpt>
      <trkpt lat="47.31937" lon="-1.30792">
        <ele>36</ele>
        <time>2020-12-06T08:29:56.429000+00:00</time>
      </trkpt>
      <trkpt lat="0" lon="0">
        <time>2020-12-06T08:29:56.438000+00:00</time>
      </trkpt>
      <trkpt lat="0" lon="0">
        <time>2020-12-06T08:29:56.445000+00:00</time>
      </trkpt>
      <trkpt lat="0" lon="0">
        <time>2020-12-06T08:29:56.447000+00:00</time>
      </trkpt>
      <trkpt lat="47.31935" lon="-1.3079">
        <ele>36</ele>
        <time>2020-12-06T08:29:57.441000+00:00</time>
      </trkpt>
      <trkpt lat="0" lon="0">
        <time>2020-12-06T08:29:57.454000+00:00</time>
      </trkpt>
      <trkpt lat="0" lon="0">
        <time>2020-12-06T08:29:57.457000+00:00</time>
      </trkpt>
      <trkpt lat="0" lon="0">
        <time>2020-12-06T08:29:57.467000+00:00</time>
      </trkpt>
      <trkpt lat="47.31933" lon="-1.30789">
        <ele>36</ele>
        <time>2020-12-06T08:29:58.433000+00:00</time>
      </trkpt>
      <trkpt lat="0" lon="0">
        <time>2020-12-06T08:29:58.446000+00:00</time>
      </trkpt>
      <trkpt lat="0" lon="0">
        <time>2020-12-06T08:29:58.455000+00:00</time>
      </trkpt>
      <trkpt lat="0" lon="0">
        <time>2020-12-06T08:29:58.459000+00:00</time>
      </trkpt>
      <trkpt lat="47.31931" lon="-1.30787">
        <ele>36</ele>
        <time>2020-12-06T08:29:59.439000+00:00</time>
      </trkpt>
      <trkpt lat="0" lon="0">
        <time>2020-12-06T08:29:59.450000+00:00</time>
      </trkpt>
      <trkpt lat="0" lon="0">
        <time>2020-12-06T08:29:59.460000+00:00</time>
      </trkpt>
      <trkpt lat="0" lon="0">
        <time>2020-12-06T08:29:59.462000+00:00</time>
      </trkpt>
      <trkpt lat="47.31929" lon="-1.30785">
        <ele>36</ele>
        <time>2020-12-06T08:30:00.344000+00:00</time>
      </trkpt>
      <trkpt lat="0" lon="0">
        <time>2020-12-06T08:30:00.346000+00:00</time>
      </trkpt>
      <trkpt lat="0" lon="0">
        <time>2020-12-06T08:30:00.347000+00:00</time>
      </trkpt>
      <trkpt lat="0" lon="0">
        <time>2020-12-06T08:30:00.348000+00:00</time>
      </trkpt>
      <trkpt lat="47.31927" lon="-1.30783">
        <ele>37</ele>
        <time>2020-12-06T08:30:01.371000+00:00</time>
      </trkpt>
      <trkpt lat="0" lon="0">
        <time>2020-12-06T08:30:01.379000+00:00</time>
      </trkpt>
      <trkpt lat="0" lon="0">
        <time>2020-12-06T08:30:01.382000+00:00</time>
      </trkpt>
      <trkpt lat="0" lon="0">
        <time>2020-12-06T08:30:01.384000+00:00</time>
      </trkpt>
      <trkpt lat="47.31925" lon="-1.30782">
        <ele>37</ele>
        <time>2020-12-06T08:30:02.403000+00:00</time>
      </trkpt>
      <trkpt lat="0" lon="0">
        <time>2020-12-06T08:30:02.410000+00:00</time>
      </trkpt>
      <trkpt lat="0" lon="0">
        <time>2020-12-06T08:30:02.416000+00:00</time>
      </trkpt>
      <trkpt lat="0" lon="0">
        <time>2020-12-06T08:30:02.419000+00:00</time>
      </trkpt>
      <trkpt lat="47.31923" lon="-1.3078">
        <ele>37</ele>
        <time>2020-12-06T08:30:03.414000+00:00</time>
      </trkpt>
      <trkpt lat="0" lon="0">
        <time>2020-12-06T08:30:03.423000+00:00</time>
      </trkpt>
      <trkpt lat="0" lon="0">
        <time>2020-12-06T08:30:03.426000+00:00</time>
      </trkpt>
      <trkpt lat="0" lon="0">
        <time>2020-12-06T08:30:03.427000+00:00</time>
      </trkpt>
      <trkpt lat="47.31921" lon="-1.30778">
        <ele>37</ele>
        <time>2020-12-06T08:30:04.389000+00:00</time>
      </trkpt>
      <trkpt lat="0" lon="0">
        <time>2020-12-06T08:30:04.393000+00:00</time>
      </trkpt>
      <trkpt lat="0" lon="0">
        <time>2020-12-06T08:30:04.399000+00:00</time>
      </trkpt>
      <trkpt lat="0" lon="0">
        <time>2020-12-06T08:30:04.401000+00:00</time>
      </trkpt>
      <trkpt lat="47.31919" lon="-1.30777">
        <ele>37</ele>
        <time>2020-12-06T08:30:05.366000+00:00</time>
      </trkpt>
      <trkpt lat="0" lon="0">
        <time>2020-12-06T08:30:05.373000+00:00</time>
      </trkpt>
      <trkpt lat="0" lon="0">
        <time>2020-12-06T08:30:05.379000+00:00</time>
      </trkpt>
      <trkpt lat="0" lon="0">
        <time>2020-12-06T08:30:05.381000+00:00</time>
      </trkpt>
      <trkpt lat="47.31917" lon="-1.30775">
        <ele>38</ele>
        <time>2020-12-06T08:30:06.372000+00:00</time>
      </trkpt>
      <trkpt lat="0" lon="0">
        <time>2020-12-06T08:30:06.383000+00:00</time>
      </trkpt>
      <trkpt lat="0" lon="0">
        <time>2020-12-06T08:30:06.387000+00:00</time>
      </trkpt>
      <trkpt lat="0" lon="0">
        <time>2020-12-06T08:30:06.393000+00:00</time>
      </trkpt>
      <trkpt lat="47.31914" lon="-1.30773">
        <ele>38</ele>
        <time>2020-12-06T08:30:07.403000+00:00</time>
      </trkpt>
      <trkpt lat="0" lon="0">
        <time>2020-12-06T08:30:07.406000+00:00</time>
      </trkpt>
      <trkpt lat="0" lon="0">
        <time>2020-12-06T08:30:07.410000+00:00</time>
      </trkpt>
      <trkpt lat="0" lon="0">
        <time>2020-12-06T08:30:07.411000+00:00</time>
      </trkpt>
      <trkpt lat="47.31912" lon="-1.30772">
        <ele>38</ele>
        <time>2020-12-06T08:30:08.396000+00:00</time>
      </trkpt>
      <trkpt lat="0" lon="0">
        <time>2020-12-06T08:30:08.405000+00:00</time>
      </trkpt>
      <trkpt lat="0" lon="0">
        <time>2020-12-06T08:30:08.409000+00:00</time>
      </trkpt>
      <trkpt lat="0" lon="0">
        <time>2020-12-06T08:30:08.416000+00:00</time>
      </trkpt>
      <trkpt lat="47.3191" lon="-1.3077">
        <ele>38</ele>
        <time>2020-12-06T08:30:09.346000+00:00</time>
      </trkpt>
      <trkpt lat="0" lon="0">
        <time>2020-12-06T08:30:09.359000+00:00</time>
      </trkpt>
      <trkpt lat="0" lon="0">
        <time>2020-12-06T08:30:09.361000+00:00</time>
      </trkpt>
      <trkpt lat="0" lon="0">
        <time>2020-12-06T08:30:09.362000+00:00</time>
      </trkpt>
      <trkpt lat="47.31908" lon="-1.30769">
        <ele>38</ele>
        <time>2020-12-06T08:30:10.395000+00:00</time>
      </trkpt>
      <trkpt lat="0" lon="0">
        <time>2020-12-06T08:30:10.398000+00:00</time>
      </trkpt>
      <trkpt lat="0" lon="0">
        <time>2020-12-06T08:30:10.408000+00:00</time>
      </trkpt>
      <trkpt lat="0" lon="0">
        <time>2020-12-06T08:30:10.415000+00:00</time>
      </trkpt>
      <trkpt lat="47.31906" lon="-1.30767">
        <ele>38</ele>
        <time>2020-12-06T08:30:11.402000+00:00</time>
      </trkpt>
      <trkpt lat="0" lon="0">
        <time>2020-12-06T08:30:11.408000+00:00</time>
      </trkpt>
      <trkpt lat="0" lon="0">
        <time>2020-12-06T08:30:11.412000+00:00</time>
      </trkpt>
      <trkpt lat="0" lon="0">
        <time>2020-12-06T08:30:11.414000+00:00</time>
      </trkpt>
      <trkpt lat="47.31904" lon="-1.30766">
        <ele>38</ele>
        <time>2020-12-06T08:30:12.358000+00:00</time>
      </trkpt>
      <trkpt lat="0" lon="0">
        <time>2020-12-06T08:30:12.362000+00:00</time>
      </trkpt>
      <trkpt lat="0" lon="0">
        <time>2020-12-06T08:30:12.366000+00:00</time>
      </trkpt>
      <trkpt lat="0" lon="0">
        <time>2020-12-06T08:30:12.368000+00:00</time>
      </trkpt>
      <trkpt lat="47.31903" lon="-1.30764">
        <ele>38</ele>
        <time>2020-12-06T08:30:13.384000+00:00</time>
      </trkpt>
      <trkpt lat="0" lon="0">
        <time>2020-12-06T08:30:13.394000+00:00</time>
      </trkpt>
      <trkpt lat="0" lon="0">
        <time>2020-12-06T08:30:13.396000+00:00</time>
      </trkpt>
      <trkpt lat="0" lon="0">
        <time>2020-12-06T08:30:13.397000+00:00</time>
      </trkpt>
      <trkpt lat="47.31901" lon="-1.30763">
        <ele>39</ele>
        <time>2020-12-06T08:30:14.422000+00:00</time>
      </trkpt>
      <trkpt lat="0" lon="0">
        <time>2020-12-06T08:30:14.425000+00:00</time>
      </trkpt>
      <trkpt lat="0" lon="0">
        <time>2020-12-06T08:30:14.433000+00:00</time>
      </trkpt>
      <trkpt lat="0" lon="0">
        <time>2020-12-06T08:30:14.435000+00:00</time>
      </trkpt>
      <trkpt lat="47.31899" lon="-1.30762">
        <ele>39</ele>
        <time>2020-12-06T08:30:15.449000+00:00</time>
      </trkpt>
      <trkpt lat="0" lon="0">
        <time>2020-12-06T08:30:15.453000+00:00</time>
      </trkpt>
      <trkpt lat="0" lon="0">
        <time>2020-12-06T08:30:15.454000+00:00</time>
      </trkpt>
      <trkpt lat="47.31897" lon="-1.3076">
        <ele>39</ele>
        <time>2020-12-06T08:30:16.333000+00:00</time>
      </trkpt>
      <trkpt lat="0" lon="0">
        <time>2020-12-06T08:30:16.337000+00:00</time>
      </trkpt>
      <trkpt lat="0" lon="0">
        <time>2020-12-06T08:30:16.339000+00:00</time>
      </trkpt>
      <trkpt lat="0" lon="0">
        <time>2020-12-06T08:30:16.340000+00:00</time>
      </trkpt>
      <trkpt lat="47.31895" lon="-1.30759">
        <ele>39</ele>
        <time>2020-12-06T08:30:17.341000+00:00</time>
      </trkpt>
      <trkpt lat="0" lon="0">
        <time>2020-12-06T08:30:17.353000+00:00</time>
      </trkpt>
      <trkpt lat="0" lon="0">
        <time>2020-12-06T08:30:17.361000+00:00</time>
      </trkpt>
      <trkpt lat="0" lon="0">
        <time>2020-12-06T08:30:17.364000+00:00</time>
      </trkpt>
      <trkpt lat="47.31893" lon="-1.30757">
        <ele>39</ele>
        <time>2020-12-06T08:30:18.306000+00:00</time>
      </trkpt>
      <trkpt lat="0" lon="0">
        <time>2020-12-06T08:30:18.309000+00:00</time>
      </trkpt>
      <trkpt lat="0" lon="0">
        <time>2020-12-06T08:30:18.311000+00:00</time>
      </trkpt>
      <trkpt lat="47.3189" lon="-1.30756">
        <ele>39</ele>
        <time>2020-12-06T08:30:19.360000+00:00</time>
      </trkpt>
      <trkpt lat="0" lon="0">
        <time>2020-12-06T08:30:19.369000+00:00</time>
      </trkpt>
      <trkpt lat="0" lon="0">
        <time>2020-12-06T08:30:19.374000+00:00</time>
      </trkpt>
      <trkpt lat="0" lon="0">
        <time>2020-12-06T08:30:19.375000+00:00</time>
      </trkpt>
      <trkpt lat="47.31888" lon="-1.30754">
        <ele>39</ele>
        <time>2020-12-06T08:30:20.384000+00:00</time>
      </trkpt>
      <trkpt lat="0" lon="0">
        <time>2020-12-06T08:30:20.404000+00:00</time>
      </trkpt>
      <trkpt lat="0" lon="0">
        <time>2020-12-06T08:30:20.409000+00:00</time>
      </trkpt>
      <trkpt lat="0" lon="0">
        <time>2020-12-06T08:30:20.412000+00:00</time>
      </trkpt>
      <trkpt lat="47.31886" lon="-1.30753">
        <ele>39</ele>
        <time>2020-12-06T08:30:21.433000+00:00</time>
      </trkpt>
      <trkpt lat="0" lon="0">
        <time>2020-12-06T08:30:21.443000+00:00</time>
      </trkpt>
      <trkpt lat="0" lon="0">
        <time>2020-12-06T08:30:21.449000+00:00</time>
      </trkpt>
      <trkpt lat="0" lon="0">
        <time>2020-12-06T08:30:21.458000+00:00</time>
      </trkpt>
      <trkpt lat="47.31884" lon="-1.30752">
        <ele>40</ele>
        <time>2020-12-06T08:30:22.427000+00:00</time>
      </trkpt>
      <trkpt lat="0" lon="0">
        <time>2020-12-06T08:30:22.446000+00:00</time>
      </trkpt>
      <trkpt lat="0" lon="0">
        <time>2020-12-06T08:30:22.449000+00:00</time>
      </trkpt>
      <trkpt lat="0" lon="0">
        <time>2020-12-06T08:30:22.452000+00:00</time>
      </trkpt>
      <trkpt lat="47.31882" lon="-1.3075">
        <ele>40</ele>
        <time>2020-12-06T08:30:23.428000+00:00</time>
      </trkpt>
      <trkpt lat="0" lon="0">
        <time>2020-12-06T08:30:23.445000+00:00</time>
      </trkpt>
      <trkpt lat="0" lon="0">
        <time>2020-12-06T08:30:23.449000+00:00</time>
      </trkpt>
      <trkpt lat="0" lon="0">
        <time>2020-12-06T08:30:23.452000+00:00</time>
      </trkpt>
      <trkpt lat="47.3188" lon="-1.30749">
        <ele>40</ele>
        <time>2020-12-06T08:30:24.422000+00:00</time>
      </trkpt>
      <trkpt lat="0" lon="0">
        <time>2020-12-06T08:30:24.424000+00:00</time>
      </trkpt>
      <trkpt lat="0" lon="0">
        <time>2020-12-06T08:30:24.427000+00:00</time>
      </trkpt>
      <trkpt lat="0" lon="0">
        <time>2020-12-06T08:30:24.434000+00:00</time>
      </trkpt>
      <trkpt lat="47.31878" lon="-1.30748">
        <ele>40</ele>
        <time>2020-12-06T08:30:25.402000+00:00</time>
      </trkpt>
      <trkpt lat="0" lon="0">
        <time>2020-12-06T08:30:25.407000+00:00</time>
      </trkpt>
      <trkpt lat="0" lon="0">
        <time>2020-12-06T08:30:25.427000+00:00</time>
      </trkpt>
      <trkpt lat="0" lon="0">
        <time>2020-12-06T08:30:25.429000+00:00</time>
      </trkpt>
      <trkpt lat="47.31876" lon="-1.30746">
        <ele>40</ele>
        <time>2020-12-06T08:30:26.378000+00:00</time>
      </trkpt>
      <trkpt lat="0" lon="0">
        <time>2020-12-06T08:30:26.400000+00:00</time>
      </trkpt>
      <trkpt lat="0" lon="0">
        <time>2020-12-06T08:30:26.408000+00:00</time>
      </trkpt>
      <trkpt lat="0" lon="0">
        <time>2020-12-06T08:30:26.409000+00:00</time>
      </trkpt>
      <trkpt lat="47.31874" lon="-1.30745">
        <ele>40</ele>
        <time>2020-12-06T08:30:27.402000+00:00</time>
      </trkpt>
      <trkpt lat="0" lon="0">
        <time>2020-12-06T08:30:27.413000+00:00</time>
      </trkpt>
      <trkpt lat="0" lon="0">
        <time>2020-12-06T08:30:27.416000+00:00</time>
      </trkpt>
      <trkpt lat="0" lon="0">
        <time>2020-12-06T08:30:27.418000+00:00</time>
      </trkpt>
      <trkpt lat="47.31872" lon="-1.30744">
        <ele>40</ele>
        <time>2020-12-06T08:30:28.373000+00:00</time>
      </trkpt>
      <trkpt lat="0" lon="0">
        <time>2020-12-06T08:30:28.399000+00:00</time>
      </trkpt>
      <trkpt lat="0" lon="0">
        <time>2020-12-06T08:30:28.406000+00:00</time>
      </trkpt>
      <trkpt lat="0" lon="0">
        <time>2020-12-06T08:30:28.407000+00:00</time>
      </trkpt>
      <trkpt lat="47.31869" lon="-1.30743">
        <ele>40</ele>
        <time>2020-12-06T08:30:29.379000+00:00</time>
      </trkpt>
      <trkpt lat="0" lon="0">
        <time>2020-12-06T08:30:29.396000+00:00</time>
      </trkpt>
      <trkpt lat="0" lon="0">
        <time>2020-12-06T08:30:29.403000+00:00</time>
      </trkpt>
      <trkpt lat="0" lon="0">
        <time>2020-12-06T08:30:29.408000+00:00</time>
      </trkpt>
      <trkpt lat="47.31867" lon="-1.30742">
        <ele>40</ele>
        <time>2020-12-06T08:30:30.386000+00:00</time>
      </trkpt>
      <trkpt lat="0" lon="0">
        <time>2020-12-06T08:30:30.387000+00:00</time>
      </trkpt>
      <trkpt lat="0" lon="0">
        <time>2020-12-06T08:30:30.388000+00:00</time>
      </trkpt>
      <trkpt lat="0" lon="0">
        <time>2020-12-06T08:30:30.389000+00:00</time>
      </trkpt>
      <trkpt lat="47.31865" lon="-1.30741">
        <ele>41</ele>
        <time>2020-12-06T08:30:31.387000+00:00</time>
      </trkpt>
      <trkpt lat="0" lon="0">
        <time>2020-12-06T08:30:31.390000+00:00</time>
      </trkpt>
      <trkpt lat="0" lon="0">
        <time>2020-12-06T08:30:31.394000+00:00</time>
      </trkpt>
      <trkpt lat="0" lon="0">
        <time>2020-12-06T08:30:31.396000+00:00</time>
      </trkpt>
      <trkpt lat="47.31862" lon="-1.3074">
        <ele>41</ele>
        <time>2020-12-06T08:30:32.380000+00:00</time>
      </trkpt>
      <trkpt lat="0" lon="0">
        <time>2020-12-06T08:30:32.386000+00:00</time>
      </trkpt>
      <trkpt lat="0" lon="0">
        <time>2020-12-06T08:30:32.390000+00:00</time>
      </trkpt>
      <trkpt lat="0" lon="0">
        <time>2020-12-06T08:30:32.394000+00:00</time>
      </trkpt>
      <trkpt lat="47.3186" lon="-1.30739">
        <ele>41</ele>
        <time>2020-12-06T08:30:33.408000+00:00</time>
      </trkpt>
      <trkpt lat="0" lon="0">
        <time>2020-12-06T08:30:33.423000+00:00</time>
      </trkpt>
      <trkpt lat="0" lon="0">
        <time>2020-12-06T08:30:33.432000+00:00</time>
      </trkpt>
      <trkpt lat="0" lon="0">
        <time>2020-12-06T08:30:33.436000+00:00</time>
      </trkpt>
      <trkpt lat="47.31858" lon="-1.30739">
        <ele>41</ele>
        <time>2020-12-06T08:30:34.385000+00:00</time>
      </trkpt>
      <trkpt lat="0" lon="0">
        <time>2020-12-06T08:30:34.388000+00:00</time>
      </trkpt>
      <trkpt lat="0" lon="0">
        <time>2020-12-06T08:30:34.393000+00:00</time>
      </trkpt>
      <trkpt lat="0" lon="0">
        <time>2020-12-06T08:30:34.394000+00:00</time>
      </trkpt>
      <trkpt lat="47.31856" lon="-1.30738">
        <ele>41</ele>
        <time>2020-12-06T08:30:35.388000+00:00</time>
      </trkpt>
      <trkpt lat="0" lon="0">
        <time>2020-12-06T08:30:35.392000+00:00</time>
      </trkpt>
      <trkpt lat="0" lon="0">
        <time>2020-12-06T08:30:35.396000+00:00</time>
      </trkpt>
      <trkpt lat="0" lon="0">
        <time>2020-12-06T08:30:35.403000+00:00</time>
      </trkpt>
      <trkpt lat="47.31853" lon="-1.30738">
        <ele>41</ele>
        <time>2020-12-06T08:30:36.421000+00:00</time>
      </trkpt>
      <trkpt lat="0" lon="0">
        <time>2020-12-06T08:30:36.429000+00:00</time>
      </trkpt>
      <trkpt lat="0" lon="0">
        <time>2020-12-06T08:30:36.431000+00:00</time>
      </trkpt>
      <trkpt lat="0" lon="0">
        <time>2020-12-06T08:30:36.432000+00:00</time>
      </trkpt>
      <trkpt lat="47.31851" lon="-1.30737">
        <ele>41</ele>
        <time>2020-12-06T08:30:37.375000+00:00</time>
      </trkpt>
      <trkpt lat="0" lon="0">
        <time>2020-12-06T08:30:37.396000+00:00</time>
      </trkpt>
      <trkpt lat="0" lon="0">
        <time>2020-12-06T08:30:37.399000+00:00</time>
      </trkpt>
      <trkpt lat="0" lon="0">
        <time>2020-12-06T08:30:37.401000+00:00</time>
      </trkpt>
      <trkpt lat="47.31849" lon="-1.30736">
        <ele>41</ele>
        <time>2020-12-06T08:30:38.403000+00:00</time>
      </trkpt>
      <trkpt lat="0" lon="0">
        <time>2020-12-06T08:30:38.416000+00:00</time>
      </trkpt>
      <trkpt lat="0" lon="0">
        <time>2020-12-06T08:30:38.421000+00:00</time>
      </trkpt>
      <trkpt lat="0" lon="0">
        <time>2020-12-06T08:30:38.422000+00:00</time>
      </trkpt>
      <trkpt lat="47.31847" lon="-1.30735">
        <ele>41</ele>
        <time>2020-12-06T08:30:39.388000+00:00</time>
      </trkpt>
      <trkpt lat="0" lon="0">
        <time>2020-12-06T08:30:39.390000+00:00</time>
      </trkpt>
      <trkpt lat="0" lon="0">
        <time>2020-12-06T08:30:39.394000+00:00</time>
      </trkpt>
      <trkpt lat="0" lon="0">
        <time>2020-12-06T08:30:39.396000+00:00</time>
      </trkpt>
      <trkpt lat="47.31845" lon="-1.30734">
        <ele>42</ele>
        <time>2020-12-06T08:30:40.402000+00:00</time>
      </trkpt>
      <trkpt lat="0" lon="0">
        <time>2020-12-06T08:30:40.408000+00:00</time>
      </trkpt>
      <trkpt lat="0" lon="0">
        <time>2020-12-06T08:30:40.412000+00:00</time>
      </trkpt>
      <trkpt lat="0" lon="0">
        <time>2020-12-06T08:30:40.414000+00:00</time>
      </trkpt>
      <trkpt lat="47.31843" lon="-1.30733">
        <ele>42</ele>
        <time>2020-12-06T08:30:41.407000+00:00</time>
      </trkpt>
      <trkpt lat="0" lon="0">
        <time>2020-12-06T08:30:41.416000+00:00</time>
      </trkpt>
      <trkpt lat="0" lon="0">
        <time>2020-12-06T08:30:41.421000+00:00</time>
      </trkpt>
      <trkpt lat="0" lon="0">
        <time>2020-12-06T08:30:41.422000+00:00</time>
      </trkpt>
      <trkpt lat="47.31841" lon="-1.30733">
        <ele>42</ele>
        <time>2020-12-06T08:30:42.390000+00:00</time>
      </trkpt>
      <trkpt lat="0" lon="0">
        <time>2020-12-06T08:30:42.392000+00:00</time>
      </trkpt>
      <trkpt lat="0" lon="0">
        <time>2020-12-06T08:30:42.394000+00:00</time>
      </trkpt>
      <trkpt lat="0" lon="0">
        <time>2020-12-06T08:30:42.395000+00:00</time>
      </trkpt>
      <trkpt lat="47.31838" lon="-1.30732">
        <ele>42</ele>
        <time>2020-12-06T08:30:43.362000+00:00</time>
      </trkpt>
      <trkpt lat="0" lon="0">
        <time>2020-12-06T08:30:43.365000+00:00</time>
      </trkpt>
      <trkpt lat="0" lon="0">
        <time>2020-12-06T08:30:43.370000+00:00</time>
      </trkpt>
      <trkpt lat="0" lon="0">
        <time>2020-12-06T08:30:43.374000+00:00</time>
      </trkpt>
      <trkpt lat="47.31836" lon="-1.30732">
        <ele>42</ele>
        <time>2020-12-06T08:30:44.379000+00:00</time>
      </trkpt>
      <trkpt lat="0" lon="0">
        <time>2020-12-06T08:30:44.382000+00:00</time>
      </trkpt>
      <trkpt lat="0" lon="0">
        <time>2020-12-06T08:30:44.395000+00:00</time>
      </trkpt>
      <trkpt lat="0" lon="0">
        <time>2020-12-06T08:30:44.397000+00:00</time>
      </trkpt>
      <trkpt lat="47.31834" lon="-1.30731">
        <ele>42</ele>
        <time>2020-12-06T08:30:45.368000+00:00</time>
      </trkpt>
      <trkpt lat="0" lon="0">
        <time>2020-12-06T08:30:45.381000+00:00</time>
      </trkpt>
      <trkpt lat="0" lon="0">
        <time>2020-12-06T08:30:45.388000+00:00</time>
      </trkpt>
      <trkpt lat="0" lon="0">
        <time>2020-12-06T08:30:45.390000+00:00</time>
      </trkpt>
      <trkpt lat="47.31831" lon="-1.30731">
        <ele>42</ele>
        <time>2020-12-06T08:30:46.421000+00:00</time>
      </trkpt>
      <trkpt lat="0" lon="0">
        <time>2020-12-06T08:30:46.429000+00:00</time>
      </trkpt>
      <trkpt lat="0" lon="0">
        <time>2020-12-06T08:30:46.434000+00:00</time>
      </trkpt>
      <trkpt lat="0" lon="0">
        <time>2020-12-06T08:30:46.438000+00:00</time>
      </trkpt>
      <trkpt lat="47.31829" lon="-1.3073">
        <ele>42</ele>
        <time>2020-12-06T08:30:47.375000+00:00</time>
      </trkpt>
      <trkpt lat="0" lon="0">
        <time>2020-12-06T08:30:47.378000+00:00</time>
      </trkpt>
      <trkpt lat="0" lon="0">
        <time>2020-12-06T08:30:47.385000+00:00</time>
      </trkpt>
      <trkpt lat="0" lon="0">
        <time>2020-12-06T08:30:47.395000+00:00</time>
      </trkpt>
      <trkpt lat="47.31826" lon="-1.3073">
        <ele>43</ele>
        <time>2020-12-06T08:30:48.364000+00:00</time>
      </trkpt>
      <trkpt lat="0" lon="0">
        <time>2020-12-06T08:30:48.379000+00:00</time>
      </trkpt>
      <trkpt lat="0" lon="0">
        <time>2020-12-06T08:30:48.382000+00:00</time>
      </trkpt>
      <trkpt lat="0" lon="0">
        <time>2020-12-06T08:30:48.386000+00:00</time>
      </trkpt>
      <trkpt lat="47.31824" lon="-1.30729">
        <ele>43</ele>
        <time>2020-12-06T08:30:49.354000+00:00</time>
      </trkpt>
      <trkpt lat="0" lon="0">
        <time>2020-12-06T08:30:49.373000+00:00</time>
      </trkpt>
      <trkpt lat="0" lon="0">
        <time>2020-12-06T08:30:49.380000+00:00</time>
      </trkpt>
      <trkpt lat="0" lon="0">
        <time>2020-12-06T08:30:49.382000+00:00</time>
      </trkpt>
      <trkpt lat="47.31821" lon="-1.30728">
        <ele>43</ele>
        <time>2020-12-06T08:30:50.387000+00:00</time>
      </trkpt>
      <trkpt lat="0" lon="0">
        <time>2020-12-06T08:30:50.395000+00:00</time>
      </trkpt>
      <trkpt lat="0" lon="0">
        <time>2020-12-06T08:30:50.398000+00:00</time>
      </trkpt>
      <trkpt lat="0" lon="0">
        <time>2020-12-06T08:30:50.400000+00:00</time>
      </trkpt>
      <trkpt lat="47.31819" lon="-1.30728">
        <ele>43</ele>
        <time>2020-12-06T08:30:51.390000+00:00</time>
      </trkpt>
      <trkpt lat="0" lon="0">
        <time>2020-12-06T08:30:51.404000+00:00</time>
      </trkpt>
      <trkpt lat="0" lon="0">
        <time>2020-12-06T08:30:51.415000+00:00</time>
      </trkpt>
      <trkpt lat="0" lon="0">
        <time>2020-12-06T08:30:51.416000+00:00</time>
      </trkpt>
      <trkpt lat="47.31816" lon="-1.30727">
        <ele>43</ele>
        <time>2020-12-06T08:30:52.415000+00:00</time>
      </trkpt>
      <trkpt lat="0" lon="0">
        <time>2020-12-06T08:30:52.423000+00:00</time>
      </trkpt>
      <trkpt lat="0" lon="0">
        <time>2020-12-06T08:30:52.436000+00:00</time>
      </trkpt>
      <trkpt lat="0" lon="0">
        <time>2020-12-06T08:30:52.438000+00:00</time>
      </trkpt>
      <trkpt lat="47.31814" lon="-1.30726">
        <ele>43</ele>
        <time>2020-12-06T08:30:53.348000+00:00</time>
      </trkpt>
      <trkpt lat="0" lon="0">
        <time>2020-12-06T08:30:53.354000+00:00</time>
      </trkpt>
      <trkpt lat="0" lon="0">
        <time>2020-12-06T08:30:53.357000+00:00</time>
      </trkpt>
      <trkpt lat="0" lon="0">
        <time>2020-12-06T08:30:53.360000+00:00</time>
      </trkpt>
      <trkpt lat="47.31811" lon="-1.30726">
        <ele>44</ele>
        <time>2020-12-06T08:30:54.405000+00:00</time>
      </trkpt>
      <trkpt lat="0" lon="0">
        <time>2020-12-06T08:30:54.416000+00:00</time>
      </trkpt>
      <trkpt lat="0" lon="0">
        <time>2020-12-06T08:30:54.420000+00:00</time>
      </trkpt>
      <trkpt lat="0" lon="0">
        <time>2020-12-06T08:30:54.422000+00:00</time>
      </trkpt>
      <trkpt lat="47.31809" lon="-1.30725">
        <ele>44</ele>
        <time>2020-12-06T08:30:55.398000+00:00</time>
      </trkpt>
      <trkpt lat="0" lon="0">
        <time>2020-12-06T08:30:55.401000+00:00</time>
      </trkpt>
      <trkpt lat="0" lon="0">
        <time>2020-12-06T08:30:55.406000+00:00</time>
      </trkpt>
      <trkpt lat="0" lon="0">
        <time>2020-12-06T08:30:55.409000+00:00</time>
      </trkpt>
      <trkpt lat="47.31806" lon="-1.30724">
        <ele>44</ele>
        <time>2020-12-06T08:30:56.366000+00:00</time>
      </trkpt>
      <trkpt lat="0" lon="0">
        <time>2020-12-06T08:30:56.373000+00:00</time>
      </trkpt>
      <trkpt lat="0" lon="0">
        <time>2020-12-06T08:30:56.376000+00:00</time>
      </trkpt>
      <trkpt lat="0" lon="0">
        <time>2020-12-06T08:30:56.381000+00:00</time>
      </trkpt>
      <trkpt lat="47.31803" lon="-1.30723">
        <ele>44</ele>
        <time>2020-12-06T08:30:57.385000+00:00</time>
      </trkpt>
      <trkpt lat="0" lon="0">
        <time>2020-12-06T08:30:57.393000+00:00</time>
      </trkpt>
      <trkpt lat="0" lon="0">
        <time>2020-12-06T08:30:57.400000+00:00</time>
      </trkpt>
      <trkpt lat="0" lon="0">
        <time>2020-12-06T08:30:57.406000+00:00</time>
      </trkpt>
      <trkpt lat="47.31801" lon="-1.30722">
        <ele>44</ele>
        <time>2020-12-06T08:30:58.369000+00:00</time>
      </trkpt>
      <trkpt lat="0" lon="0">
        <time>2020-12-06T08:30:58.384000+00:00</time>
      </trkpt>
      <trkpt lat="0" lon="0">
        <time>2020-12-06T08:30:58.388000+00:00</time>
      </trkpt>
      <trkpt lat="0" lon="0">
        <time>2020-12-06T08:30:58.389000+00:00</time>
      </trkpt>
      <trkpt lat="47.31798" lon="-1.30721">
        <ele>44</ele>
        <time>2020-12-06T08:30:59.402000+00:00</time>
      </trkpt>
      <trkpt lat="0" lon="0">
        <time>2020-12-06T08:30:59.414000+00:00</time>
      </trkpt>
      <trkpt lat="0" lon="0">
        <time>2020-12-06T08:30:59.421000+00:00</time>
      </trkpt>
      <trkpt lat="0" lon="0">
        <time>2020-12-06T08:30:59.428000+00:00</time>
      </trkpt>
      <trkpt lat="47.31796" lon="-1.30721">
        <ele>45</ele>
        <time>2020-12-06T08:31:00.384000+00:00</time>
      </trkpt>
      <trkpt lat="0" lon="0">
        <time>2020-12-06T08:31:00.390000+00:00</time>
      </trkpt>
      <trkpt lat="0" lon="0">
        <time>2020-12-06T08:31:00.393000+00:00</time>
      </trkpt>
      <trkpt lat="0" lon="0">
        <time>2020-12-06T08:31:00.395000+00:00</time>
      </trkpt>
      <trkpt lat="47.31793" lon="-1.3072">
        <ele>45</ele>
        <time>2020-12-06T08:31:01.366000+00:00</time>
      </trkpt>
      <trkpt lat="0" lon="0">
        <time>2020-12-06T08:31:01.383000+00:00</time>
      </trkpt>
      <trkpt lat="0" lon="0">
        <time>2020-12-06T08:31:01.391000+00:00</time>
      </trkpt>
      <trkpt lat="0" lon="0">
        <time>2020-12-06T08:31:01.392000+00:00</time>
      </trkpt>
      <trkpt lat="47.31791" lon="-1.30719">
        <ele>45</ele>
        <time>2020-12-06T08:31:02.313000+00:00</time>
      </trkpt>
      <trkpt lat="0" lon="0">
        <time>2020-12-06T08:31:02.321000+00:00</time>
      </trkpt>
      <trkpt lat="0" lon="0">
        <time>2020-12-06T08:31:02.327000+00:00</time>
      </trkpt>
      <trkpt lat="0" lon="0">
        <time>2020-12-06T08:31:02.329000+00:00</time>
      </trkpt>
      <trkpt lat="47.31788" lon="-1.30718">
        <ele>45</ele>
        <time>2020-12-06T08:31:03.357000+00:00</time>
      </trkpt>
      <trkpt lat="0" lon="0">
        <time>2020-12-06T08:31:03.370000+00:00</time>
      </trkpt>
      <trkpt lat="0" lon="0">
        <time>2020-12-06T08:31:03.376000+00:00</time>
      </trkpt>
      <trkpt lat="0" lon="0">
        <time>2020-12-06T08:31:03.378000+00:00</time>
      </trkpt>
      <trkpt lat="47.31786" lon="-1.30717">
        <ele>45</ele>
        <time>2020-12-06T08:31:04.385000+00:00</time>
      </trkpt>
      <trkpt lat="0" lon="0">
        <time>2020-12-06T08:31:04.389000+00:00</time>
      </trkpt>
      <trkpt lat="0" lon="0">
        <time>2020-12-06T08:31:04.396000+00:00</time>
      </trkpt>
      <trkpt lat="0" lon="0">
        <time>2020-12-06T08:31:04.397000+00:00</time>
      </trkpt>
      <trkpt lat="47.31783" lon="-1.30716">
        <ele>45</ele>
        <time>2020-12-06T08:31:05.375000+00:00</time>
      </trkpt>
      <trkpt lat="0" lon="0">
        <time>2020-12-06T08:31:05.377000+00:00</time>
      </trkpt>
      <trkpt lat="0" lon="0">
        <time>2020-12-06T08:31:05.387000+00:00</time>
      </trkpt>
      <trkpt lat="0" lon="0">
        <time>2020-12-06T08:31:05.389000+00:00</time>
      </trkpt>
      <trkpt lat="47.31781" lon="-1.30716">
        <ele>46</ele>
        <time>2020-12-06T08:31:06.373000+00:00</time>
      </trkpt>
      <trkpt lat="0" lon="0">
        <time>2020-12-06T08:31:06.389000+00:00</time>
      </trkpt>
      <trkpt lat="0" lon="0">
        <time>2020-12-06T08:31:06.393000+00:00</time>
      </trkpt>
      <trkpt lat="0" lon="0">
        <time>2020-12-06T08:31:06.395000+00:00</time>
      </trkpt>
      <trkpt lat="47.31778" lon="-1.30715">
        <ele>46</ele>
        <time>2020-12-06T08:31:07.353000+00:00</time>
      </trkpt>
      <trkpt lat="0" lon="0">
        <time>2020-12-06T08:31:07.363000+00:00</time>
      </trkpt>
      <trkpt lat="0" lon="0">
        <time>2020-12-06T08:31:07.365000+00:00</time>
      </trkpt>
      <trkpt lat="0" lon="0">
        <time>2020-12-06T08:31:07.366000+00:00</time>
      </trkpt>
      <trkpt lat="47.31776" lon="-1.30714">
        <ele>46</ele>
        <time>2020-12-06T08:31:08.346000+00:00</time>
      </trkpt>
      <trkpt lat="0" lon="0">
        <time>2020-12-06T08:31:08.357000+00:00</time>
      </trkpt>
      <trkpt lat="0" lon="0">
        <time>2020-12-06T08:31:08.363000+00:00</time>
      </trkpt>
      <trkpt lat="0" lon="0">
        <time>2020-12-06T08:31:08.365000+00:00</time>
      </trkpt>
      <trkpt lat="47.31773" lon="-1.30713">
        <ele>46</ele>
        <time>2020-12-06T08:31:09.370000+00:00</time>
      </trkpt>
      <trkpt lat="0" lon="0">
        <time>2020-12-06T08:31:09.375000+00:00</time>
      </trkpt>
      <trkpt lat="0" lon="0">
        <time>2020-12-06T08:31:09.381000+00:00</time>
      </trkpt>
      <trkpt lat="0" lon="0">
        <time>2020-12-06T08:31:09.382000+00:00</time>
      </trkpt>
      <trkpt lat="47.31771" lon="-1.30712">
        <ele>46</ele>
        <time>2020-12-06T08:31:10.316000+00:00</time>
      </trkpt>
      <trkpt lat="0" lon="0">
        <time>2020-12-06T08:31:10.328000+00:00</time>
      </trkpt>
      <trkpt lat="0" lon="0">
        <time>2020-12-06T08:31:10.330000+00:00</time>
      </trkpt>
      <trkpt lat="0" lon="0">
        <time>2020-12-06T08:31:10.333000+00:00</time>
      </trkpt>
      <trkpt lat="47.31768" lon="-1.30711">
        <ele>46</ele>
        <time>2020-12-06T08:31:11.391000+00:00</time>
      </trkpt>
      <trkpt lat="0" lon="0">
        <time>2020-12-06T08:31:11.397000+00:00</time>
      </trkpt>
      <trkpt lat="0" lon="0">
        <time>2020-12-06T08:31:11.401000+00:00</time>
      </trkpt>
      <trkpt lat="0" lon="0">
        <time>2020-12-06T08:31:11.403000+00:00</time>
      </trkpt>
      <trkpt lat="47.31766" lon="-1.3071">
        <ele>47</ele>
        <time>2020-12-06T08:31:12.315000+00:00</time>
      </trkpt>
      <trkpt lat="0" lon="0">
        <time>2020-12-06T08:31:12.322000+00:00</time>
      </trkpt>
      <trkpt lat="0" lon="0">
        <time>2020-12-06T08:31:12.324000+00:00</time>
      </trkpt>
      <trkpt lat="0" lon="0">
        <time>2020-12-06T08:31:12.327000+00:00</time>
      </trkpt>
      <trkpt lat="47.31763" lon="-1.3071">
        <ele>47</ele>
        <time>2020-12-06T08:31:13.325000+00:00</time>
      </trkpt>
      <trkpt lat="0" lon="0">
        <time>2020-12-06T08:31:13.335000+00:00</time>
      </trkpt>
      <trkpt lat="0" lon="0">
        <time>2020-12-06T08:31:13.340000+00:00</time>
      </trkpt>
      <trkpt lat="0" lon="0">
        <time>2020-12-06T08:31:13.342000+00:00</time>
      </trkpt>
      <trkpt lat="47.31761" lon="-1.30709">
        <ele>47</ele>
        <time>2020-12-06T08:31:14.386000+00:00</time>
      </trkpt>
      <trkpt lat="0" lon="0">
        <time>2020-12-06T08:31:14.393000+00:00</time>
      </trkpt>
      <trkpt lat="0" lon="0">
        <time>2020-12-06T08:31:14.396000+00:00</time>
      </trkpt>
      <trkpt lat="0" lon="0">
        <time>2020-12-06T08:31:14.399000+00:00</time>
      </trkpt>
      <trkpt lat="47.31758" lon="-1.30708">
        <ele>47</ele>
        <time>2020-12-06T08:31:15.355000+00:00</time>
      </trkpt>
      <trkpt lat="0" lon="0">
        <time>2020-12-06T08:31:15.359000+00:00</time>
      </trkpt>
      <trkpt lat="0" lon="0">
        <time>2020-12-06T08:31:15.371000+00:00</time>
      </trkpt>
      <trkpt lat="0" lon="0">
        <time>2020-12-06T08:31:15.374000+00:00</time>
      </trkpt>
      <trkpt lat="47.31756" lon="-1.30707">
        <ele>47</ele>
        <time>2020-12-06T08:31:16.404000+00:00</time>
      </trkpt>
      <trkpt lat="0" lon="0">
        <time>2020-12-06T08:31:16.416000+00:00</time>
      </trkpt>
      <trkpt lat="0" lon="0">
        <time>2020-12-06T08:31:16.425000+00:00</time>
      </trkpt>
      <trkpt lat="0" lon="0">
        <time>2020-12-06T08:31:16.434000+00:00</time>
      </trkpt>
      <trkpt lat="47.31753" lon="-1.30706">
        <ele>47</ele>
        <time>2020-12-06T08:31:17.390000+00:00</time>
      </trkpt>
      <trkpt lat="0" lon="0">
        <time>2020-12-06T08:31:17.410000+00:00</time>
      </trkpt>
      <trkpt lat="0" lon="0">
        <time>2020-12-06T08:31:17.416000+00:00</time>
      </trkpt>
      <trkpt lat="0" lon="0">
        <time>2020-12-06T08:31:17.421000+00:00</time>
      </trkpt>
      <trkpt lat="47.31751" lon="-1.30705">
        <ele>48</ele>
        <time>2020-12-06T08:31:18.368000+00:00</time>
      </trkpt>
      <trkpt lat="0" lon="0">
        <time>2020-12-06T08:31:18.372000+00:00</time>
      </trkpt>
      <trkpt lat="0" lon="0">
        <time>2020-12-06T08:31:18.377000+00:00</time>
      </trkpt>
      <trkpt lat="0" lon="0">
        <time>2020-12-06T08:31:18.379000+00:00</time>
      </trkpt>
      <trkpt lat="47.31748" lon="-1.30704">
        <ele>48</ele>
        <time>2020-12-06T08:31:19.370000+00:00</time>
      </trkpt>
      <trkpt lat="0" lon="0">
        <time>2020-12-06T08:31:19.383000+00:00</time>
      </trkpt>
      <trkpt lat="0" lon="0">
        <time>2020-12-06T08:31:19.393000+00:00</time>
      </trkpt>
      <trkpt lat="0" lon="0">
        <time>2020-12-06T08:31:19.400000+00:00</time>
      </trkpt>
      <trkpt lat="47.31746" lon="-1.30703">
        <ele>48</ele>
        <time>2020-12-06T08:31:20.332000+00:00</time>
      </trkpt>
      <trkpt lat="0" lon="0">
        <time>2020-12-06T08:31:20.343000+00:00</time>
      </trkpt>
      <trkpt lat="0" lon="0">
        <time>2020-12-06T08:31:20.348000+00:00</time>
      </trkpt>
      <trkpt lat="0" lon="0">
        <time>2020-12-06T08:31:20.349000+00:00</time>
      </trkpt>
      <trkpt lat="47.31743" lon="-1.30702">
        <ele>48</ele>
        <time>2020-12-06T08:31:21.383000+00:00</time>
      </trkpt>
      <trkpt lat="0" lon="0">
        <time>2020-12-06T08:31:21.396000+00:00</time>
      </trkpt>
      <trkpt lat="0" lon="0">
        <time>2020-12-06T08:31:21.400000+00:00</time>
      </trkpt>
      <trkpt lat="0" lon="0">
        <time>2020-12-06T08:31:21.402000+00:00</time>
      </trkpt>
      <trkpt lat="47.3174" lon="-1.30702">
        <ele>48</ele>
        <time>2020-12-06T08:31:22.410000+00:00</time>
      </trkpt>
      <trkpt lat="0" lon="0">
        <time>2020-12-06T08:31:22.412000+00:00</time>
      </trkpt>
      <trkpt lat="0" lon="0">
        <time>2020-12-06T08:31:22.416000+00:00</time>
      </trkpt>
      <trkpt lat="0" lon="0">
        <time>2020-12-06T08:31:22.417000+00:00</time>
      </trkpt>
      <trkpt lat="47.31737" lon="-1.30701">
        <ele>49</ele>
        <time>2020-12-06T08:31:23.361000+00:00</time>
      </trkpt>
      <trkpt lat="0" lon="0">
        <time>2020-12-06T08:31:23.369000+00:00</time>
      </trkpt>
      <trkpt lat="0" lon="0">
        <time>2020-12-06T08:31:23.372000+00:00</time>
      </trkpt>
      <trkpt lat="0" lon="0">
        <time>2020-12-06T08:31:23.374000+00:00</time>
      </trkpt>
      <trkpt lat="47.31735" lon="-1.307">
        <ele>49</ele>
        <time>2020-12-06T08:31:24.365000+00:00</time>
      </trkpt>
      <trkpt lat="0" lon="0">
        <time>2020-12-06T08:31:24.368000+00:00</time>
      </trkpt>
      <trkpt lat="0" lon="0">
        <time>2020-12-06T08:31:24.381000+00:00</time>
      </trkpt>
      <trkpt lat="0" lon="0">
        <time>2020-12-06T08:31:24.383000+00:00</time>
      </trkpt>
      <trkpt lat="47.31732" lon="-1.30699">
        <ele>49</ele>
        <time>2020-12-06T08:31:25.392000+00:00</time>
      </trkpt>
      <trkpt lat="0" lon="0">
        <time>2020-12-06T08:31:25.403000+00:00</time>
      </trkpt>
      <trkpt lat="0" lon="0">
        <time>2020-12-06T08:31:25.408000+00:00</time>
      </trkpt>
      <trkpt lat="0" lon="0">
        <time>2020-12-06T08:31:25.413000+00:00</time>
      </trkpt>
      <trkpt lat="47.31729" lon="-1.30698">
        <ele>49</ele>
        <time>2020-12-06T08:31:26.370000+00:00</time>
      </trkpt>
      <trkpt lat="0" lon="0">
        <time>2020-12-06T08:31:26.382000+00:00</time>
      </trkpt>
      <trkpt lat="0" lon="0">
        <time>2020-12-06T08:31:26.387000+00:00</time>
      </trkpt>
      <trkpt lat="0" lon="0">
        <time>2020-12-06T08:31:26.389000+00:00</time>
      </trkpt>
      <trkpt lat="47.31726" lon="-1.30697">
        <ele>49</ele>
        <time>2020-12-06T08:31:27.384000+00:00</time>
      </trkpt>
      <trkpt lat="0" lon="0">
        <time>2020-12-06T08:31:27.395000+00:00</time>
      </trkpt>
      <trkpt lat="0" lon="0">
        <time>2020-12-06T08:31:27.400000+00:00</time>
      </trkpt>
      <trkpt lat="0" lon="0">
        <time>2020-12-06T08:31:27.401000+00:00</time>
      </trkpt>
      <trkpt lat="47.31723" lon="-1.30696">
        <ele>50</ele>
        <time>2020-12-06T08:31:28.378000+00:00</time>
      </trkpt>
      <trkpt lat="0" lon="0">
        <time>2020-12-06T08:31:28.382000+00:00</time>
      </trkpt>
      <trkpt lat="0" lon="0">
        <time>2020-12-06T08:31:28.388000+00:00</time>
      </trkpt>
      <trkpt lat="0" lon="0">
        <time>2020-12-06T08:31:28.389000+00:00</time>
      </trkpt>
      <trkpt lat="47.3172" lon="-1.30695">
        <ele>50</ele>
        <time>2020-12-06T08:31:29.363000+00:00</time>
      </trkpt>
      <trkpt lat="0" lon="0">
        <time>2020-12-06T08:31:29.369000+00:00</time>
      </trkpt>
      <trkpt lat="0" lon="0">
        <time>2020-12-06T08:31:29.374000+00:00</time>
      </trkpt>
      <trkpt lat="0" lon="0">
        <time>2020-12-06T08:31:29.376000+00:00</time>
      </trkpt>
      <trkpt lat="47.31716" lon="-1.30694">
        <ele>50</ele>
        <time>2020-12-06T08:31:30.369000+00:00</time>
      </trkpt>
      <trkpt lat="0" lon="0">
        <time>2020-12-06T08:31:30.372000+00:00</time>
      </trkpt>
      <trkpt lat="0" lon="0">
        <time>2020-12-06T08:31:30.378000+00:00</time>
      </trkpt>
      <trkpt lat="0" lon="0">
        <time>2020-12-06T08:31:30.381000+00:00</time>
      </trkpt>
      <trkpt lat="47.31713" lon="-1.30693">
        <ele>50</ele>
        <time>2020-12-06T08:31:31.401000+00:00</time>
      </trkpt>
      <trkpt lat="0" lon="0">
        <time>2020-12-06T08:31:31.411000+00:00</time>
      </trkpt>
      <trkpt lat="0" lon="0">
        <time>2020-12-06T08:31:31.414000+00:00</time>
      </trkpt>
      <trkpt lat="0" lon="0">
        <time>2020-12-06T08:31:31.416000+00:00</time>
      </trkpt>
      <trkpt lat="47.3171" lon="-1.30691">
        <ele>50</ele>
        <time>2020-12-06T08:31:32.393000+00:00</time>
      </trkpt>
      <trkpt lat="0" lon="0">
        <time>2020-12-06T08:31:32.405000+00:00</time>
      </trkpt>
      <trkpt lat="0" lon="0">
        <time>2020-12-06T08:31:32.407000+00:00</time>
      </trkpt>
      <trkpt lat="0" lon="0">
        <time>2020-12-06T08:31:32.410000+00:00</time>
      </trkpt>
      <trkpt lat="47.31707" lon="-1.30691">
        <ele>51</ele>
        <time>2020-12-06T08:31:33.391000+00:00</time>
      </trkpt>
      <trkpt lat="0" lon="0">
        <time>2020-12-06T08:31:33.395000+00:00</time>
      </trkpt>
      <trkpt lat="0" lon="0">
        <time>2020-12-06T08:31:33.399000+00:00</time>
      </trkpt>
      <trkpt lat="0" lon="0">
        <time>2020-12-06T08:31:33.401000+00:00</time>
      </trkpt>
      <trkpt lat="47.31704" lon="-1.3069">
        <ele>51</ele>
        <time>2020-12-06T08:31:34.363000+00:00</time>
      </trkpt>
      <trkpt lat="0" lon="0">
        <time>2020-12-06T08:31:34.372000+00:00</time>
      </trkpt>
      <trkpt lat="0" lon="0">
        <time>2020-12-06T08:31:34.377000+00:00</time>
      </trkpt>
      <trkpt lat="0" lon="0">
        <time>2020-12-06T08:31:34.380000+00:00</time>
      </trkpt>
      <trkpt lat="47.31701" lon="-1.30689">
        <ele>51</ele>
        <time>2020-12-06T08:31:35.361000+00:00</time>
      </trkpt>
      <trkpt lat="0" lon="0">
        <time>2020-12-06T08:31:35.373000+00:00</time>
      </trkpt>
      <trkpt lat="0" lon="0">
        <time>2020-12-06T08:31:35.377000+00:00</time>
      </trkpt>
      <trkpt lat="0" lon="0">
        <time>2020-12-06T08:31:35.381000+00:00</time>
      </trkpt>
      <trkpt lat="47.31698" lon="-1.30688">
        <ele>51</ele>
        <time>2020-12-06T08:31:36.361000+00:00</time>
      </trkpt>
      <trkpt lat="0" lon="0">
        <time>2020-12-06T08:31:36.362000+00:00</time>
      </trkpt>
      <trkpt lat="0" lon="0">
        <time>2020-12-06T08:31:36.363000+00:00</time>
      </trkpt>
      <trkpt lat="47.31695" lon="-1.30687">
        <ele>51</ele>
        <time>2020-12-06T08:31:37.380000+00:00</time>
      </trkpt>
      <trkpt lat="0" lon="0">
        <time>2020-12-06T08:31:37.389000+00:00</time>
      </trkpt>
      <trkpt lat="0" lon="0">
        <time>2020-12-06T08:31:37.394000+00:00</time>
      </trkpt>
      <trkpt lat="0" lon="0">
        <time>2020-12-06T08:31:37.396000+00:00</time>
      </trkpt>
      <trkpt lat="47.31692" lon="-1.30686">
        <ele>52</ele>
        <time>2020-12-06T08:31:38.398000+00:00</time>
      </trkpt>
      <trkpt lat="0" lon="0">
        <time>2020-12-06T08:31:38.407000+00:00</time>
      </trkpt>
      <trkpt lat="0" lon="0">
        <time>2020-12-06T08:31:38.413000+00:00</time>
      </trkpt>
      <trkpt lat="0" lon="0">
        <time>2020-12-06T08:31:38.415000+00:00</time>
      </trkpt>
      <trkpt lat="47.31689" lon="-1.30685">
        <ele>52</ele>
        <time>2020-12-06T08:31:39.349000+00:00</time>
      </trkpt>
      <trkpt lat="0" lon="0">
        <time>2020-12-06T08:31:39.364000+00:00</time>
      </trkpt>
      <trkpt lat="0" lon="0">
        <time>2020-12-06T08:31:39.368000+00:00</time>
      </trkpt>
      <trkpt lat="0" lon="0">
        <time>2020-12-06T08:31:39.370000+00:00</time>
      </trkpt>
      <trkpt lat="47.31686" lon="-1.30684">
        <ele>52</ele>
        <time>2020-12-06T08:31:40.414000+00:00</time>
      </trkpt>
      <trkpt lat="0" lon="0">
        <time>2020-12-06T08:31:40.417000+00:00</time>
      </trkpt>
      <trkpt lat="0" lon="0">
        <time>2020-12-06T08:31:40.421000+00:00</time>
      </trkpt>
      <trkpt lat="0" lon="0">
        <time>2020-12-06T08:31:40.422000+00:00</time>
      </trkpt>
      <trkpt lat="47.31683" lon="-1.30683">
        <ele>52</ele>
        <time>2020-12-06T08:31:41.378000+00:00</time>
      </trkpt>
      <trkpt lat="0" lon="0">
        <time>2020-12-06T08:31:41.383000+00:00</time>
      </trkpt>
      <trkpt lat="0" lon="0">
        <time>2020-12-06T08:31:41.394000+00:00</time>
      </trkpt>
      <trkpt lat="0" lon="0">
        <time>2020-12-06T08:31:41.396000+00:00</time>
      </trkpt>
      <trkpt lat="47.3168" lon="-1.30681">
        <ele>52</ele>
        <time>2020-12-06T08:31:42.376000+00:00</time>
      </trkpt>
      <trkpt lat="0" lon="0">
        <time>2020-12-06T08:31:42.384000+00:00</time>
      </trkpt>
      <trkpt lat="0" lon="0">
        <time>2020-12-06T08:31:42.390000+00:00</time>
      </trkpt>
      <trkpt lat="0" lon="0">
        <time>2020-12-06T08:31:42.394000+00:00</time>
      </trkpt>
      <trkpt lat="47.31677" lon="-1.3068">
        <ele>53</ele>
        <time>2020-12-06T08:31:43.370000+00:00</time>
      </trkpt>
      <trkpt lat="0" lon="0">
        <time>2020-12-06T08:31:43.373000+00:00</time>
      </trkpt>
      <trkpt lat="0" lon="0">
        <time>2020-12-06T08:31:43.380000+00:00</time>
      </trkpt>
      <trkpt lat="0" lon="0">
        <time>2020-12-06T08:31:43.381000+00:00</time>
      </trkpt>
      <trkpt lat="47.31674" lon="-1.30679">
        <ele>53</ele>
        <time>2020-12-06T08:31:44.383000+00:00</time>
      </trkpt>
      <trkpt lat="0" lon="0">
        <time>2020-12-06T08:31:44.388000+00:00</time>
      </trkpt>
      <trkpt lat="0" lon="0">
        <time>2020-12-06T08:31:44.396000+00:00</time>
      </trkpt>
      <trkpt lat="0" lon="0">
        <time>2020-12-06T08:31:44.402000+00:00</time>
      </trkpt>
      <trkpt lat="47.31671" lon="-1.30678">
        <ele>53</ele>
        <time>2020-12-06T08:31:45.369000+00:00</time>
      </trkpt>
      <trkpt lat="0" lon="0">
        <time>2020-12-06T08:31:45.379000+00:00</time>
      </trkpt>
      <trkpt lat="0" lon="0">
        <time>2020-12-06T08:31:45.383000+00:00</time>
      </trkpt>
      <trkpt lat="0" lon="0">
        <time>2020-12-06T08:31:45.390000+00:00</time>
      </trkpt>
      <trkpt lat="47.31668" lon="-1.30677">
        <ele>53</ele>
        <time>2020-12-06T08:31:46.349000+00:00</time>
      </trkpt>
      <trkpt lat="0" lon="0">
        <time>2020-12-06T08:31:46.362000+00:00</time>
      </trkpt>
      <trkpt lat="0" lon="0">
        <time>2020-12-06T08:31:46.391000+00:00</time>
      </trkpt>
      <trkpt lat="0" lon="0">
        <time>2020-12-06T08:31:46.393000+00:00</time>
      </trkpt>
      <trkpt lat="47.31665" lon="-1.30676">
        <ele>53</ele>
        <time>2020-12-06T08:31:47.361000+00:00</time>
      </trkpt>
      <trkpt lat="0" lon="0">
        <time>2020-12-06T08:31:47.372000+00:00</time>
      </trkpt>
      <trkpt lat="0" lon="0">
        <time>2020-12-06T08:31:47.375000+00:00</time>
      </trkpt>
      <trkpt lat="0" lon="0">
        <time>2020-12-06T08:31:47.381000+00:00</time>
      </trkpt>
      <trkpt lat="47.31663" lon="-1.30675">
        <ele>53</ele>
        <time>2020-12-06T08:31:48.379000+00:00</time>
      </trkpt>
      <trkpt lat="0" lon="0">
        <time>2020-12-06T08:31:48.388000+00:00</time>
      </trkpt>
      <trkpt lat="0" lon="0">
        <time>2020-12-06T08:31:48.397000+00:00</time>
      </trkpt>
      <trkpt lat="0" lon="0">
        <time>2020-12-06T08:31:48.400000+00:00</time>
      </trkpt>
      <trkpt lat="47.3166" lon="-1.30673">
        <ele>53</ele>
        <time>2020-12-06T08:31:49.392000+00:00</time>
      </trkpt>
      <trkpt lat="0" lon="0">
        <time>2020-12-06T08:31:49.399000+00:00</time>
      </trkpt>
      <trkpt lat="0" lon="0">
        <time>2020-12-06T08:31:49.403000+00:00</time>
      </trkpt>
      <trkpt lat="0" lon="0">
        <time>2020-12-06T08:31:49.406000+00:00</time>
      </trkpt>
      <trkpt lat="47.31657" lon="-1.30672">
        <ele>53</ele>
        <time>2020-12-06T08:31:50.389000+00:00</time>
      </trkpt>
      <trkpt lat="0" lon="0">
        <time>2020-12-06T08:31:50.391000+00:00</time>
      </trkpt>
      <trkpt lat="0" lon="0">
        <time>2020-12-06T08:31:50.392000+00:00</time>
      </trkpt>
      <trkpt lat="0" lon="0">
        <time>2020-12-06T08:31:50.393000+00:00</time>
      </trkpt>
      <trkpt lat="47.31654" lon="-1.30671">
        <ele>54</ele>
        <time>2020-12-06T08:31:51.382000+00:00</time>
      </trkpt>
      <trkpt lat="0" lon="0">
        <time>2020-12-06T08:31:51.388000+00:00</time>
      </trkpt>
      <trkpt lat="0" lon="0">
        <time>2020-12-06T08:31:51.405000+00:00</time>
      </trkpt>
      <trkpt lat="0" lon="0">
        <time>2020-12-06T08:31:51.407000+00:00</time>
      </trkpt>
      <trkpt lat="47.31651" lon="-1.30669">
        <ele>54</ele>
        <time>2020-12-06T08:31:52.402000+00:00</time>
      </trkpt>
      <trkpt lat="0" lon="0">
        <time>2020-12-06T08:31:52.404000+00:00</time>
      </trkpt>
      <trkpt lat="0" lon="0">
        <time>2020-12-06T08:31:52.406000+00:00</time>
      </trkpt>
      <trkpt lat="0" lon="0">
        <time>2020-12-06T08:31:52.407000+00:00</time>
      </trkpt>
      <trkpt lat="47.31648" lon="-1.30668">
        <ele>54</ele>
        <time>2020-12-06T08:31:53.375000+00:00</time>
      </trkpt>
      <trkpt lat="0" lon="0">
        <time>2020-12-06T08:31:53.386000+00:00</time>
      </trkpt>
      <trkpt lat="0" lon="0">
        <time>2020-12-06T08:31:53.388000+00:00</time>
      </trkpt>
      <trkpt lat="0" lon="0">
        <time>2020-12-06T08:31:53.389000+00:00</time>
      </trkpt>
      <trkpt lat="47.31645" lon="-1.30667">
        <ele>54</ele>
        <time>2020-12-06T08:31:54.401000+00:00</time>
      </trkpt>
      <trkpt lat="0" lon="0">
        <time>2020-12-06T08:31:54.407000+00:00</time>
      </trkpt>
      <trkpt lat="0" lon="0">
        <time>2020-12-06T08:31:54.412000+00:00</time>
      </trkpt>
      <trkpt lat="0" lon="0">
        <time>2020-12-06T08:31:54.414000+00:00</time>
      </trkpt>
      <trkpt lat="47.31642" lon="-1.30666">
        <ele>54</ele>
        <time>2020-12-06T08:31:55.402000+00:00</time>
      </trkpt>
      <trkpt lat="0" lon="0">
        <time>2020-12-06T08:31:55.418000+00:00</time>
      </trkpt>
      <trkpt lat="0" lon="0">
        <time>2020-12-06T08:31:55.422000+00:00</time>
      </trkpt>
      <trkpt lat="0" lon="0">
        <time>2020-12-06T08:31:55.423000+00:00</time>
      </trkpt>
      <trkpt lat="47.31639" lon="-1.30664">
        <ele>54</ele>
        <time>2020-12-06T08:31:56.377000+00:00</time>
      </trkpt>
      <trkpt lat="0" lon="0">
        <time>2020-12-06T08:31:56.384000+00:00</time>
      </trkpt>
      <trkpt lat="0" lon="0">
        <time>2020-12-06T08:31:56.386000+00:00</time>
      </trkpt>
      <trkpt lat="47.31636" lon="-1.30663">
        <ele>54</ele>
        <time>2020-12-06T08:31:57.376000+00:00</time>
      </trkpt>
      <trkpt lat="0" lon="0">
        <time>2020-12-06T08:31:57.380000+00:00</time>
      </trkpt>
      <trkpt lat="0" lon="0">
        <time>2020-12-06T08:31:57.388000+00:00</time>
      </trkpt>
      <trkpt lat="0" lon="0">
        <time>2020-12-06T08:31:57.390000+00:00</time>
      </trkpt>
      <trkpt lat="47.31633" lon="-1.30662">
        <ele>54</ele>
        <time>2020-12-06T08:31:58.377000+00:00</time>
      </trkpt>
      <trkpt lat="0" lon="0">
        <time>2020-12-06T08:31:58.382000+00:00</time>
      </trkpt>
      <trkpt lat="0" lon="0">
        <time>2020-12-06T08:31:58.384000+00:00</time>
      </trkpt>
      <trkpt lat="0" lon="0">
        <time>2020-12-06T08:31:58.385000+00:00</time>
      </trkpt>
      <trkpt lat="47.3163" lon="-1.30661">
        <ele>54</ele>
        <time>2020-12-06T08:31:59.339000+00:00</time>
      </trkpt>
      <trkpt lat="0" lon="0">
        <time>2020-12-06T08:31:59.340000+00:00</time>
      </trkpt>
      <trkpt lat="0" lon="0">
        <time>2020-12-06T08:31:59.345000+00:00</time>
      </trkpt>
      <trkpt lat="0" lon="0">
        <time>2020-12-06T08:31:59.346000+00:00</time>
      </trkpt>
      <trkpt lat="47.31627" lon="-1.3066">
        <ele>54</ele>
        <time>2020-12-06T08:32:00.363000+00:00</time>
      </trkpt>
      <trkpt lat="0" lon="0">
        <time>2020-12-06T08:32:00.367000+00:00</time>
      </trkpt>
      <trkpt lat="0" lon="0">
        <time>2020-12-06T08:32:00.370000+00:00</time>
      </trkpt>
      <trkpt lat="0" lon="0">
        <time>2020-12-06T08:32:00.371000+00:00</time>
      </trkpt>
      <trkpt lat="47.31624" lon="-1.30659">
        <ele>54</ele>
        <time>2020-12-06T08:32:01.386000+00:00</time>
      </trkpt>
      <trkpt lat="0" lon="0">
        <time>2020-12-06T08:32:01.390000+00:00</time>
      </trkpt>
      <trkpt lat="0" lon="0">
        <time>2020-12-06T08:32:01.394000+00:00</time>
      </trkpt>
      <trkpt lat="0" lon="0">
        <time>2020-12-06T08:32:01.396000+00:00</time>
      </trkpt>
      <trkpt lat="47.31621" lon="-1.30657">
        <ele>54</ele>
        <time>2020-12-06T08:32:02.389000+00:00</time>
      </trkpt>
      <trkpt lat="0" lon="0">
        <time>2020-12-06T08:32:02.397000+00:00</time>
      </trkpt>
      <trkpt lat="0" lon="0">
        <time>2020-12-06T08:32:02.401000+00:00</time>
      </trkpt>
      <trkpt lat="0" lon="0">
        <time>2020-12-06T08:32:02.405000+00:00</time>
      </trkpt>
      <trkpt lat="47.31618" lon="-1.30656">
        <ele>54</ele>
        <time>2020-12-06T08:32:03.399000+00:00</time>
      </trkpt>
      <trkpt lat="0" lon="0">
        <time>2020-12-06T08:32:03.406000+00:00</time>
      </trkpt>
      <trkpt lat="0" lon="0">
        <time>2020-12-06T08:32:03.410000+00:00</time>
      </trkpt>
      <trkpt lat="0" lon="0">
        <time>2020-12-06T08:32:03.412000+00:00</time>
      </trkpt>
      <trkpt lat="47.31615" lon="-1.30655">
        <ele>55</ele>
        <time>2020-12-06T08:32:04.377000+00:00</time>
      </trkpt>
      <trkpt lat="0" lon="0">
        <time>2020-12-06T08:32:04.390000+00:00</time>
      </trkpt>
      <trkpt lat="0" lon="0">
        <time>2020-12-06T08:32:04.397000+00:00</time>
      </trkpt>
      <trkpt lat="0" lon="0">
        <time>2020-12-06T08:32:04.399000+00:00</time>
      </trkpt>
      <trkpt lat="47.31612" lon="-1.30653">
        <ele>55</ele>
        <time>2020-12-06T08:32:05.413000+00:00</time>
      </trkpt>
      <trkpt lat="0" lon="0">
        <time>2020-12-06T08:32:05.424000+00:00</time>
      </trkpt>
      <trkpt lat="0" lon="0">
        <time>2020-12-06T08:32:05.436000+00:00</time>
      </trkpt>
      <trkpt lat="0" lon="0">
        <time>2020-12-06T08:32:05.437000+00:00</time>
      </trkpt>
      <trkpt lat="47.31609" lon="-1.30652">
        <ele>55</ele>
        <time>2020-12-06T08:32:06.393000+00:00</time>
      </trkpt>
      <trkpt lat="0" lon="0">
        <time>2020-12-06T08:32:06.416000+00:00</time>
      </trkpt>
      <trkpt lat="0" lon="0">
        <time>2020-12-06T08:32:06.418000+00:00</time>
      </trkpt>
      <trkpt lat="0" lon="0">
        <time>2020-12-06T08:32:06.420000+00:00</time>
      </trkpt>
      <trkpt lat="47.31605" lon="-1.30651">
        <ele>55</ele>
        <time>2020-12-06T08:32:07.393000+00:00</time>
      </trkpt>
      <trkpt lat="0" lon="0">
        <time>2020-12-06T08:32:07.401000+00:00</time>
      </trkpt>
      <trkpt lat="0" lon="0">
        <time>2020-12-06T08:32:07.404000+00:00</time>
      </trkpt>
      <trkpt lat="0" lon="0">
        <time>2020-12-06T08:32:07.405000+00:00</time>
      </trkpt>
      <trkpt lat="47.31602" lon="-1.3065">
        <ele>55</ele>
        <time>2020-12-06T08:32:08.397000+00:00</time>
      </trkpt>
      <trkpt lat="0" lon="0">
        <time>2020-12-06T08:32:08.400000+00:00</time>
      </trkpt>
      <trkpt lat="0" lon="0">
        <time>2020-12-06T08:32:08.403000+00:00</time>
      </trkpt>
      <trkpt lat="0" lon="0">
        <time>2020-12-06T08:32:08.406000+00:00</time>
      </trkpt>
      <trkpt lat="47.31599" lon="-1.30648">
        <ele>55</ele>
        <time>2020-12-06T08:32:09.393000+00:00</time>
      </trkpt>
      <trkpt lat="0" lon="0">
        <time>2020-12-06T08:32:09.405000+00:00</time>
      </trkpt>
      <trkpt lat="0" lon="0">
        <time>2020-12-06T08:32:09.410000+00:00</time>
      </trkpt>
      <trkpt lat="0" lon="0">
        <time>2020-12-06T08:32:09.412000+00:00</time>
      </trkpt>
      <trkpt lat="47.31597" lon="-1.30646">
        <ele>55</ele>
        <time>2020-12-06T08:32:10.392000+00:00</time>
      </trkpt>
      <trkpt lat="0" lon="0">
        <time>2020-12-06T08:32:10.395000+00:00</time>
      </trkpt>
      <trkpt lat="0" lon="0">
        <time>2020-12-06T08:32:10.397000+00:00</time>
      </trkpt>
      <trkpt lat="0" lon="0">
        <time>2020-12-06T08:32:10.398000+00:00</time>
      </trkpt>
      <trkpt lat="47.31594" lon="-1.30645">
        <ele>55</ele>
        <time>2020-12-06T08:32:11.383000+00:00</time>
      </trkpt>
      <trkpt lat="0" lon="0">
        <time>2020-12-06T08:32:11.393000+00:00</time>
      </trkpt>
      <trkpt lat="0" lon="0">
        <time>2020-12-06T08:32:11.400000+00:00</time>
      </trkpt>
      <trkpt lat="0" lon="0">
        <time>2020-12-06T08:32:11.401000+00:00</time>
      </trkpt>
      <trkpt lat="47.31592" lon="-1.30642">
        <ele>55</ele>
        <time>2020-12-06T08:32:12.366000+00:00</time>
      </trkpt>
      <trkpt lat="0" lon="0">
        <time>2020-12-06T08:32:12.370000+00:00</time>
      </trkpt>
      <trkpt lat="0" lon="0">
        <time>2020-12-06T08:32:12.375000+00:00</time>
      </trkpt>
      <trkpt lat="0" lon="0">
        <time>2020-12-06T08:32:12.377000+00:00</time>
      </trkpt>
      <trkpt lat="47.3159" lon="-1.3064">
        <ele>55</ele>
        <time>2020-12-06T08:32:13.376000+00:00</time>
      </trkpt>
      <trkpt lat="0" lon="0">
        <time>2020-12-06T08:32:13.397000+00:00</time>
      </trkpt>
      <trkpt lat="0" lon="0">
        <time>2020-12-06T08:32:13.400000+00:00</time>
      </trkpt>
      <trkpt lat="0" lon="0">
        <time>2020-12-06T08:32:13.402000+00:00</time>
      </trkpt>
      <trkpt lat="47.31588" lon="-1.30637">
        <ele>55</ele>
        <time>2020-12-06T08:32:14.388000+00:00</time>
      </trkpt>
      <trkpt lat="0" lon="0">
        <time>2020-12-06T08:32:14.393000+00:00</time>
      </trkpt>
      <trkpt lat="0" lon="0">
        <time>2020-12-06T08:32:14.394000+00:00</time>
      </trkpt>
      <trkpt lat="0" lon="0">
        <time>2020-12-06T08:32:14.395000+00:00</time>
      </trkpt>
      <trkpt lat="47.31587" lon="-1.30634">
        <ele>56</ele>
        <time>2020-12-06T08:32:15.389000+00:00</time>
      </trkpt>
      <trkpt lat="0" lon="0">
        <time>2020-12-06T08:32:15.391000+00:00</time>
      </trkpt>
      <trkpt lat="0" lon="0">
        <time>2020-12-06T08:32:15.393000+00:00</time>
      </trkpt>
      <trkpt lat="0" lon="0">
        <time>2020-12-06T08:32:15.400000+00:00</time>
      </trkpt>
      <trkpt lat="47.31586" lon="-1.3063">
        <ele>56</ele>
        <time>2020-12-06T08:32:16.382000+00:00</time>
      </trkpt>
      <trkpt lat="0" lon="0">
        <time>2020-12-06T08:32:16.394000+00:00</time>
      </trkpt>
      <trkpt lat="0" lon="0">
        <time>2020-12-06T08:32:16.399000+00:00</time>
      </trkpt>
      <trkpt lat="0" lon="0">
        <time>2020-12-06T08:32:16.405000+00:00</time>
      </trkpt>
      <trkpt lat="47.31585" lon="-1.30626">
        <ele>56</ele>
        <time>2020-12-06T08:32:17.383000+00:00</time>
      </trkpt>
      <trkpt lat="0" lon="0">
        <time>2020-12-06T08:32:17.397000+00:00</time>
      </trkpt>
      <trkpt lat="0" lon="0">
        <time>2020-12-06T08:32:17.405000+00:00</time>
      </trkpt>
      <trkpt lat="0" lon="0">
        <time>2020-12-06T08:32:17.410000+00:00</time>
      </trkpt>
      <trkpt lat="47.31584" lon="-1.30622">
        <ele>56</ele>
        <time>2020-12-06T08:32:18.385000+00:00</time>
      </trkpt>
      <trkpt lat="0" lon="0">
        <time>2020-12-06T08:32:18.386000+00:00</time>
      </trkpt>
      <trkpt lat="0" lon="0">
        <time>2020-12-06T08:32:18.388000+00:00</time>
      </trkpt>
      <trkpt lat="0" lon="0">
        <time>2020-12-06T08:32:18.389000+00:00</time>
      </trkpt>
      <trkpt lat="47.31584" lon="-1.30618">
        <ele>56</ele>
        <time>2020-12-06T08:32:19.339000+00:00</time>
      </trkpt>
      <trkpt lat="0" lon="0">
        <time>2020-12-06T08:32:19.353000+00:00</time>
      </trkpt>
      <trkpt lat="0" lon="0">
        <time>2020-12-06T08:32:19.364000+00:00</time>
      </trkpt>
      <trkpt lat="0" lon="0">
        <time>2020-12-06T08:32:19.367000+00:00</time>
      </trkpt>
      <trkpt lat="47.31583" lon="-1.30613">
        <ele>56</ele>
        <time>2020-12-06T08:32:20.369000+00:00</time>
      </trkpt>
      <trkpt lat="0" lon="0">
        <time>2020-12-06T08:32:20.371000+00:00</time>
      </trkpt>
      <trkpt lat="0" lon="0">
        <time>2020-12-06T08:32:20.373000+00:00</time>
      </trkpt>
      <trkpt lat="47.31583" lon="-1.30609">
        <ele>57</ele>
        <time>2020-12-06T08:32:21.378000+00:00</time>
      </trkpt>
      <trkpt lat="0" lon="0">
        <time>2020-12-06T08:32:21.381000+00:00</time>
      </trkpt>
      <trkpt lat="0" lon="0">
        <time>2020-12-06T08:32:21.382000+00:00</time>
      </trkpt>
      <trkpt lat="0" lon="0">
        <time>2020-12-06T08:32:21.383000+00:00</time>
      </trkpt>
      <trkpt lat="47.31582" lon="-1.30604">
        <ele>57</ele>
        <time>2020-12-06T08:32:22.394000+00:00</time>
      </trkpt>
      <trkpt lat="0" lon="0">
        <time>2020-12-06T08:32:22.401000+00:00</time>
      </trkpt>
      <trkpt lat="0" lon="0">
        <time>2020-12-06T08:32:22.412000+00:00</time>
      </trkpt>
      <trkpt lat="0" lon="0">
        <time>2020-12-06T08:32:22.415000+00:00</time>
      </trkpt>
      <trkpt lat="47.31582" lon="-1.30599">
        <ele>57</ele>
        <time>2020-12-06T08:32:23.378000+00:00</time>
      </trkpt>
      <trkpt lat="0" lon="0">
        <time>2020-12-06T08:32:23.381000+00:00</time>
      </trkpt>
      <trkpt lat="0" lon="0">
        <time>2020-12-06T08:32:23.387000+00:00</time>
      </trkpt>
      <trkpt lat="0" lon="0">
        <time>2020-12-06T08:32:23.389000+00:00</time>
      </trkpt>
      <trkpt lat="47.31581" lon="-1.30594">
        <ele>57</ele>
        <time>2020-12-06T08:32:24.383000+00:00</time>
      </trkpt>
      <trkpt lat="0" lon="0">
        <time>2020-12-06T08:32:24.395000+00:00</time>
      </trkpt>
      <trkpt lat="0" lon="0">
        <time>2020-12-06T08:32:24.398000+00:00</time>
      </trkpt>
      <trkpt lat="0" lon="0">
        <time>2020-12-06T08:32:24.400000+00:00</time>
      </trkpt>
      <trkpt lat="47.31581" lon="-1.30589">
        <ele>57</ele>
        <time>2020-12-06T08:32:25.371000+00:00</time>
      </trkpt>
      <trkpt lat="0" lon="0">
        <time>2020-12-06T08:32:25.373000+00:00</time>
      </trkpt>
      <trkpt lat="0" lon="0">
        <time>2020-12-06T08:32:25.380000+00:00</time>
      </trkpt>
      <trkpt lat="0" lon="0">
        <time>2020-12-06T08:32:25.381000+00:00</time>
      </trkpt>
      <trkpt lat="47.3158" lon="-1.30583">
        <ele>57</ele>
        <time>2020-12-06T08:32:26.373000+00:00</time>
      </trkpt>
      <trkpt lat="0" lon="0">
        <time>2020-12-06T08:32:26.384000+00:00</time>
      </trkpt>
      <trkpt lat="0" lon="0">
        <time>2020-12-06T08:32:26.387000+00:00</time>
      </trkpt>
      <trkpt lat="0" lon="0">
        <time>2020-12-06T08:32:26.392000+00:00</time>
      </trkpt>
      <trkpt lat="47.31579" lon="-1.30577">
        <ele>58</ele>
        <time>2020-12-06T08:32:27.384000+00:00</time>
      </trkpt>
      <trkpt lat="0" lon="0">
        <time>2020-12-06T08:32:27.396000+00:00</time>
      </trkpt>
      <trkpt lat="0" lon="0">
        <time>2020-12-06T08:32:27.405000+00:00</time>
      </trkpt>
      <trkpt lat="0" lon="0">
        <time>2020-12-06T08:32:27.412000+00:00</time>
      </trkpt>
      <trkpt lat="47.31579" lon="-1.30572">
        <ele>58</ele>
        <time>2020-12-06T08:32:28.397000+00:00</time>
      </trkpt>
      <trkpt lat="0" lon="0">
        <time>2020-12-06T08:32:28.417000+00:00</time>
      </trkpt>
      <trkpt lat="0" lon="0">
        <time>2020-12-06T08:32:28.419000+00:00</time>
      </trkpt>
      <trkpt lat="0" lon="0">
        <time>2020-12-06T08:32:28.420000+00:00</time>
      </trkpt>
      <trkpt lat="47.31578" lon="-1.30566">
        <ele>58</ele>
        <time>2020-12-06T08:32:29.410000+00:00</time>
      </trkpt>
      <trkpt lat="0" lon="0">
        <time>2020-12-06T08:32:29.414000+00:00</time>
      </trkpt>
      <trkpt lat="0" lon="0">
        <time>2020-12-06T08:32:29.418000+00:00</time>
      </trkpt>
      <trkpt lat="0" lon="0">
        <time>2020-12-06T08:32:29.427000+00:00</time>
      </trkpt>
      <trkpt lat="47.31577" lon="-1.3056">
        <ele>58</ele>
        <time>2020-12-06T08:32:30.381000+00:00</time>
      </trkpt>
      <trkpt lat="0" lon="0">
        <time>2020-12-06T08:32:30.400000+00:00</time>
      </trkpt>
      <trkpt lat="0" lon="0">
        <time>2020-12-06T08:32:30.410000+00:00</time>
      </trkpt>
      <trkpt lat="0" lon="0">
        <time>2020-12-06T08:32:30.412000+00:00</time>
      </trkpt>
      <trkpt lat="47.31575" lon="-1.30555">
        <ele>58</ele>
        <time>2020-12-06T08:32:31.413000+00:00</time>
      </trkpt>
      <trkpt lat="0" lon="0">
        <time>2020-12-06T08:32:31.418000+00:00</time>
      </trkpt>
      <trkpt lat="0" lon="0">
        <time>2020-12-06T08:32:31.432000+00:00</time>
      </trkpt>
      <trkpt lat="0" lon="0">
        <time>2020-12-06T08:32:31.433000+00:00</time>
      </trkpt>
      <trkpt lat="47.31574" lon="-1.30549">
        <ele>58</ele>
        <time>2020-12-06T08:32:32.396000+00:00</time>
      </trkpt>
      <trkpt lat="0" lon="0">
        <time>2020-12-06T08:32:32.402000+00:00</time>
      </trkpt>
      <trkpt lat="0" lon="0">
        <time>2020-12-06T08:32:32.404000+00:00</time>
      </trkpt>
      <trkpt lat="0" lon="0">
        <time>2020-12-06T08:32:32.405000+00:00</time>
      </trkpt>
      <trkpt lat="47.31571" lon="-1.30544">
        <ele>58</ele>
        <time>2020-12-06T08:32:33.396000+00:00</time>
      </trkpt>
      <trkpt lat="0" lon="0">
        <time>2020-12-06T08:32:33.397000+00:00</time>
      </trkpt>
      <trkpt lat="0" lon="0">
        <time>2020-12-06T08:32:33.398000+00:00</time>
      </trkpt>
      <trkpt lat="47.31569" lon="-1.30539">
        <ele>58</ele>
        <time>2020-12-06T08:32:34.404000+00:00</time>
      </trkpt>
      <trkpt lat="0" lon="0">
        <time>2020-12-06T08:32:34.423000+00:00</time>
      </trkpt>
      <trkpt lat="0" lon="0">
        <time>2020-12-06T08:32:34.427000+00:00</time>
      </trkpt>
      <trkpt lat="0" lon="0">
        <time>2020-12-06T08:32:34.429000+00:00</time>
      </trkpt>
      <trkpt lat="47.31566" lon="-1.30534">
        <ele>58</ele>
        <time>2020-12-06T08:32:35.377000+00:00</time>
      </trkpt>
      <trkpt lat="0" lon="0">
        <time>2020-12-06T08:32:35.379000+00:00</time>
      </trkpt>
      <trkpt lat="0" lon="0">
        <time>2020-12-06T08:32:35.381000+00:00</time>
      </trkpt>
      <trkpt lat="0" lon="0">
        <time>2020-12-06T08:32:35.385000+00:00</time>
      </trkpt>
      <trkpt lat="47.31563" lon="-1.3053">
        <ele>58</ele>
        <time>2020-12-06T08:32:36.401000+00:00</time>
      </trkpt>
      <trkpt lat="0" lon="0">
        <time>2020-12-06T08:32:36.404000+00:00</time>
      </trkpt>
      <trkpt lat="0" lon="0">
        <time>2020-12-06T08:32:36.406000+00:00</time>
      </trkpt>
      <trkpt lat="0" lon="0">
        <time>2020-12-06T08:32:36.407000+00:00</time>
      </trkpt>
      <trkpt lat="47.31559" lon="-1.30526">
        <ele>59</ele>
        <time>2020-12-06T08:32:37.396000+00:00</time>
      </trkpt>
      <trkpt lat="0" lon="0">
        <time>2020-12-06T08:32:37.403000+00:00</time>
      </trkpt>
      <trkpt lat="0" lon="0">
        <time>2020-12-06T08:32:37.405000+00:00</time>
      </trkpt>
      <trkpt lat="0" lon="0">
        <time>2020-12-06T08:32:37.407000+00:00</time>
      </trkpt>
      <trkpt lat="47.31556" lon="-1.30522">
        <ele>59</ele>
        <time>2020-12-06T08:32:38.403000+00:00</time>
      </trkpt>
      <trkpt lat="0" lon="0">
        <time>2020-12-06T08:32:38.410000+00:00</time>
      </trkpt>
      <trkpt lat="0" lon="0">
        <time>2020-12-06T08:32:38.423000+00:00</time>
      </trkpt>
      <trkpt lat="0" lon="0">
        <time>2020-12-06T08:32:38.429000+00:00</time>
      </trkpt>
      <trkpt lat="47.31553" lon="-1.30519">
        <ele>59</ele>
        <time>2020-12-06T08:32:39.433000+00:00</time>
      </trkpt>
      <trkpt lat="0" lon="0">
        <time>2020-12-06T08:32:39.444000+00:00</time>
      </trkpt>
      <trkpt lat="0" lon="0">
        <time>2020-12-06T08:32:39.447000+00:00</time>
      </trkpt>
      <trkpt lat="0" lon="0">
        <time>2020-12-06T08:32:39.451000+00:00</time>
      </trkpt>
      <trkpt lat="47.31549" lon="-1.30516">
        <ele>59</ele>
        <time>2020-12-06T08:32:40.413000+00:00</time>
      </trkpt>
      <trkpt lat="0" lon="0">
        <time>2020-12-06T08:32:40.420000+00:00</time>
      </trkpt>
      <trkpt lat="0" lon="0">
        <time>2020-12-06T08:32:40.423000+00:00</time>
      </trkpt>
      <trkpt lat="0" lon="0">
        <time>2020-12-06T08:32:40.424000+00:00</time>
      </trkpt>
      <trkpt lat="47.31546" lon="-1.30513">
        <ele>59</ele>
        <time>2020-12-06T08:32:41.413000+00:00</time>
      </trkpt>
      <trkpt lat="0" lon="0">
        <time>2020-12-06T08:32:41.422000+00:00</time>
      </trkpt>
      <trkpt lat="0" lon="0">
        <time>2020-12-06T08:32:41.426000+00:00</time>
      </trkpt>
      <trkpt lat="0" lon="0">
        <time>2020-12-06T08:32:41.427000+00:00</time>
      </trkpt>
      <trkpt lat="47.31542" lon="-1.30511">
        <ele>59</ele>
        <time>2020-12-06T08:32:42.403000+00:00</time>
      </trkpt>
      <trkpt lat="0" lon="0">
        <time>2020-12-06T08:32:42.407000+00:00</time>
      </trkpt>
      <trkpt lat="0" lon="0">
        <time>2020-12-06T08:32:42.415000+00:00</time>
      </trkpt>
      <trkpt lat="0" lon="0">
        <time>2020-12-06T08:32:42.417000+00:00</time>
      </trkpt>
      <trkpt lat="47.31538" lon="-1.30509">
        <ele>59</ele>
        <time>2020-12-06T08:32:43.415000+00:00</time>
      </trkpt>
      <trkpt lat="0" lon="0">
        <time>2020-12-06T08:32:43.426000+00:00</time>
      </trkpt>
      <trkpt lat="0" lon="0">
        <time>2020-12-06T08:32:43.435000+00:00</time>
      </trkpt>
      <trkpt lat="0" lon="0">
        <time>2020-12-06T08:32:43.436000+00:00</time>
      </trkpt>
      <trkpt lat="47.31535" lon="-1.30508">
        <ele>59</ele>
        <time>2020-12-06T08:32:44.402000+00:00</time>
      </trkpt>
      <trkpt lat="0" lon="0">
        <time>2020-12-06T08:32:44.412000+00:00</time>
      </trkpt>
      <trkpt lat="0" lon="0">
        <time>2020-12-06T08:32:44.414000+00:00</time>
      </trkpt>
      <trkpt lat="0" lon="0">
        <time>2020-12-06T08:32:44.415000+00:00</time>
      </trkpt>
      <trkpt lat="47.31531" lon="-1.30507">
        <ele>59</ele>
        <time>2020-12-06T08:32:45.427000+00:00</time>
      </trkpt>
      <trkpt lat="0" lon="0">
        <time>2020-12-06T08:32:45.428000+00:00</time>
      </trkpt>
      <trkpt lat="0" lon="0">
        <time>2020-12-06T08:32:45.430000+00:00</time>
      </trkpt>
      <trkpt lat="47.31528" lon="-1.30506">
        <ele>59</ele>
        <time>2020-12-06T08:32:46.401000+00:00</time>
      </trkpt>
      <trkpt lat="0" lon="0">
        <time>2020-12-06T08:32:46.405000+00:00</time>
      </trkpt>
      <trkpt lat="0" lon="0">
        <time>2020-12-06T08:32:46.409000+00:00</time>
      </trkpt>
      <trkpt lat="0" lon="0">
        <time>2020-12-06T08:32:46.411000+00:00</time>
      </trkpt>
      <trkpt lat="47.31524" lon="-1.30505">
        <ele>59</ele>
        <time>2020-12-06T08:32:47.376000+00:00</time>
      </trkpt>
      <trkpt lat="0" lon="0">
        <time>2020-12-06T08:32:47.381000+00:00</time>
      </trkpt>
      <trkpt lat="0" lon="0">
        <time>2020-12-06T08:32:47.384000+00:00</time>
      </trkpt>
      <trkpt lat="0" lon="0">
        <time>2020-12-06T08:32:47.385000+00:00</time>
      </trkpt>
      <trkpt lat="47.31521" lon="-1.30504">
        <ele>59</ele>
        <time>2020-12-06T08:32:48.409000+00:00</time>
      </trkpt>
      <trkpt lat="0" lon="0">
        <time>2020-12-06T08:32:48.418000+00:00</time>
      </trkpt>
      <trkpt lat="0" lon="0">
        <time>2020-12-06T08:32:48.421000+00:00</time>
      </trkpt>
      <trkpt lat="0" lon="0">
        <time>2020-12-06T08:32:48.423000+00:00</time>
      </trkpt>
      <trkpt lat="47.31518" lon="-1.30502">
        <ele>59</ele>
        <time>2020-12-06T08:32:49.392000+00:00</time>
      </trkpt>
      <trkpt lat="0" lon="0">
        <time>2020-12-06T08:32:49.394000+00:00</time>
      </trkpt>
      <trkpt lat="0" lon="0">
        <time>2020-12-06T08:32:49.397000+00:00</time>
      </trkpt>
      <trkpt lat="0" lon="0">
        <time>2020-12-06T08:32:49.401000+00:00</time>
      </trkpt>
      <trkpt lat="47.31516" lon="-1.30501">
        <ele>59</ele>
        <time>2020-12-06T08:32:50.377000+00:00</time>
      </trkpt>
      <trkpt lat="0" lon="0">
        <time>2020-12-06T08:32:50.387000+00:00</time>
      </trkpt>
      <trkpt lat="0" lon="0">
        <time>2020-12-06T08:32:50.389000+00:00</time>
      </trkpt>
      <trkpt lat="0" lon="0">
        <time>2020-12-06T08:32:50.390000+00:00</time>
      </trkpt>
      <trkpt lat="47.31514" lon="-1.30498">
        <ele>59</ele>
        <time>2020-12-06T08:32:51.393000+00:00</time>
      </trkpt>
      <trkpt lat="0" lon="0">
        <time>2020-12-06T08:32:51.401000+00:00</time>
      </trkpt>
      <trkpt lat="0" lon="0">
        <time>2020-12-06T08:32:51.404000+00:00</time>
      </trkpt>
      <trkpt lat="0" lon="0">
        <time>2020-12-06T08:32:51.405000+00:00</time>
      </trkpt>
      <trkpt lat="47.31513" lon="-1.30495">
        <ele>59</ele>
        <time>2020-12-06T08:32:52.378000+00:00</time>
      </trkpt>
      <trkpt lat="0" lon="0">
        <time>2020-12-06T08:32:52.380000+00:00</time>
      </trkpt>
      <trkpt lat="0" lon="0">
        <time>2020-12-06T08:32:52.383000+00:00</time>
      </trkpt>
      <trkpt lat="0" lon="0">
        <time>2020-12-06T08:32:52.388000+00:00</time>
      </trkpt>
      <trkpt lat="47.31513" lon="-1.30492">
        <ele>59</ele>
        <time>2020-12-06T08:32:53.393000+00:00</time>
      </trkpt>
      <trkpt lat="0" lon="0">
        <time>2020-12-06T08:32:53.394000+00:00</time>
      </trkpt>
      <trkpt lat="0" lon="0">
        <time>2020-12-06T08:32:53.398000+00:00</time>
      </trkpt>
      <trkpt lat="0" lon="0">
        <time>2020-12-06T08:32:53.399000+00:00</time>
      </trkpt>
      <trkpt lat="47.31513" lon="-1.30488">
        <ele>59</ele>
        <time>2020-12-06T08:32:54.397000+00:00</time>
      </trkpt>
      <trkpt lat="0" lon="0">
        <time>2020-12-06T08:32:54.405000+00:00</time>
      </trkpt>
      <trkpt lat="0" lon="0">
        <time>2020-12-06T08:32:54.407000+00:00</time>
      </trkpt>
      <trkpt lat="0" lon="0">
        <time>2020-12-06T08:32:54.408000+00:00</time>
      </trkpt>
      <trkpt lat="47.31513" lon="-1.30483">
        <ele>59</ele>
        <time>2020-12-06T08:32:55.401000+00:00</time>
      </trkpt>
      <trkpt lat="0" lon="0">
        <time>2020-12-06T08:32:55.415000+00:00</time>
      </trkpt>
      <trkpt lat="0" lon="0">
        <time>2020-12-06T08:32:55.420000+00:00</time>
      </trkpt>
      <trkpt lat="0" lon="0">
        <time>2020-12-06T08:32:55.424000+00:00</time>
      </trkpt>
      <trkpt lat="47.31514" lon="-1.30479">
        <ele>59</ele>
        <time>2020-12-06T08:32:56.375000+00:00</time>
      </trkpt>
      <trkpt lat="0" lon="0">
        <time>2020-12-06T08:32:56.379000+00:00</time>
      </trkpt>
      <trkpt lat="0" lon="0">
        <time>2020-12-06T08:32:56.388000+00:00</time>
      </trkpt>
      <trkpt lat="0" lon="0">
        <time>2020-12-06T08:32:56.390000+00:00</time>
      </trkpt>
      <trkpt lat="47.31516" lon="-1.30473">
        <ele>60</ele>
        <time>2020-12-06T08:32:57.374000+00:00</time>
      </trkpt>
      <trkpt lat="0" lon="0">
        <time>2020-12-06T08:32:57.378000+00:00</time>
      </trkpt>
      <trkpt lat="0" lon="0">
        <time>2020-12-06T08:32:57.382000+00:00</time>
      </trkpt>
      <trkpt lat="0" lon="0">
        <time>2020-12-06T08:32:57.384000+00:00</time>
      </trkpt>
      <trkpt lat="47.31518" lon="-1.30468">
        <ele>60</ele>
        <time>2020-12-06T08:32:58.398000+00:00</time>
      </trkpt>
      <trkpt lat="0" lon="0">
        <time>2020-12-06T08:32:58.401000+00:00</time>
      </trkpt>
      <trkpt lat="0" lon="0">
        <time>2020-12-06T08:32:58.412000+00:00</time>
      </trkpt>
      <trkpt lat="0" lon="0">
        <time>2020-12-06T08:32:58.414000+00:00</time>
      </trkpt>
      <trkpt lat="47.3152" lon="-1.30463">
        <ele>60</ele>
        <time>2020-12-06T08:32:59.389000+00:00</time>
      </trkpt>
      <trkpt lat="0" lon="0">
        <time>2020-12-06T08:32:59.390000+00:00</time>
      </trkpt>
      <trkpt lat="0" lon="0">
        <time>2020-12-06T08:32:59.394000+00:00</time>
      </trkpt>
      <trkpt lat="0" lon="0">
        <time>2020-12-06T08:32:59.396000+00:00</time>
      </trkpt>
      <trkpt lat="47.31523" lon="-1.30457">
        <ele>60</ele>
        <time>2020-12-06T08:33:00.415000+00:00</time>
      </trkpt>
      <trkpt lat="0" lon="0">
        <time>2020-12-06T08:33:00.418000+00:00</time>
      </trkpt>
      <trkpt lat="0" lon="0">
        <time>2020-12-06T08:33:00.429000+00:00</time>
      </trkpt>
      <trkpt lat="0" lon="0">
        <time>2020-12-06T08:33:00.430000+00:00</time>
      </trkpt>
      <trkpt lat="47.31526" lon="-1.30451">
        <ele>60</ele>
        <time>2020-12-06T08:33:01.387000+00:00</time>
      </trkpt>
      <trkpt lat="0" lon="0">
        <time>2020-12-06T08:33:01.392000+00:00</time>
      </trkpt>
      <trkpt lat="0" lon="0">
        <time>2020-12-06T08:33:01.406000+00:00</time>
      </trkpt>
      <trkpt lat="0" lon="0">
        <time>2020-12-06T08:33:01.411000+00:00</time>
      </trkpt>
      <trkpt lat="47.31529" lon="-1.30445">
        <ele>60</ele>
        <time>2020-12-06T08:33:02.374000+00:00</time>
      </trkpt>
      <trkpt lat="0" lon="0">
        <time>2020-12-06T08:33:02.377000+00:00</time>
      </trkpt>
      <trkpt lat="0" lon="0">
        <time>2020-12-06T08:33:02.383000+00:00</time>
      </trkpt>
      <trkpt lat="0" lon="0">
        <time>2020-12-06T08:33:02.384000+00:00</time>
      </trkpt>
      <trkpt lat="47.31532" lon="-1.30439">
        <ele>61</ele>
        <time>2020-12-06T08:33:03.397000+00:00</time>
      </trkpt>
      <trkpt lat="0" lon="0">
        <time>2020-12-06T08:33:03.407000+00:00</time>
      </trkpt>
      <trkpt lat="0" lon="0">
        <time>2020-12-06T08:33:03.416000+00:00</time>
      </trkpt>
      <trkpt lat="0" lon="0">
        <time>2020-12-06T08:33:03.417000+00:00</time>
      </trkpt>
      <trkpt lat="47.31536" lon="-1.30433">
        <ele>61</ele>
        <time>2020-12-06T08:33:04.387000+00:00</time>
      </trkpt>
      <trkpt lat="0" lon="0">
        <time>2020-12-06T08:33:04.392000+00:00</time>
      </trkpt>
      <trkpt lat="0" lon="0">
        <time>2020-12-06T08:33:04.397000+00:00</time>
      </trkpt>
      <trkpt lat="0" lon="0">
        <time>2020-12-06T08:33:04.402000+00:00</time>
      </trkpt>
      <trkpt lat="47.31539" lon="-1.30427">
        <ele>61</ele>
        <time>2020-12-06T08:33:05.393000+00:00</time>
      </trkpt>
      <trkpt lat="0" lon="0">
        <time>2020-12-06T08:33:05.396000+00:00</time>
      </trkpt>
      <trkpt lat="0" lon="0">
        <time>2020-12-06T08:33:05.398000+00:00</time>
      </trkpt>
      <trkpt lat="47.31542" lon="-1.3042">
        <ele>61</ele>
        <time>2020-12-06T08:33:06.375000+00:00</time>
      </trkpt>
      <trkpt lat="0" lon="0">
        <time>2020-12-06T08:33:06.389000+00:00</time>
      </trkpt>
      <trkpt lat="0" lon="0">
        <time>2020-12-06T08:33:06.392000+00:00</time>
      </trkpt>
      <trkpt lat="0" lon="0">
        <time>2020-12-06T08:33:06.393000+00:00</time>
      </trkpt>
      <trkpt lat="47.31545" lon="-1.30413">
        <ele>61</ele>
        <time>2020-12-06T08:33:07.360000+00:00</time>
      </trkpt>
      <trkpt lat="0" lon="0">
        <time>2020-12-06T08:33:07.365000+00:00</time>
      </trkpt>
      <trkpt lat="0" lon="0">
        <time>2020-12-06T08:33:07.366000+00:00</time>
      </trkpt>
      <trkpt lat="0" lon="0">
        <time>2020-12-06T08:33:07.367000+00:00</time>
      </trkpt>
      <trkpt lat="47.31549" lon="-1.30407">
        <ele>61</ele>
        <time>2020-12-06T08:33:08.354000+00:00</time>
      </trkpt>
      <trkpt lat="0" lon="0">
        <time>2020-12-06T08:33:08.367000+00:00</time>
      </trkpt>
      <trkpt lat="0" lon="0">
        <time>2020-12-06T08:33:08.371000+00:00</time>
      </trkpt>
      <trkpt lat="0" lon="0">
        <time>2020-12-06T08:33:08.373000+00:00</time>
      </trkpt>
      <trkpt lat="47.31552" lon="-1.304">
        <ele>61</ele>
        <time>2020-12-06T08:33:09.402000+00:00</time>
      </trkpt>
      <trkpt lat="0" lon="0">
        <time>2020-12-06T08:33:09.414000+00:00</time>
      </trkpt>
      <trkpt lat="0" lon="0">
        <time>2020-12-06T08:33:09.422000+00:00</time>
      </trkpt>
      <trkpt lat="0" lon="0">
        <time>2020-12-06T08:33:09.424000+00:00</time>
      </trkpt>
      <trkpt lat="47.31555" lon="-1.30394">
        <ele>61</ele>
        <time>2020-12-06T08:33:10.352000+00:00</time>
      </trkpt>
      <trkpt lat="0" lon="0">
        <time>2020-12-06T08:33:10.362000+00:00</time>
      </trkpt>
      <trkpt lat="0" lon="0">
        <time>2020-12-06T08:33:10.370000+00:00</time>
      </trkpt>
      <trkpt lat="0" lon="0">
        <time>2020-12-06T08:33:10.372000+00:00</time>
      </trkpt>
      <trkpt lat="47.31558" lon="-1.30387">
        <ele>61</ele>
        <time>2020-12-06T08:33:11.337000+00:00</time>
      </trkpt>
      <trkpt lat="0" lon="0">
        <time>2020-12-06T08:33:11.352000+00:00</time>
      </trkpt>
      <trkpt lat="0" lon="0">
        <time>2020-12-06T08:33:11.359000+00:00</time>
      </trkpt>
      <trkpt lat="0" lon="0">
        <time>2020-12-06T08:33:11.361000+00:00</time>
      </trkpt>
      <trkpt lat="47.3156" lon="-1.3038">
        <ele>61</ele>
        <time>2020-12-06T08:33:12.394000+00:00</time>
      </trkpt>
      <trkpt lat="0" lon="0">
        <time>2020-12-06T08:33:12.402000+00:00</time>
      </trkpt>
      <trkpt lat="0" lon="0">
        <time>2020-12-06T08:33:12.403000+00:00</time>
      </trkpt>
      <trkpt lat="0" lon="0">
        <time>2020-12-06T08:33:12.404000+00:00</time>
      </trkpt>
      <trkpt lat="47.31563" lon="-1.30373">
        <ele>61</ele>
        <time>2020-12-06T08:33:13.372000+00:00</time>
      </trkpt>
      <trkpt lat="0" lon="0">
        <time>2020-12-06T08:33:13.373000+00:00</time>
      </trkpt>
      <trkpt lat="0" lon="0">
        <time>2020-12-06T08:33:13.375000+00:00</time>
      </trkpt>
      <trkpt lat="0" lon="0">
        <time>2020-12-06T08:33:13.376000+00:00</time>
      </trkpt>
      <trkpt lat="47.31565" lon="-1.30367">
        <ele>61</ele>
        <time>2020-12-06T08:33:14.346000+00:00</time>
      </trkpt>
      <trkpt lat="0" lon="0">
        <time>2020-12-06T08:33:14.357000+00:00</time>
      </trkpt>
      <trkpt lat="0" lon="0">
        <time>2020-12-06T08:33:14.363000+00:00</time>
      </trkpt>
      <trkpt lat="0" lon="0">
        <time>2020-12-06T08:33:14.366000+00:00</time>
      </trkpt>
      <trkpt lat="47.31568" lon="-1.3036">
        <ele>61</ele>
        <time>2020-12-06T08:33:15.380000+00:00</time>
      </trkpt>
      <trkpt lat="0" lon="0">
        <time>2020-12-06T08:33:15.388000+00:00</time>
      </trkpt>
      <trkpt lat="0" lon="0">
        <time>2020-12-06T08:33:15.398000+00:00</time>
      </trkpt>
      <trkpt lat="0" lon="0">
        <time>2020-12-06T08:33:15.406000+00:00</time>
      </trkpt>
      <trkpt lat="47.3157" lon="-1.30353">
        <ele>61</ele>
        <time>2020-12-06T08:33:16.411000+00:00</time>
      </trkpt>
      <trkpt lat="0" lon="0">
        <time>2020-12-06T08:33:16.414000+00:00</time>
      </trkpt>
      <trkpt lat="0" lon="0">
        <time>2020-12-06T08:33:16.423000+00:00</time>
      </trkpt>
      <trkpt lat="0" lon="0">
        <time>2020-12-06T08:33:16.425000+00:00</time>
      </trkpt>
      <trkpt lat="47.31572" lon="-1.30346">
        <ele>61</ele>
        <time>2020-12-06T08:33:17.397000+00:00</time>
      </trkpt>
      <trkpt lat="0" lon="0">
        <time>2020-12-06T08:33:17.407000+00:00</time>
      </trkpt>
      <trkpt lat="0" lon="0">
        <time>2020-12-06T08:33:17.409000+00:00</time>
      </trkpt>
      <trkpt lat="0" lon="0">
        <time>2020-12-06T08:33:17.416000+00:00</time>
      </trkpt>
      <trkpt lat="47.31575" lon="-1.3034">
        <ele>61</ele>
        <time>2020-12-06T08:33:18.351000+00:00</time>
      </trkpt>
      <trkpt lat="0" lon="0">
        <time>2020-12-06T08:33:18.360000+00:00</time>
      </trkpt>
      <trkpt lat="0" lon="0">
        <time>2020-12-06T08:33:18.364000+00:00</time>
      </trkpt>
      <trkpt lat="0" lon="0">
        <time>2020-12-06T08:33:18.367000+00:00</time>
      </trkpt>
      <trkpt lat="47.31577" lon="-1.30333">
        <ele>61</ele>
        <time>2020-12-06T08:33:19.407000+00:00</time>
      </trkpt>
      <trkpt lat="0" lon="0">
        <time>2020-12-06T08:33:19.410000+00:00</time>
      </trkpt>
      <trkpt lat="0" lon="0">
        <time>2020-12-06T08:33:19.413000+00:00</time>
      </trkpt>
      <trkpt lat="0" lon="0">
        <time>2020-12-06T08:33:19.414000+00:00</time>
      </trkpt>
      <trkpt lat="47.31579" lon="-1.30326">
        <ele>61</ele>
        <time>2020-12-06T08:33:20.382000+00:00</time>
      </trkpt>
      <trkpt lat="0" lon="0">
        <time>2020-12-06T08:33:20.384000+00:00</time>
      </trkpt>
      <trkpt lat="0" lon="0">
        <time>2020-12-06T08:33:20.386000+00:00</time>
      </trkpt>
      <trkpt lat="0" lon="0">
        <time>2020-12-06T08:33:20.389000+00:00</time>
      </trkpt>
      <trkpt lat="47.31582" lon="-1.3032">
        <ele>61</ele>
        <time>2020-12-06T08:33:21.389000+00:00</time>
      </trkpt>
      <trkpt lat="0" lon="0">
        <time>2020-12-06T08:33:21.393000+00:00</time>
      </trkpt>
      <trkpt lat="0" lon="0">
        <time>2020-12-06T08:33:21.401000+00:00</time>
      </trkpt>
      <trkpt lat="0" lon="0">
        <time>2020-12-06T08:33:21.405000+00:00</time>
      </trkpt>
      <trkpt lat="47.31584" lon="-1.30313">
        <ele>61</ele>
        <time>2020-12-06T08:33:22.404000+00:00</time>
      </trkpt>
      <trkpt lat="0" lon="0">
        <time>2020-12-06T08:33:22.412000+00:00</time>
      </trkpt>
      <trkpt lat="0" lon="0">
        <time>2020-12-06T08:33:22.416000+00:00</time>
      </trkpt>
      <trkpt lat="0" lon="0">
        <time>2020-12-06T08:33:22.417000+00:00</time>
      </trkpt>
      <trkpt lat="47.31586" lon="-1.30307">
        <ele>61</ele>
        <time>2020-12-06T08:33:23.381000+00:00</time>
      </trkpt>
      <trkpt lat="0" lon="0">
        <time>2020-12-06T08:33:23.382000+00:00</time>
      </trkpt>
      <trkpt lat="0" lon="0">
        <time>2020-12-06T08:33:23.385000+00:00</time>
      </trkpt>
      <trkpt lat="47.31588" lon="-1.303">
        <ele>61</ele>
        <time>2020-12-06T08:33:24.374000+00:00</time>
      </trkpt>
      <trkpt lat="0" lon="0">
        <time>2020-12-06T08:33:24.385000+00:00</time>
      </trkpt>
      <trkpt lat="0" lon="0">
        <time>2020-12-06T08:33:24.388000+00:00</time>
      </trkpt>
      <trkpt lat="0" lon="0">
        <time>2020-12-06T08:33:24.390000+00:00</time>
      </trkpt>
      <trkpt lat="47.31591" lon="-1.30294">
        <ele>61</ele>
        <time>2020-12-06T08:33:25.388000+00:00</time>
      </trkpt>
      <trkpt lat="0" lon="0">
        <time>2020-12-06T08:33:25.394000+00:00</time>
      </trkpt>
      <trkpt lat="0" lon="0">
        <time>2020-12-06T08:33:25.395000+00:00</time>
      </trkpt>
      <trkpt lat="0" lon="0">
        <time>2020-12-06T08:33:25.396000+00:00</time>
      </trkpt>
      <trkpt lat="47.31593" lon="-1.30288">
        <ele>61</ele>
        <time>2020-12-06T08:33:26.371000+00:00</time>
      </trkpt>
      <trkpt lat="0" lon="0">
        <time>2020-12-06T08:33:26.381000+00:00</time>
      </trkpt>
      <trkpt lat="0" lon="0">
        <time>2020-12-06T08:33:26.392000+00:00</time>
      </trkpt>
      <trkpt lat="0" lon="0">
        <time>2020-12-06T08:33:26.394000+00:00</time>
      </trkpt>
      <trkpt lat="47.31595" lon="-1.30282">
        <ele>61</ele>
        <time>2020-12-06T08:33:27.380000+00:00</time>
      </trkpt>
      <trkpt lat="0" lon="0">
        <time>2020-12-06T08:33:27.383000+00:00</time>
      </trkpt>
      <trkpt lat="0" lon="0">
        <time>2020-12-06T08:33:27.387000+00:00</time>
      </trkpt>
      <trkpt lat="0" lon="0">
        <time>2020-12-06T08:33:27.389000+00:00</time>
      </trkpt>
      <trkpt lat="47.31597" lon="-1.30276">
        <ele>61</ele>
        <time>2020-12-06T08:33:28.339000+00:00</time>
      </trkpt>
      <trkpt lat="0" lon="0">
        <time>2020-12-06T08:33:28.341000+00:00</time>
      </trkpt>
      <trkpt lat="0" lon="0">
        <time>2020-12-06T08:33:28.342000+00:00</time>
      </trkpt>
      <trkpt lat="0" lon="0">
        <time>2020-12-06T08:33:28.343000+00:00</time>
      </trkpt>
      <trkpt lat="47.31599" lon="-1.30271">
        <ele>61</ele>
        <time>2020-12-06T08:33:29.383000+00:00</time>
      </trkpt>
      <trkpt lat="0" lon="0">
        <time>2020-12-06T08:33:29.393000+00:00</time>
      </trkpt>
      <trkpt lat="0" lon="0">
        <time>2020-12-06T08:33:29.400000+00:00</time>
      </trkpt>
      <trkpt lat="0" lon="0">
        <time>2020-12-06T08:33:29.402000+00:00</time>
      </trkpt>
      <trkpt lat="47.31601" lon="-1.30265">
        <ele>61</ele>
        <time>2020-12-06T08:33:30.384000+00:00</time>
      </trkpt>
      <trkpt lat="0" lon="0">
        <time>2020-12-06T08:33:30.398000+00:00</time>
      </trkpt>
      <trkpt lat="0" lon="0">
        <time>2020-12-06T08:33:30.405000+00:00</time>
      </trkpt>
      <trkpt lat="0" lon="0">
        <time>2020-12-06T08:33:30.408000+00:00</time>
      </trkpt>
      <trkpt lat="47.31603" lon="-1.3026">
        <ele>61</ele>
        <time>2020-12-06T08:33:31.375000+00:00</time>
      </trkpt>
      <trkpt lat="0" lon="0">
        <time>2020-12-06T08:33:31.386000+00:00</time>
      </trkpt>
      <trkpt lat="0" lon="0">
        <time>2020-12-06T08:33:31.387000+00:00</time>
      </trkpt>
      <trkpt lat="0" lon="0">
        <time>2020-12-06T08:33:31.388000+00:00</time>
      </trkpt>
      <trkpt lat="47.31605" lon="-1.30256">
        <ele>61</ele>
        <time>2020-12-06T08:33:32.372000+00:00</time>
      </trkpt>
      <trkpt lat="0" lon="0">
        <time>2020-12-06T08:33:32.382000+00:00</time>
      </trkpt>
      <trkpt lat="0" lon="0">
        <time>2020-12-06T08:33:32.386000+00:00</time>
      </trkpt>
      <trkpt lat="0" lon="0">
        <time>2020-12-06T08:33:32.388000+00:00</time>
      </trkpt>
      <trkpt lat="47.31608" lon="-1.30252">
        <ele>61</ele>
        <time>2020-12-06T08:33:33.354000+00:00</time>
      </trkpt>
      <trkpt lat="0" lon="0">
        <time>2020-12-06T08:33:33.366000+00:00</time>
      </trkpt>
      <trkpt lat="0" lon="0">
        <time>2020-12-06T08:33:33.369000+00:00</time>
      </trkpt>
      <trkpt lat="0" lon="0">
        <time>2020-12-06T08:33:33.371000+00:00</time>
      </trkpt>
      <trkpt lat="47.31611" lon="-1.3025">
        <ele>61</ele>
        <time>2020-12-06T08:33:34.390000+00:00</time>
      </trkpt>
      <trkpt lat="0" lon="0">
        <time>2020-12-06T08:33:34.403000+00:00</time>
      </trkpt>
      <trkpt lat="0" lon="0">
        <time>2020-12-06T08:33:34.404000+00:00</time>
      </trkpt>
      <trkpt lat="47.31615" lon="-1.30249">
        <ele>61</ele>
        <time>2020-12-06T08:33:35.408000+00:00</time>
      </trkpt>
      <trkpt lat="0" lon="0">
        <time>2020-12-06T08:33:35.414000+00:00</time>
      </trkpt>
      <trkpt lat="0" lon="0">
        <time>2020-12-06T08:33:35.422000+00:00</time>
      </trkpt>
      <trkpt lat="0" lon="0">
        <time>2020-12-06T08:33:35.424000+00:00</time>
      </trkpt>
      <trkpt lat="47.31618" lon="-1.30249">
        <ele>61</ele>
        <time>2020-12-06T08:33:36.390000+00:00</time>
      </trkpt>
      <trkpt lat="0" lon="0">
        <time>2020-12-06T08:33:36.396000+00:00</time>
      </trkpt>
      <trkpt lat="0" lon="0">
        <time>2020-12-06T08:33:36.399000+00:00</time>
      </trkpt>
      <trkpt lat="0" lon="0">
        <time>2020-12-06T08:33:36.406000+00:00</time>
      </trkpt>
      <trkpt lat="47.31622" lon="-1.3025">
        <ele>61</ele>
        <time>2020-12-06T08:33:37.411000+00:00</time>
      </trkpt>
      <trkpt lat="0" lon="0">
        <time>2020-12-06T08:33:37.421000+00:00</time>
      </trkpt>
      <trkpt lat="0" lon="0">
        <time>2020-12-06T08:33:37.423000+00:00</time>
      </trkpt>
      <trkpt lat="0" lon="0">
        <time>2020-12-06T08:33:37.424000+00:00</time>
      </trkpt>
      <trkpt lat="47.31627" lon="-1.30253">
        <ele>61</ele>
        <time>2020-12-06T08:33:38.383000+00:00</time>
      </trkpt>
      <trkpt lat="0" lon="0">
        <time>2020-12-06T08:33:38.397000+00:00</time>
      </trkpt>
      <trkpt lat="0" lon="0">
        <time>2020-12-06T08:33:38.399000+00:00</time>
      </trkpt>
      <trkpt lat="0" lon="0">
        <time>2020-12-06T08:33:38.400000+00:00</time>
      </trkpt>
      <trkpt lat="47.31631" lon="-1.30255">
        <ele>61</ele>
        <time>2020-12-06T08:33:39.397000+00:00</time>
      </trkpt>
      <trkpt lat="0" lon="0">
        <time>2020-12-06T08:33:39.400000+00:00</time>
      </trkpt>
      <trkpt lat="0" lon="0">
        <time>2020-12-06T08:33:39.403000+00:00</time>
      </trkpt>
      <trkpt lat="0" lon="0">
        <time>2020-12-06T08:33:39.406000+00:00</time>
      </trkpt>
      <trkpt lat="47.31636" lon="-1.30259">
        <ele>61</ele>
        <time>2020-12-06T08:33:40.400000+00:00</time>
      </trkpt>
      <trkpt lat="0" lon="0">
        <time>2020-12-06T08:33:40.408000+00:00</time>
      </trkpt>
      <trkpt lat="0" lon="0">
        <time>2020-12-06T08:33:40.420000+00:00</time>
      </trkpt>
      <trkpt lat="0" lon="0">
        <time>2020-12-06T08:33:40.428000+00:00</time>
      </trkpt>
      <trkpt lat="47.31641" lon="-1.30263">
        <ele>61</ele>
        <time>2020-12-06T08:33:41.381000+00:00</time>
      </trkpt>
      <trkpt lat="0" lon="0">
        <time>2020-12-06T08:33:41.391000+00:00</time>
      </trkpt>
      <trkpt lat="0" lon="0">
        <time>2020-12-06T08:33:41.398000+00:00</time>
      </trkpt>
      <trkpt lat="0" lon="0">
        <time>2020-12-06T08:33:41.400000+00:00</time>
      </trkpt>
      <trkpt lat="47.31647" lon="-1.30268">
        <ele>60</ele>
        <time>2020-12-06T08:33:42.381000+00:00</time>
      </trkpt>
      <trkpt lat="0" lon="0">
        <time>2020-12-06T08:33:42.389000+00:00</time>
      </trkpt>
      <trkpt lat="0" lon="0">
        <time>2020-12-06T08:33:42.399000+00:00</time>
      </trkpt>
      <trkpt lat="0" lon="0">
        <time>2020-12-06T08:33:42.405000+00:00</time>
      </trkpt>
      <trkpt lat="47.31654" lon="-1.30273">
        <ele>60</ele>
        <time>2020-12-06T08:33:43.467000+00:00</time>
      </trkpt>
      <trkpt lat="0" lon="0">
        <time>2020-12-06T08:33:43.469000+00:00</time>
      </trkpt>
      <trkpt lat="0" lon="0">
        <time>2020-12-06T08:33:43.472000+00:00</time>
      </trkpt>
      <trkpt lat="0" lon="0">
        <time>2020-12-06T08:33:43.473000+00:00</time>
      </trkpt>
      <trkpt lat="47.31661" lon="-1.30278">
        <ele>60</ele>
        <time>2020-12-06T08:33:44.391000+00:00</time>
      </trkpt>
      <trkpt lat="0" lon="0">
        <time>2020-12-06T08:33:44.401000+00:00</time>
      </trkpt>
      <trkpt lat="0" lon="0">
        <time>2020-12-06T08:33:44.410000+00:00</time>
      </trkpt>
      <trkpt lat="0" lon="0">
        <time>2020-12-06T08:33:44.412000+00:00</time>
      </trkpt>
      <trkpt lat="47.31668" lon="-1.30284">
        <ele>60</ele>
        <time>2020-12-06T08:33:45.394000+00:00</time>
      </trkpt>
      <trkpt lat="0" lon="0">
        <time>2020-12-06T08:33:45.398000+00:00</time>
      </trkpt>
      <trkpt lat="0" lon="0">
        <time>2020-12-06T08:33:45.402000+00:00</time>
      </trkpt>
      <trkpt lat="0" lon="0">
        <time>2020-12-06T08:33:45.404000+00:00</time>
      </trkpt>
      <trkpt lat="47.31676" lon="-1.30289">
        <ele>59</ele>
        <time>2020-12-06T08:33:46.428000+00:00</time>
      </trkpt>
      <trkpt lat="0" lon="0">
        <time>2020-12-06T08:33:46.456000+00:00</time>
      </trkpt>
      <trkpt lat="0" lon="0">
        <time>2020-12-06T08:33:46.459000+00:00</time>
      </trkpt>
      <trkpt lat="0" lon="0">
        <time>2020-12-06T08:33:46.461000+00:00</time>
      </trkpt>
      <trkpt lat="47.31684" lon="-1.30294">
        <ele>59</ele>
        <time>2020-12-06T08:33:47.408000+00:00</time>
      </trkpt>
      <trkpt lat="0" lon="0">
        <time>2020-12-06T08:33:47.416000+00:00</time>
      </trkpt>
      <trkpt lat="0" lon="0">
        <time>2020-12-06T08:33:47.419000+00:00</time>
      </trkpt>
      <trkpt lat="0" lon="0">
        <time>2020-12-06T08:33:47.428000+00:00</time>
      </trkpt>
      <trkpt lat="47.31692" lon="-1.30299">
        <ele>58</ele>
        <time>2020-12-06T08:33:48.398000+00:00</time>
      </trkpt>
      <trkpt lat="0" lon="0">
        <time>2020-12-06T08:33:48.404000+00:00</time>
      </trkpt>
      <trkpt lat="0" lon="0">
        <time>2020-12-06T08:33:48.410000+00:00</time>
      </trkpt>
      <trkpt lat="0" lon="0">
        <time>2020-12-06T08:33:48.413000+00:00</time>
      </trkpt>
      <trkpt lat="47.31701" lon="-1.30304">
        <ele>57</ele>
        <time>2020-12-06T08:33:49.455000+00:00</time>
      </trkpt>
      <trkpt lat="0" lon="0">
        <time>2020-12-06T08:33:49.466000+00:00</time>
      </trkpt>
      <trkpt lat="0" lon="0">
        <time>2020-12-06T08:33:49.468000+00:00</time>
      </trkpt>
      <trkpt lat="0" lon="0">
        <time>2020-12-06T08:33:49.469000+00:00</time>
      </trkpt>
      <trkpt lat="47.3171" lon="-1.30309">
        <ele>57</ele>
        <time>2020-12-06T08:33:50.381000+00:00</time>
      </trkpt>
      <trkpt lat="0" lon="0">
        <time>2020-12-06T08:33:50.389000+00:00</time>
      </trkpt>
      <trkpt lat="0" lon="0">
        <time>2020-12-06T08:33:50.393000+00:00</time>
      </trkpt>
      <trkpt lat="0" lon="0">
        <time>2020-12-06T08:33:50.398000+00:00</time>
      </trkpt>
      <trkpt lat="47.31719" lon="-1.30314">
        <ele>56</ele>
        <time>2020-12-06T08:33:51.398000+00:00</time>
      </trkpt>
      <trkpt lat="0" lon="0">
        <time>2020-12-06T08:33:51.421000+00:00</time>
      </trkpt>
      <trkpt lat="0" lon="0">
        <time>2020-12-06T08:33:51.428000+00:00</time>
      </trkpt>
      <trkpt lat="0" lon="0">
        <time>2020-12-06T08:33:51.430000+00:00</time>
      </trkpt>
      <trkpt lat="47.31728" lon="-1.30318">
        <ele>56</ele>
        <time>2020-12-06T08:33:52.402000+00:00</time>
      </trkpt>
      <trkpt lat="0" lon="0">
        <time>2020-12-06T08:33:52.406000+00:00</time>
      </trkpt>
      <trkpt lat="0" lon="0">
        <time>2020-12-06T08:33:52.413000+00:00</time>
      </trkpt>
      <trkpt lat="0" lon="0">
        <time>2020-12-06T08:33:52.415000+00:00</time>
      </trkpt>
      <trkpt lat="47.31737" lon="-1.30322">
        <ele>55</ele>
        <time>2020-12-06T08:33:53.412000+00:00</time>
      </trkpt>
      <trkpt lat="0" lon="0">
        <time>2020-12-06T08:33:53.420000+00:00</time>
      </trkpt>
      <trkpt lat="0" lon="0">
        <time>2020-12-06T08:33:53.430000+00:00</time>
      </trkpt>
      <trkpt lat="0" lon="0">
        <time>2020-12-06T08:33:53.433000+00:00</time>
      </trkpt>
      <trkpt lat="47.31747" lon="-1.30326">
        <ele>55</ele>
        <time>2020-12-06T08:33:54.397000+00:00</time>
      </trkpt>
      <trkpt lat="0" lon="0">
        <time>2020-12-06T08:33:54.402000+00:00</time>
      </trkpt>
      <trkpt lat="0" lon="0">
        <time>2020-12-06T08:33:54.409000+00:00</time>
      </trkpt>
      <trkpt lat="0" lon="0">
        <time>2020-12-06T08:33:54.412000+00:00</time>
      </trkpt>
      <trkpt lat="47.31756" lon="-1.3033">
        <ele>54</ele>
        <time>2020-12-06T08:33:55.437000+00:00</time>
      </trkpt>
      <trkpt lat="0" lon="0">
        <time>2020-12-06T08:33:55.438000+00:00</time>
      </trkpt>
      <trkpt lat="0" lon="0">
        <time>2020-12-06T08:33:55.440000+00:00</time>
      </trkpt>
      <trkpt lat="0" lon="0">
        <time>2020-12-06T08:33:55.441000+00:00</time>
      </trkpt>
      <trkpt lat="47.31765" lon="-1.30333">
        <ele>53</ele>
        <time>2020-12-06T08:33:56.400000+00:00</time>
      </trkpt>
      <trkpt lat="0" lon="0">
        <time>2020-12-06T08:33:56.405000+00:00</time>
      </trkpt>
      <trkpt lat="0" lon="0">
        <time>2020-12-06T08:33:56.410000+00:00</time>
      </trkpt>
      <trkpt lat="0" lon="0">
        <time>2020-12-06T08:33:56.413000+00:00</time>
      </trkpt>
      <trkpt lat="47.31774" lon="-1.30337">
        <ele>52</ele>
        <time>2020-12-06T08:33:57.406000+00:00</time>
      </trkpt>
      <trkpt lat="0" lon="0">
        <time>2020-12-06T08:33:57.415000+00:00</time>
      </trkpt>
      <trkpt lat="0" lon="0">
        <time>2020-12-06T08:33:57.417000+00:00</time>
      </trkpt>
      <trkpt lat="0" lon="0">
        <time>2020-12-06T08:33:57.420000+00:00</time>
      </trkpt>
      <trkpt lat="47.31783" lon="-1.3034">
        <ele>52</ele>
        <time>2020-12-06T08:33:58.424000+00:00</time>
      </trkpt>
      <trkpt lat="0" lon="0">
        <time>2020-12-06T08:33:58.433000+00:00</time>
      </trkpt>
      <trkpt lat="0" lon="0">
        <time>2020-12-06T08:33:58.435000+00:00</time>
      </trkpt>
      <trkpt lat="0" lon="0">
        <time>2020-12-06T08:33:58.436000+00:00</time>
      </trkpt>
      <trkpt lat="47.31791" lon="-1.30342">
        <ele>51</ele>
        <time>2020-12-06T08:33:59.425000+00:00</time>
      </trkpt>
      <trkpt lat="0" lon="0">
        <time>2020-12-06T08:33:59.434000+00:00</time>
      </trkpt>
      <trkpt lat="0" lon="0">
        <time>2020-12-06T08:33:59.441000+00:00</time>
      </trkpt>
      <trkpt lat="0" lon="0">
        <time>2020-12-06T08:33:59.443000+00:00</time>
      </trkpt>
      <trkpt lat="47.318" lon="-1.30344">
        <ele>50</ele>
        <time>2020-12-06T08:34:00.387000+00:00</time>
      </trkpt>
      <trkpt lat="0" lon="0">
        <time>2020-12-06T08:34:00.391000+00:00</time>
      </trkpt>
      <trkpt lat="0" lon="0">
        <time>2020-12-06T08:34:00.393000+00:00</time>
      </trkpt>
      <trkpt lat="0" lon="0">
        <time>2020-12-06T08:34:00.395000+00:00</time>
      </trkpt>
      <trkpt lat="47.31808" lon="-1.30346">
        <ele>49</ele>
        <time>2020-12-06T08:34:01.433000+00:00</time>
      </trkpt>
      <trkpt lat="0" lon="0">
        <time>2020-12-06T08:34:01.445000+00:00</time>
      </trkpt>
      <trkpt lat="0" lon="0">
        <time>2020-12-06T08:34:01.450000+00:00</time>
      </trkpt>
      <trkpt lat="0" lon="0">
        <time>2020-12-06T08:34:01.452000+00:00</time>
      </trkpt>
      <trkpt lat="47.31817" lon="-1.30348">
        <ele>48</ele>
        <time>2020-12-06T08:34:02.402000+00:00</time>
      </trkpt>
      <trkpt lat="0" lon="0">
        <time>2020-12-06T08:34:02.410000+00:00</time>
      </trkpt>
      <trkpt lat="0" lon="0">
        <time>2020-12-06T08:34:02.416000+00:00</time>
      </trkpt>
      <trkpt lat="0" lon="0">
        <time>2020-12-06T08:34:02.419000+00:00</time>
      </trkpt>
      <trkpt lat="47.31825" lon="-1.30349">
        <ele>47</ele>
        <time>2020-12-06T08:34:03.395000+00:00</time>
      </trkpt>
      <trkpt lat="0" lon="0">
        <time>2020-12-06T08:34:03.414000+00:00</time>
      </trkpt>
      <trkpt lat="0" lon="0">
        <time>2020-12-06T08:34:03.417000+00:00</time>
      </trkpt>
      <trkpt lat="0" lon="0">
        <time>2020-12-06T08:34:03.418000+00:00</time>
      </trkpt>
      <trkpt lat="47.31833" lon="-1.30351">
        <ele>47</ele>
        <time>2020-12-06T08:34:04.400000+00:00</time>
      </trkpt>
      <trkpt lat="0" lon="0">
        <time>2020-12-06T08:34:04.411000+00:00</time>
      </trkpt>
      <trkpt lat="0" lon="0">
        <time>2020-12-06T08:34:04.413000+00:00</time>
      </trkpt>
      <trkpt lat="0" lon="0">
        <time>2020-12-06T08:34:04.414000+00:00</time>
      </trkpt>
      <trkpt lat="47.31842" lon="-1.30352">
        <ele>46</ele>
        <time>2020-12-06T08:34:05.397000+00:00</time>
      </trkpt>
      <trkpt lat="0" lon="0">
        <time>2020-12-06T08:34:05.400000+00:00</time>
      </trkpt>
      <trkpt lat="0" lon="0">
        <time>2020-12-06T08:34:05.409000+00:00</time>
      </trkpt>
      <trkpt lat="0" lon="0">
        <time>2020-12-06T08:34:05.413000+00:00</time>
      </trkpt>
      <trkpt lat="47.3185" lon="-1.30353">
        <ele>46</ele>
        <time>2020-12-06T08:34:06.409000+00:00</time>
      </trkpt>
      <trkpt lat="0" lon="0">
        <time>2020-12-06T08:34:06.428000+00:00</time>
      </trkpt>
      <trkpt lat="0" lon="0">
        <time>2020-12-06T08:34:06.436000+00:00</time>
      </trkpt>
      <trkpt lat="0" lon="0">
        <time>2020-12-06T08:34:06.437000+00:00</time>
      </trkpt>
      <trkpt lat="47.31858" lon="-1.30354">
        <ele>45</ele>
        <time>2020-12-06T08:34:07.425000+00:00</time>
      </trkpt>
      <trkpt lat="0" lon="0">
        <time>2020-12-06T08:34:07.427000+00:00</time>
      </trkpt>
      <trkpt lat="0" lon="0">
        <time>2020-12-06T08:34:07.428000+00:00</time>
      </trkpt>
      <trkpt lat="0" lon="0">
        <time>2020-12-06T08:34:07.429000+00:00</time>
      </trkpt>
      <trkpt lat="47.31865" lon="-1.30355">
        <ele>45</ele>
        <time>2020-12-06T08:34:08.445000+00:00</time>
      </trkpt>
      <trkpt lat="0" lon="0">
        <time>2020-12-06T08:34:08.449000+00:00</time>
      </trkpt>
      <trkpt lat="0" lon="0">
        <time>2020-12-06T08:34:08.452000+00:00</time>
      </trkpt>
      <trkpt lat="0" lon="0">
        <time>2020-12-06T08:34:08.454000+00:00</time>
      </trkpt>
      <trkpt lat="47.31873" lon="-1.30356">
        <ele>45</ele>
        <time>2020-12-06T08:34:09.429000+00:00</time>
      </trkpt>
      <trkpt lat="0" lon="0">
        <time>2020-12-06T08:34:09.432000+00:00</time>
      </trkpt>
      <trkpt lat="0" lon="0">
        <time>2020-12-06T08:34:09.436000+00:00</time>
      </trkpt>
      <trkpt lat="0" lon="0">
        <time>2020-12-06T08:34:09.440000+00:00</time>
      </trkpt>
      <trkpt lat="47.31881" lon="-1.30358">
        <ele>44</ele>
        <time>2020-12-06T08:34:10.410000+00:00</time>
      </trkpt>
      <trkpt lat="0" lon="0">
        <time>2020-12-06T08:34:10.417000+00:00</time>
      </trkpt>
      <trkpt lat="0" lon="0">
        <time>2020-12-06T08:34:10.419000+00:00</time>
      </trkpt>
      <trkpt lat="0" lon="0">
        <time>2020-12-06T08:34:10.420000+00:00</time>
      </trkpt>
      <trkpt lat="47.31888" lon="-1.3036">
        <ele>44</ele>
        <time>2020-12-06T08:34:11.437000+00:00</time>
      </trkpt>
      <trkpt lat="0" lon="0">
        <time>2020-12-06T08:34:11.443000+00:00</time>
      </trkpt>
      <trkpt lat="0" lon="0">
        <time>2020-12-06T08:34:11.452000+00:00</time>
      </trkpt>
      <trkpt lat="0" lon="0">
        <time>2020-12-06T08:34:11.458000+00:00</time>
      </trkpt>
      <trkpt lat="47.31895" lon="-1.30362">
        <ele>43</ele>
        <time>2020-12-06T08:34:12.393000+00:00</time>
      </trkpt>
      <trkpt lat="0" lon="0">
        <time>2020-12-06T08:34:12.394000+00:00</time>
      </trkpt>
      <trkpt lat="0" lon="0">
        <time>2020-12-06T08:34:12.396000+00:00</time>
      </trkpt>
      <trkpt lat="0" lon="0">
        <time>2020-12-06T08:34:12.397000+00:00</time>
      </trkpt>
      <trkpt lat="47.31903" lon="-1.30365">
        <ele>43</ele>
        <time>2020-12-06T08:34:13.424000+00:00</time>
      </trkpt>
      <trkpt lat="0" lon="0">
        <time>2020-12-06T08:34:13.426000+00:00</time>
      </trkpt>
      <trkpt lat="0" lon="0">
        <time>2020-12-06T08:34:13.427000+00:00</time>
      </trkpt>
      <trkpt lat="0" lon="0">
        <time>2020-12-06T08:34:13.428000+00:00</time>
      </trkpt>
      <trkpt lat="47.3191" lon="-1.30368">
        <ele>42</ele>
        <time>2020-12-06T08:34:14.417000+00:00</time>
      </trkpt>
      <trkpt lat="0" lon="0">
        <time>2020-12-06T08:34:14.425000+00:00</time>
      </trkpt>
      <trkpt lat="0" lon="0">
        <time>2020-12-06T08:34:14.431000+00:00</time>
      </trkpt>
      <trkpt lat="0" lon="0">
        <time>2020-12-06T08:34:14.433000+00:00</time>
      </trkpt>
      <trkpt lat="47.31917" lon="-1.30371">
        <ele>42</ele>
        <time>2020-12-06T08:34:15.432000+00:00</time>
      </trkpt>
      <trkpt lat="0" lon="0">
        <time>2020-12-06T08:34:15.445000+00:00</time>
      </trkpt>
      <trkpt lat="0" lon="0">
        <time>2020-12-06T08:34:15.449000+00:00</time>
      </trkpt>
      <trkpt lat="0" lon="0">
        <time>2020-12-06T08:34:15.454000+00:00</time>
      </trkpt>
      <trkpt lat="47.31924" lon="-1.30375">
        <ele>41</ele>
        <time>2020-12-06T08:34:16.411000+00:00</time>
      </trkpt>
      <trkpt lat="0" lon="0">
        <time>2020-12-06T08:34:16.416000+00:00</time>
      </trkpt>
      <trkpt lat="0" lon="0">
        <time>2020-12-06T08:34:16.421000+00:00</time>
      </trkpt>
      <trkpt lat="0" lon="0">
        <time>2020-12-06T08:34:16.425000+00:00</time>
      </trkpt>
      <trkpt lat="47.31932" lon="-1.30379">
        <ele>41</ele>
        <time>2020-12-06T08:34:17.419000+00:00</time>
      </trkpt>
      <trkpt lat="0" lon="0">
        <time>2020-12-06T08:34:17.422000+00:00</time>
      </trkpt>
      <trkpt lat="0" lon="0">
        <time>2020-12-06T08:34:17.432000+00:00</time>
      </trkpt>
      <trkpt lat="0" lon="0">
        <time>2020-12-06T08:34:17.434000+00:00</time>
      </trkpt>
      <trkpt lat="47.31939" lon="-1.30383">
        <ele>41</ele>
        <time>2020-12-06T08:34:18.418000+00:00</time>
      </trkpt>
      <trkpt lat="0" lon="0">
        <time>2020-12-06T08:34:18.434000+00:00</time>
      </trkpt>
      <trkpt lat="0" lon="0">
        <time>2020-12-06T08:34:18.439000+00:00</time>
      </trkpt>
      <trkpt lat="0" lon="0">
        <time>2020-12-06T08:34:18.441000+00:00</time>
      </trkpt>
      <trkpt lat="47.31947" lon="-1.30388">
        <ele>41</ele>
        <time>2020-12-06T08:34:19.446000+00:00</time>
      </trkpt>
      <trkpt lat="0" lon="0">
        <time>2020-12-06T08:34:19.449000+00:00</time>
      </trkpt>
      <trkpt lat="0" lon="0">
        <time>2020-12-06T08:34:19.456000+00:00</time>
      </trkpt>
      <trkpt lat="0" lon="0">
        <time>2020-12-06T08:34:19.458000+00:00</time>
      </trkpt>
      <trkpt lat="47.31954" lon="-1.30393">
        <ele>40</ele>
        <time>2020-12-06T08:34:20.427000+00:00</time>
      </trkpt>
      <trkpt lat="0" lon="0">
        <time>2020-12-06T08:34:20.434000+00:00</time>
      </trkpt>
      <trkpt lat="0" lon="0">
        <time>2020-12-06T08:34:20.438000+00:00</time>
      </trkpt>
      <trkpt lat="0" lon="0">
        <time>2020-12-06T08:34:20.441000+00:00</time>
      </trkpt>
      <trkpt lat="47.31962" lon="-1.30398">
        <ele>40</ele>
        <time>2020-12-06T08:34:21.390000+00:00</time>
      </trkpt>
      <trkpt lat="0" lon="0">
        <time>2020-12-06T08:34:21.394000+00:00</time>
      </trkpt>
      <trkpt lat="0" lon="0">
        <time>2020-12-06T08:34:21.398000+00:00</time>
      </trkpt>
      <trkpt lat="0" lon="0">
        <time>2020-12-06T08:34:21.400000+00:00</time>
      </trkpt>
      <trkpt lat="47.3197" lon="-1.30404">
        <ele>40</ele>
        <time>2020-12-06T08:34:22.404000+00:00</time>
      </trkpt>
      <trkpt lat="0" lon="0">
        <time>2020-12-06T08:34:22.406000+00:00</time>
      </trkpt>
      <trkpt lat="0" lon="0">
        <time>2020-12-06T08:34:22.408000+00:00</time>
      </trkpt>
      <trkpt lat="47.31978" lon="-1.30409">
        <ele>40</ele>
        <time>2020-12-06T08:34:23.430000+00:00</time>
      </trkpt>
      <trkpt lat="0" lon="0">
        <time>2020-12-06T08:34:23.441000+00:00</time>
      </trkpt>
      <trkpt lat="0" lon="0">
        <time>2020-12-06T08:34:23.445000+00:00</time>
      </trkpt>
      <trkpt lat="0" lon="0">
        <time>2020-12-06T08:34:23.446000+00:00</time>
      </trkpt>
      <trkpt lat="47.31986" lon="-1.30415">
        <ele>39</ele>
        <time>2020-12-06T08:34:24.388000+00:00</time>
      </trkpt>
      <trkpt lat="0" lon="0">
        <time>2020-12-06T08:34:24.390000+00:00</time>
      </trkpt>
      <trkpt lat="0" lon="0">
        <time>2020-12-06T08:34:24.392000+00:00</time>
      </trkpt>
      <trkpt lat="0" lon="0">
        <time>2020-12-06T08:34:24.393000+00:00</time>
      </trkpt>
      <trkpt lat="47.31994" lon="-1.30421">
        <ele>39</ele>
        <time>2020-12-06T08:34:25.426000+00:00</time>
      </trkpt>
      <trkpt lat="0" lon="0">
        <time>2020-12-06T08:34:25.440000+00:00</time>
      </trkpt>
      <trkpt lat="0" lon="0">
        <time>2020-12-06T08:34:25.444000+00:00</time>
      </trkpt>
      <trkpt lat="0" lon="0">
        <time>2020-12-06T08:34:25.448000+00:00</time>
      </trkpt>
      <trkpt lat="47.32002" lon="-1.30426">
        <ele>39</ele>
        <time>2020-12-06T08:34:26.445000+00:00</time>
      </trkpt>
      <trkpt lat="0" lon="0">
        <time>2020-12-06T08:34:26.459000+00:00</time>
      </trkpt>
      <trkpt lat="0" lon="0">
        <time>2020-12-06T08:34:26.466000+00:00</time>
      </trkpt>
      <trkpt lat="0" lon="0">
        <time>2020-12-06T08:34:26.468000+00:00</time>
      </trkpt>
      <trkpt lat="47.32011" lon="-1.30432">
        <ele>38</ele>
        <time>2020-12-06T08:34:27.425000+00:00</time>
      </trkpt>
      <trkpt lat="0" lon="0">
        <time>2020-12-06T08:34:27.428000+00:00</time>
      </trkpt>
      <trkpt lat="0" lon="0">
        <time>2020-12-06T08:34:27.436000+00:00</time>
      </trkpt>
      <trkpt lat="0" lon="0">
        <time>2020-12-06T08:34:27.438000+00:00</time>
      </trkpt>
      <trkpt lat="47.3202" lon="-1.30437">
        <ele>38</ele>
        <time>2020-12-06T08:34:28.401000+00:00</time>
      </trkpt>
      <trkpt lat="0" lon="0">
        <time>2020-12-06T08:34:28.403000+00:00</time>
      </trkpt>
      <trkpt lat="0" lon="0">
        <time>2020-12-06T08:34:28.404000+00:00</time>
      </trkpt>
      <trkpt lat="47.32029" lon="-1.30442">
        <ele>37</ele>
        <time>2020-12-06T08:34:29.434000+00:00</time>
      </trkpt>
      <trkpt lat="0" lon="0">
        <time>2020-12-06T08:34:29.443000+00:00</time>
      </trkpt>
      <trkpt lat="0" lon="0">
        <time>2020-12-06T08:34:29.457000+00:00</time>
      </trkpt>
      <trkpt lat="0" lon="0">
        <time>2020-12-06T08:34:29.458000+00:00</time>
      </trkpt>
      <trkpt lat="47.32037" lon="-1.30448">
        <ele>37</ele>
        <time>2020-12-06T08:34:30.412000+00:00</time>
      </trkpt>
      <trkpt lat="0" lon="0">
        <time>2020-12-06T08:34:30.416000+00:00</time>
      </trkpt>
      <trkpt lat="0" lon="0">
        <time>2020-12-06T08:34:30.421000+00:00</time>
      </trkpt>
      <trkpt lat="0" lon="0">
        <time>2020-12-06T08:34:30.424000+00:00</time>
      </trkpt>
      <trkpt lat="47.32046" lon="-1.30454">
        <ele>36</ele>
        <time>2020-12-06T08:34:31.403000+00:00</time>
      </trkpt>
      <trkpt lat="0" lon="0">
        <time>2020-12-06T08:34:31.410000+00:00</time>
      </trkpt>
      <trkpt lat="0" lon="0">
        <time>2020-12-06T08:34:31.417000+00:00</time>
      </trkpt>
      <trkpt lat="0" lon="0">
        <time>2020-12-06T08:34:31.418000+00:00</time>
      </trkpt>
      <trkpt lat="47.32054" lon="-1.3046">
        <ele>36</ele>
        <time>2020-12-06T08:34:32.416000+00:00</time>
      </trkpt>
      <trkpt lat="0" lon="0">
        <time>2020-12-06T08:34:32.432000+00:00</time>
      </trkpt>
      <trkpt lat="0" lon="0">
        <time>2020-12-06T08:34:32.438000+00:00</time>
      </trkpt>
      <trkpt lat="0" lon="0">
        <time>2020-12-06T08:34:32.440000+00:00</time>
      </trkpt>
      <trkpt lat="47.32062" lon="-1.30467">
        <ele>35</ele>
        <time>2020-12-06T08:34:33.389000+00:00</time>
      </trkpt>
      <trkpt lat="0" lon="0">
        <time>2020-12-06T08:34:33.397000+00:00</time>
      </trkpt>
      <trkpt lat="0" lon="0">
        <time>2020-12-06T08:34:33.400000+00:00</time>
      </trkpt>
      <trkpt lat="0" lon="0">
        <time>2020-12-06T08:34:33.402000+00:00</time>
      </trkpt>
      <trkpt lat="47.32068" lon="-1.30476">
        <ele>35</ele>
        <time>2020-12-06T08:34:34.421000+00:00</time>
      </trkpt>
      <trkpt lat="0" lon="0">
        <time>2020-12-06T08:34:34.424000+00:00</time>
      </trkpt>
      <trkpt lat="0" lon="0">
        <time>2020-12-06T08:34:34.431000+00:00</time>
      </trkpt>
      <trkpt lat="0" lon="0">
        <time>2020-12-06T08:34:34.434000+00:00</time>
      </trkpt>
      <trkpt lat="47.32075" lon="-1.30485">
        <ele>34</ele>
        <time>2020-12-06T08:34:35.431000+00:00</time>
      </trkpt>
      <trkpt lat="0" lon="0">
        <time>2020-12-06T08:34:35.434000+00:00</time>
      </trkpt>
      <trkpt lat="0" lon="0">
        <time>2020-12-06T08:34:35.439000+00:00</time>
      </trkpt>
      <trkpt lat="0" lon="0">
        <time>2020-12-06T08:34:35.441000+00:00</time>
      </trkpt>
      <trkpt lat="47.3208" lon="-1.30496">
        <ele>34</ele>
        <time>2020-12-06T08:34:36.403000+00:00</time>
      </trkpt>
      <trkpt lat="0" lon="0">
        <time>2020-12-06T08:34:36.411000+00:00</time>
      </trkpt>
      <trkpt lat="0" lon="0">
        <time>2020-12-06T08:34:36.414000+00:00</time>
      </trkpt>
      <trkpt lat="0" lon="0">
        <time>2020-12-06T08:34:36.415000+00:00</time>
      </trkpt>
      <trkpt lat="47.32086" lon="-1.30507">
        <ele>33</ele>
        <time>2020-12-06T08:34:37.414000+00:00</time>
      </trkpt>
      <trkpt lat="0" lon="0">
        <time>2020-12-06T08:34:37.428000+00:00</time>
      </trkpt>
      <trkpt lat="0" lon="0">
        <time>2020-12-06T08:34:37.430000+00:00</time>
      </trkpt>
      <trkpt lat="0" lon="0">
        <time>2020-12-06T08:34:37.431000+00:00</time>
      </trkpt>
      <trkpt lat="47.32091" lon="-1.30519">
        <ele>31</ele>
        <time>2020-12-06T08:34:38.394000+00:00</time>
      </trkpt>
      <trkpt lat="0" lon="0">
        <time>2020-12-06T08:34:38.404000+00:00</time>
      </trkpt>
      <trkpt lat="0" lon="0">
        <time>2020-12-06T08:34:38.410000+00:00</time>
      </trkpt>
      <trkpt lat="0" lon="0">
        <time>2020-12-06T08:34:38.411000+00:00</time>
      </trkpt>
      <trkpt lat="47.32097" lon="-1.3053">
        <ele>30</ele>
        <time>2020-12-06T08:34:39.428000+00:00</time>
      </trkpt>
      <trkpt lat="0" lon="0">
        <time>2020-12-06T08:34:39.433000+00:00</time>
      </trkpt>
      <trkpt lat="0" lon="0">
        <time>2020-12-06T08:34:39.435000+00:00</time>
      </trkpt>
      <trkpt lat="0" lon="0">
        <time>2020-12-06T08:34:39.436000+00:00</time>
      </trkpt>
      <trkpt lat="47.32104" lon="-1.30541">
        <ele>29</ele>
        <time>2020-12-06T08:34:40.435000+00:00</time>
      </trkpt>
      <trkpt lat="0" lon="0">
        <time>2020-12-06T08:34:40.445000+00:00</time>
      </trkpt>
      <trkpt lat="0" lon="0">
        <time>2020-12-06T08:34:40.449000+00:00</time>
      </trkpt>
      <trkpt lat="0" lon="0">
        <time>2020-12-06T08:34:40.450000+00:00</time>
      </trkpt>
      <trkpt lat="47.32111" lon="-1.30551">
        <ele>28</ele>
        <time>2020-12-06T08:34:41.410000+00:00</time>
      </trkpt>
      <trkpt lat="0" lon="0">
        <time>2020-12-06T08:34:41.424000+00:00</time>
      </trkpt>
      <trkpt lat="0" lon="0">
        <time>2020-12-06T08:34:41.428000+00:00</time>
      </trkpt>
      <trkpt lat="0" lon="0">
        <time>2020-12-06T08:34:41.429000+00:00</time>
      </trkpt>
      <trkpt lat="47.32118" lon="-1.3056">
        <ele>27</ele>
        <time>2020-12-06T08:34:42.438000+00:00</time>
      </trkpt>
      <trkpt lat="0" lon="0">
        <time>2020-12-06T08:34:42.450000+00:00</time>
      </trkpt>
      <trkpt lat="0" lon="0">
        <time>2020-12-06T08:34:42.457000+00:00</time>
      </trkpt>
      <trkpt lat="0" lon="0">
        <time>2020-12-06T08:34:42.459000+00:00</time>
      </trkpt>
      <trkpt lat="47.32126" lon="-1.30567">
        <ele>26</ele>
        <time>2020-12-06T08:34:43.444000+00:00</time>
      </trkpt>
      <trkpt lat="0" lon="0">
        <time>2020-12-06T08:34:43.451000+00:00</time>
      </trkpt>
      <trkpt lat="0" lon="0">
        <time>2020-12-06T08:34:43.469000+00:00</time>
      </trkpt>
      <trkpt lat="0" lon="0">
        <time>2020-12-06T08:34:43.473000+00:00</time>
      </trkpt>
      <trkpt lat="47.32133" lon="-1.30573">
        <ele>25</ele>
        <time>2020-12-06T08:34:44.418000+00:00</time>
      </trkpt>
      <trkpt lat="0" lon="0">
        <time>2020-12-06T08:34:44.428000+00:00</time>
      </trkpt>
      <trkpt lat="0" lon="0">
        <time>2020-12-06T08:34:44.433000+00:00</time>
      </trkpt>
      <trkpt lat="0" lon="0">
        <time>2020-12-06T08:34:44.435000+00:00</time>
      </trkpt>
      <trkpt lat="47.3214" lon="-1.30577">
        <ele>25</ele>
        <time>2020-12-06T08:34:45.434000+00:00</time>
      </trkpt>
      <trkpt lat="0" lon="0">
        <time>2020-12-06T08:34:45.440000+00:00</time>
      </trkpt>
      <trkpt lat="0" lon="0">
        <time>2020-12-06T08:34:45.444000+00:00</time>
      </trkpt>
      <trkpt lat="0" lon="0">
        <time>2020-12-06T08:34:45.447000+00:00</time>
      </trkpt>
      <trkpt lat="47.32148" lon="-1.30579">
        <ele>24</ele>
        <time>2020-12-06T08:34:46.432000+00:00</time>
      </trkpt>
      <trkpt lat="0" lon="0">
        <time>2020-12-06T08:34:46.453000+00:00</time>
      </trkpt>
      <trkpt lat="0" lon="0">
        <time>2020-12-06T08:34:46.456000+00:00</time>
      </trkpt>
      <trkpt lat="0" lon="0">
        <time>2020-12-06T08:34:46.457000+00:00</time>
      </trkpt>
      <trkpt lat="47.32156" lon="-1.3058">
        <ele>24</ele>
        <time>2020-12-06T08:34:47.422000+00:00</time>
      </trkpt>
      <trkpt lat="0" lon="0">
        <time>2020-12-06T08:34:47.425000+00:00</time>
      </trkpt>
      <trkpt lat="0" lon="0">
        <time>2020-12-06T08:34:47.429000+00:00</time>
      </trkpt>
      <trkpt lat="0" lon="0">
        <time>2020-12-06T08:34:47.431000+00:00</time>
      </trkpt>
      <trkpt lat="47.32164" lon="-1.30579">
        <ele>24</ele>
        <time>2020-12-06T08:34:48.447000+00:00</time>
      </trkpt>
      <trkpt lat="0" lon="0">
        <time>2020-12-06T08:34:48.456000+00:00</time>
      </trkpt>
      <trkpt lat="0" lon="0">
        <time>2020-12-06T08:34:48.458000+00:00</time>
      </trkpt>
      <trkpt lat="0" lon="0">
        <time>2020-12-06T08:34:48.459000+00:00</time>
      </trkpt>
      <trkpt lat="47.32173" lon="-1.30577">
        <ele>24</ele>
        <time>2020-12-06T08:34:49.451000+00:00</time>
      </trkpt>
      <trkpt lat="0" lon="0">
        <time>2020-12-06T08:34:49.462000+00:00</time>
      </trkpt>
      <trkpt lat="0" lon="0">
        <time>2020-12-06T08:34:49.469000+00:00</time>
      </trkpt>
      <trkpt lat="0" lon="0">
        <time>2020-12-06T08:34:49.470000+00:00</time>
      </trkpt>
      <trkpt lat="47.32181" lon="-1.30574">
        <ele>23</ele>
        <time>2020-12-06T08:34:50.432000+00:00</time>
      </trkpt>
      <trkpt lat="0" lon="0">
        <time>2020-12-06T08:34:50.436000+00:00</time>
      </trkpt>
      <trkpt lat="0" lon="0">
        <time>2020-12-06T08:34:50.444000+00:00</time>
      </trkpt>
      <trkpt lat="0" lon="0">
        <time>2020-12-06T08:34:50.445000+00:00</time>
      </trkpt>
      <trkpt lat="47.32189" lon="-1.30569">
        <ele>23</ele>
        <time>2020-12-06T08:34:51.390000+00:00</time>
      </trkpt>
      <trkpt lat="0" lon="0">
        <time>2020-12-06T08:34:51.397000+00:00</time>
      </trkpt>
      <trkpt lat="0" lon="0">
        <time>2020-12-06T08:34:51.400000+00:00</time>
      </trkpt>
      <trkpt lat="0" lon="0">
        <time>2020-12-06T08:34:51.401000+00:00</time>
      </trkpt>
      <trkpt lat="47.32198" lon="-1.30563">
        <ele>23</ele>
        <time>2020-12-06T08:34:52.436000+00:00</time>
      </trkpt>
      <trkpt lat="0" lon="0">
        <time>2020-12-06T08:34:52.442000+00:00</time>
      </trkpt>
      <trkpt lat="0" lon="0">
        <time>2020-12-06T08:34:52.449000+00:00</time>
      </trkpt>
      <trkpt lat="0" lon="0">
        <time>2020-12-06T08:34:52.451000+00:00</time>
      </trkpt>
      <trkpt lat="47.32206" lon="-1.30556">
        <ele>23</ele>
        <time>2020-12-06T08:34:53.406000+00:00</time>
      </trkpt>
      <trkpt lat="0" lon="0">
        <time>2020-12-06T08:34:53.412000+00:00</time>
      </trkpt>
      <trkpt lat="0" lon="0">
        <time>2020-12-06T08:34:53.417000+00:00</time>
      </trkpt>
      <trkpt lat="0" lon="0">
        <time>2020-12-06T08:34:53.422000+00:00</time>
      </trkpt>
      <trkpt lat="47.32215" lon="-1.30549">
        <ele>22</ele>
        <time>2020-12-06T08:34:54.444000+00:00</time>
      </trkpt>
      <trkpt lat="0" lon="0">
        <time>2020-12-06T08:34:54.460000+00:00</time>
      </trkpt>
      <trkpt lat="0" lon="0">
        <time>2020-12-06T08:34:54.463000+00:00</time>
      </trkpt>
      <trkpt lat="0" lon="0">
        <time>2020-12-06T08:34:54.465000+00:00</time>
      </trkpt>
      <trkpt lat="47.32223" lon="-1.30542">
        <ele>22</ele>
        <time>2020-12-06T08:34:55.430000+00:00</time>
      </trkpt>
      <trkpt lat="0" lon="0">
        <time>2020-12-06T08:34:55.437000+00:00</time>
      </trkpt>
      <trkpt lat="0" lon="0">
        <time>2020-12-06T08:34:55.444000+00:00</time>
      </trkpt>
      <trkpt lat="0" lon="0">
        <time>2020-12-06T08:34:55.445000+00:00</time>
      </trkpt>
      <trkpt lat="47.32232" lon="-1.30535">
        <ele>21</ele>
        <time>2020-12-06T08:34:56.433000+00:00</time>
      </trkpt>
      <trkpt lat="0" lon="0">
        <time>2020-12-06T08:34:56.434000+00:00</time>
      </trkpt>
      <trkpt lat="0" lon="0">
        <time>2020-12-06T08:34:56.436000+00:00</time>
      </trkpt>
      <trkpt lat="0" lon="0">
        <time>2020-12-06T08:34:56.437000+00:00</time>
      </trkpt>
      <trkpt lat="47.32241" lon="-1.30528">
        <ele>21</ele>
        <time>2020-12-06T08:34:57.468000+00:00</time>
      </trkpt>
      <trkpt lat="0" lon="0">
        <time>2020-12-06T08:34:57.470000+00:00</time>
      </trkpt>
      <trkpt lat="0" lon="0">
        <time>2020-12-06T08:34:57.476000+00:00</time>
      </trkpt>
      <trkpt lat="0" lon="0">
        <time>2020-12-06T08:34:57.477000+00:00</time>
      </trkpt>
      <trkpt lat="47.3225" lon="-1.30522">
        <ele>20</ele>
        <time>2020-12-06T08:34:58.433000+00:00</time>
      </trkpt>
      <trkpt lat="0" lon="0">
        <time>2020-12-06T08:34:58.436000+00:00</time>
      </trkpt>
      <trkpt lat="0" lon="0">
        <time>2020-12-06T08:34:58.450000+00:00</time>
      </trkpt>
      <trkpt lat="0" lon="0">
        <time>2020-12-06T08:34:58.452000+00:00</time>
      </trkpt>
      <trkpt lat="47.32259" lon="-1.30517">
        <ele>19</ele>
        <time>2020-12-06T08:34:59.448000+00:00</time>
      </trkpt>
      <trkpt lat="0" lon="0">
        <time>2020-12-06T08:34:59.450000+00:00</time>
      </trkpt>
      <trkpt lat="0" lon="0">
        <time>2020-12-06T08:34:59.452000+00:00</time>
      </trkpt>
      <trkpt lat="0" lon="0">
        <time>2020-12-06T08:34:59.453000+00:00</time>
      </trkpt>
      <trkpt lat="47.32268" lon="-1.30513">
        <ele>18</ele>
        <time>2020-12-06T08:35:00.462000+00:00</time>
      </trkpt>
      <trkpt lat="0" lon="0">
        <time>2020-12-06T08:35:00.467000+00:00</time>
      </trkpt>
      <trkpt lat="0" lon="0">
        <time>2020-12-06T08:35:00.482000+00:00</time>
      </trkpt>
      <trkpt lat="0" lon="0">
        <time>2020-12-06T08:35:00.484000+00:00</time>
      </trkpt>
      <trkpt lat="47.32276" lon="-1.3051">
        <ele>17</ele>
        <time>2020-12-06T08:35:01.443000+00:00</time>
      </trkpt>
      <trkpt lat="0" lon="0">
        <time>2020-12-06T08:35:01.446000+00:00</time>
      </trkpt>
      <trkpt lat="0" lon="0">
        <time>2020-12-06T08:35:01.451000+00:00</time>
      </trkpt>
      <trkpt lat="0" lon="0">
        <time>2020-12-06T08:35:01.454000+00:00</time>
      </trkpt>
      <trkpt lat="47.32284" lon="-1.30508">
        <ele>17</ele>
        <time>2020-12-06T08:35:02.452000+00:00</time>
      </trkpt>
      <trkpt lat="0" lon="0">
        <time>2020-12-06T08:35:02.457000+00:00</time>
      </trkpt>
      <trkpt lat="0" lon="0">
        <time>2020-12-06T08:35:02.460000+00:00</time>
      </trkpt>
      <trkpt lat="0" lon="0">
        <time>2020-12-06T08:35:02.461000+00:00</time>
      </trkpt>
      <trkpt lat="47.32291" lon="-1.30506">
        <ele>16</ele>
        <time>2020-12-06T08:35:03.435000+00:00</time>
      </trkpt>
      <trkpt lat="0" lon="0">
        <time>2020-12-06T08:35:03.443000+00:00</time>
      </trkpt>
      <trkpt lat="0" lon="0">
        <time>2020-12-06T08:35:03.447000+00:00</time>
      </trkpt>
      <trkpt lat="0" lon="0">
        <time>2020-12-06T08:35:03.451000+00:00</time>
      </trkpt>
      <trkpt lat="47.32298" lon="-1.30504">
        <ele>15</ele>
        <time>2020-12-06T08:35:04.413000+00:00</time>
      </trkpt>
      <trkpt lat="0" lon="0">
        <time>2020-12-06T08:35:04.417000+00:00</time>
      </trkpt>
      <trkpt lat="0" lon="0">
        <time>2020-12-06T08:35:04.420000+00:00</time>
      </trkpt>
      <trkpt lat="0" lon="0">
        <time>2020-12-06T08:35:04.422000+00:00</time>
      </trkpt>
      <trkpt lat="47.32304" lon="-1.30501">
        <ele>15</ele>
        <time>2020-12-06T08:35:05.379000+00:00</time>
      </trkpt>
      <trkpt lat="0" lon="0">
        <time>2020-12-06T08:35:05.382000+00:00</time>
      </trkpt>
      <trkpt lat="0" lon="0">
        <time>2020-12-06T08:35:05.396000+00:00</time>
      </trkpt>
      <trkpt lat="0" lon="0">
        <time>2020-12-06T08:35:05.405000+00:00</time>
      </trkpt>
      <trkpt lat="47.32309" lon="-1.30497">
        <ele>14</ele>
        <time>2020-12-06T08:35:06.417000+00:00</time>
      </trkpt>
      <trkpt lat="0" lon="0">
        <time>2020-12-06T08:35:06.421000+00:00</time>
      </trkpt>
      <trkpt lat="0" lon="0">
        <time>2020-12-06T08:35:06.424000+00:00</time>
      </trkpt>
      <trkpt lat="0" lon="0">
        <time>2020-12-06T08:35:06.429000+00:00</time>
      </trkpt>
      <trkpt lat="47.32313" lon="-1.30494">
        <ele>14</ele>
        <time>2020-12-06T08:35:07.404000+00:00</time>
      </trkpt>
      <trkpt lat="0" lon="0">
        <time>2020-12-06T08:35:07.410000+00:00</time>
      </trkpt>
      <trkpt lat="0" lon="0">
        <time>2020-12-06T08:35:07.414000+00:00</time>
      </trkpt>
      <trkpt lat="0" lon="0">
        <time>2020-12-06T08:35:07.416000+00:00</time>
      </trkpt>
      <trkpt lat="47.32317" lon="-1.30489">
        <ele>14</ele>
        <time>2020-12-06T08:35:08.388000+00:00</time>
      </trkpt>
      <trkpt lat="0" lon="0">
        <time>2020-12-06T08:35:08.398000+00:00</time>
      </trkpt>
      <trkpt lat="0" lon="0">
        <time>2020-12-06T08:35:08.404000+00:00</time>
      </trkpt>
      <trkpt lat="0" lon="0">
        <time>2020-12-06T08:35:08.409000+00:00</time>
      </trkpt>
      <trkpt lat="47.32321" lon="-1.30485">
        <ele>13</ele>
        <time>2020-12-06T08:35:09.426000+00:00</time>
      </trkpt>
      <trkpt lat="0" lon="0">
        <time>2020-12-06T08:35:09.441000+00:00</time>
      </trkpt>
      <trkpt lat="0" lon="0">
        <time>2020-12-06T08:35:09.448000+00:00</time>
      </trkpt>
      <trkpt lat="0" lon="0">
        <time>2020-12-06T08:35:09.454000+00:00</time>
      </trkpt>
      <trkpt lat="47.32324" lon="-1.3048">
        <ele>13</ele>
        <time>2020-12-06T08:35:10.419000+00:00</time>
      </trkpt>
      <trkpt lat="0" lon="0">
        <time>2020-12-06T08:35:10.429000+00:00</time>
      </trkpt>
      <trkpt lat="0" lon="0">
        <time>2020-12-06T08:35:10.437000+00:00</time>
      </trkpt>
      <trkpt lat="0" lon="0">
        <time>2020-12-06T08:35:10.439000+00:00</time>
      </trkpt>
      <trkpt lat="47.32327" lon="-1.30475">
        <ele>13</ele>
        <time>2020-12-06T08:35:11.437000+00:00</time>
      </trkpt>
      <trkpt lat="0" lon="0">
        <time>2020-12-06T08:35:11.449000+00:00</time>
      </trkpt>
      <trkpt lat="0" lon="0">
        <time>2020-12-06T08:35:11.460000+00:00</time>
      </trkpt>
      <trkpt lat="0" lon="0">
        <time>2020-12-06T08:35:11.462000+00:00</time>
      </trkpt>
      <trkpt lat="47.3233" lon="-1.3047">
        <ele>13</ele>
        <time>2020-12-06T08:35:12.413000+00:00</time>
      </trkpt>
      <trkpt lat="0" lon="0">
        <time>2020-12-06T08:35:12.420000+00:00</time>
      </trkpt>
      <trkpt lat="0" lon="0">
        <time>2020-12-06T08:35:12.426000+00:00</time>
      </trkpt>
      <trkpt lat="0" lon="0">
        <time>2020-12-06T08:35:12.429000+00:00</time>
      </trkpt>
      <trkpt lat="47.32333" lon="-1.30465">
        <ele>13</ele>
        <time>2020-12-06T08:35:13.463000+00:00</time>
      </trkpt>
      <trkpt lat="0" lon="0">
        <time>2020-12-06T08:35:13.467000+00:00</time>
      </trkpt>
      <trkpt lat="0" lon="0">
        <time>2020-12-06T08:35:13.472000+00:00</time>
      </trkpt>
      <trkpt lat="0" lon="0">
        <time>2020-12-06T08:35:13.483000+00:00</time>
      </trkpt>
      <trkpt lat="47.32336" lon="-1.30459">
        <ele>13</ele>
        <time>2020-12-06T08:35:14.460000+00:00</time>
      </trkpt>
      <trkpt lat="0" lon="0">
        <time>2020-12-06T08:35:14.479000+00:00</time>
      </trkpt>
      <trkpt lat="0" lon="0">
        <time>2020-12-06T08:35:14.482000+00:00</time>
      </trkpt>
      <trkpt lat="0" lon="0">
        <time>2020-12-06T08:35:14.490000+00:00</time>
      </trkpt>
      <trkpt lat="47.32338" lon="-1.30454">
        <ele>13</ele>
        <time>2020-12-06T08:35:15.399000+00:00</time>
      </trkpt>
      <trkpt lat="0" lon="0">
        <time>2020-12-06T08:35:15.404000+00:00</time>
      </trkpt>
      <trkpt lat="0" lon="0">
        <time>2020-12-06T08:35:15.413000+00:00</time>
      </trkpt>
      <trkpt lat="0" lon="0">
        <time>2020-12-06T08:35:15.415000+00:00</time>
      </trkpt>
      <trkpt lat="47.3234" lon="-1.30449">
        <ele>13</ele>
        <time>2020-12-06T08:35:16.438000+00:00</time>
      </trkpt>
      <trkpt lat="0" lon="0">
        <time>2020-12-06T08:35:16.454000+00:00</time>
      </trkpt>
      <trkpt lat="0" lon="0">
        <time>2020-12-06T08:35:16.457000+00:00</time>
      </trkpt>
      <trkpt lat="0" lon="0">
        <time>2020-12-06T08:35:16.459000+00:00</time>
      </trkpt>
      <trkpt lat="47.32343" lon="-1.30443">
        <ele>13</ele>
        <time>2020-12-06T08:35:17.411000+00:00</time>
      </trkpt>
      <trkpt lat="0" lon="0">
        <time>2020-12-06T08:35:17.414000+00:00</time>
      </trkpt>
      <trkpt lat="0" lon="0">
        <time>2020-12-06T08:35:17.416000+00:00</time>
      </trkpt>
      <trkpt lat="0" lon="0">
        <time>2020-12-06T08:35:17.417000+00:00</time>
      </trkpt>
      <trkpt lat="47.32345" lon="-1.30438">
        <ele>13</ele>
        <time>2020-12-06T08:35:18.426000+00:00</time>
      </trkpt>
      <trkpt lat="0" lon="0">
        <time>2020-12-06T08:35:18.436000+00:00</time>
      </trkpt>
      <trkpt lat="0" lon="0">
        <time>2020-12-06T08:35:18.445000+00:00</time>
      </trkpt>
      <trkpt lat="0" lon="0">
        <time>2020-12-06T08:35:18.454000+00:00</time>
      </trkpt>
      <trkpt lat="47.32347" lon="-1.30433">
        <ele>13</ele>
        <time>2020-12-06T08:35:19.432000+00:00</time>
      </trkpt>
      <trkpt lat="0" lon="0">
        <time>2020-12-06T08:35:19.446000+00:00</time>
      </trkpt>
      <trkpt lat="0" lon="0">
        <time>2020-12-06T08:35:19.450000+00:00</time>
      </trkpt>
      <trkpt lat="0" lon="0">
        <time>2020-12-06T08:35:19.453000+00:00</time>
      </trkpt>
      <trkpt lat="47.32349" lon="-1.30428">
        <ele>13</ele>
        <time>2020-12-06T08:35:20.450000+00:00</time>
      </trkpt>
      <trkpt lat="0" lon="0">
        <time>2020-12-06T08:35:20.456000+00:00</time>
      </trkpt>
      <trkpt lat="0" lon="0">
        <time>2020-12-06T08:35:20.462000+00:00</time>
      </trkpt>
      <trkpt lat="0" lon="0">
        <time>2020-12-06T08:35:20.464000+00:00</time>
      </trkpt>
      <trkpt lat="47.32352" lon="-1.30422">
        <ele>13</ele>
        <time>2020-12-06T08:35:21.399000+00:00</time>
      </trkpt>
      <trkpt lat="0" lon="0">
        <time>2020-12-06T08:35:21.415000+00:00</time>
      </trkpt>
      <trkpt lat="0" lon="0">
        <time>2020-12-06T08:35:21.420000+00:00</time>
      </trkpt>
      <trkpt lat="0" lon="0">
        <time>2020-12-06T08:35:21.427000+00:00</time>
      </trkpt>
      <trkpt lat="47.32355" lon="-1.30417">
        <ele>13</ele>
        <time>2020-12-06T08:35:22.376000+00:00</time>
      </trkpt>
      <trkpt lat="0" lon="0">
        <time>2020-12-06T08:35:22.384000+00:00</time>
      </trkpt>
      <trkpt lat="0" lon="0">
        <time>2020-12-06T08:35:22.391000+00:00</time>
      </trkpt>
      <trkpt lat="0" lon="0">
        <time>2020-12-06T08:35:22.396000+00:00</time>
      </trkpt>
      <trkpt lat="47.32358" lon="-1.30412">
        <ele>13</ele>
        <time>2020-12-06T08:35:23.399000+00:00</time>
      </trkpt>
      <trkpt lat="0" lon="0">
        <time>2020-12-06T08:35:23.401000+00:00</time>
      </trkpt>
      <trkpt lat="0" lon="0">
        <time>2020-12-06T08:35:23.403000+00:00</time>
      </trkpt>
      <trkpt lat="0" lon="0">
        <time>2020-12-06T08:35:23.404000+00:00</time>
      </trkpt>
      <trkpt lat="47.32362" lon="-1.30407">
        <ele>13</ele>
        <time>2020-12-06T08:35:24.346000+00:00</time>
      </trkpt>
      <trkpt lat="0" lon="0">
        <time>2020-12-06T08:35:24.347000+00:00</time>
      </trkpt>
      <trkpt lat="0" lon="0">
        <time>2020-12-06T08:35:24.349000+00:00</time>
      </trkpt>
      <trkpt lat="0" lon="0">
        <time>2020-12-06T08:35:24.350000+00:00</time>
      </trkpt>
      <trkpt lat="47.32366" lon="-1.30402">
        <ele>12</ele>
        <time>2020-12-06T08:35:25.428000+00:00</time>
      </trkpt>
      <trkpt lat="0" lon="0">
        <time>2020-12-06T08:35:25.434000+00:00</time>
      </trkpt>
      <trkpt lat="0" lon="0">
        <time>2020-12-06T08:35:25.445000+00:00</time>
      </trkpt>
      <trkpt lat="0" lon="0">
        <time>2020-12-06T08:35:25.446000+00:00</time>
      </trkpt>
      <trkpt lat="47.32371" lon="-1.30397">
        <ele>12</ele>
        <time>2020-12-06T08:35:26.373000+00:00</time>
      </trkpt>
      <trkpt lat="0" lon="0">
        <time>2020-12-06T08:35:26.386000+00:00</time>
      </trkpt>
      <trkpt lat="0" lon="0">
        <time>2020-12-06T08:35:26.389000+00:00</time>
      </trkpt>
      <trkpt lat="0" lon="0">
        <time>2020-12-06T08:35:26.395000+00:00</time>
      </trkpt>
      <trkpt lat="47.32376" lon="-1.30393">
        <ele>12</ele>
        <time>2020-12-06T08:35:27.424000+00:00</time>
      </trkpt>
      <trkpt lat="0" lon="0">
        <time>2020-12-06T08:35:27.432000+00:00</time>
      </trkpt>
      <trkpt lat="0" lon="0">
        <time>2020-12-06T08:35:27.439000+00:00</time>
      </trkpt>
      <trkpt lat="0" lon="0">
        <time>2020-12-06T08:35:27.441000+00:00</time>
      </trkpt>
      <trkpt lat="47.32381" lon="-1.30388">
        <ele>12</ele>
        <time>2020-12-06T08:35:28.392000+00:00</time>
      </trkpt>
      <trkpt lat="0" lon="0">
        <time>2020-12-06T08:35:28.401000+00:00</time>
      </trkpt>
      <trkpt lat="0" lon="0">
        <time>2020-12-06T08:35:28.405000+00:00</time>
      </trkpt>
      <trkpt lat="0" lon="0">
        <time>2020-12-06T08:35:28.408000+00:00</time>
      </trkpt>
      <trkpt lat="47.32387" lon="-1.30384">
        <ele>12</ele>
        <time>2020-12-06T08:35:29.364000+00:00</time>
      </trkpt>
      <trkpt lat="0" lon="0">
        <time>2020-12-06T08:35:29.367000+00:00</time>
      </trkpt>
      <trkpt lat="0" lon="0">
        <time>2020-12-06T08:35:29.374000+00:00</time>
      </trkpt>
      <trkpt lat="0" lon="0">
        <time>2020-12-06T08:35:29.383000+00:00</time>
      </trkpt>
      <trkpt lat="47.32392" lon="-1.3038">
        <ele>12</ele>
        <time>2020-12-06T08:35:30.398000+00:00</time>
      </trkpt>
      <trkpt lat="0" lon="0">
        <time>2020-12-06T08:35:30.400000+00:00</time>
      </trkpt>
      <trkpt lat="0" lon="0">
        <time>2020-12-06T08:35:30.402000+00:00</time>
      </trkpt>
      <trkpt lat="0" lon="0">
        <time>2020-12-06T08:35:30.412000+00:00</time>
      </trkpt>
      <trkpt lat="47.32398" lon="-1.30376">
        <ele>11</ele>
        <time>2020-12-06T08:35:31.431000+00:00</time>
      </trkpt>
      <trkpt lat="0" lon="0">
        <time>2020-12-06T08:35:31.436000+00:00</time>
      </trkpt>
      <trkpt lat="0" lon="0">
        <time>2020-12-06T08:35:31.442000+00:00</time>
      </trkpt>
      <trkpt lat="0" lon="0">
        <time>2020-12-06T08:35:31.454000+00:00</time>
      </trkpt>
      <trkpt lat="47.32404" lon="-1.30372">
        <ele>11</ele>
        <time>2020-12-06T08:35:32.425000+00:00</time>
      </trkpt>
      <trkpt lat="0" lon="0">
        <time>2020-12-06T08:35:32.438000+00:00</time>
      </trkpt>
      <trkpt lat="0" lon="0">
        <time>2020-12-06T08:35:32.449000+00:00</time>
      </trkpt>
      <trkpt lat="0" lon="0">
        <time>2020-12-06T08:35:32.455000+00:00</time>
      </trkpt>
      <trkpt lat="47.3241" lon="-1.30369">
        <ele>11</ele>
        <time>2020-12-06T08:35:33.425000+00:00</time>
      </trkpt>
      <trkpt lat="0" lon="0">
        <time>2020-12-06T08:35:33.441000+00:00</time>
      </trkpt>
      <trkpt lat="0" lon="0">
        <time>2020-12-06T08:35:33.452000+00:00</time>
      </trkpt>
      <trkpt lat="0" lon="0">
        <time>2020-12-06T08:35:33.458000+00:00</time>
      </trkpt>
      <trkpt lat="47.32415" lon="-1.30365">
        <ele>11</ele>
        <time>2020-12-06T08:35:34.421000+00:00</time>
      </trkpt>
      <trkpt lat="0" lon="0">
        <time>2020-12-06T08:35:34.424000+00:00</time>
      </trkpt>
      <trkpt lat="0" lon="0">
        <time>2020-12-06T08:35:34.425000+00:00</time>
      </trkpt>
      <trkpt lat="0" lon="0">
        <time>2020-12-06T08:35:34.428000+00:00</time>
      </trkpt>
      <trkpt lat="47.32421" lon="-1.30362">
        <ele>11</ele>
        <time>2020-12-06T08:35:35.418000+00:00</time>
      </trkpt>
      <trkpt lat="0" lon="0">
        <time>2020-12-06T08:35:35.428000+00:00</time>
      </trkpt>
      <trkpt lat="0" lon="0">
        <time>2020-12-06T08:35:35.432000+00:00</time>
      </trkpt>
      <trkpt lat="0" lon="0">
        <time>2020-12-06T08:35:35.434000+00:00</time>
      </trkpt>
      <trkpt lat="47.32427" lon="-1.30359">
        <ele>11</ele>
        <time>2020-12-06T08:35:36.424000+00:00</time>
      </trkpt>
      <trkpt lat="0" lon="0">
        <time>2020-12-06T08:35:36.431000+00:00</time>
      </trkpt>
      <trkpt lat="0" lon="0">
        <time>2020-12-06T08:35:36.444000+00:00</time>
      </trkpt>
      <trkpt lat="0" lon="0">
        <time>2020-12-06T08:35:36.450000+00:00</time>
      </trkpt>
      <trkpt lat="47.32433" lon="-1.30355">
        <ele>11</ele>
        <time>2020-12-06T08:35:37.446000+00:00</time>
      </trkpt>
      <trkpt lat="0" lon="0">
        <time>2020-12-06T08:35:37.461000+00:00</time>
      </trkpt>
      <trkpt lat="0" lon="0">
        <time>2020-12-06T08:35:37.466000+00:00</time>
      </trkpt>
      <trkpt lat="0" lon="0">
        <time>2020-12-06T08:35:37.468000+00:00</time>
      </trkpt>
      <trkpt lat="47.32439" lon="-1.30352">
        <ele>11</ele>
        <time>2020-12-06T08:35:38.415000+00:00</time>
      </trkpt>
      <trkpt lat="0" lon="0">
        <time>2020-12-06T08:35:38.429000+00:00</time>
      </trkpt>
      <trkpt lat="0" lon="0">
        <time>2020-12-06T08:35:38.432000+00:00</time>
      </trkpt>
      <trkpt lat="0" lon="0">
        <time>2020-12-06T08:35:38.433000+00:00</time>
      </trkpt>
      <trkpt lat="47.32445" lon="-1.30349">
        <ele>11</ele>
        <time>2020-12-06T08:35:39.392000+00:00</time>
      </trkpt>
      <trkpt lat="0" lon="0">
        <time>2020-12-06T08:35:39.395000+00:00</time>
      </trkpt>
      <trkpt lat="0" lon="0">
        <time>2020-12-06T08:35:39.400000+00:00</time>
      </trkpt>
      <trkpt lat="0" lon="0">
        <time>2020-12-06T08:35:39.402000+00:00</time>
      </trkpt>
      <trkpt lat="47.32451" lon="-1.30345">
        <ele>11</ele>
        <time>2020-12-06T08:35:40.446000+00:00</time>
      </trkpt>
      <trkpt lat="0" lon="0">
        <time>2020-12-06T08:35:40.453000+00:00</time>
      </trkpt>
      <trkpt lat="0" lon="0">
        <time>2020-12-06T08:35:40.455000+00:00</time>
      </trkpt>
      <trkpt lat="0" lon="0">
        <time>2020-12-06T08:35:40.458000+00:00</time>
      </trkpt>
      <trkpt lat="47.32457" lon="-1.30341">
        <ele>11</ele>
        <time>2020-12-06T08:35:41.404000+00:00</time>
      </trkpt>
      <trkpt lat="0" lon="0">
        <time>2020-12-06T08:35:41.415000+00:00</time>
      </trkpt>
      <trkpt lat="0" lon="0">
        <time>2020-12-06T08:35:41.419000+00:00</time>
      </trkpt>
      <trkpt lat="0" lon="0">
        <time>2020-12-06T08:35:41.421000+00:00</time>
      </trkpt>
      <trkpt lat="47.32462" lon="-1.30337">
        <ele>11</ele>
        <time>2020-12-06T08:35:42.429000+00:00</time>
      </trkpt>
      <trkpt lat="0" lon="0">
        <time>2020-12-06T08:35:42.432000+00:00</time>
      </trkpt>
      <trkpt lat="0" lon="0">
        <time>2020-12-06T08:35:42.437000+00:00</time>
      </trkpt>
      <trkpt lat="0" lon="0">
        <time>2020-12-06T08:35:42.439000+00:00</time>
      </trkpt>
      <trkpt lat="47.32467" lon="-1.30332">
        <ele>11</ele>
        <time>2020-12-06T08:35:43.414000+00:00</time>
      </trkpt>
      <trkpt lat="0" lon="0">
        <time>2020-12-06T08:35:43.433000+00:00</time>
      </trkpt>
      <trkpt lat="0" lon="0">
        <time>2020-12-06T08:35:43.442000+00:00</time>
      </trkpt>
      <trkpt lat="0" lon="0">
        <time>2020-12-06T08:35:43.445000+00:00</time>
      </trkpt>
      <trkpt lat="47.32472" lon="-1.30327">
        <ele>11</ele>
        <time>2020-12-06T08:35:44.398000+00:00</time>
      </trkpt>
      <trkpt lat="0" lon="0">
        <time>2020-12-06T08:35:44.412000+00:00</time>
      </trkpt>
      <trkpt lat="0" lon="0">
        <time>2020-12-06T08:35:44.424000+00:00</time>
      </trkpt>
      <trkpt lat="0" lon="0">
        <time>2020-12-06T08:35:44.426000+00:00</time>
      </trkpt>
      <trkpt lat="47.32476" lon="-1.30321">
        <ele>11</ele>
        <time>2020-12-06T08:35:45.411000+00:00</time>
      </trkpt>
      <trkpt lat="0" lon="0">
        <time>2020-12-06T08:35:45.420000+00:00</time>
      </trkpt>
      <trkpt lat="0" lon="0">
        <time>2020-12-06T08:35:45.425000+00:00</time>
      </trkpt>
      <trkpt lat="0" lon="0">
        <time>2020-12-06T08:35:45.427000+00:00</time>
      </trkpt>
      <trkpt lat="47.3248" lon="-1.30314">
        <ele>11</ele>
        <time>2020-12-06T08:35:46.414000+00:00</time>
      </trkpt>
      <trkpt lat="0" lon="0">
        <time>2020-12-06T08:35:46.417000+00:00</time>
      </trkpt>
      <trkpt lat="0" lon="0">
        <time>2020-12-06T08:35:46.419000+00:00</time>
      </trkpt>
      <trkpt lat="0" lon="0">
        <time>2020-12-06T08:35:46.421000+00:00</time>
      </trkpt>
      <trkpt lat="47.32483" lon="-1.30307">
        <ele>11</ele>
        <time>2020-12-06T08:35:47.453000+00:00</time>
      </trkpt>
      <trkpt lat="0" lon="0">
        <time>2020-12-06T08:35:47.465000+00:00</time>
      </trkpt>
      <trkpt lat="0" lon="0">
        <time>2020-12-06T08:35:47.475000+00:00</time>
      </trkpt>
      <trkpt lat="0" lon="0">
        <time>2020-12-06T08:35:47.478000+00:00</time>
      </trkpt>
      <trkpt lat="47.32486" lon="-1.303">
        <ele>11</ele>
        <time>2020-12-06T08:35:48.423000+00:00</time>
      </trkpt>
      <trkpt lat="0" lon="0">
        <time>2020-12-06T08:35:48.432000+00:00</time>
      </trkpt>
      <trkpt lat="0" lon="0">
        <time>2020-12-06T08:35:48.434000+00:00</time>
      </trkpt>
      <trkpt lat="0" lon="0">
        <time>2020-12-06T08:35:48.436000+00:00</time>
      </trkpt>
      <trkpt lat="47.3249" lon="-1.30292">
        <ele>11</ele>
        <time>2020-12-06T08:35:49.458000+00:00</time>
      </trkpt>
      <trkpt lat="0" lon="0">
        <time>2020-12-06T08:35:49.463000+00:00</time>
      </trkpt>
      <trkpt lat="0" lon="0">
        <time>2020-12-06T08:35:49.469000+00:00</time>
      </trkpt>
      <trkpt lat="0" lon="0">
        <time>2020-12-06T08:35:49.472000+00:00</time>
      </trkpt>
      <trkpt lat="47.32492" lon="-1.30284">
        <ele>11</ele>
        <time>2020-12-06T08:35:50.442000+00:00</time>
      </trkpt>
      <trkpt lat="0" lon="0">
        <time>2020-12-06T08:35:50.446000+00:00</time>
      </trkpt>
      <trkpt lat="0" lon="0">
        <time>2020-12-06T08:35:50.457000+00:00</time>
      </trkpt>
      <trkpt lat="0" lon="0">
        <time>2020-12-06T08:35:50.463000+00:00</time>
      </trkpt>
      <trkpt lat="47.32495" lon="-1.30276">
        <ele>11</ele>
        <time>2020-12-06T08:35:51.428000+00:00</time>
      </trkpt>
      <trkpt lat="0" lon="0">
        <time>2020-12-06T08:35:51.452000+00:00</time>
      </trkpt>
      <trkpt lat="0" lon="0">
        <time>2020-12-06T08:35:51.459000+00:00</time>
      </trkpt>
      <trkpt lat="0" lon="0">
        <time>2020-12-06T08:35:51.466000+00:00</time>
      </trkpt>
      <trkpt lat="47.32496" lon="-1.30268">
        <ele>11</ele>
        <time>2020-12-06T08:35:52.309000+00:00</time>
      </trkpt>
      <trkpt lat="0" lon="0">
        <time>2020-12-06T08:35:52.314000+00:00</time>
      </trkpt>
      <trkpt lat="0" lon="0">
        <time>2020-12-06T08:35:52.317000+00:00</time>
      </trkpt>
      <trkpt lat="0" lon="0">
        <time>2020-12-06T08:35:52.318000+00:00</time>
      </trkpt>
      <trkpt lat="47.32498" lon="-1.30259">
        <ele>12</ele>
        <time>2020-12-06T08:35:53.405000+00:00</time>
      </trkpt>
      <trkpt lat="0" lon="0">
        <time>2020-12-06T08:35:53.412000+00:00</time>
      </trkpt>
      <trkpt lat="0" lon="0">
        <time>2020-12-06T08:35:53.418000+00:00</time>
      </trkpt>
      <trkpt lat="0" lon="0">
        <time>2020-12-06T08:35:53.425000+00:00</time>
      </trkpt>
      <trkpt lat="47.32499" lon="-1.3025">
        <ele>12</ele>
        <time>2020-12-06T08:35:54.413000+00:00</time>
      </trkpt>
      <trkpt lat="0" lon="0">
        <time>2020-12-06T08:35:54.418000+00:00</time>
      </trkpt>
      <trkpt lat="0" lon="0">
        <time>2020-12-06T08:35:54.424000+00:00</time>
      </trkpt>
      <trkpt lat="0" lon="0">
        <time>2020-12-06T08:35:54.427000+00:00</time>
      </trkpt>
      <trkpt lat="47.325" lon="-1.30241">
        <ele>12</ele>
        <time>2020-12-06T08:35:55.408000+00:00</time>
      </trkpt>
      <trkpt lat="0" lon="0">
        <time>2020-12-06T08:35:55.414000+00:00</time>
      </trkpt>
      <trkpt lat="0" lon="0">
        <time>2020-12-06T08:35:55.418000+00:00</time>
      </trkpt>
      <trkpt lat="0" lon="0">
        <time>2020-12-06T08:35:55.420000+00:00</time>
      </trkpt>
      <trkpt lat="47.32501" lon="-1.30232">
        <ele>12</ele>
        <time>2020-12-06T08:35:56.390000+00:00</time>
      </trkpt>
      <trkpt lat="0" lon="0">
        <time>2020-12-06T08:35:56.393000+00:00</time>
      </trkpt>
      <trkpt lat="0" lon="0">
        <time>2020-12-06T08:35:56.395000+00:00</time>
      </trkpt>
      <trkpt lat="0" lon="0">
        <time>2020-12-06T08:35:56.397000+00:00</time>
      </trkpt>
      <trkpt lat="47.32502" lon="-1.30223">
        <ele>13</ele>
        <time>2020-12-06T08:35:57.438000+00:00</time>
      </trkpt>
      <trkpt lat="0" lon="0">
        <time>2020-12-06T08:35:57.454000+00:00</time>
      </trkpt>
      <trkpt lat="0" lon="0">
        <time>2020-12-06T08:35:57.462000+00:00</time>
      </trkpt>
      <trkpt lat="0" lon="0">
        <time>2020-12-06T08:35:57.465000+00:00</time>
      </trkpt>
      <trkpt lat="47.32504" lon="-1.30214">
        <ele>13</ele>
        <time>2020-12-06T08:35:58.443000+00:00</time>
      </trkpt>
      <trkpt lat="0" lon="0">
        <time>2020-12-06T08:35:58.449000+00:00</time>
      </trkpt>
      <trkpt lat="0" lon="0">
        <time>2020-12-06T08:35:58.461000+00:00</time>
      </trkpt>
      <trkpt lat="0" lon="0">
        <time>2020-12-06T08:35:58.465000+00:00</time>
      </trkpt>
      <trkpt lat="47.32506" lon="-1.30205">
        <ele>13</ele>
        <time>2020-12-06T08:35:59.427000+00:00</time>
      </trkpt>
      <trkpt lat="0" lon="0">
        <time>2020-12-06T08:35:59.445000+00:00</time>
      </trkpt>
      <trkpt lat="0" lon="0">
        <time>2020-12-06T08:35:59.450000+00:00</time>
      </trkpt>
      <trkpt lat="0" lon="0">
        <time>2020-12-06T08:35:59.453000+00:00</time>
      </trkpt>
      <trkpt lat="47.32509" lon="-1.30197">
        <ele>14</ele>
        <time>2020-12-06T08:36:00.397000+00:00</time>
      </trkpt>
      <trkpt lat="0" lon="0">
        <time>2020-12-06T08:36:00.402000+00:00</time>
      </trkpt>
      <trkpt lat="0" lon="0">
        <time>2020-12-06T08:36:00.408000+00:00</time>
      </trkpt>
      <trkpt lat="0" lon="0">
        <time>2020-12-06T08:36:00.417000+00:00</time>
      </trkpt>
      <trkpt lat="47.32512" lon="-1.3019">
        <ele>14</ele>
        <time>2020-12-06T08:36:01.393000+00:00</time>
      </trkpt>
      <trkpt lat="0" lon="0">
        <time>2020-12-06T08:36:01.413000+00:00</time>
      </trkpt>
      <trkpt lat="0" lon="0">
        <time>2020-12-06T08:36:01.418000+00:00</time>
      </trkpt>
      <trkpt lat="0" lon="0">
        <time>2020-12-06T08:36:01.421000+00:00</time>
      </trkpt>
      <trkpt lat="47.32516" lon="-1.30183">
        <ele>14</ele>
        <time>2020-12-06T08:36:02.399000+00:00</time>
      </trkpt>
      <trkpt lat="0" lon="0">
        <time>2020-12-06T08:36:02.412000+00:00</time>
      </trkpt>
      <trkpt lat="0" lon="0">
        <time>2020-12-06T08:36:02.419000+00:00</time>
      </trkpt>
      <trkpt lat="0" lon="0">
        <time>2020-12-06T08:36:02.421000+00:00</time>
      </trkpt>
      <trkpt lat="47.3252" lon="-1.30177">
        <ele>14</ele>
        <time>2020-12-06T08:36:03.393000+00:00</time>
      </trkpt>
      <trkpt lat="0" lon="0">
        <time>2020-12-06T08:36:03.400000+00:00</time>
      </trkpt>
      <trkpt lat="0" lon="0">
        <time>2020-12-06T08:36:03.408000+00:00</time>
      </trkpt>
      <trkpt lat="0" lon="0">
        <time>2020-12-06T08:36:03.410000+00:00</time>
      </trkpt>
      <trkpt lat="47.32525" lon="-1.30171">
        <ele>14</ele>
        <time>2020-12-06T08:36:04.397000+00:00</time>
      </trkpt>
      <trkpt lat="0" lon="0">
        <time>2020-12-06T08:36:04.408000+00:00</time>
      </trkpt>
      <trkpt lat="0" lon="0">
        <time>2020-12-06T08:36:04.413000+00:00</time>
      </trkpt>
      <trkpt lat="0" lon="0">
        <time>2020-12-06T08:36:04.416000+00:00</time>
      </trkpt>
      <trkpt lat="47.3253" lon="-1.30165">
        <ele>14</ele>
        <time>2020-12-06T08:36:05.403000+00:00</time>
      </trkpt>
      <trkpt lat="0" lon="0">
        <time>2020-12-06T08:36:05.414000+00:00</time>
      </trkpt>
      <trkpt lat="0" lon="0">
        <time>2020-12-06T08:36:05.418000+00:00</time>
      </trkpt>
      <trkpt lat="0" lon="0">
        <time>2020-12-06T08:36:05.427000+00:00</time>
      </trkpt>
      <trkpt lat="47.32535" lon="-1.30159">
        <ele>14</ele>
        <time>2020-12-06T08:36:06.394000+00:00</time>
      </trkpt>
      <trkpt lat="0" lon="0">
        <time>2020-12-06T08:36:06.403000+00:00</time>
      </trkpt>
      <trkpt lat="0" lon="0">
        <time>2020-12-06T08:36:06.410000+00:00</time>
      </trkpt>
      <trkpt lat="0" lon="0">
        <time>2020-12-06T08:36:06.412000+00:00</time>
      </trkpt>
      <trkpt lat="47.3254" lon="-1.30154">
        <ele>14</ele>
        <time>2020-12-06T08:36:07.424000+00:00</time>
      </trkpt>
      <trkpt lat="0" lon="0">
        <time>2020-12-06T08:36:07.443000+00:00</time>
      </trkpt>
      <trkpt lat="0" lon="0">
        <time>2020-12-06T08:36:07.450000+00:00</time>
      </trkpt>
      <trkpt lat="0" lon="0">
        <time>2020-12-06T08:36:07.452000+00:00</time>
      </trkpt>
      <trkpt lat="47.32545" lon="-1.30148">
        <ele>14</ele>
        <time>2020-12-06T08:36:08.448000+00:00</time>
      </trkpt>
      <trkpt lat="0" lon="0">
        <time>2020-12-06T08:36:08.468000+00:00</time>
      </trkpt>
      <trkpt lat="0" lon="0">
        <time>2020-12-06T08:36:08.476000+00:00</time>
      </trkpt>
      <trkpt lat="0" lon="0">
        <time>2020-12-06T08:36:08.477000+00:00</time>
      </trkpt>
      <trkpt lat="47.3255" lon="-1.30143">
        <ele>14</ele>
        <time>2020-12-06T08:36:09.411000+00:00</time>
      </trkpt>
      <trkpt lat="0" lon="0">
        <time>2020-12-06T08:36:09.419000+00:00</time>
      </trkpt>
      <trkpt lat="0" lon="0">
        <time>2020-12-06T08:36:09.425000+00:00</time>
      </trkpt>
      <trkpt lat="0" lon="0">
        <time>2020-12-06T08:36:09.428000+00:00</time>
      </trkpt>
      <trkpt lat="47.32554" lon="-1.30138">
        <ele>14</ele>
        <time>2020-12-06T08:36:10.433000+00:00</time>
      </trkpt>
      <trkpt lat="0" lon="0">
        <time>2020-12-06T08:36:10.440000+00:00</time>
      </trkpt>
      <trkpt lat="0" lon="0">
        <time>2020-12-06T08:36:10.450000+00:00</time>
      </trkpt>
      <trkpt lat="0" lon="0">
        <time>2020-12-06T08:36:10.454000+00:00</time>
      </trkpt>
      <trkpt lat="47.32559" lon="-1.30133">
        <ele>14</ele>
        <time>2020-12-06T08:36:11.428000+00:00</time>
      </trkpt>
      <trkpt lat="0" lon="0">
        <time>2020-12-06T08:36:11.444000+00:00</time>
      </trkpt>
      <trkpt lat="0" lon="0">
        <time>2020-12-06T08:36:11.452000+00:00</time>
      </trkpt>
      <trkpt lat="0" lon="0">
        <time>2020-12-06T08:36:11.456000+00:00</time>
      </trkpt>
      <trkpt lat="47.32563" lon="-1.30128">
        <ele>14</ele>
        <time>2020-12-06T08:36:12.438000+00:00</time>
      </trkpt>
      <trkpt lat="0" lon="0">
        <time>2020-12-06T08:36:12.445000+00:00</time>
      </trkpt>
      <trkpt lat="0" lon="0">
        <time>2020-12-06T08:36:12.451000+00:00</time>
      </trkpt>
      <trkpt lat="0" lon="0">
        <time>2020-12-06T08:36:12.454000+00:00</time>
      </trkpt>
      <trkpt lat="47.32568" lon="-1.30125">
        <ele>14</ele>
        <time>2020-12-06T08:36:13.411000+00:00</time>
      </trkpt>
      <trkpt lat="0" lon="0">
        <time>2020-12-06T08:36:13.424000+00:00</time>
      </trkpt>
      <trkpt lat="0" lon="0">
        <time>2020-12-06T08:36:13.432000+00:00</time>
      </trkpt>
      <trkpt lat="0" lon="0">
        <time>2020-12-06T08:36:13.434000+00:00</time>
      </trkpt>
      <trkpt lat="47.32573" lon="-1.30124">
        <ele>14</ele>
        <time>2020-12-06T08:36:14.425000+00:00</time>
      </trkpt>
      <trkpt lat="0" lon="0">
        <time>2020-12-06T08:36:14.430000+00:00</time>
      </trkpt>
      <trkpt lat="0" lon="0">
        <time>2020-12-06T08:36:14.432000+00:00</time>
      </trkpt>
      <trkpt lat="0" lon="0">
        <time>2020-12-06T08:36:14.433000+00:00</time>
      </trkpt>
      <trkpt lat="47.32578" lon="-1.30123">
        <ele>13</ele>
        <time>2020-12-06T08:36:15.405000+00:00</time>
      </trkpt>
      <trkpt lat="0" lon="0">
        <time>2020-12-06T08:36:15.408000+00:00</time>
      </trkpt>
      <trkpt lat="0" lon="0">
        <time>2020-12-06T08:36:15.415000+00:00</time>
      </trkpt>
      <trkpt lat="0" lon="0">
        <time>2020-12-06T08:36:15.420000+00:00</time>
      </trkpt>
      <trkpt lat="47.32582" lon="-1.30124">
        <ele>13</ele>
        <time>2020-12-06T08:36:16.436000+00:00</time>
      </trkpt>
      <trkpt lat="0" lon="0">
        <time>2020-12-06T08:36:16.451000+00:00</time>
      </trkpt>
      <trkpt lat="0" lon="0">
        <time>2020-12-06T08:36:16.454000+00:00</time>
      </trkpt>
      <trkpt lat="0" lon="0">
        <time>2020-12-06T08:36:16.457000+00:00</time>
      </trkpt>
      <trkpt lat="47.32587" lon="-1.30127">
        <ele>13</ele>
        <time>2020-12-06T08:36:17.446000+00:00</time>
      </trkpt>
      <trkpt lat="0" lon="0">
        <time>2020-12-06T08:36:17.462000+00:00</time>
      </trkpt>
      <trkpt lat="0" lon="0">
        <time>2020-12-06T08:36:17.469000+00:00</time>
      </trkpt>
      <trkpt lat="0" lon="0">
        <time>2020-12-06T08:36:17.471000+00:00</time>
      </trkpt>
      <trkpt lat="47.32591" lon="-1.30131">
        <ele>12</ele>
        <time>2020-12-06T08:36:18.422000+00:00</time>
      </trkpt>
      <trkpt lat="0" lon="0">
        <time>2020-12-06T08:36:18.426000+00:00</time>
      </trkpt>
      <trkpt lat="0" lon="0">
        <time>2020-12-06T08:36:18.434000+00:00</time>
      </trkpt>
      <trkpt lat="0" lon="0">
        <time>2020-12-06T08:36:18.436000+00:00</time>
      </trkpt>
      <trkpt lat="47.32595" lon="-1.30136">
        <ele>12</ele>
        <time>2020-12-06T08:36:19.409000+00:00</time>
      </trkpt>
      <trkpt lat="0" lon="0">
        <time>2020-12-06T08:36:19.429000+00:00</time>
      </trkpt>
      <trkpt lat="0" lon="0">
        <time>2020-12-06T08:36:19.433000+00:00</time>
      </trkpt>
      <trkpt lat="0" lon="0">
        <time>2020-12-06T08:36:19.436000+00:00</time>
      </trkpt>
      <trkpt lat="47.32599" lon="-1.30142">
        <ele>12</ele>
        <time>2020-12-06T08:36:20.467000+00:00</time>
      </trkpt>
      <trkpt lat="0" lon="0">
        <time>2020-12-06T08:36:20.469000+00:00</time>
      </trkpt>
      <trkpt lat="0" lon="0">
        <time>2020-12-06T08:36:20.470000+00:00</time>
      </trkpt>
      <trkpt lat="0" lon="0">
        <time>2020-12-06T08:36:20.471000+00:00</time>
      </trkpt>
      <trkpt lat="47.32602" lon="-1.30149">
        <ele>11</ele>
        <time>2020-12-06T08:36:21.419000+00:00</time>
      </trkpt>
      <trkpt lat="0" lon="0">
        <time>2020-12-06T08:36:21.423000+00:00</time>
      </trkpt>
      <trkpt lat="0" lon="0">
        <time>2020-12-06T08:36:21.431000+00:00</time>
      </trkpt>
      <trkpt lat="0" lon="0">
        <time>2020-12-06T08:36:21.435000+00:00</time>
      </trkpt>
      <trkpt lat="47.32605" lon="-1.30157">
        <ele>11</ele>
        <time>2020-12-06T08:36:22.469000+00:00</time>
      </trkpt>
      <trkpt lat="0" lon="0">
        <time>2020-12-06T08:36:22.473000+00:00</time>
      </trkpt>
      <trkpt lat="0" lon="0">
        <time>2020-12-06T08:36:22.476000+00:00</time>
      </trkpt>
      <trkpt lat="0" lon="0">
        <time>2020-12-06T08:36:22.478000+00:00</time>
      </trkpt>
      <trkpt lat="47.32608" lon="-1.30165">
        <ele>10</ele>
        <time>2020-12-06T08:36:23.425000+00:00</time>
      </trkpt>
      <trkpt lat="0" lon="0">
        <time>2020-12-06T08:36:23.433000+00:00</time>
      </trkpt>
      <trkpt lat="0" lon="0">
        <time>2020-12-06T08:36:23.440000+00:00</time>
      </trkpt>
      <trkpt lat="0" lon="0">
        <time>2020-12-06T08:36:23.443000+00:00</time>
      </trkpt>
      <trkpt lat="47.32611" lon="-1.30173">
        <ele>10</ele>
        <time>2020-12-06T08:36:24.434000+00:00</time>
      </trkpt>
      <trkpt lat="0" lon="0">
        <time>2020-12-06T08:36:24.442000+00:00</time>
      </trkpt>
      <trkpt lat="0" lon="0">
        <time>2020-12-06T08:36:24.446000+00:00</time>
      </trkpt>
      <trkpt lat="0" lon="0">
        <time>2020-12-06T08:36:24.448000+00:00</time>
      </trkpt>
      <trkpt lat="47.32614" lon="-1.30182">
        <ele>10</ele>
        <time>2020-12-06T08:36:25.417000+00:00</time>
      </trkpt>
      <trkpt lat="0" lon="0">
        <time>2020-12-06T08:36:25.421000+00:00</time>
      </trkpt>
      <trkpt lat="0" lon="0">
        <time>2020-12-06T08:36:25.432000+00:00</time>
      </trkpt>
      <trkpt lat="0" lon="0">
        <time>2020-12-06T08:36:25.434000+00:00</time>
      </trkpt>
      <trkpt lat="47.32617" lon="-1.30191">
        <ele>9</ele>
        <time>2020-12-06T08:36:26.424000+00:00</time>
      </trkpt>
      <trkpt lat="0" lon="0">
        <time>2020-12-06T08:36:26.428000+00:00</time>
      </trkpt>
      <trkpt lat="0" lon="0">
        <time>2020-12-06T08:36:26.433000+00:00</time>
      </trkpt>
      <trkpt lat="0" lon="0">
        <time>2020-12-06T08:36:26.437000+00:00</time>
      </trkpt>
      <trkpt lat="47.3262" lon="-1.302">
        <ele>9</ele>
        <time>2020-12-06T08:36:27.400000+00:00</time>
      </trkpt>
      <trkpt lat="0" lon="0">
        <time>2020-12-06T08:36:27.404000+00:00</time>
      </trkpt>
      <trkpt lat="0" lon="0">
        <time>2020-12-06T08:36:27.410000+00:00</time>
      </trkpt>
      <trkpt lat="0" lon="0">
        <time>2020-12-06T08:36:27.412000+00:00</time>
      </trkpt>
      <trkpt lat="47.32623" lon="-1.30209">
        <ele>9</ele>
        <time>2020-12-06T08:36:28.422000+00:00</time>
      </trkpt>
      <trkpt lat="0" lon="0">
        <time>2020-12-06T08:36:28.426000+00:00</time>
      </trkpt>
      <trkpt lat="0" lon="0">
        <time>2020-12-06T08:36:28.432000+00:00</time>
      </trkpt>
      <trkpt lat="0" lon="0">
        <time>2020-12-06T08:36:28.434000+00:00</time>
      </trkpt>
      <trkpt lat="47.32626" lon="-1.30217">
        <ele>8</ele>
        <time>2020-12-06T08:36:29.407000+00:00</time>
      </trkpt>
      <trkpt lat="0" lon="0">
        <time>2020-12-06T08:36:29.411000+00:00</time>
      </trkpt>
      <trkpt lat="0" lon="0">
        <time>2020-12-06T08:36:29.421000+00:00</time>
      </trkpt>
      <trkpt lat="0" lon="0">
        <time>2020-12-06T08:36:29.422000+00:00</time>
      </trkpt>
      <trkpt lat="47.32629" lon="-1.30226">
        <ele>8</ele>
        <time>2020-12-06T08:36:30.441000+00:00</time>
      </trkpt>
      <trkpt lat="0" lon="0">
        <time>2020-12-06T08:36:30.448000+00:00</time>
      </trkpt>
      <trkpt lat="0" lon="0">
        <time>2020-12-06T08:36:30.453000+00:00</time>
      </trkpt>
      <trkpt lat="0" lon="0">
        <time>2020-12-06T08:36:30.460000+00:00</time>
      </trkpt>
      <trkpt lat="47.32631" lon="-1.30234">
        <ele>8</ele>
        <time>2020-12-06T08:36:31.439000+00:00</time>
      </trkpt>
      <trkpt lat="0" lon="0">
        <time>2020-12-06T08:36:31.441000+00:00</time>
      </trkpt>
      <trkpt lat="0" lon="0">
        <time>2020-12-06T08:36:31.442000+00:00</time>
      </trkpt>
      <trkpt lat="0" lon="0">
        <time>2020-12-06T08:36:31.447000+00:00</time>
      </trkpt>
      <trkpt lat="47.32634" lon="-1.30241">
        <ele>8</ele>
        <time>2020-12-06T08:36:32.421000+00:00</time>
      </trkpt>
      <trkpt lat="0" lon="0">
        <time>2020-12-06T08:36:32.430000+00:00</time>
      </trkpt>
      <trkpt lat="0" lon="0">
        <time>2020-12-06T08:36:32.434000+00:00</time>
      </trkpt>
      <trkpt lat="0" lon="0">
        <time>2020-12-06T08:36:32.436000+00:00</time>
      </trkpt>
      <trkpt lat="47.32637" lon="-1.30248">
        <ele>8</ele>
        <time>2020-12-06T08:36:33.411000+00:00</time>
      </trkpt>
      <trkpt lat="0" lon="0">
        <time>2020-12-06T08:36:33.426000+00:00</time>
      </trkpt>
      <trkpt lat="0" lon="0">
        <time>2020-12-06T08:36:33.433000+00:00</time>
      </trkpt>
      <trkpt lat="0" lon="0">
        <time>2020-12-06T08:36:33.436000+00:00</time>
      </trkpt>
      <trkpt lat="47.3264" lon="-1.30252">
        <ele>7</ele>
        <time>2020-12-06T08:36:34.400000+00:00</time>
      </trkpt>
      <trkpt lat="0" lon="0">
        <time>2020-12-06T08:36:34.415000+00:00</time>
      </trkpt>
      <trkpt lat="0" lon="0">
        <time>2020-12-06T08:36:34.419000+00:00</time>
      </trkpt>
      <trkpt lat="0" lon="0">
        <time>2020-12-06T08:36:34.421000+00:00</time>
      </trkpt>
      <trkpt lat="47.32644" lon="-1.30254">
        <ele>7</ele>
        <time>2020-12-06T08:36:35.400000+00:00</time>
      </trkpt>
      <trkpt lat="0" lon="0">
        <time>2020-12-06T08:36:35.409000+00:00</time>
      </trkpt>
      <trkpt lat="0" lon="0">
        <time>2020-12-06T08:36:35.413000+00:00</time>
      </trkpt>
      <trkpt lat="0" lon="0">
        <time>2020-12-06T08:36:35.416000+00:00</time>
      </trkpt>
      <trkpt lat="47.32647" lon="-1.30255">
        <ele>7</ele>
        <time>2020-12-06T08:36:36.408000+00:00</time>
      </trkpt>
      <trkpt lat="0" lon="0">
        <time>2020-12-06T08:36:36.421000+00:00</time>
      </trkpt>
      <trkpt lat="0" lon="0">
        <time>2020-12-06T08:36:36.429000+00:00</time>
      </trkpt>
      <trkpt lat="0" lon="0">
        <time>2020-12-06T08:36:36.432000+00:00</time>
      </trkpt>
      <trkpt lat="47.32651" lon="-1.30252">
        <ele>7</ele>
        <time>2020-12-06T08:36:37.407000+00:00</time>
      </trkpt>
      <trkpt lat="0" lon="0">
        <time>2020-12-06T08:36:37.420000+00:00</time>
      </trkpt>
      <trkpt lat="0" lon="0">
        <time>2020-12-06T08:36:37.422000+00:00</time>
      </trkpt>
      <trkpt lat="0" lon="0">
        <time>2020-12-06T08:36:37.425000+00:00</time>
      </trkpt>
      <trkpt lat="47.32654" lon="-1.30249">
        <ele>8</ele>
        <time>2020-12-06T08:36:38.414000+00:00</time>
      </trkpt>
      <trkpt lat="0" lon="0">
        <time>2020-12-06T08:36:38.427000+00:00</time>
      </trkpt>
      <trkpt lat="0" lon="0">
        <time>2020-12-06T08:36:38.433000+00:00</time>
      </trkpt>
      <trkpt lat="0" lon="0">
        <time>2020-12-06T08:36:38.436000+00:00</time>
      </trkpt>
      <trkpt lat="47.32658" lon="-1.30243">
        <ele>8</ele>
        <time>2020-12-06T08:36:39.408000+00:00</time>
      </trkpt>
      <trkpt lat="0" lon="0">
        <time>2020-12-06T08:36:39.418000+00:00</time>
      </trkpt>
      <trkpt lat="0" lon="0">
        <time>2020-12-06T08:36:39.420000+00:00</time>
      </trkpt>
      <trkpt lat="0" lon="0">
        <time>2020-12-06T08:36:39.421000+00:00</time>
      </trkpt>
      <trkpt lat="47.32662" lon="-1.30237">
        <ele>8</ele>
        <time>2020-12-06T08:36:40.405000+00:00</time>
      </trkpt>
      <trkpt lat="0" lon="0">
        <time>2020-12-06T08:36:40.412000+00:00</time>
      </trkpt>
      <trkpt lat="0" lon="0">
        <time>2020-12-06T08:36:40.425000+00:00</time>
      </trkpt>
      <trkpt lat="0" lon="0">
        <time>2020-12-06T08:36:40.427000+00:00</time>
      </trkpt>
      <trkpt lat="47.32666" lon="-1.3023">
        <ele>8</ele>
        <time>2020-12-06T08:36:41.400000+00:00</time>
      </trkpt>
      <trkpt lat="0" lon="0">
        <time>2020-12-06T08:36:41.412000+00:00</time>
      </trkpt>
      <trkpt lat="0" lon="0">
        <time>2020-12-06T08:36:41.416000+00:00</time>
      </trkpt>
      <trkpt lat="0" lon="0">
        <time>2020-12-06T08:36:41.418000+00:00</time>
      </trkpt>
      <trkpt lat="47.3267" lon="-1.30223">
        <ele>7</ele>
        <time>2020-12-06T08:36:42.401000+00:00</time>
      </trkpt>
      <trkpt lat="0" lon="0">
        <time>2020-12-06T08:36:42.411000+00:00</time>
      </trkpt>
      <trkpt lat="0" lon="0">
        <time>2020-12-06T08:36:42.415000+00:00</time>
      </trkpt>
      <trkpt lat="0" lon="0">
        <time>2020-12-06T08:36:42.421000+00:00</time>
      </trkpt>
      <trkpt lat="47.32674" lon="-1.30215">
        <ele>7</ele>
        <time>2020-12-06T08:36:43.377000+00:00</time>
      </trkpt>
      <trkpt lat="0" lon="0">
        <time>2020-12-06T08:36:43.379000+00:00</time>
      </trkpt>
      <trkpt lat="0" lon="0">
        <time>2020-12-06T08:36:43.381000+00:00</time>
      </trkpt>
      <trkpt lat="0" lon="0">
        <time>2020-12-06T08:36:43.386000+00:00</time>
      </trkpt>
      <trkpt lat="47.32678" lon="-1.30207">
        <ele>7</ele>
        <time>2020-12-06T08:36:44.376000+00:00</time>
      </trkpt>
      <trkpt lat="0" lon="0">
        <time>2020-12-06T08:36:44.391000+00:00</time>
      </trkpt>
      <trkpt lat="0" lon="0">
        <time>2020-12-06T08:36:44.400000+00:00</time>
      </trkpt>
      <trkpt lat="0" lon="0">
        <time>2020-12-06T08:36:44.401000+00:00</time>
      </trkpt>
      <trkpt lat="47.32682" lon="-1.30199">
        <ele>7</ele>
        <time>2020-12-06T08:36:45.382000+00:00</time>
      </trkpt>
      <trkpt lat="0" lon="0">
        <time>2020-12-06T08:36:45.390000+00:00</time>
      </trkpt>
      <trkpt lat="0" lon="0">
        <time>2020-12-06T08:36:45.395000+00:00</time>
      </trkpt>
      <trkpt lat="0" lon="0">
        <time>2020-12-06T08:36:45.397000+00:00</time>
      </trkpt>
      <trkpt lat="47.32686" lon="-1.3019">
        <ele>7</ele>
        <time>2020-12-06T08:36:46.424000+00:00</time>
      </trkpt>
      <trkpt lat="0" lon="0">
        <time>2020-12-06T08:36:46.437000+00:00</time>
      </trkpt>
      <trkpt lat="0" lon="0">
        <time>2020-12-06T08:36:46.441000+00:00</time>
      </trkpt>
      <trkpt lat="0" lon="0">
        <time>2020-12-06T08:36:46.446000+00:00</time>
      </trkpt>
      <trkpt lat="47.3269" lon="-1.30182">
        <ele>7</ele>
        <time>2020-12-06T08:36:47.387000+00:00</time>
      </trkpt>
      <trkpt lat="0" lon="0">
        <time>2020-12-06T08:36:47.395000+00:00</time>
      </trkpt>
      <trkpt lat="0" lon="0">
        <time>2020-12-06T08:36:47.405000+00:00</time>
      </trkpt>
      <trkpt lat="0" lon="0">
        <time>2020-12-06T08:36:47.412000+00:00</time>
      </trkpt>
      <trkpt lat="47.32694" lon="-1.30173">
        <ele>7</ele>
        <time>2020-12-06T08:36:48.398000+00:00</time>
      </trkpt>
      <trkpt lat="0" lon="0">
        <time>2020-12-06T08:36:48.404000+00:00</time>
      </trkpt>
      <trkpt lat="0" lon="0">
        <time>2020-12-06T08:36:48.408000+00:00</time>
      </trkpt>
      <trkpt lat="0" lon="0">
        <time>2020-12-06T08:36:48.413000+00:00</time>
      </trkpt>
      <trkpt lat="47.32698" lon="-1.30165">
        <ele>7</ele>
        <time>2020-12-06T08:36:49.385000+00:00</time>
      </trkpt>
      <trkpt lat="0" lon="0">
        <time>2020-12-06T08:36:49.387000+00:00</time>
      </trkpt>
      <trkpt lat="0" lon="0">
        <time>2020-12-06T08:36:49.389000+00:00</time>
      </trkpt>
      <trkpt lat="47.32702" lon="-1.30157">
        <ele>7</ele>
        <time>2020-12-06T08:36:50.388000+00:00</time>
      </trkpt>
      <trkpt lat="0" lon="0">
        <time>2020-12-06T08:36:50.405000+00:00</time>
      </trkpt>
      <trkpt lat="0" lon="0">
        <time>2020-12-06T08:36:50.411000+00:00</time>
      </trkpt>
      <trkpt lat="0" lon="0">
        <time>2020-12-06T08:36:50.414000+00:00</time>
      </trkpt>
      <trkpt lat="47.32706" lon="-1.30149">
        <ele>7</ele>
        <time>2020-12-06T08:36:51.408000+00:00</time>
      </trkpt>
      <trkpt lat="0" lon="0">
        <time>2020-12-06T08:36:51.418000+00:00</time>
      </trkpt>
      <trkpt lat="0" lon="0">
        <time>2020-12-06T08:36:51.425000+00:00</time>
      </trkpt>
      <trkpt lat="0" lon="0">
        <time>2020-12-06T08:36:51.430000+00:00</time>
      </trkpt>
      <trkpt lat="47.3271" lon="-1.30141">
        <ele>7</ele>
        <time>2020-12-06T08:36:52.398000+00:00</time>
      </trkpt>
      <trkpt lat="0" lon="0">
        <time>2020-12-06T08:36:52.410000+00:00</time>
      </trkpt>
      <trkpt lat="0" lon="0">
        <time>2020-12-06T08:36:52.412000+00:00</time>
      </trkpt>
      <trkpt lat="0" lon="0">
        <time>2020-12-06T08:36:52.413000+00:00</time>
      </trkpt>
      <trkpt lat="47.32714" lon="-1.30134">
        <ele>7</ele>
        <time>2020-12-06T08:36:53.357000+00:00</time>
      </trkpt>
      <trkpt lat="0" lon="0">
        <time>2020-12-06T08:36:53.363000+00:00</time>
      </trkpt>
      <trkpt lat="0" lon="0">
        <time>2020-12-06T08:36:53.369000+00:00</time>
      </trkpt>
      <trkpt lat="0" lon="0">
        <time>2020-12-06T08:36:53.371000+00:00</time>
      </trkpt>
      <trkpt lat="47.32719" lon="-1.30126">
        <ele>7</ele>
        <time>2020-12-06T08:36:54.390000+00:00</time>
      </trkpt>
      <trkpt lat="0" lon="0">
        <time>2020-12-06T08:36:54.399000+00:00</time>
      </trkpt>
      <trkpt lat="0" lon="0">
        <time>2020-12-06T08:36:54.412000+00:00</time>
      </trkpt>
      <trkpt lat="0" lon="0">
        <time>2020-12-06T08:36:54.415000+00:00</time>
      </trkpt>
      <trkpt lat="47.32723" lon="-1.30119">
        <ele>7</ele>
        <time>2020-12-06T08:36:55.399000+00:00</time>
      </trkpt>
      <trkpt lat="0" lon="0">
        <time>2020-12-06T08:36:55.404000+00:00</time>
      </trkpt>
      <trkpt lat="0" lon="0">
        <time>2020-12-06T08:36:55.407000+00:00</time>
      </trkpt>
      <trkpt lat="0" lon="0">
        <time>2020-12-06T08:36:55.409000+00:00</time>
      </trkpt>
      <trkpt lat="47.32727" lon="-1.30111">
        <ele>7</ele>
        <time>2020-12-06T08:36:56.378000+00:00</time>
      </trkpt>
      <trkpt lat="0" lon="0">
        <time>2020-12-06T08:36:56.381000+00:00</time>
      </trkpt>
      <trkpt lat="0" lon="0">
        <time>2020-12-06T08:36:56.385000+00:00</time>
      </trkpt>
      <trkpt lat="0" lon="0">
        <time>2020-12-06T08:36:56.387000+00:00</time>
      </trkpt>
      <trkpt lat="47.32731" lon="-1.30104">
        <ele>7</ele>
        <time>2020-12-06T08:36:57.392000+00:00</time>
      </trkpt>
      <trkpt lat="0" lon="0">
        <time>2020-12-06T08:36:57.401000+00:00</time>
      </trkpt>
      <trkpt lat="0" lon="0">
        <time>2020-12-06T08:36:57.406000+00:00</time>
      </trkpt>
      <trkpt lat="0" lon="0">
        <time>2020-12-06T08:36:57.416000+00:00</time>
      </trkpt>
      <trkpt lat="47.32735" lon="-1.30096">
        <ele>7</ele>
        <time>2020-12-06T08:36:58.358000+00:00</time>
      </trkpt>
      <trkpt lat="0" lon="0">
        <time>2020-12-06T08:36:58.368000+00:00</time>
      </trkpt>
      <trkpt lat="0" lon="0">
        <time>2020-12-06T08:36:58.373000+00:00</time>
      </trkpt>
      <trkpt lat="0" lon="0">
        <time>2020-12-06T08:36:58.376000+00:00</time>
      </trkpt>
      <trkpt lat="47.32738" lon="-1.30089">
        <ele>7</ele>
        <time>2020-12-06T08:36:59.372000+00:00</time>
      </trkpt>
      <trkpt lat="0" lon="0">
        <time>2020-12-06T08:36:59.378000+00:00</time>
      </trkpt>
      <trkpt lat="0" lon="0">
        <time>2020-12-06T08:36:59.384000+00:00</time>
      </trkpt>
      <trkpt lat="0" lon="0">
        <time>2020-12-06T08:36:59.388000+00:00</time>
      </trkpt>
      <trkpt lat="47.32742" lon="-1.30081">
        <ele>7</ele>
        <time>2020-12-06T08:37:00.397000+00:00</time>
      </trkpt>
      <trkpt lat="0" lon="0">
        <time>2020-12-06T08:37:00.402000+00:00</time>
      </trkpt>
      <trkpt lat="0" lon="0">
        <time>2020-12-06T08:37:00.411000+00:00</time>
      </trkpt>
      <trkpt lat="0" lon="0">
        <time>2020-12-06T08:37:00.413000+00:00</time>
      </trkpt>
      <trkpt lat="47.32746" lon="-1.30074">
        <ele>7</ele>
        <time>2020-12-06T08:37:01.379000+00:00</time>
      </trkpt>
      <trkpt lat="0" lon="0">
        <time>2020-12-06T08:37:01.386000+00:00</time>
      </trkpt>
      <trkpt lat="0" lon="0">
        <time>2020-12-06T08:37:01.393000+00:00</time>
      </trkpt>
      <trkpt lat="0" lon="0">
        <time>2020-12-06T08:37:01.395000+00:00</time>
      </trkpt>
      <trkpt lat="47.3275" lon="-1.30067">
        <ele>7</ele>
        <time>2020-12-06T08:37:02.404000+00:00</time>
      </trkpt>
      <trkpt lat="0" lon="0">
        <time>2020-12-06T08:37:02.407000+00:00</time>
      </trkpt>
      <trkpt lat="0" lon="0">
        <time>2020-12-06T08:37:02.411000+00:00</time>
      </trkpt>
      <trkpt lat="0" lon="0">
        <time>2020-12-06T08:37:02.414000+00:00</time>
      </trkpt>
      <trkpt lat="47.32754" lon="-1.3006">
        <ele>7</ele>
        <time>2020-12-06T08:37:03.364000+00:00</time>
      </trkpt>
      <trkpt lat="0" lon="0">
        <time>2020-12-06T08:37:03.375000+00:00</time>
      </trkpt>
      <trkpt lat="0" lon="0">
        <time>2020-12-06T08:37:03.381000+00:00</time>
      </trkpt>
      <trkpt lat="0" lon="0">
        <time>2020-12-06T08:37:03.385000+00:00</time>
      </trkpt>
      <trkpt lat="47.32757" lon="-1.30053">
        <ele>7</ele>
        <time>2020-12-06T08:37:04.397000+00:00</time>
      </trkpt>
      <trkpt lat="0" lon="0">
        <time>2020-12-06T08:37:04.417000+00:00</time>
      </trkpt>
      <trkpt lat="0" lon="0">
        <time>2020-12-06T08:37:04.421000+00:00</time>
      </trkpt>
      <trkpt lat="0" lon="0">
        <time>2020-12-06T08:37:04.423000+00:00</time>
      </trkpt>
      <trkpt lat="47.32761" lon="-1.30046">
        <ele>7</ele>
        <time>2020-12-06T08:37:05.412000+00:00</time>
      </trkpt>
      <trkpt lat="0" lon="0">
        <time>2020-12-06T08:37:05.426000+00:00</time>
      </trkpt>
      <trkpt lat="0" lon="0">
        <time>2020-12-06T08:37:05.430000+00:00</time>
      </trkpt>
      <trkpt lat="0" lon="0">
        <time>2020-12-06T08:37:05.434000+00:00</time>
      </trkpt>
      <trkpt lat="47.32764" lon="-1.30039">
        <ele>7</ele>
        <time>2020-12-06T08:37:06.417000+00:00</time>
      </trkpt>
      <trkpt lat="0" lon="0">
        <time>2020-12-06T08:37:06.429000+00:00</time>
      </trkpt>
      <trkpt lat="0" lon="0">
        <time>2020-12-06T08:37:06.433000+00:00</time>
      </trkpt>
      <trkpt lat="0" lon="0">
        <time>2020-12-06T08:37:06.436000+00:00</time>
      </trkpt>
      <trkpt lat="47.32768" lon="-1.30032">
        <ele>7</ele>
        <time>2020-12-06T08:37:07.463000+00:00</time>
      </trkpt>
      <trkpt lat="0" lon="0">
        <time>2020-12-06T08:37:07.476000+00:00</time>
      </trkpt>
      <trkpt lat="0" lon="0">
        <time>2020-12-06T08:37:07.485000+00:00</time>
      </trkpt>
      <trkpt lat="0" lon="0">
        <time>2020-12-06T08:37:07.488000+00:00</time>
      </trkpt>
      <trkpt lat="47.32771" lon="-1.30025">
        <ele>7</ele>
        <time>2020-12-06T08:37:08.444000+00:00</time>
      </trkpt>
      <trkpt lat="0" lon="0">
        <time>2020-12-06T08:37:08.453000+00:00</time>
      </trkpt>
      <trkpt lat="0" lon="0">
        <time>2020-12-06T08:37:08.456000+00:00</time>
      </trkpt>
      <trkpt lat="0" lon="0">
        <time>2020-12-06T08:37:08.460000+00:00</time>
      </trkpt>
      <trkpt lat="47.32775" lon="-1.30018">
        <ele>7</ele>
        <time>2020-12-06T08:37:09.442000+00:00</time>
      </trkpt>
      <trkpt lat="0" lon="0">
        <time>2020-12-06T08:37:09.451000+00:00</time>
      </trkpt>
      <trkpt lat="0" lon="0">
        <time>2020-12-06T08:37:09.456000+00:00</time>
      </trkpt>
      <trkpt lat="0" lon="0">
        <time>2020-12-06T08:37:09.459000+00:00</time>
      </trkpt>
      <trkpt lat="47.32778" lon="-1.30011">
        <ele>7</ele>
        <time>2020-12-06T08:37:10.431000+00:00</time>
      </trkpt>
      <trkpt lat="0" lon="0">
        <time>2020-12-06T08:37:10.437000+00:00</time>
      </trkpt>
      <trkpt lat="0" lon="0">
        <time>2020-12-06T08:37:10.450000+00:00</time>
      </trkpt>
      <trkpt lat="0" lon="0">
        <time>2020-12-06T08:37:10.452000+00:00</time>
      </trkpt>
      <trkpt lat="47.32781" lon="-1.30004">
        <ele>7</ele>
        <time>2020-12-06T08:37:11.451000+00:00</time>
      </trkpt>
      <trkpt lat="0" lon="0">
        <time>2020-12-06T08:37:11.453000+00:00</time>
      </trkpt>
      <trkpt lat="0" lon="0">
        <time>2020-12-06T08:37:11.454000+00:00</time>
      </trkpt>
      <trkpt lat="0" lon="0">
        <time>2020-12-06T08:37:11.456000+00:00</time>
      </trkpt>
      <trkpt lat="47.32785" lon="-1.29997">
        <ele>7</ele>
        <time>2020-12-06T08:37:12.407000+00:00</time>
      </trkpt>
      <trkpt lat="0" lon="0">
        <time>2020-12-06T08:37:12.422000+00:00</time>
      </trkpt>
      <trkpt lat="0" lon="0">
        <time>2020-12-06T08:37:12.426000+00:00</time>
      </trkpt>
      <trkpt lat="0" lon="0">
        <time>2020-12-06T08:37:12.430000+00:00</time>
      </trkpt>
      <trkpt lat="47.32788" lon="-1.2999">
        <ele>7</ele>
        <time>2020-12-06T08:37:13.425000+00:00</time>
      </trkpt>
      <trkpt lat="0" lon="0">
        <time>2020-12-06T08:37:13.433000+00:00</time>
      </trkpt>
      <trkpt lat="0" lon="0">
        <time>2020-12-06T08:37:13.449000+00:00</time>
      </trkpt>
      <trkpt lat="0" lon="0">
        <time>2020-12-06T08:37:13.454000+00:00</time>
      </trkpt>
      <trkpt lat="47.32792" lon="-1.29983">
        <ele>7</ele>
        <time>2020-12-06T08:37:14.444000+00:00</time>
      </trkpt>
      <trkpt lat="0" lon="0">
        <time>2020-12-06T08:37:14.469000+00:00</time>
      </trkpt>
      <trkpt lat="0" lon="0">
        <time>2020-12-06T08:37:14.472000+00:00</time>
      </trkpt>
      <trkpt lat="0" lon="0">
        <time>2020-12-06T08:37:14.474000+00:00</time>
      </trkpt>
      <trkpt lat="47.32795" lon="-1.29976">
        <ele>7</ele>
        <time>2020-12-06T08:37:15.433000+00:00</time>
      </trkpt>
      <trkpt lat="0" lon="0">
        <time>2020-12-06T08:37:15.452000+00:00</time>
      </trkpt>
      <trkpt lat="0" lon="0">
        <time>2020-12-06T08:37:15.459000+00:00</time>
      </trkpt>
      <trkpt lat="0" lon="0">
        <time>2020-12-06T08:37:15.461000+00:00</time>
      </trkpt>
      <trkpt lat="47.32799" lon="-1.29969">
        <ele>7</ele>
        <time>2020-12-06T08:37:16.438000+00:00</time>
      </trkpt>
      <trkpt lat="0" lon="0">
        <time>2020-12-06T08:37:16.442000+00:00</time>
      </trkpt>
      <trkpt lat="0" lon="0">
        <time>2020-12-06T08:37:16.456000+00:00</time>
      </trkpt>
      <trkpt lat="0" lon="0">
        <time>2020-12-06T08:37:16.461000+00:00</time>
      </trkpt>
      <trkpt lat="47.32802" lon="-1.29962">
        <ele>7</ele>
        <time>2020-12-06T08:37:17.458000+00:00</time>
      </trkpt>
      <trkpt lat="0" lon="0">
        <time>2020-12-06T08:37:17.460000+00:00</time>
      </trkpt>
      <trkpt lat="0" lon="0">
        <time>2020-12-06T08:37:17.462000+00:00</time>
      </trkpt>
      <trkpt lat="47.32805" lon="-1.29955">
        <ele>7</ele>
        <time>2020-12-06T08:37:18.416000+00:00</time>
      </trkpt>
      <trkpt lat="0" lon="0">
        <time>2020-12-06T08:37:18.420000+00:00</time>
      </trkpt>
      <trkpt lat="0" lon="0">
        <time>2020-12-06T08:37:18.430000+00:00</time>
      </trkpt>
      <trkpt lat="0" lon="0">
        <time>2020-12-06T08:37:18.432000+00:00</time>
      </trkpt>
      <trkpt lat="47.32809" lon="-1.29948">
        <ele>7</ele>
        <time>2020-12-06T08:37:19.418000+00:00</time>
      </trkpt>
      <trkpt lat="0" lon="0">
        <time>2020-12-06T08:37:19.422000+00:00</time>
      </trkpt>
      <trkpt lat="0" lon="0">
        <time>2020-12-06T08:37:19.426000+00:00</time>
      </trkpt>
      <trkpt lat="0" lon="0">
        <time>2020-12-06T08:37:19.437000+00:00</time>
      </trkpt>
      <trkpt lat="47.32812" lon="-1.29941">
        <ele>7</ele>
        <time>2020-12-06T08:37:20.447000+00:00</time>
      </trkpt>
      <trkpt lat="0" lon="0">
        <time>2020-12-06T08:37:20.462000+00:00</time>
      </trkpt>
      <trkpt lat="0" lon="0">
        <time>2020-12-06T08:37:20.466000+00:00</time>
      </trkpt>
      <trkpt lat="0" lon="0">
        <time>2020-12-06T08:37:20.471000+00:00</time>
      </trkpt>
      <trkpt lat="47.32816" lon="-1.29934">
        <ele>7</ele>
        <time>2020-12-06T08:37:21.453000+00:00</time>
      </trkpt>
      <trkpt lat="0" lon="0">
        <time>2020-12-06T08:37:21.463000+00:00</time>
      </trkpt>
      <trkpt lat="0" lon="0">
        <time>2020-12-06T08:37:21.474000+00:00</time>
      </trkpt>
      <trkpt lat="0" lon="0">
        <time>2020-12-06T08:37:21.476000+00:00</time>
      </trkpt>
      <trkpt lat="47.32819" lon="-1.29927">
        <ele>7</ele>
        <time>2020-12-06T08:37:22.403000+00:00</time>
      </trkpt>
      <trkpt lat="0" lon="0">
        <time>2020-12-06T08:37:22.412000+00:00</time>
      </trkpt>
      <trkpt lat="0" lon="0">
        <time>2020-12-06T08:37:22.417000+00:00</time>
      </trkpt>
      <trkpt lat="0" lon="0">
        <time>2020-12-06T08:37:22.424000+00:00</time>
      </trkpt>
      <trkpt lat="47.32823" lon="-1.29921">
        <ele>7</ele>
        <time>2020-12-06T08:37:23.428000+00:00</time>
      </trkpt>
      <trkpt lat="0" lon="0">
        <time>2020-12-06T08:37:23.430000+00:00</time>
      </trkpt>
      <trkpt lat="0" lon="0">
        <time>2020-12-06T08:37:23.431000+00:00</time>
      </trkpt>
      <trkpt lat="0" lon="0">
        <time>2020-12-06T08:37:23.432000+00:00</time>
      </trkpt>
      <trkpt lat="47.32826" lon="-1.29914">
        <ele>7</ele>
        <time>2020-12-06T08:37:24.428000+00:00</time>
      </trkpt>
      <trkpt lat="0" lon="0">
        <time>2020-12-06T08:37:24.435000+00:00</time>
      </trkpt>
      <trkpt lat="0" lon="0">
        <time>2020-12-06T08:37:24.440000+00:00</time>
      </trkpt>
      <trkpt lat="0" lon="0">
        <time>2020-12-06T08:37:24.442000+00:00</time>
      </trkpt>
      <trkpt lat="47.3283" lon="-1.29907">
        <ele>7</ele>
        <time>2020-12-06T08:37:25.388000+00:00</time>
      </trkpt>
      <trkpt lat="0" lon="0">
        <time>2020-12-06T08:37:25.397000+00:00</time>
      </trkpt>
      <trkpt lat="0" lon="0">
        <time>2020-12-06T08:37:25.402000+00:00</time>
      </trkpt>
      <trkpt lat="0" lon="0">
        <time>2020-12-06T08:37:25.405000+00:00</time>
      </trkpt>
      <trkpt lat="47.32833" lon="-1.29901">
        <ele>7</ele>
        <time>2020-12-06T08:37:26.426000+00:00</time>
      </trkpt>
      <trkpt lat="0" lon="0">
        <time>2020-12-06T08:37:26.440000+00:00</time>
      </trkpt>
      <trkpt lat="0" lon="0">
        <time>2020-12-06T08:37:26.454000+00:00</time>
      </trkpt>
      <trkpt lat="0" lon="0">
        <time>2020-12-06T08:37:26.456000+00:00</time>
      </trkpt>
      <trkpt lat="47.32837" lon="-1.29894">
        <ele>7</ele>
        <time>2020-12-06T08:37:27.436000+00:00</time>
      </trkpt>
      <trkpt lat="0" lon="0">
        <time>2020-12-06T08:37:27.444000+00:00</time>
      </trkpt>
      <trkpt lat="0" lon="0">
        <time>2020-12-06T08:37:27.450000+00:00</time>
      </trkpt>
      <trkpt lat="0" lon="0">
        <time>2020-12-06T08:37:27.453000+00:00</time>
      </trkpt>
      <trkpt lat="47.3284" lon="-1.29888">
        <ele>7</ele>
        <time>2020-12-06T08:37:28.465000+00:00</time>
      </trkpt>
      <trkpt lat="0" lon="0">
        <time>2020-12-06T08:37:28.472000+00:00</time>
      </trkpt>
      <trkpt lat="0" lon="0">
        <time>2020-12-06T08:37:28.477000+00:00</time>
      </trkpt>
      <trkpt lat="0" lon="0">
        <time>2020-12-06T08:37:28.479000+00:00</time>
      </trkpt>
      <trkpt lat="47.32844" lon="-1.29881">
        <ele>7</ele>
        <time>2020-12-06T08:37:29.414000+00:00</time>
      </trkpt>
      <trkpt lat="0" lon="0">
        <time>2020-12-06T08:37:29.419000+00:00</time>
      </trkpt>
      <trkpt lat="0" lon="0">
        <time>2020-12-06T08:37:29.432000+00:00</time>
      </trkpt>
      <trkpt lat="0" lon="0">
        <time>2020-12-06T08:37:29.435000+00:00</time>
      </trkpt>
      <trkpt lat="47.32847" lon="-1.29874">
        <ele>7</ele>
        <time>2020-12-06T08:37:30.433000+00:00</time>
      </trkpt>
      <trkpt lat="0" lon="0">
        <time>2020-12-06T08:37:30.441000+00:00</time>
      </trkpt>
      <trkpt lat="0" lon="0">
        <time>2020-12-06T08:37:30.451000+00:00</time>
      </trkpt>
      <trkpt lat="0" lon="0">
        <time>2020-12-06T08:37:30.454000+00:00</time>
      </trkpt>
      <trkpt lat="47.32851" lon="-1.29868">
        <ele>7</ele>
        <time>2020-12-06T08:37:31.417000+00:00</time>
      </trkpt>
      <trkpt lat="0" lon="0">
        <time>2020-12-06T08:37:31.424000+00:00</time>
      </trkpt>
      <trkpt lat="0" lon="0">
        <time>2020-12-06T08:37:31.439000+00:00</time>
      </trkpt>
      <trkpt lat="0" lon="0">
        <time>2020-12-06T08:37:31.441000+00:00</time>
      </trkpt>
      <trkpt lat="47.32855" lon="-1.29861">
        <ele>7</ele>
        <time>2020-12-06T08:37:32.437000+00:00</time>
      </trkpt>
      <trkpt lat="0" lon="0">
        <time>2020-12-06T08:37:32.442000+00:00</time>
      </trkpt>
      <trkpt lat="0" lon="0">
        <time>2020-12-06T08:37:32.447000+00:00</time>
      </trkpt>
      <trkpt lat="0" lon="0">
        <time>2020-12-06T08:37:32.450000+00:00</time>
      </trkpt>
      <trkpt lat="47.32859" lon="-1.29855">
        <ele>7</ele>
        <time>2020-12-06T08:37:33.363000+00:00</time>
      </trkpt>
      <trkpt lat="0" lon="0">
        <time>2020-12-06T08:37:33.371000+00:00</time>
      </trkpt>
      <trkpt lat="0" lon="0">
        <time>2020-12-06T08:37:33.377000+00:00</time>
      </trkpt>
      <trkpt lat="0" lon="0">
        <time>2020-12-06T08:37:33.380000+00:00</time>
      </trkpt>
      <trkpt lat="47.32863" lon="-1.29848">
        <ele>7</ele>
        <time>2020-12-06T08:37:34.369000+00:00</time>
      </trkpt>
      <trkpt lat="0" lon="0">
        <time>2020-12-06T08:37:34.387000+00:00</time>
      </trkpt>
      <trkpt lat="0" lon="0">
        <time>2020-12-06T08:37:34.394000+00:00</time>
      </trkpt>
      <trkpt lat="0" lon="0">
        <time>2020-12-06T08:37:34.399000+00:00</time>
      </trkpt>
      <trkpt lat="47.32867" lon="-1.29841">
        <ele>7</ele>
        <time>2020-12-06T08:37:35.376000+00:00</time>
      </trkpt>
      <trkpt lat="0" lon="0">
        <time>2020-12-06T08:37:35.392000+00:00</time>
      </trkpt>
      <trkpt lat="0" lon="0">
        <time>2020-12-06T08:37:35.398000+00:00</time>
      </trkpt>
      <trkpt lat="0" lon="0">
        <time>2020-12-06T08:37:35.402000+00:00</time>
      </trkpt>
      <trkpt lat="47.32871" lon="-1.29834">
        <ele>7</ele>
        <time>2020-12-06T08:37:36.357000+00:00</time>
      </trkpt>
      <trkpt lat="0" lon="0">
        <time>2020-12-06T08:37:36.373000+00:00</time>
      </trkpt>
      <trkpt lat="0" lon="0">
        <time>2020-12-06T08:37:36.378000+00:00</time>
      </trkpt>
      <trkpt lat="0" lon="0">
        <time>2020-12-06T08:37:36.379000+00:00</time>
      </trkpt>
      <trkpt lat="47.32875" lon="-1.29827">
        <ele>7</ele>
        <time>2020-12-06T08:37:37.380000+00:00</time>
      </trkpt>
      <trkpt lat="0" lon="0">
        <time>2020-12-06T08:37:37.391000+00:00</time>
      </trkpt>
      <trkpt lat="0" lon="0">
        <time>2020-12-06T08:37:37.401000+00:00</time>
      </trkpt>
      <trkpt lat="0" lon="0">
        <time>2020-12-06T08:37:37.407000+00:00</time>
      </trkpt>
      <trkpt lat="47.3288" lon="-1.2982">
        <ele>7</ele>
        <time>2020-12-06T08:37:38.384000+00:00</time>
      </trkpt>
      <trkpt lat="0" lon="0">
        <time>2020-12-06T08:37:38.392000+00:00</time>
      </trkpt>
      <trkpt lat="0" lon="0">
        <time>2020-12-06T08:37:38.394000+00:00</time>
      </trkpt>
      <trkpt lat="0" lon="0">
        <time>2020-12-06T08:37:38.397000+00:00</time>
      </trkpt>
      <trkpt lat="47.32884" lon="-1.29813">
        <ele>8</ele>
        <time>2020-12-06T08:37:39.403000+00:00</time>
      </trkpt>
      <trkpt lat="0" lon="0">
        <time>2020-12-06T08:37:39.406000+00:00</time>
      </trkpt>
      <trkpt lat="0" lon="0">
        <time>2020-12-06T08:37:39.409000+00:00</time>
      </trkpt>
      <trkpt lat="0" lon="0">
        <time>2020-12-06T08:37:39.415000+00:00</time>
      </trkpt>
      <trkpt lat="47.32888" lon="-1.29806">
        <ele>8</ele>
        <time>2020-12-06T08:37:40.389000+00:00</time>
      </trkpt>
      <trkpt lat="0" lon="0">
        <time>2020-12-06T08:37:40.399000+00:00</time>
      </trkpt>
      <trkpt lat="0" lon="0">
        <time>2020-12-06T08:37:40.404000+00:00</time>
      </trkpt>
      <trkpt lat="47.32892" lon="-1.29799">
        <ele>8</ele>
        <time>2020-12-06T08:37:41.383000+00:00</time>
      </trkpt>
      <trkpt lat="0" lon="0">
        <time>2020-12-06T08:37:41.387000+00:00</time>
      </trkpt>
      <trkpt lat="0" lon="0">
        <time>2020-12-06T08:37:41.402000+00:00</time>
      </trkpt>
      <trkpt lat="0" lon="0">
        <time>2020-12-06T08:37:41.404000+00:00</time>
      </trkpt>
      <trkpt lat="47.32896" lon="-1.29791">
        <ele>8</ele>
        <time>2020-12-06T08:37:42.368000+00:00</time>
      </trkpt>
      <trkpt lat="0" lon="0">
        <time>2020-12-06T08:37:42.370000+00:00</time>
      </trkpt>
      <trkpt lat="0" lon="0">
        <time>2020-12-06T08:37:42.377000+00:00</time>
      </trkpt>
      <trkpt lat="0" lon="0">
        <time>2020-12-06T08:37:42.381000+00:00</time>
      </trkpt>
      <trkpt lat="47.32901" lon="-1.29784">
        <ele>8</ele>
        <time>2020-12-06T08:37:43.419000+00:00</time>
      </trkpt>
      <trkpt lat="0" lon="0">
        <time>2020-12-06T08:37:43.423000+00:00</time>
      </trkpt>
      <trkpt lat="0" lon="0">
        <time>2020-12-06T08:37:43.430000+00:00</time>
      </trkpt>
      <trkpt lat="0" lon="0">
        <time>2020-12-06T08:37:43.439000+00:00</time>
      </trkpt>
      <trkpt lat="47.32905" lon="-1.29777">
        <ele>8</ele>
        <time>2020-12-06T08:37:44.425000+00:00</time>
      </trkpt>
      <trkpt lat="0" lon="0">
        <time>2020-12-06T08:37:44.442000+00:00</time>
      </trkpt>
      <trkpt lat="0" lon="0">
        <time>2020-12-06T08:37:44.446000+00:00</time>
      </trkpt>
      <trkpt lat="0" lon="0">
        <time>2020-12-06T08:37:44.452000+00:00</time>
      </trkpt>
      <trkpt lat="47.32909" lon="-1.2977">
        <ele>8</ele>
        <time>2020-12-06T08:37:45.423000+00:00</time>
      </trkpt>
      <trkpt lat="0" lon="0">
        <time>2020-12-06T08:37:45.445000+00:00</time>
      </trkpt>
      <trkpt lat="0" lon="0">
        <time>2020-12-06T08:37:45.454000+00:00</time>
      </trkpt>
      <trkpt lat="0" lon="0">
        <time>2020-12-06T08:37:45.458000+00:00</time>
      </trkpt>
      <trkpt lat="47.32912" lon="-1.29763">
        <ele>8</ele>
        <time>2020-12-06T08:37:46.437000+00:00</time>
      </trkpt>
      <trkpt lat="0" lon="0">
        <time>2020-12-06T08:37:46.450000+00:00</time>
      </trkpt>
      <trkpt lat="0" lon="0">
        <time>2020-12-06T08:37:46.454000+00:00</time>
      </trkpt>
      <trkpt lat="0" lon="0">
        <time>2020-12-06T08:37:46.456000+00:00</time>
      </trkpt>
      <trkpt lat="47.32916" lon="-1.29756">
        <ele>7</ele>
        <time>2020-12-06T08:37:47.437000+00:00</time>
      </trkpt>
      <trkpt lat="0" lon="0">
        <time>2020-12-06T08:37:47.443000+00:00</time>
      </trkpt>
      <trkpt lat="0" lon="0">
        <time>2020-12-06T08:37:47.456000+00:00</time>
      </trkpt>
      <trkpt lat="0" lon="0">
        <time>2020-12-06T08:37:47.461000+00:00</time>
      </trkpt>
      <trkpt lat="47.3292" lon="-1.29749">
        <ele>8</ele>
        <time>2020-12-06T08:37:48.456000+00:00</time>
      </trkpt>
      <trkpt lat="0" lon="0">
        <time>2020-12-06T08:37:48.460000+00:00</time>
      </trkpt>
      <trkpt lat="0" lon="0">
        <time>2020-12-06T08:37:48.465000+00:00</time>
      </trkpt>
      <trkpt lat="0" lon="0">
        <time>2020-12-06T08:37:48.476000+00:00</time>
      </trkpt>
      <trkpt lat="47.32924" lon="-1.29742">
        <ele>8</ele>
        <time>2020-12-06T08:37:49.437000+00:00</time>
      </trkpt>
      <trkpt lat="0" lon="0">
        <time>2020-12-06T08:37:49.447000+00:00</time>
      </trkpt>
      <trkpt lat="0" lon="0">
        <time>2020-12-06T08:37:49.456000+00:00</time>
      </trkpt>
      <trkpt lat="0" lon="0">
        <time>2020-12-06T08:37:49.457000+00:00</time>
      </trkpt>
      <trkpt lat="47.32927" lon="-1.29735">
        <ele>8</ele>
        <time>2020-12-06T08:37:50.453000+00:00</time>
      </trkpt>
      <trkpt lat="0" lon="0">
        <time>2020-12-06T08:37:50.457000+00:00</time>
      </trkpt>
      <trkpt lat="0" lon="0">
        <time>2020-12-06T08:37:50.462000+00:00</time>
      </trkpt>
      <trkpt lat="0" lon="0">
        <time>2020-12-06T08:37:50.464000+00:00</time>
      </trkpt>
      <trkpt lat="47.32931" lon="-1.29728">
        <ele>8</ele>
        <time>2020-12-06T08:37:51.421000+00:00</time>
      </trkpt>
      <trkpt lat="0" lon="0">
        <time>2020-12-06T08:37:51.429000+00:00</time>
      </trkpt>
      <trkpt lat="0" lon="0">
        <time>2020-12-06T08:37:51.439000+00:00</time>
      </trkpt>
      <trkpt lat="0" lon="0">
        <time>2020-12-06T08:37:51.441000+00:00</time>
      </trkpt>
      <trkpt lat="47.32935" lon="-1.29721">
        <ele>8</ele>
        <time>2020-12-06T08:37:52.408000+00:00</time>
      </trkpt>
      <trkpt lat="0" lon="0">
        <time>2020-12-06T08:37:52.412000+00:00</time>
      </trkpt>
      <trkpt lat="0" lon="0">
        <time>2020-12-06T08:37:52.421000+00:00</time>
      </trkpt>
      <trkpt lat="0" lon="0">
        <time>2020-12-06T08:37:52.424000+00:00</time>
      </trkpt>
      <trkpt lat="47.32939" lon="-1.29714">
        <ele>9</ele>
        <time>2020-12-06T08:37:53.413000+00:00</time>
      </trkpt>
      <trkpt lat="0" lon="0">
        <time>2020-12-06T08:37:53.418000+00:00</time>
      </trkpt>
      <trkpt lat="0" lon="0">
        <time>2020-12-06T08:37:53.428000+00:00</time>
      </trkpt>
      <trkpt lat="0" lon="0">
        <time>2020-12-06T08:37:53.431000+00:00</time>
      </trkpt>
      <trkpt lat="47.32943" lon="-1.29707">
        <ele>9</ele>
        <time>2020-12-06T08:37:54.397000+00:00</time>
      </trkpt>
      <trkpt lat="0" lon="0">
        <time>2020-12-06T08:37:54.405000+00:00</time>
      </trkpt>
      <trkpt lat="0" lon="0">
        <time>2020-12-06T08:37:54.408000+00:00</time>
      </trkpt>
      <trkpt lat="0" lon="0">
        <time>2020-12-06T08:37:54.413000+00:00</time>
      </trkpt>
      <trkpt lat="47.32947" lon="-1.297">
        <ele>9</ele>
        <time>2020-12-06T08:37:55.468000+00:00</time>
      </trkpt>
      <trkpt lat="0" lon="0">
        <time>2020-12-06T08:37:55.473000+00:00</time>
      </trkpt>
      <trkpt lat="0" lon="0">
        <time>2020-12-06T08:37:55.478000+00:00</time>
      </trkpt>
      <trkpt lat="0" lon="0">
        <time>2020-12-06T08:37:55.480000+00:00</time>
      </trkpt>
      <trkpt lat="47.32951" lon="-1.29694">
        <ele>9</ele>
        <time>2020-12-06T08:37:56.445000+00:00</time>
      </trkpt>
      <trkpt lat="0" lon="0">
        <time>2020-12-06T08:37:56.452000+00:00</time>
      </trkpt>
      <trkpt lat="0" lon="0">
        <time>2020-12-06T08:37:56.456000+00:00</time>
      </trkpt>
      <trkpt lat="0" lon="0">
        <time>2020-12-06T08:37:56.460000+00:00</time>
      </trkpt>
      <trkpt lat="47.32955" lon="-1.29687">
        <ele>9</ele>
        <time>2020-12-06T08:37:57.397000+00:00</time>
      </trkpt>
      <trkpt lat="0" lon="0">
        <time>2020-12-06T08:37:57.399000+00:00</time>
      </trkpt>
      <trkpt lat="0" lon="0">
        <time>2020-12-06T08:37:57.400000+00:00</time>
      </trkpt>
      <trkpt lat="0" lon="0">
        <time>2020-12-06T08:37:57.401000+00:00</time>
      </trkpt>
      <trkpt lat="47.32959" lon="-1.2968">
        <ele>9</ele>
        <time>2020-12-06T08:37:58.417000+00:00</time>
      </trkpt>
      <trkpt lat="0" lon="0">
        <time>2020-12-06T08:37:58.421000+00:00</time>
      </trkpt>
      <trkpt lat="0" lon="0">
        <time>2020-12-06T08:37:58.425000+00:00</time>
      </trkpt>
      <trkpt lat="0" lon="0">
        <time>2020-12-06T08:37:58.426000+00:00</time>
      </trkpt>
      <trkpt lat="47.32964" lon="-1.29673">
        <ele>9</ele>
        <time>2020-12-06T08:37:59.420000+00:00</time>
      </trkpt>
      <trkpt lat="0" lon="0">
        <time>2020-12-06T08:37:59.429000+00:00</time>
      </trkpt>
      <trkpt lat="0" lon="0">
        <time>2020-12-06T08:37:59.435000+00:00</time>
      </trkpt>
      <trkpt lat="0" lon="0">
        <time>2020-12-06T08:37:59.437000+00:00</time>
      </trkpt>
      <trkpt lat="47.32968" lon="-1.29667">
        <ele>9</ele>
        <time>2020-12-06T08:38:00.444000+00:00</time>
      </trkpt>
      <trkpt lat="0" lon="0">
        <time>2020-12-06T08:38:00.451000+00:00</time>
      </trkpt>
      <trkpt lat="0" lon="0">
        <time>2020-12-06T08:38:00.455000+00:00</time>
      </trkpt>
      <trkpt lat="0" lon="0">
        <time>2020-12-06T08:38:00.458000+00:00</time>
      </trkpt>
      <trkpt lat="47.32972" lon="-1.29661">
        <ele>10</ele>
        <time>2020-12-06T08:38:01.428000+00:00</time>
      </trkpt>
      <trkpt lat="0" lon="0">
        <time>2020-12-06T08:38:01.433000+00:00</time>
      </trkpt>
      <trkpt lat="0" lon="0">
        <time>2020-12-06T08:38:01.438000+00:00</time>
      </trkpt>
      <trkpt lat="0" lon="0">
        <time>2020-12-06T08:38:01.440000+00:00</time>
      </trkpt>
      <trkpt lat="47.32977" lon="-1.29654">
        <ele>10</ele>
        <time>2020-12-06T08:38:02.404000+00:00</time>
      </trkpt>
      <trkpt lat="0" lon="0">
        <time>2020-12-06T08:38:02.409000+00:00</time>
      </trkpt>
      <trkpt lat="0" lon="0">
        <time>2020-12-06T08:38:02.416000+00:00</time>
      </trkpt>
      <trkpt lat="0" lon="0">
        <time>2020-12-06T08:38:02.418000+00:00</time>
      </trkpt>
      <trkpt lat="47.32981" lon="-1.29648">
        <ele>10</ele>
        <time>2020-12-06T08:38:03.438000+00:00</time>
      </trkpt>
      <trkpt lat="0" lon="0">
        <time>2020-12-06T08:38:03.451000+00:00</time>
      </trkpt>
      <trkpt lat="0" lon="0">
        <time>2020-12-06T08:38:03.456000+00:00</time>
      </trkpt>
      <trkpt lat="0" lon="0">
        <time>2020-12-06T08:38:03.457000+00:00</time>
      </trkpt>
      <trkpt lat="47.32985" lon="-1.29641">
        <ele>11</ele>
        <time>2020-12-06T08:38:04.426000+00:00</time>
      </trkpt>
      <trkpt lat="0" lon="0">
        <time>2020-12-06T08:38:04.437000+00:00</time>
      </trkpt>
      <trkpt lat="0" lon="0">
        <time>2020-12-06T08:38:04.449000+00:00</time>
      </trkpt>
      <trkpt lat="0" lon="0">
        <time>2020-12-06T08:38:04.454000+00:00</time>
      </trkpt>
      <trkpt lat="47.3299" lon="-1.29634">
        <ele>11</ele>
        <time>2020-12-06T08:38:05.456000+00:00</time>
      </trkpt>
      <trkpt lat="0" lon="0">
        <time>2020-12-06T08:38:05.469000+00:00</time>
      </trkpt>
      <trkpt lat="0" lon="0">
        <time>2020-12-06T08:38:05.473000+00:00</time>
      </trkpt>
      <trkpt lat="0" lon="0">
        <time>2020-12-06T08:38:05.480000+00:00</time>
      </trkpt>
      <trkpt lat="47.32994" lon="-1.29627">
        <ele>11</ele>
        <time>2020-12-06T08:38:06.422000+00:00</time>
      </trkpt>
      <trkpt lat="0" lon="0">
        <time>2020-12-06T08:38:06.426000+00:00</time>
      </trkpt>
      <trkpt lat="0" lon="0">
        <time>2020-12-06T08:38:06.429000+00:00</time>
      </trkpt>
      <trkpt lat="0" lon="0">
        <time>2020-12-06T08:38:06.432000+00:00</time>
      </trkpt>
      <trkpt lat="47.32999" lon="-1.2962">
        <ele>11</ele>
        <time>2020-12-06T08:38:07.409000+00:00</time>
      </trkpt>
      <trkpt lat="0" lon="0">
        <time>2020-12-06T08:38:07.421000+00:00</time>
      </trkpt>
      <trkpt lat="0" lon="0">
        <time>2020-12-06T08:38:07.427000+00:00</time>
      </trkpt>
      <trkpt lat="0" lon="0">
        <time>2020-12-06T08:38:07.429000+00:00</time>
      </trkpt>
      <trkpt lat="47.33003" lon="-1.29613">
        <ele>12</ele>
        <time>2020-12-06T08:38:08.448000+00:00</time>
      </trkpt>
      <trkpt lat="0" lon="0">
        <time>2020-12-06T08:38:08.460000+00:00</time>
      </trkpt>
      <trkpt lat="0" lon="0">
        <time>2020-12-06T08:38:08.468000+00:00</time>
      </trkpt>
      <trkpt lat="0" lon="0">
        <time>2020-12-06T08:38:08.470000+00:00</time>
      </trkpt>
      <trkpt lat="47.33008" lon="-1.29605">
        <ele>12</ele>
        <time>2020-12-06T08:38:09.433000+00:00</time>
      </trkpt>
      <trkpt lat="0" lon="0">
        <time>2020-12-06T08:38:09.437000+00:00</time>
      </trkpt>
      <trkpt lat="0" lon="0">
        <time>2020-12-06T08:38:09.448000+00:00</time>
      </trkpt>
      <trkpt lat="0" lon="0">
        <time>2020-12-06T08:38:09.450000+00:00</time>
      </trkpt>
      <trkpt lat="47.33012" lon="-1.29598">
        <ele>12</ele>
        <time>2020-12-06T08:38:10.421000+00:00</time>
      </trkpt>
      <trkpt lat="0" lon="0">
        <time>2020-12-06T08:38:10.428000+00:00</time>
      </trkpt>
      <trkpt lat="0" lon="0">
        <time>2020-12-06T08:38:10.435000+00:00</time>
      </trkpt>
      <trkpt lat="0" lon="0">
        <time>2020-12-06T08:38:10.437000+00:00</time>
      </trkpt>
      <trkpt lat="47.33016" lon="-1.2959">
        <ele>12</ele>
        <time>2020-12-06T08:38:11.429000+00:00</time>
      </trkpt>
      <trkpt lat="0" lon="0">
        <time>2020-12-06T08:38:11.444000+00:00</time>
      </trkpt>
      <trkpt lat="0" lon="0">
        <time>2020-12-06T08:38:11.457000+00:00</time>
      </trkpt>
      <trkpt lat="0" lon="0">
        <time>2020-12-06T08:38:11.460000+00:00</time>
      </trkpt>
      <trkpt lat="47.3302" lon="-1.29583">
        <ele>12</ele>
        <time>2020-12-06T08:38:12.459000+00:00</time>
      </trkpt>
      <trkpt lat="0" lon="0">
        <time>2020-12-06T08:38:12.465000+00:00</time>
      </trkpt>
      <trkpt lat="0" lon="0">
        <time>2020-12-06T08:38:12.473000+00:00</time>
      </trkpt>
      <trkpt lat="0" lon="0">
        <time>2020-12-06T08:38:12.474000+00:00</time>
      </trkpt>
      <trkpt lat="47.33024" lon="-1.29576">
        <ele>13</ele>
        <time>2020-12-06T08:38:13.442000+00:00</time>
      </trkpt>
      <trkpt lat="0" lon="0">
        <time>2020-12-06T08:38:13.455000+00:00</time>
      </trkpt>
      <trkpt lat="0" lon="0">
        <time>2020-12-06T08:38:13.459000+00:00</time>
      </trkpt>
      <trkpt lat="0" lon="0">
        <time>2020-12-06T08:38:13.462000+00:00</time>
      </trkpt>
      <trkpt lat="47.33028" lon="-1.29568">
        <ele>13</ele>
        <time>2020-12-06T08:38:14.442000+00:00</time>
      </trkpt>
      <trkpt lat="0" lon="0">
        <time>2020-12-06T08:38:14.462000+00:00</time>
      </trkpt>
      <trkpt lat="0" lon="0">
        <time>2020-12-06T08:38:14.465000+00:00</time>
      </trkpt>
      <trkpt lat="0" lon="0">
        <time>2020-12-06T08:38:14.468000+00:00</time>
      </trkpt>
      <trkpt lat="47.33032" lon="-1.29561">
        <ele>14</ele>
        <time>2020-12-06T08:38:15.450000+00:00</time>
      </trkpt>
      <trkpt lat="0" lon="0">
        <time>2020-12-06T08:38:15.455000+00:00</time>
      </trkpt>
      <trkpt lat="0" lon="0">
        <time>2020-12-06T08:38:15.460000+00:00</time>
      </trkpt>
      <trkpt lat="0" lon="0">
        <time>2020-12-06T08:38:15.462000+00:00</time>
      </trkpt>
      <trkpt lat="47.33036" lon="-1.29553">
        <ele>14</ele>
        <time>2020-12-06T08:38:16.452000+00:00</time>
      </trkpt>
      <trkpt lat="0" lon="0">
        <time>2020-12-06T08:38:16.459000+00:00</time>
      </trkpt>
      <trkpt lat="0" lon="0">
        <time>2020-12-06T08:38:16.463000+00:00</time>
      </trkpt>
      <trkpt lat="0" lon="0">
        <time>2020-12-06T08:38:16.465000+00:00</time>
      </trkpt>
      <trkpt lat="47.3304" lon="-1.29546">
        <ele>15</ele>
        <time>2020-12-06T08:38:17.474000+00:00</time>
      </trkpt>
      <trkpt lat="0" lon="0">
        <time>2020-12-06T08:38:17.483000+00:00</time>
      </trkpt>
      <trkpt lat="0" lon="0">
        <time>2020-12-06T08:38:17.488000+00:00</time>
      </trkpt>
      <trkpt lat="0" lon="0">
        <time>2020-12-06T08:38:17.496000+00:00</time>
      </trkpt>
      <trkpt lat="47.33044" lon="-1.29538">
        <ele>15</ele>
        <time>2020-12-06T08:38:18.445000+00:00</time>
      </trkpt>
      <trkpt lat="0" lon="0">
        <time>2020-12-06T08:38:18.459000+00:00</time>
      </trkpt>
      <trkpt lat="0" lon="0">
        <time>2020-12-06T08:38:18.468000+00:00</time>
      </trkpt>
      <trkpt lat="0" lon="0">
        <time>2020-12-06T08:38:18.471000+00:00</time>
      </trkpt>
      <trkpt lat="47.33049" lon="-1.2953">
        <ele>15</ele>
        <time>2020-12-06T08:38:19.428000+00:00</time>
      </trkpt>
      <trkpt lat="0" lon="0">
        <time>2020-12-06T08:38:19.444000+00:00</time>
      </trkpt>
      <trkpt lat="0" lon="0">
        <time>2020-12-06T08:38:19.453000+00:00</time>
      </trkpt>
      <trkpt lat="0" lon="0">
        <time>2020-12-06T08:38:19.455000+00:00</time>
      </trkpt>
      <trkpt lat="47.33053" lon="-1.29523">
        <ele>16</ele>
        <time>2020-12-06T08:38:20.419000+00:00</time>
      </trkpt>
      <trkpt lat="0" lon="0">
        <time>2020-12-06T08:38:20.433000+00:00</time>
      </trkpt>
      <trkpt lat="0" lon="0">
        <time>2020-12-06T08:38:20.436000+00:00</time>
      </trkpt>
      <trkpt lat="0" lon="0">
        <time>2020-12-06T08:38:20.438000+00:00</time>
      </trkpt>
      <trkpt lat="47.33057" lon="-1.29516">
        <ele>16</ele>
        <time>2020-12-06T08:38:21.446000+00:00</time>
      </trkpt>
      <trkpt lat="0" lon="0">
        <time>2020-12-06T08:38:21.454000+00:00</time>
      </trkpt>
      <trkpt lat="0" lon="0">
        <time>2020-12-06T08:38:21.457000+00:00</time>
      </trkpt>
      <trkpt lat="0" lon="0">
        <time>2020-12-06T08:38:21.459000+00:00</time>
      </trkpt>
      <trkpt lat="47.33061" lon="-1.29508">
        <ele>16</ele>
        <time>2020-12-06T08:38:22.401000+00:00</time>
      </trkpt>
      <trkpt lat="0" lon="0">
        <time>2020-12-06T08:38:22.419000+00:00</time>
      </trkpt>
      <trkpt lat="0" lon="0">
        <time>2020-12-06T08:38:22.421000+00:00</time>
      </trkpt>
      <trkpt lat="0" lon="0">
        <time>2020-12-06T08:38:22.426000+00:00</time>
      </trkpt>
      <trkpt lat="47.33065" lon="-1.29501">
        <ele>16</ele>
        <time>2020-12-06T08:38:23.435000+00:00</time>
      </trkpt>
      <trkpt lat="0" lon="0">
        <time>2020-12-06T08:38:23.450000+00:00</time>
      </trkpt>
      <trkpt lat="0" lon="0">
        <time>2020-12-06T08:38:23.456000+00:00</time>
      </trkpt>
      <trkpt lat="0" lon="0">
        <time>2020-12-06T08:38:23.457000+00:00</time>
      </trkpt>
      <trkpt lat="47.33069" lon="-1.29494">
        <ele>17</ele>
        <time>2020-12-06T08:38:24.438000+00:00</time>
      </trkpt>
      <trkpt lat="0" lon="0">
        <time>2020-12-06T08:38:24.453000+00:00</time>
      </trkpt>
      <trkpt lat="0" lon="0">
        <time>2020-12-06T08:38:24.456000+00:00</time>
      </trkpt>
      <trkpt lat="0" lon="0">
        <time>2020-12-06T08:38:24.458000+00:00</time>
      </trkpt>
      <trkpt lat="47.33074" lon="-1.29487">
        <ele>17</ele>
        <time>2020-12-06T08:38:25.445000+00:00</time>
      </trkpt>
      <trkpt lat="0" lon="0">
        <time>2020-12-06T08:38:25.455000+00:00</time>
      </trkpt>
      <trkpt lat="0" lon="0">
        <time>2020-12-06T08:38:25.465000+00:00</time>
      </trkpt>
      <trkpt lat="0" lon="0">
        <time>2020-12-06T08:38:25.468000+00:00</time>
      </trkpt>
      <trkpt lat="47.33078" lon="-1.2948">
        <ele>18</ele>
        <time>2020-12-06T08:38:26.393000+00:00</time>
      </trkpt>
      <trkpt lat="0" lon="0">
        <time>2020-12-06T08:38:26.404000+00:00</time>
      </trkpt>
      <trkpt lat="0" lon="0">
        <time>2020-12-06T08:38:26.408000+00:00</time>
      </trkpt>
      <trkpt lat="0" lon="0">
        <time>2020-12-06T08:38:26.410000+00:00</time>
      </trkpt>
      <trkpt lat="47.33082" lon="-1.29473">
        <ele>19</ele>
        <time>2020-12-06T08:38:27.421000+00:00</time>
      </trkpt>
      <trkpt lat="0" lon="0">
        <time>2020-12-06T08:38:27.424000+00:00</time>
      </trkpt>
      <trkpt lat="0" lon="0">
        <time>2020-12-06T08:38:27.437000+00:00</time>
      </trkpt>
      <trkpt lat="0" lon="0">
        <time>2020-12-06T08:38:27.440000+00:00</time>
      </trkpt>
      <trkpt lat="47.33086" lon="-1.29467">
        <ele>20</ele>
        <time>2020-12-06T08:38:28.454000+00:00</time>
      </trkpt>
      <trkpt lat="0" lon="0">
        <time>2020-12-06T08:38:28.467000+00:00</time>
      </trkpt>
      <trkpt lat="0" lon="0">
        <time>2020-12-06T08:38:28.477000+00:00</time>
      </trkpt>
      <trkpt lat="0" lon="0">
        <time>2020-12-06T08:38:28.481000+00:00</time>
      </trkpt>
      <trkpt lat="47.33091" lon="-1.2946">
        <ele>21</ele>
        <time>2020-12-06T08:38:29.430000+00:00</time>
      </trkpt>
      <trkpt lat="0" lon="0">
        <time>2020-12-06T08:38:29.447000+00:00</time>
      </trkpt>
      <trkpt lat="0" lon="0">
        <time>2020-12-06T08:38:29.451000+00:00</time>
      </trkpt>
      <trkpt lat="0" lon="0">
        <time>2020-12-06T08:38:29.457000+00:00</time>
      </trkpt>
      <trkpt lat="47.33095" lon="-1.29454">
        <ele>21</ele>
        <time>2020-12-06T08:38:30.353000+00:00</time>
      </trkpt>
      <trkpt lat="0" lon="0">
        <time>2020-12-06T08:38:30.356000+00:00</time>
      </trkpt>
      <trkpt lat="0" lon="0">
        <time>2020-12-06T08:38:30.358000+00:00</time>
      </trkpt>
      <trkpt lat="0" lon="0">
        <time>2020-12-06T08:38:30.359000+00:00</time>
      </trkpt>
      <trkpt lat="47.331" lon="-1.29447">
        <ele>22</ele>
        <time>2020-12-06T08:38:31.469000+00:00</time>
      </trkpt>
      <trkpt lat="0" lon="0">
        <time>2020-12-06T08:38:31.473000+00:00</time>
      </trkpt>
      <trkpt lat="0" lon="0">
        <time>2020-12-06T08:38:31.488000+00:00</time>
      </trkpt>
      <trkpt lat="0" lon="0">
        <time>2020-12-06T08:38:31.489000+00:00</time>
      </trkpt>
      <trkpt lat="47.33104" lon="-1.29441">
        <ele>22</ele>
        <time>2020-12-06T08:38:32.420000+00:00</time>
      </trkpt>
      <trkpt lat="0" lon="0">
        <time>2020-12-06T08:38:32.436000+00:00</time>
      </trkpt>
      <trkpt lat="0" lon="0">
        <time>2020-12-06T08:38:32.444000+00:00</time>
      </trkpt>
      <trkpt lat="0" lon="0">
        <time>2020-12-06T08:38:32.446000+00:00</time>
      </trkpt>
      <trkpt lat="47.33108" lon="-1.29435">
        <ele>22</ele>
        <time>2020-12-06T08:38:33.388000+00:00</time>
      </trkpt>
      <trkpt lat="0" lon="0">
        <time>2020-12-06T08:38:33.401000+00:00</time>
      </trkpt>
      <trkpt lat="0" lon="0">
        <time>2020-12-06T08:38:33.404000+00:00</time>
      </trkpt>
      <trkpt lat="0" lon="0">
        <time>2020-12-06T08:38:33.406000+00:00</time>
      </trkpt>
      <trkpt lat="47.33113" lon="-1.29429">
        <ele>23</ele>
        <time>2020-12-06T08:38:34.451000+00:00</time>
      </trkpt>
      <trkpt lat="0" lon="0">
        <time>2020-12-06T08:38:34.454000+00:00</time>
      </trkpt>
      <trkpt lat="0" lon="0">
        <time>2020-12-06T08:38:34.461000+00:00</time>
      </trkpt>
      <trkpt lat="0" lon="0">
        <time>2020-12-06T08:38:34.465000+00:00</time>
      </trkpt>
      <trkpt lat="47.33117" lon="-1.29423">
        <ele>23</ele>
        <time>2020-12-06T08:38:35.409000+00:00</time>
      </trkpt>
      <trkpt lat="0" lon="0">
        <time>2020-12-06T08:38:35.422000+00:00</time>
      </trkpt>
      <trkpt lat="0" lon="0">
        <time>2020-12-06T08:38:35.427000+00:00</time>
      </trkpt>
      <trkpt lat="0" lon="0">
        <time>2020-12-06T08:38:35.428000+00:00</time>
      </trkpt>
      <trkpt lat="47.33122" lon="-1.29417">
        <ele>23</ele>
        <time>2020-12-06T08:38:36.420000+00:00</time>
      </trkpt>
      <trkpt lat="0" lon="0">
        <time>2020-12-06T08:38:36.424000+00:00</time>
      </trkpt>
      <trkpt lat="0" lon="0">
        <time>2020-12-06T08:38:36.428000+00:00</time>
      </trkpt>
      <trkpt lat="0" lon="0">
        <time>2020-12-06T08:38:36.431000+00:00</time>
      </trkpt>
      <trkpt lat="47.33126" lon="-1.2941">
        <ele>23</ele>
        <time>2020-12-06T08:38:37.397000+00:00</time>
      </trkpt>
      <trkpt lat="0" lon="0">
        <time>2020-12-06T08:38:37.406000+00:00</time>
      </trkpt>
      <trkpt lat="0" lon="0">
        <time>2020-12-06T08:38:37.410000+00:00</time>
      </trkpt>
      <trkpt lat="0" lon="0">
        <time>2020-12-06T08:38:37.417000+00:00</time>
      </trkpt>
      <trkpt lat="47.33131" lon="-1.29404">
        <ele>22</ele>
        <time>2020-12-06T08:38:38.421000+00:00</time>
      </trkpt>
      <trkpt lat="0" lon="0">
        <time>2020-12-06T08:38:38.432000+00:00</time>
      </trkpt>
      <trkpt lat="0" lon="0">
        <time>2020-12-06T08:38:38.438000+00:00</time>
      </trkpt>
      <trkpt lat="0" lon="0">
        <time>2020-12-06T08:38:38.439000+00:00</time>
      </trkpt>
      <trkpt lat="47.33135" lon="-1.29398">
        <ele>22</ele>
        <time>2020-12-06T08:38:39.420000+00:00</time>
      </trkpt>
      <trkpt lat="0" lon="0">
        <time>2020-12-06T08:38:39.428000+00:00</time>
      </trkpt>
      <trkpt lat="0" lon="0">
        <time>2020-12-06T08:38:39.443000+00:00</time>
      </trkpt>
      <trkpt lat="0" lon="0">
        <time>2020-12-06T08:38:39.445000+00:00</time>
      </trkpt>
      <trkpt lat="47.33139" lon="-1.29392">
        <ele>22</ele>
        <time>2020-12-06T08:38:40.438000+00:00</time>
      </trkpt>
      <trkpt lat="0" lon="0">
        <time>2020-12-06T08:38:40.452000+00:00</time>
      </trkpt>
      <trkpt lat="0" lon="0">
        <time>2020-12-06T08:38:40.461000+00:00</time>
      </trkpt>
      <trkpt lat="0" lon="0">
        <time>2020-12-06T08:38:40.466000+00:00</time>
      </trkpt>
      <trkpt lat="47.33144" lon="-1.29386">
        <ele>21</ele>
        <time>2020-12-06T08:38:41.428000+00:00</time>
      </trkpt>
      <trkpt lat="0" lon="0">
        <time>2020-12-06T08:38:41.439000+00:00</time>
      </trkpt>
      <trkpt lat="0" lon="0">
        <time>2020-12-06T08:38:41.445000+00:00</time>
      </trkpt>
      <trkpt lat="0" lon="0">
        <time>2020-12-06T08:38:41.447000+00:00</time>
      </trkpt>
      <trkpt lat="47.33148" lon="-1.2938">
        <ele>21</ele>
        <time>2020-12-06T08:38:42.415000+00:00</time>
      </trkpt>
      <trkpt lat="0" lon="0">
        <time>2020-12-06T08:38:42.418000+00:00</time>
      </trkpt>
      <trkpt lat="0" lon="0">
        <time>2020-12-06T08:38:42.430000+00:00</time>
      </trkpt>
      <trkpt lat="0" lon="0">
        <time>2020-12-06T08:38:42.433000+00:00</time>
      </trkpt>
      <trkpt lat="47.33152" lon="-1.29374">
        <ele>21</ele>
        <time>2020-12-06T08:38:43.454000+00:00</time>
      </trkpt>
      <trkpt lat="0" lon="0">
        <time>2020-12-06T08:38:43.457000+00:00</time>
      </trkpt>
      <trkpt lat="0" lon="0">
        <time>2020-12-06T08:38:43.467000+00:00</time>
      </trkpt>
      <trkpt lat="0" lon="0">
        <time>2020-12-06T08:38:43.472000+00:00</time>
      </trkpt>
      <trkpt lat="47.33155" lon="-1.29368">
        <ele>21</ele>
        <time>2020-12-06T08:38:44.428000+00:00</time>
      </trkpt>
      <trkpt lat="0" lon="0">
        <time>2020-12-06T08:38:44.437000+00:00</time>
      </trkpt>
      <trkpt lat="0" lon="0">
        <time>2020-12-06T08:38:44.446000+00:00</time>
      </trkpt>
      <trkpt lat="0" lon="0">
        <time>2020-12-06T08:38:44.448000+00:00</time>
      </trkpt>
      <trkpt lat="47.33158" lon="-1.29362">
        <ele>21</ele>
        <time>2020-12-06T08:38:45.416000+00:00</time>
      </trkpt>
      <trkpt lat="0" lon="0">
        <time>2020-12-06T08:38:45.437000+00:00</time>
      </trkpt>
      <trkpt lat="0" lon="0">
        <time>2020-12-06T08:38:45.440000+00:00</time>
      </trkpt>
      <trkpt lat="0" lon="0">
        <time>2020-12-06T08:38:45.443000+00:00</time>
      </trkpt>
      <trkpt lat="47.33161" lon="-1.29356">
        <ele>21</ele>
        <time>2020-12-06T08:38:46.415000+00:00</time>
      </trkpt>
      <trkpt lat="0" lon="0">
        <time>2020-12-06T08:38:46.431000+00:00</time>
      </trkpt>
      <trkpt lat="0" lon="0">
        <time>2020-12-06T08:38:46.439000+00:00</time>
      </trkpt>
      <trkpt lat="0" lon="0">
        <time>2020-12-06T08:38:46.442000+00:00</time>
      </trkpt>
      <trkpt lat="47.33162" lon="-1.2935">
        <ele>22</ele>
        <time>2020-12-06T08:38:47.424000+00:00</time>
      </trkpt>
      <trkpt lat="0" lon="0">
        <time>2020-12-06T08:38:47.446000+00:00</time>
      </trkpt>
      <trkpt lat="0" lon="0">
        <time>2020-12-06T08:38:47.449000+00:00</time>
      </trkpt>
      <trkpt lat="0" lon="0">
        <time>2020-12-06T08:38:47.451000+00:00</time>
      </trkpt>
      <trkpt lat="47.33162" lon="-1.29344">
        <ele>22</ele>
        <time>2020-12-06T08:38:48.423000+00:00</time>
      </trkpt>
      <trkpt lat="0" lon="0">
        <time>2020-12-06T08:38:48.436000+00:00</time>
      </trkpt>
      <trkpt lat="0" lon="0">
        <time>2020-12-06T08:38:48.445000+00:00</time>
      </trkpt>
      <trkpt lat="0" lon="0">
        <time>2020-12-06T08:38:48.453000+00:00</time>
      </trkpt>
      <trkpt lat="47.3316" lon="-1.29339">
        <ele>23</ele>
        <time>2020-12-06T08:38:49.401000+00:00</time>
      </trkpt>
      <trkpt lat="0" lon="0">
        <time>2020-12-06T08:38:49.413000+00:00</time>
      </trkpt>
      <trkpt lat="0" lon="0">
        <time>2020-12-06T08:38:49.420000+00:00</time>
      </trkpt>
      <trkpt lat="0" lon="0">
        <time>2020-12-06T08:38:49.422000+00:00</time>
      </trkpt>
      <trkpt lat="47.33158" lon="-1.29334">
        <ele>24</ele>
        <time>2020-12-06T08:38:50.406000+00:00</time>
      </trkpt>
      <trkpt lat="0" lon="0">
        <time>2020-12-06T08:38:50.421000+00:00</time>
      </trkpt>
      <trkpt lat="0" lon="0">
        <time>2020-12-06T08:38:50.427000+00:00</time>
      </trkpt>
      <trkpt lat="0" lon="0">
        <time>2020-12-06T08:38:50.432000+00:00</time>
      </trkpt>
      <trkpt lat="47.33155" lon="-1.2933">
        <ele>24</ele>
        <time>2020-12-06T08:38:51.457000+00:00</time>
      </trkpt>
      <trkpt lat="0" lon="0">
        <time>2020-12-06T08:38:51.463000+00:00</time>
      </trkpt>
      <trkpt lat="0" lon="0">
        <time>2020-12-06T08:38:51.468000+00:00</time>
      </trkpt>
      <trkpt lat="0" lon="0">
        <time>2020-12-06T08:38:51.470000+00:00</time>
      </trkpt>
      <trkpt lat="47.33151" lon="-1.2932">
        <ele>25</ele>
        <time>2020-12-06T08:38:53.438000+00:00</time>
      </trkpt>
      <trkpt lat="0" lon="0">
        <time>2020-12-06T08:38:53.444000+00:00</time>
      </trkpt>
      <trkpt lat="0" lon="0">
        <time>2020-12-06T08:38:53.455000+00:00</time>
      </trkpt>
      <trkpt lat="0" lon="0">
        <time>2020-12-06T08:38:53.462000+00:00</time>
      </trkpt>
      <trkpt lat="47.33146" lon="-1.29316">
        <ele>26</ele>
        <time>2020-12-06T08:38:54.410000+00:00</time>
      </trkpt>
      <trkpt lat="0" lon="0">
        <time>2020-12-06T08:38:54.417000+00:00</time>
      </trkpt>
      <trkpt lat="0" lon="0">
        <time>2020-12-06T08:38:54.420000+00:00</time>
      </trkpt>
      <trkpt lat="0" lon="0">
        <time>2020-12-06T08:38:54.422000+00:00</time>
      </trkpt>
      <trkpt lat="47.33141" lon="-1.29312">
        <ele>27</ele>
        <time>2020-12-06T08:38:55.379000+00:00</time>
      </trkpt>
      <trkpt lat="0" lon="0">
        <time>2020-12-06T08:38:55.391000+00:00</time>
      </trkpt>
      <trkpt lat="0" lon="0">
        <time>2020-12-06T08:38:55.399000+00:00</time>
      </trkpt>
      <trkpt lat="0" lon="0">
        <time>2020-12-06T08:38:55.402000+00:00</time>
      </trkpt>
      <trkpt lat="47.33138" lon="-1.29308">
        <ele>27</ele>
        <time>2020-12-06T08:38:56.402000+00:00</time>
      </trkpt>
      <trkpt lat="0" lon="0">
        <time>2020-12-06T08:38:56.405000+00:00</time>
      </trkpt>
      <trkpt lat="0" lon="0">
        <time>2020-12-06T08:38:56.409000+00:00</time>
      </trkpt>
      <trkpt lat="0" lon="0">
        <time>2020-12-06T08:38:56.410000+00:00</time>
      </trkpt>
      <trkpt lat="47.33134" lon="-1.29304">
        <ele>28</ele>
        <time>2020-12-06T08:38:57.405000+00:00</time>
      </trkpt>
      <trkpt lat="0" lon="0">
        <time>2020-12-06T08:38:57.416000+00:00</time>
      </trkpt>
      <trkpt lat="0" lon="0">
        <time>2020-12-06T08:38:57.424000+00:00</time>
      </trkpt>
      <trkpt lat="0" lon="0">
        <time>2020-12-06T08:38:57.426000+00:00</time>
      </trkpt>
      <trkpt lat="47.33132" lon="-1.293">
        <ele>28</ele>
        <time>2020-12-06T08:38:58.412000+00:00</time>
      </trkpt>
      <trkpt lat="0" lon="0">
        <time>2020-12-06T08:38:58.415000+00:00</time>
      </trkpt>
      <trkpt lat="0" lon="0">
        <time>2020-12-06T08:38:58.431000+00:00</time>
      </trkpt>
      <trkpt lat="0" lon="0">
        <time>2020-12-06T08:38:58.433000+00:00</time>
      </trkpt>
      <trkpt lat="47.3313" lon="-1.29296">
        <ele>29</ele>
        <time>2020-12-06T08:38:59.417000+00:00</time>
      </trkpt>
      <trkpt lat="0" lon="0">
        <time>2020-12-06T08:38:59.425000+00:00</time>
      </trkpt>
      <trkpt lat="0" lon="0">
        <time>2020-12-06T08:38:59.428000+00:00</time>
      </trkpt>
      <trkpt lat="0" lon="0">
        <time>2020-12-06T08:38:59.431000+00:00</time>
      </trkpt>
      <trkpt lat="47.33128" lon="-1.29292">
        <ele>29</ele>
        <time>2020-12-06T08:39:00.433000+00:00</time>
      </trkpt>
      <trkpt lat="0" lon="0">
        <time>2020-12-06T08:39:00.447000+00:00</time>
      </trkpt>
      <trkpt lat="0" lon="0">
        <time>2020-12-06T08:39:00.456000+00:00</time>
      </trkpt>
      <trkpt lat="0" lon="0">
        <time>2020-12-06T08:39:00.460000+00:00</time>
      </trkpt>
      <trkpt lat="47.33127" lon="-1.29288">
        <ele>29</ele>
        <time>2020-12-06T08:39:01.421000+00:00</time>
      </trkpt>
      <trkpt lat="0" lon="0">
        <time>2020-12-06T08:39:01.441000+00:00</time>
      </trkpt>
      <trkpt lat="0" lon="0">
        <time>2020-12-06T08:39:01.449000+00:00</time>
      </trkpt>
      <trkpt lat="0" lon="0">
        <time>2020-12-06T08:39:01.451000+00:00</time>
      </trkpt>
      <trkpt lat="47.33126" lon="-1.29285">
        <ele>30</ele>
        <time>2020-12-06T08:39:02.425000+00:00</time>
      </trkpt>
      <trkpt lat="0" lon="0">
        <time>2020-12-06T08:39:02.436000+00:00</time>
      </trkpt>
      <trkpt lat="0" lon="0">
        <time>2020-12-06T08:39:02.447000+00:00</time>
      </trkpt>
      <trkpt lat="0" lon="0">
        <time>2020-12-06T08:39:02.449000+00:00</time>
      </trkpt>
      <trkpt lat="47.33126" lon="-1.29282">
        <ele>30</ele>
        <time>2020-12-06T08:39:03.417000+00:00</time>
      </trkpt>
      <trkpt lat="0" lon="0">
        <time>2020-12-06T08:39:03.426000+00:00</time>
      </trkpt>
      <trkpt lat="0" lon="0">
        <time>2020-12-06T08:39:03.430000+00:00</time>
      </trkpt>
      <trkpt lat="0" lon="0">
        <time>2020-12-06T08:39:03.433000+00:00</time>
      </trkpt>
      <trkpt lat="47.33125" lon="-1.29278">
        <ele>30</ele>
        <time>2020-12-06T08:39:04.435000+00:00</time>
      </trkpt>
      <trkpt lat="0" lon="0">
        <time>2020-12-06T08:39:04.452000+00:00</time>
      </trkpt>
      <trkpt lat="0" lon="0">
        <time>2020-12-06T08:39:04.458000+00:00</time>
      </trkpt>
      <trkpt lat="0" lon="0">
        <time>2020-12-06T08:39:04.460000+00:00</time>
      </trkpt>
      <trkpt lat="47.33126" lon="-1.29275">
        <ele>30</ele>
        <time>2020-12-06T08:39:05.425000+00:00</time>
      </trkpt>
      <trkpt lat="0" lon="0">
        <time>2020-12-06T08:39:05.444000+00:00</time>
      </trkpt>
      <trkpt lat="0" lon="0">
        <time>2020-12-06T08:39:05.451000+00:00</time>
      </trkpt>
      <trkpt lat="0" lon="0">
        <time>2020-12-06T08:39:05.454000+00:00</time>
      </trkpt>
      <trkpt lat="47.33126" lon="-1.29272">
        <ele>30</ele>
        <time>2020-12-06T08:39:06.430000+00:00</time>
      </trkpt>
      <trkpt lat="0" lon="0">
        <time>2020-12-06T08:39:06.437000+00:00</time>
      </trkpt>
      <trkpt lat="0" lon="0">
        <time>2020-12-06T08:39:06.441000+00:00</time>
      </trkpt>
      <trkpt lat="0" lon="0">
        <time>2020-12-06T08:39:06.443000+00:00</time>
      </trkpt>
      <trkpt lat="47.33127" lon="-1.29269">
        <ele>30</ele>
        <time>2020-12-06T08:39:07.418000+00:00</time>
      </trkpt>
      <trkpt lat="0" lon="0">
        <time>2020-12-06T08:39:07.422000+00:00</time>
      </trkpt>
      <trkpt lat="0" lon="0">
        <time>2020-12-06T08:39:07.424000+00:00</time>
      </trkpt>
      <trkpt lat="0" lon="0">
        <time>2020-12-06T08:39:07.425000+00:00</time>
      </trkpt>
      <trkpt lat="47.33128" lon="-1.29266">
        <ele>30</ele>
        <time>2020-12-06T08:39:08.429000+00:00</time>
      </trkpt>
      <trkpt lat="0" lon="0">
        <time>2020-12-06T08:39:08.436000+00:00</time>
      </trkpt>
      <trkpt lat="0" lon="0">
        <time>2020-12-06T08:39:08.442000+00:00</time>
      </trkpt>
      <trkpt lat="0" lon="0">
        <time>2020-12-06T08:39:08.444000+00:00</time>
      </trkpt>
      <trkpt lat="47.33129" lon="-1.29263">
        <ele>30</ele>
        <time>2020-12-06T08:39:09.382000+00:00</time>
      </trkpt>
      <trkpt lat="0" lon="0">
        <time>2020-12-06T08:39:09.391000+00:00</time>
      </trkpt>
      <trkpt lat="0" lon="0">
        <time>2020-12-06T08:39:09.398000+00:00</time>
      </trkpt>
      <trkpt lat="0" lon="0">
        <time>2020-12-06T08:39:09.408000+00:00</time>
      </trkpt>
      <trkpt lat="47.3313" lon="-1.29261">
        <ele>30</ele>
        <time>2020-12-06T08:39:10.400000+00:00</time>
      </trkpt>
      <trkpt lat="0" lon="0">
        <time>2020-12-06T08:39:10.410000+00:00</time>
      </trkpt>
      <trkpt lat="0" lon="0">
        <time>2020-12-06T08:39:10.413000+00:00</time>
      </trkpt>
      <trkpt lat="0" lon="0">
        <time>2020-12-06T08:39:10.417000+00:00</time>
      </trkpt>
      <trkpt lat="47.33131" lon="-1.29258">
        <ele>30</ele>
        <time>2020-12-06T08:39:11.417000+00:00</time>
      </trkpt>
      <trkpt lat="0" lon="0">
        <time>2020-12-06T08:39:11.431000+00:00</time>
      </trkpt>
      <trkpt lat="0" lon="0">
        <time>2020-12-06T08:39:11.436000+00:00</time>
      </trkpt>
      <trkpt lat="0" lon="0">
        <time>2020-12-06T08:39:11.439000+00:00</time>
      </trkpt>
      <trkpt lat="47.33133" lon="-1.29255">
        <ele>30</ele>
        <time>2020-12-06T08:39:12.448000+00:00</time>
      </trkpt>
      <trkpt lat="0" lon="0">
        <time>2020-12-06T08:39:12.453000+00:00</time>
      </trkpt>
      <trkpt lat="0" lon="0">
        <time>2020-12-06T08:39:12.456000+00:00</time>
      </trkpt>
      <trkpt lat="0" lon="0">
        <time>2020-12-06T08:39:12.458000+00:00</time>
      </trkpt>
      <trkpt lat="47.33134" lon="-1.29253">
        <ele>30</ele>
        <time>2020-12-06T08:39:13.428000+00:00</time>
      </trkpt>
      <trkpt lat="0" lon="0">
        <time>2020-12-06T08:39:13.443000+00:00</time>
      </trkpt>
      <trkpt lat="0" lon="0">
        <time>2020-12-06T08:39:13.445000+00:00</time>
      </trkpt>
      <trkpt lat="0" lon="0">
        <time>2020-12-06T08:39:13.446000+00:00</time>
      </trkpt>
      <trkpt lat="47.33135" lon="-1.29251">
        <ele>30</ele>
        <time>2020-12-06T08:39:14.398000+00:00</time>
      </trkpt>
      <trkpt lat="0" lon="0">
        <time>2020-12-06T08:39:14.401000+00:00</time>
      </trkpt>
      <trkpt lat="0" lon="0">
        <time>2020-12-06T08:39:14.415000+00:00</time>
      </trkpt>
      <trkpt lat="0" lon="0">
        <time>2020-12-06T08:39:14.417000+00:00</time>
      </trkpt>
      <trkpt lat="47.33137" lon="-1.2925">
        <ele>29</ele>
        <time>2020-12-06T08:39:15.428000+00:00</time>
      </trkpt>
      <trkpt lat="0" lon="0">
        <time>2020-12-06T08:39:15.434000+00:00</time>
      </trkpt>
      <trkpt lat="0" lon="0">
        <time>2020-12-06T08:39:15.438000+00:00</time>
      </trkpt>
      <trkpt lat="0" lon="0">
        <time>2020-12-06T08:39:15.445000+00:00</time>
      </trkpt>
      <trkpt lat="47.33138" lon="-1.29251">
        <ele>29</ele>
        <time>2020-12-06T08:39:16.460000+00:00</time>
      </trkpt>
      <trkpt lat="0" lon="0">
        <time>2020-12-06T08:39:16.468000+00:00</time>
      </trkpt>
      <trkpt lat="0" lon="0">
        <time>2020-12-06T08:39:16.472000+00:00</time>
      </trkpt>
      <trkpt lat="0" lon="0">
        <time>2020-12-06T08:39:16.475000+00:00</time>
      </trkpt>
      <trkpt lat="47.33138" lon="-1.29252">
        <ele>29</ele>
        <time>2020-12-06T08:39:17.454000+00:00</time>
      </trkpt>
      <trkpt lat="0" lon="0">
        <time>2020-12-06T08:39:17.462000+00:00</time>
      </trkpt>
      <trkpt lat="0" lon="0">
        <time>2020-12-06T08:39:17.471000+00:00</time>
      </trkpt>
      <trkpt lat="0" lon="0">
        <time>2020-12-06T08:39:17.475000+00:00</time>
      </trkpt>
      <trkpt lat="47.33138" lon="-1.29254">
        <ele>29</ele>
        <time>2020-12-06T08:39:18.386000+00:00</time>
      </trkpt>
      <trkpt lat="0" lon="0">
        <time>2020-12-06T08:39:18.398000+00:00</time>
      </trkpt>
      <trkpt lat="0" lon="0">
        <time>2020-12-06T08:39:18.400000+00:00</time>
      </trkpt>
      <trkpt lat="0" lon="0">
        <time>2020-12-06T08:39:18.401000+00:00</time>
      </trkpt>
      <trkpt lat="47.33138" lon="-1.29257">
        <ele>29</ele>
        <time>2020-12-06T08:39:19.400000+00:00</time>
      </trkpt>
      <trkpt lat="0" lon="0">
        <time>2020-12-06T08:39:19.407000+00:00</time>
      </trkpt>
      <trkpt lat="0" lon="0">
        <time>2020-12-06T08:39:19.424000+00:00</time>
      </trkpt>
      <trkpt lat="0" lon="0">
        <time>2020-12-06T08:39:19.425000+00:00</time>
      </trkpt>
      <trkpt lat="47.33137" lon="-1.2926">
        <ele>29</ele>
        <time>2020-12-06T08:39:20.449000+00:00</time>
      </trkpt>
      <trkpt lat="0" lon="0">
        <time>2020-12-06T08:39:20.456000+00:00</time>
      </trkpt>
      <trkpt lat="0" lon="0">
        <time>2020-12-06T08:39:20.460000+00:00</time>
      </trkpt>
      <trkpt lat="0" lon="0">
        <time>2020-12-06T08:39:20.462000+00:00</time>
      </trkpt>
      <trkpt lat="47.33136" lon="-1.29264">
        <ele>29</ele>
        <time>2020-12-06T08:39:21.413000+00:00</time>
      </trkpt>
      <trkpt lat="0" lon="0">
        <time>2020-12-06T08:39:21.424000+00:00</time>
      </trkpt>
      <trkpt lat="0" lon="0">
        <time>2020-12-06T08:39:21.433000+00:00</time>
      </trkpt>
      <trkpt lat="0" lon="0">
        <time>2020-12-06T08:39:21.446000+00:00</time>
      </trkpt>
      <trkpt lat="47.33126" lon="-1.2929">
        <ele>29</ele>
        <time>2020-12-06T08:39:22.437000+00:00</time>
      </trkpt>
      <trkpt lat="0" lon="0">
        <time>2020-12-06T08:39:22.453000+00:00</time>
      </trkpt>
      <trkpt lat="0" lon="0">
        <time>2020-12-06T08:39:22.456000+00:00</time>
      </trkpt>
      <trkpt lat="0" lon="0">
        <time>2020-12-06T08:39:22.460000+00:00</time>
      </trkpt>
      <trkpt lat="47.33124" lon="-1.29295">
        <ele>30</ele>
        <time>2020-12-06T08:39:23.438000+00:00</time>
      </trkpt>
      <trkpt lat="0" lon="0">
        <time>2020-12-06T08:39:23.450000+00:00</time>
      </trkpt>
      <trkpt lat="0" lon="0">
        <time>2020-12-06T08:39:23.459000+00:00</time>
      </trkpt>
      <trkpt lat="0" lon="0">
        <time>2020-12-06T08:39:23.460000+00:00</time>
      </trkpt>
      <trkpt lat="47.33122" lon="-1.29298">
        <ele>30</ele>
        <time>2020-12-06T08:39:24.458000+00:00</time>
      </trkpt>
      <trkpt lat="0" lon="0">
        <time>2020-12-06T08:39:24.465000+00:00</time>
      </trkpt>
      <trkpt lat="0" lon="0">
        <time>2020-12-06T08:39:24.468000+00:00</time>
      </trkpt>
      <trkpt lat="0" lon="0">
        <time>2020-12-06T08:39:24.469000+00:00</time>
      </trkpt>
      <trkpt lat="47.3312" lon="-1.29302">
        <ele>30</ele>
        <time>2020-12-06T08:39:25.453000+00:00</time>
      </trkpt>
      <trkpt lat="0" lon="0">
        <time>2020-12-06T08:39:25.456000+00:00</time>
      </trkpt>
      <trkpt lat="0" lon="0">
        <time>2020-12-06T08:39:25.463000+00:00</time>
      </trkpt>
      <trkpt lat="0" lon="0">
        <time>2020-12-06T08:39:25.464000+00:00</time>
      </trkpt>
      <trkpt lat="47.33119" lon="-1.29305">
        <ele>30</ele>
        <time>2020-12-06T08:39:26.526000+00:00</time>
      </trkpt>
      <trkpt lat="0" lon="0">
        <time>2020-12-06T08:39:26.529000+00:00</time>
      </trkpt>
      <trkpt lat="0" lon="0">
        <time>2020-12-06T08:39:26.548000+00:00</time>
      </trkpt>
      <trkpt lat="0" lon="0">
        <time>2020-12-06T08:39:26.549000+00:00</time>
      </trkpt>
      <trkpt lat="47.33117" lon="-1.29308">
        <ele>30</ele>
        <time>2020-12-06T08:39:27.519000+00:00</time>
      </trkpt>
      <trkpt lat="0" lon="0">
        <time>2020-12-06T08:39:27.527000+00:00</time>
      </trkpt>
      <trkpt lat="0" lon="0">
        <time>2020-12-06T08:39:27.536000+00:00</time>
      </trkpt>
      <trkpt lat="0" lon="0">
        <time>2020-12-06T08:39:27.537000+00:00</time>
      </trkpt>
      <trkpt lat="47.33116" lon="-1.29311">
        <ele>30</ele>
        <time>2020-12-06T08:39:28.565000+00:00</time>
      </trkpt>
      <trkpt lat="0" lon="0">
        <time>2020-12-06T08:39:28.571000+00:00</time>
      </trkpt>
      <trkpt lat="0" lon="0">
        <time>2020-12-06T08:39:28.579000+00:00</time>
      </trkpt>
      <trkpt lat="0" lon="0">
        <time>2020-12-06T08:39:28.580000+00:00</time>
      </trkpt>
      <trkpt lat="47.33114" lon="-1.29313">
        <ele>30</ele>
        <time>2020-12-06T08:39:29.528000+00:00</time>
      </trkpt>
      <trkpt lat="0" lon="0">
        <time>2020-12-06T08:39:29.544000+00:00</time>
      </trkpt>
      <trkpt lat="0" lon="0">
        <time>2020-12-06T08:39:29.549000+00:00</time>
      </trkpt>
      <trkpt lat="0" lon="0">
        <time>2020-12-06T08:39:29.550000+00:00</time>
      </trkpt>
      <trkpt lat="47.33113" lon="-1.29316">
        <ele>30</ele>
        <time>2020-12-06T08:39:30.513000+00:00</time>
      </trkpt>
      <trkpt lat="0" lon="0">
        <time>2020-12-06T08:39:30.521000+00:00</time>
      </trkpt>
      <trkpt lat="0" lon="0">
        <time>2020-12-06T08:39:30.528000+00:00</time>
      </trkpt>
      <trkpt lat="0" lon="0">
        <time>2020-12-06T08:39:30.529000+00:00</time>
      </trkpt>
      <trkpt lat="47.33112" lon="-1.29318">
        <ele>30</ele>
        <time>2020-12-06T08:39:31.478000+00:00</time>
      </trkpt>
      <trkpt lat="0" lon="0">
        <time>2020-12-06T08:39:31.490000+00:00</time>
      </trkpt>
      <trkpt lat="0" lon="0">
        <time>2020-12-06T08:39:31.509000+00:00</time>
      </trkpt>
      <trkpt lat="0" lon="0">
        <time>2020-12-06T08:39:31.510000+00:00</time>
      </trkpt>
      <trkpt lat="47.33111" lon="-1.2932">
        <ele>30</ele>
        <time>2020-12-06T08:39:32.501000+00:00</time>
      </trkpt>
      <trkpt lat="0" lon="0">
        <time>2020-12-06T08:39:32.514000+00:00</time>
      </trkpt>
      <trkpt lat="0" lon="0">
        <time>2020-12-06T08:39:32.518000+00:00</time>
      </trkpt>
      <trkpt lat="0" lon="0">
        <time>2020-12-06T08:39:32.522000+00:00</time>
      </trkpt>
      <trkpt lat="47.3311" lon="-1.29322">
        <ele>30</ele>
        <time>2020-12-06T08:39:33.515000+00:00</time>
      </trkpt>
      <trkpt lat="0" lon="0">
        <time>2020-12-06T08:39:33.520000+00:00</time>
      </trkpt>
      <trkpt lat="0" lon="0">
        <time>2020-12-06T08:39:33.523000+00:00</time>
      </trkpt>
      <trkpt lat="0" lon="0">
        <time>2020-12-06T08:39:33.531000+00:00</time>
      </trkpt>
      <trkpt lat="47.33109" lon="-1.29323">
        <ele>31</ele>
        <time>2020-12-06T08:39:34.477000+00:00</time>
      </trkpt>
      <trkpt lat="0" lon="0">
        <time>2020-12-06T08:39:34.490000+00:00</time>
      </trkpt>
      <trkpt lat="0" lon="0">
        <time>2020-12-06T08:39:34.494000+00:00</time>
      </trkpt>
      <trkpt lat="0" lon="0">
        <time>2020-12-06T08:39:34.498000+00:00</time>
      </trkpt>
      <trkpt lat="47.33108" lon="-1.29324">
        <ele>31</ele>
        <time>2020-12-06T08:39:35.474000+00:00</time>
      </trkpt>
      <trkpt lat="0" lon="0">
        <time>2020-12-06T08:39:35.487000+00:00</time>
      </trkpt>
      <trkpt lat="0" lon="0">
        <time>2020-12-06T08:39:35.490000+00:00</time>
      </trkpt>
      <trkpt lat="0" lon="0">
        <time>2020-12-06T08:39:35.493000+00:00</time>
      </trkpt>
      <trkpt lat="47.33106" lon="-1.29325">
        <ele>31</ele>
        <time>2020-12-06T08:39:36.495000+00:00</time>
      </trkpt>
      <trkpt lat="0" lon="0">
        <time>2020-12-06T08:39:36.514000+00:00</time>
      </trkpt>
      <trkpt lat="0" lon="0">
        <time>2020-12-06T08:39:36.519000+00:00</time>
      </trkpt>
      <trkpt lat="0" lon="0">
        <time>2020-12-06T08:39:36.520000+00:00</time>
      </trkpt>
      <trkpt lat="47.33105" lon="-1.29326">
        <ele>31</ele>
        <time>2020-12-06T08:39:37.522000+00:00</time>
      </trkpt>
      <trkpt lat="0" lon="0">
        <time>2020-12-06T08:39:37.524000+00:00</time>
      </trkpt>
      <trkpt lat="0" lon="0">
        <time>2020-12-06T08:39:37.529000+00:00</time>
      </trkpt>
      <trkpt lat="0" lon="0">
        <time>2020-12-06T08:39:37.534000+00:00</time>
      </trkpt>
      <trkpt lat="47.33103" lon="-1.29327">
        <ele>31</ele>
        <time>2020-12-06T08:39:38.573000+00:00</time>
      </trkpt>
      <trkpt lat="0" lon="0">
        <time>2020-12-06T08:39:38.577000+00:00</time>
      </trkpt>
      <trkpt lat="0" lon="0">
        <time>2020-12-06T08:39:38.585000+00:00</time>
      </trkpt>
      <trkpt lat="0" lon="0">
        <time>2020-12-06T08:39:38.588000+00:00</time>
      </trkpt>
      <trkpt lat="47.33101" lon="-1.29327">
        <ele>31</ele>
        <time>2020-12-06T08:39:39.561000+00:00</time>
      </trkpt>
      <trkpt lat="0" lon="0">
        <time>2020-12-06T08:39:39.570000+00:00</time>
      </trkpt>
      <trkpt lat="0" lon="0">
        <time>2020-12-06T08:39:39.575000+00:00</time>
      </trkpt>
      <trkpt lat="0" lon="0">
        <time>2020-12-06T08:39:39.577000+00:00</time>
      </trkpt>
      <trkpt lat="47.331" lon="-1.29328">
        <ele>32</ele>
        <time>2020-12-06T08:39:40.529000+00:00</time>
      </trkpt>
      <trkpt lat="0" lon="0">
        <time>2020-12-06T08:39:40.549000+00:00</time>
      </trkpt>
      <trkpt lat="0" lon="0">
        <time>2020-12-06T08:39:40.555000+00:00</time>
      </trkpt>
      <trkpt lat="0" lon="0">
        <time>2020-12-06T08:39:40.557000+00:00</time>
      </trkpt>
      <trkpt lat="47.33098" lon="-1.29329">
        <ele>32</ele>
        <time>2020-12-06T08:39:41.530000+00:00</time>
      </trkpt>
      <trkpt lat="0" lon="0">
        <time>2020-12-06T08:39:41.539000+00:00</time>
      </trkpt>
      <trkpt lat="0" lon="0">
        <time>2020-12-06T08:39:41.545000+00:00</time>
      </trkpt>
      <trkpt lat="0" lon="0">
        <time>2020-12-06T08:39:41.551000+00:00</time>
      </trkpt>
      <trkpt lat="47.33097" lon="-1.2933">
        <ele>32</ele>
        <time>2020-12-06T08:39:42.514000+00:00</time>
      </trkpt>
      <trkpt lat="0" lon="0">
        <time>2020-12-06T08:39:42.517000+00:00</time>
      </trkpt>
      <trkpt lat="0" lon="0">
        <time>2020-12-06T08:39:42.532000+00:00</time>
      </trkpt>
      <trkpt lat="0" lon="0">
        <time>2020-12-06T08:39:42.533000+00:00</time>
      </trkpt>
      <trkpt lat="47.33095" lon="-1.2933">
        <ele>32</ele>
        <time>2020-12-06T08:39:43.525000+00:00</time>
      </trkpt>
      <trkpt lat="0" lon="0">
        <time>2020-12-06T08:39:43.531000+00:00</time>
      </trkpt>
      <trkpt lat="0" lon="0">
        <time>2020-12-06T08:39:43.535000+00:00</time>
      </trkpt>
      <trkpt lat="0" lon="0">
        <time>2020-12-06T08:39:43.536000+00:00</time>
      </trkpt>
      <trkpt lat="47.33094" lon="-1.29331">
        <ele>32</ele>
        <time>2020-12-06T08:39:44.520000+00:00</time>
      </trkpt>
      <trkpt lat="0" lon="0">
        <time>2020-12-06T08:39:44.524000+00:00</time>
      </trkpt>
      <trkpt lat="0" lon="0">
        <time>2020-12-06T08:39:44.527000+00:00</time>
      </trkpt>
      <trkpt lat="0" lon="0">
        <time>2020-12-06T08:39:44.530000+00:00</time>
      </trkpt>
      <trkpt lat="47.33092" lon="-1.29331">
        <ele>32</ele>
        <time>2020-12-06T08:39:45.494000+00:00</time>
      </trkpt>
      <trkpt lat="0" lon="0">
        <time>2020-12-06T08:39:45.502000+00:00</time>
      </trkpt>
      <trkpt lat="0" lon="0">
        <time>2020-12-06T08:39:45.506000+00:00</time>
      </trkpt>
      <trkpt lat="0" lon="0">
        <time>2020-12-06T08:39:45.510000+00:00</time>
      </trkpt>
      <trkpt lat="47.33091" lon="-1.29332">
        <ele>33</ele>
        <time>2020-12-06T08:39:46.541000+00:00</time>
      </trkpt>
      <trkpt lat="0" lon="0">
        <time>2020-12-06T08:39:46.564000+00:00</time>
      </trkpt>
      <trkpt lat="0" lon="0">
        <time>2020-12-06T08:39:46.573000+00:00</time>
      </trkpt>
      <trkpt lat="0" lon="0">
        <time>2020-12-06T08:39:46.575000+00:00</time>
      </trkpt>
      <trkpt lat="47.33089" lon="-1.29333">
        <ele>33</ele>
        <time>2020-12-06T08:39:48.511000+00:00</time>
      </trkpt>
      <trkpt lat="0" lon="0">
        <time>2020-12-06T08:39:48.514000+00:00</time>
      </trkpt>
      <trkpt lat="0" lon="0">
        <time>2020-12-06T08:39:48.523000+00:00</time>
      </trkpt>
      <trkpt lat="0" lon="0">
        <time>2020-12-06T08:39:48.524000+00:00</time>
      </trkpt>
      <trkpt lat="47.33089" lon="-1.29333">
        <ele>33</ele>
        <time>2020-12-06T08:39:49.427000+00:00</time>
      </trkpt>
      <trkpt lat="0" lon="0">
        <time>2020-12-06T08:39:49.436000+00:00</time>
      </trkpt>
      <trkpt lat="0" lon="0">
        <time>2020-12-06T08:39:49.441000+00:00</time>
      </trkpt>
      <trkpt lat="0" lon="0">
        <time>2020-12-06T08:39:49.448000+00:00</time>
      </trkpt>
      <trkpt lat="47.33088" lon="-1.29333">
        <ele>33</ele>
        <time>2020-12-06T08:39:50.428000+00:00</time>
      </trkpt>
      <trkpt lat="0" lon="0">
        <time>2020-12-06T08:39:50.442000+00:00</time>
      </trkpt>
      <trkpt lat="0" lon="0">
        <time>2020-12-06T08:39:50.446000+00:00</time>
      </trkpt>
      <trkpt lat="0" lon="0">
        <time>2020-12-06T08:39:50.449000+00:00</time>
      </trkpt>
      <trkpt lat="47.33088" lon="-1.29333">
        <ele>33</ele>
        <time>2020-12-06T08:39:51.453000+00:00</time>
      </trkpt>
      <trkpt lat="0" lon="0">
        <time>2020-12-06T08:39:51.459000+00:00</time>
      </trkpt>
      <trkpt lat="0" lon="0">
        <time>2020-12-06T08:39:51.462000+00:00</time>
      </trkpt>
      <trkpt lat="0" lon="0">
        <time>2020-12-06T08:39:51.464000+00:00</time>
      </trkpt>
      <trkpt lat="47.33087" lon="-1.29334">
        <ele>33</ele>
        <time>2020-12-06T08:39:52.406000+00:00</time>
      </trkpt>
      <trkpt lat="0" lon="0">
        <time>2020-12-06T08:39:52.412000+00:00</time>
      </trkpt>
      <trkpt lat="0" lon="0">
        <time>2020-12-06T08:39:52.417000+00:00</time>
      </trkpt>
      <trkpt lat="0" lon="0">
        <time>2020-12-06T08:39:52.418000+00:00</time>
      </trkpt>
      <trkpt lat="47.33086" lon="-1.29334">
        <ele>33</ele>
        <time>2020-12-06T08:39:53.446000+00:00</time>
      </trkpt>
      <trkpt lat="0" lon="0">
        <time>2020-12-06T08:39:53.453000+00:00</time>
      </trkpt>
      <trkpt lat="0" lon="0">
        <time>2020-12-06T08:39:53.458000+00:00</time>
      </trkpt>
      <trkpt lat="0" lon="0">
        <time>2020-12-06T08:39:53.460000+00:00</time>
      </trkpt>
      <trkpt lat="47.33085" lon="-1.29334">
        <ele>33</ele>
        <time>2020-12-06T08:39:54.457000+00:00</time>
      </trkpt>
      <trkpt lat="0" lon="0">
        <time>2020-12-06T08:39:54.463000+00:00</time>
      </trkpt>
      <trkpt lat="0" lon="0">
        <time>2020-12-06T08:39:54.469000+00:00</time>
      </trkpt>
      <trkpt lat="0" lon="0">
        <time>2020-12-06T08:39:54.471000+00:00</time>
      </trkpt>
      <trkpt lat="47.33085" lon="-1.29334">
        <ele>33</ele>
        <time>2020-12-06T08:39:55.508000+00:00</time>
      </trkpt>
      <trkpt lat="0" lon="0">
        <time>2020-12-06T08:39:55.521000+00:00</time>
      </trkpt>
      <trkpt lat="0" lon="0">
        <time>2020-12-06T08:39:55.530000+00:00</time>
      </trkpt>
      <trkpt lat="0" lon="0">
        <time>2020-12-06T08:39:55.537000+00:00</time>
      </trkpt>
      <trkpt lat="47.33085" lon="-1.29334">
        <ele>33</ele>
        <time>2020-12-06T08:39:56.513000+00:00</time>
      </trkpt>
      <trkpt lat="0" lon="0">
        <time>2020-12-06T08:39:56.526000+00:00</time>
      </trkpt>
      <trkpt lat="0" lon="0">
        <time>2020-12-06T08:39:56.531000+00:00</time>
      </trkpt>
      <trkpt lat="0" lon="0">
        <time>2020-12-06T08:39:56.533000+00:00</time>
      </trkpt>
      <trkpt lat="47.33084" lon="-1.29334">
        <ele>33</ele>
        <time>2020-12-06T08:39:57.498000+00:00</time>
      </trkpt>
      <trkpt lat="0" lon="0">
        <time>2020-12-06T08:39:57.510000+00:00</time>
      </trkpt>
      <trkpt lat="0" lon="0">
        <time>2020-12-06T08:39:57.514000+00:00</time>
      </trkpt>
      <trkpt lat="0" lon="0">
        <time>2020-12-06T08:39:57.516000+00:00</time>
      </trkpt>
      <trkpt lat="47.33084" lon="-1.29334">
        <ele>33</ele>
        <time>2020-12-06T08:39:58.487000+00:00</time>
      </trkpt>
      <trkpt lat="0" lon="0">
        <time>2020-12-06T08:39:58.498000+00:00</time>
      </trkpt>
      <trkpt lat="0" lon="0">
        <time>2020-12-06T08:39:58.506000+00:00</time>
      </trkpt>
      <trkpt lat="0" lon="0">
        <time>2020-12-06T08:39:58.514000+00:00</time>
      </trkpt>
      <trkpt lat="47.33067" lon="-1.29333">
        <ele>34</ele>
        <time>2020-12-06T08:39:59.447000+00:00</time>
      </trkpt>
      <trkpt lat="0" lon="0">
        <time>2020-12-06T08:39:59.454000+00:00</time>
      </trkpt>
      <trkpt lat="0" lon="0">
        <time>2020-12-06T08:39:59.455000+00:00</time>
      </trkpt>
      <trkpt lat="0" lon="0">
        <time>2020-12-06T08:39:59.458000+00:00</time>
      </trkpt>
      <trkpt lat="47.33066" lon="-1.29332">
        <ele>35</ele>
        <time>2020-12-06T08:40:00.507000+00:00</time>
      </trkpt>
      <trkpt lat="0" lon="0">
        <time>2020-12-06T08:40:00.519000+00:00</time>
      </trkpt>
      <trkpt lat="0" lon="0">
        <time>2020-12-06T08:40:00.522000+00:00</time>
      </trkpt>
      <trkpt lat="0" lon="0">
        <time>2020-12-06T08:40:00.526000+00:00</time>
      </trkpt>
      <trkpt lat="47.33065" lon="-1.29332">
        <ele>35</ele>
        <time>2020-12-06T08:40:01.509000+00:00</time>
      </trkpt>
      <trkpt lat="0" lon="0">
        <time>2020-12-06T08:40:01.519000+00:00</time>
      </trkpt>
      <trkpt lat="0" lon="0">
        <time>2020-12-06T08:40:01.522000+00:00</time>
      </trkpt>
      <trkpt lat="0" lon="0">
        <time>2020-12-06T08:40:01.525000+00:00</time>
      </trkpt>
      <trkpt lat="47.33064" lon="-1.29332">
        <ele>35</ele>
        <time>2020-12-06T08:40:02.525000+00:00</time>
      </trkpt>
      <trkpt lat="0" lon="0">
        <time>2020-12-06T08:40:02.529000+00:00</time>
      </trkpt>
      <trkpt lat="0" lon="0">
        <time>2020-12-06T08:40:02.535000+00:00</time>
      </trkpt>
      <trkpt lat="0" lon="0">
        <time>2020-12-06T08:40:02.536000+00:00</time>
      </trkpt>
      <trkpt lat="47.33063" lon="-1.29332">
        <ele>35</ele>
        <time>2020-12-06T08:40:03.515000+00:00</time>
      </trkpt>
      <trkpt lat="0" lon="0">
        <time>2020-12-06T08:40:03.528000+00:00</time>
      </trkpt>
      <trkpt lat="0" lon="0">
        <time>2020-12-06T08:40:03.533000+00:00</time>
      </trkpt>
      <trkpt lat="0" lon="0">
        <time>2020-12-06T08:40:03.534000+00:00</time>
      </trkpt>
      <trkpt lat="47.33062" lon="-1.29332">
        <ele>35</ele>
        <time>2020-12-06T08:40:04.507000+00:00</time>
      </trkpt>
      <trkpt lat="0" lon="0">
        <time>2020-12-06T08:40:04.510000+00:00</time>
      </trkpt>
      <trkpt lat="0" lon="0">
        <time>2020-12-06T08:40:04.519000+00:00</time>
      </trkpt>
      <trkpt lat="0" lon="0">
        <time>2020-12-06T08:40:04.525000+00:00</time>
      </trkpt>
      <trkpt lat="47.33061" lon="-1.29333">
        <ele>35</ele>
        <time>2020-12-06T08:40:05.525000+00:00</time>
      </trkpt>
      <trkpt lat="0" lon="0">
        <time>2020-12-06T08:40:05.540000+00:00</time>
      </trkpt>
      <trkpt lat="0" lon="0">
        <time>2020-12-06T08:40:05.544000+00:00</time>
      </trkpt>
      <trkpt lat="0" lon="0">
        <time>2020-12-06T08:40:05.546000+00:00</time>
      </trkpt>
      <trkpt lat="47.33059" lon="-1.29334">
        <ele>35</ele>
        <time>2020-12-06T08:40:06.535000+00:00</time>
      </trkpt>
      <trkpt lat="0" lon="0">
        <time>2020-12-06T08:40:06.539000+00:00</time>
      </trkpt>
      <trkpt lat="0" lon="0">
        <time>2020-12-06T08:40:06.549000+00:00</time>
      </trkpt>
      <trkpt lat="0" lon="0">
        <time>2020-12-06T08:40:06.551000+00:00</time>
      </trkpt>
      <trkpt lat="47.33058" lon="-1.29334">
        <ele>35</ele>
        <time>2020-12-06T08:40:07.450000+00:00</time>
      </trkpt>
      <trkpt lat="0" lon="0">
        <time>2020-12-06T08:40:07.463000+00:00</time>
      </trkpt>
      <trkpt lat="0" lon="0">
        <time>2020-12-06T08:40:07.466000+00:00</time>
      </trkpt>
      <trkpt lat="0" lon="0">
        <time>2020-12-06T08:40:07.469000+00:00</time>
      </trkpt>
      <trkpt lat="47.33058" lon="-1.29335">
        <ele>35</ele>
        <time>2020-12-06T08:40:08.501000+00:00</time>
      </trkpt>
      <trkpt lat="0" lon="0">
        <time>2020-12-06T08:40:08.516000+00:00</time>
      </trkpt>
      <trkpt lat="0" lon="0">
        <time>2020-12-06T08:40:08.522000+00:00</time>
      </trkpt>
      <trkpt lat="0" lon="0">
        <time>2020-12-06T08:40:08.524000+00:00</time>
      </trkpt>
      <trkpt lat="47.33057" lon="-1.29335">
        <ele>35</ele>
        <time>2020-12-06T08:40:09.518000+00:00</time>
      </trkpt>
      <trkpt lat="0" lon="0">
        <time>2020-12-06T08:40:09.527000+00:00</time>
      </trkpt>
      <trkpt lat="0" lon="0">
        <time>2020-12-06T08:40:09.537000+00:00</time>
      </trkpt>
      <trkpt lat="0" lon="0">
        <time>2020-12-06T08:40:09.541000+00:00</time>
      </trkpt>
      <trkpt lat="47.33055" lon="-1.29336">
        <ele>35</ele>
        <time>2020-12-06T08:40:10.463000+00:00</time>
      </trkpt>
      <trkpt lat="0" lon="0">
        <time>2020-12-06T08:40:10.479000+00:00</time>
      </trkpt>
      <trkpt lat="0" lon="0">
        <time>2020-12-06T08:40:10.487000+00:00</time>
      </trkpt>
      <trkpt lat="0" lon="0">
        <time>2020-12-06T08:40:10.488000+00:00</time>
      </trkpt>
      <trkpt lat="47.33054" lon="-1.29336">
        <ele>35</ele>
        <time>2020-12-06T08:40:11.467000+00:00</time>
      </trkpt>
      <trkpt lat="0" lon="0">
        <time>2020-12-06T08:40:11.484000+00:00</time>
      </trkpt>
      <trkpt lat="0" lon="0">
        <time>2020-12-06T08:40:11.487000+00:00</time>
      </trkpt>
      <trkpt lat="0" lon="0">
        <time>2020-12-06T08:40:11.489000+00:00</time>
      </trkpt>
      <trkpt lat="47.33052" lon="-1.29337">
        <ele>35</ele>
        <time>2020-12-06T08:40:12.421000+00:00</time>
      </trkpt>
      <trkpt lat="0" lon="0">
        <time>2020-12-06T08:40:12.433000+00:00</time>
      </trkpt>
      <trkpt lat="0" lon="0">
        <time>2020-12-06T08:40:12.436000+00:00</time>
      </trkpt>
      <trkpt lat="0" lon="0">
        <time>2020-12-06T08:40:12.442000+00:00</time>
      </trkpt>
      <trkpt lat="47.3305" lon="-1.29337">
        <ele>35</ele>
        <time>2020-12-06T08:40:13.472000+00:00</time>
      </trkpt>
      <trkpt lat="0" lon="0">
        <time>2020-12-06T08:40:13.481000+00:00</time>
      </trkpt>
      <trkpt lat="0" lon="0">
        <time>2020-12-06T08:40:13.484000+00:00</time>
      </trkpt>
      <trkpt lat="0" lon="0">
        <time>2020-12-06T08:40:13.486000+00:00</time>
      </trkpt>
      <trkpt lat="47.33049" lon="-1.29337">
        <ele>35</ele>
        <time>2020-12-06T08:40:14.519000+00:00</time>
      </trkpt>
      <trkpt lat="0" lon="0">
        <time>2020-12-06T08:40:14.526000+00:00</time>
      </trkpt>
      <trkpt lat="0" lon="0">
        <time>2020-12-06T08:40:14.536000+00:00</time>
      </trkpt>
      <trkpt lat="0" lon="0">
        <time>2020-12-06T08:40:14.538000+00:00</time>
      </trkpt>
      <trkpt lat="47.33047" lon="-1.29337">
        <ele>36</ele>
        <time>2020-12-06T08:40:15.453000+00:00</time>
      </trkpt>
      <trkpt lat="0" lon="0">
        <time>2020-12-06T08:40:15.454000+00:00</time>
      </trkpt>
      <trkpt lat="0" lon="0">
        <time>2020-12-06T08:40:15.456000+00:00</time>
      </trkpt>
      <trkpt lat="47.33045" lon="-1.29337">
        <ele>36</ele>
        <time>2020-12-06T08:40:16.486000+00:00</time>
      </trkpt>
      <trkpt lat="0" lon="0">
        <time>2020-12-06T08:40:16.500000+00:00</time>
      </trkpt>
      <trkpt lat="0" lon="0">
        <time>2020-12-06T08:40:16.508000+00:00</time>
      </trkpt>
      <trkpt lat="0" lon="0">
        <time>2020-12-06T08:40:16.510000+00:00</time>
      </trkpt>
      <trkpt lat="47.33043" lon="-1.29337">
        <ele>36</ele>
        <time>2020-12-06T08:40:17.480000+00:00</time>
      </trkpt>
      <trkpt lat="0" lon="0">
        <time>2020-12-06T08:40:17.487000+00:00</time>
      </trkpt>
      <trkpt lat="0" lon="0">
        <time>2020-12-06T08:40:17.491000+00:00</time>
      </trkpt>
      <trkpt lat="0" lon="0">
        <time>2020-12-06T08:40:17.494000+00:00</time>
      </trkpt>
      <trkpt lat="47.33042" lon="-1.29337">
        <ele>36</ele>
        <time>2020-12-06T08:40:18.504000+00:00</time>
      </trkpt>
      <trkpt lat="0" lon="0">
        <time>2020-12-06T08:40:18.517000+00:00</time>
      </trkpt>
      <trkpt lat="0" lon="0">
        <time>2020-12-06T08:40:18.525000+00:00</time>
      </trkpt>
      <trkpt lat="0" lon="0">
        <time>2020-12-06T08:40:18.531000+00:00</time>
      </trkpt>
      <trkpt lat="47.3304" lon="-1.29337">
        <ele>36</ele>
        <time>2020-12-06T08:40:19.518000+00:00</time>
      </trkpt>
      <trkpt lat="0" lon="0">
        <time>2020-12-06T08:40:19.525000+00:00</time>
      </trkpt>
      <trkpt lat="0" lon="0">
        <time>2020-12-06T08:40:19.531000+00:00</time>
      </trkpt>
      <trkpt lat="0" lon="0">
        <time>2020-12-06T08:40:19.534000+00:00</time>
      </trkpt>
      <trkpt lat="47.33038" lon="-1.29337">
        <ele>36</ele>
        <time>2020-12-06T08:40:20.516000+00:00</time>
      </trkpt>
      <trkpt lat="0" lon="0">
        <time>2020-12-06T08:40:20.527000+00:00</time>
      </trkpt>
      <trkpt lat="0" lon="0">
        <time>2020-12-06T08:40:20.529000+00:00</time>
      </trkpt>
      <trkpt lat="0" lon="0">
        <time>2020-12-06T08:40:20.530000+00:00</time>
      </trkpt>
      <trkpt lat="47.33036" lon="-1.29337">
        <ele>36</ele>
        <time>2020-12-06T08:40:21.512000+00:00</time>
      </trkpt>
      <trkpt lat="0" lon="0">
        <time>2020-12-06T08:40:21.524000+00:00</time>
      </trkpt>
      <trkpt lat="0" lon="0">
        <time>2020-12-06T08:40:21.535000+00:00</time>
      </trkpt>
      <trkpt lat="0" lon="0">
        <time>2020-12-06T08:40:21.537000+00:00</time>
      </trkpt>
      <trkpt lat="47.33035" lon="-1.29337">
        <ele>36</ele>
        <time>2020-12-06T08:40:22.494000+00:00</time>
      </trkpt>
      <trkpt lat="0" lon="0">
        <time>2020-12-06T08:40:22.500000+00:00</time>
      </trkpt>
      <trkpt lat="0" lon="0">
        <time>2020-12-06T08:40:22.505000+00:00</time>
      </trkpt>
      <trkpt lat="0" lon="0">
        <time>2020-12-06T08:40:22.508000+00:00</time>
      </trkpt>
      <trkpt lat="47.33033" lon="-1.29337">
        <ele>36</ele>
        <time>2020-12-06T08:40:23.535000+00:00</time>
      </trkpt>
      <trkpt lat="0" lon="0">
        <time>2020-12-06T08:40:23.547000+00:00</time>
      </trkpt>
      <trkpt lat="0" lon="0">
        <time>2020-12-06T08:40:23.555000+00:00</time>
      </trkpt>
      <trkpt lat="0" lon="0">
        <time>2020-12-06T08:40:23.557000+00:00</time>
      </trkpt>
      <trkpt lat="47.33031" lon="-1.29337">
        <ele>36</ele>
        <time>2020-12-06T08:40:24.511000+00:00</time>
      </trkpt>
      <trkpt lat="0" lon="0">
        <time>2020-12-06T08:40:24.517000+00:00</time>
      </trkpt>
      <trkpt lat="0" lon="0">
        <time>2020-12-06T08:40:24.523000+00:00</time>
      </trkpt>
      <trkpt lat="0" lon="0">
        <time>2020-12-06T08:40:24.539000+00:00</time>
      </trkpt>
      <trkpt lat="47.3303" lon="-1.29337">
        <ele>37</ele>
        <time>2020-12-06T08:40:25.520000+00:00</time>
      </trkpt>
      <trkpt lat="0" lon="0">
        <time>2020-12-06T08:40:25.527000+00:00</time>
      </trkpt>
      <trkpt lat="0" lon="0">
        <time>2020-12-06T08:40:25.534000+00:00</time>
      </trkpt>
      <trkpt lat="0" lon="0">
        <time>2020-12-06T08:40:25.536000+00:00</time>
      </trkpt>
      <trkpt lat="47.33029" lon="-1.29337">
        <ele>37</ele>
        <time>2020-12-06T08:40:26.542000+00:00</time>
      </trkpt>
      <trkpt lat="0" lon="0">
        <time>2020-12-06T08:40:26.546000+00:00</time>
      </trkpt>
      <trkpt lat="0" lon="0">
        <time>2020-12-06T08:40:26.551000+00:00</time>
      </trkpt>
      <trkpt lat="0" lon="0">
        <time>2020-12-06T08:40:26.554000+00:00</time>
      </trkpt>
      <trkpt lat="47.33027" lon="-1.29338">
        <ele>37</ele>
        <time>2020-12-06T08:40:27.503000+00:00</time>
      </trkpt>
      <trkpt lat="0" lon="0">
        <time>2020-12-06T08:40:27.506000+00:00</time>
      </trkpt>
      <trkpt lat="0" lon="0">
        <time>2020-12-06T08:40:27.510000+00:00</time>
      </trkpt>
      <trkpt lat="0" lon="0">
        <time>2020-12-06T08:40:27.512000+00:00</time>
      </trkpt>
      <trkpt lat="47.33026" lon="-1.29339">
        <ele>37</ele>
        <time>2020-12-06T08:40:28.487000+00:00</time>
      </trkpt>
      <trkpt lat="0" lon="0">
        <time>2020-12-06T08:40:28.492000+00:00</time>
      </trkpt>
      <trkpt lat="0" lon="0">
        <time>2020-12-06T08:40:28.496000+00:00</time>
      </trkpt>
      <trkpt lat="0" lon="0">
        <time>2020-12-06T08:40:28.498000+00:00</time>
      </trkpt>
      <trkpt lat="47.33024" lon="-1.2934">
        <ele>37</ele>
        <time>2020-12-06T08:40:29.504000+00:00</time>
      </trkpt>
      <trkpt lat="0" lon="0">
        <time>2020-12-06T08:40:29.512000+00:00</time>
      </trkpt>
      <trkpt lat="0" lon="0">
        <time>2020-12-06T08:40:29.518000+00:00</time>
      </trkpt>
      <trkpt lat="0" lon="0">
        <time>2020-12-06T08:40:29.519000+00:00</time>
      </trkpt>
      <trkpt lat="47.33023" lon="-1.29342">
        <ele>37</ele>
        <time>2020-12-06T08:40:30.533000+00:00</time>
      </trkpt>
      <trkpt lat="0" lon="0">
        <time>2020-12-06T08:40:30.537000+00:00</time>
      </trkpt>
      <trkpt lat="0" lon="0">
        <time>2020-12-06T08:40:30.543000+00:00</time>
      </trkpt>
      <trkpt lat="0" lon="0">
        <time>2020-12-06T08:40:30.545000+00:00</time>
      </trkpt>
      <trkpt lat="47.33021" lon="-1.29344">
        <ele>37</ele>
        <time>2020-12-06T08:40:31.529000+00:00</time>
      </trkpt>
      <trkpt lat="0" lon="0">
        <time>2020-12-06T08:40:31.532000+00:00</time>
      </trkpt>
      <trkpt lat="0" lon="0">
        <time>2020-12-06T08:40:31.535000+00:00</time>
      </trkpt>
      <trkpt lat="0" lon="0">
        <time>2020-12-06T08:40:31.540000+00:00</time>
      </trkpt>
      <trkpt lat="47.3302" lon="-1.29346">
        <ele>37</ele>
        <time>2020-12-06T08:40:32.486000+00:00</time>
      </trkpt>
      <trkpt lat="0" lon="0">
        <time>2020-12-06T08:40:32.491000+00:00</time>
      </trkpt>
      <trkpt lat="0" lon="0">
        <time>2020-12-06T08:40:32.494000+00:00</time>
      </trkpt>
      <trkpt lat="0" lon="0">
        <time>2020-12-06T08:40:32.496000+00:00</time>
      </trkpt>
      <trkpt lat="47.33018" lon="-1.29348">
        <ele>37</ele>
        <time>2020-12-06T08:40:33.523000+00:00</time>
      </trkpt>
      <trkpt lat="0" lon="0">
        <time>2020-12-06T08:40:33.527000+00:00</time>
      </trkpt>
      <trkpt lat="0" lon="0">
        <time>2020-12-06T08:40:33.537000+00:00</time>
      </trkpt>
      <trkpt lat="0" lon="0">
        <time>2020-12-06T08:40:33.541000+00:00</time>
      </trkpt>
      <trkpt lat="47.33016" lon="-1.29349">
        <ele>37</ele>
        <time>2020-12-06T08:40:34.482000+00:00</time>
      </trkpt>
      <trkpt lat="0" lon="0">
        <time>2020-12-06T08:40:34.485000+00:00</time>
      </trkpt>
      <trkpt lat="0" lon="0">
        <time>2020-12-06T08:40:34.494000+00:00</time>
      </trkpt>
      <trkpt lat="0" lon="0">
        <time>2020-12-06T08:40:34.498000+00:00</time>
      </trkpt>
      <trkpt lat="47.33014" lon="-1.29351">
        <ele>37</ele>
        <time>2020-12-06T08:40:35.530000+00:00</time>
      </trkpt>
      <trkpt lat="0" lon="0">
        <time>2020-12-06T08:40:35.544000+00:00</time>
      </trkpt>
      <trkpt lat="0" lon="0">
        <time>2020-12-06T08:40:35.554000+00:00</time>
      </trkpt>
      <trkpt lat="0" lon="0">
        <time>2020-12-06T08:40:35.555000+00:00</time>
      </trkpt>
      <trkpt lat="47.33013" lon="-1.29352">
        <ele>37</ele>
        <time>2020-12-06T08:40:36.493000+00:00</time>
      </trkpt>
      <trkpt lat="0" lon="0">
        <time>2020-12-06T08:40:36.500000+00:00</time>
      </trkpt>
      <trkpt lat="0" lon="0">
        <time>2020-12-06T08:40:36.504000+00:00</time>
      </trkpt>
      <trkpt lat="0" lon="0">
        <time>2020-12-06T08:40:36.514000+00:00</time>
      </trkpt>
      <trkpt lat="47.33011" lon="-1.29354">
        <ele>37</ele>
        <time>2020-12-06T08:40:37.539000+00:00</time>
      </trkpt>
      <trkpt lat="0" lon="0">
        <time>2020-12-06T08:40:37.546000+00:00</time>
      </trkpt>
      <trkpt lat="0" lon="0">
        <time>2020-12-06T08:40:37.549000+00:00</time>
      </trkpt>
      <trkpt lat="0" lon="0">
        <time>2020-12-06T08:40:37.555000+00:00</time>
      </trkpt>
      <trkpt lat="47.33009" lon="-1.29355">
        <ele>37</ele>
        <time>2020-12-06T08:40:38.502000+00:00</time>
      </trkpt>
      <trkpt lat="0" lon="0">
        <time>2020-12-06T08:40:38.517000+00:00</time>
      </trkpt>
      <trkpt lat="0" lon="0">
        <time>2020-12-06T08:40:38.520000+00:00</time>
      </trkpt>
      <trkpt lat="0" lon="0">
        <time>2020-12-06T08:40:38.523000+00:00</time>
      </trkpt>
      <trkpt lat="47.33007" lon="-1.29356">
        <ele>37</ele>
        <time>2020-12-06T08:40:39.490000+00:00</time>
      </trkpt>
      <trkpt lat="0" lon="0">
        <time>2020-12-06T08:40:39.494000+00:00</time>
      </trkpt>
      <trkpt lat="0" lon="0">
        <time>2020-12-06T08:40:39.498000+00:00</time>
      </trkpt>
      <trkpt lat="0" lon="0">
        <time>2020-12-06T08:40:39.501000+00:00</time>
      </trkpt>
      <trkpt lat="47.33005" lon="-1.29356">
        <ele>37</ele>
        <time>2020-12-06T08:40:40.464000+00:00</time>
      </trkpt>
      <trkpt lat="0" lon="0">
        <time>2020-12-06T08:40:40.469000+00:00</time>
      </trkpt>
      <trkpt lat="0" lon="0">
        <time>2020-12-06T08:40:40.470000+00:00</time>
      </trkpt>
      <trkpt lat="0" lon="0">
        <time>2020-12-06T08:40:40.471000+00:00</time>
      </trkpt>
      <trkpt lat="47.33003" lon="-1.29357">
        <ele>37</ele>
        <time>2020-12-06T08:40:41.513000+00:00</time>
      </trkpt>
      <trkpt lat="0" lon="0">
        <time>2020-12-06T08:40:41.519000+00:00</time>
      </trkpt>
      <trkpt lat="0" lon="0">
        <time>2020-12-06T08:40:41.525000+00:00</time>
      </trkpt>
      <trkpt lat="0" lon="0">
        <time>2020-12-06T08:40:41.527000+00:00</time>
      </trkpt>
      <trkpt lat="47.33001" lon="-1.29358">
        <ele>37</ele>
        <time>2020-12-06T08:40:42.510000+00:00</time>
      </trkpt>
      <trkpt lat="0" lon="0">
        <time>2020-12-06T08:40:42.515000+00:00</time>
      </trkpt>
      <trkpt lat="0" lon="0">
        <time>2020-12-06T08:40:42.520000+00:00</time>
      </trkpt>
      <trkpt lat="0" lon="0">
        <time>2020-12-06T08:40:42.522000+00:00</time>
      </trkpt>
      <trkpt lat="47.33" lon="-1.29359">
        <ele>37</ele>
        <time>2020-12-06T08:40:43.507000+00:00</time>
      </trkpt>
      <trkpt lat="0" lon="0">
        <time>2020-12-06T08:40:43.516000+00:00</time>
      </trkpt>
      <trkpt lat="0" lon="0">
        <time>2020-12-06T08:40:43.521000+00:00</time>
      </trkpt>
      <trkpt lat="0" lon="0">
        <time>2020-12-06T08:40:43.523000+00:00</time>
      </trkpt>
      <trkpt lat="47.32998" lon="-1.29359">
        <ele>37</ele>
        <time>2020-12-06T08:40:44.489000+00:00</time>
      </trkpt>
      <trkpt lat="0" lon="0">
        <time>2020-12-06T08:40:44.503000+00:00</time>
      </trkpt>
      <trkpt lat="0" lon="0">
        <time>2020-12-06T08:40:44.507000+00:00</time>
      </trkpt>
      <trkpt lat="0" lon="0">
        <time>2020-12-06T08:40:44.510000+00:00</time>
      </trkpt>
      <trkpt lat="47.32996" lon="-1.2936">
        <ele>37</ele>
        <time>2020-12-06T08:40:45.511000+00:00</time>
      </trkpt>
      <trkpt lat="0" lon="0">
        <time>2020-12-06T08:40:45.518000+00:00</time>
      </trkpt>
      <trkpt lat="0" lon="0">
        <time>2020-12-06T08:40:45.522000+00:00</time>
      </trkpt>
      <trkpt lat="0" lon="0">
        <time>2020-12-06T08:40:45.525000+00:00</time>
      </trkpt>
      <trkpt lat="47.32994" lon="-1.2936">
        <ele>37</ele>
        <time>2020-12-06T08:40:46.448000+00:00</time>
      </trkpt>
      <trkpt lat="0" lon="0">
        <time>2020-12-06T08:40:46.453000+00:00</time>
      </trkpt>
      <trkpt lat="0" lon="0">
        <time>2020-12-06T08:40:46.470000+00:00</time>
      </trkpt>
      <trkpt lat="0" lon="0">
        <time>2020-12-06T08:40:46.472000+00:00</time>
      </trkpt>
      <trkpt lat="47.32992" lon="-1.29361">
        <ele>37</ele>
        <time>2020-12-06T08:40:47.529000+00:00</time>
      </trkpt>
      <trkpt lat="0" lon="0">
        <time>2020-12-06T08:40:47.533000+00:00</time>
      </trkpt>
      <trkpt lat="0" lon="0">
        <time>2020-12-06T08:40:47.537000+00:00</time>
      </trkpt>
      <trkpt lat="0" lon="0">
        <time>2020-12-06T08:40:47.539000+00:00</time>
      </trkpt>
      <trkpt lat="47.3299" lon="-1.29361">
        <ele>37</ele>
        <time>2020-12-06T08:40:48.546000+00:00</time>
      </trkpt>
      <trkpt lat="0" lon="0">
        <time>2020-12-06T08:40:48.558000+00:00</time>
      </trkpt>
      <trkpt lat="0" lon="0">
        <time>2020-12-06T08:40:48.562000+00:00</time>
      </trkpt>
      <trkpt lat="0" lon="0">
        <time>2020-12-06T08:40:48.564000+00:00</time>
      </trkpt>
      <trkpt lat="47.32988" lon="-1.29361">
        <ele>37</ele>
        <time>2020-12-06T08:40:49.512000+00:00</time>
      </trkpt>
      <trkpt lat="0" lon="0">
        <time>2020-12-06T08:40:49.517000+00:00</time>
      </trkpt>
      <trkpt lat="0" lon="0">
        <time>2020-12-06T08:40:49.519000+00:00</time>
      </trkpt>
      <trkpt lat="47.32986" lon="-1.29362">
        <ele>37</ele>
        <time>2020-12-06T08:40:50.508000+00:00</time>
      </trkpt>
      <trkpt lat="0" lon="0">
        <time>2020-12-06T08:40:50.523000+00:00</time>
      </trkpt>
      <trkpt lat="0" lon="0">
        <time>2020-12-06T08:40:50.527000+00:00</time>
      </trkpt>
      <trkpt lat="0" lon="0">
        <time>2020-12-06T08:40:50.533000+00:00</time>
      </trkpt>
      <trkpt lat="47.32984" lon="-1.29362">
        <ele>37</ele>
        <time>2020-12-06T08:40:51.531000+00:00</time>
      </trkpt>
      <trkpt lat="0" lon="0">
        <time>2020-12-06T08:40:51.534000+00:00</time>
      </trkpt>
      <trkpt lat="0" lon="0">
        <time>2020-12-06T08:40:51.538000+00:00</time>
      </trkpt>
      <trkpt lat="0" lon="0">
        <time>2020-12-06T08:40:51.539000+00:00</time>
      </trkpt>
      <trkpt lat="47.32982" lon="-1.29362">
        <ele>37</ele>
        <time>2020-12-06T08:40:52.534000+00:00</time>
      </trkpt>
      <trkpt lat="0" lon="0">
        <time>2020-12-06T08:40:52.548000+00:00</time>
      </trkpt>
      <trkpt lat="0" lon="0">
        <time>2020-12-06T08:40:52.558000+00:00</time>
      </trkpt>
      <trkpt lat="0" lon="0">
        <time>2020-12-06T08:40:52.561000+00:00</time>
      </trkpt>
      <trkpt lat="47.3298" lon="-1.29363">
        <ele>37</ele>
        <time>2020-12-06T08:40:53.553000+00:00</time>
      </trkpt>
      <trkpt lat="0" lon="0">
        <time>2020-12-06T08:40:53.557000+00:00</time>
      </trkpt>
      <trkpt lat="0" lon="0">
        <time>2020-12-06T08:40:53.561000+00:00</time>
      </trkpt>
      <trkpt lat="0" lon="0">
        <time>2020-12-06T08:40:53.562000+00:00</time>
      </trkpt>
      <trkpt lat="47.32979" lon="-1.29363">
        <ele>37</ele>
        <time>2020-12-06T08:40:54.512000+00:00</time>
      </trkpt>
      <trkpt lat="0" lon="0">
        <time>2020-12-06T08:40:54.520000+00:00</time>
      </trkpt>
      <trkpt lat="0" lon="0">
        <time>2020-12-06T08:40:54.527000+00:00</time>
      </trkpt>
      <trkpt lat="0" lon="0">
        <time>2020-12-06T08:40:54.529000+00:00</time>
      </trkpt>
      <trkpt lat="47.32977" lon="-1.29362">
        <ele>37</ele>
        <time>2020-12-06T08:40:55.491000+00:00</time>
      </trkpt>
      <trkpt lat="0" lon="0">
        <time>2020-12-06T08:40:55.514000+00:00</time>
      </trkpt>
      <trkpt lat="0" lon="0">
        <time>2020-12-06T08:40:55.519000+00:00</time>
      </trkpt>
      <trkpt lat="0" lon="0">
        <time>2020-12-06T08:40:55.521000+00:00</time>
      </trkpt>
      <trkpt lat="47.32975" lon="-1.29362">
        <ele>37</ele>
        <time>2020-12-06T08:40:56.507000+00:00</time>
      </trkpt>
      <trkpt lat="0" lon="0">
        <time>2020-12-06T08:40:56.511000+00:00</time>
      </trkpt>
      <trkpt lat="0" lon="0">
        <time>2020-12-06T08:40:56.519000+00:00</time>
      </trkpt>
      <trkpt lat="0" lon="0">
        <time>2020-12-06T08:40:56.521000+00:00</time>
      </trkpt>
      <trkpt lat="47.32973" lon="-1.29361">
        <ele>37</ele>
        <time>2020-12-06T08:40:57.505000+00:00</time>
      </trkpt>
      <trkpt lat="0" lon="0">
        <time>2020-12-06T08:40:57.509000+00:00</time>
      </trkpt>
      <trkpt lat="0" lon="0">
        <time>2020-12-06T08:40:57.511000+00:00</time>
      </trkpt>
      <trkpt lat="0" lon="0">
        <time>2020-12-06T08:40:57.512000+00:00</time>
      </trkpt>
      <trkpt lat="47.32972" lon="-1.29359">
        <ele>37</ele>
        <time>2020-12-06T08:40:58.492000+00:00</time>
      </trkpt>
      <trkpt lat="0" lon="0">
        <time>2020-12-06T08:40:58.496000+00:00</time>
      </trkpt>
      <trkpt lat="0" lon="0">
        <time>2020-12-06T08:40:58.503000+00:00</time>
      </trkpt>
      <trkpt lat="0" lon="0">
        <time>2020-12-06T08:40:58.509000+00:00</time>
      </trkpt>
      <trkpt lat="47.32971" lon="-1.29357">
        <ele>38</ele>
        <time>2020-12-06T08:40:59.506000+00:00</time>
      </trkpt>
      <trkpt lat="0" lon="0">
        <time>2020-12-06T08:40:59.515000+00:00</time>
      </trkpt>
      <trkpt lat="0" lon="0">
        <time>2020-12-06T08:40:59.516000+00:00</time>
      </trkpt>
      <trkpt lat="0" lon="0">
        <time>2020-12-06T08:40:59.517000+00:00</time>
      </trkpt>
      <trkpt lat="47.32969" lon="-1.29355">
        <ele>38</ele>
        <time>2020-12-06T08:41:00.511000+00:00</time>
      </trkpt>
      <trkpt lat="0" lon="0">
        <time>2020-12-06T08:41:00.519000+00:00</time>
      </trkpt>
      <trkpt lat="0" lon="0">
        <time>2020-12-06T08:41:00.524000+00:00</time>
      </trkpt>
      <trkpt lat="0" lon="0">
        <time>2020-12-06T08:41:00.526000+00:00</time>
      </trkpt>
      <trkpt lat="47.32968" lon="-1.29352">
        <ele>38</ele>
        <time>2020-12-06T08:41:01.539000+00:00</time>
      </trkpt>
      <trkpt lat="0" lon="0">
        <time>2020-12-06T08:41:01.548000+00:00</time>
      </trkpt>
      <trkpt lat="0" lon="0">
        <time>2020-12-06T08:41:01.558000+00:00</time>
      </trkpt>
      <trkpt lat="0" lon="0">
        <time>2020-12-06T08:41:01.564000+00:00</time>
      </trkpt>
      <trkpt lat="47.32966" lon="-1.29349">
        <ele>38</ele>
        <time>2020-12-06T08:41:02.558000+00:00</time>
      </trkpt>
      <trkpt lat="0" lon="0">
        <time>2020-12-06T08:41:02.560000+00:00</time>
      </trkpt>
      <trkpt lat="0" lon="0">
        <time>2020-12-06T08:41:02.562000+00:00</time>
      </trkpt>
      <trkpt lat="0" lon="0">
        <time>2020-12-06T08:41:02.563000+00:00</time>
      </trkpt>
      <trkpt lat="47.32963" lon="-1.29344">
        <ele>38</ele>
        <time>2020-12-06T08:41:04.509000+00:00</time>
      </trkpt>
      <trkpt lat="0" lon="0">
        <time>2020-12-06T08:41:04.513000+00:00</time>
      </trkpt>
      <trkpt lat="0" lon="0">
        <time>2020-12-06T08:41:04.526000+00:00</time>
      </trkpt>
      <trkpt lat="0" lon="0">
        <time>2020-12-06T08:41:04.531000+00:00</time>
      </trkpt>
      <trkpt lat="47.32962" lon="-1.2934">
        <ele>39</ele>
        <time>2020-12-06T08:41:05.517000+00:00</time>
      </trkpt>
      <trkpt lat="0" lon="0">
        <time>2020-12-06T08:41:05.519000+00:00</time>
      </trkpt>
      <trkpt lat="0" lon="0">
        <time>2020-12-06T08:41:05.525000+00:00</time>
      </trkpt>
      <trkpt lat="0" lon="0">
        <time>2020-12-06T08:41:05.527000+00:00</time>
      </trkpt>
      <trkpt lat="47.3296" lon="-1.29336">
        <ele>39</ele>
        <time>2020-12-06T08:41:06.493000+00:00</time>
      </trkpt>
      <trkpt lat="0" lon="0">
        <time>2020-12-06T08:41:06.501000+00:00</time>
      </trkpt>
      <trkpt lat="0" lon="0">
        <time>2020-12-06T08:41:06.510000+00:00</time>
      </trkpt>
      <trkpt lat="0" lon="0">
        <time>2020-12-06T08:41:06.515000+00:00</time>
      </trkpt>
      <trkpt lat="47.32959" lon="-1.29333">
        <ele>39</ele>
        <time>2020-12-06T08:41:07.491000+00:00</time>
      </trkpt>
      <trkpt lat="0" lon="0">
        <time>2020-12-06T08:41:07.520000+00:00</time>
      </trkpt>
      <trkpt lat="0" lon="0">
        <time>2020-12-06T08:41:07.523000+00:00</time>
      </trkpt>
      <trkpt lat="0" lon="0">
        <time>2020-12-06T08:41:07.527000+00:00</time>
      </trkpt>
      <trkpt lat="47.32957" lon="-1.29329">
        <ele>39</ele>
        <time>2020-12-06T08:41:08.504000+00:00</time>
      </trkpt>
      <trkpt lat="0" lon="0">
        <time>2020-12-06T08:41:08.513000+00:00</time>
      </trkpt>
      <trkpt lat="0" lon="0">
        <time>2020-12-06T08:41:08.516000+00:00</time>
      </trkpt>
      <trkpt lat="0" lon="0">
        <time>2020-12-06T08:41:08.517000+00:00</time>
      </trkpt>
      <trkpt lat="47.32956" lon="-1.29326">
        <ele>39</ele>
        <time>2020-12-06T08:41:09.487000+00:00</time>
      </trkpt>
      <trkpt lat="0" lon="0">
        <time>2020-12-06T08:41:09.494000+00:00</time>
      </trkpt>
      <trkpt lat="0" lon="0">
        <time>2020-12-06T08:41:09.510000+00:00</time>
      </trkpt>
      <trkpt lat="0" lon="0">
        <time>2020-12-06T08:41:09.513000+00:00</time>
      </trkpt>
      <trkpt lat="47.32955" lon="-1.29323">
        <ele>39</ele>
        <time>2020-12-06T08:41:10.490000+00:00</time>
      </trkpt>
      <trkpt lat="0" lon="0">
        <time>2020-12-06T08:41:10.493000+00:00</time>
      </trkpt>
      <trkpt lat="0" lon="0">
        <time>2020-12-06T08:41:10.499000+00:00</time>
      </trkpt>
      <trkpt lat="0" lon="0">
        <time>2020-12-06T08:41:10.502000+00:00</time>
      </trkpt>
      <trkpt lat="47.32953" lon="-1.2932">
        <ele>39</ele>
        <time>2020-12-06T08:41:11.480000+00:00</time>
      </trkpt>
      <trkpt lat="0" lon="0">
        <time>2020-12-06T08:41:11.482000+00:00</time>
      </trkpt>
      <trkpt lat="0" lon="0">
        <time>2020-12-06T08:41:11.491000+00:00</time>
      </trkpt>
      <trkpt lat="0" lon="0">
        <time>2020-12-06T08:41:11.492000+00:00</time>
      </trkpt>
      <trkpt lat="47.32952" lon="-1.29317">
        <ele>40</ele>
        <time>2020-12-06T08:41:12.502000+00:00</time>
      </trkpt>
      <trkpt lat="0" lon="0">
        <time>2020-12-06T08:41:12.517000+00:00</time>
      </trkpt>
      <trkpt lat="0" lon="0">
        <time>2020-12-06T08:41:12.526000+00:00</time>
      </trkpt>
      <trkpt lat="0" lon="0">
        <time>2020-12-06T08:41:12.528000+00:00</time>
      </trkpt>
      <trkpt lat="47.3295" lon="-1.29315">
        <ele>40</ele>
        <time>2020-12-06T08:41:13.497000+00:00</time>
      </trkpt>
      <trkpt lat="0" lon="0">
        <time>2020-12-06T08:41:13.505000+00:00</time>
      </trkpt>
      <trkpt lat="0" lon="0">
        <time>2020-12-06T08:41:13.509000+00:00</time>
      </trkpt>
      <trkpt lat="0" lon="0">
        <time>2020-12-06T08:41:13.519000+00:00</time>
      </trkpt>
      <trkpt lat="47.32949" lon="-1.29312">
        <ele>40</ele>
        <time>2020-12-06T08:41:14.517000+00:00</time>
      </trkpt>
      <trkpt lat="0" lon="0">
        <time>2020-12-06T08:41:14.521000+00:00</time>
      </trkpt>
      <trkpt lat="0" lon="0">
        <time>2020-12-06T08:41:14.526000+00:00</time>
      </trkpt>
      <trkpt lat="0" lon="0">
        <time>2020-12-06T08:41:14.535000+00:00</time>
      </trkpt>
      <trkpt lat="47.32947" lon="-1.29309">
        <ele>40</ele>
        <time>2020-12-06T08:41:15.533000+00:00</time>
      </trkpt>
      <trkpt lat="0" lon="0">
        <time>2020-12-06T08:41:15.544000+00:00</time>
      </trkpt>
      <trkpt lat="0" lon="0">
        <time>2020-12-06T08:41:15.554000+00:00</time>
      </trkpt>
      <trkpt lat="0" lon="0">
        <time>2020-12-06T08:41:15.562000+00:00</time>
      </trkpt>
      <trkpt lat="47.32945" lon="-1.29307">
        <ele>40</ele>
        <time>2020-12-06T08:41:16.525000+00:00</time>
      </trkpt>
      <trkpt lat="0" lon="0">
        <time>2020-12-06T08:41:16.538000+00:00</time>
      </trkpt>
      <trkpt lat="0" lon="0">
        <time>2020-12-06T08:41:16.543000+00:00</time>
      </trkpt>
      <trkpt lat="0" lon="0">
        <time>2020-12-06T08:41:16.545000+00:00</time>
      </trkpt>
      <trkpt lat="47.32944" lon="-1.29304">
        <ele>40</ele>
        <time>2020-12-06T08:41:17.486000+00:00</time>
      </trkpt>
      <trkpt lat="0" lon="0">
        <time>2020-12-06T08:41:17.494000+00:00</time>
      </trkpt>
      <trkpt lat="0" lon="0">
        <time>2020-12-06T08:41:17.496000+00:00</time>
      </trkpt>
      <trkpt lat="0" lon="0">
        <time>2020-12-06T08:41:17.497000+00:00</time>
      </trkpt>
      <trkpt lat="47.32942" lon="-1.29303">
        <ele>40</ele>
        <time>2020-12-06T08:41:18.528000+00:00</time>
      </trkpt>
      <trkpt lat="0" lon="0">
        <time>2020-12-06T08:41:18.536000+00:00</time>
      </trkpt>
      <trkpt lat="0" lon="0">
        <time>2020-12-06T08:41:18.542000+00:00</time>
      </trkpt>
      <trkpt lat="0" lon="0">
        <time>2020-12-06T08:41:18.543000+00:00</time>
      </trkpt>
      <trkpt lat="47.3294" lon="-1.29301">
        <ele>40</ele>
        <time>2020-12-06T08:41:19.520000+00:00</time>
      </trkpt>
      <trkpt lat="0" lon="0">
        <time>2020-12-06T08:41:19.526000+00:00</time>
      </trkpt>
      <trkpt lat="0" lon="0">
        <time>2020-12-06T08:41:19.533000+00:00</time>
      </trkpt>
      <trkpt lat="0" lon="0">
        <time>2020-12-06T08:41:19.537000+00:00</time>
      </trkpt>
      <trkpt lat="47.32937" lon="-1.293">
        <ele>40</ele>
        <time>2020-12-06T08:41:20.499000+00:00</time>
      </trkpt>
      <trkpt lat="0" lon="0">
        <time>2020-12-06T08:41:20.515000+00:00</time>
      </trkpt>
      <trkpt lat="0" lon="0">
        <time>2020-12-06T08:41:20.519000+00:00</time>
      </trkpt>
      <trkpt lat="0" lon="0">
        <time>2020-12-06T08:41:20.521000+00:00</time>
      </trkpt>
      <trkpt lat="47.32935" lon="-1.293">
        <ele>40</ele>
        <time>2020-12-06T08:41:21.495000+00:00</time>
      </trkpt>
      <trkpt lat="0" lon="0">
        <time>2020-12-06T08:41:21.503000+00:00</time>
      </trkpt>
      <trkpt lat="0" lon="0">
        <time>2020-12-06T08:41:21.509000+00:00</time>
      </trkpt>
      <trkpt lat="0" lon="0">
        <time>2020-12-06T08:41:21.511000+00:00</time>
      </trkpt>
      <trkpt lat="47.32933" lon="-1.29299">
        <ele>40</ele>
        <time>2020-12-06T08:41:22.493000+00:00</time>
      </trkpt>
      <trkpt lat="0" lon="0">
        <time>2020-12-06T08:41:22.505000+00:00</time>
      </trkpt>
      <trkpt lat="0" lon="0">
        <time>2020-12-06T08:41:22.514000+00:00</time>
      </trkpt>
      <trkpt lat="0" lon="0">
        <time>2020-12-06T08:41:22.517000+00:00</time>
      </trkpt>
      <trkpt lat="47.32931" lon="-1.29299">
        <ele>40</ele>
        <time>2020-12-06T08:41:23.519000+00:00</time>
      </trkpt>
      <trkpt lat="0" lon="0">
        <time>2020-12-06T08:41:23.534000+00:00</time>
      </trkpt>
      <trkpt lat="0" lon="0">
        <time>2020-12-06T08:41:23.538000+00:00</time>
      </trkpt>
      <trkpt lat="0" lon="0">
        <time>2020-12-06T08:41:23.541000+00:00</time>
      </trkpt>
      <trkpt lat="47.32929" lon="-1.29298">
        <ele>40</ele>
        <time>2020-12-06T08:41:24.525000+00:00</time>
      </trkpt>
      <trkpt lat="0" lon="0">
        <time>2020-12-06T08:41:24.527000+00:00</time>
      </trkpt>
      <trkpt lat="0" lon="0">
        <time>2020-12-06T08:41:24.530000+00:00</time>
      </trkpt>
      <trkpt lat="0" lon="0">
        <time>2020-12-06T08:41:24.531000+00:00</time>
      </trkpt>
      <trkpt lat="47.32926" lon="-1.29298">
        <ele>40</ele>
        <time>2020-12-06T08:41:25.499000+00:00</time>
      </trkpt>
      <trkpt lat="0" lon="0">
        <time>2020-12-06T08:41:25.508000+00:00</time>
      </trkpt>
      <trkpt lat="0" lon="0">
        <time>2020-12-06T08:41:25.512000+00:00</time>
      </trkpt>
      <trkpt lat="0" lon="0">
        <time>2020-12-06T08:41:25.514000+00:00</time>
      </trkpt>
      <trkpt lat="47.32924" lon="-1.29297">
        <ele>40</ele>
        <time>2020-12-06T08:41:26.487000+00:00</time>
      </trkpt>
      <trkpt lat="0" lon="0">
        <time>2020-12-06T08:41:26.509000+00:00</time>
      </trkpt>
      <trkpt lat="0" lon="0">
        <time>2020-12-06T08:41:26.512000+00:00</time>
      </trkpt>
      <trkpt lat="0" lon="0">
        <time>2020-12-06T08:41:26.514000+00:00</time>
      </trkpt>
      <trkpt lat="47.32922" lon="-1.29297">
        <ele>40</ele>
        <time>2020-12-06T08:41:27.504000+00:00</time>
      </trkpt>
      <trkpt lat="0" lon="0">
        <time>2020-12-06T08:41:27.507000+00:00</time>
      </trkpt>
      <trkpt lat="0" lon="0">
        <time>2020-12-06T08:41:27.517000+00:00</time>
      </trkpt>
      <trkpt lat="0" lon="0">
        <time>2020-12-06T08:41:27.519000+00:00</time>
      </trkpt>
      <trkpt lat="47.32919" lon="-1.29296">
        <ele>40</ele>
        <time>2020-12-06T08:41:28.507000+00:00</time>
      </trkpt>
      <trkpt lat="0" lon="0">
        <time>2020-12-06T08:41:28.514000+00:00</time>
      </trkpt>
      <trkpt lat="0" lon="0">
        <time>2020-12-06T08:41:28.517000+00:00</time>
      </trkpt>
      <trkpt lat="0" lon="0">
        <time>2020-12-06T08:41:28.527000+00:00</time>
      </trkpt>
      <trkpt lat="47.32916" lon="-1.29295">
        <ele>40</ele>
        <time>2020-12-06T08:41:29.514000+00:00</time>
      </trkpt>
      <trkpt lat="0" lon="0">
        <time>2020-12-06T08:41:29.523000+00:00</time>
      </trkpt>
      <trkpt lat="0" lon="0">
        <time>2020-12-06T08:41:29.529000+00:00</time>
      </trkpt>
      <trkpt lat="0" lon="0">
        <time>2020-12-06T08:41:29.535000+00:00</time>
      </trkpt>
      <trkpt lat="47.32914" lon="-1.29293">
        <ele>41</ele>
        <time>2020-12-06T08:41:30.513000+00:00</time>
      </trkpt>
      <trkpt lat="0" lon="0">
        <time>2020-12-06T08:41:30.520000+00:00</time>
      </trkpt>
      <trkpt lat="0" lon="0">
        <time>2020-12-06T08:41:30.522000+00:00</time>
      </trkpt>
      <trkpt lat="47.32911" lon="-1.29292">
        <ele>41</ele>
        <time>2020-12-06T08:41:31.510000+00:00</time>
      </trkpt>
      <trkpt lat="0" lon="0">
        <time>2020-12-06T08:41:31.515000+00:00</time>
      </trkpt>
      <trkpt lat="0" lon="0">
        <time>2020-12-06T08:41:31.525000+00:00</time>
      </trkpt>
      <trkpt lat="0" lon="0">
        <time>2020-12-06T08:41:31.529000+00:00</time>
      </trkpt>
      <trkpt lat="47.32908" lon="-1.29291">
        <ele>41</ele>
        <time>2020-12-06T08:41:32.504000+00:00</time>
      </trkpt>
      <trkpt lat="0" lon="0">
        <time>2020-12-06T08:41:32.523000+00:00</time>
      </trkpt>
      <trkpt lat="0" lon="0">
        <time>2020-12-06T08:41:32.528000+00:00</time>
      </trkpt>
      <trkpt lat="0" lon="0">
        <time>2020-12-06T08:41:32.530000+00:00</time>
      </trkpt>
      <trkpt lat="47.32906" lon="-1.29289">
        <ele>41</ele>
        <time>2020-12-06T08:41:33.502000+00:00</time>
      </trkpt>
      <trkpt lat="0" lon="0">
        <time>2020-12-06T08:41:33.521000+00:00</time>
      </trkpt>
      <trkpt lat="0" lon="0">
        <time>2020-12-06T08:41:33.524000+00:00</time>
      </trkpt>
      <trkpt lat="0" lon="0">
        <time>2020-12-06T08:41:33.526000+00:00</time>
      </trkpt>
      <trkpt lat="47.32903" lon="-1.29287">
        <ele>41</ele>
        <time>2020-12-06T08:41:34.517000+00:00</time>
      </trkpt>
      <trkpt lat="0" lon="0">
        <time>2020-12-06T08:41:34.529000+00:00</time>
      </trkpt>
      <trkpt lat="0" lon="0">
        <time>2020-12-06T08:41:34.532000+00:00</time>
      </trkpt>
      <trkpt lat="0" lon="0">
        <time>2020-12-06T08:41:34.536000+00:00</time>
      </trkpt>
      <trkpt lat="47.329" lon="-1.29285">
        <ele>41</ele>
        <time>2020-12-06T08:41:35.490000+00:00</time>
      </trkpt>
      <trkpt lat="0" lon="0">
        <time>2020-12-06T08:41:35.492000+00:00</time>
      </trkpt>
      <trkpt lat="0" lon="0">
        <time>2020-12-06T08:41:35.494000+00:00</time>
      </trkpt>
      <trkpt lat="0" lon="0">
        <time>2020-12-06T08:41:35.495000+00:00</time>
      </trkpt>
      <trkpt lat="47.32898" lon="-1.29284">
        <ele>42</ele>
        <time>2020-12-06T08:41:36.489000+00:00</time>
      </trkpt>
      <trkpt lat="0" lon="0">
        <time>2020-12-06T08:41:36.492000+00:00</time>
      </trkpt>
      <trkpt lat="0" lon="0">
        <time>2020-12-06T08:41:36.494000+00:00</time>
      </trkpt>
      <trkpt lat="0" lon="0">
        <time>2020-12-06T08:41:36.498000+00:00</time>
      </trkpt>
      <trkpt lat="47.32895" lon="-1.29282">
        <ele>42</ele>
        <time>2020-12-06T08:41:37.522000+00:00</time>
      </trkpt>
      <trkpt lat="0" lon="0">
        <time>2020-12-06T08:41:37.534000+00:00</time>
      </trkpt>
      <trkpt lat="0" lon="0">
        <time>2020-12-06T08:41:37.535000+00:00</time>
      </trkpt>
      <trkpt lat="0" lon="0">
        <time>2020-12-06T08:41:37.536000+00:00</time>
      </trkpt>
      <trkpt lat="47.32893" lon="-1.2928">
        <ele>42</ele>
        <time>2020-12-06T08:41:38.523000+00:00</time>
      </trkpt>
      <trkpt lat="0" lon="0">
        <time>2020-12-06T08:41:38.531000+00:00</time>
      </trkpt>
      <trkpt lat="0" lon="0">
        <time>2020-12-06T08:41:38.545000+00:00</time>
      </trkpt>
      <trkpt lat="0" lon="0">
        <time>2020-12-06T08:41:38.547000+00:00</time>
      </trkpt>
      <trkpt lat="47.3289" lon="-1.29278">
        <ele>42</ele>
        <time>2020-12-06T08:41:39.486000+00:00</time>
      </trkpt>
      <trkpt lat="0" lon="0">
        <time>2020-12-06T08:41:39.489000+00:00</time>
      </trkpt>
      <trkpt lat="0" lon="0">
        <time>2020-12-06T08:41:39.496000+00:00</time>
      </trkpt>
      <trkpt lat="0" lon="0">
        <time>2020-12-06T08:41:39.497000+00:00</time>
      </trkpt>
      <trkpt lat="47.32887" lon="-1.29276">
        <ele>42</ele>
        <time>2020-12-06T08:41:40.536000+00:00</time>
      </trkpt>
      <trkpt lat="0" lon="0">
        <time>2020-12-06T08:41:40.542000+00:00</time>
      </trkpt>
      <trkpt lat="0" lon="0">
        <time>2020-12-06T08:41:40.552000+00:00</time>
      </trkpt>
      <trkpt lat="0" lon="0">
        <time>2020-12-06T08:41:40.554000+00:00</time>
      </trkpt>
      <trkpt lat="47.32885" lon="-1.29275">
        <ele>42</ele>
        <time>2020-12-06T08:41:41.507000+00:00</time>
      </trkpt>
      <trkpt lat="0" lon="0">
        <time>2020-12-06T08:41:41.511000+00:00</time>
      </trkpt>
      <trkpt lat="0" lon="0">
        <time>2020-12-06T08:41:41.516000+00:00</time>
      </trkpt>
      <trkpt lat="0" lon="0">
        <time>2020-12-06T08:41:41.518000+00:00</time>
      </trkpt>
      <trkpt lat="47.32882" lon="-1.29273">
        <ele>42</ele>
        <time>2020-12-06T08:41:42.550000+00:00</time>
      </trkpt>
      <trkpt lat="0" lon="0">
        <time>2020-12-06T08:41:42.554000+00:00</time>
      </trkpt>
      <trkpt lat="0" lon="0">
        <time>2020-12-06T08:41:42.558000+00:00</time>
      </trkpt>
      <trkpt lat="0" lon="0">
        <time>2020-12-06T08:41:42.561000+00:00</time>
      </trkpt>
      <trkpt lat="47.3288" lon="-1.29271">
        <ele>43</ele>
        <time>2020-12-06T08:41:43.497000+00:00</time>
      </trkpt>
      <trkpt lat="0" lon="0">
        <time>2020-12-06T08:41:43.507000+00:00</time>
      </trkpt>
      <trkpt lat="0" lon="0">
        <time>2020-12-06T08:41:43.511000+00:00</time>
      </trkpt>
      <trkpt lat="0" lon="0">
        <time>2020-12-06T08:41:43.513000+00:00</time>
      </trkpt>
      <trkpt lat="47.32878" lon="-1.29269">
        <ele>43</ele>
        <time>2020-12-06T08:41:44.516000+00:00</time>
      </trkpt>
      <trkpt lat="0" lon="0">
        <time>2020-12-06T08:41:44.521000+00:00</time>
      </trkpt>
      <trkpt lat="0" lon="0">
        <time>2020-12-06T08:41:44.530000+00:00</time>
      </trkpt>
      <trkpt lat="0" lon="0">
        <time>2020-12-06T08:41:44.534000+00:00</time>
      </trkpt>
      <trkpt lat="47.32875" lon="-1.29268">
        <ele>43</ele>
        <time>2020-12-06T08:41:45.513000+00:00</time>
      </trkpt>
      <trkpt lat="0" lon="0">
        <time>2020-12-06T08:41:45.520000+00:00</time>
      </trkpt>
      <trkpt lat="0" lon="0">
        <time>2020-12-06T08:41:45.526000+00:00</time>
      </trkpt>
      <trkpt lat="0" lon="0">
        <time>2020-12-06T08:41:45.527000+00:00</time>
      </trkpt>
      <trkpt lat="47.32873" lon="-1.29266">
        <ele>43</ele>
        <time>2020-12-06T08:41:46.508000+00:00</time>
      </trkpt>
      <trkpt lat="0" lon="0">
        <time>2020-12-06T08:41:46.520000+00:00</time>
      </trkpt>
      <trkpt lat="0" lon="0">
        <time>2020-12-06T08:41:46.524000+00:00</time>
      </trkpt>
      <trkpt lat="0" lon="0">
        <time>2020-12-06T08:41:46.525000+00:00</time>
      </trkpt>
      <trkpt lat="47.3287" lon="-1.29264">
        <ele>43</ele>
        <time>2020-12-06T08:41:47.509000+00:00</time>
      </trkpt>
      <trkpt lat="0" lon="0">
        <time>2020-12-06T08:41:47.517000+00:00</time>
      </trkpt>
      <trkpt lat="0" lon="0">
        <time>2020-12-06T08:41:47.523000+00:00</time>
      </trkpt>
      <trkpt lat="0" lon="0">
        <time>2020-12-06T08:41:47.532000+00:00</time>
      </trkpt>
      <trkpt lat="47.32868" lon="-1.29261">
        <ele>43</ele>
        <time>2020-12-06T08:41:48.492000+00:00</time>
      </trkpt>
      <trkpt lat="0" lon="0">
        <time>2020-12-06T08:41:48.497000+00:00</time>
      </trkpt>
      <trkpt lat="0" lon="0">
        <time>2020-12-06T08:41:48.498000+00:00</time>
      </trkpt>
      <trkpt lat="0" lon="0">
        <time>2020-12-06T08:41:48.499000+00:00</time>
      </trkpt>
      <trkpt lat="47.32866" lon="-1.29258">
        <ele>44</ele>
        <time>2020-12-06T08:41:49.508000+00:00</time>
      </trkpt>
      <trkpt lat="0" lon="0">
        <time>2020-12-06T08:41:49.526000+00:00</time>
      </trkpt>
      <trkpt lat="0" lon="0">
        <time>2020-12-06T08:41:49.532000+00:00</time>
      </trkpt>
      <trkpt lat="0" lon="0">
        <time>2020-12-06T08:41:49.534000+00:00</time>
      </trkpt>
      <trkpt lat="47.32865" lon="-1.29255">
        <ele>44</ele>
        <time>2020-12-06T08:41:50.504000+00:00</time>
      </trkpt>
      <trkpt lat="0" lon="0">
        <time>2020-12-06T08:41:50.520000+00:00</time>
      </trkpt>
      <trkpt lat="0" lon="0">
        <time>2020-12-06T08:41:50.526000+00:00</time>
      </trkpt>
      <trkpt lat="0" lon="0">
        <time>2020-12-06T08:41:50.529000+00:00</time>
      </trkpt>
      <trkpt lat="47.32864" lon="-1.29252">
        <ele>44</ele>
        <time>2020-12-06T08:41:51.523000+00:00</time>
      </trkpt>
      <trkpt lat="0" lon="0">
        <time>2020-12-06T08:41:51.533000+00:00</time>
      </trkpt>
      <trkpt lat="0" lon="0">
        <time>2020-12-06T08:41:51.542000+00:00</time>
      </trkpt>
      <trkpt lat="0" lon="0">
        <time>2020-12-06T08:41:51.545000+00:00</time>
      </trkpt>
      <trkpt lat="47.32863" lon="-1.29248">
        <ele>44</ele>
        <time>2020-12-06T08:41:52.495000+00:00</time>
      </trkpt>
      <trkpt lat="0" lon="0">
        <time>2020-12-06T08:41:52.502000+00:00</time>
      </trkpt>
      <trkpt lat="0" lon="0">
        <time>2020-12-06T08:41:52.510000+00:00</time>
      </trkpt>
      <trkpt lat="0" lon="0">
        <time>2020-12-06T08:41:52.514000+00:00</time>
      </trkpt>
      <trkpt lat="47.32863" lon="-1.29244">
        <ele>45</ele>
        <time>2020-12-06T08:41:53.521000+00:00</time>
      </trkpt>
      <trkpt lat="0" lon="0">
        <time>2020-12-06T08:41:53.530000+00:00</time>
      </trkpt>
      <trkpt lat="0" lon="0">
        <time>2020-12-06T08:41:53.535000+00:00</time>
      </trkpt>
      <trkpt lat="0" lon="0">
        <time>2020-12-06T08:41:53.536000+00:00</time>
      </trkpt>
      <trkpt lat="47.32863" lon="-1.2924">
        <ele>45</ele>
        <time>2020-12-06T08:41:54.481000+00:00</time>
      </trkpt>
      <trkpt lat="0" lon="0">
        <time>2020-12-06T08:41:54.485000+00:00</time>
      </trkpt>
      <trkpt lat="0" lon="0">
        <time>2020-12-06T08:41:54.488000+00:00</time>
      </trkpt>
      <trkpt lat="0" lon="0">
        <time>2020-12-06T08:41:54.489000+00:00</time>
      </trkpt>
      <trkpt lat="47.32864" lon="-1.29236">
        <ele>45</ele>
        <time>2020-12-06T08:41:55.489000+00:00</time>
      </trkpt>
      <trkpt lat="0" lon="0">
        <time>2020-12-06T08:41:55.496000+00:00</time>
      </trkpt>
      <trkpt lat="0" lon="0">
        <time>2020-12-06T08:41:55.501000+00:00</time>
      </trkpt>
      <trkpt lat="0" lon="0">
        <time>2020-12-06T08:41:55.502000+00:00</time>
      </trkpt>
      <trkpt lat="47.32865" lon="-1.29232">
        <ele>45</ele>
        <time>2020-12-06T08:41:56.569000+00:00</time>
      </trkpt>
      <trkpt lat="0" lon="0">
        <time>2020-12-06T08:41:56.581000+00:00</time>
      </trkpt>
      <trkpt lat="0" lon="0">
        <time>2020-12-06T08:41:56.584000+00:00</time>
      </trkpt>
      <trkpt lat="0" lon="0">
        <time>2020-12-06T08:41:56.587000+00:00</time>
      </trkpt>
      <trkpt lat="47.32867" lon="-1.29228">
        <ele>45</ele>
        <time>2020-12-06T08:41:57.511000+00:00</time>
      </trkpt>
      <trkpt lat="0" lon="0">
        <time>2020-12-06T08:41:57.515000+00:00</time>
      </trkpt>
      <trkpt lat="0" lon="0">
        <time>2020-12-06T08:41:57.521000+00:00</time>
      </trkpt>
      <trkpt lat="0" lon="0">
        <time>2020-12-06T08:41:57.523000+00:00</time>
      </trkpt>
      <trkpt lat="47.32868" lon="-1.29224">
        <ele>46</ele>
        <time>2020-12-06T08:41:58.505000+00:00</time>
      </trkpt>
      <trkpt lat="0" lon="0">
        <time>2020-12-06T08:41:58.510000+00:00</time>
      </trkpt>
      <trkpt lat="0" lon="0">
        <time>2020-12-06T08:41:58.521000+00:00</time>
      </trkpt>
      <trkpt lat="0" lon="0">
        <time>2020-12-06T08:41:58.524000+00:00</time>
      </trkpt>
      <trkpt lat="47.3287" lon="-1.2922">
        <ele>46</ele>
        <time>2020-12-06T08:41:59.514000+00:00</time>
      </trkpt>
      <trkpt lat="0" lon="0">
        <time>2020-12-06T08:41:59.518000+00:00</time>
      </trkpt>
      <trkpt lat="0" lon="0">
        <time>2020-12-06T08:41:59.521000+00:00</time>
      </trkpt>
      <trkpt lat="0" lon="0">
        <time>2020-12-06T08:41:59.523000+00:00</time>
      </trkpt>
      <trkpt lat="47.32872" lon="-1.29216">
        <ele>46</ele>
        <time>2020-12-06T08:42:00.499000+00:00</time>
      </trkpt>
      <trkpt lat="0" lon="0">
        <time>2020-12-06T08:42:00.509000+00:00</time>
      </trkpt>
      <trkpt lat="0" lon="0">
        <time>2020-12-06T08:42:00.512000+00:00</time>
      </trkpt>
      <trkpt lat="0" lon="0">
        <time>2020-12-06T08:42:00.514000+00:00</time>
      </trkpt>
      <trkpt lat="47.32874" lon="-1.29213">
        <ele>46</ele>
        <time>2020-12-06T08:42:01.513000+00:00</time>
      </trkpt>
      <trkpt lat="0" lon="0">
        <time>2020-12-06T08:42:01.521000+00:00</time>
      </trkpt>
      <trkpt lat="0" lon="0">
        <time>2020-12-06T08:42:01.527000+00:00</time>
      </trkpt>
      <trkpt lat="0" lon="0">
        <time>2020-12-06T08:42:01.531000+00:00</time>
      </trkpt>
      <trkpt lat="47.32876" lon="-1.29209">
        <ele>46</ele>
        <time>2020-12-06T08:42:02.486000+00:00</time>
      </trkpt>
      <trkpt lat="0" lon="0">
        <time>2020-12-06T08:42:02.498000+00:00</time>
      </trkpt>
      <trkpt lat="0" lon="0">
        <time>2020-12-06T08:42:02.506000+00:00</time>
      </trkpt>
      <trkpt lat="0" lon="0">
        <time>2020-12-06T08:42:02.511000+00:00</time>
      </trkpt>
      <trkpt lat="47.32878" lon="-1.29205">
        <ele>47</ele>
        <time>2020-12-06T08:42:03.485000+00:00</time>
      </trkpt>
      <trkpt lat="0" lon="0">
        <time>2020-12-06T08:42:03.488000+00:00</time>
      </trkpt>
      <trkpt lat="0" lon="0">
        <time>2020-12-06T08:42:03.495000+00:00</time>
      </trkpt>
      <trkpt lat="0" lon="0">
        <time>2020-12-06T08:42:03.497000+00:00</time>
      </trkpt>
      <trkpt lat="47.32881" lon="-1.29201">
        <ele>47</ele>
        <time>2020-12-06T08:42:04.497000+00:00</time>
      </trkpt>
      <trkpt lat="0" lon="0">
        <time>2020-12-06T08:42:04.505000+00:00</time>
      </trkpt>
      <trkpt lat="0" lon="0">
        <time>2020-12-06T08:42:04.510000+00:00</time>
      </trkpt>
      <trkpt lat="0" lon="0">
        <time>2020-12-06T08:42:04.516000+00:00</time>
      </trkpt>
      <trkpt lat="47.32883" lon="-1.29197">
        <ele>47</ele>
        <time>2020-12-06T08:42:05.523000+00:00</time>
      </trkpt>
      <trkpt lat="0" lon="0">
        <time>2020-12-06T08:42:05.531000+00:00</time>
      </trkpt>
      <trkpt lat="0" lon="0">
        <time>2020-12-06T08:42:05.539000+00:00</time>
      </trkpt>
      <trkpt lat="0" lon="0">
        <time>2020-12-06T08:42:05.540000+00:00</time>
      </trkpt>
      <trkpt lat="47.32885" lon="-1.29194">
        <ele>47</ele>
        <time>2020-12-06T08:42:06.512000+00:00</time>
      </trkpt>
      <trkpt lat="0" lon="0">
        <time>2020-12-06T08:42:06.514000+00:00</time>
      </trkpt>
      <trkpt lat="0" lon="0">
        <time>2020-12-06T08:42:06.516000+00:00</time>
      </trkpt>
      <trkpt lat="0" lon="0">
        <time>2020-12-06T08:42:06.517000+00:00</time>
      </trkpt>
      <trkpt lat="47.32888" lon="-1.2919">
        <ele>47</ele>
        <time>2020-12-06T08:42:07.483000+00:00</time>
      </trkpt>
      <trkpt lat="0" lon="0">
        <time>2020-12-06T08:42:07.504000+00:00</time>
      </trkpt>
      <trkpt lat="0" lon="0">
        <time>2020-12-06T08:42:07.509000+00:00</time>
      </trkpt>
      <trkpt lat="0" lon="0">
        <time>2020-12-06T08:42:07.513000+00:00</time>
      </trkpt>
      <trkpt lat="47.3289" lon="-1.29187">
        <ele>47</ele>
        <time>2020-12-06T08:42:08.473000+00:00</time>
      </trkpt>
      <trkpt lat="0" lon="0">
        <time>2020-12-06T08:42:08.481000+00:00</time>
      </trkpt>
      <trkpt lat="0" lon="0">
        <time>2020-12-06T08:42:08.484000+00:00</time>
      </trkpt>
      <trkpt lat="0" lon="0">
        <time>2020-12-06T08:42:08.485000+00:00</time>
      </trkpt>
      <trkpt lat="47.32893" lon="-1.29184">
        <ele>47</ele>
        <time>2020-12-06T08:42:09.495000+00:00</time>
      </trkpt>
      <trkpt lat="0" lon="0">
        <time>2020-12-06T08:42:09.518000+00:00</time>
      </trkpt>
      <trkpt lat="0" lon="0">
        <time>2020-12-06T08:42:09.523000+00:00</time>
      </trkpt>
      <trkpt lat="0" lon="0">
        <time>2020-12-06T08:42:09.529000+00:00</time>
      </trkpt>
      <trkpt lat="47.32895" lon="-1.29181">
        <ele>48</ele>
        <time>2020-12-06T08:42:10.508000+00:00</time>
      </trkpt>
      <trkpt lat="0" lon="0">
        <time>2020-12-06T08:42:10.515000+00:00</time>
      </trkpt>
      <trkpt lat="0" lon="0">
        <time>2020-12-06T08:42:10.518000+00:00</time>
      </trkpt>
      <trkpt lat="0" lon="0">
        <time>2020-12-06T08:42:10.520000+00:00</time>
      </trkpt>
      <trkpt lat="47.32898" lon="-1.29178">
        <ele>48</ele>
        <time>2020-12-06T08:42:11.501000+00:00</time>
      </trkpt>
      <trkpt lat="0" lon="0">
        <time>2020-12-06T08:42:11.504000+00:00</time>
      </trkpt>
      <trkpt lat="0" lon="0">
        <time>2020-12-06T08:42:11.507000+00:00</time>
      </trkpt>
      <trkpt lat="47.32901" lon="-1.29175">
        <ele>48</ele>
        <time>2020-12-06T08:42:12.470000+00:00</time>
      </trkpt>
      <trkpt lat="0" lon="0">
        <time>2020-12-06T08:42:12.471000+00:00</time>
      </trkpt>
      <trkpt lat="0" lon="0">
        <time>2020-12-06T08:42:12.472000+00:00</time>
      </trkpt>
      <trkpt lat="47.32903" lon="-1.29171">
        <ele>48</ele>
        <time>2020-12-06T08:42:13.439000+00:00</time>
      </trkpt>
      <trkpt lat="0" lon="0">
        <time>2020-12-06T08:42:13.460000+00:00</time>
      </trkpt>
      <trkpt lat="0" lon="0">
        <time>2020-12-06T08:42:13.464000+00:00</time>
      </trkpt>
      <trkpt lat="0" lon="0">
        <time>2020-12-06T08:42:13.480000+00:00</time>
      </trkpt>
      <trkpt lat="47.32906" lon="-1.29168">
        <ele>48</ele>
        <time>2020-12-06T08:42:14.505000+00:00</time>
      </trkpt>
      <trkpt lat="0" lon="0">
        <time>2020-12-06T08:42:14.517000+00:00</time>
      </trkpt>
      <trkpt lat="0" lon="0">
        <time>2020-12-06T08:42:14.518000+00:00</time>
      </trkpt>
      <trkpt lat="0" lon="0">
        <time>2020-12-06T08:42:14.520000+00:00</time>
      </trkpt>
      <trkpt lat="47.32908" lon="-1.29165">
        <ele>48</ele>
        <time>2020-12-06T08:42:15.505000+00:00</time>
      </trkpt>
      <trkpt lat="0" lon="0">
        <time>2020-12-06T08:42:15.518000+00:00</time>
      </trkpt>
      <trkpt lat="0" lon="0">
        <time>2020-12-06T08:42:15.522000+00:00</time>
      </trkpt>
      <trkpt lat="0" lon="0">
        <time>2020-12-06T08:42:15.524000+00:00</time>
      </trkpt>
      <trkpt lat="47.3291" lon="-1.29162">
        <ele>48</ele>
        <time>2020-12-06T08:42:16.524000+00:00</time>
      </trkpt>
      <trkpt lat="0" lon="0">
        <time>2020-12-06T08:42:16.537000+00:00</time>
      </trkpt>
      <trkpt lat="0" lon="0">
        <time>2020-12-06T08:42:16.542000+00:00</time>
      </trkpt>
      <trkpt lat="0" lon="0">
        <time>2020-12-06T08:42:16.546000+00:00</time>
      </trkpt>
      <trkpt lat="47.32913" lon="-1.29158">
        <ele>48</ele>
        <time>2020-12-06T08:42:17.488000+00:00</time>
      </trkpt>
      <trkpt lat="0" lon="0">
        <time>2020-12-06T08:42:17.497000+00:00</time>
      </trkpt>
      <trkpt lat="0" lon="0">
        <time>2020-12-06T08:42:17.500000+00:00</time>
      </trkpt>
      <trkpt lat="0" lon="0">
        <time>2020-12-06T08:42:17.505000+00:00</time>
      </trkpt>
      <trkpt lat="47.32915" lon="-1.29155">
        <ele>49</ele>
        <time>2020-12-06T08:42:18.519000+00:00</time>
      </trkpt>
      <trkpt lat="0" lon="0">
        <time>2020-12-06T08:42:18.530000+00:00</time>
      </trkpt>
      <trkpt lat="0" lon="0">
        <time>2020-12-06T08:42:18.534000+00:00</time>
      </trkpt>
      <trkpt lat="0" lon="0">
        <time>2020-12-06T08:42:18.537000+00:00</time>
      </trkpt>
      <trkpt lat="47.32917" lon="-1.29151">
        <ele>49</ele>
        <time>2020-12-06T08:42:19.523000+00:00</time>
      </trkpt>
      <trkpt lat="0" lon="0">
        <time>2020-12-06T08:42:19.528000+00:00</time>
      </trkpt>
      <trkpt lat="0" lon="0">
        <time>2020-12-06T08:42:19.535000+00:00</time>
      </trkpt>
      <trkpt lat="0" lon="0">
        <time>2020-12-06T08:42:19.537000+00:00</time>
      </trkpt>
      <trkpt lat="47.32919" lon="-1.29147">
        <ele>49</ele>
        <time>2020-12-06T08:42:20.477000+00:00</time>
      </trkpt>
      <trkpt lat="0" lon="0">
        <time>2020-12-06T08:42:20.482000+00:00</time>
      </trkpt>
      <trkpt lat="0" lon="0">
        <time>2020-12-06T08:42:20.491000+00:00</time>
      </trkpt>
      <trkpt lat="0" lon="0">
        <time>2020-12-06T08:42:20.494000+00:00</time>
      </trkpt>
      <trkpt lat="47.3292" lon="-1.29142">
        <ele>50</ele>
        <time>2020-12-06T08:42:21.521000+00:00</time>
      </trkpt>
      <trkpt lat="0" lon="0">
        <time>2020-12-06T08:42:21.534000+00:00</time>
      </trkpt>
      <trkpt lat="0" lon="0">
        <time>2020-12-06T08:42:21.540000+00:00</time>
      </trkpt>
      <trkpt lat="0" lon="0">
        <time>2020-12-06T08:42:21.543000+00:00</time>
      </trkpt>
      <trkpt lat="47.32921" lon="-1.29138">
        <ele>50</ele>
        <time>2020-12-06T08:42:22.508000+00:00</time>
      </trkpt>
      <trkpt lat="0" lon="0">
        <time>2020-12-06T08:42:22.516000+00:00</time>
      </trkpt>
      <trkpt lat="0" lon="0">
        <time>2020-12-06T08:42:22.529000+00:00</time>
      </trkpt>
      <trkpt lat="0" lon="0">
        <time>2020-12-06T08:42:22.530000+00:00</time>
      </trkpt>
      <trkpt lat="47.32922" lon="-1.29134">
        <ele>50</ele>
        <time>2020-12-06T08:42:23.500000+00:00</time>
      </trkpt>
      <trkpt lat="0" lon="0">
        <time>2020-12-06T08:42:23.503000+00:00</time>
      </trkpt>
      <trkpt lat="0" lon="0">
        <time>2020-12-06T08:42:23.509000+00:00</time>
      </trkpt>
      <trkpt lat="0" lon="0">
        <time>2020-12-06T08:42:23.511000+00:00</time>
      </trkpt>
      <trkpt lat="47.32923" lon="-1.29129">
        <ele>51</ele>
        <time>2020-12-06T08:42:24.503000+00:00</time>
      </trkpt>
      <trkpt lat="0" lon="0">
        <time>2020-12-06T08:42:24.517000+00:00</time>
      </trkpt>
      <trkpt lat="0" lon="0">
        <time>2020-12-06T08:42:24.522000+00:00</time>
      </trkpt>
      <trkpt lat="0" lon="0">
        <time>2020-12-06T08:42:24.524000+00:00</time>
      </trkpt>
      <trkpt lat="47.32923" lon="-1.29125">
        <ele>51</ele>
        <time>2020-12-06T08:42:25.503000+00:00</time>
      </trkpt>
      <trkpt lat="0" lon="0">
        <time>2020-12-06T08:42:25.520000+00:00</time>
      </trkpt>
      <trkpt lat="0" lon="0">
        <time>2020-12-06T08:42:25.530000+00:00</time>
      </trkpt>
      <trkpt lat="0" lon="0">
        <time>2020-12-06T08:42:25.531000+00:00</time>
      </trkpt>
      <trkpt lat="47.32924" lon="-1.29121">
        <ele>52</ele>
        <time>2020-12-06T08:42:26.495000+00:00</time>
      </trkpt>
      <trkpt lat="0" lon="0">
        <time>2020-12-06T08:42:26.502000+00:00</time>
      </trkpt>
      <trkpt lat="0" lon="0">
        <time>2020-12-06T08:42:26.506000+00:00</time>
      </trkpt>
      <trkpt lat="0" lon="0">
        <time>2020-12-06T08:42:26.511000+00:00</time>
      </trkpt>
      <trkpt lat="47.32924" lon="-1.29116">
        <ele>52</ele>
        <time>2020-12-06T08:42:27.407000+00:00</time>
      </trkpt>
      <trkpt lat="0" lon="0">
        <time>2020-12-06T08:42:27.413000+00:00</time>
      </trkpt>
      <trkpt lat="0" lon="0">
        <time>2020-12-06T08:42:27.417000+00:00</time>
      </trkpt>
      <trkpt lat="0" lon="0">
        <time>2020-12-06T08:42:27.419000+00:00</time>
      </trkpt>
      <trkpt lat="47.32924" lon="-1.29112">
        <ele>52</ele>
        <time>2020-12-06T08:42:28.504000+00:00</time>
      </trkpt>
      <trkpt lat="0" lon="0">
        <time>2020-12-06T08:42:28.511000+00:00</time>
      </trkpt>
      <trkpt lat="0" lon="0">
        <time>2020-12-06T08:42:28.514000+00:00</time>
      </trkpt>
      <trkpt lat="0" lon="0">
        <time>2020-12-06T08:42:28.515000+00:00</time>
      </trkpt>
      <trkpt lat="47.32924" lon="-1.29108">
        <ele>53</ele>
        <time>2020-12-06T08:42:29.529000+00:00</time>
      </trkpt>
      <trkpt lat="0" lon="0">
        <time>2020-12-06T08:42:29.543000+00:00</time>
      </trkpt>
      <trkpt lat="0" lon="0">
        <time>2020-12-06T08:42:29.547000+00:00</time>
      </trkpt>
      <trkpt lat="0" lon="0">
        <time>2020-12-06T08:42:29.549000+00:00</time>
      </trkpt>
      <trkpt lat="47.32924" lon="-1.29104">
        <ele>53</ele>
        <time>2020-12-06T08:42:30.515000+00:00</time>
      </trkpt>
      <trkpt lat="0" lon="0">
        <time>2020-12-06T08:42:30.526000+00:00</time>
      </trkpt>
      <trkpt lat="0" lon="0">
        <time>2020-12-06T08:42:30.542000+00:00</time>
      </trkpt>
      <trkpt lat="0" lon="0">
        <time>2020-12-06T08:42:30.544000+00:00</time>
      </trkpt>
      <trkpt lat="47.32924" lon="-1.291">
        <ele>54</ele>
        <time>2020-12-06T08:42:31.524000+00:00</time>
      </trkpt>
      <trkpt lat="0" lon="0">
        <time>2020-12-06T08:42:31.529000+00:00</time>
      </trkpt>
      <trkpt lat="0" lon="0">
        <time>2020-12-06T08:42:31.533000+00:00</time>
      </trkpt>
      <trkpt lat="0" lon="0">
        <time>2020-12-06T08:42:31.535000+00:00</time>
      </trkpt>
      <trkpt lat="47.32925" lon="-1.29096">
        <ele>54</ele>
        <time>2020-12-06T08:42:32.548000+00:00</time>
      </trkpt>
      <trkpt lat="0" lon="0">
        <time>2020-12-06T08:42:32.553000+00:00</time>
      </trkpt>
      <trkpt lat="0" lon="0">
        <time>2020-12-06T08:42:32.558000+00:00</time>
      </trkpt>
      <trkpt lat="0" lon="0">
        <time>2020-12-06T08:42:32.561000+00:00</time>
      </trkpt>
      <trkpt lat="47.32926" lon="-1.29093">
        <ele>54</ele>
        <time>2020-12-06T08:42:33.489000+00:00</time>
      </trkpt>
      <trkpt lat="0" lon="0">
        <time>2020-12-06T08:42:33.498000+00:00</time>
      </trkpt>
      <trkpt lat="0" lon="0">
        <time>2020-12-06T08:42:33.501000+00:00</time>
      </trkpt>
      <trkpt lat="0" lon="0">
        <time>2020-12-06T08:42:33.503000+00:00</time>
      </trkpt>
      <trkpt lat="47.32927" lon="-1.29089">
        <ele>54</ele>
        <time>2020-12-06T08:42:34.483000+00:00</time>
      </trkpt>
      <trkpt lat="0" lon="0">
        <time>2020-12-06T08:42:34.495000+00:00</time>
      </trkpt>
      <trkpt lat="0" lon="0">
        <time>2020-12-06T08:42:34.505000+00:00</time>
      </trkpt>
      <trkpt lat="0" lon="0">
        <time>2020-12-06T08:42:34.507000+00:00</time>
      </trkpt>
      <trkpt lat="47.32928" lon="-1.29086">
        <ele>55</ele>
        <time>2020-12-06T08:42:35.518000+00:00</time>
      </trkpt>
      <trkpt lat="0" lon="0">
        <time>2020-12-06T08:42:35.529000+00:00</time>
      </trkpt>
      <trkpt lat="0" lon="0">
        <time>2020-12-06T08:42:35.532000+00:00</time>
      </trkpt>
      <trkpt lat="0" lon="0">
        <time>2020-12-06T08:42:35.535000+00:00</time>
      </trkpt>
      <trkpt lat="47.3293" lon="-1.29083">
        <ele>55</ele>
        <time>2020-12-06T08:42:36.508000+00:00</time>
      </trkpt>
      <trkpt lat="0" lon="0">
        <time>2020-12-06T08:42:36.518000+00:00</time>
      </trkpt>
      <trkpt lat="0" lon="0">
        <time>2020-12-06T08:42:36.526000+00:00</time>
      </trkpt>
      <trkpt lat="0" lon="0">
        <time>2020-12-06T08:42:36.529000+00:00</time>
      </trkpt>
      <trkpt lat="47.32932" lon="-1.29079">
        <ele>55</ele>
        <time>2020-12-06T08:42:37.524000+00:00</time>
      </trkpt>
      <trkpt lat="0" lon="0">
        <time>2020-12-06T08:42:37.531000+00:00</time>
      </trkpt>
      <trkpt lat="0" lon="0">
        <time>2020-12-06T08:42:37.534000+00:00</time>
      </trkpt>
      <trkpt lat="0" lon="0">
        <time>2020-12-06T08:42:37.537000+00:00</time>
      </trkpt>
      <trkpt lat="47.32934" lon="-1.29076">
        <ele>55</ele>
        <time>2020-12-06T08:42:38.525000+00:00</time>
      </trkpt>
      <trkpt lat="0" lon="0">
        <time>2020-12-06T08:42:38.533000+00:00</time>
      </trkpt>
      <trkpt lat="0" lon="0">
        <time>2020-12-06T08:42:38.538000+00:00</time>
      </trkpt>
      <trkpt lat="0" lon="0">
        <time>2020-12-06T08:42:38.540000+00:00</time>
      </trkpt>
      <trkpt lat="47.32936" lon="-1.29074">
        <ele>55</ele>
        <time>2020-12-06T08:42:39.499000+00:00</time>
      </trkpt>
      <trkpt lat="0" lon="0">
        <time>2020-12-06T08:42:39.506000+00:00</time>
      </trkpt>
      <trkpt lat="0" lon="0">
        <time>2020-12-06T08:42:39.510000+00:00</time>
      </trkpt>
      <trkpt lat="0" lon="0">
        <time>2020-12-06T08:42:39.511000+00:00</time>
      </trkpt>
      <trkpt lat="47.32938" lon="-1.29071">
        <ele>55</ele>
        <time>2020-12-06T08:42:40.514000+00:00</time>
      </trkpt>
      <trkpt lat="0" lon="0">
        <time>2020-12-06T08:42:40.520000+00:00</time>
      </trkpt>
      <trkpt lat="0" lon="0">
        <time>2020-12-06T08:42:40.534000+00:00</time>
      </trkpt>
      <trkpt lat="0" lon="0">
        <time>2020-12-06T08:42:40.538000+00:00</time>
      </trkpt>
      <trkpt lat="47.32939" lon="-1.29069">
        <ele>55</ele>
        <time>2020-12-06T08:42:41.531000+00:00</time>
      </trkpt>
      <trkpt lat="0" lon="0">
        <time>2020-12-06T08:42:41.541000+00:00</time>
      </trkpt>
      <trkpt lat="0" lon="0">
        <time>2020-12-06T08:42:41.548000+00:00</time>
      </trkpt>
      <trkpt lat="0" lon="0">
        <time>2020-12-06T08:42:41.553000+00:00</time>
      </trkpt>
      <trkpt lat="47.32941" lon="-1.29067">
        <ele>55</ele>
        <time>2020-12-06T08:42:42.504000+00:00</time>
      </trkpt>
      <trkpt lat="0" lon="0">
        <time>2020-12-06T08:42:42.521000+00:00</time>
      </trkpt>
      <trkpt lat="0" lon="0">
        <time>2020-12-06T08:42:42.524000+00:00</time>
      </trkpt>
      <trkpt lat="0" lon="0">
        <time>2020-12-06T08:42:42.526000+00:00</time>
      </trkpt>
      <trkpt lat="47.32942" lon="-1.29065">
        <ele>55</ele>
        <time>2020-12-06T08:42:43.462000+00:00</time>
      </trkpt>
      <trkpt lat="0" lon="0">
        <time>2020-12-06T08:42:43.463000+00:00</time>
      </trkpt>
      <trkpt lat="0" lon="0">
        <time>2020-12-06T08:42:43.465000+00:00</time>
      </trkpt>
      <trkpt lat="47.32943" lon="-1.29063">
        <ele>55</ele>
        <time>2020-12-06T08:42:44.486000+00:00</time>
      </trkpt>
      <trkpt lat="0" lon="0">
        <time>2020-12-06T08:42:44.506000+00:00</time>
      </trkpt>
      <trkpt lat="0" lon="0">
        <time>2020-12-06T08:42:44.509000+00:00</time>
      </trkpt>
      <trkpt lat="0" lon="0">
        <time>2020-12-06T08:42:44.511000+00:00</time>
      </trkpt>
      <trkpt lat="47.32944" lon="-1.29061">
        <ele>55</ele>
        <time>2020-12-06T08:42:45.533000+00:00</time>
      </trkpt>
      <trkpt lat="0" lon="0">
        <time>2020-12-06T08:42:45.545000+00:00</time>
      </trkpt>
      <trkpt lat="0" lon="0">
        <time>2020-12-06T08:42:45.552000+00:00</time>
      </trkpt>
      <trkpt lat="0" lon="0">
        <time>2020-12-06T08:42:45.554000+00:00</time>
      </trkpt>
      <trkpt lat="47.32946" lon="-1.29059">
        <ele>55</ele>
        <time>2020-12-06T08:42:46.473000+00:00</time>
      </trkpt>
      <trkpt lat="0" lon="0">
        <time>2020-12-06T08:42:46.486000+00:00</time>
      </trkpt>
      <trkpt lat="0" lon="0">
        <time>2020-12-06T08:42:46.495000+00:00</time>
      </trkpt>
      <trkpt lat="0" lon="0">
        <time>2020-12-06T08:42:46.497000+00:00</time>
      </trkpt>
      <trkpt lat="47.32947" lon="-1.29057">
        <ele>55</ele>
        <time>2020-12-06T08:42:47.470000+00:00</time>
      </trkpt>
      <trkpt lat="0" lon="0">
        <time>2020-12-06T08:42:47.477000+00:00</time>
      </trkpt>
      <trkpt lat="0" lon="0">
        <time>2020-12-06T08:42:47.481000+00:00</time>
      </trkpt>
      <trkpt lat="0" lon="0">
        <time>2020-12-06T08:42:47.483000+00:00</time>
      </trkpt>
      <trkpt lat="47.32948" lon="-1.29055">
        <ele>55</ele>
        <time>2020-12-06T08:42:48.488000+00:00</time>
      </trkpt>
      <trkpt lat="0" lon="0">
        <time>2020-12-06T08:42:48.497000+00:00</time>
      </trkpt>
      <trkpt lat="0" lon="0">
        <time>2020-12-06T08:42:48.505000+00:00</time>
      </trkpt>
      <trkpt lat="0" lon="0">
        <time>2020-12-06T08:42:48.507000+00:00</time>
      </trkpt>
      <trkpt lat="47.32949" lon="-1.29053">
        <ele>55</ele>
        <time>2020-12-06T08:42:49.519000+00:00</time>
      </trkpt>
      <trkpt lat="0" lon="0">
        <time>2020-12-06T08:42:49.529000+00:00</time>
      </trkpt>
      <trkpt lat="0" lon="0">
        <time>2020-12-06T08:42:49.538000+00:00</time>
      </trkpt>
      <trkpt lat="0" lon="0">
        <time>2020-12-06T08:42:49.540000+00:00</time>
      </trkpt>
      <trkpt lat="47.32951" lon="-1.29051">
        <ele>55</ele>
        <time>2020-12-06T08:42:50.512000+00:00</time>
      </trkpt>
      <trkpt lat="0" lon="0">
        <time>2020-12-06T08:42:50.518000+00:00</time>
      </trkpt>
      <trkpt lat="0" lon="0">
        <time>2020-12-06T08:42:50.522000+00:00</time>
      </trkpt>
      <trkpt lat="0" lon="0">
        <time>2020-12-06T08:42:50.525000+00:00</time>
      </trkpt>
      <trkpt lat="47.32952" lon="-1.29049">
        <ele>55</ele>
        <time>2020-12-06T08:42:51.501000+00:00</time>
      </trkpt>
      <trkpt lat="0" lon="0">
        <time>2020-12-06T08:42:51.503000+00:00</time>
      </trkpt>
      <trkpt lat="0" lon="0">
        <time>2020-12-06T08:42:51.505000+00:00</time>
      </trkpt>
      <trkpt lat="0" lon="0">
        <time>2020-12-06T08:42:51.507000+00:00</time>
      </trkpt>
      <trkpt lat="47.32954" lon="-1.29047">
        <ele>55</ele>
        <time>2020-12-06T08:42:52.515000+00:00</time>
      </trkpt>
      <trkpt lat="0" lon="0">
        <time>2020-12-06T08:42:52.537000+00:00</time>
      </trkpt>
      <trkpt lat="0" lon="0">
        <time>2020-12-06T08:42:52.541000+00:00</time>
      </trkpt>
      <trkpt lat="0" lon="0">
        <time>2020-12-06T08:42:52.545000+00:00</time>
      </trkpt>
      <trkpt lat="47.32955" lon="-1.29047">
        <ele>55</ele>
        <time>2020-12-06T08:42:53.527000+00:00</time>
      </trkpt>
      <trkpt lat="0" lon="0">
        <time>2020-12-06T08:42:53.540000+00:00</time>
      </trkpt>
      <trkpt lat="0" lon="0">
        <time>2020-12-06T08:42:53.547000+00:00</time>
      </trkpt>
      <trkpt lat="0" lon="0">
        <time>2020-12-06T08:42:53.549000+00:00</time>
      </trkpt>
      <trkpt lat="47.32955" lon="-1.29046">
        <ele>55</ele>
        <time>2020-12-06T08:42:54.494000+00:00</time>
      </trkpt>
      <trkpt lat="0" lon="0">
        <time>2020-12-06T08:42:54.506000+00:00</time>
      </trkpt>
      <trkpt lat="0" lon="0">
        <time>2020-12-06T08:42:54.514000+00:00</time>
      </trkpt>
      <trkpt lat="0" lon="0">
        <time>2020-12-06T08:42:54.517000+00:00</time>
      </trkpt>
      <trkpt lat="47.32956" lon="-1.29046">
        <ele>55</ele>
        <time>2020-12-06T08:42:55.516000+00:00</time>
      </trkpt>
      <trkpt lat="0" lon="0">
        <time>2020-12-06T08:42:55.518000+00:00</time>
      </trkpt>
      <trkpt lat="0" lon="0">
        <time>2020-12-06T08:42:55.521000+00:00</time>
      </trkpt>
      <trkpt lat="0" lon="0">
        <time>2020-12-06T08:42:55.522000+00:00</time>
      </trkpt>
      <trkpt lat="47.32956" lon="-1.29045">
        <ele>55</ele>
        <time>2020-12-06T08:42:56.486000+00:00</time>
      </trkpt>
      <trkpt lat="0" lon="0">
        <time>2020-12-06T08:42:56.494000+00:00</time>
      </trkpt>
      <trkpt lat="0" lon="0">
        <time>2020-12-06T08:42:56.499000+00:00</time>
      </trkpt>
      <trkpt lat="0" lon="0">
        <time>2020-12-06T08:42:56.502000+00:00</time>
      </trkpt>
      <trkpt lat="47.32956" lon="-1.29046">
        <ele>55</ele>
        <time>2020-12-06T08:42:57.479000+00:00</time>
      </trkpt>
      <trkpt lat="0" lon="0">
        <time>2020-12-06T08:42:57.490000+00:00</time>
      </trkpt>
      <trkpt lat="0" lon="0">
        <time>2020-12-06T08:42:57.497000+00:00</time>
      </trkpt>
      <trkpt lat="0" lon="0">
        <time>2020-12-06T08:42:57.499000+00:00</time>
      </trkpt>
      <trkpt lat="47.32956" lon="-1.29046">
        <ele>55</ele>
        <time>2020-12-06T08:42:58.527000+00:00</time>
      </trkpt>
      <trkpt lat="0" lon="0">
        <time>2020-12-06T08:42:58.535000+00:00</time>
      </trkpt>
      <trkpt lat="0" lon="0">
        <time>2020-12-06T08:42:58.545000+00:00</time>
      </trkpt>
      <trkpt lat="0" lon="0">
        <time>2020-12-06T08:42:58.547000+00:00</time>
      </trkpt>
      <trkpt lat="47.32956" lon="-1.29046">
        <ele>55</ele>
        <time>2020-12-06T08:42:59.484000+00:00</time>
      </trkpt>
      <trkpt lat="0" lon="0">
        <time>2020-12-06T08:42:59.489000+00:00</time>
      </trkpt>
      <trkpt lat="0" lon="0">
        <time>2020-12-06T08:42:59.494000+00:00</time>
      </trkpt>
      <trkpt lat="0" lon="0">
        <time>2020-12-06T08:42:59.499000+00:00</time>
      </trkpt>
      <trkpt lat="47.32956" lon="-1.29046">
        <ele>55</ele>
        <time>2020-12-06T08:43:00.486000+00:00</time>
      </trkpt>
      <trkpt lat="0" lon="0">
        <time>2020-12-06T08:43:00.504000+00:00</time>
      </trkpt>
      <trkpt lat="0" lon="0">
        <time>2020-12-06T08:43:00.515000+00:00</time>
      </trkpt>
      <trkpt lat="0" lon="0">
        <time>2020-12-06T08:43:00.517000+00:00</time>
      </trkpt>
      <trkpt lat="47.32956" lon="-1.29047">
        <ele>55</ele>
        <time>2020-12-06T08:43:01.517000+00:00</time>
      </trkpt>
      <trkpt lat="0" lon="0">
        <time>2020-12-06T08:43:01.529000+00:00</time>
      </trkpt>
      <trkpt lat="0" lon="0">
        <time>2020-12-06T08:43:01.540000+00:00</time>
      </trkpt>
      <trkpt lat="0" lon="0">
        <time>2020-12-06T08:43:01.542000+00:00</time>
      </trkpt>
      <trkpt lat="47.32955" lon="-1.29047">
        <ele>55</ele>
        <time>2020-12-06T08:43:02.485000+00:00</time>
      </trkpt>
      <trkpt lat="0" lon="0">
        <time>2020-12-06T08:43:02.490000+00:00</time>
      </trkpt>
      <trkpt lat="0" lon="0">
        <time>2020-12-06T08:43:02.493000+00:00</time>
      </trkpt>
      <trkpt lat="0" lon="0">
        <time>2020-12-06T08:43:02.509000+00:00</time>
      </trkpt>
      <trkpt lat="47.32973" lon="-1.29067">
        <ele>54</ele>
        <time>2020-12-06T08:43:03.469000+00:00</time>
      </trkpt>
      <trkpt lat="0" lon="0">
        <time>2020-12-06T08:43:03.474000+00:00</time>
      </trkpt>
      <trkpt lat="0" lon="0">
        <time>2020-12-06T08:43:03.476000+00:00</time>
      </trkpt>
      <trkpt lat="47.32977" lon="-1.29072">
        <ele>53</ele>
        <time>2020-12-06T08:43:04.485000+00:00</time>
      </trkpt>
      <trkpt lat="0" lon="0">
        <time>2020-12-06T08:43:04.495000+00:00</time>
      </trkpt>
      <trkpt lat="0" lon="0">
        <time>2020-12-06T08:43:04.501000+00:00</time>
      </trkpt>
      <trkpt lat="0" lon="0">
        <time>2020-12-06T08:43:04.503000+00:00</time>
      </trkpt>
      <trkpt lat="47.32981" lon="-1.29078">
        <ele>53</ele>
        <time>2020-12-06T08:43:05.573000+00:00</time>
      </trkpt>
      <trkpt lat="0" lon="0">
        <time>2020-12-06T08:43:05.578000+00:00</time>
      </trkpt>
      <trkpt lat="0" lon="0">
        <time>2020-12-06T08:43:05.580000+00:00</time>
      </trkpt>
      <trkpt lat="0" lon="0">
        <time>2020-12-06T08:43:05.581000+00:00</time>
      </trkpt>
      <trkpt lat="47.32985" lon="-1.29085">
        <ele>52</ele>
        <time>2020-12-06T08:43:06.553000+00:00</time>
      </trkpt>
      <trkpt lat="0" lon="0">
        <time>2020-12-06T08:43:06.561000+00:00</time>
      </trkpt>
      <trkpt lat="0" lon="0">
        <time>2020-12-06T08:43:06.564000+00:00</time>
      </trkpt>
      <trkpt lat="0" lon="0">
        <time>2020-12-06T08:43:06.566000+00:00</time>
      </trkpt>
      <trkpt lat="47.32989" lon="-1.29093">
        <ele>51</ele>
        <time>2020-12-06T08:43:07.539000+00:00</time>
      </trkpt>
      <trkpt lat="0" lon="0">
        <time>2020-12-06T08:43:07.552000+00:00</time>
      </trkpt>
      <trkpt lat="0" lon="0">
        <time>2020-12-06T08:43:07.554000+00:00</time>
      </trkpt>
      <trkpt lat="0" lon="0">
        <time>2020-12-06T08:43:07.555000+00:00</time>
      </trkpt>
      <trkpt lat="47.32994" lon="-1.29101">
        <ele>50</ele>
        <time>2020-12-06T08:43:08.537000+00:00</time>
      </trkpt>
      <trkpt lat="0" lon="0">
        <time>2020-12-06T08:43:08.541000+00:00</time>
      </trkpt>
      <trkpt lat="0" lon="0">
        <time>2020-12-06T08:43:08.554000+00:00</time>
      </trkpt>
      <trkpt lat="0" lon="0">
        <time>2020-12-06T08:43:08.555000+00:00</time>
      </trkpt>
      <trkpt lat="47.32999" lon="-1.2911">
        <ele>50</ele>
        <time>2020-12-06T08:43:09.577000+00:00</time>
      </trkpt>
      <trkpt lat="0" lon="0">
        <time>2020-12-06T08:43:09.594000+00:00</time>
      </trkpt>
      <trkpt lat="0" lon="0">
        <time>2020-12-06T08:43:09.598000+00:00</time>
      </trkpt>
      <trkpt lat="0" lon="0">
        <time>2020-12-06T08:43:09.599000+00:00</time>
      </trkpt>
      <trkpt lat="47.33005" lon="-1.29119">
        <ele>49</ele>
        <time>2020-12-06T08:43:10.569000+00:00</time>
      </trkpt>
      <trkpt lat="0" lon="0">
        <time>2020-12-06T08:43:10.583000+00:00</time>
      </trkpt>
      <trkpt lat="0" lon="0">
        <time>2020-12-06T08:43:10.587000+00:00</time>
      </trkpt>
      <trkpt lat="0" lon="0">
        <time>2020-12-06T08:43:10.588000+00:00</time>
      </trkpt>
      <trkpt lat="47.3301" lon="-1.29128">
        <ele>48</ele>
        <time>2020-12-06T08:43:11.563000+00:00</time>
      </trkpt>
      <trkpt lat="0" lon="0">
        <time>2020-12-06T08:43:11.571000+00:00</time>
      </trkpt>
      <trkpt lat="0" lon="0">
        <time>2020-12-06T08:43:11.576000+00:00</time>
      </trkpt>
      <trkpt lat="0" lon="0">
        <time>2020-12-06T08:43:11.577000+00:00</time>
      </trkpt>
      <trkpt lat="47.33016" lon="-1.29139">
        <ele>47</ele>
        <time>2020-12-06T08:43:12.514000+00:00</time>
      </trkpt>
      <trkpt lat="0" lon="0">
        <time>2020-12-06T08:43:12.526000+00:00</time>
      </trkpt>
      <trkpt lat="0" lon="0">
        <time>2020-12-06T08:43:12.537000+00:00</time>
      </trkpt>
      <trkpt lat="0" lon="0">
        <time>2020-12-06T08:43:12.539000+00:00</time>
      </trkpt>
      <trkpt lat="47.33022" lon="-1.29149">
        <ele>46</ele>
        <time>2020-12-06T08:43:13.527000+00:00</time>
      </trkpt>
      <trkpt lat="0" lon="0">
        <time>2020-12-06T08:43:13.541000+00:00</time>
      </trkpt>
      <trkpt lat="0" lon="0">
        <time>2020-12-06T08:43:13.550000+00:00</time>
      </trkpt>
      <trkpt lat="0" lon="0">
        <time>2020-12-06T08:43:13.552000+00:00</time>
      </trkpt>
      <trkpt lat="47.33029" lon="-1.29159">
        <ele>44</ele>
        <time>2020-12-06T08:43:14.508000+00:00</time>
      </trkpt>
      <trkpt lat="0" lon="0">
        <time>2020-12-06T08:43:14.527000+00:00</time>
      </trkpt>
      <trkpt lat="0" lon="0">
        <time>2020-12-06T08:43:14.531000+00:00</time>
      </trkpt>
      <trkpt lat="0" lon="0">
        <time>2020-12-06T08:43:14.535000+00:00</time>
      </trkpt>
      <trkpt lat="47.33037" lon="-1.2917">
        <ele>43</ele>
        <time>2020-12-06T08:43:15.528000+00:00</time>
      </trkpt>
      <trkpt lat="0" lon="0">
        <time>2020-12-06T08:43:15.531000+00:00</time>
      </trkpt>
      <trkpt lat="0" lon="0">
        <time>2020-12-06T08:43:15.545000+00:00</time>
      </trkpt>
      <trkpt lat="0" lon="0">
        <time>2020-12-06T08:43:15.547000+00:00</time>
      </trkpt>
      <trkpt lat="47.33044" lon="-1.2918">
        <ele>42</ele>
        <time>2020-12-06T08:43:16.518000+00:00</time>
      </trkpt>
      <trkpt lat="0" lon="0">
        <time>2020-12-06T08:43:16.534000+00:00</time>
      </trkpt>
      <trkpt lat="0" lon="0">
        <time>2020-12-06T08:43:16.542000+00:00</time>
      </trkpt>
      <trkpt lat="0" lon="0">
        <time>2020-12-06T08:43:16.544000+00:00</time>
      </trkpt>
      <trkpt lat="47.33053" lon="-1.29189">
        <ele>41</ele>
        <time>2020-12-06T08:43:17.535000+00:00</time>
      </trkpt>
      <trkpt lat="0" lon="0">
        <time>2020-12-06T08:43:17.542000+00:00</time>
      </trkpt>
      <trkpt lat="0" lon="0">
        <time>2020-12-06T08:43:17.547000+00:00</time>
      </trkpt>
      <trkpt lat="0" lon="0">
        <time>2020-12-06T08:43:17.549000+00:00</time>
      </trkpt>
      <trkpt lat="47.33061" lon="-1.29199">
        <ele>40</ele>
        <time>2020-12-06T08:43:18.531000+00:00</time>
      </trkpt>
      <trkpt lat="0" lon="0">
        <time>2020-12-06T08:43:18.534000+00:00</time>
      </trkpt>
      <trkpt lat="0" lon="0">
        <time>2020-12-06T08:43:18.543000+00:00</time>
      </trkpt>
      <trkpt lat="0" lon="0">
        <time>2020-12-06T08:43:18.546000+00:00</time>
      </trkpt>
      <trkpt lat="47.3307" lon="-1.29207">
        <ele>39</ele>
        <time>2020-12-06T08:43:19.524000+00:00</time>
      </trkpt>
      <trkpt lat="0" lon="0">
        <time>2020-12-06T08:43:19.528000+00:00</time>
      </trkpt>
      <trkpt lat="0" lon="0">
        <time>2020-12-06T08:43:19.534000+00:00</time>
      </trkpt>
      <trkpt lat="0" lon="0">
        <time>2020-12-06T08:43:19.537000+00:00</time>
      </trkpt>
      <trkpt lat="47.33079" lon="-1.29214">
        <ele>38</ele>
        <time>2020-12-06T08:43:20.455000+00:00</time>
      </trkpt>
      <trkpt lat="0" lon="0">
        <time>2020-12-06T08:43:20.458000+00:00</time>
      </trkpt>
      <trkpt lat="0" lon="0">
        <time>2020-12-06T08:43:20.472000+00:00</time>
      </trkpt>
      <trkpt lat="47.33088" lon="-1.29221">
        <ele>37</ele>
        <time>2020-12-06T08:43:21.551000+00:00</time>
      </trkpt>
      <trkpt lat="0" lon="0">
        <time>2020-12-06T08:43:21.562000+00:00</time>
      </trkpt>
      <trkpt lat="0" lon="0">
        <time>2020-12-06T08:43:21.572000+00:00</time>
      </trkpt>
      <trkpt lat="0" lon="0">
        <time>2020-12-06T08:43:21.573000+00:00</time>
      </trkpt>
      <trkpt lat="47.33096" lon="-1.29226">
        <ele>36</ele>
        <time>2020-12-06T08:43:22.566000+00:00</time>
      </trkpt>
      <trkpt lat="0" lon="0">
        <time>2020-12-06T08:43:22.579000+00:00</time>
      </trkpt>
      <trkpt lat="0" lon="0">
        <time>2020-12-06T08:43:22.585000+00:00</time>
      </trkpt>
      <trkpt lat="0" lon="0">
        <time>2020-12-06T08:43:22.594000+00:00</time>
      </trkpt>
      <trkpt lat="47.33105" lon="-1.2923">
        <ele>35</ele>
        <time>2020-12-06T08:43:23.532000+00:00</time>
      </trkpt>
      <trkpt lat="0" lon="0">
        <time>2020-12-06T08:43:23.535000+00:00</time>
      </trkpt>
      <trkpt lat="0" lon="0">
        <time>2020-12-06T08:43:23.545000+00:00</time>
      </trkpt>
      <trkpt lat="0" lon="0">
        <time>2020-12-06T08:43:23.547000+00:00</time>
      </trkpt>
      <trkpt lat="47.33113" lon="-1.29234">
        <ele>33</ele>
        <time>2020-12-06T08:43:24.567000+00:00</time>
      </trkpt>
      <trkpt lat="0" lon="0">
        <time>2020-12-06T08:43:24.574000+00:00</time>
      </trkpt>
      <trkpt lat="0" lon="0">
        <time>2020-12-06T08:43:24.578000+00:00</time>
      </trkpt>
      <trkpt lat="0" lon="0">
        <time>2020-12-06T08:43:24.580000+00:00</time>
      </trkpt>
      <trkpt lat="47.33121" lon="-1.29236">
        <ele>32</ele>
        <time>2020-12-06T08:43:25.523000+00:00</time>
      </trkpt>
      <trkpt lat="0" lon="0">
        <time>2020-12-06T08:43:25.529000+00:00</time>
      </trkpt>
      <trkpt lat="0" lon="0">
        <time>2020-12-06T08:43:25.539000+00:00</time>
      </trkpt>
      <trkpt lat="0" lon="0">
        <time>2020-12-06T08:43:25.541000+00:00</time>
      </trkpt>
      <trkpt lat="47.33128" lon="-1.29239">
        <ele>31</ele>
        <time>2020-12-06T08:43:26.485000+00:00</time>
      </trkpt>
      <trkpt lat="0" lon="0">
        <time>2020-12-06T08:43:26.496000+00:00</time>
      </trkpt>
      <trkpt lat="0" lon="0">
        <time>2020-12-06T08:43:26.501000+00:00</time>
      </trkpt>
      <trkpt lat="0" lon="0">
        <time>2020-12-06T08:43:26.507000+00:00</time>
      </trkpt>
      <trkpt lat="47.33134" lon="-1.29241">
        <ele>30</ele>
        <time>2020-12-06T08:43:27.484000+00:00</time>
      </trkpt>
      <trkpt lat="0" lon="0">
        <time>2020-12-06T08:43:27.491000+00:00</time>
      </trkpt>
      <trkpt lat="0" lon="0">
        <time>2020-12-06T08:43:27.493000+00:00</time>
      </trkpt>
      <trkpt lat="0" lon="0">
        <time>2020-12-06T08:43:27.496000+00:00</time>
      </trkpt>
      <trkpt lat="47.3314" lon="-1.29245">
        <ele>29</ele>
        <time>2020-12-06T08:43:28.487000+00:00</time>
      </trkpt>
      <trkpt lat="0" lon="0">
        <time>2020-12-06T08:43:28.497000+00:00</time>
      </trkpt>
      <trkpt lat="0" lon="0">
        <time>2020-12-06T08:43:28.500000+00:00</time>
      </trkpt>
      <trkpt lat="0" lon="0">
        <time>2020-12-06T08:43:28.502000+00:00</time>
      </trkpt>
      <trkpt lat="47.33144" lon="-1.29249">
        <ele>28</ele>
        <time>2020-12-06T08:43:29.491000+00:00</time>
      </trkpt>
      <trkpt lat="0" lon="0">
        <time>2020-12-06T08:43:29.505000+00:00</time>
      </trkpt>
      <trkpt lat="0" lon="0">
        <time>2020-12-06T08:43:29.512000+00:00</time>
      </trkpt>
      <trkpt lat="0" lon="0">
        <time>2020-12-06T08:43:29.517000+00:00</time>
      </trkpt>
      <trkpt lat="47.33148" lon="-1.29253">
        <ele>28</ele>
        <time>2020-12-06T08:43:30.473000+00:00</time>
      </trkpt>
      <trkpt lat="0" lon="0">
        <time>2020-12-06T08:43:30.483000+00:00</time>
      </trkpt>
      <trkpt lat="0" lon="0">
        <time>2020-12-06T08:43:30.489000+00:00</time>
      </trkpt>
      <trkpt lat="0" lon="0">
        <time>2020-12-06T08:43:30.494000+00:00</time>
      </trkpt>
      <trkpt lat="47.3315" lon="-1.29257">
        <ele>27</ele>
        <time>2020-12-06T08:43:31.503000+00:00</time>
      </trkpt>
      <trkpt lat="0" lon="0">
        <time>2020-12-06T08:43:31.512000+00:00</time>
      </trkpt>
      <trkpt lat="0" lon="0">
        <time>2020-12-06T08:43:31.519000+00:00</time>
      </trkpt>
      <trkpt lat="0" lon="0">
        <time>2020-12-06T08:43:31.526000+00:00</time>
      </trkpt>
      <trkpt lat="47.33153" lon="-1.2926">
        <ele>27</ele>
        <time>2020-12-06T08:43:32.444000+00:00</time>
      </trkpt>
      <trkpt lat="0" lon="0">
        <time>2020-12-06T08:43:32.453000+00:00</time>
      </trkpt>
      <trkpt lat="0" lon="0">
        <time>2020-12-06T08:43:32.456000+00:00</time>
      </trkpt>
      <trkpt lat="0" lon="0">
        <time>2020-12-06T08:43:32.459000+00:00</time>
      </trkpt>
      <trkpt lat="47.33155" lon="-1.29261">
        <ele>27</ele>
        <time>2020-12-06T08:43:33.481000+00:00</time>
      </trkpt>
      <trkpt lat="0" lon="0">
        <time>2020-12-06T08:43:33.485000+00:00</time>
      </trkpt>
      <trkpt lat="0" lon="0">
        <time>2020-12-06T08:43:33.493000+00:00</time>
      </trkpt>
      <trkpt lat="0" lon="0">
        <time>2020-12-06T08:43:33.495000+00:00</time>
      </trkpt>
      <trkpt lat="47.33157" lon="-1.29261">
        <ele>26</ele>
        <time>2020-12-06T08:43:34.481000+00:00</time>
      </trkpt>
      <trkpt lat="0" lon="0">
        <time>2020-12-06T08:43:34.487000+00:00</time>
      </trkpt>
      <trkpt lat="0" lon="0">
        <time>2020-12-06T08:43:34.491000+00:00</time>
      </trkpt>
      <trkpt lat="0" lon="0">
        <time>2020-12-06T08:43:34.493000+00:00</time>
      </trkpt>
      <trkpt lat="47.33159" lon="-1.2926">
        <ele>26</ele>
        <time>2020-12-06T08:43:35.460000+00:00</time>
      </trkpt>
      <trkpt lat="0" lon="0">
        <time>2020-12-06T08:43:35.471000+00:00</time>
      </trkpt>
      <trkpt lat="0" lon="0">
        <time>2020-12-06T08:43:35.474000+00:00</time>
      </trkpt>
      <trkpt lat="0" lon="0">
        <time>2020-12-06T08:43:35.479000+00:00</time>
      </trkpt>
      <trkpt lat="47.33161" lon="-1.29256">
        <ele>26</ele>
        <time>2020-12-06T08:43:36.521000+00:00</time>
      </trkpt>
      <trkpt lat="0" lon="0">
        <time>2020-12-06T08:43:36.528000+00:00</time>
      </trkpt>
      <trkpt lat="0" lon="0">
        <time>2020-12-06T08:43:36.530000+00:00</time>
      </trkpt>
      <trkpt lat="0" lon="0">
        <time>2020-12-06T08:43:36.534000+00:00</time>
      </trkpt>
      <trkpt lat="47.33162" lon="-1.29252">
        <ele>26</ele>
        <time>2020-12-06T08:43:37.571000+00:00</time>
      </trkpt>
      <trkpt lat="0" lon="0">
        <time>2020-12-06T08:43:37.581000+00:00</time>
      </trkpt>
      <trkpt lat="0" lon="0">
        <time>2020-12-06T08:43:37.584000+00:00</time>
      </trkpt>
      <trkpt lat="0" lon="0">
        <time>2020-12-06T08:43:37.586000+00:00</time>
      </trkpt>
      <trkpt lat="47.33164" lon="-1.29247">
        <ele>26</ele>
        <time>2020-12-06T08:43:38.562000+00:00</time>
      </trkpt>
      <trkpt lat="0" lon="0">
        <time>2020-12-06T08:43:38.583000+00:00</time>
      </trkpt>
      <trkpt lat="0" lon="0">
        <time>2020-12-06T08:43:38.587000+00:00</time>
      </trkpt>
      <trkpt lat="0" lon="0">
        <time>2020-12-06T08:43:38.591000+00:00</time>
      </trkpt>
      <trkpt lat="47.33167" lon="-1.29242">
        <ele>26</ele>
        <time>2020-12-06T08:43:39.528000+00:00</time>
      </trkpt>
      <trkpt lat="0" lon="0">
        <time>2020-12-06T08:43:39.542000+00:00</time>
      </trkpt>
      <trkpt lat="0" lon="0">
        <time>2020-12-06T08:43:39.550000+00:00</time>
      </trkpt>
      <trkpt lat="0" lon="0">
        <time>2020-12-06T08:43:39.552000+00:00</time>
      </trkpt>
      <trkpt lat="47.33169" lon="-1.29238">
        <ele>26</ele>
        <time>2020-12-06T08:43:40.571000+00:00</time>
      </trkpt>
      <trkpt lat="0" lon="0">
        <time>2020-12-06T08:43:40.582000+00:00</time>
      </trkpt>
      <trkpt lat="0" lon="0">
        <time>2020-12-06T08:43:40.586000+00:00</time>
      </trkpt>
      <trkpt lat="0" lon="0">
        <time>2020-12-06T08:43:40.588000+00:00</time>
      </trkpt>
      <trkpt lat="47.33172" lon="-1.29232">
        <ele>26</ele>
        <time>2020-12-06T08:43:41.575000+00:00</time>
      </trkpt>
      <trkpt lat="0" lon="0">
        <time>2020-12-06T08:43:41.581000+00:00</time>
      </trkpt>
      <trkpt lat="0" lon="0">
        <time>2020-12-06T08:43:41.591000+00:00</time>
      </trkpt>
      <trkpt lat="0" lon="0">
        <time>2020-12-06T08:43:41.593000+00:00</time>
      </trkpt>
      <trkpt lat="47.33174" lon="-1.29226">
        <ele>26</ele>
        <time>2020-12-06T08:43:42.553000+00:00</time>
      </trkpt>
      <trkpt lat="0" lon="0">
        <time>2020-12-06T08:43:42.560000+00:00</time>
      </trkpt>
      <trkpt lat="0" lon="0">
        <time>2020-12-06T08:43:42.563000+00:00</time>
      </trkpt>
      <trkpt lat="0" lon="0">
        <time>2020-12-06T08:43:42.565000+00:00</time>
      </trkpt>
      <trkpt lat="47.33175" lon="-1.2922">
        <ele>26</ele>
        <time>2020-12-06T08:43:43.490000+00:00</time>
      </trkpt>
      <trkpt lat="0" lon="0">
        <time>2020-12-06T08:43:43.497000+00:00</time>
      </trkpt>
      <trkpt lat="0" lon="0">
        <time>2020-12-06T08:43:43.503000+00:00</time>
      </trkpt>
      <trkpt lat="0" lon="0">
        <time>2020-12-06T08:43:43.505000+00:00</time>
      </trkpt>
      <trkpt lat="47.33176" lon="-1.29213">
        <ele>26</ele>
        <time>2020-12-06T08:43:44.504000+00:00</time>
      </trkpt>
      <trkpt lat="0" lon="0">
        <time>2020-12-06T08:43:44.511000+00:00</time>
      </trkpt>
      <trkpt lat="0" lon="0">
        <time>2020-12-06T08:43:44.518000+00:00</time>
      </trkpt>
      <trkpt lat="0" lon="0">
        <time>2020-12-06T08:43:44.521000+00:00</time>
      </trkpt>
      <trkpt lat="47.33177" lon="-1.29205">
        <ele>26</ele>
        <time>2020-12-06T08:43:45.562000+00:00</time>
      </trkpt>
      <trkpt lat="0" lon="0">
        <time>2020-12-06T08:43:45.572000+00:00</time>
      </trkpt>
      <trkpt lat="0" lon="0">
        <time>2020-12-06T08:43:45.582000+00:00</time>
      </trkpt>
      <trkpt lat="0" lon="0">
        <time>2020-12-06T08:43:45.585000+00:00</time>
      </trkpt>
      <trkpt lat="47.33177" lon="-1.29197">
        <ele>26</ele>
        <time>2020-12-06T08:43:46.534000+00:00</time>
      </trkpt>
      <trkpt lat="0" lon="0">
        <time>2020-12-06T08:43:46.539000+00:00</time>
      </trkpt>
      <trkpt lat="0" lon="0">
        <time>2020-12-06T08:43:46.542000+00:00</time>
      </trkpt>
      <trkpt lat="0" lon="0">
        <time>2020-12-06T08:43:46.544000+00:00</time>
      </trkpt>
      <trkpt lat="47.33178" lon="-1.29189">
        <ele>27</ele>
        <time>2020-12-06T08:43:47.571000+00:00</time>
      </trkpt>
      <trkpt lat="0" lon="0">
        <time>2020-12-06T08:43:47.574000+00:00</time>
      </trkpt>
      <trkpt lat="0" lon="0">
        <time>2020-12-06T08:43:47.583000+00:00</time>
      </trkpt>
      <trkpt lat="0" lon="0">
        <time>2020-12-06T08:43:47.591000+00:00</time>
      </trkpt>
      <trkpt lat="47.33178" lon="-1.29182">
        <ele>27</ele>
        <time>2020-12-06T08:43:48.522000+00:00</time>
      </trkpt>
      <trkpt lat="0" lon="0">
        <time>2020-12-06T08:43:48.538000+00:00</time>
      </trkpt>
      <trkpt lat="0" lon="0">
        <time>2020-12-06T08:43:48.545000+00:00</time>
      </trkpt>
      <trkpt lat="0" lon="0">
        <time>2020-12-06T08:43:48.549000+00:00</time>
      </trkpt>
      <trkpt lat="47.33179" lon="-1.29175">
        <ele>27</ele>
        <time>2020-12-06T08:43:49.525000+00:00</time>
      </trkpt>
      <trkpt lat="0" lon="0">
        <time>2020-12-06T08:43:49.532000+00:00</time>
      </trkpt>
      <trkpt lat="0" lon="0">
        <time>2020-12-06T08:43:49.553000+00:00</time>
      </trkpt>
      <trkpt lat="0" lon="0">
        <time>2020-12-06T08:43:49.555000+00:00</time>
      </trkpt>
      <trkpt lat="47.33181" lon="-1.29168">
        <ele>27</ele>
        <time>2020-12-06T08:43:50.527000+00:00</time>
      </trkpt>
      <trkpt lat="0" lon="0">
        <time>2020-12-06T08:43:50.535000+00:00</time>
      </trkpt>
      <trkpt lat="0" lon="0">
        <time>2020-12-06T08:43:50.543000+00:00</time>
      </trkpt>
      <trkpt lat="0" lon="0">
        <time>2020-12-06T08:43:50.545000+00:00</time>
      </trkpt>
      <trkpt lat="47.33183" lon="-1.29161">
        <ele>27</ele>
        <time>2020-12-06T08:43:51.470000+00:00</time>
      </trkpt>
      <trkpt lat="0" lon="0">
        <time>2020-12-06T08:43:51.487000+00:00</time>
      </trkpt>
      <trkpt lat="0" lon="0">
        <time>2020-12-06T08:43:51.490000+00:00</time>
      </trkpt>
      <trkpt lat="0" lon="0">
        <time>2020-12-06T08:43:51.494000+00:00</time>
      </trkpt>
      <trkpt lat="47.33186" lon="-1.29155">
        <ele>28</ele>
        <time>2020-12-06T08:43:52.486000+00:00</time>
      </trkpt>
      <trkpt lat="0" lon="0">
        <time>2020-12-06T08:43:52.499000+00:00</time>
      </trkpt>
      <trkpt lat="0" lon="0">
        <time>2020-12-06T08:43:52.503000+00:00</time>
      </trkpt>
      <trkpt lat="0" lon="0">
        <time>2020-12-06T08:43:52.505000+00:00</time>
      </trkpt>
      <trkpt lat="47.33189" lon="-1.2915">
        <ele>28</ele>
        <time>2020-12-06T08:43:53.493000+00:00</time>
      </trkpt>
      <trkpt lat="0" lon="0">
        <time>2020-12-06T08:43:53.495000+00:00</time>
      </trkpt>
      <trkpt lat="0" lon="0">
        <time>2020-12-06T08:43:53.500000+00:00</time>
      </trkpt>
      <trkpt lat="0" lon="0">
        <time>2020-12-06T08:43:53.505000+00:00</time>
      </trkpt>
      <trkpt lat="47.33192" lon="-1.29145">
        <ele>28</ele>
        <time>2020-12-06T08:43:54.481000+00:00</time>
      </trkpt>
      <trkpt lat="0" lon="0">
        <time>2020-12-06T08:43:54.486000+00:00</time>
      </trkpt>
      <trkpt lat="0" lon="0">
        <time>2020-12-06T08:43:54.494000+00:00</time>
      </trkpt>
      <trkpt lat="0" lon="0">
        <time>2020-12-06T08:43:54.496000+00:00</time>
      </trkpt>
      <trkpt lat="47.33195" lon="-1.2914">
        <ele>28</ele>
        <time>2020-12-06T08:43:55.464000+00:00</time>
      </trkpt>
      <trkpt lat="0" lon="0">
        <time>2020-12-06T08:43:55.472000+00:00</time>
      </trkpt>
      <trkpt lat="0" lon="0">
        <time>2020-12-06T08:43:55.475000+00:00</time>
      </trkpt>
      <trkpt lat="0" lon="0">
        <time>2020-12-06T08:43:55.476000+00:00</time>
      </trkpt>
      <trkpt lat="47.33198" lon="-1.29135">
        <ele>27</ele>
        <time>2020-12-06T08:43:56.465000+00:00</time>
      </trkpt>
      <trkpt lat="0" lon="0">
        <time>2020-12-06T08:43:56.473000+00:00</time>
      </trkpt>
      <trkpt lat="0" lon="0">
        <time>2020-12-06T08:43:56.481000+00:00</time>
      </trkpt>
      <trkpt lat="0" lon="0">
        <time>2020-12-06T08:43:56.483000+00:00</time>
      </trkpt>
      <trkpt lat="47.33202" lon="-1.29131">
        <ele>27</ele>
        <time>2020-12-06T08:43:57.494000+00:00</time>
      </trkpt>
      <trkpt lat="0" lon="0">
        <time>2020-12-06T08:43:57.502000+00:00</time>
      </trkpt>
      <trkpt lat="0" lon="0">
        <time>2020-12-06T08:43:57.506000+00:00</time>
      </trkpt>
      <trkpt lat="0" lon="0">
        <time>2020-12-06T08:43:57.507000+00:00</time>
      </trkpt>
      <trkpt lat="47.33205" lon="-1.29126">
        <ele>27</ele>
        <time>2020-12-06T08:43:58.465000+00:00</time>
      </trkpt>
      <trkpt lat="0" lon="0">
        <time>2020-12-06T08:43:58.474000+00:00</time>
      </trkpt>
      <trkpt lat="0" lon="0">
        <time>2020-12-06T08:43:58.478000+00:00</time>
      </trkpt>
      <trkpt lat="0" lon="0">
        <time>2020-12-06T08:43:58.479000+00:00</time>
      </trkpt>
      <trkpt lat="47.33209" lon="-1.29122">
        <ele>27</ele>
        <time>2020-12-06T08:43:59.458000+00:00</time>
      </trkpt>
      <trkpt lat="0" lon="0">
        <time>2020-12-06T08:43:59.468000+00:00</time>
      </trkpt>
      <trkpt lat="0" lon="0">
        <time>2020-12-06T08:43:59.480000+00:00</time>
      </trkpt>
      <trkpt lat="0" lon="0">
        <time>2020-12-06T08:43:59.483000+00:00</time>
      </trkpt>
      <trkpt lat="47.33213" lon="-1.29118">
        <ele>27</ele>
        <time>2020-12-06T08:44:00.427000+00:00</time>
      </trkpt>
      <trkpt lat="0" lon="0">
        <time>2020-12-06T08:44:00.439000+00:00</time>
      </trkpt>
      <trkpt lat="0" lon="0">
        <time>2020-12-06T08:44:00.445000+00:00</time>
      </trkpt>
      <trkpt lat="0" lon="0">
        <time>2020-12-06T08:44:00.446000+00:00</time>
      </trkpt>
      <trkpt lat="47.33217" lon="-1.29115">
        <ele>26</ele>
        <time>2020-12-06T08:44:01.529000+00:00</time>
      </trkpt>
      <trkpt lat="0" lon="0">
        <time>2020-12-06T08:44:01.544000+00:00</time>
      </trkpt>
      <trkpt lat="0" lon="0">
        <time>2020-12-06T08:44:01.550000+00:00</time>
      </trkpt>
      <trkpt lat="0" lon="0">
        <time>2020-12-06T08:44:01.557000+00:00</time>
      </trkpt>
      <trkpt lat="47.33221" lon="-1.29112">
        <ele>26</ele>
        <time>2020-12-06T08:44:02.519000+00:00</time>
      </trkpt>
      <trkpt lat="0" lon="0">
        <time>2020-12-06T08:44:02.529000+00:00</time>
      </trkpt>
      <trkpt lat="0" lon="0">
        <time>2020-12-06T08:44:02.545000+00:00</time>
      </trkpt>
      <trkpt lat="0" lon="0">
        <time>2020-12-06T08:44:02.549000+00:00</time>
      </trkpt>
      <trkpt lat="47.33225" lon="-1.29108">
        <ele>25</ele>
        <time>2020-12-06T08:44:03.522000+00:00</time>
      </trkpt>
      <trkpt lat="0" lon="0">
        <time>2020-12-06T08:44:03.527000+00:00</time>
      </trkpt>
      <trkpt lat="0" lon="0">
        <time>2020-12-06T08:44:03.534000+00:00</time>
      </trkpt>
      <trkpt lat="0" lon="0">
        <time>2020-12-06T08:44:03.542000+00:00</time>
      </trkpt>
      <trkpt lat="47.3323" lon="-1.29105">
        <ele>25</ele>
        <time>2020-12-06T08:44:04.530000+00:00</time>
      </trkpt>
      <trkpt lat="0" lon="0">
        <time>2020-12-06T08:44:04.542000+00:00</time>
      </trkpt>
      <trkpt lat="0" lon="0">
        <time>2020-12-06T08:44:04.552000+00:00</time>
      </trkpt>
      <trkpt lat="0" lon="0">
        <time>2020-12-06T08:44:04.559000+00:00</time>
      </trkpt>
      <trkpt lat="47.33234" lon="-1.29101">
        <ele>25</ele>
        <time>2020-12-06T08:44:05.529000+00:00</time>
      </trkpt>
      <trkpt lat="0" lon="0">
        <time>2020-12-06T08:44:05.540000+00:00</time>
      </trkpt>
      <trkpt lat="0" lon="0">
        <time>2020-12-06T08:44:05.542000+00:00</time>
      </trkpt>
      <trkpt lat="0" lon="0">
        <time>2020-12-06T08:44:05.543000+00:00</time>
      </trkpt>
      <trkpt lat="47.33239" lon="-1.29098">
        <ele>24</ele>
        <time>2020-12-06T08:44:06.557000+00:00</time>
      </trkpt>
      <trkpt lat="0" lon="0">
        <time>2020-12-06T08:44:06.561000+00:00</time>
      </trkpt>
      <trkpt lat="0" lon="0">
        <time>2020-12-06T08:44:06.565000+00:00</time>
      </trkpt>
      <trkpt lat="0" lon="0">
        <time>2020-12-06T08:44:06.567000+00:00</time>
      </trkpt>
      <trkpt lat="47.33243" lon="-1.29094">
        <ele>24</ele>
        <time>2020-12-06T08:44:07.517000+00:00</time>
      </trkpt>
      <trkpt lat="0" lon="0">
        <time>2020-12-06T08:44:07.527000+00:00</time>
      </trkpt>
      <trkpt lat="0" lon="0">
        <time>2020-12-06T08:44:07.537000+00:00</time>
      </trkpt>
      <trkpt lat="0" lon="0">
        <time>2020-12-06T08:44:07.539000+00:00</time>
      </trkpt>
      <trkpt lat="47.33248" lon="-1.2909">
        <ele>23</ele>
        <time>2020-12-06T08:44:08.561000+00:00</time>
      </trkpt>
      <trkpt lat="0" lon="0">
        <time>2020-12-06T08:44:08.571000+00:00</time>
      </trkpt>
      <trkpt lat="0" lon="0">
        <time>2020-12-06T08:44:08.577000+00:00</time>
      </trkpt>
      <trkpt lat="0" lon="0">
        <time>2020-12-06T08:44:08.582000+00:00</time>
      </trkpt>
      <trkpt lat="47.33253" lon="-1.29086">
        <ele>23</ele>
        <time>2020-12-06T08:44:09.531000+00:00</time>
      </trkpt>
      <trkpt lat="0" lon="0">
        <time>2020-12-06T08:44:09.534000+00:00</time>
      </trkpt>
      <trkpt lat="0" lon="0">
        <time>2020-12-06T08:44:09.542000+00:00</time>
      </trkpt>
      <trkpt lat="0" lon="0">
        <time>2020-12-06T08:44:09.546000+00:00</time>
      </trkpt>
      <trkpt lat="47.33257" lon="-1.29082">
        <ele>23</ele>
        <time>2020-12-06T08:44:10.471000+00:00</time>
      </trkpt>
      <trkpt lat="0" lon="0">
        <time>2020-12-06T08:44:10.475000+00:00</time>
      </trkpt>
      <trkpt lat="0" lon="0">
        <time>2020-12-06T08:44:10.478000+00:00</time>
      </trkpt>
      <trkpt lat="0" lon="0">
        <time>2020-12-06T08:44:10.480000+00:00</time>
      </trkpt>
      <trkpt lat="47.33261" lon="-1.29078">
        <ele>23</ele>
        <time>2020-12-06T08:44:11.505000+00:00</time>
      </trkpt>
      <trkpt lat="0" lon="0">
        <time>2020-12-06T08:44:11.511000+00:00</time>
      </trkpt>
      <trkpt lat="0" lon="0">
        <time>2020-12-06T08:44:11.513000+00:00</time>
      </trkpt>
      <trkpt lat="47.33265" lon="-1.29073">
        <ele>23</ele>
        <time>2020-12-06T08:44:12.503000+00:00</time>
      </trkpt>
      <trkpt lat="0" lon="0">
        <time>2020-12-06T08:44:12.512000+00:00</time>
      </trkpt>
      <trkpt lat="0" lon="0">
        <time>2020-12-06T08:44:12.515000+00:00</time>
      </trkpt>
      <trkpt lat="0" lon="0">
        <time>2020-12-06T08:44:12.518000+00:00</time>
      </trkpt>
      <trkpt lat="47.33269" lon="-1.29069">
        <ele>23</ele>
        <time>2020-12-06T08:44:13.509000+00:00</time>
      </trkpt>
      <trkpt lat="0" lon="0">
        <time>2020-12-06T08:44:13.513000+00:00</time>
      </trkpt>
      <trkpt lat="0" lon="0">
        <time>2020-12-06T08:44:13.518000+00:00</time>
      </trkpt>
      <trkpt lat="0" lon="0">
        <time>2020-12-06T08:44:13.520000+00:00</time>
      </trkpt>
      <trkpt lat="47.33274" lon="-1.29064">
        <ele>23</ele>
        <time>2020-12-06T08:44:14.504000+00:00</time>
      </trkpt>
      <trkpt lat="0" lon="0">
        <time>2020-12-06T08:44:14.509000+00:00</time>
      </trkpt>
      <trkpt lat="0" lon="0">
        <time>2020-12-06T08:44:14.516000+00:00</time>
      </trkpt>
      <trkpt lat="0" lon="0">
        <time>2020-12-06T08:44:14.519000+00:00</time>
      </trkpt>
      <trkpt lat="47.33278" lon="-1.29058">
        <ele>23</ele>
        <time>2020-12-06T08:44:15.519000+00:00</time>
      </trkpt>
      <trkpt lat="0" lon="0">
        <time>2020-12-06T08:44:15.529000+00:00</time>
      </trkpt>
      <trkpt lat="0" lon="0">
        <time>2020-12-06T08:44:15.535000+00:00</time>
      </trkpt>
      <trkpt lat="0" lon="0">
        <time>2020-12-06T08:44:15.538000+00:00</time>
      </trkpt>
      <trkpt lat="47.33282" lon="-1.29053">
        <ele>23</ele>
        <time>2020-12-06T08:44:16.505000+00:00</time>
      </trkpt>
      <trkpt lat="0" lon="0">
        <time>2020-12-06T08:44:16.518000+00:00</time>
      </trkpt>
      <trkpt lat="0" lon="0">
        <time>2020-12-06T08:44:16.522000+00:00</time>
      </trkpt>
      <trkpt lat="0" lon="0">
        <time>2020-12-06T08:44:16.524000+00:00</time>
      </trkpt>
      <trkpt lat="47.33286" lon="-1.29047">
        <ele>23</ele>
        <time>2020-12-06T08:44:17.450000+00:00</time>
      </trkpt>
      <trkpt lat="0" lon="0">
        <time>2020-12-06T08:44:17.455000+00:00</time>
      </trkpt>
      <trkpt lat="0" lon="0">
        <time>2020-12-06T08:44:17.459000+00:00</time>
      </trkpt>
      <trkpt lat="0" lon="0">
        <time>2020-12-06T08:44:17.462000+00:00</time>
      </trkpt>
      <trkpt lat="47.3329" lon="-1.2904">
        <ele>23</ele>
        <time>2020-12-06T08:44:18.476000+00:00</time>
      </trkpt>
      <trkpt lat="0" lon="0">
        <time>2020-12-06T08:44:18.482000+00:00</time>
      </trkpt>
      <trkpt lat="0" lon="0">
        <time>2020-12-06T08:44:18.487000+00:00</time>
      </trkpt>
      <trkpt lat="0" lon="0">
        <time>2020-12-06T08:44:18.490000+00:00</time>
      </trkpt>
      <trkpt lat="47.33295" lon="-1.29033">
        <ele>24</ele>
        <time>2020-12-06T08:44:19.455000+00:00</time>
      </trkpt>
      <trkpt lat="0" lon="0">
        <time>2020-12-06T08:44:19.457000+00:00</time>
      </trkpt>
      <trkpt lat="0" lon="0">
        <time>2020-12-06T08:44:19.462000+00:00</time>
      </trkpt>
      <trkpt lat="0" lon="0">
        <time>2020-12-06T08:44:19.465000+00:00</time>
      </trkpt>
      <trkpt lat="47.33299" lon="-1.29026">
        <ele>24</ele>
        <time>2020-12-06T08:44:20.510000+00:00</time>
      </trkpt>
      <trkpt lat="0" lon="0">
        <time>2020-12-06T08:44:20.530000+00:00</time>
      </trkpt>
      <trkpt lat="0" lon="0">
        <time>2020-12-06T08:44:20.534000+00:00</time>
      </trkpt>
      <trkpt lat="0" lon="0">
        <time>2020-12-06T08:44:20.536000+00:00</time>
      </trkpt>
      <trkpt lat="47.33304" lon="-1.29019">
        <ele>24</ele>
        <time>2020-12-06T08:44:21.493000+00:00</time>
      </trkpt>
      <trkpt lat="0" lon="0">
        <time>2020-12-06T08:44:21.501000+00:00</time>
      </trkpt>
      <trkpt lat="0" lon="0">
        <time>2020-12-06T08:44:21.507000+00:00</time>
      </trkpt>
      <trkpt lat="0" lon="0">
        <time>2020-12-06T08:44:21.511000+00:00</time>
      </trkpt>
      <trkpt lat="47.33308" lon="-1.29011">
        <ele>25</ele>
        <time>2020-12-06T08:44:22.449000+00:00</time>
      </trkpt>
      <trkpt lat="0" lon="0">
        <time>2020-12-06T08:44:22.464000+00:00</time>
      </trkpt>
      <trkpt lat="0" lon="0">
        <time>2020-12-06T08:44:22.472000+00:00</time>
      </trkpt>
      <trkpt lat="0" lon="0">
        <time>2020-12-06T08:44:22.475000+00:00</time>
      </trkpt>
      <trkpt lat="47.33313" lon="-1.29003">
        <ele>25</ele>
        <time>2020-12-06T08:44:23.455000+00:00</time>
      </trkpt>
      <trkpt lat="0" lon="0">
        <time>2020-12-06T08:44:23.458000+00:00</time>
      </trkpt>
      <trkpt lat="0" lon="0">
        <time>2020-12-06T08:44:23.471000+00:00</time>
      </trkpt>
      <trkpt lat="0" lon="0">
        <time>2020-12-06T08:44:23.473000+00:00</time>
      </trkpt>
      <trkpt lat="47.33317" lon="-1.28995">
        <ele>26</ele>
        <time>2020-12-06T08:44:24.463000+00:00</time>
      </trkpt>
      <trkpt lat="0" lon="0">
        <time>2020-12-06T08:44:24.481000+00:00</time>
      </trkpt>
      <trkpt lat="0" lon="0">
        <time>2020-12-06T08:44:24.487000+00:00</time>
      </trkpt>
      <trkpt lat="0" lon="0">
        <time>2020-12-06T08:44:24.488000+00:00</time>
      </trkpt>
      <trkpt lat="47.33321" lon="-1.28987">
        <ele>26</ele>
        <time>2020-12-06T08:44:25.481000+00:00</time>
      </trkpt>
      <trkpt lat="0" lon="0">
        <time>2020-12-06T08:44:25.490000+00:00</time>
      </trkpt>
      <trkpt lat="0" lon="0">
        <time>2020-12-06T08:44:25.493000+00:00</time>
      </trkpt>
      <trkpt lat="0" lon="0">
        <time>2020-12-06T08:44:25.495000+00:00</time>
      </trkpt>
      <trkpt lat="47.33326" lon="-1.28979">
        <ele>27</ele>
        <time>2020-12-06T08:44:26.477000+00:00</time>
      </trkpt>
      <trkpt lat="0" lon="0">
        <time>2020-12-06T08:44:26.485000+00:00</time>
      </trkpt>
      <trkpt lat="0" lon="0">
        <time>2020-12-06T08:44:26.495000+00:00</time>
      </trkpt>
      <trkpt lat="0" lon="0">
        <time>2020-12-06T08:44:26.497000+00:00</time>
      </trkpt>
      <trkpt lat="47.3333" lon="-1.28971">
        <ele>28</ele>
        <time>2020-12-06T08:44:27.470000+00:00</time>
      </trkpt>
      <trkpt lat="0" lon="0">
        <time>2020-12-06T08:44:27.482000+00:00</time>
      </trkpt>
      <trkpt lat="0" lon="0">
        <time>2020-12-06T08:44:27.486000+00:00</time>
      </trkpt>
      <trkpt lat="0" lon="0">
        <time>2020-12-06T08:44:27.489000+00:00</time>
      </trkpt>
      <trkpt lat="47.33334" lon="-1.28963">
        <ele>28</ele>
        <time>2020-12-06T08:44:28.475000+00:00</time>
      </trkpt>
      <trkpt lat="0" lon="0">
        <time>2020-12-06T08:44:28.478000+00:00</time>
      </trkpt>
      <trkpt lat="0" lon="0">
        <time>2020-12-06T08:44:28.491000+00:00</time>
      </trkpt>
      <trkpt lat="0" lon="0">
        <time>2020-12-06T08:44:28.493000+00:00</time>
      </trkpt>
      <trkpt lat="47.33337" lon="-1.28955">
        <ele>29</ele>
        <time>2020-12-06T08:44:29.502000+00:00</time>
      </trkpt>
      <trkpt lat="0" lon="0">
        <time>2020-12-06T08:44:29.507000+00:00</time>
      </trkpt>
      <trkpt lat="0" lon="0">
        <time>2020-12-06T08:44:29.516000+00:00</time>
      </trkpt>
      <trkpt lat="0" lon="0">
        <time>2020-12-06T08:44:29.522000+00:00</time>
      </trkpt>
      <trkpt lat="47.33341" lon="-1.28947">
        <ele>29</ele>
        <time>2020-12-06T08:44:30.481000+00:00</time>
      </trkpt>
      <trkpt lat="0" lon="0">
        <time>2020-12-06T08:44:30.490000+00:00</time>
      </trkpt>
      <trkpt lat="0" lon="0">
        <time>2020-12-06T08:44:30.494000+00:00</time>
      </trkpt>
      <trkpt lat="0" lon="0">
        <time>2020-12-06T08:44:30.496000+00:00</time>
      </trkpt>
      <trkpt lat="47.33345" lon="-1.2894">
        <ele>29</ele>
        <time>2020-12-06T08:44:31.498000+00:00</time>
      </trkpt>
      <trkpt lat="0" lon="0">
        <time>2020-12-06T08:44:31.504000+00:00</time>
      </trkpt>
      <trkpt lat="0" lon="0">
        <time>2020-12-06T08:44:31.511000+00:00</time>
      </trkpt>
      <trkpt lat="0" lon="0">
        <time>2020-12-06T08:44:31.513000+00:00</time>
      </trkpt>
      <trkpt lat="47.33349" lon="-1.28932">
        <ele>29</ele>
        <time>2020-12-06T08:44:32.481000+00:00</time>
      </trkpt>
      <trkpt lat="0" lon="0">
        <time>2020-12-06T08:44:32.489000+00:00</time>
      </trkpt>
      <trkpt lat="0" lon="0">
        <time>2020-12-06T08:44:32.495000+00:00</time>
      </trkpt>
      <trkpt lat="0" lon="0">
        <time>2020-12-06T08:44:32.497000+00:00</time>
      </trkpt>
      <trkpt lat="47.33352" lon="-1.28925">
        <ele>29</ele>
        <time>2020-12-06T08:44:33.480000+00:00</time>
      </trkpt>
      <trkpt lat="0" lon="0">
        <time>2020-12-06T08:44:33.498000+00:00</time>
      </trkpt>
      <trkpt lat="0" lon="0">
        <time>2020-12-06T08:44:33.505000+00:00</time>
      </trkpt>
      <trkpt lat="0" lon="0">
        <time>2020-12-06T08:44:33.508000+00:00</time>
      </trkpt>
      <trkpt lat="47.33356" lon="-1.28918">
        <ele>29</ele>
        <time>2020-12-06T08:44:34.504000+00:00</time>
      </trkpt>
      <trkpt lat="0" lon="0">
        <time>2020-12-06T08:44:34.512000+00:00</time>
      </trkpt>
      <trkpt lat="0" lon="0">
        <time>2020-12-06T08:44:34.515000+00:00</time>
      </trkpt>
      <trkpt lat="0" lon="0">
        <time>2020-12-06T08:44:34.517000+00:00</time>
      </trkpt>
      <trkpt lat="47.3336" lon="-1.28911">
        <ele>29</ele>
        <time>2020-12-06T08:44:35.498000+00:00</time>
      </trkpt>
      <trkpt lat="0" lon="0">
        <time>2020-12-06T08:44:35.505000+00:00</time>
      </trkpt>
      <trkpt lat="0" lon="0">
        <time>2020-12-06T08:44:35.508000+00:00</time>
      </trkpt>
      <trkpt lat="0" lon="0">
        <time>2020-12-06T08:44:35.512000+00:00</time>
      </trkpt>
      <trkpt lat="47.33363" lon="-1.28904">
        <ele>29</ele>
        <time>2020-12-06T08:44:36.465000+00:00</time>
      </trkpt>
      <trkpt lat="0" lon="0">
        <time>2020-12-06T08:44:36.481000+00:00</time>
      </trkpt>
      <trkpt lat="0" lon="0">
        <time>2020-12-06T08:44:36.487000+00:00</time>
      </trkpt>
      <trkpt lat="0" lon="0">
        <time>2020-12-06T08:44:36.492000+00:00</time>
      </trkpt>
      <trkpt lat="47.33367" lon="-1.28898">
        <ele>29</ele>
        <time>2020-12-06T08:44:37.483000+00:00</time>
      </trkpt>
      <trkpt lat="0" lon="0">
        <time>2020-12-06T08:44:37.486000+00:00</time>
      </trkpt>
      <trkpt lat="0" lon="0">
        <time>2020-12-06T08:44:37.500000+00:00</time>
      </trkpt>
      <trkpt lat="0" lon="0">
        <time>2020-12-06T08:44:37.505000+00:00</time>
      </trkpt>
      <trkpt lat="47.3337" lon="-1.28892">
        <ele>29</ele>
        <time>2020-12-06T08:44:38.490000+00:00</time>
      </trkpt>
      <trkpt lat="0" lon="0">
        <time>2020-12-06T08:44:38.498000+00:00</time>
      </trkpt>
      <trkpt lat="0" lon="0">
        <time>2020-12-06T08:44:38.501000+00:00</time>
      </trkpt>
      <trkpt lat="0" lon="0">
        <time>2020-12-06T08:44:38.504000+00:00</time>
      </trkpt>
      <trkpt lat="47.33374" lon="-1.28886">
        <ele>29</ele>
        <time>2020-12-06T08:44:39.518000+00:00</time>
      </trkpt>
      <trkpt lat="0" lon="0">
        <time>2020-12-06T08:44:39.521000+00:00</time>
      </trkpt>
      <trkpt lat="0" lon="0">
        <time>2020-12-06T08:44:39.524000+00:00</time>
      </trkpt>
      <trkpt lat="47.33377" lon="-1.2888">
        <ele>29</ele>
        <time>2020-12-06T08:44:40.483000+00:00</time>
      </trkpt>
      <trkpt lat="0" lon="0">
        <time>2020-12-06T08:44:40.487000+00:00</time>
      </trkpt>
      <trkpt lat="0" lon="0">
        <time>2020-12-06T08:44:40.494000+00:00</time>
      </trkpt>
      <trkpt lat="0" lon="0">
        <time>2020-12-06T08:44:40.495000+00:00</time>
      </trkpt>
      <trkpt lat="47.3338" lon="-1.28874">
        <ele>29</ele>
        <time>2020-12-06T08:44:41.503000+00:00</time>
      </trkpt>
      <trkpt lat="0" lon="0">
        <time>2020-12-06T08:44:41.519000+00:00</time>
      </trkpt>
      <trkpt lat="0" lon="0">
        <time>2020-12-06T08:44:41.522000+00:00</time>
      </trkpt>
      <trkpt lat="0" lon="0">
        <time>2020-12-06T08:44:41.524000+00:00</time>
      </trkpt>
      <trkpt lat="47.33383" lon="-1.28869">
        <ele>29</ele>
        <time>2020-12-06T08:44:42.498000+00:00</time>
      </trkpt>
      <trkpt lat="0" lon="0">
        <time>2020-12-06T08:44:42.502000+00:00</time>
      </trkpt>
      <trkpt lat="0" lon="0">
        <time>2020-12-06T08:44:42.506000+00:00</time>
      </trkpt>
      <trkpt lat="0" lon="0">
        <time>2020-12-06T08:44:42.510000+00:00</time>
      </trkpt>
      <trkpt lat="47.33387" lon="-1.28863">
        <ele>29</ele>
        <time>2020-12-06T08:44:43.486000+00:00</time>
      </trkpt>
      <trkpt lat="0" lon="0">
        <time>2020-12-06T08:44:43.501000+00:00</time>
      </trkpt>
      <trkpt lat="0" lon="0">
        <time>2020-12-06T08:44:43.505000+00:00</time>
      </trkpt>
      <trkpt lat="0" lon="0">
        <time>2020-12-06T08:44:43.507000+00:00</time>
      </trkpt>
      <trkpt lat="47.33389" lon="-1.28858">
        <ele>29</ele>
        <time>2020-12-06T08:44:44.503000+00:00</time>
      </trkpt>
      <trkpt lat="0" lon="0">
        <time>2020-12-06T08:44:44.516000+00:00</time>
      </trkpt>
      <trkpt lat="0" lon="0">
        <time>2020-12-06T08:44:44.520000+00:00</time>
      </trkpt>
      <trkpt lat="0" lon="0">
        <time>2020-12-06T08:44:44.522000+00:00</time>
      </trkpt>
      <trkpt lat="47.33392" lon="-1.28853">
        <ele>29</ele>
        <time>2020-12-06T08:44:45.495000+00:00</time>
      </trkpt>
      <trkpt lat="0" lon="0">
        <time>2020-12-06T08:44:45.498000+00:00</time>
      </trkpt>
      <trkpt lat="0" lon="0">
        <time>2020-12-06T08:44:45.501000+00:00</time>
      </trkpt>
      <trkpt lat="0" lon="0">
        <time>2020-12-06T08:44:45.502000+00:00</time>
      </trkpt>
      <trkpt lat="47.33395" lon="-1.28848">
        <ele>29</ele>
        <time>2020-12-06T08:44:46.478000+00:00</time>
      </trkpt>
      <trkpt lat="0" lon="0">
        <time>2020-12-06T08:44:46.490000+00:00</time>
      </trkpt>
      <trkpt lat="0" lon="0">
        <time>2020-12-06T08:44:46.495000+00:00</time>
      </trkpt>
      <trkpt lat="0" lon="0">
        <time>2020-12-06T08:44:46.505000+00:00</time>
      </trkpt>
      <trkpt lat="47.33397" lon="-1.28842">
        <ele>30</ele>
        <time>2020-12-06T08:44:47.456000+00:00</time>
      </trkpt>
      <trkpt lat="0" lon="0">
        <time>2020-12-06T08:44:47.463000+00:00</time>
      </trkpt>
      <trkpt lat="0" lon="0">
        <time>2020-12-06T08:44:47.469000+00:00</time>
      </trkpt>
      <trkpt lat="0" lon="0">
        <time>2020-12-06T08:44:47.473000+00:00</time>
      </trkpt>
      <trkpt lat="47.334" lon="-1.28836">
        <ele>30</ele>
        <time>2020-12-06T08:44:48.499000+00:00</time>
      </trkpt>
      <trkpt lat="0" lon="0">
        <time>2020-12-06T08:44:48.508000+00:00</time>
      </trkpt>
      <trkpt lat="0" lon="0">
        <time>2020-12-06T08:44:48.512000+00:00</time>
      </trkpt>
      <trkpt lat="0" lon="0">
        <time>2020-12-06T08:44:48.514000+00:00</time>
      </trkpt>
      <trkpt lat="47.33402" lon="-1.2883">
        <ele>30</ele>
        <time>2020-12-06T08:44:49.511000+00:00</time>
      </trkpt>
      <trkpt lat="0" lon="0">
        <time>2020-12-06T08:44:49.523000+00:00</time>
      </trkpt>
      <trkpt lat="0" lon="0">
        <time>2020-12-06T08:44:49.526000+00:00</time>
      </trkpt>
      <trkpt lat="0" lon="0">
        <time>2020-12-06T08:44:49.531000+00:00</time>
      </trkpt>
      <trkpt lat="47.33404" lon="-1.28824">
        <ele>30</ele>
        <time>2020-12-06T08:44:50.477000+00:00</time>
      </trkpt>
      <trkpt lat="0" lon="0">
        <time>2020-12-06T08:44:50.487000+00:00</time>
      </trkpt>
      <trkpt lat="0" lon="0">
        <time>2020-12-06T08:44:50.494000+00:00</time>
      </trkpt>
      <trkpt lat="0" lon="0">
        <time>2020-12-06T08:44:50.500000+00:00</time>
      </trkpt>
      <trkpt lat="47.33406" lon="-1.28818">
        <ele>30</ele>
        <time>2020-12-06T08:44:51.498000+00:00</time>
      </trkpt>
      <trkpt lat="0" lon="0">
        <time>2020-12-06T08:44:51.504000+00:00</time>
      </trkpt>
      <trkpt lat="0" lon="0">
        <time>2020-12-06T08:44:51.509000+00:00</time>
      </trkpt>
      <trkpt lat="47.33408" lon="-1.28813">
        <ele>31</ele>
        <time>2020-12-06T08:44:52.495000+00:00</time>
      </trkpt>
      <trkpt lat="0" lon="0">
        <time>2020-12-06T08:44:52.507000+00:00</time>
      </trkpt>
      <trkpt lat="0" lon="0">
        <time>2020-12-06T08:44:52.512000+00:00</time>
      </trkpt>
      <trkpt lat="0" lon="0">
        <time>2020-12-06T08:44:52.514000+00:00</time>
      </trkpt>
      <trkpt lat="47.33411" lon="-1.28807">
        <ele>31</ele>
        <time>2020-12-06T08:44:53.533000+00:00</time>
      </trkpt>
      <trkpt lat="0" lon="0">
        <time>2020-12-06T08:44:53.539000+00:00</time>
      </trkpt>
      <trkpt lat="0" lon="0">
        <time>2020-12-06T08:44:53.549000+00:00</time>
      </trkpt>
      <trkpt lat="0" lon="0">
        <time>2020-12-06T08:44:53.551000+00:00</time>
      </trkpt>
      <trkpt lat="47.33413" lon="-1.28801">
        <ele>31</ele>
        <time>2020-12-06T08:44:54.497000+00:00</time>
      </trkpt>
      <trkpt lat="0" lon="0">
        <time>2020-12-06T08:44:54.508000+00:00</time>
      </trkpt>
      <trkpt lat="0" lon="0">
        <time>2020-12-06T08:44:54.512000+00:00</time>
      </trkpt>
      <trkpt lat="0" lon="0">
        <time>2020-12-06T08:44:54.513000+00:00</time>
      </trkpt>
      <trkpt lat="47.33416" lon="-1.28796">
        <ele>31</ele>
        <time>2020-12-06T08:44:55.466000+00:00</time>
      </trkpt>
      <trkpt lat="0" lon="0">
        <time>2020-12-06T08:44:55.470000+00:00</time>
      </trkpt>
      <trkpt lat="0" lon="0">
        <time>2020-12-06T08:44:55.473000+00:00</time>
      </trkpt>
      <trkpt lat="0" lon="0">
        <time>2020-12-06T08:44:55.475000+00:00</time>
      </trkpt>
      <trkpt lat="47.33418" lon="-1.28791">
        <ele>31</ele>
        <time>2020-12-06T08:44:56.484000+00:00</time>
      </trkpt>
      <trkpt lat="0" lon="0">
        <time>2020-12-06T08:44:56.495000+00:00</time>
      </trkpt>
      <trkpt lat="0" lon="0">
        <time>2020-12-06T08:44:56.499000+00:00</time>
      </trkpt>
      <trkpt lat="0" lon="0">
        <time>2020-12-06T08:44:56.502000+00:00</time>
      </trkpt>
      <trkpt lat="47.3342" lon="-1.28786">
        <ele>31</ele>
        <time>2020-12-06T08:44:57.447000+00:00</time>
      </trkpt>
      <trkpt lat="0" lon="0">
        <time>2020-12-06T08:44:57.454000+00:00</time>
      </trkpt>
      <trkpt lat="0" lon="0">
        <time>2020-12-06T08:44:57.457000+00:00</time>
      </trkpt>
      <trkpt lat="0" lon="0">
        <time>2020-12-06T08:44:57.465000+00:00</time>
      </trkpt>
      <trkpt lat="47.33423" lon="-1.28781">
        <ele>31</ele>
        <time>2020-12-06T08:44:58.480000+00:00</time>
      </trkpt>
      <trkpt lat="0" lon="0">
        <time>2020-12-06T08:44:58.483000+00:00</time>
      </trkpt>
      <trkpt lat="0" lon="0">
        <time>2020-12-06T08:44:58.497000+00:00</time>
      </trkpt>
      <trkpt lat="0" lon="0">
        <time>2020-12-06T08:44:58.498000+00:00</time>
      </trkpt>
      <trkpt lat="47.33425" lon="-1.28776">
        <ele>31</ele>
        <time>2020-12-06T08:44:59.497000+00:00</time>
      </trkpt>
      <trkpt lat="0" lon="0">
        <time>2020-12-06T08:44:59.507000+00:00</time>
      </trkpt>
      <trkpt lat="0" lon="0">
        <time>2020-12-06T08:44:59.514000+00:00</time>
      </trkpt>
      <trkpt lat="0" lon="0">
        <time>2020-12-06T08:44:59.519000+00:00</time>
      </trkpt>
      <trkpt lat="47.33427" lon="-1.28772">
        <ele>31</ele>
        <time>2020-12-06T08:45:00.439000+00:00</time>
      </trkpt>
      <trkpt lat="0" lon="0">
        <time>2020-12-06T08:45:00.451000+00:00</time>
      </trkpt>
      <trkpt lat="0" lon="0">
        <time>2020-12-06T08:45:00.453000+00:00</time>
      </trkpt>
      <trkpt lat="0" lon="0">
        <time>2020-12-06T08:45:00.454000+00:00</time>
      </trkpt>
      <trkpt lat="47.3343" lon="-1.28767">
        <ele>31</ele>
        <time>2020-12-06T08:45:01.483000+00:00</time>
      </trkpt>
      <trkpt lat="0" lon="0">
        <time>2020-12-06T08:45:01.488000+00:00</time>
      </trkpt>
      <trkpt lat="0" lon="0">
        <time>2020-12-06T08:45:01.491000+00:00</time>
      </trkpt>
      <trkpt lat="0" lon="0">
        <time>2020-12-06T08:45:01.494000+00:00</time>
      </trkpt>
      <trkpt lat="47.33432" lon="-1.28763">
        <ele>30</ele>
        <time>2020-12-06T08:45:02.486000+00:00</time>
      </trkpt>
      <trkpt lat="0" lon="0">
        <time>2020-12-06T08:45:02.494000+00:00</time>
      </trkpt>
      <trkpt lat="0" lon="0">
        <time>2020-12-06T08:45:02.497000+00:00</time>
      </trkpt>
      <trkpt lat="0" lon="0">
        <time>2020-12-06T08:45:02.499000+00:00</time>
      </trkpt>
      <trkpt lat="47.33434" lon="-1.28759">
        <ele>30</ele>
        <time>2020-12-06T08:45:03.453000+00:00</time>
      </trkpt>
      <trkpt lat="0" lon="0">
        <time>2020-12-06T08:45:03.464000+00:00</time>
      </trkpt>
      <trkpt lat="0" lon="0">
        <time>2020-12-06T08:45:03.467000+00:00</time>
      </trkpt>
      <trkpt lat="0" lon="0">
        <time>2020-12-06T08:45:03.469000+00:00</time>
      </trkpt>
      <trkpt lat="47.33436" lon="-1.28755">
        <ele>30</ele>
        <time>2020-12-06T08:45:04.493000+00:00</time>
      </trkpt>
      <trkpt lat="0" lon="0">
        <time>2020-12-06T08:45:04.506000+00:00</time>
      </trkpt>
      <trkpt lat="0" lon="0">
        <time>2020-12-06T08:45:04.513000+00:00</time>
      </trkpt>
      <trkpt lat="0" lon="0">
        <time>2020-12-06T08:45:04.515000+00:00</time>
      </trkpt>
      <trkpt lat="47.33438" lon="-1.28752">
        <ele>30</ele>
        <time>2020-12-06T08:45:05.493000+00:00</time>
      </trkpt>
      <trkpt lat="0" lon="0">
        <time>2020-12-06T08:45:05.496000+00:00</time>
      </trkpt>
      <trkpt lat="0" lon="0">
        <time>2020-12-06T08:45:05.500000+00:00</time>
      </trkpt>
      <trkpt lat="0" lon="0">
        <time>2020-12-06T08:45:05.502000+00:00</time>
      </trkpt>
      <trkpt lat="47.33441" lon="-1.28748">
        <ele>30</ele>
        <time>2020-12-06T08:45:06.481000+00:00</time>
      </trkpt>
      <trkpt lat="0" lon="0">
        <time>2020-12-06T08:45:06.495000+00:00</time>
      </trkpt>
      <trkpt lat="0" lon="0">
        <time>2020-12-06T08:45:06.504000+00:00</time>
      </trkpt>
      <trkpt lat="0" lon="0">
        <time>2020-12-06T08:45:06.507000+00:00</time>
      </trkpt>
      <trkpt lat="47.33443" lon="-1.28745">
        <ele>29</ele>
        <time>2020-12-06T08:45:07.499000+00:00</time>
      </trkpt>
      <trkpt lat="0" lon="0">
        <time>2020-12-06T08:45:07.510000+00:00</time>
      </trkpt>
      <trkpt lat="0" lon="0">
        <time>2020-12-06T08:45:07.515000+00:00</time>
      </trkpt>
      <trkpt lat="0" lon="0">
        <time>2020-12-06T08:45:07.517000+00:00</time>
      </trkpt>
      <trkpt lat="47.33446" lon="-1.28742">
        <ele>29</ele>
        <time>2020-12-06T08:45:08.493000+00:00</time>
      </trkpt>
      <trkpt lat="0" lon="0">
        <time>2020-12-06T08:45:08.509000+00:00</time>
      </trkpt>
      <trkpt lat="0" lon="0">
        <time>2020-12-06T08:45:08.513000+00:00</time>
      </trkpt>
      <trkpt lat="0" lon="0">
        <time>2020-12-06T08:45:08.514000+00:00</time>
      </trkpt>
      <trkpt lat="47.33449" lon="-1.28739">
        <ele>29</ele>
        <time>2020-12-06T08:45:09.445000+00:00</time>
      </trkpt>
      <trkpt lat="0" lon="0">
        <time>2020-12-06T08:45:09.448000+00:00</time>
      </trkpt>
      <trkpt lat="0" lon="0">
        <time>2020-12-06T08:45:09.450000+00:00</time>
      </trkpt>
      <trkpt lat="0" lon="0">
        <time>2020-12-06T08:45:09.451000+00:00</time>
      </trkpt>
      <trkpt lat="47.33452" lon="-1.28735">
        <ele>28</ele>
        <time>2020-12-06T08:45:10.491000+00:00</time>
      </trkpt>
      <trkpt lat="0" lon="0">
        <time>2020-12-06T08:45:10.509000+00:00</time>
      </trkpt>
      <trkpt lat="0" lon="0">
        <time>2020-12-06T08:45:10.512000+00:00</time>
      </trkpt>
      <trkpt lat="0" lon="0">
        <time>2020-12-06T08:45:10.514000+00:00</time>
      </trkpt>
      <trkpt lat="47.33454" lon="-1.28732">
        <ele>28</ele>
        <time>2020-12-06T08:45:11.494000+00:00</time>
      </trkpt>
      <trkpt lat="0" lon="0">
        <time>2020-12-06T08:45:11.503000+00:00</time>
      </trkpt>
      <trkpt lat="0" lon="0">
        <time>2020-12-06T08:45:11.510000+00:00</time>
      </trkpt>
      <trkpt lat="0" lon="0">
        <time>2020-12-06T08:45:11.513000+00:00</time>
      </trkpt>
      <trkpt lat="47.33456" lon="-1.28728">
        <ele>28</ele>
        <time>2020-12-06T08:45:12.497000+00:00</time>
      </trkpt>
      <trkpt lat="0" lon="0">
        <time>2020-12-06T08:45:12.510000+00:00</time>
      </trkpt>
      <trkpt lat="0" lon="0">
        <time>2020-12-06T08:45:12.514000+00:00</time>
      </trkpt>
      <trkpt lat="0" lon="0">
        <time>2020-12-06T08:45:12.516000+00:00</time>
      </trkpt>
      <trkpt lat="47.33458" lon="-1.28724">
        <ele>28</ele>
        <time>2020-12-06T08:45:13.487000+00:00</time>
      </trkpt>
      <trkpt lat="0" lon="0">
        <time>2020-12-06T08:45:13.491000+00:00</time>
      </trkpt>
      <trkpt lat="0" lon="0">
        <time>2020-12-06T08:45:13.498000+00:00</time>
      </trkpt>
      <trkpt lat="0" lon="0">
        <time>2020-12-06T08:45:13.500000+00:00</time>
      </trkpt>
      <trkpt lat="47.33459" lon="-1.2872">
        <ele>28</ele>
        <time>2020-12-06T08:45:14.500000+00:00</time>
      </trkpt>
      <trkpt lat="0" lon="0">
        <time>2020-12-06T08:45:14.503000+00:00</time>
      </trkpt>
      <trkpt lat="0" lon="0">
        <time>2020-12-06T08:45:14.520000+00:00</time>
      </trkpt>
      <trkpt lat="0" lon="0">
        <time>2020-12-06T08:45:14.527000+00:00</time>
      </trkpt>
      <trkpt lat="47.3346" lon="-1.28716">
        <ele>28</ele>
        <time>2020-12-06T08:45:15.478000+00:00</time>
      </trkpt>
      <trkpt lat="0" lon="0">
        <time>2020-12-06T08:45:15.486000+00:00</time>
      </trkpt>
      <trkpt lat="0" lon="0">
        <time>2020-12-06T08:45:15.488000+00:00</time>
      </trkpt>
      <trkpt lat="0" lon="0">
        <time>2020-12-06T08:45:15.489000+00:00</time>
      </trkpt>
      <trkpt lat="47.33461" lon="-1.28712">
        <ele>28</ele>
        <time>2020-12-06T08:45:16.505000+00:00</time>
      </trkpt>
      <trkpt lat="0" lon="0">
        <time>2020-12-06T08:45:16.517000+00:00</time>
      </trkpt>
      <trkpt lat="0" lon="0">
        <time>2020-12-06T08:45:16.521000+00:00</time>
      </trkpt>
      <trkpt lat="0" lon="0">
        <time>2020-12-06T08:45:16.529000+00:00</time>
      </trkpt>
      <trkpt lat="47.33462" lon="-1.28708">
        <ele>28</ele>
        <time>2020-12-06T08:45:17.449000+00:00</time>
      </trkpt>
      <trkpt lat="0" lon="0">
        <time>2020-12-06T08:45:17.454000+00:00</time>
      </trkpt>
      <trkpt lat="0" lon="0">
        <time>2020-12-06T08:45:17.460000+00:00</time>
      </trkpt>
      <trkpt lat="0" lon="0">
        <time>2020-12-06T08:45:17.462000+00:00</time>
      </trkpt>
      <trkpt lat="47.33463" lon="-1.28704">
        <ele>28</ele>
        <time>2020-12-06T08:45:18.490000+00:00</time>
      </trkpt>
      <trkpt lat="0" lon="0">
        <time>2020-12-06T08:45:18.504000+00:00</time>
      </trkpt>
      <trkpt lat="0" lon="0">
        <time>2020-12-06T08:45:18.514000+00:00</time>
      </trkpt>
      <trkpt lat="0" lon="0">
        <time>2020-12-06T08:45:18.516000+00:00</time>
      </trkpt>
      <trkpt lat="47.33464" lon="-1.28701">
        <ele>28</ele>
        <time>2020-12-06T08:45:19.476000+00:00</time>
      </trkpt>
      <trkpt lat="0" lon="0">
        <time>2020-12-06T08:45:19.480000+00:00</time>
      </trkpt>
      <trkpt lat="0" lon="0">
        <time>2020-12-06T08:45:19.488000+00:00</time>
      </trkpt>
      <trkpt lat="0" lon="0">
        <time>2020-12-06T08:45:19.490000+00:00</time>
      </trkpt>
      <trkpt lat="47.33464" lon="-1.28698">
        <ele>28</ele>
        <time>2020-12-06T08:45:20.509000+00:00</time>
      </trkpt>
      <trkpt lat="0" lon="0">
        <time>2020-12-06T08:45:20.511000+00:00</time>
      </trkpt>
      <trkpt lat="0" lon="0">
        <time>2020-12-06T08:45:20.515000+00:00</time>
      </trkpt>
      <trkpt lat="0" lon="0">
        <time>2020-12-06T08:45:20.519000+00:00</time>
      </trkpt>
      <trkpt lat="47.33465" lon="-1.28694">
        <ele>28</ele>
        <time>2020-12-06T08:45:21.485000+00:00</time>
      </trkpt>
      <trkpt lat="0" lon="0">
        <time>2020-12-06T08:45:21.490000+00:00</time>
      </trkpt>
      <trkpt lat="0" lon="0">
        <time>2020-12-06T08:45:21.502000+00:00</time>
      </trkpt>
      <trkpt lat="0" lon="0">
        <time>2020-12-06T08:45:21.506000+00:00</time>
      </trkpt>
      <trkpt lat="47.33465" lon="-1.28691">
        <ele>28</ele>
        <time>2020-12-06T08:45:22.507000+00:00</time>
      </trkpt>
      <trkpt lat="0" lon="0">
        <time>2020-12-06T08:45:22.519000+00:00</time>
      </trkpt>
      <trkpt lat="0" lon="0">
        <time>2020-12-06T08:45:22.526000+00:00</time>
      </trkpt>
      <trkpt lat="0" lon="0">
        <time>2020-12-06T08:45:22.528000+00:00</time>
      </trkpt>
      <trkpt lat="47.33466" lon="-1.28688">
        <ele>28</ele>
        <time>2020-12-06T08:45:23.500000+00:00</time>
      </trkpt>
      <trkpt lat="0" lon="0">
        <time>2020-12-06T08:45:23.521000+00:00</time>
      </trkpt>
      <trkpt lat="0" lon="0">
        <time>2020-12-06T08:45:23.528000+00:00</time>
      </trkpt>
      <trkpt lat="0" lon="0">
        <time>2020-12-06T08:45:23.534000+00:00</time>
      </trkpt>
      <trkpt lat="47.33466" lon="-1.28686">
        <ele>28</ele>
        <time>2020-12-06T08:45:24.507000+00:00</time>
      </trkpt>
      <trkpt lat="0" lon="0">
        <time>2020-12-06T08:45:24.519000+00:00</time>
      </trkpt>
      <trkpt lat="0" lon="0">
        <time>2020-12-06T08:45:24.522000+00:00</time>
      </trkpt>
      <trkpt lat="0" lon="0">
        <time>2020-12-06T08:45:24.524000+00:00</time>
      </trkpt>
      <trkpt lat="47.33467" lon="-1.28683">
        <ele>28</ele>
        <time>2020-12-06T08:45:25.505000+00:00</time>
      </trkpt>
      <trkpt lat="0" lon="0">
        <time>2020-12-06T08:45:25.512000+00:00</time>
      </trkpt>
      <trkpt lat="0" lon="0">
        <time>2020-12-06T08:45:25.519000+00:00</time>
      </trkpt>
      <trkpt lat="0" lon="0">
        <time>2020-12-06T08:45:25.521000+00:00</time>
      </trkpt>
      <trkpt lat="47.33467" lon="-1.2868">
        <ele>29</ele>
        <time>2020-12-06T08:45:26.504000+00:00</time>
      </trkpt>
      <trkpt lat="0" lon="0">
        <time>2020-12-06T08:45:26.525000+00:00</time>
      </trkpt>
      <trkpt lat="0" lon="0">
        <time>2020-12-06T08:45:26.529000+00:00</time>
      </trkpt>
      <trkpt lat="0" lon="0">
        <time>2020-12-06T08:45:26.531000+00:00</time>
      </trkpt>
      <trkpt lat="47.33468" lon="-1.28677">
        <ele>29</ele>
        <time>2020-12-06T08:45:27.474000+00:00</time>
      </trkpt>
      <trkpt lat="0" lon="0">
        <time>2020-12-06T08:45:27.477000+00:00</time>
      </trkpt>
      <trkpt lat="0" lon="0">
        <time>2020-12-06T08:45:27.484000+00:00</time>
      </trkpt>
      <trkpt lat="0" lon="0">
        <time>2020-12-06T08:45:27.487000+00:00</time>
      </trkpt>
      <trkpt lat="47.33468" lon="-1.28673">
        <ele>29</ele>
        <time>2020-12-06T08:45:28.483000+00:00</time>
      </trkpt>
      <trkpt lat="0" lon="0">
        <time>2020-12-06T08:45:28.488000+00:00</time>
      </trkpt>
      <trkpt lat="0" lon="0">
        <time>2020-12-06T08:45:28.495000+00:00</time>
      </trkpt>
      <trkpt lat="0" lon="0">
        <time>2020-12-06T08:45:28.497000+00:00</time>
      </trkpt>
      <trkpt lat="47.33468" lon="-1.2867">
        <ele>29</ele>
        <time>2020-12-06T08:45:29.482000+00:00</time>
      </trkpt>
      <trkpt lat="0" lon="0">
        <time>2020-12-06T08:45:29.489000+00:00</time>
      </trkpt>
      <trkpt lat="0" lon="0">
        <time>2020-12-06T08:45:29.497000+00:00</time>
      </trkpt>
      <trkpt lat="0" lon="0">
        <time>2020-12-06T08:45:29.507000+00:00</time>
      </trkpt>
      <trkpt lat="47.33469" lon="-1.28667">
        <ele>29</ele>
        <time>2020-12-06T08:45:30.482000+00:00</time>
      </trkpt>
      <trkpt lat="0" lon="0">
        <time>2020-12-06T08:45:30.492000+00:00</time>
      </trkpt>
      <trkpt lat="0" lon="0">
        <time>2020-12-06T08:45:30.499000+00:00</time>
      </trkpt>
      <trkpt lat="0" lon="0">
        <time>2020-12-06T08:45:30.500000+00:00</time>
      </trkpt>
      <trkpt lat="47.3347" lon="-1.28664">
        <ele>29</ele>
        <time>2020-12-06T08:45:31.492000+00:00</time>
      </trkpt>
      <trkpt lat="0" lon="0">
        <time>2020-12-06T08:45:31.497000+00:00</time>
      </trkpt>
      <trkpt lat="0" lon="0">
        <time>2020-12-06T08:45:31.503000+00:00</time>
      </trkpt>
      <trkpt lat="0" lon="0">
        <time>2020-12-06T08:45:31.505000+00:00</time>
      </trkpt>
      <trkpt lat="47.3347" lon="-1.28661">
        <ele>29</ele>
        <time>2020-12-06T08:45:32.510000+00:00</time>
      </trkpt>
      <trkpt lat="0" lon="0">
        <time>2020-12-06T08:45:32.513000+00:00</time>
      </trkpt>
      <trkpt lat="0" lon="0">
        <time>2020-12-06T08:45:32.518000+00:00</time>
      </trkpt>
      <trkpt lat="0" lon="0">
        <time>2020-12-06T08:45:32.520000+00:00</time>
      </trkpt>
      <trkpt lat="47.33471" lon="-1.28658">
        <ele>29</ele>
        <time>2020-12-06T08:45:33.464000+00:00</time>
      </trkpt>
      <trkpt lat="0" lon="0">
        <time>2020-12-06T08:45:33.471000+00:00</time>
      </trkpt>
      <trkpt lat="0" lon="0">
        <time>2020-12-06T08:45:33.479000+00:00</time>
      </trkpt>
      <trkpt lat="0" lon="0">
        <time>2020-12-06T08:45:33.485000+00:00</time>
      </trkpt>
      <trkpt lat="47.33472" lon="-1.28654">
        <ele>29</ele>
        <time>2020-12-06T08:45:34.480000+00:00</time>
      </trkpt>
      <trkpt lat="0" lon="0">
        <time>2020-12-06T08:45:34.490000+00:00</time>
      </trkpt>
      <trkpt lat="0" lon="0">
        <time>2020-12-06T08:45:34.493000+00:00</time>
      </trkpt>
      <trkpt lat="0" lon="0">
        <time>2020-12-06T08:45:34.495000+00:00</time>
      </trkpt>
      <trkpt lat="47.33473" lon="-1.28651">
        <ele>30</ele>
        <time>2020-12-06T08:45:35.484000+00:00</time>
      </trkpt>
      <trkpt lat="0" lon="0">
        <time>2020-12-06T08:45:35.491000+00:00</time>
      </trkpt>
      <trkpt lat="0" lon="0">
        <time>2020-12-06T08:45:35.499000+00:00</time>
      </trkpt>
      <trkpt lat="0" lon="0">
        <time>2020-12-06T08:45:35.501000+00:00</time>
      </trkpt>
      <trkpt lat="47.33474" lon="-1.28648">
        <ele>30</ele>
        <time>2020-12-06T08:45:36.491000+00:00</time>
      </trkpt>
      <trkpt lat="0" lon="0">
        <time>2020-12-06T08:45:36.494000+00:00</time>
      </trkpt>
      <trkpt lat="0" lon="0">
        <time>2020-12-06T08:45:36.502000+00:00</time>
      </trkpt>
      <trkpt lat="0" lon="0">
        <time>2020-12-06T08:45:36.506000+00:00</time>
      </trkpt>
      <trkpt lat="47.33475" lon="-1.28644">
        <ele>30</ele>
        <time>2020-12-06T08:45:37.449000+00:00</time>
      </trkpt>
      <trkpt lat="0" lon="0">
        <time>2020-12-06T08:45:37.464000+00:00</time>
      </trkpt>
      <trkpt lat="0" lon="0">
        <time>2020-12-06T08:45:37.470000+00:00</time>
      </trkpt>
      <trkpt lat="0" lon="0">
        <time>2020-12-06T08:45:37.471000+00:00</time>
      </trkpt>
      <trkpt lat="47.33476" lon="-1.28641">
        <ele>30</ele>
        <time>2020-12-06T08:45:38.473000+00:00</time>
      </trkpt>
      <trkpt lat="0" lon="0">
        <time>2020-12-06T08:45:38.486000+00:00</time>
      </trkpt>
      <trkpt lat="0" lon="0">
        <time>2020-12-06T08:45:38.493000+00:00</time>
      </trkpt>
      <trkpt lat="0" lon="0">
        <time>2020-12-06T08:45:38.498000+00:00</time>
      </trkpt>
      <trkpt lat="47.33477" lon="-1.28637">
        <ele>30</ele>
        <time>2020-12-06T08:45:39.529000+00:00</time>
      </trkpt>
      <trkpt lat="0" lon="0">
        <time>2020-12-06T08:45:39.544000+00:00</time>
      </trkpt>
      <trkpt lat="0" lon="0">
        <time>2020-12-06T08:45:39.551000+00:00</time>
      </trkpt>
      <trkpt lat="0" lon="0">
        <time>2020-12-06T08:45:39.556000+00:00</time>
      </trkpt>
      <trkpt lat="47.33478" lon="-1.28634">
        <ele>30</ele>
        <time>2020-12-06T08:45:40.474000+00:00</time>
      </trkpt>
      <trkpt lat="0" lon="0">
        <time>2020-12-06T08:45:40.486000+00:00</time>
      </trkpt>
      <trkpt lat="0" lon="0">
        <time>2020-12-06T08:45:40.490000+00:00</time>
      </trkpt>
      <trkpt lat="0" lon="0">
        <time>2020-12-06T08:45:40.498000+00:00</time>
      </trkpt>
      <trkpt lat="47.33479" lon="-1.28631">
        <ele>30</ele>
        <time>2020-12-06T08:45:41.479000+00:00</time>
      </trkpt>
      <trkpt lat="0" lon="0">
        <time>2020-12-06T08:45:41.492000+00:00</time>
      </trkpt>
      <trkpt lat="0" lon="0">
        <time>2020-12-06T08:45:41.496000+00:00</time>
      </trkpt>
      <trkpt lat="0" lon="0">
        <time>2020-12-06T08:45:41.498000+00:00</time>
      </trkpt>
      <trkpt lat="47.33479" lon="-1.28627">
        <ele>30</ele>
        <time>2020-12-06T08:45:42.448000+00:00</time>
      </trkpt>
      <trkpt lat="0" lon="0">
        <time>2020-12-06T08:45:42.463000+00:00</time>
      </trkpt>
      <trkpt lat="0" lon="0">
        <time>2020-12-06T08:45:42.466000+00:00</time>
      </trkpt>
      <trkpt lat="0" lon="0">
        <time>2020-12-06T08:45:42.467000+00:00</time>
      </trkpt>
      <trkpt lat="47.3348" lon="-1.28624">
        <ele>31</ele>
        <time>2020-12-06T08:45:43.508000+00:00</time>
      </trkpt>
      <trkpt lat="0" lon="0">
        <time>2020-12-06T08:45:43.511000+00:00</time>
      </trkpt>
      <trkpt lat="0" lon="0">
        <time>2020-12-06T08:45:43.515000+00:00</time>
      </trkpt>
      <trkpt lat="0" lon="0">
        <time>2020-12-06T08:45:43.519000+00:00</time>
      </trkpt>
      <trkpt lat="47.33481" lon="-1.28621">
        <ele>31</ele>
        <time>2020-12-06T08:45:44.495000+00:00</time>
      </trkpt>
      <trkpt lat="0" lon="0">
        <time>2020-12-06T08:45:44.504000+00:00</time>
      </trkpt>
      <trkpt lat="0" lon="0">
        <time>2020-12-06T08:45:44.508000+00:00</time>
      </trkpt>
      <trkpt lat="0" lon="0">
        <time>2020-12-06T08:45:44.510000+00:00</time>
      </trkpt>
      <trkpt lat="47.33482" lon="-1.28619">
        <ele>31</ele>
        <time>2020-12-06T08:45:45.468000+00:00</time>
      </trkpt>
      <trkpt lat="0" lon="0">
        <time>2020-12-06T08:45:45.478000+00:00</time>
      </trkpt>
      <trkpt lat="0" lon="0">
        <time>2020-12-06T08:45:45.488000+00:00</time>
      </trkpt>
      <trkpt lat="0" lon="0">
        <time>2020-12-06T08:45:45.490000+00:00</time>
      </trkpt>
      <trkpt lat="47.33482" lon="-1.28616">
        <ele>31</ele>
        <time>2020-12-06T08:45:46.463000+00:00</time>
      </trkpt>
      <trkpt lat="0" lon="0">
        <time>2020-12-06T08:45:46.474000+00:00</time>
      </trkpt>
      <trkpt lat="0" lon="0">
        <time>2020-12-06T08:45:46.478000+00:00</time>
      </trkpt>
      <trkpt lat="0" lon="0">
        <time>2020-12-06T08:45:46.481000+00:00</time>
      </trkpt>
      <trkpt lat="47.33483" lon="-1.28613">
        <ele>31</ele>
        <time>2020-12-06T08:45:47.455000+00:00</time>
      </trkpt>
      <trkpt lat="0" lon="0">
        <time>2020-12-06T08:45:47.466000+00:00</time>
      </trkpt>
      <trkpt lat="0" lon="0">
        <time>2020-12-06T08:45:47.469000+00:00</time>
      </trkpt>
      <trkpt lat="0" lon="0">
        <time>2020-12-06T08:45:47.470000+00:00</time>
      </trkpt>
      <trkpt lat="47.33484" lon="-1.2861">
        <ele>31</ele>
        <time>2020-12-06T08:45:48.480000+00:00</time>
      </trkpt>
      <trkpt lat="0" lon="0">
        <time>2020-12-06T08:45:48.497000+00:00</time>
      </trkpt>
      <trkpt lat="0" lon="0">
        <time>2020-12-06T08:45:48.500000+00:00</time>
      </trkpt>
      <trkpt lat="0" lon="0">
        <time>2020-12-06T08:45:48.502000+00:00</time>
      </trkpt>
      <trkpt lat="47.33485" lon="-1.28606">
        <ele>31</ele>
        <time>2020-12-06T08:45:49.510000+00:00</time>
      </trkpt>
      <trkpt lat="0" lon="0">
        <time>2020-12-06T08:45:49.521000+00:00</time>
      </trkpt>
      <trkpt lat="0" lon="0">
        <time>2020-12-06T08:45:49.534000+00:00</time>
      </trkpt>
      <trkpt lat="0" lon="0">
        <time>2020-12-06T08:45:49.537000+00:00</time>
      </trkpt>
      <trkpt lat="47.33486" lon="-1.28603">
        <ele>31</ele>
        <time>2020-12-06T08:45:50.495000+00:00</time>
      </trkpt>
      <trkpt lat="0" lon="0">
        <time>2020-12-06T08:45:50.505000+00:00</time>
      </trkpt>
      <trkpt lat="0" lon="0">
        <time>2020-12-06T08:45:50.512000+00:00</time>
      </trkpt>
      <trkpt lat="0" lon="0">
        <time>2020-12-06T08:45:50.514000+00:00</time>
      </trkpt>
      <trkpt lat="47.33487" lon="-1.286">
        <ele>32</ele>
        <time>2020-12-06T08:45:51.482000+00:00</time>
      </trkpt>
      <trkpt lat="0" lon="0">
        <time>2020-12-06T08:45:51.490000+00:00</time>
      </trkpt>
      <trkpt lat="0" lon="0">
        <time>2020-12-06T08:45:51.506000+00:00</time>
      </trkpt>
      <trkpt lat="0" lon="0">
        <time>2020-12-06T08:45:51.509000+00:00</time>
      </trkpt>
      <trkpt lat="47.33488" lon="-1.28597">
        <ele>32</ele>
        <time>2020-12-06T08:45:52.500000+00:00</time>
      </trkpt>
      <trkpt lat="0" lon="0">
        <time>2020-12-06T08:45:52.510000+00:00</time>
      </trkpt>
      <trkpt lat="0" lon="0">
        <time>2020-12-06T08:45:52.517000+00:00</time>
      </trkpt>
      <trkpt lat="0" lon="0">
        <time>2020-12-06T08:45:52.519000+00:00</time>
      </trkpt>
      <trkpt lat="47.33488" lon="-1.28593">
        <ele>32</ele>
        <time>2020-12-06T08:45:53.512000+00:00</time>
      </trkpt>
      <trkpt lat="0" lon="0">
        <time>2020-12-06T08:45:53.532000+00:00</time>
      </trkpt>
      <trkpt lat="0" lon="0">
        <time>2020-12-06T08:45:53.535000+00:00</time>
      </trkpt>
      <trkpt lat="0" lon="0">
        <time>2020-12-06T08:45:53.537000+00:00</time>
      </trkpt>
      <trkpt lat="47.33489" lon="-1.2859">
        <ele>32</ele>
        <time>2020-12-06T08:45:54.457000+00:00</time>
      </trkpt>
      <trkpt lat="0" lon="0">
        <time>2020-12-06T08:45:54.464000+00:00</time>
      </trkpt>
      <trkpt lat="0" lon="0">
        <time>2020-12-06T08:45:54.468000+00:00</time>
      </trkpt>
      <trkpt lat="0" lon="0">
        <time>2020-12-06T08:45:54.470000+00:00</time>
      </trkpt>
      <trkpt lat="47.33489" lon="-1.28588">
        <ele>32</ele>
        <time>2020-12-06T08:45:55.469000+00:00</time>
      </trkpt>
      <trkpt lat="0" lon="0">
        <time>2020-12-06T08:45:55.479000+00:00</time>
      </trkpt>
      <trkpt lat="0" lon="0">
        <time>2020-12-06T08:45:55.482000+00:00</time>
      </trkpt>
      <trkpt lat="0" lon="0">
        <time>2020-12-06T08:45:55.484000+00:00</time>
      </trkpt>
      <trkpt lat="47.33489" lon="-1.28586">
        <ele>33</ele>
        <time>2020-12-06T08:45:56.483000+00:00</time>
      </trkpt>
      <trkpt lat="0" lon="0">
        <time>2020-12-06T08:45:56.498000+00:00</time>
      </trkpt>
      <trkpt lat="0" lon="0">
        <time>2020-12-06T08:45:56.506000+00:00</time>
      </trkpt>
      <trkpt lat="0" lon="0">
        <time>2020-12-06T08:45:56.511000+00:00</time>
      </trkpt>
      <trkpt lat="47.3349" lon="-1.28584">
        <ele>33</ele>
        <time>2020-12-06T08:45:57.491000+00:00</time>
      </trkpt>
      <trkpt lat="0" lon="0">
        <time>2020-12-06T08:45:57.502000+00:00</time>
      </trkpt>
      <trkpt lat="0" lon="0">
        <time>2020-12-06T08:45:57.512000+00:00</time>
      </trkpt>
      <trkpt lat="0" lon="0">
        <time>2020-12-06T08:45:57.520000+00:00</time>
      </trkpt>
      <trkpt lat="47.3349" lon="-1.28584">
        <ele>33</ele>
        <time>2020-12-06T08:45:58.505000+00:00</time>
      </trkpt>
      <trkpt lat="0" lon="0">
        <time>2020-12-06T08:45:58.521000+00:00</time>
      </trkpt>
      <trkpt lat="0" lon="0">
        <time>2020-12-06T08:45:58.527000+00:00</time>
      </trkpt>
      <trkpt lat="0" lon="0">
        <time>2020-12-06T08:45:58.529000+00:00</time>
      </trkpt>
      <trkpt lat="47.3349" lon="-1.28583">
        <ele>33</ele>
        <time>2020-12-06T08:45:59.501000+00:00</time>
      </trkpt>
      <trkpt lat="0" lon="0">
        <time>2020-12-06T08:45:59.516000+00:00</time>
      </trkpt>
      <trkpt lat="0" lon="0">
        <time>2020-12-06T08:45:59.519000+00:00</time>
      </trkpt>
      <trkpt lat="0" lon="0">
        <time>2020-12-06T08:45:59.521000+00:00</time>
      </trkpt>
      <trkpt lat="47.33489" lon="-1.28583">
        <ele>33</ele>
        <time>2020-12-06T08:46:00.450000+00:00</time>
      </trkpt>
      <trkpt lat="0" lon="0">
        <time>2020-12-06T08:46:00.459000+00:00</time>
      </trkpt>
      <trkpt lat="0" lon="0">
        <time>2020-12-06T08:46:00.467000+00:00</time>
      </trkpt>
      <trkpt lat="0" lon="0">
        <time>2020-12-06T08:46:00.469000+00:00</time>
      </trkpt>
      <trkpt lat="47.33489" lon="-1.28583">
        <ele>33</ele>
        <time>2020-12-06T08:46:01.523000+00:00</time>
      </trkpt>
      <trkpt lat="0" lon="0">
        <time>2020-12-06T08:46:01.528000+00:00</time>
      </trkpt>
      <trkpt lat="0" lon="0">
        <time>2020-12-06T08:46:01.533000+00:00</time>
      </trkpt>
      <trkpt lat="0" lon="0">
        <time>2020-12-06T08:46:01.540000+00:00</time>
      </trkpt>
      <trkpt lat="47.33489" lon="-1.28583">
        <ele>33</ele>
        <time>2020-12-06T08:46:02.506000+00:00</time>
      </trkpt>
      <trkpt lat="0" lon="0">
        <time>2020-12-06T08:46:02.528000+00:00</time>
      </trkpt>
      <trkpt lat="0" lon="0">
        <time>2020-12-06T08:46:02.532000+00:00</time>
      </trkpt>
      <trkpt lat="0" lon="0">
        <time>2020-12-06T08:46:02.534000+00:00</time>
      </trkpt>
      <trkpt lat="47.33489" lon="-1.28584">
        <ele>33</ele>
        <time>2020-12-06T08:46:03.524000+00:00</time>
      </trkpt>
      <trkpt lat="0" lon="0">
        <time>2020-12-06T08:46:03.545000+00:00</time>
      </trkpt>
      <trkpt lat="0" lon="0">
        <time>2020-12-06T08:46:03.549000+00:00</time>
      </trkpt>
      <trkpt lat="0" lon="0">
        <time>2020-12-06T08:46:03.554000+00:00</time>
      </trkpt>
      <trkpt lat="47.33489" lon="-1.28584">
        <ele>33</ele>
        <time>2020-12-06T08:46:04.478000+00:00</time>
      </trkpt>
      <trkpt lat="0" lon="0">
        <time>2020-12-06T08:46:04.486000+00:00</time>
      </trkpt>
      <trkpt lat="0" lon="0">
        <time>2020-12-06T08:46:04.495000+00:00</time>
      </trkpt>
      <trkpt lat="0" lon="0">
        <time>2020-12-06T08:46:04.496000+00:00</time>
      </trkpt>
      <trkpt lat="47.33489" lon="-1.28584">
        <ele>33</ele>
        <time>2020-12-06T08:46:05.495000+00:00</time>
      </trkpt>
      <trkpt lat="0" lon="0">
        <time>2020-12-06T08:46:05.503000+00:00</time>
      </trkpt>
      <trkpt lat="0" lon="0">
        <time>2020-12-06T08:46:05.511000+00:00</time>
      </trkpt>
      <trkpt lat="0" lon="0">
        <time>2020-12-06T08:46:05.526000+00:00</time>
      </trkpt>
      <trkpt lat="47.33494" lon="-1.28566">
        <ele>34</ele>
        <time>2020-12-06T08:46:06.472000+00:00</time>
      </trkpt>
      <trkpt lat="0" lon="0">
        <time>2020-12-06T08:46:06.482000+00:00</time>
      </trkpt>
      <trkpt lat="0" lon="0">
        <time>2020-12-06T08:46:06.484000+00:00</time>
      </trkpt>
      <trkpt lat="0" lon="0">
        <time>2020-12-06T08:46:06.485000+00:00</time>
      </trkpt>
      <trkpt lat="47.33495" lon="-1.28562">
        <ele>34</ele>
        <time>2020-12-06T08:46:07.521000+00:00</time>
      </trkpt>
      <trkpt lat="0" lon="0">
        <time>2020-12-06T08:46:07.525000+00:00</time>
      </trkpt>
      <trkpt lat="0" lon="0">
        <time>2020-12-06T08:46:07.541000+00:00</time>
      </trkpt>
      <trkpt lat="0" lon="0">
        <time>2020-12-06T08:46:07.546000+00:00</time>
      </trkpt>
      <trkpt lat="47.33496" lon="-1.28557">
        <ele>34</ele>
        <time>2020-12-06T08:46:08.502000+00:00</time>
      </trkpt>
      <trkpt lat="0" lon="0">
        <time>2020-12-06T08:46:08.512000+00:00</time>
      </trkpt>
      <trkpt lat="0" lon="0">
        <time>2020-12-06T08:46:08.516000+00:00</time>
      </trkpt>
      <trkpt lat="0" lon="0">
        <time>2020-12-06T08:46:08.519000+00:00</time>
      </trkpt>
      <trkpt lat="47.33497" lon="-1.28552">
        <ele>35</ele>
        <time>2020-12-06T08:46:09.511000+00:00</time>
      </trkpt>
      <trkpt lat="0" lon="0">
        <time>2020-12-06T08:46:09.524000+00:00</time>
      </trkpt>
      <trkpt lat="0" lon="0">
        <time>2020-12-06T08:46:09.530000+00:00</time>
      </trkpt>
      <trkpt lat="0" lon="0">
        <time>2020-12-06T08:46:09.537000+00:00</time>
      </trkpt>
      <trkpt lat="47.33498" lon="-1.28547">
        <ele>35</ele>
        <time>2020-12-06T08:46:10.521000+00:00</time>
      </trkpt>
      <trkpt lat="0" lon="0">
        <time>2020-12-06T08:46:10.530000+00:00</time>
      </trkpt>
      <trkpt lat="0" lon="0">
        <time>2020-12-06T08:46:10.539000+00:00</time>
      </trkpt>
      <trkpt lat="0" lon="0">
        <time>2020-12-06T08:46:10.541000+00:00</time>
      </trkpt>
      <trkpt lat="47.33499" lon="-1.28542">
        <ele>36</ele>
        <time>2020-12-06T08:46:11.468000+00:00</time>
      </trkpt>
      <trkpt lat="0" lon="0">
        <time>2020-12-06T08:46:11.469000+00:00</time>
      </trkpt>
      <trkpt lat="0" lon="0">
        <time>2020-12-06T08:46:11.471000+00:00</time>
      </trkpt>
      <trkpt lat="47.33501" lon="-1.28537">
        <ele>36</ele>
        <time>2020-12-06T08:46:12.529000+00:00</time>
      </trkpt>
      <trkpt lat="0" lon="0">
        <time>2020-12-06T08:46:12.538000+00:00</time>
      </trkpt>
      <trkpt lat="0" lon="0">
        <time>2020-12-06T08:46:12.541000+00:00</time>
      </trkpt>
      <trkpt lat="0" lon="0">
        <time>2020-12-06T08:46:12.543000+00:00</time>
      </trkpt>
      <trkpt lat="47.33502" lon="-1.28531">
        <ele>36</ele>
        <time>2020-12-06T08:46:13.517000+00:00</time>
      </trkpt>
      <trkpt lat="0" lon="0">
        <time>2020-12-06T08:46:13.528000+00:00</time>
      </trkpt>
      <trkpt lat="0" lon="0">
        <time>2020-12-06T08:46:13.534000+00:00</time>
      </trkpt>
      <trkpt lat="0" lon="0">
        <time>2020-12-06T08:46:13.537000+00:00</time>
      </trkpt>
      <trkpt lat="47.33503" lon="-1.28526">
        <ele>37</ele>
        <time>2020-12-06T08:46:14.529000+00:00</time>
      </trkpt>
      <trkpt lat="0" lon="0">
        <time>2020-12-06T08:46:14.533000+00:00</time>
      </trkpt>
      <trkpt lat="0" lon="0">
        <time>2020-12-06T08:46:14.547000+00:00</time>
      </trkpt>
      <trkpt lat="0" lon="0">
        <time>2020-12-06T08:46:14.550000+00:00</time>
      </trkpt>
      <trkpt lat="47.33505" lon="-1.28521">
        <ele>37</ele>
        <time>2020-12-06T08:46:15.537000+00:00</time>
      </trkpt>
      <trkpt lat="0" lon="0">
        <time>2020-12-06T08:46:15.546000+00:00</time>
      </trkpt>
      <trkpt lat="0" lon="0">
        <time>2020-12-06T08:46:15.553000+00:00</time>
      </trkpt>
      <trkpt lat="0" lon="0">
        <time>2020-12-06T08:46:15.558000+00:00</time>
      </trkpt>
      <trkpt lat="47.33507" lon="-1.28516">
        <ele>37</ele>
        <time>2020-12-06T08:46:16.509000+00:00</time>
      </trkpt>
      <trkpt lat="0" lon="0">
        <time>2020-12-06T08:46:16.517000+00:00</time>
      </trkpt>
      <trkpt lat="0" lon="0">
        <time>2020-12-06T08:46:16.524000+00:00</time>
      </trkpt>
      <trkpt lat="0" lon="0">
        <time>2020-12-06T08:46:16.530000+00:00</time>
      </trkpt>
      <trkpt lat="47.33508" lon="-1.2851">
        <ele>37</ele>
        <time>2020-12-06T08:46:17.524000+00:00</time>
      </trkpt>
      <trkpt lat="0" lon="0">
        <time>2020-12-06T08:46:17.533000+00:00</time>
      </trkpt>
      <trkpt lat="0" lon="0">
        <time>2020-12-06T08:46:17.541000+00:00</time>
      </trkpt>
      <trkpt lat="0" lon="0">
        <time>2020-12-06T08:46:17.543000+00:00</time>
      </trkpt>
      <trkpt lat="47.3351" lon="-1.28505">
        <ele>38</ele>
        <time>2020-12-06T08:46:18.534000+00:00</time>
      </trkpt>
      <trkpt lat="0" lon="0">
        <time>2020-12-06T08:46:18.541000+00:00</time>
      </trkpt>
      <trkpt lat="0" lon="0">
        <time>2020-12-06T08:46:18.544000+00:00</time>
      </trkpt>
      <trkpt lat="0" lon="0">
        <time>2020-12-06T08:46:18.546000+00:00</time>
      </trkpt>
      <trkpt lat="47.33511" lon="-1.285">
        <ele>38</ele>
        <time>2020-12-06T08:46:19.527000+00:00</time>
      </trkpt>
      <trkpt lat="0" lon="0">
        <time>2020-12-06T08:46:19.535000+00:00</time>
      </trkpt>
      <trkpt lat="0" lon="0">
        <time>2020-12-06T08:46:19.538000+00:00</time>
      </trkpt>
      <trkpt lat="0" lon="0">
        <time>2020-12-06T08:46:19.541000+00:00</time>
      </trkpt>
      <trkpt lat="47.33513" lon="-1.28495">
        <ele>38</ele>
        <time>2020-12-06T08:46:20.535000+00:00</time>
      </trkpt>
      <trkpt lat="0" lon="0">
        <time>2020-12-06T08:46:20.539000+00:00</time>
      </trkpt>
      <trkpt lat="0" lon="0">
        <time>2020-12-06T08:46:20.547000+00:00</time>
      </trkpt>
      <trkpt lat="0" lon="0">
        <time>2020-12-06T08:46:20.552000+00:00</time>
      </trkpt>
      <trkpt lat="47.33515" lon="-1.2849">
        <ele>38</ele>
        <time>2020-12-06T08:46:21.542000+00:00</time>
      </trkpt>
      <trkpt lat="0" lon="0">
        <time>2020-12-06T08:46:21.555000+00:00</time>
      </trkpt>
      <trkpt lat="0" lon="0">
        <time>2020-12-06T08:46:21.562000+00:00</time>
      </trkpt>
      <trkpt lat="0" lon="0">
        <time>2020-12-06T08:46:21.566000+00:00</time>
      </trkpt>
      <trkpt lat="47.33516" lon="-1.28485">
        <ele>38</ele>
        <time>2020-12-06T08:46:22.527000+00:00</time>
      </trkpt>
      <trkpt lat="0" lon="0">
        <time>2020-12-06T08:46:22.536000+00:00</time>
      </trkpt>
      <trkpt lat="0" lon="0">
        <time>2020-12-06T08:46:22.540000+00:00</time>
      </trkpt>
      <trkpt lat="0" lon="0">
        <time>2020-12-06T08:46:22.542000+00:00</time>
      </trkpt>
      <trkpt lat="47.33518" lon="-1.2848">
        <ele>38</ele>
        <time>2020-12-06T08:46:23.508000+00:00</time>
      </trkpt>
      <trkpt lat="0" lon="0">
        <time>2020-12-06T08:46:23.511000+00:00</time>
      </trkpt>
      <trkpt lat="0" lon="0">
        <time>2020-12-06T08:46:23.514000+00:00</time>
      </trkpt>
      <trkpt lat="0" lon="0">
        <time>2020-12-06T08:46:23.522000+00:00</time>
      </trkpt>
      <trkpt lat="47.33519" lon="-1.28475">
        <ele>39</ele>
        <time>2020-12-06T08:46:24.556000+00:00</time>
      </trkpt>
      <trkpt lat="0" lon="0">
        <time>2020-12-06T08:46:24.560000+00:00</time>
      </trkpt>
      <trkpt lat="0" lon="0">
        <time>2020-12-06T08:46:24.567000+00:00</time>
      </trkpt>
      <trkpt lat="0" lon="0">
        <time>2020-12-06T08:46:24.569000+00:00</time>
      </trkpt>
      <trkpt lat="47.33521" lon="-1.28471">
        <ele>39</ele>
        <time>2020-12-06T08:46:25.500000+00:00</time>
      </trkpt>
      <trkpt lat="0" lon="0">
        <time>2020-12-06T08:46:25.502000+00:00</time>
      </trkpt>
      <trkpt lat="0" lon="0">
        <time>2020-12-06T08:46:25.520000+00:00</time>
      </trkpt>
      <trkpt lat="0" lon="0">
        <time>2020-12-06T08:46:25.522000+00:00</time>
      </trkpt>
      <trkpt lat="47.33522" lon="-1.28466">
        <ele>39</ele>
        <time>2020-12-06T08:46:26.541000+00:00</time>
      </trkpt>
      <trkpt lat="0" lon="0">
        <time>2020-12-06T08:46:26.548000+00:00</time>
      </trkpt>
      <trkpt lat="0" lon="0">
        <time>2020-12-06T08:46:26.553000+00:00</time>
      </trkpt>
      <trkpt lat="0" lon="0">
        <time>2020-12-06T08:46:26.555000+00:00</time>
      </trkpt>
      <trkpt lat="47.33523" lon="-1.28461">
        <ele>39</ele>
        <time>2020-12-06T08:46:27.533000+00:00</time>
      </trkpt>
      <trkpt lat="0" lon="0">
        <time>2020-12-06T08:46:27.546000+00:00</time>
      </trkpt>
      <trkpt lat="0" lon="0">
        <time>2020-12-06T08:46:27.549000+00:00</time>
      </trkpt>
      <trkpt lat="0" lon="0">
        <time>2020-12-06T08:46:27.551000+00:00</time>
      </trkpt>
      <trkpt lat="47.33524" lon="-1.28457">
        <ele>39</ele>
        <time>2020-12-06T08:46:28.537000+00:00</time>
      </trkpt>
      <trkpt lat="0" lon="0">
        <time>2020-12-06T08:46:28.551000+00:00</time>
      </trkpt>
      <trkpt lat="0" lon="0">
        <time>2020-12-06T08:46:28.558000+00:00</time>
      </trkpt>
      <trkpt lat="0" lon="0">
        <time>2020-12-06T08:46:28.560000+00:00</time>
      </trkpt>
      <trkpt lat="47.33525" lon="-1.28453">
        <ele>39</ele>
        <time>2020-12-06T08:46:29.523000+00:00</time>
      </trkpt>
      <trkpt lat="0" lon="0">
        <time>2020-12-06T08:46:29.530000+00:00</time>
      </trkpt>
      <trkpt lat="0" lon="0">
        <time>2020-12-06T08:46:29.540000+00:00</time>
      </trkpt>
      <trkpt lat="0" lon="0">
        <time>2020-12-06T08:46:29.544000+00:00</time>
      </trkpt>
      <trkpt lat="47.33526" lon="-1.28448">
        <ele>39</ele>
        <time>2020-12-06T08:46:30.521000+00:00</time>
      </trkpt>
      <trkpt lat="0" lon="0">
        <time>2020-12-06T08:46:30.528000+00:00</time>
      </trkpt>
      <trkpt lat="0" lon="0">
        <time>2020-12-06T08:46:30.531000+00:00</time>
      </trkpt>
      <trkpt lat="0" lon="0">
        <time>2020-12-06T08:46:30.534000+00:00</time>
      </trkpt>
      <trkpt lat="47.33528" lon="-1.28444">
        <ele>40</ele>
        <time>2020-12-06T08:46:31.521000+00:00</time>
      </trkpt>
      <trkpt lat="0" lon="0">
        <time>2020-12-06T08:46:31.525000+00:00</time>
      </trkpt>
      <trkpt lat="0" lon="0">
        <time>2020-12-06T08:46:31.536000+00:00</time>
      </trkpt>
      <trkpt lat="0" lon="0">
        <time>2020-12-06T08:46:31.538000+00:00</time>
      </trkpt>
      <trkpt lat="47.33529" lon="-1.2844">
        <ele>40</ele>
        <time>2020-12-06T08:46:32.536000+00:00</time>
      </trkpt>
      <trkpt lat="0" lon="0">
        <time>2020-12-06T08:46:32.541000+00:00</time>
      </trkpt>
      <trkpt lat="0" lon="0">
        <time>2020-12-06T08:46:32.550000+00:00</time>
      </trkpt>
      <trkpt lat="0" lon="0">
        <time>2020-12-06T08:46:32.552000+00:00</time>
      </trkpt>
      <trkpt lat="47.33531" lon="-1.28435">
        <ele>40</ele>
        <time>2020-12-06T08:46:33.528000+00:00</time>
      </trkpt>
      <trkpt lat="0" lon="0">
        <time>2020-12-06T08:46:33.538000+00:00</time>
      </trkpt>
      <trkpt lat="0" lon="0">
        <time>2020-12-06T08:46:33.541000+00:00</time>
      </trkpt>
      <trkpt lat="0" lon="0">
        <time>2020-12-06T08:46:33.543000+00:00</time>
      </trkpt>
      <trkpt lat="47.33532" lon="-1.2843">
        <ele>40</ele>
        <time>2020-12-06T08:46:34.547000+00:00</time>
      </trkpt>
      <trkpt lat="0" lon="0">
        <time>2020-12-06T08:46:34.551000+00:00</time>
      </trkpt>
      <trkpt lat="0" lon="0">
        <time>2020-12-06T08:46:34.563000+00:00</time>
      </trkpt>
      <trkpt lat="0" lon="0">
        <time>2020-12-06T08:46:34.565000+00:00</time>
      </trkpt>
      <trkpt lat="47.33533" lon="-1.28425">
        <ele>40</ele>
        <time>2020-12-06T08:46:35.530000+00:00</time>
      </trkpt>
      <trkpt lat="0" lon="0">
        <time>2020-12-06T08:46:35.539000+00:00</time>
      </trkpt>
      <trkpt lat="0" lon="0">
        <time>2020-12-06T08:46:35.543000+00:00</time>
      </trkpt>
      <trkpt lat="0" lon="0">
        <time>2020-12-06T08:46:35.544000+00:00</time>
      </trkpt>
      <trkpt lat="47.33534" lon="-1.28419">
        <ele>40</ele>
        <time>2020-12-06T08:46:36.532000+00:00</time>
      </trkpt>
      <trkpt lat="0" lon="0">
        <time>2020-12-06T08:46:36.540000+00:00</time>
      </trkpt>
      <trkpt lat="0" lon="0">
        <time>2020-12-06T08:46:36.545000+00:00</time>
      </trkpt>
      <trkpt lat="0" lon="0">
        <time>2020-12-06T08:46:36.548000+00:00</time>
      </trkpt>
      <trkpt lat="47.33535" lon="-1.28413">
        <ele>41</ele>
        <time>2020-12-06T08:46:37.529000+00:00</time>
      </trkpt>
      <trkpt lat="0" lon="0">
        <time>2020-12-06T08:46:37.541000+00:00</time>
      </trkpt>
      <trkpt lat="0" lon="0">
        <time>2020-12-06T08:46:37.545000+00:00</time>
      </trkpt>
      <trkpt lat="0" lon="0">
        <time>2020-12-06T08:46:37.546000+00:00</time>
      </trkpt>
      <trkpt lat="47.33536" lon="-1.28407">
        <ele>41</ele>
        <time>2020-12-06T08:46:38.532000+00:00</time>
      </trkpt>
      <trkpt lat="0" lon="0">
        <time>2020-12-06T08:46:38.535000+00:00</time>
      </trkpt>
      <trkpt lat="0" lon="0">
        <time>2020-12-06T08:46:38.546000+00:00</time>
      </trkpt>
      <trkpt lat="0" lon="0">
        <time>2020-12-06T08:46:38.548000+00:00</time>
      </trkpt>
      <trkpt lat="47.33537" lon="-1.28401">
        <ele>41</ele>
        <time>2020-12-06T08:46:39.535000+00:00</time>
      </trkpt>
      <trkpt lat="0" lon="0">
        <time>2020-12-06T08:46:39.550000+00:00</time>
      </trkpt>
      <trkpt lat="0" lon="0">
        <time>2020-12-06T08:46:39.556000+00:00</time>
      </trkpt>
      <trkpt lat="0" lon="0">
        <time>2020-12-06T08:46:39.558000+00:00</time>
      </trkpt>
      <trkpt lat="47.33538" lon="-1.28396">
        <ele>41</ele>
        <time>2020-12-06T08:46:40.537000+00:00</time>
      </trkpt>
      <trkpt lat="0" lon="0">
        <time>2020-12-06T08:46:40.541000+00:00</time>
      </trkpt>
      <trkpt lat="0" lon="0">
        <time>2020-12-06T08:46:40.547000+00:00</time>
      </trkpt>
      <trkpt lat="0" lon="0">
        <time>2020-12-06T08:46:40.550000+00:00</time>
      </trkpt>
      <trkpt lat="47.33539" lon="-1.28391">
        <ele>41</ele>
        <time>2020-12-06T08:46:41.505000+00:00</time>
      </trkpt>
      <trkpt lat="0" lon="0">
        <time>2020-12-06T08:46:41.522000+00:00</time>
      </trkpt>
      <trkpt lat="0" lon="0">
        <time>2020-12-06T08:46:41.531000+00:00</time>
      </trkpt>
      <trkpt lat="0" lon="0">
        <time>2020-12-06T08:46:41.533000+00:00</time>
      </trkpt>
      <trkpt lat="47.33539" lon="-1.28386">
        <ele>42</ele>
        <time>2020-12-06T08:46:42.526000+00:00</time>
      </trkpt>
      <trkpt lat="0" lon="0">
        <time>2020-12-06T08:46:42.533000+00:00</time>
      </trkpt>
      <trkpt lat="0" lon="0">
        <time>2020-12-06T08:46:42.547000+00:00</time>
      </trkpt>
      <trkpt lat="0" lon="0">
        <time>2020-12-06T08:46:42.550000+00:00</time>
      </trkpt>
      <trkpt lat="47.33539" lon="-1.2838">
        <ele>42</ele>
        <time>2020-12-06T08:46:43.511000+00:00</time>
      </trkpt>
      <trkpt lat="0" lon="0">
        <time>2020-12-06T08:46:43.520000+00:00</time>
      </trkpt>
      <trkpt lat="0" lon="0">
        <time>2020-12-06T08:46:43.531000+00:00</time>
      </trkpt>
      <trkpt lat="0" lon="0">
        <time>2020-12-06T08:46:43.533000+00:00</time>
      </trkpt>
      <trkpt lat="47.33539" lon="-1.28375">
        <ele>42</ele>
        <time>2020-12-06T08:46:44.523000+00:00</time>
      </trkpt>
      <trkpt lat="0" lon="0">
        <time>2020-12-06T08:46:44.525000+00:00</time>
      </trkpt>
      <trkpt lat="0" lon="0">
        <time>2020-12-06T08:46:44.526000+00:00</time>
      </trkpt>
      <trkpt lat="0" lon="0">
        <time>2020-12-06T08:46:44.527000+00:00</time>
      </trkpt>
      <trkpt lat="47.33539" lon="-1.28368">
        <ele>42</ele>
        <time>2020-12-06T08:46:45.519000+00:00</time>
      </trkpt>
      <trkpt lat="0" lon="0">
        <time>2020-12-06T08:46:45.532000+00:00</time>
      </trkpt>
      <trkpt lat="0" lon="0">
        <time>2020-12-06T08:46:45.538000+00:00</time>
      </trkpt>
      <trkpt lat="0" lon="0">
        <time>2020-12-06T08:46:45.542000+00:00</time>
      </trkpt>
      <trkpt lat="47.3354" lon="-1.28361">
        <ele>43</ele>
        <time>2020-12-06T08:46:46.493000+00:00</time>
      </trkpt>
      <trkpt lat="0" lon="0">
        <time>2020-12-06T08:46:46.506000+00:00</time>
      </trkpt>
      <trkpt lat="0" lon="0">
        <time>2020-12-06T08:46:46.512000+00:00</time>
      </trkpt>
      <trkpt lat="0" lon="0">
        <time>2020-12-06T08:46:46.514000+00:00</time>
      </trkpt>
      <trkpt lat="47.33541" lon="-1.28353">
        <ele>43</ele>
        <time>2020-12-06T08:46:47.457000+00:00</time>
      </trkpt>
      <trkpt lat="0" lon="0">
        <time>2020-12-06T08:46:47.458000+00:00</time>
      </trkpt>
      <trkpt lat="0" lon="0">
        <time>2020-12-06T08:46:47.461000+00:00</time>
      </trkpt>
      <trkpt lat="0" lon="0">
        <time>2020-12-06T08:46:47.470000+00:00</time>
      </trkpt>
      <trkpt lat="47.33542" lon="-1.28344">
        <ele>43</ele>
        <time>2020-12-06T08:46:48.521000+00:00</time>
      </trkpt>
      <trkpt lat="0" lon="0">
        <time>2020-12-06T08:46:48.540000+00:00</time>
      </trkpt>
      <trkpt lat="0" lon="0">
        <time>2020-12-06T08:46:48.545000+00:00</time>
      </trkpt>
      <trkpt lat="0" lon="0">
        <time>2020-12-06T08:46:48.548000+00:00</time>
      </trkpt>
      <trkpt lat="47.33543" lon="-1.28334">
        <ele>43</ele>
        <time>2020-12-06T08:46:49.530000+00:00</time>
      </trkpt>
      <trkpt lat="0" lon="0">
        <time>2020-12-06T08:46:49.543000+00:00</time>
      </trkpt>
      <trkpt lat="0" lon="0">
        <time>2020-12-06T08:46:49.549000+00:00</time>
      </trkpt>
      <trkpt lat="0" lon="0">
        <time>2020-12-06T08:46:49.551000+00:00</time>
      </trkpt>
      <trkpt lat="47.33544" lon="-1.28324">
        <ele>43</ele>
        <time>2020-12-06T08:46:50.537000+00:00</time>
      </trkpt>
      <trkpt lat="0" lon="0">
        <time>2020-12-06T08:46:50.542000+00:00</time>
      </trkpt>
      <trkpt lat="0" lon="0">
        <time>2020-12-06T08:46:50.547000+00:00</time>
      </trkpt>
      <trkpt lat="0" lon="0">
        <time>2020-12-06T08:46:50.550000+00:00</time>
      </trkpt>
      <trkpt lat="47.33545" lon="-1.28314">
        <ele>43</ele>
        <time>2020-12-06T08:46:51.510000+00:00</time>
      </trkpt>
      <trkpt lat="0" lon="0">
        <time>2020-12-06T08:46:51.514000+00:00</time>
      </trkpt>
      <trkpt lat="0" lon="0">
        <time>2020-12-06T08:46:51.533000+00:00</time>
      </trkpt>
      <trkpt lat="0" lon="0">
        <time>2020-12-06T08:46:51.536000+00:00</time>
      </trkpt>
      <trkpt lat="47.33546" lon="-1.28304">
        <ele>42</ele>
        <time>2020-12-06T08:46:52.557000+00:00</time>
      </trkpt>
      <trkpt lat="0" lon="0">
        <time>2020-12-06T08:46:52.578000+00:00</time>
      </trkpt>
      <trkpt lat="0" lon="0">
        <time>2020-12-06T08:46:52.584000+00:00</time>
      </trkpt>
      <trkpt lat="0" lon="0">
        <time>2020-12-06T08:46:52.587000+00:00</time>
      </trkpt>
      <trkpt lat="47.33547" lon="-1.28294">
        <ele>42</ele>
        <time>2020-12-06T08:46:53.513000+00:00</time>
      </trkpt>
      <trkpt lat="0" lon="0">
        <time>2020-12-06T08:46:53.523000+00:00</time>
      </trkpt>
      <trkpt lat="0" lon="0">
        <time>2020-12-06T08:46:53.527000+00:00</time>
      </trkpt>
      <trkpt lat="0" lon="0">
        <time>2020-12-06T08:46:53.531000+00:00</time>
      </trkpt>
      <trkpt lat="47.33548" lon="-1.28285">
        <ele>42</ele>
        <time>2020-12-06T08:46:54.541000+00:00</time>
      </trkpt>
      <trkpt lat="0" lon="0">
        <time>2020-12-06T08:46:54.553000+00:00</time>
      </trkpt>
      <trkpt lat="0" lon="0">
        <time>2020-12-06T08:46:54.556000+00:00</time>
      </trkpt>
      <trkpt lat="0" lon="0">
        <time>2020-12-06T08:46:54.558000+00:00</time>
      </trkpt>
      <trkpt lat="47.3355" lon="-1.28276">
        <ele>41</ele>
        <time>2020-12-06T08:46:55.509000+00:00</time>
      </trkpt>
      <trkpt lat="0" lon="0">
        <time>2020-12-06T08:46:55.514000+00:00</time>
      </trkpt>
      <trkpt lat="0" lon="0">
        <time>2020-12-06T08:46:55.520000+00:00</time>
      </trkpt>
      <trkpt lat="0" lon="0">
        <time>2020-12-06T08:46:55.522000+00:00</time>
      </trkpt>
      <trkpt lat="47.33551" lon="-1.28268">
        <ele>41</ele>
        <time>2020-12-06T08:46:56.534000+00:00</time>
      </trkpt>
      <trkpt lat="0" lon="0">
        <time>2020-12-06T08:46:56.548000+00:00</time>
      </trkpt>
      <trkpt lat="0" lon="0">
        <time>2020-12-06T08:46:56.549000+00:00</time>
      </trkpt>
      <trkpt lat="0" lon="0">
        <time>2020-12-06T08:46:56.550000+00:00</time>
      </trkpt>
      <trkpt lat="47.33553" lon="-1.28259">
        <ele>40</ele>
        <time>2020-12-06T08:46:57.517000+00:00</time>
      </trkpt>
      <trkpt lat="0" lon="0">
        <time>2020-12-06T08:46:57.524000+00:00</time>
      </trkpt>
      <trkpt lat="0" lon="0">
        <time>2020-12-06T08:46:57.527000+00:00</time>
      </trkpt>
      <trkpt lat="0" lon="0">
        <time>2020-12-06T08:46:57.529000+00:00</time>
      </trkpt>
      <trkpt lat="47.33554" lon="-1.28252">
        <ele>40</ele>
        <time>2020-12-06T08:46:58.493000+00:00</time>
      </trkpt>
      <trkpt lat="0" lon="0">
        <time>2020-12-06T08:46:58.507000+00:00</time>
      </trkpt>
      <trkpt lat="0" lon="0">
        <time>2020-12-06T08:46:58.511000+00:00</time>
      </trkpt>
      <trkpt lat="0" lon="0">
        <time>2020-12-06T08:46:58.513000+00:00</time>
      </trkpt>
      <trkpt lat="47.33556" lon="-1.28244">
        <ele>39</ele>
        <time>2020-12-06T08:46:59.544000+00:00</time>
      </trkpt>
      <trkpt lat="0" lon="0">
        <time>2020-12-06T08:46:59.548000+00:00</time>
      </trkpt>
      <trkpt lat="0" lon="0">
        <time>2020-12-06T08:46:59.552000+00:00</time>
      </trkpt>
      <trkpt lat="0" lon="0">
        <time>2020-12-06T08:46:59.556000+00:00</time>
      </trkpt>
      <trkpt lat="47.33558" lon="-1.28238">
        <ele>38</ele>
        <time>2020-12-06T08:47:00.527000+00:00</time>
      </trkpt>
      <trkpt lat="0" lon="0">
        <time>2020-12-06T08:47:00.531000+00:00</time>
      </trkpt>
      <trkpt lat="0" lon="0">
        <time>2020-12-06T08:47:00.537000+00:00</time>
      </trkpt>
      <trkpt lat="0" lon="0">
        <time>2020-12-06T08:47:00.539000+00:00</time>
      </trkpt>
      <trkpt lat="47.3356" lon="-1.28231">
        <ele>37</ele>
        <time>2020-12-06T08:47:01.542000+00:00</time>
      </trkpt>
      <trkpt lat="0" lon="0">
        <time>2020-12-06T08:47:01.558000+00:00</time>
      </trkpt>
      <trkpt lat="0" lon="0">
        <time>2020-12-06T08:47:01.563000+00:00</time>
      </trkpt>
      <trkpt lat="0" lon="0">
        <time>2020-12-06T08:47:01.568000+00:00</time>
      </trkpt>
      <trkpt lat="47.33562" lon="-1.28225">
        <ele>36</ele>
        <time>2020-12-06T08:47:02.551000+00:00</time>
      </trkpt>
      <trkpt lat="0" lon="0">
        <time>2020-12-06T08:47:02.561000+00:00</time>
      </trkpt>
      <trkpt lat="0" lon="0">
        <time>2020-12-06T08:47:02.580000+00:00</time>
      </trkpt>
      <trkpt lat="0" lon="0">
        <time>2020-12-06T08:47:02.593000+00:00</time>
      </trkpt>
      <trkpt lat="47.33564" lon="-1.28218">
        <ele>35</ele>
        <time>2020-12-06T08:47:03.537000+00:00</time>
      </trkpt>
      <trkpt lat="0" lon="0">
        <time>2020-12-06T08:47:03.549000+00:00</time>
      </trkpt>
      <trkpt lat="0" lon="0">
        <time>2020-12-06T08:47:03.555000+00:00</time>
      </trkpt>
      <trkpt lat="0" lon="0">
        <time>2020-12-06T08:47:03.557000+00:00</time>
      </trkpt>
      <trkpt lat="47.33566" lon="-1.28212">
        <ele>34</ele>
        <time>2020-12-06T08:47:04.483000+00:00</time>
      </trkpt>
      <trkpt lat="0" lon="0">
        <time>2020-12-06T08:47:04.505000+00:00</time>
      </trkpt>
      <trkpt lat="0" lon="0">
        <time>2020-12-06T08:47:04.509000+00:00</time>
      </trkpt>
      <trkpt lat="0" lon="0">
        <time>2020-12-06T08:47:04.512000+00:00</time>
      </trkpt>
      <trkpt lat="47.33569" lon="-1.28206">
        <ele>33</ele>
        <time>2020-12-06T08:47:05.553000+00:00</time>
      </trkpt>
      <trkpt lat="0" lon="0">
        <time>2020-12-06T08:47:05.567000+00:00</time>
      </trkpt>
      <trkpt lat="0" lon="0">
        <time>2020-12-06T08:47:05.577000+00:00</time>
      </trkpt>
      <trkpt lat="0" lon="0">
        <time>2020-12-06T08:47:05.579000+00:00</time>
      </trkpt>
      <trkpt lat="47.33571" lon="-1.282">
        <ele>31</ele>
        <time>2020-12-06T08:47:06.521000+00:00</time>
      </trkpt>
      <trkpt lat="0" lon="0">
        <time>2020-12-06T08:47:06.529000+00:00</time>
      </trkpt>
      <trkpt lat="0" lon="0">
        <time>2020-12-06T08:47:06.534000+00:00</time>
      </trkpt>
      <trkpt lat="0" lon="0">
        <time>2020-12-06T08:47:06.536000+00:00</time>
      </trkpt>
      <trkpt lat="47.33573" lon="-1.28194">
        <ele>30</ele>
        <time>2020-12-06T08:47:07.539000+00:00</time>
      </trkpt>
      <trkpt lat="0" lon="0">
        <time>2020-12-06T08:47:07.560000+00:00</time>
      </trkpt>
      <trkpt lat="0" lon="0">
        <time>2020-12-06T08:47:07.564000+00:00</time>
      </trkpt>
      <trkpt lat="0" lon="0">
        <time>2020-12-06T08:47:07.566000+00:00</time>
      </trkpt>
      <trkpt lat="47.33575" lon="-1.28188">
        <ele>29</ele>
        <time>2020-12-06T08:47:08.515000+00:00</time>
      </trkpt>
      <trkpt lat="0" lon="0">
        <time>2020-12-06T08:47:08.528000+00:00</time>
      </trkpt>
      <trkpt lat="0" lon="0">
        <time>2020-12-06T08:47:08.530000+00:00</time>
      </trkpt>
      <trkpt lat="0" lon="0">
        <time>2020-12-06T08:47:08.532000+00:00</time>
      </trkpt>
      <trkpt lat="47.33578" lon="-1.28183">
        <ele>28</ele>
        <time>2020-12-06T08:47:09.531000+00:00</time>
      </trkpt>
      <trkpt lat="0" lon="0">
        <time>2020-12-06T08:47:09.536000+00:00</time>
      </trkpt>
      <trkpt lat="0" lon="0">
        <time>2020-12-06T08:47:09.539000+00:00</time>
      </trkpt>
      <trkpt lat="0" lon="0">
        <time>2020-12-06T08:47:09.541000+00:00</time>
      </trkpt>
      <trkpt lat="47.3358" lon="-1.28177">
        <ele>27</ele>
        <time>2020-12-06T08:47:10.523000+00:00</time>
      </trkpt>
      <trkpt lat="0" lon="0">
        <time>2020-12-06T08:47:10.538000+00:00</time>
      </trkpt>
      <trkpt lat="0" lon="0">
        <time>2020-12-06T08:47:10.544000+00:00</time>
      </trkpt>
      <trkpt lat="0" lon="0">
        <time>2020-12-06T08:47:10.547000+00:00</time>
      </trkpt>
      <trkpt lat="47.33582" lon="-1.28172">
        <ele>25</ele>
        <time>2020-12-06T08:47:11.480000+00:00</time>
      </trkpt>
      <trkpt lat="0" lon="0">
        <time>2020-12-06T08:47:11.486000+00:00</time>
      </trkpt>
      <trkpt lat="0" lon="0">
        <time>2020-12-06T08:47:11.491000+00:00</time>
      </trkpt>
      <trkpt lat="0" lon="0">
        <time>2020-12-06T08:47:11.497000+00:00</time>
      </trkpt>
      <trkpt lat="47.33585" lon="-1.28167">
        <ele>24</ele>
        <time>2020-12-06T08:47:12.527000+00:00</time>
      </trkpt>
      <trkpt lat="0" lon="0">
        <time>2020-12-06T08:47:12.538000+00:00</time>
      </trkpt>
      <trkpt lat="0" lon="0">
        <time>2020-12-06T08:47:12.541000+00:00</time>
      </trkpt>
      <trkpt lat="0" lon="0">
        <time>2020-12-06T08:47:12.544000+00:00</time>
      </trkpt>
      <trkpt lat="47.33587" lon="-1.28162">
        <ele>24</ele>
        <time>2020-12-06T08:47:13.521000+00:00</time>
      </trkpt>
      <trkpt lat="0" lon="0">
        <time>2020-12-06T08:47:13.539000+00:00</time>
      </trkpt>
      <trkpt lat="0" lon="0">
        <time>2020-12-06T08:47:13.546000+00:00</time>
      </trkpt>
      <trkpt lat="0" lon="0">
        <time>2020-12-06T08:47:13.550000+00:00</time>
      </trkpt>
      <trkpt lat="47.33589" lon="-1.28157">
        <ele>24</ele>
        <time>2020-12-06T08:47:14.538000+00:00</time>
      </trkpt>
      <trkpt lat="0" lon="0">
        <time>2020-12-06T08:47:14.548000+00:00</time>
      </trkpt>
      <trkpt lat="0" lon="0">
        <time>2020-12-06T08:47:14.554000+00:00</time>
      </trkpt>
      <trkpt lat="0" lon="0">
        <time>2020-12-06T08:47:14.562000+00:00</time>
      </trkpt>
      <trkpt lat="47.33591" lon="-1.28152">
        <ele>24</ele>
        <time>2020-12-06T08:47:15.538000+00:00</time>
      </trkpt>
      <trkpt lat="0" lon="0">
        <time>2020-12-06T08:47:15.552000+00:00</time>
      </trkpt>
      <trkpt lat="0" lon="0">
        <time>2020-12-06T08:47:15.559000+00:00</time>
      </trkpt>
      <trkpt lat="0" lon="0">
        <time>2020-12-06T08:47:15.561000+00:00</time>
      </trkpt>
      <trkpt lat="47.33593" lon="-1.28148">
        <ele>23</ele>
        <time>2020-12-06T08:47:16.509000+00:00</time>
      </trkpt>
      <trkpt lat="0" lon="0">
        <time>2020-12-06T08:47:16.516000+00:00</time>
      </trkpt>
      <trkpt lat="0" lon="0">
        <time>2020-12-06T08:47:16.525000+00:00</time>
      </trkpt>
      <trkpt lat="0" lon="0">
        <time>2020-12-06T08:47:16.527000+00:00</time>
      </trkpt>
      <trkpt lat="47.33595" lon="-1.28144">
        <ele>23</ele>
        <time>2020-12-06T08:47:17.518000+00:00</time>
      </trkpt>
      <trkpt lat="0" lon="0">
        <time>2020-12-06T08:47:17.521000+00:00</time>
      </trkpt>
      <trkpt lat="0" lon="0">
        <time>2020-12-06T08:47:17.529000+00:00</time>
      </trkpt>
      <trkpt lat="0" lon="0">
        <time>2020-12-06T08:47:17.531000+00:00</time>
      </trkpt>
      <trkpt lat="47.33596" lon="-1.2814">
        <ele>23</ele>
        <time>2020-12-06T08:47:18.516000+00:00</time>
      </trkpt>
      <trkpt lat="0" lon="0">
        <time>2020-12-06T08:47:18.519000+00:00</time>
      </trkpt>
      <trkpt lat="0" lon="0">
        <time>2020-12-06T08:47:18.529000+00:00</time>
      </trkpt>
      <trkpt lat="0" lon="0">
        <time>2020-12-06T08:47:18.530000+00:00</time>
      </trkpt>
      <trkpt lat="47.33598" lon="-1.28136">
        <ele>23</ele>
        <time>2020-12-06T08:47:19.548000+00:00</time>
      </trkpt>
      <trkpt lat="0" lon="0">
        <time>2020-12-06T08:47:19.554000+00:00</time>
      </trkpt>
      <trkpt lat="0" lon="0">
        <time>2020-12-06T08:47:19.560000+00:00</time>
      </trkpt>
      <trkpt lat="0" lon="0">
        <time>2020-12-06T08:47:19.566000+00:00</time>
      </trkpt>
      <trkpt lat="47.336" lon="-1.28132">
        <ele>23</ele>
        <time>2020-12-06T08:47:20.523000+00:00</time>
      </trkpt>
      <trkpt lat="0" lon="0">
        <time>2020-12-06T08:47:20.527000+00:00</time>
      </trkpt>
      <trkpt lat="0" lon="0">
        <time>2020-12-06T08:47:20.533000+00:00</time>
      </trkpt>
      <trkpt lat="0" lon="0">
        <time>2020-12-06T08:47:20.536000+00:00</time>
      </trkpt>
      <trkpt lat="47.33601" lon="-1.28128">
        <ele>23</ele>
        <time>2020-12-06T08:47:21.522000+00:00</time>
      </trkpt>
      <trkpt lat="0" lon="0">
        <time>2020-12-06T08:47:21.538000+00:00</time>
      </trkpt>
      <trkpt lat="0" lon="0">
        <time>2020-12-06T08:47:21.541000+00:00</time>
      </trkpt>
      <trkpt lat="0" lon="0">
        <time>2020-12-06T08:47:21.544000+00:00</time>
      </trkpt>
      <trkpt lat="47.33603" lon="-1.28123">
        <ele>22</ele>
        <time>2020-12-06T08:47:22.517000+00:00</time>
      </trkpt>
      <trkpt lat="0" lon="0">
        <time>2020-12-06T08:47:22.524000+00:00</time>
      </trkpt>
      <trkpt lat="0" lon="0">
        <time>2020-12-06T08:47:22.534000+00:00</time>
      </trkpt>
      <trkpt lat="0" lon="0">
        <time>2020-12-06T08:47:22.536000+00:00</time>
      </trkpt>
      <trkpt lat="47.33605" lon="-1.28118">
        <ele>22</ele>
        <time>2020-12-06T08:47:23.559000+00:00</time>
      </trkpt>
      <trkpt lat="0" lon="0">
        <time>2020-12-06T08:47:23.565000+00:00</time>
      </trkpt>
      <trkpt lat="0" lon="0">
        <time>2020-12-06T08:47:23.570000+00:00</time>
      </trkpt>
      <trkpt lat="0" lon="0">
        <time>2020-12-06T08:47:23.572000+00:00</time>
      </trkpt>
      <trkpt lat="47.33607" lon="-1.28113">
        <ele>22</ele>
        <time>2020-12-06T08:47:24.522000+00:00</time>
      </trkpt>
      <trkpt lat="0" lon="0">
        <time>2020-12-06T08:47:24.524000+00:00</time>
      </trkpt>
      <trkpt lat="0" lon="0">
        <time>2020-12-06T08:47:24.527000+00:00</time>
      </trkpt>
      <trkpt lat="0" lon="0">
        <time>2020-12-06T08:47:24.528000+00:00</time>
      </trkpt>
      <trkpt lat="47.33609" lon="-1.28108">
        <ele>22</ele>
        <time>2020-12-06T08:47:25.531000+00:00</time>
      </trkpt>
      <trkpt lat="0" lon="0">
        <time>2020-12-06T08:47:25.543000+00:00</time>
      </trkpt>
      <trkpt lat="0" lon="0">
        <time>2020-12-06T08:47:25.547000+00:00</time>
      </trkpt>
      <trkpt lat="0" lon="0">
        <time>2020-12-06T08:47:25.549000+00:00</time>
      </trkpt>
      <trkpt lat="47.33611" lon="-1.28103">
        <ele>22</ele>
        <time>2020-12-06T08:47:26.524000+00:00</time>
      </trkpt>
      <trkpt lat="0" lon="0">
        <time>2020-12-06T08:47:26.534000+00:00</time>
      </trkpt>
      <trkpt lat="0" lon="0">
        <time>2020-12-06T08:47:26.540000+00:00</time>
      </trkpt>
      <trkpt lat="0" lon="0">
        <time>2020-12-06T08:47:26.541000+00:00</time>
      </trkpt>
      <trkpt lat="47.33613" lon="-1.28097">
        <ele>21</ele>
        <time>2020-12-06T08:47:27.482000+00:00</time>
      </trkpt>
      <trkpt lat="0" lon="0">
        <time>2020-12-06T08:47:27.489000+00:00</time>
      </trkpt>
      <trkpt lat="0" lon="0">
        <time>2020-12-06T08:47:27.494000+00:00</time>
      </trkpt>
      <trkpt lat="0" lon="0">
        <time>2020-12-06T08:47:27.496000+00:00</time>
      </trkpt>
      <trkpt lat="47.33614" lon="-1.28092">
        <ele>21</ele>
        <time>2020-12-06T08:47:28.536000+00:00</time>
      </trkpt>
      <trkpt lat="0" lon="0">
        <time>2020-12-06T08:47:28.539000+00:00</time>
      </trkpt>
      <trkpt lat="0" lon="0">
        <time>2020-12-06T08:47:28.547000+00:00</time>
      </trkpt>
      <trkpt lat="0" lon="0">
        <time>2020-12-06T08:47:28.548000+00:00</time>
      </trkpt>
      <trkpt lat="47.33616" lon="-1.28086">
        <ele>21</ele>
        <time>2020-12-06T08:47:29.542000+00:00</time>
      </trkpt>
      <trkpt lat="0" lon="0">
        <time>2020-12-06T08:47:29.551000+00:00</time>
      </trkpt>
      <trkpt lat="0" lon="0">
        <time>2020-12-06T08:47:29.557000+00:00</time>
      </trkpt>
      <trkpt lat="0" lon="0">
        <time>2020-12-06T08:47:29.561000+00:00</time>
      </trkpt>
      <trkpt lat="47.33618" lon="-1.28081">
        <ele>21</ele>
        <time>2020-12-06T08:47:30.532000+00:00</time>
      </trkpt>
      <trkpt lat="0" lon="0">
        <time>2020-12-06T08:47:30.537000+00:00</time>
      </trkpt>
      <trkpt lat="0" lon="0">
        <time>2020-12-06T08:47:30.541000+00:00</time>
      </trkpt>
      <trkpt lat="0" lon="0">
        <time>2020-12-06T08:47:30.543000+00:00</time>
      </trkpt>
      <trkpt lat="47.3362" lon="-1.28075">
        <ele>21</ele>
        <time>2020-12-06T08:47:31.537000+00:00</time>
      </trkpt>
      <trkpt lat="0" lon="0">
        <time>2020-12-06T08:47:31.550000+00:00</time>
      </trkpt>
      <trkpt lat="0" lon="0">
        <time>2020-12-06T08:47:31.556000+00:00</time>
      </trkpt>
      <trkpt lat="0" lon="0">
        <time>2020-12-06T08:47:31.560000+00:00</time>
      </trkpt>
      <trkpt lat="47.33622" lon="-1.28069">
        <ele>20</ele>
        <time>2020-12-06T08:47:32.540000+00:00</time>
      </trkpt>
      <trkpt lat="0" lon="0">
        <time>2020-12-06T08:47:32.554000+00:00</time>
      </trkpt>
      <trkpt lat="0" lon="0">
        <time>2020-12-06T08:47:32.557000+00:00</time>
      </trkpt>
      <trkpt lat="0" lon="0">
        <time>2020-12-06T08:47:32.559000+00:00</time>
      </trkpt>
      <trkpt lat="47.33623" lon="-1.28064">
        <ele>20</ele>
        <time>2020-12-06T08:47:33.535000+00:00</time>
      </trkpt>
      <trkpt lat="0" lon="0">
        <time>2020-12-06T08:47:33.540000+00:00</time>
      </trkpt>
      <trkpt lat="0" lon="0">
        <time>2020-12-06T08:47:33.544000+00:00</time>
      </trkpt>
      <trkpt lat="0" lon="0">
        <time>2020-12-06T08:47:33.552000+00:00</time>
      </trkpt>
      <trkpt lat="47.33625" lon="-1.28058">
        <ele>20</ele>
        <time>2020-12-06T08:47:34.544000+00:00</time>
      </trkpt>
      <trkpt lat="0" lon="0">
        <time>2020-12-06T08:47:34.548000+00:00</time>
      </trkpt>
      <trkpt lat="0" lon="0">
        <time>2020-12-06T08:47:34.552000+00:00</time>
      </trkpt>
      <trkpt lat="0" lon="0">
        <time>2020-12-06T08:47:34.555000+00:00</time>
      </trkpt>
      <trkpt lat="47.33627" lon="-1.28053">
        <ele>20</ele>
        <time>2020-12-06T08:47:35.474000+00:00</time>
      </trkpt>
      <trkpt lat="0" lon="0">
        <time>2020-12-06T08:47:35.475000+00:00</time>
      </trkpt>
      <trkpt lat="0" lon="0">
        <time>2020-12-06T08:47:35.477000+00:00</time>
      </trkpt>
      <trkpt lat="0" lon="0">
        <time>2020-12-06T08:47:35.478000+00:00</time>
      </trkpt>
      <trkpt lat="47.33629" lon="-1.28048">
        <ele>20</ele>
        <time>2020-12-06T08:47:36.522000+00:00</time>
      </trkpt>
      <trkpt lat="0" lon="0">
        <time>2020-12-06T08:47:36.526000+00:00</time>
      </trkpt>
      <trkpt lat="0" lon="0">
        <time>2020-12-06T08:47:36.528000+00:00</time>
      </trkpt>
      <trkpt lat="0" lon="0">
        <time>2020-12-06T08:47:36.529000+00:00</time>
      </trkpt>
      <trkpt lat="47.3363" lon="-1.28043">
        <ele>19</ele>
        <time>2020-12-06T08:47:37.517000+00:00</time>
      </trkpt>
      <trkpt lat="0" lon="0">
        <time>2020-12-06T08:47:37.534000+00:00</time>
      </trkpt>
      <trkpt lat="0" lon="0">
        <time>2020-12-06T08:47:37.537000+00:00</time>
      </trkpt>
      <trkpt lat="0" lon="0">
        <time>2020-12-06T08:47:37.542000+00:00</time>
      </trkpt>
      <trkpt lat="47.33632" lon="-1.28038">
        <ele>19</ele>
        <time>2020-12-06T08:47:38.566000+00:00</time>
      </trkpt>
      <trkpt lat="0" lon="0">
        <time>2020-12-06T08:47:38.584000+00:00</time>
      </trkpt>
      <trkpt lat="0" lon="0">
        <time>2020-12-06T08:47:38.593000+00:00</time>
      </trkpt>
      <trkpt lat="0" lon="0">
        <time>2020-12-06T08:47:38.597000+00:00</time>
      </trkpt>
      <trkpt lat="47.33634" lon="-1.28033">
        <ele>19</ele>
        <time>2020-12-06T08:47:39.524000+00:00</time>
      </trkpt>
      <trkpt lat="0" lon="0">
        <time>2020-12-06T08:47:39.528000+00:00</time>
      </trkpt>
      <trkpt lat="0" lon="0">
        <time>2020-12-06T08:47:39.541000+00:00</time>
      </trkpt>
      <trkpt lat="0" lon="0">
        <time>2020-12-06T08:47:39.542000+00:00</time>
      </trkpt>
      <trkpt lat="47.33636" lon="-1.28029">
        <ele>19</ele>
        <time>2020-12-06T08:47:40.510000+00:00</time>
      </trkpt>
      <trkpt lat="0" lon="0">
        <time>2020-12-06T08:47:40.528000+00:00</time>
      </trkpt>
      <trkpt lat="0" lon="0">
        <time>2020-12-06T08:47:40.531000+00:00</time>
      </trkpt>
      <trkpt lat="0" lon="0">
        <time>2020-12-06T08:47:40.536000+00:00</time>
      </trkpt>
      <trkpt lat="47.33638" lon="-1.28024">
        <ele>18</ele>
        <time>2020-12-06T08:47:41.509000+00:00</time>
      </trkpt>
      <trkpt lat="0" lon="0">
        <time>2020-12-06T08:47:41.521000+00:00</time>
      </trkpt>
      <trkpt lat="0" lon="0">
        <time>2020-12-06T08:47:41.530000+00:00</time>
      </trkpt>
      <trkpt lat="0" lon="0">
        <time>2020-12-06T08:47:41.532000+00:00</time>
      </trkpt>
      <trkpt lat="47.3364" lon="-1.28019">
        <ele>18</ele>
        <time>2020-12-06T08:47:42.557000+00:00</time>
      </trkpt>
      <trkpt lat="0" lon="0">
        <time>2020-12-06T08:47:42.560000+00:00</time>
      </trkpt>
      <trkpt lat="0" lon="0">
        <time>2020-12-06T08:47:42.567000+00:00</time>
      </trkpt>
      <trkpt lat="0" lon="0">
        <time>2020-12-06T08:47:42.572000+00:00</time>
      </trkpt>
      <trkpt lat="47.33642" lon="-1.28015">
        <ele>18</ele>
        <time>2020-12-06T08:47:43.521000+00:00</time>
      </trkpt>
      <trkpt lat="0" lon="0">
        <time>2020-12-06T08:47:43.530000+00:00</time>
      </trkpt>
      <trkpt lat="0" lon="0">
        <time>2020-12-06T08:47:43.534000+00:00</time>
      </trkpt>
      <trkpt lat="0" lon="0">
        <time>2020-12-06T08:47:43.544000+00:00</time>
      </trkpt>
      <trkpt lat="47.33645" lon="-1.2801">
        <ele>17</ele>
        <time>2020-12-06T08:47:44.521000+00:00</time>
      </trkpt>
      <trkpt lat="0" lon="0">
        <time>2020-12-06T08:47:44.536000+00:00</time>
      </trkpt>
      <trkpt lat="0" lon="0">
        <time>2020-12-06T08:47:44.540000+00:00</time>
      </trkpt>
      <trkpt lat="0" lon="0">
        <time>2020-12-06T08:47:44.542000+00:00</time>
      </trkpt>
      <trkpt lat="47.33647" lon="-1.28005">
        <ele>17</ele>
        <time>2020-12-06T08:47:45.517000+00:00</time>
      </trkpt>
      <trkpt lat="0" lon="0">
        <time>2020-12-06T08:47:45.536000+00:00</time>
      </trkpt>
      <trkpt lat="0" lon="0">
        <time>2020-12-06T08:47:45.546000+00:00</time>
      </trkpt>
      <trkpt lat="0" lon="0">
        <time>2020-12-06T08:47:45.548000+00:00</time>
      </trkpt>
      <trkpt lat="47.33649" lon="-1.28">
        <ele>17</ele>
        <time>2020-12-06T08:47:46.493000+00:00</time>
      </trkpt>
      <trkpt lat="0" lon="0">
        <time>2020-12-06T08:47:46.501000+00:00</time>
      </trkpt>
      <trkpt lat="0" lon="0">
        <time>2020-12-06T08:47:46.504000+00:00</time>
      </trkpt>
      <trkpt lat="0" lon="0">
        <time>2020-12-06T08:47:46.506000+00:00</time>
      </trkpt>
      <trkpt lat="47.33651" lon="-1.27995">
        <ele>16</ele>
        <time>2020-12-06T08:47:47.511000+00:00</time>
      </trkpt>
      <trkpt lat="0" lon="0">
        <time>2020-12-06T08:47:47.519000+00:00</time>
      </trkpt>
      <trkpt lat="0" lon="0">
        <time>2020-12-06T08:47:47.527000+00:00</time>
      </trkpt>
      <trkpt lat="0" lon="0">
        <time>2020-12-06T08:47:47.529000+00:00</time>
      </trkpt>
      <trkpt lat="47.33654" lon="-1.2799">
        <ele>16</ele>
        <time>2020-12-06T08:47:48.526000+00:00</time>
      </trkpt>
      <trkpt lat="0" lon="0">
        <time>2020-12-06T08:47:48.531000+00:00</time>
      </trkpt>
      <trkpt lat="0" lon="0">
        <time>2020-12-06T08:47:48.532000+00:00</time>
      </trkpt>
      <trkpt lat="0" lon="0">
        <time>2020-12-06T08:47:48.533000+00:00</time>
      </trkpt>
      <trkpt lat="47.33656" lon="-1.27985">
        <ele>16</ele>
        <time>2020-12-06T08:47:49.504000+00:00</time>
      </trkpt>
      <trkpt lat="0" lon="0">
        <time>2020-12-06T08:47:49.507000+00:00</time>
      </trkpt>
      <trkpt lat="0" lon="0">
        <time>2020-12-06T08:47:49.512000+00:00</time>
      </trkpt>
      <trkpt lat="0" lon="0">
        <time>2020-12-06T08:47:49.514000+00:00</time>
      </trkpt>
      <trkpt lat="47.33658" lon="-1.2798">
        <ele>15</ele>
        <time>2020-12-06T08:47:50.547000+00:00</time>
      </trkpt>
      <trkpt lat="0" lon="0">
        <time>2020-12-06T08:47:50.550000+00:00</time>
      </trkpt>
      <trkpt lat="0" lon="0">
        <time>2020-12-06T08:47:50.557000+00:00</time>
      </trkpt>
      <trkpt lat="0" lon="0">
        <time>2020-12-06T08:47:50.559000+00:00</time>
      </trkpt>
      <trkpt lat="47.3366" lon="-1.27975">
        <ele>15</ele>
        <time>2020-12-06T08:47:51.519000+00:00</time>
      </trkpt>
      <trkpt lat="0" lon="0">
        <time>2020-12-06T08:47:51.522000+00:00</time>
      </trkpt>
      <trkpt lat="0" lon="0">
        <time>2020-12-06T08:47:51.527000+00:00</time>
      </trkpt>
      <trkpt lat="0" lon="0">
        <time>2020-12-06T08:47:51.529000+00:00</time>
      </trkpt>
      <trkpt lat="47.33663" lon="-1.2797">
        <ele>15</ele>
        <time>2020-12-06T08:47:52.514000+00:00</time>
      </trkpt>
      <trkpt lat="0" lon="0">
        <time>2020-12-06T08:47:52.516000+00:00</time>
      </trkpt>
      <trkpt lat="0" lon="0">
        <time>2020-12-06T08:47:52.520000+00:00</time>
      </trkpt>
      <trkpt lat="0" lon="0">
        <time>2020-12-06T08:47:52.529000+00:00</time>
      </trkpt>
      <trkpt lat="47.33665" lon="-1.27964">
        <ele>15</ele>
        <time>2020-12-06T08:47:53.525000+00:00</time>
      </trkpt>
      <trkpt lat="0" lon="0">
        <time>2020-12-06T08:47:53.532000+00:00</time>
      </trkpt>
      <trkpt lat="0" lon="0">
        <time>2020-12-06T08:47:53.544000+00:00</time>
      </trkpt>
      <trkpt lat="0" lon="0">
        <time>2020-12-06T08:47:53.548000+00:00</time>
      </trkpt>
      <trkpt lat="47.33667" lon="-1.27959">
        <ele>14</ele>
        <time>2020-12-06T08:47:54.511000+00:00</time>
      </trkpt>
      <trkpt lat="0" lon="0">
        <time>2020-12-06T08:47:54.527000+00:00</time>
      </trkpt>
      <trkpt lat="0" lon="0">
        <time>2020-12-06T08:47:54.531000+00:00</time>
      </trkpt>
      <trkpt lat="0" lon="0">
        <time>2020-12-06T08:47:54.538000+00:00</time>
      </trkpt>
      <trkpt lat="47.3367" lon="-1.27953">
        <ele>15</ele>
        <time>2020-12-06T08:47:55.478000+00:00</time>
      </trkpt>
      <trkpt lat="0" lon="0">
        <time>2020-12-06T08:47:55.493000+00:00</time>
      </trkpt>
      <trkpt lat="0" lon="0">
        <time>2020-12-06T08:47:55.497000+00:00</time>
      </trkpt>
      <trkpt lat="0" lon="0">
        <time>2020-12-06T08:47:55.499000+00:00</time>
      </trkpt>
      <trkpt lat="47.33672" lon="-1.27947">
        <ele>15</ele>
        <time>2020-12-06T08:47:56.513000+00:00</time>
      </trkpt>
      <trkpt lat="0" lon="0">
        <time>2020-12-06T08:47:56.524000+00:00</time>
      </trkpt>
      <trkpt lat="0" lon="0">
        <time>2020-12-06T08:47:56.534000+00:00</time>
      </trkpt>
      <trkpt lat="0" lon="0">
        <time>2020-12-06T08:47:56.536000+00:00</time>
      </trkpt>
      <trkpt lat="47.33675" lon="-1.27941">
        <ele>15</ele>
        <time>2020-12-06T08:47:57.544000+00:00</time>
      </trkpt>
      <trkpt lat="0" lon="0">
        <time>2020-12-06T08:47:57.546000+00:00</time>
      </trkpt>
      <trkpt lat="0" lon="0">
        <time>2020-12-06T08:47:57.550000+00:00</time>
      </trkpt>
      <trkpt lat="0" lon="0">
        <time>2020-12-06T08:47:57.561000+00:00</time>
      </trkpt>
      <trkpt lat="47.33677" lon="-1.27935">
        <ele>15</ele>
        <time>2020-12-06T08:47:58.523000+00:00</time>
      </trkpt>
      <trkpt lat="0" lon="0">
        <time>2020-12-06T08:47:58.535000+00:00</time>
      </trkpt>
      <trkpt lat="0" lon="0">
        <time>2020-12-06T08:47:58.542000+00:00</time>
      </trkpt>
      <trkpt lat="0" lon="0">
        <time>2020-12-06T08:47:58.545000+00:00</time>
      </trkpt>
      <trkpt lat="47.3368" lon="-1.27929">
        <ele>15</ele>
        <time>2020-12-06T08:47:59.541000+00:00</time>
      </trkpt>
      <trkpt lat="0" lon="0">
        <time>2020-12-06T08:47:59.549000+00:00</time>
      </trkpt>
      <trkpt lat="0" lon="0">
        <time>2020-12-06T08:47:59.550000+00:00</time>
      </trkpt>
      <trkpt lat="0" lon="0">
        <time>2020-12-06T08:47:59.551000+00:00</time>
      </trkpt>
      <trkpt lat="47.33683" lon="-1.27923">
        <ele>15</ele>
        <time>2020-12-06T08:48:00.501000+00:00</time>
      </trkpt>
      <trkpt lat="0" lon="0">
        <time>2020-12-06T08:48:00.505000+00:00</time>
      </trkpt>
      <trkpt lat="0" lon="0">
        <time>2020-12-06T08:48:00.516000+00:00</time>
      </trkpt>
      <trkpt lat="0" lon="0">
        <time>2020-12-06T08:48:00.524000+00:00</time>
      </trkpt>
      <trkpt lat="47.33685" lon="-1.27917">
        <ele>15</ele>
        <time>2020-12-06T08:48:01.533000+00:00</time>
      </trkpt>
      <trkpt lat="0" lon="0">
        <time>2020-12-06T08:48:01.539000+00:00</time>
      </trkpt>
      <trkpt lat="0" lon="0">
        <time>2020-12-06T08:48:01.561000+00:00</time>
      </trkpt>
      <trkpt lat="0" lon="0">
        <time>2020-12-06T08:48:01.565000+00:00</time>
      </trkpt>
      <trkpt lat="47.33688" lon="-1.27911">
        <ele>15</ele>
        <time>2020-12-06T08:48:02.552000+00:00</time>
      </trkpt>
      <trkpt lat="0" lon="0">
        <time>2020-12-06T08:48:02.568000+00:00</time>
      </trkpt>
      <trkpt lat="0" lon="0">
        <time>2020-12-06T08:48:02.572000+00:00</time>
      </trkpt>
      <trkpt lat="0" lon="0">
        <time>2020-12-06T08:48:02.573000+00:00</time>
      </trkpt>
      <trkpt lat="47.33691" lon="-1.27905">
        <ele>14</ele>
        <time>2020-12-06T08:48:03.486000+00:00</time>
      </trkpt>
      <trkpt lat="0" lon="0">
        <time>2020-12-06T08:48:03.500000+00:00</time>
      </trkpt>
      <trkpt lat="0" lon="0">
        <time>2020-12-06T08:48:03.508000+00:00</time>
      </trkpt>
      <trkpt lat="0" lon="0">
        <time>2020-12-06T08:48:03.509000+00:00</time>
      </trkpt>
      <trkpt lat="47.33693" lon="-1.27899">
        <ele>14</ele>
        <time>2020-12-06T08:48:04.507000+00:00</time>
      </trkpt>
      <trkpt lat="0" lon="0">
        <time>2020-12-06T08:48:04.510000+00:00</time>
      </trkpt>
      <trkpt lat="0" lon="0">
        <time>2020-12-06T08:48:04.516000+00:00</time>
      </trkpt>
      <trkpt lat="0" lon="0">
        <time>2020-12-06T08:48:04.519000+00:00</time>
      </trkpt>
      <trkpt lat="47.33695" lon="-1.27892">
        <ele>14</ele>
        <time>2020-12-06T08:48:05.554000+00:00</time>
      </trkpt>
      <trkpt lat="0" lon="0">
        <time>2020-12-06T08:48:05.558000+00:00</time>
      </trkpt>
      <trkpt lat="0" lon="0">
        <time>2020-12-06T08:48:05.566000+00:00</time>
      </trkpt>
      <trkpt lat="0" lon="0">
        <time>2020-12-06T08:48:05.571000+00:00</time>
      </trkpt>
      <trkpt lat="47.33698" lon="-1.27886">
        <ele>14</ele>
        <time>2020-12-06T08:48:06.563000+00:00</time>
      </trkpt>
      <trkpt lat="0" lon="0">
        <time>2020-12-06T08:48:06.568000+00:00</time>
      </trkpt>
      <trkpt lat="0" lon="0">
        <time>2020-12-06T08:48:06.577000+00:00</time>
      </trkpt>
      <trkpt lat="0" lon="0">
        <time>2020-12-06T08:48:06.579000+00:00</time>
      </trkpt>
      <trkpt lat="47.337" lon="-1.27879">
        <ele>14</ele>
        <time>2020-12-06T08:48:07.539000+00:00</time>
      </trkpt>
      <trkpt lat="0" lon="0">
        <time>2020-12-06T08:48:07.546000+00:00</time>
      </trkpt>
      <trkpt lat="0" lon="0">
        <time>2020-12-06T08:48:07.552000+00:00</time>
      </trkpt>
      <trkpt lat="0" lon="0">
        <time>2020-12-06T08:48:07.554000+00:00</time>
      </trkpt>
      <trkpt lat="47.33702" lon="-1.27873">
        <ele>13</ele>
        <time>2020-12-06T08:48:08.527000+00:00</time>
      </trkpt>
      <trkpt lat="0" lon="0">
        <time>2020-12-06T08:48:08.529000+00:00</time>
      </trkpt>
      <trkpt lat="0" lon="0">
        <time>2020-12-06T08:48:08.538000+00:00</time>
      </trkpt>
      <trkpt lat="0" lon="0">
        <time>2020-12-06T08:48:08.552000+00:00</time>
      </trkpt>
      <trkpt lat="47.33705" lon="-1.27867">
        <ele>13</ele>
        <time>2020-12-06T08:48:09.524000+00:00</time>
      </trkpt>
      <trkpt lat="0" lon="0">
        <time>2020-12-06T08:48:09.539000+00:00</time>
      </trkpt>
      <trkpt lat="0" lon="0">
        <time>2020-12-06T08:48:09.546000+00:00</time>
      </trkpt>
      <trkpt lat="0" lon="0">
        <time>2020-12-06T08:48:09.548000+00:00</time>
      </trkpt>
      <trkpt lat="47.33707" lon="-1.27861">
        <ele>13</ele>
        <time>2020-12-06T08:48:10.521000+00:00</time>
      </trkpt>
      <trkpt lat="0" lon="0">
        <time>2020-12-06T08:48:10.530000+00:00</time>
      </trkpt>
      <trkpt lat="0" lon="0">
        <time>2020-12-06T08:48:10.537000+00:00</time>
      </trkpt>
      <trkpt lat="0" lon="0">
        <time>2020-12-06T08:48:10.539000+00:00</time>
      </trkpt>
      <trkpt lat="47.33709" lon="-1.27855">
        <ele>13</ele>
        <time>2020-12-06T08:48:11.538000+00:00</time>
      </trkpt>
      <trkpt lat="0" lon="0">
        <time>2020-12-06T08:48:11.545000+00:00</time>
      </trkpt>
      <trkpt lat="0" lon="0">
        <time>2020-12-06T08:48:11.548000+00:00</time>
      </trkpt>
      <trkpt lat="0" lon="0">
        <time>2020-12-06T08:48:11.550000+00:00</time>
      </trkpt>
      <trkpt lat="47.33711" lon="-1.27848">
        <ele>13</ele>
        <time>2020-12-06T08:48:12.516000+00:00</time>
      </trkpt>
      <trkpt lat="0" lon="0">
        <time>2020-12-06T08:48:12.529000+00:00</time>
      </trkpt>
      <trkpt lat="0" lon="0">
        <time>2020-12-06T08:48:12.539000+00:00</time>
      </trkpt>
      <trkpt lat="0" lon="0">
        <time>2020-12-06T08:48:12.541000+00:00</time>
      </trkpt>
      <trkpt lat="47.33714" lon="-1.27843">
        <ele>12</ele>
        <time>2020-12-06T08:48:13.503000+00:00</time>
      </trkpt>
      <trkpt lat="0" lon="0">
        <time>2020-12-06T08:48:13.518000+00:00</time>
      </trkpt>
      <trkpt lat="0" lon="0">
        <time>2020-12-06T08:48:13.521000+00:00</time>
      </trkpt>
      <trkpt lat="0" lon="0">
        <time>2020-12-06T08:48:13.523000+00:00</time>
      </trkpt>
      <trkpt lat="47.33716" lon="-1.27837">
        <ele>12</ele>
        <time>2020-12-06T08:48:14.526000+00:00</time>
      </trkpt>
      <trkpt lat="0" lon="0">
        <time>2020-12-06T08:48:14.529000+00:00</time>
      </trkpt>
      <trkpt lat="0" lon="0">
        <time>2020-12-06T08:48:14.533000+00:00</time>
      </trkpt>
      <trkpt lat="0" lon="0">
        <time>2020-12-06T08:48:14.534000+00:00</time>
      </trkpt>
      <trkpt lat="47.33718" lon="-1.27831">
        <ele>12</ele>
        <time>2020-12-06T08:48:15.549000+00:00</time>
      </trkpt>
      <trkpt lat="0" lon="0">
        <time>2020-12-06T08:48:15.553000+00:00</time>
      </trkpt>
      <trkpt lat="0" lon="0">
        <time>2020-12-06T08:48:15.558000+00:00</time>
      </trkpt>
      <trkpt lat="0" lon="0">
        <time>2020-12-06T08:48:15.563000+00:00</time>
      </trkpt>
      <trkpt lat="47.3372" lon="-1.27825">
        <ele>12</ele>
        <time>2020-12-06T08:48:16.520000+00:00</time>
      </trkpt>
      <trkpt lat="0" lon="0">
        <time>2020-12-06T08:48:16.526000+00:00</time>
      </trkpt>
      <trkpt lat="0" lon="0">
        <time>2020-12-06T08:48:16.532000+00:00</time>
      </trkpt>
      <trkpt lat="0" lon="0">
        <time>2020-12-06T08:48:16.534000+00:00</time>
      </trkpt>
      <trkpt lat="47.33723" lon="-1.27819">
        <ele>12</ele>
        <time>2020-12-06T08:48:17.555000+00:00</time>
      </trkpt>
      <trkpt lat="0" lon="0">
        <time>2020-12-06T08:48:17.561000+00:00</time>
      </trkpt>
      <trkpt lat="0" lon="0">
        <time>2020-12-06T08:48:17.571000+00:00</time>
      </trkpt>
      <trkpt lat="0" lon="0">
        <time>2020-12-06T08:48:17.572000+00:00</time>
      </trkpt>
      <trkpt lat="47.33725" lon="-1.27813">
        <ele>13</ele>
        <time>2020-12-06T08:48:18.536000+00:00</time>
      </trkpt>
      <trkpt lat="0" lon="0">
        <time>2020-12-06T08:48:18.541000+00:00</time>
      </trkpt>
      <trkpt lat="0" lon="0">
        <time>2020-12-06T08:48:18.550000+00:00</time>
      </trkpt>
      <trkpt lat="0" lon="0">
        <time>2020-12-06T08:48:18.555000+00:00</time>
      </trkpt>
      <trkpt lat="47.33727" lon="-1.27807">
        <ele>13</ele>
        <time>2020-12-06T08:48:19.540000+00:00</time>
      </trkpt>
      <trkpt lat="0" lon="0">
        <time>2020-12-06T08:48:19.549000+00:00</time>
      </trkpt>
      <trkpt lat="0" lon="0">
        <time>2020-12-06T08:48:19.552000+00:00</time>
      </trkpt>
      <trkpt lat="0" lon="0">
        <time>2020-12-06T08:48:19.554000+00:00</time>
      </trkpt>
      <trkpt lat="47.3373" lon="-1.27801">
        <ele>13</ele>
        <time>2020-12-06T08:48:20.485000+00:00</time>
      </trkpt>
      <trkpt lat="0" lon="0">
        <time>2020-12-06T08:48:20.498000+00:00</time>
      </trkpt>
      <trkpt lat="0" lon="0">
        <time>2020-12-06T08:48:20.516000+00:00</time>
      </trkpt>
      <trkpt lat="0" lon="0">
        <time>2020-12-06T08:48:20.520000+00:00</time>
      </trkpt>
      <trkpt lat="47.33732" lon="-1.27795">
        <ele>13</ele>
        <time>2020-12-06T08:48:21.557000+00:00</time>
      </trkpt>
      <trkpt lat="0" lon="0">
        <time>2020-12-06T08:48:21.573000+00:00</time>
      </trkpt>
      <trkpt lat="0" lon="0">
        <time>2020-12-06T08:48:21.579000+00:00</time>
      </trkpt>
      <trkpt lat="0" lon="0">
        <time>2020-12-06T08:48:21.581000+00:00</time>
      </trkpt>
      <trkpt lat="47.33735" lon="-1.2779">
        <ele>13</ele>
        <time>2020-12-06T08:48:22.523000+00:00</time>
      </trkpt>
      <trkpt lat="0" lon="0">
        <time>2020-12-06T08:48:22.538000+00:00</time>
      </trkpt>
      <trkpt lat="0" lon="0">
        <time>2020-12-06T08:48:22.547000+00:00</time>
      </trkpt>
      <trkpt lat="0" lon="0">
        <time>2020-12-06T08:48:22.548000+00:00</time>
      </trkpt>
      <trkpt lat="47.33737" lon="-1.27784">
        <ele>14</ele>
        <time>2020-12-06T08:48:23.542000+00:00</time>
      </trkpt>
      <trkpt lat="0" lon="0">
        <time>2020-12-06T08:48:23.553000+00:00</time>
      </trkpt>
      <trkpt lat="0" lon="0">
        <time>2020-12-06T08:48:23.554000+00:00</time>
      </trkpt>
      <trkpt lat="0" lon="0">
        <time>2020-12-06T08:48:23.556000+00:00</time>
      </trkpt>
      <trkpt lat="47.3374" lon="-1.27778">
        <ele>14</ele>
        <time>2020-12-06T08:48:24.534000+00:00</time>
      </trkpt>
      <trkpt lat="0" lon="0">
        <time>2020-12-06T08:48:24.550000+00:00</time>
      </trkpt>
      <trkpt lat="0" lon="0">
        <time>2020-12-06T08:48:24.559000+00:00</time>
      </trkpt>
      <trkpt lat="0" lon="0">
        <time>2020-12-06T08:48:24.560000+00:00</time>
      </trkpt>
      <trkpt lat="47.33742" lon="-1.27773">
        <ele>15</ele>
        <time>2020-12-06T08:48:25.569000+00:00</time>
      </trkpt>
      <trkpt lat="0" lon="0">
        <time>2020-12-06T08:48:25.577000+00:00</time>
      </trkpt>
      <trkpt lat="0" lon="0">
        <time>2020-12-06T08:48:25.584000+00:00</time>
      </trkpt>
      <trkpt lat="0" lon="0">
        <time>2020-12-06T08:48:25.589000+00:00</time>
      </trkpt>
      <trkpt lat="47.33744" lon="-1.27767">
        <ele>15</ele>
        <time>2020-12-06T08:48:26.516000+00:00</time>
      </trkpt>
      <trkpt lat="0" lon="0">
        <time>2020-12-06T08:48:26.521000+00:00</time>
      </trkpt>
      <trkpt lat="0" lon="0">
        <time>2020-12-06T08:48:26.528000+00:00</time>
      </trkpt>
      <trkpt lat="0" lon="0">
        <time>2020-12-06T08:48:26.530000+00:00</time>
      </trkpt>
      <trkpt lat="47.33746" lon="-1.27761">
        <ele>15</ele>
        <time>2020-12-06T08:48:27.492000+00:00</time>
      </trkpt>
      <trkpt lat="0" lon="0">
        <time>2020-12-06T08:48:27.506000+00:00</time>
      </trkpt>
      <trkpt lat="0" lon="0">
        <time>2020-12-06T08:48:27.512000+00:00</time>
      </trkpt>
      <trkpt lat="0" lon="0">
        <time>2020-12-06T08:48:27.517000+00:00</time>
      </trkpt>
      <trkpt lat="47.33747" lon="-1.27756">
        <ele>16</ele>
        <time>2020-12-06T08:48:28.504000+00:00</time>
      </trkpt>
      <trkpt lat="0" lon="0">
        <time>2020-12-06T08:48:28.521000+00:00</time>
      </trkpt>
      <trkpt lat="0" lon="0">
        <time>2020-12-06T08:48:28.526000+00:00</time>
      </trkpt>
      <trkpt lat="0" lon="0">
        <time>2020-12-06T08:48:28.528000+00:00</time>
      </trkpt>
      <trkpt lat="47.33747" lon="-1.27751">
        <ele>16</ele>
        <time>2020-12-06T08:48:29.518000+00:00</time>
      </trkpt>
      <trkpt lat="0" lon="0">
        <time>2020-12-06T08:48:29.521000+00:00</time>
      </trkpt>
      <trkpt lat="0" lon="0">
        <time>2020-12-06T08:48:29.527000+00:00</time>
      </trkpt>
      <trkpt lat="0" lon="0">
        <time>2020-12-06T08:48:29.533000+00:00</time>
      </trkpt>
      <trkpt lat="47.33746" lon="-1.27746">
        <ele>17</ele>
        <time>2020-12-06T08:48:30.530000+00:00</time>
      </trkpt>
      <trkpt lat="0" lon="0">
        <time>2020-12-06T08:48:30.538000+00:00</time>
      </trkpt>
      <trkpt lat="0" lon="0">
        <time>2020-12-06T08:48:30.542000+00:00</time>
      </trkpt>
      <trkpt lat="0" lon="0">
        <time>2020-12-06T08:48:30.546000+00:00</time>
      </trkpt>
      <trkpt lat="47.33745" lon="-1.27742">
        <ele>18</ele>
        <time>2020-12-06T08:48:31.526000+00:00</time>
      </trkpt>
      <trkpt lat="0" lon="0">
        <time>2020-12-06T08:48:31.541000+00:00</time>
      </trkpt>
      <trkpt lat="0" lon="0">
        <time>2020-12-06T08:48:31.545000+00:00</time>
      </trkpt>
      <trkpt lat="0" lon="0">
        <time>2020-12-06T08:48:31.548000+00:00</time>
      </trkpt>
      <trkpt lat="47.33744" lon="-1.27739">
        <ele>19</ele>
        <time>2020-12-06T08:48:32.521000+00:00</time>
      </trkpt>
      <trkpt lat="0" lon="0">
        <time>2020-12-06T08:48:32.532000+00:00</time>
      </trkpt>
      <trkpt lat="0" lon="0">
        <time>2020-12-06T08:48:32.541000+00:00</time>
      </trkpt>
      <trkpt lat="0" lon="0">
        <time>2020-12-06T08:48:32.543000+00:00</time>
      </trkpt>
      <trkpt lat="47.33742" lon="-1.27737">
        <ele>19</ele>
        <time>2020-12-06T08:48:33.509000+00:00</time>
      </trkpt>
      <trkpt lat="0" lon="0">
        <time>2020-12-06T08:48:33.518000+00:00</time>
      </trkpt>
      <trkpt lat="0" lon="0">
        <time>2020-12-06T08:48:33.522000+00:00</time>
      </trkpt>
      <trkpt lat="0" lon="0">
        <time>2020-12-06T08:48:33.528000+00:00</time>
      </trkpt>
      <trkpt lat="47.3374" lon="-1.27735">
        <ele>20</ele>
        <time>2020-12-06T08:48:34.542000+00:00</time>
      </trkpt>
      <trkpt lat="0" lon="0">
        <time>2020-12-06T08:48:34.544000+00:00</time>
      </trkpt>
      <trkpt lat="0" lon="0">
        <time>2020-12-06T08:48:34.545000+00:00</time>
      </trkpt>
      <trkpt lat="0" lon="0">
        <time>2020-12-06T08:48:34.546000+00:00</time>
      </trkpt>
      <trkpt lat="47.33738" lon="-1.27734">
        <ele>20</ele>
        <time>2020-12-06T08:48:35.526000+00:00</time>
      </trkpt>
      <trkpt lat="0" lon="0">
        <time>2020-12-06T08:48:35.535000+00:00</time>
      </trkpt>
      <trkpt lat="0" lon="0">
        <time>2020-12-06T08:48:35.538000+00:00</time>
      </trkpt>
      <trkpt lat="0" lon="0">
        <time>2020-12-06T08:48:35.542000+00:00</time>
      </trkpt>
      <trkpt lat="47.33736" lon="-1.27734">
        <ele>20</ele>
        <time>2020-12-06T08:48:36.514000+00:00</time>
      </trkpt>
      <trkpt lat="0" lon="0">
        <time>2020-12-06T08:48:36.517000+00:00</time>
      </trkpt>
      <trkpt lat="0" lon="0">
        <time>2020-12-06T08:48:36.533000+00:00</time>
      </trkpt>
      <trkpt lat="0" lon="0">
        <time>2020-12-06T08:48:36.535000+00:00</time>
      </trkpt>
      <trkpt lat="47.33733" lon="-1.27734">
        <ele>20</ele>
        <time>2020-12-06T08:48:37.514000+00:00</time>
      </trkpt>
      <trkpt lat="0" lon="0">
        <time>2020-12-06T08:48:37.518000+00:00</time>
      </trkpt>
      <trkpt lat="0" lon="0">
        <time>2020-12-06T08:48:37.521000+00:00</time>
      </trkpt>
      <trkpt lat="0" lon="0">
        <time>2020-12-06T08:48:37.524000+00:00</time>
      </trkpt>
      <trkpt lat="47.3373" lon="-1.27734">
        <ele>19</ele>
        <time>2020-12-06T08:48:38.517000+00:00</time>
      </trkpt>
      <trkpt lat="0" lon="0">
        <time>2020-12-06T08:48:38.524000+00:00</time>
      </trkpt>
      <trkpt lat="0" lon="0">
        <time>2020-12-06T08:48:38.527000+00:00</time>
      </trkpt>
      <trkpt lat="0" lon="0">
        <time>2020-12-06T08:48:38.529000+00:00</time>
      </trkpt>
      <trkpt lat="47.33727" lon="-1.27736">
        <ele>19</ele>
        <time>2020-12-06T08:48:39.505000+00:00</time>
      </trkpt>
      <trkpt lat="0" lon="0">
        <time>2020-12-06T08:48:39.509000+00:00</time>
      </trkpt>
      <trkpt lat="0" lon="0">
        <time>2020-12-06T08:48:39.515000+00:00</time>
      </trkpt>
      <trkpt lat="0" lon="0">
        <time>2020-12-06T08:48:39.517000+00:00</time>
      </trkpt>
      <trkpt lat="47.33723" lon="-1.27738">
        <ele>19</ele>
        <time>2020-12-06T08:48:40.511000+00:00</time>
      </trkpt>
      <trkpt lat="0" lon="0">
        <time>2020-12-06T08:48:40.513000+00:00</time>
      </trkpt>
      <trkpt lat="0" lon="0">
        <time>2020-12-06T08:48:40.525000+00:00</time>
      </trkpt>
      <trkpt lat="0" lon="0">
        <time>2020-12-06T08:48:40.527000+00:00</time>
      </trkpt>
      <trkpt lat="47.33719" lon="-1.2774">
        <ele>18</ele>
        <time>2020-12-06T08:48:41.523000+00:00</time>
      </trkpt>
      <trkpt lat="0" lon="0">
        <time>2020-12-06T08:48:41.540000+00:00</time>
      </trkpt>
      <trkpt lat="0" lon="0">
        <time>2020-12-06T08:48:41.549000+00:00</time>
      </trkpt>
      <trkpt lat="0" lon="0">
        <time>2020-12-06T08:48:41.550000+00:00</time>
      </trkpt>
      <trkpt lat="47.33715" lon="-1.27743">
        <ele>18</ele>
        <time>2020-12-06T08:48:42.522000+00:00</time>
      </trkpt>
      <trkpt lat="0" lon="0">
        <time>2020-12-06T08:48:42.532000+00:00</time>
      </trkpt>
      <trkpt lat="0" lon="0">
        <time>2020-12-06T08:48:42.547000+00:00</time>
      </trkpt>
      <trkpt lat="0" lon="0">
        <time>2020-12-06T08:48:42.548000+00:00</time>
      </trkpt>
      <trkpt lat="47.33711" lon="-1.27747">
        <ele>17</ele>
        <time>2020-12-06T08:48:43.525000+00:00</time>
      </trkpt>
      <trkpt lat="0" lon="0">
        <time>2020-12-06T08:48:43.530000+00:00</time>
      </trkpt>
      <trkpt lat="0" lon="0">
        <time>2020-12-06T08:48:43.534000+00:00</time>
      </trkpt>
      <trkpt lat="0" lon="0">
        <time>2020-12-06T08:48:43.538000+00:00</time>
      </trkpt>
      <trkpt lat="47.33707" lon="-1.2775">
        <ele>16</ele>
        <time>2020-12-06T08:48:44.505000+00:00</time>
      </trkpt>
      <trkpt lat="0" lon="0">
        <time>2020-12-06T08:48:44.512000+00:00</time>
      </trkpt>
      <trkpt lat="0" lon="0">
        <time>2020-12-06T08:48:44.517000+00:00</time>
      </trkpt>
      <trkpt lat="0" lon="0">
        <time>2020-12-06T08:48:44.520000+00:00</time>
      </trkpt>
      <trkpt lat="47.33702" lon="-1.27754">
        <ele>16</ele>
        <time>2020-12-06T08:48:45.521000+00:00</time>
      </trkpt>
      <trkpt lat="0" lon="0">
        <time>2020-12-06T08:48:45.531000+00:00</time>
      </trkpt>
      <trkpt lat="0" lon="0">
        <time>2020-12-06T08:48:45.534000+00:00</time>
      </trkpt>
      <trkpt lat="0" lon="0">
        <time>2020-12-06T08:48:45.537000+00:00</time>
      </trkpt>
      <trkpt lat="47.33698" lon="-1.27758">
        <ele>16</ele>
        <time>2020-12-06T08:48:46.519000+00:00</time>
      </trkpt>
      <trkpt lat="0" lon="0">
        <time>2020-12-06T08:48:46.526000+00:00</time>
      </trkpt>
      <trkpt lat="0" lon="0">
        <time>2020-12-06T08:48:46.530000+00:00</time>
      </trkpt>
      <trkpt lat="0" lon="0">
        <time>2020-12-06T08:48:46.533000+00:00</time>
      </trkpt>
      <trkpt lat="47.33693" lon="-1.27761">
        <ele>16</ele>
        <time>2020-12-06T08:48:47.521000+00:00</time>
      </trkpt>
      <trkpt lat="0" lon="0">
        <time>2020-12-06T08:48:47.532000+00:00</time>
      </trkpt>
      <trkpt lat="0" lon="0">
        <time>2020-12-06T08:48:47.535000+00:00</time>
      </trkpt>
      <trkpt lat="0" lon="0">
        <time>2020-12-06T08:48:47.544000+00:00</time>
      </trkpt>
      <trkpt lat="47.33688" lon="-1.27764">
        <ele>16</ele>
        <time>2020-12-06T08:48:48.510000+00:00</time>
      </trkpt>
      <trkpt lat="0" lon="0">
        <time>2020-12-06T08:48:48.517000+00:00</time>
      </trkpt>
      <trkpt lat="0" lon="0">
        <time>2020-12-06T08:48:48.523000+00:00</time>
      </trkpt>
      <trkpt lat="0" lon="0">
        <time>2020-12-06T08:48:48.525000+00:00</time>
      </trkpt>
      <trkpt lat="47.33683" lon="-1.27767">
        <ele>16</ele>
        <time>2020-12-06T08:48:49.527000+00:00</time>
      </trkpt>
      <trkpt lat="0" lon="0">
        <time>2020-12-06T08:48:49.536000+00:00</time>
      </trkpt>
      <trkpt lat="0" lon="0">
        <time>2020-12-06T08:48:49.539000+00:00</time>
      </trkpt>
      <trkpt lat="0" lon="0">
        <time>2020-12-06T08:48:49.541000+00:00</time>
      </trkpt>
      <trkpt lat="47.33679" lon="-1.27769">
        <ele>16</ele>
        <time>2020-12-06T08:48:50.495000+00:00</time>
      </trkpt>
      <trkpt lat="0" lon="0">
        <time>2020-12-06T08:48:50.503000+00:00</time>
      </trkpt>
      <trkpt lat="0" lon="0">
        <time>2020-12-06T08:48:50.512000+00:00</time>
      </trkpt>
      <trkpt lat="0" lon="0">
        <time>2020-12-06T08:48:50.515000+00:00</time>
      </trkpt>
      <trkpt lat="47.33674" lon="-1.2777">
        <ele>17</ele>
        <time>2020-12-06T08:48:51.493000+00:00</time>
      </trkpt>
      <trkpt lat="0" lon="0">
        <time>2020-12-06T08:48:51.500000+00:00</time>
      </trkpt>
      <trkpt lat="0" lon="0">
        <time>2020-12-06T08:48:51.506000+00:00</time>
      </trkpt>
      <trkpt lat="0" lon="0">
        <time>2020-12-06T08:48:51.511000+00:00</time>
      </trkpt>
      <trkpt lat="47.33669" lon="-1.2777">
        <ele>17</ele>
        <time>2020-12-06T08:48:52.519000+00:00</time>
      </trkpt>
      <trkpt lat="0" lon="0">
        <time>2020-12-06T08:48:52.533000+00:00</time>
      </trkpt>
      <trkpt lat="0" lon="0">
        <time>2020-12-06T08:48:52.535000+00:00</time>
      </trkpt>
      <trkpt lat="0" lon="0">
        <time>2020-12-06T08:48:52.536000+00:00</time>
      </trkpt>
      <trkpt lat="47.33665" lon="-1.2777">
        <ele>17</ele>
        <time>2020-12-06T08:48:53.537000+00:00</time>
      </trkpt>
      <trkpt lat="0" lon="0">
        <time>2020-12-06T08:48:53.543000+00:00</time>
      </trkpt>
      <trkpt lat="0" lon="0">
        <time>2020-12-06T08:48:53.550000+00:00</time>
      </trkpt>
      <trkpt lat="0" lon="0">
        <time>2020-12-06T08:48:53.553000+00:00</time>
      </trkpt>
      <trkpt lat="47.3366" lon="-1.27769">
        <ele>17</ele>
        <time>2020-12-06T08:48:54.524000+00:00</time>
      </trkpt>
      <trkpt lat="0" lon="0">
        <time>2020-12-06T08:48:54.531000+00:00</time>
      </trkpt>
      <trkpt lat="0" lon="0">
        <time>2020-12-06T08:48:54.536000+00:00</time>
      </trkpt>
      <trkpt lat="0" lon="0">
        <time>2020-12-06T08:48:54.538000+00:00</time>
      </trkpt>
      <trkpt lat="47.33656" lon="-1.27768">
        <ele>17</ele>
        <time>2020-12-06T08:48:55.505000+00:00</time>
      </trkpt>
      <trkpt lat="0" lon="0">
        <time>2020-12-06T08:48:55.511000+00:00</time>
      </trkpt>
      <trkpt lat="0" lon="0">
        <time>2020-12-06T08:48:55.519000+00:00</time>
      </trkpt>
      <trkpt lat="0" lon="0">
        <time>2020-12-06T08:48:55.522000+00:00</time>
      </trkpt>
      <trkpt lat="47.33652" lon="-1.27765">
        <ele>18</ele>
        <time>2020-12-06T08:48:56.516000+00:00</time>
      </trkpt>
      <trkpt lat="0" lon="0">
        <time>2020-12-06T08:48:56.532000+00:00</time>
      </trkpt>
      <trkpt lat="0" lon="0">
        <time>2020-12-06T08:48:56.535000+00:00</time>
      </trkpt>
      <trkpt lat="0" lon="0">
        <time>2020-12-06T08:48:56.541000+00:00</time>
      </trkpt>
      <trkpt lat="47.33647" lon="-1.27763">
        <ele>18</ele>
        <time>2020-12-06T08:48:57.536000+00:00</time>
      </trkpt>
      <trkpt lat="0" lon="0">
        <time>2020-12-06T08:48:57.548000+00:00</time>
      </trkpt>
      <trkpt lat="0" lon="0">
        <time>2020-12-06T08:48:57.554000+00:00</time>
      </trkpt>
      <trkpt lat="0" lon="0">
        <time>2020-12-06T08:48:57.555000+00:00</time>
      </trkpt>
      <trkpt lat="47.33643" lon="-1.27759">
        <ele>18</ele>
        <time>2020-12-06T08:48:58.510000+00:00</time>
      </trkpt>
      <trkpt lat="0" lon="0">
        <time>2020-12-06T08:48:58.513000+00:00</time>
      </trkpt>
      <trkpt lat="0" lon="0">
        <time>2020-12-06T08:48:58.517000+00:00</time>
      </trkpt>
      <trkpt lat="0" lon="0">
        <time>2020-12-06T08:48:58.518000+00:00</time>
      </trkpt>
      <trkpt lat="47.33639" lon="-1.27756">
        <ele>18</ele>
        <time>2020-12-06T08:48:59.553000+00:00</time>
      </trkpt>
      <trkpt lat="0" lon="0">
        <time>2020-12-06T08:48:59.568000+00:00</time>
      </trkpt>
      <trkpt lat="0" lon="0">
        <time>2020-12-06T08:48:59.573000+00:00</time>
      </trkpt>
      <trkpt lat="0" lon="0">
        <time>2020-12-06T08:48:59.576000+00:00</time>
      </trkpt>
      <trkpt lat="47.33636" lon="-1.27751">
        <ele>18</ele>
        <time>2020-12-06T08:49:00.519000+00:00</time>
      </trkpt>
      <trkpt lat="0" lon="0">
        <time>2020-12-06T08:49:00.525000+00:00</time>
      </trkpt>
      <trkpt lat="0" lon="0">
        <time>2020-12-06T08:49:00.537000+00:00</time>
      </trkpt>
      <trkpt lat="0" lon="0">
        <time>2020-12-06T08:49:00.539000+00:00</time>
      </trkpt>
      <trkpt lat="47.33632" lon="-1.27747">
        <ele>19</ele>
        <time>2020-12-06T08:49:01.521000+00:00</time>
      </trkpt>
      <trkpt lat="0" lon="0">
        <time>2020-12-06T08:49:01.529000+00:00</time>
      </trkpt>
      <trkpt lat="0" lon="0">
        <time>2020-12-06T08:49:01.532000+00:00</time>
      </trkpt>
      <trkpt lat="0" lon="0">
        <time>2020-12-06T08:49:01.541000+00:00</time>
      </trkpt>
      <trkpt lat="47.33629" lon="-1.27743">
        <ele>19</ele>
        <time>2020-12-06T08:49:02.540000+00:00</time>
      </trkpt>
      <trkpt lat="0" lon="0">
        <time>2020-12-06T08:49:02.543000+00:00</time>
      </trkpt>
      <trkpt lat="0" lon="0">
        <time>2020-12-06T08:49:02.547000+00:00</time>
      </trkpt>
      <trkpt lat="0" lon="0">
        <time>2020-12-06T08:49:02.549000+00:00</time>
      </trkpt>
      <trkpt lat="47.33625" lon="-1.27738">
        <ele>20</ele>
        <time>2020-12-06T08:49:03.549000+00:00</time>
      </trkpt>
      <trkpt lat="0" lon="0">
        <time>2020-12-06T08:49:03.556000+00:00</time>
      </trkpt>
      <trkpt lat="0" lon="0">
        <time>2020-12-06T08:49:03.560000+00:00</time>
      </trkpt>
      <trkpt lat="0" lon="0">
        <time>2020-12-06T08:49:03.562000+00:00</time>
      </trkpt>
      <trkpt lat="47.33622" lon="-1.27734">
        <ele>20</ele>
        <time>2020-12-06T08:49:04.507000+00:00</time>
      </trkpt>
      <trkpt lat="0" lon="0">
        <time>2020-12-06T08:49:04.511000+00:00</time>
      </trkpt>
      <trkpt lat="0" lon="0">
        <time>2020-12-06T08:49:04.522000+00:00</time>
      </trkpt>
      <trkpt lat="0" lon="0">
        <time>2020-12-06T08:49:04.526000+00:00</time>
      </trkpt>
      <trkpt lat="47.33619" lon="-1.27729">
        <ele>21</ele>
        <time>2020-12-06T08:49:05.516000+00:00</time>
      </trkpt>
      <trkpt lat="0" lon="0">
        <time>2020-12-06T08:49:05.535000+00:00</time>
      </trkpt>
      <trkpt lat="0" lon="0">
        <time>2020-12-06T08:49:05.541000+00:00</time>
      </trkpt>
      <trkpt lat="0" lon="0">
        <time>2020-12-06T08:49:05.544000+00:00</time>
      </trkpt>
      <trkpt lat="47.33616" lon="-1.27725">
        <ele>21</ele>
        <time>2020-12-06T08:49:06.534000+00:00</time>
      </trkpt>
      <trkpt lat="0" lon="0">
        <time>2020-12-06T08:49:06.548000+00:00</time>
      </trkpt>
      <trkpt lat="0" lon="0">
        <time>2020-12-06T08:49:06.553000+00:00</time>
      </trkpt>
      <trkpt lat="0" lon="0">
        <time>2020-12-06T08:49:06.556000+00:00</time>
      </trkpt>
      <trkpt lat="47.33612" lon="-1.2772">
        <ele>22</ele>
        <time>2020-12-06T08:49:07.508000+00:00</time>
      </trkpt>
      <trkpt lat="0" lon="0">
        <time>2020-12-06T08:49:07.511000+00:00</time>
      </trkpt>
      <trkpt lat="0" lon="0">
        <time>2020-12-06T08:49:07.521000+00:00</time>
      </trkpt>
      <trkpt lat="0" lon="0">
        <time>2020-12-06T08:49:07.523000+00:00</time>
      </trkpt>
      <trkpt lat="47.33609" lon="-1.27716">
        <ele>23</ele>
        <time>2020-12-06T08:49:08.545000+00:00</time>
      </trkpt>
      <trkpt lat="0" lon="0">
        <time>2020-12-06T08:49:08.554000+00:00</time>
      </trkpt>
      <trkpt lat="0" lon="0">
        <time>2020-12-06T08:49:08.556000+00:00</time>
      </trkpt>
      <trkpt lat="0" lon="0">
        <time>2020-12-06T08:49:08.560000+00:00</time>
      </trkpt>
      <trkpt lat="47.33606" lon="-1.27712">
        <ele>23</ele>
        <time>2020-12-06T08:49:09.532000+00:00</time>
      </trkpt>
      <trkpt lat="0" lon="0">
        <time>2020-12-06T08:49:09.551000+00:00</time>
      </trkpt>
      <trkpt lat="0" lon="0">
        <time>2020-12-06T08:49:09.556000+00:00</time>
      </trkpt>
      <trkpt lat="0" lon="0">
        <time>2020-12-06T08:49:09.558000+00:00</time>
      </trkpt>
      <trkpt lat="47.33603" lon="-1.27708">
        <ele>24</ele>
        <time>2020-12-06T08:49:10.536000+00:00</time>
      </trkpt>
      <trkpt lat="0" lon="0">
        <time>2020-12-06T08:49:10.552000+00:00</time>
      </trkpt>
      <trkpt lat="0" lon="0">
        <time>2020-12-06T08:49:10.554000+00:00</time>
      </trkpt>
      <trkpt lat="0" lon="0">
        <time>2020-12-06T08:49:10.555000+00:00</time>
      </trkpt>
      <trkpt lat="47.336" lon="-1.27704">
        <ele>24</ele>
        <time>2020-12-06T08:49:11.470000+00:00</time>
      </trkpt>
      <trkpt lat="0" lon="0">
        <time>2020-12-06T08:49:11.475000+00:00</time>
      </trkpt>
      <trkpt lat="0" lon="0">
        <time>2020-12-06T08:49:11.480000+00:00</time>
      </trkpt>
      <trkpt lat="0" lon="0">
        <time>2020-12-06T08:49:11.482000+00:00</time>
      </trkpt>
      <trkpt lat="47.33597" lon="-1.27701">
        <ele>25</ele>
        <time>2020-12-06T08:49:12.434000+00:00</time>
      </trkpt>
      <trkpt lat="0" lon="0">
        <time>2020-12-06T08:49:12.437000+00:00</time>
      </trkpt>
      <trkpt lat="0" lon="0">
        <time>2020-12-06T08:49:12.438000+00:00</time>
      </trkpt>
      <trkpt lat="0" lon="0">
        <time>2020-12-06T08:49:12.440000+00:00</time>
      </trkpt>
      <trkpt lat="47.33594" lon="-1.27698">
        <ele>26</ele>
        <time>2020-12-06T08:49:13.468000+00:00</time>
      </trkpt>
      <trkpt lat="0" lon="0">
        <time>2020-12-06T08:49:13.470000+00:00</time>
      </trkpt>
      <trkpt lat="0" lon="0">
        <time>2020-12-06T08:49:13.475000+00:00</time>
      </trkpt>
      <trkpt lat="0" lon="0">
        <time>2020-12-06T08:49:13.477000+00:00</time>
      </trkpt>
      <trkpt lat="47.33591" lon="-1.27694">
        <ele>26</ele>
        <time>2020-12-06T08:49:14.513000+00:00</time>
      </trkpt>
      <trkpt lat="0" lon="0">
        <time>2020-12-06T08:49:14.515000+00:00</time>
      </trkpt>
      <trkpt lat="0" lon="0">
        <time>2020-12-06T08:49:14.518000+00:00</time>
      </trkpt>
      <trkpt lat="0" lon="0">
        <time>2020-12-06T08:49:14.519000+00:00</time>
      </trkpt>
      <trkpt lat="47.33589" lon="-1.2769">
        <ele>27</ele>
        <time>2020-12-06T08:49:15.488000+00:00</time>
      </trkpt>
      <trkpt lat="0" lon="0">
        <time>2020-12-06T08:49:15.494000+00:00</time>
      </trkpt>
      <trkpt lat="0" lon="0">
        <time>2020-12-06T08:49:15.503000+00:00</time>
      </trkpt>
      <trkpt lat="0" lon="0">
        <time>2020-12-06T08:49:15.506000+00:00</time>
      </trkpt>
      <trkpt lat="47.33587" lon="-1.27686">
        <ele>27</ele>
        <time>2020-12-06T08:49:16.504000+00:00</time>
      </trkpt>
      <trkpt lat="0" lon="0">
        <time>2020-12-06T08:49:16.507000+00:00</time>
      </trkpt>
      <trkpt lat="0" lon="0">
        <time>2020-12-06T08:49:16.510000+00:00</time>
      </trkpt>
      <trkpt lat="0" lon="0">
        <time>2020-12-06T08:49:16.514000+00:00</time>
      </trkpt>
      <trkpt lat="47.33585" lon="-1.27682">
        <ele>28</ele>
        <time>2020-12-06T08:49:17.506000+00:00</time>
      </trkpt>
      <trkpt lat="0" lon="0">
        <time>2020-12-06T08:49:17.511000+00:00</time>
      </trkpt>
      <trkpt lat="0" lon="0">
        <time>2020-12-06T08:49:17.515000+00:00</time>
      </trkpt>
      <trkpt lat="0" lon="0">
        <time>2020-12-06T08:49:17.517000+00:00</time>
      </trkpt>
      <trkpt lat="47.33583" lon="-1.27678">
        <ele>28</ele>
        <time>2020-12-06T08:49:18.491000+00:00</time>
      </trkpt>
      <trkpt lat="0" lon="0">
        <time>2020-12-06T08:49:18.498000+00:00</time>
      </trkpt>
      <trkpt lat="0" lon="0">
        <time>2020-12-06T08:49:18.503000+00:00</time>
      </trkpt>
      <trkpt lat="0" lon="0">
        <time>2020-12-06T08:49:18.505000+00:00</time>
      </trkpt>
      <trkpt lat="47.33582" lon="-1.27673">
        <ele>29</ele>
        <time>2020-12-06T08:49:19.532000+00:00</time>
      </trkpt>
      <trkpt lat="0" lon="0">
        <time>2020-12-06T08:49:19.536000+00:00</time>
      </trkpt>
      <trkpt lat="0" lon="0">
        <time>2020-12-06T08:49:19.537000+00:00</time>
      </trkpt>
      <trkpt lat="0" lon="0">
        <time>2020-12-06T08:49:19.538000+00:00</time>
      </trkpt>
      <trkpt lat="47.3358" lon="-1.27668">
        <ele>30</ele>
        <time>2020-12-06T08:49:20.530000+00:00</time>
      </trkpt>
      <trkpt lat="0" lon="0">
        <time>2020-12-06T08:49:20.533000+00:00</time>
      </trkpt>
      <trkpt lat="0" lon="0">
        <time>2020-12-06T08:49:20.548000+00:00</time>
      </trkpt>
      <trkpt lat="0" lon="0">
        <time>2020-12-06T08:49:20.550000+00:00</time>
      </trkpt>
      <trkpt lat="47.33578" lon="-1.27663">
        <ele>31</ele>
        <time>2020-12-06T08:49:21.552000+00:00</time>
      </trkpt>
      <trkpt lat="0" lon="0">
        <time>2020-12-06T08:49:21.566000+00:00</time>
      </trkpt>
      <trkpt lat="0" lon="0">
        <time>2020-12-06T08:49:21.570000+00:00</time>
      </trkpt>
      <trkpt lat="0" lon="0">
        <time>2020-12-06T08:49:21.572000+00:00</time>
      </trkpt>
      <trkpt lat="47.33577" lon="-1.27658">
        <ele>32</ele>
        <time>2020-12-06T08:49:22.537000+00:00</time>
      </trkpt>
      <trkpt lat="0" lon="0">
        <time>2020-12-06T08:49:22.550000+00:00</time>
      </trkpt>
      <trkpt lat="0" lon="0">
        <time>2020-12-06T08:49:22.553000+00:00</time>
      </trkpt>
      <trkpt lat="0" lon="0">
        <time>2020-12-06T08:49:22.557000+00:00</time>
      </trkpt>
      <trkpt lat="47.33577" lon="-1.27652">
        <ele>33</ele>
        <time>2020-12-06T08:49:23.505000+00:00</time>
      </trkpt>
      <trkpt lat="0" lon="0">
        <time>2020-12-06T08:49:23.517000+00:00</time>
      </trkpt>
      <trkpt lat="0" lon="0">
        <time>2020-12-06T08:49:23.521000+00:00</time>
      </trkpt>
      <trkpt lat="0" lon="0">
        <time>2020-12-06T08:49:23.523000+00:00</time>
      </trkpt>
      <trkpt lat="47.33577" lon="-1.27647">
        <ele>33</ele>
        <time>2020-12-06T08:49:24.494000+00:00</time>
      </trkpt>
      <trkpt lat="0" lon="0">
        <time>2020-12-06T08:49:24.508000+00:00</time>
      </trkpt>
      <trkpt lat="0" lon="0">
        <time>2020-12-06T08:49:24.512000+00:00</time>
      </trkpt>
      <trkpt lat="0" lon="0">
        <time>2020-12-06T08:49:24.514000+00:00</time>
      </trkpt>
      <trkpt lat="47.33577" lon="-1.27641">
        <ele>34</ele>
        <time>2020-12-06T08:49:25.538000+00:00</time>
      </trkpt>
      <trkpt lat="0" lon="0">
        <time>2020-12-06T08:49:25.545000+00:00</time>
      </trkpt>
      <trkpt lat="0" lon="0">
        <time>2020-12-06T08:49:25.547000+00:00</time>
      </trkpt>
      <trkpt lat="0" lon="0">
        <time>2020-12-06T08:49:25.550000+00:00</time>
      </trkpt>
      <trkpt lat="47.33578" lon="-1.27636">
        <ele>34</ele>
        <time>2020-12-06T08:49:26.497000+00:00</time>
      </trkpt>
      <trkpt lat="0" lon="0">
        <time>2020-12-06T08:49:26.514000+00:00</time>
      </trkpt>
      <trkpt lat="0" lon="0">
        <time>2020-12-06T08:49:26.517000+00:00</time>
      </trkpt>
      <trkpt lat="0" lon="0">
        <time>2020-12-06T08:49:26.520000+00:00</time>
      </trkpt>
      <trkpt lat="47.33579" lon="-1.2763">
        <ele>35</ele>
        <time>2020-12-06T08:49:27.520000+00:00</time>
      </trkpt>
      <trkpt lat="0" lon="0">
        <time>2020-12-06T08:49:27.532000+00:00</time>
      </trkpt>
      <trkpt lat="0" lon="0">
        <time>2020-12-06T08:49:27.540000+00:00</time>
      </trkpt>
      <trkpt lat="0" lon="0">
        <time>2020-12-06T08:49:27.546000+00:00</time>
      </trkpt>
      <trkpt lat="47.3358" lon="-1.27624">
        <ele>36</ele>
        <time>2020-12-06T08:49:28.510000+00:00</time>
      </trkpt>
      <trkpt lat="0" lon="0">
        <time>2020-12-06T08:49:28.517000+00:00</time>
      </trkpt>
      <trkpt lat="0" lon="0">
        <time>2020-12-06T08:49:28.529000+00:00</time>
      </trkpt>
      <trkpt lat="0" lon="0">
        <time>2020-12-06T08:49:28.530000+00:00</time>
      </trkpt>
      <trkpt lat="47.33582" lon="-1.27618">
        <ele>36</ele>
        <time>2020-12-06T08:49:29.565000+00:00</time>
      </trkpt>
      <trkpt lat="0" lon="0">
        <time>2020-12-06T08:49:29.570000+00:00</time>
      </trkpt>
      <trkpt lat="0" lon="0">
        <time>2020-12-06T08:49:29.573000+00:00</time>
      </trkpt>
      <trkpt lat="0" lon="0">
        <time>2020-12-06T08:49:29.575000+00:00</time>
      </trkpt>
      <trkpt lat="47.33584" lon="-1.27612">
        <ele>37</ele>
        <time>2020-12-06T08:49:30.524000+00:00</time>
      </trkpt>
      <trkpt lat="0" lon="0">
        <time>2020-12-06T08:49:30.542000+00:00</time>
      </trkpt>
      <trkpt lat="0" lon="0">
        <time>2020-12-06T08:49:30.551000+00:00</time>
      </trkpt>
      <trkpt lat="0" lon="0">
        <time>2020-12-06T08:49:30.556000+00:00</time>
      </trkpt>
      <trkpt lat="47.33585" lon="-1.27606">
        <ele>37</ele>
        <time>2020-12-06T08:49:31.495000+00:00</time>
      </trkpt>
      <trkpt lat="0" lon="0">
        <time>2020-12-06T08:49:31.497000+00:00</time>
      </trkpt>
      <trkpt lat="0" lon="0">
        <time>2020-12-06T08:49:31.506000+00:00</time>
      </trkpt>
      <trkpt lat="0" lon="0">
        <time>2020-12-06T08:49:31.513000+00:00</time>
      </trkpt>
      <trkpt lat="47.33587" lon="-1.27601">
        <ele>38</ele>
        <time>2020-12-06T08:49:32.500000+00:00</time>
      </trkpt>
      <trkpt lat="0" lon="0">
        <time>2020-12-06T08:49:32.514000+00:00</time>
      </trkpt>
      <trkpt lat="0" lon="0">
        <time>2020-12-06T08:49:32.524000+00:00</time>
      </trkpt>
      <trkpt lat="0" lon="0">
        <time>2020-12-06T08:49:32.526000+00:00</time>
      </trkpt>
      <trkpt lat="47.33589" lon="-1.27595">
        <ele>38</ele>
        <time>2020-12-06T08:49:33.509000+00:00</time>
      </trkpt>
      <trkpt lat="0" lon="0">
        <time>2020-12-06T08:49:33.517000+00:00</time>
      </trkpt>
      <trkpt lat="0" lon="0">
        <time>2020-12-06T08:49:33.526000+00:00</time>
      </trkpt>
      <trkpt lat="0" lon="0">
        <time>2020-12-06T08:49:33.528000+00:00</time>
      </trkpt>
      <trkpt lat="47.33591" lon="-1.2759">
        <ele>38</ele>
        <time>2020-12-06T08:49:34.501000+00:00</time>
      </trkpt>
      <trkpt lat="0" lon="0">
        <time>2020-12-06T08:49:34.507000+00:00</time>
      </trkpt>
      <trkpt lat="0" lon="0">
        <time>2020-12-06T08:49:34.516000+00:00</time>
      </trkpt>
      <trkpt lat="0" lon="0">
        <time>2020-12-06T08:49:34.527000+00:00</time>
      </trkpt>
      <trkpt lat="47.33593" lon="-1.27585">
        <ele>38</ele>
        <time>2020-12-06T08:49:35.536000+00:00</time>
      </trkpt>
      <trkpt lat="0" lon="0">
        <time>2020-12-06T08:49:35.551000+00:00</time>
      </trkpt>
      <trkpt lat="0" lon="0">
        <time>2020-12-06T08:49:35.557000+00:00</time>
      </trkpt>
      <trkpt lat="0" lon="0">
        <time>2020-12-06T08:49:35.559000+00:00</time>
      </trkpt>
      <trkpt lat="47.33595" lon="-1.2758">
        <ele>38</ele>
        <time>2020-12-06T08:49:36.542000+00:00</time>
      </trkpt>
      <trkpt lat="0" lon="0">
        <time>2020-12-06T08:49:36.549000+00:00</time>
      </trkpt>
      <trkpt lat="0" lon="0">
        <time>2020-12-06T08:49:36.561000+00:00</time>
      </trkpt>
      <trkpt lat="0" lon="0">
        <time>2020-12-06T08:49:36.564000+00:00</time>
      </trkpt>
      <trkpt lat="47.33598" lon="-1.27575">
        <ele>38</ele>
        <time>2020-12-06T08:49:37.549000+00:00</time>
      </trkpt>
      <trkpt lat="0" lon="0">
        <time>2020-12-06T08:49:37.551000+00:00</time>
      </trkpt>
      <trkpt lat="0" lon="0">
        <time>2020-12-06T08:49:37.564000+00:00</time>
      </trkpt>
      <trkpt lat="0" lon="0">
        <time>2020-12-06T08:49:37.568000+00:00</time>
      </trkpt>
      <trkpt lat="47.336" lon="-1.27569">
        <ele>38</ele>
        <time>2020-12-06T08:49:38.540000+00:00</time>
      </trkpt>
      <trkpt lat="0" lon="0">
        <time>2020-12-06T08:49:38.548000+00:00</time>
      </trkpt>
      <trkpt lat="0" lon="0">
        <time>2020-12-06T08:49:38.561000+00:00</time>
      </trkpt>
      <trkpt lat="0" lon="0">
        <time>2020-12-06T08:49:38.563000+00:00</time>
      </trkpt>
      <trkpt lat="47.33603" lon="-1.27564">
        <ele>37</ele>
        <time>2020-12-06T08:49:39.535000+00:00</time>
      </trkpt>
      <trkpt lat="0" lon="0">
        <time>2020-12-06T08:49:39.542000+00:00</time>
      </trkpt>
      <trkpt lat="0" lon="0">
        <time>2020-12-06T08:49:39.550000+00:00</time>
      </trkpt>
      <trkpt lat="0" lon="0">
        <time>2020-12-06T08:49:39.552000+00:00</time>
      </trkpt>
      <trkpt lat="47.33606" lon="-1.27558">
        <ele>37</ele>
        <time>2020-12-06T08:49:40.546000+00:00</time>
      </trkpt>
      <trkpt lat="0" lon="0">
        <time>2020-12-06T08:49:40.562000+00:00</time>
      </trkpt>
      <trkpt lat="0" lon="0">
        <time>2020-12-06T08:49:40.567000+00:00</time>
      </trkpt>
      <trkpt lat="0" lon="0">
        <time>2020-12-06T08:49:40.571000+00:00</time>
      </trkpt>
      <trkpt lat="47.33608" lon="-1.27552">
        <ele>37</ele>
        <time>2020-12-06T08:49:41.539000+00:00</time>
      </trkpt>
      <trkpt lat="0" lon="0">
        <time>2020-12-06T08:49:41.548000+00:00</time>
      </trkpt>
      <trkpt lat="0" lon="0">
        <time>2020-12-06T08:49:41.555000+00:00</time>
      </trkpt>
      <trkpt lat="0" lon="0">
        <time>2020-12-06T08:49:41.557000+00:00</time>
      </trkpt>
      <trkpt lat="47.33611" lon="-1.27545">
        <ele>36</ele>
        <time>2020-12-06T08:49:42.522000+00:00</time>
      </trkpt>
      <trkpt lat="0" lon="0">
        <time>2020-12-06T08:49:42.530000+00:00</time>
      </trkpt>
      <trkpt lat="0" lon="0">
        <time>2020-12-06T08:49:42.532000+00:00</time>
      </trkpt>
      <trkpt lat="0" lon="0">
        <time>2020-12-06T08:49:42.533000+00:00</time>
      </trkpt>
      <trkpt lat="47.33613" lon="-1.27539">
        <ele>36</ele>
        <time>2020-12-06T08:49:43.527000+00:00</time>
      </trkpt>
      <trkpt lat="0" lon="0">
        <time>2020-12-06T08:49:43.534000+00:00</time>
      </trkpt>
      <trkpt lat="0" lon="0">
        <time>2020-12-06T08:49:43.538000+00:00</time>
      </trkpt>
      <trkpt lat="0" lon="0">
        <time>2020-12-06T08:49:43.546000+00:00</time>
      </trkpt>
      <trkpt lat="47.33615" lon="-1.27532">
        <ele>36</ele>
        <time>2020-12-06T08:49:44.521000+00:00</time>
      </trkpt>
      <trkpt lat="0" lon="0">
        <time>2020-12-06T08:49:44.535000+00:00</time>
      </trkpt>
      <trkpt lat="0" lon="0">
        <time>2020-12-06T08:49:44.539000+00:00</time>
      </trkpt>
      <trkpt lat="0" lon="0">
        <time>2020-12-06T08:49:44.544000+00:00</time>
      </trkpt>
      <trkpt lat="47.33616" lon="-1.27525">
        <ele>36</ele>
        <time>2020-12-06T08:49:45.520000+00:00</time>
      </trkpt>
      <trkpt lat="0" lon="0">
        <time>2020-12-06T08:49:45.523000+00:00</time>
      </trkpt>
      <trkpt lat="0" lon="0">
        <time>2020-12-06T08:49:45.535000+00:00</time>
      </trkpt>
      <trkpt lat="0" lon="0">
        <time>2020-12-06T08:49:45.537000+00:00</time>
      </trkpt>
      <trkpt lat="47.33617" lon="-1.27518">
        <ele>36</ele>
        <time>2020-12-06T08:49:46.469000+00:00</time>
      </trkpt>
      <trkpt lat="0" lon="0">
        <time>2020-12-06T08:49:46.473000+00:00</time>
      </trkpt>
      <trkpt lat="0" lon="0">
        <time>2020-12-06T08:49:46.480000+00:00</time>
      </trkpt>
      <trkpt lat="0" lon="0">
        <time>2020-12-06T08:49:46.482000+00:00</time>
      </trkpt>
      <trkpt lat="47.33617" lon="-1.2751">
        <ele>36</ele>
        <time>2020-12-06T08:49:47.535000+00:00</time>
      </trkpt>
      <trkpt lat="0" lon="0">
        <time>2020-12-06T08:49:47.554000+00:00</time>
      </trkpt>
      <trkpt lat="0" lon="0">
        <time>2020-12-06T08:49:47.558000+00:00</time>
      </trkpt>
      <trkpt lat="0" lon="0">
        <time>2020-12-06T08:49:47.569000+00:00</time>
      </trkpt>
      <trkpt lat="47.33617" lon="-1.27503">
        <ele>36</ele>
        <time>2020-12-06T08:49:48.523000+00:00</time>
      </trkpt>
      <trkpt lat="0" lon="0">
        <time>2020-12-06T08:49:48.534000+00:00</time>
      </trkpt>
      <trkpt lat="0" lon="0">
        <time>2020-12-06T08:49:48.542000+00:00</time>
      </trkpt>
      <trkpt lat="0" lon="0">
        <time>2020-12-06T08:49:48.544000+00:00</time>
      </trkpt>
      <trkpt lat="47.33617" lon="-1.27495">
        <ele>36</ele>
        <time>2020-12-06T08:49:49.552000+00:00</time>
      </trkpt>
      <trkpt lat="0" lon="0">
        <time>2020-12-06T08:49:49.565000+00:00</time>
      </trkpt>
      <trkpt lat="0" lon="0">
        <time>2020-12-06T08:49:49.576000+00:00</time>
      </trkpt>
      <trkpt lat="0" lon="0">
        <time>2020-12-06T08:49:49.583000+00:00</time>
      </trkpt>
      <trkpt lat="47.33617" lon="-1.27488">
        <ele>36</ele>
        <time>2020-12-06T08:49:50.529000+00:00</time>
      </trkpt>
      <trkpt lat="0" lon="0">
        <time>2020-12-06T08:49:50.536000+00:00</time>
      </trkpt>
      <trkpt lat="0" lon="0">
        <time>2020-12-06T08:49:50.552000+00:00</time>
      </trkpt>
      <trkpt lat="0" lon="0">
        <time>2020-12-06T08:49:50.558000+00:00</time>
      </trkpt>
      <trkpt lat="47.33616" lon="-1.2748">
        <ele>36</ele>
        <time>2020-12-06T08:49:51.541000+00:00</time>
      </trkpt>
      <trkpt lat="0" lon="0">
        <time>2020-12-06T08:49:51.558000+00:00</time>
      </trkpt>
      <trkpt lat="0" lon="0">
        <time>2020-12-06T08:49:51.561000+00:00</time>
      </trkpt>
      <trkpt lat="0" lon="0">
        <time>2020-12-06T08:49:51.567000+00:00</time>
      </trkpt>
      <trkpt lat="47.33615" lon="-1.27472">
        <ele>37</ele>
        <time>2020-12-06T08:49:52.543000+00:00</time>
      </trkpt>
      <trkpt lat="0" lon="0">
        <time>2020-12-06T08:49:52.555000+00:00</time>
      </trkpt>
      <trkpt lat="0" lon="0">
        <time>2020-12-06T08:49:52.559000+00:00</time>
      </trkpt>
      <trkpt lat="0" lon="0">
        <time>2020-12-06T08:49:52.564000+00:00</time>
      </trkpt>
      <trkpt lat="47.33614" lon="-1.27464">
        <ele>37</ele>
        <time>2020-12-06T08:49:53.536000+00:00</time>
      </trkpt>
      <trkpt lat="0" lon="0">
        <time>2020-12-06T08:49:53.541000+00:00</time>
      </trkpt>
      <trkpt lat="0" lon="0">
        <time>2020-12-06T08:49:53.554000+00:00</time>
      </trkpt>
      <trkpt lat="0" lon="0">
        <time>2020-12-06T08:49:53.555000+00:00</time>
      </trkpt>
      <trkpt lat="47.33612" lon="-1.27456">
        <ele>37</ele>
        <time>2020-12-06T08:49:54.533000+00:00</time>
      </trkpt>
      <trkpt lat="0" lon="0">
        <time>2020-12-06T08:49:54.537000+00:00</time>
      </trkpt>
      <trkpt lat="0" lon="0">
        <time>2020-12-06T08:49:54.560000+00:00</time>
      </trkpt>
      <trkpt lat="0" lon="0">
        <time>2020-12-06T08:49:54.566000+00:00</time>
      </trkpt>
      <trkpt lat="47.3361" lon="-1.27449">
        <ele>38</ele>
        <time>2020-12-06T08:49:55.532000+00:00</time>
      </trkpt>
      <trkpt lat="0" lon="0">
        <time>2020-12-06T08:49:55.535000+00:00</time>
      </trkpt>
      <trkpt lat="0" lon="0">
        <time>2020-12-06T08:49:55.542000+00:00</time>
      </trkpt>
      <trkpt lat="0" lon="0">
        <time>2020-12-06T08:49:55.545000+00:00</time>
      </trkpt>
      <trkpt lat="47.33608" lon="-1.27441">
        <ele>38</ele>
        <time>2020-12-06T08:49:56.552000+00:00</time>
      </trkpt>
      <trkpt lat="0" lon="0">
        <time>2020-12-06T08:49:56.568000+00:00</time>
      </trkpt>
      <trkpt lat="0" lon="0">
        <time>2020-12-06T08:49:56.576000+00:00</time>
      </trkpt>
      <trkpt lat="0" lon="0">
        <time>2020-12-06T08:49:56.578000+00:00</time>
      </trkpt>
      <trkpt lat="47.33606" lon="-1.27433">
        <ele>38</ele>
        <time>2020-12-06T08:49:57.509000+00:00</time>
      </trkpt>
      <trkpt lat="0" lon="0">
        <time>2020-12-06T08:49:57.531000+00:00</time>
      </trkpt>
      <trkpt lat="0" lon="0">
        <time>2020-12-06T08:49:57.536000+00:00</time>
      </trkpt>
      <trkpt lat="0" lon="0">
        <time>2020-12-06T08:49:57.540000+00:00</time>
      </trkpt>
      <trkpt lat="47.33604" lon="-1.27425">
        <ele>39</ele>
        <time>2020-12-06T08:49:58.522000+00:00</time>
      </trkpt>
      <trkpt lat="0" lon="0">
        <time>2020-12-06T08:49:58.534000+00:00</time>
      </trkpt>
      <trkpt lat="0" lon="0">
        <time>2020-12-06T08:49:58.538000+00:00</time>
      </trkpt>
      <trkpt lat="0" lon="0">
        <time>2020-12-06T08:49:58.543000+00:00</time>
      </trkpt>
      <trkpt lat="47.33601" lon="-1.27418">
        <ele>39</ele>
        <time>2020-12-06T08:49:59.512000+00:00</time>
      </trkpt>
      <trkpt lat="0" lon="0">
        <time>2020-12-06T08:49:59.519000+00:00</time>
      </trkpt>
      <trkpt lat="0" lon="0">
        <time>2020-12-06T08:49:59.522000+00:00</time>
      </trkpt>
      <trkpt lat="0" lon="0">
        <time>2020-12-06T08:49:59.523000+00:00</time>
      </trkpt>
      <trkpt lat="47.33599" lon="-1.27411">
        <ele>39</ele>
        <time>2020-12-06T08:50:00.525000+00:00</time>
      </trkpt>
      <trkpt lat="0" lon="0">
        <time>2020-12-06T08:50:00.544000+00:00</time>
      </trkpt>
      <trkpt lat="0" lon="0">
        <time>2020-12-06T08:50:00.549000+00:00</time>
      </trkpt>
      <trkpt lat="0" lon="0">
        <time>2020-12-06T08:50:00.551000+00:00</time>
      </trkpt>
      <trkpt lat="47.33596" lon="-1.27404">
        <ele>39</ele>
        <time>2020-12-06T08:50:01.507000+00:00</time>
      </trkpt>
      <trkpt lat="0" lon="0">
        <time>2020-12-06T08:50:01.513000+00:00</time>
      </trkpt>
      <trkpt lat="0" lon="0">
        <time>2020-12-06T08:50:01.520000+00:00</time>
      </trkpt>
      <trkpt lat="0" lon="0">
        <time>2020-12-06T08:50:01.522000+00:00</time>
      </trkpt>
      <trkpt lat="47.33593" lon="-1.27397">
        <ele>39</ele>
        <time>2020-12-06T08:50:02.495000+00:00</time>
      </trkpt>
      <trkpt lat="0" lon="0">
        <time>2020-12-06T08:50:02.501000+00:00</time>
      </trkpt>
      <trkpt lat="0" lon="0">
        <time>2020-12-06T08:50:02.512000+00:00</time>
      </trkpt>
      <trkpt lat="0" lon="0">
        <time>2020-12-06T08:50:02.514000+00:00</time>
      </trkpt>
      <trkpt lat="47.3359" lon="-1.2739">
        <ele>38</ele>
        <time>2020-12-06T08:50:03.501000+00:00</time>
      </trkpt>
      <trkpt lat="0" lon="0">
        <time>2020-12-06T08:50:03.512000+00:00</time>
      </trkpt>
      <trkpt lat="0" lon="0">
        <time>2020-12-06T08:50:03.515000+00:00</time>
      </trkpt>
      <trkpt lat="0" lon="0">
        <time>2020-12-06T08:50:03.517000+00:00</time>
      </trkpt>
      <trkpt lat="47.33588" lon="-1.27384">
        <ele>38</ele>
        <time>2020-12-06T08:50:04.528000+00:00</time>
      </trkpt>
      <trkpt lat="0" lon="0">
        <time>2020-12-06T08:50:04.536000+00:00</time>
      </trkpt>
      <trkpt lat="0" lon="0">
        <time>2020-12-06T08:50:04.544000+00:00</time>
      </trkpt>
      <trkpt lat="0" lon="0">
        <time>2020-12-06T08:50:04.548000+00:00</time>
      </trkpt>
      <trkpt lat="47.33585" lon="-1.27379">
        <ele>37</ele>
        <time>2020-12-06T08:50:05.539000+00:00</time>
      </trkpt>
      <trkpt lat="0" lon="0">
        <time>2020-12-06T08:50:05.557000+00:00</time>
      </trkpt>
      <trkpt lat="0" lon="0">
        <time>2020-12-06T08:50:05.560000+00:00</time>
      </trkpt>
      <trkpt lat="0" lon="0">
        <time>2020-12-06T08:50:05.562000+00:00</time>
      </trkpt>
      <trkpt lat="47.33582" lon="-1.27373">
        <ele>37</ele>
        <time>2020-12-06T08:50:06.508000+00:00</time>
      </trkpt>
      <trkpt lat="0" lon="0">
        <time>2020-12-06T08:50:06.515000+00:00</time>
      </trkpt>
      <trkpt lat="0" lon="0">
        <time>2020-12-06T08:50:06.524000+00:00</time>
      </trkpt>
      <trkpt lat="0" lon="0">
        <time>2020-12-06T08:50:06.526000+00:00</time>
      </trkpt>
      <trkpt lat="47.33579" lon="-1.27368">
        <ele>37</ele>
        <time>2020-12-06T08:50:07.531000+00:00</time>
      </trkpt>
      <trkpt lat="0" lon="0">
        <time>2020-12-06T08:50:07.542000+00:00</time>
      </trkpt>
      <trkpt lat="0" lon="0">
        <time>2020-12-06T08:50:07.545000+00:00</time>
      </trkpt>
      <trkpt lat="47.33576" lon="-1.27363">
        <ele>37</ele>
        <time>2020-12-06T08:50:08.519000+00:00</time>
      </trkpt>
      <trkpt lat="0" lon="0">
        <time>2020-12-06T08:50:08.529000+00:00</time>
      </trkpt>
      <trkpt lat="0" lon="0">
        <time>2020-12-06T08:50:08.531000+00:00</time>
      </trkpt>
      <trkpt lat="0" lon="0">
        <time>2020-12-06T08:50:08.532000+00:00</time>
      </trkpt>
      <trkpt lat="47.33573" lon="-1.27359">
        <ele>36</ele>
        <time>2020-12-06T08:50:09.571000+00:00</time>
      </trkpt>
      <trkpt lat="0" lon="0">
        <time>2020-12-06T08:50:09.584000+00:00</time>
      </trkpt>
      <trkpt lat="0" lon="0">
        <time>2020-12-06T08:50:09.591000+00:00</time>
      </trkpt>
      <trkpt lat="0" lon="0">
        <time>2020-12-06T08:50:09.594000+00:00</time>
      </trkpt>
      <trkpt lat="47.3357" lon="-1.27354">
        <ele>36</ele>
        <time>2020-12-06T08:50:10.550000+00:00</time>
      </trkpt>
      <trkpt lat="0" lon="0">
        <time>2020-12-06T08:50:10.554000+00:00</time>
      </trkpt>
      <trkpt lat="0" lon="0">
        <time>2020-12-06T08:50:10.557000+00:00</time>
      </trkpt>
      <trkpt lat="0" lon="0">
        <time>2020-12-06T08:50:10.560000+00:00</time>
      </trkpt>
      <trkpt lat="47.33568" lon="-1.2735">
        <ele>36</ele>
        <time>2020-12-06T08:50:11.455000+00:00</time>
      </trkpt>
      <trkpt lat="0" lon="0">
        <time>2020-12-06T08:50:11.460000+00:00</time>
      </trkpt>
      <trkpt lat="0" lon="0">
        <time>2020-12-06T08:50:11.466000+00:00</time>
      </trkpt>
      <trkpt lat="0" lon="0">
        <time>2020-12-06T08:50:11.467000+00:00</time>
      </trkpt>
      <trkpt lat="47.33565" lon="-1.27346">
        <ele>36</ele>
        <time>2020-12-06T08:50:12.520000+00:00</time>
      </trkpt>
      <trkpt lat="0" lon="0">
        <time>2020-12-06T08:50:12.531000+00:00</time>
      </trkpt>
      <trkpt lat="0" lon="0">
        <time>2020-12-06T08:50:12.533000+00:00</time>
      </trkpt>
      <trkpt lat="0" lon="0">
        <time>2020-12-06T08:50:12.535000+00:00</time>
      </trkpt>
      <trkpt lat="47.33562" lon="-1.27341">
        <ele>36</ele>
        <time>2020-12-06T08:50:13.524000+00:00</time>
      </trkpt>
      <trkpt lat="0" lon="0">
        <time>2020-12-06T08:50:13.536000+00:00</time>
      </trkpt>
      <trkpt lat="0" lon="0">
        <time>2020-12-06T08:50:13.539000+00:00</time>
      </trkpt>
      <trkpt lat="0" lon="0">
        <time>2020-12-06T08:50:13.542000+00:00</time>
      </trkpt>
      <trkpt lat="47.33559" lon="-1.27337">
        <ele>36</ele>
        <time>2020-12-06T08:50:14.536000+00:00</time>
      </trkpt>
      <trkpt lat="0" lon="0">
        <time>2020-12-06T08:50:14.552000+00:00</time>
      </trkpt>
      <trkpt lat="0" lon="0">
        <time>2020-12-06T08:50:14.557000+00:00</time>
      </trkpt>
      <trkpt lat="0" lon="0">
        <time>2020-12-06T08:50:14.559000+00:00</time>
      </trkpt>
      <trkpt lat="47.33556" lon="-1.27333">
        <ele>35</ele>
        <time>2020-12-06T08:50:15.548000+00:00</time>
      </trkpt>
      <trkpt lat="0" lon="0">
        <time>2020-12-06T08:50:15.552000+00:00</time>
      </trkpt>
      <trkpt lat="0" lon="0">
        <time>2020-12-06T08:50:15.556000+00:00</time>
      </trkpt>
      <trkpt lat="0" lon="0">
        <time>2020-12-06T08:50:15.558000+00:00</time>
      </trkpt>
      <trkpt lat="47.33553" lon="-1.27329">
        <ele>36</ele>
        <time>2020-12-06T08:50:16.527000+00:00</time>
      </trkpt>
      <trkpt lat="0" lon="0">
        <time>2020-12-06T08:50:16.533000+00:00</time>
      </trkpt>
      <trkpt lat="0" lon="0">
        <time>2020-12-06T08:50:16.535000+00:00</time>
      </trkpt>
      <trkpt lat="0" lon="0">
        <time>2020-12-06T08:50:16.536000+00:00</time>
      </trkpt>
      <trkpt lat="47.3355" lon="-1.27325">
        <ele>36</ele>
        <time>2020-12-06T08:50:17.535000+00:00</time>
      </trkpt>
      <trkpt lat="0" lon="0">
        <time>2020-12-06T08:50:17.545000+00:00</time>
      </trkpt>
      <trkpt lat="0" lon="0">
        <time>2020-12-06T08:50:17.551000+00:00</time>
      </trkpt>
      <trkpt lat="0" lon="0">
        <time>2020-12-06T08:50:17.553000+00:00</time>
      </trkpt>
      <trkpt lat="47.33547" lon="-1.2732">
        <ele>36</ele>
        <time>2020-12-06T08:50:18.513000+00:00</time>
      </trkpt>
      <trkpt lat="0" lon="0">
        <time>2020-12-06T08:50:18.517000+00:00</time>
      </trkpt>
      <trkpt lat="0" lon="0">
        <time>2020-12-06T08:50:18.523000+00:00</time>
      </trkpt>
      <trkpt lat="0" lon="0">
        <time>2020-12-06T08:50:18.529000+00:00</time>
      </trkpt>
      <trkpt lat="47.33545" lon="-1.27316">
        <ele>36</ele>
        <time>2020-12-06T08:50:19.519000+00:00</time>
      </trkpt>
      <trkpt lat="0" lon="0">
        <time>2020-12-06T08:50:19.530000+00:00</time>
      </trkpt>
      <trkpt lat="0" lon="0">
        <time>2020-12-06T08:50:19.534000+00:00</time>
      </trkpt>
      <trkpt lat="0" lon="0">
        <time>2020-12-06T08:50:19.536000+00:00</time>
      </trkpt>
      <trkpt lat="47.33542" lon="-1.27312">
        <ele>36</ele>
        <time>2020-12-06T08:50:20.535000+00:00</time>
      </trkpt>
      <trkpt lat="0" lon="0">
        <time>2020-12-06T08:50:20.549000+00:00</time>
      </trkpt>
      <trkpt lat="0" lon="0">
        <time>2020-12-06T08:50:20.557000+00:00</time>
      </trkpt>
      <trkpt lat="0" lon="0">
        <time>2020-12-06T08:50:20.560000+00:00</time>
      </trkpt>
      <trkpt lat="47.33539" lon="-1.27308">
        <ele>36</ele>
        <time>2020-12-06T08:50:21.521000+00:00</time>
      </trkpt>
      <trkpt lat="0" lon="0">
        <time>2020-12-06T08:50:21.527000+00:00</time>
      </trkpt>
      <trkpt lat="0" lon="0">
        <time>2020-12-06T08:50:21.533000+00:00</time>
      </trkpt>
      <trkpt lat="0" lon="0">
        <time>2020-12-06T08:50:21.535000+00:00</time>
      </trkpt>
      <trkpt lat="47.33536" lon="-1.27304">
        <ele>37</ele>
        <time>2020-12-06T08:50:22.488000+00:00</time>
      </trkpt>
      <trkpt lat="0" lon="0">
        <time>2020-12-06T08:50:22.493000+00:00</time>
      </trkpt>
      <trkpt lat="0" lon="0">
        <time>2020-12-06T08:50:22.496000+00:00</time>
      </trkpt>
      <trkpt lat="0" lon="0">
        <time>2020-12-06T08:50:22.497000+00:00</time>
      </trkpt>
      <trkpt lat="47.33533" lon="-1.27301">
        <ele>37</ele>
        <time>2020-12-06T08:50:23.533000+00:00</time>
      </trkpt>
      <trkpt lat="0" lon="0">
        <time>2020-12-06T08:50:23.541000+00:00</time>
      </trkpt>
      <trkpt lat="0" lon="0">
        <time>2020-12-06T08:50:23.545000+00:00</time>
      </trkpt>
      <trkpt lat="0" lon="0">
        <time>2020-12-06T08:50:23.548000+00:00</time>
      </trkpt>
      <trkpt lat="47.3353" lon="-1.27298">
        <ele>37</ele>
        <time>2020-12-06T08:50:24.493000+00:00</time>
      </trkpt>
      <trkpt lat="0" lon="0">
        <time>2020-12-06T08:50:24.495000+00:00</time>
      </trkpt>
      <trkpt lat="0" lon="0">
        <time>2020-12-06T08:50:24.498000+00:00</time>
      </trkpt>
      <trkpt lat="0" lon="0">
        <time>2020-12-06T08:50:24.499000+00:00</time>
      </trkpt>
      <trkpt lat="47.33526" lon="-1.27295">
        <ele>37</ele>
        <time>2020-12-06T08:50:25.473000+00:00</time>
      </trkpt>
      <trkpt lat="0" lon="0">
        <time>2020-12-06T08:50:25.488000+00:00</time>
      </trkpt>
      <trkpt lat="0" lon="0">
        <time>2020-12-06T08:50:25.492000+00:00</time>
      </trkpt>
      <trkpt lat="0" lon="0">
        <time>2020-12-06T08:50:25.494000+00:00</time>
      </trkpt>
      <trkpt lat="47.33523" lon="-1.27292">
        <ele>37</ele>
        <time>2020-12-06T08:50:26.545000+00:00</time>
      </trkpt>
      <trkpt lat="0" lon="0">
        <time>2020-12-06T08:50:26.555000+00:00</time>
      </trkpt>
      <trkpt lat="0" lon="0">
        <time>2020-12-06T08:50:26.563000+00:00</time>
      </trkpt>
      <trkpt lat="0" lon="0">
        <time>2020-12-06T08:50:26.569000+00:00</time>
      </trkpt>
      <trkpt lat="47.3352" lon="-1.27289">
        <ele>37</ele>
        <time>2020-12-06T08:50:27.556000+00:00</time>
      </trkpt>
      <trkpt lat="0" lon="0">
        <time>2020-12-06T08:50:27.559000+00:00</time>
      </trkpt>
      <trkpt lat="0" lon="0">
        <time>2020-12-06T08:50:27.560000+00:00</time>
      </trkpt>
      <trkpt lat="0" lon="0">
        <time>2020-12-06T08:50:27.561000+00:00</time>
      </trkpt>
      <trkpt lat="47.33513" lon="-1.27284">
        <ele>37</ele>
        <time>2020-12-06T08:50:29.478000+00:00</time>
      </trkpt>
      <trkpt lat="0" lon="0">
        <time>2020-12-06T08:50:29.482000+00:00</time>
      </trkpt>
      <trkpt lat="0" lon="0">
        <time>2020-12-06T08:50:29.484000+00:00</time>
      </trkpt>
      <trkpt lat="0" lon="0">
        <time>2020-12-06T08:50:29.485000+00:00</time>
      </trkpt>
      <trkpt lat="47.33508" lon="-1.27282">
        <ele>38</ele>
        <time>2020-12-06T08:50:30.528000+00:00</time>
      </trkpt>
      <trkpt lat="0" lon="0">
        <time>2020-12-06T08:50:30.530000+00:00</time>
      </trkpt>
      <trkpt lat="0" lon="0">
        <time>2020-12-06T08:50:30.554000+00:00</time>
      </trkpt>
      <trkpt lat="0" lon="0">
        <time>2020-12-06T08:50:30.557000+00:00</time>
      </trkpt>
      <trkpt lat="47.33504" lon="-1.2728">
        <ele>38</ele>
        <time>2020-12-06T08:50:31.490000+00:00</time>
      </trkpt>
      <trkpt lat="0" lon="0">
        <time>2020-12-06T08:50:31.494000+00:00</time>
      </trkpt>
      <trkpt lat="0" lon="0">
        <time>2020-12-06T08:50:31.501000+00:00</time>
      </trkpt>
      <trkpt lat="0" lon="0">
        <time>2020-12-06T08:50:31.503000+00:00</time>
      </trkpt>
      <trkpt lat="47.33501" lon="-1.27278">
        <ele>38</ele>
        <time>2020-12-06T08:50:32.492000+00:00</time>
      </trkpt>
      <trkpt lat="0" lon="0">
        <time>2020-12-06T08:50:32.501000+00:00</time>
      </trkpt>
      <trkpt lat="0" lon="0">
        <time>2020-12-06T08:50:32.507000+00:00</time>
      </trkpt>
      <trkpt lat="0" lon="0">
        <time>2020-12-06T08:50:32.509000+00:00</time>
      </trkpt>
      <trkpt lat="47.33498" lon="-1.27277">
        <ele>38</ele>
        <time>2020-12-06T08:50:33.550000+00:00</time>
      </trkpt>
      <trkpt lat="0" lon="0">
        <time>2020-12-06T08:50:33.554000+00:00</time>
      </trkpt>
      <trkpt lat="0" lon="0">
        <time>2020-12-06T08:50:33.556000+00:00</time>
      </trkpt>
      <trkpt lat="0" lon="0">
        <time>2020-12-06T08:50:33.557000+00:00</time>
      </trkpt>
      <trkpt lat="47.33496" lon="-1.27277">
        <ele>38</ele>
        <time>2020-12-06T08:50:34.549000+00:00</time>
      </trkpt>
      <trkpt lat="0" lon="0">
        <time>2020-12-06T08:50:34.554000+00:00</time>
      </trkpt>
      <trkpt lat="0" lon="0">
        <time>2020-12-06T08:50:34.559000+00:00</time>
      </trkpt>
      <trkpt lat="0" lon="0">
        <time>2020-12-06T08:50:34.562000+00:00</time>
      </trkpt>
      <trkpt lat="47.33494" lon="-1.27277">
        <ele>39</ele>
        <time>2020-12-06T08:50:35.530000+00:00</time>
      </trkpt>
      <trkpt lat="0" lon="0">
        <time>2020-12-06T08:50:35.548000+00:00</time>
      </trkpt>
      <trkpt lat="0" lon="0">
        <time>2020-12-06T08:50:35.550000+00:00</time>
      </trkpt>
      <trkpt lat="0" lon="0">
        <time>2020-12-06T08:50:35.551000+00:00</time>
      </trkpt>
      <trkpt lat="47.33492" lon="-1.27278">
        <ele>39</ele>
        <time>2020-12-06T08:50:36.545000+00:00</time>
      </trkpt>
      <trkpt lat="0" lon="0">
        <time>2020-12-06T08:50:36.562000+00:00</time>
      </trkpt>
      <trkpt lat="0" lon="0">
        <time>2020-12-06T08:50:36.572000+00:00</time>
      </trkpt>
      <trkpt lat="0" lon="0">
        <time>2020-12-06T08:50:36.576000+00:00</time>
      </trkpt>
      <trkpt lat="47.3349" lon="-1.27279">
        <ele>39</ele>
        <time>2020-12-06T08:50:37.552000+00:00</time>
      </trkpt>
      <trkpt lat="0" lon="0">
        <time>2020-12-06T08:50:37.557000+00:00</time>
      </trkpt>
      <trkpt lat="0" lon="0">
        <time>2020-12-06T08:50:37.564000+00:00</time>
      </trkpt>
      <trkpt lat="0" lon="0">
        <time>2020-12-06T08:50:37.567000+00:00</time>
      </trkpt>
      <trkpt lat="47.33489" lon="-1.27281">
        <ele>39</ele>
        <time>2020-12-06T08:50:38.603000+00:00</time>
      </trkpt>
      <trkpt lat="0" lon="0">
        <time>2020-12-06T08:50:38.614000+00:00</time>
      </trkpt>
      <trkpt lat="0" lon="0">
        <time>2020-12-06T08:50:38.626000+00:00</time>
      </trkpt>
      <trkpt lat="0" lon="0">
        <time>2020-12-06T08:50:38.629000+00:00</time>
      </trkpt>
      <trkpt lat="47.33487" lon="-1.27282">
        <ele>40</ele>
        <time>2020-12-06T08:50:39.566000+00:00</time>
      </trkpt>
      <trkpt lat="0" lon="0">
        <time>2020-12-06T08:50:39.577000+00:00</time>
      </trkpt>
      <trkpt lat="0" lon="0">
        <time>2020-12-06T08:50:39.582000+00:00</time>
      </trkpt>
      <trkpt lat="0" lon="0">
        <time>2020-12-06T08:50:39.588000+00:00</time>
      </trkpt>
      <trkpt lat="47.33486" lon="-1.27283">
        <ele>40</ele>
        <time>2020-12-06T08:50:40.543000+00:00</time>
      </trkpt>
      <trkpt lat="0" lon="0">
        <time>2020-12-06T08:50:40.546000+00:00</time>
      </trkpt>
      <trkpt lat="0" lon="0">
        <time>2020-12-06T08:50:40.550000+00:00</time>
      </trkpt>
      <trkpt lat="0" lon="0">
        <time>2020-12-06T08:50:40.553000+00:00</time>
      </trkpt>
      <trkpt lat="47.33485" lon="-1.27284">
        <ele>40</ele>
        <time>2020-12-06T08:50:41.539000+00:00</time>
      </trkpt>
      <trkpt lat="0" lon="0">
        <time>2020-12-06T08:50:41.546000+00:00</time>
      </trkpt>
      <trkpt lat="0" lon="0">
        <time>2020-12-06T08:50:41.556000+00:00</time>
      </trkpt>
      <trkpt lat="0" lon="0">
        <time>2020-12-06T08:50:41.558000+00:00</time>
      </trkpt>
      <trkpt lat="47.33483" lon="-1.27285">
        <ele>40</ele>
        <time>2020-12-06T08:50:42.531000+00:00</time>
      </trkpt>
      <trkpt lat="0" lon="0">
        <time>2020-12-06T08:50:42.546000+00:00</time>
      </trkpt>
      <trkpt lat="0" lon="0">
        <time>2020-12-06T08:50:42.549000+00:00</time>
      </trkpt>
      <trkpt lat="0" lon="0">
        <time>2020-12-06T08:50:42.551000+00:00</time>
      </trkpt>
      <trkpt lat="47.33482" lon="-1.27286">
        <ele>41</ele>
        <time>2020-12-06T08:50:43.566000+00:00</time>
      </trkpt>
      <trkpt lat="0" lon="0">
        <time>2020-12-06T08:50:43.569000+00:00</time>
      </trkpt>
      <trkpt lat="0" lon="0">
        <time>2020-12-06T08:50:43.578000+00:00</time>
      </trkpt>
      <trkpt lat="0" lon="0">
        <time>2020-12-06T08:50:43.579000+00:00</time>
      </trkpt>
      <trkpt lat="47.3348" lon="-1.27287">
        <ele>41</ele>
        <time>2020-12-06T08:50:44.603000+00:00</time>
      </trkpt>
      <trkpt lat="0" lon="0">
        <time>2020-12-06T08:50:44.609000+00:00</time>
      </trkpt>
      <trkpt lat="0" lon="0">
        <time>2020-12-06T08:50:44.611000+00:00</time>
      </trkpt>
      <trkpt lat="0" lon="0">
        <time>2020-12-06T08:50:44.613000+00:00</time>
      </trkpt>
      <trkpt lat="47.33479" lon="-1.27287">
        <ele>41</ele>
        <time>2020-12-06T08:50:45.573000+00:00</time>
      </trkpt>
      <trkpt lat="0" lon="0">
        <time>2020-12-06T08:50:45.582000+00:00</time>
      </trkpt>
      <trkpt lat="0" lon="0">
        <time>2020-12-06T08:50:45.590000+00:00</time>
      </trkpt>
      <trkpt lat="0" lon="0">
        <time>2020-12-06T08:50:45.591000+00:00</time>
      </trkpt>
      <trkpt lat="47.33477" lon="-1.27288">
        <ele>41</ele>
        <time>2020-12-06T08:50:46.603000+00:00</time>
      </trkpt>
      <trkpt lat="0" lon="0">
        <time>2020-12-06T08:50:46.616000+00:00</time>
      </trkpt>
      <trkpt lat="0" lon="0">
        <time>2020-12-06T08:50:46.620000+00:00</time>
      </trkpt>
      <trkpt lat="0" lon="0">
        <time>2020-12-06T08:50:46.623000+00:00</time>
      </trkpt>
      <trkpt lat="47.33475" lon="-1.27289">
        <ele>41</ele>
        <time>2020-12-06T08:50:47.597000+00:00</time>
      </trkpt>
      <trkpt lat="0" lon="0">
        <time>2020-12-06T08:50:47.607000+00:00</time>
      </trkpt>
      <trkpt lat="0" lon="0">
        <time>2020-12-06T08:50:47.614000+00:00</time>
      </trkpt>
      <trkpt lat="0" lon="0">
        <time>2020-12-06T08:50:47.616000+00:00</time>
      </trkpt>
      <trkpt lat="47.33474" lon="-1.2729">
        <ele>42</ele>
        <time>2020-12-06T08:50:48.582000+00:00</time>
      </trkpt>
      <trkpt lat="0" lon="0">
        <time>2020-12-06T08:50:48.598000+00:00</time>
      </trkpt>
      <trkpt lat="0" lon="0">
        <time>2020-12-06T08:50:48.602000+00:00</time>
      </trkpt>
      <trkpt lat="0" lon="0">
        <time>2020-12-06T08:50:48.605000+00:00</time>
      </trkpt>
      <trkpt lat="47.33472" lon="-1.2729">
        <ele>42</ele>
        <time>2020-12-06T08:50:49.572000+00:00</time>
      </trkpt>
      <trkpt lat="0" lon="0">
        <time>2020-12-06T08:50:49.595000+00:00</time>
      </trkpt>
      <trkpt lat="0" lon="0">
        <time>2020-12-06T08:50:49.600000+00:00</time>
      </trkpt>
      <trkpt lat="0" lon="0">
        <time>2020-12-06T08:50:49.602000+00:00</time>
      </trkpt>
      <trkpt lat="47.3347" lon="-1.27291">
        <ele>42</ele>
        <time>2020-12-06T08:50:50.626000+00:00</time>
      </trkpt>
      <trkpt lat="0" lon="0">
        <time>2020-12-06T08:50:50.635000+00:00</time>
      </trkpt>
      <trkpt lat="0" lon="0">
        <time>2020-12-06T08:50:50.637000+00:00</time>
      </trkpt>
      <trkpt lat="0" lon="0">
        <time>2020-12-06T08:50:50.642000+00:00</time>
      </trkpt>
      <trkpt lat="47.33468" lon="-1.27292">
        <ele>42</ele>
        <time>2020-12-06T08:50:51.603000+00:00</time>
      </trkpt>
      <trkpt lat="0" lon="0">
        <time>2020-12-06T08:50:51.618000+00:00</time>
      </trkpt>
      <trkpt lat="0" lon="0">
        <time>2020-12-06T08:50:51.625000+00:00</time>
      </trkpt>
      <trkpt lat="0" lon="0">
        <time>2020-12-06T08:50:51.628000+00:00</time>
      </trkpt>
      <trkpt lat="47.33465" lon="-1.27292">
        <ele>43</ele>
        <time>2020-12-06T08:50:52.603000+00:00</time>
      </trkpt>
      <trkpt lat="0" lon="0">
        <time>2020-12-06T08:50:52.623000+00:00</time>
      </trkpt>
      <trkpt lat="0" lon="0">
        <time>2020-12-06T08:50:52.628000+00:00</time>
      </trkpt>
      <trkpt lat="0" lon="0">
        <time>2020-12-06T08:50:52.630000+00:00</time>
      </trkpt>
      <trkpt lat="47.33463" lon="-1.27292">
        <ele>43</ele>
        <time>2020-12-06T08:50:53.561000+00:00</time>
      </trkpt>
      <trkpt lat="0" lon="0">
        <time>2020-12-06T08:50:53.568000+00:00</time>
      </trkpt>
      <trkpt lat="0" lon="0">
        <time>2020-12-06T08:50:53.572000+00:00</time>
      </trkpt>
      <trkpt lat="0" lon="0">
        <time>2020-12-06T08:50:53.574000+00:00</time>
      </trkpt>
      <trkpt lat="47.33461" lon="-1.27293">
        <ele>43</ele>
        <time>2020-12-06T08:50:54.536000+00:00</time>
      </trkpt>
      <trkpt lat="0" lon="0">
        <time>2020-12-06T08:50:54.540000+00:00</time>
      </trkpt>
      <trkpt lat="0" lon="0">
        <time>2020-12-06T08:50:54.546000+00:00</time>
      </trkpt>
      <trkpt lat="0" lon="0">
        <time>2020-12-06T08:50:54.554000+00:00</time>
      </trkpt>
      <trkpt lat="47.33458" lon="-1.27293">
        <ele>43</ele>
        <time>2020-12-06T08:50:55.542000+00:00</time>
      </trkpt>
      <trkpt lat="0" lon="0">
        <time>2020-12-06T08:50:55.553000+00:00</time>
      </trkpt>
      <trkpt lat="0" lon="0">
        <time>2020-12-06T08:50:55.556000+00:00</time>
      </trkpt>
      <trkpt lat="0" lon="0">
        <time>2020-12-06T08:50:55.559000+00:00</time>
      </trkpt>
      <trkpt lat="47.33456" lon="-1.27292">
        <ele>44</ele>
        <time>2020-12-06T08:50:56.544000+00:00</time>
      </trkpt>
      <trkpt lat="0" lon="0">
        <time>2020-12-06T08:50:56.547000+00:00</time>
      </trkpt>
      <trkpt lat="0" lon="0">
        <time>2020-12-06T08:50:56.549000+00:00</time>
      </trkpt>
      <trkpt lat="0" lon="0">
        <time>2020-12-06T08:50:56.555000+00:00</time>
      </trkpt>
      <trkpt lat="47.33453" lon="-1.27292">
        <ele>44</ele>
        <time>2020-12-06T08:50:57.593000+00:00</time>
      </trkpt>
      <trkpt lat="0" lon="0">
        <time>2020-12-06T08:50:57.597000+00:00</time>
      </trkpt>
      <trkpt lat="0" lon="0">
        <time>2020-12-06T08:50:57.607000+00:00</time>
      </trkpt>
      <trkpt lat="0" lon="0">
        <time>2020-12-06T08:50:57.609000+00:00</time>
      </trkpt>
      <trkpt lat="47.33451" lon="-1.27291">
        <ele>44</ele>
        <time>2020-12-06T08:50:58.577000+00:00</time>
      </trkpt>
      <trkpt lat="0" lon="0">
        <time>2020-12-06T08:50:58.586000+00:00</time>
      </trkpt>
      <trkpt lat="0" lon="0">
        <time>2020-12-06T08:50:58.592000+00:00</time>
      </trkpt>
      <trkpt lat="0" lon="0">
        <time>2020-12-06T08:50:58.593000+00:00</time>
      </trkpt>
      <trkpt lat="47.33448" lon="-1.2729">
        <ele>44</ele>
        <time>2020-12-06T08:50:59.560000+00:00</time>
      </trkpt>
      <trkpt lat="0" lon="0">
        <time>2020-12-06T08:50:59.577000+00:00</time>
      </trkpt>
      <trkpt lat="0" lon="0">
        <time>2020-12-06T08:50:59.581000+00:00</time>
      </trkpt>
      <trkpt lat="0" lon="0">
        <time>2020-12-06T08:50:59.583000+00:00</time>
      </trkpt>
      <trkpt lat="47.33446" lon="-1.27289">
        <ele>44</ele>
        <time>2020-12-06T08:51:00.588000+00:00</time>
      </trkpt>
      <trkpt lat="0" lon="0">
        <time>2020-12-06T08:51:00.598000+00:00</time>
      </trkpt>
      <trkpt lat="0" lon="0">
        <time>2020-12-06T08:51:00.603000+00:00</time>
      </trkpt>
      <trkpt lat="0" lon="0">
        <time>2020-12-06T08:51:00.608000+00:00</time>
      </trkpt>
      <trkpt lat="47.33443" lon="-1.27288">
        <ele>44</ele>
        <time>2020-12-06T08:51:01.577000+00:00</time>
      </trkpt>
      <trkpt lat="0" lon="0">
        <time>2020-12-06T08:51:01.586000+00:00</time>
      </trkpt>
      <trkpt lat="0" lon="0">
        <time>2020-12-06T08:51:01.590000+00:00</time>
      </trkpt>
      <trkpt lat="0" lon="0">
        <time>2020-12-06T08:51:01.593000+00:00</time>
      </trkpt>
      <trkpt lat="47.33441" lon="-1.27286">
        <ele>44</ele>
        <time>2020-12-06T08:51:02.561000+00:00</time>
      </trkpt>
      <trkpt lat="0" lon="0">
        <time>2020-12-06T08:51:02.574000+00:00</time>
      </trkpt>
      <trkpt lat="0" lon="0">
        <time>2020-12-06T08:51:02.577000+00:00</time>
      </trkpt>
      <trkpt lat="0" lon="0">
        <time>2020-12-06T08:51:02.583000+00:00</time>
      </trkpt>
      <trkpt lat="47.33438" lon="-1.27285">
        <ele>44</ele>
        <time>2020-12-06T08:51:03.533000+00:00</time>
      </trkpt>
      <trkpt lat="0" lon="0">
        <time>2020-12-06T08:51:03.536000+00:00</time>
      </trkpt>
      <trkpt lat="0" lon="0">
        <time>2020-12-06T08:51:03.543000+00:00</time>
      </trkpt>
      <trkpt lat="0" lon="0">
        <time>2020-12-06T08:51:03.545000+00:00</time>
      </trkpt>
      <trkpt lat="47.33436" lon="-1.27284">
        <ele>44</ele>
        <time>2020-12-06T08:51:04.585000+00:00</time>
      </trkpt>
      <trkpt lat="0" lon="0">
        <time>2020-12-06T08:51:04.601000+00:00</time>
      </trkpt>
      <trkpt lat="0" lon="0">
        <time>2020-12-06T08:51:04.606000+00:00</time>
      </trkpt>
      <trkpt lat="0" lon="0">
        <time>2020-12-06T08:51:04.611000+00:00</time>
      </trkpt>
      <trkpt lat="47.33433" lon="-1.27282">
        <ele>44</ele>
        <time>2020-12-06T08:51:05.595000+00:00</time>
      </trkpt>
      <trkpt lat="0" lon="0">
        <time>2020-12-06T08:51:05.600000+00:00</time>
      </trkpt>
      <trkpt lat="0" lon="0">
        <time>2020-12-06T08:51:05.607000+00:00</time>
      </trkpt>
      <trkpt lat="0" lon="0">
        <time>2020-12-06T08:51:05.615000+00:00</time>
      </trkpt>
      <trkpt lat="47.33431" lon="-1.27281">
        <ele>44</ele>
        <time>2020-12-06T08:51:06.586000+00:00</time>
      </trkpt>
      <trkpt lat="0" lon="0">
        <time>2020-12-06T08:51:06.601000+00:00</time>
      </trkpt>
      <trkpt lat="0" lon="0">
        <time>2020-12-06T08:51:06.616000+00:00</time>
      </trkpt>
      <trkpt lat="0" lon="0">
        <time>2020-12-06T08:51:06.618000+00:00</time>
      </trkpt>
      <trkpt lat="47.33428" lon="-1.27279">
        <ele>44</ele>
        <time>2020-12-06T08:51:07.586000+00:00</time>
      </trkpt>
      <trkpt lat="0" lon="0">
        <time>2020-12-06T08:51:07.595000+00:00</time>
      </trkpt>
      <trkpt lat="0" lon="0">
        <time>2020-12-06T08:51:07.596000+00:00</time>
      </trkpt>
      <trkpt lat="0" lon="0">
        <time>2020-12-06T08:51:07.597000+00:00</time>
      </trkpt>
      <trkpt lat="47.33426" lon="-1.27278">
        <ele>44</ele>
        <time>2020-12-06T08:51:08.565000+00:00</time>
      </trkpt>
      <trkpt lat="0" lon="0">
        <time>2020-12-06T08:51:08.576000+00:00</time>
      </trkpt>
      <trkpt lat="0" lon="0">
        <time>2020-12-06T08:51:08.586000+00:00</time>
      </trkpt>
      <trkpt lat="0" lon="0">
        <time>2020-12-06T08:51:08.589000+00:00</time>
      </trkpt>
      <trkpt lat="47.33424" lon="-1.27277">
        <ele>44</ele>
        <time>2020-12-06T08:51:09.547000+00:00</time>
      </trkpt>
      <trkpt lat="0" lon="0">
        <time>2020-12-06T08:51:09.560000+00:00</time>
      </trkpt>
      <trkpt lat="0" lon="0">
        <time>2020-12-06T08:51:09.566000+00:00</time>
      </trkpt>
      <trkpt lat="0" lon="0">
        <time>2020-12-06T08:51:09.569000+00:00</time>
      </trkpt>
      <trkpt lat="47.33422" lon="-1.27276">
        <ele>44</ele>
        <time>2020-12-06T08:51:10.557000+00:00</time>
      </trkpt>
      <trkpt lat="0" lon="0">
        <time>2020-12-06T08:51:10.575000+00:00</time>
      </trkpt>
      <trkpt lat="0" lon="0">
        <time>2020-12-06T08:51:10.578000+00:00</time>
      </trkpt>
      <trkpt lat="0" lon="0">
        <time>2020-12-06T08:51:10.580000+00:00</time>
      </trkpt>
      <trkpt lat="47.3342" lon="-1.27275">
        <ele>45</ele>
        <time>2020-12-06T08:51:11.583000+00:00</time>
      </trkpt>
      <trkpt lat="0" lon="0">
        <time>2020-12-06T08:51:11.595000+00:00</time>
      </trkpt>
      <trkpt lat="0" lon="0">
        <time>2020-12-06T08:51:11.599000+00:00</time>
      </trkpt>
      <trkpt lat="0" lon="0">
        <time>2020-12-06T08:51:11.604000+00:00</time>
      </trkpt>
      <trkpt lat="47.33417" lon="-1.27274">
        <ele>45</ele>
        <time>2020-12-06T08:51:12.560000+00:00</time>
      </trkpt>
      <trkpt lat="0" lon="0">
        <time>2020-12-06T08:51:12.565000+00:00</time>
      </trkpt>
      <trkpt lat="0" lon="0">
        <time>2020-12-06T08:51:12.572000+00:00</time>
      </trkpt>
      <trkpt lat="0" lon="0">
        <time>2020-12-06T08:51:12.575000+00:00</time>
      </trkpt>
      <trkpt lat="47.33415" lon="-1.27272">
        <ele>44</ele>
        <time>2020-12-06T08:51:13.593000+00:00</time>
      </trkpt>
      <trkpt lat="0" lon="0">
        <time>2020-12-06T08:51:13.599000+00:00</time>
      </trkpt>
      <trkpt lat="0" lon="0">
        <time>2020-12-06T08:51:13.606000+00:00</time>
      </trkpt>
      <trkpt lat="47.33412" lon="-1.27271">
        <ele>44</ele>
        <time>2020-12-06T08:51:14.597000+00:00</time>
      </trkpt>
      <trkpt lat="0" lon="0">
        <time>2020-12-06T08:51:14.622000+00:00</time>
      </trkpt>
      <trkpt lat="0" lon="0">
        <time>2020-12-06T08:51:14.625000+00:00</time>
      </trkpt>
      <trkpt lat="0" lon="0">
        <time>2020-12-06T08:51:14.627000+00:00</time>
      </trkpt>
      <trkpt lat="47.33409" lon="-1.2727">
        <ele>44</ele>
        <time>2020-12-06T08:51:15.563000+00:00</time>
      </trkpt>
      <trkpt lat="0" lon="0">
        <time>2020-12-06T08:51:15.580000+00:00</time>
      </trkpt>
      <trkpt lat="0" lon="0">
        <time>2020-12-06T08:51:15.583000+00:00</time>
      </trkpt>
      <trkpt lat="0" lon="0">
        <time>2020-12-06T08:51:15.585000+00:00</time>
      </trkpt>
      <trkpt lat="47.33406" lon="-1.27268">
        <ele>44</ele>
        <time>2020-12-06T08:51:16.581000+00:00</time>
      </trkpt>
      <trkpt lat="0" lon="0">
        <time>2020-12-06T08:51:16.590000+00:00</time>
      </trkpt>
      <trkpt lat="0" lon="0">
        <time>2020-12-06T08:51:16.600000+00:00</time>
      </trkpt>
      <trkpt lat="0" lon="0">
        <time>2020-12-06T08:51:16.602000+00:00</time>
      </trkpt>
      <trkpt lat="47.33403" lon="-1.27267">
        <ele>44</ele>
        <time>2020-12-06T08:51:17.604000+00:00</time>
      </trkpt>
      <trkpt lat="0" lon="0">
        <time>2020-12-06T08:51:17.614000+00:00</time>
      </trkpt>
      <trkpt lat="0" lon="0">
        <time>2020-12-06T08:51:17.619000+00:00</time>
      </trkpt>
      <trkpt lat="0" lon="0">
        <time>2020-12-06T08:51:17.624000+00:00</time>
      </trkpt>
      <trkpt lat="47.33399" lon="-1.27265">
        <ele>44</ele>
        <time>2020-12-06T08:51:18.567000+00:00</time>
      </trkpt>
      <trkpt lat="0" lon="0">
        <time>2020-12-06T08:51:18.573000+00:00</time>
      </trkpt>
      <trkpt lat="0" lon="0">
        <time>2020-12-06T08:51:18.581000+00:00</time>
      </trkpt>
      <trkpt lat="0" lon="0">
        <time>2020-12-06T08:51:18.585000+00:00</time>
      </trkpt>
      <trkpt lat="47.33395" lon="-1.27264">
        <ele>43</ele>
        <time>2020-12-06T08:51:19.607000+00:00</time>
      </trkpt>
      <trkpt lat="0" lon="0">
        <time>2020-12-06T08:51:19.610000+00:00</time>
      </trkpt>
      <trkpt lat="0" lon="0">
        <time>2020-12-06T08:51:19.615000+00:00</time>
      </trkpt>
      <trkpt lat="0" lon="0">
        <time>2020-12-06T08:51:19.617000+00:00</time>
      </trkpt>
      <trkpt lat="47.33391" lon="-1.27262">
        <ele>43</ele>
        <time>2020-12-06T08:51:20.577000+00:00</time>
      </trkpt>
      <trkpt lat="0" lon="0">
        <time>2020-12-06T08:51:20.581000+00:00</time>
      </trkpt>
      <trkpt lat="0" lon="0">
        <time>2020-12-06T08:51:20.589000+00:00</time>
      </trkpt>
      <trkpt lat="0" lon="0">
        <time>2020-12-06T08:51:20.591000+00:00</time>
      </trkpt>
      <trkpt lat="47.33387" lon="-1.27261">
        <ele>43</ele>
        <time>2020-12-06T08:51:21.583000+00:00</time>
      </trkpt>
      <trkpt lat="0" lon="0">
        <time>2020-12-06T08:51:21.586000+00:00</time>
      </trkpt>
      <trkpt lat="0" lon="0">
        <time>2020-12-06T08:51:21.594000+00:00</time>
      </trkpt>
      <trkpt lat="0" lon="0">
        <time>2020-12-06T08:51:21.598000+00:00</time>
      </trkpt>
      <trkpt lat="47.33383" lon="-1.27259">
        <ele>43</ele>
        <time>2020-12-06T08:51:22.572000+00:00</time>
      </trkpt>
      <trkpt lat="0" lon="0">
        <time>2020-12-06T08:51:22.581000+00:00</time>
      </trkpt>
      <trkpt lat="0" lon="0">
        <time>2020-12-06T08:51:22.587000+00:00</time>
      </trkpt>
      <trkpt lat="0" lon="0">
        <time>2020-12-06T08:51:22.589000+00:00</time>
      </trkpt>
      <trkpt lat="47.33379" lon="-1.27258">
        <ele>43</ele>
        <time>2020-12-06T08:51:23.521000+00:00</time>
      </trkpt>
      <trkpt lat="0" lon="0">
        <time>2020-12-06T08:51:23.525000+00:00</time>
      </trkpt>
      <trkpt lat="0" lon="0">
        <time>2020-12-06T08:51:23.527000+00:00</time>
      </trkpt>
      <trkpt lat="47.33375" lon="-1.27257">
        <ele>42</ele>
        <time>2020-12-06T08:51:24.532000+00:00</time>
      </trkpt>
      <trkpt lat="0" lon="0">
        <time>2020-12-06T08:51:24.536000+00:00</time>
      </trkpt>
      <trkpt lat="0" lon="0">
        <time>2020-12-06T08:51:24.543000+00:00</time>
      </trkpt>
      <trkpt lat="0" lon="0">
        <time>2020-12-06T08:51:24.549000+00:00</time>
      </trkpt>
      <trkpt lat="47.33372" lon="-1.27255">
        <ele>42</ele>
        <time>2020-12-06T08:51:25.588000+00:00</time>
      </trkpt>
      <trkpt lat="0" lon="0">
        <time>2020-12-06T08:51:25.596000+00:00</time>
      </trkpt>
      <trkpt lat="0" lon="0">
        <time>2020-12-06T08:51:25.599000+00:00</time>
      </trkpt>
      <trkpt lat="0" lon="0">
        <time>2020-12-06T08:51:25.602000+00:00</time>
      </trkpt>
      <trkpt lat="47.33368" lon="-1.27254">
        <ele>42</ele>
        <time>2020-12-06T08:51:26.582000+00:00</time>
      </trkpt>
      <trkpt lat="0" lon="0">
        <time>2020-12-06T08:51:26.588000+00:00</time>
      </trkpt>
      <trkpt lat="0" lon="0">
        <time>2020-12-06T08:51:26.594000+00:00</time>
      </trkpt>
      <trkpt lat="0" lon="0">
        <time>2020-12-06T08:51:26.596000+00:00</time>
      </trkpt>
      <trkpt lat="47.33365" lon="-1.27253">
        <ele>42</ele>
        <time>2020-12-06T08:51:27.590000+00:00</time>
      </trkpt>
      <trkpt lat="0" lon="0">
        <time>2020-12-06T08:51:27.604000+00:00</time>
      </trkpt>
      <trkpt lat="0" lon="0">
        <time>2020-12-06T08:51:27.616000+00:00</time>
      </trkpt>
      <trkpt lat="0" lon="0">
        <time>2020-12-06T08:51:27.618000+00:00</time>
      </trkpt>
      <trkpt lat="47.33362" lon="-1.27252">
        <ele>42</ele>
        <time>2020-12-06T08:51:28.558000+00:00</time>
      </trkpt>
      <trkpt lat="0" lon="0">
        <time>2020-12-06T08:51:28.575000+00:00</time>
      </trkpt>
      <trkpt lat="0" lon="0">
        <time>2020-12-06T08:51:28.582000+00:00</time>
      </trkpt>
      <trkpt lat="0" lon="0">
        <time>2020-12-06T08:51:28.584000+00:00</time>
      </trkpt>
      <trkpt lat="47.33359" lon="-1.27251">
        <ele>42</ele>
        <time>2020-12-06T08:51:29.543000+00:00</time>
      </trkpt>
      <trkpt lat="0" lon="0">
        <time>2020-12-06T08:51:29.563000+00:00</time>
      </trkpt>
      <trkpt lat="0" lon="0">
        <time>2020-12-06T08:51:29.568000+00:00</time>
      </trkpt>
      <trkpt lat="0" lon="0">
        <time>2020-12-06T08:51:29.574000+00:00</time>
      </trkpt>
      <trkpt lat="47.33356" lon="-1.27249">
        <ele>42</ele>
        <time>2020-12-06T08:51:30.545000+00:00</time>
      </trkpt>
      <trkpt lat="0" lon="0">
        <time>2020-12-06T08:51:30.548000+00:00</time>
      </trkpt>
      <trkpt lat="0" lon="0">
        <time>2020-12-06T08:51:30.563000+00:00</time>
      </trkpt>
      <trkpt lat="0" lon="0">
        <time>2020-12-06T08:51:30.565000+00:00</time>
      </trkpt>
      <trkpt lat="47.33354" lon="-1.27248">
        <ele>42</ele>
        <time>2020-12-06T08:51:31.587000+00:00</time>
      </trkpt>
      <trkpt lat="0" lon="0">
        <time>2020-12-06T08:51:31.595000+00:00</time>
      </trkpt>
      <trkpt lat="0" lon="0">
        <time>2020-12-06T08:51:31.603000+00:00</time>
      </trkpt>
      <trkpt lat="0" lon="0">
        <time>2020-12-06T08:51:31.604000+00:00</time>
      </trkpt>
      <trkpt lat="47.33351" lon="-1.27247">
        <ele>42</ele>
        <time>2020-12-06T08:51:32.560000+00:00</time>
      </trkpt>
      <trkpt lat="0" lon="0">
        <time>2020-12-06T08:51:32.573000+00:00</time>
      </trkpt>
      <trkpt lat="0" lon="0">
        <time>2020-12-06T08:51:32.582000+00:00</time>
      </trkpt>
      <trkpt lat="0" lon="0">
        <time>2020-12-06T08:51:32.583000+00:00</time>
      </trkpt>
      <trkpt lat="47.33349" lon="-1.27246">
        <ele>42</ele>
        <time>2020-12-06T08:51:33.579000+00:00</time>
      </trkpt>
      <trkpt lat="0" lon="0">
        <time>2020-12-06T08:51:33.582000+00:00</time>
      </trkpt>
      <trkpt lat="0" lon="0">
        <time>2020-12-06T08:51:33.586000+00:00</time>
      </trkpt>
      <trkpt lat="0" lon="0">
        <time>2020-12-06T08:51:33.588000+00:00</time>
      </trkpt>
      <trkpt lat="47.33347" lon="-1.27245">
        <ele>42</ele>
        <time>2020-12-06T08:51:34.552000+00:00</time>
      </trkpt>
      <trkpt lat="0" lon="0">
        <time>2020-12-06T08:51:34.573000+00:00</time>
      </trkpt>
      <trkpt lat="0" lon="0">
        <time>2020-12-06T08:51:34.577000+00:00</time>
      </trkpt>
      <trkpt lat="0" lon="0">
        <time>2020-12-06T08:51:34.578000+00:00</time>
      </trkpt>
      <trkpt lat="47.33345" lon="-1.27245">
        <ele>42</ele>
        <time>2020-12-06T08:51:35.607000+00:00</time>
      </trkpt>
      <trkpt lat="0" lon="0">
        <time>2020-12-06T08:51:35.611000+00:00</time>
      </trkpt>
      <trkpt lat="0" lon="0">
        <time>2020-12-06T08:51:35.624000+00:00</time>
      </trkpt>
      <trkpt lat="0" lon="0">
        <time>2020-12-06T08:51:35.627000+00:00</time>
      </trkpt>
      <trkpt lat="47.33343" lon="-1.27245">
        <ele>42</ele>
        <time>2020-12-06T08:51:36.558000+00:00</time>
      </trkpt>
      <trkpt lat="0" lon="0">
        <time>2020-12-06T08:51:36.561000+00:00</time>
      </trkpt>
      <trkpt lat="0" lon="0">
        <time>2020-12-06T08:51:36.566000+00:00</time>
      </trkpt>
      <trkpt lat="0" lon="0">
        <time>2020-12-06T08:51:36.571000+00:00</time>
      </trkpt>
      <trkpt lat="47.33341" lon="-1.27244">
        <ele>42</ele>
        <time>2020-12-06T08:51:37.576000+00:00</time>
      </trkpt>
      <trkpt lat="0" lon="0">
        <time>2020-12-06T08:51:37.586000+00:00</time>
      </trkpt>
      <trkpt lat="0" lon="0">
        <time>2020-12-06T08:51:37.593000+00:00</time>
      </trkpt>
      <trkpt lat="0" lon="0">
        <time>2020-12-06T08:51:37.596000+00:00</time>
      </trkpt>
      <trkpt lat="47.33339" lon="-1.27244">
        <ele>42</ele>
        <time>2020-12-06T08:51:38.596000+00:00</time>
      </trkpt>
      <trkpt lat="0" lon="0">
        <time>2020-12-06T08:51:38.599000+00:00</time>
      </trkpt>
      <trkpt lat="0" lon="0">
        <time>2020-12-06T08:51:38.604000+00:00</time>
      </trkpt>
      <trkpt lat="0" lon="0">
        <time>2020-12-06T08:51:38.606000+00:00</time>
      </trkpt>
      <trkpt lat="47.33338" lon="-1.27244">
        <ele>42</ele>
        <time>2020-12-06T08:51:39.572000+00:00</time>
      </trkpt>
      <trkpt lat="0" lon="0">
        <time>2020-12-06T08:51:39.586000+00:00</time>
      </trkpt>
      <trkpt lat="0" lon="0">
        <time>2020-12-06T08:51:39.590000+00:00</time>
      </trkpt>
      <trkpt lat="0" lon="0">
        <time>2020-12-06T08:51:39.593000+00:00</time>
      </trkpt>
      <trkpt lat="47.33336" lon="-1.27244">
        <ele>42</ele>
        <time>2020-12-06T08:51:40.477000+00:00</time>
      </trkpt>
      <trkpt lat="0" lon="0">
        <time>2020-12-06T08:51:40.482000+00:00</time>
      </trkpt>
      <trkpt lat="0" lon="0">
        <time>2020-12-06T08:51:40.497000+00:00</time>
      </trkpt>
      <trkpt lat="0" lon="0">
        <time>2020-12-06T08:51:40.500000+00:00</time>
      </trkpt>
      <trkpt lat="47.33335" lon="-1.27244">
        <ele>42</ele>
        <time>2020-12-06T08:51:41.587000+00:00</time>
      </trkpt>
      <trkpt lat="0" lon="0">
        <time>2020-12-06T08:51:41.591000+00:00</time>
      </trkpt>
      <trkpt lat="0" lon="0">
        <time>2020-12-06T08:51:41.594000+00:00</time>
      </trkpt>
      <trkpt lat="0" lon="0">
        <time>2020-12-06T08:51:41.597000+00:00</time>
      </trkpt>
      <trkpt lat="47.33333" lon="-1.27243">
        <ele>42</ele>
        <time>2020-12-06T08:51:42.581000+00:00</time>
      </trkpt>
      <trkpt lat="0" lon="0">
        <time>2020-12-06T08:51:42.588000+00:00</time>
      </trkpt>
      <trkpt lat="0" lon="0">
        <time>2020-12-06T08:51:42.590000+00:00</time>
      </trkpt>
      <trkpt lat="0" lon="0">
        <time>2020-12-06T08:51:42.591000+00:00</time>
      </trkpt>
      <trkpt lat="47.33331" lon="-1.27243">
        <ele>42</ele>
        <time>2020-12-06T08:51:43.578000+00:00</time>
      </trkpt>
      <trkpt lat="0" lon="0">
        <time>2020-12-06T08:51:43.586000+00:00</time>
      </trkpt>
      <trkpt lat="0" lon="0">
        <time>2020-12-06T08:51:43.589000+00:00</time>
      </trkpt>
      <trkpt lat="0" lon="0">
        <time>2020-12-06T08:51:43.597000+00:00</time>
      </trkpt>
      <trkpt lat="47.33329" lon="-1.27242">
        <ele>42</ele>
        <time>2020-12-06T08:51:44.570000+00:00</time>
      </trkpt>
      <trkpt lat="0" lon="0">
        <time>2020-12-06T08:51:44.580000+00:00</time>
      </trkpt>
      <trkpt lat="0" lon="0">
        <time>2020-12-06T08:51:44.581000+00:00</time>
      </trkpt>
      <trkpt lat="0" lon="0">
        <time>2020-12-06T08:51:44.582000+00:00</time>
      </trkpt>
      <trkpt lat="47.33327" lon="-1.27242">
        <ele>42</ele>
        <time>2020-12-06T08:51:45.532000+00:00</time>
      </trkpt>
      <trkpt lat="0" lon="0">
        <time>2020-12-06T08:51:45.541000+00:00</time>
      </trkpt>
      <trkpt lat="0" lon="0">
        <time>2020-12-06T08:51:45.550000+00:00</time>
      </trkpt>
      <trkpt lat="0" lon="0">
        <time>2020-12-06T08:51:45.555000+00:00</time>
      </trkpt>
      <trkpt lat="47.33324" lon="-1.27241">
        <ele>42</ele>
        <time>2020-12-06T08:51:46.581000+00:00</time>
      </trkpt>
      <trkpt lat="0" lon="0">
        <time>2020-12-06T08:51:46.595000+00:00</time>
      </trkpt>
      <trkpt lat="0" lon="0">
        <time>2020-12-06T08:51:46.601000+00:00</time>
      </trkpt>
      <trkpt lat="0" lon="0">
        <time>2020-12-06T08:51:46.603000+00:00</time>
      </trkpt>
      <trkpt lat="47.33321" lon="-1.2724">
        <ele>42</ele>
        <time>2020-12-06T08:51:47.535000+00:00</time>
      </trkpt>
      <trkpt lat="0" lon="0">
        <time>2020-12-06T08:51:47.552000+00:00</time>
      </trkpt>
      <trkpt lat="0" lon="0">
        <time>2020-12-06T08:51:47.555000+00:00</time>
      </trkpt>
      <trkpt lat="0" lon="0">
        <time>2020-12-06T08:51:47.557000+00:00</time>
      </trkpt>
      <trkpt lat="47.33318" lon="-1.27239">
        <ele>42</ele>
        <time>2020-12-06T08:51:48.527000+00:00</time>
      </trkpt>
      <trkpt lat="0" lon="0">
        <time>2020-12-06T08:51:48.533000+00:00</time>
      </trkpt>
      <trkpt lat="0" lon="0">
        <time>2020-12-06T08:51:48.550000+00:00</time>
      </trkpt>
      <trkpt lat="0" lon="0">
        <time>2020-12-06T08:51:48.553000+00:00</time>
      </trkpt>
      <trkpt lat="47.33316" lon="-1.27238">
        <ele>42</ele>
        <time>2020-12-06T08:51:49.519000+00:00</time>
      </trkpt>
      <trkpt lat="0" lon="0">
        <time>2020-12-06T08:51:49.530000+00:00</time>
      </trkpt>
      <trkpt lat="0" lon="0">
        <time>2020-12-06T08:51:49.539000+00:00</time>
      </trkpt>
      <trkpt lat="0" lon="0">
        <time>2020-12-06T08:51:49.541000+00:00</time>
      </trkpt>
      <trkpt lat="47.33313" lon="-1.27237">
        <ele>42</ele>
        <time>2020-12-06T08:51:50.550000+00:00</time>
      </trkpt>
      <trkpt lat="0" lon="0">
        <time>2020-12-06T08:51:50.557000+00:00</time>
      </trkpt>
      <trkpt lat="0" lon="0">
        <time>2020-12-06T08:51:50.566000+00:00</time>
      </trkpt>
      <trkpt lat="0" lon="0">
        <time>2020-12-06T08:51:50.568000+00:00</time>
      </trkpt>
      <trkpt lat="47.33309" lon="-1.27236">
        <ele>43</ele>
        <time>2020-12-06T08:51:51.540000+00:00</time>
      </trkpt>
      <trkpt lat="0" lon="0">
        <time>2020-12-06T08:51:51.555000+00:00</time>
      </trkpt>
      <trkpt lat="0" lon="0">
        <time>2020-12-06T08:51:51.565000+00:00</time>
      </trkpt>
      <trkpt lat="0" lon="0">
        <time>2020-12-06T08:51:51.569000+00:00</time>
      </trkpt>
      <trkpt lat="47.33306" lon="-1.27235">
        <ele>43</ele>
        <time>2020-12-06T08:51:52.510000+00:00</time>
      </trkpt>
      <trkpt lat="0" lon="0">
        <time>2020-12-06T08:51:52.527000+00:00</time>
      </trkpt>
      <trkpt lat="0" lon="0">
        <time>2020-12-06T08:51:52.531000+00:00</time>
      </trkpt>
      <trkpt lat="0" lon="0">
        <time>2020-12-06T08:51:52.533000+00:00</time>
      </trkpt>
      <trkpt lat="47.33303" lon="-1.27234">
        <ele>43</ele>
        <time>2020-12-06T08:51:53.559000+00:00</time>
      </trkpt>
      <trkpt lat="0" lon="0">
        <time>2020-12-06T08:51:53.570000+00:00</time>
      </trkpt>
      <trkpt lat="0" lon="0">
        <time>2020-12-06T08:51:53.581000+00:00</time>
      </trkpt>
      <trkpt lat="0" lon="0">
        <time>2020-12-06T08:51:53.584000+00:00</time>
      </trkpt>
      <trkpt lat="47.333" lon="-1.27233">
        <ele>43</ele>
        <time>2020-12-06T08:51:54.548000+00:00</time>
      </trkpt>
      <trkpt lat="0" lon="0">
        <time>2020-12-06T08:51:54.559000+00:00</time>
      </trkpt>
      <trkpt lat="0" lon="0">
        <time>2020-12-06T08:51:54.567000+00:00</time>
      </trkpt>
      <trkpt lat="0" lon="0">
        <time>2020-12-06T08:51:54.569000+00:00</time>
      </trkpt>
      <trkpt lat="47.33297" lon="-1.27233">
        <ele>43</ele>
        <time>2020-12-06T08:51:55.563000+00:00</time>
      </trkpt>
      <trkpt lat="0" lon="0">
        <time>2020-12-06T08:51:55.568000+00:00</time>
      </trkpt>
      <trkpt lat="0" lon="0">
        <time>2020-12-06T08:51:55.579000+00:00</time>
      </trkpt>
      <trkpt lat="0" lon="0">
        <time>2020-12-06T08:51:55.581000+00:00</time>
      </trkpt>
      <trkpt lat="47.33294" lon="-1.27232">
        <ele>43</ele>
        <time>2020-12-06T08:51:56.566000+00:00</time>
      </trkpt>
      <trkpt lat="0" lon="0">
        <time>2020-12-06T08:51:56.573000+00:00</time>
      </trkpt>
      <trkpt lat="0" lon="0">
        <time>2020-12-06T08:51:56.575000+00:00</time>
      </trkpt>
      <trkpt lat="0" lon="0">
        <time>2020-12-06T08:51:56.576000+00:00</time>
      </trkpt>
      <trkpt lat="47.33292" lon="-1.27231">
        <ele>43</ele>
        <time>2020-12-06T08:51:57.529000+00:00</time>
      </trkpt>
      <trkpt lat="0" lon="0">
        <time>2020-12-06T08:51:57.537000+00:00</time>
      </trkpt>
      <trkpt lat="0" lon="0">
        <time>2020-12-06T08:51:57.541000+00:00</time>
      </trkpt>
      <trkpt lat="0" lon="0">
        <time>2020-12-06T08:51:57.542000+00:00</time>
      </trkpt>
      <trkpt lat="47.3329" lon="-1.2723">
        <ele>43</ele>
        <time>2020-12-06T08:51:58.600000+00:00</time>
      </trkpt>
      <trkpt lat="0" lon="0">
        <time>2020-12-06T08:51:58.614000+00:00</time>
      </trkpt>
      <trkpt lat="0" lon="0">
        <time>2020-12-06T08:51:58.621000+00:00</time>
      </trkpt>
      <trkpt lat="0" lon="0">
        <time>2020-12-06T08:51:58.623000+00:00</time>
      </trkpt>
      <trkpt lat="47.33287" lon="-1.27229">
        <ele>44</ele>
        <time>2020-12-06T08:51:59.613000+00:00</time>
      </trkpt>
      <trkpt lat="0" lon="0">
        <time>2020-12-06T08:51:59.632000+00:00</time>
      </trkpt>
      <trkpt lat="0" lon="0">
        <time>2020-12-06T08:51:59.635000+00:00</time>
      </trkpt>
      <trkpt lat="0" lon="0">
        <time>2020-12-06T08:51:59.636000+00:00</time>
      </trkpt>
      <trkpt lat="47.33285" lon="-1.27228">
        <ele>44</ele>
        <time>2020-12-06T08:52:00.562000+00:00</time>
      </trkpt>
      <trkpt lat="0" lon="0">
        <time>2020-12-06T08:52:00.569000+00:00</time>
      </trkpt>
      <trkpt lat="0" lon="0">
        <time>2020-12-06T08:52:00.579000+00:00</time>
      </trkpt>
      <trkpt lat="0" lon="0">
        <time>2020-12-06T08:52:00.586000+00:00</time>
      </trkpt>
      <trkpt lat="47.33283" lon="-1.27227">
        <ele>44</ele>
        <time>2020-12-06T08:52:01.582000+00:00</time>
      </trkpt>
      <trkpt lat="0" lon="0">
        <time>2020-12-06T08:52:01.586000+00:00</time>
      </trkpt>
      <trkpt lat="0" lon="0">
        <time>2020-12-06T08:52:01.601000+00:00</time>
      </trkpt>
      <trkpt lat="0" lon="0">
        <time>2020-12-06T08:52:01.612000+00:00</time>
      </trkpt>
      <trkpt lat="47.33281" lon="-1.27226">
        <ele>44</ele>
        <time>2020-12-06T08:52:02.549000+00:00</time>
      </trkpt>
      <trkpt lat="0" lon="0">
        <time>2020-12-06T08:52:02.560000+00:00</time>
      </trkpt>
      <trkpt lat="0" lon="0">
        <time>2020-12-06T08:52:02.568000+00:00</time>
      </trkpt>
      <trkpt lat="0" lon="0">
        <time>2020-12-06T08:52:02.572000+00:00</time>
      </trkpt>
      <trkpt lat="47.33279" lon="-1.27225">
        <ele>44</ele>
        <time>2020-12-06T08:52:03.557000+00:00</time>
      </trkpt>
      <trkpt lat="0" lon="0">
        <time>2020-12-06T08:52:03.573000+00:00</time>
      </trkpt>
      <trkpt lat="0" lon="0">
        <time>2020-12-06T08:52:03.577000+00:00</time>
      </trkpt>
      <trkpt lat="0" lon="0">
        <time>2020-12-06T08:52:03.579000+00:00</time>
      </trkpt>
      <trkpt lat="47.33276" lon="-1.27223">
        <ele>44</ele>
        <time>2020-12-06T08:52:04.571000+00:00</time>
      </trkpt>
      <trkpt lat="0" lon="0">
        <time>2020-12-06T08:52:04.585000+00:00</time>
      </trkpt>
      <trkpt lat="0" lon="0">
        <time>2020-12-06T08:52:04.591000+00:00</time>
      </trkpt>
      <trkpt lat="0" lon="0">
        <time>2020-12-06T08:52:04.596000+00:00</time>
      </trkpt>
      <trkpt lat="47.33274" lon="-1.27222">
        <ele>44</ele>
        <time>2020-12-06T08:52:05.563000+00:00</time>
      </trkpt>
      <trkpt lat="0" lon="0">
        <time>2020-12-06T08:52:05.566000+00:00</time>
      </trkpt>
      <trkpt lat="0" lon="0">
        <time>2020-12-06T08:52:05.569000+00:00</time>
      </trkpt>
      <trkpt lat="0" lon="0">
        <time>2020-12-06T08:52:05.571000+00:00</time>
      </trkpt>
      <trkpt lat="47.33272" lon="-1.27221">
        <ele>44</ele>
        <time>2020-12-06T08:52:06.549000+00:00</time>
      </trkpt>
      <trkpt lat="0" lon="0">
        <time>2020-12-06T08:52:06.553000+00:00</time>
      </trkpt>
      <trkpt lat="0" lon="0">
        <time>2020-12-06T08:52:06.559000+00:00</time>
      </trkpt>
      <trkpt lat="0" lon="0">
        <time>2020-12-06T08:52:06.563000+00:00</time>
      </trkpt>
      <trkpt lat="47.3327" lon="-1.2722">
        <ele>44</ele>
        <time>2020-12-06T08:52:07.573000+00:00</time>
      </trkpt>
      <trkpt lat="0" lon="0">
        <time>2020-12-06T08:52:07.588000+00:00</time>
      </trkpt>
      <trkpt lat="0" lon="0">
        <time>2020-12-06T08:52:07.594000+00:00</time>
      </trkpt>
      <trkpt lat="0" lon="0">
        <time>2020-12-06T08:52:07.596000+00:00</time>
      </trkpt>
      <trkpt lat="47.33267" lon="-1.27218">
        <ele>44</ele>
        <time>2020-12-06T08:52:08.559000+00:00</time>
      </trkpt>
      <trkpt lat="0" lon="0">
        <time>2020-12-06T08:52:08.574000+00:00</time>
      </trkpt>
      <trkpt lat="0" lon="0">
        <time>2020-12-06T08:52:08.578000+00:00</time>
      </trkpt>
      <trkpt lat="0" lon="0">
        <time>2020-12-06T08:52:08.587000+00:00</time>
      </trkpt>
      <trkpt lat="47.33265" lon="-1.27217">
        <ele>44</ele>
        <time>2020-12-06T08:52:09.535000+00:00</time>
      </trkpt>
      <trkpt lat="0" lon="0">
        <time>2020-12-06T08:52:09.542000+00:00</time>
      </trkpt>
      <trkpt lat="0" lon="0">
        <time>2020-12-06T08:52:09.544000+00:00</time>
      </trkpt>
      <trkpt lat="0" lon="0">
        <time>2020-12-06T08:52:09.545000+00:00</time>
      </trkpt>
      <trkpt lat="47.33263" lon="-1.27216">
        <ele>45</ele>
        <time>2020-12-06T08:52:10.556000+00:00</time>
      </trkpt>
      <trkpt lat="0" lon="0">
        <time>2020-12-06T08:52:10.562000+00:00</time>
      </trkpt>
      <trkpt lat="0" lon="0">
        <time>2020-12-06T08:52:10.566000+00:00</time>
      </trkpt>
      <trkpt lat="0" lon="0">
        <time>2020-12-06T08:52:10.568000+00:00</time>
      </trkpt>
      <trkpt lat="47.3326" lon="-1.27215">
        <ele>45</ele>
        <time>2020-12-06T08:52:11.477000+00:00</time>
      </trkpt>
      <trkpt lat="0" lon="0">
        <time>2020-12-06T08:52:11.483000+00:00</time>
      </trkpt>
      <trkpt lat="0" lon="0">
        <time>2020-12-06T08:52:11.488000+00:00</time>
      </trkpt>
      <trkpt lat="0" lon="0">
        <time>2020-12-06T08:52:11.490000+00:00</time>
      </trkpt>
      <trkpt lat="47.33258" lon="-1.27215">
        <ele>45</ele>
        <time>2020-12-06T08:52:12.580000+00:00</time>
      </trkpt>
      <trkpt lat="0" lon="0">
        <time>2020-12-06T08:52:12.589000+00:00</time>
      </trkpt>
      <trkpt lat="0" lon="0">
        <time>2020-12-06T08:52:12.593000+00:00</time>
      </trkpt>
      <trkpt lat="0" lon="0">
        <time>2020-12-06T08:52:12.599000+00:00</time>
      </trkpt>
      <trkpt lat="47.33255" lon="-1.27214">
        <ele>45</ele>
        <time>2020-12-06T08:52:13.604000+00:00</time>
      </trkpt>
      <trkpt lat="0" lon="0">
        <time>2020-12-06T08:52:13.611000+00:00</time>
      </trkpt>
      <trkpt lat="0" lon="0">
        <time>2020-12-06T08:52:13.622000+00:00</time>
      </trkpt>
      <trkpt lat="0" lon="0">
        <time>2020-12-06T08:52:13.624000+00:00</time>
      </trkpt>
      <trkpt lat="47.33252" lon="-1.27213">
        <ele>45</ele>
        <time>2020-12-06T08:52:14.569000+00:00</time>
      </trkpt>
      <trkpt lat="0" lon="0">
        <time>2020-12-06T08:52:14.582000+00:00</time>
      </trkpt>
      <trkpt lat="0" lon="0">
        <time>2020-12-06T08:52:14.590000+00:00</time>
      </trkpt>
      <trkpt lat="0" lon="0">
        <time>2020-12-06T08:52:14.592000+00:00</time>
      </trkpt>
      <trkpt lat="47.33249" lon="-1.27212">
        <ele>45</ele>
        <time>2020-12-06T08:52:15.585000+00:00</time>
      </trkpt>
      <trkpt lat="0" lon="0">
        <time>2020-12-06T08:52:15.589000+00:00</time>
      </trkpt>
      <trkpt lat="0" lon="0">
        <time>2020-12-06T08:52:15.594000+00:00</time>
      </trkpt>
      <trkpt lat="0" lon="0">
        <time>2020-12-06T08:52:15.596000+00:00</time>
      </trkpt>
      <trkpt lat="47.33245" lon="-1.27212">
        <ele>46</ele>
        <time>2020-12-06T08:52:16.544000+00:00</time>
      </trkpt>
      <trkpt lat="0" lon="0">
        <time>2020-12-06T08:52:16.549000+00:00</time>
      </trkpt>
      <trkpt lat="0" lon="0">
        <time>2020-12-06T08:52:16.559000+00:00</time>
      </trkpt>
      <trkpt lat="0" lon="0">
        <time>2020-12-06T08:52:16.562000+00:00</time>
      </trkpt>
      <trkpt lat="47.33242" lon="-1.27211">
        <ele>46</ele>
        <time>2020-12-06T08:52:17.577000+00:00</time>
      </trkpt>
      <trkpt lat="0" lon="0">
        <time>2020-12-06T08:52:17.591000+00:00</time>
      </trkpt>
      <trkpt lat="0" lon="0">
        <time>2020-12-06T08:52:17.597000+00:00</time>
      </trkpt>
      <trkpt lat="0" lon="0">
        <time>2020-12-06T08:52:17.600000+00:00</time>
      </trkpt>
      <trkpt lat="47.33239" lon="-1.2721">
        <ele>46</ele>
        <time>2020-12-06T08:52:18.556000+00:00</time>
      </trkpt>
      <trkpt lat="0" lon="0">
        <time>2020-12-06T08:52:18.568000+00:00</time>
      </trkpt>
      <trkpt lat="0" lon="0">
        <time>2020-12-06T08:52:18.581000+00:00</time>
      </trkpt>
      <trkpt lat="0" lon="0">
        <time>2020-12-06T08:52:18.584000+00:00</time>
      </trkpt>
      <trkpt lat="47.33235" lon="-1.2721">
        <ele>47</ele>
        <time>2020-12-06T08:52:19.572000+00:00</time>
      </trkpt>
      <trkpt lat="0" lon="0">
        <time>2020-12-06T08:52:19.585000+00:00</time>
      </trkpt>
      <trkpt lat="0" lon="0">
        <time>2020-12-06T08:52:19.588000+00:00</time>
      </trkpt>
      <trkpt lat="0" lon="0">
        <time>2020-12-06T08:52:19.595000+00:00</time>
      </trkpt>
      <trkpt lat="47.33232" lon="-1.27209">
        <ele>47</ele>
        <time>2020-12-06T08:52:20.552000+00:00</time>
      </trkpt>
      <trkpt lat="0" lon="0">
        <time>2020-12-06T08:52:20.555000+00:00</time>
      </trkpt>
      <trkpt lat="0" lon="0">
        <time>2020-12-06T08:52:20.562000+00:00</time>
      </trkpt>
      <trkpt lat="0" lon="0">
        <time>2020-12-06T08:52:20.563000+00:00</time>
      </trkpt>
      <trkpt lat="47.33229" lon="-1.27209">
        <ele>47</ele>
        <time>2020-12-06T08:52:21.564000+00:00</time>
      </trkpt>
      <trkpt lat="0" lon="0">
        <time>2020-12-06T08:52:21.570000+00:00</time>
      </trkpt>
      <trkpt lat="0" lon="0">
        <time>2020-12-06T08:52:21.577000+00:00</time>
      </trkpt>
      <trkpt lat="0" lon="0">
        <time>2020-12-06T08:52:21.580000+00:00</time>
      </trkpt>
      <trkpt lat="47.33226" lon="-1.27209">
        <ele>48</ele>
        <time>2020-12-06T08:52:22.536000+00:00</time>
      </trkpt>
      <trkpt lat="0" lon="0">
        <time>2020-12-06T08:52:22.558000+00:00</time>
      </trkpt>
      <trkpt lat="0" lon="0">
        <time>2020-12-06T08:52:22.560000+00:00</time>
      </trkpt>
      <trkpt lat="0" lon="0">
        <time>2020-12-06T08:52:22.562000+00:00</time>
      </trkpt>
      <trkpt lat="47.33223" lon="-1.27209">
        <ele>48</ele>
        <time>2020-12-06T08:52:23.549000+00:00</time>
      </trkpt>
      <trkpt lat="0" lon="0">
        <time>2020-12-06T08:52:23.554000+00:00</time>
      </trkpt>
      <trkpt lat="0" lon="0">
        <time>2020-12-06T08:52:23.562000+00:00</time>
      </trkpt>
      <trkpt lat="0" lon="0">
        <time>2020-12-06T08:52:23.572000+00:00</time>
      </trkpt>
      <trkpt lat="47.33221" lon="-1.27209">
        <ele>48</ele>
        <time>2020-12-06T08:52:24.580000+00:00</time>
      </trkpt>
      <trkpt lat="0" lon="0">
        <time>2020-12-06T08:52:24.591000+00:00</time>
      </trkpt>
      <trkpt lat="0" lon="0">
        <time>2020-12-06T08:52:24.595000+00:00</time>
      </trkpt>
      <trkpt lat="0" lon="0">
        <time>2020-12-06T08:52:24.597000+00:00</time>
      </trkpt>
      <trkpt lat="47.33219" lon="-1.2721">
        <ele>48</ele>
        <time>2020-12-06T08:52:25.572000+00:00</time>
      </trkpt>
      <trkpt lat="0" lon="0">
        <time>2020-12-06T08:52:25.583000+00:00</time>
      </trkpt>
      <trkpt lat="0" lon="0">
        <time>2020-12-06T08:52:25.586000+00:00</time>
      </trkpt>
      <trkpt lat="0" lon="0">
        <time>2020-12-06T08:52:25.588000+00:00</time>
      </trkpt>
      <trkpt lat="47.33217" lon="-1.27211">
        <ele>49</ele>
        <time>2020-12-06T08:52:26.514000+00:00</time>
      </trkpt>
      <trkpt lat="0" lon="0">
        <time>2020-12-06T08:52:26.521000+00:00</time>
      </trkpt>
      <trkpt lat="0" lon="0">
        <time>2020-12-06T08:52:26.526000+00:00</time>
      </trkpt>
      <trkpt lat="0" lon="0">
        <time>2020-12-06T08:52:26.528000+00:00</time>
      </trkpt>
      <trkpt lat="47.33216" lon="-1.27212">
        <ele>49</ele>
        <time>2020-12-06T08:52:27.572000+00:00</time>
      </trkpt>
      <trkpt lat="0" lon="0">
        <time>2020-12-06T08:52:27.583000+00:00</time>
      </trkpt>
      <trkpt lat="0" lon="0">
        <time>2020-12-06T08:52:27.589000+00:00</time>
      </trkpt>
      <trkpt lat="0" lon="0">
        <time>2020-12-06T08:52:27.592000+00:00</time>
      </trkpt>
      <trkpt lat="47.33215" lon="-1.27212">
        <ele>49</ele>
        <time>2020-12-06T08:52:28.543000+00:00</time>
      </trkpt>
      <trkpt lat="0" lon="0">
        <time>2020-12-06T08:52:28.552000+00:00</time>
      </trkpt>
      <trkpt lat="0" lon="0">
        <time>2020-12-06T08:52:28.561000+00:00</time>
      </trkpt>
      <trkpt lat="0" lon="0">
        <time>2020-12-06T08:52:28.562000+00:00</time>
      </trkpt>
      <trkpt lat="47.33214" lon="-1.27214">
        <ele>49</ele>
        <time>2020-12-06T08:52:29.580000+00:00</time>
      </trkpt>
      <trkpt lat="0" lon="0">
        <time>2020-12-06T08:52:29.595000+00:00</time>
      </trkpt>
      <trkpt lat="0" lon="0">
        <time>2020-12-06T08:52:29.599000+00:00</time>
      </trkpt>
      <trkpt lat="0" lon="0">
        <time>2020-12-06T08:52:29.602000+00:00</time>
      </trkpt>
      <trkpt lat="47.33212" lon="-1.27215">
        <ele>49</ele>
        <time>2020-12-06T08:52:30.572000+00:00</time>
      </trkpt>
      <trkpt lat="0" lon="0">
        <time>2020-12-06T08:52:30.588000+00:00</time>
      </trkpt>
      <trkpt lat="0" lon="0">
        <time>2020-12-06T08:52:30.594000+00:00</time>
      </trkpt>
      <trkpt lat="0" lon="0">
        <time>2020-12-06T08:52:30.596000+00:00</time>
      </trkpt>
      <trkpt lat="47.33211" lon="-1.27217">
        <ele>49</ele>
        <time>2020-12-06T08:52:31.559000+00:00</time>
      </trkpt>
      <trkpt lat="0" lon="0">
        <time>2020-12-06T08:52:31.566000+00:00</time>
      </trkpt>
      <trkpt lat="0" lon="0">
        <time>2020-12-06T08:52:31.570000+00:00</time>
      </trkpt>
      <trkpt lat="0" lon="0">
        <time>2020-12-06T08:52:31.573000+00:00</time>
      </trkpt>
      <trkpt lat="47.3321" lon="-1.27218">
        <ele>50</ele>
        <time>2020-12-06T08:52:32.555000+00:00</time>
      </trkpt>
      <trkpt lat="0" lon="0">
        <time>2020-12-06T08:52:32.569000+00:00</time>
      </trkpt>
      <trkpt lat="0" lon="0">
        <time>2020-12-06T08:52:32.573000+00:00</time>
      </trkpt>
      <trkpt lat="0" lon="0">
        <time>2020-12-06T08:52:32.575000+00:00</time>
      </trkpt>
      <trkpt lat="47.33208" lon="-1.2722">
        <ele>50</ele>
        <time>2020-12-06T08:52:33.569000+00:00</time>
      </trkpt>
      <trkpt lat="0" lon="0">
        <time>2020-12-06T08:52:33.585000+00:00</time>
      </trkpt>
      <trkpt lat="0" lon="0">
        <time>2020-12-06T08:52:33.588000+00:00</time>
      </trkpt>
      <trkpt lat="0" lon="0">
        <time>2020-12-06T08:52:33.591000+00:00</time>
      </trkpt>
      <trkpt lat="47.33207" lon="-1.27222">
        <ele>50</ele>
        <time>2020-12-06T08:52:34.522000+00:00</time>
      </trkpt>
      <trkpt lat="0" lon="0">
        <time>2020-12-06T08:52:34.525000+00:00</time>
      </trkpt>
      <trkpt lat="0" lon="0">
        <time>2020-12-06T08:52:34.531000+00:00</time>
      </trkpt>
      <trkpt lat="0" lon="0">
        <time>2020-12-06T08:52:34.533000+00:00</time>
      </trkpt>
      <trkpt lat="47.33205" lon="-1.27223">
        <ele>50</ele>
        <time>2020-12-06T08:52:35.562000+00:00</time>
      </trkpt>
      <trkpt lat="0" lon="0">
        <time>2020-12-06T08:52:35.580000+00:00</time>
      </trkpt>
      <trkpt lat="0" lon="0">
        <time>2020-12-06T08:52:35.590000+00:00</time>
      </trkpt>
      <trkpt lat="0" lon="0">
        <time>2020-12-06T08:52:35.592000+00:00</time>
      </trkpt>
      <trkpt lat="47.33204" lon="-1.27225">
        <ele>51</ele>
        <time>2020-12-06T08:52:36.568000+00:00</time>
      </trkpt>
      <trkpt lat="0" lon="0">
        <time>2020-12-06T08:52:36.587000+00:00</time>
      </trkpt>
      <trkpt lat="0" lon="0">
        <time>2020-12-06T08:52:36.594000+00:00</time>
      </trkpt>
      <trkpt lat="0" lon="0">
        <time>2020-12-06T08:52:36.598000+00:00</time>
      </trkpt>
      <trkpt lat="47.33203" lon="-1.27227">
        <ele>51</ele>
        <time>2020-12-06T08:52:37.564000+00:00</time>
      </trkpt>
      <trkpt lat="0" lon="0">
        <time>2020-12-06T08:52:37.567000+00:00</time>
      </trkpt>
      <trkpt lat="0" lon="0">
        <time>2020-12-06T08:52:37.575000+00:00</time>
      </trkpt>
      <trkpt lat="0" lon="0">
        <time>2020-12-06T08:52:37.583000+00:00</time>
      </trkpt>
      <trkpt lat="47.33201" lon="-1.27229">
        <ele>51</ele>
        <time>2020-12-06T08:52:38.574000+00:00</time>
      </trkpt>
      <trkpt lat="0" lon="0">
        <time>2020-12-06T08:52:38.577000+00:00</time>
      </trkpt>
      <trkpt lat="0" lon="0">
        <time>2020-12-06T08:52:38.590000+00:00</time>
      </trkpt>
      <trkpt lat="0" lon="0">
        <time>2020-12-06T08:52:38.593000+00:00</time>
      </trkpt>
      <trkpt lat="47.332" lon="-1.27231">
        <ele>51</ele>
        <time>2020-12-06T08:52:39.607000+00:00</time>
      </trkpt>
      <trkpt lat="0" lon="0">
        <time>2020-12-06T08:52:39.620000+00:00</time>
      </trkpt>
      <trkpt lat="0" lon="0">
        <time>2020-12-06T08:52:39.625000+00:00</time>
      </trkpt>
      <trkpt lat="0" lon="0">
        <time>2020-12-06T08:52:39.627000+00:00</time>
      </trkpt>
      <trkpt lat="47.33199" lon="-1.27233">
        <ele>52</ele>
        <time>2020-12-06T08:52:40.572000+00:00</time>
      </trkpt>
      <trkpt lat="0" lon="0">
        <time>2020-12-06T08:52:40.582000+00:00</time>
      </trkpt>
      <trkpt lat="0" lon="0">
        <time>2020-12-06T08:52:40.585000+00:00</time>
      </trkpt>
      <trkpt lat="0" lon="0">
        <time>2020-12-06T08:52:40.595000+00:00</time>
      </trkpt>
      <trkpt lat="47.33198" lon="-1.27235">
        <ele>52</ele>
        <time>2020-12-06T08:52:41.537000+00:00</time>
      </trkpt>
      <trkpt lat="0" lon="0">
        <time>2020-12-06T08:52:41.544000+00:00</time>
      </trkpt>
      <trkpt lat="0" lon="0">
        <time>2020-12-06T08:52:41.550000+00:00</time>
      </trkpt>
      <trkpt lat="0" lon="0">
        <time>2020-12-06T08:52:41.553000+00:00</time>
      </trkpt>
      <trkpt lat="47.33196" lon="-1.27237">
        <ele>52</ele>
        <time>2020-12-06T08:52:42.591000+00:00</time>
      </trkpt>
      <trkpt lat="0" lon="0">
        <time>2020-12-06T08:52:42.596000+00:00</time>
      </trkpt>
      <trkpt lat="0" lon="0">
        <time>2020-12-06T08:52:42.607000+00:00</time>
      </trkpt>
      <trkpt lat="0" lon="0">
        <time>2020-12-06T08:52:42.611000+00:00</time>
      </trkpt>
      <trkpt lat="47.33195" lon="-1.27239">
        <ele>52</ele>
        <time>2020-12-06T08:52:43.568000+00:00</time>
      </trkpt>
      <trkpt lat="0" lon="0">
        <time>2020-12-06T08:52:43.576000+00:00</time>
      </trkpt>
      <trkpt lat="0" lon="0">
        <time>2020-12-06T08:52:43.585000+00:00</time>
      </trkpt>
      <trkpt lat="0" lon="0">
        <time>2020-12-06T08:52:43.588000+00:00</time>
      </trkpt>
      <trkpt lat="47.33194" lon="-1.2724">
        <ele>52</ele>
        <time>2020-12-06T08:52:44.574000+00:00</time>
      </trkpt>
      <trkpt lat="0" lon="0">
        <time>2020-12-06T08:52:44.587000+00:00</time>
      </trkpt>
      <trkpt lat="0" lon="0">
        <time>2020-12-06T08:52:44.601000+00:00</time>
      </trkpt>
      <trkpt lat="0" lon="0">
        <time>2020-12-06T08:52:44.604000+00:00</time>
      </trkpt>
      <trkpt lat="47.33193" lon="-1.27242">
        <ele>53</ele>
        <time>2020-12-06T08:52:45.591000+00:00</time>
      </trkpt>
      <trkpt lat="0" lon="0">
        <time>2020-12-06T08:52:45.593000+00:00</time>
      </trkpt>
      <trkpt lat="0" lon="0">
        <time>2020-12-06T08:52:45.594000+00:00</time>
      </trkpt>
      <trkpt lat="0" lon="0">
        <time>2020-12-06T08:52:45.596000+00:00</time>
      </trkpt>
      <trkpt lat="47.33191" lon="-1.27243">
        <ele>53</ele>
        <time>2020-12-06T08:52:46.509000+00:00</time>
      </trkpt>
      <trkpt lat="0" lon="0">
        <time>2020-12-06T08:52:46.517000+00:00</time>
      </trkpt>
      <trkpt lat="0" lon="0">
        <time>2020-12-06T08:52:46.520000+00:00</time>
      </trkpt>
      <trkpt lat="0" lon="0">
        <time>2020-12-06T08:52:46.521000+00:00</time>
      </trkpt>
      <trkpt lat="47.3319" lon="-1.27245">
        <ele>53</ele>
        <time>2020-12-06T08:52:47.568000+00:00</time>
      </trkpt>
      <trkpt lat="0" lon="0">
        <time>2020-12-06T08:52:47.582000+00:00</time>
      </trkpt>
      <trkpt lat="0" lon="0">
        <time>2020-12-06T08:52:47.586000+00:00</time>
      </trkpt>
      <trkpt lat="0" lon="0">
        <time>2020-12-06T08:52:47.589000+00:00</time>
      </trkpt>
      <trkpt lat="47.33189" lon="-1.27247">
        <ele>53</ele>
        <time>2020-12-06T08:52:48.599000+00:00</time>
      </trkpt>
      <trkpt lat="0" lon="0">
        <time>2020-12-06T08:52:48.617000+00:00</time>
      </trkpt>
      <trkpt lat="0" lon="0">
        <time>2020-12-06T08:52:48.626000+00:00</time>
      </trkpt>
      <trkpt lat="0" lon="0">
        <time>2020-12-06T08:52:48.629000+00:00</time>
      </trkpt>
      <trkpt lat="47.33188" lon="-1.27249">
        <ele>54</ele>
        <time>2020-12-06T08:52:49.572000+00:00</time>
      </trkpt>
      <trkpt lat="0" lon="0">
        <time>2020-12-06T08:52:49.577000+00:00</time>
      </trkpt>
      <trkpt lat="0" lon="0">
        <time>2020-12-06T08:52:49.585000+00:00</time>
      </trkpt>
      <trkpt lat="0" lon="0">
        <time>2020-12-06T08:52:49.587000+00:00</time>
      </trkpt>
      <trkpt lat="47.33187" lon="-1.27251">
        <ele>54</ele>
        <time>2020-12-06T08:52:50.569000+00:00</time>
      </trkpt>
      <trkpt lat="0" lon="0">
        <time>2020-12-06T08:52:50.576000+00:00</time>
      </trkpt>
      <trkpt lat="0" lon="0">
        <time>2020-12-06T08:52:50.584000+00:00</time>
      </trkpt>
      <trkpt lat="0" lon="0">
        <time>2020-12-06T08:52:50.586000+00:00</time>
      </trkpt>
      <trkpt lat="47.33186" lon="-1.27253">
        <ele>54</ele>
        <time>2020-12-06T08:52:51.583000+00:00</time>
      </trkpt>
      <trkpt lat="0" lon="0">
        <time>2020-12-06T08:52:51.592000+00:00</time>
      </trkpt>
      <trkpt lat="0" lon="0">
        <time>2020-12-06T08:52:51.598000+00:00</time>
      </trkpt>
      <trkpt lat="0" lon="0">
        <time>2020-12-06T08:52:51.601000+00:00</time>
      </trkpt>
      <trkpt lat="47.33185" lon="-1.27255">
        <ele>54</ele>
        <time>2020-12-06T08:52:52.593000+00:00</time>
      </trkpt>
      <trkpt lat="0" lon="0">
        <time>2020-12-06T08:52:52.607000+00:00</time>
      </trkpt>
      <trkpt lat="0" lon="0">
        <time>2020-12-06T08:52:52.611000+00:00</time>
      </trkpt>
      <trkpt lat="0" lon="0">
        <time>2020-12-06T08:52:52.612000+00:00</time>
      </trkpt>
      <trkpt lat="47.33184" lon="-1.27257">
        <ele>54</ele>
        <time>2020-12-06T08:52:53.571000+00:00</time>
      </trkpt>
      <trkpt lat="0" lon="0">
        <time>2020-12-06T08:52:53.587000+00:00</time>
      </trkpt>
      <trkpt lat="0" lon="0">
        <time>2020-12-06T08:52:53.594000+00:00</time>
      </trkpt>
      <trkpt lat="0" lon="0">
        <time>2020-12-06T08:52:53.600000+00:00</time>
      </trkpt>
      <trkpt lat="47.33183" lon="-1.2726">
        <ele>55</ele>
        <time>2020-12-06T08:52:54.555000+00:00</time>
      </trkpt>
      <trkpt lat="0" lon="0">
        <time>2020-12-06T08:52:54.562000+00:00</time>
      </trkpt>
      <trkpt lat="0" lon="0">
        <time>2020-12-06T08:52:54.565000+00:00</time>
      </trkpt>
      <trkpt lat="0" lon="0">
        <time>2020-12-06T08:52:54.569000+00:00</time>
      </trkpt>
      <trkpt lat="47.33183" lon="-1.27262">
        <ele>55</ele>
        <time>2020-12-06T08:52:55.549000+00:00</time>
      </trkpt>
      <trkpt lat="0" lon="0">
        <time>2020-12-06T08:52:55.561000+00:00</time>
      </trkpt>
      <trkpt lat="0" lon="0">
        <time>2020-12-06T08:52:55.565000+00:00</time>
      </trkpt>
      <trkpt lat="0" lon="0">
        <time>2020-12-06T08:52:55.567000+00:00</time>
      </trkpt>
      <trkpt lat="47.33182" lon="-1.27264">
        <ele>55</ele>
        <time>2020-12-06T08:52:56.577000+00:00</time>
      </trkpt>
      <trkpt lat="0" lon="0">
        <time>2020-12-06T08:52:56.583000+00:00</time>
      </trkpt>
      <trkpt lat="0" lon="0">
        <time>2020-12-06T08:52:56.587000+00:00</time>
      </trkpt>
      <trkpt lat="0" lon="0">
        <time>2020-12-06T08:52:56.590000+00:00</time>
      </trkpt>
      <trkpt lat="47.33181" lon="-1.27266">
        <ele>55</ele>
        <time>2020-12-06T08:52:57.594000+00:00</time>
      </trkpt>
      <trkpt lat="0" lon="0">
        <time>2020-12-06T08:52:57.609000+00:00</time>
      </trkpt>
      <trkpt lat="0" lon="0">
        <time>2020-12-06T08:52:57.613000+00:00</time>
      </trkpt>
      <trkpt lat="0" lon="0">
        <time>2020-12-06T08:52:57.621000+00:00</time>
      </trkpt>
      <trkpt lat="47.33181" lon="-1.27268">
        <ele>55</ele>
        <time>2020-12-06T08:52:58.549000+00:00</time>
      </trkpt>
      <trkpt lat="0" lon="0">
        <time>2020-12-06T08:52:58.562000+00:00</time>
      </trkpt>
      <trkpt lat="0" lon="0">
        <time>2020-12-06T08:52:58.570000+00:00</time>
      </trkpt>
      <trkpt lat="0" lon="0">
        <time>2020-12-06T08:52:58.571000+00:00</time>
      </trkpt>
      <trkpt lat="47.3318" lon="-1.2727">
        <ele>55</ele>
        <time>2020-12-06T08:52:59.579000+00:00</time>
      </trkpt>
      <trkpt lat="0" lon="0">
        <time>2020-12-06T08:52:59.589000+00:00</time>
      </trkpt>
      <trkpt lat="0" lon="0">
        <time>2020-12-06T08:52:59.599000+00:00</time>
      </trkpt>
      <trkpt lat="0" lon="0">
        <time>2020-12-06T08:52:59.605000+00:00</time>
      </trkpt>
      <trkpt lat="47.3318" lon="-1.27272">
        <ele>55</ele>
        <time>2020-12-06T08:53:00.562000+00:00</time>
      </trkpt>
      <trkpt lat="0" lon="0">
        <time>2020-12-06T08:53:00.574000+00:00</time>
      </trkpt>
      <trkpt lat="0" lon="0">
        <time>2020-12-06T08:53:00.585000+00:00</time>
      </trkpt>
      <trkpt lat="0" lon="0">
        <time>2020-12-06T08:53:00.587000+00:00</time>
      </trkpt>
      <trkpt lat="47.33179" lon="-1.27274">
        <ele>56</ele>
        <time>2020-12-06T08:53:01.589000+00:00</time>
      </trkpt>
      <trkpt lat="0" lon="0">
        <time>2020-12-06T08:53:01.601000+00:00</time>
      </trkpt>
      <trkpt lat="0" lon="0">
        <time>2020-12-06T08:53:01.612000+00:00</time>
      </trkpt>
      <trkpt lat="0" lon="0">
        <time>2020-12-06T08:53:01.614000+00:00</time>
      </trkpt>
      <trkpt lat="47.33178" lon="-1.27277">
        <ele>56</ele>
        <time>2020-12-06T08:53:02.599000+00:00</time>
      </trkpt>
      <trkpt lat="0" lon="0">
        <time>2020-12-06T08:53:02.613000+00:00</time>
      </trkpt>
      <trkpt lat="0" lon="0">
        <time>2020-12-06T08:53:02.620000+00:00</time>
      </trkpt>
      <trkpt lat="0" lon="0">
        <time>2020-12-06T08:53:02.622000+00:00</time>
      </trkpt>
      <trkpt lat="47.33178" lon="-1.27279">
        <ele>56</ele>
        <time>2020-12-06T08:53:03.585000+00:00</time>
      </trkpt>
      <trkpt lat="0" lon="0">
        <time>2020-12-06T08:53:03.605000+00:00</time>
      </trkpt>
      <trkpt lat="0" lon="0">
        <time>2020-12-06T08:53:03.609000+00:00</time>
      </trkpt>
      <trkpt lat="0" lon="0">
        <time>2020-12-06T08:53:03.616000+00:00</time>
      </trkpt>
      <trkpt lat="47.33177" lon="-1.27281">
        <ele>56</ele>
        <time>2020-12-06T08:53:04.575000+00:00</time>
      </trkpt>
      <trkpt lat="0" lon="0">
        <time>2020-12-06T08:53:04.582000+00:00</time>
      </trkpt>
      <trkpt lat="0" lon="0">
        <time>2020-12-06T08:53:04.588000+00:00</time>
      </trkpt>
      <trkpt lat="0" lon="0">
        <time>2020-12-06T08:53:04.591000+00:00</time>
      </trkpt>
      <trkpt lat="47.33176" lon="-1.27283">
        <ele>56</ele>
        <time>2020-12-06T08:53:05.577000+00:00</time>
      </trkpt>
      <trkpt lat="0" lon="0">
        <time>2020-12-06T08:53:05.588000+00:00</time>
      </trkpt>
      <trkpt lat="0" lon="0">
        <time>2020-12-06T08:53:05.599000+00:00</time>
      </trkpt>
      <trkpt lat="0" lon="0">
        <time>2020-12-06T08:53:05.601000+00:00</time>
      </trkpt>
      <trkpt lat="47.33176" lon="-1.27286">
        <ele>56</ele>
        <time>2020-12-06T08:53:06.550000+00:00</time>
      </trkpt>
      <trkpt lat="0" lon="0">
        <time>2020-12-06T08:53:06.556000+00:00</time>
      </trkpt>
      <trkpt lat="0" lon="0">
        <time>2020-12-06T08:53:06.557000+00:00</time>
      </trkpt>
      <trkpt lat="0" lon="0">
        <time>2020-12-06T08:53:06.558000+00:00</time>
      </trkpt>
      <trkpt lat="47.33175" lon="-1.27288">
        <ele>56</ele>
        <time>2020-12-06T08:53:07.537000+00:00</time>
      </trkpt>
      <trkpt lat="0" lon="0">
        <time>2020-12-06T08:53:07.539000+00:00</time>
      </trkpt>
      <trkpt lat="0" lon="0">
        <time>2020-12-06T08:53:07.540000+00:00</time>
      </trkpt>
      <trkpt lat="0" lon="0">
        <time>2020-12-06T08:53:07.541000+00:00</time>
      </trkpt>
      <trkpt lat="47.33174" lon="-1.2729">
        <ele>57</ele>
        <time>2020-12-06T08:53:08.564000+00:00</time>
      </trkpt>
      <trkpt lat="0" lon="0">
        <time>2020-12-06T08:53:08.569000+00:00</time>
      </trkpt>
      <trkpt lat="0" lon="0">
        <time>2020-12-06T08:53:08.577000+00:00</time>
      </trkpt>
      <trkpt lat="0" lon="0">
        <time>2020-12-06T08:53:08.581000+00:00</time>
      </trkpt>
      <trkpt lat="47.33174" lon="-1.27293">
        <ele>57</ele>
        <time>2020-12-06T08:53:09.571000+00:00</time>
      </trkpt>
      <trkpt lat="0" lon="0">
        <time>2020-12-06T08:53:09.575000+00:00</time>
      </trkpt>
      <trkpt lat="0" lon="0">
        <time>2020-12-06T08:53:09.585000+00:00</time>
      </trkpt>
      <trkpt lat="0" lon="0">
        <time>2020-12-06T08:53:09.587000+00:00</time>
      </trkpt>
      <trkpt lat="47.33173" lon="-1.27295">
        <ele>57</ele>
        <time>2020-12-06T08:53:10.560000+00:00</time>
      </trkpt>
      <trkpt lat="0" lon="0">
        <time>2020-12-06T08:53:10.564000+00:00</time>
      </trkpt>
      <trkpt lat="0" lon="0">
        <time>2020-12-06T08:53:10.573000+00:00</time>
      </trkpt>
      <trkpt lat="0" lon="0">
        <time>2020-12-06T08:53:10.582000+00:00</time>
      </trkpt>
      <trkpt lat="47.33172" lon="-1.27297">
        <ele>57</ele>
        <time>2020-12-06T08:53:11.487000+00:00</time>
      </trkpt>
      <trkpt lat="0" lon="0">
        <time>2020-12-06T08:53:11.499000+00:00</time>
      </trkpt>
      <trkpt lat="0" lon="0">
        <time>2020-12-06T08:53:11.504000+00:00</time>
      </trkpt>
      <trkpt lat="0" lon="0">
        <time>2020-12-06T08:53:11.505000+00:00</time>
      </trkpt>
      <trkpt lat="47.33172" lon="-1.27299">
        <ele>57</ele>
        <time>2020-12-06T08:53:12.536000+00:00</time>
      </trkpt>
      <trkpt lat="0" lon="0">
        <time>2020-12-06T08:53:12.539000+00:00</time>
      </trkpt>
      <trkpt lat="0" lon="0">
        <time>2020-12-06T08:53:12.545000+00:00</time>
      </trkpt>
      <trkpt lat="0" lon="0">
        <time>2020-12-06T08:53:12.561000+00:00</time>
      </trkpt>
      <trkpt lat="47.33171" lon="-1.27301">
        <ele>57</ele>
        <time>2020-12-06T08:53:13.551000+00:00</time>
      </trkpt>
      <trkpt lat="0" lon="0">
        <time>2020-12-06T08:53:13.554000+00:00</time>
      </trkpt>
      <trkpt lat="0" lon="0">
        <time>2020-12-06T08:53:13.559000+00:00</time>
      </trkpt>
      <trkpt lat="0" lon="0">
        <time>2020-12-06T08:53:13.560000+00:00</time>
      </trkpt>
      <trkpt lat="47.3317" lon="-1.27303">
        <ele>57</ele>
        <time>2020-12-06T08:53:14.581000+00:00</time>
      </trkpt>
      <trkpt lat="0" lon="0">
        <time>2020-12-06T08:53:14.590000+00:00</time>
      </trkpt>
      <trkpt lat="0" lon="0">
        <time>2020-12-06T08:53:14.594000+00:00</time>
      </trkpt>
      <trkpt lat="0" lon="0">
        <time>2020-12-06T08:53:14.597000+00:00</time>
      </trkpt>
      <trkpt lat="47.33169" lon="-1.27305">
        <ele>58</ele>
        <time>2020-12-06T08:53:15.563000+00:00</time>
      </trkpt>
      <trkpt lat="0" lon="0">
        <time>2020-12-06T08:53:15.574000+00:00</time>
      </trkpt>
      <trkpt lat="0" lon="0">
        <time>2020-12-06T08:53:15.578000+00:00</time>
      </trkpt>
      <trkpt lat="0" lon="0">
        <time>2020-12-06T08:53:15.581000+00:00</time>
      </trkpt>
      <trkpt lat="47.33169" lon="-1.27307">
        <ele>58</ele>
        <time>2020-12-06T08:53:16.556000+00:00</time>
      </trkpt>
      <trkpt lat="0" lon="0">
        <time>2020-12-06T08:53:16.561000+00:00</time>
      </trkpt>
      <trkpt lat="0" lon="0">
        <time>2020-12-06T08:53:16.572000+00:00</time>
      </trkpt>
      <trkpt lat="0" lon="0">
        <time>2020-12-06T08:53:16.578000+00:00</time>
      </trkpt>
      <trkpt lat="47.33168" lon="-1.27309">
        <ele>58</ele>
        <time>2020-12-06T08:53:17.588000+00:00</time>
      </trkpt>
      <trkpt lat="0" lon="0">
        <time>2020-12-06T08:53:17.597000+00:00</time>
      </trkpt>
      <trkpt lat="0" lon="0">
        <time>2020-12-06T08:53:17.601000+00:00</time>
      </trkpt>
      <trkpt lat="0" lon="0">
        <time>2020-12-06T08:53:17.603000+00:00</time>
      </trkpt>
      <trkpt lat="47.33167" lon="-1.27312">
        <ele>58</ele>
        <time>2020-12-06T08:53:18.596000+00:00</time>
      </trkpt>
      <trkpt lat="0" lon="0">
        <time>2020-12-06T08:53:18.601000+00:00</time>
      </trkpt>
      <trkpt lat="0" lon="0">
        <time>2020-12-06T08:53:18.602000+00:00</time>
      </trkpt>
      <trkpt lat="0" lon="0">
        <time>2020-12-06T08:53:18.603000+00:00</time>
      </trkpt>
      <trkpt lat="47.33166" lon="-1.27314">
        <ele>58</ele>
        <time>2020-12-06T08:53:19.557000+00:00</time>
      </trkpt>
      <trkpt lat="0" lon="0">
        <time>2020-12-06T08:53:19.566000+00:00</time>
      </trkpt>
      <trkpt lat="0" lon="0">
        <time>2020-12-06T08:53:19.568000+00:00</time>
      </trkpt>
      <trkpt lat="0" lon="0">
        <time>2020-12-06T08:53:19.569000+00:00</time>
      </trkpt>
      <trkpt lat="47.33165" lon="-1.27316">
        <ele>58</ele>
        <time>2020-12-06T08:53:20.601000+00:00</time>
      </trkpt>
      <trkpt lat="0" lon="0">
        <time>2020-12-06T08:53:20.617000+00:00</time>
      </trkpt>
      <trkpt lat="0" lon="0">
        <time>2020-12-06T08:53:20.628000+00:00</time>
      </trkpt>
      <trkpt lat="0" lon="0">
        <time>2020-12-06T08:53:20.632000+00:00</time>
      </trkpt>
      <trkpt lat="47.33164" lon="-1.27318">
        <ele>58</ele>
        <time>2020-12-06T08:53:21.553000+00:00</time>
      </trkpt>
      <trkpt lat="0" lon="0">
        <time>2020-12-06T08:53:21.555000+00:00</time>
      </trkpt>
      <trkpt lat="0" lon="0">
        <time>2020-12-06T08:53:21.557000+00:00</time>
      </trkpt>
      <trkpt lat="0" lon="0">
        <time>2020-12-06T08:53:21.558000+00:00</time>
      </trkpt>
      <trkpt lat="47.33163" lon="-1.2732">
        <ele>58</ele>
        <time>2020-12-06T08:53:22.578000+00:00</time>
      </trkpt>
      <trkpt lat="0" lon="0">
        <time>2020-12-06T08:53:22.586000+00:00</time>
      </trkpt>
      <trkpt lat="0" lon="0">
        <time>2020-12-06T08:53:22.587000+00:00</time>
      </trkpt>
      <trkpt lat="0" lon="0">
        <time>2020-12-06T08:53:22.588000+00:00</time>
      </trkpt>
      <trkpt lat="47.33162" lon="-1.27323">
        <ele>59</ele>
        <time>2020-12-06T08:53:23.607000+00:00</time>
      </trkpt>
      <trkpt lat="0" lon="0">
        <time>2020-12-06T08:53:23.610000+00:00</time>
      </trkpt>
      <trkpt lat="0" lon="0">
        <time>2020-12-06T08:53:23.615000+00:00</time>
      </trkpt>
      <trkpt lat="0" lon="0">
        <time>2020-12-06T08:53:23.617000+00:00</time>
      </trkpt>
      <trkpt lat="47.33161" lon="-1.27325">
        <ele>59</ele>
        <time>2020-12-06T08:53:24.532000+00:00</time>
      </trkpt>
      <trkpt lat="0" lon="0">
        <time>2020-12-06T08:53:24.542000+00:00</time>
      </trkpt>
      <trkpt lat="0" lon="0">
        <time>2020-12-06T08:53:24.551000+00:00</time>
      </trkpt>
      <trkpt lat="0" lon="0">
        <time>2020-12-06T08:53:24.553000+00:00</time>
      </trkpt>
      <trkpt lat="47.3316" lon="-1.27327">
        <ele>59</ele>
        <time>2020-12-06T08:53:25.557000+00:00</time>
      </trkpt>
      <trkpt lat="0" lon="0">
        <time>2020-12-06T08:53:25.565000+00:00</time>
      </trkpt>
      <trkpt lat="0" lon="0">
        <time>2020-12-06T08:53:25.573000+00:00</time>
      </trkpt>
      <trkpt lat="0" lon="0">
        <time>2020-12-06T08:53:25.576000+00:00</time>
      </trkpt>
      <trkpt lat="47.33159" lon="-1.27329">
        <ele>59</ele>
        <time>2020-12-06T08:53:26.579000+00:00</time>
      </trkpt>
      <trkpt lat="0" lon="0">
        <time>2020-12-06T08:53:26.593000+00:00</time>
      </trkpt>
      <trkpt lat="0" lon="0">
        <time>2020-12-06T08:53:26.597000+00:00</time>
      </trkpt>
      <trkpt lat="0" lon="0">
        <time>2020-12-06T08:53:26.601000+00:00</time>
      </trkpt>
      <trkpt lat="47.33158" lon="-1.27332">
        <ele>59</ele>
        <time>2020-12-06T08:53:27.565000+00:00</time>
      </trkpt>
      <trkpt lat="0" lon="0">
        <time>2020-12-06T08:53:27.577000+00:00</time>
      </trkpt>
      <trkpt lat="0" lon="0">
        <time>2020-12-06T08:53:27.580000+00:00</time>
      </trkpt>
      <trkpt lat="0" lon="0">
        <time>2020-12-06T08:53:27.582000+00:00</time>
      </trkpt>
      <trkpt lat="47.33157" lon="-1.27334">
        <ele>59</ele>
        <time>2020-12-06T08:53:28.604000+00:00</time>
      </trkpt>
      <trkpt lat="0" lon="0">
        <time>2020-12-06T08:53:28.614000+00:00</time>
      </trkpt>
      <trkpt lat="0" lon="0">
        <time>2020-12-06T08:53:28.618000+00:00</time>
      </trkpt>
      <trkpt lat="0" lon="0">
        <time>2020-12-06T08:53:28.620000+00:00</time>
      </trkpt>
      <trkpt lat="47.33156" lon="-1.27336">
        <ele>59</ele>
        <time>2020-12-06T08:53:29.584000+00:00</time>
      </trkpt>
      <trkpt lat="0" lon="0">
        <time>2020-12-06T08:53:29.586000+00:00</time>
      </trkpt>
      <trkpt lat="0" lon="0">
        <time>2020-12-06T08:53:29.588000+00:00</time>
      </trkpt>
      <trkpt lat="0" lon="0">
        <time>2020-12-06T08:53:29.589000+00:00</time>
      </trkpt>
      <trkpt lat="47.33155" lon="-1.27339">
        <ele>59</ele>
        <time>2020-12-06T08:53:30.550000+00:00</time>
      </trkpt>
      <trkpt lat="0" lon="0">
        <time>2020-12-06T08:53:30.553000+00:00</time>
      </trkpt>
      <trkpt lat="0" lon="0">
        <time>2020-12-06T08:53:30.560000+00:00</time>
      </trkpt>
      <trkpt lat="0" lon="0">
        <time>2020-12-06T08:53:30.564000+00:00</time>
      </trkpt>
      <trkpt lat="47.33155" lon="-1.27341">
        <ele>59</ele>
        <time>2020-12-06T08:53:31.562000+00:00</time>
      </trkpt>
      <trkpt lat="0" lon="0">
        <time>2020-12-06T08:53:31.572000+00:00</time>
      </trkpt>
      <trkpt lat="0" lon="0">
        <time>2020-12-06T08:53:31.579000+00:00</time>
      </trkpt>
      <trkpt lat="0" lon="0">
        <time>2020-12-06T08:53:31.581000+00:00</time>
      </trkpt>
      <trkpt lat="47.33154" lon="-1.27343">
        <ele>59</ele>
        <time>2020-12-06T08:53:32.580000+00:00</time>
      </trkpt>
      <trkpt lat="0" lon="0">
        <time>2020-12-06T08:53:32.590000+00:00</time>
      </trkpt>
      <trkpt lat="0" lon="0">
        <time>2020-12-06T08:53:32.608000+00:00</time>
      </trkpt>
      <trkpt lat="0" lon="0">
        <time>2020-12-06T08:53:32.612000+00:00</time>
      </trkpt>
      <trkpt lat="47.33154" lon="-1.27344">
        <ele>59</ele>
        <time>2020-12-06T08:53:33.569000+00:00</time>
      </trkpt>
      <trkpt lat="0" lon="0">
        <time>2020-12-06T08:53:33.574000+00:00</time>
      </trkpt>
      <trkpt lat="0" lon="0">
        <time>2020-12-06T08:53:33.580000+00:00</time>
      </trkpt>
      <trkpt lat="0" lon="0">
        <time>2020-12-06T08:53:33.584000+00:00</time>
      </trkpt>
      <trkpt lat="47.33153" lon="-1.27346">
        <ele>59</ele>
        <time>2020-12-06T08:53:34.588000+00:00</time>
      </trkpt>
      <trkpt lat="0" lon="0">
        <time>2020-12-06T08:53:34.603000+00:00</time>
      </trkpt>
      <trkpt lat="0" lon="0">
        <time>2020-12-06T08:53:34.613000+00:00</time>
      </trkpt>
      <trkpt lat="0" lon="0">
        <time>2020-12-06T08:53:34.614000+00:00</time>
      </trkpt>
      <trkpt lat="47.33152" lon="-1.27348">
        <ele>59</ele>
        <time>2020-12-06T08:53:35.616000+00:00</time>
      </trkpt>
      <trkpt lat="0" lon="0">
        <time>2020-12-06T08:53:35.619000+00:00</time>
      </trkpt>
      <trkpt lat="0" lon="0">
        <time>2020-12-06T08:53:35.621000+00:00</time>
      </trkpt>
      <trkpt lat="0" lon="0">
        <time>2020-12-06T08:53:35.622000+00:00</time>
      </trkpt>
      <trkpt lat="47.33152" lon="-1.27349">
        <ele>59</ele>
        <time>2020-12-06T08:53:36.600000+00:00</time>
      </trkpt>
      <trkpt lat="0" lon="0">
        <time>2020-12-06T08:53:36.613000+00:00</time>
      </trkpt>
      <trkpt lat="0" lon="0">
        <time>2020-12-06T08:53:36.620000+00:00</time>
      </trkpt>
      <trkpt lat="0" lon="0">
        <time>2020-12-06T08:53:36.626000+00:00</time>
      </trkpt>
      <trkpt lat="47.33151" lon="-1.27351">
        <ele>59</ele>
        <time>2020-12-06T08:53:37.566000+00:00</time>
      </trkpt>
      <trkpt lat="0" lon="0">
        <time>2020-12-06T08:53:37.574000+00:00</time>
      </trkpt>
      <trkpt lat="0" lon="0">
        <time>2020-12-06T08:53:37.580000+00:00</time>
      </trkpt>
      <trkpt lat="0" lon="0">
        <time>2020-12-06T08:53:37.582000+00:00</time>
      </trkpt>
      <trkpt lat="47.3315" lon="-1.27353">
        <ele>59</ele>
        <time>2020-12-06T08:53:38.576000+00:00</time>
      </trkpt>
      <trkpt lat="0" lon="0">
        <time>2020-12-06T08:53:38.584000+00:00</time>
      </trkpt>
      <trkpt lat="0" lon="0">
        <time>2020-12-06T08:53:38.588000+00:00</time>
      </trkpt>
      <trkpt lat="0" lon="0">
        <time>2020-12-06T08:53:38.590000+00:00</time>
      </trkpt>
      <trkpt lat="47.33149" lon="-1.27355">
        <ele>60</ele>
        <time>2020-12-06T08:53:39.559000+00:00</time>
      </trkpt>
      <trkpt lat="0" lon="0">
        <time>2020-12-06T08:53:39.565000+00:00</time>
      </trkpt>
      <trkpt lat="0" lon="0">
        <time>2020-12-06T08:53:39.575000+00:00</time>
      </trkpt>
      <trkpt lat="0" lon="0">
        <time>2020-12-06T08:53:39.577000+00:00</time>
      </trkpt>
      <trkpt lat="47.33148" lon="-1.27357">
        <ele>60</ele>
        <time>2020-12-06T08:53:40.592000+00:00</time>
      </trkpt>
      <trkpt lat="0" lon="0">
        <time>2020-12-06T08:53:40.607000+00:00</time>
      </trkpt>
      <trkpt lat="0" lon="0">
        <time>2020-12-06T08:53:40.617000+00:00</time>
      </trkpt>
      <trkpt lat="0" lon="0">
        <time>2020-12-06T08:53:40.623000+00:00</time>
      </trkpt>
      <trkpt lat="47.33148" lon="-1.27359">
        <ele>60</ele>
        <time>2020-12-06T08:53:41.534000+00:00</time>
      </trkpt>
      <trkpt lat="0" lon="0">
        <time>2020-12-06T08:53:41.537000+00:00</time>
      </trkpt>
      <trkpt lat="0" lon="0">
        <time>2020-12-06T08:53:41.545000+00:00</time>
      </trkpt>
      <trkpt lat="0" lon="0">
        <time>2020-12-06T08:53:41.546000+00:00</time>
      </trkpt>
      <trkpt lat="47.33147" lon="-1.27361">
        <ele>60</ele>
        <time>2020-12-06T08:53:42.552000+00:00</time>
      </trkpt>
      <trkpt lat="0" lon="0">
        <time>2020-12-06T08:53:42.568000+00:00</time>
      </trkpt>
      <trkpt lat="0" lon="0">
        <time>2020-12-06T08:53:42.574000+00:00</time>
      </trkpt>
      <trkpt lat="0" lon="0">
        <time>2020-12-06T08:53:42.576000+00:00</time>
      </trkpt>
      <trkpt lat="47.33146" lon="-1.27363">
        <ele>60</ele>
        <time>2020-12-06T08:53:43.556000+00:00</time>
      </trkpt>
      <trkpt lat="0" lon="0">
        <time>2020-12-06T08:53:43.566000+00:00</time>
      </trkpt>
      <trkpt lat="0" lon="0">
        <time>2020-12-06T08:53:43.574000+00:00</time>
      </trkpt>
      <trkpt lat="0" lon="0">
        <time>2020-12-06T08:53:43.575000+00:00</time>
      </trkpt>
      <trkpt lat="47.33145" lon="-1.27365">
        <ele>60</ele>
        <time>2020-12-06T08:53:44.555000+00:00</time>
      </trkpt>
      <trkpt lat="0" lon="0">
        <time>2020-12-06T08:53:44.569000+00:00</time>
      </trkpt>
      <trkpt lat="0" lon="0">
        <time>2020-12-06T08:53:44.573000+00:00</time>
      </trkpt>
      <trkpt lat="0" lon="0">
        <time>2020-12-06T08:53:44.575000+00:00</time>
      </trkpt>
      <trkpt lat="47.33144" lon="-1.27367">
        <ele>60</ele>
        <time>2020-12-06T08:53:45.536000+00:00</time>
      </trkpt>
      <trkpt lat="0" lon="0">
        <time>2020-12-06T08:53:45.546000+00:00</time>
      </trkpt>
      <trkpt lat="0" lon="0">
        <time>2020-12-06T08:53:45.550000+00:00</time>
      </trkpt>
      <trkpt lat="0" lon="0">
        <time>2020-12-06T08:53:45.552000+00:00</time>
      </trkpt>
      <trkpt lat="47.33143" lon="-1.27369">
        <ele>60</ele>
        <time>2020-12-06T08:53:46.541000+00:00</time>
      </trkpt>
      <trkpt lat="0" lon="0">
        <time>2020-12-06T08:53:46.548000+00:00</time>
      </trkpt>
      <trkpt lat="0" lon="0">
        <time>2020-12-06T08:53:46.550000+00:00</time>
      </trkpt>
      <trkpt lat="0" lon="0">
        <time>2020-12-06T08:53:46.556000+00:00</time>
      </trkpt>
      <trkpt lat="47.33142" lon="-1.27372">
        <ele>60</ele>
        <time>2020-12-06T08:53:47.585000+00:00</time>
      </trkpt>
      <trkpt lat="0" lon="0">
        <time>2020-12-06T08:53:47.594000+00:00</time>
      </trkpt>
      <trkpt lat="0" lon="0">
        <time>2020-12-06T08:53:47.597000+00:00</time>
      </trkpt>
      <trkpt lat="0" lon="0">
        <time>2020-12-06T08:53:47.599000+00:00</time>
      </trkpt>
      <trkpt lat="47.33141" lon="-1.27374">
        <ele>60</ele>
        <time>2020-12-06T08:53:48.580000+00:00</time>
      </trkpt>
      <trkpt lat="0" lon="0">
        <time>2020-12-06T08:53:48.589000+00:00</time>
      </trkpt>
      <trkpt lat="0" lon="0">
        <time>2020-12-06T08:53:48.592000+00:00</time>
      </trkpt>
      <trkpt lat="0" lon="0">
        <time>2020-12-06T08:53:48.594000+00:00</time>
      </trkpt>
      <trkpt lat="47.33139" lon="-1.27376">
        <ele>60</ele>
        <time>2020-12-06T08:53:49.557000+00:00</time>
      </trkpt>
      <trkpt lat="0" lon="0">
        <time>2020-12-06T08:53:49.564000+00:00</time>
      </trkpt>
      <trkpt lat="0" lon="0">
        <time>2020-12-06T08:53:49.574000+00:00</time>
      </trkpt>
      <trkpt lat="0" lon="0">
        <time>2020-12-06T08:53:49.577000+00:00</time>
      </trkpt>
      <trkpt lat="47.33138" lon="-1.27379">
        <ele>60</ele>
        <time>2020-12-06T08:53:50.587000+00:00</time>
      </trkpt>
      <trkpt lat="0" lon="0">
        <time>2020-12-06T08:53:50.599000+00:00</time>
      </trkpt>
      <trkpt lat="0" lon="0">
        <time>2020-12-06T08:53:50.606000+00:00</time>
      </trkpt>
      <trkpt lat="0" lon="0">
        <time>2020-12-06T08:53:50.608000+00:00</time>
      </trkpt>
      <trkpt lat="47.33136" lon="-1.27381">
        <ele>60</ele>
        <time>2020-12-06T08:53:51.601000+00:00</time>
      </trkpt>
      <trkpt lat="0" lon="0">
        <time>2020-12-06T08:53:51.606000+00:00</time>
      </trkpt>
      <trkpt lat="0" lon="0">
        <time>2020-12-06T08:53:51.624000+00:00</time>
      </trkpt>
      <trkpt lat="0" lon="0">
        <time>2020-12-06T08:53:51.628000+00:00</time>
      </trkpt>
      <trkpt lat="47.33135" lon="-1.27383">
        <ele>60</ele>
        <time>2020-12-06T08:53:52.557000+00:00</time>
      </trkpt>
      <trkpt lat="0" lon="0">
        <time>2020-12-06T08:53:52.578000+00:00</time>
      </trkpt>
      <trkpt lat="0" lon="0">
        <time>2020-12-06T08:53:52.582000+00:00</time>
      </trkpt>
      <trkpt lat="0" lon="0">
        <time>2020-12-06T08:53:52.585000+00:00</time>
      </trkpt>
      <trkpt lat="47.33134" lon="-1.27386">
        <ele>60</ele>
        <time>2020-12-06T08:53:53.530000+00:00</time>
      </trkpt>
      <trkpt lat="0" lon="0">
        <time>2020-12-06T08:53:53.545000+00:00</time>
      </trkpt>
      <trkpt lat="0" lon="0">
        <time>2020-12-06T08:53:53.552000+00:00</time>
      </trkpt>
      <trkpt lat="0" lon="0">
        <time>2020-12-06T08:53:53.554000+00:00</time>
      </trkpt>
      <trkpt lat="47.33132" lon="-1.27388">
        <ele>60</ele>
        <time>2020-12-06T08:53:54.623000+00:00</time>
      </trkpt>
      <trkpt lat="0" lon="0">
        <time>2020-12-06T08:53:54.627000+00:00</time>
      </trkpt>
      <trkpt lat="0" lon="0">
        <time>2020-12-06T08:53:54.633000+00:00</time>
      </trkpt>
      <trkpt lat="0" lon="0">
        <time>2020-12-06T08:53:54.635000+00:00</time>
      </trkpt>
      <trkpt lat="47.33131" lon="-1.2739">
        <ele>60</ele>
        <time>2020-12-06T08:53:55.495000+00:00</time>
      </trkpt>
      <trkpt lat="0" lon="0">
        <time>2020-12-06T08:53:55.507000+00:00</time>
      </trkpt>
      <trkpt lat="0" lon="0">
        <time>2020-12-06T08:53:55.511000+00:00</time>
      </trkpt>
      <trkpt lat="0" lon="0">
        <time>2020-12-06T08:53:55.512000+00:00</time>
      </trkpt>
      <trkpt lat="47.3313" lon="-1.27392">
        <ele>60</ele>
        <time>2020-12-06T08:53:56.540000+00:00</time>
      </trkpt>
      <trkpt lat="0" lon="0">
        <time>2020-12-06T08:53:56.551000+00:00</time>
      </trkpt>
      <trkpt lat="0" lon="0">
        <time>2020-12-06T08:53:56.555000+00:00</time>
      </trkpt>
      <trkpt lat="0" lon="0">
        <time>2020-12-06T08:53:56.562000+00:00</time>
      </trkpt>
      <trkpt lat="47.33128" lon="-1.27394">
        <ele>60</ele>
        <time>2020-12-06T08:53:57.611000+00:00</time>
      </trkpt>
      <trkpt lat="0" lon="0">
        <time>2020-12-06T08:53:57.618000+00:00</time>
      </trkpt>
      <trkpt lat="0" lon="0">
        <time>2020-12-06T08:53:57.620000+00:00</time>
      </trkpt>
      <trkpt lat="0" lon="0">
        <time>2020-12-06T08:53:57.623000+00:00</time>
      </trkpt>
      <trkpt lat="47.33127" lon="-1.27395">
        <ele>61</ele>
        <time>2020-12-06T08:53:58.542000+00:00</time>
      </trkpt>
      <trkpt lat="0" lon="0">
        <time>2020-12-06T08:53:58.546000+00:00</time>
      </trkpt>
      <trkpt lat="0" lon="0">
        <time>2020-12-06T08:53:58.551000+00:00</time>
      </trkpt>
      <trkpt lat="0" lon="0">
        <time>2020-12-06T08:53:58.552000+00:00</time>
      </trkpt>
      <trkpt lat="47.33126" lon="-1.27397">
        <ele>61</ele>
        <time>2020-12-06T08:53:59.586000+00:00</time>
      </trkpt>
      <trkpt lat="0" lon="0">
        <time>2020-12-06T08:53:59.604000+00:00</time>
      </trkpt>
      <trkpt lat="0" lon="0">
        <time>2020-12-06T08:53:59.612000+00:00</time>
      </trkpt>
      <trkpt lat="0" lon="0">
        <time>2020-12-06T08:53:59.614000+00:00</time>
      </trkpt>
      <trkpt lat="47.33124" lon="-1.27398">
        <ele>61</ele>
        <time>2020-12-06T08:54:00.603000+00:00</time>
      </trkpt>
      <trkpt lat="0" lon="0">
        <time>2020-12-06T08:54:00.608000+00:00</time>
      </trkpt>
      <trkpt lat="0" lon="0">
        <time>2020-12-06T08:54:00.614000+00:00</time>
      </trkpt>
      <trkpt lat="0" lon="0">
        <time>2020-12-06T08:54:00.616000+00:00</time>
      </trkpt>
      <trkpt lat="47.33123" lon="-1.27399">
        <ele>61</ele>
        <time>2020-12-06T08:54:01.597000+00:00</time>
      </trkpt>
      <trkpt lat="0" lon="0">
        <time>2020-12-06T08:54:01.608000+00:00</time>
      </trkpt>
      <trkpt lat="0" lon="0">
        <time>2020-12-06T08:54:01.611000+00:00</time>
      </trkpt>
      <trkpt lat="0" lon="0">
        <time>2020-12-06T08:54:01.613000+00:00</time>
      </trkpt>
      <trkpt lat="47.33122" lon="-1.27401">
        <ele>61</ele>
        <time>2020-12-06T08:54:02.553000+00:00</time>
      </trkpt>
      <trkpt lat="0" lon="0">
        <time>2020-12-06T08:54:02.572000+00:00</time>
      </trkpt>
      <trkpt lat="0" lon="0">
        <time>2020-12-06T08:54:02.575000+00:00</time>
      </trkpt>
      <trkpt lat="0" lon="0">
        <time>2020-12-06T08:54:02.577000+00:00</time>
      </trkpt>
      <trkpt lat="47.3312" lon="-1.27403">
        <ele>61</ele>
        <time>2020-12-06T08:54:03.599000+00:00</time>
      </trkpt>
      <trkpt lat="0" lon="0">
        <time>2020-12-06T08:54:03.605000+00:00</time>
      </trkpt>
      <trkpt lat="0" lon="0">
        <time>2020-12-06T08:54:03.607000+00:00</time>
      </trkpt>
      <trkpt lat="0" lon="0">
        <time>2020-12-06T08:54:03.608000+00:00</time>
      </trkpt>
      <trkpt lat="47.33119" lon="-1.27404">
        <ele>61</ele>
        <time>2020-12-06T08:54:04.553000+00:00</time>
      </trkpt>
      <trkpt lat="0" lon="0">
        <time>2020-12-06T08:54:04.563000+00:00</time>
      </trkpt>
      <trkpt lat="0" lon="0">
        <time>2020-12-06T08:54:04.571000+00:00</time>
      </trkpt>
      <trkpt lat="0" lon="0">
        <time>2020-12-06T08:54:04.580000+00:00</time>
      </trkpt>
      <trkpt lat="47.33118" lon="-1.27406">
        <ele>61</ele>
        <time>2020-12-06T08:54:05.589000+00:00</time>
      </trkpt>
      <trkpt lat="0" lon="0">
        <time>2020-12-06T08:54:05.597000+00:00</time>
      </trkpt>
      <trkpt lat="0" lon="0">
        <time>2020-12-06T08:54:05.602000+00:00</time>
      </trkpt>
      <trkpt lat="0" lon="0">
        <time>2020-12-06T08:54:05.604000+00:00</time>
      </trkpt>
      <trkpt lat="47.33116" lon="-1.27407">
        <ele>61</ele>
        <time>2020-12-06T08:54:06.587000+00:00</time>
      </trkpt>
      <trkpt lat="0" lon="0">
        <time>2020-12-06T08:54:06.604000+00:00</time>
      </trkpt>
      <trkpt lat="0" lon="0">
        <time>2020-12-06T08:54:06.614000+00:00</time>
      </trkpt>
      <trkpt lat="0" lon="0">
        <time>2020-12-06T08:54:06.617000+00:00</time>
      </trkpt>
      <trkpt lat="47.33115" lon="-1.27409">
        <ele>61</ele>
        <time>2020-12-06T08:54:07.572000+00:00</time>
      </trkpt>
      <trkpt lat="0" lon="0">
        <time>2020-12-06T08:54:07.586000+00:00</time>
      </trkpt>
      <trkpt lat="0" lon="0">
        <time>2020-12-06T08:54:07.591000+00:00</time>
      </trkpt>
      <trkpt lat="0" lon="0">
        <time>2020-12-06T08:54:07.593000+00:00</time>
      </trkpt>
      <trkpt lat="47.33114" lon="-1.2741">
        <ele>61</ele>
        <time>2020-12-06T08:54:08.556000+00:00</time>
      </trkpt>
      <trkpt lat="0" lon="0">
        <time>2020-12-06T08:54:08.572000+00:00</time>
      </trkpt>
      <trkpt lat="0" lon="0">
        <time>2020-12-06T08:54:08.576000+00:00</time>
      </trkpt>
      <trkpt lat="0" lon="0">
        <time>2020-12-06T08:54:08.580000+00:00</time>
      </trkpt>
      <trkpt lat="47.33113" lon="-1.27412">
        <ele>61</ele>
        <time>2020-12-06T08:54:09.598000+00:00</time>
      </trkpt>
      <trkpt lat="0" lon="0">
        <time>2020-12-06T08:54:09.610000+00:00</time>
      </trkpt>
      <trkpt lat="0" lon="0">
        <time>2020-12-06T08:54:09.617000+00:00</time>
      </trkpt>
      <trkpt lat="0" lon="0">
        <time>2020-12-06T08:54:09.619000+00:00</time>
      </trkpt>
      <trkpt lat="47.33112" lon="-1.27414">
        <ele>61</ele>
        <time>2020-12-06T08:54:10.575000+00:00</time>
      </trkpt>
      <trkpt lat="0" lon="0">
        <time>2020-12-06T08:54:10.594000+00:00</time>
      </trkpt>
      <trkpt lat="0" lon="0">
        <time>2020-12-06T08:54:10.597000+00:00</time>
      </trkpt>
      <trkpt lat="0" lon="0">
        <time>2020-12-06T08:54:10.599000+00:00</time>
      </trkpt>
      <trkpt lat="47.3311" lon="-1.27415">
        <ele>61</ele>
        <time>2020-12-06T08:54:11.579000+00:00</time>
      </trkpt>
      <trkpt lat="0" lon="0">
        <time>2020-12-06T08:54:11.585000+00:00</time>
      </trkpt>
      <trkpt lat="0" lon="0">
        <time>2020-12-06T08:54:11.586000+00:00</time>
      </trkpt>
      <trkpt lat="0" lon="0">
        <time>2020-12-06T08:54:11.588000+00:00</time>
      </trkpt>
      <trkpt lat="47.33109" lon="-1.27417">
        <ele>61</ele>
        <time>2020-12-06T08:54:12.542000+00:00</time>
      </trkpt>
      <trkpt lat="0" lon="0">
        <time>2020-12-06T08:54:12.560000+00:00</time>
      </trkpt>
      <trkpt lat="0" lon="0">
        <time>2020-12-06T08:54:12.564000+00:00</time>
      </trkpt>
      <trkpt lat="0" lon="0">
        <time>2020-12-06T08:54:12.566000+00:00</time>
      </trkpt>
      <trkpt lat="47.33108" lon="-1.27418">
        <ele>61</ele>
        <time>2020-12-06T08:54:13.485000+00:00</time>
      </trkpt>
      <trkpt lat="0" lon="0">
        <time>2020-12-06T08:54:13.491000+00:00</time>
      </trkpt>
      <trkpt lat="0" lon="0">
        <time>2020-12-06T08:54:13.494000+00:00</time>
      </trkpt>
      <trkpt lat="0" lon="0">
        <time>2020-12-06T08:54:13.496000+00:00</time>
      </trkpt>
      <trkpt lat="47.33107" lon="-1.2742">
        <ele>61</ele>
        <time>2020-12-06T08:54:14.573000+00:00</time>
      </trkpt>
      <trkpt lat="0" lon="0">
        <time>2020-12-06T08:54:14.593000+00:00</time>
      </trkpt>
      <trkpt lat="0" lon="0">
        <time>2020-12-06T08:54:14.598000+00:00</time>
      </trkpt>
      <trkpt lat="0" lon="0">
        <time>2020-12-06T08:54:14.600000+00:00</time>
      </trkpt>
      <trkpt lat="47.33106" lon="-1.27421">
        <ele>61</ele>
        <time>2020-12-06T08:54:15.522000+00:00</time>
      </trkpt>
      <trkpt lat="0" lon="0">
        <time>2020-12-06T08:54:15.540000+00:00</time>
      </trkpt>
      <trkpt lat="0" lon="0">
        <time>2020-12-06T08:54:15.546000+00:00</time>
      </trkpt>
      <trkpt lat="0" lon="0">
        <time>2020-12-06T08:54:15.549000+00:00</time>
      </trkpt>
      <trkpt lat="47.33105" lon="-1.27422">
        <ele>61</ele>
        <time>2020-12-06T08:54:16.553000+00:00</time>
      </trkpt>
      <trkpt lat="0" lon="0">
        <time>2020-12-06T08:54:16.570000+00:00</time>
      </trkpt>
      <trkpt lat="0" lon="0">
        <time>2020-12-06T08:54:16.574000+00:00</time>
      </trkpt>
      <trkpt lat="0" lon="0">
        <time>2020-12-06T08:54:16.577000+00:00</time>
      </trkpt>
      <trkpt lat="47.33104" lon="-1.27422">
        <ele>62</ele>
        <time>2020-12-06T08:54:17.556000+00:00</time>
      </trkpt>
      <trkpt lat="0" lon="0">
        <time>2020-12-06T08:54:17.565000+00:00</time>
      </trkpt>
      <trkpt lat="0" lon="0">
        <time>2020-12-06T08:54:17.576000+00:00</time>
      </trkpt>
      <trkpt lat="0" lon="0">
        <time>2020-12-06T08:54:17.578000+00:00</time>
      </trkpt>
      <trkpt lat="47.33104" lon="-1.27422">
        <ele>62</ele>
        <time>2020-12-06T08:54:18.579000+00:00</time>
      </trkpt>
      <trkpt lat="0" lon="0">
        <time>2020-12-06T08:54:18.585000+00:00</time>
      </trkpt>
      <trkpt lat="0" lon="0">
        <time>2020-12-06T08:54:18.594000+00:00</time>
      </trkpt>
      <trkpt lat="0" lon="0">
        <time>2020-12-06T08:54:18.597000+00:00</time>
      </trkpt>
      <trkpt lat="47.33102" lon="-1.27423">
        <ele>62</ele>
        <time>2020-12-06T08:54:19.562000+00:00</time>
      </trkpt>
      <trkpt lat="0" lon="0">
        <time>2020-12-06T08:54:19.564000+00:00</time>
      </trkpt>
      <trkpt lat="0" lon="0">
        <time>2020-12-06T08:54:19.566000+00:00</time>
      </trkpt>
      <trkpt lat="47.33101" lon="-1.27424">
        <ele>62</ele>
        <time>2020-12-06T08:54:20.565000+00:00</time>
      </trkpt>
      <trkpt lat="0" lon="0">
        <time>2020-12-06T08:54:20.576000+00:00</time>
      </trkpt>
      <trkpt lat="0" lon="0">
        <time>2020-12-06T08:54:20.590000+00:00</time>
      </trkpt>
      <trkpt lat="0" lon="0">
        <time>2020-12-06T08:54:20.596000+00:00</time>
      </trkpt>
      <trkpt lat="47.331" lon="-1.27425">
        <ele>62</ele>
        <time>2020-12-06T08:54:21.508000+00:00</time>
      </trkpt>
      <trkpt lat="0" lon="0">
        <time>2020-12-06T08:54:21.511000+00:00</time>
      </trkpt>
      <trkpt lat="0" lon="0">
        <time>2020-12-06T08:54:21.516000+00:00</time>
      </trkpt>
      <trkpt lat="0" lon="0">
        <time>2020-12-06T08:54:21.517000+00:00</time>
      </trkpt>
      <trkpt lat="47.33099" lon="-1.27427">
        <ele>62</ele>
        <time>2020-12-06T08:54:22.553000+00:00</time>
      </trkpt>
      <trkpt lat="0" lon="0">
        <time>2020-12-06T08:54:22.557000+00:00</time>
      </trkpt>
      <trkpt lat="0" lon="0">
        <time>2020-12-06T08:54:22.565000+00:00</time>
      </trkpt>
      <trkpt lat="0" lon="0">
        <time>2020-12-06T08:54:22.568000+00:00</time>
      </trkpt>
      <trkpt lat="47.33097" lon="-1.27428">
        <ele>62</ele>
        <time>2020-12-06T08:54:23.465000+00:00</time>
      </trkpt>
      <trkpt lat="0" lon="0">
        <time>2020-12-06T08:54:23.477000+00:00</time>
      </trkpt>
      <trkpt lat="0" lon="0">
        <time>2020-12-06T08:54:23.487000+00:00</time>
      </trkpt>
      <trkpt lat="0" lon="0">
        <time>2020-12-06T08:54:23.489000+00:00</time>
      </trkpt>
      <trkpt lat="47.33096" lon="-1.2743">
        <ele>62</ele>
        <time>2020-12-06T08:54:24.577000+00:00</time>
      </trkpt>
      <trkpt lat="0" lon="0">
        <time>2020-12-06T08:54:24.584000+00:00</time>
      </trkpt>
      <trkpt lat="0" lon="0">
        <time>2020-12-06T08:54:24.589000+00:00</time>
      </trkpt>
      <trkpt lat="0" lon="0">
        <time>2020-12-06T08:54:24.592000+00:00</time>
      </trkpt>
      <trkpt lat="47.33095" lon="-1.27431">
        <ele>62</ele>
        <time>2020-12-06T08:54:25.553000+00:00</time>
      </trkpt>
      <trkpt lat="0" lon="0">
        <time>2020-12-06T08:54:25.565000+00:00</time>
      </trkpt>
      <trkpt lat="0" lon="0">
        <time>2020-12-06T08:54:25.574000+00:00</time>
      </trkpt>
      <trkpt lat="0" lon="0">
        <time>2020-12-06T08:54:25.576000+00:00</time>
      </trkpt>
      <trkpt lat="47.33093" lon="-1.27433">
        <ele>62</ele>
        <time>2020-12-06T08:54:26.538000+00:00</time>
      </trkpt>
      <trkpt lat="0" lon="0">
        <time>2020-12-06T08:54:26.554000+00:00</time>
      </trkpt>
      <trkpt lat="0" lon="0">
        <time>2020-12-06T08:54:26.559000+00:00</time>
      </trkpt>
      <trkpt lat="0" lon="0">
        <time>2020-12-06T08:54:26.561000+00:00</time>
      </trkpt>
      <trkpt lat="47.33092" lon="-1.27434">
        <ele>62</ele>
        <time>2020-12-06T08:54:27.505000+00:00</time>
      </trkpt>
      <trkpt lat="0" lon="0">
        <time>2020-12-06T08:54:27.515000+00:00</time>
      </trkpt>
      <trkpt lat="0" lon="0">
        <time>2020-12-06T08:54:27.519000+00:00</time>
      </trkpt>
      <trkpt lat="0" lon="0">
        <time>2020-12-06T08:54:27.521000+00:00</time>
      </trkpt>
      <trkpt lat="47.33091" lon="-1.27436">
        <ele>62</ele>
        <time>2020-12-06T08:54:28.558000+00:00</time>
      </trkpt>
      <trkpt lat="0" lon="0">
        <time>2020-12-06T08:54:28.564000+00:00</time>
      </trkpt>
      <trkpt lat="0" lon="0">
        <time>2020-12-06T08:54:28.580000+00:00</time>
      </trkpt>
      <trkpt lat="0" lon="0">
        <time>2020-12-06T08:54:28.582000+00:00</time>
      </trkpt>
      <trkpt lat="47.3309" lon="-1.27437">
        <ele>62</ele>
        <time>2020-12-06T08:54:29.555000+00:00</time>
      </trkpt>
      <trkpt lat="0" lon="0">
        <time>2020-12-06T08:54:29.558000+00:00</time>
      </trkpt>
      <trkpt lat="0" lon="0">
        <time>2020-12-06T08:54:29.571000+00:00</time>
      </trkpt>
      <trkpt lat="0" lon="0">
        <time>2020-12-06T08:54:29.575000+00:00</time>
      </trkpt>
      <trkpt lat="47.33089" lon="-1.27438">
        <ele>62</ele>
        <time>2020-12-06T08:54:30.529000+00:00</time>
      </trkpt>
      <trkpt lat="0" lon="0">
        <time>2020-12-06T08:54:30.532000+00:00</time>
      </trkpt>
      <trkpt lat="0" lon="0">
        <time>2020-12-06T08:54:30.540000+00:00</time>
      </trkpt>
      <trkpt lat="0" lon="0">
        <time>2020-12-06T08:54:30.542000+00:00</time>
      </trkpt>
      <trkpt lat="47.33088" lon="-1.27439">
        <ele>62</ele>
        <time>2020-12-06T08:54:31.568000+00:00</time>
      </trkpt>
      <trkpt lat="0" lon="0">
        <time>2020-12-06T08:54:31.570000+00:00</time>
      </trkpt>
      <trkpt lat="0" lon="0">
        <time>2020-12-06T08:54:31.572000+00:00</time>
      </trkpt>
      <trkpt lat="0" lon="0">
        <time>2020-12-06T08:54:31.573000+00:00</time>
      </trkpt>
      <trkpt lat="47.33087" lon="-1.2744">
        <ele>62</ele>
        <time>2020-12-06T08:54:32.587000+00:00</time>
      </trkpt>
      <trkpt lat="0" lon="0">
        <time>2020-12-06T08:54:32.600000+00:00</time>
      </trkpt>
      <trkpt lat="0" lon="0">
        <time>2020-12-06T08:54:32.606000+00:00</time>
      </trkpt>
      <trkpt lat="0" lon="0">
        <time>2020-12-06T08:54:32.612000+00:00</time>
      </trkpt>
      <trkpt lat="47.33086" lon="-1.27441">
        <ele>62</ele>
        <time>2020-12-06T08:54:33.575000+00:00</time>
      </trkpt>
      <trkpt lat="0" lon="0">
        <time>2020-12-06T08:54:33.577000+00:00</time>
      </trkpt>
      <trkpt lat="0" lon="0">
        <time>2020-12-06T08:54:33.579000+00:00</time>
      </trkpt>
      <trkpt lat="0" lon="0">
        <time>2020-12-06T08:54:33.580000+00:00</time>
      </trkpt>
      <trkpt lat="47.33085" lon="-1.27441">
        <ele>62</ele>
        <time>2020-12-06T08:54:34.588000+00:00</time>
      </trkpt>
      <trkpt lat="0" lon="0">
        <time>2020-12-06T08:54:34.600000+00:00</time>
      </trkpt>
      <trkpt lat="0" lon="0">
        <time>2020-12-06T08:54:34.603000+00:00</time>
      </trkpt>
      <trkpt lat="0" lon="0">
        <time>2020-12-06T08:54:34.607000+00:00</time>
      </trkpt>
      <trkpt lat="47.33084" lon="-1.27442">
        <ele>62</ele>
        <time>2020-12-06T08:54:35.544000+00:00</time>
      </trkpt>
      <trkpt lat="0" lon="0">
        <time>2020-12-06T08:54:35.559000+00:00</time>
      </trkpt>
      <trkpt lat="0" lon="0">
        <time>2020-12-06T08:54:35.563000+00:00</time>
      </trkpt>
      <trkpt lat="0" lon="0">
        <time>2020-12-06T08:54:35.565000+00:00</time>
      </trkpt>
      <trkpt lat="47.33083" lon="-1.27443">
        <ele>63</ele>
        <time>2020-12-06T08:54:36.560000+00:00</time>
      </trkpt>
      <trkpt lat="0" lon="0">
        <time>2020-12-06T08:54:36.584000+00:00</time>
      </trkpt>
      <trkpt lat="0" lon="0">
        <time>2020-12-06T08:54:36.589000+00:00</time>
      </trkpt>
      <trkpt lat="0" lon="0">
        <time>2020-12-06T08:54:36.591000+00:00</time>
      </trkpt>
      <trkpt lat="47.33081" lon="-1.27444">
        <ele>63</ele>
        <time>2020-12-06T08:54:37.569000+00:00</time>
      </trkpt>
      <trkpt lat="0" lon="0">
        <time>2020-12-06T08:54:37.576000+00:00</time>
      </trkpt>
      <trkpt lat="0" lon="0">
        <time>2020-12-06T08:54:37.582000+00:00</time>
      </trkpt>
      <trkpt lat="0" lon="0">
        <time>2020-12-06T08:54:37.584000+00:00</time>
      </trkpt>
      <trkpt lat="47.3308" lon="-1.27445">
        <ele>63</ele>
        <time>2020-12-06T08:54:38.607000+00:00</time>
      </trkpt>
      <trkpt lat="0" lon="0">
        <time>2020-12-06T08:54:38.619000+00:00</time>
      </trkpt>
      <trkpt lat="0" lon="0">
        <time>2020-12-06T08:54:38.628000+00:00</time>
      </trkpt>
      <trkpt lat="0" lon="0">
        <time>2020-12-06T08:54:38.630000+00:00</time>
      </trkpt>
      <trkpt lat="47.33079" lon="-1.27446">
        <ele>63</ele>
        <time>2020-12-06T08:54:39.537000+00:00</time>
      </trkpt>
      <trkpt lat="0" lon="0">
        <time>2020-12-06T08:54:39.540000+00:00</time>
      </trkpt>
      <trkpt lat="0" lon="0">
        <time>2020-12-06T08:54:39.542000+00:00</time>
      </trkpt>
      <trkpt lat="0" lon="0">
        <time>2020-12-06T08:54:39.546000+00:00</time>
      </trkpt>
      <trkpt lat="47.33078" lon="-1.27447">
        <ele>63</ele>
        <time>2020-12-06T08:54:40.573000+00:00</time>
      </trkpt>
      <trkpt lat="0" lon="0">
        <time>2020-12-06T08:54:40.579000+00:00</time>
      </trkpt>
      <trkpt lat="0" lon="0">
        <time>2020-12-06T08:54:40.586000+00:00</time>
      </trkpt>
      <trkpt lat="0" lon="0">
        <time>2020-12-06T08:54:40.592000+00:00</time>
      </trkpt>
      <trkpt lat="47.33077" lon="-1.27448">
        <ele>63</ele>
        <time>2020-12-06T08:54:41.533000+00:00</time>
      </trkpt>
      <trkpt lat="0" lon="0">
        <time>2020-12-06T08:54:41.556000+00:00</time>
      </trkpt>
      <trkpt lat="0" lon="0">
        <time>2020-12-06T08:54:41.560000+00:00</time>
      </trkpt>
      <trkpt lat="0" lon="0">
        <time>2020-12-06T08:54:41.562000+00:00</time>
      </trkpt>
      <trkpt lat="47.33076" lon="-1.27449">
        <ele>63</ele>
        <time>2020-12-06T08:54:42.573000+00:00</time>
      </trkpt>
      <trkpt lat="0" lon="0">
        <time>2020-12-06T08:54:42.582000+00:00</time>
      </trkpt>
      <trkpt lat="0" lon="0">
        <time>2020-12-06T08:54:42.596000+00:00</time>
      </trkpt>
      <trkpt lat="0" lon="0">
        <time>2020-12-06T08:54:42.597000+00:00</time>
      </trkpt>
      <trkpt lat="47.33075" lon="-1.2745">
        <ele>63</ele>
        <time>2020-12-06T08:54:43.574000+00:00</time>
      </trkpt>
      <trkpt lat="0" lon="0">
        <time>2020-12-06T08:54:43.584000+00:00</time>
      </trkpt>
      <trkpt lat="0" lon="0">
        <time>2020-12-06T08:54:43.586000+00:00</time>
      </trkpt>
      <trkpt lat="0" lon="0">
        <time>2020-12-06T08:54:43.592000+00:00</time>
      </trkpt>
      <trkpt lat="47.33075" lon="-1.27451">
        <ele>63</ele>
        <time>2020-12-06T08:54:44.582000+00:00</time>
      </trkpt>
      <trkpt lat="0" lon="0">
        <time>2020-12-06T08:54:44.588000+00:00</time>
      </trkpt>
      <trkpt lat="0" lon="0">
        <time>2020-12-06T08:54:44.591000+00:00</time>
      </trkpt>
      <trkpt lat="0" lon="0">
        <time>2020-12-06T08:54:44.592000+00:00</time>
      </trkpt>
      <trkpt lat="47.33074" lon="-1.27452">
        <ele>63</ele>
        <time>2020-12-06T08:54:45.492000+00:00</time>
      </trkpt>
      <trkpt lat="0" lon="0">
        <time>2020-12-06T08:54:45.499000+00:00</time>
      </trkpt>
      <trkpt lat="0" lon="0">
        <time>2020-12-06T08:54:45.503000+00:00</time>
      </trkpt>
      <trkpt lat="0" lon="0">
        <time>2020-12-06T08:54:45.506000+00:00</time>
      </trkpt>
      <trkpt lat="47.33073" lon="-1.27454">
        <ele>63</ele>
        <time>2020-12-06T08:54:46.597000+00:00</time>
      </trkpt>
      <trkpt lat="0" lon="0">
        <time>2020-12-06T08:54:46.602000+00:00</time>
      </trkpt>
      <trkpt lat="0" lon="0">
        <time>2020-12-06T08:54:46.613000+00:00</time>
      </trkpt>
      <trkpt lat="0" lon="0">
        <time>2020-12-06T08:54:46.616000+00:00</time>
      </trkpt>
      <trkpt lat="47.33072" lon="-1.27455">
        <ele>63</ele>
        <time>2020-12-06T08:54:47.514000+00:00</time>
      </trkpt>
      <trkpt lat="0" lon="0">
        <time>2020-12-06T08:54:47.516000+00:00</time>
      </trkpt>
      <trkpt lat="0" lon="0">
        <time>2020-12-06T08:54:47.517000+00:00</time>
      </trkpt>
      <trkpt lat="0" lon="0">
        <time>2020-12-06T08:54:47.518000+00:00</time>
      </trkpt>
      <trkpt lat="47.33071" lon="-1.27457">
        <ele>63</ele>
        <time>2020-12-06T08:54:48.546000+00:00</time>
      </trkpt>
      <trkpt lat="0" lon="0">
        <time>2020-12-06T08:54:48.551000+00:00</time>
      </trkpt>
      <trkpt lat="0" lon="0">
        <time>2020-12-06T08:54:48.561000+00:00</time>
      </trkpt>
      <trkpt lat="0" lon="0">
        <time>2020-12-06T08:54:48.563000+00:00</time>
      </trkpt>
      <trkpt lat="47.3307" lon="-1.27458">
        <ele>63</ele>
        <time>2020-12-06T08:54:49.601000+00:00</time>
      </trkpt>
      <trkpt lat="0" lon="0">
        <time>2020-12-06T08:54:49.604000+00:00</time>
      </trkpt>
      <trkpt lat="0" lon="0">
        <time>2020-12-06T08:54:49.607000+00:00</time>
      </trkpt>
      <trkpt lat="0" lon="0">
        <time>2020-12-06T08:54:49.614000+00:00</time>
      </trkpt>
      <trkpt lat="47.33069" lon="-1.2746">
        <ele>63</ele>
        <time>2020-12-06T08:54:50.552000+00:00</time>
      </trkpt>
      <trkpt lat="0" lon="0">
        <time>2020-12-06T08:54:50.564000+00:00</time>
      </trkpt>
      <trkpt lat="0" lon="0">
        <time>2020-12-06T08:54:50.568000+00:00</time>
      </trkpt>
      <trkpt lat="0" lon="0">
        <time>2020-12-06T08:54:50.569000+00:00</time>
      </trkpt>
      <trkpt lat="47.33068" lon="-1.27461">
        <ele>63</ele>
        <time>2020-12-06T08:54:51.563000+00:00</time>
      </trkpt>
      <trkpt lat="0" lon="0">
        <time>2020-12-06T08:54:51.572000+00:00</time>
      </trkpt>
      <trkpt lat="0" lon="0">
        <time>2020-12-06T08:54:51.582000+00:00</time>
      </trkpt>
      <trkpt lat="0" lon="0">
        <time>2020-12-06T08:54:51.585000+00:00</time>
      </trkpt>
      <trkpt lat="47.33067" lon="-1.27464">
        <ele>63</ele>
        <time>2020-12-06T08:54:52.560000+00:00</time>
      </trkpt>
      <trkpt lat="0" lon="0">
        <time>2020-12-06T08:54:52.567000+00:00</time>
      </trkpt>
      <trkpt lat="0" lon="0">
        <time>2020-12-06T08:54:52.571000+00:00</time>
      </trkpt>
      <trkpt lat="0" lon="0">
        <time>2020-12-06T08:54:52.573000+00:00</time>
      </trkpt>
      <trkpt lat="47.33066" lon="-1.27466">
        <ele>64</ele>
        <time>2020-12-06T08:54:53.587000+00:00</time>
      </trkpt>
      <trkpt lat="0" lon="0">
        <time>2020-12-06T08:54:53.605000+00:00</time>
      </trkpt>
      <trkpt lat="0" lon="0">
        <time>2020-12-06T08:54:53.608000+00:00</time>
      </trkpt>
      <trkpt lat="0" lon="0">
        <time>2020-12-06T08:54:53.610000+00:00</time>
      </trkpt>
      <trkpt lat="47.33065" lon="-1.27468">
        <ele>64</ele>
        <time>2020-12-06T08:54:54.571000+00:00</time>
      </trkpt>
      <trkpt lat="0" lon="0">
        <time>2020-12-06T08:54:54.588000+00:00</time>
      </trkpt>
      <trkpt lat="0" lon="0">
        <time>2020-12-06T08:54:54.591000+00:00</time>
      </trkpt>
      <trkpt lat="0" lon="0">
        <time>2020-12-06T08:54:54.593000+00:00</time>
      </trkpt>
      <trkpt lat="47.33064" lon="-1.27471">
        <ele>64</ele>
        <time>2020-12-06T08:54:55.545000+00:00</time>
      </trkpt>
      <trkpt lat="0" lon="0">
        <time>2020-12-06T08:54:55.552000+00:00</time>
      </trkpt>
      <trkpt lat="0" lon="0">
        <time>2020-12-06T08:54:55.557000+00:00</time>
      </trkpt>
      <trkpt lat="0" lon="0">
        <time>2020-12-06T08:54:55.565000+00:00</time>
      </trkpt>
      <trkpt lat="47.33062" lon="-1.27473">
        <ele>64</ele>
        <time>2020-12-06T08:54:56.596000+00:00</time>
      </trkpt>
      <trkpt lat="0" lon="0">
        <time>2020-12-06T08:54:56.602000+00:00</time>
      </trkpt>
      <trkpt lat="0" lon="0">
        <time>2020-12-06T08:54:56.608000+00:00</time>
      </trkpt>
      <trkpt lat="0" lon="0">
        <time>2020-12-06T08:54:56.610000+00:00</time>
      </trkpt>
      <trkpt lat="47.33061" lon="-1.27476">
        <ele>64</ele>
        <time>2020-12-06T08:54:57.475000+00:00</time>
      </trkpt>
      <trkpt lat="0" lon="0">
        <time>2020-12-06T08:54:57.476000+00:00</time>
      </trkpt>
      <trkpt lat="0" lon="0">
        <time>2020-12-06T08:54:57.478000+00:00</time>
      </trkpt>
      <trkpt lat="0" lon="0">
        <time>2020-12-06T08:54:57.479000+00:00</time>
      </trkpt>
      <trkpt lat="47.33059" lon="-1.27478">
        <ele>64</ele>
        <time>2020-12-06T08:54:58.470000+00:00</time>
      </trkpt>
      <trkpt lat="0" lon="0">
        <time>2020-12-06T08:54:58.472000+00:00</time>
      </trkpt>
      <trkpt lat="0" lon="0">
        <time>2020-12-06T08:54:58.474000+00:00</time>
      </trkpt>
      <trkpt lat="47.33057" lon="-1.27481">
        <ele>64</ele>
        <time>2020-12-06T08:54:59.500000+00:00</time>
      </trkpt>
      <trkpt lat="0" lon="0">
        <time>2020-12-06T08:54:59.520000+00:00</time>
      </trkpt>
      <trkpt lat="0" lon="0">
        <time>2020-12-06T08:54:59.525000+00:00</time>
      </trkpt>
      <trkpt lat="0" lon="0">
        <time>2020-12-06T08:54:59.526000+00:00</time>
      </trkpt>
      <trkpt lat="47.33056" lon="-1.27483">
        <ele>64</ele>
        <time>2020-12-06T08:55:00.535000+00:00</time>
      </trkpt>
      <trkpt lat="0" lon="0">
        <time>2020-12-06T08:55:00.545000+00:00</time>
      </trkpt>
      <trkpt lat="0" lon="0">
        <time>2020-12-06T08:55:00.549000+00:00</time>
      </trkpt>
      <trkpt lat="0" lon="0">
        <time>2020-12-06T08:55:00.551000+00:00</time>
      </trkpt>
      <trkpt lat="47.33054" lon="-1.27486">
        <ele>64</ele>
        <time>2020-12-06T08:55:01.555000+00:00</time>
      </trkpt>
      <trkpt lat="0" lon="0">
        <time>2020-12-06T08:55:01.561000+00:00</time>
      </trkpt>
      <trkpt lat="0" lon="0">
        <time>2020-12-06T08:55:01.570000+00:00</time>
      </trkpt>
      <trkpt lat="0" lon="0">
        <time>2020-12-06T08:55:01.573000+00:00</time>
      </trkpt>
      <trkpt lat="47.33053" lon="-1.27488">
        <ele>64</ele>
        <time>2020-12-06T08:55:02.534000+00:00</time>
      </trkpt>
      <trkpt lat="0" lon="0">
        <time>2020-12-06T08:55:02.556000+00:00</time>
      </trkpt>
      <trkpt lat="0" lon="0">
        <time>2020-12-06T08:55:02.563000+00:00</time>
      </trkpt>
      <trkpt lat="0" lon="0">
        <time>2020-12-06T08:55:02.565000+00:00</time>
      </trkpt>
      <trkpt lat="47.33051" lon="-1.27491">
        <ele>64</ele>
        <time>2020-12-06T08:55:03.569000+00:00</time>
      </trkpt>
      <trkpt lat="0" lon="0">
        <time>2020-12-06T08:55:03.572000+00:00</time>
      </trkpt>
      <trkpt lat="0" lon="0">
        <time>2020-12-06T08:55:03.579000+00:00</time>
      </trkpt>
      <trkpt lat="0" lon="0">
        <time>2020-12-06T08:55:03.581000+00:00</time>
      </trkpt>
      <trkpt lat="47.3305" lon="-1.27493">
        <ele>65</ele>
        <time>2020-12-06T08:55:04.567000+00:00</time>
      </trkpt>
      <trkpt lat="0" lon="0">
        <time>2020-12-06T08:55:04.572000+00:00</time>
      </trkpt>
      <trkpt lat="0" lon="0">
        <time>2020-12-06T08:55:04.579000+00:00</time>
      </trkpt>
      <trkpt lat="0" lon="0">
        <time>2020-12-06T08:55:04.582000+00:00</time>
      </trkpt>
      <trkpt lat="47.33049" lon="-1.27495">
        <ele>65</ele>
        <time>2020-12-06T08:55:05.551000+00:00</time>
      </trkpt>
      <trkpt lat="0" lon="0">
        <time>2020-12-06T08:55:05.564000+00:00</time>
      </trkpt>
      <trkpt lat="0" lon="0">
        <time>2020-12-06T08:55:05.574000+00:00</time>
      </trkpt>
      <trkpt lat="0" lon="0">
        <time>2020-12-06T08:55:05.576000+00:00</time>
      </trkpt>
      <trkpt lat="47.33047" lon="-1.27497">
        <ele>65</ele>
        <time>2020-12-06T08:55:06.550000+00:00</time>
      </trkpt>
      <trkpt lat="0" lon="0">
        <time>2020-12-06T08:55:06.569000+00:00</time>
      </trkpt>
      <trkpt lat="0" lon="0">
        <time>2020-12-06T08:55:06.576000+00:00</time>
      </trkpt>
      <trkpt lat="0" lon="0">
        <time>2020-12-06T08:55:06.577000+00:00</time>
      </trkpt>
      <trkpt lat="47.33046" lon="-1.27499">
        <ele>65</ele>
        <time>2020-12-06T08:55:07.587000+00:00</time>
      </trkpt>
      <trkpt lat="0" lon="0">
        <time>2020-12-06T08:55:07.596000+00:00</time>
      </trkpt>
      <trkpt lat="0" lon="0">
        <time>2020-12-06T08:55:07.608000+00:00</time>
      </trkpt>
      <trkpt lat="0" lon="0">
        <time>2020-12-06T08:55:07.614000+00:00</time>
      </trkpt>
      <trkpt lat="47.33045" lon="-1.275">
        <ele>65</ele>
        <time>2020-12-06T08:55:08.572000+00:00</time>
      </trkpt>
      <trkpt lat="0" lon="0">
        <time>2020-12-06T08:55:08.585000+00:00</time>
      </trkpt>
      <trkpt lat="0" lon="0">
        <time>2020-12-06T08:55:08.588000+00:00</time>
      </trkpt>
      <trkpt lat="0" lon="0">
        <time>2020-12-06T08:55:08.590000+00:00</time>
      </trkpt>
      <trkpt lat="47.33044" lon="-1.27502">
        <ele>65</ele>
        <time>2020-12-06T08:55:09.576000+00:00</time>
      </trkpt>
      <trkpt lat="0" lon="0">
        <time>2020-12-06T08:55:09.588000+00:00</time>
      </trkpt>
      <trkpt lat="0" lon="0">
        <time>2020-12-06T08:55:09.594000+00:00</time>
      </trkpt>
      <trkpt lat="0" lon="0">
        <time>2020-12-06T08:55:09.596000+00:00</time>
      </trkpt>
      <trkpt lat="47.33043" lon="-1.27503">
        <ele>65</ele>
        <time>2020-12-06T08:55:10.572000+00:00</time>
      </trkpt>
      <trkpt lat="0" lon="0">
        <time>2020-12-06T08:55:10.583000+00:00</time>
      </trkpt>
      <trkpt lat="0" lon="0">
        <time>2020-12-06T08:55:10.589000+00:00</time>
      </trkpt>
      <trkpt lat="0" lon="0">
        <time>2020-12-06T08:55:10.591000+00:00</time>
      </trkpt>
      <trkpt lat="47.33042" lon="-1.27504">
        <ele>65</ele>
        <time>2020-12-06T08:55:11.479000+00:00</time>
      </trkpt>
      <trkpt lat="0" lon="0">
        <time>2020-12-06T08:55:11.483000+00:00</time>
      </trkpt>
      <trkpt lat="0" lon="0">
        <time>2020-12-06T08:55:11.497000+00:00</time>
      </trkpt>
      <trkpt lat="0" lon="0">
        <time>2020-12-06T08:55:11.501000+00:00</time>
      </trkpt>
      <trkpt lat="47.33041" lon="-1.27504">
        <ele>65</ele>
        <time>2020-12-06T08:55:12.517000+00:00</time>
      </trkpt>
      <trkpt lat="0" lon="0">
        <time>2020-12-06T08:55:12.531000+00:00</time>
      </trkpt>
      <trkpt lat="0" lon="0">
        <time>2020-12-06T08:55:12.537000+00:00</time>
      </trkpt>
      <trkpt lat="0" lon="0">
        <time>2020-12-06T08:55:12.539000+00:00</time>
      </trkpt>
      <trkpt lat="47.3304" lon="-1.27505">
        <ele>65</ele>
        <time>2020-12-06T08:55:13.526000+00:00</time>
      </trkpt>
      <trkpt lat="0" lon="0">
        <time>2020-12-06T08:55:13.529000+00:00</time>
      </trkpt>
      <trkpt lat="0" lon="0">
        <time>2020-12-06T08:55:13.539000+00:00</time>
      </trkpt>
      <trkpt lat="0" lon="0">
        <time>2020-12-06T08:55:13.541000+00:00</time>
      </trkpt>
      <trkpt lat="47.33039" lon="-1.27505">
        <ele>65</ele>
        <time>2020-12-06T08:55:14.566000+00:00</time>
      </trkpt>
      <trkpt lat="0" lon="0">
        <time>2020-12-06T08:55:14.570000+00:00</time>
      </trkpt>
      <trkpt lat="0" lon="0">
        <time>2020-12-06T08:55:14.575000+00:00</time>
      </trkpt>
      <trkpt lat="0" lon="0">
        <time>2020-12-06T08:55:14.578000+00:00</time>
      </trkpt>
      <trkpt lat="47.33038" lon="-1.27505">
        <ele>65</ele>
        <time>2020-12-06T08:55:15.548000+00:00</time>
      </trkpt>
      <trkpt lat="0" lon="0">
        <time>2020-12-06T08:55:15.556000+00:00</time>
      </trkpt>
      <trkpt lat="0" lon="0">
        <time>2020-12-06T08:55:15.561000+00:00</time>
      </trkpt>
      <trkpt lat="0" lon="0">
        <time>2020-12-06T08:55:15.570000+00:00</time>
      </trkpt>
      <trkpt lat="47.33036" lon="-1.27504">
        <ele>65</ele>
        <time>2020-12-06T08:55:16.543000+00:00</time>
      </trkpt>
      <trkpt lat="0" lon="0">
        <time>2020-12-06T08:55:16.546000+00:00</time>
      </trkpt>
      <trkpt lat="0" lon="0">
        <time>2020-12-06T08:55:16.560000+00:00</time>
      </trkpt>
      <trkpt lat="0" lon="0">
        <time>2020-12-06T08:55:16.562000+00:00</time>
      </trkpt>
      <trkpt lat="47.33035" lon="-1.27504">
        <ele>65</ele>
        <time>2020-12-06T08:55:17.542000+00:00</time>
      </trkpt>
      <trkpt lat="0" lon="0">
        <time>2020-12-06T08:55:17.557000+00:00</time>
      </trkpt>
      <trkpt lat="0" lon="0">
        <time>2020-12-06T08:55:17.564000+00:00</time>
      </trkpt>
      <trkpt lat="0" lon="0">
        <time>2020-12-06T08:55:17.572000+00:00</time>
      </trkpt>
      <trkpt lat="47.33034" lon="-1.27504">
        <ele>66</ele>
        <time>2020-12-06T08:55:18.539000+00:00</time>
      </trkpt>
      <trkpt lat="0" lon="0">
        <time>2020-12-06T08:55:18.550000+00:00</time>
      </trkpt>
      <trkpt lat="0" lon="0">
        <time>2020-12-06T08:55:18.555000+00:00</time>
      </trkpt>
      <trkpt lat="0" lon="0">
        <time>2020-12-06T08:55:18.560000+00:00</time>
      </trkpt>
      <trkpt lat="47.33032" lon="-1.27503">
        <ele>66</ele>
        <time>2020-12-06T08:55:19.526000+00:00</time>
      </trkpt>
      <trkpt lat="0" lon="0">
        <time>2020-12-06T08:55:19.535000+00:00</time>
      </trkpt>
      <trkpt lat="0" lon="0">
        <time>2020-12-06T08:55:19.541000+00:00</time>
      </trkpt>
      <trkpt lat="0" lon="0">
        <time>2020-12-06T08:55:19.545000+00:00</time>
      </trkpt>
      <trkpt lat="47.33031" lon="-1.27503">
        <ele>66</ele>
        <time>2020-12-06T08:55:20.559000+00:00</time>
      </trkpt>
      <trkpt lat="0" lon="0">
        <time>2020-12-06T08:55:20.572000+00:00</time>
      </trkpt>
      <trkpt lat="0" lon="0">
        <time>2020-12-06T08:55:20.582000+00:00</time>
      </trkpt>
      <trkpt lat="0" lon="0">
        <time>2020-12-06T08:55:20.586000+00:00</time>
      </trkpt>
      <trkpt lat="47.33029" lon="-1.27503">
        <ele>66</ele>
        <time>2020-12-06T08:55:21.567000+00:00</time>
      </trkpt>
      <trkpt lat="0" lon="0">
        <time>2020-12-06T08:55:21.578000+00:00</time>
      </trkpt>
      <trkpt lat="0" lon="0">
        <time>2020-12-06T08:55:21.582000+00:00</time>
      </trkpt>
      <trkpt lat="0" lon="0">
        <time>2020-12-06T08:55:21.584000+00:00</time>
      </trkpt>
      <trkpt lat="47.33028" lon="-1.27503">
        <ele>66</ele>
        <time>2020-12-06T08:55:22.591000+00:00</time>
      </trkpt>
      <trkpt lat="0" lon="0">
        <time>2020-12-06T08:55:22.600000+00:00</time>
      </trkpt>
      <trkpt lat="0" lon="0">
        <time>2020-12-06T08:55:22.611000+00:00</time>
      </trkpt>
      <trkpt lat="0" lon="0">
        <time>2020-12-06T08:55:22.613000+00:00</time>
      </trkpt>
      <trkpt lat="47.33026" lon="-1.27503">
        <ele>66</ele>
        <time>2020-12-06T08:55:23.551000+00:00</time>
      </trkpt>
      <trkpt lat="0" lon="0">
        <time>2020-12-06T08:55:23.555000+00:00</time>
      </trkpt>
      <trkpt lat="0" lon="0">
        <time>2020-12-06T08:55:23.556000+00:00</time>
      </trkpt>
      <trkpt lat="0" lon="0">
        <time>2020-12-06T08:55:23.557000+00:00</time>
      </trkpt>
      <trkpt lat="47.33024" lon="-1.27503">
        <ele>66</ele>
        <time>2020-12-06T08:55:24.527000+00:00</time>
      </trkpt>
      <trkpt lat="0" lon="0">
        <time>2020-12-06T08:55:24.543000+00:00</time>
      </trkpt>
      <trkpt lat="0" lon="0">
        <time>2020-12-06T08:55:24.553000+00:00</time>
      </trkpt>
      <trkpt lat="0" lon="0">
        <time>2020-12-06T08:55:24.556000+00:00</time>
      </trkpt>
      <trkpt lat="47.33022" lon="-1.27503">
        <ele>66</ele>
        <time>2020-12-06T08:55:25.534000+00:00</time>
      </trkpt>
      <trkpt lat="0" lon="0">
        <time>2020-12-06T08:55:25.549000+00:00</time>
      </trkpt>
      <trkpt lat="0" lon="0">
        <time>2020-12-06T08:55:25.555000+00:00</time>
      </trkpt>
      <trkpt lat="0" lon="0">
        <time>2020-12-06T08:55:25.557000+00:00</time>
      </trkpt>
      <trkpt lat="47.33021" lon="-1.27503">
        <ele>66</ele>
        <time>2020-12-06T08:55:26.551000+00:00</time>
      </trkpt>
      <trkpt lat="0" lon="0">
        <time>2020-12-06T08:55:26.559000+00:00</time>
      </trkpt>
      <trkpt lat="0" lon="0">
        <time>2020-12-06T08:55:26.565000+00:00</time>
      </trkpt>
      <trkpt lat="0" lon="0">
        <time>2020-12-06T08:55:26.567000+00:00</time>
      </trkpt>
      <trkpt lat="47.33019" lon="-1.27503">
        <ele>66</ele>
        <time>2020-12-06T08:55:27.557000+00:00</time>
      </trkpt>
      <trkpt lat="0" lon="0">
        <time>2020-12-06T08:55:27.570000+00:00</time>
      </trkpt>
      <trkpt lat="0" lon="0">
        <time>2020-12-06T08:55:27.576000+00:00</time>
      </trkpt>
      <trkpt lat="0" lon="0">
        <time>2020-12-06T08:55:27.578000+00:00</time>
      </trkpt>
      <trkpt lat="47.33017" lon="-1.27503">
        <ele>67</ele>
        <time>2020-12-06T08:55:28.570000+00:00</time>
      </trkpt>
      <trkpt lat="0" lon="0">
        <time>2020-12-06T08:55:28.578000+00:00</time>
      </trkpt>
      <trkpt lat="0" lon="0">
        <time>2020-12-06T08:55:28.588000+00:00</time>
      </trkpt>
      <trkpt lat="0" lon="0">
        <time>2020-12-06T08:55:28.590000+00:00</time>
      </trkpt>
      <trkpt lat="47.33015" lon="-1.27503">
        <ele>67</ele>
        <time>2020-12-06T08:55:29.576000+00:00</time>
      </trkpt>
      <trkpt lat="0" lon="0">
        <time>2020-12-06T08:55:29.581000+00:00</time>
      </trkpt>
      <trkpt lat="0" lon="0">
        <time>2020-12-06T08:55:29.585000+00:00</time>
      </trkpt>
      <trkpt lat="0" lon="0">
        <time>2020-12-06T08:55:29.587000+00:00</time>
      </trkpt>
      <trkpt lat="47.33012" lon="-1.27503">
        <ele>67</ele>
        <time>2020-12-06T08:55:30.508000+00:00</time>
      </trkpt>
      <trkpt lat="0" lon="0">
        <time>2020-12-06T08:55:30.512000+00:00</time>
      </trkpt>
      <trkpt lat="0" lon="0">
        <time>2020-12-06T08:55:30.518000+00:00</time>
      </trkpt>
      <trkpt lat="0" lon="0">
        <time>2020-12-06T08:55:30.526000+00:00</time>
      </trkpt>
      <trkpt lat="47.3301" lon="-1.27503">
        <ele>67</ele>
        <time>2020-12-06T08:55:31.558000+00:00</time>
      </trkpt>
      <trkpt lat="0" lon="0">
        <time>2020-12-06T08:55:31.563000+00:00</time>
      </trkpt>
      <trkpt lat="0" lon="0">
        <time>2020-12-06T08:55:31.570000+00:00</time>
      </trkpt>
      <trkpt lat="0" lon="0">
        <time>2020-12-06T08:55:31.573000+00:00</time>
      </trkpt>
      <trkpt lat="47.33008" lon="-1.27504">
        <ele>67</ele>
        <time>2020-12-06T08:55:32.532000+00:00</time>
      </trkpt>
      <trkpt lat="0" lon="0">
        <time>2020-12-06T08:55:32.537000+00:00</time>
      </trkpt>
      <trkpt lat="0" lon="0">
        <time>2020-12-06T08:55:32.549000+00:00</time>
      </trkpt>
      <trkpt lat="0" lon="0">
        <time>2020-12-06T08:55:32.551000+00:00</time>
      </trkpt>
      <trkpt lat="47.33006" lon="-1.27504">
        <ele>67</ele>
        <time>2020-12-06T08:55:33.542000+00:00</time>
      </trkpt>
      <trkpt lat="0" lon="0">
        <time>2020-12-06T08:55:33.552000+00:00</time>
      </trkpt>
      <trkpt lat="0" lon="0">
        <time>2020-12-06T08:55:33.557000+00:00</time>
      </trkpt>
      <trkpt lat="0" lon="0">
        <time>2020-12-06T08:55:33.564000+00:00</time>
      </trkpt>
      <trkpt lat="47.33004" lon="-1.27505">
        <ele>67</ele>
        <time>2020-12-06T08:55:34.555000+00:00</time>
      </trkpt>
      <trkpt lat="0" lon="0">
        <time>2020-12-06T08:55:34.575000+00:00</time>
      </trkpt>
      <trkpt lat="0" lon="0">
        <time>2020-12-06T08:55:34.582000+00:00</time>
      </trkpt>
      <trkpt lat="0" lon="0">
        <time>2020-12-06T08:55:34.585000+00:00</time>
      </trkpt>
      <trkpt lat="47.33003" lon="-1.27505">
        <ele>67</ele>
        <time>2020-12-06T08:55:35.556000+00:00</time>
      </trkpt>
      <trkpt lat="0" lon="0">
        <time>2020-12-06T08:55:35.561000+00:00</time>
      </trkpt>
      <trkpt lat="0" lon="0">
        <time>2020-12-06T08:55:35.570000+00:00</time>
      </trkpt>
      <trkpt lat="0" lon="0">
        <time>2020-12-06T08:55:35.573000+00:00</time>
      </trkpt>
      <trkpt lat="47.33001" lon="-1.27505">
        <ele>68</ele>
        <time>2020-12-06T08:55:36.571000+00:00</time>
      </trkpt>
      <trkpt lat="0" lon="0">
        <time>2020-12-06T08:55:36.583000+00:00</time>
      </trkpt>
      <trkpt lat="0" lon="0">
        <time>2020-12-06T08:55:36.587000+00:00</time>
      </trkpt>
      <trkpt lat="0" lon="0">
        <time>2020-12-06T08:55:36.588000+00:00</time>
      </trkpt>
      <trkpt lat="47.33" lon="-1.27506">
        <ele>68</ele>
        <time>2020-12-06T08:55:37.581000+00:00</time>
      </trkpt>
      <trkpt lat="0" lon="0">
        <time>2020-12-06T08:55:37.595000+00:00</time>
      </trkpt>
      <trkpt lat="0" lon="0">
        <time>2020-12-06T08:55:37.600000+00:00</time>
      </trkpt>
      <trkpt lat="0" lon="0">
        <time>2020-12-06T08:55:37.602000+00:00</time>
      </trkpt>
      <trkpt lat="47.32999" lon="-1.27506">
        <ele>68</ele>
        <time>2020-12-06T08:55:38.575000+00:00</time>
      </trkpt>
      <trkpt lat="0" lon="0">
        <time>2020-12-06T08:55:38.585000+00:00</time>
      </trkpt>
      <trkpt lat="0" lon="0">
        <time>2020-12-06T08:55:38.594000+00:00</time>
      </trkpt>
      <trkpt lat="0" lon="0">
        <time>2020-12-06T08:55:38.597000+00:00</time>
      </trkpt>
      <trkpt lat="47.32998" lon="-1.27506">
        <ele>68</ele>
        <time>2020-12-06T08:55:39.575000+00:00</time>
      </trkpt>
      <trkpt lat="0" lon="0">
        <time>2020-12-06T08:55:39.580000+00:00</time>
      </trkpt>
      <trkpt lat="0" lon="0">
        <time>2020-12-06T08:55:39.596000+00:00</time>
      </trkpt>
      <trkpt lat="0" lon="0">
        <time>2020-12-06T08:55:39.598000+00:00</time>
      </trkpt>
      <trkpt lat="47.32997" lon="-1.27506">
        <ele>68</ele>
        <time>2020-12-06T08:55:40.560000+00:00</time>
      </trkpt>
      <trkpt lat="0" lon="0">
        <time>2020-12-06T08:55:40.567000+00:00</time>
      </trkpt>
      <trkpt lat="0" lon="0">
        <time>2020-12-06T08:55:40.570000+00:00</time>
      </trkpt>
      <trkpt lat="0" lon="0">
        <time>2020-12-06T08:55:40.572000+00:00</time>
      </trkpt>
      <trkpt lat="47.32996" lon="-1.27506">
        <ele>68</ele>
        <time>2020-12-06T08:55:41.540000+00:00</time>
      </trkpt>
      <trkpt lat="0" lon="0">
        <time>2020-12-06T08:55:41.545000+00:00</time>
      </trkpt>
      <trkpt lat="0" lon="0">
        <time>2020-12-06T08:55:41.552000+00:00</time>
      </trkpt>
      <trkpt lat="0" lon="0">
        <time>2020-12-06T08:55:41.553000+00:00</time>
      </trkpt>
      <trkpt lat="47.32994" lon="-1.27505">
        <ele>68</ele>
        <time>2020-12-06T08:55:42.507000+00:00</time>
      </trkpt>
      <trkpt lat="0" lon="0">
        <time>2020-12-06T08:55:42.511000+00:00</time>
      </trkpt>
      <trkpt lat="0" lon="0">
        <time>2020-12-06T08:55:42.524000+00:00</time>
      </trkpt>
      <trkpt lat="0" lon="0">
        <time>2020-12-06T08:55:42.527000+00:00</time>
      </trkpt>
      <trkpt lat="47.32993" lon="-1.27504">
        <ele>68</ele>
        <time>2020-12-06T08:55:43.544000+00:00</time>
      </trkpt>
      <trkpt lat="0" lon="0">
        <time>2020-12-06T08:55:43.556000+00:00</time>
      </trkpt>
      <trkpt lat="0" lon="0">
        <time>2020-12-06T08:55:43.560000+00:00</time>
      </trkpt>
      <trkpt lat="0" lon="0">
        <time>2020-12-06T08:55:43.562000+00:00</time>
      </trkpt>
      <trkpt lat="47.32992" lon="-1.27502">
        <ele>68</ele>
        <time>2020-12-06T08:55:44.520000+00:00</time>
      </trkpt>
      <trkpt lat="0" lon="0">
        <time>2020-12-06T08:55:44.524000+00:00</time>
      </trkpt>
      <trkpt lat="0" lon="0">
        <time>2020-12-06T08:55:44.530000+00:00</time>
      </trkpt>
      <trkpt lat="0" lon="0">
        <time>2020-12-06T08:55:44.532000+00:00</time>
      </trkpt>
      <trkpt lat="47.32992" lon="-1.275">
        <ele>68</ele>
        <time>2020-12-06T08:55:45.544000+00:00</time>
      </trkpt>
      <trkpt lat="0" lon="0">
        <time>2020-12-06T08:55:45.547000+00:00</time>
      </trkpt>
      <trkpt lat="0" lon="0">
        <time>2020-12-06T08:55:45.551000+00:00</time>
      </trkpt>
      <trkpt lat="0" lon="0">
        <time>2020-12-06T08:55:45.553000+00:00</time>
      </trkpt>
      <trkpt lat="47.32991" lon="-1.27496">
        <ele>68</ele>
        <time>2020-12-06T08:55:46.556000+00:00</time>
      </trkpt>
      <trkpt lat="0" lon="0">
        <time>2020-12-06T08:55:46.566000+00:00</time>
      </trkpt>
      <trkpt lat="0" lon="0">
        <time>2020-12-06T08:55:46.570000+00:00</time>
      </trkpt>
      <trkpt lat="0" lon="0">
        <time>2020-12-06T08:55:46.572000+00:00</time>
      </trkpt>
      <trkpt lat="47.3299" lon="-1.27493">
        <ele>68</ele>
        <time>2020-12-06T08:55:47.485000+00:00</time>
      </trkpt>
      <trkpt lat="0" lon="0">
        <time>2020-12-06T08:55:47.495000+00:00</time>
      </trkpt>
      <trkpt lat="0" lon="0">
        <time>2020-12-06T08:55:47.502000+00:00</time>
      </trkpt>
      <trkpt lat="0" lon="0">
        <time>2020-12-06T08:55:47.504000+00:00</time>
      </trkpt>
      <trkpt lat="47.32989" lon="-1.27488">
        <ele>68</ele>
        <time>2020-12-06T08:55:48.526000+00:00</time>
      </trkpt>
      <trkpt lat="0" lon="0">
        <time>2020-12-06T08:55:48.534000+00:00</time>
      </trkpt>
      <trkpt lat="0" lon="0">
        <time>2020-12-06T08:55:48.547000+00:00</time>
      </trkpt>
      <trkpt lat="0" lon="0">
        <time>2020-12-06T08:55:48.549000+00:00</time>
      </trkpt>
      <trkpt lat="47.32988" lon="-1.27484">
        <ele>68</ele>
        <time>2020-12-06T08:55:49.556000+00:00</time>
      </trkpt>
      <trkpt lat="0" lon="0">
        <time>2020-12-06T08:55:49.578000+00:00</time>
      </trkpt>
      <trkpt lat="0" lon="0">
        <time>2020-12-06T08:55:49.583000+00:00</time>
      </trkpt>
      <trkpt lat="0" lon="0">
        <time>2020-12-06T08:55:49.589000+00:00</time>
      </trkpt>
      <trkpt lat="47.32987" lon="-1.27479">
        <ele>68</ele>
        <time>2020-12-06T08:55:50.571000+00:00</time>
      </trkpt>
      <trkpt lat="0" lon="0">
        <time>2020-12-06T08:55:50.587000+00:00</time>
      </trkpt>
      <trkpt lat="0" lon="0">
        <time>2020-12-06T08:55:50.595000+00:00</time>
      </trkpt>
      <trkpt lat="0" lon="0">
        <time>2020-12-06T08:55:50.597000+00:00</time>
      </trkpt>
      <trkpt lat="47.32986" lon="-1.27474">
        <ele>68</ele>
        <time>2020-12-06T08:55:51.549000+00:00</time>
      </trkpt>
      <trkpt lat="0" lon="0">
        <time>2020-12-06T08:55:51.552000+00:00</time>
      </trkpt>
      <trkpt lat="0" lon="0">
        <time>2020-12-06T08:55:51.556000+00:00</time>
      </trkpt>
      <trkpt lat="0" lon="0">
        <time>2020-12-06T08:55:51.559000+00:00</time>
      </trkpt>
      <trkpt lat="47.32984" lon="-1.27469">
        <ele>68</ele>
        <time>2020-12-06T08:55:52.548000+00:00</time>
      </trkpt>
      <trkpt lat="0" lon="0">
        <time>2020-12-06T08:55:52.556000+00:00</time>
      </trkpt>
      <trkpt lat="0" lon="0">
        <time>2020-12-06T08:55:52.560000+00:00</time>
      </trkpt>
      <trkpt lat="0" lon="0">
        <time>2020-12-06T08:55:52.562000+00:00</time>
      </trkpt>
      <trkpt lat="47.32983" lon="-1.27464">
        <ele>69</ele>
        <time>2020-12-06T08:55:53.565000+00:00</time>
      </trkpt>
      <trkpt lat="0" lon="0">
        <time>2020-12-06T08:55:53.574000+00:00</time>
      </trkpt>
      <trkpt lat="0" lon="0">
        <time>2020-12-06T08:55:53.584000+00:00</time>
      </trkpt>
      <trkpt lat="0" lon="0">
        <time>2020-12-06T08:55:53.586000+00:00</time>
      </trkpt>
      <trkpt lat="47.32981" lon="-1.2746">
        <ele>69</ele>
        <time>2020-12-06T08:55:54.501000+00:00</time>
      </trkpt>
      <trkpt lat="0" lon="0">
        <time>2020-12-06T08:55:54.507000+00:00</time>
      </trkpt>
      <trkpt lat="0" lon="0">
        <time>2020-12-06T08:55:54.512000+00:00</time>
      </trkpt>
      <trkpt lat="0" lon="0">
        <time>2020-12-06T08:55:54.514000+00:00</time>
      </trkpt>
      <trkpt lat="47.32979" lon="-1.27456">
        <ele>69</ele>
        <time>2020-12-06T08:55:55.577000+00:00</time>
      </trkpt>
      <trkpt lat="0" lon="0">
        <time>2020-12-06T08:55:55.584000+00:00</time>
      </trkpt>
      <trkpt lat="0" lon="0">
        <time>2020-12-06T08:55:55.587000+00:00</time>
      </trkpt>
      <trkpt lat="0" lon="0">
        <time>2020-12-06T08:55:55.589000+00:00</time>
      </trkpt>
      <trkpt lat="47.32977" lon="-1.27451">
        <ele>69</ele>
        <time>2020-12-06T08:55:56.556000+00:00</time>
      </trkpt>
      <trkpt lat="0" lon="0">
        <time>2020-12-06T08:55:56.570000+00:00</time>
      </trkpt>
      <trkpt lat="0" lon="0">
        <time>2020-12-06T08:55:56.578000+00:00</time>
      </trkpt>
      <trkpt lat="0" lon="0">
        <time>2020-12-06T08:55:56.585000+00:00</time>
      </trkpt>
      <trkpt lat="47.32975" lon="-1.27448">
        <ele>69</ele>
        <time>2020-12-06T08:55:57.477000+00:00</time>
      </trkpt>
      <trkpt lat="0" lon="0">
        <time>2020-12-06T08:55:57.482000+00:00</time>
      </trkpt>
      <trkpt lat="0" lon="0">
        <time>2020-12-06T08:55:57.483000+00:00</time>
      </trkpt>
      <trkpt lat="47.32973" lon="-1.27444">
        <ele>69</ele>
        <time>2020-12-06T08:55:58.552000+00:00</time>
      </trkpt>
      <trkpt lat="0" lon="0">
        <time>2020-12-06T08:55:58.562000+00:00</time>
      </trkpt>
      <trkpt lat="0" lon="0">
        <time>2020-12-06T08:55:58.564000+00:00</time>
      </trkpt>
      <trkpt lat="0" lon="0">
        <time>2020-12-06T08:55:58.565000+00:00</time>
      </trkpt>
      <trkpt lat="47.32971" lon="-1.2744">
        <ele>69</ele>
        <time>2020-12-06T08:55:59.524000+00:00</time>
      </trkpt>
      <trkpt lat="0" lon="0">
        <time>2020-12-06T08:55:59.530000+00:00</time>
      </trkpt>
      <trkpt lat="0" lon="0">
        <time>2020-12-06T08:55:59.536000+00:00</time>
      </trkpt>
      <trkpt lat="0" lon="0">
        <time>2020-12-06T08:55:59.538000+00:00</time>
      </trkpt>
      <trkpt lat="47.32969" lon="-1.27437">
        <ele>69</ele>
        <time>2020-12-06T08:56:00.493000+00:00</time>
      </trkpt>
      <trkpt lat="0" lon="0">
        <time>2020-12-06T08:56:00.502000+00:00</time>
      </trkpt>
      <trkpt lat="0" lon="0">
        <time>2020-12-06T08:56:00.519000+00:00</time>
      </trkpt>
      <trkpt lat="0" lon="0">
        <time>2020-12-06T08:56:00.521000+00:00</time>
      </trkpt>
      <trkpt lat="47.32967" lon="-1.27434">
        <ele>70</ele>
        <time>2020-12-06T08:56:01.548000+00:00</time>
      </trkpt>
      <trkpt lat="0" lon="0">
        <time>2020-12-06T08:56:01.555000+00:00</time>
      </trkpt>
      <trkpt lat="0" lon="0">
        <time>2020-12-06T08:56:01.559000+00:00</time>
      </trkpt>
      <trkpt lat="0" lon="0">
        <time>2020-12-06T08:56:01.561000+00:00</time>
      </trkpt>
      <trkpt lat="47.32964" lon="-1.2743">
        <ele>70</ele>
        <time>2020-12-06T08:56:02.551000+00:00</time>
      </trkpt>
      <trkpt lat="0" lon="0">
        <time>2020-12-06T08:56:02.557000+00:00</time>
      </trkpt>
      <trkpt lat="0" lon="0">
        <time>2020-12-06T08:56:02.561000+00:00</time>
      </trkpt>
      <trkpt lat="0" lon="0">
        <time>2020-12-06T08:56:02.564000+00:00</time>
      </trkpt>
      <trkpt lat="47.32962" lon="-1.27427">
        <ele>70</ele>
        <time>2020-12-06T08:56:03.553000+00:00</time>
      </trkpt>
      <trkpt lat="0" lon="0">
        <time>2020-12-06T08:56:03.566000+00:00</time>
      </trkpt>
      <trkpt lat="0" lon="0">
        <time>2020-12-06T08:56:03.571000+00:00</time>
      </trkpt>
      <trkpt lat="0" lon="0">
        <time>2020-12-06T08:56:03.574000+00:00</time>
      </trkpt>
      <trkpt lat="47.32959" lon="-1.27423">
        <ele>70</ele>
        <time>2020-12-06T08:56:04.545000+00:00</time>
      </trkpt>
      <trkpt lat="0" lon="0">
        <time>2020-12-06T08:56:04.548000+00:00</time>
      </trkpt>
      <trkpt lat="0" lon="0">
        <time>2020-12-06T08:56:04.552000+00:00</time>
      </trkpt>
      <trkpt lat="0" lon="0">
        <time>2020-12-06T08:56:04.553000+00:00</time>
      </trkpt>
      <trkpt lat="47.32957" lon="-1.27419">
        <ele>70</ele>
        <time>2020-12-06T08:56:05.564000+00:00</time>
      </trkpt>
      <trkpt lat="0" lon="0">
        <time>2020-12-06T08:56:05.567000+00:00</time>
      </trkpt>
      <trkpt lat="0" lon="0">
        <time>2020-12-06T08:56:05.568000+00:00</time>
      </trkpt>
      <trkpt lat="0" lon="0">
        <time>2020-12-06T08:56:05.569000+00:00</time>
      </trkpt>
      <trkpt lat="47.32954" lon="-1.27416">
        <ele>70</ele>
        <time>2020-12-06T08:56:06.560000+00:00</time>
      </trkpt>
      <trkpt lat="0" lon="0">
        <time>2020-12-06T08:56:06.565000+00:00</time>
      </trkpt>
      <trkpt lat="0" lon="0">
        <time>2020-12-06T08:56:06.579000+00:00</time>
      </trkpt>
      <trkpt lat="0" lon="0">
        <time>2020-12-06T08:56:06.581000+00:00</time>
      </trkpt>
      <trkpt lat="47.32952" lon="-1.27412">
        <ele>70</ele>
        <time>2020-12-06T08:56:07.558000+00:00</time>
      </trkpt>
      <trkpt lat="0" lon="0">
        <time>2020-12-06T08:56:07.568000+00:00</time>
      </trkpt>
      <trkpt lat="0" lon="0">
        <time>2020-12-06T08:56:07.572000+00:00</time>
      </trkpt>
      <trkpt lat="0" lon="0">
        <time>2020-12-06T08:56:07.576000+00:00</time>
      </trkpt>
      <trkpt lat="47.3295" lon="-1.27408">
        <ele>71</ele>
        <time>2020-12-06T08:56:08.587000+00:00</time>
      </trkpt>
      <trkpt lat="0" lon="0">
        <time>2020-12-06T08:56:08.598000+00:00</time>
      </trkpt>
      <trkpt lat="0" lon="0">
        <time>2020-12-06T08:56:08.605000+00:00</time>
      </trkpt>
      <trkpt lat="0" lon="0">
        <time>2020-12-06T08:56:08.610000+00:00</time>
      </trkpt>
      <trkpt lat="47.32947" lon="-1.27405">
        <ele>71</ele>
        <time>2020-12-06T08:56:09.533000+00:00</time>
      </trkpt>
      <trkpt lat="0" lon="0">
        <time>2020-12-06T08:56:09.548000+00:00</time>
      </trkpt>
      <trkpt lat="0" lon="0">
        <time>2020-12-06T08:56:09.560000+00:00</time>
      </trkpt>
      <trkpt lat="0" lon="0">
        <time>2020-12-06T08:56:09.562000+00:00</time>
      </trkpt>
      <trkpt lat="47.32945" lon="-1.27401">
        <ele>71</ele>
        <time>2020-12-06T08:56:10.577000+00:00</time>
      </trkpt>
      <trkpt lat="0" lon="0">
        <time>2020-12-06T08:56:10.588000+00:00</time>
      </trkpt>
      <trkpt lat="0" lon="0">
        <time>2020-12-06T08:56:10.592000+00:00</time>
      </trkpt>
      <trkpt lat="0" lon="0">
        <time>2020-12-06T08:56:10.593000+00:00</time>
      </trkpt>
      <trkpt lat="47.32943" lon="-1.27397">
        <ele>71</ele>
        <time>2020-12-06T08:56:11.476000+00:00</time>
      </trkpt>
      <trkpt lat="0" lon="0">
        <time>2020-12-06T08:56:11.479000+00:00</time>
      </trkpt>
      <trkpt lat="0" lon="0">
        <time>2020-12-06T08:56:11.482000+00:00</time>
      </trkpt>
      <trkpt lat="0" lon="0">
        <time>2020-12-06T08:56:11.484000+00:00</time>
      </trkpt>
      <trkpt lat="47.32941" lon="-1.27393">
        <ele>71</ele>
        <time>2020-12-06T08:56:12.525000+00:00</time>
      </trkpt>
      <trkpt lat="0" lon="0">
        <time>2020-12-06T08:56:12.537000+00:00</time>
      </trkpt>
      <trkpt lat="0" lon="0">
        <time>2020-12-06T08:56:12.543000+00:00</time>
      </trkpt>
      <trkpt lat="0" lon="0">
        <time>2020-12-06T08:56:12.545000+00:00</time>
      </trkpt>
      <trkpt lat="47.32938" lon="-1.27389">
        <ele>72</ele>
        <time>2020-12-06T08:56:13.528000+00:00</time>
      </trkpt>
      <trkpt lat="0" lon="0">
        <time>2020-12-06T08:56:13.548000+00:00</time>
      </trkpt>
      <trkpt lat="0" lon="0">
        <time>2020-12-06T08:56:13.561000+00:00</time>
      </trkpt>
      <trkpt lat="0" lon="0">
        <time>2020-12-06T08:56:13.564000+00:00</time>
      </trkpt>
      <trkpt lat="47.32936" lon="-1.27385">
        <ele>72</ele>
        <time>2020-12-06T08:56:14.513000+00:00</time>
      </trkpt>
      <trkpt lat="0" lon="0">
        <time>2020-12-06T08:56:14.519000+00:00</time>
      </trkpt>
      <trkpt lat="0" lon="0">
        <time>2020-12-06T08:56:14.521000+00:00</time>
      </trkpt>
      <trkpt lat="0" lon="0">
        <time>2020-12-06T08:56:14.523000+00:00</time>
      </trkpt>
      <trkpt lat="47.32934" lon="-1.27381">
        <ele>72</ele>
        <time>2020-12-06T08:56:15.543000+00:00</time>
      </trkpt>
      <trkpt lat="0" lon="0">
        <time>2020-12-06T08:56:15.548000+00:00</time>
      </trkpt>
      <trkpt lat="0" lon="0">
        <time>2020-12-06T08:56:15.551000+00:00</time>
      </trkpt>
      <trkpt lat="0" lon="0">
        <time>2020-12-06T08:56:15.554000+00:00</time>
      </trkpt>
      <trkpt lat="47.32932" lon="-1.27378">
        <ele>72</ele>
        <time>2020-12-06T08:56:16.551000+00:00</time>
      </trkpt>
      <trkpt lat="0" lon="0">
        <time>2020-12-06T08:56:16.553000+00:00</time>
      </trkpt>
      <trkpt lat="0" lon="0">
        <time>2020-12-06T08:56:16.556000+00:00</time>
      </trkpt>
      <trkpt lat="0" lon="0">
        <time>2020-12-06T08:56:16.558000+00:00</time>
      </trkpt>
      <trkpt lat="47.32929" lon="-1.27374">
        <ele>72</ele>
        <time>2020-12-06T08:56:17.563000+00:00</time>
      </trkpt>
      <trkpt lat="0" lon="0">
        <time>2020-12-06T08:56:17.576000+00:00</time>
      </trkpt>
      <trkpt lat="0" lon="0">
        <time>2020-12-06T08:56:17.581000+00:00</time>
      </trkpt>
      <trkpt lat="0" lon="0">
        <time>2020-12-06T08:56:17.586000+00:00</time>
      </trkpt>
      <trkpt lat="47.32927" lon="-1.27371">
        <ele>73</ele>
        <time>2020-12-06T08:56:18.529000+00:00</time>
      </trkpt>
      <trkpt lat="0" lon="0">
        <time>2020-12-06T08:56:18.539000+00:00</time>
      </trkpt>
      <trkpt lat="0" lon="0">
        <time>2020-12-06T08:56:18.541000+00:00</time>
      </trkpt>
      <trkpt lat="0" lon="0">
        <time>2020-12-06T08:56:18.542000+00:00</time>
      </trkpt>
      <trkpt lat="47.32925" lon="-1.27367">
        <ele>73</ele>
        <time>2020-12-06T08:56:19.465000+00:00</time>
      </trkpt>
      <trkpt lat="0" lon="0">
        <time>2020-12-06T08:56:19.470000+00:00</time>
      </trkpt>
      <trkpt lat="0" lon="0">
        <time>2020-12-06T08:56:19.475000+00:00</time>
      </trkpt>
      <trkpt lat="0" lon="0">
        <time>2020-12-06T08:56:19.477000+00:00</time>
      </trkpt>
      <trkpt lat="47.32922" lon="-1.27363">
        <ele>73</ele>
        <time>2020-12-06T08:56:20.525000+00:00</time>
      </trkpt>
      <trkpt lat="0" lon="0">
        <time>2020-12-06T08:56:20.541000+00:00</time>
      </trkpt>
      <trkpt lat="0" lon="0">
        <time>2020-12-06T08:56:20.550000+00:00</time>
      </trkpt>
      <trkpt lat="0" lon="0">
        <time>2020-12-06T08:56:20.552000+00:00</time>
      </trkpt>
      <trkpt lat="47.3292" lon="-1.2736">
        <ele>73</ele>
        <time>2020-12-06T08:56:21.530000+00:00</time>
      </trkpt>
      <trkpt lat="0" lon="0">
        <time>2020-12-06T08:56:21.540000+00:00</time>
      </trkpt>
      <trkpt lat="0" lon="0">
        <time>2020-12-06T08:56:21.542000+00:00</time>
      </trkpt>
      <trkpt lat="0" lon="0">
        <time>2020-12-06T08:56:21.543000+00:00</time>
      </trkpt>
      <trkpt lat="47.32917" lon="-1.27357">
        <ele>73</ele>
        <time>2020-12-06T08:56:22.579000+00:00</time>
      </trkpt>
      <trkpt lat="0" lon="0">
        <time>2020-12-06T08:56:22.594000+00:00</time>
      </trkpt>
      <trkpt lat="0" lon="0">
        <time>2020-12-06T08:56:22.597000+00:00</time>
      </trkpt>
      <trkpt lat="0" lon="0">
        <time>2020-12-06T08:56:22.599000+00:00</time>
      </trkpt>
      <trkpt lat="47.32915" lon="-1.27353">
        <ele>73</ele>
        <time>2020-12-06T08:56:23.536000+00:00</time>
      </trkpt>
      <trkpt lat="0" lon="0">
        <time>2020-12-06T08:56:23.543000+00:00</time>
      </trkpt>
      <trkpt lat="0" lon="0">
        <time>2020-12-06T08:56:23.547000+00:00</time>
      </trkpt>
      <trkpt lat="0" lon="0">
        <time>2020-12-06T08:56:23.549000+00:00</time>
      </trkpt>
      <trkpt lat="47.32912" lon="-1.2735">
        <ele>73</ele>
        <time>2020-12-06T08:56:24.518000+00:00</time>
      </trkpt>
      <trkpt lat="0" lon="0">
        <time>2020-12-06T08:56:24.532000+00:00</time>
      </trkpt>
      <trkpt lat="0" lon="0">
        <time>2020-12-06T08:56:24.535000+00:00</time>
      </trkpt>
      <trkpt lat="0" lon="0">
        <time>2020-12-06T08:56:24.537000+00:00</time>
      </trkpt>
      <trkpt lat="47.32909" lon="-1.27346">
        <ele>74</ele>
        <time>2020-12-06T08:56:25.530000+00:00</time>
      </trkpt>
      <trkpt lat="0" lon="0">
        <time>2020-12-06T08:56:25.537000+00:00</time>
      </trkpt>
      <trkpt lat="0" lon="0">
        <time>2020-12-06T08:56:25.541000+00:00</time>
      </trkpt>
      <trkpt lat="0" lon="0">
        <time>2020-12-06T08:56:25.543000+00:00</time>
      </trkpt>
      <trkpt lat="47.32907" lon="-1.27343">
        <ele>74</ele>
        <time>2020-12-06T08:56:26.558000+00:00</time>
      </trkpt>
      <trkpt lat="0" lon="0">
        <time>2020-12-06T08:56:26.575000+00:00</time>
      </trkpt>
      <trkpt lat="0" lon="0">
        <time>2020-12-06T08:56:26.587000+00:00</time>
      </trkpt>
      <trkpt lat="0" lon="0">
        <time>2020-12-06T08:56:26.591000+00:00</time>
      </trkpt>
      <trkpt lat="47.32904" lon="-1.27339">
        <ele>74</ele>
        <time>2020-12-06T08:56:27.768000+00:00</time>
      </trkpt>
      <trkpt lat="0" lon="0">
        <time>2020-12-06T08:56:27.781000+00:00</time>
      </trkpt>
      <trkpt lat="0" lon="0">
        <time>2020-12-06T08:56:27.787000+00:00</time>
      </trkpt>
      <trkpt lat="0" lon="0">
        <time>2020-12-06T08:56:27.791000+00:00</time>
      </trkpt>
      <trkpt lat="47.32902" lon="-1.27336">
        <ele>74</ele>
        <time>2020-12-06T08:56:28.467000+00:00</time>
      </trkpt>
      <trkpt lat="0" lon="0">
        <time>2020-12-06T08:56:28.470000+00:00</time>
      </trkpt>
      <trkpt lat="0" lon="0">
        <time>2020-12-06T08:56:28.482000+00:00</time>
      </trkpt>
      <trkpt lat="0" lon="0">
        <time>2020-12-06T08:56:28.485000+00:00</time>
      </trkpt>
      <trkpt lat="47.32899" lon="-1.27332">
        <ele>74</ele>
        <time>2020-12-06T08:56:29.528000+00:00</time>
      </trkpt>
      <trkpt lat="0" lon="0">
        <time>2020-12-06T08:56:29.532000+00:00</time>
      </trkpt>
      <trkpt lat="0" lon="0">
        <time>2020-12-06T08:56:29.536000+00:00</time>
      </trkpt>
      <trkpt lat="0" lon="0">
        <time>2020-12-06T08:56:29.538000+00:00</time>
      </trkpt>
      <trkpt lat="47.32897" lon="-1.27329">
        <ele>74</ele>
        <time>2020-12-06T08:56:30.534000+00:00</time>
      </trkpt>
      <trkpt lat="0" lon="0">
        <time>2020-12-06T08:56:30.536000+00:00</time>
      </trkpt>
      <trkpt lat="0" lon="0">
        <time>2020-12-06T08:56:30.537000+00:00</time>
      </trkpt>
      <trkpt lat="0" lon="0">
        <time>2020-12-06T08:56:30.538000+00:00</time>
      </trkpt>
      <trkpt lat="47.32894" lon="-1.27326">
        <ele>74</ele>
        <time>2020-12-06T08:56:31.517000+00:00</time>
      </trkpt>
      <trkpt lat="0" lon="0">
        <time>2020-12-06T08:56:31.520000+00:00</time>
      </trkpt>
      <trkpt lat="0" lon="0">
        <time>2020-12-06T08:56:31.535000+00:00</time>
      </trkpt>
      <trkpt lat="0" lon="0">
        <time>2020-12-06T08:56:31.537000+00:00</time>
      </trkpt>
      <trkpt lat="47.32892" lon="-1.27322">
        <ele>74</ele>
        <time>2020-12-06T08:56:32.529000+00:00</time>
      </trkpt>
      <trkpt lat="0" lon="0">
        <time>2020-12-06T08:56:32.533000+00:00</time>
      </trkpt>
      <trkpt lat="0" lon="0">
        <time>2020-12-06T08:56:32.543000+00:00</time>
      </trkpt>
      <trkpt lat="0" lon="0">
        <time>2020-12-06T08:56:32.551000+00:00</time>
      </trkpt>
      <trkpt lat="47.3289" lon="-1.27319">
        <ele>74</ele>
        <time>2020-12-06T08:56:33.569000+00:00</time>
      </trkpt>
      <trkpt lat="0" lon="0">
        <time>2020-12-06T08:56:33.582000+00:00</time>
      </trkpt>
      <trkpt lat="0" lon="0">
        <time>2020-12-06T08:56:33.587000+00:00</time>
      </trkpt>
      <trkpt lat="0" lon="0">
        <time>2020-12-06T08:56:33.590000+00:00</time>
      </trkpt>
      <trkpt lat="47.32887" lon="-1.27315">
        <ele>74</ele>
        <time>2020-12-06T08:56:34.538000+00:00</time>
      </trkpt>
      <trkpt lat="0" lon="0">
        <time>2020-12-06T08:56:34.550000+00:00</time>
      </trkpt>
      <trkpt lat="0" lon="0">
        <time>2020-12-06T08:56:34.553000+00:00</time>
      </trkpt>
      <trkpt lat="0" lon="0">
        <time>2020-12-06T08:56:34.555000+00:00</time>
      </trkpt>
      <trkpt lat="47.32885" lon="-1.27312">
        <ele>74</ele>
        <time>2020-12-06T08:56:35.551000+00:00</time>
      </trkpt>
      <trkpt lat="0" lon="0">
        <time>2020-12-06T08:56:35.566000+00:00</time>
      </trkpt>
      <trkpt lat="0" lon="0">
        <time>2020-12-06T08:56:35.570000+00:00</time>
      </trkpt>
      <trkpt lat="0" lon="0">
        <time>2020-12-06T08:56:35.574000+00:00</time>
      </trkpt>
      <trkpt lat="47.32883" lon="-1.27308">
        <ele>74</ele>
        <time>2020-12-06T08:56:36.535000+00:00</time>
      </trkpt>
      <trkpt lat="0" lon="0">
        <time>2020-12-06T08:56:36.538000+00:00</time>
      </trkpt>
      <trkpt lat="0" lon="0">
        <time>2020-12-06T08:56:36.554000+00:00</time>
      </trkpt>
      <trkpt lat="0" lon="0">
        <time>2020-12-06T08:56:36.556000+00:00</time>
      </trkpt>
      <trkpt lat="47.32881" lon="-1.27305">
        <ele>73</ele>
        <time>2020-12-06T08:56:37.542000+00:00</time>
      </trkpt>
      <trkpt lat="0" lon="0">
        <time>2020-12-06T08:56:37.550000+00:00</time>
      </trkpt>
      <trkpt lat="0" lon="0">
        <time>2020-12-06T08:56:37.553000+00:00</time>
      </trkpt>
      <trkpt lat="0" lon="0">
        <time>2020-12-06T08:56:37.556000+00:00</time>
      </trkpt>
      <trkpt lat="47.32878" lon="-1.27301">
        <ele>73</ele>
        <time>2020-12-06T08:56:38.539000+00:00</time>
      </trkpt>
      <trkpt lat="0" lon="0">
        <time>2020-12-06T08:56:38.544000+00:00</time>
      </trkpt>
      <trkpt lat="0" lon="0">
        <time>2020-12-06T08:56:38.554000+00:00</time>
      </trkpt>
      <trkpt lat="0" lon="0">
        <time>2020-12-06T08:56:38.558000+00:00</time>
      </trkpt>
      <trkpt lat="47.32876" lon="-1.27298">
        <ele>73</ele>
        <time>2020-12-06T08:56:39.573000+00:00</time>
      </trkpt>
      <trkpt lat="0" lon="0">
        <time>2020-12-06T08:56:39.584000+00:00</time>
      </trkpt>
      <trkpt lat="0" lon="0">
        <time>2020-12-06T08:56:39.586000+00:00</time>
      </trkpt>
      <trkpt lat="0" lon="0">
        <time>2020-12-06T08:56:39.587000+00:00</time>
      </trkpt>
      <trkpt lat="47.32874" lon="-1.27295">
        <ele>73</ele>
        <time>2020-12-06T08:56:40.515000+00:00</time>
      </trkpt>
      <trkpt lat="0" lon="0">
        <time>2020-12-06T08:56:40.526000+00:00</time>
      </trkpt>
      <trkpt lat="0" lon="0">
        <time>2020-12-06T08:56:40.528000+00:00</time>
      </trkpt>
      <trkpt lat="0" lon="0">
        <time>2020-12-06T08:56:40.529000+00:00</time>
      </trkpt>
      <trkpt lat="47.32871" lon="-1.27292">
        <ele>73</ele>
        <time>2020-12-06T08:56:41.484000+00:00</time>
      </trkpt>
      <trkpt lat="0" lon="0">
        <time>2020-12-06T08:56:41.489000+00:00</time>
      </trkpt>
      <trkpt lat="0" lon="0">
        <time>2020-12-06T08:56:41.497000+00:00</time>
      </trkpt>
      <trkpt lat="0" lon="0">
        <time>2020-12-06T08:56:41.498000+00:00</time>
      </trkpt>
      <trkpt lat="47.32869" lon="-1.27291">
        <ele>73</ele>
        <time>2020-12-06T08:56:42.498000+00:00</time>
      </trkpt>
      <trkpt lat="0" lon="0">
        <time>2020-12-06T08:56:42.503000+00:00</time>
      </trkpt>
      <trkpt lat="0" lon="0">
        <time>2020-12-06T08:56:42.504000+00:00</time>
      </trkpt>
      <trkpt lat="47.32866" lon="-1.2729">
        <ele>73</ele>
        <time>2020-12-06T08:56:43.422000+00:00</time>
      </trkpt>
      <trkpt lat="0" lon="0">
        <time>2020-12-06T08:56:43.425000+00:00</time>
      </trkpt>
      <trkpt lat="0" lon="0">
        <time>2020-12-06T08:56:43.426000+00:00</time>
      </trkpt>
      <trkpt lat="47.32864" lon="-1.27291">
        <ele>74</ele>
        <time>2020-12-06T08:56:44.500000+00:00</time>
      </trkpt>
      <trkpt lat="0" lon="0">
        <time>2020-12-06T08:56:44.504000+00:00</time>
      </trkpt>
      <trkpt lat="0" lon="0">
        <time>2020-12-06T08:56:44.508000+00:00</time>
      </trkpt>
      <trkpt lat="0" lon="0">
        <time>2020-12-06T08:56:44.510000+00:00</time>
      </trkpt>
      <trkpt lat="47.32862" lon="-1.27293">
        <ele>74</ele>
        <time>2020-12-06T08:56:45.497000+00:00</time>
      </trkpt>
      <trkpt lat="0" lon="0">
        <time>2020-12-06T08:56:45.503000+00:00</time>
      </trkpt>
      <trkpt lat="0" lon="0">
        <time>2020-12-06T08:56:45.505000+00:00</time>
      </trkpt>
      <trkpt lat="0" lon="0">
        <time>2020-12-06T08:56:45.506000+00:00</time>
      </trkpt>
      <trkpt lat="47.3286" lon="-1.27296">
        <ele>74</ele>
        <time>2020-12-06T08:56:46.547000+00:00</time>
      </trkpt>
      <trkpt lat="0" lon="0">
        <time>2020-12-06T08:56:46.551000+00:00</time>
      </trkpt>
      <trkpt lat="0" lon="0">
        <time>2020-12-06T08:56:46.554000+00:00</time>
      </trkpt>
      <trkpt lat="0" lon="0">
        <time>2020-12-06T08:56:46.562000+00:00</time>
      </trkpt>
      <trkpt lat="47.32859" lon="-1.27299">
        <ele>74</ele>
        <time>2020-12-06T08:56:47.520000+00:00</time>
      </trkpt>
      <trkpt lat="0" lon="0">
        <time>2020-12-06T08:56:47.534000+00:00</time>
      </trkpt>
      <trkpt lat="0" lon="0">
        <time>2020-12-06T08:56:47.543000+00:00</time>
      </trkpt>
      <trkpt lat="0" lon="0">
        <time>2020-12-06T08:56:47.545000+00:00</time>
      </trkpt>
      <trkpt lat="47.32857" lon="-1.27303">
        <ele>74</ele>
        <time>2020-12-06T08:56:48.531000+00:00</time>
      </trkpt>
      <trkpt lat="0" lon="0">
        <time>2020-12-06T08:56:48.543000+00:00</time>
      </trkpt>
      <trkpt lat="0" lon="0">
        <time>2020-12-06T08:56:48.554000+00:00</time>
      </trkpt>
      <trkpt lat="0" lon="0">
        <time>2020-12-06T08:56:48.556000+00:00</time>
      </trkpt>
      <trkpt lat="47.32856" lon="-1.27307">
        <ele>74</ele>
        <time>2020-12-06T08:56:49.539000+00:00</time>
      </trkpt>
      <trkpt lat="0" lon="0">
        <time>2020-12-06T08:56:49.543000+00:00</time>
      </trkpt>
      <trkpt lat="0" lon="0">
        <time>2020-12-06T08:56:49.549000+00:00</time>
      </trkpt>
      <trkpt lat="0" lon="0">
        <time>2020-12-06T08:56:49.551000+00:00</time>
      </trkpt>
      <trkpt lat="47.32855" lon="-1.27312">
        <ele>74</ele>
        <time>2020-12-06T08:56:50.545000+00:00</time>
      </trkpt>
      <trkpt lat="0" lon="0">
        <time>2020-12-06T08:56:50.554000+00:00</time>
      </trkpt>
      <trkpt lat="0" lon="0">
        <time>2020-12-06T08:56:50.561000+00:00</time>
      </trkpt>
      <trkpt lat="0" lon="0">
        <time>2020-12-06T08:56:50.563000+00:00</time>
      </trkpt>
      <trkpt lat="47.32853" lon="-1.27316">
        <ele>75</ele>
        <time>2020-12-06T08:56:51.525000+00:00</time>
      </trkpt>
      <trkpt lat="0" lon="0">
        <time>2020-12-06T08:56:51.531000+00:00</time>
      </trkpt>
      <trkpt lat="0" lon="0">
        <time>2020-12-06T08:56:51.535000+00:00</time>
      </trkpt>
      <trkpt lat="0" lon="0">
        <time>2020-12-06T08:56:51.537000+00:00</time>
      </trkpt>
      <trkpt lat="47.32852" lon="-1.27321">
        <ele>75</ele>
        <time>2020-12-06T08:56:52.542000+00:00</time>
      </trkpt>
      <trkpt lat="0" lon="0">
        <time>2020-12-06T08:56:52.549000+00:00</time>
      </trkpt>
      <trkpt lat="0" lon="0">
        <time>2020-12-06T08:56:52.560000+00:00</time>
      </trkpt>
      <trkpt lat="0" lon="0">
        <time>2020-12-06T08:56:52.562000+00:00</time>
      </trkpt>
      <trkpt lat="47.3285" lon="-1.27325">
        <ele>75</ele>
        <time>2020-12-06T08:56:53.548000+00:00</time>
      </trkpt>
      <trkpt lat="0" lon="0">
        <time>2020-12-06T08:56:53.557000+00:00</time>
      </trkpt>
      <trkpt lat="0" lon="0">
        <time>2020-12-06T08:56:53.566000+00:00</time>
      </trkpt>
      <trkpt lat="0" lon="0">
        <time>2020-12-06T08:56:53.573000+00:00</time>
      </trkpt>
      <trkpt lat="47.32849" lon="-1.27329">
        <ele>75</ele>
        <time>2020-12-06T08:56:54.515000+00:00</time>
      </trkpt>
      <trkpt lat="0" lon="0">
        <time>2020-12-06T08:56:54.524000+00:00</time>
      </trkpt>
      <trkpt lat="0" lon="0">
        <time>2020-12-06T08:56:54.528000+00:00</time>
      </trkpt>
      <trkpt lat="0" lon="0">
        <time>2020-12-06T08:56:54.530000+00:00</time>
      </trkpt>
      <trkpt lat="47.32847" lon="-1.27331">
        <ele>75</ele>
        <time>2020-12-06T08:56:55.504000+00:00</time>
      </trkpt>
      <trkpt lat="0" lon="0">
        <time>2020-12-06T08:56:55.514000+00:00</time>
      </trkpt>
      <trkpt lat="0" lon="0">
        <time>2020-12-06T08:56:55.518000+00:00</time>
      </trkpt>
      <trkpt lat="0" lon="0">
        <time>2020-12-06T08:56:55.521000+00:00</time>
      </trkpt>
      <trkpt lat="47.32844" lon="-1.27333">
        <ele>75</ele>
        <time>2020-12-06T08:56:56.504000+00:00</time>
      </trkpt>
      <trkpt lat="0" lon="0">
        <time>2020-12-06T08:56:56.511000+00:00</time>
      </trkpt>
      <trkpt lat="0" lon="0">
        <time>2020-12-06T08:56:56.517000+00:00</time>
      </trkpt>
      <trkpt lat="0" lon="0">
        <time>2020-12-06T08:56:56.520000+00:00</time>
      </trkpt>
      <trkpt lat="47.32842" lon="-1.27333">
        <ele>75</ele>
        <time>2020-12-06T08:56:57.521000+00:00</time>
      </trkpt>
      <trkpt lat="0" lon="0">
        <time>2020-12-06T08:56:57.530000+00:00</time>
      </trkpt>
      <trkpt lat="0" lon="0">
        <time>2020-12-06T08:56:57.534000+00:00</time>
      </trkpt>
      <trkpt lat="0" lon="0">
        <time>2020-12-06T08:56:57.536000+00:00</time>
      </trkpt>
      <trkpt lat="47.3284" lon="-1.27332">
        <ele>75</ele>
        <time>2020-12-06T08:56:58.502000+00:00</time>
      </trkpt>
      <trkpt lat="0" lon="0">
        <time>2020-12-06T08:56:58.510000+00:00</time>
      </trkpt>
      <trkpt lat="0" lon="0">
        <time>2020-12-06T08:56:58.516000+00:00</time>
      </trkpt>
      <trkpt lat="0" lon="0">
        <time>2020-12-06T08:56:58.519000+00:00</time>
      </trkpt>
      <trkpt lat="47.32837" lon="-1.27331">
        <ele>75</ele>
        <time>2020-12-06T08:56:59.516000+00:00</time>
      </trkpt>
      <trkpt lat="0" lon="0">
        <time>2020-12-06T08:56:59.518000+00:00</time>
      </trkpt>
      <trkpt lat="0" lon="0">
        <time>2020-12-06T08:56:59.524000+00:00</time>
      </trkpt>
      <trkpt lat="0" lon="0">
        <time>2020-12-06T08:56:59.526000+00:00</time>
      </trkpt>
      <trkpt lat="47.32835" lon="-1.27329">
        <ele>75</ele>
        <time>2020-12-06T08:57:00.499000+00:00</time>
      </trkpt>
      <trkpt lat="0" lon="0">
        <time>2020-12-06T08:57:00.513000+00:00</time>
      </trkpt>
      <trkpt lat="0" lon="0">
        <time>2020-12-06T08:57:00.517000+00:00</time>
      </trkpt>
      <trkpt lat="0" lon="0">
        <time>2020-12-06T08:57:00.519000+00:00</time>
      </trkpt>
      <trkpt lat="47.32832" lon="-1.27327">
        <ele>75</ele>
        <time>2020-12-06T08:57:01.526000+00:00</time>
      </trkpt>
      <trkpt lat="0" lon="0">
        <time>2020-12-06T08:57:01.528000+00:00</time>
      </trkpt>
      <trkpt lat="0" lon="0">
        <time>2020-12-06T08:57:01.536000+00:00</time>
      </trkpt>
      <trkpt lat="0" lon="0">
        <time>2020-12-06T08:57:01.537000+00:00</time>
      </trkpt>
      <trkpt lat="47.32829" lon="-1.27324">
        <ele>75</ele>
        <time>2020-12-06T08:57:02.515000+00:00</time>
      </trkpt>
      <trkpt lat="0" lon="0">
        <time>2020-12-06T08:57:02.523000+00:00</time>
      </trkpt>
      <trkpt lat="0" lon="0">
        <time>2020-12-06T08:57:02.525000+00:00</time>
      </trkpt>
      <trkpt lat="47.32827" lon="-1.27322">
        <ele>75</ele>
        <time>2020-12-06T08:57:03.512000+00:00</time>
      </trkpt>
      <trkpt lat="0" lon="0">
        <time>2020-12-06T08:57:03.523000+00:00</time>
      </trkpt>
      <trkpt lat="0" lon="0">
        <time>2020-12-06T08:57:03.525000+00:00</time>
      </trkpt>
      <trkpt lat="0" lon="0">
        <time>2020-12-06T08:57:03.526000+00:00</time>
      </trkpt>
      <trkpt lat="47.32824" lon="-1.27318">
        <ele>75</ele>
        <time>2020-12-06T08:57:04.517000+00:00</time>
      </trkpt>
      <trkpt lat="0" lon="0">
        <time>2020-12-06T08:57:04.524000+00:00</time>
      </trkpt>
      <trkpt lat="0" lon="0">
        <time>2020-12-06T08:57:04.528000+00:00</time>
      </trkpt>
      <trkpt lat="0" lon="0">
        <time>2020-12-06T08:57:04.536000+00:00</time>
      </trkpt>
      <trkpt lat="47.32821" lon="-1.27315">
        <ele>75</ele>
        <time>2020-12-06T08:57:05.512000+00:00</time>
      </trkpt>
      <trkpt lat="0" lon="0">
        <time>2020-12-06T08:57:05.521000+00:00</time>
      </trkpt>
      <trkpt lat="0" lon="0">
        <time>2020-12-06T08:57:05.525000+00:00</time>
      </trkpt>
      <trkpt lat="0" lon="0">
        <time>2020-12-06T08:57:05.529000+00:00</time>
      </trkpt>
      <trkpt lat="47.32818" lon="-1.27312">
        <ele>75</ele>
        <time>2020-12-06T08:57:06.481000+00:00</time>
      </trkpt>
      <trkpt lat="0" lon="0">
        <time>2020-12-06T08:57:06.483000+00:00</time>
      </trkpt>
      <trkpt lat="0" lon="0">
        <time>2020-12-06T08:57:06.484000+00:00</time>
      </trkpt>
      <trkpt lat="47.32815" lon="-1.27309">
        <ele>75</ele>
        <time>2020-12-06T08:57:07.497000+00:00</time>
      </trkpt>
      <trkpt lat="0" lon="0">
        <time>2020-12-06T08:57:07.508000+00:00</time>
      </trkpt>
      <trkpt lat="0" lon="0">
        <time>2020-12-06T08:57:07.515000+00:00</time>
      </trkpt>
      <trkpt lat="0" lon="0">
        <time>2020-12-06T08:57:07.517000+00:00</time>
      </trkpt>
      <trkpt lat="47.32812" lon="-1.27306">
        <ele>75</ele>
        <time>2020-12-06T08:57:08.489000+00:00</time>
      </trkpt>
      <trkpt lat="0" lon="0">
        <time>2020-12-06T08:57:08.499000+00:00</time>
      </trkpt>
      <trkpt lat="0" lon="0">
        <time>2020-12-06T08:57:08.507000+00:00</time>
      </trkpt>
      <trkpt lat="0" lon="0">
        <time>2020-12-06T08:57:08.509000+00:00</time>
      </trkpt>
      <trkpt lat="47.32809" lon="-1.27302">
        <ele>75</ele>
        <time>2020-12-06T08:57:09.464000+00:00</time>
      </trkpt>
      <trkpt lat="0" lon="0">
        <time>2020-12-06T08:57:09.465000+00:00</time>
      </trkpt>
      <trkpt lat="0" lon="0">
        <time>2020-12-06T08:57:09.467000+00:00</time>
      </trkpt>
      <trkpt lat="0" lon="0">
        <time>2020-12-06T08:57:09.468000+00:00</time>
      </trkpt>
      <trkpt lat="47.32806" lon="-1.27299">
        <ele>75</ele>
        <time>2020-12-06T08:57:10.473000+00:00</time>
      </trkpt>
      <trkpt lat="0" lon="0">
        <time>2020-12-06T08:57:10.484000+00:00</time>
      </trkpt>
      <trkpt lat="0" lon="0">
        <time>2020-12-06T08:57:10.490000+00:00</time>
      </trkpt>
      <trkpt lat="0" lon="0">
        <time>2020-12-06T08:57:10.492000+00:00</time>
      </trkpt>
      <trkpt lat="47.32803" lon="-1.27295">
        <ele>75</ele>
        <time>2020-12-06T08:57:11.467000+00:00</time>
      </trkpt>
      <trkpt lat="0" lon="0">
        <time>2020-12-06T08:57:11.469000+00:00</time>
      </trkpt>
      <trkpt lat="0" lon="0">
        <time>2020-12-06T08:57:11.470000+00:00</time>
      </trkpt>
      <trkpt lat="0" lon="0">
        <time>2020-12-06T08:57:11.472000+00:00</time>
      </trkpt>
      <trkpt lat="47.328" lon="-1.27292">
        <ele>75</ele>
        <time>2020-12-06T08:57:12.472000+00:00</time>
      </trkpt>
      <trkpt lat="0" lon="0">
        <time>2020-12-06T08:57:12.475000+00:00</time>
      </trkpt>
      <trkpt lat="0" lon="0">
        <time>2020-12-06T08:57:12.477000+00:00</time>
      </trkpt>
      <trkpt lat="0" lon="0">
        <time>2020-12-06T08:57:12.479000+00:00</time>
      </trkpt>
      <trkpt lat="47.32797" lon="-1.27288">
        <ele>75</ele>
        <time>2020-12-06T08:57:13.486000+00:00</time>
      </trkpt>
      <trkpt lat="0" lon="0">
        <time>2020-12-06T08:57:13.497000+00:00</time>
      </trkpt>
      <trkpt lat="0" lon="0">
        <time>2020-12-06T08:57:13.501000+00:00</time>
      </trkpt>
      <trkpt lat="0" lon="0">
        <time>2020-12-06T08:57:13.503000+00:00</time>
      </trkpt>
      <trkpt lat="47.32794" lon="-1.27284">
        <ele>75</ele>
        <time>2020-12-06T08:57:14.486000+00:00</time>
      </trkpt>
      <trkpt lat="0" lon="0">
        <time>2020-12-06T08:57:14.501000+00:00</time>
      </trkpt>
      <trkpt lat="0" lon="0">
        <time>2020-12-06T08:57:14.507000+00:00</time>
      </trkpt>
      <trkpt lat="0" lon="0">
        <time>2020-12-06T08:57:14.512000+00:00</time>
      </trkpt>
      <trkpt lat="47.32791" lon="-1.2728">
        <ele>75</ele>
        <time>2020-12-06T08:57:15.512000+00:00</time>
      </trkpt>
      <trkpt lat="0" lon="0">
        <time>2020-12-06T08:57:15.521000+00:00</time>
      </trkpt>
      <trkpt lat="0" lon="0">
        <time>2020-12-06T08:57:15.526000+00:00</time>
      </trkpt>
      <trkpt lat="0" lon="0">
        <time>2020-12-06T08:57:15.528000+00:00</time>
      </trkpt>
      <trkpt lat="47.32788" lon="-1.27276">
        <ele>75</ele>
        <time>2020-12-06T08:57:16.457000+00:00</time>
      </trkpt>
      <trkpt lat="0" lon="0">
        <time>2020-12-06T08:57:16.459000+00:00</time>
      </trkpt>
      <trkpt lat="0" lon="0">
        <time>2020-12-06T08:57:16.460000+00:00</time>
      </trkpt>
      <trkpt lat="0" lon="0">
        <time>2020-12-06T08:57:16.461000+00:00</time>
      </trkpt>
      <trkpt lat="47.32785" lon="-1.27272">
        <ele>75</ele>
        <time>2020-12-06T08:57:17.523000+00:00</time>
      </trkpt>
      <trkpt lat="0" lon="0">
        <time>2020-12-06T08:57:17.526000+00:00</time>
      </trkpt>
      <trkpt lat="0" lon="0">
        <time>2020-12-06T08:57:17.531000+00:00</time>
      </trkpt>
      <trkpt lat="0" lon="0">
        <time>2020-12-06T08:57:17.533000+00:00</time>
      </trkpt>
      <trkpt lat="47.32782" lon="-1.27269">
        <ele>75</ele>
        <time>2020-12-06T08:57:18.520000+00:00</time>
      </trkpt>
      <trkpt lat="0" lon="0">
        <time>2020-12-06T08:57:18.530000+00:00</time>
      </trkpt>
      <trkpt lat="0" lon="0">
        <time>2020-12-06T08:57:18.537000+00:00</time>
      </trkpt>
      <trkpt lat="0" lon="0">
        <time>2020-12-06T08:57:18.539000+00:00</time>
      </trkpt>
      <trkpt lat="47.32778" lon="-1.27265">
        <ele>75</ele>
        <time>2020-12-06T08:57:19.512000+00:00</time>
      </trkpt>
      <trkpt lat="0" lon="0">
        <time>2020-12-06T08:57:19.516000+00:00</time>
      </trkpt>
      <trkpt lat="0" lon="0">
        <time>2020-12-06T08:57:19.517000+00:00</time>
      </trkpt>
      <trkpt lat="0" lon="0">
        <time>2020-12-06T08:57:19.520000+00:00</time>
      </trkpt>
      <trkpt lat="47.32775" lon="-1.27261">
        <ele>74</ele>
        <time>2020-12-06T08:57:20.511000+00:00</time>
      </trkpt>
      <trkpt lat="0" lon="0">
        <time>2020-12-06T08:57:20.514000+00:00</time>
      </trkpt>
      <trkpt lat="0" lon="0">
        <time>2020-12-06T08:57:20.524000+00:00</time>
      </trkpt>
      <trkpt lat="0" lon="0">
        <time>2020-12-06T08:57:20.530000+00:00</time>
      </trkpt>
      <trkpt lat="47.32772" lon="-1.27258">
        <ele>74</ele>
        <time>2020-12-06T08:57:21.449000+00:00</time>
      </trkpt>
      <trkpt lat="0" lon="0">
        <time>2020-12-06T08:57:21.455000+00:00</time>
      </trkpt>
      <trkpt lat="0" lon="0">
        <time>2020-12-06T08:57:21.462000+00:00</time>
      </trkpt>
      <trkpt lat="0" lon="0">
        <time>2020-12-06T08:57:21.471000+00:00</time>
      </trkpt>
      <trkpt lat="47.32769" lon="-1.27255">
        <ele>74</ele>
        <time>2020-12-06T08:57:22.535000+00:00</time>
      </trkpt>
      <trkpt lat="0" lon="0">
        <time>2020-12-06T08:57:22.546000+00:00</time>
      </trkpt>
      <trkpt lat="0" lon="0">
        <time>2020-12-06T08:57:22.549000+00:00</time>
      </trkpt>
      <trkpt lat="0" lon="0">
        <time>2020-12-06T08:57:22.552000+00:00</time>
      </trkpt>
      <trkpt lat="47.32765" lon="-1.27252">
        <ele>74</ele>
        <time>2020-12-06T08:57:23.522000+00:00</time>
      </trkpt>
      <trkpt lat="0" lon="0">
        <time>2020-12-06T08:57:23.533000+00:00</time>
      </trkpt>
      <trkpt lat="0" lon="0">
        <time>2020-12-06T08:57:23.543000+00:00</time>
      </trkpt>
      <trkpt lat="0" lon="0">
        <time>2020-12-06T08:57:23.545000+00:00</time>
      </trkpt>
      <trkpt lat="47.32762" lon="-1.2725">
        <ele>74</ele>
        <time>2020-12-06T08:57:24.506000+00:00</time>
      </trkpt>
      <trkpt lat="0" lon="0">
        <time>2020-12-06T08:57:24.513000+00:00</time>
      </trkpt>
      <trkpt lat="0" lon="0">
        <time>2020-12-06T08:57:24.519000+00:00</time>
      </trkpt>
      <trkpt lat="0" lon="0">
        <time>2020-12-06T08:57:24.521000+00:00</time>
      </trkpt>
      <trkpt lat="47.32758" lon="-1.27248">
        <ele>74</ele>
        <time>2020-12-06T08:57:25.508000+00:00</time>
      </trkpt>
      <trkpt lat="0" lon="0">
        <time>2020-12-06T08:57:25.516000+00:00</time>
      </trkpt>
      <trkpt lat="0" lon="0">
        <time>2020-12-06T08:57:25.524000+00:00</time>
      </trkpt>
      <trkpt lat="0" lon="0">
        <time>2020-12-06T08:57:25.530000+00:00</time>
      </trkpt>
      <trkpt lat="47.32754" lon="-1.27246">
        <ele>74</ele>
        <time>2020-12-06T08:57:26.522000+00:00</time>
      </trkpt>
      <trkpt lat="0" lon="0">
        <time>2020-12-06T08:57:26.534000+00:00</time>
      </trkpt>
      <trkpt lat="0" lon="0">
        <time>2020-12-06T08:57:26.544000+00:00</time>
      </trkpt>
      <trkpt lat="0" lon="0">
        <time>2020-12-06T08:57:26.552000+00:00</time>
      </trkpt>
      <trkpt lat="47.32751" lon="-1.27245">
        <ele>74</ele>
        <time>2020-12-06T08:57:27.508000+00:00</time>
      </trkpt>
      <trkpt lat="0" lon="0">
        <time>2020-12-06T08:57:27.518000+00:00</time>
      </trkpt>
      <trkpt lat="0" lon="0">
        <time>2020-12-06T08:57:27.524000+00:00</time>
      </trkpt>
      <trkpt lat="0" lon="0">
        <time>2020-12-06T08:57:27.526000+00:00</time>
      </trkpt>
      <trkpt lat="47.32747" lon="-1.27245">
        <ele>75</ele>
        <time>2020-12-06T08:57:28.494000+00:00</time>
      </trkpt>
      <trkpt lat="0" lon="0">
        <time>2020-12-06T08:57:28.502000+00:00</time>
      </trkpt>
      <trkpt lat="0" lon="0">
        <time>2020-12-06T08:57:28.508000+00:00</time>
      </trkpt>
      <trkpt lat="0" lon="0">
        <time>2020-12-06T08:57:28.511000+00:00</time>
      </trkpt>
      <trkpt lat="47.32743" lon="-1.27245">
        <ele>75</ele>
        <time>2020-12-06T08:57:29.493000+00:00</time>
      </trkpt>
      <trkpt lat="0" lon="0">
        <time>2020-12-06T08:57:29.507000+00:00</time>
      </trkpt>
      <trkpt lat="0" lon="0">
        <time>2020-12-06T08:57:29.512000+00:00</time>
      </trkpt>
      <trkpt lat="0" lon="0">
        <time>2020-12-06T08:57:29.514000+00:00</time>
      </trkpt>
      <trkpt lat="47.32739" lon="-1.27245">
        <ele>75</ele>
        <time>2020-12-06T08:57:30.528000+00:00</time>
      </trkpt>
      <trkpt lat="0" lon="0">
        <time>2020-12-06T08:57:30.536000+00:00</time>
      </trkpt>
      <trkpt lat="0" lon="0">
        <time>2020-12-06T08:57:30.539000+00:00</time>
      </trkpt>
      <trkpt lat="0" lon="0">
        <time>2020-12-06T08:57:30.541000+00:00</time>
      </trkpt>
      <trkpt lat="47.32736" lon="-1.27247">
        <ele>75</ele>
        <time>2020-12-06T08:57:31.497000+00:00</time>
      </trkpt>
      <trkpt lat="0" lon="0">
        <time>2020-12-06T08:57:31.509000+00:00</time>
      </trkpt>
      <trkpt lat="0" lon="0">
        <time>2020-12-06T08:57:31.523000+00:00</time>
      </trkpt>
      <trkpt lat="0" lon="0">
        <time>2020-12-06T08:57:31.526000+00:00</time>
      </trkpt>
      <trkpt lat="47.32732" lon="-1.27249">
        <ele>75</ele>
        <time>2020-12-06T08:57:32.509000+00:00</time>
      </trkpt>
      <trkpt lat="0" lon="0">
        <time>2020-12-06T08:57:32.513000+00:00</time>
      </trkpt>
      <trkpt lat="0" lon="0">
        <time>2020-12-06T08:57:32.521000+00:00</time>
      </trkpt>
      <trkpt lat="0" lon="0">
        <time>2020-12-06T08:57:32.523000+00:00</time>
      </trkpt>
      <trkpt lat="47.32729" lon="-1.27252">
        <ele>75</ele>
        <time>2020-12-06T08:57:33.499000+00:00</time>
      </trkpt>
      <trkpt lat="0" lon="0">
        <time>2020-12-06T08:57:33.510000+00:00</time>
      </trkpt>
      <trkpt lat="0" lon="0">
        <time>2020-12-06T08:57:33.514000+00:00</time>
      </trkpt>
      <trkpt lat="0" lon="0">
        <time>2020-12-06T08:57:33.521000+00:00</time>
      </trkpt>
      <trkpt lat="47.32726" lon="-1.27255">
        <ele>75</ele>
        <time>2020-12-06T08:57:34.531000+00:00</time>
      </trkpt>
      <trkpt lat="0" lon="0">
        <time>2020-12-06T08:57:34.542000+00:00</time>
      </trkpt>
      <trkpt lat="0" lon="0">
        <time>2020-12-06T08:57:34.550000+00:00</time>
      </trkpt>
      <trkpt lat="0" lon="0">
        <time>2020-12-06T08:57:34.552000+00:00</time>
      </trkpt>
      <trkpt lat="47.32723" lon="-1.2726">
        <ele>76</ele>
        <time>2020-12-06T08:57:35.510000+00:00</time>
      </trkpt>
      <trkpt lat="0" lon="0">
        <time>2020-12-06T08:57:35.517000+00:00</time>
      </trkpt>
      <trkpt lat="0" lon="0">
        <time>2020-12-06T08:57:35.521000+00:00</time>
      </trkpt>
      <trkpt lat="0" lon="0">
        <time>2020-12-06T08:57:35.525000+00:00</time>
      </trkpt>
      <trkpt lat="47.32721" lon="-1.27265">
        <ele>76</ele>
        <time>2020-12-06T08:57:36.540000+00:00</time>
      </trkpt>
      <trkpt lat="0" lon="0">
        <time>2020-12-06T08:57:36.543000+00:00</time>
      </trkpt>
      <trkpt lat="0" lon="0">
        <time>2020-12-06T08:57:36.552000+00:00</time>
      </trkpt>
      <trkpt lat="0" lon="0">
        <time>2020-12-06T08:57:36.554000+00:00</time>
      </trkpt>
      <trkpt lat="47.32718" lon="-1.2727">
        <ele>76</ele>
        <time>2020-12-06T08:57:37.498000+00:00</time>
      </trkpt>
      <trkpt lat="0" lon="0">
        <time>2020-12-06T08:57:37.512000+00:00</time>
      </trkpt>
      <trkpt lat="0" lon="0">
        <time>2020-12-06T08:57:37.515000+00:00</time>
      </trkpt>
      <trkpt lat="0" lon="0">
        <time>2020-12-06T08:57:37.516000+00:00</time>
      </trkpt>
      <trkpt lat="47.32716" lon="-1.27276">
        <ele>76</ele>
        <time>2020-12-06T08:57:38.510000+00:00</time>
      </trkpt>
      <trkpt lat="0" lon="0">
        <time>2020-12-06T08:57:38.520000+00:00</time>
      </trkpt>
      <trkpt lat="0" lon="0">
        <time>2020-12-06T08:57:38.524000+00:00</time>
      </trkpt>
      <trkpt lat="0" lon="0">
        <time>2020-12-06T08:57:38.529000+00:00</time>
      </trkpt>
      <trkpt lat="47.32714" lon="-1.27282">
        <ele>77</ele>
        <time>2020-12-06T08:57:39.533000+00:00</time>
      </trkpt>
      <trkpt lat="0" lon="0">
        <time>2020-12-06T08:57:39.536000+00:00</time>
      </trkpt>
      <trkpt lat="0" lon="0">
        <time>2020-12-06T08:57:39.545000+00:00</time>
      </trkpt>
      <trkpt lat="0" lon="0">
        <time>2020-12-06T08:57:39.546000+00:00</time>
      </trkpt>
      <trkpt lat="47.32712" lon="-1.27288">
        <ele>77</ele>
        <time>2020-12-06T08:57:40.525000+00:00</time>
      </trkpt>
      <trkpt lat="0" lon="0">
        <time>2020-12-06T08:57:40.533000+00:00</time>
      </trkpt>
      <trkpt lat="0" lon="0">
        <time>2020-12-06T08:57:40.535000+00:00</time>
      </trkpt>
      <trkpt lat="0" lon="0">
        <time>2020-12-06T08:57:40.536000+00:00</time>
      </trkpt>
      <trkpt lat="47.3271" lon="-1.27294">
        <ele>77</ele>
        <time>2020-12-06T08:57:41.531000+00:00</time>
      </trkpt>
      <trkpt lat="0" lon="0">
        <time>2020-12-06T08:57:41.534000+00:00</time>
      </trkpt>
      <trkpt lat="0" lon="0">
        <time>2020-12-06T08:57:41.539000+00:00</time>
      </trkpt>
      <trkpt lat="0" lon="0">
        <time>2020-12-06T08:57:41.541000+00:00</time>
      </trkpt>
      <trkpt lat="47.32708" lon="-1.27299">
        <ele>77</ele>
        <time>2020-12-06T08:57:42.509000+00:00</time>
      </trkpt>
      <trkpt lat="0" lon="0">
        <time>2020-12-06T08:57:42.517000+00:00</time>
      </trkpt>
      <trkpt lat="0" lon="0">
        <time>2020-12-06T08:57:42.520000+00:00</time>
      </trkpt>
      <trkpt lat="0" lon="0">
        <time>2020-12-06T08:57:42.522000+00:00</time>
      </trkpt>
      <trkpt lat="47.32706" lon="-1.27304">
        <ele>77</ele>
        <time>2020-12-06T08:57:43.522000+00:00</time>
      </trkpt>
      <trkpt lat="0" lon="0">
        <time>2020-12-06T08:57:43.529000+00:00</time>
      </trkpt>
      <trkpt lat="0" lon="0">
        <time>2020-12-06T08:57:43.536000+00:00</time>
      </trkpt>
      <trkpt lat="0" lon="0">
        <time>2020-12-06T08:57:43.540000+00:00</time>
      </trkpt>
      <trkpt lat="47.32704" lon="-1.27309">
        <ele>78</ele>
        <time>2020-12-06T08:57:44.532000+00:00</time>
      </trkpt>
      <trkpt lat="0" lon="0">
        <time>2020-12-06T08:57:44.544000+00:00</time>
      </trkpt>
      <trkpt lat="0" lon="0">
        <time>2020-12-06T08:57:44.555000+00:00</time>
      </trkpt>
      <trkpt lat="0" lon="0">
        <time>2020-12-06T08:57:44.557000+00:00</time>
      </trkpt>
      <trkpt lat="47.32702" lon="-1.27312">
        <ele>78</ele>
        <time>2020-12-06T08:57:45.499000+00:00</time>
      </trkpt>
      <trkpt lat="0" lon="0">
        <time>2020-12-06T08:57:45.502000+00:00</time>
      </trkpt>
      <trkpt lat="0" lon="0">
        <time>2020-12-06T08:57:45.515000+00:00</time>
      </trkpt>
      <trkpt lat="0" lon="0">
        <time>2020-12-06T08:57:45.517000+00:00</time>
      </trkpt>
      <trkpt lat="47.32699" lon="-1.27316">
        <ele>78</ele>
        <time>2020-12-06T08:57:46.517000+00:00</time>
      </trkpt>
      <trkpt lat="0" lon="0">
        <time>2020-12-06T08:57:46.533000+00:00</time>
      </trkpt>
      <trkpt lat="0" lon="0">
        <time>2020-12-06T08:57:46.541000+00:00</time>
      </trkpt>
      <trkpt lat="0" lon="0">
        <time>2020-12-06T08:57:46.545000+00:00</time>
      </trkpt>
      <trkpt lat="47.32696" lon="-1.27318">
        <ele>78</ele>
        <time>2020-12-06T08:57:47.521000+00:00</time>
      </trkpt>
      <trkpt lat="0" lon="0">
        <time>2020-12-06T08:57:47.529000+00:00</time>
      </trkpt>
      <trkpt lat="0" lon="0">
        <time>2020-12-06T08:57:47.531000+00:00</time>
      </trkpt>
      <trkpt lat="0" lon="0">
        <time>2020-12-06T08:57:47.533000+00:00</time>
      </trkpt>
      <trkpt lat="47.32693" lon="-1.2732">
        <ele>78</ele>
        <time>2020-12-06T08:57:48.515000+00:00</time>
      </trkpt>
      <trkpt lat="0" lon="0">
        <time>2020-12-06T08:57:48.523000+00:00</time>
      </trkpt>
      <trkpt lat="0" lon="0">
        <time>2020-12-06T08:57:48.525000+00:00</time>
      </trkpt>
      <trkpt lat="0" lon="0">
        <time>2020-12-06T08:57:48.526000+00:00</time>
      </trkpt>
      <trkpt lat="47.3269" lon="-1.27322">
        <ele>78</ele>
        <time>2020-12-06T08:57:49.534000+00:00</time>
      </trkpt>
      <trkpt lat="0" lon="0">
        <time>2020-12-06T08:57:49.546000+00:00</time>
      </trkpt>
      <trkpt lat="0" lon="0">
        <time>2020-12-06T08:57:49.552000+00:00</time>
      </trkpt>
      <trkpt lat="0" lon="0">
        <time>2020-12-06T08:57:49.554000+00:00</time>
      </trkpt>
      <trkpt lat="47.32686" lon="-1.27324">
        <ele>79</ele>
        <time>2020-12-06T08:57:50.520000+00:00</time>
      </trkpt>
      <trkpt lat="0" lon="0">
        <time>2020-12-06T08:57:50.529000+00:00</time>
      </trkpt>
      <trkpt lat="0" lon="0">
        <time>2020-12-06T08:57:50.539000+00:00</time>
      </trkpt>
      <trkpt lat="0" lon="0">
        <time>2020-12-06T08:57:50.541000+00:00</time>
      </trkpt>
      <trkpt lat="47.32683" lon="-1.27325">
        <ele>79</ele>
        <time>2020-12-06T08:57:51.521000+00:00</time>
      </trkpt>
      <trkpt lat="0" lon="0">
        <time>2020-12-06T08:57:51.537000+00:00</time>
      </trkpt>
      <trkpt lat="0" lon="0">
        <time>2020-12-06T08:57:51.540000+00:00</time>
      </trkpt>
      <trkpt lat="0" lon="0">
        <time>2020-12-06T08:57:51.542000+00:00</time>
      </trkpt>
      <trkpt lat="47.32679" lon="-1.27325">
        <ele>79</ele>
        <time>2020-12-06T08:57:52.530000+00:00</time>
      </trkpt>
      <trkpt lat="0" lon="0">
        <time>2020-12-06T08:57:52.536000+00:00</time>
      </trkpt>
      <trkpt lat="0" lon="0">
        <time>2020-12-06T08:57:52.550000+00:00</time>
      </trkpt>
      <trkpt lat="0" lon="0">
        <time>2020-12-06T08:57:52.551000+00:00</time>
      </trkpt>
      <trkpt lat="47.32676" lon="-1.27326">
        <ele>79</ele>
        <time>2020-12-06T08:57:53.506000+00:00</time>
      </trkpt>
      <trkpt lat="0" lon="0">
        <time>2020-12-06T08:57:53.509000+00:00</time>
      </trkpt>
      <trkpt lat="0" lon="0">
        <time>2020-12-06T08:57:53.513000+00:00</time>
      </trkpt>
      <trkpt lat="0" lon="0">
        <time>2020-12-06T08:57:53.522000+00:00</time>
      </trkpt>
      <trkpt lat="47.32672" lon="-1.27327">
        <ele>79</ele>
        <time>2020-12-06T08:57:54.518000+00:00</time>
      </trkpt>
      <trkpt lat="0" lon="0">
        <time>2020-12-06T08:57:54.529000+00:00</time>
      </trkpt>
      <trkpt lat="0" lon="0">
        <time>2020-12-06T08:57:54.531000+00:00</time>
      </trkpt>
      <trkpt lat="0" lon="0">
        <time>2020-12-06T08:57:54.532000+00:00</time>
      </trkpt>
      <trkpt lat="47.32669" lon="-1.27327">
        <ele>79</ele>
        <time>2020-12-06T08:57:55.516000+00:00</time>
      </trkpt>
      <trkpt lat="0" lon="0">
        <time>2020-12-06T08:57:55.531000+00:00</time>
      </trkpt>
      <trkpt lat="0" lon="0">
        <time>2020-12-06T08:57:55.538000+00:00</time>
      </trkpt>
      <trkpt lat="0" lon="0">
        <time>2020-12-06T08:57:55.540000+00:00</time>
      </trkpt>
      <trkpt lat="47.32666" lon="-1.27328">
        <ele>79</ele>
        <time>2020-12-06T08:57:56.502000+00:00</time>
      </trkpt>
      <trkpt lat="0" lon="0">
        <time>2020-12-06T08:57:56.508000+00:00</time>
      </trkpt>
      <trkpt lat="0" lon="0">
        <time>2020-12-06T08:57:56.517000+00:00</time>
      </trkpt>
      <trkpt lat="0" lon="0">
        <time>2020-12-06T08:57:56.519000+00:00</time>
      </trkpt>
      <trkpt lat="47.32662" lon="-1.27329">
        <ele>79</ele>
        <time>2020-12-06T08:57:57.505000+00:00</time>
      </trkpt>
      <trkpt lat="0" lon="0">
        <time>2020-12-06T08:57:57.510000+00:00</time>
      </trkpt>
      <trkpt lat="0" lon="0">
        <time>2020-12-06T08:57:57.523000+00:00</time>
      </trkpt>
      <trkpt lat="0" lon="0">
        <time>2020-12-06T08:57:57.530000+00:00</time>
      </trkpt>
      <trkpt lat="47.32659" lon="-1.27329">
        <ele>80</ele>
        <time>2020-12-06T08:57:58.538000+00:00</time>
      </trkpt>
      <trkpt lat="0" lon="0">
        <time>2020-12-06T08:57:58.548000+00:00</time>
      </trkpt>
      <trkpt lat="0" lon="0">
        <time>2020-12-06T08:57:58.550000+00:00</time>
      </trkpt>
      <trkpt lat="0" lon="0">
        <time>2020-12-06T08:57:58.551000+00:00</time>
      </trkpt>
      <trkpt lat="47.32656" lon="-1.2733">
        <ele>80</ele>
        <time>2020-12-06T08:57:59.519000+00:00</time>
      </trkpt>
      <trkpt lat="0" lon="0">
        <time>2020-12-06T08:57:59.534000+00:00</time>
      </trkpt>
      <trkpt lat="0" lon="0">
        <time>2020-12-06T08:57:59.538000+00:00</time>
      </trkpt>
      <trkpt lat="0" lon="0">
        <time>2020-12-06T08:57:59.541000+00:00</time>
      </trkpt>
      <trkpt lat="47.32652" lon="-1.27332">
        <ele>80</ele>
        <time>2020-12-06T08:58:00.513000+00:00</time>
      </trkpt>
      <trkpt lat="0" lon="0">
        <time>2020-12-06T08:58:00.537000+00:00</time>
      </trkpt>
      <trkpt lat="0" lon="0">
        <time>2020-12-06T08:58:00.541000+00:00</time>
      </trkpt>
      <trkpt lat="0" lon="0">
        <time>2020-12-06T08:58:00.542000+00:00</time>
      </trkpt>
      <trkpt lat="47.32649" lon="-1.27333">
        <ele>80</ele>
        <time>2020-12-06T08:58:01.478000+00:00</time>
      </trkpt>
      <trkpt lat="0" lon="0">
        <time>2020-12-06T08:58:01.483000+00:00</time>
      </trkpt>
      <trkpt lat="0" lon="0">
        <time>2020-12-06T08:58:01.496000+00:00</time>
      </trkpt>
      <trkpt lat="0" lon="0">
        <time>2020-12-06T08:58:01.502000+00:00</time>
      </trkpt>
      <trkpt lat="47.32646" lon="-1.27335">
        <ele>80</ele>
        <time>2020-12-06T08:58:02.504000+00:00</time>
      </trkpt>
      <trkpt lat="0" lon="0">
        <time>2020-12-06T08:58:02.507000+00:00</time>
      </trkpt>
      <trkpt lat="0" lon="0">
        <time>2020-12-06T08:58:02.510000+00:00</time>
      </trkpt>
      <trkpt lat="0" lon="0">
        <time>2020-12-06T08:58:02.516000+00:00</time>
      </trkpt>
      <trkpt lat="47.32643" lon="-1.27336">
        <ele>80</ele>
        <time>2020-12-06T08:58:03.497000+00:00</time>
      </trkpt>
      <trkpt lat="0" lon="0">
        <time>2020-12-06T08:58:03.505000+00:00</time>
      </trkpt>
      <trkpt lat="0" lon="0">
        <time>2020-12-06T08:58:03.513000+00:00</time>
      </trkpt>
      <trkpt lat="0" lon="0">
        <time>2020-12-06T08:58:03.516000+00:00</time>
      </trkpt>
      <trkpt lat="47.3264" lon="-1.27338">
        <ele>80</ele>
        <time>2020-12-06T08:58:04.506000+00:00</time>
      </trkpt>
      <trkpt lat="0" lon="0">
        <time>2020-12-06T08:58:04.522000+00:00</time>
      </trkpt>
      <trkpt lat="0" lon="0">
        <time>2020-12-06T08:58:04.530000+00:00</time>
      </trkpt>
      <trkpt lat="0" lon="0">
        <time>2020-12-06T08:58:04.532000+00:00</time>
      </trkpt>
      <trkpt lat="47.32637" lon="-1.2734">
        <ele>80</ele>
        <time>2020-12-06T08:58:05.503000+00:00</time>
      </trkpt>
      <trkpt lat="0" lon="0">
        <time>2020-12-06T08:58:05.511000+00:00</time>
      </trkpt>
      <trkpt lat="0" lon="0">
        <time>2020-12-06T08:58:05.518000+00:00</time>
      </trkpt>
      <trkpt lat="0" lon="0">
        <time>2020-12-06T08:58:05.523000+00:00</time>
      </trkpt>
      <trkpt lat="47.32634" lon="-1.27342">
        <ele>80</ele>
        <time>2020-12-06T08:58:06.535000+00:00</time>
      </trkpt>
      <trkpt lat="0" lon="0">
        <time>2020-12-06T08:58:06.546000+00:00</time>
      </trkpt>
      <trkpt lat="0" lon="0">
        <time>2020-12-06T08:58:06.555000+00:00</time>
      </trkpt>
      <trkpt lat="0" lon="0">
        <time>2020-12-06T08:58:06.557000+00:00</time>
      </trkpt>
      <trkpt lat="47.32631" lon="-1.27343">
        <ele>80</ele>
        <time>2020-12-06T08:58:07.540000+00:00</time>
      </trkpt>
      <trkpt lat="0" lon="0">
        <time>2020-12-06T08:58:07.545000+00:00</time>
      </trkpt>
      <trkpt lat="0" lon="0">
        <time>2020-12-06T08:58:07.549000+00:00</time>
      </trkpt>
      <trkpt lat="0" lon="0">
        <time>2020-12-06T08:58:07.552000+00:00</time>
      </trkpt>
      <trkpt lat="47.32628" lon="-1.27343">
        <ele>80</ele>
        <time>2020-12-06T08:58:08.505000+00:00</time>
      </trkpt>
      <trkpt lat="0" lon="0">
        <time>2020-12-06T08:58:08.521000+00:00</time>
      </trkpt>
      <trkpt lat="0" lon="0">
        <time>2020-12-06T08:58:08.523000+00:00</time>
      </trkpt>
      <trkpt lat="0" lon="0">
        <time>2020-12-06T08:58:08.525000+00:00</time>
      </trkpt>
      <trkpt lat="47.32626" lon="-1.27343">
        <ele>80</ele>
        <time>2020-12-06T08:58:09.496000+00:00</time>
      </trkpt>
      <trkpt lat="0" lon="0">
        <time>2020-12-06T08:58:09.505000+00:00</time>
      </trkpt>
      <trkpt lat="0" lon="0">
        <time>2020-12-06T08:58:09.508000+00:00</time>
      </trkpt>
      <trkpt lat="0" lon="0">
        <time>2020-12-06T08:58:09.512000+00:00</time>
      </trkpt>
      <trkpt lat="47.32625" lon="-1.27341">
        <ele>81</ele>
        <time>2020-12-06T08:58:10.530000+00:00</time>
      </trkpt>
      <trkpt lat="0" lon="0">
        <time>2020-12-06T08:58:10.536000+00:00</time>
      </trkpt>
      <trkpt lat="0" lon="0">
        <time>2020-12-06T08:58:10.540000+00:00</time>
      </trkpt>
      <trkpt lat="0" lon="0">
        <time>2020-12-06T08:58:10.542000+00:00</time>
      </trkpt>
      <trkpt lat="47.32623" lon="-1.27338">
        <ele>81</ele>
        <time>2020-12-06T08:58:11.510000+00:00</time>
      </trkpt>
      <trkpt lat="0" lon="0">
        <time>2020-12-06T08:58:11.520000+00:00</time>
      </trkpt>
      <trkpt lat="0" lon="0">
        <time>2020-12-06T08:58:11.522000+00:00</time>
      </trkpt>
      <trkpt lat="0" lon="0">
        <time>2020-12-06T08:58:11.523000+00:00</time>
      </trkpt>
      <trkpt lat="47.32622" lon="-1.27335">
        <ele>81</ele>
        <time>2020-12-06T08:58:12.506000+00:00</time>
      </trkpt>
      <trkpt lat="0" lon="0">
        <time>2020-12-06T08:58:12.510000+00:00</time>
      </trkpt>
      <trkpt lat="0" lon="0">
        <time>2020-12-06T08:58:12.526000+00:00</time>
      </trkpt>
      <trkpt lat="0" lon="0">
        <time>2020-12-06T08:58:12.528000+00:00</time>
      </trkpt>
      <trkpt lat="47.32621" lon="-1.27331">
        <ele>81</ele>
        <time>2020-12-06T08:58:13.511000+00:00</time>
      </trkpt>
      <trkpt lat="0" lon="0">
        <time>2020-12-06T08:58:13.513000+00:00</time>
      </trkpt>
      <trkpt lat="0" lon="0">
        <time>2020-12-06T08:58:13.514000+00:00</time>
      </trkpt>
      <trkpt lat="0" lon="0">
        <time>2020-12-06T08:58:13.515000+00:00</time>
      </trkpt>
      <trkpt lat="47.32621" lon="-1.27326">
        <ele>80</ele>
        <time>2020-12-06T08:58:14.537000+00:00</time>
      </trkpt>
      <trkpt lat="0" lon="0">
        <time>2020-12-06T08:58:14.544000+00:00</time>
      </trkpt>
      <trkpt lat="0" lon="0">
        <time>2020-12-06T08:58:14.547000+00:00</time>
      </trkpt>
      <trkpt lat="0" lon="0">
        <time>2020-12-06T08:58:14.550000+00:00</time>
      </trkpt>
      <trkpt lat="47.32621" lon="-1.2732">
        <ele>80</ele>
        <time>2020-12-06T08:58:15.522000+00:00</time>
      </trkpt>
      <trkpt lat="0" lon="0">
        <time>2020-12-06T08:58:15.529000+00:00</time>
      </trkpt>
      <trkpt lat="0" lon="0">
        <time>2020-12-06T08:58:15.545000+00:00</time>
      </trkpt>
      <trkpt lat="0" lon="0">
        <time>2020-12-06T08:58:15.547000+00:00</time>
      </trkpt>
      <trkpt lat="47.32621" lon="-1.27313">
        <ele>80</ele>
        <time>2020-12-06T08:58:16.524000+00:00</time>
      </trkpt>
      <trkpt lat="0" lon="0">
        <time>2020-12-06T08:58:16.531000+00:00</time>
      </trkpt>
      <trkpt lat="0" lon="0">
        <time>2020-12-06T08:58:16.532000+00:00</time>
      </trkpt>
      <trkpt lat="0" lon="0">
        <time>2020-12-06T08:58:16.533000+00:00</time>
      </trkpt>
      <trkpt lat="47.32622" lon="-1.27306">
        <ele>80</ele>
        <time>2020-12-06T08:58:17.511000+00:00</time>
      </trkpt>
      <trkpt lat="0" lon="0">
        <time>2020-12-06T08:58:17.517000+00:00</time>
      </trkpt>
      <trkpt lat="0" lon="0">
        <time>2020-12-06T08:58:17.520000+00:00</time>
      </trkpt>
      <trkpt lat="0" lon="0">
        <time>2020-12-06T08:58:17.526000+00:00</time>
      </trkpt>
      <trkpt lat="47.32622" lon="-1.27298">
        <ele>80</ele>
        <time>2020-12-06T08:58:18.540000+00:00</time>
      </trkpt>
      <trkpt lat="0" lon="0">
        <time>2020-12-06T08:58:18.545000+00:00</time>
      </trkpt>
      <trkpt lat="0" lon="0">
        <time>2020-12-06T08:58:18.547000+00:00</time>
      </trkpt>
      <trkpt lat="0" lon="0">
        <time>2020-12-06T08:58:18.548000+00:00</time>
      </trkpt>
      <trkpt lat="47.32623" lon="-1.2729">
        <ele>80</ele>
        <time>2020-12-06T08:58:19.525000+00:00</time>
      </trkpt>
      <trkpt lat="0" lon="0">
        <time>2020-12-06T08:58:19.529000+00:00</time>
      </trkpt>
      <trkpt lat="0" lon="0">
        <time>2020-12-06T08:58:19.533000+00:00</time>
      </trkpt>
      <trkpt lat="0" lon="0">
        <time>2020-12-06T08:58:19.534000+00:00</time>
      </trkpt>
      <trkpt lat="47.32624" lon="-1.27282">
        <ele>80</ele>
        <time>2020-12-06T08:58:20.525000+00:00</time>
      </trkpt>
      <trkpt lat="0" lon="0">
        <time>2020-12-06T08:58:20.533000+00:00</time>
      </trkpt>
      <trkpt lat="0" lon="0">
        <time>2020-12-06T08:58:20.537000+00:00</time>
      </trkpt>
      <trkpt lat="47.32625" lon="-1.27273">
        <ele>79</ele>
        <time>2020-12-06T08:58:21.535000+00:00</time>
      </trkpt>
      <trkpt lat="0" lon="0">
        <time>2020-12-06T08:58:21.538000+00:00</time>
      </trkpt>
      <trkpt lat="0" lon="0">
        <time>2020-12-06T08:58:21.547000+00:00</time>
      </trkpt>
      <trkpt lat="0" lon="0">
        <time>2020-12-06T08:58:21.548000+00:00</time>
      </trkpt>
      <trkpt lat="47.32626" lon="-1.27265">
        <ele>79</ele>
        <time>2020-12-06T08:58:22.513000+00:00</time>
      </trkpt>
      <trkpt lat="0" lon="0">
        <time>2020-12-06T08:58:22.516000+00:00</time>
      </trkpt>
      <trkpt lat="0" lon="0">
        <time>2020-12-06T08:58:22.532000+00:00</time>
      </trkpt>
      <trkpt lat="0" lon="0">
        <time>2020-12-06T08:58:22.534000+00:00</time>
      </trkpt>
      <trkpt lat="47.32627" lon="-1.27256">
        <ele>79</ele>
        <time>2020-12-06T08:58:23.508000+00:00</time>
      </trkpt>
      <trkpt lat="0" lon="0">
        <time>2020-12-06T08:58:23.512000+00:00</time>
      </trkpt>
      <trkpt lat="0" lon="0">
        <time>2020-12-06T08:58:23.515000+00:00</time>
      </trkpt>
      <trkpt lat="0" lon="0">
        <time>2020-12-06T08:58:23.520000+00:00</time>
      </trkpt>
      <trkpt lat="47.32628" lon="-1.27246">
        <ele>79</ele>
        <time>2020-12-06T08:58:24.514000+00:00</time>
      </trkpt>
      <trkpt lat="0" lon="0">
        <time>2020-12-06T08:58:24.517000+00:00</time>
      </trkpt>
      <trkpt lat="0" lon="0">
        <time>2020-12-06T08:58:24.525000+00:00</time>
      </trkpt>
      <trkpt lat="0" lon="0">
        <time>2020-12-06T08:58:24.527000+00:00</time>
      </trkpt>
      <trkpt lat="47.32629" lon="-1.27237">
        <ele>79</ele>
        <time>2020-12-06T08:58:25.502000+00:00</time>
      </trkpt>
      <trkpt lat="0" lon="0">
        <time>2020-12-06T08:58:25.509000+00:00</time>
      </trkpt>
      <trkpt lat="0" lon="0">
        <time>2020-12-06T08:58:25.510000+00:00</time>
      </trkpt>
      <trkpt lat="0" lon="0">
        <time>2020-12-06T08:58:25.511000+00:00</time>
      </trkpt>
      <trkpt lat="47.32631" lon="-1.27227">
        <ele>79</ele>
        <time>2020-12-06T08:58:26.549000+00:00</time>
      </trkpt>
      <trkpt lat="0" lon="0">
        <time>2020-12-06T08:58:26.561000+00:00</time>
      </trkpt>
      <trkpt lat="0" lon="0">
        <time>2020-12-06T08:58:26.567000+00:00</time>
      </trkpt>
      <trkpt lat="0" lon="0">
        <time>2020-12-06T08:58:26.574000+00:00</time>
      </trkpt>
      <trkpt lat="47.32632" lon="-1.27218">
        <ele>79</ele>
        <time>2020-12-06T08:58:27.512000+00:00</time>
      </trkpt>
      <trkpt lat="0" lon="0">
        <time>2020-12-06T08:58:27.516000+00:00</time>
      </trkpt>
      <trkpt lat="0" lon="0">
        <time>2020-12-06T08:58:27.519000+00:00</time>
      </trkpt>
      <trkpt lat="0" lon="0">
        <time>2020-12-06T08:58:27.520000+00:00</time>
      </trkpt>
      <trkpt lat="47.32634" lon="-1.27208">
        <ele>78</ele>
        <time>2020-12-06T08:58:28.509000+00:00</time>
      </trkpt>
      <trkpt lat="0" lon="0">
        <time>2020-12-06T08:58:28.517000+00:00</time>
      </trkpt>
      <trkpt lat="0" lon="0">
        <time>2020-12-06T08:58:28.519000+00:00</time>
      </trkpt>
      <trkpt lat="0" lon="0">
        <time>2020-12-06T08:58:28.520000+00:00</time>
      </trkpt>
      <trkpt lat="47.32636" lon="-1.27199">
        <ele>78</ele>
        <time>2020-12-06T08:58:29.520000+00:00</time>
      </trkpt>
      <trkpt lat="0" lon="0">
        <time>2020-12-06T08:58:29.525000+00:00</time>
      </trkpt>
      <trkpt lat="0" lon="0">
        <time>2020-12-06T08:58:29.528000+00:00</time>
      </trkpt>
      <trkpt lat="0" lon="0">
        <time>2020-12-06T08:58:29.536000+00:00</time>
      </trkpt>
      <trkpt lat="47.32638" lon="-1.27189">
        <ele>78</ele>
        <time>2020-12-06T08:58:30.507000+00:00</time>
      </trkpt>
      <trkpt lat="0" lon="0">
        <time>2020-12-06T08:58:30.520000+00:00</time>
      </trkpt>
      <trkpt lat="0" lon="0">
        <time>2020-12-06T08:58:30.522000+00:00</time>
      </trkpt>
      <trkpt lat="0" lon="0">
        <time>2020-12-06T08:58:30.526000+00:00</time>
      </trkpt>
      <trkpt lat="47.32639" lon="-1.2718">
        <ele>78</ele>
        <time>2020-12-06T08:58:31.528000+00:00</time>
      </trkpt>
      <trkpt lat="0" lon="0">
        <time>2020-12-06T08:58:31.533000+00:00</time>
      </trkpt>
      <trkpt lat="0" lon="0">
        <time>2020-12-06T08:58:31.537000+00:00</time>
      </trkpt>
      <trkpt lat="0" lon="0">
        <time>2020-12-06T08:58:31.539000+00:00</time>
      </trkpt>
      <trkpt lat="47.3264" lon="-1.27171">
        <ele>78</ele>
        <time>2020-12-06T08:58:32.529000+00:00</time>
      </trkpt>
      <trkpt lat="0" lon="0">
        <time>2020-12-06T08:58:32.540000+00:00</time>
      </trkpt>
      <trkpt lat="0" lon="0">
        <time>2020-12-06T08:58:32.546000+00:00</time>
      </trkpt>
      <trkpt lat="0" lon="0">
        <time>2020-12-06T08:58:32.548000+00:00</time>
      </trkpt>
      <trkpt lat="47.32642" lon="-1.27162">
        <ele>78</ele>
        <time>2020-12-06T08:58:33.528000+00:00</time>
      </trkpt>
      <trkpt lat="0" lon="0">
        <time>2020-12-06T08:58:33.537000+00:00</time>
      </trkpt>
      <trkpt lat="0" lon="0">
        <time>2020-12-06T08:58:33.538000+00:00</time>
      </trkpt>
      <trkpt lat="0" lon="0">
        <time>2020-12-06T08:58:33.539000+00:00</time>
      </trkpt>
      <trkpt lat="47.32643" lon="-1.27153">
        <ele>78</ele>
        <time>2020-12-06T08:58:34.522000+00:00</time>
      </trkpt>
      <trkpt lat="0" lon="0">
        <time>2020-12-06T08:58:34.529000+00:00</time>
      </trkpt>
      <trkpt lat="0" lon="0">
        <time>2020-12-06T08:58:34.531000+00:00</time>
      </trkpt>
      <trkpt lat="0" lon="0">
        <time>2020-12-06T08:58:34.532000+00:00</time>
      </trkpt>
      <trkpt lat="47.32645" lon="-1.27145">
        <ele>78</ele>
        <time>2020-12-06T08:58:35.532000+00:00</time>
      </trkpt>
      <trkpt lat="0" lon="0">
        <time>2020-12-06T08:58:35.538000+00:00</time>
      </trkpt>
      <trkpt lat="0" lon="0">
        <time>2020-12-06T08:58:35.549000+00:00</time>
      </trkpt>
      <trkpt lat="0" lon="0">
        <time>2020-12-06T08:58:35.553000+00:00</time>
      </trkpt>
      <trkpt lat="47.32646" lon="-1.27136">
        <ele>78</ele>
        <time>2020-12-06T08:58:36.538000+00:00</time>
      </trkpt>
      <trkpt lat="0" lon="0">
        <time>2020-12-06T08:58:36.541000+00:00</time>
      </trkpt>
      <trkpt lat="0" lon="0">
        <time>2020-12-06T08:58:36.560000+00:00</time>
      </trkpt>
      <trkpt lat="0" lon="0">
        <time>2020-12-06T08:58:36.564000+00:00</time>
      </trkpt>
      <trkpt lat="47.32648" lon="-1.27128">
        <ele>78</ele>
        <time>2020-12-06T08:58:37.537000+00:00</time>
      </trkpt>
      <trkpt lat="0" lon="0">
        <time>2020-12-06T08:58:37.539000+00:00</time>
      </trkpt>
      <trkpt lat="0" lon="0">
        <time>2020-12-06T08:58:37.541000+00:00</time>
      </trkpt>
      <trkpt lat="0" lon="0">
        <time>2020-12-06T08:58:37.546000+00:00</time>
      </trkpt>
      <trkpt lat="47.3265" lon="-1.2712">
        <ele>78</ele>
        <time>2020-12-06T08:58:38.515000+00:00</time>
      </trkpt>
      <trkpt lat="0" lon="0">
        <time>2020-12-06T08:58:38.524000+00:00</time>
      </trkpt>
      <trkpt lat="0" lon="0">
        <time>2020-12-06T08:58:38.526000+00:00</time>
      </trkpt>
      <trkpt lat="0" lon="0">
        <time>2020-12-06T08:58:38.528000+00:00</time>
      </trkpt>
      <trkpt lat="47.32652" lon="-1.27113">
        <ele>78</ele>
        <time>2020-12-06T08:58:39.526000+00:00</time>
      </trkpt>
      <trkpt lat="0" lon="0">
        <time>2020-12-06T08:58:39.533000+00:00</time>
      </trkpt>
      <trkpt lat="0" lon="0">
        <time>2020-12-06T08:58:39.542000+00:00</time>
      </trkpt>
      <trkpt lat="0" lon="0">
        <time>2020-12-06T08:58:39.544000+00:00</time>
      </trkpt>
      <trkpt lat="47.32654" lon="-1.27106">
        <ele>78</ele>
        <time>2020-12-06T08:58:40.519000+00:00</time>
      </trkpt>
      <trkpt lat="0" lon="0">
        <time>2020-12-06T08:58:40.535000+00:00</time>
      </trkpt>
      <trkpt lat="0" lon="0">
        <time>2020-12-06T08:58:40.539000+00:00</time>
      </trkpt>
      <trkpt lat="0" lon="0">
        <time>2020-12-06T08:58:40.545000+00:00</time>
      </trkpt>
      <trkpt lat="47.32657" lon="-1.27099">
        <ele>78</ele>
        <time>2020-12-06T08:58:41.556000+00:00</time>
      </trkpt>
      <trkpt lat="0" lon="0">
        <time>2020-12-06T08:58:41.557000+00:00</time>
      </trkpt>
      <trkpt lat="0" lon="0">
        <time>2020-12-06T08:58:41.558000+00:00</time>
      </trkpt>
      <trkpt lat="0" lon="0">
        <time>2020-12-06T08:58:41.559000+00:00</time>
      </trkpt>
      <trkpt lat="47.3266" lon="-1.27092">
        <ele>78</ele>
        <time>2020-12-06T08:58:42.548000+00:00</time>
      </trkpt>
      <trkpt lat="0" lon="0">
        <time>2020-12-06T08:58:42.558000+00:00</time>
      </trkpt>
      <trkpt lat="0" lon="0">
        <time>2020-12-06T08:58:42.569000+00:00</time>
      </trkpt>
      <trkpt lat="0" lon="0">
        <time>2020-12-06T08:58:42.575000+00:00</time>
      </trkpt>
      <trkpt lat="47.32663" lon="-1.27086">
        <ele>78</ele>
        <time>2020-12-06T08:58:43.531000+00:00</time>
      </trkpt>
      <trkpt lat="0" lon="0">
        <time>2020-12-06T08:58:43.544000+00:00</time>
      </trkpt>
      <trkpt lat="0" lon="0">
        <time>2020-12-06T08:58:43.548000+00:00</time>
      </trkpt>
      <trkpt lat="0" lon="0">
        <time>2020-12-06T08:58:43.550000+00:00</time>
      </trkpt>
      <trkpt lat="47.32666" lon="-1.2708">
        <ele>79</ele>
        <time>2020-12-06T08:58:44.505000+00:00</time>
      </trkpt>
      <trkpt lat="0" lon="0">
        <time>2020-12-06T08:58:44.519000+00:00</time>
      </trkpt>
      <trkpt lat="0" lon="0">
        <time>2020-12-06T08:58:44.521000+00:00</time>
      </trkpt>
      <trkpt lat="0" lon="0">
        <time>2020-12-06T08:58:44.522000+00:00</time>
      </trkpt>
      <trkpt lat="47.32669" lon="-1.27074">
        <ele>78</ele>
        <time>2020-12-06T08:58:45.526000+00:00</time>
      </trkpt>
      <trkpt lat="0" lon="0">
        <time>2020-12-06T08:58:45.529000+00:00</time>
      </trkpt>
      <trkpt lat="0" lon="0">
        <time>2020-12-06T08:58:45.530000+00:00</time>
      </trkpt>
      <trkpt lat="0" lon="0">
        <time>2020-12-06T08:58:45.531000+00:00</time>
      </trkpt>
      <trkpt lat="47.32673" lon="-1.27068">
        <ele>78</ele>
        <time>2020-12-06T08:58:46.535000+00:00</time>
      </trkpt>
      <trkpt lat="0" lon="0">
        <time>2020-12-06T08:58:46.551000+00:00</time>
      </trkpt>
      <trkpt lat="0" lon="0">
        <time>2020-12-06T08:58:46.554000+00:00</time>
      </trkpt>
      <trkpt lat="0" lon="0">
        <time>2020-12-06T08:58:46.558000+00:00</time>
      </trkpt>
      <trkpt lat="47.32677" lon="-1.27062">
        <ele>78</ele>
        <time>2020-12-06T08:58:47.531000+00:00</time>
      </trkpt>
      <trkpt lat="0" lon="0">
        <time>2020-12-06T08:58:47.535000+00:00</time>
      </trkpt>
      <trkpt lat="0" lon="0">
        <time>2020-12-06T08:58:47.540000+00:00</time>
      </trkpt>
      <trkpt lat="0" lon="0">
        <time>2020-12-06T08:58:47.545000+00:00</time>
      </trkpt>
      <trkpt lat="47.32681" lon="-1.27056">
        <ele>78</ele>
        <time>2020-12-06T08:58:48.518000+00:00</time>
      </trkpt>
      <trkpt lat="0" lon="0">
        <time>2020-12-06T08:58:48.521000+00:00</time>
      </trkpt>
      <trkpt lat="0" lon="0">
        <time>2020-12-06T08:58:48.524000+00:00</time>
      </trkpt>
      <trkpt lat="0" lon="0">
        <time>2020-12-06T08:58:48.525000+00:00</time>
      </trkpt>
      <trkpt lat="47.32685" lon="-1.2705">
        <ele>78</ele>
        <time>2020-12-06T08:58:49.533000+00:00</time>
      </trkpt>
      <trkpt lat="0" lon="0">
        <time>2020-12-06T08:58:49.536000+00:00</time>
      </trkpt>
      <trkpt lat="0" lon="0">
        <time>2020-12-06T08:58:49.545000+00:00</time>
      </trkpt>
      <trkpt lat="0" lon="0">
        <time>2020-12-06T08:58:49.546000+00:00</time>
      </trkpt>
      <trkpt lat="47.32689" lon="-1.27044">
        <ele>77</ele>
        <time>2020-12-06T08:58:50.530000+00:00</time>
      </trkpt>
      <trkpt lat="0" lon="0">
        <time>2020-12-06T08:58:50.541000+00:00</time>
      </trkpt>
      <trkpt lat="0" lon="0">
        <time>2020-12-06T08:58:50.542000+00:00</time>
      </trkpt>
      <trkpt lat="0" lon="0">
        <time>2020-12-06T08:58:50.544000+00:00</time>
      </trkpt>
      <trkpt lat="47.32694" lon="-1.27038">
        <ele>77</ele>
        <time>2020-12-06T08:58:51.489000+00:00</time>
      </trkpt>
      <trkpt lat="0" lon="0">
        <time>2020-12-06T08:58:51.495000+00:00</time>
      </trkpt>
      <trkpt lat="0" lon="0">
        <time>2020-12-06T08:58:51.504000+00:00</time>
      </trkpt>
      <trkpt lat="0" lon="0">
        <time>2020-12-06T08:58:51.508000+00:00</time>
      </trkpt>
      <trkpt lat="47.32698" lon="-1.27031">
        <ele>77</ele>
        <time>2020-12-06T08:58:52.532000+00:00</time>
      </trkpt>
      <trkpt lat="0" lon="0">
        <time>2020-12-06T08:58:52.534000+00:00</time>
      </trkpt>
      <trkpt lat="0" lon="0">
        <time>2020-12-06T08:58:52.542000+00:00</time>
      </trkpt>
      <trkpt lat="0" lon="0">
        <time>2020-12-06T08:58:52.544000+00:00</time>
      </trkpt>
      <trkpt lat="47.32702" lon="-1.27024">
        <ele>77</ele>
        <time>2020-12-06T08:58:53.513000+00:00</time>
      </trkpt>
      <trkpt lat="0" lon="0">
        <time>2020-12-06T08:58:53.520000+00:00</time>
      </trkpt>
      <trkpt lat="0" lon="0">
        <time>2020-12-06T08:58:53.537000+00:00</time>
      </trkpt>
      <trkpt lat="0" lon="0">
        <time>2020-12-06T08:58:53.544000+00:00</time>
      </trkpt>
      <trkpt lat="47.32706" lon="-1.27017">
        <ele>77</ele>
        <time>2020-12-06T08:58:54.526000+00:00</time>
      </trkpt>
      <trkpt lat="0" lon="0">
        <time>2020-12-06T08:58:54.532000+00:00</time>
      </trkpt>
      <trkpt lat="0" lon="0">
        <time>2020-12-06T08:58:54.536000+00:00</time>
      </trkpt>
      <trkpt lat="0" lon="0">
        <time>2020-12-06T08:58:54.540000+00:00</time>
      </trkpt>
      <trkpt lat="47.3271" lon="-1.2701">
        <ele>76</ele>
        <time>2020-12-06T08:58:55.506000+00:00</time>
      </trkpt>
      <trkpt lat="0" lon="0">
        <time>2020-12-06T08:58:55.517000+00:00</time>
      </trkpt>
      <trkpt lat="0" lon="0">
        <time>2020-12-06T08:58:55.519000+00:00</time>
      </trkpt>
      <trkpt lat="47.32714" lon="-1.27003">
        <ele>76</ele>
        <time>2020-12-06T08:58:56.555000+00:00</time>
      </trkpt>
      <trkpt lat="0" lon="0">
        <time>2020-12-06T08:58:56.567000+00:00</time>
      </trkpt>
      <trkpt lat="0" lon="0">
        <time>2020-12-06T08:58:56.572000+00:00</time>
      </trkpt>
      <trkpt lat="0" lon="0">
        <time>2020-12-06T08:58:56.574000+00:00</time>
      </trkpt>
      <trkpt lat="47.32717" lon="-1.26995">
        <ele>76</ele>
        <time>2020-12-06T08:58:57.508000+00:00</time>
      </trkpt>
      <trkpt lat="0" lon="0">
        <time>2020-12-06T08:58:57.519000+00:00</time>
      </trkpt>
      <trkpt lat="0" lon="0">
        <time>2020-12-06T08:58:57.522000+00:00</time>
      </trkpt>
      <trkpt lat="0" lon="0">
        <time>2020-12-06T08:58:57.524000+00:00</time>
      </trkpt>
      <trkpt lat="47.32721" lon="-1.26987">
        <ele>76</ele>
        <time>2020-12-06T08:58:58.536000+00:00</time>
      </trkpt>
      <trkpt lat="0" lon="0">
        <time>2020-12-06T08:58:58.539000+00:00</time>
      </trkpt>
      <trkpt lat="0" lon="0">
        <time>2020-12-06T08:58:58.541000+00:00</time>
      </trkpt>
      <trkpt lat="0" lon="0">
        <time>2020-12-06T08:58:58.542000+00:00</time>
      </trkpt>
      <trkpt lat="47.32725" lon="-1.26979">
        <ele>76</ele>
        <time>2020-12-06T08:58:59.562000+00:00</time>
      </trkpt>
      <trkpt lat="0" lon="0">
        <time>2020-12-06T08:58:59.566000+00:00</time>
      </trkpt>
      <trkpt lat="0" lon="0">
        <time>2020-12-06T08:58:59.577000+00:00</time>
      </trkpt>
      <trkpt lat="0" lon="0">
        <time>2020-12-06T08:58:59.579000+00:00</time>
      </trkpt>
      <trkpt lat="47.32728" lon="-1.26972">
        <ele>76</ele>
        <time>2020-12-06T08:59:00.532000+00:00</time>
      </trkpt>
      <trkpt lat="0" lon="0">
        <time>2020-12-06T08:59:00.542000+00:00</time>
      </trkpt>
      <trkpt lat="0" lon="0">
        <time>2020-12-06T08:59:00.549000+00:00</time>
      </trkpt>
      <trkpt lat="0" lon="0">
        <time>2020-12-06T08:59:00.550000+00:00</time>
      </trkpt>
      <trkpt lat="47.32732" lon="-1.26964">
        <ele>76</ele>
        <time>2020-12-06T08:59:01.544000+00:00</time>
      </trkpt>
      <trkpt lat="0" lon="0">
        <time>2020-12-06T08:59:01.548000+00:00</time>
      </trkpt>
      <trkpt lat="0" lon="0">
        <time>2020-12-06T08:59:01.552000+00:00</time>
      </trkpt>
      <trkpt lat="0" lon="0">
        <time>2020-12-06T08:59:01.554000+00:00</time>
      </trkpt>
      <trkpt lat="47.32736" lon="-1.26956">
        <ele>76</ele>
        <time>2020-12-06T08:59:02.529000+00:00</time>
      </trkpt>
      <trkpt lat="0" lon="0">
        <time>2020-12-06T08:59:02.537000+00:00</time>
      </trkpt>
      <trkpt lat="0" lon="0">
        <time>2020-12-06T08:59:02.541000+00:00</time>
      </trkpt>
      <trkpt lat="0" lon="0">
        <time>2020-12-06T08:59:02.542000+00:00</time>
      </trkpt>
      <trkpt lat="47.32739" lon="-1.26948">
        <ele>76</ele>
        <time>2020-12-06T08:59:03.510000+00:00</time>
      </trkpt>
      <trkpt lat="0" lon="0">
        <time>2020-12-06T08:59:03.521000+00:00</time>
      </trkpt>
      <trkpt lat="0" lon="0">
        <time>2020-12-06T08:59:03.534000+00:00</time>
      </trkpt>
      <trkpt lat="0" lon="0">
        <time>2020-12-06T08:59:03.536000+00:00</time>
      </trkpt>
      <trkpt lat="47.32743" lon="-1.2694">
        <ele>75</ele>
        <time>2020-12-06T08:59:04.550000+00:00</time>
      </trkpt>
      <trkpt lat="0" lon="0">
        <time>2020-12-06T08:59:04.554000+00:00</time>
      </trkpt>
      <trkpt lat="0" lon="0">
        <time>2020-12-06T08:59:04.557000+00:00</time>
      </trkpt>
      <trkpt lat="0" lon="0">
        <time>2020-12-06T08:59:04.561000+00:00</time>
      </trkpt>
      <trkpt lat="47.32747" lon="-1.26932">
        <ele>75</ele>
        <time>2020-12-06T08:59:05.547000+00:00</time>
      </trkpt>
      <trkpt lat="0" lon="0">
        <time>2020-12-06T08:59:05.560000+00:00</time>
      </trkpt>
      <trkpt lat="0" lon="0">
        <time>2020-12-06T08:59:05.565000+00:00</time>
      </trkpt>
      <trkpt lat="0" lon="0">
        <time>2020-12-06T08:59:05.570000+00:00</time>
      </trkpt>
      <trkpt lat="47.32751" lon="-1.26924">
        <ele>75</ele>
        <time>2020-12-06T08:59:06.543000+00:00</time>
      </trkpt>
      <trkpt lat="0" lon="0">
        <time>2020-12-06T08:59:06.547000+00:00</time>
      </trkpt>
      <trkpt lat="0" lon="0">
        <time>2020-12-06T08:59:06.567000+00:00</time>
      </trkpt>
      <trkpt lat="0" lon="0">
        <time>2020-12-06T08:59:06.577000+00:00</time>
      </trkpt>
      <trkpt lat="47.32755" lon="-1.26916">
        <ele>75</ele>
        <time>2020-12-06T08:59:07.560000+00:00</time>
      </trkpt>
      <trkpt lat="0" lon="0">
        <time>2020-12-06T08:59:07.568000+00:00</time>
      </trkpt>
      <trkpt lat="0" lon="0">
        <time>2020-12-06T08:59:07.572000+00:00</time>
      </trkpt>
      <trkpt lat="0" lon="0">
        <time>2020-12-06T08:59:07.574000+00:00</time>
      </trkpt>
      <trkpt lat="47.32759" lon="-1.26908">
        <ele>75</ele>
        <time>2020-12-06T08:59:08.560000+00:00</time>
      </trkpt>
      <trkpt lat="0" lon="0">
        <time>2020-12-06T08:59:08.572000+00:00</time>
      </trkpt>
      <trkpt lat="0" lon="0">
        <time>2020-12-06T08:59:08.575000+00:00</time>
      </trkpt>
      <trkpt lat="0" lon="0">
        <time>2020-12-06T08:59:08.576000+00:00</time>
      </trkpt>
      <trkpt lat="47.32763" lon="-1.26901">
        <ele>75</ele>
        <time>2020-12-06T08:59:09.512000+00:00</time>
      </trkpt>
      <trkpt lat="0" lon="0">
        <time>2020-12-06T08:59:09.517000+00:00</time>
      </trkpt>
      <trkpt lat="0" lon="0">
        <time>2020-12-06T08:59:09.518000+00:00</time>
      </trkpt>
      <trkpt lat="0" lon="0">
        <time>2020-12-06T08:59:09.519000+00:00</time>
      </trkpt>
      <trkpt lat="47.32768" lon="-1.26893">
        <ele>75</ele>
        <time>2020-12-06T08:59:10.546000+00:00</time>
      </trkpt>
      <trkpt lat="0" lon="0">
        <time>2020-12-06T08:59:10.552000+00:00</time>
      </trkpt>
      <trkpt lat="0" lon="0">
        <time>2020-12-06T08:59:10.555000+00:00</time>
      </trkpt>
      <trkpt lat="0" lon="0">
        <time>2020-12-06T08:59:10.557000+00:00</time>
      </trkpt>
      <trkpt lat="47.32772" lon="-1.26885">
        <ele>75</ele>
        <time>2020-12-06T08:59:11.525000+00:00</time>
      </trkpt>
      <trkpt lat="0" lon="0">
        <time>2020-12-06T08:59:11.530000+00:00</time>
      </trkpt>
      <trkpt lat="0" lon="0">
        <time>2020-12-06T08:59:11.546000+00:00</time>
      </trkpt>
      <trkpt lat="0" lon="0">
        <time>2020-12-06T08:59:11.549000+00:00</time>
      </trkpt>
      <trkpt lat="47.32777" lon="-1.26877">
        <ele>75</ele>
        <time>2020-12-06T08:59:12.531000+00:00</time>
      </trkpt>
      <trkpt lat="0" lon="0">
        <time>2020-12-06T08:59:12.541000+00:00</time>
      </trkpt>
      <trkpt lat="0" lon="0">
        <time>2020-12-06T08:59:12.546000+00:00</time>
      </trkpt>
      <trkpt lat="0" lon="0">
        <time>2020-12-06T08:59:12.547000+00:00</time>
      </trkpt>
      <trkpt lat="47.32781" lon="-1.26869">
        <ele>75</ele>
        <time>2020-12-06T08:59:13.536000+00:00</time>
      </trkpt>
      <trkpt lat="0" lon="0">
        <time>2020-12-06T08:59:13.538000+00:00</time>
      </trkpt>
      <trkpt lat="0" lon="0">
        <time>2020-12-06T08:59:13.539000+00:00</time>
      </trkpt>
      <trkpt lat="0" lon="0">
        <time>2020-12-06T08:59:13.540000+00:00</time>
      </trkpt>
      <trkpt lat="47.32785" lon="-1.26862">
        <ele>75</ele>
        <time>2020-12-06T08:59:14.521000+00:00</time>
      </trkpt>
      <trkpt lat="0" lon="0">
        <time>2020-12-06T08:59:14.531000+00:00</time>
      </trkpt>
      <trkpt lat="0" lon="0">
        <time>2020-12-06T08:59:14.537000+00:00</time>
      </trkpt>
      <trkpt lat="0" lon="0">
        <time>2020-12-06T08:59:14.539000+00:00</time>
      </trkpt>
      <trkpt lat="47.3279" lon="-1.26854">
        <ele>75</ele>
        <time>2020-12-06T08:59:15.513000+00:00</time>
      </trkpt>
      <trkpt lat="0" lon="0">
        <time>2020-12-06T08:59:15.514000+00:00</time>
      </trkpt>
      <trkpt lat="0" lon="0">
        <time>2020-12-06T08:59:15.516000+00:00</time>
      </trkpt>
      <trkpt lat="0" lon="0">
        <time>2020-12-06T08:59:15.523000+00:00</time>
      </trkpt>
      <trkpt lat="47.32794" lon="-1.26846">
        <ele>75</ele>
        <time>2020-12-06T08:59:16.557000+00:00</time>
      </trkpt>
      <trkpt lat="0" lon="0">
        <time>2020-12-06T08:59:16.562000+00:00</time>
      </trkpt>
      <trkpt lat="0" lon="0">
        <time>2020-12-06T08:59:16.564000+00:00</time>
      </trkpt>
      <trkpt lat="0" lon="0">
        <time>2020-12-06T08:59:16.565000+00:00</time>
      </trkpt>
      <trkpt lat="47.32798" lon="-1.26839">
        <ele>75</ele>
        <time>2020-12-06T08:59:17.501000+00:00</time>
      </trkpt>
      <trkpt lat="0" lon="0">
        <time>2020-12-06T08:59:17.504000+00:00</time>
      </trkpt>
      <trkpt lat="0" lon="0">
        <time>2020-12-06T08:59:17.507000+00:00</time>
      </trkpt>
      <trkpt lat="0" lon="0">
        <time>2020-12-06T08:59:17.513000+00:00</time>
      </trkpt>
      <trkpt lat="47.32803" lon="-1.26831">
        <ele>75</ele>
        <time>2020-12-06T08:59:18.536000+00:00</time>
      </trkpt>
      <trkpt lat="0" lon="0">
        <time>2020-12-06T08:59:18.540000+00:00</time>
      </trkpt>
      <trkpt lat="0" lon="0">
        <time>2020-12-06T08:59:18.548000+00:00</time>
      </trkpt>
      <trkpt lat="0" lon="0">
        <time>2020-12-06T08:59:18.549000+00:00</time>
      </trkpt>
      <trkpt lat="47.32807" lon="-1.26823">
        <ele>74</ele>
        <time>2020-12-06T08:59:19.523000+00:00</time>
      </trkpt>
      <trkpt lat="0" lon="0">
        <time>2020-12-06T08:59:19.529000+00:00</time>
      </trkpt>
      <trkpt lat="0" lon="0">
        <time>2020-12-06T08:59:19.533000+00:00</time>
      </trkpt>
      <trkpt lat="0" lon="0">
        <time>2020-12-06T08:59:19.537000+00:00</time>
      </trkpt>
      <trkpt lat="47.32811" lon="-1.26815">
        <ele>74</ele>
        <time>2020-12-06T08:59:20.521000+00:00</time>
      </trkpt>
      <trkpt lat="0" lon="0">
        <time>2020-12-06T08:59:20.540000+00:00</time>
      </trkpt>
      <trkpt lat="0" lon="0">
        <time>2020-12-06T08:59:20.546000+00:00</time>
      </trkpt>
      <trkpt lat="0" lon="0">
        <time>2020-12-06T08:59:20.548000+00:00</time>
      </trkpt>
      <trkpt lat="47.32815" lon="-1.26808">
        <ele>74</ele>
        <time>2020-12-06T08:59:21.509000+00:00</time>
      </trkpt>
      <trkpt lat="0" lon="0">
        <time>2020-12-06T08:59:21.518000+00:00</time>
      </trkpt>
      <trkpt lat="0" lon="0">
        <time>2020-12-06T08:59:21.522000+00:00</time>
      </trkpt>
      <trkpt lat="0" lon="0">
        <time>2020-12-06T08:59:21.524000+00:00</time>
      </trkpt>
      <trkpt lat="47.32818" lon="-1.268">
        <ele>74</ele>
        <time>2020-12-06T08:59:22.522000+00:00</time>
      </trkpt>
      <trkpt lat="0" lon="0">
        <time>2020-12-06T08:59:22.525000+00:00</time>
      </trkpt>
      <trkpt lat="0" lon="0">
        <time>2020-12-06T08:59:22.529000+00:00</time>
      </trkpt>
      <trkpt lat="0" lon="0">
        <time>2020-12-06T08:59:22.530000+00:00</time>
      </trkpt>
      <trkpt lat="47.32822" lon="-1.26791">
        <ele>73</ele>
        <time>2020-12-06T08:59:23.528000+00:00</time>
      </trkpt>
      <trkpt lat="0" lon="0">
        <time>2020-12-06T08:59:23.539000+00:00</time>
      </trkpt>
      <trkpt lat="0" lon="0">
        <time>2020-12-06T08:59:23.544000+00:00</time>
      </trkpt>
      <trkpt lat="0" lon="0">
        <time>2020-12-06T08:59:23.546000+00:00</time>
      </trkpt>
      <trkpt lat="47.32825" lon="-1.26783">
        <ele>73</ele>
        <time>2020-12-06T08:59:24.527000+00:00</time>
      </trkpt>
      <trkpt lat="0" lon="0">
        <time>2020-12-06T08:59:24.533000+00:00</time>
      </trkpt>
      <trkpt lat="0" lon="0">
        <time>2020-12-06T08:59:24.537000+00:00</time>
      </trkpt>
      <trkpt lat="0" lon="0">
        <time>2020-12-06T08:59:24.539000+00:00</time>
      </trkpt>
      <trkpt lat="47.32829" lon="-1.26774">
        <ele>73</ele>
        <time>2020-12-06T08:59:25.508000+00:00</time>
      </trkpt>
      <trkpt lat="0" lon="0">
        <time>2020-12-06T08:59:25.517000+00:00</time>
      </trkpt>
      <trkpt lat="0" lon="0">
        <time>2020-12-06T08:59:25.524000+00:00</time>
      </trkpt>
      <trkpt lat="0" lon="0">
        <time>2020-12-06T08:59:25.527000+00:00</time>
      </trkpt>
      <trkpt lat="47.32832" lon="-1.26766">
        <ele>73</ele>
        <time>2020-12-06T08:59:26.558000+00:00</time>
      </trkpt>
      <trkpt lat="0" lon="0">
        <time>2020-12-06T08:59:26.566000+00:00</time>
      </trkpt>
      <trkpt lat="0" lon="0">
        <time>2020-12-06T08:59:26.569000+00:00</time>
      </trkpt>
      <trkpt lat="0" lon="0">
        <time>2020-12-06T08:59:26.570000+00:00</time>
      </trkpt>
      <trkpt lat="47.32835" lon="-1.26757">
        <ele>73</ele>
        <time>2020-12-06T08:59:27.539000+00:00</time>
      </trkpt>
      <trkpt lat="0" lon="0">
        <time>2020-12-06T08:59:27.540000+00:00</time>
      </trkpt>
      <trkpt lat="0" lon="0">
        <time>2020-12-06T08:59:27.543000+00:00</time>
      </trkpt>
      <trkpt lat="0" lon="0">
        <time>2020-12-06T08:59:27.550000+00:00</time>
      </trkpt>
      <trkpt lat="47.32838" lon="-1.26748">
        <ele>72</ele>
        <time>2020-12-06T08:59:28.517000+00:00</time>
      </trkpt>
      <trkpt lat="0" lon="0">
        <time>2020-12-06T08:59:28.538000+00:00</time>
      </trkpt>
      <trkpt lat="0" lon="0">
        <time>2020-12-06T08:59:28.542000+00:00</time>
      </trkpt>
      <trkpt lat="0" lon="0">
        <time>2020-12-06T08:59:28.544000+00:00</time>
      </trkpt>
      <trkpt lat="47.3284" lon="-1.26738">
        <ele>72</ele>
        <time>2020-12-06T08:59:29.517000+00:00</time>
      </trkpt>
      <trkpt lat="0" lon="0">
        <time>2020-12-06T08:59:29.522000+00:00</time>
      </trkpt>
      <trkpt lat="0" lon="0">
        <time>2020-12-06T08:59:29.535000+00:00</time>
      </trkpt>
      <trkpt lat="0" lon="0">
        <time>2020-12-06T08:59:29.536000+00:00</time>
      </trkpt>
      <trkpt lat="47.32842" lon="-1.26729">
        <ele>72</ele>
        <time>2020-12-06T08:59:30.513000+00:00</time>
      </trkpt>
      <trkpt lat="0" lon="0">
        <time>2020-12-06T08:59:30.528000+00:00</time>
      </trkpt>
      <trkpt lat="0" lon="0">
        <time>2020-12-06T08:59:30.534000+00:00</time>
      </trkpt>
      <trkpt lat="0" lon="0">
        <time>2020-12-06T08:59:30.537000+00:00</time>
      </trkpt>
      <trkpt lat="47.32844" lon="-1.2672">
        <ele>72</ele>
        <time>2020-12-06T08:59:31.512000+00:00</time>
      </trkpt>
      <trkpt lat="0" lon="0">
        <time>2020-12-06T08:59:31.529000+00:00</time>
      </trkpt>
      <trkpt lat="0" lon="0">
        <time>2020-12-06T08:59:31.533000+00:00</time>
      </trkpt>
      <trkpt lat="0" lon="0">
        <time>2020-12-06T08:59:31.534000+00:00</time>
      </trkpt>
      <trkpt lat="47.32846" lon="-1.2671">
        <ele>72</ele>
        <time>2020-12-06T08:59:32.541000+00:00</time>
      </trkpt>
      <trkpt lat="0" lon="0">
        <time>2020-12-06T08:59:32.547000+00:00</time>
      </trkpt>
      <trkpt lat="0" lon="0">
        <time>2020-12-06T08:59:32.555000+00:00</time>
      </trkpt>
      <trkpt lat="0" lon="0">
        <time>2020-12-06T08:59:32.556000+00:00</time>
      </trkpt>
      <trkpt lat="47.32848" lon="-1.26701">
        <ele>72</ele>
        <time>2020-12-06T08:59:33.535000+00:00</time>
      </trkpt>
      <trkpt lat="0" lon="0">
        <time>2020-12-06T08:59:33.545000+00:00</time>
      </trkpt>
      <trkpt lat="0" lon="0">
        <time>2020-12-06T08:59:33.552000+00:00</time>
      </trkpt>
      <trkpt lat="0" lon="0">
        <time>2020-12-06T08:59:33.553000+00:00</time>
      </trkpt>
      <trkpt lat="47.32849" lon="-1.26692">
        <ele>72</ele>
        <time>2020-12-06T08:59:34.524000+00:00</time>
      </trkpt>
      <trkpt lat="0" lon="0">
        <time>2020-12-06T08:59:34.539000+00:00</time>
      </trkpt>
      <trkpt lat="0" lon="0">
        <time>2020-12-06T08:59:34.542000+00:00</time>
      </trkpt>
      <trkpt lat="0" lon="0">
        <time>2020-12-06T08:59:34.543000+00:00</time>
      </trkpt>
      <trkpt lat="47.32851" lon="-1.26683">
        <ele>72</ele>
        <time>2020-12-06T08:59:35.517000+00:00</time>
      </trkpt>
      <trkpt lat="0" lon="0">
        <time>2020-12-06T08:59:35.539000+00:00</time>
      </trkpt>
      <trkpt lat="0" lon="0">
        <time>2020-12-06T08:59:35.542000+00:00</time>
      </trkpt>
      <trkpt lat="0" lon="0">
        <time>2020-12-06T08:59:35.544000+00:00</time>
      </trkpt>
      <trkpt lat="47.32852" lon="-1.26673">
        <ele>72</ele>
        <time>2020-12-06T08:59:36.576000+00:00</time>
      </trkpt>
      <trkpt lat="0" lon="0">
        <time>2020-12-06T08:59:36.580000+00:00</time>
      </trkpt>
      <trkpt lat="0" lon="0">
        <time>2020-12-06T08:59:36.587000+00:00</time>
      </trkpt>
      <trkpt lat="0" lon="0">
        <time>2020-12-06T08:59:36.591000+00:00</time>
      </trkpt>
      <trkpt lat="47.32853" lon="-1.26664">
        <ele>72</ele>
        <time>2020-12-06T08:59:37.511000+00:00</time>
      </trkpt>
      <trkpt lat="0" lon="0">
        <time>2020-12-06T08:59:37.516000+00:00</time>
      </trkpt>
      <trkpt lat="0" lon="0">
        <time>2020-12-06T08:59:37.531000+00:00</time>
      </trkpt>
      <trkpt lat="0" lon="0">
        <time>2020-12-06T08:59:37.533000+00:00</time>
      </trkpt>
      <trkpt lat="47.32853" lon="-1.26655">
        <ele>72</ele>
        <time>2020-12-06T08:59:38.524000+00:00</time>
      </trkpt>
      <trkpt lat="0" lon="0">
        <time>2020-12-06T08:59:38.530000+00:00</time>
      </trkpt>
      <trkpt lat="0" lon="0">
        <time>2020-12-06T08:59:38.534000+00:00</time>
      </trkpt>
      <trkpt lat="0" lon="0">
        <time>2020-12-06T08:59:38.542000+00:00</time>
      </trkpt>
      <trkpt lat="47.32854" lon="-1.26646">
        <ele>72</ele>
        <time>2020-12-06T08:59:39.545000+00:00</time>
      </trkpt>
      <trkpt lat="0" lon="0">
        <time>2020-12-06T08:59:39.549000+00:00</time>
      </trkpt>
      <trkpt lat="0" lon="0">
        <time>2020-12-06T08:59:39.560000+00:00</time>
      </trkpt>
      <trkpt lat="0" lon="0">
        <time>2020-12-06T08:59:39.561000+00:00</time>
      </trkpt>
      <trkpt lat="47.32854" lon="-1.26637">
        <ele>72</ele>
        <time>2020-12-06T08:59:40.517000+00:00</time>
      </trkpt>
      <trkpt lat="0" lon="0">
        <time>2020-12-06T08:59:40.521000+00:00</time>
      </trkpt>
      <trkpt lat="0" lon="0">
        <time>2020-12-06T08:59:40.529000+00:00</time>
      </trkpt>
      <trkpt lat="0" lon="0">
        <time>2020-12-06T08:59:40.533000+00:00</time>
      </trkpt>
      <trkpt lat="47.32855" lon="-1.26629">
        <ele>72</ele>
        <time>2020-12-06T08:59:41.542000+00:00</time>
      </trkpt>
      <trkpt lat="0" lon="0">
        <time>2020-12-06T08:59:41.555000+00:00</time>
      </trkpt>
      <trkpt lat="0" lon="0">
        <time>2020-12-06T08:59:41.557000+00:00</time>
      </trkpt>
      <trkpt lat="0" lon="0">
        <time>2020-12-06T08:59:41.558000+00:00</time>
      </trkpt>
      <trkpt lat="47.32855" lon="-1.2662">
        <ele>72</ele>
        <time>2020-12-06T08:59:42.529000+00:00</time>
      </trkpt>
      <trkpt lat="0" lon="0">
        <time>2020-12-06T08:59:42.536000+00:00</time>
      </trkpt>
      <trkpt lat="0" lon="0">
        <time>2020-12-06T08:59:42.545000+00:00</time>
      </trkpt>
      <trkpt lat="0" lon="0">
        <time>2020-12-06T08:59:42.560000+00:00</time>
      </trkpt>
      <trkpt lat="47.32856" lon="-1.26611">
        <ele>72</ele>
        <time>2020-12-06T08:59:43.562000+00:00</time>
      </trkpt>
      <trkpt lat="0" lon="0">
        <time>2020-12-06T08:59:43.568000+00:00</time>
      </trkpt>
      <trkpt lat="0" lon="0">
        <time>2020-12-06T08:59:43.570000+00:00</time>
      </trkpt>
      <trkpt lat="0" lon="0">
        <time>2020-12-06T08:59:43.571000+00:00</time>
      </trkpt>
      <trkpt lat="47.32856" lon="-1.26603">
        <ele>72</ele>
        <time>2020-12-06T08:59:44.550000+00:00</time>
      </trkpt>
      <trkpt lat="0" lon="0">
        <time>2020-12-06T08:59:44.555000+00:00</time>
      </trkpt>
      <trkpt lat="0" lon="0">
        <time>2020-12-06T08:59:44.557000+00:00</time>
      </trkpt>
      <trkpt lat="0" lon="0">
        <time>2020-12-06T08:59:44.558000+00:00</time>
      </trkpt>
      <trkpt lat="47.32857" lon="-1.26594">
        <ele>72</ele>
        <time>2020-12-06T08:59:45.500000+00:00</time>
      </trkpt>
      <trkpt lat="0" lon="0">
        <time>2020-12-06T08:59:45.505000+00:00</time>
      </trkpt>
      <trkpt lat="0" lon="0">
        <time>2020-12-06T08:59:45.514000+00:00</time>
      </trkpt>
      <trkpt lat="0" lon="0">
        <time>2020-12-06T08:59:45.516000+00:00</time>
      </trkpt>
      <trkpt lat="47.32857" lon="-1.26586">
        <ele>72</ele>
        <time>2020-12-06T08:59:46.536000+00:00</time>
      </trkpt>
      <trkpt lat="0" lon="0">
        <time>2020-12-06T08:59:46.542000+00:00</time>
      </trkpt>
      <trkpt lat="0" lon="0">
        <time>2020-12-06T08:59:46.546000+00:00</time>
      </trkpt>
      <trkpt lat="0" lon="0">
        <time>2020-12-06T08:59:46.549000+00:00</time>
      </trkpt>
      <trkpt lat="47.32858" lon="-1.26577">
        <ele>72</ele>
        <time>2020-12-06T08:59:47.516000+00:00</time>
      </trkpt>
      <trkpt lat="0" lon="0">
        <time>2020-12-06T08:59:47.521000+00:00</time>
      </trkpt>
      <trkpt lat="0" lon="0">
        <time>2020-12-06T08:59:47.524000+00:00</time>
      </trkpt>
      <trkpt lat="0" lon="0">
        <time>2020-12-06T08:59:47.526000+00:00</time>
      </trkpt>
      <trkpt lat="47.32858" lon="-1.26569">
        <ele>72</ele>
        <time>2020-12-06T08:59:48.528000+00:00</time>
      </trkpt>
      <trkpt lat="0" lon="0">
        <time>2020-12-06T08:59:48.537000+00:00</time>
      </trkpt>
      <trkpt lat="0" lon="0">
        <time>2020-12-06T08:59:48.540000+00:00</time>
      </trkpt>
      <trkpt lat="0" lon="0">
        <time>2020-12-06T08:59:48.542000+00:00</time>
      </trkpt>
      <trkpt lat="47.32859" lon="-1.2656">
        <ele>72</ele>
        <time>2020-12-06T08:59:49.536000+00:00</time>
      </trkpt>
      <trkpt lat="0" lon="0">
        <time>2020-12-06T08:59:49.550000+00:00</time>
      </trkpt>
      <trkpt lat="0" lon="0">
        <time>2020-12-06T08:59:49.555000+00:00</time>
      </trkpt>
      <trkpt lat="0" lon="0">
        <time>2020-12-06T08:59:49.563000+00:00</time>
      </trkpt>
      <trkpt lat="47.32859" lon="-1.26552">
        <ele>72</ele>
        <time>2020-12-06T08:59:50.535000+00:00</time>
      </trkpt>
      <trkpt lat="0" lon="0">
        <time>2020-12-06T08:59:50.537000+00:00</time>
      </trkpt>
      <trkpt lat="0" lon="0">
        <time>2020-12-06T08:59:50.541000+00:00</time>
      </trkpt>
      <trkpt lat="0" lon="0">
        <time>2020-12-06T08:59:50.542000+00:00</time>
      </trkpt>
      <trkpt lat="47.3286" lon="-1.26543">
        <ele>72</ele>
        <time>2020-12-06T08:59:51.553000+00:00</time>
      </trkpt>
      <trkpt lat="0" lon="0">
        <time>2020-12-06T08:59:51.556000+00:00</time>
      </trkpt>
      <trkpt lat="0" lon="0">
        <time>2020-12-06T08:59:51.557000+00:00</time>
      </trkpt>
      <trkpt lat="0" lon="0">
        <time>2020-12-06T08:59:51.558000+00:00</time>
      </trkpt>
      <trkpt lat="47.3286" lon="-1.26535">
        <ele>72</ele>
        <time>2020-12-06T08:59:52.500000+00:00</time>
      </trkpt>
      <trkpt lat="0" lon="0">
        <time>2020-12-06T08:59:52.503000+00:00</time>
      </trkpt>
      <trkpt lat="0" lon="0">
        <time>2020-12-06T08:59:52.518000+00:00</time>
      </trkpt>
      <trkpt lat="0" lon="0">
        <time>2020-12-06T08:59:52.521000+00:00</time>
      </trkpt>
      <trkpt lat="47.3286" lon="-1.26526">
        <ele>72</ele>
        <time>2020-12-06T08:59:53.546000+00:00</time>
      </trkpt>
      <trkpt lat="0" lon="0">
        <time>2020-12-06T08:59:53.565000+00:00</time>
      </trkpt>
      <trkpt lat="0" lon="0">
        <time>2020-12-06T08:59:53.581000+00:00</time>
      </trkpt>
      <trkpt lat="0" lon="0">
        <time>2020-12-06T08:59:53.582000+00:00</time>
      </trkpt>
      <trkpt lat="47.32861" lon="-1.26517">
        <ele>72</ele>
        <time>2020-12-06T08:59:54.542000+00:00</time>
      </trkpt>
      <trkpt lat="0" lon="0">
        <time>2020-12-06T08:59:54.551000+00:00</time>
      </trkpt>
      <trkpt lat="0" lon="0">
        <time>2020-12-06T08:59:54.555000+00:00</time>
      </trkpt>
      <trkpt lat="0" lon="0">
        <time>2020-12-06T08:59:54.557000+00:00</time>
      </trkpt>
      <trkpt lat="47.32861" lon="-1.26509">
        <ele>72</ele>
        <time>2020-12-06T08:59:55.536000+00:00</time>
      </trkpt>
      <trkpt lat="0" lon="0">
        <time>2020-12-06T08:59:55.538000+00:00</time>
      </trkpt>
      <trkpt lat="0" lon="0">
        <time>2020-12-06T08:59:55.553000+00:00</time>
      </trkpt>
      <trkpt lat="0" lon="0">
        <time>2020-12-06T08:59:55.554000+00:00</time>
      </trkpt>
      <trkpt lat="47.32862" lon="-1.26501">
        <ele>72</ele>
        <time>2020-12-06T08:59:56.509000+00:00</time>
      </trkpt>
      <trkpt lat="0" lon="0">
        <time>2020-12-06T08:59:56.519000+00:00</time>
      </trkpt>
      <trkpt lat="0" lon="0">
        <time>2020-12-06T08:59:56.522000+00:00</time>
      </trkpt>
      <trkpt lat="0" lon="0">
        <time>2020-12-06T08:59:56.527000+00:00</time>
      </trkpt>
      <trkpt lat="47.32863" lon="-1.26492">
        <ele>73</ele>
        <time>2020-12-06T08:59:57.528000+00:00</time>
      </trkpt>
      <trkpt lat="0" lon="0">
        <time>2020-12-06T08:59:57.539000+00:00</time>
      </trkpt>
      <trkpt lat="0" lon="0">
        <time>2020-12-06T08:59:57.548000+00:00</time>
      </trkpt>
      <trkpt lat="0" lon="0">
        <time>2020-12-06T08:59:57.558000+00:00</time>
      </trkpt>
      <trkpt lat="47.32864" lon="-1.26484">
        <ele>73</ele>
        <time>2020-12-06T08:59:58.545000+00:00</time>
      </trkpt>
      <trkpt lat="0" lon="0">
        <time>2020-12-06T08:59:58.557000+00:00</time>
      </trkpt>
      <trkpt lat="0" lon="0">
        <time>2020-12-06T08:59:58.563000+00:00</time>
      </trkpt>
      <trkpt lat="0" lon="0">
        <time>2020-12-06T08:59:58.568000+00:00</time>
      </trkpt>
      <trkpt lat="47.32865" lon="-1.26476">
        <ele>73</ele>
        <time>2020-12-06T08:59:59.556000+00:00</time>
      </trkpt>
      <trkpt lat="0" lon="0">
        <time>2020-12-06T08:59:59.566000+00:00</time>
      </trkpt>
      <trkpt lat="0" lon="0">
        <time>2020-12-06T08:59:59.572000+00:00</time>
      </trkpt>
      <trkpt lat="0" lon="0">
        <time>2020-12-06T08:59:59.576000+00:00</time>
      </trkpt>
      <trkpt lat="47.32866" lon="-1.26469">
        <ele>73</ele>
        <time>2020-12-06T09:00:00.506000+00:00</time>
      </trkpt>
      <trkpt lat="0" lon="0">
        <time>2020-12-06T09:00:00.516000+00:00</time>
      </trkpt>
      <trkpt lat="0" lon="0">
        <time>2020-12-06T09:00:00.523000+00:00</time>
      </trkpt>
      <trkpt lat="0" lon="0">
        <time>2020-12-06T09:00:00.525000+00:00</time>
      </trkpt>
      <trkpt lat="47.32868" lon="-1.26463">
        <ele>73</ele>
        <time>2020-12-06T09:00:01.513000+00:00</time>
      </trkpt>
      <trkpt lat="0" lon="0">
        <time>2020-12-06T09:00:01.520000+00:00</time>
      </trkpt>
      <trkpt lat="0" lon="0">
        <time>2020-12-06T09:00:01.522000+00:00</time>
      </trkpt>
      <trkpt lat="47.32871" lon="-1.26459">
        <ele>73</ele>
        <time>2020-12-06T09:00:02.540000+00:00</time>
      </trkpt>
      <trkpt lat="0" lon="0">
        <time>2020-12-06T09:00:02.542000+00:00</time>
      </trkpt>
      <trkpt lat="0" lon="0">
        <time>2020-12-06T09:00:02.544000+00:00</time>
      </trkpt>
      <trkpt lat="0" lon="0">
        <time>2020-12-06T09:00:02.548000+00:00</time>
      </trkpt>
      <trkpt lat="47.32875" lon="-1.26457">
        <ele>73</ele>
        <time>2020-12-06T09:00:03.541000+00:00</time>
      </trkpt>
      <trkpt lat="0" lon="0">
        <time>2020-12-06T09:00:03.557000+00:00</time>
      </trkpt>
      <trkpt lat="0" lon="0">
        <time>2020-12-06T09:00:03.563000+00:00</time>
      </trkpt>
      <trkpt lat="0" lon="0">
        <time>2020-12-06T09:00:03.564000+00:00</time>
      </trkpt>
      <trkpt lat="47.32879" lon="-1.26457">
        <ele>73</ele>
        <time>2020-12-06T09:00:04.522000+00:00</time>
      </trkpt>
      <trkpt lat="0" lon="0">
        <time>2020-12-06T09:00:04.526000+00:00</time>
      </trkpt>
      <trkpt lat="0" lon="0">
        <time>2020-12-06T09:00:04.534000+00:00</time>
      </trkpt>
      <trkpt lat="0" lon="0">
        <time>2020-12-06T09:00:04.536000+00:00</time>
      </trkpt>
      <trkpt lat="47.32884" lon="-1.26457">
        <ele>72</ele>
        <time>2020-12-06T09:00:05.542000+00:00</time>
      </trkpt>
      <trkpt lat="0" lon="0">
        <time>2020-12-06T09:00:05.549000+00:00</time>
      </trkpt>
      <trkpt lat="0" lon="0">
        <time>2020-12-06T09:00:05.553000+00:00</time>
      </trkpt>
      <trkpt lat="0" lon="0">
        <time>2020-12-06T09:00:05.555000+00:00</time>
      </trkpt>
      <trkpt lat="47.32889" lon="-1.26459">
        <ele>72</ele>
        <time>2020-12-06T09:00:06.548000+00:00</time>
      </trkpt>
      <trkpt lat="0" lon="0">
        <time>2020-12-06T09:00:06.553000+00:00</time>
      </trkpt>
      <trkpt lat="0" lon="0">
        <time>2020-12-06T09:00:06.560000+00:00</time>
      </trkpt>
      <trkpt lat="0" lon="0">
        <time>2020-12-06T09:00:06.562000+00:00</time>
      </trkpt>
      <trkpt lat="47.32894" lon="-1.26462">
        <ele>72</ele>
        <time>2020-12-06T09:00:07.544000+00:00</time>
      </trkpt>
      <trkpt lat="0" lon="0">
        <time>2020-12-06T09:00:07.552000+00:00</time>
      </trkpt>
      <trkpt lat="0" lon="0">
        <time>2020-12-06T09:00:07.554000+00:00</time>
      </trkpt>
      <trkpt lat="0" lon="0">
        <time>2020-12-06T09:00:07.555000+00:00</time>
      </trkpt>
      <trkpt lat="47.329" lon="-1.26465">
        <ele>72</ele>
        <time>2020-12-06T09:00:08.560000+00:00</time>
      </trkpt>
      <trkpt lat="0" lon="0">
        <time>2020-12-06T09:00:08.576000+00:00</time>
      </trkpt>
      <trkpt lat="0" lon="0">
        <time>2020-12-06T09:00:08.579000+00:00</time>
      </trkpt>
      <trkpt lat="0" lon="0">
        <time>2020-12-06T09:00:08.582000+00:00</time>
      </trkpt>
      <trkpt lat="47.32905" lon="-1.26469">
        <ele>71</ele>
        <time>2020-12-06T09:00:09.553000+00:00</time>
      </trkpt>
      <trkpt lat="0" lon="0">
        <time>2020-12-06T09:00:09.558000+00:00</time>
      </trkpt>
      <trkpt lat="0" lon="0">
        <time>2020-12-06T09:00:09.560000+00:00</time>
      </trkpt>
      <trkpt lat="0" lon="0">
        <time>2020-12-06T09:00:09.561000+00:00</time>
      </trkpt>
      <trkpt lat="47.32911" lon="-1.26473">
        <ele>71</ele>
        <time>2020-12-06T09:00:10.532000+00:00</time>
      </trkpt>
      <trkpt lat="0" lon="0">
        <time>2020-12-06T09:00:10.544000+00:00</time>
      </trkpt>
      <trkpt lat="0" lon="0">
        <time>2020-12-06T09:00:10.552000+00:00</time>
      </trkpt>
      <trkpt lat="0" lon="0">
        <time>2020-12-06T09:00:10.560000+00:00</time>
      </trkpt>
      <trkpt lat="47.32917" lon="-1.26477">
        <ele>71</ele>
        <time>2020-12-06T09:00:11.559000+00:00</time>
      </trkpt>
      <trkpt lat="0" lon="0">
        <time>2020-12-06T09:00:11.562000+00:00</time>
      </trkpt>
      <trkpt lat="0" lon="0">
        <time>2020-12-06T09:00:11.567000+00:00</time>
      </trkpt>
      <trkpt lat="0" lon="0">
        <time>2020-12-06T09:00:11.569000+00:00</time>
      </trkpt>
      <trkpt lat="47.32923" lon="-1.26481">
        <ele>71</ele>
        <time>2020-12-06T09:00:12.549000+00:00</time>
      </trkpt>
      <trkpt lat="0" lon="0">
        <time>2020-12-06T09:00:12.554000+00:00</time>
      </trkpt>
      <trkpt lat="0" lon="0">
        <time>2020-12-06T09:00:12.558000+00:00</time>
      </trkpt>
      <trkpt lat="0" lon="0">
        <time>2020-12-06T09:00:12.560000+00:00</time>
      </trkpt>
      <trkpt lat="47.32929" lon="-1.26485">
        <ele>70</ele>
        <time>2020-12-06T09:00:13.526000+00:00</time>
      </trkpt>
      <trkpt lat="0" lon="0">
        <time>2020-12-06T09:00:13.528000+00:00</time>
      </trkpt>
      <trkpt lat="0" lon="0">
        <time>2020-12-06T09:00:13.529000+00:00</time>
      </trkpt>
      <trkpt lat="0" lon="0">
        <time>2020-12-06T09:00:13.530000+00:00</time>
      </trkpt>
      <trkpt lat="47.32935" lon="-1.26489">
        <ele>70</ele>
        <time>2020-12-06T09:00:14.566000+00:00</time>
      </trkpt>
      <trkpt lat="0" lon="0">
        <time>2020-12-06T09:00:14.572000+00:00</time>
      </trkpt>
      <trkpt lat="0" lon="0">
        <time>2020-12-06T09:00:14.574000+00:00</time>
      </trkpt>
      <trkpt lat="0" lon="0">
        <time>2020-12-06T09:00:14.575000+00:00</time>
      </trkpt>
      <trkpt lat="47.32941" lon="-1.26492">
        <ele>70</ele>
        <time>2020-12-06T09:00:15.531000+00:00</time>
      </trkpt>
      <trkpt lat="0" lon="0">
        <time>2020-12-06T09:00:15.534000+00:00</time>
      </trkpt>
      <trkpt lat="0" lon="0">
        <time>2020-12-06T09:00:15.545000+00:00</time>
      </trkpt>
      <trkpt lat="0" lon="0">
        <time>2020-12-06T09:00:15.548000+00:00</time>
      </trkpt>
      <trkpt lat="47.32947" lon="-1.26496">
        <ele>69</ele>
        <time>2020-12-06T09:00:16.558000+00:00</time>
      </trkpt>
      <trkpt lat="0" lon="0">
        <time>2020-12-06T09:00:16.561000+00:00</time>
      </trkpt>
      <trkpt lat="0" lon="0">
        <time>2020-12-06T09:00:16.569000+00:00</time>
      </trkpt>
      <trkpt lat="0" lon="0">
        <time>2020-12-06T09:00:16.571000+00:00</time>
      </trkpt>
      <trkpt lat="47.32953" lon="-1.26499">
        <ele>69</ele>
        <time>2020-12-06T09:00:17.578000+00:00</time>
      </trkpt>
      <trkpt lat="0" lon="0">
        <time>2020-12-06T09:00:17.588000+00:00</time>
      </trkpt>
      <trkpt lat="0" lon="0">
        <time>2020-12-06T09:00:17.595000+00:00</time>
      </trkpt>
      <trkpt lat="0" lon="0">
        <time>2020-12-06T09:00:17.597000+00:00</time>
      </trkpt>
      <trkpt lat="47.32959" lon="-1.26503">
        <ele>69</ele>
        <time>2020-12-06T09:00:18.568000+00:00</time>
      </trkpt>
      <trkpt lat="0" lon="0">
        <time>2020-12-06T09:00:18.572000+00:00</time>
      </trkpt>
      <trkpt lat="0" lon="0">
        <time>2020-12-06T09:00:18.576000+00:00</time>
      </trkpt>
      <trkpt lat="0" lon="0">
        <time>2020-12-06T09:00:18.579000+00:00</time>
      </trkpt>
      <trkpt lat="47.32965" lon="-1.26507">
        <ele>69</ele>
        <time>2020-12-06T09:00:19.532000+00:00</time>
      </trkpt>
      <trkpt lat="0" lon="0">
        <time>2020-12-06T09:00:19.539000+00:00</time>
      </trkpt>
      <trkpt lat="0" lon="0">
        <time>2020-12-06T09:00:19.546000+00:00</time>
      </trkpt>
      <trkpt lat="0" lon="0">
        <time>2020-12-06T09:00:19.550000+00:00</time>
      </trkpt>
      <trkpt lat="47.3297" lon="-1.2651">
        <ele>69</ele>
        <time>2020-12-06T09:00:20.591000+00:00</time>
      </trkpt>
      <trkpt lat="0" lon="0">
        <time>2020-12-06T09:00:20.598000+00:00</time>
      </trkpt>
      <trkpt lat="0" lon="0">
        <time>2020-12-06T09:00:20.605000+00:00</time>
      </trkpt>
      <trkpt lat="0" lon="0">
        <time>2020-12-06T09:00:20.607000+00:00</time>
      </trkpt>
      <trkpt lat="47.32976" lon="-1.26514">
        <ele>68</ele>
        <time>2020-12-06T09:00:21.524000+00:00</time>
      </trkpt>
      <trkpt lat="0" lon="0">
        <time>2020-12-06T09:00:21.530000+00:00</time>
      </trkpt>
      <trkpt lat="0" lon="0">
        <time>2020-12-06T09:00:21.533000+00:00</time>
      </trkpt>
      <trkpt lat="47.32981" lon="-1.26517">
        <ele>68</ele>
        <time>2020-12-06T09:00:22.518000+00:00</time>
      </trkpt>
      <trkpt lat="0" lon="0">
        <time>2020-12-06T09:00:22.523000+00:00</time>
      </trkpt>
      <trkpt lat="0" lon="0">
        <time>2020-12-06T09:00:22.531000+00:00</time>
      </trkpt>
      <trkpt lat="0" lon="0">
        <time>2020-12-06T09:00:22.533000+00:00</time>
      </trkpt>
      <trkpt lat="47.32987" lon="-1.26519">
        <ele>68</ele>
        <time>2020-12-06T09:00:23.533000+00:00</time>
      </trkpt>
      <trkpt lat="0" lon="0">
        <time>2020-12-06T09:00:23.545000+00:00</time>
      </trkpt>
      <trkpt lat="0" lon="0">
        <time>2020-12-06T09:00:23.549000+00:00</time>
      </trkpt>
      <trkpt lat="0" lon="0">
        <time>2020-12-06T09:00:23.550000+00:00</time>
      </trkpt>
      <trkpt lat="47.32992" lon="-1.2652">
        <ele>68</ele>
        <time>2020-12-06T09:00:24.541000+00:00</time>
      </trkpt>
      <trkpt lat="0" lon="0">
        <time>2020-12-06T09:00:24.556000+00:00</time>
      </trkpt>
      <trkpt lat="0" lon="0">
        <time>2020-12-06T09:00:24.559000+00:00</time>
      </trkpt>
      <trkpt lat="0" lon="0">
        <time>2020-12-06T09:00:24.564000+00:00</time>
      </trkpt>
      <trkpt lat="47.32997" lon="-1.2652">
        <ele>68</ele>
        <time>2020-12-06T09:00:25.541000+00:00</time>
      </trkpt>
      <trkpt lat="0" lon="0">
        <time>2020-12-06T09:00:25.544000+00:00</time>
      </trkpt>
      <trkpt lat="0" lon="0">
        <time>2020-12-06T09:00:25.551000+00:00</time>
      </trkpt>
      <trkpt lat="0" lon="0">
        <time>2020-12-06T09:00:25.553000+00:00</time>
      </trkpt>
      <trkpt lat="47.33003" lon="-1.26519">
        <ele>67</ele>
        <time>2020-12-06T09:00:26.544000+00:00</time>
      </trkpt>
      <trkpt lat="0" lon="0">
        <time>2020-12-06T09:00:26.548000+00:00</time>
      </trkpt>
      <trkpt lat="0" lon="0">
        <time>2020-12-06T09:00:26.553000+00:00</time>
      </trkpt>
      <trkpt lat="0" lon="0">
        <time>2020-12-06T09:00:26.554000+00:00</time>
      </trkpt>
      <trkpt lat="47.33008" lon="-1.26518">
        <ele>67</ele>
        <time>2020-12-06T09:00:27.543000+00:00</time>
      </trkpt>
      <trkpt lat="0" lon="0">
        <time>2020-12-06T09:00:27.556000+00:00</time>
      </trkpt>
      <trkpt lat="0" lon="0">
        <time>2020-12-06T09:00:27.559000+00:00</time>
      </trkpt>
      <trkpt lat="0" lon="0">
        <time>2020-12-06T09:00:27.561000+00:00</time>
      </trkpt>
      <trkpt lat="47.33013" lon="-1.26516">
        <ele>67</ele>
        <time>2020-12-06T09:00:28.542000+00:00</time>
      </trkpt>
      <trkpt lat="0" lon="0">
        <time>2020-12-06T09:00:28.546000+00:00</time>
      </trkpt>
      <trkpt lat="0" lon="0">
        <time>2020-12-06T09:00:28.551000+00:00</time>
      </trkpt>
      <trkpt lat="0" lon="0">
        <time>2020-12-06T09:00:28.552000+00:00</time>
      </trkpt>
      <trkpt lat="47.33017" lon="-1.26514">
        <ele>67</ele>
        <time>2020-12-06T09:00:29.508000+00:00</time>
      </trkpt>
      <trkpt lat="0" lon="0">
        <time>2020-12-06T09:00:29.509000+00:00</time>
      </trkpt>
      <trkpt lat="0" lon="0">
        <time>2020-12-06T09:00:29.511000+00:00</time>
      </trkpt>
      <trkpt lat="0" lon="0">
        <time>2020-12-06T09:00:29.512000+00:00</time>
      </trkpt>
      <trkpt lat="47.33021" lon="-1.26511">
        <ele>67</ele>
        <time>2020-12-06T09:00:30.496000+00:00</time>
      </trkpt>
      <trkpt lat="0" lon="0">
        <time>2020-12-06T09:00:30.502000+00:00</time>
      </trkpt>
      <trkpt lat="0" lon="0">
        <time>2020-12-06T09:00:30.505000+00:00</time>
      </trkpt>
      <trkpt lat="47.33024" lon="-1.26508">
        <ele>67</ele>
        <time>2020-12-06T09:00:31.546000+00:00</time>
      </trkpt>
      <trkpt lat="0" lon="0">
        <time>2020-12-06T09:00:31.547000+00:00</time>
      </trkpt>
      <trkpt lat="0" lon="0">
        <time>2020-12-06T09:00:31.548000+00:00</time>
      </trkpt>
      <trkpt lat="47.33027" lon="-1.26505">
        <ele>67</ele>
        <time>2020-12-06T09:00:32.533000+00:00</time>
      </trkpt>
      <trkpt lat="0" lon="0">
        <time>2020-12-06T09:00:32.536000+00:00</time>
      </trkpt>
      <trkpt lat="0" lon="0">
        <time>2020-12-06T09:00:32.541000+00:00</time>
      </trkpt>
      <trkpt lat="0" lon="0">
        <time>2020-12-06T09:00:32.547000+00:00</time>
      </trkpt>
      <trkpt lat="47.33029" lon="-1.26501">
        <ele>66</ele>
        <time>2020-12-06T09:00:33.540000+00:00</time>
      </trkpt>
      <trkpt lat="0" lon="0">
        <time>2020-12-06T09:00:33.544000+00:00</time>
      </trkpt>
      <trkpt lat="0" lon="0">
        <time>2020-12-06T09:00:33.550000+00:00</time>
      </trkpt>
      <trkpt lat="0" lon="0">
        <time>2020-12-06T09:00:33.552000+00:00</time>
      </trkpt>
      <trkpt lat="47.33031" lon="-1.26498">
        <ele>66</ele>
        <time>2020-12-06T09:00:34.566000+00:00</time>
      </trkpt>
      <trkpt lat="0" lon="0">
        <time>2020-12-06T09:00:34.581000+00:00</time>
      </trkpt>
      <trkpt lat="0" lon="0">
        <time>2020-12-06T09:00:34.585000+00:00</time>
      </trkpt>
      <trkpt lat="0" lon="0">
        <time>2020-12-06T09:00:34.586000+00:00</time>
      </trkpt>
      <trkpt lat="47.33033" lon="-1.26495">
        <ele>66</ele>
        <time>2020-12-06T09:00:35.546000+00:00</time>
      </trkpt>
      <trkpt lat="0" lon="0">
        <time>2020-12-06T09:00:35.550000+00:00</time>
      </trkpt>
      <trkpt lat="0" lon="0">
        <time>2020-12-06T09:00:35.554000+00:00</time>
      </trkpt>
      <trkpt lat="0" lon="0">
        <time>2020-12-06T09:00:35.557000+00:00</time>
      </trkpt>
      <trkpt lat="47.33034" lon="-1.26492">
        <ele>66</ele>
        <time>2020-12-06T09:00:36.566000+00:00</time>
      </trkpt>
      <trkpt lat="0" lon="0">
        <time>2020-12-06T09:00:36.572000+00:00</time>
      </trkpt>
      <trkpt lat="0" lon="0">
        <time>2020-12-06T09:00:36.577000+00:00</time>
      </trkpt>
      <trkpt lat="0" lon="0">
        <time>2020-12-06T09:00:36.578000+00:00</time>
      </trkpt>
      <trkpt lat="47.33036" lon="-1.26489">
        <ele>66</ele>
        <time>2020-12-06T09:00:37.575000+00:00</time>
      </trkpt>
      <trkpt lat="0" lon="0">
        <time>2020-12-06T09:00:37.581000+00:00</time>
      </trkpt>
      <trkpt lat="0" lon="0">
        <time>2020-12-06T09:00:37.584000+00:00</time>
      </trkpt>
      <trkpt lat="0" lon="0">
        <time>2020-12-06T09:00:37.585000+00:00</time>
      </trkpt>
      <trkpt lat="47.33037" lon="-1.26486">
        <ele>67</ele>
        <time>2020-12-06T09:00:38.561000+00:00</time>
      </trkpt>
      <trkpt lat="0" lon="0">
        <time>2020-12-06T09:00:38.573000+00:00</time>
      </trkpt>
      <trkpt lat="0" lon="0">
        <time>2020-12-06T09:00:38.582000+00:00</time>
      </trkpt>
      <trkpt lat="0" lon="0">
        <time>2020-12-06T09:00:38.584000+00:00</time>
      </trkpt>
      <trkpt lat="47.33038" lon="-1.26483">
        <ele>67</ele>
        <time>2020-12-06T09:00:39.559000+00:00</time>
      </trkpt>
      <trkpt lat="0" lon="0">
        <time>2020-12-06T09:00:39.569000+00:00</time>
      </trkpt>
      <trkpt lat="0" lon="0">
        <time>2020-12-06T09:00:39.573000+00:00</time>
      </trkpt>
      <trkpt lat="0" lon="0">
        <time>2020-12-06T09:00:39.576000+00:00</time>
      </trkpt>
      <trkpt lat="47.33039" lon="-1.26481">
        <ele>67</ele>
        <time>2020-12-06T09:00:40.556000+00:00</time>
      </trkpt>
      <trkpt lat="0" lon="0">
        <time>2020-12-06T09:00:40.559000+00:00</time>
      </trkpt>
      <trkpt lat="0" lon="0">
        <time>2020-12-06T09:00:40.570000+00:00</time>
      </trkpt>
      <trkpt lat="0" lon="0">
        <time>2020-12-06T09:00:40.573000+00:00</time>
      </trkpt>
      <trkpt lat="47.3304" lon="-1.26479">
        <ele>67</ele>
        <time>2020-12-06T09:00:41.564000+00:00</time>
      </trkpt>
      <trkpt lat="0" lon="0">
        <time>2020-12-06T09:00:41.569000+00:00</time>
      </trkpt>
      <trkpt lat="0" lon="0">
        <time>2020-12-06T09:00:41.577000+00:00</time>
      </trkpt>
      <trkpt lat="0" lon="0">
        <time>2020-12-06T09:00:41.580000+00:00</time>
      </trkpt>
      <trkpt lat="47.33041" lon="-1.26478">
        <ele>67</ele>
        <time>2020-12-06T09:00:42.569000+00:00</time>
      </trkpt>
      <trkpt lat="0" lon="0">
        <time>2020-12-06T09:00:42.578000+00:00</time>
      </trkpt>
      <trkpt lat="0" lon="0">
        <time>2020-12-06T09:00:42.593000+00:00</time>
      </trkpt>
      <trkpt lat="0" lon="0">
        <time>2020-12-06T09:00:42.596000+00:00</time>
      </trkpt>
      <trkpt lat="47.33042" lon="-1.26477">
        <ele>67</ele>
        <time>2020-12-06T09:00:43.559000+00:00</time>
      </trkpt>
      <trkpt lat="0" lon="0">
        <time>2020-12-06T09:00:43.561000+00:00</time>
      </trkpt>
      <trkpt lat="0" lon="0">
        <time>2020-12-06T09:00:43.563000+00:00</time>
      </trkpt>
      <trkpt lat="0" lon="0">
        <time>2020-12-06T09:00:43.564000+00:00</time>
      </trkpt>
      <trkpt lat="47.33042" lon="-1.26476">
        <ele>67</ele>
        <time>2020-12-06T09:00:44.519000+00:00</time>
      </trkpt>
      <trkpt lat="0" lon="0">
        <time>2020-12-06T09:00:44.526000+00:00</time>
      </trkpt>
      <trkpt lat="0" lon="0">
        <time>2020-12-06T09:00:44.527000+00:00</time>
      </trkpt>
      <trkpt lat="47.33043" lon="-1.26475">
        <ele>67</ele>
        <time>2020-12-06T09:00:45.522000+00:00</time>
      </trkpt>
      <trkpt lat="0" lon="0">
        <time>2020-12-06T09:00:45.526000+00:00</time>
      </trkpt>
      <trkpt lat="0" lon="0">
        <time>2020-12-06T09:00:45.528000+00:00</time>
      </trkpt>
      <trkpt lat="0" lon="0">
        <time>2020-12-06T09:00:45.532000+00:00</time>
      </trkpt>
      <trkpt lat="47.33044" lon="-1.26475">
        <ele>67</ele>
        <time>2020-12-06T09:00:46.568000+00:00</time>
      </trkpt>
      <trkpt lat="0" lon="0">
        <time>2020-12-06T09:00:46.576000+00:00</time>
      </trkpt>
      <trkpt lat="0" lon="0">
        <time>2020-12-06T09:00:46.582000+00:00</time>
      </trkpt>
      <trkpt lat="0" lon="0">
        <time>2020-12-06T09:00:46.586000+00:00</time>
      </trkpt>
      <trkpt lat="47.33046" lon="-1.26474">
        <ele>66</ele>
        <time>2020-12-06T09:00:47.528000+00:00</time>
      </trkpt>
      <trkpt lat="0" lon="0">
        <time>2020-12-06T09:00:47.532000+00:00</time>
      </trkpt>
      <trkpt lat="0" lon="0">
        <time>2020-12-06T09:00:47.535000+00:00</time>
      </trkpt>
      <trkpt lat="0" lon="0">
        <time>2020-12-06T09:00:47.539000+00:00</time>
      </trkpt>
      <trkpt lat="47.33048" lon="-1.26474">
        <ele>66</ele>
        <time>2020-12-06T09:00:48.575000+00:00</time>
      </trkpt>
      <trkpt lat="0" lon="0">
        <time>2020-12-06T09:00:48.586000+00:00</time>
      </trkpt>
      <trkpt lat="0" lon="0">
        <time>2020-12-06T09:00:48.589000+00:00</time>
      </trkpt>
      <trkpt lat="0" lon="0">
        <time>2020-12-06T09:00:48.592000+00:00</time>
      </trkpt>
      <trkpt lat="47.33053" lon="-1.26472">
        <ele>66</ele>
        <time>2020-12-06T09:00:50.529000+00:00</time>
      </trkpt>
      <trkpt lat="0" lon="0">
        <time>2020-12-06T09:00:50.531000+00:00</time>
      </trkpt>
      <trkpt lat="0" lon="0">
        <time>2020-12-06T09:00:50.532000+00:00</time>
      </trkpt>
      <trkpt lat="0" lon="0">
        <time>2020-12-06T09:00:50.533000+00:00</time>
      </trkpt>
      <trkpt lat="47.33056" lon="-1.26471">
        <ele>66</ele>
        <time>2020-12-06T09:00:51.537000+00:00</time>
      </trkpt>
      <trkpt lat="0" lon="0">
        <time>2020-12-06T09:00:51.541000+00:00</time>
      </trkpt>
      <trkpt lat="0" lon="0">
        <time>2020-12-06T09:00:51.546000+00:00</time>
      </trkpt>
      <trkpt lat="0" lon="0">
        <time>2020-12-06T09:00:51.549000+00:00</time>
      </trkpt>
      <trkpt lat="47.3306" lon="-1.2647">
        <ele>66</ele>
        <time>2020-12-06T09:00:52.534000+00:00</time>
      </trkpt>
      <trkpt lat="0" lon="0">
        <time>2020-12-06T09:00:52.537000+00:00</time>
      </trkpt>
      <trkpt lat="0" lon="0">
        <time>2020-12-06T09:00:52.542000+00:00</time>
      </trkpt>
      <trkpt lat="0" lon="0">
        <time>2020-12-06T09:00:52.545000+00:00</time>
      </trkpt>
      <trkpt lat="47.33064" lon="-1.26468">
        <ele>66</ele>
        <time>2020-12-06T09:00:53.530000+00:00</time>
      </trkpt>
      <trkpt lat="0" lon="0">
        <time>2020-12-06T09:00:53.532000+00:00</time>
      </trkpt>
      <trkpt lat="0" lon="0">
        <time>2020-12-06T09:00:53.551000+00:00</time>
      </trkpt>
      <trkpt lat="0" lon="0">
        <time>2020-12-06T09:00:53.555000+00:00</time>
      </trkpt>
      <trkpt lat="47.33067" lon="-1.26467">
        <ele>66</ele>
        <time>2020-12-06T09:00:54.449000+00:00</time>
      </trkpt>
      <trkpt lat="0" lon="0">
        <time>2020-12-06T09:00:54.460000+00:00</time>
      </trkpt>
      <trkpt lat="0" lon="0">
        <time>2020-12-06T09:00:54.472000+00:00</time>
      </trkpt>
      <trkpt lat="0" lon="0">
        <time>2020-12-06T09:00:54.475000+00:00</time>
      </trkpt>
      <trkpt lat="47.33071" lon="-1.26465">
        <ele>66</ele>
        <time>2020-12-06T09:00:55.565000+00:00</time>
      </trkpt>
      <trkpt lat="0" lon="0">
        <time>2020-12-06T09:00:55.582000+00:00</time>
      </trkpt>
      <trkpt lat="0" lon="0">
        <time>2020-12-06T09:00:55.586000+00:00</time>
      </trkpt>
      <trkpt lat="0" lon="0">
        <time>2020-12-06T09:00:55.588000+00:00</time>
      </trkpt>
      <trkpt lat="47.33075" lon="-1.26463">
        <ele>66</ele>
        <time>2020-12-06T09:00:56.570000+00:00</time>
      </trkpt>
      <trkpt lat="0" lon="0">
        <time>2020-12-06T09:00:56.592000+00:00</time>
      </trkpt>
      <trkpt lat="0" lon="0">
        <time>2020-12-06T09:00:56.596000+00:00</time>
      </trkpt>
      <trkpt lat="0" lon="0">
        <time>2020-12-06T09:00:56.598000+00:00</time>
      </trkpt>
      <trkpt lat="47.33078" lon="-1.26461">
        <ele>66</ele>
        <time>2020-12-06T09:00:57.549000+00:00</time>
      </trkpt>
      <trkpt lat="0" lon="0">
        <time>2020-12-06T09:00:57.563000+00:00</time>
      </trkpt>
      <trkpt lat="0" lon="0">
        <time>2020-12-06T09:00:57.565000+00:00</time>
      </trkpt>
      <trkpt lat="0" lon="0">
        <time>2020-12-06T09:00:57.569000+00:00</time>
      </trkpt>
      <trkpt lat="47.33082" lon="-1.2646">
        <ele>66</ele>
        <time>2020-12-06T09:00:58.521000+00:00</time>
      </trkpt>
      <trkpt lat="0" lon="0">
        <time>2020-12-06T09:00:58.525000+00:00</time>
      </trkpt>
      <trkpt lat="0" lon="0">
        <time>2020-12-06T09:00:58.533000+00:00</time>
      </trkpt>
      <trkpt lat="0" lon="0">
        <time>2020-12-06T09:00:58.536000+00:00</time>
      </trkpt>
      <trkpt lat="47.33085" lon="-1.26458">
        <ele>65</ele>
        <time>2020-12-06T09:00:59.546000+00:00</time>
      </trkpt>
      <trkpt lat="0" lon="0">
        <time>2020-12-06T09:00:59.554000+00:00</time>
      </trkpt>
      <trkpt lat="0" lon="0">
        <time>2020-12-06T09:00:59.561000+00:00</time>
      </trkpt>
      <trkpt lat="0" lon="0">
        <time>2020-12-06T09:00:59.562000+00:00</time>
      </trkpt>
      <trkpt lat="47.33088" lon="-1.26458">
        <ele>65</ele>
        <time>2020-12-06T09:01:00.522000+00:00</time>
      </trkpt>
      <trkpt lat="0" lon="0">
        <time>2020-12-06T09:01:00.525000+00:00</time>
      </trkpt>
      <trkpt lat="0" lon="0">
        <time>2020-12-06T09:01:00.533000+00:00</time>
      </trkpt>
      <trkpt lat="0" lon="0">
        <time>2020-12-06T09:01:00.541000+00:00</time>
      </trkpt>
      <trkpt lat="47.33091" lon="-1.26457">
        <ele>65</ele>
        <time>2020-12-06T09:01:01.536000+00:00</time>
      </trkpt>
      <trkpt lat="0" lon="0">
        <time>2020-12-06T09:01:01.537000+00:00</time>
      </trkpt>
      <trkpt lat="0" lon="0">
        <time>2020-12-06T09:01:01.538000+00:00</time>
      </trkpt>
      <trkpt lat="0" lon="0">
        <time>2020-12-06T09:01:01.539000+00:00</time>
      </trkpt>
      <trkpt lat="47.33094" lon="-1.26457">
        <ele>65</ele>
        <time>2020-12-06T09:01:02.590000+00:00</time>
      </trkpt>
      <trkpt lat="0" lon="0">
        <time>2020-12-06T09:01:02.601000+00:00</time>
      </trkpt>
      <trkpt lat="0" lon="0">
        <time>2020-12-06T09:01:02.604000+00:00</time>
      </trkpt>
      <trkpt lat="0" lon="0">
        <time>2020-12-06T09:01:02.606000+00:00</time>
      </trkpt>
      <trkpt lat="47.33096" lon="-1.26457">
        <ele>65</ele>
        <time>2020-12-06T09:01:03.571000+00:00</time>
      </trkpt>
      <trkpt lat="0" lon="0">
        <time>2020-12-06T09:01:03.578000+00:00</time>
      </trkpt>
      <trkpt lat="0" lon="0">
        <time>2020-12-06T09:01:03.584000+00:00</time>
      </trkpt>
      <trkpt lat="0" lon="0">
        <time>2020-12-06T09:01:03.585000+00:00</time>
      </trkpt>
      <trkpt lat="47.33099" lon="-1.26457">
        <ele>65</ele>
        <time>2020-12-06T09:01:04.563000+00:00</time>
      </trkpt>
      <trkpt lat="0" lon="0">
        <time>2020-12-06T09:01:04.573000+00:00</time>
      </trkpt>
      <trkpt lat="0" lon="0">
        <time>2020-12-06T09:01:04.579000+00:00</time>
      </trkpt>
      <trkpt lat="0" lon="0">
        <time>2020-12-06T09:01:04.580000+00:00</time>
      </trkpt>
      <trkpt lat="47.33101" lon="-1.26458">
        <ele>65</ele>
        <time>2020-12-06T09:01:05.555000+00:00</time>
      </trkpt>
      <trkpt lat="0" lon="0">
        <time>2020-12-06T09:01:05.561000+00:00</time>
      </trkpt>
      <trkpt lat="0" lon="0">
        <time>2020-12-06T09:01:05.565000+00:00</time>
      </trkpt>
      <trkpt lat="0" lon="0">
        <time>2020-12-06T09:01:05.568000+00:00</time>
      </trkpt>
      <trkpt lat="47.33103" lon="-1.26459">
        <ele>65</ele>
        <time>2020-12-06T09:01:06.558000+00:00</time>
      </trkpt>
      <trkpt lat="0" lon="0">
        <time>2020-12-06T09:01:06.568000+00:00</time>
      </trkpt>
      <trkpt lat="0" lon="0">
        <time>2020-12-06T09:01:06.570000+00:00</time>
      </trkpt>
      <trkpt lat="0" lon="0">
        <time>2020-12-06T09:01:06.571000+00:00</time>
      </trkpt>
      <trkpt lat="47.33105" lon="-1.2646">
        <ele>65</ele>
        <time>2020-12-06T09:01:07.545000+00:00</time>
      </trkpt>
      <trkpt lat="0" lon="0">
        <time>2020-12-06T09:01:07.553000+00:00</time>
      </trkpt>
      <trkpt lat="0" lon="0">
        <time>2020-12-06T09:01:07.559000+00:00</time>
      </trkpt>
      <trkpt lat="0" lon="0">
        <time>2020-12-06T09:01:07.562000+00:00</time>
      </trkpt>
      <trkpt lat="47.33106" lon="-1.2646">
        <ele>65</ele>
        <time>2020-12-06T09:01:08.521000+00:00</time>
      </trkpt>
      <trkpt lat="0" lon="0">
        <time>2020-12-06T09:01:08.524000+00:00</time>
      </trkpt>
      <trkpt lat="0" lon="0">
        <time>2020-12-06T09:01:08.528000+00:00</time>
      </trkpt>
      <trkpt lat="0" lon="0">
        <time>2020-12-06T09:01:08.530000+00:00</time>
      </trkpt>
      <trkpt lat="47.33108" lon="-1.26461">
        <ele>65</ele>
        <time>2020-12-06T09:01:09.547000+00:00</time>
      </trkpt>
      <trkpt lat="0" lon="0">
        <time>2020-12-06T09:01:09.550000+00:00</time>
      </trkpt>
      <trkpt lat="0" lon="0">
        <time>2020-12-06T09:01:09.554000+00:00</time>
      </trkpt>
      <trkpt lat="0" lon="0">
        <time>2020-12-06T09:01:09.556000+00:00</time>
      </trkpt>
      <trkpt lat="47.3311" lon="-1.26462">
        <ele>65</ele>
        <time>2020-12-06T09:01:10.597000+00:00</time>
      </trkpt>
      <trkpt lat="0" lon="0">
        <time>2020-12-06T09:01:10.607000+00:00</time>
      </trkpt>
      <trkpt lat="0" lon="0">
        <time>2020-12-06T09:01:10.613000+00:00</time>
      </trkpt>
      <trkpt lat="0" lon="0">
        <time>2020-12-06T09:01:10.615000+00:00</time>
      </trkpt>
      <trkpt lat="47.33112" lon="-1.26463">
        <ele>65</ele>
        <time>2020-12-06T09:01:11.552000+00:00</time>
      </trkpt>
      <trkpt lat="0" lon="0">
        <time>2020-12-06T09:01:11.559000+00:00</time>
      </trkpt>
      <trkpt lat="0" lon="0">
        <time>2020-12-06T09:01:11.563000+00:00</time>
      </trkpt>
      <trkpt lat="0" lon="0">
        <time>2020-12-06T09:01:11.565000+00:00</time>
      </trkpt>
      <trkpt lat="47.33113" lon="-1.26464">
        <ele>65</ele>
        <time>2020-12-06T09:01:12.573000+00:00</time>
      </trkpt>
      <trkpt lat="0" lon="0">
        <time>2020-12-06T09:01:12.582000+00:00</time>
      </trkpt>
      <trkpt lat="0" lon="0">
        <time>2020-12-06T09:01:12.588000+00:00</time>
      </trkpt>
      <trkpt lat="0" lon="0">
        <time>2020-12-06T09:01:12.590000+00:00</time>
      </trkpt>
      <trkpt lat="47.33115" lon="-1.26464">
        <ele>65</ele>
        <time>2020-12-06T09:01:13.569000+00:00</time>
      </trkpt>
      <trkpt lat="0" lon="0">
        <time>2020-12-06T09:01:13.576000+00:00</time>
      </trkpt>
      <trkpt lat="0" lon="0">
        <time>2020-12-06T09:01:13.582000+00:00</time>
      </trkpt>
      <trkpt lat="0" lon="0">
        <time>2020-12-06T09:01:13.586000+00:00</time>
      </trkpt>
      <trkpt lat="47.33117" lon="-1.26465">
        <ele>65</ele>
        <time>2020-12-06T09:01:14.593000+00:00</time>
      </trkpt>
      <trkpt lat="0" lon="0">
        <time>2020-12-06T09:01:14.601000+00:00</time>
      </trkpt>
      <trkpt lat="0" lon="0">
        <time>2020-12-06T09:01:14.606000+00:00</time>
      </trkpt>
      <trkpt lat="0" lon="0">
        <time>2020-12-06T09:01:14.608000+00:00</time>
      </trkpt>
      <trkpt lat="47.33118" lon="-1.26465">
        <ele>64</ele>
        <time>2020-12-06T09:01:15.586000+00:00</time>
      </trkpt>
      <trkpt lat="0" lon="0">
        <time>2020-12-06T09:01:15.605000+00:00</time>
      </trkpt>
      <trkpt lat="0" lon="0">
        <time>2020-12-06T09:01:15.614000+00:00</time>
      </trkpt>
      <trkpt lat="0" lon="0">
        <time>2020-12-06T09:01:15.616000+00:00</time>
      </trkpt>
      <trkpt lat="47.3312" lon="-1.26466">
        <ele>64</ele>
        <time>2020-12-06T09:01:16.563000+00:00</time>
      </trkpt>
      <trkpt lat="0" lon="0">
        <time>2020-12-06T09:01:16.568000+00:00</time>
      </trkpt>
      <trkpt lat="0" lon="0">
        <time>2020-12-06T09:01:16.569000+00:00</time>
      </trkpt>
      <trkpt lat="0" lon="0">
        <time>2020-12-06T09:01:16.570000+00:00</time>
      </trkpt>
      <trkpt lat="47.33122" lon="-1.26466">
        <ele>64</ele>
        <time>2020-12-06T09:01:17.575000+00:00</time>
      </trkpt>
      <trkpt lat="0" lon="0">
        <time>2020-12-06T09:01:17.580000+00:00</time>
      </trkpt>
      <trkpt lat="0" lon="0">
        <time>2020-12-06T09:01:17.584000+00:00</time>
      </trkpt>
      <trkpt lat="0" lon="0">
        <time>2020-12-06T09:01:17.586000+00:00</time>
      </trkpt>
      <trkpt lat="47.33124" lon="-1.26467">
        <ele>64</ele>
        <time>2020-12-06T09:01:18.581000+00:00</time>
      </trkpt>
      <trkpt lat="0" lon="0">
        <time>2020-12-06T09:01:18.589000+00:00</time>
      </trkpt>
      <trkpt lat="0" lon="0">
        <time>2020-12-06T09:01:18.595000+00:00</time>
      </trkpt>
      <trkpt lat="0" lon="0">
        <time>2020-12-06T09:01:18.601000+00:00</time>
      </trkpt>
      <trkpt lat="47.33126" lon="-1.26467">
        <ele>64</ele>
        <time>2020-12-06T09:01:19.550000+00:00</time>
      </trkpt>
      <trkpt lat="0" lon="0">
        <time>2020-12-06T09:01:19.552000+00:00</time>
      </trkpt>
      <trkpt lat="0" lon="0">
        <time>2020-12-06T09:01:19.553000+00:00</time>
      </trkpt>
      <trkpt lat="0" lon="0">
        <time>2020-12-06T09:01:19.554000+00:00</time>
      </trkpt>
      <trkpt lat="47.33128" lon="-1.26468">
        <ele>64</ele>
        <time>2020-12-06T09:01:20.563000+00:00</time>
      </trkpt>
      <trkpt lat="0" lon="0">
        <time>2020-12-06T09:01:20.573000+00:00</time>
      </trkpt>
      <trkpt lat="0" lon="0">
        <time>2020-12-06T09:01:20.580000+00:00</time>
      </trkpt>
      <trkpt lat="0" lon="0">
        <time>2020-12-06T09:01:20.590000+00:00</time>
      </trkpt>
      <trkpt lat="47.3313" lon="-1.26468">
        <ele>64</ele>
        <time>2020-12-06T09:01:21.582000+00:00</time>
      </trkpt>
      <trkpt lat="0" lon="0">
        <time>2020-12-06T09:01:21.586000+00:00</time>
      </trkpt>
      <trkpt lat="0" lon="0">
        <time>2020-12-06T09:01:21.589000+00:00</time>
      </trkpt>
      <trkpt lat="0" lon="0">
        <time>2020-12-06T09:01:21.591000+00:00</time>
      </trkpt>
      <trkpt lat="47.33132" lon="-1.26469">
        <ele>64</ele>
        <time>2020-12-06T09:01:22.543000+00:00</time>
      </trkpt>
      <trkpt lat="0" lon="0">
        <time>2020-12-06T09:01:22.546000+00:00</time>
      </trkpt>
      <trkpt lat="0" lon="0">
        <time>2020-12-06T09:01:22.550000+00:00</time>
      </trkpt>
      <trkpt lat="0" lon="0">
        <time>2020-12-06T09:01:22.552000+00:00</time>
      </trkpt>
      <trkpt lat="47.33134" lon="-1.26469">
        <ele>64</ele>
        <time>2020-12-06T09:01:23.537000+00:00</time>
      </trkpt>
      <trkpt lat="0" lon="0">
        <time>2020-12-06T09:01:23.540000+00:00</time>
      </trkpt>
      <trkpt lat="0" lon="0">
        <time>2020-12-06T09:01:23.544000+00:00</time>
      </trkpt>
      <trkpt lat="0" lon="0">
        <time>2020-12-06T09:01:23.557000+00:00</time>
      </trkpt>
      <trkpt lat="47.33135" lon="-1.26469">
        <ele>64</ele>
        <time>2020-12-06T09:01:24.592000+00:00</time>
      </trkpt>
      <trkpt lat="0" lon="0">
        <time>2020-12-06T09:01:24.601000+00:00</time>
      </trkpt>
      <trkpt lat="0" lon="0">
        <time>2020-12-06T09:01:24.604000+00:00</time>
      </trkpt>
      <trkpt lat="0" lon="0">
        <time>2020-12-06T09:01:24.612000+00:00</time>
      </trkpt>
      <trkpt lat="47.33137" lon="-1.26469">
        <ele>64</ele>
        <time>2020-12-06T09:01:25.559000+00:00</time>
      </trkpt>
      <trkpt lat="0" lon="0">
        <time>2020-12-06T09:01:25.560000+00:00</time>
      </trkpt>
      <trkpt lat="0" lon="0">
        <time>2020-12-06T09:01:25.563000+00:00</time>
      </trkpt>
      <trkpt lat="0" lon="0">
        <time>2020-12-06T09:01:25.564000+00:00</time>
      </trkpt>
      <trkpt lat="47.33139" lon="-1.26469">
        <ele>64</ele>
        <time>2020-12-06T09:01:26.574000+00:00</time>
      </trkpt>
      <trkpt lat="0" lon="0">
        <time>2020-12-06T09:01:26.575000+00:00</time>
      </trkpt>
      <trkpt lat="0" lon="0">
        <time>2020-12-06T09:01:26.577000+00:00</time>
      </trkpt>
      <trkpt lat="0" lon="0">
        <time>2020-12-06T09:01:26.578000+00:00</time>
      </trkpt>
      <trkpt lat="47.33141" lon="-1.26468">
        <ele>64</ele>
        <time>2020-12-06T09:01:27.573000+00:00</time>
      </trkpt>
      <trkpt lat="0" lon="0">
        <time>2020-12-06T09:01:27.576000+00:00</time>
      </trkpt>
      <trkpt lat="0" lon="0">
        <time>2020-12-06T09:01:27.578000+00:00</time>
      </trkpt>
      <trkpt lat="0" lon="0">
        <time>2020-12-06T09:01:27.583000+00:00</time>
      </trkpt>
      <trkpt lat="47.33143" lon="-1.26468">
        <ele>64</ele>
        <time>2020-12-06T09:01:28.580000+00:00</time>
      </trkpt>
      <trkpt lat="0" lon="0">
        <time>2020-12-06T09:01:28.584000+00:00</time>
      </trkpt>
      <trkpt lat="0" lon="0">
        <time>2020-12-06T09:01:28.588000+00:00</time>
      </trkpt>
      <trkpt lat="0" lon="0">
        <time>2020-12-06T09:01:28.590000+00:00</time>
      </trkpt>
      <trkpt lat="47.33145" lon="-1.26468">
        <ele>64</ele>
        <time>2020-12-06T09:01:29.563000+00:00</time>
      </trkpt>
      <trkpt lat="0" lon="0">
        <time>2020-12-06T09:01:29.567000+00:00</time>
      </trkpt>
      <trkpt lat="0" lon="0">
        <time>2020-12-06T09:01:29.572000+00:00</time>
      </trkpt>
      <trkpt lat="0" lon="0">
        <time>2020-12-06T09:01:29.574000+00:00</time>
      </trkpt>
      <trkpt lat="47.33147" lon="-1.26467">
        <ele>64</ele>
        <time>2020-12-06T09:01:30.558000+00:00</time>
      </trkpt>
      <trkpt lat="0" lon="0">
        <time>2020-12-06T09:01:30.566000+00:00</time>
      </trkpt>
      <trkpt lat="0" lon="0">
        <time>2020-12-06T09:01:30.569000+00:00</time>
      </trkpt>
      <trkpt lat="0" lon="0">
        <time>2020-12-06T09:01:30.571000+00:00</time>
      </trkpt>
      <trkpt lat="47.33149" lon="-1.26466">
        <ele>64</ele>
        <time>2020-12-06T09:01:31.609000+00:00</time>
      </trkpt>
      <trkpt lat="0" lon="0">
        <time>2020-12-06T09:01:31.611000+00:00</time>
      </trkpt>
      <trkpt lat="0" lon="0">
        <time>2020-12-06T09:01:31.614000+00:00</time>
      </trkpt>
      <trkpt lat="47.33151" lon="-1.26466">
        <ele>64</ele>
        <time>2020-12-06T09:01:32.573000+00:00</time>
      </trkpt>
      <trkpt lat="0" lon="0">
        <time>2020-12-06T09:01:32.575000+00:00</time>
      </trkpt>
      <trkpt lat="0" lon="0">
        <time>2020-12-06T09:01:32.579000+00:00</time>
      </trkpt>
      <trkpt lat="0" lon="0">
        <time>2020-12-06T09:01:32.581000+00:00</time>
      </trkpt>
      <trkpt lat="47.33153" lon="-1.26466">
        <ele>64</ele>
        <time>2020-12-06T09:01:33.557000+00:00</time>
      </trkpt>
      <trkpt lat="0" lon="0">
        <time>2020-12-06T09:01:33.563000+00:00</time>
      </trkpt>
      <trkpt lat="0" lon="0">
        <time>2020-12-06T09:01:33.568000+00:00</time>
      </trkpt>
      <trkpt lat="0" lon="0">
        <time>2020-12-06T09:01:33.571000+00:00</time>
      </trkpt>
      <trkpt lat="47.33155" lon="-1.26465">
        <ele>64</ele>
        <time>2020-12-06T09:01:34.559000+00:00</time>
      </trkpt>
      <trkpt lat="0" lon="0">
        <time>2020-12-06T09:01:34.562000+00:00</time>
      </trkpt>
      <trkpt lat="0" lon="0">
        <time>2020-12-06T09:01:34.569000+00:00</time>
      </trkpt>
      <trkpt lat="0" lon="0">
        <time>2020-12-06T09:01:34.576000+00:00</time>
      </trkpt>
      <trkpt lat="47.33156" lon="-1.26465">
        <ele>64</ele>
        <time>2020-12-06T09:01:35.571000+00:00</time>
      </trkpt>
      <trkpt lat="0" lon="0">
        <time>2020-12-06T09:01:35.577000+00:00</time>
      </trkpt>
      <trkpt lat="0" lon="0">
        <time>2020-12-06T09:01:35.588000+00:00</time>
      </trkpt>
      <trkpt lat="0" lon="0">
        <time>2020-12-06T09:01:35.593000+00:00</time>
      </trkpt>
      <trkpt lat="47.33158" lon="-1.26464">
        <ele>64</ele>
        <time>2020-12-06T09:01:36.560000+00:00</time>
      </trkpt>
      <trkpt lat="0" lon="0">
        <time>2020-12-06T09:01:36.569000+00:00</time>
      </trkpt>
      <trkpt lat="0" lon="0">
        <time>2020-12-06T09:01:36.573000+00:00</time>
      </trkpt>
      <trkpt lat="47.33159" lon="-1.26464">
        <ele>64</ele>
        <time>2020-12-06T09:01:37.576000+00:00</time>
      </trkpt>
      <trkpt lat="0" lon="0">
        <time>2020-12-06T09:01:37.577000+00:00</time>
      </trkpt>
      <trkpt lat="0" lon="0">
        <time>2020-12-06T09:01:37.579000+00:00</time>
      </trkpt>
      <trkpt lat="0" lon="0">
        <time>2020-12-06T09:01:37.582000+00:00</time>
      </trkpt>
      <trkpt lat="47.33161" lon="-1.26464">
        <ele>64</ele>
        <time>2020-12-06T09:01:38.590000+00:00</time>
      </trkpt>
      <trkpt lat="0" lon="0">
        <time>2020-12-06T09:01:38.593000+00:00</time>
      </trkpt>
      <trkpt lat="0" lon="0">
        <time>2020-12-06T09:01:38.602000+00:00</time>
      </trkpt>
      <trkpt lat="0" lon="0">
        <time>2020-12-06T09:01:38.606000+00:00</time>
      </trkpt>
      <trkpt lat="47.33163" lon="-1.26463">
        <ele>63</ele>
        <time>2020-12-06T09:01:39.578000+00:00</time>
      </trkpt>
      <trkpt lat="0" lon="0">
        <time>2020-12-06T09:01:39.581000+00:00</time>
      </trkpt>
      <trkpt lat="0" lon="0">
        <time>2020-12-06T09:01:39.589000+00:00</time>
      </trkpt>
      <trkpt lat="0" lon="0">
        <time>2020-12-06T09:01:39.590000+00:00</time>
      </trkpt>
      <trkpt lat="47.33165" lon="-1.26463">
        <ele>63</ele>
        <time>2020-12-06T09:01:40.550000+00:00</time>
      </trkpt>
      <trkpt lat="0" lon="0">
        <time>2020-12-06T09:01:40.553000+00:00</time>
      </trkpt>
      <trkpt lat="0" lon="0">
        <time>2020-12-06T09:01:40.557000+00:00</time>
      </trkpt>
      <trkpt lat="0" lon="0">
        <time>2020-12-06T09:01:40.559000+00:00</time>
      </trkpt>
      <trkpt lat="47.33168" lon="-1.26463">
        <ele>63</ele>
        <time>2020-12-06T09:01:41.540000+00:00</time>
      </trkpt>
      <trkpt lat="0" lon="0">
        <time>2020-12-06T09:01:41.551000+00:00</time>
      </trkpt>
      <trkpt lat="0" lon="0">
        <time>2020-12-06T09:01:41.559000+00:00</time>
      </trkpt>
      <trkpt lat="0" lon="0">
        <time>2020-12-06T09:01:41.561000+00:00</time>
      </trkpt>
      <trkpt lat="47.3317" lon="-1.26463">
        <ele>64</ele>
        <time>2020-12-06T09:01:42.587000+00:00</time>
      </trkpt>
      <trkpt lat="0" lon="0">
        <time>2020-12-06T09:01:42.590000+00:00</time>
      </trkpt>
      <trkpt lat="0" lon="0">
        <time>2020-12-06T09:01:42.594000+00:00</time>
      </trkpt>
      <trkpt lat="0" lon="0">
        <time>2020-12-06T09:01:42.599000+00:00</time>
      </trkpt>
      <trkpt lat="47.33172" lon="-1.26462">
        <ele>64</ele>
        <time>2020-12-06T09:01:43.515000+00:00</time>
      </trkpt>
      <trkpt lat="0" lon="0">
        <time>2020-12-06T09:01:43.522000+00:00</time>
      </trkpt>
      <trkpt lat="0" lon="0">
        <time>2020-12-06T09:01:43.526000+00:00</time>
      </trkpt>
      <trkpt lat="0" lon="0">
        <time>2020-12-06T09:01:43.528000+00:00</time>
      </trkpt>
      <trkpt lat="47.33175" lon="-1.26462">
        <ele>64</ele>
        <time>2020-12-06T09:01:44.597000+00:00</time>
      </trkpt>
      <trkpt lat="0" lon="0">
        <time>2020-12-06T09:01:44.602000+00:00</time>
      </trkpt>
      <trkpt lat="0" lon="0">
        <time>2020-12-06T09:01:44.605000+00:00</time>
      </trkpt>
      <trkpt lat="0" lon="0">
        <time>2020-12-06T09:01:44.618000+00:00</time>
      </trkpt>
      <trkpt lat="47.33177" lon="-1.26462">
        <ele>64</ele>
        <time>2020-12-06T09:01:45.557000+00:00</time>
      </trkpt>
      <trkpt lat="0" lon="0">
        <time>2020-12-06T09:01:45.560000+00:00</time>
      </trkpt>
      <trkpt lat="0" lon="0">
        <time>2020-12-06T09:01:45.563000+00:00</time>
      </trkpt>
      <trkpt lat="0" lon="0">
        <time>2020-12-06T09:01:45.565000+00:00</time>
      </trkpt>
      <trkpt lat="47.33179" lon="-1.26462">
        <ele>64</ele>
        <time>2020-12-06T09:01:46.549000+00:00</time>
      </trkpt>
      <trkpt lat="0" lon="0">
        <time>2020-12-06T09:01:46.553000+00:00</time>
      </trkpt>
      <trkpt lat="0" lon="0">
        <time>2020-12-06T09:01:46.556000+00:00</time>
      </trkpt>
      <trkpt lat="0" lon="0">
        <time>2020-12-06T09:01:46.558000+00:00</time>
      </trkpt>
      <trkpt lat="47.33181" lon="-1.26462">
        <ele>64</ele>
        <time>2020-12-06T09:01:47.556000+00:00</time>
      </trkpt>
      <trkpt lat="0" lon="0">
        <time>2020-12-06T09:01:47.561000+00:00</time>
      </trkpt>
      <trkpt lat="0" lon="0">
        <time>2020-12-06T09:01:47.564000+00:00</time>
      </trkpt>
      <trkpt lat="0" lon="0">
        <time>2020-12-06T09:01:47.568000+00:00</time>
      </trkpt>
      <trkpt lat="47.33184" lon="-1.26462">
        <ele>64</ele>
        <time>2020-12-06T09:01:48.591000+00:00</time>
      </trkpt>
      <trkpt lat="0" lon="0">
        <time>2020-12-06T09:01:48.594000+00:00</time>
      </trkpt>
      <trkpt lat="0" lon="0">
        <time>2020-12-06T09:01:48.598000+00:00</time>
      </trkpt>
      <trkpt lat="0" lon="0">
        <time>2020-12-06T09:01:48.600000+00:00</time>
      </trkpt>
      <trkpt lat="47.33186" lon="-1.26462">
        <ele>64</ele>
        <time>2020-12-06T09:01:49.582000+00:00</time>
      </trkpt>
      <trkpt lat="0" lon="0">
        <time>2020-12-06T09:01:49.586000+00:00</time>
      </trkpt>
      <trkpt lat="0" lon="0">
        <time>2020-12-06T09:01:49.590000+00:00</time>
      </trkpt>
      <trkpt lat="0" lon="0">
        <time>2020-12-06T09:01:49.593000+00:00</time>
      </trkpt>
      <trkpt lat="47.33189" lon="-1.26462">
        <ele>65</ele>
        <time>2020-12-06T09:01:50.550000+00:00</time>
      </trkpt>
      <trkpt lat="0" lon="0">
        <time>2020-12-06T09:01:50.561000+00:00</time>
      </trkpt>
      <trkpt lat="0" lon="0">
        <time>2020-12-06T09:01:50.573000+00:00</time>
      </trkpt>
      <trkpt lat="0" lon="0">
        <time>2020-12-06T09:01:50.577000+00:00</time>
      </trkpt>
      <trkpt lat="47.33192" lon="-1.26462">
        <ele>65</ele>
        <time>2020-12-06T09:01:51.543000+00:00</time>
      </trkpt>
      <trkpt lat="0" lon="0">
        <time>2020-12-06T09:01:51.562000+00:00</time>
      </trkpt>
      <trkpt lat="0" lon="0">
        <time>2020-12-06T09:01:51.572000+00:00</time>
      </trkpt>
      <trkpt lat="0" lon="0">
        <time>2020-12-06T09:01:51.573000+00:00</time>
      </trkpt>
      <trkpt lat="47.33194" lon="-1.26461">
        <ele>65</ele>
        <time>2020-12-06T09:01:52.581000+00:00</time>
      </trkpt>
      <trkpt lat="0" lon="0">
        <time>2020-12-06T09:01:52.584000+00:00</time>
      </trkpt>
      <trkpt lat="0" lon="0">
        <time>2020-12-06T09:01:52.587000+00:00</time>
      </trkpt>
      <trkpt lat="0" lon="0">
        <time>2020-12-06T09:01:52.589000+00:00</time>
      </trkpt>
      <trkpt lat="47.33197" lon="-1.2646">
        <ele>65</ele>
        <time>2020-12-06T09:01:53.575000+00:00</time>
      </trkpt>
      <trkpt lat="0" lon="0">
        <time>2020-12-06T09:01:53.578000+00:00</time>
      </trkpt>
      <trkpt lat="0" lon="0">
        <time>2020-12-06T09:01:53.582000+00:00</time>
      </trkpt>
      <trkpt lat="0" lon="0">
        <time>2020-12-06T09:01:53.584000+00:00</time>
      </trkpt>
      <trkpt lat="47.33199" lon="-1.26459">
        <ele>65</ele>
        <time>2020-12-06T09:01:54.585000+00:00</time>
      </trkpt>
      <trkpt lat="0" lon="0">
        <time>2020-12-06T09:01:54.591000+00:00</time>
      </trkpt>
      <trkpt lat="0" lon="0">
        <time>2020-12-06T09:01:54.598000+00:00</time>
      </trkpt>
      <trkpt lat="0" lon="0">
        <time>2020-12-06T09:01:54.600000+00:00</time>
      </trkpt>
      <trkpt lat="47.33202" lon="-1.26457">
        <ele>65</ele>
        <time>2020-12-06T09:01:55.579000+00:00</time>
      </trkpt>
      <trkpt lat="0" lon="0">
        <time>2020-12-06T09:01:55.583000+00:00</time>
      </trkpt>
      <trkpt lat="0" lon="0">
        <time>2020-12-06T09:01:55.586000+00:00</time>
      </trkpt>
      <trkpt lat="0" lon="0">
        <time>2020-12-06T09:01:55.588000+00:00</time>
      </trkpt>
      <trkpt lat="47.33204" lon="-1.26455">
        <ele>66</ele>
        <time>2020-12-06T09:01:56.544000+00:00</time>
      </trkpt>
      <trkpt lat="0" lon="0">
        <time>2020-12-06T09:01:56.547000+00:00</time>
      </trkpt>
      <trkpt lat="0" lon="0">
        <time>2020-12-06T09:01:56.550000+00:00</time>
      </trkpt>
      <trkpt lat="0" lon="0">
        <time>2020-12-06T09:01:56.553000+00:00</time>
      </trkpt>
      <trkpt lat="47.33206" lon="-1.26453">
        <ele>66</ele>
        <time>2020-12-06T09:01:57.556000+00:00</time>
      </trkpt>
      <trkpt lat="0" lon="0">
        <time>2020-12-06T09:01:57.562000+00:00</time>
      </trkpt>
      <trkpt lat="0" lon="0">
        <time>2020-12-06T09:01:57.571000+00:00</time>
      </trkpt>
      <trkpt lat="0" lon="0">
        <time>2020-12-06T09:01:57.572000+00:00</time>
      </trkpt>
      <trkpt lat="47.33208" lon="-1.2645">
        <ele>66</ele>
        <time>2020-12-06T09:01:58.577000+00:00</time>
      </trkpt>
      <trkpt lat="0" lon="0">
        <time>2020-12-06T09:01:58.585000+00:00</time>
      </trkpt>
      <trkpt lat="0" lon="0">
        <time>2020-12-06T09:01:58.592000+00:00</time>
      </trkpt>
      <trkpt lat="0" lon="0">
        <time>2020-12-06T09:01:58.595000+00:00</time>
      </trkpt>
      <trkpt lat="47.3321" lon="-1.26447">
        <ele>66</ele>
        <time>2020-12-06T09:01:59.549000+00:00</time>
      </trkpt>
      <trkpt lat="0" lon="0">
        <time>2020-12-06T09:01:59.552000+00:00</time>
      </trkpt>
      <trkpt lat="0" lon="0">
        <time>2020-12-06T09:01:59.557000+00:00</time>
      </trkpt>
      <trkpt lat="0" lon="0">
        <time>2020-12-06T09:01:59.559000+00:00</time>
      </trkpt>
      <trkpt lat="47.33212" lon="-1.26444">
        <ele>66</ele>
        <time>2020-12-06T09:02:00.601000+00:00</time>
      </trkpt>
      <trkpt lat="0" lon="0">
        <time>2020-12-06T09:02:00.608000+00:00</time>
      </trkpt>
      <trkpt lat="0" lon="0">
        <time>2020-12-06T09:02:00.613000+00:00</time>
      </trkpt>
      <trkpt lat="0" lon="0">
        <time>2020-12-06T09:02:00.625000+00:00</time>
      </trkpt>
      <trkpt lat="47.33213" lon="-1.26441">
        <ele>67</ele>
        <time>2020-12-06T09:02:01.554000+00:00</time>
      </trkpt>
      <trkpt lat="0" lon="0">
        <time>2020-12-06T09:02:01.558000+00:00</time>
      </trkpt>
      <trkpt lat="0" lon="0">
        <time>2020-12-06T09:02:01.561000+00:00</time>
      </trkpt>
      <trkpt lat="0" lon="0">
        <time>2020-12-06T09:02:01.563000+00:00</time>
      </trkpt>
      <trkpt lat="47.33215" lon="-1.26438">
        <ele>67</ele>
        <time>2020-12-06T09:02:02.530000+00:00</time>
      </trkpt>
      <trkpt lat="0" lon="0">
        <time>2020-12-06T09:02:02.545000+00:00</time>
      </trkpt>
      <trkpt lat="0" lon="0">
        <time>2020-12-06T09:02:02.560000+00:00</time>
      </trkpt>
      <trkpt lat="0" lon="0">
        <time>2020-12-06T09:02:02.563000+00:00</time>
      </trkpt>
      <trkpt lat="47.33216" lon="-1.26435">
        <ele>67</ele>
        <time>2020-12-06T09:02:03.569000+00:00</time>
      </trkpt>
      <trkpt lat="0" lon="0">
        <time>2020-12-06T09:02:03.576000+00:00</time>
      </trkpt>
      <trkpt lat="0" lon="0">
        <time>2020-12-06T09:02:03.585000+00:00</time>
      </trkpt>
      <trkpt lat="0" lon="0">
        <time>2020-12-06T09:02:03.587000+00:00</time>
      </trkpt>
      <trkpt lat="47.33217" lon="-1.26432">
        <ele>67</ele>
        <time>2020-12-06T09:02:04.583000+00:00</time>
      </trkpt>
      <trkpt lat="0" lon="0">
        <time>2020-12-06T09:02:04.592000+00:00</time>
      </trkpt>
      <trkpt lat="0" lon="0">
        <time>2020-12-06T09:02:04.600000+00:00</time>
      </trkpt>
      <trkpt lat="0" lon="0">
        <time>2020-12-06T09:02:04.603000+00:00</time>
      </trkpt>
      <trkpt lat="47.33218" lon="-1.26428">
        <ele>67</ele>
        <time>2020-12-06T09:02:05.605000+00:00</time>
      </trkpt>
      <trkpt lat="0" lon="0">
        <time>2020-12-06T09:02:05.608000+00:00</time>
      </trkpt>
      <trkpt lat="0" lon="0">
        <time>2020-12-06T09:02:05.611000+00:00</time>
      </trkpt>
      <trkpt lat="0" lon="0">
        <time>2020-12-06T09:02:05.613000+00:00</time>
      </trkpt>
      <trkpt lat="47.3322" lon="-1.26425">
        <ele>67</ele>
        <time>2020-12-06T09:02:06.606000+00:00</time>
      </trkpt>
      <trkpt lat="0" lon="0">
        <time>2020-12-06T09:02:06.610000+00:00</time>
      </trkpt>
      <trkpt lat="0" lon="0">
        <time>2020-12-06T09:02:06.614000+00:00</time>
      </trkpt>
      <trkpt lat="0" lon="0">
        <time>2020-12-06T09:02:06.616000+00:00</time>
      </trkpt>
      <trkpt lat="47.33221" lon="-1.26421">
        <ele>68</ele>
        <time>2020-12-06T09:02:07.558000+00:00</time>
      </trkpt>
      <trkpt lat="0" lon="0">
        <time>2020-12-06T09:02:07.574000+00:00</time>
      </trkpt>
      <trkpt lat="0" lon="0">
        <time>2020-12-06T09:02:07.580000+00:00</time>
      </trkpt>
      <trkpt lat="0" lon="0">
        <time>2020-12-06T09:02:07.586000+00:00</time>
      </trkpt>
      <trkpt lat="47.33222" lon="-1.26418">
        <ele>68</ele>
        <time>2020-12-06T09:02:08.610000+00:00</time>
      </trkpt>
      <trkpt lat="0" lon="0">
        <time>2020-12-06T09:02:08.620000+00:00</time>
      </trkpt>
      <trkpt lat="0" lon="0">
        <time>2020-12-06T09:02:08.632000+00:00</time>
      </trkpt>
      <trkpt lat="0" lon="0">
        <time>2020-12-06T09:02:08.635000+00:00</time>
      </trkpt>
      <trkpt lat="47.33223" lon="-1.26414">
        <ele>68</ele>
        <time>2020-12-06T09:02:09.597000+00:00</time>
      </trkpt>
      <trkpt lat="0" lon="0">
        <time>2020-12-06T09:02:09.613000+00:00</time>
      </trkpt>
      <trkpt lat="0" lon="0">
        <time>2020-12-06T09:02:09.616000+00:00</time>
      </trkpt>
      <trkpt lat="0" lon="0">
        <time>2020-12-06T09:02:09.620000+00:00</time>
      </trkpt>
      <trkpt lat="47.33224" lon="-1.26411">
        <ele>68</ele>
        <time>2020-12-06T09:02:10.570000+00:00</time>
      </trkpt>
      <trkpt lat="0" lon="0">
        <time>2020-12-06T09:02:10.587000+00:00</time>
      </trkpt>
      <trkpt lat="0" lon="0">
        <time>2020-12-06T09:02:10.595000+00:00</time>
      </trkpt>
      <trkpt lat="0" lon="0">
        <time>2020-12-06T09:02:10.597000+00:00</time>
      </trkpt>
      <trkpt lat="47.33225" lon="-1.26407">
        <ele>68</ele>
        <time>2020-12-06T09:02:11.557000+00:00</time>
      </trkpt>
      <trkpt lat="0" lon="0">
        <time>2020-12-06T09:02:11.560000+00:00</time>
      </trkpt>
      <trkpt lat="0" lon="0">
        <time>2020-12-06T09:02:11.565000+00:00</time>
      </trkpt>
      <trkpt lat="0" lon="0">
        <time>2020-12-06T09:02:11.566000+00:00</time>
      </trkpt>
      <trkpt lat="47.33225" lon="-1.26403">
        <ele>68</ele>
        <time>2020-12-06T09:02:12.560000+00:00</time>
      </trkpt>
      <trkpt lat="0" lon="0">
        <time>2020-12-06T09:02:12.564000+00:00</time>
      </trkpt>
      <trkpt lat="0" lon="0">
        <time>2020-12-06T09:02:12.576000+00:00</time>
      </trkpt>
      <trkpt lat="0" lon="0">
        <time>2020-12-06T09:02:12.578000+00:00</time>
      </trkpt>
      <trkpt lat="47.33226" lon="-1.26399">
        <ele>69</ele>
        <time>2020-12-06T09:02:13.572000+00:00</time>
      </trkpt>
      <trkpt lat="0" lon="0">
        <time>2020-12-06T09:02:13.575000+00:00</time>
      </trkpt>
      <trkpt lat="0" lon="0">
        <time>2020-12-06T09:02:13.590000+00:00</time>
      </trkpt>
      <trkpt lat="0" lon="0">
        <time>2020-12-06T09:02:13.592000+00:00</time>
      </trkpt>
      <trkpt lat="47.33227" lon="-1.26395">
        <ele>69</ele>
        <time>2020-12-06T09:02:14.587000+00:00</time>
      </trkpt>
      <trkpt lat="0" lon="0">
        <time>2020-12-06T09:02:14.597000+00:00</time>
      </trkpt>
      <trkpt lat="0" lon="0">
        <time>2020-12-06T09:02:14.602000+00:00</time>
      </trkpt>
      <trkpt lat="0" lon="0">
        <time>2020-12-06T09:02:14.604000+00:00</time>
      </trkpt>
      <trkpt lat="47.33228" lon="-1.26391">
        <ele>69</ele>
        <time>2020-12-06T09:02:15.558000+00:00</time>
      </trkpt>
      <trkpt lat="0" lon="0">
        <time>2020-12-06T09:02:15.579000+00:00</time>
      </trkpt>
      <trkpt lat="0" lon="0">
        <time>2020-12-06T09:02:15.584000+00:00</time>
      </trkpt>
      <trkpt lat="0" lon="0">
        <time>2020-12-06T09:02:15.588000+00:00</time>
      </trkpt>
      <trkpt lat="47.33229" lon="-1.26387">
        <ele>69</ele>
        <time>2020-12-06T09:02:16.533000+00:00</time>
      </trkpt>
      <trkpt lat="0" lon="0">
        <time>2020-12-06T09:02:16.549000+00:00</time>
      </trkpt>
      <trkpt lat="0" lon="0">
        <time>2020-12-06T09:02:16.559000+00:00</time>
      </trkpt>
      <trkpt lat="0" lon="0">
        <time>2020-12-06T09:02:16.561000+00:00</time>
      </trkpt>
      <trkpt lat="47.3323" lon="-1.26383">
        <ele>69</ele>
        <time>2020-12-06T09:02:17.531000+00:00</time>
      </trkpt>
      <trkpt lat="0" lon="0">
        <time>2020-12-06T09:02:17.534000+00:00</time>
      </trkpt>
      <trkpt lat="0" lon="0">
        <time>2020-12-06T09:02:17.549000+00:00</time>
      </trkpt>
      <trkpt lat="0" lon="0">
        <time>2020-12-06T09:02:17.550000+00:00</time>
      </trkpt>
      <trkpt lat="47.33231" lon="-1.26379">
        <ele>69</ele>
        <time>2020-12-06T09:02:18.535000+00:00</time>
      </trkpt>
      <trkpt lat="0" lon="0">
        <time>2020-12-06T09:02:18.542000+00:00</time>
      </trkpt>
      <trkpt lat="0" lon="0">
        <time>2020-12-06T09:02:18.547000+00:00</time>
      </trkpt>
      <trkpt lat="0" lon="0">
        <time>2020-12-06T09:02:18.550000+00:00</time>
      </trkpt>
      <trkpt lat="47.33232" lon="-1.26375">
        <ele>69</ele>
        <time>2020-12-06T09:02:19.566000+00:00</time>
      </trkpt>
      <trkpt lat="0" lon="0">
        <time>2020-12-06T09:02:19.569000+00:00</time>
      </trkpt>
      <trkpt lat="0" lon="0">
        <time>2020-12-06T09:02:19.576000+00:00</time>
      </trkpt>
      <trkpt lat="0" lon="0">
        <time>2020-12-06T09:02:19.578000+00:00</time>
      </trkpt>
      <trkpt lat="47.33233" lon="-1.26371">
        <ele>70</ele>
        <time>2020-12-06T09:02:20.554000+00:00</time>
      </trkpt>
      <trkpt lat="0" lon="0">
        <time>2020-12-06T09:02:20.572000+00:00</time>
      </trkpt>
      <trkpt lat="0" lon="0">
        <time>2020-12-06T09:02:20.577000+00:00</time>
      </trkpt>
      <trkpt lat="0" lon="0">
        <time>2020-12-06T09:02:20.579000+00:00</time>
      </trkpt>
      <trkpt lat="47.33235" lon="-1.26367">
        <ele>70</ele>
        <time>2020-12-06T09:02:21.550000+00:00</time>
      </trkpt>
      <trkpt lat="0" lon="0">
        <time>2020-12-06T09:02:21.557000+00:00</time>
      </trkpt>
      <trkpt lat="0" lon="0">
        <time>2020-12-06T09:02:21.571000+00:00</time>
      </trkpt>
      <trkpt lat="0" lon="0">
        <time>2020-12-06T09:02:21.573000+00:00</time>
      </trkpt>
      <trkpt lat="47.33236" lon="-1.26362">
        <ele>70</ele>
        <time>2020-12-06T09:02:22.561000+00:00</time>
      </trkpt>
      <trkpt lat="0" lon="0">
        <time>2020-12-06T09:02:22.572000+00:00</time>
      </trkpt>
      <trkpt lat="0" lon="0">
        <time>2020-12-06T09:02:22.575000+00:00</time>
      </trkpt>
      <trkpt lat="0" lon="0">
        <time>2020-12-06T09:02:22.577000+00:00</time>
      </trkpt>
      <trkpt lat="47.33238" lon="-1.26358">
        <ele>70</ele>
        <time>2020-12-06T09:02:23.571000+00:00</time>
      </trkpt>
      <trkpt lat="0" lon="0">
        <time>2020-12-06T09:02:23.572000+00:00</time>
      </trkpt>
      <trkpt lat="0" lon="0">
        <time>2020-12-06T09:02:23.573000+00:00</time>
      </trkpt>
      <trkpt lat="0" lon="0">
        <time>2020-12-06T09:02:23.574000+00:00</time>
      </trkpt>
      <trkpt lat="47.3324" lon="-1.26354">
        <ele>70</ele>
        <time>2020-12-06T09:02:24.560000+00:00</time>
      </trkpt>
      <trkpt lat="0" lon="0">
        <time>2020-12-06T09:02:24.572000+00:00</time>
      </trkpt>
      <trkpt lat="0" lon="0">
        <time>2020-12-06T09:02:24.580000+00:00</time>
      </trkpt>
      <trkpt lat="0" lon="0">
        <time>2020-12-06T09:02:24.582000+00:00</time>
      </trkpt>
      <trkpt lat="47.33242" lon="-1.26349">
        <ele>71</ele>
        <time>2020-12-06T09:02:25.570000+00:00</time>
      </trkpt>
      <trkpt lat="0" lon="0">
        <time>2020-12-06T09:02:25.588000+00:00</time>
      </trkpt>
      <trkpt lat="0" lon="0">
        <time>2020-12-06T09:02:25.595000+00:00</time>
      </trkpt>
      <trkpt lat="0" lon="0">
        <time>2020-12-06T09:02:25.600000+00:00</time>
      </trkpt>
      <trkpt lat="47.33244" lon="-1.26345">
        <ele>71</ele>
        <time>2020-12-06T09:02:26.569000+00:00</time>
      </trkpt>
      <trkpt lat="0" lon="0">
        <time>2020-12-06T09:02:26.576000+00:00</time>
      </trkpt>
      <trkpt lat="0" lon="0">
        <time>2020-12-06T09:02:26.578000+00:00</time>
      </trkpt>
      <trkpt lat="0" lon="0">
        <time>2020-12-06T09:02:26.579000+00:00</time>
      </trkpt>
      <trkpt lat="47.33246" lon="-1.26341">
        <ele>71</ele>
        <time>2020-12-06T09:02:27.582000+00:00</time>
      </trkpt>
      <trkpt lat="0" lon="0">
        <time>2020-12-06T09:02:27.585000+00:00</time>
      </trkpt>
      <trkpt lat="0" lon="0">
        <time>2020-12-06T09:02:27.591000+00:00</time>
      </trkpt>
      <trkpt lat="0" lon="0">
        <time>2020-12-06T09:02:27.596000+00:00</time>
      </trkpt>
      <trkpt lat="47.33249" lon="-1.26337">
        <ele>71</ele>
        <time>2020-12-06T09:02:28.557000+00:00</time>
      </trkpt>
      <trkpt lat="0" lon="0">
        <time>2020-12-06T09:02:28.564000+00:00</time>
      </trkpt>
      <trkpt lat="0" lon="0">
        <time>2020-12-06T09:02:28.572000+00:00</time>
      </trkpt>
      <trkpt lat="0" lon="0">
        <time>2020-12-06T09:02:28.574000+00:00</time>
      </trkpt>
      <trkpt lat="47.33251" lon="-1.26333">
        <ele>72</ele>
        <time>2020-12-06T09:02:29.538000+00:00</time>
      </trkpt>
      <trkpt lat="0" lon="0">
        <time>2020-12-06T09:02:29.541000+00:00</time>
      </trkpt>
      <trkpt lat="0" lon="0">
        <time>2020-12-06T09:02:29.563000+00:00</time>
      </trkpt>
      <trkpt lat="0" lon="0">
        <time>2020-12-06T09:02:29.566000+00:00</time>
      </trkpt>
      <trkpt lat="47.33254" lon="-1.26329">
        <ele>72</ele>
        <time>2020-12-06T09:02:30.572000+00:00</time>
      </trkpt>
      <trkpt lat="0" lon="0">
        <time>2020-12-06T09:02:30.576000+00:00</time>
      </trkpt>
      <trkpt lat="0" lon="0">
        <time>2020-12-06T09:02:30.581000+00:00</time>
      </trkpt>
      <trkpt lat="0" lon="0">
        <time>2020-12-06T09:02:30.583000+00:00</time>
      </trkpt>
      <trkpt lat="47.33256" lon="-1.26325">
        <ele>72</ele>
        <time>2020-12-06T09:02:31.579000+00:00</time>
      </trkpt>
      <trkpt lat="0" lon="0">
        <time>2020-12-06T09:02:31.584000+00:00</time>
      </trkpt>
      <trkpt lat="0" lon="0">
        <time>2020-12-06T09:02:31.588000+00:00</time>
      </trkpt>
      <trkpt lat="0" lon="0">
        <time>2020-12-06T09:02:31.592000+00:00</time>
      </trkpt>
      <trkpt lat="47.33258" lon="-1.26321">
        <ele>72</ele>
        <time>2020-12-06T09:02:32.532000+00:00</time>
      </trkpt>
      <trkpt lat="0" lon="0">
        <time>2020-12-06T09:02:32.540000+00:00</time>
      </trkpt>
      <trkpt lat="0" lon="0">
        <time>2020-12-06T09:02:32.544000+00:00</time>
      </trkpt>
      <trkpt lat="0" lon="0">
        <time>2020-12-06T09:02:32.548000+00:00</time>
      </trkpt>
      <trkpt lat="47.33261" lon="-1.26317">
        <ele>72</ele>
        <time>2020-12-06T09:02:33.560000+00:00</time>
      </trkpt>
      <trkpt lat="0" lon="0">
        <time>2020-12-06T09:02:33.570000+00:00</time>
      </trkpt>
      <trkpt lat="0" lon="0">
        <time>2020-12-06T09:02:33.574000+00:00</time>
      </trkpt>
      <trkpt lat="0" lon="0">
        <time>2020-12-06T09:02:33.578000+00:00</time>
      </trkpt>
      <trkpt lat="47.33263" lon="-1.26313">
        <ele>72</ele>
        <time>2020-12-06T09:02:34.559000+00:00</time>
      </trkpt>
      <trkpt lat="0" lon="0">
        <time>2020-12-06T09:02:34.562000+00:00</time>
      </trkpt>
      <trkpt lat="0" lon="0">
        <time>2020-12-06T09:02:34.577000+00:00</time>
      </trkpt>
      <trkpt lat="0" lon="0">
        <time>2020-12-06T09:02:34.579000+00:00</time>
      </trkpt>
      <trkpt lat="47.33266" lon="-1.2631">
        <ele>72</ele>
        <time>2020-12-06T09:02:35.560000+00:00</time>
      </trkpt>
      <trkpt lat="0" lon="0">
        <time>2020-12-06T09:02:35.578000+00:00</time>
      </trkpt>
      <trkpt lat="0" lon="0">
        <time>2020-12-06T09:02:35.584000+00:00</time>
      </trkpt>
      <trkpt lat="0" lon="0">
        <time>2020-12-06T09:02:35.589000+00:00</time>
      </trkpt>
      <trkpt lat="47.33269" lon="-1.26306">
        <ele>72</ele>
        <time>2020-12-06T09:02:36.535000+00:00</time>
      </trkpt>
      <trkpt lat="0" lon="0">
        <time>2020-12-06T09:02:36.537000+00:00</time>
      </trkpt>
      <trkpt lat="0" lon="0">
        <time>2020-12-06T09:02:36.548000+00:00</time>
      </trkpt>
      <trkpt lat="0" lon="0">
        <time>2020-12-06T09:02:36.549000+00:00</time>
      </trkpt>
      <trkpt lat="47.33271" lon="-1.26303">
        <ele>73</ele>
        <time>2020-12-06T09:02:37.560000+00:00</time>
      </trkpt>
      <trkpt lat="0" lon="0">
        <time>2020-12-06T09:02:37.570000+00:00</time>
      </trkpt>
      <trkpt lat="0" lon="0">
        <time>2020-12-06T09:02:37.580000+00:00</time>
      </trkpt>
      <trkpt lat="0" lon="0">
        <time>2020-12-06T09:02:37.582000+00:00</time>
      </trkpt>
      <trkpt lat="47.33273" lon="-1.263">
        <ele>73</ele>
        <time>2020-12-06T09:02:38.528000+00:00</time>
      </trkpt>
      <trkpt lat="0" lon="0">
        <time>2020-12-06T09:02:38.536000+00:00</time>
      </trkpt>
      <trkpt lat="0" lon="0">
        <time>2020-12-06T09:02:38.544000+00:00</time>
      </trkpt>
      <trkpt lat="0" lon="0">
        <time>2020-12-06T09:02:38.546000+00:00</time>
      </trkpt>
      <trkpt lat="47.33276" lon="-1.26297">
        <ele>73</ele>
        <time>2020-12-06T09:02:39.566000+00:00</time>
      </trkpt>
      <trkpt lat="0" lon="0">
        <time>2020-12-06T09:02:39.571000+00:00</time>
      </trkpt>
      <trkpt lat="0" lon="0">
        <time>2020-12-06T09:02:39.574000+00:00</time>
      </trkpt>
      <trkpt lat="0" lon="0">
        <time>2020-12-06T09:02:39.578000+00:00</time>
      </trkpt>
      <trkpt lat="47.33278" lon="-1.26295">
        <ele>73</ele>
        <time>2020-12-06T09:02:40.591000+00:00</time>
      </trkpt>
      <trkpt lat="0" lon="0">
        <time>2020-12-06T09:02:40.605000+00:00</time>
      </trkpt>
      <trkpt lat="0" lon="0">
        <time>2020-12-06T09:02:40.607000+00:00</time>
      </trkpt>
      <trkpt lat="0" lon="0">
        <time>2020-12-06T09:02:40.608000+00:00</time>
      </trkpt>
      <trkpt lat="47.33279" lon="-1.26294">
        <ele>73</ele>
        <time>2020-12-06T09:02:41.547000+00:00</time>
      </trkpt>
      <trkpt lat="0" lon="0">
        <time>2020-12-06T09:02:41.550000+00:00</time>
      </trkpt>
      <trkpt lat="0" lon="0">
        <time>2020-12-06T09:02:41.572000+00:00</time>
      </trkpt>
      <trkpt lat="0" lon="0">
        <time>2020-12-06T09:02:41.574000+00:00</time>
      </trkpt>
      <trkpt lat="47.33281" lon="-1.26293">
        <ele>73</ele>
        <time>2020-12-06T09:02:42.556000+00:00</time>
      </trkpt>
      <trkpt lat="0" lon="0">
        <time>2020-12-06T09:02:42.566000+00:00</time>
      </trkpt>
      <trkpt lat="0" lon="0">
        <time>2020-12-06T09:02:42.577000+00:00</time>
      </trkpt>
      <trkpt lat="0" lon="0">
        <time>2020-12-06T09:02:42.578000+00:00</time>
      </trkpt>
      <trkpt lat="47.33283" lon="-1.26294">
        <ele>73</ele>
        <time>2020-12-06T09:02:43.505000+00:00</time>
      </trkpt>
      <trkpt lat="0" lon="0">
        <time>2020-12-06T09:02:43.508000+00:00</time>
      </trkpt>
      <trkpt lat="0" lon="0">
        <time>2020-12-06T09:02:43.513000+00:00</time>
      </trkpt>
      <trkpt lat="0" lon="0">
        <time>2020-12-06T09:02:43.517000+00:00</time>
      </trkpt>
      <trkpt lat="47.33285" lon="-1.26295">
        <ele>73</ele>
        <time>2020-12-06T09:02:44.551000+00:00</time>
      </trkpt>
      <trkpt lat="0" lon="0">
        <time>2020-12-06T09:02:44.558000+00:00</time>
      </trkpt>
      <trkpt lat="0" lon="0">
        <time>2020-12-06T09:02:44.563000+00:00</time>
      </trkpt>
      <trkpt lat="0" lon="0">
        <time>2020-12-06T09:02:44.565000+00:00</time>
      </trkpt>
      <trkpt lat="47.33287" lon="-1.26297">
        <ele>73</ele>
        <time>2020-12-06T09:02:45.550000+00:00</time>
      </trkpt>
      <trkpt lat="0" lon="0">
        <time>2020-12-06T09:02:45.564000+00:00</time>
      </trkpt>
      <trkpt lat="0" lon="0">
        <time>2020-12-06T09:02:45.572000+00:00</time>
      </trkpt>
      <trkpt lat="0" lon="0">
        <time>2020-12-06T09:02:45.573000+00:00</time>
      </trkpt>
      <trkpt lat="47.33289" lon="-1.263">
        <ele>73</ele>
        <time>2020-12-06T09:02:46.557000+00:00</time>
      </trkpt>
      <trkpt lat="0" lon="0">
        <time>2020-12-06T09:02:46.576000+00:00</time>
      </trkpt>
      <trkpt lat="0" lon="0">
        <time>2020-12-06T09:02:46.580000+00:00</time>
      </trkpt>
      <trkpt lat="0" lon="0">
        <time>2020-12-06T09:02:46.582000+00:00</time>
      </trkpt>
      <trkpt lat="47.33291" lon="-1.26304">
        <ele>73</ele>
        <time>2020-12-06T09:02:47.591000+00:00</time>
      </trkpt>
      <trkpt lat="0" lon="0">
        <time>2020-12-06T09:02:47.605000+00:00</time>
      </trkpt>
      <trkpt lat="0" lon="0">
        <time>2020-12-06T09:02:47.609000+00:00</time>
      </trkpt>
      <trkpt lat="0" lon="0">
        <time>2020-12-06T09:02:47.611000+00:00</time>
      </trkpt>
      <trkpt lat="47.33294" lon="-1.26308">
        <ele>73</ele>
        <time>2020-12-06T09:02:48.531000+00:00</time>
      </trkpt>
      <trkpt lat="0" lon="0">
        <time>2020-12-06T09:02:48.537000+00:00</time>
      </trkpt>
      <trkpt lat="0" lon="0">
        <time>2020-12-06T09:02:48.550000+00:00</time>
      </trkpt>
      <trkpt lat="0" lon="0">
        <time>2020-12-06T09:02:48.553000+00:00</time>
      </trkpt>
      <trkpt lat="47.33296" lon="-1.26312">
        <ele>73</ele>
        <time>2020-12-06T09:02:49.561000+00:00</time>
      </trkpt>
      <trkpt lat="0" lon="0">
        <time>2020-12-06T09:02:49.571000+00:00</time>
      </trkpt>
      <trkpt lat="0" lon="0">
        <time>2020-12-06T09:02:49.580000+00:00</time>
      </trkpt>
      <trkpt lat="0" lon="0">
        <time>2020-12-06T09:02:49.582000+00:00</time>
      </trkpt>
      <trkpt lat="47.33299" lon="-1.26317">
        <ele>73</ele>
        <time>2020-12-06T09:02:50.552000+00:00</time>
      </trkpt>
      <trkpt lat="0" lon="0">
        <time>2020-12-06T09:02:50.555000+00:00</time>
      </trkpt>
      <trkpt lat="0" lon="0">
        <time>2020-12-06T09:02:50.559000+00:00</time>
      </trkpt>
      <trkpt lat="0" lon="0">
        <time>2020-12-06T09:02:50.561000+00:00</time>
      </trkpt>
      <trkpt lat="47.33302" lon="-1.26322">
        <ele>73</ele>
        <time>2020-12-06T09:02:51.586000+00:00</time>
      </trkpt>
      <trkpt lat="0" lon="0">
        <time>2020-12-06T09:02:51.593000+00:00</time>
      </trkpt>
      <trkpt lat="0" lon="0">
        <time>2020-12-06T09:02:51.608000+00:00</time>
      </trkpt>
      <trkpt lat="0" lon="0">
        <time>2020-12-06T09:02:51.615000+00:00</time>
      </trkpt>
      <trkpt lat="47.33305" lon="-1.26327">
        <ele>74</ele>
        <time>2020-12-06T09:02:52.565000+00:00</time>
      </trkpt>
      <trkpt lat="0" lon="0">
        <time>2020-12-06T09:02:52.568000+00:00</time>
      </trkpt>
      <trkpt lat="0" lon="0">
        <time>2020-12-06T09:02:52.572000+00:00</time>
      </trkpt>
      <trkpt lat="0" lon="0">
        <time>2020-12-06T09:02:52.573000+00:00</time>
      </trkpt>
      <trkpt lat="47.33309" lon="-1.26332">
        <ele>74</ele>
        <time>2020-12-06T09:02:53.549000+00:00</time>
      </trkpt>
      <trkpt lat="0" lon="0">
        <time>2020-12-06T09:02:53.561000+00:00</time>
      </trkpt>
      <trkpt lat="0" lon="0">
        <time>2020-12-06T09:02:53.568000+00:00</time>
      </trkpt>
      <trkpt lat="0" lon="0">
        <time>2020-12-06T09:02:53.569000+00:00</time>
      </trkpt>
      <trkpt lat="47.33312" lon="-1.26338">
        <ele>74</ele>
        <time>2020-12-06T09:02:54.587000+00:00</time>
      </trkpt>
      <trkpt lat="0" lon="0">
        <time>2020-12-06T09:02:54.601000+00:00</time>
      </trkpt>
      <trkpt lat="0" lon="0">
        <time>2020-12-06T09:02:54.604000+00:00</time>
      </trkpt>
      <trkpt lat="0" lon="0">
        <time>2020-12-06T09:02:54.607000+00:00</time>
      </trkpt>
      <trkpt lat="47.33315" lon="-1.26343">
        <ele>74</ele>
        <time>2020-12-06T09:02:55.570000+00:00</time>
      </trkpt>
      <trkpt lat="0" lon="0">
        <time>2020-12-06T09:02:55.581000+00:00</time>
      </trkpt>
      <trkpt lat="0" lon="0">
        <time>2020-12-06T09:02:55.585000+00:00</time>
      </trkpt>
      <trkpt lat="0" lon="0">
        <time>2020-12-06T09:02:55.587000+00:00</time>
      </trkpt>
      <trkpt lat="47.33318" lon="-1.26348">
        <ele>74</ele>
        <time>2020-12-06T09:02:56.547000+00:00</time>
      </trkpt>
      <trkpt lat="0" lon="0">
        <time>2020-12-06T09:02:56.555000+00:00</time>
      </trkpt>
      <trkpt lat="0" lon="0">
        <time>2020-12-06T09:02:56.565000+00:00</time>
      </trkpt>
      <trkpt lat="0" lon="0">
        <time>2020-12-06T09:02:56.567000+00:00</time>
      </trkpt>
      <trkpt lat="47.33321" lon="-1.26354">
        <ele>74</ele>
        <time>2020-12-06T09:02:57.553000+00:00</time>
      </trkpt>
      <trkpt lat="0" lon="0">
        <time>2020-12-06T09:02:57.563000+00:00</time>
      </trkpt>
      <trkpt lat="0" lon="0">
        <time>2020-12-06T09:02:57.567000+00:00</time>
      </trkpt>
      <trkpt lat="0" lon="0">
        <time>2020-12-06T09:02:57.571000+00:00</time>
      </trkpt>
      <trkpt lat="47.33324" lon="-1.26359">
        <ele>74</ele>
        <time>2020-12-06T09:02:58.545000+00:00</time>
      </trkpt>
      <trkpt lat="0" lon="0">
        <time>2020-12-06T09:02:58.555000+00:00</time>
      </trkpt>
      <trkpt lat="0" lon="0">
        <time>2020-12-06T09:02:58.560000+00:00</time>
      </trkpt>
      <trkpt lat="0" lon="0">
        <time>2020-12-06T09:02:58.562000+00:00</time>
      </trkpt>
      <trkpt lat="47.33327" lon="-1.26364">
        <ele>74</ele>
        <time>2020-12-06T09:02:59.560000+00:00</time>
      </trkpt>
      <trkpt lat="0" lon="0">
        <time>2020-12-06T09:02:59.572000+00:00</time>
      </trkpt>
      <trkpt lat="0" lon="0">
        <time>2020-12-06T09:02:59.577000+00:00</time>
      </trkpt>
      <trkpt lat="0" lon="0">
        <time>2020-12-06T09:02:59.580000+00:00</time>
      </trkpt>
      <trkpt lat="47.3333" lon="-1.26369">
        <ele>74</ele>
        <time>2020-12-06T09:03:00.560000+00:00</time>
      </trkpt>
      <trkpt lat="0" lon="0">
        <time>2020-12-06T09:03:00.572000+00:00</time>
      </trkpt>
      <trkpt lat="0" lon="0">
        <time>2020-12-06T09:03:00.576000+00:00</time>
      </trkpt>
      <trkpt lat="0" lon="0">
        <time>2020-12-06T09:03:00.580000+00:00</time>
      </trkpt>
      <trkpt lat="47.33334" lon="-1.26374">
        <ele>74</ele>
        <time>2020-12-06T09:03:01.549000+00:00</time>
      </trkpt>
      <trkpt lat="0" lon="0">
        <time>2020-12-06T09:03:01.554000+00:00</time>
      </trkpt>
      <trkpt lat="0" lon="0">
        <time>2020-12-06T09:03:01.562000+00:00</time>
      </trkpt>
      <trkpt lat="0" lon="0">
        <time>2020-12-06T09:03:01.564000+00:00</time>
      </trkpt>
      <trkpt lat="47.33337" lon="-1.26379">
        <ele>73</ele>
        <time>2020-12-06T09:03:02.544000+00:00</time>
      </trkpt>
      <trkpt lat="0" lon="0">
        <time>2020-12-06T09:03:02.550000+00:00</time>
      </trkpt>
      <trkpt lat="0" lon="0">
        <time>2020-12-06T09:03:02.556000+00:00</time>
      </trkpt>
      <trkpt lat="0" lon="0">
        <time>2020-12-06T09:03:02.559000+00:00</time>
      </trkpt>
      <trkpt lat="47.3334" lon="-1.26384">
        <ele>73</ele>
        <time>2020-12-06T09:03:03.554000+00:00</time>
      </trkpt>
      <trkpt lat="0" lon="0">
        <time>2020-12-06T09:03:03.560000+00:00</time>
      </trkpt>
      <trkpt lat="0" lon="0">
        <time>2020-12-06T09:03:03.571000+00:00</time>
      </trkpt>
      <trkpt lat="0" lon="0">
        <time>2020-12-06T09:03:03.573000+00:00</time>
      </trkpt>
      <trkpt lat="47.33343" lon="-1.26389">
        <ele>73</ele>
        <time>2020-12-06T09:03:04.556000+00:00</time>
      </trkpt>
      <trkpt lat="0" lon="0">
        <time>2020-12-06T09:03:04.561000+00:00</time>
      </trkpt>
      <trkpt lat="0" lon="0">
        <time>2020-12-06T09:03:04.565000+00:00</time>
      </trkpt>
      <trkpt lat="0" lon="0">
        <time>2020-12-06T09:03:04.567000+00:00</time>
      </trkpt>
      <trkpt lat="47.33346" lon="-1.26393">
        <ele>73</ele>
        <time>2020-12-06T09:03:05.572000+00:00</time>
      </trkpt>
      <trkpt lat="0" lon="0">
        <time>2020-12-06T09:03:05.581000+00:00</time>
      </trkpt>
      <trkpt lat="0" lon="0">
        <time>2020-12-06T09:03:05.585000+00:00</time>
      </trkpt>
      <trkpt lat="0" lon="0">
        <time>2020-12-06T09:03:05.588000+00:00</time>
      </trkpt>
      <trkpt lat="47.33349" lon="-1.26398">
        <ele>73</ele>
        <time>2020-12-06T09:03:06.559000+00:00</time>
      </trkpt>
      <trkpt lat="0" lon="0">
        <time>2020-12-06T09:03:06.562000+00:00</time>
      </trkpt>
      <trkpt lat="0" lon="0">
        <time>2020-12-06T09:03:06.576000+00:00</time>
      </trkpt>
      <trkpt lat="0" lon="0">
        <time>2020-12-06T09:03:06.578000+00:00</time>
      </trkpt>
      <trkpt lat="47.33352" lon="-1.26403">
        <ele>73</ele>
        <time>2020-12-06T09:03:07.591000+00:00</time>
      </trkpt>
      <trkpt lat="0" lon="0">
        <time>2020-12-06T09:03:07.595000+00:00</time>
      </trkpt>
      <trkpt lat="0" lon="0">
        <time>2020-12-06T09:03:07.608000+00:00</time>
      </trkpt>
      <trkpt lat="0" lon="0">
        <time>2020-12-06T09:03:07.613000+00:00</time>
      </trkpt>
      <trkpt lat="47.33356" lon="-1.26407">
        <ele>73</ele>
        <time>2020-12-06T09:03:08.585000+00:00</time>
      </trkpt>
      <trkpt lat="0" lon="0">
        <time>2020-12-06T09:03:08.598000+00:00</time>
      </trkpt>
      <trkpt lat="0" lon="0">
        <time>2020-12-06T09:03:08.602000+00:00</time>
      </trkpt>
      <trkpt lat="0" lon="0">
        <time>2020-12-06T09:03:08.605000+00:00</time>
      </trkpt>
      <trkpt lat="47.33359" lon="-1.26412">
        <ele>74</ele>
        <time>2020-12-06T09:03:09.546000+00:00</time>
      </trkpt>
      <trkpt lat="0" lon="0">
        <time>2020-12-06T09:03:09.557000+00:00</time>
      </trkpt>
      <trkpt lat="0" lon="0">
        <time>2020-12-06T09:03:09.566000+00:00</time>
      </trkpt>
      <trkpt lat="0" lon="0">
        <time>2020-12-06T09:03:09.568000+00:00</time>
      </trkpt>
      <trkpt lat="47.33362" lon="-1.26416">
        <ele>74</ele>
        <time>2020-12-06T09:03:10.547000+00:00</time>
      </trkpt>
      <trkpt lat="0" lon="0">
        <time>2020-12-06T09:03:10.550000+00:00</time>
      </trkpt>
      <trkpt lat="0" lon="0">
        <time>2020-12-06T09:03:10.557000+00:00</time>
      </trkpt>
      <trkpt lat="0" lon="0">
        <time>2020-12-06T09:03:10.559000+00:00</time>
      </trkpt>
      <trkpt lat="47.33366" lon="-1.2642">
        <ele>74</ele>
        <time>2020-12-06T09:03:11.556000+00:00</time>
      </trkpt>
      <trkpt lat="0" lon="0">
        <time>2020-12-06T09:03:11.572000+00:00</time>
      </trkpt>
      <trkpt lat="0" lon="0">
        <time>2020-12-06T09:03:11.577000+00:00</time>
      </trkpt>
      <trkpt lat="0" lon="0">
        <time>2020-12-06T09:03:11.579000+00:00</time>
      </trkpt>
      <trkpt lat="47.3337" lon="-1.26423">
        <ele>74</ele>
        <time>2020-12-06T09:03:12.533000+00:00</time>
      </trkpt>
      <trkpt lat="0" lon="0">
        <time>2020-12-06T09:03:12.538000+00:00</time>
      </trkpt>
      <trkpt lat="0" lon="0">
        <time>2020-12-06T09:03:12.546000+00:00</time>
      </trkpt>
      <trkpt lat="0" lon="0">
        <time>2020-12-06T09:03:12.548000+00:00</time>
      </trkpt>
      <trkpt lat="47.33374" lon="-1.26426">
        <ele>74</ele>
        <time>2020-12-06T09:03:13.543000+00:00</time>
      </trkpt>
      <trkpt lat="0" lon="0">
        <time>2020-12-06T09:03:13.545000+00:00</time>
      </trkpt>
      <trkpt lat="0" lon="0">
        <time>2020-12-06T09:03:13.552000+00:00</time>
      </trkpt>
      <trkpt lat="0" lon="0">
        <time>2020-12-06T09:03:13.554000+00:00</time>
      </trkpt>
      <trkpt lat="47.33378" lon="-1.26427">
        <ele>74</ele>
        <time>2020-12-06T09:03:14.589000+00:00</time>
      </trkpt>
      <trkpt lat="0" lon="0">
        <time>2020-12-06T09:03:14.595000+00:00</time>
      </trkpt>
      <trkpt lat="0" lon="0">
        <time>2020-12-06T09:03:14.600000+00:00</time>
      </trkpt>
      <trkpt lat="0" lon="0">
        <time>2020-12-06T09:03:14.603000+00:00</time>
      </trkpt>
      <trkpt lat="47.33382" lon="-1.26428">
        <ele>74</ele>
        <time>2020-12-06T09:03:15.553000+00:00</time>
      </trkpt>
      <trkpt lat="0" lon="0">
        <time>2020-12-06T09:03:15.577000+00:00</time>
      </trkpt>
      <trkpt lat="0" lon="0">
        <time>2020-12-06T09:03:15.581000+00:00</time>
      </trkpt>
      <trkpt lat="0" lon="0">
        <time>2020-12-06T09:03:15.583000+00:00</time>
      </trkpt>
      <trkpt lat="47.33387" lon="-1.26428">
        <ele>74</ele>
        <time>2020-12-06T09:03:16.510000+00:00</time>
      </trkpt>
      <trkpt lat="0" lon="0">
        <time>2020-12-06T09:03:16.518000+00:00</time>
      </trkpt>
      <trkpt lat="0" lon="0">
        <time>2020-12-06T09:03:16.522000+00:00</time>
      </trkpt>
      <trkpt lat="0" lon="0">
        <time>2020-12-06T09:03:16.523000+00:00</time>
      </trkpt>
      <trkpt lat="47.33391" lon="-1.26427">
        <ele>74</ele>
        <time>2020-12-06T09:03:17.558000+00:00</time>
      </trkpt>
      <trkpt lat="0" lon="0">
        <time>2020-12-06T09:03:17.563000+00:00</time>
      </trkpt>
      <trkpt lat="0" lon="0">
        <time>2020-12-06T09:03:17.567000+00:00</time>
      </trkpt>
      <trkpt lat="0" lon="0">
        <time>2020-12-06T09:03:17.570000+00:00</time>
      </trkpt>
      <trkpt lat="47.33395" lon="-1.26425">
        <ele>74</ele>
        <time>2020-12-06T09:03:18.540000+00:00</time>
      </trkpt>
      <trkpt lat="0" lon="0">
        <time>2020-12-06T09:03:18.549000+00:00</time>
      </trkpt>
      <trkpt lat="0" lon="0">
        <time>2020-12-06T09:03:18.554000+00:00</time>
      </trkpt>
      <trkpt lat="0" lon="0">
        <time>2020-12-06T09:03:18.558000+00:00</time>
      </trkpt>
      <trkpt lat="47.334" lon="-1.26423">
        <ele>75</ele>
        <time>2020-12-06T09:03:19.566000+00:00</time>
      </trkpt>
      <trkpt lat="0" lon="0">
        <time>2020-12-06T09:03:19.572000+00:00</time>
      </trkpt>
      <trkpt lat="0" lon="0">
        <time>2020-12-06T09:03:19.577000+00:00</time>
      </trkpt>
      <trkpt lat="0" lon="0">
        <time>2020-12-06T09:03:19.578000+00:00</time>
      </trkpt>
      <trkpt lat="47.33404" lon="-1.26421">
        <ele>75</ele>
        <time>2020-12-06T09:03:20.481000+00:00</time>
      </trkpt>
      <trkpt lat="0" lon="0">
        <time>2020-12-06T09:03:20.489000+00:00</time>
      </trkpt>
      <trkpt lat="0" lon="0">
        <time>2020-12-06T09:03:20.491000+00:00</time>
      </trkpt>
      <trkpt lat="47.33408" lon="-1.26418">
        <ele>75</ele>
        <time>2020-12-06T09:03:21.545000+00:00</time>
      </trkpt>
      <trkpt lat="0" lon="0">
        <time>2020-12-06T09:03:21.553000+00:00</time>
      </trkpt>
      <trkpt lat="0" lon="0">
        <time>2020-12-06T09:03:21.556000+00:00</time>
      </trkpt>
      <trkpt lat="0" lon="0">
        <time>2020-12-06T09:03:21.561000+00:00</time>
      </trkpt>
      <trkpt lat="47.33413" lon="-1.26415">
        <ele>75</ele>
        <time>2020-12-06T09:03:22.529000+00:00</time>
      </trkpt>
      <trkpt lat="0" lon="0">
        <time>2020-12-06T09:03:22.537000+00:00</time>
      </trkpt>
      <trkpt lat="0" lon="0">
        <time>2020-12-06T09:03:22.541000+00:00</time>
      </trkpt>
      <trkpt lat="0" lon="0">
        <time>2020-12-06T09:03:22.542000+00:00</time>
      </trkpt>
      <trkpt lat="47.33417" lon="-1.26411">
        <ele>76</ele>
        <time>2020-12-06T09:03:23.598000+00:00</time>
      </trkpt>
      <trkpt lat="0" lon="0">
        <time>2020-12-06T09:03:23.618000+00:00</time>
      </trkpt>
      <trkpt lat="0" lon="0">
        <time>2020-12-06T09:03:23.628000+00:00</time>
      </trkpt>
      <trkpt lat="0" lon="0">
        <time>2020-12-06T09:03:23.631000+00:00</time>
      </trkpt>
      <trkpt lat="47.33421" lon="-1.26407">
        <ele>75</ele>
        <time>2020-12-06T09:03:24.571000+00:00</time>
      </trkpt>
      <trkpt lat="0" lon="0">
        <time>2020-12-06T09:03:24.585000+00:00</time>
      </trkpt>
      <trkpt lat="0" lon="0">
        <time>2020-12-06T09:03:24.592000+00:00</time>
      </trkpt>
      <trkpt lat="0" lon="0">
        <time>2020-12-06T09:03:24.599000+00:00</time>
      </trkpt>
      <trkpt lat="47.33425" lon="-1.26403">
        <ele>75</ele>
        <time>2020-12-06T09:03:25.593000+00:00</time>
      </trkpt>
      <trkpt lat="0" lon="0">
        <time>2020-12-06T09:03:25.603000+00:00</time>
      </trkpt>
      <trkpt lat="0" lon="0">
        <time>2020-12-06T09:03:25.609000+00:00</time>
      </trkpt>
      <trkpt lat="0" lon="0">
        <time>2020-12-06T09:03:25.611000+00:00</time>
      </trkpt>
      <trkpt lat="47.33428" lon="-1.26398">
        <ele>75</ele>
        <time>2020-12-06T09:03:26.557000+00:00</time>
      </trkpt>
      <trkpt lat="0" lon="0">
        <time>2020-12-06T09:03:26.570000+00:00</time>
      </trkpt>
      <trkpt lat="0" lon="0">
        <time>2020-12-06T09:03:26.580000+00:00</time>
      </trkpt>
      <trkpt lat="0" lon="0">
        <time>2020-12-06T09:03:26.581000+00:00</time>
      </trkpt>
      <trkpt lat="47.3343" lon="-1.26393">
        <ele>75</ele>
        <time>2020-12-06T09:03:27.576000+00:00</time>
      </trkpt>
      <trkpt lat="0" lon="0">
        <time>2020-12-06T09:03:27.578000+00:00</time>
      </trkpt>
      <trkpt lat="0" lon="0">
        <time>2020-12-06T09:03:27.580000+00:00</time>
      </trkpt>
      <trkpt lat="0" lon="0">
        <time>2020-12-06T09:03:27.582000+00:00</time>
      </trkpt>
      <trkpt lat="47.33433" lon="-1.26388">
        <ele>75</ele>
        <time>2020-12-06T09:03:28.578000+00:00</time>
      </trkpt>
      <trkpt lat="0" lon="0">
        <time>2020-12-06T09:03:28.586000+00:00</time>
      </trkpt>
      <trkpt lat="0" lon="0">
        <time>2020-12-06T09:03:28.590000+00:00</time>
      </trkpt>
      <trkpt lat="0" lon="0">
        <time>2020-12-06T09:03:28.595000+00:00</time>
      </trkpt>
      <trkpt lat="47.33437" lon="-1.26384">
        <ele>75</ele>
        <time>2020-12-06T09:03:29.540000+00:00</time>
      </trkpt>
      <trkpt lat="0" lon="0">
        <time>2020-12-06T09:03:29.557000+00:00</time>
      </trkpt>
      <trkpt lat="0" lon="0">
        <time>2020-12-06T09:03:29.565000+00:00</time>
      </trkpt>
      <trkpt lat="0" lon="0">
        <time>2020-12-06T09:03:29.573000+00:00</time>
      </trkpt>
      <trkpt lat="47.3344" lon="-1.2638">
        <ele>75</ele>
        <time>2020-12-06T09:03:30.547000+00:00</time>
      </trkpt>
      <trkpt lat="0" lon="0">
        <time>2020-12-06T09:03:30.550000+00:00</time>
      </trkpt>
      <trkpt lat="0" lon="0">
        <time>2020-12-06T09:03:30.554000+00:00</time>
      </trkpt>
      <trkpt lat="0" lon="0">
        <time>2020-12-06T09:03:30.556000+00:00</time>
      </trkpt>
      <trkpt lat="47.33444" lon="-1.26376">
        <ele>75</ele>
        <time>2020-12-06T09:03:31.567000+00:00</time>
      </trkpt>
      <trkpt lat="0" lon="0">
        <time>2020-12-06T09:03:31.578000+00:00</time>
      </trkpt>
      <trkpt lat="0" lon="0">
        <time>2020-12-06T09:03:31.588000+00:00</time>
      </trkpt>
      <trkpt lat="0" lon="0">
        <time>2020-12-06T09:03:31.589000+00:00</time>
      </trkpt>
      <trkpt lat="47.33448" lon="-1.26372">
        <ele>75</ele>
        <time>2020-12-06T09:03:32.549000+00:00</time>
      </trkpt>
      <trkpt lat="0" lon="0">
        <time>2020-12-06T09:03:32.557000+00:00</time>
      </trkpt>
      <trkpt lat="0" lon="0">
        <time>2020-12-06T09:03:32.564000+00:00</time>
      </trkpt>
      <trkpt lat="0" lon="0">
        <time>2020-12-06T09:03:32.566000+00:00</time>
      </trkpt>
      <trkpt lat="47.33452" lon="-1.26369">
        <ele>75</ele>
        <time>2020-12-06T09:03:33.578000+00:00</time>
      </trkpt>
      <trkpt lat="0" lon="0">
        <time>2020-12-06T09:03:33.585000+00:00</time>
      </trkpt>
      <trkpt lat="0" lon="0">
        <time>2020-12-06T09:03:33.589000+00:00</time>
      </trkpt>
      <trkpt lat="0" lon="0">
        <time>2020-12-06T09:03:33.590000+00:00</time>
      </trkpt>
      <trkpt lat="47.33456" lon="-1.26365">
        <ele>75</ele>
        <time>2020-12-06T09:03:34.528000+00:00</time>
      </trkpt>
      <trkpt lat="0" lon="0">
        <time>2020-12-06T09:03:34.530000+00:00</time>
      </trkpt>
      <trkpt lat="0" lon="0">
        <time>2020-12-06T09:03:34.537000+00:00</time>
      </trkpt>
      <trkpt lat="0" lon="0">
        <time>2020-12-06T09:03:34.538000+00:00</time>
      </trkpt>
      <trkpt lat="47.33461" lon="-1.26362">
        <ele>75</ele>
        <time>2020-12-06T09:03:35.586000+00:00</time>
      </trkpt>
      <trkpt lat="0" lon="0">
        <time>2020-12-06T09:03:35.602000+00:00</time>
      </trkpt>
      <trkpt lat="0" lon="0">
        <time>2020-12-06T09:03:35.606000+00:00</time>
      </trkpt>
      <trkpt lat="0" lon="0">
        <time>2020-12-06T09:03:35.613000+00:00</time>
      </trkpt>
      <trkpt lat="47.33465" lon="-1.26359">
        <ele>75</ele>
        <time>2020-12-06T09:03:36.553000+00:00</time>
      </trkpt>
      <trkpt lat="0" lon="0">
        <time>2020-12-06T09:03:36.566000+00:00</time>
      </trkpt>
      <trkpt lat="0" lon="0">
        <time>2020-12-06T09:03:36.578000+00:00</time>
      </trkpt>
      <trkpt lat="0" lon="0">
        <time>2020-12-06T09:03:36.580000+00:00</time>
      </trkpt>
      <trkpt lat="47.3347" lon="-1.26356">
        <ele>75</ele>
        <time>2020-12-06T09:03:37.540000+00:00</time>
      </trkpt>
      <trkpt lat="0" lon="0">
        <time>2020-12-06T09:03:37.552000+00:00</time>
      </trkpt>
      <trkpt lat="0" lon="0">
        <time>2020-12-06T09:03:37.562000+00:00</time>
      </trkpt>
      <trkpt lat="0" lon="0">
        <time>2020-12-06T09:03:37.564000+00:00</time>
      </trkpt>
      <trkpt lat="47.33474" lon="-1.26353">
        <ele>75</ele>
        <time>2020-12-06T09:03:38.583000+00:00</time>
      </trkpt>
      <trkpt lat="0" lon="0">
        <time>2020-12-06T09:03:38.598000+00:00</time>
      </trkpt>
      <trkpt lat="0" lon="0">
        <time>2020-12-06T09:03:38.608000+00:00</time>
      </trkpt>
      <trkpt lat="0" lon="0">
        <time>2020-12-06T09:03:38.610000+00:00</time>
      </trkpt>
      <trkpt lat="47.33479" lon="-1.2635">
        <ele>75</ele>
        <time>2020-12-06T09:03:39.569000+00:00</time>
      </trkpt>
      <trkpt lat="0" lon="0">
        <time>2020-12-06T09:03:39.573000+00:00</time>
      </trkpt>
      <trkpt lat="0" lon="0">
        <time>2020-12-06T09:03:39.583000+00:00</time>
      </trkpt>
      <trkpt lat="0" lon="0">
        <time>2020-12-06T09:03:39.589000+00:00</time>
      </trkpt>
      <trkpt lat="47.33484" lon="-1.26348">
        <ele>75</ele>
        <time>2020-12-06T09:03:40.563000+00:00</time>
      </trkpt>
      <trkpt lat="0" lon="0">
        <time>2020-12-06T09:03:40.570000+00:00</time>
      </trkpt>
      <trkpt lat="0" lon="0">
        <time>2020-12-06T09:03:40.573000+00:00</time>
      </trkpt>
      <trkpt lat="0" lon="0">
        <time>2020-12-06T09:03:40.576000+00:00</time>
      </trkpt>
      <trkpt lat="47.33488" lon="-1.26345">
        <ele>75</ele>
        <time>2020-12-06T09:03:41.601000+00:00</time>
      </trkpt>
      <trkpt lat="0" lon="0">
        <time>2020-12-06T09:03:41.605000+00:00</time>
      </trkpt>
      <trkpt lat="0" lon="0">
        <time>2020-12-06T09:03:41.609000+00:00</time>
      </trkpt>
      <trkpt lat="0" lon="0">
        <time>2020-12-06T09:03:41.611000+00:00</time>
      </trkpt>
      <trkpt lat="47.33493" lon="-1.26342">
        <ele>75</ele>
        <time>2020-12-06T09:03:42.586000+00:00</time>
      </trkpt>
      <trkpt lat="0" lon="0">
        <time>2020-12-06T09:03:42.593000+00:00</time>
      </trkpt>
      <trkpt lat="0" lon="0">
        <time>2020-12-06T09:03:42.608000+00:00</time>
      </trkpt>
      <trkpt lat="0" lon="0">
        <time>2020-12-06T09:03:42.611000+00:00</time>
      </trkpt>
      <trkpt lat="47.33496" lon="-1.26338">
        <ele>75</ele>
        <time>2020-12-06T09:03:43.539000+00:00</time>
      </trkpt>
      <trkpt lat="0" lon="0">
        <time>2020-12-06T09:03:43.548000+00:00</time>
      </trkpt>
      <trkpt lat="0" lon="0">
        <time>2020-12-06T09:03:43.557000+00:00</time>
      </trkpt>
      <trkpt lat="0" lon="0">
        <time>2020-12-06T09:03:43.558000+00:00</time>
      </trkpt>
      <trkpt lat="47.33499" lon="-1.26334">
        <ele>75</ele>
        <time>2020-12-06T09:03:44.564000+00:00</time>
      </trkpt>
      <trkpt lat="0" lon="0">
        <time>2020-12-06T09:03:44.566000+00:00</time>
      </trkpt>
      <trkpt lat="0" lon="0">
        <time>2020-12-06T09:03:44.577000+00:00</time>
      </trkpt>
      <trkpt lat="0" lon="0">
        <time>2020-12-06T09:03:44.580000+00:00</time>
      </trkpt>
      <trkpt lat="47.335" lon="-1.26328">
        <ele>75</ele>
        <time>2020-12-06T09:03:45.526000+00:00</time>
      </trkpt>
      <trkpt lat="0" lon="0">
        <time>2020-12-06T09:03:45.530000+00:00</time>
      </trkpt>
      <trkpt lat="0" lon="0">
        <time>2020-12-06T09:03:45.531000+00:00</time>
      </trkpt>
      <trkpt lat="0" lon="0">
        <time>2020-12-06T09:03:45.532000+00:00</time>
      </trkpt>
      <trkpt lat="47.335" lon="-1.26323">
        <ele>75</ele>
        <time>2020-12-06T09:03:46.545000+00:00</time>
      </trkpt>
      <trkpt lat="0" lon="0">
        <time>2020-12-06T09:03:46.549000+00:00</time>
      </trkpt>
      <trkpt lat="0" lon="0">
        <time>2020-12-06T09:03:46.559000+00:00</time>
      </trkpt>
      <trkpt lat="0" lon="0">
        <time>2020-12-06T09:03:46.561000+00:00</time>
      </trkpt>
      <trkpt lat="47.335" lon="-1.26317">
        <ele>75</ele>
        <time>2020-12-06T09:03:47.572000+00:00</time>
      </trkpt>
      <trkpt lat="0" lon="0">
        <time>2020-12-06T09:03:47.576000+00:00</time>
      </trkpt>
      <trkpt lat="0" lon="0">
        <time>2020-12-06T09:03:47.580000+00:00</time>
      </trkpt>
      <trkpt lat="0" lon="0">
        <time>2020-12-06T09:03:47.582000+00:00</time>
      </trkpt>
      <trkpt lat="47.33498" lon="-1.26311">
        <ele>75</ele>
        <time>2020-12-06T09:03:48.566000+00:00</time>
      </trkpt>
      <trkpt lat="0" lon="0">
        <time>2020-12-06T09:03:48.574000+00:00</time>
      </trkpt>
      <trkpt lat="0" lon="0">
        <time>2020-12-06T09:03:48.579000+00:00</time>
      </trkpt>
      <trkpt lat="0" lon="0">
        <time>2020-12-06T09:03:48.581000+00:00</time>
      </trkpt>
      <trkpt lat="47.33497" lon="-1.26305">
        <ele>75</ele>
        <time>2020-12-06T09:03:49.542000+00:00</time>
      </trkpt>
      <trkpt lat="0" lon="0">
        <time>2020-12-06T09:03:49.559000+00:00</time>
      </trkpt>
      <trkpt lat="0" lon="0">
        <time>2020-12-06T09:03:49.565000+00:00</time>
      </trkpt>
      <trkpt lat="0" lon="0">
        <time>2020-12-06T09:03:49.570000+00:00</time>
      </trkpt>
      <trkpt lat="47.33495" lon="-1.26298">
        <ele>75</ele>
        <time>2020-12-06T09:03:50.563000+00:00</time>
      </trkpt>
      <trkpt lat="0" lon="0">
        <time>2020-12-06T09:03:50.566000+00:00</time>
      </trkpt>
      <trkpt lat="0" lon="0">
        <time>2020-12-06T09:03:50.572000+00:00</time>
      </trkpt>
      <trkpt lat="0" lon="0">
        <time>2020-12-06T09:03:50.577000+00:00</time>
      </trkpt>
      <trkpt lat="47.33493" lon="-1.26291">
        <ele>75</ele>
        <time>2020-12-06T09:03:51.572000+00:00</time>
      </trkpt>
      <trkpt lat="0" lon="0">
        <time>2020-12-06T09:03:51.585000+00:00</time>
      </trkpt>
      <trkpt lat="0" lon="0">
        <time>2020-12-06T09:03:51.590000+00:00</time>
      </trkpt>
      <trkpt lat="0" lon="0">
        <time>2020-12-06T09:03:51.591000+00:00</time>
      </trkpt>
      <trkpt lat="47.3349" lon="-1.26283">
        <ele>75</ele>
        <time>2020-12-06T09:03:52.583000+00:00</time>
      </trkpt>
      <trkpt lat="0" lon="0">
        <time>2020-12-06T09:03:52.598000+00:00</time>
      </trkpt>
      <trkpt lat="0" lon="0">
        <time>2020-12-06T09:03:52.606000+00:00</time>
      </trkpt>
      <trkpt lat="0" lon="0">
        <time>2020-12-06T09:03:52.613000+00:00</time>
      </trkpt>
      <trkpt lat="47.33488" lon="-1.26276">
        <ele>75</ele>
        <time>2020-12-06T09:03:53.581000+00:00</time>
      </trkpt>
      <trkpt lat="0" lon="0">
        <time>2020-12-06T09:03:53.589000+00:00</time>
      </trkpt>
      <trkpt lat="0" lon="0">
        <time>2020-12-06T09:03:53.602000+00:00</time>
      </trkpt>
      <trkpt lat="0" lon="0">
        <time>2020-12-06T09:03:53.604000+00:00</time>
      </trkpt>
      <trkpt lat="47.33485" lon="-1.26268">
        <ele>75</ele>
        <time>2020-12-06T09:03:54.567000+00:00</time>
      </trkpt>
      <trkpt lat="0" lon="0">
        <time>2020-12-06T09:03:54.580000+00:00</time>
      </trkpt>
      <trkpt lat="0" lon="0">
        <time>2020-12-06T09:03:54.585000+00:00</time>
      </trkpt>
      <trkpt lat="0" lon="0">
        <time>2020-12-06T09:03:54.591000+00:00</time>
      </trkpt>
      <trkpt lat="47.33483" lon="-1.26261">
        <ele>75</ele>
        <time>2020-12-06T09:03:55.570000+00:00</time>
      </trkpt>
      <trkpt lat="0" lon="0">
        <time>2020-12-06T09:03:55.577000+00:00</time>
      </trkpt>
      <trkpt lat="0" lon="0">
        <time>2020-12-06T09:03:55.594000+00:00</time>
      </trkpt>
      <trkpt lat="0" lon="0">
        <time>2020-12-06T09:03:55.598000+00:00</time>
      </trkpt>
      <trkpt lat="47.3348" lon="-1.26253">
        <ele>75</ele>
        <time>2020-12-06T09:03:56.585000+00:00</time>
      </trkpt>
      <trkpt lat="0" lon="0">
        <time>2020-12-06T09:03:56.591000+00:00</time>
      </trkpt>
      <trkpt lat="0" lon="0">
        <time>2020-12-06T09:03:56.612000+00:00</time>
      </trkpt>
      <trkpt lat="0" lon="0">
        <time>2020-12-06T09:03:56.614000+00:00</time>
      </trkpt>
      <trkpt lat="47.33478" lon="-1.26245">
        <ele>75</ele>
        <time>2020-12-06T09:03:57.559000+00:00</time>
      </trkpt>
      <trkpt lat="0" lon="0">
        <time>2020-12-06T09:03:57.565000+00:00</time>
      </trkpt>
      <trkpt lat="0" lon="0">
        <time>2020-12-06T09:03:57.569000+00:00</time>
      </trkpt>
      <trkpt lat="0" lon="0">
        <time>2020-12-06T09:03:57.579000+00:00</time>
      </trkpt>
      <trkpt lat="47.33475" lon="-1.26237">
        <ele>75</ele>
        <time>2020-12-06T09:03:58.554000+00:00</time>
      </trkpt>
      <trkpt lat="0" lon="0">
        <time>2020-12-06T09:03:58.574000+00:00</time>
      </trkpt>
      <trkpt lat="0" lon="0">
        <time>2020-12-06T09:03:58.578000+00:00</time>
      </trkpt>
      <trkpt lat="0" lon="0">
        <time>2020-12-06T09:03:58.580000+00:00</time>
      </trkpt>
      <trkpt lat="47.33473" lon="-1.26229">
        <ele>75</ele>
        <time>2020-12-06T09:03:59.563000+00:00</time>
      </trkpt>
      <trkpt lat="0" lon="0">
        <time>2020-12-06T09:03:59.580000+00:00</time>
      </trkpt>
      <trkpt lat="0" lon="0">
        <time>2020-12-06T09:03:59.585000+00:00</time>
      </trkpt>
      <trkpt lat="0" lon="0">
        <time>2020-12-06T09:03:59.588000+00:00</time>
      </trkpt>
      <trkpt lat="47.33471" lon="-1.26221">
        <ele>75</ele>
        <time>2020-12-06T09:04:00.505000+00:00</time>
      </trkpt>
      <trkpt lat="0" lon="0">
        <time>2020-12-06T09:04:00.517000+00:00</time>
      </trkpt>
      <trkpt lat="0" lon="0">
        <time>2020-12-06T09:04:00.524000+00:00</time>
      </trkpt>
      <trkpt lat="0" lon="0">
        <time>2020-12-06T09:04:00.529000+00:00</time>
      </trkpt>
      <trkpt lat="47.33469" lon="-1.26213">
        <ele>75</ele>
        <time>2020-12-06T09:04:01.540000+00:00</time>
      </trkpt>
      <trkpt lat="0" lon="0">
        <time>2020-12-06T09:04:01.553000+00:00</time>
      </trkpt>
      <trkpt lat="0" lon="0">
        <time>2020-12-06T09:04:01.561000+00:00</time>
      </trkpt>
      <trkpt lat="0" lon="0">
        <time>2020-12-06T09:04:01.562000+00:00</time>
      </trkpt>
      <trkpt lat="47.33466" lon="-1.26205">
        <ele>75</ele>
        <time>2020-12-06T09:04:02.556000+00:00</time>
      </trkpt>
      <trkpt lat="0" lon="0">
        <time>2020-12-06T09:04:02.574000+00:00</time>
      </trkpt>
      <trkpt lat="0" lon="0">
        <time>2020-12-06T09:04:02.586000+00:00</time>
      </trkpt>
      <trkpt lat="0" lon="0">
        <time>2020-12-06T09:04:02.588000+00:00</time>
      </trkpt>
      <trkpt lat="47.33464" lon="-1.26197">
        <ele>75</ele>
        <time>2020-12-06T09:04:03.493000+00:00</time>
      </trkpt>
      <trkpt lat="0" lon="0">
        <time>2020-12-06T09:04:03.496000+00:00</time>
      </trkpt>
      <trkpt lat="0" lon="0">
        <time>2020-12-06T09:04:03.498000+00:00</time>
      </trkpt>
      <trkpt lat="0" lon="0">
        <time>2020-12-06T09:04:03.500000+00:00</time>
      </trkpt>
      <trkpt lat="47.33462" lon="-1.26189">
        <ele>75</ele>
        <time>2020-12-06T09:04:04.565000+00:00</time>
      </trkpt>
      <trkpt lat="0" lon="0">
        <time>2020-12-06T09:04:04.576000+00:00</time>
      </trkpt>
      <trkpt lat="0" lon="0">
        <time>2020-12-06T09:04:04.579000+00:00</time>
      </trkpt>
      <trkpt lat="0" lon="0">
        <time>2020-12-06T09:04:04.581000+00:00</time>
      </trkpt>
      <trkpt lat="47.33459" lon="-1.26181">
        <ele>75</ele>
        <time>2020-12-06T09:04:05.533000+00:00</time>
      </trkpt>
      <trkpt lat="0" lon="0">
        <time>2020-12-06T09:04:05.540000+00:00</time>
      </trkpt>
      <trkpt lat="0" lon="0">
        <time>2020-12-06T09:04:05.545000+00:00</time>
      </trkpt>
      <trkpt lat="0" lon="0">
        <time>2020-12-06T09:04:05.547000+00:00</time>
      </trkpt>
      <trkpt lat="47.33457" lon="-1.26174">
        <ele>75</ele>
        <time>2020-12-06T09:04:06.572000+00:00</time>
      </trkpt>
      <trkpt lat="0" lon="0">
        <time>2020-12-06T09:04:06.582000+00:00</time>
      </trkpt>
      <trkpt lat="0" lon="0">
        <time>2020-12-06T09:04:06.585000+00:00</time>
      </trkpt>
      <trkpt lat="0" lon="0">
        <time>2020-12-06T09:04:06.587000+00:00</time>
      </trkpt>
      <trkpt lat="47.33454" lon="-1.26167">
        <ele>75</ele>
        <time>2020-12-06T09:04:07.565000+00:00</time>
      </trkpt>
      <trkpt lat="0" lon="0">
        <time>2020-12-06T09:04:07.572000+00:00</time>
      </trkpt>
      <trkpt lat="0" lon="0">
        <time>2020-12-06T09:04:07.576000+00:00</time>
      </trkpt>
      <trkpt lat="0" lon="0">
        <time>2020-12-06T09:04:07.579000+00:00</time>
      </trkpt>
      <trkpt lat="47.33452" lon="-1.2616">
        <ele>75</ele>
        <time>2020-12-06T09:04:08.526000+00:00</time>
      </trkpt>
      <trkpt lat="0" lon="0">
        <time>2020-12-06T09:04:08.540000+00:00</time>
      </trkpt>
      <trkpt lat="0" lon="0">
        <time>2020-12-06T09:04:08.547000+00:00</time>
      </trkpt>
      <trkpt lat="0" lon="0">
        <time>2020-12-06T09:04:08.551000+00:00</time>
      </trkpt>
      <trkpt lat="47.33449" lon="-1.26154">
        <ele>75</ele>
        <time>2020-12-06T09:04:09.536000+00:00</time>
      </trkpt>
      <trkpt lat="0" lon="0">
        <time>2020-12-06T09:04:09.545000+00:00</time>
      </trkpt>
      <trkpt lat="0" lon="0">
        <time>2020-12-06T09:04:09.548000+00:00</time>
      </trkpt>
      <trkpt lat="0" lon="0">
        <time>2020-12-06T09:04:09.549000+00:00</time>
      </trkpt>
      <trkpt lat="47.33446" lon="-1.26148">
        <ele>75</ele>
        <time>2020-12-06T09:04:10.539000+00:00</time>
      </trkpt>
      <trkpt lat="0" lon="0">
        <time>2020-12-06T09:04:10.542000+00:00</time>
      </trkpt>
      <trkpt lat="0" lon="0">
        <time>2020-12-06T09:04:10.549000+00:00</time>
      </trkpt>
      <trkpt lat="0" lon="0">
        <time>2020-12-06T09:04:10.551000+00:00</time>
      </trkpt>
      <trkpt lat="47.33443" lon="-1.26142">
        <ele>75</ele>
        <time>2020-12-06T09:04:11.544000+00:00</time>
      </trkpt>
      <trkpt lat="0" lon="0">
        <time>2020-12-06T09:04:11.551000+00:00</time>
      </trkpt>
      <trkpt lat="0" lon="0">
        <time>2020-12-06T09:04:11.560000+00:00</time>
      </trkpt>
      <trkpt lat="0" lon="0">
        <time>2020-12-06T09:04:11.563000+00:00</time>
      </trkpt>
      <trkpt lat="47.33439" lon="-1.26136">
        <ele>75</ele>
        <time>2020-12-06T09:04:12.564000+00:00</time>
      </trkpt>
      <trkpt lat="0" lon="0">
        <time>2020-12-06T09:04:12.578000+00:00</time>
      </trkpt>
      <trkpt lat="0" lon="0">
        <time>2020-12-06T09:04:12.581000+00:00</time>
      </trkpt>
      <trkpt lat="0" lon="0">
        <time>2020-12-06T09:04:12.583000+00:00</time>
      </trkpt>
      <trkpt lat="47.33436" lon="-1.2613">
        <ele>75</ele>
        <time>2020-12-06T09:04:13.604000+00:00</time>
      </trkpt>
      <trkpt lat="0" lon="0">
        <time>2020-12-06T09:04:13.619000+00:00</time>
      </trkpt>
      <trkpt lat="0" lon="0">
        <time>2020-12-06T09:04:13.624000+00:00</time>
      </trkpt>
      <trkpt lat="0" lon="0">
        <time>2020-12-06T09:04:13.625000+00:00</time>
      </trkpt>
      <trkpt lat="47.33432" lon="-1.26124">
        <ele>75</ele>
        <time>2020-12-06T09:04:14.584000+00:00</time>
      </trkpt>
      <trkpt lat="0" lon="0">
        <time>2020-12-06T09:04:14.589000+00:00</time>
      </trkpt>
      <trkpt lat="0" lon="0">
        <time>2020-12-06T09:04:14.594000+00:00</time>
      </trkpt>
      <trkpt lat="0" lon="0">
        <time>2020-12-06T09:04:14.598000+00:00</time>
      </trkpt>
      <trkpt lat="47.33428" lon="-1.26119">
        <ele>75</ele>
        <time>2020-12-06T09:04:15.577000+00:00</time>
      </trkpt>
      <trkpt lat="0" lon="0">
        <time>2020-12-06T09:04:15.596000+00:00</time>
      </trkpt>
      <trkpt lat="0" lon="0">
        <time>2020-12-06T09:04:15.603000+00:00</time>
      </trkpt>
      <trkpt lat="0" lon="0">
        <time>2020-12-06T09:04:15.606000+00:00</time>
      </trkpt>
      <trkpt lat="47.33425" lon="-1.26114">
        <ele>75</ele>
        <time>2020-12-06T09:04:16.567000+00:00</time>
      </trkpt>
      <trkpt lat="0" lon="0">
        <time>2020-12-06T09:04:16.570000+00:00</time>
      </trkpt>
      <trkpt lat="0" lon="0">
        <time>2020-12-06T09:04:16.577000+00:00</time>
      </trkpt>
      <trkpt lat="0" lon="0">
        <time>2020-12-06T09:04:16.580000+00:00</time>
      </trkpt>
      <trkpt lat="47.33421" lon="-1.26108">
        <ele>75</ele>
        <time>2020-12-06T09:04:17.562000+00:00</time>
      </trkpt>
      <trkpt lat="0" lon="0">
        <time>2020-12-06T09:04:17.566000+00:00</time>
      </trkpt>
      <trkpt lat="0" lon="0">
        <time>2020-12-06T09:04:17.581000+00:00</time>
      </trkpt>
      <trkpt lat="0" lon="0">
        <time>2020-12-06T09:04:17.583000+00:00</time>
      </trkpt>
      <trkpt lat="47.33417" lon="-1.26103">
        <ele>75</ele>
        <time>2020-12-06T09:04:18.549000+00:00</time>
      </trkpt>
      <trkpt lat="0" lon="0">
        <time>2020-12-06T09:04:18.552000+00:00</time>
      </trkpt>
      <trkpt lat="0" lon="0">
        <time>2020-12-06T09:04:18.565000+00:00</time>
      </trkpt>
      <trkpt lat="0" lon="0">
        <time>2020-12-06T09:04:18.568000+00:00</time>
      </trkpt>
      <trkpt lat="47.33413" lon="-1.26098">
        <ele>75</ele>
        <time>2020-12-06T09:04:19.551000+00:00</time>
      </trkpt>
      <trkpt lat="0" lon="0">
        <time>2020-12-06T09:04:19.563000+00:00</time>
      </trkpt>
      <trkpt lat="0" lon="0">
        <time>2020-12-06T09:04:19.572000+00:00</time>
      </trkpt>
      <trkpt lat="0" lon="0">
        <time>2020-12-06T09:04:19.576000+00:00</time>
      </trkpt>
      <trkpt lat="47.33409" lon="-1.26092">
        <ele>75</ele>
        <time>2020-12-06T09:04:20.552000+00:00</time>
      </trkpt>
      <trkpt lat="0" lon="0">
        <time>2020-12-06T09:04:20.562000+00:00</time>
      </trkpt>
      <trkpt lat="0" lon="0">
        <time>2020-12-06T09:04:20.573000+00:00</time>
      </trkpt>
      <trkpt lat="0" lon="0">
        <time>2020-12-06T09:04:20.576000+00:00</time>
      </trkpt>
      <trkpt lat="47.33405" lon="-1.26087">
        <ele>75</ele>
        <time>2020-12-06T09:04:21.542000+00:00</time>
      </trkpt>
      <trkpt lat="0" lon="0">
        <time>2020-12-06T09:04:21.548000+00:00</time>
      </trkpt>
      <trkpt lat="0" lon="0">
        <time>2020-12-06T09:04:21.552000+00:00</time>
      </trkpt>
      <trkpt lat="0" lon="0">
        <time>2020-12-06T09:04:21.554000+00:00</time>
      </trkpt>
      <trkpt lat="47.334" lon="-1.26082">
        <ele>75</ele>
        <time>2020-12-06T09:04:22.552000+00:00</time>
      </trkpt>
      <trkpt lat="0" lon="0">
        <time>2020-12-06T09:04:22.557000+00:00</time>
      </trkpt>
      <trkpt lat="0" lon="0">
        <time>2020-12-06T09:04:22.564000+00:00</time>
      </trkpt>
      <trkpt lat="0" lon="0">
        <time>2020-12-06T09:04:22.565000+00:00</time>
      </trkpt>
      <trkpt lat="47.33396" lon="-1.26076">
        <ele>75</ele>
        <time>2020-12-06T09:04:23.585000+00:00</time>
      </trkpt>
      <trkpt lat="0" lon="0">
        <time>2020-12-06T09:04:23.598000+00:00</time>
      </trkpt>
      <trkpt lat="0" lon="0">
        <time>2020-12-06T09:04:23.604000+00:00</time>
      </trkpt>
      <trkpt lat="0" lon="0">
        <time>2020-12-06T09:04:23.609000+00:00</time>
      </trkpt>
      <trkpt lat="47.33392" lon="-1.26072">
        <ele>75</ele>
        <time>2020-12-06T09:04:24.589000+00:00</time>
      </trkpt>
      <trkpt lat="0" lon="0">
        <time>2020-12-06T09:04:24.595000+00:00</time>
      </trkpt>
      <trkpt lat="0" lon="0">
        <time>2020-12-06T09:04:24.604000+00:00</time>
      </trkpt>
      <trkpt lat="0" lon="0">
        <time>2020-12-06T09:04:24.609000+00:00</time>
      </trkpt>
      <trkpt lat="47.33388" lon="-1.26067">
        <ele>75</ele>
        <time>2020-12-06T09:04:25.559000+00:00</time>
      </trkpt>
      <trkpt lat="0" lon="0">
        <time>2020-12-06T09:04:25.566000+00:00</time>
      </trkpt>
      <trkpt lat="0" lon="0">
        <time>2020-12-06T09:04:25.568000+00:00</time>
      </trkpt>
      <trkpt lat="0" lon="0">
        <time>2020-12-06T09:04:25.570000+00:00</time>
      </trkpt>
      <trkpt lat="47.33383" lon="-1.26063">
        <ele>75</ele>
        <time>2020-12-06T09:04:26.556000+00:00</time>
      </trkpt>
      <trkpt lat="0" lon="0">
        <time>2020-12-06T09:04:26.561000+00:00</time>
      </trkpt>
      <trkpt lat="0" lon="0">
        <time>2020-12-06T09:04:26.576000+00:00</time>
      </trkpt>
      <trkpt lat="0" lon="0">
        <time>2020-12-06T09:04:26.579000+00:00</time>
      </trkpt>
      <trkpt lat="47.33379" lon="-1.26059">
        <ele>75</ele>
        <time>2020-12-06T09:04:27.558000+00:00</time>
      </trkpt>
      <trkpt lat="0" lon="0">
        <time>2020-12-06T09:04:27.569000+00:00</time>
      </trkpt>
      <trkpt lat="0" lon="0">
        <time>2020-12-06T09:04:27.571000+00:00</time>
      </trkpt>
      <trkpt lat="0" lon="0">
        <time>2020-12-06T09:04:27.572000+00:00</time>
      </trkpt>
      <trkpt lat="47.33374" lon="-1.26055">
        <ele>75</ele>
        <time>2020-12-06T09:04:28.581000+00:00</time>
      </trkpt>
      <trkpt lat="0" lon="0">
        <time>2020-12-06T09:04:28.589000+00:00</time>
      </trkpt>
      <trkpt lat="0" lon="0">
        <time>2020-12-06T09:04:28.600000+00:00</time>
      </trkpt>
      <trkpt lat="0" lon="0">
        <time>2020-12-06T09:04:28.602000+00:00</time>
      </trkpt>
      <trkpt lat="47.3337" lon="-1.26051">
        <ele>75</ele>
        <time>2020-12-06T09:04:29.575000+00:00</time>
      </trkpt>
      <trkpt lat="0" lon="0">
        <time>2020-12-06T09:04:29.582000+00:00</time>
      </trkpt>
      <trkpt lat="0" lon="0">
        <time>2020-12-06T09:04:29.586000+00:00</time>
      </trkpt>
      <trkpt lat="0" lon="0">
        <time>2020-12-06T09:04:29.587000+00:00</time>
      </trkpt>
      <trkpt lat="47.33365" lon="-1.26048">
        <ele>75</ele>
        <time>2020-12-06T09:04:30.561000+00:00</time>
      </trkpt>
      <trkpt lat="0" lon="0">
        <time>2020-12-06T09:04:30.573000+00:00</time>
      </trkpt>
      <trkpt lat="0" lon="0">
        <time>2020-12-06T09:04:30.579000+00:00</time>
      </trkpt>
      <trkpt lat="0" lon="0">
        <time>2020-12-06T09:04:30.581000+00:00</time>
      </trkpt>
      <trkpt lat="47.3336" lon="-1.26044">
        <ele>75</ele>
        <time>2020-12-06T09:04:31.590000+00:00</time>
      </trkpt>
      <trkpt lat="0" lon="0">
        <time>2020-12-06T09:04:31.601000+00:00</time>
      </trkpt>
      <trkpt lat="0" lon="0">
        <time>2020-12-06T09:04:31.604000+00:00</time>
      </trkpt>
      <trkpt lat="0" lon="0">
        <time>2020-12-06T09:04:31.608000+00:00</time>
      </trkpt>
      <trkpt lat="47.33355" lon="-1.2604">
        <ele>75</ele>
        <time>2020-12-06T09:04:32.586000+00:00</time>
      </trkpt>
      <trkpt lat="0" lon="0">
        <time>2020-12-06T09:04:32.589000+00:00</time>
      </trkpt>
      <trkpt lat="0" lon="0">
        <time>2020-12-06T09:04:32.595000+00:00</time>
      </trkpt>
      <trkpt lat="0" lon="0">
        <time>2020-12-06T09:04:32.596000+00:00</time>
      </trkpt>
      <trkpt lat="47.33351" lon="-1.26037">
        <ele>75</ele>
        <time>2020-12-06T09:04:33.561000+00:00</time>
      </trkpt>
      <trkpt lat="0" lon="0">
        <time>2020-12-06T09:04:33.567000+00:00</time>
      </trkpt>
      <trkpt lat="0" lon="0">
        <time>2020-12-06T09:04:33.572000+00:00</time>
      </trkpt>
      <trkpt lat="0" lon="0">
        <time>2020-12-06T09:04:33.576000+00:00</time>
      </trkpt>
      <trkpt lat="47.33346" lon="-1.26033">
        <ele>75</ele>
        <time>2020-12-06T09:04:34.578000+00:00</time>
      </trkpt>
      <trkpt lat="0" lon="0">
        <time>2020-12-06T09:04:34.594000+00:00</time>
      </trkpt>
      <trkpt lat="0" lon="0">
        <time>2020-12-06T09:04:34.597000+00:00</time>
      </trkpt>
      <trkpt lat="0" lon="0">
        <time>2020-12-06T09:04:34.599000+00:00</time>
      </trkpt>
      <trkpt lat="47.33342" lon="-1.26029">
        <ele>75</ele>
        <time>2020-12-06T09:04:35.530000+00:00</time>
      </trkpt>
      <trkpt lat="0" lon="0">
        <time>2020-12-06T09:04:35.534000+00:00</time>
      </trkpt>
      <trkpt lat="0" lon="0">
        <time>2020-12-06T09:04:35.547000+00:00</time>
      </trkpt>
      <trkpt lat="0" lon="0">
        <time>2020-12-06T09:04:35.549000+00:00</time>
      </trkpt>
      <trkpt lat="47.33337" lon="-1.26024">
        <ele>75</ele>
        <time>2020-12-06T09:04:36.602000+00:00</time>
      </trkpt>
      <trkpt lat="0" lon="0">
        <time>2020-12-06T09:04:36.619000+00:00</time>
      </trkpt>
      <trkpt lat="0" lon="0">
        <time>2020-12-06T09:04:36.632000+00:00</time>
      </trkpt>
      <trkpt lat="0" lon="0">
        <time>2020-12-06T09:04:36.633000+00:00</time>
      </trkpt>
      <trkpt lat="47.33333" lon="-1.2602">
        <ele>75</ele>
        <time>2020-12-06T09:04:37.579000+00:00</time>
      </trkpt>
      <trkpt lat="0" lon="0">
        <time>2020-12-06T09:04:37.582000+00:00</time>
      </trkpt>
      <trkpt lat="0" lon="0">
        <time>2020-12-06T09:04:37.592000+00:00</time>
      </trkpt>
      <trkpt lat="0" lon="0">
        <time>2020-12-06T09:04:37.593000+00:00</time>
      </trkpt>
      <trkpt lat="47.33329" lon="-1.26015">
        <ele>75</ele>
        <time>2020-12-06T09:04:38.567000+00:00</time>
      </trkpt>
      <trkpt lat="0" lon="0">
        <time>2020-12-06T09:04:38.571000+00:00</time>
      </trkpt>
      <trkpt lat="0" lon="0">
        <time>2020-12-06T09:04:38.580000+00:00</time>
      </trkpt>
      <trkpt lat="0" lon="0">
        <time>2020-12-06T09:04:38.582000+00:00</time>
      </trkpt>
      <trkpt lat="47.33325" lon="-1.2601">
        <ele>75</ele>
        <time>2020-12-06T09:04:39.549000+00:00</time>
      </trkpt>
      <trkpt lat="0" lon="0">
        <time>2020-12-06T09:04:39.557000+00:00</time>
      </trkpt>
      <trkpt lat="0" lon="0">
        <time>2020-12-06T09:04:39.561000+00:00</time>
      </trkpt>
      <trkpt lat="0" lon="0">
        <time>2020-12-06T09:04:39.567000+00:00</time>
      </trkpt>
      <trkpt lat="47.33321" lon="-1.26005">
        <ele>75</ele>
        <time>2020-12-06T09:04:40.575000+00:00</time>
      </trkpt>
      <trkpt lat="0" lon="0">
        <time>2020-12-06T09:04:40.586000+00:00</time>
      </trkpt>
      <trkpt lat="0" lon="0">
        <time>2020-12-06T09:04:40.589000+00:00</time>
      </trkpt>
      <trkpt lat="0" lon="0">
        <time>2020-12-06T09:04:40.591000+00:00</time>
      </trkpt>
      <trkpt lat="47.33318" lon="-1.26">
        <ele>76</ele>
        <time>2020-12-06T09:04:41.560000+00:00</time>
      </trkpt>
      <trkpt lat="0" lon="0">
        <time>2020-12-06T09:04:41.563000+00:00</time>
      </trkpt>
      <trkpt lat="0" lon="0">
        <time>2020-12-06T09:04:41.568000+00:00</time>
      </trkpt>
      <trkpt lat="0" lon="0">
        <time>2020-12-06T09:04:41.574000+00:00</time>
      </trkpt>
      <trkpt lat="47.33315" lon="-1.25995">
        <ele>76</ele>
        <time>2020-12-06T09:04:42.581000+00:00</time>
      </trkpt>
      <trkpt lat="0" lon="0">
        <time>2020-12-06T09:04:42.586000+00:00</time>
      </trkpt>
      <trkpt lat="0" lon="0">
        <time>2020-12-06T09:04:42.590000+00:00</time>
      </trkpt>
      <trkpt lat="0" lon="0">
        <time>2020-12-06T09:04:42.593000+00:00</time>
      </trkpt>
      <trkpt lat="47.33312" lon="-1.2599">
        <ele>76</ele>
        <time>2020-12-06T09:04:43.590000+00:00</time>
      </trkpt>
      <trkpt lat="0" lon="0">
        <time>2020-12-06T09:04:43.602000+00:00</time>
      </trkpt>
      <trkpt lat="0" lon="0">
        <time>2020-12-06T09:04:43.613000+00:00</time>
      </trkpt>
      <trkpt lat="0" lon="0">
        <time>2020-12-06T09:04:43.617000+00:00</time>
      </trkpt>
      <trkpt lat="47.3331" lon="-1.25986">
        <ele>76</ele>
        <time>2020-12-06T09:04:44.553000+00:00</time>
      </trkpt>
      <trkpt lat="0" lon="0">
        <time>2020-12-06T09:04:44.563000+00:00</time>
      </trkpt>
      <trkpt lat="0" lon="0">
        <time>2020-12-06T09:04:44.567000+00:00</time>
      </trkpt>
      <trkpt lat="0" lon="0">
        <time>2020-12-06T09:04:44.569000+00:00</time>
      </trkpt>
      <trkpt lat="47.3331" lon="-1.25982">
        <ele>76</ele>
        <time>2020-12-06T09:04:45.539000+00:00</time>
      </trkpt>
      <trkpt lat="0" lon="0">
        <time>2020-12-06T09:04:45.549000+00:00</time>
      </trkpt>
      <trkpt lat="0" lon="0">
        <time>2020-12-06T09:04:45.564000+00:00</time>
      </trkpt>
      <trkpt lat="0" lon="0">
        <time>2020-12-06T09:04:45.567000+00:00</time>
      </trkpt>
      <trkpt lat="47.3331" lon="-1.25979">
        <ele>76</ele>
        <time>2020-12-06T09:04:46.559000+00:00</time>
      </trkpt>
      <trkpt lat="0" lon="0">
        <time>2020-12-06T09:04:46.569000+00:00</time>
      </trkpt>
      <trkpt lat="0" lon="0">
        <time>2020-12-06T09:04:46.572000+00:00</time>
      </trkpt>
      <trkpt lat="0" lon="0">
        <time>2020-12-06T09:04:46.574000+00:00</time>
      </trkpt>
      <trkpt lat="47.3331" lon="-1.25976">
        <ele>76</ele>
        <time>2020-12-06T09:04:47.553000+00:00</time>
      </trkpt>
      <trkpt lat="0" lon="0">
        <time>2020-12-06T09:04:47.562000+00:00</time>
      </trkpt>
      <trkpt lat="0" lon="0">
        <time>2020-12-06T09:04:47.569000+00:00</time>
      </trkpt>
      <trkpt lat="0" lon="0">
        <time>2020-12-06T09:04:47.571000+00:00</time>
      </trkpt>
      <trkpt lat="47.33311" lon="-1.25974">
        <ele>76</ele>
        <time>2020-12-06T09:04:48.532000+00:00</time>
      </trkpt>
      <trkpt lat="0" lon="0">
        <time>2020-12-06T09:04:48.533000+00:00</time>
      </trkpt>
      <trkpt lat="0" lon="0">
        <time>2020-12-06T09:04:48.535000+00:00</time>
      </trkpt>
      <trkpt lat="0" lon="0">
        <time>2020-12-06T09:04:48.536000+00:00</time>
      </trkpt>
      <trkpt lat="47.33314" lon="-1.25972">
        <ele>76</ele>
        <time>2020-12-06T09:04:49.533000+00:00</time>
      </trkpt>
      <trkpt lat="0" lon="0">
        <time>2020-12-06T09:04:49.536000+00:00</time>
      </trkpt>
      <trkpt lat="0" lon="0">
        <time>2020-12-06T09:04:49.540000+00:00</time>
      </trkpt>
      <trkpt lat="0" lon="0">
        <time>2020-12-06T09:04:49.541000+00:00</time>
      </trkpt>
      <trkpt lat="47.33317" lon="-1.2597">
        <ele>76</ele>
        <time>2020-12-06T09:04:50.452000+00:00</time>
      </trkpt>
      <trkpt lat="0" lon="0">
        <time>2020-12-06T09:04:50.453000+00:00</time>
      </trkpt>
      <trkpt lat="0" lon="0">
        <time>2020-12-06T09:04:50.454000+00:00</time>
      </trkpt>
      <trkpt lat="47.33321" lon="-1.25968">
        <ele>76</ele>
        <time>2020-12-06T09:04:51.524000+00:00</time>
      </trkpt>
      <trkpt lat="0" lon="0">
        <time>2020-12-06T09:04:51.548000+00:00</time>
      </trkpt>
      <trkpt lat="0" lon="0">
        <time>2020-12-06T09:04:51.550000+00:00</time>
      </trkpt>
      <trkpt lat="0" lon="0">
        <time>2020-12-06T09:04:51.551000+00:00</time>
      </trkpt>
      <trkpt lat="47.33326" lon="-1.25966">
        <ele>76</ele>
        <time>2020-12-06T09:04:52.526000+00:00</time>
      </trkpt>
      <trkpt lat="0" lon="0">
        <time>2020-12-06T09:04:52.544000+00:00</time>
      </trkpt>
      <trkpt lat="0" lon="0">
        <time>2020-12-06T09:04:52.548000+00:00</time>
      </trkpt>
      <trkpt lat="0" lon="0">
        <time>2020-12-06T09:04:52.550000+00:00</time>
      </trkpt>
      <trkpt lat="47.33331" lon="-1.25965">
        <ele>76</ele>
        <time>2020-12-06T09:04:53.587000+00:00</time>
      </trkpt>
      <trkpt lat="0" lon="0">
        <time>2020-12-06T09:04:53.603000+00:00</time>
      </trkpt>
      <trkpt lat="0" lon="0">
        <time>2020-12-06T09:04:53.613000+00:00</time>
      </trkpt>
      <trkpt lat="0" lon="0">
        <time>2020-12-06T09:04:53.617000+00:00</time>
      </trkpt>
      <trkpt lat="47.33337" lon="-1.25963">
        <ele>76</ele>
        <time>2020-12-06T09:04:54.569000+00:00</time>
      </trkpt>
      <trkpt lat="0" lon="0">
        <time>2020-12-06T09:04:54.584000+00:00</time>
      </trkpt>
      <trkpt lat="0" lon="0">
        <time>2020-12-06T09:04:54.587000+00:00</time>
      </trkpt>
      <trkpt lat="0" lon="0">
        <time>2020-12-06T09:04:54.588000+00:00</time>
      </trkpt>
      <trkpt lat="47.33342" lon="-1.25961">
        <ele>76</ele>
        <time>2020-12-06T09:04:55.578000+00:00</time>
      </trkpt>
      <trkpt lat="0" lon="0">
        <time>2020-12-06T09:04:55.589000+00:00</time>
      </trkpt>
      <trkpt lat="0" lon="0">
        <time>2020-12-06T09:04:55.593000+00:00</time>
      </trkpt>
      <trkpt lat="0" lon="0">
        <time>2020-12-06T09:04:55.599000+00:00</time>
      </trkpt>
      <trkpt lat="47.33348" lon="-1.25959">
        <ele>76</ele>
        <time>2020-12-06T09:04:56.577000+00:00</time>
      </trkpt>
      <trkpt lat="0" lon="0">
        <time>2020-12-06T09:04:56.591000+00:00</time>
      </trkpt>
      <trkpt lat="0" lon="0">
        <time>2020-12-06T09:04:56.600000+00:00</time>
      </trkpt>
      <trkpt lat="0" lon="0">
        <time>2020-12-06T09:04:56.601000+00:00</time>
      </trkpt>
      <trkpt lat="47.33354" lon="-1.25957">
        <ele>76</ele>
        <time>2020-12-06T09:04:57.567000+00:00</time>
      </trkpt>
      <trkpt lat="0" lon="0">
        <time>2020-12-06T09:04:57.577000+00:00</time>
      </trkpt>
      <trkpt lat="0" lon="0">
        <time>2020-12-06T09:04:57.579000+00:00</time>
      </trkpt>
      <trkpt lat="0" lon="0">
        <time>2020-12-06T09:04:57.582000+00:00</time>
      </trkpt>
      <trkpt lat="47.33359" lon="-1.25955">
        <ele>76</ele>
        <time>2020-12-06T09:04:58.570000+00:00</time>
      </trkpt>
      <trkpt lat="0" lon="0">
        <time>2020-12-06T09:04:58.575000+00:00</time>
      </trkpt>
      <trkpt lat="0" lon="0">
        <time>2020-12-06T09:04:58.587000+00:00</time>
      </trkpt>
      <trkpt lat="0" lon="0">
        <time>2020-12-06T09:04:58.589000+00:00</time>
      </trkpt>
      <trkpt lat="47.33365" lon="-1.25952">
        <ele>76</ele>
        <time>2020-12-06T09:04:59.565000+00:00</time>
      </trkpt>
      <trkpt lat="0" lon="0">
        <time>2020-12-06T09:04:59.577000+00:00</time>
      </trkpt>
      <trkpt lat="0" lon="0">
        <time>2020-12-06T09:04:59.582000+00:00</time>
      </trkpt>
      <trkpt lat="0" lon="0">
        <time>2020-12-06T09:04:59.584000+00:00</time>
      </trkpt>
      <trkpt lat="47.33371" lon="-1.2595">
        <ele>77</ele>
        <time>2020-12-06T09:05:00.540000+00:00</time>
      </trkpt>
      <trkpt lat="0" lon="0">
        <time>2020-12-06T09:05:00.548000+00:00</time>
      </trkpt>
      <trkpt lat="0" lon="0">
        <time>2020-12-06T09:05:00.552000+00:00</time>
      </trkpt>
      <trkpt lat="0" lon="0">
        <time>2020-12-06T09:05:00.554000+00:00</time>
      </trkpt>
      <trkpt lat="47.33376" lon="-1.25948">
        <ele>77</ele>
        <time>2020-12-06T09:05:01.560000+00:00</time>
      </trkpt>
      <trkpt lat="0" lon="0">
        <time>2020-12-06T09:05:01.570000+00:00</time>
      </trkpt>
      <trkpt lat="0" lon="0">
        <time>2020-12-06T09:05:01.572000+00:00</time>
      </trkpt>
      <trkpt lat="0" lon="0">
        <time>2020-12-06T09:05:01.573000+00:00</time>
      </trkpt>
      <trkpt lat="47.3338" lon="-1.25945">
        <ele>77</ele>
        <time>2020-12-06T09:05:02.526000+00:00</time>
      </trkpt>
      <trkpt lat="0" lon="0">
        <time>2020-12-06T09:05:02.541000+00:00</time>
      </trkpt>
      <trkpt lat="0" lon="0">
        <time>2020-12-06T09:05:02.545000+00:00</time>
      </trkpt>
      <trkpt lat="0" lon="0">
        <time>2020-12-06T09:05:02.547000+00:00</time>
      </trkpt>
      <trkpt lat="47.33384" lon="-1.25941">
        <ele>77</ele>
        <time>2020-12-06T09:05:03.448000+00:00</time>
      </trkpt>
      <trkpt lat="0" lon="0">
        <time>2020-12-06T09:05:03.455000+00:00</time>
      </trkpt>
      <trkpt lat="0" lon="0">
        <time>2020-12-06T09:05:03.461000+00:00</time>
      </trkpt>
      <trkpt lat="0" lon="0">
        <time>2020-12-06T09:05:03.464000+00:00</time>
      </trkpt>
      <trkpt lat="47.33388" lon="-1.25937">
        <ele>77</ele>
        <time>2020-12-06T09:05:04.562000+00:00</time>
      </trkpt>
      <trkpt lat="0" lon="0">
        <time>2020-12-06T09:05:04.566000+00:00</time>
      </trkpt>
      <trkpt lat="0" lon="0">
        <time>2020-12-06T09:05:04.570000+00:00</time>
      </trkpt>
      <trkpt lat="0" lon="0">
        <time>2020-12-06T09:05:04.573000+00:00</time>
      </trkpt>
      <trkpt lat="47.33391" lon="-1.25932">
        <ele>77</ele>
        <time>2020-12-06T09:05:05.539000+00:00</time>
      </trkpt>
      <trkpt lat="0" lon="0">
        <time>2020-12-06T09:05:05.548000+00:00</time>
      </trkpt>
      <trkpt lat="0" lon="0">
        <time>2020-12-06T09:05:05.555000+00:00</time>
      </trkpt>
      <trkpt lat="0" lon="0">
        <time>2020-12-06T09:05:05.557000+00:00</time>
      </trkpt>
      <trkpt lat="47.33393" lon="-1.25927">
        <ele>77</ele>
        <time>2020-12-06T09:05:06.602000+00:00</time>
      </trkpt>
      <trkpt lat="0" lon="0">
        <time>2020-12-06T09:05:06.610000+00:00</time>
      </trkpt>
      <trkpt lat="0" lon="0">
        <time>2020-12-06T09:05:06.623000+00:00</time>
      </trkpt>
      <trkpt lat="0" lon="0">
        <time>2020-12-06T09:05:06.625000+00:00</time>
      </trkpt>
      <trkpt lat="47.33395" lon="-1.25921">
        <ele>77</ele>
        <time>2020-12-06T09:05:07.560000+00:00</time>
      </trkpt>
      <trkpt lat="0" lon="0">
        <time>2020-12-06T09:05:07.579000+00:00</time>
      </trkpt>
      <trkpt lat="0" lon="0">
        <time>2020-12-06T09:05:07.582000+00:00</time>
      </trkpt>
      <trkpt lat="0" lon="0">
        <time>2020-12-06T09:05:07.584000+00:00</time>
      </trkpt>
      <trkpt lat="47.33397" lon="-1.25914">
        <ele>77</ele>
        <time>2020-12-06T09:05:08.513000+00:00</time>
      </trkpt>
      <trkpt lat="0" lon="0">
        <time>2020-12-06T09:05:08.526000+00:00</time>
      </trkpt>
      <trkpt lat="0" lon="0">
        <time>2020-12-06T09:05:08.528000+00:00</time>
      </trkpt>
      <trkpt lat="0" lon="0">
        <time>2020-12-06T09:05:08.529000+00:00</time>
      </trkpt>
      <trkpt lat="47.33398" lon="-1.25908">
        <ele>77</ele>
        <time>2020-12-06T09:05:09.495000+00:00</time>
      </trkpt>
      <trkpt lat="0" lon="0">
        <time>2020-12-06T09:05:09.499000+00:00</time>
      </trkpt>
      <trkpt lat="0" lon="0">
        <time>2020-12-06T09:05:09.501000+00:00</time>
      </trkpt>
      <trkpt lat="0" lon="0">
        <time>2020-12-06T09:05:09.508000+00:00</time>
      </trkpt>
      <trkpt lat="47.33398" lon="-1.25901">
        <ele>78</ele>
        <time>2020-12-06T09:05:10.450000+00:00</time>
      </trkpt>
      <trkpt lat="0" lon="0">
        <time>2020-12-06T09:05:10.451000+00:00</time>
      </trkpt>
      <trkpt lat="0" lon="0">
        <time>2020-12-06T09:05:10.453000+00:00</time>
      </trkpt>
      <trkpt lat="0" lon="0">
        <time>2020-12-06T09:05:10.454000+00:00</time>
      </trkpt>
      <trkpt lat="47.33398" lon="-1.25893">
        <ele>78</ele>
        <time>2020-12-06T09:05:11.547000+00:00</time>
      </trkpt>
      <trkpt lat="0" lon="0">
        <time>2020-12-06T09:05:11.550000+00:00</time>
      </trkpt>
      <trkpt lat="0" lon="0">
        <time>2020-12-06T09:05:11.558000+00:00</time>
      </trkpt>
      <trkpt lat="0" lon="0">
        <time>2020-12-06T09:05:11.560000+00:00</time>
      </trkpt>
      <trkpt lat="47.33398" lon="-1.25886">
        <ele>78</ele>
        <time>2020-12-06T09:05:12.516000+00:00</time>
      </trkpt>
      <trkpt lat="0" lon="0">
        <time>2020-12-06T09:05:12.520000+00:00</time>
      </trkpt>
      <trkpt lat="0" lon="0">
        <time>2020-12-06T09:05:12.525000+00:00</time>
      </trkpt>
      <trkpt lat="0" lon="0">
        <time>2020-12-06T09:05:12.528000+00:00</time>
      </trkpt>
      <trkpt lat="47.33398" lon="-1.25879">
        <ele>78</ele>
        <time>2020-12-06T09:05:13.572000+00:00</time>
      </trkpt>
      <trkpt lat="0" lon="0">
        <time>2020-12-06T09:05:13.586000+00:00</time>
      </trkpt>
      <trkpt lat="0" lon="0">
        <time>2020-12-06T09:05:13.594000+00:00</time>
      </trkpt>
      <trkpt lat="0" lon="0">
        <time>2020-12-06T09:05:13.596000+00:00</time>
      </trkpt>
      <trkpt lat="47.33397" lon="-1.25871">
        <ele>78</ele>
        <time>2020-12-06T09:05:14.588000+00:00</time>
      </trkpt>
      <trkpt lat="0" lon="0">
        <time>2020-12-06T09:05:14.604000+00:00</time>
      </trkpt>
      <trkpt lat="0" lon="0">
        <time>2020-12-06T09:05:14.615000+00:00</time>
      </trkpt>
      <trkpt lat="0" lon="0">
        <time>2020-12-06T09:05:14.621000+00:00</time>
      </trkpt>
      <trkpt lat="47.33396" lon="-1.25864">
        <ele>78</ele>
        <time>2020-12-06T09:05:15.466000+00:00</time>
      </trkpt>
      <trkpt lat="0" lon="0">
        <time>2020-12-06T09:05:15.467000+00:00</time>
      </trkpt>
      <trkpt lat="0" lon="0">
        <time>2020-12-06T09:05:15.471000+00:00</time>
      </trkpt>
      <trkpt lat="47.33395" lon="-1.25856">
        <ele>78</ele>
        <time>2020-12-06T09:05:16.493000+00:00</time>
      </trkpt>
      <trkpt lat="0" lon="0">
        <time>2020-12-06T09:05:16.494000+00:00</time>
      </trkpt>
      <trkpt lat="0" lon="0">
        <time>2020-12-06T09:05:16.495000+00:00</time>
      </trkpt>
      <trkpt lat="47.33394" lon="-1.25849">
        <ele>78</ele>
        <time>2020-12-06T09:05:17.522000+00:00</time>
      </trkpt>
      <trkpt lat="0" lon="0">
        <time>2020-12-06T09:05:17.534000+00:00</time>
      </trkpt>
      <trkpt lat="0" lon="0">
        <time>2020-12-06T09:05:17.540000+00:00</time>
      </trkpt>
      <trkpt lat="0" lon="0">
        <time>2020-12-06T09:05:17.542000+00:00</time>
      </trkpt>
      <trkpt lat="47.33393" lon="-1.25842">
        <ele>78</ele>
        <time>2020-12-06T09:05:18.569000+00:00</time>
      </trkpt>
      <trkpt lat="0" lon="0">
        <time>2020-12-06T09:05:18.581000+00:00</time>
      </trkpt>
      <trkpt lat="0" lon="0">
        <time>2020-12-06T09:05:18.584000+00:00</time>
      </trkpt>
      <trkpt lat="0" lon="0">
        <time>2020-12-06T09:05:18.586000+00:00</time>
      </trkpt>
      <trkpt lat="47.33391" lon="-1.25835">
        <ele>78</ele>
        <time>2020-12-06T09:05:19.538000+00:00</time>
      </trkpt>
      <trkpt lat="0" lon="0">
        <time>2020-12-06T09:05:19.546000+00:00</time>
      </trkpt>
      <trkpt lat="0" lon="0">
        <time>2020-12-06T09:05:19.549000+00:00</time>
      </trkpt>
      <trkpt lat="0" lon="0">
        <time>2020-12-06T09:05:19.553000+00:00</time>
      </trkpt>
      <trkpt lat="47.3339" lon="-1.25827">
        <ele>79</ele>
        <time>2020-12-06T09:05:20.552000+00:00</time>
      </trkpt>
      <trkpt lat="0" lon="0">
        <time>2020-12-06T09:05:20.555000+00:00</time>
      </trkpt>
      <trkpt lat="0" lon="0">
        <time>2020-12-06T09:05:20.561000+00:00</time>
      </trkpt>
      <trkpt lat="0" lon="0">
        <time>2020-12-06T09:05:20.564000+00:00</time>
      </trkpt>
      <trkpt lat="47.33388" lon="-1.2582">
        <ele>79</ele>
        <time>2020-12-06T09:05:21.546000+00:00</time>
      </trkpt>
      <trkpt lat="0" lon="0">
        <time>2020-12-06T09:05:21.574000+00:00</time>
      </trkpt>
      <trkpt lat="0" lon="0">
        <time>2020-12-06T09:05:21.581000+00:00</time>
      </trkpt>
      <trkpt lat="0" lon="0">
        <time>2020-12-06T09:05:21.582000+00:00</time>
      </trkpt>
      <trkpt lat="47.33387" lon="-1.25813">
        <ele>79</ele>
        <time>2020-12-06T09:05:22.564000+00:00</time>
      </trkpt>
      <trkpt lat="0" lon="0">
        <time>2020-12-06T09:05:22.588000+00:00</time>
      </trkpt>
      <trkpt lat="0" lon="0">
        <time>2020-12-06T09:05:22.592000+00:00</time>
      </trkpt>
      <trkpt lat="0" lon="0">
        <time>2020-12-06T09:05:22.594000+00:00</time>
      </trkpt>
      <trkpt lat="47.33386" lon="-1.25805">
        <ele>79</ele>
        <time>2020-12-06T09:05:23.573000+00:00</time>
      </trkpt>
      <trkpt lat="0" lon="0">
        <time>2020-12-06T09:05:23.581000+00:00</time>
      </trkpt>
      <trkpt lat="0" lon="0">
        <time>2020-12-06T09:05:23.588000+00:00</time>
      </trkpt>
      <trkpt lat="0" lon="0">
        <time>2020-12-06T09:05:23.590000+00:00</time>
      </trkpt>
      <trkpt lat="47.33384" lon="-1.25798">
        <ele>79</ele>
        <time>2020-12-06T09:05:24.576000+00:00</time>
      </trkpt>
      <trkpt lat="0" lon="0">
        <time>2020-12-06T09:05:24.587000+00:00</time>
      </trkpt>
      <trkpt lat="0" lon="0">
        <time>2020-12-06T09:05:24.589000+00:00</time>
      </trkpt>
      <trkpt lat="0" lon="0">
        <time>2020-12-06T09:05:24.590000+00:00</time>
      </trkpt>
      <trkpt lat="47.33383" lon="-1.25791">
        <ele>79</ele>
        <time>2020-12-06T09:05:25.513000+00:00</time>
      </trkpt>
      <trkpt lat="0" lon="0">
        <time>2020-12-06T09:05:25.525000+00:00</time>
      </trkpt>
      <trkpt lat="0" lon="0">
        <time>2020-12-06T09:05:25.533000+00:00</time>
      </trkpt>
      <trkpt lat="0" lon="0">
        <time>2020-12-06T09:05:25.535000+00:00</time>
      </trkpt>
      <trkpt lat="47.33382" lon="-1.25783">
        <ele>79</ele>
        <time>2020-12-06T09:05:26.521000+00:00</time>
      </trkpt>
      <trkpt lat="0" lon="0">
        <time>2020-12-06T09:05:26.531000+00:00</time>
      </trkpt>
      <trkpt lat="0" lon="0">
        <time>2020-12-06T09:05:26.535000+00:00</time>
      </trkpt>
      <trkpt lat="0" lon="0">
        <time>2020-12-06T09:05:26.539000+00:00</time>
      </trkpt>
      <trkpt lat="47.33381" lon="-1.25776">
        <ele>79</ele>
        <time>2020-12-06T09:05:27.568000+00:00</time>
      </trkpt>
      <trkpt lat="0" lon="0">
        <time>2020-12-06T09:05:27.572000+00:00</time>
      </trkpt>
      <trkpt lat="0" lon="0">
        <time>2020-12-06T09:05:27.585000+00:00</time>
      </trkpt>
      <trkpt lat="0" lon="0">
        <time>2020-12-06T09:05:27.590000+00:00</time>
      </trkpt>
      <trkpt lat="47.3338" lon="-1.25768">
        <ele>79</ele>
        <time>2020-12-06T09:05:28.538000+00:00</time>
      </trkpt>
      <trkpt lat="0" lon="0">
        <time>2020-12-06T09:05:28.547000+00:00</time>
      </trkpt>
      <trkpt lat="0" lon="0">
        <time>2020-12-06T09:05:28.556000+00:00</time>
      </trkpt>
      <trkpt lat="0" lon="0">
        <time>2020-12-06T09:05:28.558000+00:00</time>
      </trkpt>
      <trkpt lat="47.33379" lon="-1.25761">
        <ele>79</ele>
        <time>2020-12-06T09:05:29.544000+00:00</time>
      </trkpt>
      <trkpt lat="0" lon="0">
        <time>2020-12-06T09:05:29.549000+00:00</time>
      </trkpt>
      <trkpt lat="0" lon="0">
        <time>2020-12-06T09:05:29.554000+00:00</time>
      </trkpt>
      <trkpt lat="47.33378" lon="-1.25754">
        <ele>79</ele>
        <time>2020-12-06T09:05:30.573000+00:00</time>
      </trkpt>
      <trkpt lat="0" lon="0">
        <time>2020-12-06T09:05:30.576000+00:00</time>
      </trkpt>
      <trkpt lat="0" lon="0">
        <time>2020-12-06T09:05:30.583000+00:00</time>
      </trkpt>
      <trkpt lat="0" lon="0">
        <time>2020-12-06T09:05:30.588000+00:00</time>
      </trkpt>
      <trkpt lat="47.33377" lon="-1.25747">
        <ele>79</ele>
        <time>2020-12-06T09:05:31.573000+00:00</time>
      </trkpt>
      <trkpt lat="0" lon="0">
        <time>2020-12-06T09:05:31.579000+00:00</time>
      </trkpt>
      <trkpt lat="0" lon="0">
        <time>2020-12-06T09:05:31.584000+00:00</time>
      </trkpt>
      <trkpt lat="0" lon="0">
        <time>2020-12-06T09:05:31.585000+00:00</time>
      </trkpt>
      <trkpt lat="47.33376" lon="-1.25741">
        <ele>79</ele>
        <time>2020-12-06T09:05:32.541000+00:00</time>
      </trkpt>
      <trkpt lat="0" lon="0">
        <time>2020-12-06T09:05:32.552000+00:00</time>
      </trkpt>
      <trkpt lat="0" lon="0">
        <time>2020-12-06T09:05:32.556000+00:00</time>
      </trkpt>
      <trkpt lat="0" lon="0">
        <time>2020-12-06T09:05:32.558000+00:00</time>
      </trkpt>
      <trkpt lat="47.33375" lon="-1.25735">
        <ele>79</ele>
        <time>2020-12-06T09:05:33.510000+00:00</time>
      </trkpt>
      <trkpt lat="0" lon="0">
        <time>2020-12-06T09:05:33.524000+00:00</time>
      </trkpt>
      <trkpt lat="0" lon="0">
        <time>2020-12-06T09:05:33.528000+00:00</time>
      </trkpt>
      <trkpt lat="0" lon="0">
        <time>2020-12-06T09:05:33.530000+00:00</time>
      </trkpt>
      <trkpt lat="47.33375" lon="-1.2573">
        <ele>79</ele>
        <time>2020-12-06T09:05:34.590000+00:00</time>
      </trkpt>
      <trkpt lat="0" lon="0">
        <time>2020-12-06T09:05:34.600000+00:00</time>
      </trkpt>
      <trkpt lat="0" lon="0">
        <time>2020-12-06T09:05:34.604000+00:00</time>
      </trkpt>
      <trkpt lat="0" lon="0">
        <time>2020-12-06T09:05:34.609000+00:00</time>
      </trkpt>
      <trkpt lat="47.33374" lon="-1.25725">
        <ele>79</ele>
        <time>2020-12-06T09:05:35.585000+00:00</time>
      </trkpt>
      <trkpt lat="0" lon="0">
        <time>2020-12-06T09:05:35.598000+00:00</time>
      </trkpt>
      <trkpt lat="0" lon="0">
        <time>2020-12-06T09:05:35.602000+00:00</time>
      </trkpt>
      <trkpt lat="0" lon="0">
        <time>2020-12-06T09:05:35.604000+00:00</time>
      </trkpt>
      <trkpt lat="47.33373" lon="-1.2572">
        <ele>79</ele>
        <time>2020-12-06T09:05:36.578000+00:00</time>
      </trkpt>
      <trkpt lat="0" lon="0">
        <time>2020-12-06T09:05:36.594000+00:00</time>
      </trkpt>
      <trkpt lat="0" lon="0">
        <time>2020-12-06T09:05:36.598000+00:00</time>
      </trkpt>
      <trkpt lat="0" lon="0">
        <time>2020-12-06T09:05:36.600000+00:00</time>
      </trkpt>
      <trkpt lat="47.33372" lon="-1.25716">
        <ele>79</ele>
        <time>2020-12-06T09:05:37.557000+00:00</time>
      </trkpt>
      <trkpt lat="0" lon="0">
        <time>2020-12-06T09:05:37.567000+00:00</time>
      </trkpt>
      <trkpt lat="0" lon="0">
        <time>2020-12-06T09:05:37.575000+00:00</time>
      </trkpt>
      <trkpt lat="0" lon="0">
        <time>2020-12-06T09:05:37.577000+00:00</time>
      </trkpt>
      <trkpt lat="47.33372" lon="-1.25711">
        <ele>79</ele>
        <time>2020-12-06T09:05:38.600000+00:00</time>
      </trkpt>
      <trkpt lat="0" lon="0">
        <time>2020-12-06T09:05:38.618000+00:00</time>
      </trkpt>
      <trkpt lat="0" lon="0">
        <time>2020-12-06T09:05:38.624000+00:00</time>
      </trkpt>
      <trkpt lat="0" lon="0">
        <time>2020-12-06T09:05:38.626000+00:00</time>
      </trkpt>
      <trkpt lat="47.33372" lon="-1.25706">
        <ele>79</ele>
        <time>2020-12-06T09:05:39.568000+00:00</time>
      </trkpt>
      <trkpt lat="0" lon="0">
        <time>2020-12-06T09:05:39.575000+00:00</time>
      </trkpt>
      <trkpt lat="0" lon="0">
        <time>2020-12-06T09:05:39.583000+00:00</time>
      </trkpt>
      <trkpt lat="0" lon="0">
        <time>2020-12-06T09:05:39.585000+00:00</time>
      </trkpt>
      <trkpt lat="47.33371" lon="-1.257">
        <ele>79</ele>
        <time>2020-12-06T09:05:40.572000+00:00</time>
      </trkpt>
      <trkpt lat="0" lon="0">
        <time>2020-12-06T09:05:40.584000+00:00</time>
      </trkpt>
      <trkpt lat="0" lon="0">
        <time>2020-12-06T09:05:40.588000+00:00</time>
      </trkpt>
      <trkpt lat="0" lon="0">
        <time>2020-12-06T09:05:40.590000+00:00</time>
      </trkpt>
      <trkpt lat="47.33371" lon="-1.25694">
        <ele>79</ele>
        <time>2020-12-06T09:05:41.536000+00:00</time>
      </trkpt>
      <trkpt lat="0" lon="0">
        <time>2020-12-06T09:05:41.539000+00:00</time>
      </trkpt>
      <trkpt lat="0" lon="0">
        <time>2020-12-06T09:05:41.550000+00:00</time>
      </trkpt>
      <trkpt lat="0" lon="0">
        <time>2020-12-06T09:05:41.552000+00:00</time>
      </trkpt>
      <trkpt lat="47.33371" lon="-1.25688">
        <ele>79</ele>
        <time>2020-12-06T09:05:42.579000+00:00</time>
      </trkpt>
      <trkpt lat="0" lon="0">
        <time>2020-12-06T09:05:42.601000+00:00</time>
      </trkpt>
      <trkpt lat="0" lon="0">
        <time>2020-12-06T09:05:42.605000+00:00</time>
      </trkpt>
      <trkpt lat="0" lon="0">
        <time>2020-12-06T09:05:42.607000+00:00</time>
      </trkpt>
      <trkpt lat="47.33371" lon="-1.25682">
        <ele>79</ele>
        <time>2020-12-06T09:05:43.577000+00:00</time>
      </trkpt>
      <trkpt lat="0" lon="0">
        <time>2020-12-06T09:05:43.592000+00:00</time>
      </trkpt>
      <trkpt lat="0" lon="0">
        <time>2020-12-06T09:05:43.603000+00:00</time>
      </trkpt>
      <trkpt lat="0" lon="0">
        <time>2020-12-06T09:05:43.608000+00:00</time>
      </trkpt>
      <trkpt lat="47.33371" lon="-1.25674">
        <ele>79</ele>
        <time>2020-12-06T09:05:44.583000+00:00</time>
      </trkpt>
      <trkpt lat="0" lon="0">
        <time>2020-12-06T09:05:44.594000+00:00</time>
      </trkpt>
      <trkpt lat="0" lon="0">
        <time>2020-12-06T09:05:44.597000+00:00</time>
      </trkpt>
      <trkpt lat="0" lon="0">
        <time>2020-12-06T09:05:44.599000+00:00</time>
      </trkpt>
      <trkpt lat="47.33371" lon="-1.25667">
        <ele>79</ele>
        <time>2020-12-06T09:05:45.549000+00:00</time>
      </trkpt>
      <trkpt lat="0" lon="0">
        <time>2020-12-06T09:05:45.554000+00:00</time>
      </trkpt>
      <trkpt lat="0" lon="0">
        <time>2020-12-06T09:05:45.559000+00:00</time>
      </trkpt>
      <trkpt lat="0" lon="0">
        <time>2020-12-06T09:05:45.561000+00:00</time>
      </trkpt>
      <trkpt lat="47.3337" lon="-1.25659">
        <ele>79</ele>
        <time>2020-12-06T09:05:46.569000+00:00</time>
      </trkpt>
      <trkpt lat="0" lon="0">
        <time>2020-12-06T09:05:46.576000+00:00</time>
      </trkpt>
      <trkpt lat="0" lon="0">
        <time>2020-12-06T09:05:46.579000+00:00</time>
      </trkpt>
      <trkpt lat="0" lon="0">
        <time>2020-12-06T09:05:46.582000+00:00</time>
      </trkpt>
      <trkpt lat="47.3337" lon="-1.25651">
        <ele>79</ele>
        <time>2020-12-06T09:05:47.549000+00:00</time>
      </trkpt>
      <trkpt lat="0" lon="0">
        <time>2020-12-06T09:05:47.560000+00:00</time>
      </trkpt>
      <trkpt lat="0" lon="0">
        <time>2020-12-06T09:05:47.572000+00:00</time>
      </trkpt>
      <trkpt lat="0" lon="0">
        <time>2020-12-06T09:05:47.574000+00:00</time>
      </trkpt>
      <trkpt lat="47.33369" lon="-1.25642">
        <ele>79</ele>
        <time>2020-12-06T09:05:48.598000+00:00</time>
      </trkpt>
      <trkpt lat="0" lon="0">
        <time>2020-12-06T09:05:48.602000+00:00</time>
      </trkpt>
      <trkpt lat="0" lon="0">
        <time>2020-12-06T09:05:48.607000+00:00</time>
      </trkpt>
      <trkpt lat="0" lon="0">
        <time>2020-12-06T09:05:48.609000+00:00</time>
      </trkpt>
      <trkpt lat="47.33368" lon="-1.25633">
        <ele>79</ele>
        <time>2020-12-06T09:05:49.554000+00:00</time>
      </trkpt>
      <trkpt lat="0" lon="0">
        <time>2020-12-06T09:05:49.565000+00:00</time>
      </trkpt>
      <trkpt lat="0" lon="0">
        <time>2020-12-06T09:05:49.572000+00:00</time>
      </trkpt>
      <trkpt lat="0" lon="0">
        <time>2020-12-06T09:05:49.575000+00:00</time>
      </trkpt>
      <trkpt lat="47.33367" lon="-1.25624">
        <ele>79</ele>
        <time>2020-12-06T09:05:50.586000+00:00</time>
      </trkpt>
      <trkpt lat="0" lon="0">
        <time>2020-12-06T09:05:50.594000+00:00</time>
      </trkpt>
      <trkpt lat="0" lon="0">
        <time>2020-12-06T09:05:50.597000+00:00</time>
      </trkpt>
      <trkpt lat="0" lon="0">
        <time>2020-12-06T09:05:50.601000+00:00</time>
      </trkpt>
      <trkpt lat="47.33365" lon="-1.25615">
        <ele>79</ele>
        <time>2020-12-06T09:05:51.562000+00:00</time>
      </trkpt>
      <trkpt lat="0" lon="0">
        <time>2020-12-06T09:05:51.569000+00:00</time>
      </trkpt>
      <trkpt lat="0" lon="0">
        <time>2020-12-06T09:05:51.573000+00:00</time>
      </trkpt>
      <trkpt lat="0" lon="0">
        <time>2020-12-06T09:05:51.576000+00:00</time>
      </trkpt>
      <trkpt lat="47.33364" lon="-1.25606">
        <ele>79</ele>
        <time>2020-12-06T09:05:52.561000+00:00</time>
      </trkpt>
      <trkpt lat="0" lon="0">
        <time>2020-12-06T09:05:52.569000+00:00</time>
      </trkpt>
      <trkpt lat="0" lon="0">
        <time>2020-12-06T09:05:52.577000+00:00</time>
      </trkpt>
      <trkpt lat="0" lon="0">
        <time>2020-12-06T09:05:52.580000+00:00</time>
      </trkpt>
      <trkpt lat="47.33362" lon="-1.25597">
        <ele>79</ele>
        <time>2020-12-06T09:05:53.531000+00:00</time>
      </trkpt>
      <trkpt lat="0" lon="0">
        <time>2020-12-06T09:05:53.535000+00:00</time>
      </trkpt>
      <trkpt lat="0" lon="0">
        <time>2020-12-06T09:05:53.536000+00:00</time>
      </trkpt>
      <trkpt lat="0" lon="0">
        <time>2020-12-06T09:05:53.537000+00:00</time>
      </trkpt>
      <trkpt lat="47.33361" lon="-1.25588">
        <ele>79</ele>
        <time>2020-12-06T09:05:54.551000+00:00</time>
      </trkpt>
      <trkpt lat="0" lon="0">
        <time>2020-12-06T09:05:54.571000+00:00</time>
      </trkpt>
      <trkpt lat="0" lon="0">
        <time>2020-12-06T09:05:54.578000+00:00</time>
      </trkpt>
      <trkpt lat="0" lon="0">
        <time>2020-12-06T09:05:54.580000+00:00</time>
      </trkpt>
      <trkpt lat="47.33359" lon="-1.25579">
        <ele>79</ele>
        <time>2020-12-06T09:05:55.574000+00:00</time>
      </trkpt>
      <trkpt lat="0" lon="0">
        <time>2020-12-06T09:05:55.581000+00:00</time>
      </trkpt>
      <trkpt lat="0" lon="0">
        <time>2020-12-06T09:05:55.588000+00:00</time>
      </trkpt>
      <trkpt lat="0" lon="0">
        <time>2020-12-06T09:05:55.592000+00:00</time>
      </trkpt>
      <trkpt lat="47.33357" lon="-1.2557">
        <ele>79</ele>
        <time>2020-12-06T09:05:56.550000+00:00</time>
      </trkpt>
      <trkpt lat="0" lon="0">
        <time>2020-12-06T09:05:56.561000+00:00</time>
      </trkpt>
      <trkpt lat="0" lon="0">
        <time>2020-12-06T09:05:56.568000+00:00</time>
      </trkpt>
      <trkpt lat="0" lon="0">
        <time>2020-12-06T09:05:56.570000+00:00</time>
      </trkpt>
      <trkpt lat="47.33356" lon="-1.25561">
        <ele>79</ele>
        <time>2020-12-06T09:05:57.548000+00:00</time>
      </trkpt>
      <trkpt lat="0" lon="0">
        <time>2020-12-06T09:05:57.562000+00:00</time>
      </trkpt>
      <trkpt lat="0" lon="0">
        <time>2020-12-06T09:05:57.565000+00:00</time>
      </trkpt>
      <trkpt lat="0" lon="0">
        <time>2020-12-06T09:05:57.567000+00:00</time>
      </trkpt>
      <trkpt lat="47.33354" lon="-1.25552">
        <ele>79</ele>
        <time>2020-12-06T09:05:58.552000+00:00</time>
      </trkpt>
      <trkpt lat="0" lon="0">
        <time>2020-12-06T09:05:58.560000+00:00</time>
      </trkpt>
      <trkpt lat="0" lon="0">
        <time>2020-12-06T09:05:58.565000+00:00</time>
      </trkpt>
      <trkpt lat="0" lon="0">
        <time>2020-12-06T09:05:58.570000+00:00</time>
      </trkpt>
      <trkpt lat="47.33353" lon="-1.25543">
        <ele>79</ele>
        <time>2020-12-06T09:05:59.533000+00:00</time>
      </trkpt>
      <trkpt lat="0" lon="0">
        <time>2020-12-06T09:05:59.543000+00:00</time>
      </trkpt>
      <trkpt lat="0" lon="0">
        <time>2020-12-06T09:05:59.557000+00:00</time>
      </trkpt>
      <trkpt lat="0" lon="0">
        <time>2020-12-06T09:05:59.559000+00:00</time>
      </trkpt>
      <trkpt lat="47.33351" lon="-1.25535">
        <ele>79</ele>
        <time>2020-12-06T09:06:00.595000+00:00</time>
      </trkpt>
      <trkpt lat="0" lon="0">
        <time>2020-12-06T09:06:00.601000+00:00</time>
      </trkpt>
      <trkpt lat="0" lon="0">
        <time>2020-12-06T09:06:00.606000+00:00</time>
      </trkpt>
      <trkpt lat="0" lon="0">
        <time>2020-12-06T09:06:00.609000+00:00</time>
      </trkpt>
      <trkpt lat="47.33349" lon="-1.25526">
        <ele>79</ele>
        <time>2020-12-06T09:06:01.515000+00:00</time>
      </trkpt>
      <trkpt lat="0" lon="0">
        <time>2020-12-06T09:06:01.518000+00:00</time>
      </trkpt>
      <trkpt lat="0" lon="0">
        <time>2020-12-06T09:06:01.527000+00:00</time>
      </trkpt>
      <trkpt lat="0" lon="0">
        <time>2020-12-06T09:06:01.529000+00:00</time>
      </trkpt>
      <trkpt lat="47.33347" lon="-1.25518">
        <ele>79</ele>
        <time>2020-12-06T09:06:02.520000+00:00</time>
      </trkpt>
      <trkpt lat="0" lon="0">
        <time>2020-12-06T09:06:02.521000+00:00</time>
      </trkpt>
      <trkpt lat="0" lon="0">
        <time>2020-12-06T09:06:02.523000+00:00</time>
      </trkpt>
      <trkpt lat="0" lon="0">
        <time>2020-12-06T09:06:02.524000+00:00</time>
      </trkpt>
      <trkpt lat="47.33345" lon="-1.25509">
        <ele>79</ele>
        <time>2020-12-06T09:06:03.486000+00:00</time>
      </trkpt>
      <trkpt lat="0" lon="0">
        <time>2020-12-06T09:06:03.492000+00:00</time>
      </trkpt>
      <trkpt lat="0" lon="0">
        <time>2020-12-06T09:06:03.498000+00:00</time>
      </trkpt>
      <trkpt lat="0" lon="0">
        <time>2020-12-06T09:06:03.501000+00:00</time>
      </trkpt>
      <trkpt lat="47.33343" lon="-1.25501">
        <ele>79</ele>
        <time>2020-12-06T09:06:04.525000+00:00</time>
      </trkpt>
      <trkpt lat="0" lon="0">
        <time>2020-12-06T09:06:04.536000+00:00</time>
      </trkpt>
      <trkpt lat="0" lon="0">
        <time>2020-12-06T09:06:04.545000+00:00</time>
      </trkpt>
      <trkpt lat="0" lon="0">
        <time>2020-12-06T09:06:04.548000+00:00</time>
      </trkpt>
      <trkpt lat="47.33341" lon="-1.25494">
        <ele>79</ele>
        <time>2020-12-06T09:06:05.570000+00:00</time>
      </trkpt>
      <trkpt lat="0" lon="0">
        <time>2020-12-06T09:06:05.574000+00:00</time>
      </trkpt>
      <trkpt lat="0" lon="0">
        <time>2020-12-06T09:06:05.578000+00:00</time>
      </trkpt>
      <trkpt lat="0" lon="0">
        <time>2020-12-06T09:06:05.582000+00:00</time>
      </trkpt>
      <trkpt lat="47.33339" lon="-1.25486">
        <ele>79</ele>
        <time>2020-12-06T09:06:06.592000+00:00</time>
      </trkpt>
      <trkpt lat="0" lon="0">
        <time>2020-12-06T09:06:06.605000+00:00</time>
      </trkpt>
      <trkpt lat="0" lon="0">
        <time>2020-12-06T09:06:06.609000+00:00</time>
      </trkpt>
      <trkpt lat="0" lon="0">
        <time>2020-12-06T09:06:06.610000+00:00</time>
      </trkpt>
      <trkpt lat="47.33337" lon="-1.25478">
        <ele>80</ele>
        <time>2020-12-06T09:06:07.582000+00:00</time>
      </trkpt>
      <trkpt lat="0" lon="0">
        <time>2020-12-06T09:06:07.588000+00:00</time>
      </trkpt>
      <trkpt lat="0" lon="0">
        <time>2020-12-06T09:06:07.597000+00:00</time>
      </trkpt>
      <trkpt lat="0" lon="0">
        <time>2020-12-06T09:06:07.604000+00:00</time>
      </trkpt>
      <trkpt lat="47.33335" lon="-1.25471">
        <ele>80</ele>
        <time>2020-12-06T09:06:08.560000+00:00</time>
      </trkpt>
      <trkpt lat="0" lon="0">
        <time>2020-12-06T09:06:08.567000+00:00</time>
      </trkpt>
      <trkpt lat="0" lon="0">
        <time>2020-12-06T09:06:08.581000+00:00</time>
      </trkpt>
      <trkpt lat="0" lon="0">
        <time>2020-12-06T09:06:08.584000+00:00</time>
      </trkpt>
      <trkpt lat="47.33333" lon="-1.25464">
        <ele>80</ele>
        <time>2020-12-06T09:06:09.554000+00:00</time>
      </trkpt>
      <trkpt lat="0" lon="0">
        <time>2020-12-06T09:06:09.563000+00:00</time>
      </trkpt>
      <trkpt lat="0" lon="0">
        <time>2020-12-06T09:06:09.565000+00:00</time>
      </trkpt>
      <trkpt lat="0" lon="0">
        <time>2020-12-06T09:06:09.566000+00:00</time>
      </trkpt>
      <trkpt lat="47.3333" lon="-1.25457">
        <ele>80</ele>
        <time>2020-12-06T09:06:10.564000+00:00</time>
      </trkpt>
      <trkpt lat="0" lon="0">
        <time>2020-12-06T09:06:10.576000+00:00</time>
      </trkpt>
      <trkpt lat="0" lon="0">
        <time>2020-12-06T09:06:10.581000+00:00</time>
      </trkpt>
      <trkpt lat="0" lon="0">
        <time>2020-12-06T09:06:10.583000+00:00</time>
      </trkpt>
      <trkpt lat="47.33328" lon="-1.25449">
        <ele>80</ele>
        <time>2020-12-06T09:06:11.582000+00:00</time>
      </trkpt>
      <trkpt lat="0" lon="0">
        <time>2020-12-06T09:06:11.587000+00:00</time>
      </trkpt>
      <trkpt lat="0" lon="0">
        <time>2020-12-06T09:06:11.591000+00:00</time>
      </trkpt>
      <trkpt lat="0" lon="0">
        <time>2020-12-06T09:06:11.603000+00:00</time>
      </trkpt>
      <trkpt lat="47.33325" lon="-1.25442">
        <ele>80</ele>
        <time>2020-12-06T09:06:12.505000+00:00</time>
      </trkpt>
      <trkpt lat="0" lon="0">
        <time>2020-12-06T09:06:12.509000+00:00</time>
      </trkpt>
      <trkpt lat="0" lon="0">
        <time>2020-12-06T09:06:12.515000+00:00</time>
      </trkpt>
      <trkpt lat="0" lon="0">
        <time>2020-12-06T09:06:12.517000+00:00</time>
      </trkpt>
      <trkpt lat="47.33323" lon="-1.25435">
        <ele>80</ele>
        <time>2020-12-06T09:06:13.574000+00:00</time>
      </trkpt>
      <trkpt lat="0" lon="0">
        <time>2020-12-06T09:06:13.578000+00:00</time>
      </trkpt>
      <trkpt lat="0" lon="0">
        <time>2020-12-06T09:06:13.586000+00:00</time>
      </trkpt>
      <trkpt lat="0" lon="0">
        <time>2020-12-06T09:06:13.588000+00:00</time>
      </trkpt>
      <trkpt lat="47.3332" lon="-1.25428">
        <ele>80</ele>
        <time>2020-12-06T09:06:14.552000+00:00</time>
      </trkpt>
      <trkpt lat="0" lon="0">
        <time>2020-12-06T09:06:14.566000+00:00</time>
      </trkpt>
      <trkpt lat="0" lon="0">
        <time>2020-12-06T09:06:14.574000+00:00</time>
      </trkpt>
      <trkpt lat="0" lon="0">
        <time>2020-12-06T09:06:14.578000+00:00</time>
      </trkpt>
      <trkpt lat="47.33318" lon="-1.25421">
        <ele>80</ele>
        <time>2020-12-06T09:06:15.571000+00:00</time>
      </trkpt>
      <trkpt lat="0" lon="0">
        <time>2020-12-06T09:06:15.583000+00:00</time>
      </trkpt>
      <trkpt lat="0" lon="0">
        <time>2020-12-06T09:06:15.592000+00:00</time>
      </trkpt>
      <trkpt lat="0" lon="0">
        <time>2020-12-06T09:06:15.596000+00:00</time>
      </trkpt>
      <trkpt lat="47.33315" lon="-1.25415">
        <ele>81</ele>
        <time>2020-12-06T09:06:16.580000+00:00</time>
      </trkpt>
      <trkpt lat="0" lon="0">
        <time>2020-12-06T09:06:16.591000+00:00</time>
      </trkpt>
      <trkpt lat="0" lon="0">
        <time>2020-12-06T09:06:16.596000+00:00</time>
      </trkpt>
      <trkpt lat="0" lon="0">
        <time>2020-12-06T09:06:16.598000+00:00</time>
      </trkpt>
      <trkpt lat="47.33313" lon="-1.25408">
        <ele>81</ele>
        <time>2020-12-06T09:06:17.581000+00:00</time>
      </trkpt>
      <trkpt lat="0" lon="0">
        <time>2020-12-06T09:06:17.587000+00:00</time>
      </trkpt>
      <trkpt lat="0" lon="0">
        <time>2020-12-06T09:06:17.602000+00:00</time>
      </trkpt>
      <trkpt lat="0" lon="0">
        <time>2020-12-06T09:06:17.604000+00:00</time>
      </trkpt>
      <trkpt lat="47.3331" lon="-1.25401">
        <ele>81</ele>
        <time>2020-12-06T09:06:18.543000+00:00</time>
      </trkpt>
      <trkpt lat="0" lon="0">
        <time>2020-12-06T09:06:18.568000+00:00</time>
      </trkpt>
      <trkpt lat="0" lon="0">
        <time>2020-12-06T09:06:18.576000+00:00</time>
      </trkpt>
      <trkpt lat="0" lon="0">
        <time>2020-12-06T09:06:18.579000+00:00</time>
      </trkpt>
      <trkpt lat="47.33307" lon="-1.25395">
        <ele>81</ele>
        <time>2020-12-06T09:06:19.554000+00:00</time>
      </trkpt>
      <trkpt lat="0" lon="0">
        <time>2020-12-06T09:06:19.559000+00:00</time>
      </trkpt>
      <trkpt lat="0" lon="0">
        <time>2020-12-06T09:06:19.566000+00:00</time>
      </trkpt>
      <trkpt lat="0" lon="0">
        <time>2020-12-06T09:06:19.570000+00:00</time>
      </trkpt>
      <trkpt lat="47.33304" lon="-1.25389">
        <ele>81</ele>
        <time>2020-12-06T09:06:20.573000+00:00</time>
      </trkpt>
      <trkpt lat="0" lon="0">
        <time>2020-12-06T09:06:20.589000+00:00</time>
      </trkpt>
      <trkpt lat="0" lon="0">
        <time>2020-12-06T09:06:20.594000+00:00</time>
      </trkpt>
      <trkpt lat="0" lon="0">
        <time>2020-12-06T09:06:20.596000+00:00</time>
      </trkpt>
      <trkpt lat="47.33301" lon="-1.25383">
        <ele>81</ele>
        <time>2020-12-06T09:06:21.557000+00:00</time>
      </trkpt>
      <trkpt lat="0" lon="0">
        <time>2020-12-06T09:06:21.569000+00:00</time>
      </trkpt>
      <trkpt lat="0" lon="0">
        <time>2020-12-06T09:06:21.575000+00:00</time>
      </trkpt>
      <trkpt lat="0" lon="0">
        <time>2020-12-06T09:06:21.581000+00:00</time>
      </trkpt>
      <trkpt lat="47.33299" lon="-1.25377">
        <ele>81</ele>
        <time>2020-12-06T09:06:22.536000+00:00</time>
      </trkpt>
      <trkpt lat="0" lon="0">
        <time>2020-12-06T09:06:22.538000+00:00</time>
      </trkpt>
      <trkpt lat="0" lon="0">
        <time>2020-12-06T09:06:22.542000+00:00</time>
      </trkpt>
      <trkpt lat="0" lon="0">
        <time>2020-12-06T09:06:22.543000+00:00</time>
      </trkpt>
      <trkpt lat="47.33296" lon="-1.25372">
        <ele>81</ele>
        <time>2020-12-06T09:06:23.563000+00:00</time>
      </trkpt>
      <trkpt lat="0" lon="0">
        <time>2020-12-06T09:06:23.580000+00:00</time>
      </trkpt>
      <trkpt lat="0" lon="0">
        <time>2020-12-06T09:06:23.583000+00:00</time>
      </trkpt>
      <trkpt lat="0" lon="0">
        <time>2020-12-06T09:06:23.585000+00:00</time>
      </trkpt>
      <trkpt lat="47.33293" lon="-1.25368">
        <ele>81</ele>
        <time>2020-12-06T09:06:24.547000+00:00</time>
      </trkpt>
      <trkpt lat="0" lon="0">
        <time>2020-12-06T09:06:24.560000+00:00</time>
      </trkpt>
      <trkpt lat="0" lon="0">
        <time>2020-12-06T09:06:24.569000+00:00</time>
      </trkpt>
      <trkpt lat="0" lon="0">
        <time>2020-12-06T09:06:24.571000+00:00</time>
      </trkpt>
      <trkpt lat="47.3329" lon="-1.25364">
        <ele>81</ele>
        <time>2020-12-06T09:06:25.560000+00:00</time>
      </trkpt>
      <trkpt lat="0" lon="0">
        <time>2020-12-06T09:06:25.571000+00:00</time>
      </trkpt>
      <trkpt lat="0" lon="0">
        <time>2020-12-06T09:06:25.578000+00:00</time>
      </trkpt>
      <trkpt lat="0" lon="0">
        <time>2020-12-06T09:06:25.580000+00:00</time>
      </trkpt>
      <trkpt lat="47.33287" lon="-1.25362">
        <ele>81</ele>
        <time>2020-12-06T09:06:26.521000+00:00</time>
      </trkpt>
      <trkpt lat="0" lon="0">
        <time>2020-12-06T09:06:26.527000+00:00</time>
      </trkpt>
      <trkpt lat="0" lon="0">
        <time>2020-12-06T09:06:26.530000+00:00</time>
      </trkpt>
      <trkpt lat="0" lon="0">
        <time>2020-12-06T09:06:26.539000+00:00</time>
      </trkpt>
      <trkpt lat="47.33284" lon="-1.25361">
        <ele>81</ele>
        <time>2020-12-06T09:06:27.524000+00:00</time>
      </trkpt>
      <trkpt lat="0" lon="0">
        <time>2020-12-06T09:06:27.533000+00:00</time>
      </trkpt>
      <trkpt lat="0" lon="0">
        <time>2020-12-06T09:06:27.542000+00:00</time>
      </trkpt>
      <trkpt lat="0" lon="0">
        <time>2020-12-06T09:06:27.545000+00:00</time>
      </trkpt>
      <trkpt lat="47.3328" lon="-1.25361">
        <ele>81</ele>
        <time>2020-12-06T09:06:28.550000+00:00</time>
      </trkpt>
      <trkpt lat="0" lon="0">
        <time>2020-12-06T09:06:28.552000+00:00</time>
      </trkpt>
      <trkpt lat="0" lon="0">
        <time>2020-12-06T09:06:28.553000+00:00</time>
      </trkpt>
      <trkpt lat="0" lon="0">
        <time>2020-12-06T09:06:28.554000+00:00</time>
      </trkpt>
      <trkpt lat="47.33276" lon="-1.25362">
        <ele>81</ele>
        <time>2020-12-06T09:06:29.540000+00:00</time>
      </trkpt>
      <trkpt lat="0" lon="0">
        <time>2020-12-06T09:06:29.563000+00:00</time>
      </trkpt>
      <trkpt lat="0" lon="0">
        <time>2020-12-06T09:06:29.569000+00:00</time>
      </trkpt>
      <trkpt lat="0" lon="0">
        <time>2020-12-06T09:06:29.572000+00:00</time>
      </trkpt>
      <trkpt lat="47.33272" lon="-1.25364">
        <ele>81</ele>
        <time>2020-12-06T09:06:30.576000+00:00</time>
      </trkpt>
      <trkpt lat="0" lon="0">
        <time>2020-12-06T09:06:30.580000+00:00</time>
      </trkpt>
      <trkpt lat="0" lon="0">
        <time>2020-12-06T09:06:30.585000+00:00</time>
      </trkpt>
      <trkpt lat="0" lon="0">
        <time>2020-12-06T09:06:30.589000+00:00</time>
      </trkpt>
      <trkpt lat="47.33268" lon="-1.25367">
        <ele>81</ele>
        <time>2020-12-06T09:06:31.586000+00:00</time>
      </trkpt>
      <trkpt lat="0" lon="0">
        <time>2020-12-06T09:06:31.594000+00:00</time>
      </trkpt>
      <trkpt lat="0" lon="0">
        <time>2020-12-06T09:06:31.608000+00:00</time>
      </trkpt>
      <trkpt lat="0" lon="0">
        <time>2020-12-06T09:06:31.609000+00:00</time>
      </trkpt>
      <trkpt lat="47.33264" lon="-1.2537">
        <ele>81</ele>
        <time>2020-12-06T09:06:32.581000+00:00</time>
      </trkpt>
      <trkpt lat="0" lon="0">
        <time>2020-12-06T09:06:32.596000+00:00</time>
      </trkpt>
      <trkpt lat="0" lon="0">
        <time>2020-12-06T09:06:32.604000+00:00</time>
      </trkpt>
      <trkpt lat="0" lon="0">
        <time>2020-12-06T09:06:32.608000+00:00</time>
      </trkpt>
      <trkpt lat="47.3326" lon="-1.25373">
        <ele>81</ele>
        <time>2020-12-06T09:06:33.580000+00:00</time>
      </trkpt>
      <trkpt lat="0" lon="0">
        <time>2020-12-06T09:06:33.590000+00:00</time>
      </trkpt>
      <trkpt lat="0" lon="0">
        <time>2020-12-06T09:06:33.594000+00:00</time>
      </trkpt>
      <trkpt lat="0" lon="0">
        <time>2020-12-06T09:06:33.597000+00:00</time>
      </trkpt>
      <trkpt lat="47.33256" lon="-1.25377">
        <ele>81</ele>
        <time>2020-12-06T09:06:34.573000+00:00</time>
      </trkpt>
      <trkpt lat="0" lon="0">
        <time>2020-12-06T09:06:34.578000+00:00</time>
      </trkpt>
      <trkpt lat="0" lon="0">
        <time>2020-12-06T09:06:34.580000+00:00</time>
      </trkpt>
      <trkpt lat="0" lon="0">
        <time>2020-12-06T09:06:34.581000+00:00</time>
      </trkpt>
      <trkpt lat="47.33252" lon="-1.2538">
        <ele>81</ele>
        <time>2020-12-06T09:06:35.581000+00:00</time>
      </trkpt>
      <trkpt lat="0" lon="0">
        <time>2020-12-06T09:06:35.585000+00:00</time>
      </trkpt>
      <trkpt lat="0" lon="0">
        <time>2020-12-06T09:06:35.589000+00:00</time>
      </trkpt>
      <trkpt lat="0" lon="0">
        <time>2020-12-06T09:06:35.591000+00:00</time>
      </trkpt>
      <trkpt lat="47.33249" lon="-1.25384">
        <ele>81</ele>
        <time>2020-12-06T09:06:36.610000+00:00</time>
      </trkpt>
      <trkpt lat="0" lon="0">
        <time>2020-12-06T09:06:36.622000+00:00</time>
      </trkpt>
      <trkpt lat="0" lon="0">
        <time>2020-12-06T09:06:36.637000+00:00</time>
      </trkpt>
      <trkpt lat="0" lon="0">
        <time>2020-12-06T09:06:36.640000+00:00</time>
      </trkpt>
      <trkpt lat="47.33245" lon="-1.25388">
        <ele>81</ele>
        <time>2020-12-06T09:06:37.598000+00:00</time>
      </trkpt>
      <trkpt lat="0" lon="0">
        <time>2020-12-06T09:06:37.609000+00:00</time>
      </trkpt>
      <trkpt lat="0" lon="0">
        <time>2020-12-06T09:06:37.617000+00:00</time>
      </trkpt>
      <trkpt lat="0" lon="0">
        <time>2020-12-06T09:06:37.619000+00:00</time>
      </trkpt>
      <trkpt lat="47.33242" lon="-1.25391">
        <ele>81</ele>
        <time>2020-12-06T09:06:38.604000+00:00</time>
      </trkpt>
      <trkpt lat="0" lon="0">
        <time>2020-12-06T09:06:38.608000+00:00</time>
      </trkpt>
      <trkpt lat="0" lon="0">
        <time>2020-12-06T09:06:38.614000+00:00</time>
      </trkpt>
      <trkpt lat="0" lon="0">
        <time>2020-12-06T09:06:38.617000+00:00</time>
      </trkpt>
      <trkpt lat="47.33239" lon="-1.25392">
        <ele>81</ele>
        <time>2020-12-06T09:06:39.574000+00:00</time>
      </trkpt>
      <trkpt lat="0" lon="0">
        <time>2020-12-06T09:06:39.590000+00:00</time>
      </trkpt>
      <trkpt lat="0" lon="0">
        <time>2020-12-06T09:06:39.593000+00:00</time>
      </trkpt>
      <trkpt lat="0" lon="0">
        <time>2020-12-06T09:06:39.597000+00:00</time>
      </trkpt>
      <trkpt lat="47.33237" lon="-1.25393">
        <ele>81</ele>
        <time>2020-12-06T09:06:40.534000+00:00</time>
      </trkpt>
      <trkpt lat="0" lon="0">
        <time>2020-12-06T09:06:40.542000+00:00</time>
      </trkpt>
      <trkpt lat="0" lon="0">
        <time>2020-12-06T09:06:40.545000+00:00</time>
      </trkpt>
      <trkpt lat="0" lon="0">
        <time>2020-12-06T09:06:40.549000+00:00</time>
      </trkpt>
      <trkpt lat="47.33234" lon="-1.25391">
        <ele>81</ele>
        <time>2020-12-06T09:06:41.528000+00:00</time>
      </trkpt>
      <trkpt lat="0" lon="0">
        <time>2020-12-06T09:06:41.533000+00:00</time>
      </trkpt>
      <trkpt lat="0" lon="0">
        <time>2020-12-06T09:06:41.537000+00:00</time>
      </trkpt>
      <trkpt lat="0" lon="0">
        <time>2020-12-06T09:06:41.541000+00:00</time>
      </trkpt>
      <trkpt lat="47.33232" lon="-1.25388">
        <ele>81</ele>
        <time>2020-12-06T09:06:42.530000+00:00</time>
      </trkpt>
      <trkpt lat="0" lon="0">
        <time>2020-12-06T09:06:42.537000+00:00</time>
      </trkpt>
      <trkpt lat="0" lon="0">
        <time>2020-12-06T09:06:42.540000+00:00</time>
      </trkpt>
      <trkpt lat="0" lon="0">
        <time>2020-12-06T09:06:42.542000+00:00</time>
      </trkpt>
      <trkpt lat="47.3323" lon="-1.25384">
        <ele>81</ele>
        <time>2020-12-06T09:06:43.549000+00:00</time>
      </trkpt>
      <trkpt lat="0" lon="0">
        <time>2020-12-06T09:06:43.565000+00:00</time>
      </trkpt>
      <trkpt lat="0" lon="0">
        <time>2020-12-06T09:06:43.569000+00:00</time>
      </trkpt>
      <trkpt lat="0" lon="0">
        <time>2020-12-06T09:06:43.573000+00:00</time>
      </trkpt>
      <trkpt lat="47.33228" lon="-1.25378">
        <ele>81</ele>
        <time>2020-12-06T09:06:44.565000+00:00</time>
      </trkpt>
      <trkpt lat="0" lon="0">
        <time>2020-12-06T09:06:44.571000+00:00</time>
      </trkpt>
      <trkpt lat="0" lon="0">
        <time>2020-12-06T09:06:44.575000+00:00</time>
      </trkpt>
      <trkpt lat="0" lon="0">
        <time>2020-12-06T09:06:44.577000+00:00</time>
      </trkpt>
      <trkpt lat="47.33226" lon="-1.25372">
        <ele>81</ele>
        <time>2020-12-06T09:06:45.557000+00:00</time>
      </trkpt>
      <trkpt lat="0" lon="0">
        <time>2020-12-06T09:06:45.560000+00:00</time>
      </trkpt>
      <trkpt lat="0" lon="0">
        <time>2020-12-06T09:06:45.575000+00:00</time>
      </trkpt>
      <trkpt lat="0" lon="0">
        <time>2020-12-06T09:06:45.579000+00:00</time>
      </trkpt>
      <trkpt lat="47.33224" lon="-1.25365">
        <ele>81</ele>
        <time>2020-12-06T09:06:46.526000+00:00</time>
      </trkpt>
      <trkpt lat="0" lon="0">
        <time>2020-12-06T09:06:46.532000+00:00</time>
      </trkpt>
      <trkpt lat="0" lon="0">
        <time>2020-12-06T09:06:46.536000+00:00</time>
      </trkpt>
      <trkpt lat="0" lon="0">
        <time>2020-12-06T09:06:46.539000+00:00</time>
      </trkpt>
      <trkpt lat="47.33223" lon="-1.25357">
        <ele>81</ele>
        <time>2020-12-06T09:06:47.557000+00:00</time>
      </trkpt>
      <trkpt lat="0" lon="0">
        <time>2020-12-06T09:06:47.575000+00:00</time>
      </trkpt>
      <trkpt lat="0" lon="0">
        <time>2020-12-06T09:06:47.582000+00:00</time>
      </trkpt>
      <trkpt lat="0" lon="0">
        <time>2020-12-06T09:06:47.586000+00:00</time>
      </trkpt>
      <trkpt lat="47.33221" lon="-1.25349">
        <ele>81</ele>
        <time>2020-12-06T09:06:48.496000+00:00</time>
      </trkpt>
      <trkpt lat="0" lon="0">
        <time>2020-12-06T09:06:48.501000+00:00</time>
      </trkpt>
      <trkpt lat="0" lon="0">
        <time>2020-12-06T09:06:48.502000+00:00</time>
      </trkpt>
      <trkpt lat="0" lon="0">
        <time>2020-12-06T09:06:48.503000+00:00</time>
      </trkpt>
      <trkpt lat="47.33219" lon="-1.25341">
        <ele>81</ele>
        <time>2020-12-06T09:06:49.577000+00:00</time>
      </trkpt>
      <trkpt lat="0" lon="0">
        <time>2020-12-06T09:06:49.588000+00:00</time>
      </trkpt>
      <trkpt lat="0" lon="0">
        <time>2020-12-06T09:06:49.598000+00:00</time>
      </trkpt>
      <trkpt lat="0" lon="0">
        <time>2020-12-06T09:06:49.604000+00:00</time>
      </trkpt>
      <trkpt lat="47.33218" lon="-1.25332">
        <ele>80</ele>
        <time>2020-12-06T09:06:50.550000+00:00</time>
      </trkpt>
      <trkpt lat="0" lon="0">
        <time>2020-12-06T09:06:50.569000+00:00</time>
      </trkpt>
      <trkpt lat="0" lon="0">
        <time>2020-12-06T09:06:50.579000+00:00</time>
      </trkpt>
      <trkpt lat="0" lon="0">
        <time>2020-12-06T09:06:50.580000+00:00</time>
      </trkpt>
      <trkpt lat="47.33216" lon="-1.25323">
        <ele>80</ele>
        <time>2020-12-06T09:06:51.547000+00:00</time>
      </trkpt>
      <trkpt lat="0" lon="0">
        <time>2020-12-06T09:06:51.550000+00:00</time>
      </trkpt>
      <trkpt lat="0" lon="0">
        <time>2020-12-06T09:06:51.556000+00:00</time>
      </trkpt>
      <trkpt lat="0" lon="0">
        <time>2020-12-06T09:06:51.558000+00:00</time>
      </trkpt>
      <trkpt lat="47.33214" lon="-1.25315">
        <ele>80</ele>
        <time>2020-12-06T09:06:52.603000+00:00</time>
      </trkpt>
      <trkpt lat="0" lon="0">
        <time>2020-12-06T09:06:52.606000+00:00</time>
      </trkpt>
      <trkpt lat="0" lon="0">
        <time>2020-12-06T09:06:52.619000+00:00</time>
      </trkpt>
      <trkpt lat="0" lon="0">
        <time>2020-12-06T09:06:52.620000+00:00</time>
      </trkpt>
      <trkpt lat="47.33213" lon="-1.25306">
        <ele>80</ele>
        <time>2020-12-06T09:06:53.566000+00:00</time>
      </trkpt>
      <trkpt lat="0" lon="0">
        <time>2020-12-06T09:06:53.570000+00:00</time>
      </trkpt>
      <trkpt lat="0" lon="0">
        <time>2020-12-06T09:06:53.586000+00:00</time>
      </trkpt>
      <trkpt lat="0" lon="0">
        <time>2020-12-06T09:06:53.590000+00:00</time>
      </trkpt>
      <trkpt lat="47.33211" lon="-1.25298">
        <ele>80</ele>
        <time>2020-12-06T09:06:54.539000+00:00</time>
      </trkpt>
      <trkpt lat="0" lon="0">
        <time>2020-12-06T09:06:54.542000+00:00</time>
      </trkpt>
      <trkpt lat="0" lon="0">
        <time>2020-12-06T09:06:54.543000+00:00</time>
      </trkpt>
      <trkpt lat="0" lon="0">
        <time>2020-12-06T09:06:54.544000+00:00</time>
      </trkpt>
      <trkpt lat="47.3321" lon="-1.2529">
        <ele>80</ele>
        <time>2020-12-06T09:06:55.564000+00:00</time>
      </trkpt>
      <trkpt lat="0" lon="0">
        <time>2020-12-06T09:06:55.582000+00:00</time>
      </trkpt>
      <trkpt lat="0" lon="0">
        <time>2020-12-06T09:06:55.584000+00:00</time>
      </trkpt>
      <trkpt lat="0" lon="0">
        <time>2020-12-06T09:06:55.585000+00:00</time>
      </trkpt>
      <trkpt lat="47.33208" lon="-1.25282">
        <ele>80</ele>
        <time>2020-12-06T09:06:56.549000+00:00</time>
      </trkpt>
      <trkpt lat="0" lon="0">
        <time>2020-12-06T09:06:56.555000+00:00</time>
      </trkpt>
      <trkpt lat="0" lon="0">
        <time>2020-12-06T09:06:56.559000+00:00</time>
      </trkpt>
      <trkpt lat="0" lon="0">
        <time>2020-12-06T09:06:56.561000+00:00</time>
      </trkpt>
      <trkpt lat="47.33207" lon="-1.25274">
        <ele>80</ele>
        <time>2020-12-06T09:06:57.574000+00:00</time>
      </trkpt>
      <trkpt lat="0" lon="0">
        <time>2020-12-06T09:06:57.607000+00:00</time>
      </trkpt>
      <trkpt lat="0" lon="0">
        <time>2020-12-06T09:06:57.617000+00:00</time>
      </trkpt>
      <trkpt lat="0" lon="0">
        <time>2020-12-06T09:06:57.619000+00:00</time>
      </trkpt>
      <trkpt lat="47.33205" lon="-1.25267">
        <ele>80</ele>
        <time>2020-12-06T09:06:58.602000+00:00</time>
      </trkpt>
      <trkpt lat="0" lon="0">
        <time>2020-12-06T09:06:58.616000+00:00</time>
      </trkpt>
      <trkpt lat="0" lon="0">
        <time>2020-12-06T09:06:58.625000+00:00</time>
      </trkpt>
      <trkpt lat="0" lon="0">
        <time>2020-12-06T09:06:58.627000+00:00</time>
      </trkpt>
      <trkpt lat="47.33204" lon="-1.2526">
        <ele>80</ele>
        <time>2020-12-06T09:06:59.592000+00:00</time>
      </trkpt>
      <trkpt lat="0" lon="0">
        <time>2020-12-06T09:06:59.603000+00:00</time>
      </trkpt>
      <trkpt lat="0" lon="0">
        <time>2020-12-06T09:06:59.615000+00:00</time>
      </trkpt>
      <trkpt lat="0" lon="0">
        <time>2020-12-06T09:06:59.619000+00:00</time>
      </trkpt>
      <trkpt lat="47.33202" lon="-1.25253">
        <ele>80</ele>
        <time>2020-12-06T09:07:00.565000+00:00</time>
      </trkpt>
      <trkpt lat="0" lon="0">
        <time>2020-12-06T09:07:00.587000+00:00</time>
      </trkpt>
      <trkpt lat="0" lon="0">
        <time>2020-12-06T09:07:00.596000+00:00</time>
      </trkpt>
      <trkpt lat="0" lon="0">
        <time>2020-12-06T09:07:00.599000+00:00</time>
      </trkpt>
      <trkpt lat="47.33201" lon="-1.25246">
        <ele>79</ele>
        <time>2020-12-06T09:07:01.536000+00:00</time>
      </trkpt>
      <trkpt lat="0" lon="0">
        <time>2020-12-06T09:07:01.544000+00:00</time>
      </trkpt>
      <trkpt lat="0" lon="0">
        <time>2020-12-06T09:07:01.555000+00:00</time>
      </trkpt>
      <trkpt lat="0" lon="0">
        <time>2020-12-06T09:07:01.559000+00:00</time>
      </trkpt>
      <trkpt lat="47.33199" lon="-1.25239">
        <ele>79</ele>
        <time>2020-12-06T09:07:02.545000+00:00</time>
      </trkpt>
      <trkpt lat="0" lon="0">
        <time>2020-12-06T09:07:02.551000+00:00</time>
      </trkpt>
      <trkpt lat="0" lon="0">
        <time>2020-12-06T09:07:02.554000+00:00</time>
      </trkpt>
      <trkpt lat="0" lon="0">
        <time>2020-12-06T09:07:02.560000+00:00</time>
      </trkpt>
      <trkpt lat="47.33198" lon="-1.25233">
        <ele>79</ele>
        <time>2020-12-06T09:07:03.552000+00:00</time>
      </trkpt>
      <trkpt lat="0" lon="0">
        <time>2020-12-06T09:07:03.558000+00:00</time>
      </trkpt>
      <trkpt lat="0" lon="0">
        <time>2020-12-06T09:07:03.563000+00:00</time>
      </trkpt>
      <trkpt lat="0" lon="0">
        <time>2020-12-06T09:07:03.567000+00:00</time>
      </trkpt>
      <trkpt lat="47.33196" lon="-1.25226">
        <ele>79</ele>
        <time>2020-12-06T09:07:04.591000+00:00</time>
      </trkpt>
      <trkpt lat="0" lon="0">
        <time>2020-12-06T09:07:04.601000+00:00</time>
      </trkpt>
      <trkpt lat="0" lon="0">
        <time>2020-12-06T09:07:04.607000+00:00</time>
      </trkpt>
      <trkpt lat="0" lon="0">
        <time>2020-12-06T09:07:04.609000+00:00</time>
      </trkpt>
      <trkpt lat="47.33194" lon="-1.25219">
        <ele>79</ele>
        <time>2020-12-06T09:07:05.556000+00:00</time>
      </trkpt>
      <trkpt lat="0" lon="0">
        <time>2020-12-06T09:07:05.565000+00:00</time>
      </trkpt>
      <trkpt lat="0" lon="0">
        <time>2020-12-06T09:07:05.578000+00:00</time>
      </trkpt>
      <trkpt lat="0" lon="0">
        <time>2020-12-06T09:07:05.585000+00:00</time>
      </trkpt>
      <trkpt lat="47.33193" lon="-1.25213">
        <ele>79</ele>
        <time>2020-12-06T09:07:06.569000+00:00</time>
      </trkpt>
      <trkpt lat="0" lon="0">
        <time>2020-12-06T09:07:06.584000+00:00</time>
      </trkpt>
      <trkpt lat="0" lon="0">
        <time>2020-12-06T09:07:06.588000+00:00</time>
      </trkpt>
      <trkpt lat="0" lon="0">
        <time>2020-12-06T09:07:06.591000+00:00</time>
      </trkpt>
      <trkpt lat="47.33191" lon="-1.25206">
        <ele>79</ele>
        <time>2020-12-06T09:07:07.565000+00:00</time>
      </trkpt>
      <trkpt lat="0" lon="0">
        <time>2020-12-06T09:07:07.569000+00:00</time>
      </trkpt>
      <trkpt lat="0" lon="0">
        <time>2020-12-06T09:07:07.574000+00:00</time>
      </trkpt>
      <trkpt lat="0" lon="0">
        <time>2020-12-06T09:07:07.577000+00:00</time>
      </trkpt>
      <trkpt lat="47.33189" lon="-1.25199">
        <ele>79</ele>
        <time>2020-12-06T09:07:08.558000+00:00</time>
      </trkpt>
      <trkpt lat="0" lon="0">
        <time>2020-12-06T09:07:08.577000+00:00</time>
      </trkpt>
      <trkpt lat="0" lon="0">
        <time>2020-12-06T09:07:08.581000+00:00</time>
      </trkpt>
      <trkpt lat="0" lon="0">
        <time>2020-12-06T09:07:08.583000+00:00</time>
      </trkpt>
      <trkpt lat="47.33187" lon="-1.25193">
        <ele>79</ele>
        <time>2020-12-06T09:07:09.570000+00:00</time>
      </trkpt>
      <trkpt lat="0" lon="0">
        <time>2020-12-06T09:07:09.586000+00:00</time>
      </trkpt>
      <trkpt lat="0" lon="0">
        <time>2020-12-06T09:07:09.593000+00:00</time>
      </trkpt>
      <trkpt lat="0" lon="0">
        <time>2020-12-06T09:07:09.596000+00:00</time>
      </trkpt>
      <trkpt lat="47.33185" lon="-1.25186">
        <ele>79</ele>
        <time>2020-12-06T09:07:10.574000+00:00</time>
      </trkpt>
      <trkpt lat="0" lon="0">
        <time>2020-12-06T09:07:10.589000+00:00</time>
      </trkpt>
      <trkpt lat="0" lon="0">
        <time>2020-12-06T09:07:10.593000+00:00</time>
      </trkpt>
      <trkpt lat="0" lon="0">
        <time>2020-12-06T09:07:10.596000+00:00</time>
      </trkpt>
      <trkpt lat="47.33183" lon="-1.2518">
        <ele>79</ele>
        <time>2020-12-06T09:07:11.560000+00:00</time>
      </trkpt>
      <trkpt lat="0" lon="0">
        <time>2020-12-06T09:07:11.571000+00:00</time>
      </trkpt>
      <trkpt lat="0" lon="0">
        <time>2020-12-06T09:07:11.575000+00:00</time>
      </trkpt>
      <trkpt lat="0" lon="0">
        <time>2020-12-06T09:07:11.579000+00:00</time>
      </trkpt>
      <trkpt lat="47.33182" lon="-1.25173">
        <ele>79</ele>
        <time>2020-12-06T09:07:12.579000+00:00</time>
      </trkpt>
      <trkpt lat="0" lon="0">
        <time>2020-12-06T09:07:12.592000+00:00</time>
      </trkpt>
      <trkpt lat="0" lon="0">
        <time>2020-12-06T09:07:12.601000+00:00</time>
      </trkpt>
      <trkpt lat="0" lon="0">
        <time>2020-12-06T09:07:12.607000+00:00</time>
      </trkpt>
      <trkpt lat="47.3318" lon="-1.25166">
        <ele>79</ele>
        <time>2020-12-06T09:07:13.585000+00:00</time>
      </trkpt>
      <trkpt lat="0" lon="0">
        <time>2020-12-06T09:07:13.608000+00:00</time>
      </trkpt>
      <trkpt lat="0" lon="0">
        <time>2020-12-06T09:07:13.611000+00:00</time>
      </trkpt>
      <trkpt lat="0" lon="0">
        <time>2020-12-06T09:07:13.614000+00:00</time>
      </trkpt>
      <trkpt lat="47.33178" lon="-1.25159">
        <ele>79</ele>
        <time>2020-12-06T09:07:14.540000+00:00</time>
      </trkpt>
      <trkpt lat="0" lon="0">
        <time>2020-12-06T09:07:14.548000+00:00</time>
      </trkpt>
      <trkpt lat="0" lon="0">
        <time>2020-12-06T09:07:14.550000+00:00</time>
      </trkpt>
      <trkpt lat="47.33176" lon="-1.25152">
        <ele>79</ele>
        <time>2020-12-06T09:07:15.583000+00:00</time>
      </trkpt>
      <trkpt lat="0" lon="0">
        <time>2020-12-06T09:07:15.587000+00:00</time>
      </trkpt>
      <trkpt lat="0" lon="0">
        <time>2020-12-06T09:07:15.595000+00:00</time>
      </trkpt>
      <trkpt lat="0" lon="0">
        <time>2020-12-06T09:07:15.597000+00:00</time>
      </trkpt>
      <trkpt lat="47.33174" lon="-1.25144">
        <ele>79</ele>
        <time>2020-12-06T09:07:16.606000+00:00</time>
      </trkpt>
      <trkpt lat="0" lon="0">
        <time>2020-12-06T09:07:16.620000+00:00</time>
      </trkpt>
      <trkpt lat="0" lon="0">
        <time>2020-12-06T09:07:16.632000+00:00</time>
      </trkpt>
      <trkpt lat="0" lon="0">
        <time>2020-12-06T09:07:16.634000+00:00</time>
      </trkpt>
      <trkpt lat="47.33172" lon="-1.25137">
        <ele>79</ele>
        <time>2020-12-06T09:07:17.611000+00:00</time>
      </trkpt>
      <trkpt lat="0" lon="0">
        <time>2020-12-06T09:07:17.631000+00:00</time>
      </trkpt>
      <trkpt lat="0" lon="0">
        <time>2020-12-06T09:07:17.637000+00:00</time>
      </trkpt>
      <trkpt lat="0" lon="0">
        <time>2020-12-06T09:07:17.641000+00:00</time>
      </trkpt>
      <trkpt lat="47.3317" lon="-1.25129">
        <ele>79</ele>
        <time>2020-12-06T09:07:18.571000+00:00</time>
      </trkpt>
      <trkpt lat="0" lon="0">
        <time>2020-12-06T09:07:18.594000+00:00</time>
      </trkpt>
      <trkpt lat="0" lon="0">
        <time>2020-12-06T09:07:18.600000+00:00</time>
      </trkpt>
      <trkpt lat="0" lon="0">
        <time>2020-12-06T09:07:18.602000+00:00</time>
      </trkpt>
      <trkpt lat="47.33168" lon="-1.25121">
        <ele>79</ele>
        <time>2020-12-06T09:07:19.558000+00:00</time>
      </trkpt>
      <trkpt lat="0" lon="0">
        <time>2020-12-06T09:07:19.569000+00:00</time>
      </trkpt>
      <trkpt lat="0" lon="0">
        <time>2020-12-06T09:07:19.572000+00:00</time>
      </trkpt>
      <trkpt lat="0" lon="0">
        <time>2020-12-06T09:07:19.573000+00:00</time>
      </trkpt>
      <trkpt lat="47.33166" lon="-1.25113">
        <ele>79</ele>
        <time>2020-12-06T09:07:20.523000+00:00</time>
      </trkpt>
      <trkpt lat="0" lon="0">
        <time>2020-12-06T09:07:20.534000+00:00</time>
      </trkpt>
      <trkpt lat="0" lon="0">
        <time>2020-12-06T09:07:20.538000+00:00</time>
      </trkpt>
      <trkpt lat="0" lon="0">
        <time>2020-12-06T09:07:20.542000+00:00</time>
      </trkpt>
      <trkpt lat="47.33165" lon="-1.25104">
        <ele>79</ele>
        <time>2020-12-06T09:07:21.585000+00:00</time>
      </trkpt>
      <trkpt lat="0" lon="0">
        <time>2020-12-06T09:07:21.592000+00:00</time>
      </trkpt>
      <trkpt lat="0" lon="0">
        <time>2020-12-06T09:07:21.594000+00:00</time>
      </trkpt>
      <trkpt lat="0" lon="0">
        <time>2020-12-06T09:07:21.596000+00:00</time>
      </trkpt>
      <trkpt lat="47.33163" lon="-1.25095">
        <ele>79</ele>
        <time>2020-12-06T09:07:22.571000+00:00</time>
      </trkpt>
      <trkpt lat="0" lon="0">
        <time>2020-12-06T09:07:22.582000+00:00</time>
      </trkpt>
      <trkpt lat="0" lon="0">
        <time>2020-12-06T09:07:22.588000+00:00</time>
      </trkpt>
      <trkpt lat="0" lon="0">
        <time>2020-12-06T09:07:22.592000+00:00</time>
      </trkpt>
      <trkpt lat="47.33161" lon="-1.25086">
        <ele>79</ele>
        <time>2020-12-06T09:07:23.577000+00:00</time>
      </trkpt>
      <trkpt lat="0" lon="0">
        <time>2020-12-06T09:07:23.582000+00:00</time>
      </trkpt>
      <trkpt lat="0" lon="0">
        <time>2020-12-06T09:07:23.596000+00:00</time>
      </trkpt>
      <trkpt lat="0" lon="0">
        <time>2020-12-06T09:07:23.598000+00:00</time>
      </trkpt>
      <trkpt lat="47.33159" lon="-1.25077">
        <ele>79</ele>
        <time>2020-12-06T09:07:24.580000+00:00</time>
      </trkpt>
      <trkpt lat="0" lon="0">
        <time>2020-12-06T09:07:24.584000+00:00</time>
      </trkpt>
      <trkpt lat="0" lon="0">
        <time>2020-12-06T09:07:24.592000+00:00</time>
      </trkpt>
      <trkpt lat="0" lon="0">
        <time>2020-12-06T09:07:24.598000+00:00</time>
      </trkpt>
      <trkpt lat="47.33157" lon="-1.25068">
        <ele>78</ele>
        <time>2020-12-06T09:07:25.568000+00:00</time>
      </trkpt>
      <trkpt lat="0" lon="0">
        <time>2020-12-06T09:07:25.584000+00:00</time>
      </trkpt>
      <trkpt lat="0" lon="0">
        <time>2020-12-06T09:07:25.593000+00:00</time>
      </trkpt>
      <trkpt lat="0" lon="0">
        <time>2020-12-06T09:07:25.598000+00:00</time>
      </trkpt>
      <trkpt lat="47.33155" lon="-1.25059">
        <ele>78</ele>
        <time>2020-12-06T09:07:26.558000+00:00</time>
      </trkpt>
      <trkpt lat="0" lon="0">
        <time>2020-12-06T09:07:26.562000+00:00</time>
      </trkpt>
      <trkpt lat="0" lon="0">
        <time>2020-12-06T09:07:26.567000+00:00</time>
      </trkpt>
      <trkpt lat="0" lon="0">
        <time>2020-12-06T09:07:26.570000+00:00</time>
      </trkpt>
      <trkpt lat="47.33153" lon="-1.25051">
        <ele>78</ele>
        <time>2020-12-06T09:07:27.538000+00:00</time>
      </trkpt>
      <trkpt lat="0" lon="0">
        <time>2020-12-06T09:07:27.545000+00:00</time>
      </trkpt>
      <trkpt lat="0" lon="0">
        <time>2020-12-06T09:07:27.555000+00:00</time>
      </trkpt>
      <trkpt lat="0" lon="0">
        <time>2020-12-06T09:07:27.557000+00:00</time>
      </trkpt>
      <trkpt lat="47.33151" lon="-1.25042">
        <ele>78</ele>
        <time>2020-12-06T09:07:28.571000+00:00</time>
      </trkpt>
      <trkpt lat="0" lon="0">
        <time>2020-12-06T09:07:28.575000+00:00</time>
      </trkpt>
      <trkpt lat="0" lon="0">
        <time>2020-12-06T09:07:28.594000+00:00</time>
      </trkpt>
      <trkpt lat="0" lon="0">
        <time>2020-12-06T09:07:28.598000+00:00</time>
      </trkpt>
      <trkpt lat="47.33149" lon="-1.25034">
        <ele>78</ele>
        <time>2020-12-06T09:07:29.572000+00:00</time>
      </trkpt>
      <trkpt lat="0" lon="0">
        <time>2020-12-06T09:07:29.576000+00:00</time>
      </trkpt>
      <trkpt lat="0" lon="0">
        <time>2020-12-06T09:07:29.592000+00:00</time>
      </trkpt>
      <trkpt lat="0" lon="0">
        <time>2020-12-06T09:07:29.594000+00:00</time>
      </trkpt>
      <trkpt lat="47.33147" lon="-1.25026">
        <ele>78</ele>
        <time>2020-12-06T09:07:30.557000+00:00</time>
      </trkpt>
      <trkpt lat="0" lon="0">
        <time>2020-12-06T09:07:30.561000+00:00</time>
      </trkpt>
      <trkpt lat="0" lon="0">
        <time>2020-12-06T09:07:30.565000+00:00</time>
      </trkpt>
      <trkpt lat="0" lon="0">
        <time>2020-12-06T09:07:30.567000+00:00</time>
      </trkpt>
      <trkpt lat="47.33145" lon="-1.25018">
        <ele>78</ele>
        <time>2020-12-06T09:07:31.538000+00:00</time>
      </trkpt>
      <trkpt lat="0" lon="0">
        <time>2020-12-06T09:07:31.543000+00:00</time>
      </trkpt>
      <trkpt lat="0" lon="0">
        <time>2020-12-06T09:07:31.554000+00:00</time>
      </trkpt>
      <trkpt lat="0" lon="0">
        <time>2020-12-06T09:07:31.557000+00:00</time>
      </trkpt>
      <trkpt lat="47.33143" lon="-1.25011">
        <ele>78</ele>
        <time>2020-12-06T09:07:32.532000+00:00</time>
      </trkpt>
      <trkpt lat="0" lon="0">
        <time>2020-12-06T09:07:32.538000+00:00</time>
      </trkpt>
      <trkpt lat="0" lon="0">
        <time>2020-12-06T09:07:32.543000+00:00</time>
      </trkpt>
      <trkpt lat="0" lon="0">
        <time>2020-12-06T09:07:32.545000+00:00</time>
      </trkpt>
      <trkpt lat="47.33141" lon="-1.25004">
        <ele>78</ele>
        <time>2020-12-06T09:07:33.548000+00:00</time>
      </trkpt>
      <trkpt lat="0" lon="0">
        <time>2020-12-06T09:07:33.553000+00:00</time>
      </trkpt>
      <trkpt lat="0" lon="0">
        <time>2020-12-06T09:07:33.563000+00:00</time>
      </trkpt>
      <trkpt lat="0" lon="0">
        <time>2020-12-06T09:07:33.565000+00:00</time>
      </trkpt>
      <trkpt lat="47.33139" lon="-1.24996">
        <ele>78</ele>
        <time>2020-12-06T09:07:34.576000+00:00</time>
      </trkpt>
      <trkpt lat="0" lon="0">
        <time>2020-12-06T09:07:34.588000+00:00</time>
      </trkpt>
      <trkpt lat="0" lon="0">
        <time>2020-12-06T09:07:34.593000+00:00</time>
      </trkpt>
      <trkpt lat="0" lon="0">
        <time>2020-12-06T09:07:34.595000+00:00</time>
      </trkpt>
      <trkpt lat="47.33137" lon="-1.2499">
        <ele>78</ele>
        <time>2020-12-06T09:07:35.557000+00:00</time>
      </trkpt>
      <trkpt lat="0" lon="0">
        <time>2020-12-06T09:07:35.568000+00:00</time>
      </trkpt>
      <trkpt lat="0" lon="0">
        <time>2020-12-06T09:07:35.572000+00:00</time>
      </trkpt>
      <trkpt lat="0" lon="0">
        <time>2020-12-06T09:07:35.575000+00:00</time>
      </trkpt>
      <trkpt lat="47.33135" lon="-1.24984">
        <ele>78</ele>
        <time>2020-12-06T09:07:36.571000+00:00</time>
      </trkpt>
      <trkpt lat="0" lon="0">
        <time>2020-12-06T09:07:36.577000+00:00</time>
      </trkpt>
      <trkpt lat="0" lon="0">
        <time>2020-12-06T09:07:36.588000+00:00</time>
      </trkpt>
      <trkpt lat="0" lon="0">
        <time>2020-12-06T09:07:36.589000+00:00</time>
      </trkpt>
      <trkpt lat="47.33133" lon="-1.24978">
        <ele>78</ele>
        <time>2020-12-06T09:07:37.561000+00:00</time>
      </trkpt>
      <trkpt lat="0" lon="0">
        <time>2020-12-06T09:07:37.580000+00:00</time>
      </trkpt>
      <trkpt lat="0" lon="0">
        <time>2020-12-06T09:07:37.585000+00:00</time>
      </trkpt>
      <trkpt lat="0" lon="0">
        <time>2020-12-06T09:07:37.589000+00:00</time>
      </trkpt>
      <trkpt lat="47.33131" lon="-1.24973">
        <ele>78</ele>
        <time>2020-12-06T09:07:38.534000+00:00</time>
      </trkpt>
      <trkpt lat="0" lon="0">
        <time>2020-12-06T09:07:38.543000+00:00</time>
      </trkpt>
      <trkpt lat="0" lon="0">
        <time>2020-12-06T09:07:38.549000+00:00</time>
      </trkpt>
      <trkpt lat="0" lon="0">
        <time>2020-12-06T09:07:38.550000+00:00</time>
      </trkpt>
      <trkpt lat="47.3313" lon="-1.24968">
        <ele>78</ele>
        <time>2020-12-06T09:07:39.562000+00:00</time>
      </trkpt>
      <trkpt lat="0" lon="0">
        <time>2020-12-06T09:07:39.577000+00:00</time>
      </trkpt>
      <trkpt lat="0" lon="0">
        <time>2020-12-06T09:07:39.581000+00:00</time>
      </trkpt>
      <trkpt lat="0" lon="0">
        <time>2020-12-06T09:07:39.588000+00:00</time>
      </trkpt>
      <trkpt lat="47.3313" lon="-1.24964">
        <ele>78</ele>
        <time>2020-12-06T09:07:40.588000+00:00</time>
      </trkpt>
      <trkpt lat="0" lon="0">
        <time>2020-12-06T09:07:40.596000+00:00</time>
      </trkpt>
      <trkpt lat="0" lon="0">
        <time>2020-12-06T09:07:40.599000+00:00</time>
      </trkpt>
      <trkpt lat="0" lon="0">
        <time>2020-12-06T09:07:40.601000+00:00</time>
      </trkpt>
      <trkpt lat="47.3313" lon="-1.2496">
        <ele>78</ele>
        <time>2020-12-06T09:07:41.575000+00:00</time>
      </trkpt>
      <trkpt lat="0" lon="0">
        <time>2020-12-06T09:07:41.580000+00:00</time>
      </trkpt>
      <trkpt lat="0" lon="0">
        <time>2020-12-06T09:07:41.585000+00:00</time>
      </trkpt>
      <trkpt lat="0" lon="0">
        <time>2020-12-06T09:07:41.586000+00:00</time>
      </trkpt>
      <trkpt lat="47.33131" lon="-1.24955">
        <ele>78</ele>
        <time>2020-12-06T09:07:42.564000+00:00</time>
      </trkpt>
      <trkpt lat="0" lon="0">
        <time>2020-12-06T09:07:42.569000+00:00</time>
      </trkpt>
      <trkpt lat="0" lon="0">
        <time>2020-12-06T09:07:42.574000+00:00</time>
      </trkpt>
      <trkpt lat="0" lon="0">
        <time>2020-12-06T09:07:42.580000+00:00</time>
      </trkpt>
      <trkpt lat="47.33133" lon="-1.24951">
        <ele>78</ele>
        <time>2020-12-06T09:07:43.540000+00:00</time>
      </trkpt>
      <trkpt lat="0" lon="0">
        <time>2020-12-06T09:07:43.556000+00:00</time>
      </trkpt>
      <trkpt lat="0" lon="0">
        <time>2020-12-06T09:07:43.558000+00:00</time>
      </trkpt>
      <trkpt lat="0" lon="0">
        <time>2020-12-06T09:07:43.559000+00:00</time>
      </trkpt>
      <trkpt lat="47.33136" lon="-1.24947">
        <ele>78</ele>
        <time>2020-12-06T09:07:44.552000+00:00</time>
      </trkpt>
      <trkpt lat="0" lon="0">
        <time>2020-12-06T09:07:44.575000+00:00</time>
      </trkpt>
      <trkpt lat="0" lon="0">
        <time>2020-12-06T09:07:44.579000+00:00</time>
      </trkpt>
      <trkpt lat="0" lon="0">
        <time>2020-12-06T09:07:44.581000+00:00</time>
      </trkpt>
      <trkpt lat="47.33139" lon="-1.24943">
        <ele>78</ele>
        <time>2020-12-06T09:07:45.547000+00:00</time>
      </trkpt>
      <trkpt lat="0" lon="0">
        <time>2020-12-06T09:07:45.550000+00:00</time>
      </trkpt>
      <trkpt lat="0" lon="0">
        <time>2020-12-06T09:07:45.556000+00:00</time>
      </trkpt>
      <trkpt lat="0" lon="0">
        <time>2020-12-06T09:07:45.558000+00:00</time>
      </trkpt>
      <trkpt lat="47.33143" lon="-1.2494">
        <ele>78</ele>
        <time>2020-12-06T09:07:46.550000+00:00</time>
      </trkpt>
      <trkpt lat="0" lon="0">
        <time>2020-12-06T09:07:46.565000+00:00</time>
      </trkpt>
      <trkpt lat="0" lon="0">
        <time>2020-12-06T09:07:46.569000+00:00</time>
      </trkpt>
      <trkpt lat="0" lon="0">
        <time>2020-12-06T09:07:46.571000+00:00</time>
      </trkpt>
      <trkpt lat="47.33147" lon="-1.24937">
        <ele>77</ele>
        <time>2020-12-06T09:07:47.541000+00:00</time>
      </trkpt>
      <trkpt lat="0" lon="0">
        <time>2020-12-06T09:07:47.549000+00:00</time>
      </trkpt>
      <trkpt lat="0" lon="0">
        <time>2020-12-06T09:07:47.552000+00:00</time>
      </trkpt>
      <trkpt lat="0" lon="0">
        <time>2020-12-06T09:07:47.553000+00:00</time>
      </trkpt>
      <trkpt lat="47.33152" lon="-1.24935">
        <ele>77</ele>
        <time>2020-12-06T09:07:48.590000+00:00</time>
      </trkpt>
      <trkpt lat="0" lon="0">
        <time>2020-12-06T09:07:48.601000+00:00</time>
      </trkpt>
      <trkpt lat="0" lon="0">
        <time>2020-12-06T09:07:48.605000+00:00</time>
      </trkpt>
      <trkpt lat="0" lon="0">
        <time>2020-12-06T09:07:48.608000+00:00</time>
      </trkpt>
      <trkpt lat="47.33158" lon="-1.24933">
        <ele>77</ele>
        <time>2020-12-06T09:07:49.578000+00:00</time>
      </trkpt>
      <trkpt lat="0" lon="0">
        <time>2020-12-06T09:07:49.582000+00:00</time>
      </trkpt>
      <trkpt lat="0" lon="0">
        <time>2020-12-06T09:07:49.587000+00:00</time>
      </trkpt>
      <trkpt lat="0" lon="0">
        <time>2020-12-06T09:07:49.589000+00:00</time>
      </trkpt>
      <trkpt lat="47.33164" lon="-1.24933">
        <ele>77</ele>
        <time>2020-12-06T09:07:50.586000+00:00</time>
      </trkpt>
      <trkpt lat="0" lon="0">
        <time>2020-12-06T09:07:50.605000+00:00</time>
      </trkpt>
      <trkpt lat="0" lon="0">
        <time>2020-12-06T09:07:50.613000+00:00</time>
      </trkpt>
      <trkpt lat="0" lon="0">
        <time>2020-12-06T09:07:50.614000+00:00</time>
      </trkpt>
      <trkpt lat="47.3317" lon="-1.24934">
        <ele>77</ele>
        <time>2020-12-06T09:07:51.573000+00:00</time>
      </trkpt>
      <trkpt lat="0" lon="0">
        <time>2020-12-06T09:07:51.582000+00:00</time>
      </trkpt>
      <trkpt lat="0" lon="0">
        <time>2020-12-06T09:07:51.591000+00:00</time>
      </trkpt>
      <trkpt lat="0" lon="0">
        <time>2020-12-06T09:07:51.595000+00:00</time>
      </trkpt>
      <trkpt lat="47.33176" lon="-1.24935">
        <ele>77</ele>
        <time>2020-12-06T09:07:52.532000+00:00</time>
      </trkpt>
      <trkpt lat="0" lon="0">
        <time>2020-12-06T09:07:52.546000+00:00</time>
      </trkpt>
      <trkpt lat="0" lon="0">
        <time>2020-12-06T09:07:52.552000+00:00</time>
      </trkpt>
      <trkpt lat="0" lon="0">
        <time>2020-12-06T09:07:52.555000+00:00</time>
      </trkpt>
      <trkpt lat="47.33182" lon="-1.24937">
        <ele>76</ele>
        <time>2020-12-06T09:07:53.574000+00:00</time>
      </trkpt>
      <trkpt lat="0" lon="0">
        <time>2020-12-06T09:07:53.586000+00:00</time>
      </trkpt>
      <trkpt lat="0" lon="0">
        <time>2020-12-06T09:07:53.590000+00:00</time>
      </trkpt>
      <trkpt lat="0" lon="0">
        <time>2020-12-06T09:07:53.592000+00:00</time>
      </trkpt>
      <trkpt lat="47.33188" lon="-1.24939">
        <ele>76</ele>
        <time>2020-12-06T09:07:54.566000+00:00</time>
      </trkpt>
      <trkpt lat="0" lon="0">
        <time>2020-12-06T09:07:54.590000+00:00</time>
      </trkpt>
      <trkpt lat="0" lon="0">
        <time>2020-12-06T09:07:54.600000+00:00</time>
      </trkpt>
      <trkpt lat="0" lon="0">
        <time>2020-12-06T09:07:54.604000+00:00</time>
      </trkpt>
      <trkpt lat="47.33194" lon="-1.24942">
        <ele>76</ele>
        <time>2020-12-06T09:07:55.544000+00:00</time>
      </trkpt>
      <trkpt lat="0" lon="0">
        <time>2020-12-06T09:07:55.562000+00:00</time>
      </trkpt>
      <trkpt lat="0" lon="0">
        <time>2020-12-06T09:07:55.571000+00:00</time>
      </trkpt>
      <trkpt lat="0" lon="0">
        <time>2020-12-06T09:07:55.573000+00:00</time>
      </trkpt>
      <trkpt lat="47.332" lon="-1.24945">
        <ele>76</ele>
        <time>2020-12-06T09:07:56.566000+00:00</time>
      </trkpt>
      <trkpt lat="0" lon="0">
        <time>2020-12-06T09:07:56.585000+00:00</time>
      </trkpt>
      <trkpt lat="0" lon="0">
        <time>2020-12-06T09:07:56.590000+00:00</time>
      </trkpt>
      <trkpt lat="0" lon="0">
        <time>2020-12-06T09:07:56.592000+00:00</time>
      </trkpt>
      <trkpt lat="47.33205" lon="-1.24948">
        <ele>76</ele>
        <time>2020-12-06T09:07:57.561000+00:00</time>
      </trkpt>
      <trkpt lat="0" lon="0">
        <time>2020-12-06T09:07:57.572000+00:00</time>
      </trkpt>
      <trkpt lat="0" lon="0">
        <time>2020-12-06T09:07:57.576000+00:00</time>
      </trkpt>
      <trkpt lat="0" lon="0">
        <time>2020-12-06T09:07:57.579000+00:00</time>
      </trkpt>
      <trkpt lat="47.33211" lon="-1.2495">
        <ele>76</ele>
        <time>2020-12-06T09:07:58.552000+00:00</time>
      </trkpt>
      <trkpt lat="0" lon="0">
        <time>2020-12-06T09:07:58.559000+00:00</time>
      </trkpt>
      <trkpt lat="0" lon="0">
        <time>2020-12-06T09:07:58.568000+00:00</time>
      </trkpt>
      <trkpt lat="0" lon="0">
        <time>2020-12-06T09:07:58.571000+00:00</time>
      </trkpt>
      <trkpt lat="47.33215" lon="-1.24951">
        <ele>76</ele>
        <time>2020-12-06T09:07:59.521000+00:00</time>
      </trkpt>
      <trkpt lat="0" lon="0">
        <time>2020-12-06T09:07:59.535000+00:00</time>
      </trkpt>
      <trkpt lat="0" lon="0">
        <time>2020-12-06T09:07:59.537000+00:00</time>
      </trkpt>
      <trkpt lat="0" lon="0">
        <time>2020-12-06T09:07:59.538000+00:00</time>
      </trkpt>
      <trkpt lat="47.33219" lon="-1.2495">
        <ele>76</ele>
        <time>2020-12-06T09:08:00.481000+00:00</time>
      </trkpt>
      <trkpt lat="0" lon="0">
        <time>2020-12-06T09:08:00.490000+00:00</time>
      </trkpt>
      <trkpt lat="0" lon="0">
        <time>2020-12-06T09:08:00.496000+00:00</time>
      </trkpt>
      <trkpt lat="0" lon="0">
        <time>2020-12-06T09:08:00.499000+00:00</time>
      </trkpt>
      <trkpt lat="47.33222" lon="-1.24947">
        <ele>76</ele>
        <time>2020-12-06T09:08:01.484000+00:00</time>
      </trkpt>
      <trkpt lat="0" lon="0">
        <time>2020-12-06T09:08:01.490000+00:00</time>
      </trkpt>
      <trkpt lat="0" lon="0">
        <time>2020-12-06T09:08:01.500000+00:00</time>
      </trkpt>
      <trkpt lat="0" lon="0">
        <time>2020-12-06T09:08:01.502000+00:00</time>
      </trkpt>
      <trkpt lat="47.33223" lon="-1.24944">
        <ele>76</ele>
        <time>2020-12-06T09:08:02.550000+00:00</time>
      </trkpt>
      <trkpt lat="0" lon="0">
        <time>2020-12-06T09:08:02.558000+00:00</time>
      </trkpt>
      <trkpt lat="0" lon="0">
        <time>2020-12-06T09:08:02.573000+00:00</time>
      </trkpt>
      <trkpt lat="0" lon="0">
        <time>2020-12-06T09:08:02.575000+00:00</time>
      </trkpt>
      <trkpt lat="47.33224" lon="-1.24939">
        <ele>76</ele>
        <time>2020-12-06T09:08:03.573000+00:00</time>
      </trkpt>
      <trkpt lat="0" lon="0">
        <time>2020-12-06T09:08:03.582000+00:00</time>
      </trkpt>
      <trkpt lat="0" lon="0">
        <time>2020-12-06T09:08:03.586000+00:00</time>
      </trkpt>
      <trkpt lat="0" lon="0">
        <time>2020-12-06T09:08:03.589000+00:00</time>
      </trkpt>
      <trkpt lat="47.33224" lon="-1.24934">
        <ele>75</ele>
        <time>2020-12-06T09:08:04.541000+00:00</time>
      </trkpt>
      <trkpt lat="0" lon="0">
        <time>2020-12-06T09:08:04.552000+00:00</time>
      </trkpt>
      <trkpt lat="0" lon="0">
        <time>2020-12-06T09:08:04.555000+00:00</time>
      </trkpt>
      <trkpt lat="0" lon="0">
        <time>2020-12-06T09:08:04.557000+00:00</time>
      </trkpt>
      <trkpt lat="47.33224" lon="-1.24927">
        <ele>75</ele>
        <time>2020-12-06T09:08:05.546000+00:00</time>
      </trkpt>
      <trkpt lat="0" lon="0">
        <time>2020-12-06T09:08:05.550000+00:00</time>
      </trkpt>
      <trkpt lat="0" lon="0">
        <time>2020-12-06T09:08:05.562000+00:00</time>
      </trkpt>
      <trkpt lat="0" lon="0">
        <time>2020-12-06T09:08:05.566000+00:00</time>
      </trkpt>
      <trkpt lat="47.33223" lon="-1.2492">
        <ele>75</ele>
        <time>2020-12-06T09:08:06.572000+00:00</time>
      </trkpt>
      <trkpt lat="0" lon="0">
        <time>2020-12-06T09:08:06.587000+00:00</time>
      </trkpt>
      <trkpt lat="0" lon="0">
        <time>2020-12-06T09:08:06.590000+00:00</time>
      </trkpt>
      <trkpt lat="0" lon="0">
        <time>2020-12-06T09:08:06.594000+00:00</time>
      </trkpt>
      <trkpt lat="47.33222" lon="-1.24913">
        <ele>75</ele>
        <time>2020-12-06T09:08:07.580000+00:00</time>
      </trkpt>
      <trkpt lat="0" lon="0">
        <time>2020-12-06T09:08:07.583000+00:00</time>
      </trkpt>
      <trkpt lat="0" lon="0">
        <time>2020-12-06T09:08:07.589000+00:00</time>
      </trkpt>
      <trkpt lat="0" lon="0">
        <time>2020-12-06T09:08:07.592000+00:00</time>
      </trkpt>
      <trkpt lat="47.33221" lon="-1.24904">
        <ele>75</ele>
        <time>2020-12-06T09:08:08.545000+00:00</time>
      </trkpt>
      <trkpt lat="0" lon="0">
        <time>2020-12-06T09:08:08.549000+00:00</time>
      </trkpt>
      <trkpt lat="0" lon="0">
        <time>2020-12-06T09:08:08.556000+00:00</time>
      </trkpt>
      <trkpt lat="0" lon="0">
        <time>2020-12-06T09:08:08.557000+00:00</time>
      </trkpt>
      <trkpt lat="47.3322" lon="-1.24896">
        <ele>75</ele>
        <time>2020-12-06T09:08:09.553000+00:00</time>
      </trkpt>
      <trkpt lat="0" lon="0">
        <time>2020-12-06T09:08:09.558000+00:00</time>
      </trkpt>
      <trkpt lat="0" lon="0">
        <time>2020-12-06T09:08:09.565000+00:00</time>
      </trkpt>
      <trkpt lat="0" lon="0">
        <time>2020-12-06T09:08:09.567000+00:00</time>
      </trkpt>
      <trkpt lat="47.33218" lon="-1.24887">
        <ele>75</ele>
        <time>2020-12-06T09:08:10.556000+00:00</time>
      </trkpt>
      <trkpt lat="0" lon="0">
        <time>2020-12-06T09:08:10.561000+00:00</time>
      </trkpt>
      <trkpt lat="0" lon="0">
        <time>2020-12-06T09:08:10.570000+00:00</time>
      </trkpt>
      <trkpt lat="0" lon="0">
        <time>2020-12-06T09:08:10.576000+00:00</time>
      </trkpt>
      <trkpt lat="47.33216" lon="-1.24878">
        <ele>75</ele>
        <time>2020-12-06T09:08:11.604000+00:00</time>
      </trkpt>
      <trkpt lat="0" lon="0">
        <time>2020-12-06T09:08:11.608000+00:00</time>
      </trkpt>
      <trkpt lat="0" lon="0">
        <time>2020-12-06T09:08:11.610000+00:00</time>
      </trkpt>
      <trkpt lat="0" lon="0">
        <time>2020-12-06T09:08:11.611000+00:00</time>
      </trkpt>
      <trkpt lat="47.33213" lon="-1.24869">
        <ele>75</ele>
        <time>2020-12-06T09:08:12.497000+00:00</time>
      </trkpt>
      <trkpt lat="0" lon="0">
        <time>2020-12-06T09:08:12.500000+00:00</time>
      </trkpt>
      <trkpt lat="0" lon="0">
        <time>2020-12-06T09:08:12.504000+00:00</time>
      </trkpt>
      <trkpt lat="0" lon="0">
        <time>2020-12-06T09:08:12.509000+00:00</time>
      </trkpt>
      <trkpt lat="47.3321" lon="-1.2486">
        <ele>75</ele>
        <time>2020-12-06T09:08:13.573000+00:00</time>
      </trkpt>
      <trkpt lat="0" lon="0">
        <time>2020-12-06T09:08:13.584000+00:00</time>
      </trkpt>
      <trkpt lat="0" lon="0">
        <time>2020-12-06T09:08:13.588000+00:00</time>
      </trkpt>
      <trkpt lat="0" lon="0">
        <time>2020-12-06T09:08:13.590000+00:00</time>
      </trkpt>
      <trkpt lat="47.33208" lon="-1.24852">
        <ele>75</ele>
        <time>2020-12-06T09:08:14.580000+00:00</time>
      </trkpt>
      <trkpt lat="0" lon="0">
        <time>2020-12-06T09:08:14.591000+00:00</time>
      </trkpt>
      <trkpt lat="0" lon="0">
        <time>2020-12-06T09:08:14.596000+00:00</time>
      </trkpt>
      <trkpt lat="0" lon="0">
        <time>2020-12-06T09:08:14.598000+00:00</time>
      </trkpt>
      <trkpt lat="47.33205" lon="-1.24844">
        <ele>75</ele>
        <time>2020-12-06T09:08:15.574000+00:00</time>
      </trkpt>
      <trkpt lat="0" lon="0">
        <time>2020-12-06T09:08:15.580000+00:00</time>
      </trkpt>
      <trkpt lat="0" lon="0">
        <time>2020-12-06T09:08:15.584000+00:00</time>
      </trkpt>
      <trkpt lat="0" lon="0">
        <time>2020-12-06T09:08:15.585000+00:00</time>
      </trkpt>
      <trkpt lat="47.33203" lon="-1.24836">
        <ele>75</ele>
        <time>2020-12-06T09:08:16.569000+00:00</time>
      </trkpt>
      <trkpt lat="0" lon="0">
        <time>2020-12-06T09:08:16.574000+00:00</time>
      </trkpt>
      <trkpt lat="0" lon="0">
        <time>2020-12-06T09:08:16.582000+00:00</time>
      </trkpt>
      <trkpt lat="0" lon="0">
        <time>2020-12-06T09:08:16.585000+00:00</time>
      </trkpt>
      <trkpt lat="47.332" lon="-1.24828">
        <ele>75</ele>
        <time>2020-12-06T09:08:17.532000+00:00</time>
      </trkpt>
      <trkpt lat="0" lon="0">
        <time>2020-12-06T09:08:17.535000+00:00</time>
      </trkpt>
      <trkpt lat="0" lon="0">
        <time>2020-12-06T09:08:17.542000+00:00</time>
      </trkpt>
      <trkpt lat="0" lon="0">
        <time>2020-12-06T09:08:17.545000+00:00</time>
      </trkpt>
      <trkpt lat="47.33198" lon="-1.24821">
        <ele>75</ele>
        <time>2020-12-06T09:08:18.608000+00:00</time>
      </trkpt>
      <trkpt lat="0" lon="0">
        <time>2020-12-06T09:08:18.625000+00:00</time>
      </trkpt>
      <trkpt lat="0" lon="0">
        <time>2020-12-06T09:08:18.626000+00:00</time>
      </trkpt>
      <trkpt lat="0" lon="0">
        <time>2020-12-06T09:08:18.627000+00:00</time>
      </trkpt>
      <trkpt lat="47.33196" lon="-1.24814">
        <ele>75</ele>
        <time>2020-12-06T09:08:19.582000+00:00</time>
      </trkpt>
      <trkpt lat="0" lon="0">
        <time>2020-12-06T09:08:19.591000+00:00</time>
      </trkpt>
      <trkpt lat="0" lon="0">
        <time>2020-12-06T09:08:19.595000+00:00</time>
      </trkpt>
      <trkpt lat="0" lon="0">
        <time>2020-12-06T09:08:19.597000+00:00</time>
      </trkpt>
      <trkpt lat="47.33194" lon="-1.24807">
        <ele>75</ele>
        <time>2020-12-06T09:08:20.539000+00:00</time>
      </trkpt>
      <trkpt lat="0" lon="0">
        <time>2020-12-06T09:08:20.558000+00:00</time>
      </trkpt>
      <trkpt lat="0" lon="0">
        <time>2020-12-06T09:08:20.564000+00:00</time>
      </trkpt>
      <trkpt lat="0" lon="0">
        <time>2020-12-06T09:08:20.566000+00:00</time>
      </trkpt>
      <trkpt lat="47.33193" lon="-1.248">
        <ele>75</ele>
        <time>2020-12-06T09:08:21.577000+00:00</time>
      </trkpt>
      <trkpt lat="0" lon="0">
        <time>2020-12-06T09:08:21.592000+00:00</time>
      </trkpt>
      <trkpt lat="0" lon="0">
        <time>2020-12-06T09:08:21.596000+00:00</time>
      </trkpt>
      <trkpt lat="0" lon="0">
        <time>2020-12-06T09:08:21.598000+00:00</time>
      </trkpt>
      <trkpt lat="47.33192" lon="-1.24793">
        <ele>75</ele>
        <time>2020-12-06T09:08:22.581000+00:00</time>
      </trkpt>
      <trkpt lat="0" lon="0">
        <time>2020-12-06T09:08:22.583000+00:00</time>
      </trkpt>
      <trkpt lat="0" lon="0">
        <time>2020-12-06T09:08:22.585000+00:00</time>
      </trkpt>
      <trkpt lat="0" lon="0">
        <time>2020-12-06T09:08:22.586000+00:00</time>
      </trkpt>
      <trkpt lat="47.33192" lon="-1.24786">
        <ele>75</ele>
        <time>2020-12-06T09:08:23.584000+00:00</time>
      </trkpt>
      <trkpt lat="0" lon="0">
        <time>2020-12-06T09:08:23.587000+00:00</time>
      </trkpt>
      <trkpt lat="0" lon="0">
        <time>2020-12-06T09:08:23.596000+00:00</time>
      </trkpt>
      <trkpt lat="0" lon="0">
        <time>2020-12-06T09:08:23.602000+00:00</time>
      </trkpt>
      <trkpt lat="47.33193" lon="-1.24779">
        <ele>75</ele>
        <time>2020-12-06T09:08:24.598000+00:00</time>
      </trkpt>
      <trkpt lat="0" lon="0">
        <time>2020-12-06T09:08:24.611000+00:00</time>
      </trkpt>
      <trkpt lat="0" lon="0">
        <time>2020-12-06T09:08:24.615000+00:00</time>
      </trkpt>
      <trkpt lat="0" lon="0">
        <time>2020-12-06T09:08:24.620000+00:00</time>
      </trkpt>
      <trkpt lat="47.33194" lon="-1.24772">
        <ele>75</ele>
        <time>2020-12-06T09:08:25.581000+00:00</time>
      </trkpt>
      <trkpt lat="0" lon="0">
        <time>2020-12-06T09:08:25.594000+00:00</time>
      </trkpt>
      <trkpt lat="0" lon="0">
        <time>2020-12-06T09:08:25.596000+00:00</time>
      </trkpt>
      <trkpt lat="0" lon="0">
        <time>2020-12-06T09:08:25.597000+00:00</time>
      </trkpt>
      <trkpt lat="47.33195" lon="-1.24765">
        <ele>75</ele>
        <time>2020-12-06T09:08:26.547000+00:00</time>
      </trkpt>
      <trkpt lat="0" lon="0">
        <time>2020-12-06T09:08:26.560000+00:00</time>
      </trkpt>
      <trkpt lat="0" lon="0">
        <time>2020-12-06T09:08:26.569000+00:00</time>
      </trkpt>
      <trkpt lat="0" lon="0">
        <time>2020-12-06T09:08:26.572000+00:00</time>
      </trkpt>
      <trkpt lat="47.33197" lon="-1.24759">
        <ele>75</ele>
        <time>2020-12-06T09:08:27.572000+00:00</time>
      </trkpt>
      <trkpt lat="0" lon="0">
        <time>2020-12-06T09:08:27.583000+00:00</time>
      </trkpt>
      <trkpt lat="0" lon="0">
        <time>2020-12-06T09:08:27.589000+00:00</time>
      </trkpt>
      <trkpt lat="0" lon="0">
        <time>2020-12-06T09:08:27.591000+00:00</time>
      </trkpt>
      <trkpt lat="47.332" lon="-1.24753">
        <ele>75</ele>
        <time>2020-12-06T09:08:28.572000+00:00</time>
      </trkpt>
      <trkpt lat="0" lon="0">
        <time>2020-12-06T09:08:28.578000+00:00</time>
      </trkpt>
      <trkpt lat="0" lon="0">
        <time>2020-12-06T09:08:28.581000+00:00</time>
      </trkpt>
      <trkpt lat="0" lon="0">
        <time>2020-12-06T09:08:28.584000+00:00</time>
      </trkpt>
      <trkpt lat="47.33202" lon="-1.24746">
        <ele>75</ele>
        <time>2020-12-06T09:08:29.566000+00:00</time>
      </trkpt>
      <trkpt lat="0" lon="0">
        <time>2020-12-06T09:08:29.570000+00:00</time>
      </trkpt>
      <trkpt lat="0" lon="0">
        <time>2020-12-06T09:08:29.580000+00:00</time>
      </trkpt>
      <trkpt lat="0" lon="0">
        <time>2020-12-06T09:08:29.582000+00:00</time>
      </trkpt>
      <trkpt lat="47.33204" lon="-1.2474">
        <ele>75</ele>
        <time>2020-12-06T09:08:30.552000+00:00</time>
      </trkpt>
      <trkpt lat="0" lon="0">
        <time>2020-12-06T09:08:30.577000+00:00</time>
      </trkpt>
      <trkpt lat="0" lon="0">
        <time>2020-12-06T09:08:30.581000+00:00</time>
      </trkpt>
      <trkpt lat="0" lon="0">
        <time>2020-12-06T09:08:30.585000+00:00</time>
      </trkpt>
      <trkpt lat="47.33206" lon="-1.24733">
        <ele>75</ele>
        <time>2020-12-06T09:08:31.539000+00:00</time>
      </trkpt>
      <trkpt lat="0" lon="0">
        <time>2020-12-06T09:08:31.544000+00:00</time>
      </trkpt>
      <trkpt lat="0" lon="0">
        <time>2020-12-06T09:08:31.555000+00:00</time>
      </trkpt>
      <trkpt lat="0" lon="0">
        <time>2020-12-06T09:08:31.559000+00:00</time>
      </trkpt>
      <trkpt lat="47.33208" lon="-1.24726">
        <ele>75</ele>
        <time>2020-12-06T09:08:32.548000+00:00</time>
      </trkpt>
      <trkpt lat="0" lon="0">
        <time>2020-12-06T09:08:32.556000+00:00</time>
      </trkpt>
      <trkpt lat="0" lon="0">
        <time>2020-12-06T09:08:32.569000+00:00</time>
      </trkpt>
      <trkpt lat="0" lon="0">
        <time>2020-12-06T09:08:32.572000+00:00</time>
      </trkpt>
      <trkpt lat="47.33209" lon="-1.24718">
        <ele>75</ele>
        <time>2020-12-06T09:08:33.556000+00:00</time>
      </trkpt>
      <trkpt lat="0" lon="0">
        <time>2020-12-06T09:08:33.572000+00:00</time>
      </trkpt>
      <trkpt lat="0" lon="0">
        <time>2020-12-06T09:08:33.576000+00:00</time>
      </trkpt>
      <trkpt lat="0" lon="0">
        <time>2020-12-06T09:08:33.577000+00:00</time>
      </trkpt>
      <trkpt lat="47.33209" lon="-1.24711">
        <ele>75</ele>
        <time>2020-12-06T09:08:34.597000+00:00</time>
      </trkpt>
      <trkpt lat="0" lon="0">
        <time>2020-12-06T09:08:34.605000+00:00</time>
      </trkpt>
      <trkpt lat="0" lon="0">
        <time>2020-12-06T09:08:34.610000+00:00</time>
      </trkpt>
      <trkpt lat="47.3321" lon="-1.24696">
        <ele>76</ele>
        <time>2020-12-06T09:08:36.592000+00:00</time>
      </trkpt>
      <trkpt lat="0" lon="0">
        <time>2020-12-06T09:08:36.600000+00:00</time>
      </trkpt>
      <trkpt lat="0" lon="0">
        <time>2020-12-06T09:08:36.615000+00:00</time>
      </trkpt>
      <trkpt lat="0" lon="0">
        <time>2020-12-06T09:08:36.617000+00:00</time>
      </trkpt>
      <trkpt lat="47.3321" lon="-1.24688">
        <ele>76</ele>
        <time>2020-12-06T09:08:37.574000+00:00</time>
      </trkpt>
      <trkpt lat="0" lon="0">
        <time>2020-12-06T09:08:37.584000+00:00</time>
      </trkpt>
      <trkpt lat="0" lon="0">
        <time>2020-12-06T09:08:37.591000+00:00</time>
      </trkpt>
      <trkpt lat="0" lon="0">
        <time>2020-12-06T09:08:37.593000+00:00</time>
      </trkpt>
      <trkpt lat="47.3321" lon="-1.2468">
        <ele>76</ele>
        <time>2020-12-06T09:08:38.532000+00:00</time>
      </trkpt>
      <trkpt lat="0" lon="0">
        <time>2020-12-06T09:08:38.549000+00:00</time>
      </trkpt>
      <trkpt lat="0" lon="0">
        <time>2020-12-06T09:08:38.553000+00:00</time>
      </trkpt>
      <trkpt lat="0" lon="0">
        <time>2020-12-06T09:08:38.556000+00:00</time>
      </trkpt>
      <trkpt lat="47.33209" lon="-1.24672">
        <ele>76</ele>
        <time>2020-12-06T09:08:39.569000+00:00</time>
      </trkpt>
      <trkpt lat="0" lon="0">
        <time>2020-12-06T09:08:39.573000+00:00</time>
      </trkpt>
      <trkpt lat="0" lon="0">
        <time>2020-12-06T09:08:39.576000+00:00</time>
      </trkpt>
      <trkpt lat="0" lon="0">
        <time>2020-12-06T09:08:39.577000+00:00</time>
      </trkpt>
      <trkpt lat="47.33209" lon="-1.24665">
        <ele>76</ele>
        <time>2020-12-06T09:08:40.540000+00:00</time>
      </trkpt>
      <trkpt lat="0" lon="0">
        <time>2020-12-06T09:08:40.543000+00:00</time>
      </trkpt>
      <trkpt lat="0" lon="0">
        <time>2020-12-06T09:08:40.545000+00:00</time>
      </trkpt>
      <trkpt lat="0" lon="0">
        <time>2020-12-06T09:08:40.546000+00:00</time>
      </trkpt>
      <trkpt lat="47.33209" lon="-1.24658">
        <ele>76</ele>
        <time>2020-12-06T09:08:41.563000+00:00</time>
      </trkpt>
      <trkpt lat="0" lon="0">
        <time>2020-12-06T09:08:41.566000+00:00</time>
      </trkpt>
      <trkpt lat="0" lon="0">
        <time>2020-12-06T09:08:41.571000+00:00</time>
      </trkpt>
      <trkpt lat="0" lon="0">
        <time>2020-12-06T09:08:41.573000+00:00</time>
      </trkpt>
      <trkpt lat="47.33208" lon="-1.2465">
        <ele>76</ele>
        <time>2020-12-06T09:08:42.536000+00:00</time>
      </trkpt>
      <trkpt lat="0" lon="0">
        <time>2020-12-06T09:08:42.546000+00:00</time>
      </trkpt>
      <trkpt lat="0" lon="0">
        <time>2020-12-06T09:08:42.548000+00:00</time>
      </trkpt>
      <trkpt lat="0" lon="0">
        <time>2020-12-06T09:08:42.549000+00:00</time>
      </trkpt>
      <trkpt lat="47.33208" lon="-1.24643">
        <ele>76</ele>
        <time>2020-12-06T09:08:43.587000+00:00</time>
      </trkpt>
      <trkpt lat="0" lon="0">
        <time>2020-12-06T09:08:43.598000+00:00</time>
      </trkpt>
      <trkpt lat="0" lon="0">
        <time>2020-12-06T09:08:43.604000+00:00</time>
      </trkpt>
      <trkpt lat="0" lon="0">
        <time>2020-12-06T09:08:43.608000+00:00</time>
      </trkpt>
      <trkpt lat="47.33209" lon="-1.24636">
        <ele>76</ele>
        <time>2020-12-06T09:08:44.549000+00:00</time>
      </trkpt>
      <trkpt lat="0" lon="0">
        <time>2020-12-06T09:08:44.553000+00:00</time>
      </trkpt>
      <trkpt lat="0" lon="0">
        <time>2020-12-06T09:08:44.564000+00:00</time>
      </trkpt>
      <trkpt lat="0" lon="0">
        <time>2020-12-06T09:08:44.566000+00:00</time>
      </trkpt>
      <trkpt lat="47.3321" lon="-1.24629">
        <ele>76</ele>
        <time>2020-12-06T09:08:45.597000+00:00</time>
      </trkpt>
      <trkpt lat="0" lon="0">
        <time>2020-12-06T09:08:45.605000+00:00</time>
      </trkpt>
      <trkpt lat="0" lon="0">
        <time>2020-12-06T09:08:45.609000+00:00</time>
      </trkpt>
      <trkpt lat="0" lon="0">
        <time>2020-12-06T09:08:45.610000+00:00</time>
      </trkpt>
      <trkpt lat="47.33211" lon="-1.24622">
        <ele>76</ele>
        <time>2020-12-06T09:08:46.569000+00:00</time>
      </trkpt>
      <trkpt lat="0" lon="0">
        <time>2020-12-06T09:08:46.573000+00:00</time>
      </trkpt>
      <trkpt lat="0" lon="0">
        <time>2020-12-06T09:08:46.581000+00:00</time>
      </trkpt>
      <trkpt lat="0" lon="0">
        <time>2020-12-06T09:08:46.582000+00:00</time>
      </trkpt>
      <trkpt lat="47.33213" lon="-1.24615">
        <ele>76</ele>
        <time>2020-12-06T09:08:47.554000+00:00</time>
      </trkpt>
      <trkpt lat="0" lon="0">
        <time>2020-12-06T09:08:47.567000+00:00</time>
      </trkpt>
      <trkpt lat="0" lon="0">
        <time>2020-12-06T09:08:47.569000+00:00</time>
      </trkpt>
      <trkpt lat="0" lon="0">
        <time>2020-12-06T09:08:47.570000+00:00</time>
      </trkpt>
      <trkpt lat="47.33215" lon="-1.24608">
        <ele>76</ele>
        <time>2020-12-06T09:08:48.575000+00:00</time>
      </trkpt>
      <trkpt lat="0" lon="0">
        <time>2020-12-06T09:08:48.588000+00:00</time>
      </trkpt>
      <trkpt lat="0" lon="0">
        <time>2020-12-06T09:08:48.599000+00:00</time>
      </trkpt>
      <trkpt lat="0" lon="0">
        <time>2020-12-06T09:08:48.602000+00:00</time>
      </trkpt>
      <trkpt lat="47.33217" lon="-1.24601">
        <ele>75</ele>
        <time>2020-12-06T09:08:49.616000+00:00</time>
      </trkpt>
      <trkpt lat="0" lon="0">
        <time>2020-12-06T09:08:49.630000+00:00</time>
      </trkpt>
      <trkpt lat="0" lon="0">
        <time>2020-12-06T09:08:49.634000+00:00</time>
      </trkpt>
      <trkpt lat="0" lon="0">
        <time>2020-12-06T09:08:49.636000+00:00</time>
      </trkpt>
      <trkpt lat="47.33218" lon="-1.24593">
        <ele>75</ele>
        <time>2020-12-06T09:08:50.571000+00:00</time>
      </trkpt>
      <trkpt lat="0" lon="0">
        <time>2020-12-06T09:08:50.574000+00:00</time>
      </trkpt>
      <trkpt lat="0" lon="0">
        <time>2020-12-06T09:08:50.580000+00:00</time>
      </trkpt>
      <trkpt lat="0" lon="0">
        <time>2020-12-06T09:08:50.583000+00:00</time>
      </trkpt>
      <trkpt lat="47.33219" lon="-1.24586">
        <ele>75</ele>
        <time>2020-12-06T09:08:51.567000+00:00</time>
      </trkpt>
      <trkpt lat="0" lon="0">
        <time>2020-12-06T09:08:51.569000+00:00</time>
      </trkpt>
      <trkpt lat="0" lon="0">
        <time>2020-12-06T09:08:51.571000+00:00</time>
      </trkpt>
      <trkpt lat="0" lon="0">
        <time>2020-12-06T09:08:51.572000+00:00</time>
      </trkpt>
      <trkpt lat="47.3322" lon="-1.24578">
        <ele>75</ele>
        <time>2020-12-06T09:08:52.486000+00:00</time>
      </trkpt>
      <trkpt lat="0" lon="0">
        <time>2020-12-06T09:08:52.495000+00:00</time>
      </trkpt>
      <trkpt lat="0" lon="0">
        <time>2020-12-06T09:08:52.501000+00:00</time>
      </trkpt>
      <trkpt lat="0" lon="0">
        <time>2020-12-06T09:08:52.504000+00:00</time>
      </trkpt>
      <trkpt lat="47.3322" lon="-1.2457">
        <ele>75</ele>
        <time>2020-12-06T09:08:53.560000+00:00</time>
      </trkpt>
      <trkpt lat="0" lon="0">
        <time>2020-12-06T09:08:53.567000+00:00</time>
      </trkpt>
      <trkpt lat="0" lon="0">
        <time>2020-12-06T09:08:53.573000+00:00</time>
      </trkpt>
      <trkpt lat="0" lon="0">
        <time>2020-12-06T09:08:53.575000+00:00</time>
      </trkpt>
      <trkpt lat="47.3322" lon="-1.24562">
        <ele>75</ele>
        <time>2020-12-06T09:08:54.530000+00:00</time>
      </trkpt>
      <trkpt lat="0" lon="0">
        <time>2020-12-06T09:08:54.533000+00:00</time>
      </trkpt>
      <trkpt lat="0" lon="0">
        <time>2020-12-06T09:08:54.546000+00:00</time>
      </trkpt>
      <trkpt lat="0" lon="0">
        <time>2020-12-06T09:08:54.548000+00:00</time>
      </trkpt>
      <trkpt lat="47.33219" lon="-1.24554">
        <ele>75</ele>
        <time>2020-12-06T09:08:55.578000+00:00</time>
      </trkpt>
      <trkpt lat="0" lon="0">
        <time>2020-12-06T09:08:55.591000+00:00</time>
      </trkpt>
      <trkpt lat="0" lon="0">
        <time>2020-12-06T09:08:55.595000+00:00</time>
      </trkpt>
      <trkpt lat="0" lon="0">
        <time>2020-12-06T09:08:55.598000+00:00</time>
      </trkpt>
      <trkpt lat="47.33219" lon="-1.24546">
        <ele>75</ele>
        <time>2020-12-06T09:08:56.562000+00:00</time>
      </trkpt>
      <trkpt lat="0" lon="0">
        <time>2020-12-06T09:08:56.567000+00:00</time>
      </trkpt>
      <trkpt lat="0" lon="0">
        <time>2020-12-06T09:08:56.569000+00:00</time>
      </trkpt>
      <trkpt lat="47.33217" lon="-1.24538">
        <ele>75</ele>
        <time>2020-12-06T09:08:57.530000+00:00</time>
      </trkpt>
      <trkpt lat="0" lon="0">
        <time>2020-12-06T09:08:57.537000+00:00</time>
      </trkpt>
      <trkpt lat="0" lon="0">
        <time>2020-12-06T09:08:57.541000+00:00</time>
      </trkpt>
      <trkpt lat="0" lon="0">
        <time>2020-12-06T09:08:57.545000+00:00</time>
      </trkpt>
      <trkpt lat="47.33216" lon="-1.24529">
        <ele>75</ele>
        <time>2020-12-06T09:08:58.553000+00:00</time>
      </trkpt>
      <trkpt lat="0" lon="0">
        <time>2020-12-06T09:08:58.560000+00:00</time>
      </trkpt>
      <trkpt lat="0" lon="0">
        <time>2020-12-06T09:08:58.564000+00:00</time>
      </trkpt>
      <trkpt lat="0" lon="0">
        <time>2020-12-06T09:08:58.566000+00:00</time>
      </trkpt>
      <trkpt lat="47.33215" lon="-1.24521">
        <ele>74</ele>
        <time>2020-12-06T09:08:59.563000+00:00</time>
      </trkpt>
      <trkpt lat="0" lon="0">
        <time>2020-12-06T09:08:59.569000+00:00</time>
      </trkpt>
      <trkpt lat="0" lon="0">
        <time>2020-12-06T09:08:59.573000+00:00</time>
      </trkpt>
      <trkpt lat="0" lon="0">
        <time>2020-12-06T09:08:59.576000+00:00</time>
      </trkpt>
      <trkpt lat="47.33213" lon="-1.24512">
        <ele>74</ele>
        <time>2020-12-06T09:09:00.533000+00:00</time>
      </trkpt>
      <trkpt lat="0" lon="0">
        <time>2020-12-06T09:09:00.537000+00:00</time>
      </trkpt>
      <trkpt lat="0" lon="0">
        <time>2020-12-06T09:09:00.542000+00:00</time>
      </trkpt>
      <trkpt lat="0" lon="0">
        <time>2020-12-06T09:09:00.545000+00:00</time>
      </trkpt>
      <trkpt lat="47.33212" lon="-1.24503">
        <ele>74</ele>
        <time>2020-12-06T09:09:01.552000+00:00</time>
      </trkpt>
      <trkpt lat="0" lon="0">
        <time>2020-12-06T09:09:01.555000+00:00</time>
      </trkpt>
      <trkpt lat="0" lon="0">
        <time>2020-12-06T09:09:01.560000+00:00</time>
      </trkpt>
      <trkpt lat="0" lon="0">
        <time>2020-12-06T09:09:01.564000+00:00</time>
      </trkpt>
      <trkpt lat="47.3321" lon="-1.24494">
        <ele>74</ele>
        <time>2020-12-06T09:09:02.569000+00:00</time>
      </trkpt>
      <trkpt lat="0" lon="0">
        <time>2020-12-06T09:09:02.574000+00:00</time>
      </trkpt>
      <trkpt lat="0" lon="0">
        <time>2020-12-06T09:09:02.576000+00:00</time>
      </trkpt>
      <trkpt lat="0" lon="0">
        <time>2020-12-06T09:09:02.577000+00:00</time>
      </trkpt>
      <trkpt lat="47.33209" lon="-1.24486">
        <ele>74</ele>
        <time>2020-12-06T09:09:03.525000+00:00</time>
      </trkpt>
      <trkpt lat="0" lon="0">
        <time>2020-12-06T09:09:03.528000+00:00</time>
      </trkpt>
      <trkpt lat="0" lon="0">
        <time>2020-12-06T09:09:03.539000+00:00</time>
      </trkpt>
      <trkpt lat="0" lon="0">
        <time>2020-12-06T09:09:03.541000+00:00</time>
      </trkpt>
      <trkpt lat="47.33208" lon="-1.24477">
        <ele>74</ele>
        <time>2020-12-06T09:09:04.590000+00:00</time>
      </trkpt>
      <trkpt lat="0" lon="0">
        <time>2020-12-06T09:09:04.601000+00:00</time>
      </trkpt>
      <trkpt lat="0" lon="0">
        <time>2020-12-06T09:09:04.603000+00:00</time>
      </trkpt>
      <trkpt lat="0" lon="0">
        <time>2020-12-06T09:09:04.604000+00:00</time>
      </trkpt>
      <trkpt lat="47.33207" lon="-1.24468">
        <ele>74</ele>
        <time>2020-12-06T09:09:05.558000+00:00</time>
      </trkpt>
      <trkpt lat="0" lon="0">
        <time>2020-12-06T09:09:05.567000+00:00</time>
      </trkpt>
      <trkpt lat="0" lon="0">
        <time>2020-12-06T09:09:05.569000+00:00</time>
      </trkpt>
      <trkpt lat="0" lon="0">
        <time>2020-12-06T09:09:05.570000+00:00</time>
      </trkpt>
      <trkpt lat="47.33207" lon="-1.24459">
        <ele>74</ele>
        <time>2020-12-06T09:09:06.573000+00:00</time>
      </trkpt>
      <trkpt lat="0" lon="0">
        <time>2020-12-06T09:09:06.588000+00:00</time>
      </trkpt>
      <trkpt lat="0" lon="0">
        <time>2020-12-06T09:09:06.595000+00:00</time>
      </trkpt>
      <trkpt lat="0" lon="0">
        <time>2020-12-06T09:09:06.599000+00:00</time>
      </trkpt>
      <trkpt lat="47.33207" lon="-1.2445">
        <ele>74</ele>
        <time>2020-12-06T09:09:07.603000+00:00</time>
      </trkpt>
      <trkpt lat="0" lon="0">
        <time>2020-12-06T09:09:07.610000+00:00</time>
      </trkpt>
      <trkpt lat="0" lon="0">
        <time>2020-12-06T09:09:07.614000+00:00</time>
      </trkpt>
      <trkpt lat="0" lon="0">
        <time>2020-12-06T09:09:07.616000+00:00</time>
      </trkpt>
      <trkpt lat="47.33207" lon="-1.24441">
        <ele>74</ele>
        <time>2020-12-06T09:09:08.564000+00:00</time>
      </trkpt>
      <trkpt lat="0" lon="0">
        <time>2020-12-06T09:09:08.588000+00:00</time>
      </trkpt>
      <trkpt lat="0" lon="0">
        <time>2020-12-06T09:09:08.595000+00:00</time>
      </trkpt>
      <trkpt lat="0" lon="0">
        <time>2020-12-06T09:09:08.597000+00:00</time>
      </trkpt>
      <trkpt lat="47.33208" lon="-1.24433">
        <ele>74</ele>
        <time>2020-12-06T09:09:09.562000+00:00</time>
      </trkpt>
      <trkpt lat="0" lon="0">
        <time>2020-12-06T09:09:09.568000+00:00</time>
      </trkpt>
      <trkpt lat="0" lon="0">
        <time>2020-12-06T09:09:09.573000+00:00</time>
      </trkpt>
      <trkpt lat="0" lon="0">
        <time>2020-12-06T09:09:09.574000+00:00</time>
      </trkpt>
      <trkpt lat="47.33208" lon="-1.24425">
        <ele>74</ele>
        <time>2020-12-06T09:09:10.579000+00:00</time>
      </trkpt>
      <trkpt lat="0" lon="0">
        <time>2020-12-06T09:09:10.583000+00:00</time>
      </trkpt>
      <trkpt lat="0" lon="0">
        <time>2020-12-06T09:09:10.594000+00:00</time>
      </trkpt>
      <trkpt lat="0" lon="0">
        <time>2020-12-06T09:09:10.596000+00:00</time>
      </trkpt>
      <trkpt lat="47.3321" lon="-1.24417">
        <ele>73</ele>
        <time>2020-12-06T09:09:11.590000+00:00</time>
      </trkpt>
      <trkpt lat="0" lon="0">
        <time>2020-12-06T09:09:11.605000+00:00</time>
      </trkpt>
      <trkpt lat="0" lon="0">
        <time>2020-12-06T09:09:11.616000+00:00</time>
      </trkpt>
      <trkpt lat="0" lon="0">
        <time>2020-12-06T09:09:11.618000+00:00</time>
      </trkpt>
      <trkpt lat="47.33211" lon="-1.2441">
        <ele>73</ele>
        <time>2020-12-06T09:09:12.545000+00:00</time>
      </trkpt>
      <trkpt lat="0" lon="0">
        <time>2020-12-06T09:09:12.562000+00:00</time>
      </trkpt>
      <trkpt lat="0" lon="0">
        <time>2020-12-06T09:09:12.565000+00:00</time>
      </trkpt>
      <trkpt lat="0" lon="0">
        <time>2020-12-06T09:09:12.569000+00:00</time>
      </trkpt>
      <trkpt lat="47.33214" lon="-1.24403">
        <ele>73</ele>
        <time>2020-12-06T09:09:13.583000+00:00</time>
      </trkpt>
      <trkpt lat="0" lon="0">
        <time>2020-12-06T09:09:13.586000+00:00</time>
      </trkpt>
      <trkpt lat="0" lon="0">
        <time>2020-12-06T09:09:13.598000+00:00</time>
      </trkpt>
      <trkpt lat="0" lon="0">
        <time>2020-12-06T09:09:13.601000+00:00</time>
      </trkpt>
      <trkpt lat="47.33215" lon="-1.24396">
        <ele>73</ele>
        <time>2020-12-06T09:09:14.531000+00:00</time>
      </trkpt>
      <trkpt lat="0" lon="0">
        <time>2020-12-06T09:09:14.546000+00:00</time>
      </trkpt>
      <trkpt lat="0" lon="0">
        <time>2020-12-06T09:09:14.559000+00:00</time>
      </trkpt>
      <trkpt lat="0" lon="0">
        <time>2020-12-06T09:09:14.562000+00:00</time>
      </trkpt>
      <trkpt lat="47.33217" lon="-1.2439">
        <ele>72</ele>
        <time>2020-12-06T09:09:15.535000+00:00</time>
      </trkpt>
      <trkpt lat="0" lon="0">
        <time>2020-12-06T09:09:15.541000+00:00</time>
      </trkpt>
      <trkpt lat="0" lon="0">
        <time>2020-12-06T09:09:15.546000+00:00</time>
      </trkpt>
      <trkpt lat="0" lon="0">
        <time>2020-12-06T09:09:15.552000+00:00</time>
      </trkpt>
      <trkpt lat="47.33217" lon="-1.24383">
        <ele>72</ele>
        <time>2020-12-06T09:09:16.521000+00:00</time>
      </trkpt>
      <trkpt lat="0" lon="0">
        <time>2020-12-06T09:09:16.524000+00:00</time>
      </trkpt>
      <trkpt lat="0" lon="0">
        <time>2020-12-06T09:09:16.533000+00:00</time>
      </trkpt>
      <trkpt lat="0" lon="0">
        <time>2020-12-06T09:09:16.535000+00:00</time>
      </trkpt>
      <trkpt lat="47.33217" lon="-1.24377">
        <ele>72</ele>
        <time>2020-12-06T09:09:17.563000+00:00</time>
      </trkpt>
      <trkpt lat="0" lon="0">
        <time>2020-12-06T09:09:17.578000+00:00</time>
      </trkpt>
      <trkpt lat="0" lon="0">
        <time>2020-12-06T09:09:17.581000+00:00</time>
      </trkpt>
      <trkpt lat="0" lon="0">
        <time>2020-12-06T09:09:17.585000+00:00</time>
      </trkpt>
      <trkpt lat="47.33217" lon="-1.24371">
        <ele>72</ele>
        <time>2020-12-06T09:09:18.574000+00:00</time>
      </trkpt>
      <trkpt lat="0" lon="0">
        <time>2020-12-06T09:09:18.580000+00:00</time>
      </trkpt>
      <trkpt lat="0" lon="0">
        <time>2020-12-06T09:09:18.594000+00:00</time>
      </trkpt>
      <trkpt lat="0" lon="0">
        <time>2020-12-06T09:09:18.596000+00:00</time>
      </trkpt>
      <trkpt lat="47.33216" lon="-1.24364">
        <ele>72</ele>
        <time>2020-12-06T09:09:19.549000+00:00</time>
      </trkpt>
      <trkpt lat="0" lon="0">
        <time>2020-12-06T09:09:19.558000+00:00</time>
      </trkpt>
      <trkpt lat="0" lon="0">
        <time>2020-12-06T09:09:19.569000+00:00</time>
      </trkpt>
      <trkpt lat="0" lon="0">
        <time>2020-12-06T09:09:19.571000+00:00</time>
      </trkpt>
      <trkpt lat="47.33214" lon="-1.24358">
        <ele>72</ele>
        <time>2020-12-06T09:09:20.569000+00:00</time>
      </trkpt>
      <trkpt lat="0" lon="0">
        <time>2020-12-06T09:09:20.587000+00:00</time>
      </trkpt>
      <trkpt lat="0" lon="0">
        <time>2020-12-06T09:09:20.593000+00:00</time>
      </trkpt>
      <trkpt lat="0" lon="0">
        <time>2020-12-06T09:09:20.595000+00:00</time>
      </trkpt>
      <trkpt lat="47.33212" lon="-1.24351">
        <ele>72</ele>
        <time>2020-12-06T09:09:21.553000+00:00</time>
      </trkpt>
      <trkpt lat="0" lon="0">
        <time>2020-12-06T09:09:21.567000+00:00</time>
      </trkpt>
      <trkpt lat="0" lon="0">
        <time>2020-12-06T09:09:21.569000+00:00</time>
      </trkpt>
      <trkpt lat="0" lon="0">
        <time>2020-12-06T09:09:21.570000+00:00</time>
      </trkpt>
      <trkpt lat="47.3321" lon="-1.24343">
        <ele>72</ele>
        <time>2020-12-06T09:09:22.537000+00:00</time>
      </trkpt>
      <trkpt lat="0" lon="0">
        <time>2020-12-06T09:09:22.540000+00:00</time>
      </trkpt>
      <trkpt lat="0" lon="0">
        <time>2020-12-06T09:09:22.552000+00:00</time>
      </trkpt>
      <trkpt lat="0" lon="0">
        <time>2020-12-06T09:09:22.555000+00:00</time>
      </trkpt>
      <trkpt lat="47.33208" lon="-1.24336">
        <ele>72</ele>
        <time>2020-12-06T09:09:23.582000+00:00</time>
      </trkpt>
      <trkpt lat="0" lon="0">
        <time>2020-12-06T09:09:23.589000+00:00</time>
      </trkpt>
      <trkpt lat="0" lon="0">
        <time>2020-12-06T09:09:23.601000+00:00</time>
      </trkpt>
      <trkpt lat="0" lon="0">
        <time>2020-12-06T09:09:23.603000+00:00</time>
      </trkpt>
      <trkpt lat="47.33206" lon="-1.24328">
        <ele>72</ele>
        <time>2020-12-06T09:09:24.562000+00:00</time>
      </trkpt>
      <trkpt lat="0" lon="0">
        <time>2020-12-06T09:09:24.571000+00:00</time>
      </trkpt>
      <trkpt lat="0" lon="0">
        <time>2020-12-06T09:09:24.575000+00:00</time>
      </trkpt>
      <trkpt lat="0" lon="0">
        <time>2020-12-06T09:09:24.580000+00:00</time>
      </trkpt>
      <trkpt lat="47.33204" lon="-1.2432">
        <ele>72</ele>
        <time>2020-12-06T09:09:25.533000+00:00</time>
      </trkpt>
      <trkpt lat="0" lon="0">
        <time>2020-12-06T09:09:25.548000+00:00</time>
      </trkpt>
      <trkpt lat="0" lon="0">
        <time>2020-12-06T09:09:25.559000+00:00</time>
      </trkpt>
      <trkpt lat="0" lon="0">
        <time>2020-12-06T09:09:25.564000+00:00</time>
      </trkpt>
      <trkpt lat="47.33202" lon="-1.24312">
        <ele>72</ele>
        <time>2020-12-06T09:09:26.562000+00:00</time>
      </trkpt>
      <trkpt lat="0" lon="0">
        <time>2020-12-06T09:09:26.580000+00:00</time>
      </trkpt>
      <trkpt lat="0" lon="0">
        <time>2020-12-06T09:09:26.587000+00:00</time>
      </trkpt>
      <trkpt lat="0" lon="0">
        <time>2020-12-06T09:09:26.589000+00:00</time>
      </trkpt>
      <trkpt lat="47.332" lon="-1.24304">
        <ele>72</ele>
        <time>2020-12-06T09:09:27.549000+00:00</time>
      </trkpt>
      <trkpt lat="0" lon="0">
        <time>2020-12-06T09:09:27.557000+00:00</time>
      </trkpt>
      <trkpt lat="0" lon="0">
        <time>2020-12-06T09:09:27.566000+00:00</time>
      </trkpt>
      <trkpt lat="0" lon="0">
        <time>2020-12-06T09:09:27.574000+00:00</time>
      </trkpt>
      <trkpt lat="47.33198" lon="-1.24296">
        <ele>72</ele>
        <time>2020-12-06T09:09:28.553000+00:00</time>
      </trkpt>
      <trkpt lat="0" lon="0">
        <time>2020-12-06T09:09:28.570000+00:00</time>
      </trkpt>
      <trkpt lat="0" lon="0">
        <time>2020-12-06T09:09:28.575000+00:00</time>
      </trkpt>
      <trkpt lat="0" lon="0">
        <time>2020-12-06T09:09:28.578000+00:00</time>
      </trkpt>
      <trkpt lat="47.33197" lon="-1.24288">
        <ele>72</ele>
        <time>2020-12-06T09:09:29.560000+00:00</time>
      </trkpt>
      <trkpt lat="0" lon="0">
        <time>2020-12-06T09:09:29.580000+00:00</time>
      </trkpt>
      <trkpt lat="0" lon="0">
        <time>2020-12-06T09:09:29.586000+00:00</time>
      </trkpt>
      <trkpt lat="0" lon="0">
        <time>2020-12-06T09:09:29.588000+00:00</time>
      </trkpt>
      <trkpt lat="47.33195" lon="-1.2428">
        <ele>72</ele>
        <time>2020-12-06T09:09:30.555000+00:00</time>
      </trkpt>
      <trkpt lat="0" lon="0">
        <time>2020-12-06T09:09:30.557000+00:00</time>
      </trkpt>
      <trkpt lat="0" lon="0">
        <time>2020-12-06T09:09:30.558000+00:00</time>
      </trkpt>
      <trkpt lat="0" lon="0">
        <time>2020-12-06T09:09:30.559000+00:00</time>
      </trkpt>
      <trkpt lat="47.33193" lon="-1.24271">
        <ele>72</ele>
        <time>2020-12-06T09:09:31.549000+00:00</time>
      </trkpt>
      <trkpt lat="0" lon="0">
        <time>2020-12-06T09:09:31.554000+00:00</time>
      </trkpt>
      <trkpt lat="0" lon="0">
        <time>2020-12-06T09:09:31.561000+00:00</time>
      </trkpt>
      <trkpt lat="0" lon="0">
        <time>2020-12-06T09:09:31.563000+00:00</time>
      </trkpt>
      <trkpt lat="47.33192" lon="-1.24263">
        <ele>72</ele>
        <time>2020-12-06T09:09:32.565000+00:00</time>
      </trkpt>
      <trkpt lat="0" lon="0">
        <time>2020-12-06T09:09:32.570000+00:00</time>
      </trkpt>
      <trkpt lat="0" lon="0">
        <time>2020-12-06T09:09:32.588000+00:00</time>
      </trkpt>
      <trkpt lat="0" lon="0">
        <time>2020-12-06T09:09:32.590000+00:00</time>
      </trkpt>
      <trkpt lat="47.33192" lon="-1.24256">
        <ele>72</ele>
        <time>2020-12-06T09:09:33.498000+00:00</time>
      </trkpt>
      <trkpt lat="0" lon="0">
        <time>2020-12-06T09:09:33.510000+00:00</time>
      </trkpt>
      <trkpt lat="0" lon="0">
        <time>2020-12-06T09:09:33.516000+00:00</time>
      </trkpt>
      <trkpt lat="0" lon="0">
        <time>2020-12-06T09:09:33.525000+00:00</time>
      </trkpt>
      <trkpt lat="47.33192" lon="-1.24248">
        <ele>72</ele>
        <time>2020-12-06T09:09:34.548000+00:00</time>
      </trkpt>
      <trkpt lat="0" lon="0">
        <time>2020-12-06T09:09:34.561000+00:00</time>
      </trkpt>
      <trkpt lat="0" lon="0">
        <time>2020-12-06T09:09:34.570000+00:00</time>
      </trkpt>
      <trkpt lat="0" lon="0">
        <time>2020-12-06T09:09:34.572000+00:00</time>
      </trkpt>
      <trkpt lat="47.33193" lon="-1.24242">
        <ele>72</ele>
        <time>2020-12-06T09:09:35.546000+00:00</time>
      </trkpt>
      <trkpt lat="0" lon="0">
        <time>2020-12-06T09:09:35.556000+00:00</time>
      </trkpt>
      <trkpt lat="0" lon="0">
        <time>2020-12-06T09:09:35.559000+00:00</time>
      </trkpt>
      <trkpt lat="0" lon="0">
        <time>2020-12-06T09:09:35.562000+00:00</time>
      </trkpt>
      <trkpt lat="47.33196" lon="-1.24236">
        <ele>72</ele>
        <time>2020-12-06T09:09:36.564000+00:00</time>
      </trkpt>
      <trkpt lat="0" lon="0">
        <time>2020-12-06T09:09:36.567000+00:00</time>
      </trkpt>
      <trkpt lat="0" lon="0">
        <time>2020-12-06T09:09:36.571000+00:00</time>
      </trkpt>
      <trkpt lat="0" lon="0">
        <time>2020-12-06T09:09:36.572000+00:00</time>
      </trkpt>
      <trkpt lat="47.33199" lon="-1.2423">
        <ele>72</ele>
        <time>2020-12-06T09:09:37.543000+00:00</time>
      </trkpt>
      <trkpt lat="0" lon="0">
        <time>2020-12-06T09:09:37.552000+00:00</time>
      </trkpt>
      <trkpt lat="0" lon="0">
        <time>2020-12-06T09:09:37.557000+00:00</time>
      </trkpt>
      <trkpt lat="0" lon="0">
        <time>2020-12-06T09:09:37.562000+00:00</time>
      </trkpt>
      <trkpt lat="47.33203" lon="-1.24225">
        <ele>72</ele>
        <time>2020-12-06T09:09:38.587000+00:00</time>
      </trkpt>
      <trkpt lat="0" lon="0">
        <time>2020-12-06T09:09:38.600000+00:00</time>
      </trkpt>
      <trkpt lat="0" lon="0">
        <time>2020-12-06T09:09:38.606000+00:00</time>
      </trkpt>
      <trkpt lat="0" lon="0">
        <time>2020-12-06T09:09:38.609000+00:00</time>
      </trkpt>
      <trkpt lat="47.33207" lon="-1.24221">
        <ele>71</ele>
        <time>2020-12-06T09:09:39.555000+00:00</time>
      </trkpt>
      <trkpt lat="0" lon="0">
        <time>2020-12-06T09:09:39.565000+00:00</time>
      </trkpt>
      <trkpt lat="0" lon="0">
        <time>2020-12-06T09:09:39.568000+00:00</time>
      </trkpt>
      <trkpt lat="0" lon="0">
        <time>2020-12-06T09:09:39.572000+00:00</time>
      </trkpt>
      <trkpt lat="47.33212" lon="-1.24217">
        <ele>71</ele>
        <time>2020-12-06T09:09:40.585000+00:00</time>
      </trkpt>
      <trkpt lat="0" lon="0">
        <time>2020-12-06T09:09:40.594000+00:00</time>
      </trkpt>
      <trkpt lat="0" lon="0">
        <time>2020-12-06T09:09:40.599000+00:00</time>
      </trkpt>
      <trkpt lat="0" lon="0">
        <time>2020-12-06T09:09:40.601000+00:00</time>
      </trkpt>
      <trkpt lat="47.33217" lon="-1.24213">
        <ele>71</ele>
        <time>2020-12-06T09:09:41.553000+00:00</time>
      </trkpt>
      <trkpt lat="0" lon="0">
        <time>2020-12-06T09:09:41.563000+00:00</time>
      </trkpt>
      <trkpt lat="0" lon="0">
        <time>2020-12-06T09:09:41.568000+00:00</time>
      </trkpt>
      <trkpt lat="0" lon="0">
        <time>2020-12-06T09:09:41.570000+00:00</time>
      </trkpt>
      <trkpt lat="47.33223" lon="-1.2421">
        <ele>71</ele>
        <time>2020-12-06T09:09:42.578000+00:00</time>
      </trkpt>
      <trkpt lat="0" lon="0">
        <time>2020-12-06T09:09:42.581000+00:00</time>
      </trkpt>
      <trkpt lat="0" lon="0">
        <time>2020-12-06T09:09:42.582000+00:00</time>
      </trkpt>
      <trkpt lat="0" lon="0">
        <time>2020-12-06T09:09:42.583000+00:00</time>
      </trkpt>
      <trkpt lat="47.33228" lon="-1.24206">
        <ele>71</ele>
        <time>2020-12-06T09:09:43.556000+00:00</time>
      </trkpt>
      <trkpt lat="0" lon="0">
        <time>2020-12-06T09:09:43.559000+00:00</time>
      </trkpt>
      <trkpt lat="0" lon="0">
        <time>2020-12-06T09:09:43.565000+00:00</time>
      </trkpt>
      <trkpt lat="0" lon="0">
        <time>2020-12-06T09:09:43.567000+00:00</time>
      </trkpt>
      <trkpt lat="47.33234" lon="-1.24203">
        <ele>70</ele>
        <time>2020-12-06T09:09:44.550000+00:00</time>
      </trkpt>
      <trkpt lat="0" lon="0">
        <time>2020-12-06T09:09:44.570000+00:00</time>
      </trkpt>
      <trkpt lat="0" lon="0">
        <time>2020-12-06T09:09:44.576000+00:00</time>
      </trkpt>
      <trkpt lat="0" lon="0">
        <time>2020-12-06T09:09:44.578000+00:00</time>
      </trkpt>
      <trkpt lat="47.3324" lon="-1.242">
        <ele>70</ele>
        <time>2020-12-06T09:09:45.525000+00:00</time>
      </trkpt>
      <trkpt lat="0" lon="0">
        <time>2020-12-06T09:09:45.534000+00:00</time>
      </trkpt>
      <trkpt lat="0" lon="0">
        <time>2020-12-06T09:09:45.539000+00:00</time>
      </trkpt>
      <trkpt lat="0" lon="0">
        <time>2020-12-06T09:09:45.540000+00:00</time>
      </trkpt>
      <trkpt lat="47.33246" lon="-1.24197">
        <ele>70</ele>
        <time>2020-12-06T09:09:46.555000+00:00</time>
      </trkpt>
      <trkpt lat="0" lon="0">
        <time>2020-12-06T09:09:46.578000+00:00</time>
      </trkpt>
      <trkpt lat="0" lon="0">
        <time>2020-12-06T09:09:46.587000+00:00</time>
      </trkpt>
      <trkpt lat="0" lon="0">
        <time>2020-12-06T09:09:46.589000+00:00</time>
      </trkpt>
      <trkpt lat="47.33251" lon="-1.24194">
        <ele>70</ele>
        <time>2020-12-06T09:09:47.559000+00:00</time>
      </trkpt>
      <trkpt lat="0" lon="0">
        <time>2020-12-06T09:09:47.580000+00:00</time>
      </trkpt>
      <trkpt lat="0" lon="0">
        <time>2020-12-06T09:09:47.588000+00:00</time>
      </trkpt>
      <trkpt lat="0" lon="0">
        <time>2020-12-06T09:09:47.592000+00:00</time>
      </trkpt>
      <trkpt lat="47.33257" lon="-1.24191">
        <ele>70</ele>
        <time>2020-12-06T09:09:48.537000+00:00</time>
      </trkpt>
      <trkpt lat="0" lon="0">
        <time>2020-12-06T09:09:48.541000+00:00</time>
      </trkpt>
      <trkpt lat="0" lon="0">
        <time>2020-12-06T09:09:48.550000+00:00</time>
      </trkpt>
      <trkpt lat="0" lon="0">
        <time>2020-12-06T09:09:48.552000+00:00</time>
      </trkpt>
      <trkpt lat="47.33263" lon="-1.24188">
        <ele>70</ele>
        <time>2020-12-06T09:09:49.568000+00:00</time>
      </trkpt>
      <trkpt lat="0" lon="0">
        <time>2020-12-06T09:09:49.581000+00:00</time>
      </trkpt>
      <trkpt lat="0" lon="0">
        <time>2020-12-06T09:09:49.585000+00:00</time>
      </trkpt>
      <trkpt lat="0" lon="0">
        <time>2020-12-06T09:09:49.589000+00:00</time>
      </trkpt>
      <trkpt lat="47.33269" lon="-1.24185">
        <ele>70</ele>
        <time>2020-12-06T09:09:50.525000+00:00</time>
      </trkpt>
      <trkpt lat="0" lon="0">
        <time>2020-12-06T09:09:50.545000+00:00</time>
      </trkpt>
      <trkpt lat="0" lon="0">
        <time>2020-12-06T09:09:50.552000+00:00</time>
      </trkpt>
      <trkpt lat="0" lon="0">
        <time>2020-12-06T09:09:50.554000+00:00</time>
      </trkpt>
      <trkpt lat="47.33274" lon="-1.24181">
        <ele>70</ele>
        <time>2020-12-06T09:09:51.533000+00:00</time>
      </trkpt>
      <trkpt lat="0" lon="0">
        <time>2020-12-06T09:09:51.537000+00:00</time>
      </trkpt>
      <trkpt lat="0" lon="0">
        <time>2020-12-06T09:09:51.541000+00:00</time>
      </trkpt>
      <trkpt lat="0" lon="0">
        <time>2020-12-06T09:09:51.543000+00:00</time>
      </trkpt>
      <trkpt lat="47.3328" lon="-1.24177">
        <ele>69</ele>
        <time>2020-12-06T09:09:52.563000+00:00</time>
      </trkpt>
      <trkpt lat="0" lon="0">
        <time>2020-12-06T09:09:52.568000+00:00</time>
      </trkpt>
      <trkpt lat="0" lon="0">
        <time>2020-12-06T09:09:52.576000+00:00</time>
      </trkpt>
      <trkpt lat="0" lon="0">
        <time>2020-12-06T09:09:52.579000+00:00</time>
      </trkpt>
      <trkpt lat="47.33285" lon="-1.24174">
        <ele>69</ele>
        <time>2020-12-06T09:09:53.574000+00:00</time>
      </trkpt>
      <trkpt lat="0" lon="0">
        <time>2020-12-06T09:09:53.576000+00:00</time>
      </trkpt>
      <trkpt lat="0" lon="0">
        <time>2020-12-06T09:09:53.577000+00:00</time>
      </trkpt>
      <trkpt lat="0" lon="0">
        <time>2020-12-06T09:09:53.578000+00:00</time>
      </trkpt>
      <trkpt lat="47.3329" lon="-1.24169">
        <ele>69</ele>
        <time>2020-12-06T09:09:54.509000+00:00</time>
      </trkpt>
      <trkpt lat="0" lon="0">
        <time>2020-12-06T09:09:54.516000+00:00</time>
      </trkpt>
      <trkpt lat="0" lon="0">
        <time>2020-12-06T09:09:54.524000+00:00</time>
      </trkpt>
      <trkpt lat="0" lon="0">
        <time>2020-12-06T09:09:54.527000+00:00</time>
      </trkpt>
      <trkpt lat="47.33295" lon="-1.24165">
        <ele>69</ele>
        <time>2020-12-06T09:09:55.503000+00:00</time>
      </trkpt>
      <trkpt lat="0" lon="0">
        <time>2020-12-06T09:09:55.512000+00:00</time>
      </trkpt>
      <trkpt lat="0" lon="0">
        <time>2020-12-06T09:09:55.519000+00:00</time>
      </trkpt>
      <trkpt lat="0" lon="0">
        <time>2020-12-06T09:09:55.521000+00:00</time>
      </trkpt>
      <trkpt lat="47.333" lon="-1.2416">
        <ele>69</ele>
        <time>2020-12-06T09:09:56.511000+00:00</time>
      </trkpt>
      <trkpt lat="0" lon="0">
        <time>2020-12-06T09:09:56.515000+00:00</time>
      </trkpt>
      <trkpt lat="0" lon="0">
        <time>2020-12-06T09:09:56.518000+00:00</time>
      </trkpt>
      <trkpt lat="0" lon="0">
        <time>2020-12-06T09:09:56.520000+00:00</time>
      </trkpt>
      <trkpt lat="47.33304" lon="-1.24156">
        <ele>69</ele>
        <time>2020-12-06T09:09:57.458000+00:00</time>
      </trkpt>
      <trkpt lat="0" lon="0">
        <time>2020-12-06T09:09:57.471000+00:00</time>
      </trkpt>
      <trkpt lat="0" lon="0">
        <time>2020-12-06T09:09:57.477000+00:00</time>
      </trkpt>
      <trkpt lat="0" lon="0">
        <time>2020-12-06T09:09:57.480000+00:00</time>
      </trkpt>
      <trkpt lat="47.33308" lon="-1.24152">
        <ele>69</ele>
        <time>2020-12-06T09:09:58.510000+00:00</time>
      </trkpt>
      <trkpt lat="0" lon="0">
        <time>2020-12-06T09:09:58.520000+00:00</time>
      </trkpt>
      <trkpt lat="0" lon="0">
        <time>2020-12-06T09:09:58.524000+00:00</time>
      </trkpt>
      <trkpt lat="47.33312" lon="-1.24149">
        <ele>69</ele>
        <time>2020-12-06T09:09:59.526000+00:00</time>
      </trkpt>
      <trkpt lat="0" lon="0">
        <time>2020-12-06T09:09:59.528000+00:00</time>
      </trkpt>
      <trkpt lat="0" lon="0">
        <time>2020-12-06T09:09:59.532000+00:00</time>
      </trkpt>
      <trkpt lat="0" lon="0">
        <time>2020-12-06T09:09:59.533000+00:00</time>
      </trkpt>
      <trkpt lat="47.33316" lon="-1.24148">
        <ele>69</ele>
        <time>2020-12-06T09:10:00.480000+00:00</time>
      </trkpt>
      <trkpt lat="0" lon="0">
        <time>2020-12-06T09:10:00.485000+00:00</time>
      </trkpt>
      <trkpt lat="0" lon="0">
        <time>2020-12-06T09:10:00.489000+00:00</time>
      </trkpt>
      <trkpt lat="0" lon="0">
        <time>2020-12-06T09:10:00.490000+00:00</time>
      </trkpt>
      <trkpt lat="47.3332" lon="-1.24148">
        <ele>69</ele>
        <time>2020-12-06T09:10:01.504000+00:00</time>
      </trkpt>
      <trkpt lat="0" lon="0">
        <time>2020-12-06T09:10:01.525000+00:00</time>
      </trkpt>
      <trkpt lat="0" lon="0">
        <time>2020-12-06T09:10:01.533000+00:00</time>
      </trkpt>
      <trkpt lat="0" lon="0">
        <time>2020-12-06T09:10:01.535000+00:00</time>
      </trkpt>
      <trkpt lat="47.33323" lon="-1.24149">
        <ele>69</ele>
        <time>2020-12-06T09:10:02.550000+00:00</time>
      </trkpt>
      <trkpt lat="0" lon="0">
        <time>2020-12-06T09:10:02.560000+00:00</time>
      </trkpt>
      <trkpt lat="0" lon="0">
        <time>2020-12-06T09:10:02.566000+00:00</time>
      </trkpt>
      <trkpt lat="0" lon="0">
        <time>2020-12-06T09:10:02.571000+00:00</time>
      </trkpt>
      <trkpt lat="47.33327" lon="-1.24151">
        <ele>69</ele>
        <time>2020-12-06T09:10:03.549000+00:00</time>
      </trkpt>
      <trkpt lat="0" lon="0">
        <time>2020-12-06T09:10:03.558000+00:00</time>
      </trkpt>
      <trkpt lat="0" lon="0">
        <time>2020-12-06T09:10:03.562000+00:00</time>
      </trkpt>
      <trkpt lat="0" lon="0">
        <time>2020-12-06T09:10:03.564000+00:00</time>
      </trkpt>
      <trkpt lat="47.33331" lon="-1.24153">
        <ele>68</ele>
        <time>2020-12-06T09:10:04.538000+00:00</time>
      </trkpt>
      <trkpt lat="0" lon="0">
        <time>2020-12-06T09:10:04.545000+00:00</time>
      </trkpt>
      <trkpt lat="0" lon="0">
        <time>2020-12-06T09:10:04.547000+00:00</time>
      </trkpt>
      <trkpt lat="0" lon="0">
        <time>2020-12-06T09:10:04.548000+00:00</time>
      </trkpt>
      <trkpt lat="47.33335" lon="-1.24156">
        <ele>68</ele>
        <time>2020-12-06T09:10:05.543000+00:00</time>
      </trkpt>
      <trkpt lat="0" lon="0">
        <time>2020-12-06T09:10:05.557000+00:00</time>
      </trkpt>
      <trkpt lat="0" lon="0">
        <time>2020-12-06T09:10:05.558000+00:00</time>
      </trkpt>
      <trkpt lat="0" lon="0">
        <time>2020-12-06T09:10:05.559000+00:00</time>
      </trkpt>
      <trkpt lat="47.33339" lon="-1.24158">
        <ele>68</ele>
        <time>2020-12-06T09:10:06.522000+00:00</time>
      </trkpt>
      <trkpt lat="0" lon="0">
        <time>2020-12-06T09:10:06.530000+00:00</time>
      </trkpt>
      <trkpt lat="0" lon="0">
        <time>2020-12-06T09:10:06.538000+00:00</time>
      </trkpt>
      <trkpt lat="0" lon="0">
        <time>2020-12-06T09:10:06.547000+00:00</time>
      </trkpt>
      <trkpt lat="47.33343" lon="-1.2416">
        <ele>68</ele>
        <time>2020-12-06T09:10:07.549000+00:00</time>
      </trkpt>
      <trkpt lat="0" lon="0">
        <time>2020-12-06T09:10:07.554000+00:00</time>
      </trkpt>
      <trkpt lat="0" lon="0">
        <time>2020-12-06T09:10:07.557000+00:00</time>
      </trkpt>
      <trkpt lat="47.33348" lon="-1.24161">
        <ele>68</ele>
        <time>2020-12-06T09:10:08.562000+00:00</time>
      </trkpt>
      <trkpt lat="0" lon="0">
        <time>2020-12-06T09:10:08.573000+00:00</time>
      </trkpt>
      <trkpt lat="0" lon="0">
        <time>2020-12-06T09:10:08.578000+00:00</time>
      </trkpt>
      <trkpt lat="0" lon="0">
        <time>2020-12-06T09:10:08.579000+00:00</time>
      </trkpt>
      <trkpt lat="47.33353" lon="-1.24162">
        <ele>68</ele>
        <time>2020-12-06T09:10:09.562000+00:00</time>
      </trkpt>
      <trkpt lat="0" lon="0">
        <time>2020-12-06T09:10:09.574000+00:00</time>
      </trkpt>
      <trkpt lat="0" lon="0">
        <time>2020-12-06T09:10:09.578000+00:00</time>
      </trkpt>
      <trkpt lat="0" lon="0">
        <time>2020-12-06T09:10:09.584000+00:00</time>
      </trkpt>
      <trkpt lat="47.33358" lon="-1.24163">
        <ele>67</ele>
        <time>2020-12-06T09:10:10.551000+00:00</time>
      </trkpt>
      <trkpt lat="0" lon="0">
        <time>2020-12-06T09:10:10.555000+00:00</time>
      </trkpt>
      <trkpt lat="0" lon="0">
        <time>2020-12-06T09:10:10.571000+00:00</time>
      </trkpt>
      <trkpt lat="0" lon="0">
        <time>2020-12-06T09:10:10.574000+00:00</time>
      </trkpt>
      <trkpt lat="47.33363" lon="-1.24163">
        <ele>67</ele>
        <time>2020-12-06T09:10:11.548000+00:00</time>
      </trkpt>
      <trkpt lat="0" lon="0">
        <time>2020-12-06T09:10:11.561000+00:00</time>
      </trkpt>
      <trkpt lat="0" lon="0">
        <time>2020-12-06T09:10:11.576000+00:00</time>
      </trkpt>
      <trkpt lat="0" lon="0">
        <time>2020-12-06T09:10:11.577000+00:00</time>
      </trkpt>
      <trkpt lat="47.33368" lon="-1.24164">
        <ele>67</ele>
        <time>2020-12-06T09:10:12.574000+00:00</time>
      </trkpt>
      <trkpt lat="0" lon="0">
        <time>2020-12-06T09:10:12.580000+00:00</time>
      </trkpt>
      <trkpt lat="0" lon="0">
        <time>2020-12-06T09:10:12.587000+00:00</time>
      </trkpt>
      <trkpt lat="0" lon="0">
        <time>2020-12-06T09:10:12.589000+00:00</time>
      </trkpt>
      <trkpt lat="47.33373" lon="-1.24166">
        <ele>67</ele>
        <time>2020-12-06T09:10:13.534000+00:00</time>
      </trkpt>
      <trkpt lat="0" lon="0">
        <time>2020-12-06T09:10:13.549000+00:00</time>
      </trkpt>
      <trkpt lat="0" lon="0">
        <time>2020-12-06T09:10:13.550000+00:00</time>
      </trkpt>
      <trkpt lat="0" lon="0">
        <time>2020-12-06T09:10:13.552000+00:00</time>
      </trkpt>
      <trkpt lat="47.33378" lon="-1.24168">
        <ele>66</ele>
        <time>2020-12-06T09:10:14.541000+00:00</time>
      </trkpt>
      <trkpt lat="0" lon="0">
        <time>2020-12-06T09:10:14.558000+00:00</time>
      </trkpt>
      <trkpt lat="0" lon="0">
        <time>2020-12-06T09:10:14.559000+00:00</time>
      </trkpt>
      <trkpt lat="0" lon="0">
        <time>2020-12-06T09:10:14.563000+00:00</time>
      </trkpt>
      <trkpt lat="47.33383" lon="-1.2417">
        <ele>66</ele>
        <time>2020-12-06T09:10:15.562000+00:00</time>
      </trkpt>
      <trkpt lat="0" lon="0">
        <time>2020-12-06T09:10:15.576000+00:00</time>
      </trkpt>
      <trkpt lat="0" lon="0">
        <time>2020-12-06T09:10:15.580000+00:00</time>
      </trkpt>
      <trkpt lat="0" lon="0">
        <time>2020-12-06T09:10:15.581000+00:00</time>
      </trkpt>
      <trkpt lat="47.33388" lon="-1.24173">
        <ele>66</ele>
        <time>2020-12-06T09:10:16.538000+00:00</time>
      </trkpt>
      <trkpt lat="0" lon="0">
        <time>2020-12-06T09:10:16.555000+00:00</time>
      </trkpt>
      <trkpt lat="0" lon="0">
        <time>2020-12-06T09:10:16.562000+00:00</time>
      </trkpt>
      <trkpt lat="0" lon="0">
        <time>2020-12-06T09:10:16.565000+00:00</time>
      </trkpt>
      <trkpt lat="47.33393" lon="-1.24175">
        <ele>65</ele>
        <time>2020-12-06T09:10:17.526000+00:00</time>
      </trkpt>
      <trkpt lat="0" lon="0">
        <time>2020-12-06T09:10:17.536000+00:00</time>
      </trkpt>
      <trkpt lat="0" lon="0">
        <time>2020-12-06T09:10:17.548000+00:00</time>
      </trkpt>
      <trkpt lat="0" lon="0">
        <time>2020-12-06T09:10:17.549000+00:00</time>
      </trkpt>
      <trkpt lat="47.33398" lon="-1.24176">
        <ele>65</ele>
        <time>2020-12-06T09:10:18.551000+00:00</time>
      </trkpt>
      <trkpt lat="0" lon="0">
        <time>2020-12-06T09:10:18.562000+00:00</time>
      </trkpt>
      <trkpt lat="0" lon="0">
        <time>2020-12-06T09:10:18.572000+00:00</time>
      </trkpt>
      <trkpt lat="0" lon="0">
        <time>2020-12-06T09:10:18.574000+00:00</time>
      </trkpt>
      <trkpt lat="47.33403" lon="-1.24177">
        <ele>65</ele>
        <time>2020-12-06T09:10:19.527000+00:00</time>
      </trkpt>
      <trkpt lat="0" lon="0">
        <time>2020-12-06T09:10:19.538000+00:00</time>
      </trkpt>
      <trkpt lat="0" lon="0">
        <time>2020-12-06T09:10:19.545000+00:00</time>
      </trkpt>
      <trkpt lat="0" lon="0">
        <time>2020-12-06T09:10:19.547000+00:00</time>
      </trkpt>
      <trkpt lat="47.33409" lon="-1.24177">
        <ele>64</ele>
        <time>2020-12-06T09:10:20.530000+00:00</time>
      </trkpt>
      <trkpt lat="0" lon="0">
        <time>2020-12-06T09:10:20.533000+00:00</time>
      </trkpt>
      <trkpt lat="0" lon="0">
        <time>2020-12-06T09:10:20.547000+00:00</time>
      </trkpt>
      <trkpt lat="0" lon="0">
        <time>2020-12-06T09:10:20.548000+00:00</time>
      </trkpt>
      <trkpt lat="47.33415" lon="-1.24177">
        <ele>64</ele>
        <time>2020-12-06T09:10:21.545000+00:00</time>
      </trkpt>
      <trkpt lat="0" lon="0">
        <time>2020-12-06T09:10:21.555000+00:00</time>
      </trkpt>
      <trkpt lat="0" lon="0">
        <time>2020-12-06T09:10:21.561000+00:00</time>
      </trkpt>
      <trkpt lat="0" lon="0">
        <time>2020-12-06T09:10:21.563000+00:00</time>
      </trkpt>
      <trkpt lat="47.3342" lon="-1.24175">
        <ele>64</ele>
        <time>2020-12-06T09:10:22.521000+00:00</time>
      </trkpt>
      <trkpt lat="0" lon="0">
        <time>2020-12-06T09:10:22.526000+00:00</time>
      </trkpt>
      <trkpt lat="0" lon="0">
        <time>2020-12-06T09:10:22.536000+00:00</time>
      </trkpt>
      <trkpt lat="0" lon="0">
        <time>2020-12-06T09:10:22.538000+00:00</time>
      </trkpt>
      <trkpt lat="47.33427" lon="-1.24173">
        <ele>63</ele>
        <time>2020-12-06T09:10:23.546000+00:00</time>
      </trkpt>
      <trkpt lat="0" lon="0">
        <time>2020-12-06T09:10:23.558000+00:00</time>
      </trkpt>
      <trkpt lat="0" lon="0">
        <time>2020-12-06T09:10:23.562000+00:00</time>
      </trkpt>
      <trkpt lat="0" lon="0">
        <time>2020-12-06T09:10:23.564000+00:00</time>
      </trkpt>
      <trkpt lat="47.33433" lon="-1.24169">
        <ele>63</ele>
        <time>2020-12-06T09:10:24.534000+00:00</time>
      </trkpt>
      <trkpt lat="0" lon="0">
        <time>2020-12-06T09:10:24.537000+00:00</time>
      </trkpt>
      <trkpt lat="0" lon="0">
        <time>2020-12-06T09:10:24.542000+00:00</time>
      </trkpt>
      <trkpt lat="0" lon="0">
        <time>2020-12-06T09:10:24.545000+00:00</time>
      </trkpt>
      <trkpt lat="47.3344" lon="-1.24166">
        <ele>62</ele>
        <time>2020-12-06T09:10:25.530000+00:00</time>
      </trkpt>
      <trkpt lat="0" lon="0">
        <time>2020-12-06T09:10:25.538000+00:00</time>
      </trkpt>
      <trkpt lat="0" lon="0">
        <time>2020-12-06T09:10:25.545000+00:00</time>
      </trkpt>
      <trkpt lat="0" lon="0">
        <time>2020-12-06T09:10:25.548000+00:00</time>
      </trkpt>
      <trkpt lat="47.33448" lon="-1.24162">
        <ele>62</ele>
        <time>2020-12-06T09:10:26.544000+00:00</time>
      </trkpt>
      <trkpt lat="0" lon="0">
        <time>2020-12-06T09:10:26.549000+00:00</time>
      </trkpt>
      <trkpt lat="0" lon="0">
        <time>2020-12-06T09:10:26.558000+00:00</time>
      </trkpt>
      <trkpt lat="0" lon="0">
        <time>2020-12-06T09:10:26.560000+00:00</time>
      </trkpt>
      <trkpt lat="47.33456" lon="-1.24157">
        <ele>61</ele>
        <time>2020-12-06T09:10:27.556000+00:00</time>
      </trkpt>
      <trkpt lat="0" lon="0">
        <time>2020-12-06T09:10:27.565000+00:00</time>
      </trkpt>
      <trkpt lat="0" lon="0">
        <time>2020-12-06T09:10:27.567000+00:00</time>
      </trkpt>
      <trkpt lat="0" lon="0">
        <time>2020-12-06T09:10:27.568000+00:00</time>
      </trkpt>
      <trkpt lat="47.33464" lon="-1.24152">
        <ele>60</ele>
        <time>2020-12-06T09:10:28.549000+00:00</time>
      </trkpt>
      <trkpt lat="0" lon="0">
        <time>2020-12-06T09:10:28.565000+00:00</time>
      </trkpt>
      <trkpt lat="0" lon="0">
        <time>2020-12-06T09:10:28.574000+00:00</time>
      </trkpt>
      <trkpt lat="0" lon="0">
        <time>2020-12-06T09:10:28.576000+00:00</time>
      </trkpt>
      <trkpt lat="47.33472" lon="-1.24146">
        <ele>59</ele>
        <time>2020-12-06T09:10:29.506000+00:00</time>
      </trkpt>
      <trkpt lat="0" lon="0">
        <time>2020-12-06T09:10:29.509000+00:00</time>
      </trkpt>
      <trkpt lat="0" lon="0">
        <time>2020-12-06T09:10:29.521000+00:00</time>
      </trkpt>
      <trkpt lat="0" lon="0">
        <time>2020-12-06T09:10:29.523000+00:00</time>
      </trkpt>
      <trkpt lat="47.33481" lon="-1.2414">
        <ele>59</ele>
        <time>2020-12-06T09:10:30.535000+00:00</time>
      </trkpt>
      <trkpt lat="0" lon="0">
        <time>2020-12-06T09:10:30.549000+00:00</time>
      </trkpt>
      <trkpt lat="0" lon="0">
        <time>2020-12-06T09:10:30.552000+00:00</time>
      </trkpt>
      <trkpt lat="0" lon="0">
        <time>2020-12-06T09:10:30.558000+00:00</time>
      </trkpt>
      <trkpt lat="47.33489" lon="-1.24133">
        <ele>58</ele>
        <time>2020-12-06T09:10:31.521000+00:00</time>
      </trkpt>
      <trkpt lat="0" lon="0">
        <time>2020-12-06T09:10:31.527000+00:00</time>
      </trkpt>
      <trkpt lat="0" lon="0">
        <time>2020-12-06T09:10:31.530000+00:00</time>
      </trkpt>
      <trkpt lat="0" lon="0">
        <time>2020-12-06T09:10:31.533000+00:00</time>
      </trkpt>
      <trkpt lat="47.33498" lon="-1.24127">
        <ele>57</ele>
        <time>2020-12-06T09:10:32.547000+00:00</time>
      </trkpt>
      <trkpt lat="0" lon="0">
        <time>2020-12-06T09:10:32.556000+00:00</time>
      </trkpt>
      <trkpt lat="0" lon="0">
        <time>2020-12-06T09:10:32.560000+00:00</time>
      </trkpt>
      <trkpt lat="0" lon="0">
        <time>2020-12-06T09:10:32.565000+00:00</time>
      </trkpt>
      <trkpt lat="47.33507" lon="-1.24121">
        <ele>56</ele>
        <time>2020-12-06T09:10:33.514000+00:00</time>
      </trkpt>
      <trkpt lat="0" lon="0">
        <time>2020-12-06T09:10:33.530000+00:00</time>
      </trkpt>
      <trkpt lat="0" lon="0">
        <time>2020-12-06T09:10:33.536000+00:00</time>
      </trkpt>
      <trkpt lat="0" lon="0">
        <time>2020-12-06T09:10:33.538000+00:00</time>
      </trkpt>
      <trkpt lat="47.33515" lon="-1.24116">
        <ele>55</ele>
        <time>2020-12-06T09:10:34.508000+00:00</time>
      </trkpt>
      <trkpt lat="0" lon="0">
        <time>2020-12-06T09:10:34.513000+00:00</time>
      </trkpt>
      <trkpt lat="0" lon="0">
        <time>2020-12-06T09:10:34.516000+00:00</time>
      </trkpt>
      <trkpt lat="0" lon="0">
        <time>2020-12-06T09:10:34.519000+00:00</time>
      </trkpt>
      <trkpt lat="47.33524" lon="-1.24112">
        <ele>54</ele>
        <time>2020-12-06T09:10:35.542000+00:00</time>
      </trkpt>
      <trkpt lat="0" lon="0">
        <time>2020-12-06T09:10:35.549000+00:00</time>
      </trkpt>
      <trkpt lat="0" lon="0">
        <time>2020-12-06T09:10:35.558000+00:00</time>
      </trkpt>
      <trkpt lat="0" lon="0">
        <time>2020-12-06T09:10:35.560000+00:00</time>
      </trkpt>
      <trkpt lat="47.33532" lon="-1.24109">
        <ele>53</ele>
        <time>2020-12-06T09:10:36.572000+00:00</time>
      </trkpt>
      <trkpt lat="0" lon="0">
        <time>2020-12-06T09:10:36.584000+00:00</time>
      </trkpt>
      <trkpt lat="0" lon="0">
        <time>2020-12-06T09:10:36.587000+00:00</time>
      </trkpt>
      <trkpt lat="0" lon="0">
        <time>2020-12-06T09:10:36.589000+00:00</time>
      </trkpt>
      <trkpt lat="47.33541" lon="-1.24106">
        <ele>52</ele>
        <time>2020-12-06T09:10:37.546000+00:00</time>
      </trkpt>
      <trkpt lat="0" lon="0">
        <time>2020-12-06T09:10:37.559000+00:00</time>
      </trkpt>
      <trkpt lat="0" lon="0">
        <time>2020-12-06T09:10:37.562000+00:00</time>
      </trkpt>
      <trkpt lat="0" lon="0">
        <time>2020-12-06T09:10:37.565000+00:00</time>
      </trkpt>
      <trkpt lat="47.33549" lon="-1.24104">
        <ele>52</ele>
        <time>2020-12-06T09:10:38.532000+00:00</time>
      </trkpt>
      <trkpt lat="0" lon="0">
        <time>2020-12-06T09:10:38.548000+00:00</time>
      </trkpt>
      <trkpt lat="0" lon="0">
        <time>2020-12-06T09:10:38.553000+00:00</time>
      </trkpt>
      <trkpt lat="0" lon="0">
        <time>2020-12-06T09:10:38.558000+00:00</time>
      </trkpt>
      <trkpt lat="47.33557" lon="-1.24102">
        <ele>51</ele>
        <time>2020-12-06T09:10:39.542000+00:00</time>
      </trkpt>
      <trkpt lat="0" lon="0">
        <time>2020-12-06T09:10:39.544000+00:00</time>
      </trkpt>
      <trkpt lat="0" lon="0">
        <time>2020-12-06T09:10:39.545000+00:00</time>
      </trkpt>
      <trkpt lat="47.33564" lon="-1.24102">
        <ele>50</ele>
        <time>2020-12-06T09:10:40.529000+00:00</time>
      </trkpt>
      <trkpt lat="0" lon="0">
        <time>2020-12-06T09:10:40.541000+00:00</time>
      </trkpt>
      <trkpt lat="0" lon="0">
        <time>2020-12-06T09:10:40.544000+00:00</time>
      </trkpt>
      <trkpt lat="0" lon="0">
        <time>2020-12-06T09:10:40.546000+00:00</time>
      </trkpt>
      <trkpt lat="47.33571" lon="-1.24101">
        <ele>50</ele>
        <time>2020-12-06T09:10:41.540000+00:00</time>
      </trkpt>
      <trkpt lat="0" lon="0">
        <time>2020-12-06T09:10:41.557000+00:00</time>
      </trkpt>
      <trkpt lat="0" lon="0">
        <time>2020-12-06T09:10:41.559000+00:00</time>
      </trkpt>
      <trkpt lat="0" lon="0">
        <time>2020-12-06T09:10:41.560000+00:00</time>
      </trkpt>
      <trkpt lat="47.33577" lon="-1.24101">
        <ele>49</ele>
        <time>2020-12-06T09:10:42.567000+00:00</time>
      </trkpt>
      <trkpt lat="0" lon="0">
        <time>2020-12-06T09:10:42.573000+00:00</time>
      </trkpt>
      <trkpt lat="0" lon="0">
        <time>2020-12-06T09:10:42.585000+00:00</time>
      </trkpt>
      <trkpt lat="0" lon="0">
        <time>2020-12-06T09:10:42.586000+00:00</time>
      </trkpt>
      <trkpt lat="47.33583" lon="-1.24102">
        <ele>49</ele>
        <time>2020-12-06T09:10:43.511000+00:00</time>
      </trkpt>
      <trkpt lat="0" lon="0">
        <time>2020-12-06T09:10:43.514000+00:00</time>
      </trkpt>
      <trkpt lat="0" lon="0">
        <time>2020-12-06T09:10:43.527000+00:00</time>
      </trkpt>
      <trkpt lat="0" lon="0">
        <time>2020-12-06T09:10:43.530000+00:00</time>
      </trkpt>
      <trkpt lat="47.33587" lon="-1.24104">
        <ele>48</ele>
        <time>2020-12-06T09:10:44.538000+00:00</time>
      </trkpt>
      <trkpt lat="0" lon="0">
        <time>2020-12-06T09:10:44.543000+00:00</time>
      </trkpt>
      <trkpt lat="0" lon="0">
        <time>2020-12-06T09:10:44.549000+00:00</time>
      </trkpt>
      <trkpt lat="0" lon="0">
        <time>2020-12-06T09:10:44.551000+00:00</time>
      </trkpt>
      <trkpt lat="47.3359" lon="-1.24108">
        <ele>48</ele>
        <time>2020-12-06T09:10:45.522000+00:00</time>
      </trkpt>
      <trkpt lat="0" lon="0">
        <time>2020-12-06T09:10:45.525000+00:00</time>
      </trkpt>
      <trkpt lat="0" lon="0">
        <time>2020-12-06T09:10:45.527000+00:00</time>
      </trkpt>
      <trkpt lat="0" lon="0">
        <time>2020-12-06T09:10:45.528000+00:00</time>
      </trkpt>
      <trkpt lat="47.33592" lon="-1.24112">
        <ele>48</ele>
        <time>2020-12-06T09:10:46.507000+00:00</time>
      </trkpt>
      <trkpt lat="0" lon="0">
        <time>2020-12-06T09:10:46.517000+00:00</time>
      </trkpt>
      <trkpt lat="0" lon="0">
        <time>2020-12-06T09:10:46.526000+00:00</time>
      </trkpt>
      <trkpt lat="0" lon="0">
        <time>2020-12-06T09:10:46.539000+00:00</time>
      </trkpt>
      <trkpt lat="47.33594" lon="-1.24118">
        <ele>48</ele>
        <time>2020-12-06T09:10:47.494000+00:00</time>
      </trkpt>
      <trkpt lat="0" lon="0">
        <time>2020-12-06T09:10:47.506000+00:00</time>
      </trkpt>
      <trkpt lat="0" lon="0">
        <time>2020-12-06T09:10:47.517000+00:00</time>
      </trkpt>
      <trkpt lat="0" lon="0">
        <time>2020-12-06T09:10:47.523000+00:00</time>
      </trkpt>
      <trkpt lat="47.33595" lon="-1.24124">
        <ele>48</ele>
        <time>2020-12-06T09:10:48.522000+00:00</time>
      </trkpt>
      <trkpt lat="0" lon="0">
        <time>2020-12-06T09:10:48.526000+00:00</time>
      </trkpt>
      <trkpt lat="0" lon="0">
        <time>2020-12-06T09:10:48.530000+00:00</time>
      </trkpt>
      <trkpt lat="0" lon="0">
        <time>2020-12-06T09:10:48.537000+00:00</time>
      </trkpt>
      <trkpt lat="47.33595" lon="-1.2413">
        <ele>48</ele>
        <time>2020-12-06T09:10:49.539000+00:00</time>
      </trkpt>
      <trkpt lat="0" lon="0">
        <time>2020-12-06T09:10:49.547000+00:00</time>
      </trkpt>
      <trkpt lat="0" lon="0">
        <time>2020-12-06T09:10:49.551000+00:00</time>
      </trkpt>
      <trkpt lat="0" lon="0">
        <time>2020-12-06T09:10:49.555000+00:00</time>
      </trkpt>
      <trkpt lat="47.33595" lon="-1.24136">
        <ele>48</ele>
        <time>2020-12-06T09:10:50.554000+00:00</time>
      </trkpt>
      <trkpt lat="0" lon="0">
        <time>2020-12-06T09:10:50.566000+00:00</time>
      </trkpt>
      <trkpt lat="0" lon="0">
        <time>2020-12-06T09:10:50.576000+00:00</time>
      </trkpt>
      <trkpt lat="0" lon="0">
        <time>2020-12-06T09:10:50.578000+00:00</time>
      </trkpt>
      <trkpt lat="47.33595" lon="-1.24143">
        <ele>48</ele>
        <time>2020-12-06T09:10:51.525000+00:00</time>
      </trkpt>
      <trkpt lat="0" lon="0">
        <time>2020-12-06T09:10:51.526000+00:00</time>
      </trkpt>
      <trkpt lat="0" lon="0">
        <time>2020-12-06T09:10:51.527000+00:00</time>
      </trkpt>
      <trkpt lat="47.33595" lon="-1.24149">
        <ele>48</ele>
        <time>2020-12-06T09:10:52.498000+00:00</time>
      </trkpt>
      <trkpt lat="0" lon="0">
        <time>2020-12-06T09:10:52.519000+00:00</time>
      </trkpt>
      <trkpt lat="0" lon="0">
        <time>2020-12-06T09:10:52.523000+00:00</time>
      </trkpt>
      <trkpt lat="0" lon="0">
        <time>2020-12-06T09:10:52.525000+00:00</time>
      </trkpt>
      <trkpt lat="47.33595" lon="-1.24155">
        <ele>48</ele>
        <time>2020-12-06T09:10:53.492000+00:00</time>
      </trkpt>
      <trkpt lat="0" lon="0">
        <time>2020-12-06T09:10:53.501000+00:00</time>
      </trkpt>
      <trkpt lat="0" lon="0">
        <time>2020-12-06T09:10:53.508000+00:00</time>
      </trkpt>
      <trkpt lat="0" lon="0">
        <time>2020-12-06T09:10:53.511000+00:00</time>
      </trkpt>
      <trkpt lat="47.33595" lon="-1.2416">
        <ele>48</ele>
        <time>2020-12-06T09:10:54.527000+00:00</time>
      </trkpt>
      <trkpt lat="0" lon="0">
        <time>2020-12-06T09:10:54.540000+00:00</time>
      </trkpt>
      <trkpt lat="0" lon="0">
        <time>2020-12-06T09:10:54.545000+00:00</time>
      </trkpt>
      <trkpt lat="0" lon="0">
        <time>2020-12-06T09:10:54.548000+00:00</time>
      </trkpt>
      <trkpt lat="47.33596" lon="-1.24163">
        <ele>47</ele>
        <time>2020-12-06T09:10:55.503000+00:00</time>
      </trkpt>
      <trkpt lat="0" lon="0">
        <time>2020-12-06T09:10:55.516000+00:00</time>
      </trkpt>
      <trkpt lat="0" lon="0">
        <time>2020-12-06T09:10:55.519000+00:00</time>
      </trkpt>
      <trkpt lat="0" lon="0">
        <time>2020-12-06T09:10:55.521000+00:00</time>
      </trkpt>
      <trkpt lat="47.33597" lon="-1.24166">
        <ele>47</ele>
        <time>2020-12-06T09:10:56.536000+00:00</time>
      </trkpt>
      <trkpt lat="0" lon="0">
        <time>2020-12-06T09:10:56.545000+00:00</time>
      </trkpt>
      <trkpt lat="0" lon="0">
        <time>2020-12-06T09:10:56.549000+00:00</time>
      </trkpt>
      <trkpt lat="0" lon="0">
        <time>2020-12-06T09:10:56.551000+00:00</time>
      </trkpt>
      <trkpt lat="47.33599" lon="-1.24167">
        <ele>47</ele>
        <time>2020-12-06T09:10:57.505000+00:00</time>
      </trkpt>
      <trkpt lat="0" lon="0">
        <time>2020-12-06T09:10:57.508000+00:00</time>
      </trkpt>
      <trkpt lat="0" lon="0">
        <time>2020-12-06T09:10:57.511000+00:00</time>
      </trkpt>
      <trkpt lat="0" lon="0">
        <time>2020-12-06T09:10:57.512000+00:00</time>
      </trkpt>
      <trkpt lat="47.33601" lon="-1.24167">
        <ele>47</ele>
        <time>2020-12-06T09:10:58.492000+00:00</time>
      </trkpt>
      <trkpt lat="0" lon="0">
        <time>2020-12-06T09:10:58.506000+00:00</time>
      </trkpt>
      <trkpt lat="0" lon="0">
        <time>2020-12-06T09:10:58.512000+00:00</time>
      </trkpt>
      <trkpt lat="0" lon="0">
        <time>2020-12-06T09:10:58.515000+00:00</time>
      </trkpt>
      <trkpt lat="47.33603" lon="-1.24166">
        <ele>47</ele>
        <time>2020-12-06T09:10:59.488000+00:00</time>
      </trkpt>
      <trkpt lat="0" lon="0">
        <time>2020-12-06T09:10:59.500000+00:00</time>
      </trkpt>
      <trkpt lat="0" lon="0">
        <time>2020-12-06T09:10:59.504000+00:00</time>
      </trkpt>
      <trkpt lat="0" lon="0">
        <time>2020-12-06T09:10:59.506000+00:00</time>
      </trkpt>
      <trkpt lat="47.33606" lon="-1.24164">
        <ele>47</ele>
        <time>2020-12-06T09:11:00.493000+00:00</time>
      </trkpt>
      <trkpt lat="0" lon="0">
        <time>2020-12-06T09:11:00.506000+00:00</time>
      </trkpt>
      <trkpt lat="0" lon="0">
        <time>2020-12-06T09:11:00.512000+00:00</time>
      </trkpt>
      <trkpt lat="0" lon="0">
        <time>2020-12-06T09:11:00.515000+00:00</time>
      </trkpt>
      <trkpt lat="47.33609" lon="-1.24162">
        <ele>46</ele>
        <time>2020-12-06T09:11:01.514000+00:00</time>
      </trkpt>
      <trkpt lat="0" lon="0">
        <time>2020-12-06T09:11:01.517000+00:00</time>
      </trkpt>
      <trkpt lat="0" lon="0">
        <time>2020-12-06T09:11:01.523000+00:00</time>
      </trkpt>
      <trkpt lat="0" lon="0">
        <time>2020-12-06T09:11:01.530000+00:00</time>
      </trkpt>
      <trkpt lat="47.33613" lon="-1.24158">
        <ele>46</ele>
        <time>2020-12-06T09:11:02.512000+00:00</time>
      </trkpt>
      <trkpt lat="0" lon="0">
        <time>2020-12-06T09:11:02.518000+00:00</time>
      </trkpt>
      <trkpt lat="0" lon="0">
        <time>2020-12-06T09:11:02.533000+00:00</time>
      </trkpt>
      <trkpt lat="0" lon="0">
        <time>2020-12-06T09:11:02.534000+00:00</time>
      </trkpt>
      <trkpt lat="47.33616" lon="-1.24154">
        <ele>46</ele>
        <time>2020-12-06T09:11:03.478000+00:00</time>
      </trkpt>
      <trkpt lat="0" lon="0">
        <time>2020-12-06T09:11:03.493000+00:00</time>
      </trkpt>
      <trkpt lat="0" lon="0">
        <time>2020-12-06T09:11:03.498000+00:00</time>
      </trkpt>
      <trkpt lat="0" lon="0">
        <time>2020-12-06T09:11:03.500000+00:00</time>
      </trkpt>
      <trkpt lat="47.3362" lon="-1.24149">
        <ele>46</ele>
        <time>2020-12-06T09:11:04.513000+00:00</time>
      </trkpt>
      <trkpt lat="0" lon="0">
        <time>2020-12-06T09:11:04.519000+00:00</time>
      </trkpt>
      <trkpt lat="0" lon="0">
        <time>2020-12-06T09:11:04.523000+00:00</time>
      </trkpt>
      <trkpt lat="0" lon="0">
        <time>2020-12-06T09:11:04.526000+00:00</time>
      </trkpt>
      <trkpt lat="47.33624" lon="-1.24144">
        <ele>45</ele>
        <time>2020-12-06T09:11:05.516000+00:00</time>
      </trkpt>
      <trkpt lat="0" lon="0">
        <time>2020-12-06T09:11:05.529000+00:00</time>
      </trkpt>
      <trkpt lat="0" lon="0">
        <time>2020-12-06T09:11:05.544000+00:00</time>
      </trkpt>
      <trkpt lat="0" lon="0">
        <time>2020-12-06T09:11:05.548000+00:00</time>
      </trkpt>
      <trkpt lat="47.33629" lon="-1.24139">
        <ele>45</ele>
        <time>2020-12-06T09:11:06.498000+00:00</time>
      </trkpt>
      <trkpt lat="0" lon="0">
        <time>2020-12-06T09:11:06.508000+00:00</time>
      </trkpt>
      <trkpt lat="0" lon="0">
        <time>2020-12-06T09:11:06.517000+00:00</time>
      </trkpt>
      <trkpt lat="0" lon="0">
        <time>2020-12-06T09:11:06.519000+00:00</time>
      </trkpt>
      <trkpt lat="47.33634" lon="-1.24134">
        <ele>44</ele>
        <time>2020-12-06T09:11:07.513000+00:00</time>
      </trkpt>
      <trkpt lat="0" lon="0">
        <time>2020-12-06T09:11:07.518000+00:00</time>
      </trkpt>
      <trkpt lat="0" lon="0">
        <time>2020-12-06T09:11:07.523000+00:00</time>
      </trkpt>
      <trkpt lat="0" lon="0">
        <time>2020-12-06T09:11:07.525000+00:00</time>
      </trkpt>
      <trkpt lat="47.3364" lon="-1.24128">
        <ele>44</ele>
        <time>2020-12-06T09:11:08.505000+00:00</time>
      </trkpt>
      <trkpt lat="0" lon="0">
        <time>2020-12-06T09:11:08.508000+00:00</time>
      </trkpt>
      <trkpt lat="0" lon="0">
        <time>2020-12-06T09:11:08.510000+00:00</time>
      </trkpt>
      <trkpt lat="0" lon="0">
        <time>2020-12-06T09:11:08.513000+00:00</time>
      </trkpt>
      <trkpt lat="47.33645" lon="-1.24123">
        <ele>44</ele>
        <time>2020-12-06T09:11:09.509000+00:00</time>
      </trkpt>
      <trkpt lat="0" lon="0">
        <time>2020-12-06T09:11:09.522000+00:00</time>
      </trkpt>
      <trkpt lat="0" lon="0">
        <time>2020-12-06T09:11:09.526000+00:00</time>
      </trkpt>
      <trkpt lat="0" lon="0">
        <time>2020-12-06T09:11:09.532000+00:00</time>
      </trkpt>
      <trkpt lat="47.33651" lon="-1.24117">
        <ele>43</ele>
        <time>2020-12-06T09:11:10.530000+00:00</time>
      </trkpt>
      <trkpt lat="0" lon="0">
        <time>2020-12-06T09:11:10.540000+00:00</time>
      </trkpt>
      <trkpt lat="0" lon="0">
        <time>2020-12-06T09:11:10.544000+00:00</time>
      </trkpt>
      <trkpt lat="0" lon="0">
        <time>2020-12-06T09:11:10.547000+00:00</time>
      </trkpt>
      <trkpt lat="47.33657" lon="-1.24113">
        <ele>43</ele>
        <time>2020-12-06T09:11:11.470000+00:00</time>
      </trkpt>
      <trkpt lat="0" lon="0">
        <time>2020-12-06T09:11:11.473000+00:00</time>
      </trkpt>
      <trkpt lat="0" lon="0">
        <time>2020-12-06T09:11:11.475000+00:00</time>
      </trkpt>
      <trkpt lat="0" lon="0">
        <time>2020-12-06T09:11:11.476000+00:00</time>
      </trkpt>
      <trkpt lat="47.33663" lon="-1.24109">
        <ele>42</ele>
        <time>2020-12-06T09:11:12.512000+00:00</time>
      </trkpt>
      <trkpt lat="0" lon="0">
        <time>2020-12-06T09:11:12.519000+00:00</time>
      </trkpt>
      <trkpt lat="0" lon="0">
        <time>2020-12-06T09:11:12.526000+00:00</time>
      </trkpt>
      <trkpt lat="0" lon="0">
        <time>2020-12-06T09:11:12.531000+00:00</time>
      </trkpt>
      <trkpt lat="47.3367" lon="-1.24106">
        <ele>42</ele>
        <time>2020-12-06T09:11:13.519000+00:00</time>
      </trkpt>
      <trkpt lat="0" lon="0">
        <time>2020-12-06T09:11:13.535000+00:00</time>
      </trkpt>
      <trkpt lat="0" lon="0">
        <time>2020-12-06T09:11:13.538000+00:00</time>
      </trkpt>
      <trkpt lat="0" lon="0">
        <time>2020-12-06T09:11:13.542000+00:00</time>
      </trkpt>
      <trkpt lat="47.33676" lon="-1.24103">
        <ele>41</ele>
        <time>2020-12-06T09:11:14.537000+00:00</time>
      </trkpt>
      <trkpt lat="0" lon="0">
        <time>2020-12-06T09:11:14.546000+00:00</time>
      </trkpt>
      <trkpt lat="0" lon="0">
        <time>2020-12-06T09:11:14.556000+00:00</time>
      </trkpt>
      <trkpt lat="0" lon="0">
        <time>2020-12-06T09:11:14.562000+00:00</time>
      </trkpt>
      <trkpt lat="47.33683" lon="-1.241">
        <ele>41</ele>
        <time>2020-12-06T09:11:15.478000+00:00</time>
      </trkpt>
      <trkpt lat="0" lon="0">
        <time>2020-12-06T09:11:15.488000+00:00</time>
      </trkpt>
      <trkpt lat="0" lon="0">
        <time>2020-12-06T09:11:15.492000+00:00</time>
      </trkpt>
      <trkpt lat="0" lon="0">
        <time>2020-12-06T09:11:15.494000+00:00</time>
      </trkpt>
      <trkpt lat="47.3369" lon="-1.24098">
        <ele>40</ele>
        <time>2020-12-06T09:11:16.511000+00:00</time>
      </trkpt>
      <trkpt lat="0" lon="0">
        <time>2020-12-06T09:11:16.523000+00:00</time>
      </trkpt>
      <trkpt lat="0" lon="0">
        <time>2020-12-06T09:11:16.527000+00:00</time>
      </trkpt>
      <trkpt lat="0" lon="0">
        <time>2020-12-06T09:11:16.531000+00:00</time>
      </trkpt>
      <trkpt lat="47.33696" lon="-1.24095">
        <ele>40</ele>
        <time>2020-12-06T09:11:17.535000+00:00</time>
      </trkpt>
      <trkpt lat="0" lon="0">
        <time>2020-12-06T09:11:17.550000+00:00</time>
      </trkpt>
      <trkpt lat="0" lon="0">
        <time>2020-12-06T09:11:17.553000+00:00</time>
      </trkpt>
      <trkpt lat="0" lon="0">
        <time>2020-12-06T09:11:17.557000+00:00</time>
      </trkpt>
      <trkpt lat="47.33703" lon="-1.24093">
        <ele>39</ele>
        <time>2020-12-06T09:11:18.531000+00:00</time>
      </trkpt>
      <trkpt lat="0" lon="0">
        <time>2020-12-06T09:11:18.535000+00:00</time>
      </trkpt>
      <trkpt lat="0" lon="0">
        <time>2020-12-06T09:11:18.542000+00:00</time>
      </trkpt>
      <trkpt lat="0" lon="0">
        <time>2020-12-06T09:11:18.544000+00:00</time>
      </trkpt>
      <trkpt lat="47.33709" lon="-1.24092">
        <ele>39</ele>
        <time>2020-12-06T09:11:19.514000+00:00</time>
      </trkpt>
      <trkpt lat="0" lon="0">
        <time>2020-12-06T09:11:19.517000+00:00</time>
      </trkpt>
      <trkpt lat="0" lon="0">
        <time>2020-12-06T09:11:19.531000+00:00</time>
      </trkpt>
      <trkpt lat="0" lon="0">
        <time>2020-12-06T09:11:19.533000+00:00</time>
      </trkpt>
      <trkpt lat="47.33715" lon="-1.24091">
        <ele>38</ele>
        <time>2020-12-06T09:11:20.551000+00:00</time>
      </trkpt>
      <trkpt lat="0" lon="0">
        <time>2020-12-06T09:11:20.561000+00:00</time>
      </trkpt>
      <trkpt lat="0" lon="0">
        <time>2020-12-06T09:11:20.568000+00:00</time>
      </trkpt>
      <trkpt lat="0" lon="0">
        <time>2020-12-06T09:11:20.569000+00:00</time>
      </trkpt>
      <trkpt lat="47.3372" lon="-1.24089">
        <ele>38</ele>
        <time>2020-12-06T09:11:21.524000+00:00</time>
      </trkpt>
      <trkpt lat="0" lon="0">
        <time>2020-12-06T09:11:21.549000+00:00</time>
      </trkpt>
      <trkpt lat="0" lon="0">
        <time>2020-12-06T09:11:21.553000+00:00</time>
      </trkpt>
      <trkpt lat="0" lon="0">
        <time>2020-12-06T09:11:21.554000+00:00</time>
      </trkpt>
      <trkpt lat="47.33724" lon="-1.24088">
        <ele>38</ele>
        <time>2020-12-06T09:11:22.544000+00:00</time>
      </trkpt>
      <trkpt lat="0" lon="0">
        <time>2020-12-06T09:11:22.551000+00:00</time>
      </trkpt>
      <trkpt lat="0" lon="0">
        <time>2020-12-06T09:11:22.554000+00:00</time>
      </trkpt>
      <trkpt lat="0" lon="0">
        <time>2020-12-06T09:11:22.557000+00:00</time>
      </trkpt>
      <trkpt lat="47.33728" lon="-1.24087">
        <ele>37</ele>
        <time>2020-12-06T09:11:23.521000+00:00</time>
      </trkpt>
      <trkpt lat="0" lon="0">
        <time>2020-12-06T09:11:23.524000+00:00</time>
      </trkpt>
      <trkpt lat="0" lon="0">
        <time>2020-12-06T09:11:23.530000+00:00</time>
      </trkpt>
      <trkpt lat="0" lon="0">
        <time>2020-12-06T09:11:23.532000+00:00</time>
      </trkpt>
      <trkpt lat="47.3373" lon="-1.24084">
        <ele>37</ele>
        <time>2020-12-06T09:11:24.507000+00:00</time>
      </trkpt>
      <trkpt lat="0" lon="0">
        <time>2020-12-06T09:11:24.510000+00:00</time>
      </trkpt>
      <trkpt lat="0" lon="0">
        <time>2020-12-06T09:11:24.516000+00:00</time>
      </trkpt>
      <trkpt lat="0" lon="0">
        <time>2020-12-06T09:11:24.519000+00:00</time>
      </trkpt>
      <trkpt lat="47.33732" lon="-1.24082">
        <ele>37</ele>
        <time>2020-12-06T09:11:25.487000+00:00</time>
      </trkpt>
      <trkpt lat="0" lon="0">
        <time>2020-12-06T09:11:25.490000+00:00</time>
      </trkpt>
      <trkpt lat="0" lon="0">
        <time>2020-12-06T09:11:25.498000+00:00</time>
      </trkpt>
      <trkpt lat="0" lon="0">
        <time>2020-12-06T09:11:25.499000+00:00</time>
      </trkpt>
      <trkpt lat="47.33733" lon="-1.24079">
        <ele>37</ele>
        <time>2020-12-06T09:11:26.532000+00:00</time>
      </trkpt>
      <trkpt lat="0" lon="0">
        <time>2020-12-06T09:11:26.542000+00:00</time>
      </trkpt>
      <trkpt lat="0" lon="0">
        <time>2020-12-06T09:11:26.551000+00:00</time>
      </trkpt>
      <trkpt lat="0" lon="0">
        <time>2020-12-06T09:11:26.553000+00:00</time>
      </trkpt>
      <trkpt lat="47.33733" lon="-1.24076">
        <ele>37</ele>
        <time>2020-12-06T09:11:27.469000+00:00</time>
      </trkpt>
      <trkpt lat="0" lon="0">
        <time>2020-12-06T09:11:27.478000+00:00</time>
      </trkpt>
      <trkpt lat="0" lon="0">
        <time>2020-12-06T09:11:27.479000+00:00</time>
      </trkpt>
      <trkpt lat="0" lon="0">
        <time>2020-12-06T09:11:27.480000+00:00</time>
      </trkpt>
      <trkpt lat="47.33733" lon="-1.24072">
        <ele>37</ele>
        <time>2020-12-06T09:11:28.552000+00:00</time>
      </trkpt>
      <trkpt lat="0" lon="0">
        <time>2020-12-06T09:11:28.556000+00:00</time>
      </trkpt>
      <trkpt lat="0" lon="0">
        <time>2020-12-06T09:11:28.571000+00:00</time>
      </trkpt>
      <trkpt lat="0" lon="0">
        <time>2020-12-06T09:11:28.572000+00:00</time>
      </trkpt>
      <trkpt lat="47.33732" lon="-1.24069">
        <ele>37</ele>
        <time>2020-12-06T09:11:29.528000+00:00</time>
      </trkpt>
      <trkpt lat="0" lon="0">
        <time>2020-12-06T09:11:29.543000+00:00</time>
      </trkpt>
      <trkpt lat="0" lon="0">
        <time>2020-12-06T09:11:29.549000+00:00</time>
      </trkpt>
      <trkpt lat="0" lon="0">
        <time>2020-12-06T09:11:29.551000+00:00</time>
      </trkpt>
      <trkpt lat="47.33732" lon="-1.24066">
        <ele>37</ele>
        <time>2020-12-06T09:11:30.534000+00:00</time>
      </trkpt>
      <trkpt lat="0" lon="0">
        <time>2020-12-06T09:11:30.540000+00:00</time>
      </trkpt>
      <trkpt lat="0" lon="0">
        <time>2020-12-06T09:11:30.545000+00:00</time>
      </trkpt>
      <trkpt lat="0" lon="0">
        <time>2020-12-06T09:11:30.548000+00:00</time>
      </trkpt>
      <trkpt lat="47.33732" lon="-1.24064">
        <ele>37</ele>
        <time>2020-12-06T09:11:31.492000+00:00</time>
      </trkpt>
      <trkpt lat="0" lon="0">
        <time>2020-12-06T09:11:31.497000+00:00</time>
      </trkpt>
      <trkpt lat="0" lon="0">
        <time>2020-12-06T09:11:31.498000+00:00</time>
      </trkpt>
      <trkpt lat="0" lon="0">
        <time>2020-12-06T09:11:31.499000+00:00</time>
      </trkpt>
      <trkpt lat="47.33733" lon="-1.24061">
        <ele>37</ele>
        <time>2020-12-06T09:11:32.497000+00:00</time>
      </trkpt>
      <trkpt lat="0" lon="0">
        <time>2020-12-06T09:11:32.503000+00:00</time>
      </trkpt>
      <trkpt lat="0" lon="0">
        <time>2020-12-06T09:11:32.507000+00:00</time>
      </trkpt>
      <trkpt lat="0" lon="0">
        <time>2020-12-06T09:11:32.509000+00:00</time>
      </trkpt>
      <trkpt lat="47.33733" lon="-1.2406">
        <ele>37</ele>
        <time>2020-12-06T09:11:33.515000+00:00</time>
      </trkpt>
      <trkpt lat="0" lon="0">
        <time>2020-12-06T09:11:33.530000+00:00</time>
      </trkpt>
      <trkpt lat="0" lon="0">
        <time>2020-12-06T09:11:33.539000+00:00</time>
      </trkpt>
      <trkpt lat="0" lon="0">
        <time>2020-12-06T09:11:33.542000+00:00</time>
      </trkpt>
      <trkpt lat="47.33734" lon="-1.24058">
        <ele>37</ele>
        <time>2020-12-06T09:11:34.561000+00:00</time>
      </trkpt>
      <trkpt lat="0" lon="0">
        <time>2020-12-06T09:11:34.566000+00:00</time>
      </trkpt>
      <trkpt lat="0" lon="0">
        <time>2020-12-06T09:11:34.580000+00:00</time>
      </trkpt>
      <trkpt lat="0" lon="0">
        <time>2020-12-06T09:11:34.582000+00:00</time>
      </trkpt>
      <trkpt lat="47.33735" lon="-1.24056">
        <ele>36</ele>
        <time>2020-12-06T09:11:35.511000+00:00</time>
      </trkpt>
      <trkpt lat="0" lon="0">
        <time>2020-12-06T09:11:35.513000+00:00</time>
      </trkpt>
      <trkpt lat="0" lon="0">
        <time>2020-12-06T09:11:35.523000+00:00</time>
      </trkpt>
      <trkpt lat="0" lon="0">
        <time>2020-12-06T09:11:35.530000+00:00</time>
      </trkpt>
      <trkpt lat="47.33737" lon="-1.24055">
        <ele>36</ele>
        <time>2020-12-06T09:11:36.537000+00:00</time>
      </trkpt>
      <trkpt lat="0" lon="0">
        <time>2020-12-06T09:11:36.550000+00:00</time>
      </trkpt>
      <trkpt lat="0" lon="0">
        <time>2020-12-06T09:11:36.561000+00:00</time>
      </trkpt>
      <trkpt lat="0" lon="0">
        <time>2020-12-06T09:11:36.564000+00:00</time>
      </trkpt>
      <trkpt lat="47.33738" lon="-1.24054">
        <ele>36</ele>
        <time>2020-12-06T09:11:37.518000+00:00</time>
      </trkpt>
      <trkpt lat="0" lon="0">
        <time>2020-12-06T09:11:37.526000+00:00</time>
      </trkpt>
      <trkpt lat="0" lon="0">
        <time>2020-12-06T09:11:37.536000+00:00</time>
      </trkpt>
      <trkpt lat="0" lon="0">
        <time>2020-12-06T09:11:37.538000+00:00</time>
      </trkpt>
      <trkpt lat="47.3374" lon="-1.24053">
        <ele>36</ele>
        <time>2020-12-06T09:11:38.525000+00:00</time>
      </trkpt>
      <trkpt lat="0" lon="0">
        <time>2020-12-06T09:11:38.540000+00:00</time>
      </trkpt>
      <trkpt lat="0" lon="0">
        <time>2020-12-06T09:11:38.547000+00:00</time>
      </trkpt>
      <trkpt lat="0" lon="0">
        <time>2020-12-06T09:11:38.549000+00:00</time>
      </trkpt>
      <trkpt lat="47.33742" lon="-1.24052">
        <ele>36</ele>
        <time>2020-12-06T09:11:39.502000+00:00</time>
      </trkpt>
      <trkpt lat="0" lon="0">
        <time>2020-12-06T09:11:39.504000+00:00</time>
      </trkpt>
      <trkpt lat="0" lon="0">
        <time>2020-12-06T09:11:39.505000+00:00</time>
      </trkpt>
      <trkpt lat="47.33744" lon="-1.24052">
        <ele>36</ele>
        <time>2020-12-06T09:11:40.526000+00:00</time>
      </trkpt>
      <trkpt lat="0" lon="0">
        <time>2020-12-06T09:11:40.534000+00:00</time>
      </trkpt>
      <trkpt lat="0" lon="0">
        <time>2020-12-06T09:11:40.536000+00:00</time>
      </trkpt>
      <trkpt lat="0" lon="0">
        <time>2020-12-06T09:11:40.537000+00:00</time>
      </trkpt>
      <trkpt lat="47.33746" lon="-1.24051">
        <ele>35</ele>
        <time>2020-12-06T09:11:41.539000+00:00</time>
      </trkpt>
      <trkpt lat="0" lon="0">
        <time>2020-12-06T09:11:41.547000+00:00</time>
      </trkpt>
      <trkpt lat="0" lon="0">
        <time>2020-12-06T09:11:41.551000+00:00</time>
      </trkpt>
      <trkpt lat="0" lon="0">
        <time>2020-12-06T09:11:41.553000+00:00</time>
      </trkpt>
      <trkpt lat="47.33747" lon="-1.2405">
        <ele>35</ele>
        <time>2020-12-06T09:11:42.528000+00:00</time>
      </trkpt>
      <trkpt lat="0" lon="0">
        <time>2020-12-06T09:11:42.532000+00:00</time>
      </trkpt>
      <trkpt lat="0" lon="0">
        <time>2020-12-06T09:11:42.548000+00:00</time>
      </trkpt>
      <trkpt lat="0" lon="0">
        <time>2020-12-06T09:11:42.552000+00:00</time>
      </trkpt>
      <trkpt lat="47.33749" lon="-1.2405">
        <ele>35</ele>
        <time>2020-12-06T09:11:43.498000+00:00</time>
      </trkpt>
      <trkpt lat="0" lon="0">
        <time>2020-12-06T09:11:43.506000+00:00</time>
      </trkpt>
      <trkpt lat="0" lon="0">
        <time>2020-12-06T09:11:43.514000+00:00</time>
      </trkpt>
      <trkpt lat="0" lon="0">
        <time>2020-12-06T09:11:43.519000+00:00</time>
      </trkpt>
      <trkpt lat="47.33751" lon="-1.24049">
        <ele>35</ele>
        <time>2020-12-06T09:11:44.501000+00:00</time>
      </trkpt>
      <trkpt lat="0" lon="0">
        <time>2020-12-06T09:11:44.505000+00:00</time>
      </trkpt>
      <trkpt lat="0" lon="0">
        <time>2020-12-06T09:11:44.509000+00:00</time>
      </trkpt>
      <trkpt lat="0" lon="0">
        <time>2020-12-06T09:11:44.511000+00:00</time>
      </trkpt>
      <trkpt lat="47.33753" lon="-1.24047">
        <ele>35</ele>
        <time>2020-12-06T09:11:45.505000+00:00</time>
      </trkpt>
      <trkpt lat="0" lon="0">
        <time>2020-12-06T09:11:45.518000+00:00</time>
      </trkpt>
      <trkpt lat="0" lon="0">
        <time>2020-12-06T09:11:45.523000+00:00</time>
      </trkpt>
      <trkpt lat="0" lon="0">
        <time>2020-12-06T09:11:45.526000+00:00</time>
      </trkpt>
      <trkpt lat="47.33755" lon="-1.24046">
        <ele>34</ele>
        <time>2020-12-06T09:11:46.526000+00:00</time>
      </trkpt>
      <trkpt lat="0" lon="0">
        <time>2020-12-06T09:11:46.531000+00:00</time>
      </trkpt>
      <trkpt lat="0" lon="0">
        <time>2020-12-06T09:11:46.541000+00:00</time>
      </trkpt>
      <trkpt lat="0" lon="0">
        <time>2020-12-06T09:11:46.543000+00:00</time>
      </trkpt>
      <trkpt lat="47.33758" lon="-1.24044">
        <ele>34</ele>
        <time>2020-12-06T09:11:47.521000+00:00</time>
      </trkpt>
      <trkpt lat="0" lon="0">
        <time>2020-12-06T09:11:47.529000+00:00</time>
      </trkpt>
      <trkpt lat="0" lon="0">
        <time>2020-12-06T09:11:47.533000+00:00</time>
      </trkpt>
      <trkpt lat="0" lon="0">
        <time>2020-12-06T09:11:47.535000+00:00</time>
      </trkpt>
      <trkpt lat="47.3376" lon="-1.24042">
        <ele>34</ele>
        <time>2020-12-06T09:11:48.518000+00:00</time>
      </trkpt>
      <trkpt lat="0" lon="0">
        <time>2020-12-06T09:11:48.523000+00:00</time>
      </trkpt>
      <trkpt lat="0" lon="0">
        <time>2020-12-06T09:11:48.532000+00:00</time>
      </trkpt>
      <trkpt lat="0" lon="0">
        <time>2020-12-06T09:11:48.536000+00:00</time>
      </trkpt>
      <trkpt lat="47.33762" lon="-1.24039">
        <ele>34</ele>
        <time>2020-12-06T09:11:49.489000+00:00</time>
      </trkpt>
      <trkpt lat="0" lon="0">
        <time>2020-12-06T09:11:49.493000+00:00</time>
      </trkpt>
      <trkpt lat="0" lon="0">
        <time>2020-12-06T09:11:49.494000+00:00</time>
      </trkpt>
      <trkpt lat="0" lon="0">
        <time>2020-12-06T09:11:49.495000+00:00</time>
      </trkpt>
      <trkpt lat="47.33764" lon="-1.24035">
        <ele>33</ele>
        <time>2020-12-06T09:11:50.503000+00:00</time>
      </trkpt>
      <trkpt lat="0" lon="0">
        <time>2020-12-06T09:11:50.508000+00:00</time>
      </trkpt>
      <trkpt lat="0" lon="0">
        <time>2020-12-06T09:11:50.511000+00:00</time>
      </trkpt>
      <trkpt lat="0" lon="0">
        <time>2020-12-06T09:11:50.513000+00:00</time>
      </trkpt>
      <trkpt lat="47.33765" lon="-1.24031">
        <ele>33</ele>
        <time>2020-12-06T09:11:51.494000+00:00</time>
      </trkpt>
      <trkpt lat="0" lon="0">
        <time>2020-12-06T09:11:51.503000+00:00</time>
      </trkpt>
      <trkpt lat="0" lon="0">
        <time>2020-12-06T09:11:51.505000+00:00</time>
      </trkpt>
      <trkpt lat="0" lon="0">
        <time>2020-12-06T09:11:51.506000+00:00</time>
      </trkpt>
      <trkpt lat="47.33766" lon="-1.24027">
        <ele>33</ele>
        <time>2020-12-06T09:11:52.491000+00:00</time>
      </trkpt>
      <trkpt lat="0" lon="0">
        <time>2020-12-06T09:11:52.494000+00:00</time>
      </trkpt>
      <trkpt lat="0" lon="0">
        <time>2020-12-06T09:11:52.504000+00:00</time>
      </trkpt>
      <trkpt lat="0" lon="0">
        <time>2020-12-06T09:11:52.505000+00:00</time>
      </trkpt>
      <trkpt lat="47.33766" lon="-1.24022">
        <ele>33</ele>
        <time>2020-12-06T09:11:53.512000+00:00</time>
      </trkpt>
      <trkpt lat="0" lon="0">
        <time>2020-12-06T09:11:53.526000+00:00</time>
      </trkpt>
      <trkpt lat="0" lon="0">
        <time>2020-12-06T09:11:53.532000+00:00</time>
      </trkpt>
      <trkpt lat="0" lon="0">
        <time>2020-12-06T09:11:53.533000+00:00</time>
      </trkpt>
      <trkpt lat="47.33767" lon="-1.24017">
        <ele>33</ele>
        <time>2020-12-06T09:11:54.493000+00:00</time>
      </trkpt>
      <trkpt lat="0" lon="0">
        <time>2020-12-06T09:11:54.504000+00:00</time>
      </trkpt>
      <trkpt lat="0" lon="0">
        <time>2020-12-06T09:11:54.507000+00:00</time>
      </trkpt>
      <trkpt lat="0" lon="0">
        <time>2020-12-06T09:11:54.512000+00:00</time>
      </trkpt>
      <trkpt lat="47.33767" lon="-1.24012">
        <ele>33</ele>
        <time>2020-12-06T09:11:55.520000+00:00</time>
      </trkpt>
      <trkpt lat="0" lon="0">
        <time>2020-12-06T09:11:55.524000+00:00</time>
      </trkpt>
      <trkpt lat="0" lon="0">
        <time>2020-12-06T09:11:55.527000+00:00</time>
      </trkpt>
      <trkpt lat="0" lon="0">
        <time>2020-12-06T09:11:55.529000+00:00</time>
      </trkpt>
      <trkpt lat="47.33768" lon="-1.24006">
        <ele>33</ele>
        <time>2020-12-06T09:11:56.517000+00:00</time>
      </trkpt>
      <trkpt lat="0" lon="0">
        <time>2020-12-06T09:11:56.525000+00:00</time>
      </trkpt>
      <trkpt lat="0" lon="0">
        <time>2020-12-06T09:11:56.528000+00:00</time>
      </trkpt>
      <trkpt lat="0" lon="0">
        <time>2020-12-06T09:11:56.530000+00:00</time>
      </trkpt>
      <trkpt lat="47.33768" lon="-1.24001">
        <ele>33</ele>
        <time>2020-12-06T09:11:57.521000+00:00</time>
      </trkpt>
      <trkpt lat="0" lon="0">
        <time>2020-12-06T09:11:57.537000+00:00</time>
      </trkpt>
      <trkpt lat="0" lon="0">
        <time>2020-12-06T09:11:57.539000+00:00</time>
      </trkpt>
      <trkpt lat="0" lon="0">
        <time>2020-12-06T09:11:57.540000+00:00</time>
      </trkpt>
      <trkpt lat="47.33768" lon="-1.23995">
        <ele>33</ele>
        <time>2020-12-06T09:11:58.496000+00:00</time>
      </trkpt>
      <trkpt lat="0" lon="0">
        <time>2020-12-06T09:11:58.498000+00:00</time>
      </trkpt>
      <trkpt lat="0" lon="0">
        <time>2020-12-06T09:11:58.501000+00:00</time>
      </trkpt>
      <trkpt lat="0" lon="0">
        <time>2020-12-06T09:11:58.503000+00:00</time>
      </trkpt>
      <trkpt lat="47.33767" lon="-1.23989">
        <ele>33</ele>
        <time>2020-12-06T09:11:59.480000+00:00</time>
      </trkpt>
      <trkpt lat="0" lon="0">
        <time>2020-12-06T09:11:59.488000+00:00</time>
      </trkpt>
      <trkpt lat="0" lon="0">
        <time>2020-12-06T09:11:59.489000+00:00</time>
      </trkpt>
      <trkpt lat="0" lon="0">
        <time>2020-12-06T09:11:59.490000+00:00</time>
      </trkpt>
      <trkpt lat="47.33767" lon="-1.23983">
        <ele>33</ele>
        <time>2020-12-06T09:12:00.505000+00:00</time>
      </trkpt>
      <trkpt lat="0" lon="0">
        <time>2020-12-06T09:12:00.512000+00:00</time>
      </trkpt>
      <trkpt lat="0" lon="0">
        <time>2020-12-06T09:12:00.518000+00:00</time>
      </trkpt>
      <trkpt lat="0" lon="0">
        <time>2020-12-06T09:12:00.521000+00:00</time>
      </trkpt>
      <trkpt lat="47.33766" lon="-1.23977">
        <ele>33</ele>
        <time>2020-12-06T09:12:01.509000+00:00</time>
      </trkpt>
      <trkpt lat="0" lon="0">
        <time>2020-12-06T09:12:01.520000+00:00</time>
      </trkpt>
      <trkpt lat="0" lon="0">
        <time>2020-12-06T09:12:01.524000+00:00</time>
      </trkpt>
      <trkpt lat="0" lon="0">
        <time>2020-12-06T09:12:01.525000+00:00</time>
      </trkpt>
      <trkpt lat="47.33766" lon="-1.23971">
        <ele>33</ele>
        <time>2020-12-06T09:12:02.506000+00:00</time>
      </trkpt>
      <trkpt lat="0" lon="0">
        <time>2020-12-06T09:12:02.513000+00:00</time>
      </trkpt>
      <trkpt lat="0" lon="0">
        <time>2020-12-06T09:12:02.516000+00:00</time>
      </trkpt>
      <trkpt lat="0" lon="0">
        <time>2020-12-06T09:12:02.519000+00:00</time>
      </trkpt>
      <trkpt lat="47.33765" lon="-1.23966">
        <ele>33</ele>
        <time>2020-12-06T09:12:03.488000+00:00</time>
      </trkpt>
      <trkpt lat="0" lon="0">
        <time>2020-12-06T09:12:03.492000+00:00</time>
      </trkpt>
      <trkpt lat="0" lon="0">
        <time>2020-12-06T09:12:03.496000+00:00</time>
      </trkpt>
      <trkpt lat="0" lon="0">
        <time>2020-12-06T09:12:03.499000+00:00</time>
      </trkpt>
      <trkpt lat="47.33764" lon="-1.2396">
        <ele>33</ele>
        <time>2020-12-06T09:12:04.491000+00:00</time>
      </trkpt>
      <trkpt lat="0" lon="0">
        <time>2020-12-06T09:12:04.494000+00:00</time>
      </trkpt>
      <trkpt lat="0" lon="0">
        <time>2020-12-06T09:12:04.503000+00:00</time>
      </trkpt>
      <trkpt lat="0" lon="0">
        <time>2020-12-06T09:12:04.514000+00:00</time>
      </trkpt>
      <trkpt lat="47.33763" lon="-1.23954">
        <ele>33</ele>
        <time>2020-12-06T09:12:05.517000+00:00</time>
      </trkpt>
      <trkpt lat="0" lon="0">
        <time>2020-12-06T09:12:05.526000+00:00</time>
      </trkpt>
      <trkpt lat="0" lon="0">
        <time>2020-12-06T09:12:05.529000+00:00</time>
      </trkpt>
      <trkpt lat="0" lon="0">
        <time>2020-12-06T09:12:05.531000+00:00</time>
      </trkpt>
      <trkpt lat="47.33763" lon="-1.23949">
        <ele>33</ele>
        <time>2020-12-06T09:12:06.515000+00:00</time>
      </trkpt>
      <trkpt lat="0" lon="0">
        <time>2020-12-06T09:12:06.522000+00:00</time>
      </trkpt>
      <trkpt lat="0" lon="0">
        <time>2020-12-06T09:12:06.524000+00:00</time>
      </trkpt>
      <trkpt lat="0" lon="0">
        <time>2020-12-06T09:12:06.525000+00:00</time>
      </trkpt>
      <trkpt lat="47.33762" lon="-1.23944">
        <ele>33</ele>
        <time>2020-12-06T09:12:07.523000+00:00</time>
      </trkpt>
      <trkpt lat="0" lon="0">
        <time>2020-12-06T09:12:07.526000+00:00</time>
      </trkpt>
      <trkpt lat="0" lon="0">
        <time>2020-12-06T09:12:07.533000+00:00</time>
      </trkpt>
      <trkpt lat="0" lon="0">
        <time>2020-12-06T09:12:07.539000+00:00</time>
      </trkpt>
      <trkpt lat="47.33761" lon="-1.23939">
        <ele>33</ele>
        <time>2020-12-06T09:12:08.503000+00:00</time>
      </trkpt>
      <trkpt lat="0" lon="0">
        <time>2020-12-06T09:12:08.513000+00:00</time>
      </trkpt>
      <trkpt lat="0" lon="0">
        <time>2020-12-06T09:12:08.521000+00:00</time>
      </trkpt>
      <trkpt lat="0" lon="0">
        <time>2020-12-06T09:12:08.532000+00:00</time>
      </trkpt>
      <trkpt lat="47.33761" lon="-1.23934">
        <ele>33</ele>
        <time>2020-12-06T09:12:09.510000+00:00</time>
      </trkpt>
      <trkpt lat="0" lon="0">
        <time>2020-12-06T09:12:09.513000+00:00</time>
      </trkpt>
      <trkpt lat="0" lon="0">
        <time>2020-12-06T09:12:09.524000+00:00</time>
      </trkpt>
      <trkpt lat="0" lon="0">
        <time>2020-12-06T09:12:09.525000+00:00</time>
      </trkpt>
      <trkpt lat="47.3376" lon="-1.23929">
        <ele>33</ele>
        <time>2020-12-06T09:12:10.508000+00:00</time>
      </trkpt>
      <trkpt lat="0" lon="0">
        <time>2020-12-06T09:12:10.515000+00:00</time>
      </trkpt>
      <trkpt lat="0" lon="0">
        <time>2020-12-06T09:12:10.523000+00:00</time>
      </trkpt>
      <trkpt lat="0" lon="0">
        <time>2020-12-06T09:12:10.524000+00:00</time>
      </trkpt>
      <trkpt lat="47.33759" lon="-1.23924">
        <ele>33</ele>
        <time>2020-12-06T09:12:11.517000+00:00</time>
      </trkpt>
      <trkpt lat="0" lon="0">
        <time>2020-12-06T09:12:11.521000+00:00</time>
      </trkpt>
      <trkpt lat="0" lon="0">
        <time>2020-12-06T09:12:11.525000+00:00</time>
      </trkpt>
      <trkpt lat="0" lon="0">
        <time>2020-12-06T09:12:11.528000+00:00</time>
      </trkpt>
      <trkpt lat="47.33758" lon="-1.23919">
        <ele>33</ele>
        <time>2020-12-06T09:12:12.514000+00:00</time>
      </trkpt>
      <trkpt lat="0" lon="0">
        <time>2020-12-06T09:12:12.524000+00:00</time>
      </trkpt>
      <trkpt lat="0" lon="0">
        <time>2020-12-06T09:12:12.530000+00:00</time>
      </trkpt>
      <trkpt lat="0" lon="0">
        <time>2020-12-06T09:12:12.532000+00:00</time>
      </trkpt>
      <trkpt lat="47.33758" lon="-1.23914">
        <ele>33</ele>
        <time>2020-12-06T09:12:13.541000+00:00</time>
      </trkpt>
      <trkpt lat="0" lon="0">
        <time>2020-12-06T09:12:13.546000+00:00</time>
      </trkpt>
      <trkpt lat="0" lon="0">
        <time>2020-12-06T09:12:13.548000+00:00</time>
      </trkpt>
      <trkpt lat="0" lon="0">
        <time>2020-12-06T09:12:13.549000+00:00</time>
      </trkpt>
      <trkpt lat="47.33757" lon="-1.23909">
        <ele>33</ele>
        <time>2020-12-06T09:12:14.514000+00:00</time>
      </trkpt>
      <trkpt lat="0" lon="0">
        <time>2020-12-06T09:12:14.518000+00:00</time>
      </trkpt>
      <trkpt lat="0" lon="0">
        <time>2020-12-06T09:12:14.522000+00:00</time>
      </trkpt>
      <trkpt lat="0" lon="0">
        <time>2020-12-06T09:12:14.529000+00:00</time>
      </trkpt>
      <trkpt lat="47.33756" lon="-1.23904">
        <ele>33</ele>
        <time>2020-12-06T09:12:15.491000+00:00</time>
      </trkpt>
      <trkpt lat="0" lon="0">
        <time>2020-12-06T09:12:15.502000+00:00</time>
      </trkpt>
      <trkpt lat="0" lon="0">
        <time>2020-12-06T09:12:15.506000+00:00</time>
      </trkpt>
      <trkpt lat="0" lon="0">
        <time>2020-12-06T09:12:15.508000+00:00</time>
      </trkpt>
      <trkpt lat="47.33756" lon="-1.23899">
        <ele>33</ele>
        <time>2020-12-06T09:12:16.502000+00:00</time>
      </trkpt>
      <trkpt lat="0" lon="0">
        <time>2020-12-06T09:12:16.503000+00:00</time>
      </trkpt>
      <trkpt lat="0" lon="0">
        <time>2020-12-06T09:12:16.504000+00:00</time>
      </trkpt>
      <trkpt lat="0" lon="0">
        <time>2020-12-06T09:12:16.505000+00:00</time>
      </trkpt>
      <trkpt lat="47.33755" lon="-1.23895">
        <ele>32</ele>
        <time>2020-12-06T09:12:17.513000+00:00</time>
      </trkpt>
      <trkpt lat="0" lon="0">
        <time>2020-12-06T09:12:17.521000+00:00</time>
      </trkpt>
      <trkpt lat="0" lon="0">
        <time>2020-12-06T09:12:17.523000+00:00</time>
      </trkpt>
      <trkpt lat="0" lon="0">
        <time>2020-12-06T09:12:17.524000+00:00</time>
      </trkpt>
      <trkpt lat="47.33754" lon="-1.2389">
        <ele>32</ele>
        <time>2020-12-06T09:12:18.510000+00:00</time>
      </trkpt>
      <trkpt lat="0" lon="0">
        <time>2020-12-06T09:12:18.517000+00:00</time>
      </trkpt>
      <trkpt lat="0" lon="0">
        <time>2020-12-06T09:12:18.520000+00:00</time>
      </trkpt>
      <trkpt lat="0" lon="0">
        <time>2020-12-06T09:12:18.522000+00:00</time>
      </trkpt>
      <trkpt lat="47.33754" lon="-1.23886">
        <ele>32</ele>
        <time>2020-12-06T09:12:19.535000+00:00</time>
      </trkpt>
      <trkpt lat="0" lon="0">
        <time>2020-12-06T09:12:19.539000+00:00</time>
      </trkpt>
      <trkpt lat="0" lon="0">
        <time>2020-12-06T09:12:19.540000+00:00</time>
      </trkpt>
      <trkpt lat="0" lon="0">
        <time>2020-12-06T09:12:19.541000+00:00</time>
      </trkpt>
      <trkpt lat="47.33753" lon="-1.23881">
        <ele>32</ele>
        <time>2020-12-06T09:12:20.505000+00:00</time>
      </trkpt>
      <trkpt lat="0" lon="0">
        <time>2020-12-06T09:12:20.512000+00:00</time>
      </trkpt>
      <trkpt lat="0" lon="0">
        <time>2020-12-06T09:12:20.515000+00:00</time>
      </trkpt>
      <trkpt lat="0" lon="0">
        <time>2020-12-06T09:12:20.517000+00:00</time>
      </trkpt>
      <trkpt lat="47.33752" lon="-1.23877">
        <ele>32</ele>
        <time>2020-12-06T09:12:21.505000+00:00</time>
      </trkpt>
      <trkpt lat="0" lon="0">
        <time>2020-12-06T09:12:21.508000+00:00</time>
      </trkpt>
      <trkpt lat="0" lon="0">
        <time>2020-12-06T09:12:21.517000+00:00</time>
      </trkpt>
      <trkpt lat="0" lon="0">
        <time>2020-12-06T09:12:21.528000+00:00</time>
      </trkpt>
      <trkpt lat="47.33751" lon="-1.23873">
        <ele>32</ele>
        <time>2020-12-06T09:12:22.513000+00:00</time>
      </trkpt>
      <trkpt lat="0" lon="0">
        <time>2020-12-06T09:12:22.522000+00:00</time>
      </trkpt>
      <trkpt lat="0" lon="0">
        <time>2020-12-06T09:12:22.524000+00:00</time>
      </trkpt>
      <trkpt lat="47.3375" lon="-1.23871">
        <ele>32</ele>
        <time>2020-12-06T09:12:23.512000+00:00</time>
      </trkpt>
      <trkpt lat="0" lon="0">
        <time>2020-12-06T09:12:23.520000+00:00</time>
      </trkpt>
      <trkpt lat="0" lon="0">
        <time>2020-12-06T09:12:23.527000+00:00</time>
      </trkpt>
      <trkpt lat="0" lon="0">
        <time>2020-12-06T09:12:23.528000+00:00</time>
      </trkpt>
      <trkpt lat="47.33748" lon="-1.23869">
        <ele>32</ele>
        <time>2020-12-06T09:12:24.512000+00:00</time>
      </trkpt>
      <trkpt lat="0" lon="0">
        <time>2020-12-06T09:12:24.520000+00:00</time>
      </trkpt>
      <trkpt lat="0" lon="0">
        <time>2020-12-06T09:12:24.533000+00:00</time>
      </trkpt>
      <trkpt lat="0" lon="0">
        <time>2020-12-06T09:12:24.537000+00:00</time>
      </trkpt>
      <trkpt lat="47.33746" lon="-1.23868">
        <ele>33</ele>
        <time>2020-12-06T09:12:25.493000+00:00</time>
      </trkpt>
      <trkpt lat="0" lon="0">
        <time>2020-12-06T09:12:25.505000+00:00</time>
      </trkpt>
      <trkpt lat="0" lon="0">
        <time>2020-12-06T09:12:25.514000+00:00</time>
      </trkpt>
      <trkpt lat="0" lon="0">
        <time>2020-12-06T09:12:25.518000+00:00</time>
      </trkpt>
      <trkpt lat="47.33744" lon="-1.23867">
        <ele>33</ele>
        <time>2020-12-06T09:12:26.499000+00:00</time>
      </trkpt>
      <trkpt lat="0" lon="0">
        <time>2020-12-06T09:12:26.505000+00:00</time>
      </trkpt>
      <trkpt lat="0" lon="0">
        <time>2020-12-06T09:12:26.506000+00:00</time>
      </trkpt>
      <trkpt lat="0" lon="0">
        <time>2020-12-06T09:12:26.507000+00:00</time>
      </trkpt>
      <trkpt lat="47.33741" lon="-1.23868">
        <ele>33</ele>
        <time>2020-12-06T09:12:27.526000+00:00</time>
      </trkpt>
      <trkpt lat="0" lon="0">
        <time>2020-12-06T09:12:27.533000+00:00</time>
      </trkpt>
      <trkpt lat="0" lon="0">
        <time>2020-12-06T09:12:27.538000+00:00</time>
      </trkpt>
      <trkpt lat="0" lon="0">
        <time>2020-12-06T09:12:27.540000+00:00</time>
      </trkpt>
      <trkpt lat="47.33738" lon="-1.23869">
        <ele>33</ele>
        <time>2020-12-06T09:12:28.506000+00:00</time>
      </trkpt>
      <trkpt lat="0" lon="0">
        <time>2020-12-06T09:12:28.516000+00:00</time>
      </trkpt>
      <trkpt lat="0" lon="0">
        <time>2020-12-06T09:12:28.520000+00:00</time>
      </trkpt>
      <trkpt lat="0" lon="0">
        <time>2020-12-06T09:12:28.522000+00:00</time>
      </trkpt>
      <trkpt lat="47.33735" lon="-1.2387">
        <ele>33</ele>
        <time>2020-12-06T09:12:29.536000+00:00</time>
      </trkpt>
      <trkpt lat="0" lon="0">
        <time>2020-12-06T09:12:29.541000+00:00</time>
      </trkpt>
      <trkpt lat="0" lon="0">
        <time>2020-12-06T09:12:29.543000+00:00</time>
      </trkpt>
      <trkpt lat="0" lon="0">
        <time>2020-12-06T09:12:29.547000+00:00</time>
      </trkpt>
      <trkpt lat="47.33732" lon="-1.23872">
        <ele>33</ele>
        <time>2020-12-06T09:12:30.501000+00:00</time>
      </trkpt>
      <trkpt lat="0" lon="0">
        <time>2020-12-06T09:12:30.519000+00:00</time>
      </trkpt>
      <trkpt lat="0" lon="0">
        <time>2020-12-06T09:12:30.523000+00:00</time>
      </trkpt>
      <trkpt lat="0" lon="0">
        <time>2020-12-06T09:12:30.525000+00:00</time>
      </trkpt>
      <trkpt lat="47.33729" lon="-1.23873">
        <ele>34</ele>
        <time>2020-12-06T09:12:31.528000+00:00</time>
      </trkpt>
      <trkpt lat="0" lon="0">
        <time>2020-12-06T09:12:31.533000+00:00</time>
      </trkpt>
      <trkpt lat="0" lon="0">
        <time>2020-12-06T09:12:31.535000+00:00</time>
      </trkpt>
      <trkpt lat="0" lon="0">
        <time>2020-12-06T09:12:31.536000+00:00</time>
      </trkpt>
      <trkpt lat="47.33725" lon="-1.23875">
        <ele>34</ele>
        <time>2020-12-06T09:12:32.556000+00:00</time>
      </trkpt>
      <trkpt lat="0" lon="0">
        <time>2020-12-06T09:12:32.558000+00:00</time>
      </trkpt>
      <trkpt lat="0" lon="0">
        <time>2020-12-06T09:12:32.560000+00:00</time>
      </trkpt>
      <trkpt lat="0" lon="0">
        <time>2020-12-06T09:12:32.561000+00:00</time>
      </trkpt>
      <trkpt lat="47.33722" lon="-1.23877">
        <ele>34</ele>
        <time>2020-12-06T09:12:33.510000+00:00</time>
      </trkpt>
      <trkpt lat="0" lon="0">
        <time>2020-12-06T09:12:33.514000+00:00</time>
      </trkpt>
      <trkpt lat="0" lon="0">
        <time>2020-12-06T09:12:33.515000+00:00</time>
      </trkpt>
      <trkpt lat="47.33719" lon="-1.23879">
        <ele>35</ele>
        <time>2020-12-06T09:12:34.480000+00:00</time>
      </trkpt>
      <trkpt lat="0" lon="0">
        <time>2020-12-06T09:12:34.489000+00:00</time>
      </trkpt>
      <trkpt lat="0" lon="0">
        <time>2020-12-06T09:12:34.490000+00:00</time>
      </trkpt>
      <trkpt lat="0" lon="0">
        <time>2020-12-06T09:12:34.491000+00:00</time>
      </trkpt>
      <trkpt lat="47.33715" lon="-1.23881">
        <ele>35</ele>
        <time>2020-12-06T09:12:35.542000+00:00</time>
      </trkpt>
      <trkpt lat="0" lon="0">
        <time>2020-12-06T09:12:35.556000+00:00</time>
      </trkpt>
      <trkpt lat="0" lon="0">
        <time>2020-12-06T09:12:35.559000+00:00</time>
      </trkpt>
      <trkpt lat="0" lon="0">
        <time>2020-12-06T09:12:35.561000+00:00</time>
      </trkpt>
      <trkpt lat="47.33712" lon="-1.23883">
        <ele>35</ele>
        <time>2020-12-06T09:12:36.525000+00:00</time>
      </trkpt>
      <trkpt lat="0" lon="0">
        <time>2020-12-06T09:12:36.538000+00:00</time>
      </trkpt>
      <trkpt lat="0" lon="0">
        <time>2020-12-06T09:12:36.540000+00:00</time>
      </trkpt>
      <trkpt lat="0" lon="0">
        <time>2020-12-06T09:12:36.541000+00:00</time>
      </trkpt>
      <trkpt lat="47.33709" lon="-1.23885">
        <ele>35</ele>
        <time>2020-12-06T09:12:37.552000+00:00</time>
      </trkpt>
      <trkpt lat="0" lon="0">
        <time>2020-12-06T09:12:37.566000+00:00</time>
      </trkpt>
      <trkpt lat="0" lon="0">
        <time>2020-12-06T09:12:37.570000+00:00</time>
      </trkpt>
      <trkpt lat="0" lon="0">
        <time>2020-12-06T09:12:37.572000+00:00</time>
      </trkpt>
      <trkpt lat="47.33706" lon="-1.23887">
        <ele>36</ele>
        <time>2020-12-06T09:12:38.532000+00:00</time>
      </trkpt>
      <trkpt lat="0" lon="0">
        <time>2020-12-06T09:12:38.539000+00:00</time>
      </trkpt>
      <trkpt lat="0" lon="0">
        <time>2020-12-06T09:12:38.540000+00:00</time>
      </trkpt>
      <trkpt lat="0" lon="0">
        <time>2020-12-06T09:12:38.541000+00:00</time>
      </trkpt>
      <trkpt lat="47.33703" lon="-1.23889">
        <ele>36</ele>
        <time>2020-12-06T09:12:39.530000+00:00</time>
      </trkpt>
      <trkpt lat="0" lon="0">
        <time>2020-12-06T09:12:39.533000+00:00</time>
      </trkpt>
      <trkpt lat="0" lon="0">
        <time>2020-12-06T09:12:39.540000+00:00</time>
      </trkpt>
      <trkpt lat="0" lon="0">
        <time>2020-12-06T09:12:39.542000+00:00</time>
      </trkpt>
      <trkpt lat="47.337" lon="-1.23891">
        <ele>36</ele>
        <time>2020-12-06T09:12:40.548000+00:00</time>
      </trkpt>
      <trkpt lat="0" lon="0">
        <time>2020-12-06T09:12:40.554000+00:00</time>
      </trkpt>
      <trkpt lat="0" lon="0">
        <time>2020-12-06T09:12:40.556000+00:00</time>
      </trkpt>
      <trkpt lat="0" lon="0">
        <time>2020-12-06T09:12:40.559000+00:00</time>
      </trkpt>
      <trkpt lat="47.33698" lon="-1.23892">
        <ele>36</ele>
        <time>2020-12-06T09:12:41.514000+00:00</time>
      </trkpt>
      <trkpt lat="0" lon="0">
        <time>2020-12-06T09:12:41.524000+00:00</time>
      </trkpt>
      <trkpt lat="0" lon="0">
        <time>2020-12-06T09:12:41.525000+00:00</time>
      </trkpt>
      <trkpt lat="0" lon="0">
        <time>2020-12-06T09:12:41.526000+00:00</time>
      </trkpt>
      <trkpt lat="47.33695" lon="-1.23893">
        <ele>37</ele>
        <time>2020-12-06T09:12:42.520000+00:00</time>
      </trkpt>
      <trkpt lat="0" lon="0">
        <time>2020-12-06T09:12:42.529000+00:00</time>
      </trkpt>
      <trkpt lat="0" lon="0">
        <time>2020-12-06T09:12:42.533000+00:00</time>
      </trkpt>
      <trkpt lat="0" lon="0">
        <time>2020-12-06T09:12:42.540000+00:00</time>
      </trkpt>
      <trkpt lat="47.33692" lon="-1.23894">
        <ele>37</ele>
        <time>2020-12-06T09:12:43.541000+00:00</time>
      </trkpt>
      <trkpt lat="0" lon="0">
        <time>2020-12-06T09:12:43.548000+00:00</time>
      </trkpt>
      <trkpt lat="0" lon="0">
        <time>2020-12-06T09:12:43.551000+00:00</time>
      </trkpt>
      <trkpt lat="0" lon="0">
        <time>2020-12-06T09:12:43.553000+00:00</time>
      </trkpt>
      <trkpt lat="47.3369" lon="-1.23895">
        <ele>37</ele>
        <time>2020-12-06T09:12:44.530000+00:00</time>
      </trkpt>
      <trkpt lat="0" lon="0">
        <time>2020-12-06T09:12:44.534000+00:00</time>
      </trkpt>
      <trkpt lat="0" lon="0">
        <time>2020-12-06T09:12:44.536000+00:00</time>
      </trkpt>
      <trkpt lat="0" lon="0">
        <time>2020-12-06T09:12:44.537000+00:00</time>
      </trkpt>
      <trkpt lat="47.33687" lon="-1.23896">
        <ele>37</ele>
        <time>2020-12-06T09:12:45.517000+00:00</time>
      </trkpt>
      <trkpt lat="0" lon="0">
        <time>2020-12-06T09:12:45.524000+00:00</time>
      </trkpt>
      <trkpt lat="0" lon="0">
        <time>2020-12-06T09:12:45.536000+00:00</time>
      </trkpt>
      <trkpt lat="0" lon="0">
        <time>2020-12-06T09:12:45.537000+00:00</time>
      </trkpt>
      <trkpt lat="47.33684" lon="-1.23897">
        <ele>37</ele>
        <time>2020-12-06T09:12:46.531000+00:00</time>
      </trkpt>
      <trkpt lat="0" lon="0">
        <time>2020-12-06T09:12:46.534000+00:00</time>
      </trkpt>
      <trkpt lat="0" lon="0">
        <time>2020-12-06T09:12:46.539000+00:00</time>
      </trkpt>
      <trkpt lat="0" lon="0">
        <time>2020-12-06T09:12:46.540000+00:00</time>
      </trkpt>
      <trkpt lat="47.33682" lon="-1.23897">
        <ele>38</ele>
        <time>2020-12-06T09:12:47.532000+00:00</time>
      </trkpt>
      <trkpt lat="0" lon="0">
        <time>2020-12-06T09:12:47.540000+00:00</time>
      </trkpt>
      <trkpt lat="0" lon="0">
        <time>2020-12-06T09:12:47.544000+00:00</time>
      </trkpt>
      <trkpt lat="0" lon="0">
        <time>2020-12-06T09:12:47.545000+00:00</time>
      </trkpt>
      <trkpt lat="47.33679" lon="-1.23898">
        <ele>38</ele>
        <time>2020-12-06T09:12:48.505000+00:00</time>
      </trkpt>
      <trkpt lat="0" lon="0">
        <time>2020-12-06T09:12:48.509000+00:00</time>
      </trkpt>
      <trkpt lat="0" lon="0">
        <time>2020-12-06T09:12:48.510000+00:00</time>
      </trkpt>
      <trkpt lat="0" lon="0">
        <time>2020-12-06T09:12:48.511000+00:00</time>
      </trkpt>
      <trkpt lat="47.33676" lon="-1.23898">
        <ele>38</ele>
        <time>2020-12-06T09:12:49.534000+00:00</time>
      </trkpt>
      <trkpt lat="0" lon="0">
        <time>2020-12-06T09:12:49.539000+00:00</time>
      </trkpt>
      <trkpt lat="0" lon="0">
        <time>2020-12-06T09:12:49.542000+00:00</time>
      </trkpt>
      <trkpt lat="0" lon="0">
        <time>2020-12-06T09:12:49.544000+00:00</time>
      </trkpt>
      <trkpt lat="47.33674" lon="-1.23899">
        <ele>38</ele>
        <time>2020-12-06T09:12:50.536000+00:00</time>
      </trkpt>
      <trkpt lat="0" lon="0">
        <time>2020-12-06T09:12:50.549000+00:00</time>
      </trkpt>
      <trkpt lat="0" lon="0">
        <time>2020-12-06T09:12:50.551000+00:00</time>
      </trkpt>
      <trkpt lat="0" lon="0">
        <time>2020-12-06T09:12:50.552000+00:00</time>
      </trkpt>
      <trkpt lat="47.33671" lon="-1.23899">
        <ele>38</ele>
        <time>2020-12-06T09:12:51.530000+00:00</time>
      </trkpt>
      <trkpt lat="0" lon="0">
        <time>2020-12-06T09:12:51.544000+00:00</time>
      </trkpt>
      <trkpt lat="0" lon="0">
        <time>2020-12-06T09:12:51.549000+00:00</time>
      </trkpt>
      <trkpt lat="0" lon="0">
        <time>2020-12-06T09:12:51.553000+00:00</time>
      </trkpt>
      <trkpt lat="47.33669" lon="-1.23899">
        <ele>39</ele>
        <time>2020-12-06T09:12:52.522000+00:00</time>
      </trkpt>
      <trkpt lat="0" lon="0">
        <time>2020-12-06T09:12:52.537000+00:00</time>
      </trkpt>
      <trkpt lat="0" lon="0">
        <time>2020-12-06T09:12:52.540000+00:00</time>
      </trkpt>
      <trkpt lat="0" lon="0">
        <time>2020-12-06T09:12:52.542000+00:00</time>
      </trkpt>
      <trkpt lat="47.33666" lon="-1.23899">
        <ele>39</ele>
        <time>2020-12-06T09:12:53.558000+00:00</time>
      </trkpt>
      <trkpt lat="0" lon="0">
        <time>2020-12-06T09:12:53.561000+00:00</time>
      </trkpt>
      <trkpt lat="0" lon="0">
        <time>2020-12-06T09:12:53.569000+00:00</time>
      </trkpt>
      <trkpt lat="0" lon="0">
        <time>2020-12-06T09:12:53.572000+00:00</time>
      </trkpt>
      <trkpt lat="47.33665" lon="-1.23899">
        <ele>39</ele>
        <time>2020-12-06T09:12:54.509000+00:00</time>
      </trkpt>
      <trkpt lat="0" lon="0">
        <time>2020-12-06T09:12:54.513000+00:00</time>
      </trkpt>
      <trkpt lat="0" lon="0">
        <time>2020-12-06T09:12:54.517000+00:00</time>
      </trkpt>
      <trkpt lat="0" lon="0">
        <time>2020-12-06T09:12:54.519000+00:00</time>
      </trkpt>
      <trkpt lat="47.33663" lon="-1.23898">
        <ele>39</ele>
        <time>2020-12-06T09:12:55.529000+00:00</time>
      </trkpt>
      <trkpt lat="0" lon="0">
        <time>2020-12-06T09:12:55.536000+00:00</time>
      </trkpt>
      <trkpt lat="0" lon="0">
        <time>2020-12-06T09:12:55.546000+00:00</time>
      </trkpt>
      <trkpt lat="0" lon="0">
        <time>2020-12-06T09:12:55.547000+00:00</time>
      </trkpt>
      <trkpt lat="47.33661" lon="-1.23897">
        <ele>39</ele>
        <time>2020-12-06T09:12:56.526000+00:00</time>
      </trkpt>
      <trkpt lat="0" lon="0">
        <time>2020-12-06T09:12:56.529000+00:00</time>
      </trkpt>
      <trkpt lat="0" lon="0">
        <time>2020-12-06T09:12:56.538000+00:00</time>
      </trkpt>
      <trkpt lat="0" lon="0">
        <time>2020-12-06T09:12:56.540000+00:00</time>
      </trkpt>
      <trkpt lat="47.33661" lon="-1.23895">
        <ele>39</ele>
        <time>2020-12-06T09:12:57.493000+00:00</time>
      </trkpt>
      <trkpt lat="0" lon="0">
        <time>2020-12-06T09:12:57.497000+00:00</time>
      </trkpt>
      <trkpt lat="0" lon="0">
        <time>2020-12-06T09:12:57.512000+00:00</time>
      </trkpt>
      <trkpt lat="0" lon="0">
        <time>2020-12-06T09:12:57.514000+00:00</time>
      </trkpt>
      <trkpt lat="47.33661" lon="-1.23893">
        <ele>39</ele>
        <time>2020-12-06T09:12:58.513000+00:00</time>
      </trkpt>
      <trkpt lat="0" lon="0">
        <time>2020-12-06T09:12:58.531000+00:00</time>
      </trkpt>
      <trkpt lat="0" lon="0">
        <time>2020-12-06T09:12:58.537000+00:00</time>
      </trkpt>
      <trkpt lat="0" lon="0">
        <time>2020-12-06T09:12:58.539000+00:00</time>
      </trkpt>
      <trkpt lat="47.33662" lon="-1.2389">
        <ele>39</ele>
        <time>2020-12-06T09:12:59.509000+00:00</time>
      </trkpt>
      <trkpt lat="0" lon="0">
        <time>2020-12-06T09:12:59.510000+00:00</time>
      </trkpt>
      <trkpt lat="0" lon="0">
        <time>2020-12-06T09:12:59.513000+00:00</time>
      </trkpt>
      <trkpt lat="0" lon="0">
        <time>2020-12-06T09:12:59.514000+00:00</time>
      </trkpt>
      <trkpt lat="47.33663" lon="-1.23888">
        <ele>38</ele>
        <time>2020-12-06T09:13:00.516000+00:00</time>
      </trkpt>
      <trkpt lat="0" lon="0">
        <time>2020-12-06T09:13:00.524000+00:00</time>
      </trkpt>
      <trkpt lat="0" lon="0">
        <time>2020-12-06T09:13:00.527000+00:00</time>
      </trkpt>
      <trkpt lat="0" lon="0">
        <time>2020-12-06T09:13:00.529000+00:00</time>
      </trkpt>
      <trkpt lat="47.33666" lon="-1.23885">
        <ele>38</ele>
        <time>2020-12-06T09:13:01.550000+00:00</time>
      </trkpt>
      <trkpt lat="0" lon="0">
        <time>2020-12-06T09:13:01.558000+00:00</time>
      </trkpt>
      <trkpt lat="0" lon="0">
        <time>2020-12-06T09:13:01.570000+00:00</time>
      </trkpt>
      <trkpt lat="0" lon="0">
        <time>2020-12-06T09:13:01.572000+00:00</time>
      </trkpt>
      <trkpt lat="47.33669" lon="-1.23882">
        <ele>38</ele>
        <time>2020-12-06T09:13:02.548000+00:00</time>
      </trkpt>
      <trkpt lat="0" lon="0">
        <time>2020-12-06T09:13:02.553000+00:00</time>
      </trkpt>
      <trkpt lat="0" lon="0">
        <time>2020-12-06T09:13:02.556000+00:00</time>
      </trkpt>
      <trkpt lat="47.33672" lon="-1.23878">
        <ele>37</ele>
        <time>2020-12-06T09:13:03.507000+00:00</time>
      </trkpt>
      <trkpt lat="0" lon="0">
        <time>2020-12-06T09:13:03.511000+00:00</time>
      </trkpt>
      <trkpt lat="0" lon="0">
        <time>2020-12-06T09:13:03.520000+00:00</time>
      </trkpt>
      <trkpt lat="0" lon="0">
        <time>2020-12-06T09:13:03.522000+00:00</time>
      </trkpt>
      <trkpt lat="47.33676" lon="-1.23875">
        <ele>37</ele>
        <time>2020-12-06T09:13:04.526000+00:00</time>
      </trkpt>
      <trkpt lat="0" lon="0">
        <time>2020-12-06T09:13:04.530000+00:00</time>
      </trkpt>
      <trkpt lat="0" lon="0">
        <time>2020-12-06T09:13:04.533000+00:00</time>
      </trkpt>
      <trkpt lat="47.33681" lon="-1.23871">
        <ele>36</ele>
        <time>2020-12-06T09:13:05.551000+00:00</time>
      </trkpt>
      <trkpt lat="0" lon="0">
        <time>2020-12-06T09:13:05.556000+00:00</time>
      </trkpt>
      <trkpt lat="0" lon="0">
        <time>2020-12-06T09:13:05.565000+00:00</time>
      </trkpt>
      <trkpt lat="0" lon="0">
        <time>2020-12-06T09:13:05.566000+00:00</time>
      </trkpt>
      <trkpt lat="47.33686" lon="-1.23867">
        <ele>36</ele>
        <time>2020-12-06T09:13:06.583000+00:00</time>
      </trkpt>
      <trkpt lat="0" lon="0">
        <time>2020-12-06T09:13:06.595000+00:00</time>
      </trkpt>
      <trkpt lat="0" lon="0">
        <time>2020-12-06T09:13:06.601000+00:00</time>
      </trkpt>
      <trkpt lat="0" lon="0">
        <time>2020-12-06T09:13:06.604000+00:00</time>
      </trkpt>
      <trkpt lat="47.33691" lon="-1.23863">
        <ele>36</ele>
        <time>2020-12-06T09:13:07.546000+00:00</time>
      </trkpt>
      <trkpt lat="0" lon="0">
        <time>2020-12-06T09:13:07.551000+00:00</time>
      </trkpt>
      <trkpt lat="0" lon="0">
        <time>2020-12-06T09:13:07.557000+00:00</time>
      </trkpt>
      <trkpt lat="0" lon="0">
        <time>2020-12-06T09:13:07.558000+00:00</time>
      </trkpt>
      <trkpt lat="47.33697" lon="-1.23859">
        <ele>35</ele>
        <time>2020-12-06T09:13:08.521000+00:00</time>
      </trkpt>
      <trkpt lat="0" lon="0">
        <time>2020-12-06T09:13:08.525000+00:00</time>
      </trkpt>
      <trkpt lat="0" lon="0">
        <time>2020-12-06T09:13:08.532000+00:00</time>
      </trkpt>
      <trkpt lat="0" lon="0">
        <time>2020-12-06T09:13:08.539000+00:00</time>
      </trkpt>
      <trkpt lat="47.33703" lon="-1.23854">
        <ele>35</ele>
        <time>2020-12-06T09:13:09.550000+00:00</time>
      </trkpt>
      <trkpt lat="0" lon="0">
        <time>2020-12-06T09:13:09.553000+00:00</time>
      </trkpt>
      <trkpt lat="0" lon="0">
        <time>2020-12-06T09:13:09.564000+00:00</time>
      </trkpt>
      <trkpt lat="0" lon="0">
        <time>2020-12-06T09:13:09.565000+00:00</time>
      </trkpt>
      <trkpt lat="47.33709" lon="-1.23849">
        <ele>34</ele>
        <time>2020-12-06T09:13:10.560000+00:00</time>
      </trkpt>
      <trkpt lat="0" lon="0">
        <time>2020-12-06T09:13:10.577000+00:00</time>
      </trkpt>
      <trkpt lat="0" lon="0">
        <time>2020-12-06T09:13:10.588000+00:00</time>
      </trkpt>
      <trkpt lat="0" lon="0">
        <time>2020-12-06T09:13:10.589000+00:00</time>
      </trkpt>
      <trkpt lat="47.33715" lon="-1.23844">
        <ele>34</ele>
        <time>2020-12-06T09:13:11.559000+00:00</time>
      </trkpt>
      <trkpt lat="0" lon="0">
        <time>2020-12-06T09:13:11.562000+00:00</time>
      </trkpt>
      <trkpt lat="0" lon="0">
        <time>2020-12-06T09:13:11.572000+00:00</time>
      </trkpt>
      <trkpt lat="0" lon="0">
        <time>2020-12-06T09:13:11.574000+00:00</time>
      </trkpt>
      <trkpt lat="47.33721" lon="-1.23839">
        <ele>33</ele>
        <time>2020-12-06T09:13:12.587000+00:00</time>
      </trkpt>
      <trkpt lat="0" lon="0">
        <time>2020-12-06T09:13:12.592000+00:00</time>
      </trkpt>
      <trkpt lat="0" lon="0">
        <time>2020-12-06T09:13:12.610000+00:00</time>
      </trkpt>
      <trkpt lat="0" lon="0">
        <time>2020-12-06T09:13:12.613000+00:00</time>
      </trkpt>
      <trkpt lat="47.33726" lon="-1.23834">
        <ele>33</ele>
        <time>2020-12-06T09:13:13.564000+00:00</time>
      </trkpt>
      <trkpt lat="0" lon="0">
        <time>2020-12-06T09:13:13.565000+00:00</time>
      </trkpt>
      <trkpt lat="0" lon="0">
        <time>2020-12-06T09:13:13.567000+00:00</time>
      </trkpt>
      <trkpt lat="0" lon="0">
        <time>2020-12-06T09:13:13.568000+00:00</time>
      </trkpt>
      <trkpt lat="47.33732" lon="-1.23828">
        <ele>32</ele>
        <time>2020-12-06T09:13:14.558000+00:00</time>
      </trkpt>
      <trkpt lat="0" lon="0">
        <time>2020-12-06T09:13:14.565000+00:00</time>
      </trkpt>
      <trkpt lat="0" lon="0">
        <time>2020-12-06T09:13:14.569000+00:00</time>
      </trkpt>
      <trkpt lat="0" lon="0">
        <time>2020-12-06T09:13:14.571000+00:00</time>
      </trkpt>
      <trkpt lat="47.33738" lon="-1.23823">
        <ele>32</ele>
        <time>2020-12-06T09:13:15.552000+00:00</time>
      </trkpt>
      <trkpt lat="0" lon="0">
        <time>2020-12-06T09:13:15.560000+00:00</time>
      </trkpt>
      <trkpt lat="0" lon="0">
        <time>2020-12-06T09:13:15.567000+00:00</time>
      </trkpt>
      <trkpt lat="0" lon="0">
        <time>2020-12-06T09:13:15.568000+00:00</time>
      </trkpt>
      <trkpt lat="47.33744" lon="-1.23818">
        <ele>31</ele>
        <time>2020-12-06T09:13:16.557000+00:00</time>
      </trkpt>
      <trkpt lat="0" lon="0">
        <time>2020-12-06T09:13:16.564000+00:00</time>
      </trkpt>
      <trkpt lat="0" lon="0">
        <time>2020-12-06T09:13:16.568000+00:00</time>
      </trkpt>
      <trkpt lat="0" lon="0">
        <time>2020-12-06T09:13:16.569000+00:00</time>
      </trkpt>
      <trkpt lat="47.3375" lon="-1.23813">
        <ele>31</ele>
        <time>2020-12-06T09:13:17.580000+00:00</time>
      </trkpt>
      <trkpt lat="0" lon="0">
        <time>2020-12-06T09:13:17.584000+00:00</time>
      </trkpt>
      <trkpt lat="0" lon="0">
        <time>2020-12-06T09:13:17.586000+00:00</time>
      </trkpt>
      <trkpt lat="47.33756" lon="-1.23809">
        <ele>30</ele>
        <time>2020-12-06T09:13:18.542000+00:00</time>
      </trkpt>
      <trkpt lat="0" lon="0">
        <time>2020-12-06T09:13:18.546000+00:00</time>
      </trkpt>
      <trkpt lat="0" lon="0">
        <time>2020-12-06T09:13:18.548000+00:00</time>
      </trkpt>
      <trkpt lat="0" lon="0">
        <time>2020-12-06T09:13:18.549000+00:00</time>
      </trkpt>
      <trkpt lat="47.33763" lon="-1.23805">
        <ele>29</ele>
        <time>2020-12-06T09:13:19.582000+00:00</time>
      </trkpt>
      <trkpt lat="0" lon="0">
        <time>2020-12-06T09:13:19.594000+00:00</time>
      </trkpt>
      <trkpt lat="0" lon="0">
        <time>2020-12-06T09:13:19.601000+00:00</time>
      </trkpt>
      <trkpt lat="0" lon="0">
        <time>2020-12-06T09:13:19.605000+00:00</time>
      </trkpt>
      <trkpt lat="47.3377" lon="-1.23801">
        <ele>28</ele>
        <time>2020-12-06T09:13:20.549000+00:00</time>
      </trkpt>
      <trkpt lat="0" lon="0">
        <time>2020-12-06T09:13:20.556000+00:00</time>
      </trkpt>
      <trkpt lat="0" lon="0">
        <time>2020-12-06T09:13:20.562000+00:00</time>
      </trkpt>
      <trkpt lat="0" lon="0">
        <time>2020-12-06T09:13:20.565000+00:00</time>
      </trkpt>
      <trkpt lat="47.33777" lon="-1.23799">
        <ele>28</ele>
        <time>2020-12-06T09:13:21.529000+00:00</time>
      </trkpt>
      <trkpt lat="0" lon="0">
        <time>2020-12-06T09:13:21.542000+00:00</time>
      </trkpt>
      <trkpt lat="0" lon="0">
        <time>2020-12-06T09:13:21.546000+00:00</time>
      </trkpt>
      <trkpt lat="0" lon="0">
        <time>2020-12-06T09:13:21.549000+00:00</time>
      </trkpt>
      <trkpt lat="47.33784" lon="-1.23798">
        <ele>27</ele>
        <time>2020-12-06T09:13:22.579000+00:00</time>
      </trkpt>
      <trkpt lat="0" lon="0">
        <time>2020-12-06T09:13:22.585000+00:00</time>
      </trkpt>
      <trkpt lat="0" lon="0">
        <time>2020-12-06T09:13:22.587000+00:00</time>
      </trkpt>
      <trkpt lat="0" lon="0">
        <time>2020-12-06T09:13:22.588000+00:00</time>
      </trkpt>
      <trkpt lat="47.33791" lon="-1.23798">
        <ele>26</ele>
        <time>2020-12-06T09:13:23.532000+00:00</time>
      </trkpt>
      <trkpt lat="0" lon="0">
        <time>2020-12-06T09:13:23.535000+00:00</time>
      </trkpt>
      <trkpt lat="0" lon="0">
        <time>2020-12-06T09:13:23.537000+00:00</time>
      </trkpt>
      <trkpt lat="0" lon="0">
        <time>2020-12-06T09:13:23.539000+00:00</time>
      </trkpt>
      <trkpt lat="47.33799" lon="-1.23798">
        <ele>26</ele>
        <time>2020-12-06T09:13:24.522000+00:00</time>
      </trkpt>
      <trkpt lat="0" lon="0">
        <time>2020-12-06T09:13:24.524000+00:00</time>
      </trkpt>
      <trkpt lat="0" lon="0">
        <time>2020-12-06T09:13:24.525000+00:00</time>
      </trkpt>
      <trkpt lat="0" lon="0">
        <time>2020-12-06T09:13:24.526000+00:00</time>
      </trkpt>
      <trkpt lat="47.33807" lon="-1.238">
        <ele>25</ele>
        <time>2020-12-06T09:13:25.481000+00:00</time>
      </trkpt>
      <trkpt lat="0" lon="0">
        <time>2020-12-06T09:13:25.485000+00:00</time>
      </trkpt>
      <trkpt lat="0" lon="0">
        <time>2020-12-06T09:13:25.497000+00:00</time>
      </trkpt>
      <trkpt lat="0" lon="0">
        <time>2020-12-06T09:13:25.500000+00:00</time>
      </trkpt>
      <trkpt lat="47.33815" lon="-1.23802">
        <ele>24</ele>
        <time>2020-12-06T09:13:26.484000+00:00</time>
      </trkpt>
      <trkpt lat="0" lon="0">
        <time>2020-12-06T09:13:26.488000+00:00</time>
      </trkpt>
      <trkpt lat="0" lon="0">
        <time>2020-12-06T09:13:26.495000+00:00</time>
      </trkpt>
      <trkpt lat="0" lon="0">
        <time>2020-12-06T09:13:26.496000+00:00</time>
      </trkpt>
      <trkpt lat="47.33823" lon="-1.23805">
        <ele>23</ele>
        <time>2020-12-06T09:13:27.513000+00:00</time>
      </trkpt>
      <trkpt lat="0" lon="0">
        <time>2020-12-06T09:13:27.517000+00:00</time>
      </trkpt>
      <trkpt lat="0" lon="0">
        <time>2020-12-06T09:13:27.519000+00:00</time>
      </trkpt>
      <trkpt lat="0" lon="0">
        <time>2020-12-06T09:13:27.520000+00:00</time>
      </trkpt>
      <trkpt lat="47.33831" lon="-1.23808">
        <ele>23</ele>
        <time>2020-12-06T09:13:28.540000+00:00</time>
      </trkpt>
      <trkpt lat="0" lon="0">
        <time>2020-12-06T09:13:28.550000+00:00</time>
      </trkpt>
      <trkpt lat="0" lon="0">
        <time>2020-12-06T09:13:28.553000+00:00</time>
      </trkpt>
      <trkpt lat="0" lon="0">
        <time>2020-12-06T09:13:28.554000+00:00</time>
      </trkpt>
      <trkpt lat="47.33839" lon="-1.23812">
        <ele>22</ele>
        <time>2020-12-06T09:13:29.541000+00:00</time>
      </trkpt>
      <trkpt lat="0" lon="0">
        <time>2020-12-06T09:13:29.546000+00:00</time>
      </trkpt>
      <trkpt lat="0" lon="0">
        <time>2020-12-06T09:13:29.548000+00:00</time>
      </trkpt>
      <trkpt lat="0" lon="0">
        <time>2020-12-06T09:13:29.549000+00:00</time>
      </trkpt>
      <trkpt lat="47.33847" lon="-1.23816">
        <ele>21</ele>
        <time>2020-12-06T09:13:30.544000+00:00</time>
      </trkpt>
      <trkpt lat="0" lon="0">
        <time>2020-12-06T09:13:30.559000+00:00</time>
      </trkpt>
      <trkpt lat="0" lon="0">
        <time>2020-12-06T09:13:30.563000+00:00</time>
      </trkpt>
      <trkpt lat="0" lon="0">
        <time>2020-12-06T09:13:30.565000+00:00</time>
      </trkpt>
      <trkpt lat="47.33854" lon="-1.23819">
        <ele>21</ele>
        <time>2020-12-06T09:13:31.553000+00:00</time>
      </trkpt>
      <trkpt lat="0" lon="0">
        <time>2020-12-06T09:13:31.559000+00:00</time>
      </trkpt>
      <trkpt lat="0" lon="0">
        <time>2020-12-06T09:13:31.562000+00:00</time>
      </trkpt>
      <trkpt lat="0" lon="0">
        <time>2020-12-06T09:13:31.563000+00:00</time>
      </trkpt>
      <trkpt lat="47.33861" lon="-1.23822">
        <ele>20</ele>
        <time>2020-12-06T09:13:32.483000+00:00</time>
      </trkpt>
      <trkpt lat="0" lon="0">
        <time>2020-12-06T09:13:32.487000+00:00</time>
      </trkpt>
      <trkpt lat="0" lon="0">
        <time>2020-12-06T09:13:32.493000+00:00</time>
      </trkpt>
      <trkpt lat="0" lon="0">
        <time>2020-12-06T09:13:32.494000+00:00</time>
      </trkpt>
      <trkpt lat="47.33867" lon="-1.23825">
        <ele>19</ele>
        <time>2020-12-06T09:13:33.509000+00:00</time>
      </trkpt>
      <trkpt lat="0" lon="0">
        <time>2020-12-06T09:13:33.517000+00:00</time>
      </trkpt>
      <trkpt lat="0" lon="0">
        <time>2020-12-06T09:13:33.521000+00:00</time>
      </trkpt>
      <trkpt lat="47.33872" lon="-1.23828">
        <ele>19</ele>
        <time>2020-12-06T09:13:34.528000+00:00</time>
      </trkpt>
      <trkpt lat="0" lon="0">
        <time>2020-12-06T09:13:34.530000+00:00</time>
      </trkpt>
      <trkpt lat="0" lon="0">
        <time>2020-12-06T09:13:34.531000+00:00</time>
      </trkpt>
      <trkpt lat="0" lon="0">
        <time>2020-12-06T09:13:34.532000+00:00</time>
      </trkpt>
      <trkpt lat="47.33876" lon="-1.23832">
        <ele>18</ele>
        <time>2020-12-06T09:13:35.461000+00:00</time>
      </trkpt>
      <trkpt lat="0" lon="0">
        <time>2020-12-06T09:13:35.465000+00:00</time>
      </trkpt>
      <trkpt lat="0" lon="0">
        <time>2020-12-06T09:13:35.467000+00:00</time>
      </trkpt>
      <trkpt lat="0" lon="0">
        <time>2020-12-06T09:13:35.468000+00:00</time>
      </trkpt>
      <trkpt lat="47.33879" lon="-1.23836">
        <ele>18</ele>
        <time>2020-12-06T09:13:36.518000+00:00</time>
      </trkpt>
      <trkpt lat="0" lon="0">
        <time>2020-12-06T09:13:36.533000+00:00</time>
      </trkpt>
      <trkpt lat="0" lon="0">
        <time>2020-12-06T09:13:36.537000+00:00</time>
      </trkpt>
      <trkpt lat="0" lon="0">
        <time>2020-12-06T09:13:36.538000+00:00</time>
      </trkpt>
      <trkpt lat="47.33881" lon="-1.23841">
        <ele>18</ele>
        <time>2020-12-06T09:13:37.516000+00:00</time>
      </trkpt>
      <trkpt lat="0" lon="0">
        <time>2020-12-06T09:13:37.527000+00:00</time>
      </trkpt>
      <trkpt lat="0" lon="0">
        <time>2020-12-06T09:13:37.531000+00:00</time>
      </trkpt>
      <trkpt lat="0" lon="0">
        <time>2020-12-06T09:13:37.533000+00:00</time>
      </trkpt>
      <trkpt lat="47.33882" lon="-1.23846">
        <ele>18</ele>
        <time>2020-12-06T09:13:38.530000+00:00</time>
      </trkpt>
      <trkpt lat="0" lon="0">
        <time>2020-12-06T09:13:38.545000+00:00</time>
      </trkpt>
      <trkpt lat="0" lon="0">
        <time>2020-12-06T09:13:38.551000+00:00</time>
      </trkpt>
      <trkpt lat="0" lon="0">
        <time>2020-12-06T09:13:38.552000+00:00</time>
      </trkpt>
      <trkpt lat="47.33882" lon="-1.23852">
        <ele>18</ele>
        <time>2020-12-06T09:13:39.532000+00:00</time>
      </trkpt>
      <trkpt lat="0" lon="0">
        <time>2020-12-06T09:13:39.544000+00:00</time>
      </trkpt>
      <trkpt lat="0" lon="0">
        <time>2020-12-06T09:13:39.547000+00:00</time>
      </trkpt>
      <trkpt lat="0" lon="0">
        <time>2020-12-06T09:13:39.549000+00:00</time>
      </trkpt>
      <trkpt lat="47.33881" lon="-1.23857">
        <ele>18</ele>
        <time>2020-12-06T09:13:40.460000+00:00</time>
      </trkpt>
      <trkpt lat="0" lon="0">
        <time>2020-12-06T09:13:40.464000+00:00</time>
      </trkpt>
      <trkpt lat="0" lon="0">
        <time>2020-12-06T09:13:40.476000+00:00</time>
      </trkpt>
      <trkpt lat="0" lon="0">
        <time>2020-12-06T09:13:40.477000+00:00</time>
      </trkpt>
      <trkpt lat="47.33879" lon="-1.23864">
        <ele>19</ele>
        <time>2020-12-06T09:13:41.561000+00:00</time>
      </trkpt>
      <trkpt lat="0" lon="0">
        <time>2020-12-06T09:13:41.566000+00:00</time>
      </trkpt>
      <trkpt lat="0" lon="0">
        <time>2020-12-06T09:13:41.576000+00:00</time>
      </trkpt>
      <trkpt lat="0" lon="0">
        <time>2020-12-06T09:13:41.578000+00:00</time>
      </trkpt>
      <trkpt lat="47.33878" lon="-1.23871">
        <ele>19</ele>
        <time>2020-12-06T09:13:42.513000+00:00</time>
      </trkpt>
      <trkpt lat="0" lon="0">
        <time>2020-12-06T09:13:42.521000+00:00</time>
      </trkpt>
      <trkpt lat="0" lon="0">
        <time>2020-12-06T09:13:42.524000+00:00</time>
      </trkpt>
      <trkpt lat="0" lon="0">
        <time>2020-12-06T09:13:42.525000+00:00</time>
      </trkpt>
      <trkpt lat="47.33876" lon="-1.23878">
        <ele>19</ele>
        <time>2020-12-06T09:13:43.564000+00:00</time>
      </trkpt>
      <trkpt lat="0" lon="0">
        <time>2020-12-06T09:13:43.573000+00:00</time>
      </trkpt>
      <trkpt lat="0" lon="0">
        <time>2020-12-06T09:13:43.584000+00:00</time>
      </trkpt>
      <trkpt lat="0" lon="0">
        <time>2020-12-06T09:13:43.587000+00:00</time>
      </trkpt>
      <trkpt lat="47.33873" lon="-1.23885">
        <ele>20</ele>
        <time>2020-12-06T09:13:44.544000+00:00</time>
      </trkpt>
      <trkpt lat="0" lon="0">
        <time>2020-12-06T09:13:44.553000+00:00</time>
      </trkpt>
      <trkpt lat="0" lon="0">
        <time>2020-12-06T09:13:44.560000+00:00</time>
      </trkpt>
      <trkpt lat="0" lon="0">
        <time>2020-12-06T09:13:44.561000+00:00</time>
      </trkpt>
      <trkpt lat="47.33871" lon="-1.23892">
        <ele>20</ele>
        <time>2020-12-06T09:13:45.529000+00:00</time>
      </trkpt>
      <trkpt lat="0" lon="0">
        <time>2020-12-06T09:13:45.532000+00:00</time>
      </trkpt>
      <trkpt lat="0" lon="0">
        <time>2020-12-06T09:13:45.546000+00:00</time>
      </trkpt>
      <trkpt lat="0" lon="0">
        <time>2020-12-06T09:13:45.547000+00:00</time>
      </trkpt>
      <trkpt lat="47.33868" lon="-1.23899">
        <ele>21</ele>
        <time>2020-12-06T09:13:46.543000+00:00</time>
      </trkpt>
      <trkpt lat="0" lon="0">
        <time>2020-12-06T09:13:46.547000+00:00</time>
      </trkpt>
      <trkpt lat="0" lon="0">
        <time>2020-12-06T09:13:46.558000+00:00</time>
      </trkpt>
      <trkpt lat="0" lon="0">
        <time>2020-12-06T09:13:46.561000+00:00</time>
      </trkpt>
      <trkpt lat="47.33865" lon="-1.23907">
        <ele>21</ele>
        <time>2020-12-06T09:13:47.582000+00:00</time>
      </trkpt>
      <trkpt lat="0" lon="0">
        <time>2020-12-06T09:13:47.596000+00:00</time>
      </trkpt>
      <trkpt lat="0" lon="0">
        <time>2020-12-06T09:13:47.600000+00:00</time>
      </trkpt>
      <trkpt lat="0" lon="0">
        <time>2020-12-06T09:13:47.604000+00:00</time>
      </trkpt>
      <trkpt lat="47.33863" lon="-1.23915">
        <ele>22</ele>
        <time>2020-12-06T09:13:48.529000+00:00</time>
      </trkpt>
      <trkpt lat="0" lon="0">
        <time>2020-12-06T09:13:48.533000+00:00</time>
      </trkpt>
      <trkpt lat="0" lon="0">
        <time>2020-12-06T09:13:48.534000+00:00</time>
      </trkpt>
      <trkpt lat="0" lon="0">
        <time>2020-12-06T09:13:48.535000+00:00</time>
      </trkpt>
      <trkpt lat="47.3386" lon="-1.23923">
        <ele>22</ele>
        <time>2020-12-06T09:13:49.561000+00:00</time>
      </trkpt>
      <trkpt lat="0" lon="0">
        <time>2020-12-06T09:13:49.569000+00:00</time>
      </trkpt>
      <trkpt lat="0" lon="0">
        <time>2020-12-06T09:13:49.584000+00:00</time>
      </trkpt>
      <trkpt lat="0" lon="0">
        <time>2020-12-06T09:13:49.589000+00:00</time>
      </trkpt>
      <trkpt lat="47.33857" lon="-1.23931">
        <ele>23</ele>
        <time>2020-12-06T09:13:50.528000+00:00</time>
      </trkpt>
      <trkpt lat="0" lon="0">
        <time>2020-12-06T09:13:50.532000+00:00</time>
      </trkpt>
      <trkpt lat="0" lon="0">
        <time>2020-12-06T09:13:50.537000+00:00</time>
      </trkpt>
      <trkpt lat="0" lon="0">
        <time>2020-12-06T09:13:50.539000+00:00</time>
      </trkpt>
      <trkpt lat="47.33855" lon="-1.23939">
        <ele>23</ele>
        <time>2020-12-06T09:13:51.516000+00:00</time>
      </trkpt>
      <trkpt lat="0" lon="0">
        <time>2020-12-06T09:13:51.518000+00:00</time>
      </trkpt>
      <trkpt lat="0" lon="0">
        <time>2020-12-06T09:13:51.520000+00:00</time>
      </trkpt>
      <trkpt lat="47.33852" lon="-1.23947">
        <ele>23</ele>
        <time>2020-12-06T09:13:52.540000+00:00</time>
      </trkpt>
      <trkpt lat="0" lon="0">
        <time>2020-12-06T09:13:52.542000+00:00</time>
      </trkpt>
      <trkpt lat="0" lon="0">
        <time>2020-12-06T09:13:52.554000+00:00</time>
      </trkpt>
      <trkpt lat="0" lon="0">
        <time>2020-12-06T09:13:52.558000+00:00</time>
      </trkpt>
      <trkpt lat="47.3385" lon="-1.23956">
        <ele>24</ele>
        <time>2020-12-06T09:13:53.531000+00:00</time>
      </trkpt>
      <trkpt lat="0" lon="0">
        <time>2020-12-06T09:13:53.540000+00:00</time>
      </trkpt>
      <trkpt lat="0" lon="0">
        <time>2020-12-06T09:13:53.549000+00:00</time>
      </trkpt>
      <trkpt lat="0" lon="0">
        <time>2020-12-06T09:13:53.551000+00:00</time>
      </trkpt>
      <trkpt lat="47.33847" lon="-1.23964">
        <ele>24</ele>
        <time>2020-12-06T09:13:54.530000+00:00</time>
      </trkpt>
      <trkpt lat="0" lon="0">
        <time>2020-12-06T09:13:54.532000+00:00</time>
      </trkpt>
      <trkpt lat="0" lon="0">
        <time>2020-12-06T09:13:54.537000+00:00</time>
      </trkpt>
      <trkpt lat="0" lon="0">
        <time>2020-12-06T09:13:54.538000+00:00</time>
      </trkpt>
      <trkpt lat="47.33845" lon="-1.23972">
        <ele>24</ele>
        <time>2020-12-06T09:13:55.552000+00:00</time>
      </trkpt>
      <trkpt lat="0" lon="0">
        <time>2020-12-06T09:13:55.555000+00:00</time>
      </trkpt>
      <trkpt lat="0" lon="0">
        <time>2020-12-06T09:13:55.558000+00:00</time>
      </trkpt>
      <trkpt lat="0" lon="0">
        <time>2020-12-06T09:13:55.559000+00:00</time>
      </trkpt>
      <trkpt lat="47.33843" lon="-1.2398">
        <ele>24</ele>
        <time>2020-12-06T09:13:56.553000+00:00</time>
      </trkpt>
      <trkpt lat="0" lon="0">
        <time>2020-12-06T09:13:56.565000+00:00</time>
      </trkpt>
      <trkpt lat="0" lon="0">
        <time>2020-12-06T09:13:56.568000+00:00</time>
      </trkpt>
      <trkpt lat="0" lon="0">
        <time>2020-12-06T09:13:56.570000+00:00</time>
      </trkpt>
      <trkpt lat="47.33841" lon="-1.23988">
        <ele>25</ele>
        <time>2020-12-06T09:13:57.538000+00:00</time>
      </trkpt>
      <trkpt lat="0" lon="0">
        <time>2020-12-06T09:13:57.542000+00:00</time>
      </trkpt>
      <trkpt lat="0" lon="0">
        <time>2020-12-06T09:13:57.543000+00:00</time>
      </trkpt>
      <trkpt lat="0" lon="0">
        <time>2020-12-06T09:13:57.544000+00:00</time>
      </trkpt>
      <trkpt lat="47.33839" lon="-1.23996">
        <ele>25</ele>
        <time>2020-12-06T09:13:58.521000+00:00</time>
      </trkpt>
      <trkpt lat="0" lon="0">
        <time>2020-12-06T09:13:58.524000+00:00</time>
      </trkpt>
      <trkpt lat="0" lon="0">
        <time>2020-12-06T09:13:58.529000+00:00</time>
      </trkpt>
      <trkpt lat="0" lon="0">
        <time>2020-12-06T09:13:58.532000+00:00</time>
      </trkpt>
      <trkpt lat="47.33837" lon="-1.24004">
        <ele>25</ele>
        <time>2020-12-06T09:13:59.537000+00:00</time>
      </trkpt>
      <trkpt lat="0" lon="0">
        <time>2020-12-06T09:13:59.546000+00:00</time>
      </trkpt>
      <trkpt lat="0" lon="0">
        <time>2020-12-06T09:13:59.551000+00:00</time>
      </trkpt>
      <trkpt lat="0" lon="0">
        <time>2020-12-06T09:13:59.554000+00:00</time>
      </trkpt>
      <trkpt lat="47.33835" lon="-1.24012">
        <ele>25</ele>
        <time>2020-12-06T09:14:00.521000+00:00</time>
      </trkpt>
      <trkpt lat="0" lon="0">
        <time>2020-12-06T09:14:00.529000+00:00</time>
      </trkpt>
      <trkpt lat="0" lon="0">
        <time>2020-12-06T09:14:00.533000+00:00</time>
      </trkpt>
      <trkpt lat="0" lon="0">
        <time>2020-12-06T09:14:00.534000+00:00</time>
      </trkpt>
      <trkpt lat="47.33833" lon="-1.2402">
        <ele>26</ele>
        <time>2020-12-06T09:14:01.547000+00:00</time>
      </trkpt>
      <trkpt lat="0" lon="0">
        <time>2020-12-06T09:14:01.552000+00:00</time>
      </trkpt>
      <trkpt lat="0" lon="0">
        <time>2020-12-06T09:14:01.558000+00:00</time>
      </trkpt>
      <trkpt lat="0" lon="0">
        <time>2020-12-06T09:14:01.560000+00:00</time>
      </trkpt>
      <trkpt lat="47.33831" lon="-1.24028">
        <ele>26</ele>
        <time>2020-12-06T09:14:02.515000+00:00</time>
      </trkpt>
      <trkpt lat="0" lon="0">
        <time>2020-12-06T09:14:02.527000+00:00</time>
      </trkpt>
      <trkpt lat="0" lon="0">
        <time>2020-12-06T09:14:02.530000+00:00</time>
      </trkpt>
      <trkpt lat="0" lon="0">
        <time>2020-12-06T09:14:02.535000+00:00</time>
      </trkpt>
      <trkpt lat="47.33829" lon="-1.24036">
        <ele>26</ele>
        <time>2020-12-06T09:14:03.529000+00:00</time>
      </trkpt>
      <trkpt lat="0" lon="0">
        <time>2020-12-06T09:14:03.537000+00:00</time>
      </trkpt>
      <trkpt lat="0" lon="0">
        <time>2020-12-06T09:14:03.540000+00:00</time>
      </trkpt>
      <trkpt lat="0" lon="0">
        <time>2020-12-06T09:14:03.542000+00:00</time>
      </trkpt>
      <trkpt lat="47.33828" lon="-1.24044">
        <ele>26</ele>
        <time>2020-12-06T09:14:04.546000+00:00</time>
      </trkpt>
      <trkpt lat="0" lon="0">
        <time>2020-12-06T09:14:04.557000+00:00</time>
      </trkpt>
      <trkpt lat="0" lon="0">
        <time>2020-12-06T09:14:04.559000+00:00</time>
      </trkpt>
      <trkpt lat="0" lon="0">
        <time>2020-12-06T09:14:04.560000+00:00</time>
      </trkpt>
      <trkpt lat="47.33826" lon="-1.24052">
        <ele>26</ele>
        <time>2020-12-06T09:14:05.560000+00:00</time>
      </trkpt>
      <trkpt lat="0" lon="0">
        <time>2020-12-06T09:14:05.567000+00:00</time>
      </trkpt>
      <trkpt lat="0" lon="0">
        <time>2020-12-06T09:14:05.576000+00:00</time>
      </trkpt>
      <trkpt lat="0" lon="0">
        <time>2020-12-06T09:14:05.578000+00:00</time>
      </trkpt>
      <trkpt lat="47.33824" lon="-1.2406">
        <ele>27</ele>
        <time>2020-12-06T09:14:06.546000+00:00</time>
      </trkpt>
      <trkpt lat="0" lon="0">
        <time>2020-12-06T09:14:06.549000+00:00</time>
      </trkpt>
      <trkpt lat="0" lon="0">
        <time>2020-12-06T09:14:06.558000+00:00</time>
      </trkpt>
      <trkpt lat="0" lon="0">
        <time>2020-12-06T09:14:06.560000+00:00</time>
      </trkpt>
      <trkpt lat="47.33823" lon="-1.24067">
        <ele>27</ele>
        <time>2020-12-06T09:14:07.533000+00:00</time>
      </trkpt>
      <trkpt lat="0" lon="0">
        <time>2020-12-06T09:14:07.541000+00:00</time>
      </trkpt>
      <trkpt lat="0" lon="0">
        <time>2020-12-06T09:14:07.543000+00:00</time>
      </trkpt>
      <trkpt lat="0" lon="0">
        <time>2020-12-06T09:14:07.544000+00:00</time>
      </trkpt>
      <trkpt lat="47.33821" lon="-1.24075">
        <ele>27</ele>
        <time>2020-12-06T09:14:08.536000+00:00</time>
      </trkpt>
      <trkpt lat="0" lon="0">
        <time>2020-12-06T09:14:08.540000+00:00</time>
      </trkpt>
      <trkpt lat="0" lon="0">
        <time>2020-12-06T09:14:08.546000+00:00</time>
      </trkpt>
      <trkpt lat="0" lon="0">
        <time>2020-12-06T09:14:08.548000+00:00</time>
      </trkpt>
      <trkpt lat="47.33819" lon="-1.24083">
        <ele>27</ele>
        <time>2020-12-06T09:14:09.516000+00:00</time>
      </trkpt>
      <trkpt lat="0" lon="0">
        <time>2020-12-06T09:14:09.522000+00:00</time>
      </trkpt>
      <trkpt lat="0" lon="0">
        <time>2020-12-06T09:14:09.533000+00:00</time>
      </trkpt>
      <trkpt lat="0" lon="0">
        <time>2020-12-06T09:14:09.535000+00:00</time>
      </trkpt>
      <trkpt lat="47.33818" lon="-1.24091">
        <ele>27</ele>
        <time>2020-12-06T09:14:10.570000+00:00</time>
      </trkpt>
      <trkpt lat="0" lon="0">
        <time>2020-12-06T09:14:10.583000+00:00</time>
      </trkpt>
      <trkpt lat="0" lon="0">
        <time>2020-12-06T09:14:10.595000+00:00</time>
      </trkpt>
      <trkpt lat="0" lon="0">
        <time>2020-12-06T09:14:10.597000+00:00</time>
      </trkpt>
      <trkpt lat="47.33816" lon="-1.24098">
        <ele>27</ele>
        <time>2020-12-06T09:14:11.531000+00:00</time>
      </trkpt>
      <trkpt lat="0" lon="0">
        <time>2020-12-06T09:14:11.542000+00:00</time>
      </trkpt>
      <trkpt lat="0" lon="0">
        <time>2020-12-06T09:14:11.545000+00:00</time>
      </trkpt>
      <trkpt lat="0" lon="0">
        <time>2020-12-06T09:14:11.547000+00:00</time>
      </trkpt>
      <trkpt lat="47.33814" lon="-1.24106">
        <ele>27</ele>
        <time>2020-12-06T09:14:12.557000+00:00</time>
      </trkpt>
      <trkpt lat="0" lon="0">
        <time>2020-12-06T09:14:12.559000+00:00</time>
      </trkpt>
      <trkpt lat="0" lon="0">
        <time>2020-12-06T09:14:12.569000+00:00</time>
      </trkpt>
      <trkpt lat="0" lon="0">
        <time>2020-12-06T09:14:12.572000+00:00</time>
      </trkpt>
      <trkpt lat="47.33813" lon="-1.24113">
        <ele>27</ele>
        <time>2020-12-06T09:14:13.561000+00:00</time>
      </trkpt>
      <trkpt lat="0" lon="0">
        <time>2020-12-06T09:14:13.568000+00:00</time>
      </trkpt>
      <trkpt lat="0" lon="0">
        <time>2020-12-06T09:14:13.573000+00:00</time>
      </trkpt>
      <trkpt lat="0" lon="0">
        <time>2020-12-06T09:14:13.576000+00:00</time>
      </trkpt>
      <trkpt lat="47.33811" lon="-1.24121">
        <ele>27</ele>
        <time>2020-12-06T09:14:14.554000+00:00</time>
      </trkpt>
      <trkpt lat="0" lon="0">
        <time>2020-12-06T09:14:14.563000+00:00</time>
      </trkpt>
      <trkpt lat="0" lon="0">
        <time>2020-12-06T09:14:14.565000+00:00</time>
      </trkpt>
      <trkpt lat="0" lon="0">
        <time>2020-12-06T09:14:14.569000+00:00</time>
      </trkpt>
      <trkpt lat="47.3381" lon="-1.24129">
        <ele>27</ele>
        <time>2020-12-06T09:14:15.528000+00:00</time>
      </trkpt>
      <trkpt lat="0" lon="0">
        <time>2020-12-06T09:14:15.531000+00:00</time>
      </trkpt>
      <trkpt lat="0" lon="0">
        <time>2020-12-06T09:14:15.537000+00:00</time>
      </trkpt>
      <trkpt lat="0" lon="0">
        <time>2020-12-06T09:14:15.539000+00:00</time>
      </trkpt>
      <trkpt lat="47.33809" lon="-1.24136">
        <ele>26</ele>
        <time>2020-12-06T09:14:16.493000+00:00</time>
      </trkpt>
      <trkpt lat="0" lon="0">
        <time>2020-12-06T09:14:16.496000+00:00</time>
      </trkpt>
      <trkpt lat="0" lon="0">
        <time>2020-12-06T09:14:16.505000+00:00</time>
      </trkpt>
      <trkpt lat="0" lon="0">
        <time>2020-12-06T09:14:16.506000+00:00</time>
      </trkpt>
      <trkpt lat="47.33807" lon="-1.24144">
        <ele>26</ele>
        <time>2020-12-06T09:14:17.548000+00:00</time>
      </trkpt>
      <trkpt lat="0" lon="0">
        <time>2020-12-06T09:14:17.549000+00:00</time>
      </trkpt>
      <trkpt lat="0" lon="0">
        <time>2020-12-06T09:14:17.551000+00:00</time>
      </trkpt>
      <trkpt lat="0" lon="0">
        <time>2020-12-06T09:14:17.552000+00:00</time>
      </trkpt>
      <trkpt lat="47.33806" lon="-1.24152">
        <ele>26</ele>
        <time>2020-12-06T09:14:18.546000+00:00</time>
      </trkpt>
      <trkpt lat="0" lon="0">
        <time>2020-12-06T09:14:18.562000+00:00</time>
      </trkpt>
      <trkpt lat="0" lon="0">
        <time>2020-12-06T09:14:18.565000+00:00</time>
      </trkpt>
      <trkpt lat="0" lon="0">
        <time>2020-12-06T09:14:18.567000+00:00</time>
      </trkpt>
      <trkpt lat="47.33805" lon="-1.24159">
        <ele>26</ele>
        <time>2020-12-06T09:14:19.529000+00:00</time>
      </trkpt>
      <trkpt lat="0" lon="0">
        <time>2020-12-06T09:14:19.530000+00:00</time>
      </trkpt>
      <trkpt lat="0" lon="0">
        <time>2020-12-06T09:14:19.538000+00:00</time>
      </trkpt>
      <trkpt lat="0" lon="0">
        <time>2020-12-06T09:14:19.539000+00:00</time>
      </trkpt>
      <trkpt lat="47.33804" lon="-1.24167">
        <ele>26</ele>
        <time>2020-12-06T09:14:20.557000+00:00</time>
      </trkpt>
      <trkpt lat="0" lon="0">
        <time>2020-12-06T09:14:20.564000+00:00</time>
      </trkpt>
      <trkpt lat="0" lon="0">
        <time>2020-12-06T09:14:20.569000+00:00</time>
      </trkpt>
      <trkpt lat="0" lon="0">
        <time>2020-12-06T09:14:20.571000+00:00</time>
      </trkpt>
      <trkpt lat="47.33804" lon="-1.24175">
        <ele>26</ele>
        <time>2020-12-06T09:14:21.537000+00:00</time>
      </trkpt>
      <trkpt lat="0" lon="0">
        <time>2020-12-06T09:14:21.548000+00:00</time>
      </trkpt>
      <trkpt lat="0" lon="0">
        <time>2020-12-06T09:14:21.553000+00:00</time>
      </trkpt>
      <trkpt lat="0" lon="0">
        <time>2020-12-06T09:14:21.554000+00:00</time>
      </trkpt>
      <trkpt lat="47.33803" lon="-1.24184">
        <ele>26</ele>
        <time>2020-12-06T09:14:22.549000+00:00</time>
      </trkpt>
      <trkpt lat="0" lon="0">
        <time>2020-12-06T09:14:22.563000+00:00</time>
      </trkpt>
      <trkpt lat="0" lon="0">
        <time>2020-12-06T09:14:22.569000+00:00</time>
      </trkpt>
      <trkpt lat="0" lon="0">
        <time>2020-12-06T09:14:22.570000+00:00</time>
      </trkpt>
      <trkpt lat="47.33803" lon="-1.24192">
        <ele>26</ele>
        <time>2020-12-06T09:14:23.541000+00:00</time>
      </trkpt>
      <trkpt lat="0" lon="0">
        <time>2020-12-06T09:14:23.546000+00:00</time>
      </trkpt>
      <trkpt lat="0" lon="0">
        <time>2020-12-06T09:14:23.557000+00:00</time>
      </trkpt>
      <trkpt lat="0" lon="0">
        <time>2020-12-06T09:14:23.560000+00:00</time>
      </trkpt>
      <trkpt lat="47.33803" lon="-1.242">
        <ele>26</ele>
        <time>2020-12-06T09:14:24.541000+00:00</time>
      </trkpt>
      <trkpt lat="0" lon="0">
        <time>2020-12-06T09:14:24.545000+00:00</time>
      </trkpt>
      <trkpt lat="0" lon="0">
        <time>2020-12-06T09:14:24.549000+00:00</time>
      </trkpt>
      <trkpt lat="0" lon="0">
        <time>2020-12-06T09:14:24.559000+00:00</time>
      </trkpt>
      <trkpt lat="47.33802" lon="-1.24208">
        <ele>26</ele>
        <time>2020-12-06T09:14:25.566000+00:00</time>
      </trkpt>
      <trkpt lat="0" lon="0">
        <time>2020-12-06T09:14:25.579000+00:00</time>
      </trkpt>
      <trkpt lat="0" lon="0">
        <time>2020-12-06T09:14:25.582000+00:00</time>
      </trkpt>
      <trkpt lat="0" lon="0">
        <time>2020-12-06T09:14:25.583000+00:00</time>
      </trkpt>
      <trkpt lat="47.33802" lon="-1.24216">
        <ele>27</ele>
        <time>2020-12-06T09:14:26.550000+00:00</time>
      </trkpt>
      <trkpt lat="0" lon="0">
        <time>2020-12-06T09:14:26.553000+00:00</time>
      </trkpt>
      <trkpt lat="0" lon="0">
        <time>2020-12-06T09:14:26.561000+00:00</time>
      </trkpt>
      <trkpt lat="0" lon="0">
        <time>2020-12-06T09:14:26.563000+00:00</time>
      </trkpt>
      <trkpt lat="47.33802" lon="-1.24225">
        <ele>27</ele>
        <time>2020-12-06T09:14:27.529000+00:00</time>
      </trkpt>
      <trkpt lat="0" lon="0">
        <time>2020-12-06T09:14:27.534000+00:00</time>
      </trkpt>
      <trkpt lat="0" lon="0">
        <time>2020-12-06T09:14:27.542000+00:00</time>
      </trkpt>
      <trkpt lat="0" lon="0">
        <time>2020-12-06T09:14:27.545000+00:00</time>
      </trkpt>
      <trkpt lat="47.33803" lon="-1.24233">
        <ele>27</ele>
        <time>2020-12-06T09:14:28.534000+00:00</time>
      </trkpt>
      <trkpt lat="0" lon="0">
        <time>2020-12-06T09:14:28.537000+00:00</time>
      </trkpt>
      <trkpt lat="0" lon="0">
        <time>2020-12-06T09:14:28.544000+00:00</time>
      </trkpt>
      <trkpt lat="0" lon="0">
        <time>2020-12-06T09:14:28.546000+00:00</time>
      </trkpt>
      <trkpt lat="47.33803" lon="-1.24241">
        <ele>26</ele>
        <time>2020-12-06T09:14:29.583000+00:00</time>
      </trkpt>
      <trkpt lat="0" lon="0">
        <time>2020-12-06T09:14:29.594000+00:00</time>
      </trkpt>
      <trkpt lat="0" lon="0">
        <time>2020-12-06T09:14:29.598000+00:00</time>
      </trkpt>
      <trkpt lat="0" lon="0">
        <time>2020-12-06T09:14:29.600000+00:00</time>
      </trkpt>
      <trkpt lat="47.33803" lon="-1.24249">
        <ele>26</ele>
        <time>2020-12-06T09:14:30.583000+00:00</time>
      </trkpt>
      <trkpt lat="0" lon="0">
        <time>2020-12-06T09:14:30.599000+00:00</time>
      </trkpt>
      <trkpt lat="0" lon="0">
        <time>2020-12-06T09:14:30.612000+00:00</time>
      </trkpt>
      <trkpt lat="0" lon="0">
        <time>2020-12-06T09:14:30.614000+00:00</time>
      </trkpt>
      <trkpt lat="47.33804" lon="-1.24257">
        <ele>27</ele>
        <time>2020-12-06T09:14:31.495000+00:00</time>
      </trkpt>
      <trkpt lat="0" lon="0">
        <time>2020-12-06T09:14:31.498000+00:00</time>
      </trkpt>
      <trkpt lat="0" lon="0">
        <time>2020-12-06T09:14:31.499000+00:00</time>
      </trkpt>
      <trkpt lat="0" lon="0">
        <time>2020-12-06T09:14:31.500000+00:00</time>
      </trkpt>
      <trkpt lat="47.33804" lon="-1.24265">
        <ele>27</ele>
        <time>2020-12-06T09:14:32.518000+00:00</time>
      </trkpt>
      <trkpt lat="0" lon="0">
        <time>2020-12-06T09:14:32.519000+00:00</time>
      </trkpt>
      <trkpt lat="0" lon="0">
        <time>2020-12-06T09:14:32.520000+00:00</time>
      </trkpt>
      <trkpt lat="0" lon="0">
        <time>2020-12-06T09:14:32.521000+00:00</time>
      </trkpt>
      <trkpt lat="47.33804" lon="-1.24273">
        <ele>27</ele>
        <time>2020-12-06T09:14:33.564000+00:00</time>
      </trkpt>
      <trkpt lat="0" lon="0">
        <time>2020-12-06T09:14:33.574000+00:00</time>
      </trkpt>
      <trkpt lat="0" lon="0">
        <time>2020-12-06T09:14:33.582000+00:00</time>
      </trkpt>
      <trkpt lat="0" lon="0">
        <time>2020-12-06T09:14:33.584000+00:00</time>
      </trkpt>
      <trkpt lat="47.33804" lon="-1.2428">
        <ele>28</ele>
        <time>2020-12-06T09:14:34.569000+00:00</time>
      </trkpt>
      <trkpt lat="0" lon="0">
        <time>2020-12-06T09:14:34.572000+00:00</time>
      </trkpt>
      <trkpt lat="0" lon="0">
        <time>2020-12-06T09:14:34.576000+00:00</time>
      </trkpt>
      <trkpt lat="0" lon="0">
        <time>2020-12-06T09:14:34.578000+00:00</time>
      </trkpt>
      <trkpt lat="47.33804" lon="-1.24289">
        <ele>28</ele>
        <time>2020-12-06T09:14:35.549000+00:00</time>
      </trkpt>
      <trkpt lat="0" lon="0">
        <time>2020-12-06T09:14:35.558000+00:00</time>
      </trkpt>
      <trkpt lat="0" lon="0">
        <time>2020-12-06T09:14:35.573000+00:00</time>
      </trkpt>
      <trkpt lat="0" lon="0">
        <time>2020-12-06T09:14:35.574000+00:00</time>
      </trkpt>
      <trkpt lat="47.33803" lon="-1.24297">
        <ele>29</ele>
        <time>2020-12-06T09:14:36.575000+00:00</time>
      </trkpt>
      <trkpt lat="0" lon="0">
        <time>2020-12-06T09:14:36.582000+00:00</time>
      </trkpt>
      <trkpt lat="0" lon="0">
        <time>2020-12-06T09:14:36.586000+00:00</time>
      </trkpt>
      <trkpt lat="0" lon="0">
        <time>2020-12-06T09:14:36.588000+00:00</time>
      </trkpt>
      <trkpt lat="47.33803" lon="-1.24305">
        <ele>29</ele>
        <time>2020-12-06T09:14:37.552000+00:00</time>
      </trkpt>
      <trkpt lat="0" lon="0">
        <time>2020-12-06T09:14:37.555000+00:00</time>
      </trkpt>
      <trkpt lat="0" lon="0">
        <time>2020-12-06T09:14:37.558000+00:00</time>
      </trkpt>
      <trkpt lat="0" lon="0">
        <time>2020-12-06T09:14:37.564000+00:00</time>
      </trkpt>
      <trkpt lat="47.33802" lon="-1.24313">
        <ele>29</ele>
        <time>2020-12-06T09:14:38.548000+00:00</time>
      </trkpt>
      <trkpt lat="0" lon="0">
        <time>2020-12-06T09:14:38.560000+00:00</time>
      </trkpt>
      <trkpt lat="0" lon="0">
        <time>2020-12-06T09:14:38.564000+00:00</time>
      </trkpt>
      <trkpt lat="0" lon="0">
        <time>2020-12-06T09:14:38.565000+00:00</time>
      </trkpt>
      <trkpt lat="47.33801" lon="-1.24321">
        <ele>30</ele>
        <time>2020-12-06T09:14:39.570000+00:00</time>
      </trkpt>
      <trkpt lat="0" lon="0">
        <time>2020-12-06T09:14:39.576000+00:00</time>
      </trkpt>
      <trkpt lat="0" lon="0">
        <time>2020-12-06T09:14:39.583000+00:00</time>
      </trkpt>
      <trkpt lat="0" lon="0">
        <time>2020-12-06T09:14:39.589000+00:00</time>
      </trkpt>
      <trkpt lat="47.338" lon="-1.24329">
        <ele>30</ele>
        <time>2020-12-06T09:14:40.547000+00:00</time>
      </trkpt>
      <trkpt lat="0" lon="0">
        <time>2020-12-06T09:14:40.557000+00:00</time>
      </trkpt>
      <trkpt lat="0" lon="0">
        <time>2020-12-06T09:14:40.565000+00:00</time>
      </trkpt>
      <trkpt lat="0" lon="0">
        <time>2020-12-06T09:14:40.567000+00:00</time>
      </trkpt>
      <trkpt lat="47.33799" lon="-1.24337">
        <ele>31</ele>
        <time>2020-12-06T09:14:41.546000+00:00</time>
      </trkpt>
      <trkpt lat="0" lon="0">
        <time>2020-12-06T09:14:41.549000+00:00</time>
      </trkpt>
      <trkpt lat="0" lon="0">
        <time>2020-12-06T09:14:41.567000+00:00</time>
      </trkpt>
      <trkpt lat="0" lon="0">
        <time>2020-12-06T09:14:41.572000+00:00</time>
      </trkpt>
      <trkpt lat="47.33798" lon="-1.24345">
        <ele>31</ele>
        <time>2020-12-06T09:14:42.528000+00:00</time>
      </trkpt>
      <trkpt lat="0" lon="0">
        <time>2020-12-06T09:14:42.530000+00:00</time>
      </trkpt>
      <trkpt lat="0" lon="0">
        <time>2020-12-06T09:14:42.532000+00:00</time>
      </trkpt>
      <trkpt lat="0" lon="0">
        <time>2020-12-06T09:14:42.533000+00:00</time>
      </trkpt>
      <trkpt lat="47.33797" lon="-1.24354">
        <ele>31</ele>
        <time>2020-12-06T09:14:43.556000+00:00</time>
      </trkpt>
      <trkpt lat="0" lon="0">
        <time>2020-12-06T09:14:43.566000+00:00</time>
      </trkpt>
      <trkpt lat="0" lon="0">
        <time>2020-12-06T09:14:43.571000+00:00</time>
      </trkpt>
      <trkpt lat="0" lon="0">
        <time>2020-12-06T09:14:43.573000+00:00</time>
      </trkpt>
      <trkpt lat="47.33795" lon="-1.24362">
        <ele>31</ele>
        <time>2020-12-06T09:14:44.553000+00:00</time>
      </trkpt>
      <trkpt lat="0" lon="0">
        <time>2020-12-06T09:14:44.555000+00:00</time>
      </trkpt>
      <trkpt lat="0" lon="0">
        <time>2020-12-06T09:14:44.558000+00:00</time>
      </trkpt>
      <trkpt lat="0" lon="0">
        <time>2020-12-06T09:14:44.560000+00:00</time>
      </trkpt>
      <trkpt lat="47.33793" lon="-1.2437">
        <ele>31</ele>
        <time>2020-12-06T09:14:45.537000+00:00</time>
      </trkpt>
      <trkpt lat="0" lon="0">
        <time>2020-12-06T09:14:45.543000+00:00</time>
      </trkpt>
      <trkpt lat="0" lon="0">
        <time>2020-12-06T09:14:45.556000+00:00</time>
      </trkpt>
      <trkpt lat="0" lon="0">
        <time>2020-12-06T09:14:45.557000+00:00</time>
      </trkpt>
      <trkpt lat="47.33792" lon="-1.24378">
        <ele>31</ele>
        <time>2020-12-06T09:14:46.535000+00:00</time>
      </trkpt>
      <trkpt lat="0" lon="0">
        <time>2020-12-06T09:14:46.542000+00:00</time>
      </trkpt>
      <trkpt lat="0" lon="0">
        <time>2020-12-06T09:14:46.544000+00:00</time>
      </trkpt>
      <trkpt lat="0" lon="0">
        <time>2020-12-06T09:14:46.545000+00:00</time>
      </trkpt>
      <trkpt lat="47.3379" lon="-1.24386">
        <ele>31</ele>
        <time>2020-12-06T09:14:47.565000+00:00</time>
      </trkpt>
      <trkpt lat="0" lon="0">
        <time>2020-12-06T09:14:47.581000+00:00</time>
      </trkpt>
      <trkpt lat="0" lon="0">
        <time>2020-12-06T09:14:47.591000+00:00</time>
      </trkpt>
      <trkpt lat="0" lon="0">
        <time>2020-12-06T09:14:47.593000+00:00</time>
      </trkpt>
      <trkpt lat="47.33788" lon="-1.24394">
        <ele>31</ele>
        <time>2020-12-06T09:14:48.572000+00:00</time>
      </trkpt>
      <trkpt lat="0" lon="0">
        <time>2020-12-06T09:14:48.574000+00:00</time>
      </trkpt>
      <trkpt lat="0" lon="0">
        <time>2020-12-06T09:14:48.575000+00:00</time>
      </trkpt>
      <trkpt lat="0" lon="0">
        <time>2020-12-06T09:14:48.577000+00:00</time>
      </trkpt>
      <trkpt lat="47.33787" lon="-1.24403">
        <ele>31</ele>
        <time>2020-12-06T09:14:49.548000+00:00</time>
      </trkpt>
      <trkpt lat="0" lon="0">
        <time>2020-12-06T09:14:49.551000+00:00</time>
      </trkpt>
      <trkpt lat="0" lon="0">
        <time>2020-12-06T09:14:49.554000+00:00</time>
      </trkpt>
      <trkpt lat="0" lon="0">
        <time>2020-12-06T09:14:49.556000+00:00</time>
      </trkpt>
      <trkpt lat="47.33785" lon="-1.24411">
        <ele>31</ele>
        <time>2020-12-06T09:14:50.553000+00:00</time>
      </trkpt>
      <trkpt lat="0" lon="0">
        <time>2020-12-06T09:14:50.560000+00:00</time>
      </trkpt>
      <trkpt lat="0" lon="0">
        <time>2020-12-06T09:14:50.565000+00:00</time>
      </trkpt>
      <trkpt lat="0" lon="0">
        <time>2020-12-06T09:14:50.568000+00:00</time>
      </trkpt>
      <trkpt lat="47.33783" lon="-1.24419">
        <ele>31</ele>
        <time>2020-12-06T09:14:51.544000+00:00</time>
      </trkpt>
      <trkpt lat="0" lon="0">
        <time>2020-12-06T09:14:51.546000+00:00</time>
      </trkpt>
      <trkpt lat="0" lon="0">
        <time>2020-12-06T09:14:51.548000+00:00</time>
      </trkpt>
      <trkpt lat="0" lon="0">
        <time>2020-12-06T09:14:51.549000+00:00</time>
      </trkpt>
      <trkpt lat="47.33782" lon="-1.24427">
        <ele>31</ele>
        <time>2020-12-06T09:14:52.548000+00:00</time>
      </trkpt>
      <trkpt lat="0" lon="0">
        <time>2020-12-06T09:14:52.550000+00:00</time>
      </trkpt>
      <trkpt lat="0" lon="0">
        <time>2020-12-06T09:14:52.552000+00:00</time>
      </trkpt>
      <trkpt lat="0" lon="0">
        <time>2020-12-06T09:14:52.553000+00:00</time>
      </trkpt>
      <trkpt lat="47.3378" lon="-1.24435">
        <ele>31</ele>
        <time>2020-12-06T09:14:53.562000+00:00</time>
      </trkpt>
      <trkpt lat="0" lon="0">
        <time>2020-12-06T09:14:53.564000+00:00</time>
      </trkpt>
      <trkpt lat="0" lon="0">
        <time>2020-12-06T09:14:53.566000+00:00</time>
      </trkpt>
      <trkpt lat="0" lon="0">
        <time>2020-12-06T09:14:53.567000+00:00</time>
      </trkpt>
      <trkpt lat="47.33779" lon="-1.24443">
        <ele>31</ele>
        <time>2020-12-06T09:14:54.602000+00:00</time>
      </trkpt>
      <trkpt lat="0" lon="0">
        <time>2020-12-06T09:14:54.604000+00:00</time>
      </trkpt>
      <trkpt lat="0" lon="0">
        <time>2020-12-06T09:14:54.606000+00:00</time>
      </trkpt>
      <trkpt lat="0" lon="0">
        <time>2020-12-06T09:14:54.607000+00:00</time>
      </trkpt>
      <trkpt lat="47.33777" lon="-1.24451">
        <ele>31</ele>
        <time>2020-12-06T09:14:55.555000+00:00</time>
      </trkpt>
      <trkpt lat="0" lon="0">
        <time>2020-12-06T09:14:55.561000+00:00</time>
      </trkpt>
      <trkpt lat="0" lon="0">
        <time>2020-12-06T09:14:55.564000+00:00</time>
      </trkpt>
      <trkpt lat="0" lon="0">
        <time>2020-12-06T09:14:55.566000+00:00</time>
      </trkpt>
      <trkpt lat="47.33776" lon="-1.24459">
        <ele>32</ele>
        <time>2020-12-06T09:14:56.553000+00:00</time>
      </trkpt>
      <trkpt lat="0" lon="0">
        <time>2020-12-06T09:14:56.558000+00:00</time>
      </trkpt>
      <trkpt lat="0" lon="0">
        <time>2020-12-06T09:14:56.564000+00:00</time>
      </trkpt>
      <trkpt lat="0" lon="0">
        <time>2020-12-06T09:14:56.565000+00:00</time>
      </trkpt>
      <trkpt lat="47.33775" lon="-1.24466">
        <ele>32</ele>
        <time>2020-12-06T09:14:57.544000+00:00</time>
      </trkpt>
      <trkpt lat="0" lon="0">
        <time>2020-12-06T09:14:57.564000+00:00</time>
      </trkpt>
      <trkpt lat="0" lon="0">
        <time>2020-12-06T09:14:57.567000+00:00</time>
      </trkpt>
      <trkpt lat="0" lon="0">
        <time>2020-12-06T09:14:57.568000+00:00</time>
      </trkpt>
      <trkpt lat="47.33773" lon="-1.24475">
        <ele>32</ele>
        <time>2020-12-06T09:14:58.569000+00:00</time>
      </trkpt>
      <trkpt lat="0" lon="0">
        <time>2020-12-06T09:14:58.572000+00:00</time>
      </trkpt>
      <trkpt lat="0" lon="0">
        <time>2020-12-06T09:14:58.577000+00:00</time>
      </trkpt>
      <trkpt lat="0" lon="0">
        <time>2020-12-06T09:14:58.580000+00:00</time>
      </trkpt>
      <trkpt lat="47.33772" lon="-1.24483">
        <ele>32</ele>
        <time>2020-12-06T09:14:59.594000+00:00</time>
      </trkpt>
      <trkpt lat="0" lon="0">
        <time>2020-12-06T09:14:59.597000+00:00</time>
      </trkpt>
      <trkpt lat="0" lon="0">
        <time>2020-12-06T09:14:59.603000+00:00</time>
      </trkpt>
      <trkpt lat="0" lon="0">
        <time>2020-12-06T09:14:59.605000+00:00</time>
      </trkpt>
      <trkpt lat="47.33771" lon="-1.24491">
        <ele>32</ele>
        <time>2020-12-06T09:15:00.552000+00:00</time>
      </trkpt>
      <trkpt lat="0" lon="0">
        <time>2020-12-06T09:15:00.556000+00:00</time>
      </trkpt>
      <trkpt lat="0" lon="0">
        <time>2020-12-06T09:15:00.557000+00:00</time>
      </trkpt>
      <trkpt lat="0" lon="0">
        <time>2020-12-06T09:15:00.558000+00:00</time>
      </trkpt>
      <trkpt lat="47.33769" lon="-1.24499">
        <ele>32</ele>
        <time>2020-12-06T09:15:01.554000+00:00</time>
      </trkpt>
      <trkpt lat="0" lon="0">
        <time>2020-12-06T09:15:01.557000+00:00</time>
      </trkpt>
      <trkpt lat="0" lon="0">
        <time>2020-12-06T09:15:01.561000+00:00</time>
      </trkpt>
      <trkpt lat="0" lon="0">
        <time>2020-12-06T09:15:01.563000+00:00</time>
      </trkpt>
      <trkpt lat="47.33768" lon="-1.24508">
        <ele>32</ele>
        <time>2020-12-06T09:15:02.542000+00:00</time>
      </trkpt>
      <trkpt lat="0" lon="0">
        <time>2020-12-06T09:15:02.545000+00:00</time>
      </trkpt>
      <trkpt lat="0" lon="0">
        <time>2020-12-06T09:15:02.549000+00:00</time>
      </trkpt>
      <trkpt lat="0" lon="0">
        <time>2020-12-06T09:15:02.551000+00:00</time>
      </trkpt>
      <trkpt lat="47.33767" lon="-1.24516">
        <ele>33</ele>
        <time>2020-12-06T09:15:03.550000+00:00</time>
      </trkpt>
      <trkpt lat="0" lon="0">
        <time>2020-12-06T09:15:03.563000+00:00</time>
      </trkpt>
      <trkpt lat="0" lon="0">
        <time>2020-12-06T09:15:03.573000+00:00</time>
      </trkpt>
      <trkpt lat="0" lon="0">
        <time>2020-12-06T09:15:03.575000+00:00</time>
      </trkpt>
      <trkpt lat="47.33766" lon="-1.24525">
        <ele>33</ele>
        <time>2020-12-06T09:15:04.558000+00:00</time>
      </trkpt>
      <trkpt lat="0" lon="0">
        <time>2020-12-06T09:15:04.563000+00:00</time>
      </trkpt>
      <trkpt lat="0" lon="0">
        <time>2020-12-06T09:15:04.569000+00:00</time>
      </trkpt>
      <trkpt lat="0" lon="0">
        <time>2020-12-06T09:15:04.571000+00:00</time>
      </trkpt>
      <trkpt lat="47.33766" lon="-1.24534">
        <ele>33</ele>
        <time>2020-12-06T09:15:05.542000+00:00</time>
      </trkpt>
      <trkpt lat="0" lon="0">
        <time>2020-12-06T09:15:05.559000+00:00</time>
      </trkpt>
      <trkpt lat="0" lon="0">
        <time>2020-12-06T09:15:05.563000+00:00</time>
      </trkpt>
      <trkpt lat="0" lon="0">
        <time>2020-12-06T09:15:05.565000+00:00</time>
      </trkpt>
      <trkpt lat="47.33766" lon="-1.24543">
        <ele>33</ele>
        <time>2020-12-06T09:15:06.530000+00:00</time>
      </trkpt>
      <trkpt lat="0" lon="0">
        <time>2020-12-06T09:15:06.538000+00:00</time>
      </trkpt>
      <trkpt lat="0" lon="0">
        <time>2020-12-06T09:15:06.549000+00:00</time>
      </trkpt>
      <trkpt lat="0" lon="0">
        <time>2020-12-06T09:15:06.551000+00:00</time>
      </trkpt>
      <trkpt lat="47.33766" lon="-1.24551">
        <ele>33</ele>
        <time>2020-12-06T09:15:07.576000+00:00</time>
      </trkpt>
      <trkpt lat="0" lon="0">
        <time>2020-12-06T09:15:07.580000+00:00</time>
      </trkpt>
      <trkpt lat="0" lon="0">
        <time>2020-12-06T09:15:07.585000+00:00</time>
      </trkpt>
      <trkpt lat="0" lon="0">
        <time>2020-12-06T09:15:07.589000+00:00</time>
      </trkpt>
      <trkpt lat="47.33768" lon="-1.2456">
        <ele>33</ele>
        <time>2020-12-06T09:15:08.551000+00:00</time>
      </trkpt>
      <trkpt lat="0" lon="0">
        <time>2020-12-06T09:15:08.560000+00:00</time>
      </trkpt>
      <trkpt lat="0" lon="0">
        <time>2020-12-06T09:15:08.568000+00:00</time>
      </trkpt>
      <trkpt lat="0" lon="0">
        <time>2020-12-06T09:15:08.570000+00:00</time>
      </trkpt>
      <trkpt lat="47.33769" lon="-1.24569">
        <ele>33</ele>
        <time>2020-12-06T09:15:09.581000+00:00</time>
      </trkpt>
      <trkpt lat="0" lon="0">
        <time>2020-12-06T09:15:09.593000+00:00</time>
      </trkpt>
      <trkpt lat="0" lon="0">
        <time>2020-12-06T09:15:09.595000+00:00</time>
      </trkpt>
      <trkpt lat="0" lon="0">
        <time>2020-12-06T09:15:09.596000+00:00</time>
      </trkpt>
      <trkpt lat="47.33771" lon="-1.24577">
        <ele>33</ele>
        <time>2020-12-06T09:15:10.601000+00:00</time>
      </trkpt>
      <trkpt lat="0" lon="0">
        <time>2020-12-06T09:15:10.605000+00:00</time>
      </trkpt>
      <trkpt lat="0" lon="0">
        <time>2020-12-06T09:15:10.609000+00:00</time>
      </trkpt>
      <trkpt lat="0" lon="0">
        <time>2020-12-06T09:15:10.611000+00:00</time>
      </trkpt>
      <trkpt lat="47.33773" lon="-1.24585">
        <ele>33</ele>
        <time>2020-12-06T09:15:11.563000+00:00</time>
      </trkpt>
      <trkpt lat="0" lon="0">
        <time>2020-12-06T09:15:11.568000+00:00</time>
      </trkpt>
      <trkpt lat="0" lon="0">
        <time>2020-12-06T09:15:11.573000+00:00</time>
      </trkpt>
      <trkpt lat="0" lon="0">
        <time>2020-12-06T09:15:11.575000+00:00</time>
      </trkpt>
      <trkpt lat="47.33776" lon="-1.24592">
        <ele>33</ele>
        <time>2020-12-06T09:15:12.528000+00:00</time>
      </trkpt>
      <trkpt lat="0" lon="0">
        <time>2020-12-06T09:15:12.529000+00:00</time>
      </trkpt>
      <trkpt lat="0" lon="0">
        <time>2020-12-06T09:15:12.531000+00:00</time>
      </trkpt>
      <trkpt lat="0" lon="0">
        <time>2020-12-06T09:15:12.532000+00:00</time>
      </trkpt>
      <trkpt lat="47.3378" lon="-1.24599">
        <ele>33</ele>
        <time>2020-12-06T09:15:13.543000+00:00</time>
      </trkpt>
      <trkpt lat="0" lon="0">
        <time>2020-12-06T09:15:13.546000+00:00</time>
      </trkpt>
      <trkpt lat="0" lon="0">
        <time>2020-12-06T09:15:13.550000+00:00</time>
      </trkpt>
      <trkpt lat="0" lon="0">
        <time>2020-12-06T09:15:13.553000+00:00</time>
      </trkpt>
      <trkpt lat="47.33784" lon="-1.24606">
        <ele>34</ele>
        <time>2020-12-06T09:15:14.583000+00:00</time>
      </trkpt>
      <trkpt lat="0" lon="0">
        <time>2020-12-06T09:15:14.596000+00:00</time>
      </trkpt>
      <trkpt lat="0" lon="0">
        <time>2020-12-06T09:15:14.598000+00:00</time>
      </trkpt>
      <trkpt lat="0" lon="0">
        <time>2020-12-06T09:15:14.599000+00:00</time>
      </trkpt>
      <trkpt lat="47.33788" lon="-1.24612">
        <ele>34</ele>
        <time>2020-12-06T09:15:15.534000+00:00</time>
      </trkpt>
      <trkpt lat="0" lon="0">
        <time>2020-12-06T09:15:15.545000+00:00</time>
      </trkpt>
      <trkpt lat="0" lon="0">
        <time>2020-12-06T09:15:15.549000+00:00</time>
      </trkpt>
      <trkpt lat="0" lon="0">
        <time>2020-12-06T09:15:15.551000+00:00</time>
      </trkpt>
      <trkpt lat="47.33792" lon="-1.24619">
        <ele>34</ele>
        <time>2020-12-06T09:15:16.586000+00:00</time>
      </trkpt>
      <trkpt lat="0" lon="0">
        <time>2020-12-06T09:15:16.597000+00:00</time>
      </trkpt>
      <trkpt lat="0" lon="0">
        <time>2020-12-06T09:15:16.605000+00:00</time>
      </trkpt>
      <trkpt lat="0" lon="0">
        <time>2020-12-06T09:15:16.606000+00:00</time>
      </trkpt>
      <trkpt lat="47.33797" lon="-1.24625">
        <ele>34</ele>
        <time>2020-12-06T09:15:17.550000+00:00</time>
      </trkpt>
      <trkpt lat="0" lon="0">
        <time>2020-12-06T09:15:17.577000+00:00</time>
      </trkpt>
      <trkpt lat="0" lon="0">
        <time>2020-12-06T09:15:17.581000+00:00</time>
      </trkpt>
      <trkpt lat="0" lon="0">
        <time>2020-12-06T09:15:17.582000+00:00</time>
      </trkpt>
      <trkpt lat="47.33801" lon="-1.24631">
        <ele>34</ele>
        <time>2020-12-06T09:15:18.521000+00:00</time>
      </trkpt>
      <trkpt lat="0" lon="0">
        <time>2020-12-06T09:15:18.524000+00:00</time>
      </trkpt>
      <trkpt lat="0" lon="0">
        <time>2020-12-06T09:15:18.527000+00:00</time>
      </trkpt>
      <trkpt lat="0" lon="0">
        <time>2020-12-06T09:15:18.529000+00:00</time>
      </trkpt>
      <trkpt lat="47.33806" lon="-1.24637">
        <ele>34</ele>
        <time>2020-12-06T09:15:19.569000+00:00</time>
      </trkpt>
      <trkpt lat="0" lon="0">
        <time>2020-12-06T09:15:19.580000+00:00</time>
      </trkpt>
      <trkpt lat="0" lon="0">
        <time>2020-12-06T09:15:19.586000+00:00</time>
      </trkpt>
      <trkpt lat="0" lon="0">
        <time>2020-12-06T09:15:19.588000+00:00</time>
      </trkpt>
      <trkpt lat="47.33811" lon="-1.24643">
        <ele>35</ele>
        <time>2020-12-06T09:15:20.553000+00:00</time>
      </trkpt>
      <trkpt lat="0" lon="0">
        <time>2020-12-06T09:15:20.556000+00:00</time>
      </trkpt>
      <trkpt lat="0" lon="0">
        <time>2020-12-06T09:15:20.559000+00:00</time>
      </trkpt>
      <trkpt lat="0" lon="0">
        <time>2020-12-06T09:15:20.563000+00:00</time>
      </trkpt>
      <trkpt lat="47.33815" lon="-1.24649">
        <ele>35</ele>
        <time>2020-12-06T09:15:21.544000+00:00</time>
      </trkpt>
      <trkpt lat="0" lon="0">
        <time>2020-12-06T09:15:21.548000+00:00</time>
      </trkpt>
      <trkpt lat="0" lon="0">
        <time>2020-12-06T09:15:21.553000+00:00</time>
      </trkpt>
      <trkpt lat="0" lon="0">
        <time>2020-12-06T09:15:21.556000+00:00</time>
      </trkpt>
      <trkpt lat="47.3382" lon="-1.24655">
        <ele>35</ele>
        <time>2020-12-06T09:15:22.531000+00:00</time>
      </trkpt>
      <trkpt lat="0" lon="0">
        <time>2020-12-06T09:15:22.535000+00:00</time>
      </trkpt>
      <trkpt lat="0" lon="0">
        <time>2020-12-06T09:15:22.539000+00:00</time>
      </trkpt>
      <trkpt lat="0" lon="0">
        <time>2020-12-06T09:15:22.551000+00:00</time>
      </trkpt>
      <trkpt lat="47.33824" lon="-1.24661">
        <ele>36</ele>
        <time>2020-12-06T09:15:23.551000+00:00</time>
      </trkpt>
      <trkpt lat="0" lon="0">
        <time>2020-12-06T09:15:23.554000+00:00</time>
      </trkpt>
      <trkpt lat="0" lon="0">
        <time>2020-12-06T09:15:23.559000+00:00</time>
      </trkpt>
      <trkpt lat="0" lon="0">
        <time>2020-12-06T09:15:23.561000+00:00</time>
      </trkpt>
      <trkpt lat="47.33828" lon="-1.24667">
        <ele>36</ele>
        <time>2020-12-06T09:15:24.554000+00:00</time>
      </trkpt>
      <trkpt lat="0" lon="0">
        <time>2020-12-06T09:15:24.557000+00:00</time>
      </trkpt>
      <trkpt lat="0" lon="0">
        <time>2020-12-06T09:15:24.565000+00:00</time>
      </trkpt>
      <trkpt lat="0" lon="0">
        <time>2020-12-06T09:15:24.566000+00:00</time>
      </trkpt>
      <trkpt lat="47.33832" lon="-1.24674">
        <ele>36</ele>
        <time>2020-12-06T09:15:25.576000+00:00</time>
      </trkpt>
      <trkpt lat="0" lon="0">
        <time>2020-12-06T09:15:25.585000+00:00</time>
      </trkpt>
      <trkpt lat="0" lon="0">
        <time>2020-12-06T09:15:25.592000+00:00</time>
      </trkpt>
      <trkpt lat="0" lon="0">
        <time>2020-12-06T09:15:25.593000+00:00</time>
      </trkpt>
      <trkpt lat="47.33835" lon="-1.24681">
        <ele>36</ele>
        <time>2020-12-06T09:15:26.547000+00:00</time>
      </trkpt>
      <trkpt lat="0" lon="0">
        <time>2020-12-06T09:15:26.550000+00:00</time>
      </trkpt>
      <trkpt lat="0" lon="0">
        <time>2020-12-06T09:15:26.555000+00:00</time>
      </trkpt>
      <trkpt lat="0" lon="0">
        <time>2020-12-06T09:15:26.556000+00:00</time>
      </trkpt>
      <trkpt lat="47.33838" lon="-1.24688">
        <ele>35</ele>
        <time>2020-12-06T09:15:27.565000+00:00</time>
      </trkpt>
      <trkpt lat="0" lon="0">
        <time>2020-12-06T09:15:27.572000+00:00</time>
      </trkpt>
      <trkpt lat="0" lon="0">
        <time>2020-12-06T09:15:27.576000+00:00</time>
      </trkpt>
      <trkpt lat="0" lon="0">
        <time>2020-12-06T09:15:27.577000+00:00</time>
      </trkpt>
      <trkpt lat="47.33841" lon="-1.24695">
        <ele>35</ele>
        <time>2020-12-06T09:15:28.580000+00:00</time>
      </trkpt>
      <trkpt lat="0" lon="0">
        <time>2020-12-06T09:15:28.597000+00:00</time>
      </trkpt>
      <trkpt lat="0" lon="0">
        <time>2020-12-06T09:15:28.604000+00:00</time>
      </trkpt>
      <trkpt lat="0" lon="0">
        <time>2020-12-06T09:15:28.609000+00:00</time>
      </trkpt>
      <trkpt lat="47.33844" lon="-1.24702">
        <ele>34</ele>
        <time>2020-12-06T09:15:29.568000+00:00</time>
      </trkpt>
      <trkpt lat="0" lon="0">
        <time>2020-12-06T09:15:29.570000+00:00</time>
      </trkpt>
      <trkpt lat="0" lon="0">
        <time>2020-12-06T09:15:29.573000+00:00</time>
      </trkpt>
      <trkpt lat="0" lon="0">
        <time>2020-12-06T09:15:29.575000+00:00</time>
      </trkpt>
      <trkpt lat="47.33846" lon="-1.2471">
        <ele>34</ele>
        <time>2020-12-06T09:15:30.522000+00:00</time>
      </trkpt>
      <trkpt lat="0" lon="0">
        <time>2020-12-06T09:15:30.525000+00:00</time>
      </trkpt>
      <trkpt lat="0" lon="0">
        <time>2020-12-06T09:15:30.540000+00:00</time>
      </trkpt>
      <trkpt lat="0" lon="0">
        <time>2020-12-06T09:15:30.541000+00:00</time>
      </trkpt>
      <trkpt lat="47.33849" lon="-1.24717">
        <ele>34</ele>
        <time>2020-12-06T09:15:31.506000+00:00</time>
      </trkpt>
      <trkpt lat="0" lon="0">
        <time>2020-12-06T09:15:31.509000+00:00</time>
      </trkpt>
      <trkpt lat="0" lon="0">
        <time>2020-12-06T09:15:31.513000+00:00</time>
      </trkpt>
      <trkpt lat="0" lon="0">
        <time>2020-12-06T09:15:31.515000+00:00</time>
      </trkpt>
      <trkpt lat="47.33851" lon="-1.24725">
        <ele>34</ele>
        <time>2020-12-06T09:15:32.593000+00:00</time>
      </trkpt>
      <trkpt lat="0" lon="0">
        <time>2020-12-06T09:15:32.601000+00:00</time>
      </trkpt>
      <trkpt lat="0" lon="0">
        <time>2020-12-06T09:15:32.609000+00:00</time>
      </trkpt>
      <trkpt lat="0" lon="0">
        <time>2020-12-06T09:15:32.611000+00:00</time>
      </trkpt>
      <trkpt lat="47.33853" lon="-1.24732">
        <ele>33</ele>
        <time>2020-12-06T09:15:33.536000+00:00</time>
      </trkpt>
      <trkpt lat="0" lon="0">
        <time>2020-12-06T09:15:33.549000+00:00</time>
      </trkpt>
      <trkpt lat="0" lon="0">
        <time>2020-12-06T09:15:33.558000+00:00</time>
      </trkpt>
      <trkpt lat="0" lon="0">
        <time>2020-12-06T09:15:33.561000+00:00</time>
      </trkpt>
      <trkpt lat="47.33855" lon="-1.2474">
        <ele>33</ele>
        <time>2020-12-06T09:15:34.550000+00:00</time>
      </trkpt>
      <trkpt lat="0" lon="0">
        <time>2020-12-06T09:15:34.562000+00:00</time>
      </trkpt>
      <trkpt lat="0" lon="0">
        <time>2020-12-06T09:15:34.566000+00:00</time>
      </trkpt>
      <trkpt lat="0" lon="0">
        <time>2020-12-06T09:15:34.568000+00:00</time>
      </trkpt>
      <trkpt lat="47.33857" lon="-1.24747">
        <ele>33</ele>
        <time>2020-12-06T09:15:35.573000+00:00</time>
      </trkpt>
      <trkpt lat="0" lon="0">
        <time>2020-12-06T09:15:35.584000+00:00</time>
      </trkpt>
      <trkpt lat="0" lon="0">
        <time>2020-12-06T09:15:35.588000+00:00</time>
      </trkpt>
      <trkpt lat="0" lon="0">
        <time>2020-12-06T09:15:35.590000+00:00</time>
      </trkpt>
      <trkpt lat="47.33859" lon="-1.24755">
        <ele>33</ele>
        <time>2020-12-06T09:15:36.561000+00:00</time>
      </trkpt>
      <trkpt lat="0" lon="0">
        <time>2020-12-06T09:15:36.566000+00:00</time>
      </trkpt>
      <trkpt lat="0" lon="0">
        <time>2020-12-06T09:15:36.575000+00:00</time>
      </trkpt>
      <trkpt lat="0" lon="0">
        <time>2020-12-06T09:15:36.578000+00:00</time>
      </trkpt>
      <trkpt lat="47.33861" lon="-1.24763">
        <ele>32</ele>
        <time>2020-12-06T09:15:37.578000+00:00</time>
      </trkpt>
      <trkpt lat="0" lon="0">
        <time>2020-12-06T09:15:37.585000+00:00</time>
      </trkpt>
      <trkpt lat="0" lon="0">
        <time>2020-12-06T09:15:37.591000+00:00</time>
      </trkpt>
      <trkpt lat="0" lon="0">
        <time>2020-12-06T09:15:37.593000+00:00</time>
      </trkpt>
      <trkpt lat="47.33863" lon="-1.2477">
        <ele>32</ele>
        <time>2020-12-06T09:15:38.546000+00:00</time>
      </trkpt>
      <trkpt lat="0" lon="0">
        <time>2020-12-06T09:15:38.550000+00:00</time>
      </trkpt>
      <trkpt lat="0" lon="0">
        <time>2020-12-06T09:15:38.555000+00:00</time>
      </trkpt>
      <trkpt lat="0" lon="0">
        <time>2020-12-06T09:15:38.557000+00:00</time>
      </trkpt>
      <trkpt lat="47.33865" lon="-1.24778">
        <ele>31</ele>
        <time>2020-12-06T09:15:39.546000+00:00</time>
      </trkpt>
      <trkpt lat="0" lon="0">
        <time>2020-12-06T09:15:39.557000+00:00</time>
      </trkpt>
      <trkpt lat="0" lon="0">
        <time>2020-12-06T09:15:39.561000+00:00</time>
      </trkpt>
      <trkpt lat="0" lon="0">
        <time>2020-12-06T09:15:39.562000+00:00</time>
      </trkpt>
      <trkpt lat="47.33866" lon="-1.24786">
        <ele>31</ele>
        <time>2020-12-06T09:15:40.594000+00:00</time>
      </trkpt>
      <trkpt lat="0" lon="0">
        <time>2020-12-06T09:15:40.611000+00:00</time>
      </trkpt>
      <trkpt lat="0" lon="0">
        <time>2020-12-06T09:15:40.615000+00:00</time>
      </trkpt>
      <trkpt lat="0" lon="0">
        <time>2020-12-06T09:15:40.619000+00:00</time>
      </trkpt>
      <trkpt lat="47.33868" lon="-1.24794">
        <ele>30</ele>
        <time>2020-12-06T09:15:41.580000+00:00</time>
      </trkpt>
      <trkpt lat="0" lon="0">
        <time>2020-12-06T09:15:41.582000+00:00</time>
      </trkpt>
      <trkpt lat="0" lon="0">
        <time>2020-12-06T09:15:41.584000+00:00</time>
      </trkpt>
      <trkpt lat="0" lon="0">
        <time>2020-12-06T09:15:41.589000+00:00</time>
      </trkpt>
      <trkpt lat="47.33869" lon="-1.24802">
        <ele>30</ele>
        <time>2020-12-06T09:15:42.521000+00:00</time>
      </trkpt>
      <trkpt lat="0" lon="0">
        <time>2020-12-06T09:15:42.527000+00:00</time>
      </trkpt>
      <trkpt lat="0" lon="0">
        <time>2020-12-06T09:15:42.532000+00:00</time>
      </trkpt>
      <trkpt lat="0" lon="0">
        <time>2020-12-06T09:15:42.534000+00:00</time>
      </trkpt>
      <trkpt lat="47.3387" lon="-1.2481">
        <ele>30</ele>
        <time>2020-12-06T09:15:43.579000+00:00</time>
      </trkpt>
      <trkpt lat="0" lon="0">
        <time>2020-12-06T09:15:43.591000+00:00</time>
      </trkpt>
      <trkpt lat="0" lon="0">
        <time>2020-12-06T09:15:43.599000+00:00</time>
      </trkpt>
      <trkpt lat="0" lon="0">
        <time>2020-12-06T09:15:43.607000+00:00</time>
      </trkpt>
      <trkpt lat="47.33871" lon="-1.24818">
        <ele>30</ele>
        <time>2020-12-06T09:15:44.573000+00:00</time>
      </trkpt>
      <trkpt lat="0" lon="0">
        <time>2020-12-06T09:15:44.584000+00:00</time>
      </trkpt>
      <trkpt lat="0" lon="0">
        <time>2020-12-06T09:15:44.590000+00:00</time>
      </trkpt>
      <trkpt lat="0" lon="0">
        <time>2020-12-06T09:15:44.591000+00:00</time>
      </trkpt>
      <trkpt lat="47.33871" lon="-1.24825">
        <ele>30</ele>
        <time>2020-12-06T09:15:45.523000+00:00</time>
      </trkpt>
      <trkpt lat="0" lon="0">
        <time>2020-12-06T09:15:45.538000+00:00</time>
      </trkpt>
      <trkpt lat="0" lon="0">
        <time>2020-12-06T09:15:45.541000+00:00</time>
      </trkpt>
      <trkpt lat="0" lon="0">
        <time>2020-12-06T09:15:45.542000+00:00</time>
      </trkpt>
      <trkpt lat="47.3387" lon="-1.24833">
        <ele>30</ele>
        <time>2020-12-06T09:15:46.526000+00:00</time>
      </trkpt>
      <trkpt lat="0" lon="0">
        <time>2020-12-06T09:15:46.530000+00:00</time>
      </trkpt>
      <trkpt lat="0" lon="0">
        <time>2020-12-06T09:15:46.542000+00:00</time>
      </trkpt>
      <trkpt lat="0" lon="0">
        <time>2020-12-06T09:15:46.545000+00:00</time>
      </trkpt>
      <trkpt lat="47.33868" lon="-1.2484">
        <ele>30</ele>
        <time>2020-12-06T09:15:47.512000+00:00</time>
      </trkpt>
      <trkpt lat="0" lon="0">
        <time>2020-12-06T09:15:47.533000+00:00</time>
      </trkpt>
      <trkpt lat="0" lon="0">
        <time>2020-12-06T09:15:47.537000+00:00</time>
      </trkpt>
      <trkpt lat="0" lon="0">
        <time>2020-12-06T09:15:47.538000+00:00</time>
      </trkpt>
      <trkpt lat="47.33865" lon="-1.24847">
        <ele>30</ele>
        <time>2020-12-06T09:15:48.576000+00:00</time>
      </trkpt>
      <trkpt lat="0" lon="0">
        <time>2020-12-06T09:15:48.582000+00:00</time>
      </trkpt>
      <trkpt lat="0" lon="0">
        <time>2020-12-06T09:15:48.587000+00:00</time>
      </trkpt>
      <trkpt lat="0" lon="0">
        <time>2020-12-06T09:15:48.591000+00:00</time>
      </trkpt>
      <trkpt lat="47.33862" lon="-1.24854">
        <ele>31</ele>
        <time>2020-12-06T09:15:49.582000+00:00</time>
      </trkpt>
      <trkpt lat="0" lon="0">
        <time>2020-12-06T09:15:49.596000+00:00</time>
      </trkpt>
      <trkpt lat="0" lon="0">
        <time>2020-12-06T09:15:49.600000+00:00</time>
      </trkpt>
      <trkpt lat="0" lon="0">
        <time>2020-12-06T09:15:49.604000+00:00</time>
      </trkpt>
      <trkpt lat="47.33858" lon="-1.2486">
        <ele>31</ele>
        <time>2020-12-06T09:15:50.574000+00:00</time>
      </trkpt>
      <trkpt lat="0" lon="0">
        <time>2020-12-06T09:15:50.585000+00:00</time>
      </trkpt>
      <trkpt lat="0" lon="0">
        <time>2020-12-06T09:15:50.591000+00:00</time>
      </trkpt>
      <trkpt lat="0" lon="0">
        <time>2020-12-06T09:15:50.601000+00:00</time>
      </trkpt>
      <trkpt lat="47.33854" lon="-1.24865">
        <ele>32</ele>
        <time>2020-12-06T09:15:51.568000+00:00</time>
      </trkpt>
      <trkpt lat="0" lon="0">
        <time>2020-12-06T09:15:51.582000+00:00</time>
      </trkpt>
      <trkpt lat="0" lon="0">
        <time>2020-12-06T09:15:51.587000+00:00</time>
      </trkpt>
      <trkpt lat="0" lon="0">
        <time>2020-12-06T09:15:51.589000+00:00</time>
      </trkpt>
      <trkpt lat="47.3385" lon="-1.2487">
        <ele>33</ele>
        <time>2020-12-06T09:15:52.555000+00:00</time>
      </trkpt>
      <trkpt lat="0" lon="0">
        <time>2020-12-06T09:15:52.565000+00:00</time>
      </trkpt>
      <trkpt lat="0" lon="0">
        <time>2020-12-06T09:15:52.571000+00:00</time>
      </trkpt>
      <trkpt lat="0" lon="0">
        <time>2020-12-06T09:15:52.572000+00:00</time>
      </trkpt>
      <trkpt lat="47.33845" lon="-1.24874">
        <ele>34</ele>
        <time>2020-12-06T09:15:53.529000+00:00</time>
      </trkpt>
      <trkpt lat="0" lon="0">
        <time>2020-12-06T09:15:53.541000+00:00</time>
      </trkpt>
      <trkpt lat="0" lon="0">
        <time>2020-12-06T09:15:53.542000+00:00</time>
      </trkpt>
      <trkpt lat="0" lon="0">
        <time>2020-12-06T09:15:53.543000+00:00</time>
      </trkpt>
      <trkpt lat="47.3384" lon="-1.24878">
        <ele>35</ele>
        <time>2020-12-06T09:15:54.556000+00:00</time>
      </trkpt>
      <trkpt lat="0" lon="0">
        <time>2020-12-06T09:15:54.576000+00:00</time>
      </trkpt>
      <trkpt lat="0" lon="0">
        <time>2020-12-06T09:15:54.586000+00:00</time>
      </trkpt>
      <trkpt lat="0" lon="0">
        <time>2020-12-06T09:15:54.589000+00:00</time>
      </trkpt>
      <trkpt lat="47.33836" lon="-1.24881">
        <ele>36</ele>
        <time>2020-12-06T09:15:55.543000+00:00</time>
      </trkpt>
      <trkpt lat="0" lon="0">
        <time>2020-12-06T09:15:55.561000+00:00</time>
      </trkpt>
      <trkpt lat="0" lon="0">
        <time>2020-12-06T09:15:55.566000+00:00</time>
      </trkpt>
      <trkpt lat="0" lon="0">
        <time>2020-12-06T09:15:55.568000+00:00</time>
      </trkpt>
      <trkpt lat="47.33831" lon="-1.24885">
        <ele>36</ele>
        <time>2020-12-06T09:15:56.585000+00:00</time>
      </trkpt>
      <trkpt lat="0" lon="0">
        <time>2020-12-06T09:15:56.597000+00:00</time>
      </trkpt>
      <trkpt lat="0" lon="0">
        <time>2020-12-06T09:15:56.602000+00:00</time>
      </trkpt>
      <trkpt lat="0" lon="0">
        <time>2020-12-06T09:15:56.605000+00:00</time>
      </trkpt>
      <trkpt lat="47.33826" lon="-1.24887">
        <ele>37</ele>
        <time>2020-12-06T09:15:57.552000+00:00</time>
      </trkpt>
      <trkpt lat="0" lon="0">
        <time>2020-12-06T09:15:57.556000+00:00</time>
      </trkpt>
      <trkpt lat="0" lon="0">
        <time>2020-12-06T09:15:57.567000+00:00</time>
      </trkpt>
      <trkpt lat="0" lon="0">
        <time>2020-12-06T09:15:57.571000+00:00</time>
      </trkpt>
      <trkpt lat="47.33821" lon="-1.2489">
        <ele>37</ele>
        <time>2020-12-06T09:15:58.575000+00:00</time>
      </trkpt>
      <trkpt lat="0" lon="0">
        <time>2020-12-06T09:15:58.586000+00:00</time>
      </trkpt>
      <trkpt lat="0" lon="0">
        <time>2020-12-06T09:15:58.591000+00:00</time>
      </trkpt>
      <trkpt lat="0" lon="0">
        <time>2020-12-06T09:15:58.593000+00:00</time>
      </trkpt>
      <trkpt lat="47.33816" lon="-1.24892">
        <ele>37</ele>
        <time>2020-12-06T09:15:59.579000+00:00</time>
      </trkpt>
      <trkpt lat="0" lon="0">
        <time>2020-12-06T09:15:59.589000+00:00</time>
      </trkpt>
      <trkpt lat="0" lon="0">
        <time>2020-12-06T09:15:59.600000+00:00</time>
      </trkpt>
      <trkpt lat="0" lon="0">
        <time>2020-12-06T09:15:59.604000+00:00</time>
      </trkpt>
      <trkpt lat="47.33811" lon="-1.24895">
        <ele>38</ele>
        <time>2020-12-06T09:16:00.576000+00:00</time>
      </trkpt>
      <trkpt lat="0" lon="0">
        <time>2020-12-06T09:16:00.582000+00:00</time>
      </trkpt>
      <trkpt lat="0" lon="0">
        <time>2020-12-06T09:16:00.591000+00:00</time>
      </trkpt>
      <trkpt lat="0" lon="0">
        <time>2020-12-06T09:16:00.594000+00:00</time>
      </trkpt>
      <trkpt lat="47.33807" lon="-1.24897">
        <ele>38</ele>
        <time>2020-12-06T09:16:01.553000+00:00</time>
      </trkpt>
      <trkpt lat="0" lon="0">
        <time>2020-12-06T09:16:01.562000+00:00</time>
      </trkpt>
      <trkpt lat="0" lon="0">
        <time>2020-12-06T09:16:01.565000+00:00</time>
      </trkpt>
      <trkpt lat="0" lon="0">
        <time>2020-12-06T09:16:01.569000+00:00</time>
      </trkpt>
      <trkpt lat="47.33803" lon="-1.249">
        <ele>38</ele>
        <time>2020-12-06T09:16:02.612000+00:00</time>
      </trkpt>
      <trkpt lat="0" lon="0">
        <time>2020-12-06T09:16:02.618000+00:00</time>
      </trkpt>
      <trkpt lat="0" lon="0">
        <time>2020-12-06T09:16:02.639000+00:00</time>
      </trkpt>
      <trkpt lat="0" lon="0">
        <time>2020-12-06T09:16:02.641000+00:00</time>
      </trkpt>
      <trkpt lat="47.33799" lon="-1.24902">
        <ele>39</ele>
        <time>2020-12-06T09:16:03.530000+00:00</time>
      </trkpt>
      <trkpt lat="0" lon="0">
        <time>2020-12-06T09:16:03.533000+00:00</time>
      </trkpt>
      <trkpt lat="0" lon="0">
        <time>2020-12-06T09:16:03.536000+00:00</time>
      </trkpt>
      <trkpt lat="0" lon="0">
        <time>2020-12-06T09:16:03.541000+00:00</time>
      </trkpt>
      <trkpt lat="47.33795" lon="-1.24905">
        <ele>39</ele>
        <time>2020-12-06T09:16:04.515000+00:00</time>
      </trkpt>
      <trkpt lat="0" lon="0">
        <time>2020-12-06T09:16:04.526000+00:00</time>
      </trkpt>
      <trkpt lat="0" lon="0">
        <time>2020-12-06T09:16:04.537000+00:00</time>
      </trkpt>
      <trkpt lat="0" lon="0">
        <time>2020-12-06T09:16:04.538000+00:00</time>
      </trkpt>
      <trkpt lat="47.33792" lon="-1.24909">
        <ele>39</ele>
        <time>2020-12-06T09:16:05.549000+00:00</time>
      </trkpt>
      <trkpt lat="0" lon="0">
        <time>2020-12-06T09:16:05.558000+00:00</time>
      </trkpt>
      <trkpt lat="0" lon="0">
        <time>2020-12-06T09:16:05.562000+00:00</time>
      </trkpt>
      <trkpt lat="0" lon="0">
        <time>2020-12-06T09:16:05.565000+00:00</time>
      </trkpt>
      <trkpt lat="47.33789" lon="-1.24912">
        <ele>39</ele>
        <time>2020-12-06T09:16:06.486000+00:00</time>
      </trkpt>
      <trkpt lat="0" lon="0">
        <time>2020-12-06T09:16:06.488000+00:00</time>
      </trkpt>
      <trkpt lat="0" lon="0">
        <time>2020-12-06T09:16:06.491000+00:00</time>
      </trkpt>
      <trkpt lat="0" lon="0">
        <time>2020-12-06T09:16:06.492000+00:00</time>
      </trkpt>
      <trkpt lat="47.33787" lon="-1.24917">
        <ele>39</ele>
        <time>2020-12-06T09:16:07.521000+00:00</time>
      </trkpt>
      <trkpt lat="0" lon="0">
        <time>2020-12-06T09:16:07.528000+00:00</time>
      </trkpt>
      <trkpt lat="0" lon="0">
        <time>2020-12-06T09:16:07.532000+00:00</time>
      </trkpt>
      <trkpt lat="0" lon="0">
        <time>2020-12-06T09:16:07.538000+00:00</time>
      </trkpt>
      <trkpt lat="47.33785" lon="-1.24921">
        <ele>39</ele>
        <time>2020-12-06T09:16:08.493000+00:00</time>
      </trkpt>
      <trkpt lat="0" lon="0">
        <time>2020-12-06T09:16:08.497000+00:00</time>
      </trkpt>
      <trkpt lat="0" lon="0">
        <time>2020-12-06T09:16:08.500000+00:00</time>
      </trkpt>
      <trkpt lat="0" lon="0">
        <time>2020-12-06T09:16:08.505000+00:00</time>
      </trkpt>
      <trkpt lat="47.33784" lon="-1.24926">
        <ele>39</ele>
        <time>2020-12-06T09:16:09.562000+00:00</time>
      </trkpt>
      <trkpt lat="0" lon="0">
        <time>2020-12-06T09:16:09.565000+00:00</time>
      </trkpt>
      <trkpt lat="0" lon="0">
        <time>2020-12-06T09:16:09.568000+00:00</time>
      </trkpt>
      <trkpt lat="0" lon="0">
        <time>2020-12-06T09:16:09.570000+00:00</time>
      </trkpt>
      <trkpt lat="47.33784" lon="-1.24932">
        <ele>39</ele>
        <time>2020-12-06T09:16:10.567000+00:00</time>
      </trkpt>
      <trkpt lat="0" lon="0">
        <time>2020-12-06T09:16:10.575000+00:00</time>
      </trkpt>
      <trkpt lat="0" lon="0">
        <time>2020-12-06T09:16:10.577000+00:00</time>
      </trkpt>
      <trkpt lat="0" lon="0">
        <time>2020-12-06T09:16:10.578000+00:00</time>
      </trkpt>
      <trkpt lat="47.33785" lon="-1.24937">
        <ele>39</ele>
        <time>2020-12-06T09:16:11.474000+00:00</time>
      </trkpt>
      <trkpt lat="0" lon="0">
        <time>2020-12-06T09:16:11.475000+00:00</time>
      </trkpt>
      <trkpt lat="0" lon="0">
        <time>2020-12-06T09:16:11.476000+00:00</time>
      </trkpt>
      <trkpt lat="0" lon="0">
        <time>2020-12-06T09:16:11.477000+00:00</time>
      </trkpt>
      <trkpt lat="47.33786" lon="-1.24943">
        <ele>39</ele>
        <time>2020-12-06T09:16:12.525000+00:00</time>
      </trkpt>
      <trkpt lat="0" lon="0">
        <time>2020-12-06T09:16:12.528000+00:00</time>
      </trkpt>
      <trkpt lat="0" lon="0">
        <time>2020-12-06T09:16:12.532000+00:00</time>
      </trkpt>
      <trkpt lat="0" lon="0">
        <time>2020-12-06T09:16:12.534000+00:00</time>
      </trkpt>
      <trkpt lat="47.33788" lon="-1.24949">
        <ele>39</ele>
        <time>2020-12-06T09:16:13.556000+00:00</time>
      </trkpt>
      <trkpt lat="0" lon="0">
        <time>2020-12-06T09:16:13.572000+00:00</time>
      </trkpt>
      <trkpt lat="0" lon="0">
        <time>2020-12-06T09:16:13.580000+00:00</time>
      </trkpt>
      <trkpt lat="0" lon="0">
        <time>2020-12-06T09:16:13.582000+00:00</time>
      </trkpt>
      <trkpt lat="47.33791" lon="-1.24954">
        <ele>39</ele>
        <time>2020-12-06T09:16:14.561000+00:00</time>
      </trkpt>
      <trkpt lat="0" lon="0">
        <time>2020-12-06T09:16:14.568000+00:00</time>
      </trkpt>
      <trkpt lat="0" lon="0">
        <time>2020-12-06T09:16:14.581000+00:00</time>
      </trkpt>
      <trkpt lat="0" lon="0">
        <time>2020-12-06T09:16:14.583000+00:00</time>
      </trkpt>
      <trkpt lat="47.33795" lon="-1.24958">
        <ele>39</ele>
        <time>2020-12-06T09:16:15.513000+00:00</time>
      </trkpt>
      <trkpt lat="0" lon="0">
        <time>2020-12-06T09:16:15.525000+00:00</time>
      </trkpt>
      <trkpt lat="0" lon="0">
        <time>2020-12-06T09:16:15.532000+00:00</time>
      </trkpt>
      <trkpt lat="0" lon="0">
        <time>2020-12-06T09:16:15.536000+00:00</time>
      </trkpt>
      <trkpt lat="47.33799" lon="-1.24962">
        <ele>39</ele>
        <time>2020-12-06T09:16:16.514000+00:00</time>
      </trkpt>
      <trkpt lat="0" lon="0">
        <time>2020-12-06T09:16:16.531000+00:00</time>
      </trkpt>
      <trkpt lat="0" lon="0">
        <time>2020-12-06T09:16:16.535000+00:00</time>
      </trkpt>
      <trkpt lat="0" lon="0">
        <time>2020-12-06T09:16:16.539000+00:00</time>
      </trkpt>
      <trkpt lat="47.33803" lon="-1.24966">
        <ele>38</ele>
        <time>2020-12-06T09:16:17.553000+00:00</time>
      </trkpt>
      <trkpt lat="0" lon="0">
        <time>2020-12-06T09:16:17.560000+00:00</time>
      </trkpt>
      <trkpt lat="0" lon="0">
        <time>2020-12-06T09:16:17.565000+00:00</time>
      </trkpt>
      <trkpt lat="0" lon="0">
        <time>2020-12-06T09:16:17.567000+00:00</time>
      </trkpt>
      <trkpt lat="47.33808" lon="-1.24969">
        <ele>38</ele>
        <time>2020-12-06T09:16:18.487000+00:00</time>
      </trkpt>
      <trkpt lat="0" lon="0">
        <time>2020-12-06T09:16:18.502000+00:00</time>
      </trkpt>
      <trkpt lat="0" lon="0">
        <time>2020-12-06T09:16:18.506000+00:00</time>
      </trkpt>
      <trkpt lat="0" lon="0">
        <time>2020-12-06T09:16:18.507000+00:00</time>
      </trkpt>
      <trkpt lat="47.33813" lon="-1.24972">
        <ele>38</ele>
        <time>2020-12-06T09:16:19.597000+00:00</time>
      </trkpt>
      <trkpt lat="0" lon="0">
        <time>2020-12-06T09:16:19.607000+00:00</time>
      </trkpt>
      <trkpt lat="0" lon="0">
        <time>2020-12-06T09:16:19.610000+00:00</time>
      </trkpt>
      <trkpt lat="0" lon="0">
        <time>2020-12-06T09:16:19.622000+00:00</time>
      </trkpt>
      <trkpt lat="47.33818" lon="-1.24975">
        <ele>38</ele>
        <time>2020-12-06T09:16:20.623000+00:00</time>
      </trkpt>
      <trkpt lat="0" lon="0">
        <time>2020-12-06T09:16:20.632000+00:00</time>
      </trkpt>
      <trkpt lat="0" lon="0">
        <time>2020-12-06T09:16:20.637000+00:00</time>
      </trkpt>
      <trkpt lat="0" lon="0">
        <time>2020-12-06T09:16:20.641000+00:00</time>
      </trkpt>
      <trkpt lat="47.33823" lon="-1.24977">
        <ele>37</ele>
        <time>2020-12-06T09:16:21.580000+00:00</time>
      </trkpt>
      <trkpt lat="0" lon="0">
        <time>2020-12-06T09:16:21.583000+00:00</time>
      </trkpt>
      <trkpt lat="0" lon="0">
        <time>2020-12-06T09:16:21.585000+00:00</time>
      </trkpt>
      <trkpt lat="0" lon="0">
        <time>2020-12-06T09:16:21.586000+00:00</time>
      </trkpt>
      <trkpt lat="47.33828" lon="-1.24979">
        <ele>37</ele>
        <time>2020-12-06T09:16:22.581000+00:00</time>
      </trkpt>
      <trkpt lat="0" lon="0">
        <time>2020-12-06T09:16:22.593000+00:00</time>
      </trkpt>
      <trkpt lat="0" lon="0">
        <time>2020-12-06T09:16:22.599000+00:00</time>
      </trkpt>
      <trkpt lat="0" lon="0">
        <time>2020-12-06T09:16:22.601000+00:00</time>
      </trkpt>
      <trkpt lat="47.33833" lon="-1.2498">
        <ele>37</ele>
        <time>2020-12-06T09:16:23.573000+00:00</time>
      </trkpt>
      <trkpt lat="0" lon="0">
        <time>2020-12-06T09:16:23.586000+00:00</time>
      </trkpt>
      <trkpt lat="0" lon="0">
        <time>2020-12-06T09:16:23.590000+00:00</time>
      </trkpt>
      <trkpt lat="0" lon="0">
        <time>2020-12-06T09:16:23.594000+00:00</time>
      </trkpt>
      <trkpt lat="47.33838" lon="-1.24983">
        <ele>36</ele>
        <time>2020-12-06T09:16:24.471000+00:00</time>
      </trkpt>
      <trkpt lat="0" lon="0">
        <time>2020-12-06T09:16:24.473000+00:00</time>
      </trkpt>
      <trkpt lat="0" lon="0">
        <time>2020-12-06T09:16:24.482000+00:00</time>
      </trkpt>
      <trkpt lat="0" lon="0">
        <time>2020-12-06T09:16:24.485000+00:00</time>
      </trkpt>
      <trkpt lat="47.33843" lon="-1.24985">
        <ele>35</ele>
        <time>2020-12-06T09:16:25.578000+00:00</time>
      </trkpt>
      <trkpt lat="0" lon="0">
        <time>2020-12-06T09:16:25.595000+00:00</time>
      </trkpt>
      <trkpt lat="0" lon="0">
        <time>2020-12-06T09:16:25.601000+00:00</time>
      </trkpt>
      <trkpt lat="0" lon="0">
        <time>2020-12-06T09:16:25.605000+00:00</time>
      </trkpt>
      <trkpt lat="47.33848" lon="-1.24987">
        <ele>35</ele>
        <time>2020-12-06T09:16:26.565000+00:00</time>
      </trkpt>
      <trkpt lat="0" lon="0">
        <time>2020-12-06T09:16:26.569000+00:00</time>
      </trkpt>
      <trkpt lat="0" lon="0">
        <time>2020-12-06T09:16:26.576000+00:00</time>
      </trkpt>
      <trkpt lat="0" lon="0">
        <time>2020-12-06T09:16:26.580000+00:00</time>
      </trkpt>
      <trkpt lat="47.33853" lon="-1.2499">
        <ele>34</ele>
        <time>2020-12-06T09:16:27.549000+00:00</time>
      </trkpt>
      <trkpt lat="0" lon="0">
        <time>2020-12-06T09:16:27.555000+00:00</time>
      </trkpt>
      <trkpt lat="0" lon="0">
        <time>2020-12-06T09:16:27.559000+00:00</time>
      </trkpt>
      <trkpt lat="0" lon="0">
        <time>2020-12-06T09:16:27.561000+00:00</time>
      </trkpt>
      <trkpt lat="47.33857" lon="-1.24994">
        <ele>34</ele>
        <time>2020-12-06T09:16:28.557000+00:00</time>
      </trkpt>
      <trkpt lat="0" lon="0">
        <time>2020-12-06T09:16:28.570000+00:00</time>
      </trkpt>
      <trkpt lat="0" lon="0">
        <time>2020-12-06T09:16:28.572000+00:00</time>
      </trkpt>
      <trkpt lat="0" lon="0">
        <time>2020-12-06T09:16:28.573000+00:00</time>
      </trkpt>
      <trkpt lat="47.33862" lon="-1.24997">
        <ele>34</ele>
        <time>2020-12-06T09:16:29.604000+00:00</time>
      </trkpt>
      <trkpt lat="0" lon="0">
        <time>2020-12-06T09:16:29.612000+00:00</time>
      </trkpt>
      <trkpt lat="0" lon="0">
        <time>2020-12-06T09:16:29.623000+00:00</time>
      </trkpt>
      <trkpt lat="0" lon="0">
        <time>2020-12-06T09:16:29.627000+00:00</time>
      </trkpt>
      <trkpt lat="47.33866" lon="-1.25001">
        <ele>33</ele>
        <time>2020-12-06T09:16:30.572000+00:00</time>
      </trkpt>
      <trkpt lat="0" lon="0">
        <time>2020-12-06T09:16:30.582000+00:00</time>
      </trkpt>
      <trkpt lat="0" lon="0">
        <time>2020-12-06T09:16:30.586000+00:00</time>
      </trkpt>
      <trkpt lat="0" lon="0">
        <time>2020-12-06T09:16:30.590000+00:00</time>
      </trkpt>
      <trkpt lat="47.33869" lon="-1.25005">
        <ele>33</ele>
        <time>2020-12-06T09:16:31.581000+00:00</time>
      </trkpt>
      <trkpt lat="0" lon="0">
        <time>2020-12-06T09:16:31.597000+00:00</time>
      </trkpt>
      <trkpt lat="0" lon="0">
        <time>2020-12-06T09:16:31.605000+00:00</time>
      </trkpt>
      <trkpt lat="0" lon="0">
        <time>2020-12-06T09:16:31.607000+00:00</time>
      </trkpt>
      <trkpt lat="47.33873" lon="-1.2501">
        <ele>33</ele>
        <time>2020-12-06T09:16:32.565000+00:00</time>
      </trkpt>
      <trkpt lat="0" lon="0">
        <time>2020-12-06T09:16:32.577000+00:00</time>
      </trkpt>
      <trkpt lat="0" lon="0">
        <time>2020-12-06T09:16:32.585000+00:00</time>
      </trkpt>
      <trkpt lat="0" lon="0">
        <time>2020-12-06T09:16:32.592000+00:00</time>
      </trkpt>
      <trkpt lat="47.33876" lon="-1.25015">
        <ele>33</ele>
        <time>2020-12-06T09:16:33.532000+00:00</time>
      </trkpt>
      <trkpt lat="0" lon="0">
        <time>2020-12-06T09:16:33.539000+00:00</time>
      </trkpt>
      <trkpt lat="0" lon="0">
        <time>2020-12-06T09:16:33.544000+00:00</time>
      </trkpt>
      <trkpt lat="0" lon="0">
        <time>2020-12-06T09:16:33.547000+00:00</time>
      </trkpt>
      <trkpt lat="47.33879" lon="-1.2502">
        <ele>33</ele>
        <time>2020-12-06T09:16:34.556000+00:00</time>
      </trkpt>
      <trkpt lat="0" lon="0">
        <time>2020-12-06T09:16:34.562000+00:00</time>
      </trkpt>
      <trkpt lat="0" lon="0">
        <time>2020-12-06T09:16:34.566000+00:00</time>
      </trkpt>
      <trkpt lat="0" lon="0">
        <time>2020-12-06T09:16:34.570000+00:00</time>
      </trkpt>
      <trkpt lat="47.33882" lon="-1.25025">
        <ele>34</ele>
        <time>2020-12-06T09:16:35.575000+00:00</time>
      </trkpt>
      <trkpt lat="0" lon="0">
        <time>2020-12-06T09:16:35.586000+00:00</time>
      </trkpt>
      <trkpt lat="0" lon="0">
        <time>2020-12-06T09:16:35.590000+00:00</time>
      </trkpt>
      <trkpt lat="0" lon="0">
        <time>2020-12-06T09:16:35.599000+00:00</time>
      </trkpt>
      <trkpt lat="47.33885" lon="-1.25031">
        <ele>34</ele>
        <time>2020-12-06T09:16:36.585000+00:00</time>
      </trkpt>
      <trkpt lat="0" lon="0">
        <time>2020-12-06T09:16:36.600000+00:00</time>
      </trkpt>
      <trkpt lat="0" lon="0">
        <time>2020-12-06T09:16:36.608000+00:00</time>
      </trkpt>
      <trkpt lat="0" lon="0">
        <time>2020-12-06T09:16:36.609000+00:00</time>
      </trkpt>
      <trkpt lat="47.33888" lon="-1.25037">
        <ele>34</ele>
        <time>2020-12-06T09:16:37.620000+00:00</time>
      </trkpt>
      <trkpt lat="0" lon="0">
        <time>2020-12-06T09:16:37.639000+00:00</time>
      </trkpt>
      <trkpt lat="0" lon="0">
        <time>2020-12-06T09:16:37.646000+00:00</time>
      </trkpt>
      <trkpt lat="0" lon="0">
        <time>2020-12-06T09:16:37.648000+00:00</time>
      </trkpt>
      <trkpt lat="47.3389" lon="-1.25043">
        <ele>34</ele>
        <time>2020-12-06T09:16:38.559000+00:00</time>
      </trkpt>
      <trkpt lat="0" lon="0">
        <time>2020-12-06T09:16:38.568000+00:00</time>
      </trkpt>
      <trkpt lat="0" lon="0">
        <time>2020-12-06T09:16:38.581000+00:00</time>
      </trkpt>
      <trkpt lat="0" lon="0">
        <time>2020-12-06T09:16:38.584000+00:00</time>
      </trkpt>
      <trkpt lat="47.33893" lon="-1.25049">
        <ele>34</ele>
        <time>2020-12-06T09:16:39.574000+00:00</time>
      </trkpt>
      <trkpt lat="0" lon="0">
        <time>2020-12-06T09:16:39.586000+00:00</time>
      </trkpt>
      <trkpt lat="0" lon="0">
        <time>2020-12-06T09:16:39.591000+00:00</time>
      </trkpt>
      <trkpt lat="0" lon="0">
        <time>2020-12-06T09:16:39.595000+00:00</time>
      </trkpt>
      <trkpt lat="47.33895" lon="-1.25055">
        <ele>34</ele>
        <time>2020-12-06T09:16:40.563000+00:00</time>
      </trkpt>
      <trkpt lat="0" lon="0">
        <time>2020-12-06T09:16:40.573000+00:00</time>
      </trkpt>
      <trkpt lat="0" lon="0">
        <time>2020-12-06T09:16:40.583000+00:00</time>
      </trkpt>
      <trkpt lat="0" lon="0">
        <time>2020-12-06T09:16:40.590000+00:00</time>
      </trkpt>
      <trkpt lat="47.33898" lon="-1.25061">
        <ele>35</ele>
        <time>2020-12-06T09:16:41.595000+00:00</time>
      </trkpt>
      <trkpt lat="0" lon="0">
        <time>2020-12-06T09:16:41.605000+00:00</time>
      </trkpt>
      <trkpt lat="0" lon="0">
        <time>2020-12-06T09:16:41.610000+00:00</time>
      </trkpt>
      <trkpt lat="0" lon="0">
        <time>2020-12-06T09:16:41.612000+00:00</time>
      </trkpt>
      <trkpt lat="47.339" lon="-1.25067">
        <ele>35</ele>
        <time>2020-12-06T09:16:42.581000+00:00</time>
      </trkpt>
      <trkpt lat="0" lon="0">
        <time>2020-12-06T09:16:42.593000+00:00</time>
      </trkpt>
      <trkpt lat="0" lon="0">
        <time>2020-12-06T09:16:42.601000+00:00</time>
      </trkpt>
      <trkpt lat="0" lon="0">
        <time>2020-12-06T09:16:42.604000+00:00</time>
      </trkpt>
      <trkpt lat="47.33902" lon="-1.25074">
        <ele>35</ele>
        <time>2020-12-06T09:16:43.546000+00:00</time>
      </trkpt>
      <trkpt lat="0" lon="0">
        <time>2020-12-06T09:16:43.563000+00:00</time>
      </trkpt>
      <trkpt lat="0" lon="0">
        <time>2020-12-06T09:16:43.567000+00:00</time>
      </trkpt>
      <trkpt lat="0" lon="0">
        <time>2020-12-06T09:16:43.569000+00:00</time>
      </trkpt>
      <trkpt lat="47.33904" lon="-1.2508">
        <ele>35</ele>
        <time>2020-12-06T09:16:44.471000+00:00</time>
      </trkpt>
      <trkpt lat="0" lon="0">
        <time>2020-12-06T09:16:44.477000+00:00</time>
      </trkpt>
      <trkpt lat="0" lon="0">
        <time>2020-12-06T09:16:44.480000+00:00</time>
      </trkpt>
      <trkpt lat="0" lon="0">
        <time>2020-12-06T09:16:44.481000+00:00</time>
      </trkpt>
      <trkpt lat="47.33907" lon="-1.25086">
        <ele>35</ele>
        <time>2020-12-06T09:16:45.592000+00:00</time>
      </trkpt>
      <trkpt lat="0" lon="0">
        <time>2020-12-06T09:16:45.599000+00:00</time>
      </trkpt>
      <trkpt lat="0" lon="0">
        <time>2020-12-06T09:16:45.603000+00:00</time>
      </trkpt>
      <trkpt lat="0" lon="0">
        <time>2020-12-06T09:16:45.606000+00:00</time>
      </trkpt>
      <trkpt lat="47.33909" lon="-1.25092">
        <ele>35</ele>
        <time>2020-12-06T09:16:46.573000+00:00</time>
      </trkpt>
      <trkpt lat="0" lon="0">
        <time>2020-12-06T09:16:46.576000+00:00</time>
      </trkpt>
      <trkpt lat="0" lon="0">
        <time>2020-12-06T09:16:46.581000+00:00</time>
      </trkpt>
      <trkpt lat="0" lon="0">
        <time>2020-12-06T09:16:46.583000+00:00</time>
      </trkpt>
      <trkpt lat="47.33911" lon="-1.25098">
        <ele>36</ele>
        <time>2020-12-06T09:16:47.577000+00:00</time>
      </trkpt>
      <trkpt lat="0" lon="0">
        <time>2020-12-06T09:16:47.582000+00:00</time>
      </trkpt>
      <trkpt lat="0" lon="0">
        <time>2020-12-06T09:16:47.590000+00:00</time>
      </trkpt>
      <trkpt lat="0" lon="0">
        <time>2020-12-06T09:16:47.593000+00:00</time>
      </trkpt>
      <trkpt lat="47.33913" lon="-1.25104">
        <ele>36</ele>
        <time>2020-12-06T09:16:48.551000+00:00</time>
      </trkpt>
      <trkpt lat="0" lon="0">
        <time>2020-12-06T09:16:48.568000+00:00</time>
      </trkpt>
      <trkpt lat="0" lon="0">
        <time>2020-12-06T09:16:48.574000+00:00</time>
      </trkpt>
      <trkpt lat="0" lon="0">
        <time>2020-12-06T09:16:48.580000+00:00</time>
      </trkpt>
      <trkpt lat="47.33915" lon="-1.2511">
        <ele>36</ele>
        <time>2020-12-06T09:16:49.554000+00:00</time>
      </trkpt>
      <trkpt lat="0" lon="0">
        <time>2020-12-06T09:16:49.560000+00:00</time>
      </trkpt>
      <trkpt lat="0" lon="0">
        <time>2020-12-06T09:16:49.570000+00:00</time>
      </trkpt>
      <trkpt lat="0" lon="0">
        <time>2020-12-06T09:16:49.578000+00:00</time>
      </trkpt>
      <trkpt lat="47.33917" lon="-1.25116">
        <ele>36</ele>
        <time>2020-12-06T09:16:50.514000+00:00</time>
      </trkpt>
      <trkpt lat="0" lon="0">
        <time>2020-12-06T09:16:50.527000+00:00</time>
      </trkpt>
      <trkpt lat="0" lon="0">
        <time>2020-12-06T09:16:50.532000+00:00</time>
      </trkpt>
      <trkpt lat="0" lon="0">
        <time>2020-12-06T09:16:50.534000+00:00</time>
      </trkpt>
      <trkpt lat="47.3392" lon="-1.25122">
        <ele>36</ele>
        <time>2020-12-06T09:16:51.546000+00:00</time>
      </trkpt>
      <trkpt lat="0" lon="0">
        <time>2020-12-06T09:16:51.550000+00:00</time>
      </trkpt>
      <trkpt lat="0" lon="0">
        <time>2020-12-06T09:16:51.564000+00:00</time>
      </trkpt>
      <trkpt lat="0" lon="0">
        <time>2020-12-06T09:16:51.566000+00:00</time>
      </trkpt>
      <trkpt lat="47.33922" lon="-1.25128">
        <ele>36</ele>
        <time>2020-12-06T09:16:52.516000+00:00</time>
      </trkpt>
      <trkpt lat="0" lon="0">
        <time>2020-12-06T09:16:52.528000+00:00</time>
      </trkpt>
      <trkpt lat="0" lon="0">
        <time>2020-12-06T09:16:52.530000+00:00</time>
      </trkpt>
      <trkpt lat="0" lon="0">
        <time>2020-12-06T09:16:52.531000+00:00</time>
      </trkpt>
      <trkpt lat="47.33924" lon="-1.25134">
        <ele>36</ele>
        <time>2020-12-06T09:16:53.543000+00:00</time>
      </trkpt>
      <trkpt lat="0" lon="0">
        <time>2020-12-06T09:16:53.564000+00:00</time>
      </trkpt>
      <trkpt lat="0" lon="0">
        <time>2020-12-06T09:16:53.572000+00:00</time>
      </trkpt>
      <trkpt lat="0" lon="0">
        <time>2020-12-06T09:16:53.574000+00:00</time>
      </trkpt>
      <trkpt lat="47.33926" lon="-1.2514">
        <ele>36</ele>
        <time>2020-12-06T09:16:54.600000+00:00</time>
      </trkpt>
      <trkpt lat="0" lon="0">
        <time>2020-12-06T09:16:54.606000+00:00</time>
      </trkpt>
      <trkpt lat="0" lon="0">
        <time>2020-12-06T09:16:54.622000+00:00</time>
      </trkpt>
      <trkpt lat="0" lon="0">
        <time>2020-12-06T09:16:54.624000+00:00</time>
      </trkpt>
      <trkpt lat="47.33928" lon="-1.25145">
        <ele>36</ele>
        <time>2020-12-06T09:16:55.573000+00:00</time>
      </trkpt>
      <trkpt lat="0" lon="0">
        <time>2020-12-06T09:16:55.583000+00:00</time>
      </trkpt>
      <trkpt lat="0" lon="0">
        <time>2020-12-06T09:16:55.588000+00:00</time>
      </trkpt>
      <trkpt lat="0" lon="0">
        <time>2020-12-06T09:16:55.591000+00:00</time>
      </trkpt>
      <trkpt lat="47.33931" lon="-1.25151">
        <ele>36</ele>
        <time>2020-12-06T09:16:56.549000+00:00</time>
      </trkpt>
      <trkpt lat="0" lon="0">
        <time>2020-12-06T09:16:56.554000+00:00</time>
      </trkpt>
      <trkpt lat="0" lon="0">
        <time>2020-12-06T09:16:56.558000+00:00</time>
      </trkpt>
      <trkpt lat="0" lon="0">
        <time>2020-12-06T09:16:56.560000+00:00</time>
      </trkpt>
      <trkpt lat="47.33933" lon="-1.25157">
        <ele>36</ele>
        <time>2020-12-06T09:16:57.546000+00:00</time>
      </trkpt>
      <trkpt lat="0" lon="0">
        <time>2020-12-06T09:16:57.567000+00:00</time>
      </trkpt>
      <trkpt lat="0" lon="0">
        <time>2020-12-06T09:16:57.573000+00:00</time>
      </trkpt>
      <trkpt lat="0" lon="0">
        <time>2020-12-06T09:16:57.574000+00:00</time>
      </trkpt>
      <trkpt lat="47.33935" lon="-1.25163">
        <ele>36</ele>
        <time>2020-12-06T09:16:58.545000+00:00</time>
      </trkpt>
      <trkpt lat="0" lon="0">
        <time>2020-12-06T09:16:58.554000+00:00</time>
      </trkpt>
      <trkpt lat="0" lon="0">
        <time>2020-12-06T09:16:58.568000+00:00</time>
      </trkpt>
      <trkpt lat="0" lon="0">
        <time>2020-12-06T09:16:58.570000+00:00</time>
      </trkpt>
      <trkpt lat="47.33936" lon="-1.25169">
        <ele>37</ele>
        <time>2020-12-06T09:16:59.554000+00:00</time>
      </trkpt>
      <trkpt lat="0" lon="0">
        <time>2020-12-06T09:16:59.568000+00:00</time>
      </trkpt>
      <trkpt lat="0" lon="0">
        <time>2020-12-06T09:16:59.572000+00:00</time>
      </trkpt>
      <trkpt lat="0" lon="0">
        <time>2020-12-06T09:16:59.576000+00:00</time>
      </trkpt>
      <trkpt lat="47.33938" lon="-1.25175">
        <ele>37</ele>
        <time>2020-12-06T09:17:00.577000+00:00</time>
      </trkpt>
      <trkpt lat="0" lon="0">
        <time>2020-12-06T09:17:00.586000+00:00</time>
      </trkpt>
      <trkpt lat="0" lon="0">
        <time>2020-12-06T09:17:00.594000+00:00</time>
      </trkpt>
      <trkpt lat="0" lon="0">
        <time>2020-12-06T09:17:00.597000+00:00</time>
      </trkpt>
      <trkpt lat="47.3394" lon="-1.25181">
        <ele>37</ele>
        <time>2020-12-06T09:17:01.591000+00:00</time>
      </trkpt>
      <trkpt lat="0" lon="0">
        <time>2020-12-06T09:17:01.597000+00:00</time>
      </trkpt>
      <trkpt lat="0" lon="0">
        <time>2020-12-06T09:17:01.607000+00:00</time>
      </trkpt>
      <trkpt lat="0" lon="0">
        <time>2020-12-06T09:17:01.608000+00:00</time>
      </trkpt>
      <trkpt lat="47.33941" lon="-1.25187">
        <ele>37</ele>
        <time>2020-12-06T09:17:02.569000+00:00</time>
      </trkpt>
      <trkpt lat="0" lon="0">
        <time>2020-12-06T09:17:02.582000+00:00</time>
      </trkpt>
      <trkpt lat="0" lon="0">
        <time>2020-12-06T09:17:02.586000+00:00</time>
      </trkpt>
      <trkpt lat="0" lon="0">
        <time>2020-12-06T09:17:02.588000+00:00</time>
      </trkpt>
      <trkpt lat="47.33942" lon="-1.25193">
        <ele>37</ele>
        <time>2020-12-06T09:17:03.555000+00:00</time>
      </trkpt>
      <trkpt lat="0" lon="0">
        <time>2020-12-06T09:17:03.562000+00:00</time>
      </trkpt>
      <trkpt lat="0" lon="0">
        <time>2020-12-06T09:17:03.572000+00:00</time>
      </trkpt>
      <trkpt lat="0" lon="0">
        <time>2020-12-06T09:17:03.574000+00:00</time>
      </trkpt>
      <trkpt lat="47.33943" lon="-1.25199">
        <ele>37</ele>
        <time>2020-12-06T09:17:04.592000+00:00</time>
      </trkpt>
      <trkpt lat="0" lon="0">
        <time>2020-12-06T09:17:04.598000+00:00</time>
      </trkpt>
      <trkpt lat="0" lon="0">
        <time>2020-12-06T09:17:04.603000+00:00</time>
      </trkpt>
      <trkpt lat="0" lon="0">
        <time>2020-12-06T09:17:04.605000+00:00</time>
      </trkpt>
      <trkpt lat="47.33944" lon="-1.25206">
        <ele>37</ele>
        <time>2020-12-06T09:17:05.504000+00:00</time>
      </trkpt>
      <trkpt lat="0" lon="0">
        <time>2020-12-06T09:17:05.518000+00:00</time>
      </trkpt>
      <trkpt lat="0" lon="0">
        <time>2020-12-06T09:17:05.522000+00:00</time>
      </trkpt>
      <trkpt lat="0" lon="0">
        <time>2020-12-06T09:17:05.524000+00:00</time>
      </trkpt>
      <trkpt lat="47.33944" lon="-1.25212">
        <ele>37</ele>
        <time>2020-12-06T09:17:06.589000+00:00</time>
      </trkpt>
      <trkpt lat="0" lon="0">
        <time>2020-12-06T09:17:06.594000+00:00</time>
      </trkpt>
      <trkpt lat="0" lon="0">
        <time>2020-12-06T09:17:06.600000+00:00</time>
      </trkpt>
      <trkpt lat="0" lon="0">
        <time>2020-12-06T09:17:06.603000+00:00</time>
      </trkpt>
      <trkpt lat="47.33944" lon="-1.25219">
        <ele>37</ele>
        <time>2020-12-06T09:17:07.566000+00:00</time>
      </trkpt>
      <trkpt lat="0" lon="0">
        <time>2020-12-06T09:17:07.570000+00:00</time>
      </trkpt>
      <trkpt lat="0" lon="0">
        <time>2020-12-06T09:17:07.573000+00:00</time>
      </trkpt>
      <trkpt lat="47.33944" lon="-1.25225">
        <ele>38</ele>
        <time>2020-12-06T09:17:08.574000+00:00</time>
      </trkpt>
      <trkpt lat="0" lon="0">
        <time>2020-12-06T09:17:08.591000+00:00</time>
      </trkpt>
      <trkpt lat="0" lon="0">
        <time>2020-12-06T09:17:08.596000+00:00</time>
      </trkpt>
      <trkpt lat="0" lon="0">
        <time>2020-12-06T09:17:08.599000+00:00</time>
      </trkpt>
      <trkpt lat="47.33944" lon="-1.25232">
        <ele>38</ele>
        <time>2020-12-06T09:17:09.543000+00:00</time>
      </trkpt>
      <trkpt lat="0" lon="0">
        <time>2020-12-06T09:17:09.560000+00:00</time>
      </trkpt>
      <trkpt lat="0" lon="0">
        <time>2020-12-06T09:17:09.565000+00:00</time>
      </trkpt>
      <trkpt lat="0" lon="0">
        <time>2020-12-06T09:17:09.568000+00:00</time>
      </trkpt>
      <trkpt lat="47.33943" lon="-1.25239">
        <ele>38</ele>
        <time>2020-12-06T09:17:10.549000+00:00</time>
      </trkpt>
      <trkpt lat="0" lon="0">
        <time>2020-12-06T09:17:10.555000+00:00</time>
      </trkpt>
      <trkpt lat="0" lon="0">
        <time>2020-12-06T09:17:10.560000+00:00</time>
      </trkpt>
      <trkpt lat="0" lon="0">
        <time>2020-12-06T09:17:10.563000+00:00</time>
      </trkpt>
      <trkpt lat="47.33943" lon="-1.25245">
        <ele>39</ele>
        <time>2020-12-06T09:17:11.558000+00:00</time>
      </trkpt>
      <trkpt lat="0" lon="0">
        <time>2020-12-06T09:17:11.572000+00:00</time>
      </trkpt>
      <trkpt lat="0" lon="0">
        <time>2020-12-06T09:17:11.582000+00:00</time>
      </trkpt>
      <trkpt lat="0" lon="0">
        <time>2020-12-06T09:17:11.585000+00:00</time>
      </trkpt>
      <trkpt lat="47.33942" lon="-1.25252">
        <ele>39</ele>
        <time>2020-12-06T09:17:12.531000+00:00</time>
      </trkpt>
      <trkpt lat="0" lon="0">
        <time>2020-12-06T09:17:12.538000+00:00</time>
      </trkpt>
      <trkpt lat="0" lon="0">
        <time>2020-12-06T09:17:12.542000+00:00</time>
      </trkpt>
      <trkpt lat="0" lon="0">
        <time>2020-12-06T09:17:12.544000+00:00</time>
      </trkpt>
      <trkpt lat="47.33941" lon="-1.25258">
        <ele>39</ele>
        <time>2020-12-06T09:17:13.544000+00:00</time>
      </trkpt>
      <trkpt lat="0" lon="0">
        <time>2020-12-06T09:17:13.550000+00:00</time>
      </trkpt>
      <trkpt lat="0" lon="0">
        <time>2020-12-06T09:17:13.556000+00:00</time>
      </trkpt>
      <trkpt lat="0" lon="0">
        <time>2020-12-06T09:17:13.560000+00:00</time>
      </trkpt>
      <trkpt lat="47.3394" lon="-1.25265">
        <ele>40</ele>
        <time>2020-12-06T09:17:14.602000+00:00</time>
      </trkpt>
      <trkpt lat="0" lon="0">
        <time>2020-12-06T09:17:14.610000+00:00</time>
      </trkpt>
      <trkpt lat="0" lon="0">
        <time>2020-12-06T09:17:14.621000+00:00</time>
      </trkpt>
      <trkpt lat="0" lon="0">
        <time>2020-12-06T09:17:14.623000+00:00</time>
      </trkpt>
      <trkpt lat="47.33939" lon="-1.25272">
        <ele>40</ele>
        <time>2020-12-06T09:17:15.594000+00:00</time>
      </trkpt>
      <trkpt lat="0" lon="0">
        <time>2020-12-06T09:17:15.603000+00:00</time>
      </trkpt>
      <trkpt lat="0" lon="0">
        <time>2020-12-06T09:17:15.609000+00:00</time>
      </trkpt>
      <trkpt lat="0" lon="0">
        <time>2020-12-06T09:17:15.612000+00:00</time>
      </trkpt>
      <trkpt lat="47.33938" lon="-1.25278">
        <ele>40</ele>
        <time>2020-12-06T09:17:16.590000+00:00</time>
      </trkpt>
      <trkpt lat="0" lon="0">
        <time>2020-12-06T09:17:16.594000+00:00</time>
      </trkpt>
      <trkpt lat="0" lon="0">
        <time>2020-12-06T09:17:16.597000+00:00</time>
      </trkpt>
      <trkpt lat="0" lon="0">
        <time>2020-12-06T09:17:16.599000+00:00</time>
      </trkpt>
      <trkpt lat="47.33937" lon="-1.25285">
        <ele>41</ele>
        <time>2020-12-06T09:17:17.566000+00:00</time>
      </trkpt>
      <trkpt lat="0" lon="0">
        <time>2020-12-06T09:17:17.592000+00:00</time>
      </trkpt>
      <trkpt lat="0" lon="0">
        <time>2020-12-06T09:17:17.595000+00:00</time>
      </trkpt>
      <trkpt lat="0" lon="0">
        <time>2020-12-06T09:17:17.598000+00:00</time>
      </trkpt>
      <trkpt lat="47.33936" lon="-1.25291">
        <ele>41</ele>
        <time>2020-12-06T09:17:18.565000+00:00</time>
      </trkpt>
      <trkpt lat="0" lon="0">
        <time>2020-12-06T09:17:18.574000+00:00</time>
      </trkpt>
      <trkpt lat="0" lon="0">
        <time>2020-12-06T09:17:18.576000+00:00</time>
      </trkpt>
      <trkpt lat="0" lon="0">
        <time>2020-12-06T09:17:18.586000+00:00</time>
      </trkpt>
      <trkpt lat="47.33934" lon="-1.25297">
        <ele>41</ele>
        <time>2020-12-06T09:17:19.539000+00:00</time>
      </trkpt>
      <trkpt lat="0" lon="0">
        <time>2020-12-06T09:17:19.547000+00:00</time>
      </trkpt>
      <trkpt lat="0" lon="0">
        <time>2020-12-06T09:17:19.558000+00:00</time>
      </trkpt>
      <trkpt lat="0" lon="0">
        <time>2020-12-06T09:17:19.560000+00:00</time>
      </trkpt>
      <trkpt lat="47.33933" lon="-1.25303">
        <ele>42</ele>
        <time>2020-12-06T09:17:20.568000+00:00</time>
      </trkpt>
      <trkpt lat="0" lon="0">
        <time>2020-12-06T09:17:20.586000+00:00</time>
      </trkpt>
      <trkpt lat="0" lon="0">
        <time>2020-12-06T09:17:20.590000+00:00</time>
      </trkpt>
      <trkpt lat="0" lon="0">
        <time>2020-12-06T09:17:20.594000+00:00</time>
      </trkpt>
      <trkpt lat="47.33932" lon="-1.25309">
        <ele>42</ele>
        <time>2020-12-06T09:17:21.554000+00:00</time>
      </trkpt>
      <trkpt lat="0" lon="0">
        <time>2020-12-06T09:17:21.560000+00:00</time>
      </trkpt>
      <trkpt lat="0" lon="0">
        <time>2020-12-06T09:17:21.570000+00:00</time>
      </trkpt>
      <trkpt lat="0" lon="0">
        <time>2020-12-06T09:17:21.573000+00:00</time>
      </trkpt>
      <trkpt lat="47.3393" lon="-1.25315">
        <ele>43</ele>
        <time>2020-12-06T09:17:22.538000+00:00</time>
      </trkpt>
      <trkpt lat="0" lon="0">
        <time>2020-12-06T09:17:22.548000+00:00</time>
      </trkpt>
      <trkpt lat="0" lon="0">
        <time>2020-12-06T09:17:22.564000+00:00</time>
      </trkpt>
      <trkpt lat="0" lon="0">
        <time>2020-12-06T09:17:22.569000+00:00</time>
      </trkpt>
      <trkpt lat="47.33929" lon="-1.25321">
        <ele>43</ele>
        <time>2020-12-06T09:17:23.567000+00:00</time>
      </trkpt>
      <trkpt lat="0" lon="0">
        <time>2020-12-06T09:17:23.582000+00:00</time>
      </trkpt>
      <trkpt lat="0" lon="0">
        <time>2020-12-06T09:17:23.591000+00:00</time>
      </trkpt>
      <trkpt lat="0" lon="0">
        <time>2020-12-06T09:17:23.593000+00:00</time>
      </trkpt>
      <trkpt lat="47.33927" lon="-1.25327">
        <ele>43</ele>
        <time>2020-12-06T09:17:24.484000+00:00</time>
      </trkpt>
      <trkpt lat="0" lon="0">
        <time>2020-12-06T09:17:24.486000+00:00</time>
      </trkpt>
      <trkpt lat="0" lon="0">
        <time>2020-12-06T09:17:24.490000+00:00</time>
      </trkpt>
      <trkpt lat="0" lon="0">
        <time>2020-12-06T09:17:24.491000+00:00</time>
      </trkpt>
      <trkpt lat="47.33926" lon="-1.25334">
        <ele>44</ele>
        <time>2020-12-06T09:17:25.540000+00:00</time>
      </trkpt>
      <trkpt lat="0" lon="0">
        <time>2020-12-06T09:17:25.547000+00:00</time>
      </trkpt>
      <trkpt lat="0" lon="0">
        <time>2020-12-06T09:17:25.552000+00:00</time>
      </trkpt>
      <trkpt lat="0" lon="0">
        <time>2020-12-06T09:17:25.557000+00:00</time>
      </trkpt>
      <trkpt lat="47.33925" lon="-1.2534">
        <ele>44</ele>
        <time>2020-12-06T09:17:26.552000+00:00</time>
      </trkpt>
      <trkpt lat="0" lon="0">
        <time>2020-12-06T09:17:26.555000+00:00</time>
      </trkpt>
      <trkpt lat="0" lon="0">
        <time>2020-12-06T09:17:26.567000+00:00</time>
      </trkpt>
      <trkpt lat="0" lon="0">
        <time>2020-12-06T09:17:26.569000+00:00</time>
      </trkpt>
      <trkpt lat="47.33923" lon="-1.25346">
        <ele>44</ele>
        <time>2020-12-06T09:17:27.552000+00:00</time>
      </trkpt>
      <trkpt lat="0" lon="0">
        <time>2020-12-06T09:17:27.555000+00:00</time>
      </trkpt>
      <trkpt lat="0" lon="0">
        <time>2020-12-06T09:17:27.562000+00:00</time>
      </trkpt>
      <trkpt lat="0" lon="0">
        <time>2020-12-06T09:17:27.567000+00:00</time>
      </trkpt>
      <trkpt lat="47.33922" lon="-1.25352">
        <ele>44</ele>
        <time>2020-12-06T09:17:28.516000+00:00</time>
      </trkpt>
      <trkpt lat="0" lon="0">
        <time>2020-12-06T09:17:28.536000+00:00</time>
      </trkpt>
      <trkpt lat="0" lon="0">
        <time>2020-12-06T09:17:28.543000+00:00</time>
      </trkpt>
      <trkpt lat="0" lon="0">
        <time>2020-12-06T09:17:28.545000+00:00</time>
      </trkpt>
      <trkpt lat="47.33921" lon="-1.25357">
        <ele>44</ele>
        <time>2020-12-06T09:17:29.559000+00:00</time>
      </trkpt>
      <trkpt lat="0" lon="0">
        <time>2020-12-06T09:17:29.566000+00:00</time>
      </trkpt>
      <trkpt lat="0" lon="0">
        <time>2020-12-06T09:17:29.579000+00:00</time>
      </trkpt>
      <trkpt lat="0" lon="0">
        <time>2020-12-06T09:17:29.584000+00:00</time>
      </trkpt>
      <trkpt lat="47.3392" lon="-1.25362">
        <ele>44</ele>
        <time>2020-12-06T09:17:30.570000+00:00</time>
      </trkpt>
      <trkpt lat="0" lon="0">
        <time>2020-12-06T09:17:30.575000+00:00</time>
      </trkpt>
      <trkpt lat="0" lon="0">
        <time>2020-12-06T09:17:30.590000+00:00</time>
      </trkpt>
      <trkpt lat="0" lon="0">
        <time>2020-12-06T09:17:30.593000+00:00</time>
      </trkpt>
      <trkpt lat="47.33919" lon="-1.25366">
        <ele>45</ele>
        <time>2020-12-06T09:17:31.570000+00:00</time>
      </trkpt>
      <trkpt lat="0" lon="0">
        <time>2020-12-06T09:17:31.584000+00:00</time>
      </trkpt>
      <trkpt lat="0" lon="0">
        <time>2020-12-06T09:17:31.590000+00:00</time>
      </trkpt>
      <trkpt lat="0" lon="0">
        <time>2020-12-06T09:17:31.592000+00:00</time>
      </trkpt>
      <trkpt lat="47.33919" lon="-1.25369">
        <ele>45</ele>
        <time>2020-12-06T09:17:32.583000+00:00</time>
      </trkpt>
      <trkpt lat="0" lon="0">
        <time>2020-12-06T09:17:32.601000+00:00</time>
      </trkpt>
      <trkpt lat="0" lon="0">
        <time>2020-12-06T09:17:32.604000+00:00</time>
      </trkpt>
      <trkpt lat="0" lon="0">
        <time>2020-12-06T09:17:32.607000+00:00</time>
      </trkpt>
      <trkpt lat="47.33918" lon="-1.25372">
        <ele>45</ele>
        <time>2020-12-06T09:17:33.522000+00:00</time>
      </trkpt>
      <trkpt lat="0" lon="0">
        <time>2020-12-06T09:17:33.538000+00:00</time>
      </trkpt>
      <trkpt lat="0" lon="0">
        <time>2020-12-06T09:17:33.545000+00:00</time>
      </trkpt>
      <trkpt lat="0" lon="0">
        <time>2020-12-06T09:17:33.547000+00:00</time>
      </trkpt>
      <trkpt lat="47.33917" lon="-1.25374">
        <ele>45</ele>
        <time>2020-12-06T09:17:34.565000+00:00</time>
      </trkpt>
      <trkpt lat="0" lon="0">
        <time>2020-12-06T09:17:34.575000+00:00</time>
      </trkpt>
      <trkpt lat="0" lon="0">
        <time>2020-12-06T09:17:34.582000+00:00</time>
      </trkpt>
      <trkpt lat="0" lon="0">
        <time>2020-12-06T09:17:34.584000+00:00</time>
      </trkpt>
      <trkpt lat="47.33917" lon="-1.25376">
        <ele>45</ele>
        <time>2020-12-06T09:17:35.530000+00:00</time>
      </trkpt>
      <trkpt lat="0" lon="0">
        <time>2020-12-06T09:17:35.544000+00:00</time>
      </trkpt>
      <trkpt lat="0" lon="0">
        <time>2020-12-06T09:17:35.549000+00:00</time>
      </trkpt>
      <trkpt lat="0" lon="0">
        <time>2020-12-06T09:17:35.551000+00:00</time>
      </trkpt>
      <trkpt lat="47.33916" lon="-1.25377">
        <ele>45</ele>
        <time>2020-12-06T09:17:36.563000+00:00</time>
      </trkpt>
      <trkpt lat="0" lon="0">
        <time>2020-12-06T09:17:36.573000+00:00</time>
      </trkpt>
      <trkpt lat="0" lon="0">
        <time>2020-12-06T09:17:36.578000+00:00</time>
      </trkpt>
      <trkpt lat="0" lon="0">
        <time>2020-12-06T09:17:36.581000+00:00</time>
      </trkpt>
      <trkpt lat="47.33916" lon="-1.25378">
        <ele>45</ele>
        <time>2020-12-06T09:17:37.532000+00:00</time>
      </trkpt>
      <trkpt lat="0" lon="0">
        <time>2020-12-06T09:17:37.536000+00:00</time>
      </trkpt>
      <trkpt lat="0" lon="0">
        <time>2020-12-06T09:17:37.545000+00:00</time>
      </trkpt>
      <trkpt lat="0" lon="0">
        <time>2020-12-06T09:17:37.549000+00:00</time>
      </trkpt>
      <trkpt lat="47.33916" lon="-1.25378">
        <ele>45</ele>
        <time>2020-12-06T09:17:38.528000+00:00</time>
      </trkpt>
      <trkpt lat="0" lon="0">
        <time>2020-12-06T09:17:38.550000+00:00</time>
      </trkpt>
      <trkpt lat="0" lon="0">
        <time>2020-12-06T09:17:38.554000+00:00</time>
      </trkpt>
      <trkpt lat="0" lon="0">
        <time>2020-12-06T09:17:38.556000+00:00</time>
      </trkpt>
      <trkpt lat="47.33916" lon="-1.25378">
        <ele>45</ele>
        <time>2020-12-06T09:17:39.537000+00:00</time>
      </trkpt>
      <trkpt lat="0" lon="0">
        <time>2020-12-06T09:17:39.543000+00:00</time>
      </trkpt>
      <trkpt lat="0" lon="0">
        <time>2020-12-06T09:17:39.549000+00:00</time>
      </trkpt>
      <trkpt lat="0" lon="0">
        <time>2020-12-06T09:17:39.555000+00:00</time>
      </trkpt>
      <trkpt lat="47.33916" lon="-1.25377">
        <ele>45</ele>
        <time>2020-12-06T09:17:40.526000+00:00</time>
      </trkpt>
      <trkpt lat="0" lon="0">
        <time>2020-12-06T09:17:40.536000+00:00</time>
      </trkpt>
      <trkpt lat="0" lon="0">
        <time>2020-12-06T09:17:40.543000+00:00</time>
      </trkpt>
      <trkpt lat="0" lon="0">
        <time>2020-12-06T09:17:40.545000+00:00</time>
      </trkpt>
      <trkpt lat="47.33916" lon="-1.25377">
        <ele>45</ele>
        <time>2020-12-06T09:17:41.574000+00:00</time>
      </trkpt>
      <trkpt lat="0" lon="0">
        <time>2020-12-06T09:17:41.583000+00:00</time>
      </trkpt>
      <trkpt lat="0" lon="0">
        <time>2020-12-06T09:17:41.585000+00:00</time>
      </trkpt>
      <trkpt lat="0" lon="0">
        <time>2020-12-06T09:17:41.586000+00:00</time>
      </trkpt>
      <trkpt lat="47.33917" lon="-1.25376">
        <ele>45</ele>
        <time>2020-12-06T09:17:42.524000+00:00</time>
      </trkpt>
      <trkpt lat="0" lon="0">
        <time>2020-12-06T09:17:42.536000+00:00</time>
      </trkpt>
      <trkpt lat="0" lon="0">
        <time>2020-12-06T09:17:42.546000+00:00</time>
      </trkpt>
      <trkpt lat="0" lon="0">
        <time>2020-12-06T09:17:42.547000+00:00</time>
      </trkpt>
      <trkpt lat="47.33917" lon="-1.25375">
        <ele>45</ele>
        <time>2020-12-06T09:17:43.547000+00:00</time>
      </trkpt>
      <trkpt lat="0" lon="0">
        <time>2020-12-06T09:17:43.559000+00:00</time>
      </trkpt>
      <trkpt lat="0" lon="0">
        <time>2020-12-06T09:17:43.568000+00:00</time>
      </trkpt>
      <trkpt lat="0" lon="0">
        <time>2020-12-06T09:17:43.571000+00:00</time>
      </trkpt>
      <trkpt lat="47.33917" lon="-1.25374">
        <ele>45</ele>
        <time>2020-12-06T09:17:44.570000+00:00</time>
      </trkpt>
      <trkpt lat="0" lon="0">
        <time>2020-12-06T09:17:44.585000+00:00</time>
      </trkpt>
      <trkpt lat="0" lon="0">
        <time>2020-12-06T09:17:44.589000+00:00</time>
      </trkpt>
      <trkpt lat="0" lon="0">
        <time>2020-12-06T09:17:44.593000+00:00</time>
      </trkpt>
      <trkpt lat="47.33918" lon="-1.25373">
        <ele>45</ele>
        <time>2020-12-06T09:17:45.545000+00:00</time>
      </trkpt>
      <trkpt lat="0" lon="0">
        <time>2020-12-06T09:17:45.551000+00:00</time>
      </trkpt>
      <trkpt lat="0" lon="0">
        <time>2020-12-06T09:17:45.554000+00:00</time>
      </trkpt>
      <trkpt lat="0" lon="0">
        <time>2020-12-06T09:17:45.555000+00:00</time>
      </trkpt>
      <trkpt lat="47.33919" lon="-1.25372">
        <ele>45</ele>
        <time>2020-12-06T09:17:46.543000+00:00</time>
      </trkpt>
      <trkpt lat="0" lon="0">
        <time>2020-12-06T09:17:46.546000+00:00</time>
      </trkpt>
      <trkpt lat="0" lon="0">
        <time>2020-12-06T09:17:46.570000+00:00</time>
      </trkpt>
      <trkpt lat="0" lon="0">
        <time>2020-12-06T09:17:46.588000+00:00</time>
      </trkpt>
      <trkpt lat="47.33937" lon="-1.25365">
        <ele>41</ele>
        <time>2020-12-06T09:17:47.514000+00:00</time>
      </trkpt>
      <trkpt lat="0" lon="0">
        <time>2020-12-06T09:17:47.524000+00:00</time>
      </trkpt>
      <trkpt lat="0" lon="0">
        <time>2020-12-06T09:17:47.526000+00:00</time>
      </trkpt>
      <trkpt lat="0" lon="0">
        <time>2020-12-06T09:17:47.527000+00:00</time>
      </trkpt>
      <trkpt lat="47.3394" lon="-1.25364">
        <ele>41</ele>
        <time>2020-12-06T09:17:48.564000+00:00</time>
      </trkpt>
      <trkpt lat="0" lon="0">
        <time>2020-12-06T09:17:48.573000+00:00</time>
      </trkpt>
      <trkpt lat="0" lon="0">
        <time>2020-12-06T09:17:48.582000+00:00</time>
      </trkpt>
      <trkpt lat="0" lon="0">
        <time>2020-12-06T09:17:48.583000+00:00</time>
      </trkpt>
      <trkpt lat="47.33943" lon="-1.25363">
        <ele>40</ele>
        <time>2020-12-06T09:17:49.579000+00:00</time>
      </trkpt>
      <trkpt lat="0" lon="0">
        <time>2020-12-06T09:17:49.582000+00:00</time>
      </trkpt>
      <trkpt lat="0" lon="0">
        <time>2020-12-06T09:17:49.587000+00:00</time>
      </trkpt>
      <trkpt lat="0" lon="0">
        <time>2020-12-06T09:17:49.589000+00:00</time>
      </trkpt>
      <trkpt lat="47.33946" lon="-1.25363">
        <ele>40</ele>
        <time>2020-12-06T09:17:50.535000+00:00</time>
      </trkpt>
      <trkpt lat="0" lon="0">
        <time>2020-12-06T09:17:50.539000+00:00</time>
      </trkpt>
      <trkpt lat="0" lon="0">
        <time>2020-12-06T09:17:50.547000+00:00</time>
      </trkpt>
      <trkpt lat="0" lon="0">
        <time>2020-12-06T09:17:50.553000+00:00</time>
      </trkpt>
      <trkpt lat="47.33949" lon="-1.25362">
        <ele>39</ele>
        <time>2020-12-06T09:17:51.584000+00:00</time>
      </trkpt>
      <trkpt lat="0" lon="0">
        <time>2020-12-06T09:17:51.596000+00:00</time>
      </trkpt>
      <trkpt lat="0" lon="0">
        <time>2020-12-06T09:17:51.602000+00:00</time>
      </trkpt>
      <trkpt lat="0" lon="0">
        <time>2020-12-06T09:17:51.605000+00:00</time>
      </trkpt>
      <trkpt lat="47.33952" lon="-1.25362">
        <ele>38</ele>
        <time>2020-12-06T09:17:52.538000+00:00</time>
      </trkpt>
      <trkpt lat="0" lon="0">
        <time>2020-12-06T09:17:52.541000+00:00</time>
      </trkpt>
      <trkpt lat="0" lon="0">
        <time>2020-12-06T09:17:52.545000+00:00</time>
      </trkpt>
      <trkpt lat="0" lon="0">
        <time>2020-12-06T09:17:52.554000+00:00</time>
      </trkpt>
      <trkpt lat="47.33955" lon="-1.25363">
        <ele>38</ele>
        <time>2020-12-06T09:17:53.582000+00:00</time>
      </trkpt>
      <trkpt lat="0" lon="0">
        <time>2020-12-06T09:17:53.598000+00:00</time>
      </trkpt>
      <trkpt lat="0" lon="0">
        <time>2020-12-06T09:17:53.603000+00:00</time>
      </trkpt>
      <trkpt lat="0" lon="0">
        <time>2020-12-06T09:17:53.605000+00:00</time>
      </trkpt>
      <trkpt lat="47.33957" lon="-1.25363">
        <ele>37</ele>
        <time>2020-12-06T09:17:54.574000+00:00</time>
      </trkpt>
      <trkpt lat="0" lon="0">
        <time>2020-12-06T09:17:54.584000+00:00</time>
      </trkpt>
      <trkpt lat="0" lon="0">
        <time>2020-12-06T09:17:54.590000+00:00</time>
      </trkpt>
      <trkpt lat="0" lon="0">
        <time>2020-12-06T09:17:54.595000+00:00</time>
      </trkpt>
      <trkpt lat="47.33959" lon="-1.25363">
        <ele>37</ele>
        <time>2020-12-06T09:17:55.552000+00:00</time>
      </trkpt>
      <trkpt lat="0" lon="0">
        <time>2020-12-06T09:17:55.567000+00:00</time>
      </trkpt>
      <trkpt lat="0" lon="0">
        <time>2020-12-06T09:17:55.572000+00:00</time>
      </trkpt>
      <trkpt lat="0" lon="0">
        <time>2020-12-06T09:17:55.576000+00:00</time>
      </trkpt>
      <trkpt lat="47.33961" lon="-1.25364">
        <ele>37</ele>
        <time>2020-12-06T09:17:56.555000+00:00</time>
      </trkpt>
      <trkpt lat="0" lon="0">
        <time>2020-12-06T09:17:56.564000+00:00</time>
      </trkpt>
      <trkpt lat="0" lon="0">
        <time>2020-12-06T09:17:56.567000+00:00</time>
      </trkpt>
      <trkpt lat="0" lon="0">
        <time>2020-12-06T09:17:56.571000+00:00</time>
      </trkpt>
      <trkpt lat="47.33962" lon="-1.25364">
        <ele>36</ele>
        <time>2020-12-06T09:17:57.570000+00:00</time>
      </trkpt>
      <trkpt lat="0" lon="0">
        <time>2020-12-06T09:17:57.580000+00:00</time>
      </trkpt>
      <trkpt lat="0" lon="0">
        <time>2020-12-06T09:17:57.590000+00:00</time>
      </trkpt>
      <trkpt lat="0" lon="0">
        <time>2020-12-06T09:17:57.592000+00:00</time>
      </trkpt>
      <trkpt lat="47.33963" lon="-1.25364">
        <ele>36</ele>
        <time>2020-12-06T09:17:58.579000+00:00</time>
      </trkpt>
      <trkpt lat="0" lon="0">
        <time>2020-12-06T09:17:58.597000+00:00</time>
      </trkpt>
      <trkpt lat="0" lon="0">
        <time>2020-12-06T09:17:58.604000+00:00</time>
      </trkpt>
      <trkpt lat="0" lon="0">
        <time>2020-12-06T09:17:58.609000+00:00</time>
      </trkpt>
      <trkpt lat="47.33963" lon="-1.25364">
        <ele>36</ele>
        <time>2020-12-06T09:17:59.572000+00:00</time>
      </trkpt>
      <trkpt lat="0" lon="0">
        <time>2020-12-06T09:17:59.588000+00:00</time>
      </trkpt>
      <trkpt lat="0" lon="0">
        <time>2020-12-06T09:17:59.593000+00:00</time>
      </trkpt>
      <trkpt lat="0" lon="0">
        <time>2020-12-06T09:17:59.595000+00:00</time>
      </trkpt>
      <trkpt lat="47.33963" lon="-1.25364">
        <ele>36</ele>
        <time>2020-12-06T09:18:00.580000+00:00</time>
      </trkpt>
      <trkpt lat="0" lon="0">
        <time>2020-12-06T09:18:00.588000+00:00</time>
      </trkpt>
      <trkpt lat="0" lon="0">
        <time>2020-12-06T09:18:00.595000+00:00</time>
      </trkpt>
      <trkpt lat="0" lon="0">
        <time>2020-12-06T09:18:00.597000+00:00</time>
      </trkpt>
      <trkpt lat="47.33963" lon="-1.25364">
        <ele>36</ele>
        <time>2020-12-06T09:18:01.565000+00:00</time>
      </trkpt>
      <trkpt lat="0" lon="0">
        <time>2020-12-06T09:18:01.577000+00:00</time>
      </trkpt>
      <trkpt lat="0" lon="0">
        <time>2020-12-06T09:18:01.586000+00:00</time>
      </trkpt>
      <trkpt lat="0" lon="0">
        <time>2020-12-06T09:18:01.591000+00:00</time>
      </trkpt>
      <trkpt lat="47.33963" lon="-1.25365">
        <ele>36</ele>
        <time>2020-12-06T09:18:02.582000+00:00</time>
      </trkpt>
      <trkpt lat="0" lon="0">
        <time>2020-12-06T09:18:02.597000+00:00</time>
      </trkpt>
      <trkpt lat="0" lon="0">
        <time>2020-12-06T09:18:02.604000+00:00</time>
      </trkpt>
      <trkpt lat="0" lon="0">
        <time>2020-12-06T09:18:02.610000+00:00</time>
      </trkpt>
      <trkpt lat="47.33963" lon="-1.25365">
        <ele>36</ele>
        <time>2020-12-06T09:18:03.534000+00:00</time>
      </trkpt>
      <trkpt lat="0" lon="0">
        <time>2020-12-06T09:18:03.543000+00:00</time>
      </trkpt>
      <trkpt lat="0" lon="0">
        <time>2020-12-06T09:18:03.544000+00:00</time>
      </trkpt>
      <trkpt lat="0" lon="0">
        <time>2020-12-06T09:18:03.552000+00:00</time>
      </trkpt>
      <trkpt lat="47.33962" lon="-1.25365">
        <ele>36</ele>
        <time>2020-12-06T09:18:04.568000+00:00</time>
      </trkpt>
      <trkpt lat="0" lon="0">
        <time>2020-12-06T09:18:04.575000+00:00</time>
      </trkpt>
      <trkpt lat="0" lon="0">
        <time>2020-12-06T09:18:04.580000+00:00</time>
      </trkpt>
      <trkpt lat="0" lon="0">
        <time>2020-12-06T09:18:04.583000+00:00</time>
      </trkpt>
      <trkpt lat="47.33962" lon="-1.25365">
        <ele>36</ele>
        <time>2020-12-06T09:18:05.595000+00:00</time>
      </trkpt>
      <trkpt lat="0" lon="0">
        <time>2020-12-06T09:18:05.606000+00:00</time>
      </trkpt>
      <trkpt lat="0" lon="0">
        <time>2020-12-06T09:18:05.615000+00:00</time>
      </trkpt>
      <trkpt lat="0" lon="0">
        <time>2020-12-06T09:18:05.616000+00:00</time>
      </trkpt>
      <trkpt lat="47.33961" lon="-1.25365">
        <ele>37</ele>
        <time>2020-12-06T09:18:06.614000+00:00</time>
      </trkpt>
      <trkpt lat="0" lon="0">
        <time>2020-12-06T09:18:06.618000+00:00</time>
      </trkpt>
      <trkpt lat="0" lon="0">
        <time>2020-12-06T09:18:06.646000+00:00</time>
      </trkpt>
      <trkpt lat="0" lon="0">
        <time>2020-12-06T09:18:06.660000+00:00</time>
      </trkpt>
      <trkpt lat="47.33968" lon="-1.25387">
        <ele>35</ele>
        <time>2020-12-06T09:18:07.604000+00:00</time>
      </trkpt>
      <trkpt lat="0" lon="0">
        <time>2020-12-06T09:18:07.617000+00:00</time>
      </trkpt>
      <trkpt lat="0" lon="0">
        <time>2020-12-06T09:18:07.623000+00:00</time>
      </trkpt>
      <trkpt lat="0" lon="0">
        <time>2020-12-06T09:18:07.627000+00:00</time>
      </trkpt>
      <trkpt lat="47.33969" lon="-1.25391">
        <ele>35</ele>
        <time>2020-12-06T09:18:08.612000+00:00</time>
      </trkpt>
      <trkpt lat="0" lon="0">
        <time>2020-12-06T09:18:08.622000+00:00</time>
      </trkpt>
      <trkpt lat="0" lon="0">
        <time>2020-12-06T09:18:08.626000+00:00</time>
      </trkpt>
      <trkpt lat="0" lon="0">
        <time>2020-12-06T09:18:08.629000+00:00</time>
      </trkpt>
      <trkpt lat="47.33971" lon="-1.25394">
        <ele>34</ele>
        <time>2020-12-06T09:18:09.625000+00:00</time>
      </trkpt>
      <trkpt lat="0" lon="0">
        <time>2020-12-06T09:18:09.627000+00:00</time>
      </trkpt>
      <trkpt lat="0" lon="0">
        <time>2020-12-06T09:18:09.642000+00:00</time>
      </trkpt>
      <trkpt lat="0" lon="0">
        <time>2020-12-06T09:18:09.647000+00:00</time>
      </trkpt>
      <trkpt lat="47.33972" lon="-1.25398">
        <ele>34</ele>
        <time>2020-12-06T09:18:10.659000+00:00</time>
      </trkpt>
      <trkpt lat="0" lon="0">
        <time>2020-12-06T09:18:10.673000+00:00</time>
      </trkpt>
      <trkpt lat="0" lon="0">
        <time>2020-12-06T09:18:10.677000+00:00</time>
      </trkpt>
      <trkpt lat="0" lon="0">
        <time>2020-12-06T09:18:10.679000+00:00</time>
      </trkpt>
      <trkpt lat="47.33973" lon="-1.25401">
        <ele>34</ele>
        <time>2020-12-06T09:18:11.625000+00:00</time>
      </trkpt>
      <trkpt lat="0" lon="0">
        <time>2020-12-06T09:18:11.627000+00:00</time>
      </trkpt>
      <trkpt lat="0" lon="0">
        <time>2020-12-06T09:18:11.636000+00:00</time>
      </trkpt>
      <trkpt lat="0" lon="0">
        <time>2020-12-06T09:18:11.642000+00:00</time>
      </trkpt>
      <trkpt lat="47.33975" lon="-1.25405">
        <ele>34</ele>
        <time>2020-12-06T09:18:12.644000+00:00</time>
      </trkpt>
      <trkpt lat="0" lon="0">
        <time>2020-12-06T09:18:12.657000+00:00</time>
      </trkpt>
      <trkpt lat="0" lon="0">
        <time>2020-12-06T09:18:12.661000+00:00</time>
      </trkpt>
      <trkpt lat="0" lon="0">
        <time>2020-12-06T09:18:12.664000+00:00</time>
      </trkpt>
      <trkpt lat="47.33975" lon="-1.25409">
        <ele>33</ele>
        <time>2020-12-06T09:18:13.659000+00:00</time>
      </trkpt>
      <trkpt lat="0" lon="0">
        <time>2020-12-06T09:18:13.668000+00:00</time>
      </trkpt>
      <trkpt lat="0" lon="0">
        <time>2020-12-06T09:18:13.672000+00:00</time>
      </trkpt>
      <trkpt lat="0" lon="0">
        <time>2020-12-06T09:18:13.673000+00:00</time>
      </trkpt>
      <trkpt lat="47.33976" lon="-1.25414">
        <ele>33</ele>
        <time>2020-12-06T09:18:14.640000+00:00</time>
      </trkpt>
      <trkpt lat="0" lon="0">
        <time>2020-12-06T09:18:14.652000+00:00</time>
      </trkpt>
      <trkpt lat="0" lon="0">
        <time>2020-12-06T09:18:14.656000+00:00</time>
      </trkpt>
      <trkpt lat="0" lon="0">
        <time>2020-12-06T09:18:14.658000+00:00</time>
      </trkpt>
      <trkpt lat="47.33975" lon="-1.25418">
        <ele>33</ele>
        <time>2020-12-06T09:18:15.636000+00:00</time>
      </trkpt>
      <trkpt lat="0" lon="0">
        <time>2020-12-06T09:18:15.654000+00:00</time>
      </trkpt>
      <trkpt lat="0" lon="0">
        <time>2020-12-06T09:18:15.658000+00:00</time>
      </trkpt>
      <trkpt lat="0" lon="0">
        <time>2020-12-06T09:18:15.659000+00:00</time>
      </trkpt>
      <trkpt lat="47.33975" lon="-1.25422">
        <ele>33</ele>
        <time>2020-12-06T09:18:16.668000+00:00</time>
      </trkpt>
      <trkpt lat="0" lon="0">
        <time>2020-12-06T09:18:16.674000+00:00</time>
      </trkpt>
      <trkpt lat="0" lon="0">
        <time>2020-12-06T09:18:16.678000+00:00</time>
      </trkpt>
      <trkpt lat="0" lon="0">
        <time>2020-12-06T09:18:16.681000+00:00</time>
      </trkpt>
      <trkpt lat="47.33973" lon="-1.25426">
        <ele>34</ele>
        <time>2020-12-06T09:18:17.619000+00:00</time>
      </trkpt>
      <trkpt lat="0" lon="0">
        <time>2020-12-06T09:18:17.624000+00:00</time>
      </trkpt>
      <trkpt lat="0" lon="0">
        <time>2020-12-06T09:18:17.630000+00:00</time>
      </trkpt>
      <trkpt lat="0" lon="0">
        <time>2020-12-06T09:18:17.632000+00:00</time>
      </trkpt>
      <trkpt lat="47.33971" lon="-1.25431">
        <ele>34</ele>
        <time>2020-12-06T09:18:18.625000+00:00</time>
      </trkpt>
      <trkpt lat="0" lon="0">
        <time>2020-12-06T09:18:18.630000+00:00</time>
      </trkpt>
      <trkpt lat="0" lon="0">
        <time>2020-12-06T09:18:18.639000+00:00</time>
      </trkpt>
      <trkpt lat="0" lon="0">
        <time>2020-12-06T09:18:18.642000+00:00</time>
      </trkpt>
      <trkpt lat="47.3397" lon="-1.25435">
        <ele>34</ele>
        <time>2020-12-06T09:18:19.665000+00:00</time>
      </trkpt>
      <trkpt lat="0" lon="0">
        <time>2020-12-06T09:18:19.673000+00:00</time>
      </trkpt>
      <trkpt lat="0" lon="0">
        <time>2020-12-06T09:18:19.677000+00:00</time>
      </trkpt>
      <trkpt lat="0" lon="0">
        <time>2020-12-06T09:18:19.678000+00:00</time>
      </trkpt>
      <trkpt lat="47.33968" lon="-1.2544">
        <ele>35</ele>
        <time>2020-12-06T09:18:20.680000+00:00</time>
      </trkpt>
      <trkpt lat="0" lon="0">
        <time>2020-12-06T09:18:20.697000+00:00</time>
      </trkpt>
      <trkpt lat="0" lon="0">
        <time>2020-12-06T09:18:20.711000+00:00</time>
      </trkpt>
      <trkpt lat="0" lon="0">
        <time>2020-12-06T09:18:20.714000+00:00</time>
      </trkpt>
      <trkpt lat="47.33966" lon="-1.25446">
        <ele>35</ele>
        <time>2020-12-06T09:18:21.613000+00:00</time>
      </trkpt>
      <trkpt lat="0" lon="0">
        <time>2020-12-06T09:18:21.634000+00:00</time>
      </trkpt>
      <trkpt lat="0" lon="0">
        <time>2020-12-06T09:18:21.644000+00:00</time>
      </trkpt>
      <trkpt lat="0" lon="0">
        <time>2020-12-06T09:18:21.646000+00:00</time>
      </trkpt>
      <trkpt lat="47.33964" lon="-1.25451">
        <ele>36</ele>
        <time>2020-12-06T09:18:22.655000+00:00</time>
      </trkpt>
      <trkpt lat="0" lon="0">
        <time>2020-12-06T09:18:22.659000+00:00</time>
      </trkpt>
      <trkpt lat="0" lon="0">
        <time>2020-12-06T09:18:22.669000+00:00</time>
      </trkpt>
      <trkpt lat="0" lon="0">
        <time>2020-12-06T09:18:22.674000+00:00</time>
      </trkpt>
      <trkpt lat="47.33963" lon="-1.25457">
        <ele>36</ele>
        <time>2020-12-06T09:18:23.663000+00:00</time>
      </trkpt>
      <trkpt lat="0" lon="0">
        <time>2020-12-06T09:18:23.670000+00:00</time>
      </trkpt>
      <trkpt lat="0" lon="0">
        <time>2020-12-06T09:18:23.676000+00:00</time>
      </trkpt>
      <trkpt lat="0" lon="0">
        <time>2020-12-06T09:18:23.679000+00:00</time>
      </trkpt>
      <trkpt lat="47.33962" lon="-1.25462">
        <ele>36</ele>
        <time>2020-12-06T09:18:24.637000+00:00</time>
      </trkpt>
      <trkpt lat="0" lon="0">
        <time>2020-12-06T09:18:24.638000+00:00</time>
      </trkpt>
      <trkpt lat="0" lon="0">
        <time>2020-12-06T09:18:24.640000+00:00</time>
      </trkpt>
      <trkpt lat="0" lon="0">
        <time>2020-12-06T09:18:24.642000+00:00</time>
      </trkpt>
      <trkpt lat="47.33963" lon="-1.25468">
        <ele>36</ele>
        <time>2020-12-06T09:18:25.559000+00:00</time>
      </trkpt>
      <trkpt lat="0" lon="0">
        <time>2020-12-06T09:18:25.564000+00:00</time>
      </trkpt>
      <trkpt lat="0" lon="0">
        <time>2020-12-06T09:18:25.566000+00:00</time>
      </trkpt>
      <trkpt lat="0" lon="0">
        <time>2020-12-06T09:18:25.570000+00:00</time>
      </trkpt>
      <trkpt lat="47.33965" lon="-1.25473">
        <ele>36</ele>
        <time>2020-12-06T09:18:26.583000+00:00</time>
      </trkpt>
      <trkpt lat="0" lon="0">
        <time>2020-12-06T09:18:26.598000+00:00</time>
      </trkpt>
      <trkpt lat="0" lon="0">
        <time>2020-12-06T09:18:26.608000+00:00</time>
      </trkpt>
      <trkpt lat="0" lon="0">
        <time>2020-12-06T09:18:26.609000+00:00</time>
      </trkpt>
      <trkpt lat="47.33968" lon="-1.25478">
        <ele>35</ele>
        <time>2020-12-06T09:18:27.642000+00:00</time>
      </trkpt>
      <trkpt lat="0" lon="0">
        <time>2020-12-06T09:18:27.648000+00:00</time>
      </trkpt>
      <trkpt lat="0" lon="0">
        <time>2020-12-06T09:18:27.651000+00:00</time>
      </trkpt>
      <trkpt lat="0" lon="0">
        <time>2020-12-06T09:18:27.655000+00:00</time>
      </trkpt>
      <trkpt lat="47.33972" lon="-1.25481">
        <ele>34</ele>
        <time>2020-12-06T09:18:28.631000+00:00</time>
      </trkpt>
      <trkpt lat="0" lon="0">
        <time>2020-12-06T09:18:28.641000+00:00</time>
      </trkpt>
      <trkpt lat="0" lon="0">
        <time>2020-12-06T09:18:28.650000+00:00</time>
      </trkpt>
      <trkpt lat="0" lon="0">
        <time>2020-12-06T09:18:28.652000+00:00</time>
      </trkpt>
      <trkpt lat="47.33976" lon="-1.25484">
        <ele>33</ele>
        <time>2020-12-06T09:18:29.612000+00:00</time>
      </trkpt>
      <trkpt lat="0" lon="0">
        <time>2020-12-06T09:18:29.622000+00:00</time>
      </trkpt>
      <trkpt lat="0" lon="0">
        <time>2020-12-06T09:18:29.637000+00:00</time>
      </trkpt>
      <trkpt lat="0" lon="0">
        <time>2020-12-06T09:18:29.638000+00:00</time>
      </trkpt>
      <trkpt lat="47.33981" lon="-1.25487">
        <ele>32</ele>
        <time>2020-12-06T09:18:30.632000+00:00</time>
      </trkpt>
      <trkpt lat="0" lon="0">
        <time>2020-12-06T09:18:30.653000+00:00</time>
      </trkpt>
      <trkpt lat="0" lon="0">
        <time>2020-12-06T09:18:30.665000+00:00</time>
      </trkpt>
      <trkpt lat="0" lon="0">
        <time>2020-12-06T09:18:30.672000+00:00</time>
      </trkpt>
      <trkpt lat="47.33986" lon="-1.25491">
        <ele>31</ele>
        <time>2020-12-06T09:18:31.637000+00:00</time>
      </trkpt>
      <trkpt lat="0" lon="0">
        <time>2020-12-06T09:18:31.650000+00:00</time>
      </trkpt>
      <trkpt lat="0" lon="0">
        <time>2020-12-06T09:18:31.657000+00:00</time>
      </trkpt>
      <trkpt lat="0" lon="0">
        <time>2020-12-06T09:18:31.664000+00:00</time>
      </trkpt>
      <trkpt lat="47.3399" lon="-1.25494">
        <ele>31</ele>
        <time>2020-12-06T09:18:32.628000+00:00</time>
      </trkpt>
      <trkpt lat="0" lon="0">
        <time>2020-12-06T09:18:32.644000+00:00</time>
      </trkpt>
      <trkpt lat="0" lon="0">
        <time>2020-12-06T09:18:32.649000+00:00</time>
      </trkpt>
      <trkpt lat="0" lon="0">
        <time>2020-12-06T09:18:32.652000+00:00</time>
      </trkpt>
      <trkpt lat="47.33993" lon="-1.25498">
        <ele>30</ele>
        <time>2020-12-06T09:18:33.629000+00:00</time>
      </trkpt>
      <trkpt lat="0" lon="0">
        <time>2020-12-06T09:18:33.632000+00:00</time>
      </trkpt>
      <trkpt lat="0" lon="0">
        <time>2020-12-06T09:18:33.648000+00:00</time>
      </trkpt>
      <trkpt lat="0" lon="0">
        <time>2020-12-06T09:18:33.650000+00:00</time>
      </trkpt>
      <trkpt lat="47.33996" lon="-1.25503">
        <ele>29</ele>
        <time>2020-12-06T09:18:34.629000+00:00</time>
      </trkpt>
      <trkpt lat="0" lon="0">
        <time>2020-12-06T09:18:34.647000+00:00</time>
      </trkpt>
      <trkpt lat="0" lon="0">
        <time>2020-12-06T09:18:34.658000+00:00</time>
      </trkpt>
      <trkpt lat="0" lon="0">
        <time>2020-12-06T09:18:34.660000+00:00</time>
      </trkpt>
      <trkpt lat="47.33998" lon="-1.25508">
        <ele>29</ele>
        <time>2020-12-06T09:18:35.623000+00:00</time>
      </trkpt>
      <trkpt lat="0" lon="0">
        <time>2020-12-06T09:18:35.644000+00:00</time>
      </trkpt>
      <trkpt lat="0" lon="0">
        <time>2020-12-06T09:18:35.650000+00:00</time>
      </trkpt>
      <trkpt lat="0" lon="0">
        <time>2020-12-06T09:18:35.652000+00:00</time>
      </trkpt>
      <trkpt lat="47.34" lon="-1.25513">
        <ele>28</ele>
        <time>2020-12-06T09:18:36.647000+00:00</time>
      </trkpt>
      <trkpt lat="0" lon="0">
        <time>2020-12-06T09:18:36.656000+00:00</time>
      </trkpt>
      <trkpt lat="0" lon="0">
        <time>2020-12-06T09:18:36.661000+00:00</time>
      </trkpt>
      <trkpt lat="0" lon="0">
        <time>2020-12-06T09:18:36.663000+00:00</time>
      </trkpt>
      <trkpt lat="47.34001" lon="-1.25518">
        <ele>28</ele>
        <time>2020-12-06T09:18:37.675000+00:00</time>
      </trkpt>
      <trkpt lat="0" lon="0">
        <time>2020-12-06T09:18:37.684000+00:00</time>
      </trkpt>
      <trkpt lat="0" lon="0">
        <time>2020-12-06T09:18:37.689000+00:00</time>
      </trkpt>
      <trkpt lat="0" lon="0">
        <time>2020-12-06T09:18:37.691000+00:00</time>
      </trkpt>
      <trkpt lat="47.34003" lon="-1.25529">
        <ele>27</ele>
        <time>2020-12-06T09:18:39.607000+00:00</time>
      </trkpt>
      <trkpt lat="0" lon="0">
        <time>2020-12-06T09:18:39.612000+00:00</time>
      </trkpt>
      <trkpt lat="0" lon="0">
        <time>2020-12-06T09:18:39.620000+00:00</time>
      </trkpt>
      <trkpt lat="0" lon="0">
        <time>2020-12-06T09:18:39.623000+00:00</time>
      </trkpt>
      <trkpt lat="47.34003" lon="-1.25537">
        <ele>27</ele>
        <time>2020-12-06T09:18:40.658000+00:00</time>
      </trkpt>
      <trkpt lat="0" lon="0">
        <time>2020-12-06T09:18:40.672000+00:00</time>
      </trkpt>
      <trkpt lat="0" lon="0">
        <time>2020-12-06T09:18:40.675000+00:00</time>
      </trkpt>
      <trkpt lat="0" lon="0">
        <time>2020-12-06T09:18:40.679000+00:00</time>
      </trkpt>
      <trkpt lat="47.34003" lon="-1.25544">
        <ele>27</ele>
        <time>2020-12-06T09:18:41.637000+00:00</time>
      </trkpt>
      <trkpt lat="0" lon="0">
        <time>2020-12-06T09:18:41.662000+00:00</time>
      </trkpt>
      <trkpt lat="0" lon="0">
        <time>2020-12-06T09:18:41.670000+00:00</time>
      </trkpt>
      <trkpt lat="0" lon="0">
        <time>2020-12-06T09:18:41.672000+00:00</time>
      </trkpt>
      <trkpt lat="47.34003" lon="-1.25551">
        <ele>27</ele>
        <time>2020-12-06T09:18:42.644000+00:00</time>
      </trkpt>
      <trkpt lat="0" lon="0">
        <time>2020-12-06T09:18:42.650000+00:00</time>
      </trkpt>
      <trkpt lat="0" lon="0">
        <time>2020-12-06T09:18:42.658000+00:00</time>
      </trkpt>
      <trkpt lat="0" lon="0">
        <time>2020-12-06T09:18:42.660000+00:00</time>
      </trkpt>
      <trkpt lat="47.34003" lon="-1.25559">
        <ele>26</ele>
        <time>2020-12-06T09:18:43.656000+00:00</time>
      </trkpt>
      <trkpt lat="0" lon="0">
        <time>2020-12-06T09:18:43.667000+00:00</time>
      </trkpt>
      <trkpt lat="0" lon="0">
        <time>2020-12-06T09:18:43.678000+00:00</time>
      </trkpt>
      <trkpt lat="0" lon="0">
        <time>2020-12-06T09:18:43.685000+00:00</time>
      </trkpt>
      <trkpt lat="47.34003" lon="-1.25566">
        <ele>26</ele>
        <time>2020-12-06T09:18:44.667000+00:00</time>
      </trkpt>
      <trkpt lat="0" lon="0">
        <time>2020-12-06T09:18:44.675000+00:00</time>
      </trkpt>
      <trkpt lat="0" lon="0">
        <time>2020-12-06T09:18:44.679000+00:00</time>
      </trkpt>
      <trkpt lat="0" lon="0">
        <time>2020-12-06T09:18:44.681000+00:00</time>
      </trkpt>
      <trkpt lat="47.34003" lon="-1.25573">
        <ele>26</ele>
        <time>2020-12-06T09:18:45.690000+00:00</time>
      </trkpt>
      <trkpt lat="0" lon="0">
        <time>2020-12-06T09:18:45.693000+00:00</time>
      </trkpt>
      <trkpt lat="0" lon="0">
        <time>2020-12-06T09:18:45.699000+00:00</time>
      </trkpt>
      <trkpt lat="0" lon="0">
        <time>2020-12-06T09:18:45.700000+00:00</time>
      </trkpt>
      <trkpt lat="47.34003" lon="-1.25581">
        <ele>26</ele>
        <time>2020-12-06T09:18:46.627000+00:00</time>
      </trkpt>
      <trkpt lat="0" lon="0">
        <time>2020-12-06T09:18:46.635000+00:00</time>
      </trkpt>
      <trkpt lat="0" lon="0">
        <time>2020-12-06T09:18:46.640000+00:00</time>
      </trkpt>
      <trkpt lat="0" lon="0">
        <time>2020-12-06T09:18:46.650000+00:00</time>
      </trkpt>
      <trkpt lat="47.34004" lon="-1.25588">
        <ele>26</ele>
        <time>2020-12-06T09:18:47.632000+00:00</time>
      </trkpt>
      <trkpt lat="0" lon="0">
        <time>2020-12-06T09:18:47.635000+00:00</time>
      </trkpt>
      <trkpt lat="0" lon="0">
        <time>2020-12-06T09:18:47.638000+00:00</time>
      </trkpt>
      <trkpt lat="0" lon="0">
        <time>2020-12-06T09:18:47.640000+00:00</time>
      </trkpt>
      <trkpt lat="47.34004" lon="-1.25596">
        <ele>25</ele>
        <time>2020-12-06T09:18:48.669000+00:00</time>
      </trkpt>
      <trkpt lat="0" lon="0">
        <time>2020-12-06T09:18:48.673000+00:00</time>
      </trkpt>
      <trkpt lat="0" lon="0">
        <time>2020-12-06T09:18:48.681000+00:00</time>
      </trkpt>
      <trkpt lat="0" lon="0">
        <time>2020-12-06T09:18:48.684000+00:00</time>
      </trkpt>
      <trkpt lat="47.34004" lon="-1.25603">
        <ele>25</ele>
        <time>2020-12-06T09:18:49.628000+00:00</time>
      </trkpt>
      <trkpt lat="0" lon="0">
        <time>2020-12-06T09:18:49.635000+00:00</time>
      </trkpt>
      <trkpt lat="0" lon="0">
        <time>2020-12-06T09:18:49.638000+00:00</time>
      </trkpt>
      <trkpt lat="0" lon="0">
        <time>2020-12-06T09:18:49.640000+00:00</time>
      </trkpt>
      <trkpt lat="47.34004" lon="-1.25611">
        <ele>24</ele>
        <time>2020-12-06T09:18:50.655000+00:00</time>
      </trkpt>
      <trkpt lat="0" lon="0">
        <time>2020-12-06T09:18:50.669000+00:00</time>
      </trkpt>
      <trkpt lat="0" lon="0">
        <time>2020-12-06T09:18:50.674000+00:00</time>
      </trkpt>
      <trkpt lat="0" lon="0">
        <time>2020-12-06T09:18:50.676000+00:00</time>
      </trkpt>
      <trkpt lat="47.34004" lon="-1.25618">
        <ele>24</ele>
        <time>2020-12-06T09:18:51.634000+00:00</time>
      </trkpt>
      <trkpt lat="0" lon="0">
        <time>2020-12-06T09:18:51.640000+00:00</time>
      </trkpt>
      <trkpt lat="0" lon="0">
        <time>2020-12-06T09:18:51.644000+00:00</time>
      </trkpt>
      <trkpt lat="0" lon="0">
        <time>2020-12-06T09:18:51.645000+00:00</time>
      </trkpt>
      <trkpt lat="47.34004" lon="-1.25626">
        <ele>24</ele>
        <time>2020-12-06T09:18:52.650000+00:00</time>
      </trkpt>
      <trkpt lat="0" lon="0">
        <time>2020-12-06T09:18:52.656000+00:00</time>
      </trkpt>
      <trkpt lat="0" lon="0">
        <time>2020-12-06T09:18:52.660000+00:00</time>
      </trkpt>
      <trkpt lat="0" lon="0">
        <time>2020-12-06T09:18:52.663000+00:00</time>
      </trkpt>
      <trkpt lat="47.34005" lon="-1.25634">
        <ele>23</ele>
        <time>2020-12-06T09:18:53.658000+00:00</time>
      </trkpt>
      <trkpt lat="0" lon="0">
        <time>2020-12-06T09:18:53.667000+00:00</time>
      </trkpt>
      <trkpt lat="0" lon="0">
        <time>2020-12-06T09:18:53.674000+00:00</time>
      </trkpt>
      <trkpt lat="0" lon="0">
        <time>2020-12-06T09:18:53.676000+00:00</time>
      </trkpt>
      <trkpt lat="47.34005" lon="-1.25641">
        <ele>23</ele>
        <time>2020-12-06T09:18:54.627000+00:00</time>
      </trkpt>
      <trkpt lat="0" lon="0">
        <time>2020-12-06T09:18:54.634000+00:00</time>
      </trkpt>
      <trkpt lat="0" lon="0">
        <time>2020-12-06T09:18:54.642000+00:00</time>
      </trkpt>
      <trkpt lat="0" lon="0">
        <time>2020-12-06T09:18:54.644000+00:00</time>
      </trkpt>
      <trkpt lat="47.34005" lon="-1.25649">
        <ele>22</ele>
        <time>2020-12-06T09:18:55.693000+00:00</time>
      </trkpt>
      <trkpt lat="0" lon="0">
        <time>2020-12-06T09:18:55.702000+00:00</time>
      </trkpt>
      <trkpt lat="0" lon="0">
        <time>2020-12-06T09:18:55.707000+00:00</time>
      </trkpt>
      <trkpt lat="0" lon="0">
        <time>2020-12-06T09:18:55.711000+00:00</time>
      </trkpt>
      <trkpt lat="47.34006" lon="-1.25656">
        <ele>22</ele>
        <time>2020-12-06T09:18:56.646000+00:00</time>
      </trkpt>
      <trkpt lat="0" lon="0">
        <time>2020-12-06T09:18:56.658000+00:00</time>
      </trkpt>
      <trkpt lat="0" lon="0">
        <time>2020-12-06T09:18:56.663000+00:00</time>
      </trkpt>
      <trkpt lat="0" lon="0">
        <time>2020-12-06T09:18:56.669000+00:00</time>
      </trkpt>
      <trkpt lat="47.34006" lon="-1.25664">
        <ele>22</ele>
        <time>2020-12-06T09:18:57.637000+00:00</time>
      </trkpt>
      <trkpt lat="0" lon="0">
        <time>2020-12-06T09:18:57.640000+00:00</time>
      </trkpt>
      <trkpt lat="0" lon="0">
        <time>2020-12-06T09:18:57.661000+00:00</time>
      </trkpt>
      <trkpt lat="0" lon="0">
        <time>2020-12-06T09:18:57.664000+00:00</time>
      </trkpt>
      <trkpt lat="47.34006" lon="-1.25671">
        <ele>22</ele>
        <time>2020-12-06T09:18:58.640000+00:00</time>
      </trkpt>
      <trkpt lat="0" lon="0">
        <time>2020-12-06T09:18:58.646000+00:00</time>
      </trkpt>
      <trkpt lat="0" lon="0">
        <time>2020-12-06T09:18:58.651000+00:00</time>
      </trkpt>
      <trkpt lat="0" lon="0">
        <time>2020-12-06T09:18:58.653000+00:00</time>
      </trkpt>
      <trkpt lat="47.34007" lon="-1.25677">
        <ele>22</ele>
        <time>2020-12-06T09:18:59.622000+00:00</time>
      </trkpt>
      <trkpt lat="0" lon="0">
        <time>2020-12-06T09:18:59.627000+00:00</time>
      </trkpt>
      <trkpt lat="0" lon="0">
        <time>2020-12-06T09:18:59.644000+00:00</time>
      </trkpt>
      <trkpt lat="0" lon="0">
        <time>2020-12-06T09:18:59.652000+00:00</time>
      </trkpt>
      <trkpt lat="47.34007" lon="-1.25684">
        <ele>22</ele>
        <time>2020-12-06T09:19:00.666000+00:00</time>
      </trkpt>
      <trkpt lat="0" lon="0">
        <time>2020-12-06T09:19:00.679000+00:00</time>
      </trkpt>
      <trkpt lat="0" lon="0">
        <time>2020-12-06T09:19:00.688000+00:00</time>
      </trkpt>
      <trkpt lat="0" lon="0">
        <time>2020-12-06T09:19:00.696000+00:00</time>
      </trkpt>
      <trkpt lat="47.34008" lon="-1.2569">
        <ele>22</ele>
        <time>2020-12-06T09:19:01.616000+00:00</time>
      </trkpt>
      <trkpt lat="0" lon="0">
        <time>2020-12-06T09:19:01.618000+00:00</time>
      </trkpt>
      <trkpt lat="0" lon="0">
        <time>2020-12-06T09:19:01.620000+00:00</time>
      </trkpt>
      <trkpt lat="0" lon="0">
        <time>2020-12-06T09:19:01.622000+00:00</time>
      </trkpt>
      <trkpt lat="47.34008" lon="-1.25696">
        <ele>22</ele>
        <time>2020-12-06T09:19:02.612000+00:00</time>
      </trkpt>
      <trkpt lat="0" lon="0">
        <time>2020-12-06T09:19:02.616000+00:00</time>
      </trkpt>
      <trkpt lat="0" lon="0">
        <time>2020-12-06T09:19:02.623000+00:00</time>
      </trkpt>
      <trkpt lat="0" lon="0">
        <time>2020-12-06T09:19:02.637000+00:00</time>
      </trkpt>
      <trkpt lat="47.34009" lon="-1.25701">
        <ele>23</ele>
        <time>2020-12-06T09:19:03.635000+00:00</time>
      </trkpt>
      <trkpt lat="0" lon="0">
        <time>2020-12-06T09:19:03.644000+00:00</time>
      </trkpt>
      <trkpt lat="0" lon="0">
        <time>2020-12-06T09:19:03.653000+00:00</time>
      </trkpt>
      <trkpt lat="0" lon="0">
        <time>2020-12-06T09:19:03.659000+00:00</time>
      </trkpt>
      <trkpt lat="47.34009" lon="-1.25706">
        <ele>23</ele>
        <time>2020-12-06T09:19:04.641000+00:00</time>
      </trkpt>
      <trkpt lat="0" lon="0">
        <time>2020-12-06T09:19:04.651000+00:00</time>
      </trkpt>
      <trkpt lat="0" lon="0">
        <time>2020-12-06T09:19:04.654000+00:00</time>
      </trkpt>
      <trkpt lat="0" lon="0">
        <time>2020-12-06T09:19:04.656000+00:00</time>
      </trkpt>
      <trkpt lat="47.34009" lon="-1.25712">
        <ele>23</ele>
        <time>2020-12-06T09:19:05.620000+00:00</time>
      </trkpt>
      <trkpt lat="0" lon="0">
        <time>2020-12-06T09:19:05.624000+00:00</time>
      </trkpt>
      <trkpt lat="0" lon="0">
        <time>2020-12-06T09:19:05.627000+00:00</time>
      </trkpt>
      <trkpt lat="0" lon="0">
        <time>2020-12-06T09:19:05.629000+00:00</time>
      </trkpt>
      <trkpt lat="47.3401" lon="-1.25717">
        <ele>23</ele>
        <time>2020-12-06T09:19:06.631000+00:00</time>
      </trkpt>
      <trkpt lat="0" lon="0">
        <time>2020-12-06T09:19:06.643000+00:00</time>
      </trkpt>
      <trkpt lat="0" lon="0">
        <time>2020-12-06T09:19:06.651000+00:00</time>
      </trkpt>
      <trkpt lat="0" lon="0">
        <time>2020-12-06T09:19:06.656000+00:00</time>
      </trkpt>
      <trkpt lat="47.3401" lon="-1.25722">
        <ele>23</ele>
        <time>2020-12-06T09:19:07.633000+00:00</time>
      </trkpt>
      <trkpt lat="0" lon="0">
        <time>2020-12-06T09:19:07.639000+00:00</time>
      </trkpt>
      <trkpt lat="0" lon="0">
        <time>2020-12-06T09:19:07.643000+00:00</time>
      </trkpt>
      <trkpt lat="0" lon="0">
        <time>2020-12-06T09:19:07.646000+00:00</time>
      </trkpt>
      <trkpt lat="47.34011" lon="-1.25728">
        <ele>23</ele>
        <time>2020-12-06T09:19:08.649000+00:00</time>
      </trkpt>
      <trkpt lat="0" lon="0">
        <time>2020-12-06T09:19:08.658000+00:00</time>
      </trkpt>
      <trkpt lat="0" lon="0">
        <time>2020-12-06T09:19:08.661000+00:00</time>
      </trkpt>
      <trkpt lat="0" lon="0">
        <time>2020-12-06T09:19:08.664000+00:00</time>
      </trkpt>
      <trkpt lat="47.34011" lon="-1.25735">
        <ele>24</ele>
        <time>2020-12-06T09:19:09.567000+00:00</time>
      </trkpt>
      <trkpt lat="0" lon="0">
        <time>2020-12-06T09:19:09.569000+00:00</time>
      </trkpt>
      <trkpt lat="0" lon="0">
        <time>2020-12-06T09:19:09.570000+00:00</time>
      </trkpt>
      <trkpt lat="0" lon="0">
        <time>2020-12-06T09:19:09.571000+00:00</time>
      </trkpt>
      <trkpt lat="47.34011" lon="-1.25742">
        <ele>24</ele>
        <time>2020-12-06T09:19:10.608000+00:00</time>
      </trkpt>
      <trkpt lat="0" lon="0">
        <time>2020-12-06T09:19:10.612000+00:00</time>
      </trkpt>
      <trkpt lat="0" lon="0">
        <time>2020-12-06T09:19:10.634000+00:00</time>
      </trkpt>
      <trkpt lat="0" lon="0">
        <time>2020-12-06T09:19:10.637000+00:00</time>
      </trkpt>
      <trkpt lat="47.34011" lon="-1.25749">
        <ele>24</ele>
        <time>2020-12-06T09:19:11.648000+00:00</time>
      </trkpt>
      <trkpt lat="0" lon="0">
        <time>2020-12-06T09:19:11.659000+00:00</time>
      </trkpt>
      <trkpt lat="0" lon="0">
        <time>2020-12-06T09:19:11.664000+00:00</time>
      </trkpt>
      <trkpt lat="0" lon="0">
        <time>2020-12-06T09:19:11.667000+00:00</time>
      </trkpt>
      <trkpt lat="47.3401" lon="-1.25756">
        <ele>24</ele>
        <time>2020-12-06T09:19:12.670000+00:00</time>
      </trkpt>
      <trkpt lat="0" lon="0">
        <time>2020-12-06T09:19:12.686000+00:00</time>
      </trkpt>
      <trkpt lat="0" lon="0">
        <time>2020-12-06T09:19:12.702000+00:00</time>
      </trkpt>
      <trkpt lat="0" lon="0">
        <time>2020-12-06T09:19:12.703000+00:00</time>
      </trkpt>
      <trkpt lat="47.3401" lon="-1.25763">
        <ele>24</ele>
        <time>2020-12-06T09:19:13.660000+00:00</time>
      </trkpt>
      <trkpt lat="0" lon="0">
        <time>2020-12-06T09:19:13.672000+00:00</time>
      </trkpt>
      <trkpt lat="0" lon="0">
        <time>2020-12-06T09:19:13.684000+00:00</time>
      </trkpt>
      <trkpt lat="0" lon="0">
        <time>2020-12-06T09:19:13.686000+00:00</time>
      </trkpt>
      <trkpt lat="47.34009" lon="-1.2577">
        <ele>25</ele>
        <time>2020-12-06T09:19:14.631000+00:00</time>
      </trkpt>
      <trkpt lat="0" lon="0">
        <time>2020-12-06T09:19:14.637000+00:00</time>
      </trkpt>
      <trkpt lat="0" lon="0">
        <time>2020-12-06T09:19:14.642000+00:00</time>
      </trkpt>
      <trkpt lat="0" lon="0">
        <time>2020-12-06T09:19:14.644000+00:00</time>
      </trkpt>
      <trkpt lat="47.34008" lon="-1.25776">
        <ele>25</ele>
        <time>2020-12-06T09:19:15.617000+00:00</time>
      </trkpt>
      <trkpt lat="0" lon="0">
        <time>2020-12-06T09:19:15.631000+00:00</time>
      </trkpt>
      <trkpt lat="0" lon="0">
        <time>2020-12-06T09:19:15.633000+00:00</time>
      </trkpt>
      <trkpt lat="0" lon="0">
        <time>2020-12-06T09:19:15.640000+00:00</time>
      </trkpt>
      <trkpt lat="47.34008" lon="-1.25783">
        <ele>25</ele>
        <time>2020-12-06T09:19:16.628000+00:00</time>
      </trkpt>
      <trkpt lat="0" lon="0">
        <time>2020-12-06T09:19:16.631000+00:00</time>
      </trkpt>
      <trkpt lat="0" lon="0">
        <time>2020-12-06T09:19:16.639000+00:00</time>
      </trkpt>
      <trkpt lat="0" lon="0">
        <time>2020-12-06T09:19:16.650000+00:00</time>
      </trkpt>
      <trkpt lat="47.34007" lon="-1.2579">
        <ele>25</ele>
        <time>2020-12-06T09:19:17.645000+00:00</time>
      </trkpt>
      <trkpt lat="0" lon="0">
        <time>2020-12-06T09:19:17.654000+00:00</time>
      </trkpt>
      <trkpt lat="0" lon="0">
        <time>2020-12-06T09:19:17.660000+00:00</time>
      </trkpt>
      <trkpt lat="0" lon="0">
        <time>2020-12-06T09:19:17.664000+00:00</time>
      </trkpt>
      <trkpt lat="47.34006" lon="-1.25796">
        <ele>25</ele>
        <time>2020-12-06T09:19:18.651000+00:00</time>
      </trkpt>
      <trkpt lat="0" lon="0">
        <time>2020-12-06T09:19:18.659000+00:00</time>
      </trkpt>
      <trkpt lat="0" lon="0">
        <time>2020-12-06T09:19:18.663000+00:00</time>
      </trkpt>
      <trkpt lat="0" lon="0">
        <time>2020-12-06T09:19:18.667000+00:00</time>
      </trkpt>
      <trkpt lat="47.34006" lon="-1.25802">
        <ele>25</ele>
        <time>2020-12-06T09:19:19.620000+00:00</time>
      </trkpt>
      <trkpt lat="0" lon="0">
        <time>2020-12-06T09:19:19.637000+00:00</time>
      </trkpt>
      <trkpt lat="0" lon="0">
        <time>2020-12-06T09:19:19.639000+00:00</time>
      </trkpt>
      <trkpt lat="0" lon="0">
        <time>2020-12-06T09:19:19.640000+00:00</time>
      </trkpt>
      <trkpt lat="47.34005" lon="-1.25809">
        <ele>25</ele>
        <time>2020-12-06T09:19:20.638000+00:00</time>
      </trkpt>
      <trkpt lat="0" lon="0">
        <time>2020-12-06T09:19:20.654000+00:00</time>
      </trkpt>
      <trkpt lat="0" lon="0">
        <time>2020-12-06T09:19:20.661000+00:00</time>
      </trkpt>
      <trkpt lat="0" lon="0">
        <time>2020-12-06T09:19:20.662000+00:00</time>
      </trkpt>
      <trkpt lat="47.34005" lon="-1.25815">
        <ele>25</ele>
        <time>2020-12-06T09:19:21.566000+00:00</time>
      </trkpt>
      <trkpt lat="0" lon="0">
        <time>2020-12-06T09:19:21.568000+00:00</time>
      </trkpt>
      <trkpt lat="0" lon="0">
        <time>2020-12-06T09:19:21.576000+00:00</time>
      </trkpt>
      <trkpt lat="0" lon="0">
        <time>2020-12-06T09:19:21.580000+00:00</time>
      </trkpt>
      <trkpt lat="47.34005" lon="-1.25821">
        <ele>26</ele>
        <time>2020-12-06T09:19:22.630000+00:00</time>
      </trkpt>
      <trkpt lat="0" lon="0">
        <time>2020-12-06T09:19:22.646000+00:00</time>
      </trkpt>
      <trkpt lat="0" lon="0">
        <time>2020-12-06T09:19:22.665000+00:00</time>
      </trkpt>
      <trkpt lat="0" lon="0">
        <time>2020-12-06T09:19:22.670000+00:00</time>
      </trkpt>
      <trkpt lat="47.34004" lon="-1.25828">
        <ele>26</ele>
        <time>2020-12-06T09:19:23.603000+00:00</time>
      </trkpt>
      <trkpt lat="0" lon="0">
        <time>2020-12-06T09:19:23.620000+00:00</time>
      </trkpt>
      <trkpt lat="0" lon="0">
        <time>2020-12-06T09:19:23.623000+00:00</time>
      </trkpt>
      <trkpt lat="0" lon="0">
        <time>2020-12-06T09:19:23.626000+00:00</time>
      </trkpt>
      <trkpt lat="47.34004" lon="-1.25834">
        <ele>26</ele>
        <time>2020-12-06T09:19:24.625000+00:00</time>
      </trkpt>
      <trkpt lat="0" lon="0">
        <time>2020-12-06T09:19:24.631000+00:00</time>
      </trkpt>
      <trkpt lat="0" lon="0">
        <time>2020-12-06T09:19:24.644000+00:00</time>
      </trkpt>
      <trkpt lat="0" lon="0">
        <time>2020-12-06T09:19:24.652000+00:00</time>
      </trkpt>
      <trkpt lat="47.34004" lon="-1.25841">
        <ele>25</ele>
        <time>2020-12-06T09:19:25.646000+00:00</time>
      </trkpt>
      <trkpt lat="0" lon="0">
        <time>2020-12-06T09:19:25.650000+00:00</time>
      </trkpt>
      <trkpt lat="0" lon="0">
        <time>2020-12-06T09:19:25.657000+00:00</time>
      </trkpt>
      <trkpt lat="0" lon="0">
        <time>2020-12-06T09:19:25.662000+00:00</time>
      </trkpt>
      <trkpt lat="47.34004" lon="-1.25847">
        <ele>25</ele>
        <time>2020-12-06T09:19:26.572000+00:00</time>
      </trkpt>
      <trkpt lat="0" lon="0">
        <time>2020-12-06T09:19:26.575000+00:00</time>
      </trkpt>
      <trkpt lat="0" lon="0">
        <time>2020-12-06T09:19:26.582000+00:00</time>
      </trkpt>
      <trkpt lat="0" lon="0">
        <time>2020-12-06T09:19:26.586000+00:00</time>
      </trkpt>
      <trkpt lat="47.34004" lon="-1.25854">
        <ele>25</ele>
        <time>2020-12-06T09:19:27.661000+00:00</time>
      </trkpt>
      <trkpt lat="0" lon="0">
        <time>2020-12-06T09:19:27.664000+00:00</time>
      </trkpt>
      <trkpt lat="0" lon="0">
        <time>2020-12-06T09:19:27.676000+00:00</time>
      </trkpt>
      <trkpt lat="0" lon="0">
        <time>2020-12-06T09:19:27.679000+00:00</time>
      </trkpt>
      <trkpt lat="47.34004" lon="-1.2586">
        <ele>25</ele>
        <time>2020-12-06T09:19:28.683000+00:00</time>
      </trkpt>
      <trkpt lat="0" lon="0">
        <time>2020-12-06T09:19:28.696000+00:00</time>
      </trkpt>
      <trkpt lat="0" lon="0">
        <time>2020-12-06T09:19:28.712000+00:00</time>
      </trkpt>
      <trkpt lat="0" lon="0">
        <time>2020-12-06T09:19:28.715000+00:00</time>
      </trkpt>
      <trkpt lat="47.34004" lon="-1.25867">
        <ele>25</ele>
        <time>2020-12-06T09:19:29.594000+00:00</time>
      </trkpt>
      <trkpt lat="0" lon="0">
        <time>2020-12-06T09:19:29.598000+00:00</time>
      </trkpt>
      <trkpt lat="0" lon="0">
        <time>2020-12-06T09:19:29.601000+00:00</time>
      </trkpt>
      <trkpt lat="0" lon="0">
        <time>2020-12-06T09:19:29.602000+00:00</time>
      </trkpt>
      <trkpt lat="47.34003" lon="-1.25874">
        <ele>25</ele>
        <time>2020-12-06T09:19:30.647000+00:00</time>
      </trkpt>
      <trkpt lat="0" lon="0">
        <time>2020-12-06T09:19:30.666000+00:00</time>
      </trkpt>
      <trkpt lat="0" lon="0">
        <time>2020-12-06T09:19:30.670000+00:00</time>
      </trkpt>
      <trkpt lat="0" lon="0">
        <time>2020-12-06T09:19:30.672000+00:00</time>
      </trkpt>
      <trkpt lat="47.34003" lon="-1.25881">
        <ele>25</ele>
        <time>2020-12-06T09:19:31.574000+00:00</time>
      </trkpt>
      <trkpt lat="0" lon="0">
        <time>2020-12-06T09:19:31.582000+00:00</time>
      </trkpt>
      <trkpt lat="0" lon="0">
        <time>2020-12-06T09:19:31.586000+00:00</time>
      </trkpt>
      <trkpt lat="0" lon="0">
        <time>2020-12-06T09:19:31.587000+00:00</time>
      </trkpt>
      <trkpt lat="47.34003" lon="-1.25888">
        <ele>25</ele>
        <time>2020-12-06T09:19:32.651000+00:00</time>
      </trkpt>
      <trkpt lat="0" lon="0">
        <time>2020-12-06T09:19:32.663000+00:00</time>
      </trkpt>
      <trkpt lat="0" lon="0">
        <time>2020-12-06T09:19:32.672000+00:00</time>
      </trkpt>
      <trkpt lat="0" lon="0">
        <time>2020-12-06T09:19:32.675000+00:00</time>
      </trkpt>
      <trkpt lat="47.34002" lon="-1.25895">
        <ele>25</ele>
        <time>2020-12-06T09:19:33.616000+00:00</time>
      </trkpt>
      <trkpt lat="0" lon="0">
        <time>2020-12-06T09:19:33.623000+00:00</time>
      </trkpt>
      <trkpt lat="0" lon="0">
        <time>2020-12-06T09:19:33.625000+00:00</time>
      </trkpt>
      <trkpt lat="0" lon="0">
        <time>2020-12-06T09:19:33.627000+00:00</time>
      </trkpt>
      <trkpt lat="47.34" lon="-1.25902">
        <ele>25</ele>
        <time>2020-12-06T09:19:34.611000+00:00</time>
      </trkpt>
      <trkpt lat="0" lon="0">
        <time>2020-12-06T09:19:34.620000+00:00</time>
      </trkpt>
      <trkpt lat="0" lon="0">
        <time>2020-12-06T09:19:34.624000+00:00</time>
      </trkpt>
      <trkpt lat="0" lon="0">
        <time>2020-12-06T09:19:34.628000+00:00</time>
      </trkpt>
      <trkpt lat="47.33999" lon="-1.25909">
        <ele>25</ele>
        <time>2020-12-06T09:19:35.642000+00:00</time>
      </trkpt>
      <trkpt lat="0" lon="0">
        <time>2020-12-06T09:19:35.659000+00:00</time>
      </trkpt>
      <trkpt lat="0" lon="0">
        <time>2020-12-06T09:19:35.663000+00:00</time>
      </trkpt>
      <trkpt lat="0" lon="0">
        <time>2020-12-06T09:19:35.665000+00:00</time>
      </trkpt>
      <trkpt lat="47.33998" lon="-1.25916">
        <ele>25</ele>
        <time>2020-12-06T09:19:36.681000+00:00</time>
      </trkpt>
      <trkpt lat="0" lon="0">
        <time>2020-12-06T09:19:36.695000+00:00</time>
      </trkpt>
      <trkpt lat="0" lon="0">
        <time>2020-12-06T09:19:36.699000+00:00</time>
      </trkpt>
      <trkpt lat="0" lon="0">
        <time>2020-12-06T09:19:36.702000+00:00</time>
      </trkpt>
      <trkpt lat="47.33996" lon="-1.25923">
        <ele>26</ele>
        <time>2020-12-06T09:19:37.635000+00:00</time>
      </trkpt>
      <trkpt lat="0" lon="0">
        <time>2020-12-06T09:19:37.640000+00:00</time>
      </trkpt>
      <trkpt lat="0" lon="0">
        <time>2020-12-06T09:19:37.652000+00:00</time>
      </trkpt>
      <trkpt lat="0" lon="0">
        <time>2020-12-06T09:19:37.654000+00:00</time>
      </trkpt>
      <trkpt lat="47.33994" lon="-1.25929">
        <ele>26</ele>
        <time>2020-12-06T09:19:38.668000+00:00</time>
      </trkpt>
      <trkpt lat="0" lon="0">
        <time>2020-12-06T09:19:38.682000+00:00</time>
      </trkpt>
      <trkpt lat="0" lon="0">
        <time>2020-12-06T09:19:38.692000+00:00</time>
      </trkpt>
      <trkpt lat="0" lon="0">
        <time>2020-12-06T09:19:38.694000+00:00</time>
      </trkpt>
      <trkpt lat="47.33993" lon="-1.25936">
        <ele>27</ele>
        <time>2020-12-06T09:19:39.659000+00:00</time>
      </trkpt>
      <trkpt lat="0" lon="0">
        <time>2020-12-06T09:19:39.664000+00:00</time>
      </trkpt>
      <trkpt lat="0" lon="0">
        <time>2020-12-06T09:19:39.670000+00:00</time>
      </trkpt>
      <trkpt lat="0" lon="0">
        <time>2020-12-06T09:19:39.671000+00:00</time>
      </trkpt>
      <trkpt lat="47.33991" lon="-1.25943">
        <ele>28</ele>
        <time>2020-12-06T09:19:40.649000+00:00</time>
      </trkpt>
      <trkpt lat="0" lon="0">
        <time>2020-12-06T09:19:40.659000+00:00</time>
      </trkpt>
      <trkpt lat="0" lon="0">
        <time>2020-12-06T09:19:40.665000+00:00</time>
      </trkpt>
      <trkpt lat="0" lon="0">
        <time>2020-12-06T09:19:40.670000+00:00</time>
      </trkpt>
      <trkpt lat="47.3399" lon="-1.25949">
        <ele>29</ele>
        <time>2020-12-06T09:19:41.686000+00:00</time>
      </trkpt>
      <trkpt lat="0" lon="0">
        <time>2020-12-06T09:19:41.691000+00:00</time>
      </trkpt>
      <trkpt lat="0" lon="0">
        <time>2020-12-06T09:19:41.698000+00:00</time>
      </trkpt>
      <trkpt lat="0" lon="0">
        <time>2020-12-06T09:19:41.700000+00:00</time>
      </trkpt>
      <trkpt lat="47.33988" lon="-1.25956">
        <ele>29</ele>
        <time>2020-12-06T09:19:42.676000+00:00</time>
      </trkpt>
      <trkpt lat="0" lon="0">
        <time>2020-12-06T09:19:42.692000+00:00</time>
      </trkpt>
      <trkpt lat="0" lon="0">
        <time>2020-12-06T09:19:42.696000+00:00</time>
      </trkpt>
      <trkpt lat="0" lon="0">
        <time>2020-12-06T09:19:42.700000+00:00</time>
      </trkpt>
      <trkpt lat="47.33987" lon="-1.25962">
        <ele>30</ele>
        <time>2020-12-06T09:19:43.688000+00:00</time>
      </trkpt>
      <trkpt lat="0" lon="0">
        <time>2020-12-06T09:19:43.706000+00:00</time>
      </trkpt>
      <trkpt lat="0" lon="0">
        <time>2020-12-06T09:19:43.712000+00:00</time>
      </trkpt>
      <trkpt lat="0" lon="0">
        <time>2020-12-06T09:19:43.715000+00:00</time>
      </trkpt>
      <trkpt lat="47.33985" lon="-1.25968">
        <ele>31</ele>
        <time>2020-12-06T09:19:44.687000+00:00</time>
      </trkpt>
      <trkpt lat="0" lon="0">
        <time>2020-12-06T09:19:44.700000+00:00</time>
      </trkpt>
      <trkpt lat="0" lon="0">
        <time>2020-12-06T09:19:44.708000+00:00</time>
      </trkpt>
      <trkpt lat="0" lon="0">
        <time>2020-12-06T09:19:44.710000+00:00</time>
      </trkpt>
      <trkpt lat="47.33984" lon="-1.25974">
        <ele>31</ele>
        <time>2020-12-06T09:19:45.672000+00:00</time>
      </trkpt>
      <trkpt lat="0" lon="0">
        <time>2020-12-06T09:19:45.679000+00:00</time>
      </trkpt>
      <trkpt lat="0" lon="0">
        <time>2020-12-06T09:19:45.685000+00:00</time>
      </trkpt>
      <trkpt lat="0" lon="0">
        <time>2020-12-06T09:19:45.687000+00:00</time>
      </trkpt>
      <trkpt lat="47.33983" lon="-1.2598">
        <ele>32</ele>
        <time>2020-12-06T09:19:46.607000+00:00</time>
      </trkpt>
      <trkpt lat="0" lon="0">
        <time>2020-12-06T09:19:46.608000+00:00</time>
      </trkpt>
      <trkpt lat="0" lon="0">
        <time>2020-12-06T09:19:46.609000+00:00</time>
      </trkpt>
      <trkpt lat="47.33981" lon="-1.25987">
        <ele>33</ele>
        <time>2020-12-06T09:19:47.536000+00:00</time>
      </trkpt>
      <trkpt lat="0" lon="0">
        <time>2020-12-06T09:19:47.537000+00:00</time>
      </trkpt>
      <trkpt lat="0" lon="0">
        <time>2020-12-06T09:19:47.539000+00:00</time>
      </trkpt>
      <trkpt lat="0" lon="0">
        <time>2020-12-06T09:19:47.540000+00:00</time>
      </trkpt>
      <trkpt lat="47.3398" lon="-1.25993">
        <ele>33</ele>
        <time>2020-12-06T09:19:48.648000+00:00</time>
      </trkpt>
      <trkpt lat="0" lon="0">
        <time>2020-12-06T09:19:48.653000+00:00</time>
      </trkpt>
      <trkpt lat="0" lon="0">
        <time>2020-12-06T09:19:48.660000+00:00</time>
      </trkpt>
      <trkpt lat="0" lon="0">
        <time>2020-12-06T09:19:48.665000+00:00</time>
      </trkpt>
      <trkpt lat="47.33979" lon="-1.26">
        <ele>34</ele>
        <time>2020-12-06T09:19:49.606000+00:00</time>
      </trkpt>
      <trkpt lat="0" lon="0">
        <time>2020-12-06T09:19:49.609000+00:00</time>
      </trkpt>
      <trkpt lat="0" lon="0">
        <time>2020-12-06T09:19:49.616000+00:00</time>
      </trkpt>
      <trkpt lat="0" lon="0">
        <time>2020-12-06T09:19:49.618000+00:00</time>
      </trkpt>
      <trkpt lat="47.33978" lon="-1.26006">
        <ele>34</ele>
        <time>2020-12-06T09:19:50.646000+00:00</time>
      </trkpt>
      <trkpt lat="0" lon="0">
        <time>2020-12-06T09:19:50.665000+00:00</time>
      </trkpt>
      <trkpt lat="0" lon="0">
        <time>2020-12-06T09:19:50.668000+00:00</time>
      </trkpt>
      <trkpt lat="0" lon="0">
        <time>2020-12-06T09:19:50.670000+00:00</time>
      </trkpt>
      <trkpt lat="47.33977" lon="-1.26013">
        <ele>35</ele>
        <time>2020-12-06T09:19:51.642000+00:00</time>
      </trkpt>
      <trkpt lat="0" lon="0">
        <time>2020-12-06T09:19:51.650000+00:00</time>
      </trkpt>
      <trkpt lat="0" lon="0">
        <time>2020-12-06T09:19:51.652000+00:00</time>
      </trkpt>
      <trkpt lat="0" lon="0">
        <time>2020-12-06T09:19:51.653000+00:00</time>
      </trkpt>
      <trkpt lat="47.33976" lon="-1.26019">
        <ele>35</ele>
        <time>2020-12-06T09:19:52.614000+00:00</time>
      </trkpt>
      <trkpt lat="0" lon="0">
        <time>2020-12-06T09:19:52.622000+00:00</time>
      </trkpt>
      <trkpt lat="0" lon="0">
        <time>2020-12-06T09:19:52.626000+00:00</time>
      </trkpt>
      <trkpt lat="0" lon="0">
        <time>2020-12-06T09:19:52.631000+00:00</time>
      </trkpt>
      <trkpt lat="47.33975" lon="-1.26025">
        <ele>35</ele>
        <time>2020-12-06T09:19:53.697000+00:00</time>
      </trkpt>
      <trkpt lat="0" lon="0">
        <time>2020-12-06T09:19:53.702000+00:00</time>
      </trkpt>
      <trkpt lat="0" lon="0">
        <time>2020-12-06T09:19:53.707000+00:00</time>
      </trkpt>
      <trkpt lat="0" lon="0">
        <time>2020-12-06T09:19:53.709000+00:00</time>
      </trkpt>
      <trkpt lat="47.33974" lon="-1.26032">
        <ele>35</ele>
        <time>2020-12-06T09:19:54.684000+00:00</time>
      </trkpt>
      <trkpt lat="0" lon="0">
        <time>2020-12-06T09:19:54.699000+00:00</time>
      </trkpt>
      <trkpt lat="0" lon="0">
        <time>2020-12-06T09:19:54.704000+00:00</time>
      </trkpt>
      <trkpt lat="0" lon="0">
        <time>2020-12-06T09:19:54.708000+00:00</time>
      </trkpt>
      <trkpt lat="47.33973" lon="-1.26038">
        <ele>36</ele>
        <time>2020-12-06T09:19:55.645000+00:00</time>
      </trkpt>
      <trkpt lat="0" lon="0">
        <time>2020-12-06T09:19:55.655000+00:00</time>
      </trkpt>
      <trkpt lat="0" lon="0">
        <time>2020-12-06T09:19:55.665000+00:00</time>
      </trkpt>
      <trkpt lat="0" lon="0">
        <time>2020-12-06T09:19:55.667000+00:00</time>
      </trkpt>
      <trkpt lat="47.33972" lon="-1.26044">
        <ele>36</ele>
        <time>2020-12-06T09:19:56.667000+00:00</time>
      </trkpt>
      <trkpt lat="0" lon="0">
        <time>2020-12-06T09:19:56.685000+00:00</time>
      </trkpt>
      <trkpt lat="0" lon="0">
        <time>2020-12-06T09:19:56.692000+00:00</time>
      </trkpt>
      <trkpt lat="0" lon="0">
        <time>2020-12-06T09:19:56.698000+00:00</time>
      </trkpt>
      <trkpt lat="47.33972" lon="-1.2605">
        <ele>36</ele>
        <time>2020-12-06T09:19:57.674000+00:00</time>
      </trkpt>
      <trkpt lat="0" lon="0">
        <time>2020-12-06T09:19:57.687000+00:00</time>
      </trkpt>
      <trkpt lat="0" lon="0">
        <time>2020-12-06T09:19:57.693000+00:00</time>
      </trkpt>
      <trkpt lat="0" lon="0">
        <time>2020-12-06T09:19:57.695000+00:00</time>
      </trkpt>
      <trkpt lat="47.33971" lon="-1.26056">
        <ele>36</ele>
        <time>2020-12-06T09:19:58.661000+00:00</time>
      </trkpt>
      <trkpt lat="0" lon="0">
        <time>2020-12-06T09:19:58.668000+00:00</time>
      </trkpt>
      <trkpt lat="0" lon="0">
        <time>2020-12-06T09:19:58.672000+00:00</time>
      </trkpt>
      <trkpt lat="0" lon="0">
        <time>2020-12-06T09:19:58.674000+00:00</time>
      </trkpt>
      <trkpt lat="47.3397" lon="-1.26062">
        <ele>37</ele>
        <time>2020-12-06T09:19:59.683000+00:00</time>
      </trkpt>
      <trkpt lat="0" lon="0">
        <time>2020-12-06T09:19:59.703000+00:00</time>
      </trkpt>
      <trkpt lat="0" lon="0">
        <time>2020-12-06T09:19:59.710000+00:00</time>
      </trkpt>
      <trkpt lat="0" lon="0">
        <time>2020-12-06T09:19:59.712000+00:00</time>
      </trkpt>
      <trkpt lat="47.33969" lon="-1.26068">
        <ele>37</ele>
        <time>2020-12-06T09:20:00.666000+00:00</time>
      </trkpt>
      <trkpt lat="0" lon="0">
        <time>2020-12-06T09:20:00.671000+00:00</time>
      </trkpt>
      <trkpt lat="0" lon="0">
        <time>2020-12-06T09:20:00.677000+00:00</time>
      </trkpt>
      <trkpt lat="0" lon="0">
        <time>2020-12-06T09:20:00.679000+00:00</time>
      </trkpt>
      <trkpt lat="47.33969" lon="-1.26075">
        <ele>37</ele>
        <time>2020-12-06T09:20:01.675000+00:00</time>
      </trkpt>
      <trkpt lat="0" lon="0">
        <time>2020-12-06T09:20:01.689000+00:00</time>
      </trkpt>
      <trkpt lat="0" lon="0">
        <time>2020-12-06T09:20:01.701000+00:00</time>
      </trkpt>
      <trkpt lat="0" lon="0">
        <time>2020-12-06T09:20:01.707000+00:00</time>
      </trkpt>
      <trkpt lat="47.33968" lon="-1.26081">
        <ele>37</ele>
        <time>2020-12-06T09:20:02.690000+00:00</time>
      </trkpt>
      <trkpt lat="0" lon="0">
        <time>2020-12-06T09:20:02.695000+00:00</time>
      </trkpt>
      <trkpt lat="0" lon="0">
        <time>2020-12-06T09:20:02.696000+00:00</time>
      </trkpt>
      <trkpt lat="0" lon="0">
        <time>2020-12-06T09:20:02.698000+00:00</time>
      </trkpt>
      <trkpt lat="47.33968" lon="-1.26087">
        <ele>37</ele>
        <time>2020-12-06T09:20:03.635000+00:00</time>
      </trkpt>
      <trkpt lat="0" lon="0">
        <time>2020-12-06T09:20:03.639000+00:00</time>
      </trkpt>
      <trkpt lat="0" lon="0">
        <time>2020-12-06T09:20:03.647000+00:00</time>
      </trkpt>
      <trkpt lat="0" lon="0">
        <time>2020-12-06T09:20:03.653000+00:00</time>
      </trkpt>
      <trkpt lat="47.33968" lon="-1.26094">
        <ele>37</ele>
        <time>2020-12-06T09:20:04.680000+00:00</time>
      </trkpt>
      <trkpt lat="0" lon="0">
        <time>2020-12-06T09:20:04.699000+00:00</time>
      </trkpt>
      <trkpt lat="0" lon="0">
        <time>2020-12-06T09:20:04.702000+00:00</time>
      </trkpt>
      <trkpt lat="0" lon="0">
        <time>2020-12-06T09:20:04.704000+00:00</time>
      </trkpt>
      <trkpt lat="47.33968" lon="-1.261">
        <ele>37</ele>
        <time>2020-12-06T09:20:05.659000+00:00</time>
      </trkpt>
      <trkpt lat="0" lon="0">
        <time>2020-12-06T09:20:05.663000+00:00</time>
      </trkpt>
      <trkpt lat="0" lon="0">
        <time>2020-12-06T09:20:05.674000+00:00</time>
      </trkpt>
      <trkpt lat="0" lon="0">
        <time>2020-12-06T09:20:05.679000+00:00</time>
      </trkpt>
      <trkpt lat="47.33968" lon="-1.26107">
        <ele>37</ele>
        <time>2020-12-06T09:20:06.680000+00:00</time>
      </trkpt>
      <trkpt lat="0" lon="0">
        <time>2020-12-06T09:20:06.686000+00:00</time>
      </trkpt>
      <trkpt lat="0" lon="0">
        <time>2020-12-06T09:20:06.692000+00:00</time>
      </trkpt>
      <trkpt lat="0" lon="0">
        <time>2020-12-06T09:20:06.695000+00:00</time>
      </trkpt>
      <trkpt lat="47.33968" lon="-1.26114">
        <ele>37</ele>
        <time>2020-12-06T09:20:07.561000+00:00</time>
      </trkpt>
      <trkpt lat="0" lon="0">
        <time>2020-12-06T09:20:07.567000+00:00</time>
      </trkpt>
      <trkpt lat="0" lon="0">
        <time>2020-12-06T09:20:07.577000+00:00</time>
      </trkpt>
      <trkpt lat="0" lon="0">
        <time>2020-12-06T09:20:07.578000+00:00</time>
      </trkpt>
      <trkpt lat="47.33968" lon="-1.26121">
        <ele>36</ele>
        <time>2020-12-06T09:20:08.601000+00:00</time>
      </trkpt>
      <trkpt lat="0" lon="0">
        <time>2020-12-06T09:20:08.608000+00:00</time>
      </trkpt>
      <trkpt lat="0" lon="0">
        <time>2020-12-06T09:20:08.609000+00:00</time>
      </trkpt>
      <trkpt lat="0" lon="0">
        <time>2020-12-06T09:20:08.620000+00:00</time>
      </trkpt>
      <trkpt lat="47.33968" lon="-1.26129">
        <ele>36</ele>
        <time>2020-12-06T09:20:09.648000+00:00</time>
      </trkpt>
      <trkpt lat="0" lon="0">
        <time>2020-12-06T09:20:09.658000+00:00</time>
      </trkpt>
      <trkpt lat="0" lon="0">
        <time>2020-12-06T09:20:09.663000+00:00</time>
      </trkpt>
      <trkpt lat="0" lon="0">
        <time>2020-12-06T09:20:09.664000+00:00</time>
      </trkpt>
      <trkpt lat="47.33968" lon="-1.26136">
        <ele>36</ele>
        <time>2020-12-06T09:20:10.654000+00:00</time>
      </trkpt>
      <trkpt lat="0" lon="0">
        <time>2020-12-06T09:20:10.656000+00:00</time>
      </trkpt>
      <trkpt lat="0" lon="0">
        <time>2020-12-06T09:20:10.664000+00:00</time>
      </trkpt>
      <trkpt lat="0" lon="0">
        <time>2020-12-06T09:20:10.666000+00:00</time>
      </trkpt>
      <trkpt lat="47.33968" lon="-1.26144">
        <ele>36</ele>
        <time>2020-12-06T09:20:11.678000+00:00</time>
      </trkpt>
      <trkpt lat="0" lon="0">
        <time>2020-12-06T09:20:11.692000+00:00</time>
      </trkpt>
      <trkpt lat="0" lon="0">
        <time>2020-12-06T09:20:11.699000+00:00</time>
      </trkpt>
      <trkpt lat="0" lon="0">
        <time>2020-12-06T09:20:11.701000+00:00</time>
      </trkpt>
      <trkpt lat="47.33968" lon="-1.26152">
        <ele>35</ele>
        <time>2020-12-06T09:20:12.627000+00:00</time>
      </trkpt>
      <trkpt lat="0" lon="0">
        <time>2020-12-06T09:20:12.644000+00:00</time>
      </trkpt>
      <trkpt lat="0" lon="0">
        <time>2020-12-06T09:20:12.648000+00:00</time>
      </trkpt>
      <trkpt lat="0" lon="0">
        <time>2020-12-06T09:20:12.651000+00:00</time>
      </trkpt>
      <trkpt lat="47.33969" lon="-1.2616">
        <ele>35</ele>
        <time>2020-12-06T09:20:13.673000+00:00</time>
      </trkpt>
      <trkpt lat="0" lon="0">
        <time>2020-12-06T09:20:13.677000+00:00</time>
      </trkpt>
      <trkpt lat="0" lon="0">
        <time>2020-12-06T09:20:13.682000+00:00</time>
      </trkpt>
      <trkpt lat="0" lon="0">
        <time>2020-12-06T09:20:13.685000+00:00</time>
      </trkpt>
      <trkpt lat="47.33969" lon="-1.26168">
        <ele>35</ele>
        <time>2020-12-06T09:20:14.651000+00:00</time>
      </trkpt>
      <trkpt lat="0" lon="0">
        <time>2020-12-06T09:20:14.664000+00:00</time>
      </trkpt>
      <trkpt lat="0" lon="0">
        <time>2020-12-06T09:20:14.672000+00:00</time>
      </trkpt>
      <trkpt lat="0" lon="0">
        <time>2020-12-06T09:20:14.674000+00:00</time>
      </trkpt>
      <trkpt lat="47.33969" lon="-1.26176">
        <ele>35</ele>
        <time>2020-12-06T09:20:15.681000+00:00</time>
      </trkpt>
      <trkpt lat="0" lon="0">
        <time>2020-12-06T09:20:15.684000+00:00</time>
      </trkpt>
      <trkpt lat="0" lon="0">
        <time>2020-12-06T09:20:15.692000+00:00</time>
      </trkpt>
      <trkpt lat="0" lon="0">
        <time>2020-12-06T09:20:15.694000+00:00</time>
      </trkpt>
      <trkpt lat="47.3397" lon="-1.26183">
        <ele>36</ele>
        <time>2020-12-06T09:20:16.663000+00:00</time>
      </trkpt>
      <trkpt lat="0" lon="0">
        <time>2020-12-06T09:20:16.687000+00:00</time>
      </trkpt>
      <trkpt lat="0" lon="0">
        <time>2020-12-06T09:20:16.698000+00:00</time>
      </trkpt>
      <trkpt lat="0" lon="0">
        <time>2020-12-06T09:20:16.700000+00:00</time>
      </trkpt>
      <trkpt lat="47.3397" lon="-1.26191">
        <ele>37</ele>
        <time>2020-12-06T09:20:17.684000+00:00</time>
      </trkpt>
      <trkpt lat="0" lon="0">
        <time>2020-12-06T09:20:17.699000+00:00</time>
      </trkpt>
      <trkpt lat="0" lon="0">
        <time>2020-12-06T09:20:17.708000+00:00</time>
      </trkpt>
      <trkpt lat="0" lon="0">
        <time>2020-12-06T09:20:17.711000+00:00</time>
      </trkpt>
      <trkpt lat="47.3397" lon="-1.26199">
        <ele>37</ele>
        <time>2020-12-06T09:20:18.658000+00:00</time>
      </trkpt>
      <trkpt lat="0" lon="0">
        <time>2020-12-06T09:20:18.666000+00:00</time>
      </trkpt>
      <trkpt lat="0" lon="0">
        <time>2020-12-06T09:20:18.675000+00:00</time>
      </trkpt>
      <trkpt lat="0" lon="0">
        <time>2020-12-06T09:20:18.677000+00:00</time>
      </trkpt>
      <trkpt lat="47.3397" lon="-1.26207">
        <ele>38</ele>
        <time>2020-12-06T09:20:19.631000+00:00</time>
      </trkpt>
      <trkpt lat="0" lon="0">
        <time>2020-12-06T09:20:19.637000+00:00</time>
      </trkpt>
      <trkpt lat="0" lon="0">
        <time>2020-12-06T09:20:19.639000+00:00</time>
      </trkpt>
      <trkpt lat="0" lon="0">
        <time>2020-12-06T09:20:19.640000+00:00</time>
      </trkpt>
      <trkpt lat="47.33969" lon="-1.26215">
        <ele>39</ele>
        <time>2020-12-06T09:20:20.613000+00:00</time>
      </trkpt>
      <trkpt lat="0" lon="0">
        <time>2020-12-06T09:20:20.617000+00:00</time>
      </trkpt>
      <trkpt lat="0" lon="0">
        <time>2020-12-06T09:20:20.622000+00:00</time>
      </trkpt>
      <trkpt lat="0" lon="0">
        <time>2020-12-06T09:20:20.624000+00:00</time>
      </trkpt>
      <trkpt lat="47.33969" lon="-1.26222">
        <ele>40</ele>
        <time>2020-12-06T09:20:21.676000+00:00</time>
      </trkpt>
      <trkpt lat="0" lon="0">
        <time>2020-12-06T09:20:21.683000+00:00</time>
      </trkpt>
      <trkpt lat="0" lon="0">
        <time>2020-12-06T09:20:21.687000+00:00</time>
      </trkpt>
      <trkpt lat="0" lon="0">
        <time>2020-12-06T09:20:21.689000+00:00</time>
      </trkpt>
      <trkpt lat="47.33969" lon="-1.2623">
        <ele>40</ele>
        <time>2020-12-06T09:20:22.695000+00:00</time>
      </trkpt>
      <trkpt lat="0" lon="0">
        <time>2020-12-06T09:20:22.705000+00:00</time>
      </trkpt>
      <trkpt lat="0" lon="0">
        <time>2020-12-06T09:20:22.710000+00:00</time>
      </trkpt>
      <trkpt lat="0" lon="0">
        <time>2020-12-06T09:20:22.712000+00:00</time>
      </trkpt>
      <trkpt lat="47.33969" lon="-1.26238">
        <ele>41</ele>
        <time>2020-12-06T09:20:23.635000+00:00</time>
      </trkpt>
      <trkpt lat="0" lon="0">
        <time>2020-12-06T09:20:23.637000+00:00</time>
      </trkpt>
      <trkpt lat="0" lon="0">
        <time>2020-12-06T09:20:23.639000+00:00</time>
      </trkpt>
      <trkpt lat="0" lon="0">
        <time>2020-12-06T09:20:23.640000+00:00</time>
      </trkpt>
      <trkpt lat="47.33969" lon="-1.26245">
        <ele>42</ele>
        <time>2020-12-06T09:20:24.660000+00:00</time>
      </trkpt>
      <trkpt lat="0" lon="0">
        <time>2020-12-06T09:20:24.664000+00:00</time>
      </trkpt>
      <trkpt lat="0" lon="0">
        <time>2020-12-06T09:20:24.667000+00:00</time>
      </trkpt>
      <trkpt lat="0" lon="0">
        <time>2020-12-06T09:20:24.668000+00:00</time>
      </trkpt>
      <trkpt lat="47.33969" lon="-1.26252">
        <ele>42</ele>
        <time>2020-12-06T09:20:25.671000+00:00</time>
      </trkpt>
      <trkpt lat="0" lon="0">
        <time>2020-12-06T09:20:25.678000+00:00</time>
      </trkpt>
      <trkpt lat="0" lon="0">
        <time>2020-12-06T09:20:25.694000+00:00</time>
      </trkpt>
      <trkpt lat="0" lon="0">
        <time>2020-12-06T09:20:25.698000+00:00</time>
      </trkpt>
      <trkpt lat="47.33969" lon="-1.26258">
        <ele>43</ele>
        <time>2020-12-06T09:20:26.669000+00:00</time>
      </trkpt>
      <trkpt lat="0" lon="0">
        <time>2020-12-06T09:20:26.682000+00:00</time>
      </trkpt>
      <trkpt lat="0" lon="0">
        <time>2020-12-06T09:20:26.687000+00:00</time>
      </trkpt>
      <trkpt lat="0" lon="0">
        <time>2020-12-06T09:20:26.689000+00:00</time>
      </trkpt>
      <trkpt lat="47.33969" lon="-1.26264">
        <ele>44</ele>
        <time>2020-12-06T09:20:27.667000+00:00</time>
      </trkpt>
      <trkpt lat="0" lon="0">
        <time>2020-12-06T09:20:27.684000+00:00</time>
      </trkpt>
      <trkpt lat="0" lon="0">
        <time>2020-12-06T09:20:27.692000+00:00</time>
      </trkpt>
      <trkpt lat="0" lon="0">
        <time>2020-12-06T09:20:27.695000+00:00</time>
      </trkpt>
      <trkpt lat="47.33969" lon="-1.26269">
        <ele>44</ele>
        <time>2020-12-06T09:20:28.646000+00:00</time>
      </trkpt>
      <trkpt lat="0" lon="0">
        <time>2020-12-06T09:20:28.663000+00:00</time>
      </trkpt>
      <trkpt lat="0" lon="0">
        <time>2020-12-06T09:20:28.669000+00:00</time>
      </trkpt>
      <trkpt lat="0" lon="0">
        <time>2020-12-06T09:20:28.671000+00:00</time>
      </trkpt>
      <trkpt lat="47.33969" lon="-1.26275">
        <ele>45</ele>
        <time>2020-12-06T09:20:29.665000+00:00</time>
      </trkpt>
      <trkpt lat="0" lon="0">
        <time>2020-12-06T09:20:29.667000+00:00</time>
      </trkpt>
      <trkpt lat="0" lon="0">
        <time>2020-12-06T09:20:29.674000+00:00</time>
      </trkpt>
      <trkpt lat="0" lon="0">
        <time>2020-12-06T09:20:29.675000+00:00</time>
      </trkpt>
      <trkpt lat="47.33968" lon="-1.2628">
        <ele>46</ele>
        <time>2020-12-06T09:20:30.675000+00:00</time>
      </trkpt>
      <trkpt lat="0" lon="0">
        <time>2020-12-06T09:20:30.687000+00:00</time>
      </trkpt>
      <trkpt lat="0" lon="0">
        <time>2020-12-06T09:20:30.700000+00:00</time>
      </trkpt>
      <trkpt lat="0" lon="0">
        <time>2020-12-06T09:20:30.701000+00:00</time>
      </trkpt>
      <trkpt lat="47.33968" lon="-1.26286">
        <ele>46</ele>
        <time>2020-12-06T09:20:31.718000+00:00</time>
      </trkpt>
      <trkpt lat="0" lon="0">
        <time>2020-12-06T09:20:31.721000+00:00</time>
      </trkpt>
      <trkpt lat="0" lon="0">
        <time>2020-12-06T09:20:31.726000+00:00</time>
      </trkpt>
      <trkpt lat="0" lon="0">
        <time>2020-12-06T09:20:31.729000+00:00</time>
      </trkpt>
      <trkpt lat="47.33967" lon="-1.26291">
        <ele>47</ele>
        <time>2020-12-06T09:20:32.653000+00:00</time>
      </trkpt>
      <trkpt lat="0" lon="0">
        <time>2020-12-06T09:20:32.663000+00:00</time>
      </trkpt>
      <trkpt lat="0" lon="0">
        <time>2020-12-06T09:20:32.672000+00:00</time>
      </trkpt>
      <trkpt lat="0" lon="0">
        <time>2020-12-06T09:20:32.674000+00:00</time>
      </trkpt>
      <trkpt lat="47.33967" lon="-1.26297">
        <ele>48</ele>
        <time>2020-12-06T09:20:33.643000+00:00</time>
      </trkpt>
      <trkpt lat="0" lon="0">
        <time>2020-12-06T09:20:33.646000+00:00</time>
      </trkpt>
      <trkpt lat="0" lon="0">
        <time>2020-12-06T09:20:33.655000+00:00</time>
      </trkpt>
      <trkpt lat="0" lon="0">
        <time>2020-12-06T09:20:33.659000+00:00</time>
      </trkpt>
      <trkpt lat="47.33967" lon="-1.26303">
        <ele>48</ele>
        <time>2020-12-06T09:20:34.666000+00:00</time>
      </trkpt>
      <trkpt lat="0" lon="0">
        <time>2020-12-06T09:20:34.682000+00:00</time>
      </trkpt>
      <trkpt lat="0" lon="0">
        <time>2020-12-06T09:20:34.691000+00:00</time>
      </trkpt>
      <trkpt lat="0" lon="0">
        <time>2020-12-06T09:20:34.694000+00:00</time>
      </trkpt>
      <trkpt lat="47.33967" lon="-1.2631">
        <ele>49</ele>
        <time>2020-12-06T09:20:35.693000+00:00</time>
      </trkpt>
      <trkpt lat="0" lon="0">
        <time>2020-12-06T09:20:35.695000+00:00</time>
      </trkpt>
      <trkpt lat="0" lon="0">
        <time>2020-12-06T09:20:35.696000+00:00</time>
      </trkpt>
      <trkpt lat="0" lon="0">
        <time>2020-12-06T09:20:35.697000+00:00</time>
      </trkpt>
      <trkpt lat="47.33967" lon="-1.26316">
        <ele>50</ele>
        <time>2020-12-06T09:20:36.666000+00:00</time>
      </trkpt>
      <trkpt lat="0" lon="0">
        <time>2020-12-06T09:20:36.687000+00:00</time>
      </trkpt>
      <trkpt lat="0" lon="0">
        <time>2020-12-06T09:20:36.691000+00:00</time>
      </trkpt>
      <trkpt lat="0" lon="0">
        <time>2020-12-06T09:20:36.693000+00:00</time>
      </trkpt>
      <trkpt lat="47.33967" lon="-1.26323">
        <ele>50</ele>
        <time>2020-12-06T09:20:37.693000+00:00</time>
      </trkpt>
      <trkpt lat="0" lon="0">
        <time>2020-12-06T09:20:37.706000+00:00</time>
      </trkpt>
      <trkpt lat="0" lon="0">
        <time>2020-12-06T09:20:37.710000+00:00</time>
      </trkpt>
      <trkpt lat="0" lon="0">
        <time>2020-12-06T09:20:37.713000+00:00</time>
      </trkpt>
      <trkpt lat="47.33967" lon="-1.2633">
        <ele>51</ele>
        <time>2020-12-06T09:20:38.654000+00:00</time>
      </trkpt>
      <trkpt lat="0" lon="0">
        <time>2020-12-06T09:20:38.660000+00:00</time>
      </trkpt>
      <trkpt lat="0" lon="0">
        <time>2020-12-06T09:20:38.676000+00:00</time>
      </trkpt>
      <trkpt lat="0" lon="0">
        <time>2020-12-06T09:20:38.685000+00:00</time>
      </trkpt>
      <trkpt lat="47.33967" lon="-1.26337">
        <ele>52</ele>
        <time>2020-12-06T09:20:39.670000+00:00</time>
      </trkpt>
      <trkpt lat="0" lon="0">
        <time>2020-12-06T09:20:39.687000+00:00</time>
      </trkpt>
      <trkpt lat="0" lon="0">
        <time>2020-12-06T09:20:39.691000+00:00</time>
      </trkpt>
      <trkpt lat="0" lon="0">
        <time>2020-12-06T09:20:39.694000+00:00</time>
      </trkpt>
      <trkpt lat="47.33967" lon="-1.26344">
        <ele>52</ele>
        <time>2020-12-06T09:20:40.625000+00:00</time>
      </trkpt>
      <trkpt lat="0" lon="0">
        <time>2020-12-06T09:20:40.633000+00:00</time>
      </trkpt>
      <trkpt lat="0" lon="0">
        <time>2020-12-06T09:20:40.647000+00:00</time>
      </trkpt>
      <trkpt lat="0" lon="0">
        <time>2020-12-06T09:20:40.648000+00:00</time>
      </trkpt>
      <trkpt lat="47.33967" lon="-1.26352">
        <ele>53</ele>
        <time>2020-12-06T09:20:41.660000+00:00</time>
      </trkpt>
      <trkpt lat="0" lon="0">
        <time>2020-12-06T09:20:41.665000+00:00</time>
      </trkpt>
      <trkpt lat="0" lon="0">
        <time>2020-12-06T09:20:41.672000+00:00</time>
      </trkpt>
      <trkpt lat="0" lon="0">
        <time>2020-12-06T09:20:41.673000+00:00</time>
      </trkpt>
      <trkpt lat="47.33968" lon="-1.26359">
        <ele>54</ele>
        <time>2020-12-06T09:20:42.628000+00:00</time>
      </trkpt>
      <trkpt lat="0" lon="0">
        <time>2020-12-06T09:20:42.632000+00:00</time>
      </trkpt>
      <trkpt lat="0" lon="0">
        <time>2020-12-06T09:20:42.644000+00:00</time>
      </trkpt>
      <trkpt lat="0" lon="0">
        <time>2020-12-06T09:20:42.649000+00:00</time>
      </trkpt>
      <trkpt lat="47.33968" lon="-1.26367">
        <ele>54</ele>
        <time>2020-12-06T09:20:43.665000+00:00</time>
      </trkpt>
      <trkpt lat="0" lon="0">
        <time>2020-12-06T09:20:43.668000+00:00</time>
      </trkpt>
      <trkpt lat="0" lon="0">
        <time>2020-12-06T09:20:43.672000+00:00</time>
      </trkpt>
      <trkpt lat="0" lon="0">
        <time>2020-12-06T09:20:43.678000+00:00</time>
      </trkpt>
      <trkpt lat="47.33968" lon="-1.26375">
        <ele>55</ele>
        <time>2020-12-06T09:20:44.655000+00:00</time>
      </trkpt>
      <trkpt lat="0" lon="0">
        <time>2020-12-06T09:20:44.661000+00:00</time>
      </trkpt>
      <trkpt lat="0" lon="0">
        <time>2020-12-06T09:20:44.683000+00:00</time>
      </trkpt>
      <trkpt lat="0" lon="0">
        <time>2020-12-06T09:20:44.685000+00:00</time>
      </trkpt>
      <trkpt lat="47.33968" lon="-1.26383">
        <ele>55</ele>
        <time>2020-12-06T09:20:45.637000+00:00</time>
      </trkpt>
      <trkpt lat="0" lon="0">
        <time>2020-12-06T09:20:45.659000+00:00</time>
      </trkpt>
      <trkpt lat="0" lon="0">
        <time>2020-12-06T09:20:45.668000+00:00</time>
      </trkpt>
      <trkpt lat="0" lon="0">
        <time>2020-12-06T09:20:45.669000+00:00</time>
      </trkpt>
      <trkpt lat="47.33968" lon="-1.2639">
        <ele>56</ele>
        <time>2020-12-06T09:20:46.647000+00:00</time>
      </trkpt>
      <trkpt lat="0" lon="0">
        <time>2020-12-06T09:20:46.654000+00:00</time>
      </trkpt>
      <trkpt lat="0" lon="0">
        <time>2020-12-06T09:20:46.656000+00:00</time>
      </trkpt>
      <trkpt lat="0" lon="0">
        <time>2020-12-06T09:20:46.657000+00:00</time>
      </trkpt>
      <trkpt lat="47.33967" lon="-1.26398">
        <ele>57</ele>
        <time>2020-12-06T09:20:47.638000+00:00</time>
      </trkpt>
      <trkpt lat="0" lon="0">
        <time>2020-12-06T09:20:47.648000+00:00</time>
      </trkpt>
      <trkpt lat="0" lon="0">
        <time>2020-12-06T09:20:47.650000+00:00</time>
      </trkpt>
      <trkpt lat="0" lon="0">
        <time>2020-12-06T09:20:47.651000+00:00</time>
      </trkpt>
      <trkpt lat="47.33967" lon="-1.26406">
        <ele>58</ele>
        <time>2020-12-06T09:20:48.639000+00:00</time>
      </trkpt>
      <trkpt lat="0" lon="0">
        <time>2020-12-06T09:20:48.657000+00:00</time>
      </trkpt>
      <trkpt lat="0" lon="0">
        <time>2020-12-06T09:20:48.660000+00:00</time>
      </trkpt>
      <trkpt lat="0" lon="0">
        <time>2020-12-06T09:20:48.664000+00:00</time>
      </trkpt>
      <trkpt lat="47.33966" lon="-1.26415">
        <ele>59</ele>
        <time>2020-12-06T09:20:49.682000+00:00</time>
      </trkpt>
      <trkpt lat="0" lon="0">
        <time>2020-12-06T09:20:49.689000+00:00</time>
      </trkpt>
      <trkpt lat="0" lon="0">
        <time>2020-12-06T09:20:49.695000+00:00</time>
      </trkpt>
      <trkpt lat="0" lon="0">
        <time>2020-12-06T09:20:49.699000+00:00</time>
      </trkpt>
      <trkpt lat="47.33966" lon="-1.26423">
        <ele>59</ele>
        <time>2020-12-06T09:20:50.655000+00:00</time>
      </trkpt>
      <trkpt lat="0" lon="0">
        <time>2020-12-06T09:20:50.667000+00:00</time>
      </trkpt>
      <trkpt lat="0" lon="0">
        <time>2020-12-06T09:20:50.671000+00:00</time>
      </trkpt>
      <trkpt lat="0" lon="0">
        <time>2020-12-06T09:20:50.674000+00:00</time>
      </trkpt>
      <trkpt lat="47.33965" lon="-1.26432">
        <ele>60</ele>
        <time>2020-12-06T09:20:51.610000+00:00</time>
      </trkpt>
      <trkpt lat="0" lon="0">
        <time>2020-12-06T09:20:51.612000+00:00</time>
      </trkpt>
      <trkpt lat="0" lon="0">
        <time>2020-12-06T09:20:51.614000+00:00</time>
      </trkpt>
      <trkpt lat="0" lon="0">
        <time>2020-12-06T09:20:51.616000+00:00</time>
      </trkpt>
      <trkpt lat="47.33965" lon="-1.2644">
        <ele>61</ele>
        <time>2020-12-06T09:20:52.602000+00:00</time>
      </trkpt>
      <trkpt lat="0" lon="0">
        <time>2020-12-06T09:20:52.604000+00:00</time>
      </trkpt>
      <trkpt lat="0" lon="0">
        <time>2020-12-06T09:20:52.605000+00:00</time>
      </trkpt>
      <trkpt lat="0" lon="0">
        <time>2020-12-06T09:20:52.606000+00:00</time>
      </trkpt>
      <trkpt lat="47.33964" lon="-1.26448">
        <ele>61</ele>
        <time>2020-12-06T09:20:53.670000+00:00</time>
      </trkpt>
      <trkpt lat="0" lon="0">
        <time>2020-12-06T09:20:53.673000+00:00</time>
      </trkpt>
      <trkpt lat="0" lon="0">
        <time>2020-12-06T09:20:53.686000+00:00</time>
      </trkpt>
      <trkpt lat="0" lon="0">
        <time>2020-12-06T09:20:53.689000+00:00</time>
      </trkpt>
      <trkpt lat="47.33964" lon="-1.26456">
        <ele>62</ele>
        <time>2020-12-06T09:20:54.637000+00:00</time>
      </trkpt>
      <trkpt lat="0" lon="0">
        <time>2020-12-06T09:20:54.643000+00:00</time>
      </trkpt>
      <trkpt lat="0" lon="0">
        <time>2020-12-06T09:20:54.657000+00:00</time>
      </trkpt>
      <trkpt lat="0" lon="0">
        <time>2020-12-06T09:20:54.659000+00:00</time>
      </trkpt>
      <trkpt lat="47.33964" lon="-1.26464">
        <ele>63</ele>
        <time>2020-12-06T09:20:55.686000+00:00</time>
      </trkpt>
      <trkpt lat="0" lon="0">
        <time>2020-12-06T09:20:55.711000+00:00</time>
      </trkpt>
      <trkpt lat="0" lon="0">
        <time>2020-12-06T09:20:55.715000+00:00</time>
      </trkpt>
      <trkpt lat="0" lon="0">
        <time>2020-12-06T09:20:55.717000+00:00</time>
      </trkpt>
      <trkpt lat="47.33963" lon="-1.26472">
        <ele>63</ele>
        <time>2020-12-06T09:20:56.683000+00:00</time>
      </trkpt>
      <trkpt lat="0" lon="0">
        <time>2020-12-06T09:20:56.691000+00:00</time>
      </trkpt>
      <trkpt lat="0" lon="0">
        <time>2020-12-06T09:20:56.697000+00:00</time>
      </trkpt>
      <trkpt lat="0" lon="0">
        <time>2020-12-06T09:20:56.699000+00:00</time>
      </trkpt>
      <trkpt lat="47.33963" lon="-1.2648">
        <ele>64</ele>
        <time>2020-12-06T09:20:57.642000+00:00</time>
      </trkpt>
      <trkpt lat="0" lon="0">
        <time>2020-12-06T09:20:57.653000+00:00</time>
      </trkpt>
      <trkpt lat="0" lon="0">
        <time>2020-12-06T09:20:57.657000+00:00</time>
      </trkpt>
      <trkpt lat="0" lon="0">
        <time>2020-12-06T09:20:57.659000+00:00</time>
      </trkpt>
      <trkpt lat="47.33963" lon="-1.26487">
        <ele>64</ele>
        <time>2020-12-06T09:20:58.687000+00:00</time>
      </trkpt>
      <trkpt lat="0" lon="0">
        <time>2020-12-06T09:20:58.691000+00:00</time>
      </trkpt>
      <trkpt lat="0" lon="0">
        <time>2020-12-06T09:20:58.695000+00:00</time>
      </trkpt>
      <trkpt lat="0" lon="0">
        <time>2020-12-06T09:20:58.698000+00:00</time>
      </trkpt>
      <trkpt lat="47.33963" lon="-1.26494">
        <ele>65</ele>
        <time>2020-12-06T09:20:59.652000+00:00</time>
      </trkpt>
      <trkpt lat="0" lon="0">
        <time>2020-12-06T09:20:59.666000+00:00</time>
      </trkpt>
      <trkpt lat="0" lon="0">
        <time>2020-12-06T09:20:59.677000+00:00</time>
      </trkpt>
      <trkpt lat="0" lon="0">
        <time>2020-12-06T09:20:59.679000+00:00</time>
      </trkpt>
      <trkpt lat="47.33963" lon="-1.26501">
        <ele>65</ele>
        <time>2020-12-06T09:21:00.674000+00:00</time>
      </trkpt>
      <trkpt lat="0" lon="0">
        <time>2020-12-06T09:21:00.678000+00:00</time>
      </trkpt>
      <trkpt lat="0" lon="0">
        <time>2020-12-06T09:21:00.683000+00:00</time>
      </trkpt>
      <trkpt lat="0" lon="0">
        <time>2020-12-06T09:21:00.685000+00:00</time>
      </trkpt>
      <trkpt lat="47.33963" lon="-1.26508">
        <ele>65</ele>
        <time>2020-12-06T09:21:01.693000+00:00</time>
      </trkpt>
      <trkpt lat="0" lon="0">
        <time>2020-12-06T09:21:01.710000+00:00</time>
      </trkpt>
      <trkpt lat="0" lon="0">
        <time>2020-12-06T09:21:01.714000+00:00</time>
      </trkpt>
      <trkpt lat="0" lon="0">
        <time>2020-12-06T09:21:01.717000+00:00</time>
      </trkpt>
      <trkpt lat="47.33963" lon="-1.26514">
        <ele>65</ele>
        <time>2020-12-06T09:21:02.706000+00:00</time>
      </trkpt>
      <trkpt lat="0" lon="0">
        <time>2020-12-06T09:21:02.713000+00:00</time>
      </trkpt>
      <trkpt lat="0" lon="0">
        <time>2020-12-06T09:21:02.717000+00:00</time>
      </trkpt>
      <trkpt lat="0" lon="0">
        <time>2020-12-06T09:21:02.725000+00:00</time>
      </trkpt>
      <trkpt lat="47.33963" lon="-1.26521">
        <ele>65</ele>
        <time>2020-12-06T09:21:03.684000+00:00</time>
      </trkpt>
      <trkpt lat="0" lon="0">
        <time>2020-12-06T09:21:03.694000+00:00</time>
      </trkpt>
      <trkpt lat="0" lon="0">
        <time>2020-12-06T09:21:03.698000+00:00</time>
      </trkpt>
      <trkpt lat="0" lon="0">
        <time>2020-12-06T09:21:03.703000+00:00</time>
      </trkpt>
      <trkpt lat="47.33963" lon="-1.26527">
        <ele>65</ele>
        <time>2020-12-06T09:21:04.654000+00:00</time>
      </trkpt>
      <trkpt lat="0" lon="0">
        <time>2020-12-06T09:21:04.655000+00:00</time>
      </trkpt>
      <trkpt lat="0" lon="0">
        <time>2020-12-06T09:21:04.657000+00:00</time>
      </trkpt>
      <trkpt lat="47.33963" lon="-1.26534">
        <ele>65</ele>
        <time>2020-12-06T09:21:05.698000+00:00</time>
      </trkpt>
      <trkpt lat="0" lon="0">
        <time>2020-12-06T09:21:05.716000+00:00</time>
      </trkpt>
      <trkpt lat="0" lon="0">
        <time>2020-12-06T09:21:05.727000+00:00</time>
      </trkpt>
      <trkpt lat="0" lon="0">
        <time>2020-12-06T09:21:05.730000+00:00</time>
      </trkpt>
      <trkpt lat="47.33964" lon="-1.2654">
        <ele>65</ele>
        <time>2020-12-06T09:21:06.647000+00:00</time>
      </trkpt>
      <trkpt lat="0" lon="0">
        <time>2020-12-06T09:21:06.668000+00:00</time>
      </trkpt>
      <trkpt lat="0" lon="0">
        <time>2020-12-06T09:21:06.675000+00:00</time>
      </trkpt>
      <trkpt lat="0" lon="0">
        <time>2020-12-06T09:21:06.678000+00:00</time>
      </trkpt>
      <trkpt lat="47.33964" lon="-1.26547">
        <ele>65</ele>
        <time>2020-12-06T09:21:07.612000+00:00</time>
      </trkpt>
      <trkpt lat="0" lon="0">
        <time>2020-12-06T09:21:07.634000+00:00</time>
      </trkpt>
      <trkpt lat="0" lon="0">
        <time>2020-12-06T09:21:07.636000+00:00</time>
      </trkpt>
      <trkpt lat="0" lon="0">
        <time>2020-12-06T09:21:07.637000+00:00</time>
      </trkpt>
      <trkpt lat="47.33965" lon="-1.26554">
        <ele>65</ele>
        <time>2020-12-06T09:21:08.659000+00:00</time>
      </trkpt>
      <trkpt lat="0" lon="0">
        <time>2020-12-06T09:21:08.676000+00:00</time>
      </trkpt>
      <trkpt lat="0" lon="0">
        <time>2020-12-06T09:21:08.680000+00:00</time>
      </trkpt>
      <trkpt lat="0" lon="0">
        <time>2020-12-06T09:21:08.682000+00:00</time>
      </trkpt>
      <trkpt lat="47.33966" lon="-1.2656">
        <ele>65</ele>
        <time>2020-12-06T09:21:09.721000+00:00</time>
      </trkpt>
      <trkpt lat="0" lon="0">
        <time>2020-12-06T09:21:09.730000+00:00</time>
      </trkpt>
      <trkpt lat="0" lon="0">
        <time>2020-12-06T09:21:09.733000+00:00</time>
      </trkpt>
      <trkpt lat="0" lon="0">
        <time>2020-12-06T09:21:09.735000+00:00</time>
      </trkpt>
      <trkpt lat="47.33967" lon="-1.26568">
        <ele>65</ele>
        <time>2020-12-06T09:21:10.703000+00:00</time>
      </trkpt>
      <trkpt lat="0" lon="0">
        <time>2020-12-06T09:21:10.716000+00:00</time>
      </trkpt>
      <trkpt lat="0" lon="0">
        <time>2020-12-06T09:21:10.720000+00:00</time>
      </trkpt>
      <trkpt lat="0" lon="0">
        <time>2020-12-06T09:21:10.722000+00:00</time>
      </trkpt>
      <trkpt lat="47.33967" lon="-1.26575">
        <ele>65</ele>
        <time>2020-12-06T09:21:11.690000+00:00</time>
      </trkpt>
      <trkpt lat="0" lon="0">
        <time>2020-12-06T09:21:11.702000+00:00</time>
      </trkpt>
      <trkpt lat="0" lon="0">
        <time>2020-12-06T09:21:11.706000+00:00</time>
      </trkpt>
      <trkpt lat="0" lon="0">
        <time>2020-12-06T09:21:11.708000+00:00</time>
      </trkpt>
      <trkpt lat="47.33967" lon="-1.26582">
        <ele>65</ele>
        <time>2020-12-06T09:21:12.649000+00:00</time>
      </trkpt>
      <trkpt lat="0" lon="0">
        <time>2020-12-06T09:21:12.658000+00:00</time>
      </trkpt>
      <trkpt lat="0" lon="0">
        <time>2020-12-06T09:21:12.664000+00:00</time>
      </trkpt>
      <trkpt lat="0" lon="0">
        <time>2020-12-06T09:21:12.667000+00:00</time>
      </trkpt>
      <trkpt lat="47.33967" lon="-1.2659">
        <ele>64</ele>
        <time>2020-12-06T09:21:13.658000+00:00</time>
      </trkpt>
      <trkpt lat="0" lon="0">
        <time>2020-12-06T09:21:13.662000+00:00</time>
      </trkpt>
      <trkpt lat="0" lon="0">
        <time>2020-12-06T09:21:13.666000+00:00</time>
      </trkpt>
      <trkpt lat="0" lon="0">
        <time>2020-12-06T09:21:13.667000+00:00</time>
      </trkpt>
      <trkpt lat="47.33967" lon="-1.26598">
        <ele>63</ele>
        <time>2020-12-06T09:21:14.704000+00:00</time>
      </trkpt>
      <trkpt lat="0" lon="0">
        <time>2020-12-06T09:21:14.718000+00:00</time>
      </trkpt>
      <trkpt lat="0" lon="0">
        <time>2020-12-06T09:21:14.722000+00:00</time>
      </trkpt>
      <trkpt lat="0" lon="0">
        <time>2020-12-06T09:21:14.723000+00:00</time>
      </trkpt>
      <trkpt lat="47.33967" lon="-1.26606">
        <ele>63</ele>
        <time>2020-12-06T09:21:15.689000+00:00</time>
      </trkpt>
      <trkpt lat="0" lon="0">
        <time>2020-12-06T09:21:15.702000+00:00</time>
      </trkpt>
      <trkpt lat="0" lon="0">
        <time>2020-12-06T09:21:15.711000+00:00</time>
      </trkpt>
      <trkpt lat="0" lon="0">
        <time>2020-12-06T09:21:15.714000+00:00</time>
      </trkpt>
      <trkpt lat="47.33966" lon="-1.26613">
        <ele>62</ele>
        <time>2020-12-06T09:21:16.664000+00:00</time>
      </trkpt>
      <trkpt lat="0" lon="0">
        <time>2020-12-06T09:21:16.669000+00:00</time>
      </trkpt>
      <trkpt lat="0" lon="0">
        <time>2020-12-06T09:21:16.673000+00:00</time>
      </trkpt>
      <trkpt lat="0" lon="0">
        <time>2020-12-06T09:21:16.677000+00:00</time>
      </trkpt>
      <trkpt lat="47.33966" lon="-1.26621">
        <ele>61</ele>
        <time>2020-12-06T09:21:17.666000+00:00</time>
      </trkpt>
      <trkpt lat="0" lon="0">
        <time>2020-12-06T09:21:17.680000+00:00</time>
      </trkpt>
      <trkpt lat="0" lon="0">
        <time>2020-12-06T09:21:17.693000+00:00</time>
      </trkpt>
      <trkpt lat="0" lon="0">
        <time>2020-12-06T09:21:17.695000+00:00</time>
      </trkpt>
      <trkpt lat="47.33965" lon="-1.26629">
        <ele>61</ele>
        <time>2020-12-06T09:21:18.684000+00:00</time>
      </trkpt>
      <trkpt lat="0" lon="0">
        <time>2020-12-06T09:21:18.700000+00:00</time>
      </trkpt>
      <trkpt lat="0" lon="0">
        <time>2020-12-06T09:21:18.709000+00:00</time>
      </trkpt>
      <trkpt lat="0" lon="0">
        <time>2020-12-06T09:21:18.713000+00:00</time>
      </trkpt>
      <trkpt lat="47.33965" lon="-1.26636">
        <ele>60</ele>
        <time>2020-12-06T09:21:19.703000+00:00</time>
      </trkpt>
      <trkpt lat="0" lon="0">
        <time>2020-12-06T09:21:19.710000+00:00</time>
      </trkpt>
      <trkpt lat="0" lon="0">
        <time>2020-12-06T09:21:19.716000+00:00</time>
      </trkpt>
      <trkpt lat="0" lon="0">
        <time>2020-12-06T09:21:19.718000+00:00</time>
      </trkpt>
      <trkpt lat="47.33964" lon="-1.26644">
        <ele>60</ele>
        <time>2020-12-06T09:21:20.673000+00:00</time>
      </trkpt>
      <trkpt lat="0" lon="0">
        <time>2020-12-06T09:21:20.682000+00:00</time>
      </trkpt>
      <trkpt lat="0" lon="0">
        <time>2020-12-06T09:21:20.686000+00:00</time>
      </trkpt>
      <trkpt lat="0" lon="0">
        <time>2020-12-06T09:21:20.691000+00:00</time>
      </trkpt>
      <trkpt lat="47.33963" lon="-1.26651">
        <ele>59</ele>
        <time>2020-12-06T09:21:21.620000+00:00</time>
      </trkpt>
      <trkpt lat="0" lon="0">
        <time>2020-12-06T09:21:21.632000+00:00</time>
      </trkpt>
      <trkpt lat="0" lon="0">
        <time>2020-12-06T09:21:21.636000+00:00</time>
      </trkpt>
      <trkpt lat="0" lon="0">
        <time>2020-12-06T09:21:21.638000+00:00</time>
      </trkpt>
      <trkpt lat="47.33962" lon="-1.26658">
        <ele>59</ele>
        <time>2020-12-06T09:21:22.620000+00:00</time>
      </trkpt>
      <trkpt lat="0" lon="0">
        <time>2020-12-06T09:21:22.623000+00:00</time>
      </trkpt>
      <trkpt lat="0" lon="0">
        <time>2020-12-06T09:21:22.625000+00:00</time>
      </trkpt>
      <trkpt lat="0" lon="0">
        <time>2020-12-06T09:21:22.626000+00:00</time>
      </trkpt>
      <trkpt lat="47.3396" lon="-1.26665">
        <ele>59</ele>
        <time>2020-12-06T09:21:23.558000+00:00</time>
      </trkpt>
      <trkpt lat="0" lon="0">
        <time>2020-12-06T09:21:23.577000+00:00</time>
      </trkpt>
      <trkpt lat="0" lon="0">
        <time>2020-12-06T09:21:23.579000+00:00</time>
      </trkpt>
      <trkpt lat="0" lon="0">
        <time>2020-12-06T09:21:23.581000+00:00</time>
      </trkpt>
      <trkpt lat="47.33958" lon="-1.26672">
        <ele>59</ele>
        <time>2020-12-06T09:21:24.652000+00:00</time>
      </trkpt>
      <trkpt lat="0" lon="0">
        <time>2020-12-06T09:21:24.660000+00:00</time>
      </trkpt>
      <trkpt lat="0" lon="0">
        <time>2020-12-06T09:21:24.665000+00:00</time>
      </trkpt>
      <trkpt lat="0" lon="0">
        <time>2020-12-06T09:21:24.668000+00:00</time>
      </trkpt>
      <trkpt lat="47.33956" lon="-1.26679">
        <ele>59</ele>
        <time>2020-12-06T09:21:25.634000+00:00</time>
      </trkpt>
      <trkpt lat="0" lon="0">
        <time>2020-12-06T09:21:25.650000+00:00</time>
      </trkpt>
      <trkpt lat="0" lon="0">
        <time>2020-12-06T09:21:25.653000+00:00</time>
      </trkpt>
      <trkpt lat="0" lon="0">
        <time>2020-12-06T09:21:25.655000+00:00</time>
      </trkpt>
      <trkpt lat="47.33954" lon="-1.26685">
        <ele>59</ele>
        <time>2020-12-06T09:21:26.621000+00:00</time>
      </trkpt>
      <trkpt lat="0" lon="0">
        <time>2020-12-06T09:21:26.626000+00:00</time>
      </trkpt>
      <trkpt lat="0" lon="0">
        <time>2020-12-06T09:21:26.634000+00:00</time>
      </trkpt>
      <trkpt lat="0" lon="0">
        <time>2020-12-06T09:21:26.636000+00:00</time>
      </trkpt>
      <trkpt lat="47.33952" lon="-1.26691">
        <ele>59</ele>
        <time>2020-12-06T09:21:27.646000+00:00</time>
      </trkpt>
      <trkpt lat="0" lon="0">
        <time>2020-12-06T09:21:27.655000+00:00</time>
      </trkpt>
      <trkpt lat="0" lon="0">
        <time>2020-12-06T09:21:27.662000+00:00</time>
      </trkpt>
      <trkpt lat="0" lon="0">
        <time>2020-12-06T09:21:27.664000+00:00</time>
      </trkpt>
      <trkpt lat="47.3395" lon="-1.26697">
        <ele>59</ele>
        <time>2020-12-06T09:21:28.586000+00:00</time>
      </trkpt>
      <trkpt lat="0" lon="0">
        <time>2020-12-06T09:21:28.593000+00:00</time>
      </trkpt>
      <trkpt lat="0" lon="0">
        <time>2020-12-06T09:21:28.595000+00:00</time>
      </trkpt>
      <trkpt lat="0" lon="0">
        <time>2020-12-06T09:21:28.597000+00:00</time>
      </trkpt>
      <trkpt lat="47.33948" lon="-1.26703">
        <ele>59</ele>
        <time>2020-12-06T09:21:29.624000+00:00</time>
      </trkpt>
      <trkpt lat="0" lon="0">
        <time>2020-12-06T09:21:29.630000+00:00</time>
      </trkpt>
      <trkpt lat="0" lon="0">
        <time>2020-12-06T09:21:29.637000+00:00</time>
      </trkpt>
      <trkpt lat="0" lon="0">
        <time>2020-12-06T09:21:29.639000+00:00</time>
      </trkpt>
      <trkpt lat="47.33946" lon="-1.26709">
        <ele>59</ele>
        <time>2020-12-06T09:21:30.638000+00:00</time>
      </trkpt>
      <trkpt lat="0" lon="0">
        <time>2020-12-06T09:21:30.645000+00:00</time>
      </trkpt>
      <trkpt lat="0" lon="0">
        <time>2020-12-06T09:21:30.664000+00:00</time>
      </trkpt>
      <trkpt lat="0" lon="0">
        <time>2020-12-06T09:21:30.665000+00:00</time>
      </trkpt>
      <trkpt lat="47.33944" lon="-1.26715">
        <ele>59</ele>
        <time>2020-12-06T09:21:31.651000+00:00</time>
      </trkpt>
      <trkpt lat="0" lon="0">
        <time>2020-12-06T09:21:31.656000+00:00</time>
      </trkpt>
      <trkpt lat="0" lon="0">
        <time>2020-12-06T09:21:31.659000+00:00</time>
      </trkpt>
      <trkpt lat="0" lon="0">
        <time>2020-12-06T09:21:31.661000+00:00</time>
      </trkpt>
      <trkpt lat="47.33943" lon="-1.26721">
        <ele>59</ele>
        <time>2020-12-06T09:21:32.569000+00:00</time>
      </trkpt>
      <trkpt lat="0" lon="0">
        <time>2020-12-06T09:21:32.587000+00:00</time>
      </trkpt>
      <trkpt lat="0" lon="0">
        <time>2020-12-06T09:21:32.589000+00:00</time>
      </trkpt>
      <trkpt lat="0" lon="0">
        <time>2020-12-06T09:21:32.598000+00:00</time>
      </trkpt>
      <trkpt lat="47.33941" lon="-1.26727">
        <ele>59</ele>
        <time>2020-12-06T09:21:33.589000+00:00</time>
      </trkpt>
      <trkpt lat="0" lon="0">
        <time>2020-12-06T09:21:33.607000+00:00</time>
      </trkpt>
      <trkpt lat="0" lon="0">
        <time>2020-12-06T09:21:33.614000+00:00</time>
      </trkpt>
      <trkpt lat="0" lon="0">
        <time>2020-12-06T09:21:33.615000+00:00</time>
      </trkpt>
      <trkpt lat="47.3394" lon="-1.26734">
        <ele>59</ele>
        <time>2020-12-06T09:21:34.611000+00:00</time>
      </trkpt>
      <trkpt lat="0" lon="0">
        <time>2020-12-06T09:21:34.625000+00:00</time>
      </trkpt>
      <trkpt lat="0" lon="0">
        <time>2020-12-06T09:21:34.628000+00:00</time>
      </trkpt>
      <trkpt lat="0" lon="0">
        <time>2020-12-06T09:21:34.631000+00:00</time>
      </trkpt>
      <trkpt lat="47.33939" lon="-1.26739">
        <ele>59</ele>
        <time>2020-12-06T09:21:35.614000+00:00</time>
      </trkpt>
      <trkpt lat="0" lon="0">
        <time>2020-12-06T09:21:35.624000+00:00</time>
      </trkpt>
      <trkpt lat="0" lon="0">
        <time>2020-12-06T09:21:35.634000+00:00</time>
      </trkpt>
      <trkpt lat="0" lon="0">
        <time>2020-12-06T09:21:35.639000+00:00</time>
      </trkpt>
      <trkpt lat="47.33938" lon="-1.26745">
        <ele>59</ele>
        <time>2020-12-06T09:21:36.606000+00:00</time>
      </trkpt>
      <trkpt lat="0" lon="0">
        <time>2020-12-06T09:21:36.614000+00:00</time>
      </trkpt>
      <trkpt lat="0" lon="0">
        <time>2020-12-06T09:21:36.627000+00:00</time>
      </trkpt>
      <trkpt lat="0" lon="0">
        <time>2020-12-06T09:21:36.628000+00:00</time>
      </trkpt>
      <trkpt lat="47.33938" lon="-1.2675">
        <ele>59</ele>
        <time>2020-12-06T09:21:37.663000+00:00</time>
      </trkpt>
      <trkpt lat="0" lon="0">
        <time>2020-12-06T09:21:37.666000+00:00</time>
      </trkpt>
      <trkpt lat="0" lon="0">
        <time>2020-12-06T09:21:37.671000+00:00</time>
      </trkpt>
      <trkpt lat="0" lon="0">
        <time>2020-12-06T09:21:37.674000+00:00</time>
      </trkpt>
      <trkpt lat="47.33938" lon="-1.26754">
        <ele>58</ele>
        <time>2020-12-06T09:21:38.635000+00:00</time>
      </trkpt>
      <trkpt lat="0" lon="0">
        <time>2020-12-06T09:21:38.639000+00:00</time>
      </trkpt>
      <trkpt lat="0" lon="0">
        <time>2020-12-06T09:21:38.642000+00:00</time>
      </trkpt>
      <trkpt lat="0" lon="0">
        <time>2020-12-06T09:21:38.647000+00:00</time>
      </trkpt>
      <trkpt lat="47.33938" lon="-1.26759">
        <ele>58</ele>
        <time>2020-12-06T09:21:39.623000+00:00</time>
      </trkpt>
      <trkpt lat="0" lon="0">
        <time>2020-12-06T09:21:39.632000+00:00</time>
      </trkpt>
      <trkpt lat="0" lon="0">
        <time>2020-12-06T09:21:39.640000+00:00</time>
      </trkpt>
      <trkpt lat="0" lon="0">
        <time>2020-12-06T09:21:39.642000+00:00</time>
      </trkpt>
      <trkpt lat="47.33939" lon="-1.26764">
        <ele>58</ele>
        <time>2020-12-06T09:21:40.607000+00:00</time>
      </trkpt>
      <trkpt lat="0" lon="0">
        <time>2020-12-06T09:21:40.611000+00:00</time>
      </trkpt>
      <trkpt lat="0" lon="0">
        <time>2020-12-06T09:21:40.621000+00:00</time>
      </trkpt>
      <trkpt lat="0" lon="0">
        <time>2020-12-06T09:21:40.626000+00:00</time>
      </trkpt>
      <trkpt lat="47.33939" lon="-1.2677">
        <ele>57</ele>
        <time>2020-12-06T09:21:41.627000+00:00</time>
      </trkpt>
      <trkpt lat="0" lon="0">
        <time>2020-12-06T09:21:41.631000+00:00</time>
      </trkpt>
      <trkpt lat="0" lon="0">
        <time>2020-12-06T09:21:41.634000+00:00</time>
      </trkpt>
      <trkpt lat="0" lon="0">
        <time>2020-12-06T09:21:41.638000+00:00</time>
      </trkpt>
      <trkpt lat="47.33939" lon="-1.26776">
        <ele>57</ele>
        <time>2020-12-06T09:21:42.608000+00:00</time>
      </trkpt>
      <trkpt lat="0" lon="0">
        <time>2020-12-06T09:21:42.624000+00:00</time>
      </trkpt>
      <trkpt lat="0" lon="0">
        <time>2020-12-06T09:21:42.627000+00:00</time>
      </trkpt>
      <trkpt lat="0" lon="0">
        <time>2020-12-06T09:21:42.629000+00:00</time>
      </trkpt>
      <trkpt lat="47.33939" lon="-1.26783">
        <ele>57</ele>
        <time>2020-12-06T09:21:43.583000+00:00</time>
      </trkpt>
      <trkpt lat="0" lon="0">
        <time>2020-12-06T09:21:43.600000+00:00</time>
      </trkpt>
      <trkpt lat="0" lon="0">
        <time>2020-12-06T09:21:43.603000+00:00</time>
      </trkpt>
      <trkpt lat="0" lon="0">
        <time>2020-12-06T09:21:43.605000+00:00</time>
      </trkpt>
      <trkpt lat="47.33939" lon="-1.26789">
        <ele>57</ele>
        <time>2020-12-06T09:21:44.594000+00:00</time>
      </trkpt>
      <trkpt lat="0" lon="0">
        <time>2020-12-06T09:21:44.600000+00:00</time>
      </trkpt>
      <trkpt lat="0" lon="0">
        <time>2020-12-06T09:21:44.603000+00:00</time>
      </trkpt>
      <trkpt lat="0" lon="0">
        <time>2020-12-06T09:21:44.604000+00:00</time>
      </trkpt>
      <trkpt lat="47.33939" lon="-1.26797">
        <ele>56</ele>
        <time>2020-12-06T09:21:45.645000+00:00</time>
      </trkpt>
      <trkpt lat="0" lon="0">
        <time>2020-12-06T09:21:45.660000+00:00</time>
      </trkpt>
      <trkpt lat="0" lon="0">
        <time>2020-12-06T09:21:45.664000+00:00</time>
      </trkpt>
      <trkpt lat="0" lon="0">
        <time>2020-12-06T09:21:45.671000+00:00</time>
      </trkpt>
      <trkpt lat="47.33938" lon="-1.26804">
        <ele>56</ele>
        <time>2020-12-06T09:21:46.609000+00:00</time>
      </trkpt>
      <trkpt lat="0" lon="0">
        <time>2020-12-06T09:21:46.627000+00:00</time>
      </trkpt>
      <trkpt lat="0" lon="0">
        <time>2020-12-06T09:21:46.637000+00:00</time>
      </trkpt>
      <trkpt lat="0" lon="0">
        <time>2020-12-06T09:21:46.639000+00:00</time>
      </trkpt>
      <trkpt lat="47.33938" lon="-1.26811">
        <ele>56</ele>
        <time>2020-12-06T09:21:47.631000+00:00</time>
      </trkpt>
      <trkpt lat="0" lon="0">
        <time>2020-12-06T09:21:47.638000+00:00</time>
      </trkpt>
      <trkpt lat="0" lon="0">
        <time>2020-12-06T09:21:47.642000+00:00</time>
      </trkpt>
      <trkpt lat="0" lon="0">
        <time>2020-12-06T09:21:47.644000+00:00</time>
      </trkpt>
      <trkpt lat="47.33937" lon="-1.26819">
        <ele>56</ele>
        <time>2020-12-06T09:21:48.613000+00:00</time>
      </trkpt>
      <trkpt lat="0" lon="0">
        <time>2020-12-06T09:21:48.629000+00:00</time>
      </trkpt>
      <trkpt lat="0" lon="0">
        <time>2020-12-06T09:21:48.632000+00:00</time>
      </trkpt>
      <trkpt lat="0" lon="0">
        <time>2020-12-06T09:21:48.634000+00:00</time>
      </trkpt>
      <trkpt lat="47.33936" lon="-1.26827">
        <ele>56</ele>
        <time>2020-12-06T09:21:49.627000+00:00</time>
      </trkpt>
      <trkpt lat="0" lon="0">
        <time>2020-12-06T09:21:49.638000+00:00</time>
      </trkpt>
      <trkpt lat="0" lon="0">
        <time>2020-12-06T09:21:49.642000+00:00</time>
      </trkpt>
      <trkpt lat="0" lon="0">
        <time>2020-12-06T09:21:49.649000+00:00</time>
      </trkpt>
      <trkpt lat="47.33936" lon="-1.26835">
        <ele>56</ele>
        <time>2020-12-06T09:21:50.632000+00:00</time>
      </trkpt>
      <trkpt lat="0" lon="0">
        <time>2020-12-06T09:21:50.644000+00:00</time>
      </trkpt>
      <trkpt lat="0" lon="0">
        <time>2020-12-06T09:21:50.649000+00:00</time>
      </trkpt>
      <trkpt lat="0" lon="0">
        <time>2020-12-06T09:21:50.656000+00:00</time>
      </trkpt>
      <trkpt lat="47.33936" lon="-1.26844">
        <ele>56</ele>
        <time>2020-12-06T09:21:51.627000+00:00</time>
      </trkpt>
      <trkpt lat="0" lon="0">
        <time>2020-12-06T09:21:51.631000+00:00</time>
      </trkpt>
      <trkpt lat="0" lon="0">
        <time>2020-12-06T09:21:51.636000+00:00</time>
      </trkpt>
      <trkpt lat="0" lon="0">
        <time>2020-12-06T09:21:51.638000+00:00</time>
      </trkpt>
      <trkpt lat="47.33935" lon="-1.26852">
        <ele>55</ele>
        <time>2020-12-06T09:21:52.636000+00:00</time>
      </trkpt>
      <trkpt lat="0" lon="0">
        <time>2020-12-06T09:21:52.647000+00:00</time>
      </trkpt>
      <trkpt lat="0" lon="0">
        <time>2020-12-06T09:21:52.650000+00:00</time>
      </trkpt>
      <trkpt lat="0" lon="0">
        <time>2020-12-06T09:21:52.653000+00:00</time>
      </trkpt>
      <trkpt lat="47.33935" lon="-1.2686">
        <ele>55</ele>
        <time>2020-12-06T09:21:53.578000+00:00</time>
      </trkpt>
      <trkpt lat="0" lon="0">
        <time>2020-12-06T09:21:53.589000+00:00</time>
      </trkpt>
      <trkpt lat="0" lon="0">
        <time>2020-12-06T09:21:53.591000+00:00</time>
      </trkpt>
      <trkpt lat="47.33935" lon="-1.26868">
        <ele>55</ele>
        <time>2020-12-06T09:21:54.583000+00:00</time>
      </trkpt>
      <trkpt lat="0" lon="0">
        <time>2020-12-06T09:21:54.585000+00:00</time>
      </trkpt>
      <trkpt lat="0" lon="0">
        <time>2020-12-06T09:21:54.594000+00:00</time>
      </trkpt>
      <trkpt lat="0" lon="0">
        <time>2020-12-06T09:21:54.598000+00:00</time>
      </trkpt>
      <trkpt lat="47.33935" lon="-1.26876">
        <ele>55</ele>
        <time>2020-12-06T09:21:55.628000+00:00</time>
      </trkpt>
      <trkpt lat="0" lon="0">
        <time>2020-12-06T09:21:55.640000+00:00</time>
      </trkpt>
      <trkpt lat="0" lon="0">
        <time>2020-12-06T09:21:55.649000+00:00</time>
      </trkpt>
      <trkpt lat="0" lon="0">
        <time>2020-12-06T09:21:55.652000+00:00</time>
      </trkpt>
      <trkpt lat="47.33934" lon="-1.26884">
        <ele>54</ele>
        <time>2020-12-06T09:21:56.615000+00:00</time>
      </trkpt>
      <trkpt lat="0" lon="0">
        <time>2020-12-06T09:21:56.633000+00:00</time>
      </trkpt>
      <trkpt lat="0" lon="0">
        <time>2020-12-06T09:21:56.637000+00:00</time>
      </trkpt>
      <trkpt lat="0" lon="0">
        <time>2020-12-06T09:21:56.639000+00:00</time>
      </trkpt>
      <trkpt lat="47.33934" lon="-1.26892">
        <ele>54</ele>
        <time>2020-12-06T09:21:57.616000+00:00</time>
      </trkpt>
      <trkpt lat="0" lon="0">
        <time>2020-12-06T09:21:57.628000+00:00</time>
      </trkpt>
      <trkpt lat="0" lon="0">
        <time>2020-12-06T09:21:57.640000+00:00</time>
      </trkpt>
      <trkpt lat="0" lon="0">
        <time>2020-12-06T09:21:57.642000+00:00</time>
      </trkpt>
      <trkpt lat="47.33935" lon="-1.26899">
        <ele>54</ele>
        <time>2020-12-06T09:21:58.625000+00:00</time>
      </trkpt>
      <trkpt lat="0" lon="0">
        <time>2020-12-06T09:21:58.638000+00:00</time>
      </trkpt>
      <trkpt lat="0" lon="0">
        <time>2020-12-06T09:21:58.648000+00:00</time>
      </trkpt>
      <trkpt lat="0" lon="0">
        <time>2020-12-06T09:21:58.650000+00:00</time>
      </trkpt>
      <trkpt lat="47.33935" lon="-1.26906">
        <ele>53</ele>
        <time>2020-12-06T09:21:59.614000+00:00</time>
      </trkpt>
      <trkpt lat="0" lon="0">
        <time>2020-12-06T09:21:59.619000+00:00</time>
      </trkpt>
      <trkpt lat="0" lon="0">
        <time>2020-12-06T09:21:59.625000+00:00</time>
      </trkpt>
      <trkpt lat="0" lon="0">
        <time>2020-12-06T09:21:59.627000+00:00</time>
      </trkpt>
      <trkpt lat="47.33935" lon="-1.26914">
        <ele>53</ele>
        <time>2020-12-06T09:22:00.653000+00:00</time>
      </trkpt>
      <trkpt lat="0" lon="0">
        <time>2020-12-06T09:22:00.664000+00:00</time>
      </trkpt>
      <trkpt lat="0" lon="0">
        <time>2020-12-06T09:22:00.674000+00:00</time>
      </trkpt>
      <trkpt lat="0" lon="0">
        <time>2020-12-06T09:22:00.676000+00:00</time>
      </trkpt>
      <trkpt lat="47.33936" lon="-1.26921">
        <ele>52</ele>
        <time>2020-12-06T09:22:01.632000+00:00</time>
      </trkpt>
      <trkpt lat="0" lon="0">
        <time>2020-12-06T09:22:01.639000+00:00</time>
      </trkpt>
      <trkpt lat="0" lon="0">
        <time>2020-12-06T09:22:01.650000+00:00</time>
      </trkpt>
      <trkpt lat="0" lon="0">
        <time>2020-12-06T09:22:01.654000+00:00</time>
      </trkpt>
      <trkpt lat="47.33936" lon="-1.26928">
        <ele>52</ele>
        <time>2020-12-06T09:22:02.631000+00:00</time>
      </trkpt>
      <trkpt lat="0" lon="0">
        <time>2020-12-06T09:22:02.649000+00:00</time>
      </trkpt>
      <trkpt lat="0" lon="0">
        <time>2020-12-06T09:22:02.653000+00:00</time>
      </trkpt>
      <trkpt lat="0" lon="0">
        <time>2020-12-06T09:22:02.656000+00:00</time>
      </trkpt>
      <trkpt lat="47.33937" lon="-1.26935">
        <ele>52</ele>
        <time>2020-12-06T09:22:03.619000+00:00</time>
      </trkpt>
      <trkpt lat="0" lon="0">
        <time>2020-12-06T09:22:03.633000+00:00</time>
      </trkpt>
      <trkpt lat="0" lon="0">
        <time>2020-12-06T09:22:03.637000+00:00</time>
      </trkpt>
      <trkpt lat="0" lon="0">
        <time>2020-12-06T09:22:03.639000+00:00</time>
      </trkpt>
      <trkpt lat="47.33938" lon="-1.26942">
        <ele>52</ele>
        <time>2020-12-06T09:22:04.567000+00:00</time>
      </trkpt>
      <trkpt lat="0" lon="0">
        <time>2020-12-06T09:22:04.573000+00:00</time>
      </trkpt>
      <trkpt lat="0" lon="0">
        <time>2020-12-06T09:22:04.575000+00:00</time>
      </trkpt>
      <trkpt lat="0" lon="0">
        <time>2020-12-06T09:22:04.577000+00:00</time>
      </trkpt>
      <trkpt lat="47.33938" lon="-1.26949">
        <ele>52</ele>
        <time>2020-12-06T09:22:05.613000+00:00</time>
      </trkpt>
      <trkpt lat="0" lon="0">
        <time>2020-12-06T09:22:05.632000+00:00</time>
      </trkpt>
      <trkpt lat="0" lon="0">
        <time>2020-12-06T09:22:05.637000+00:00</time>
      </trkpt>
      <trkpt lat="0" lon="0">
        <time>2020-12-06T09:22:05.639000+00:00</time>
      </trkpt>
      <trkpt lat="47.33939" lon="-1.26956">
        <ele>52</ele>
        <time>2020-12-06T09:22:06.630000+00:00</time>
      </trkpt>
      <trkpt lat="0" lon="0">
        <time>2020-12-06T09:22:06.648000+00:00</time>
      </trkpt>
      <trkpt lat="0" lon="0">
        <time>2020-12-06T09:22:06.652000+00:00</time>
      </trkpt>
      <trkpt lat="0" lon="0">
        <time>2020-12-06T09:22:06.655000+00:00</time>
      </trkpt>
      <trkpt lat="47.33939" lon="-1.26962">
        <ele>52</ele>
        <time>2020-12-06T09:22:07.651000+00:00</time>
      </trkpt>
      <trkpt lat="0" lon="0">
        <time>2020-12-06T09:22:07.654000+00:00</time>
      </trkpt>
      <trkpt lat="0" lon="0">
        <time>2020-12-06T09:22:07.658000+00:00</time>
      </trkpt>
      <trkpt lat="0" lon="0">
        <time>2020-12-06T09:22:07.662000+00:00</time>
      </trkpt>
      <trkpt lat="47.33938" lon="-1.26969">
        <ele>52</ele>
        <time>2020-12-06T09:22:08.643000+00:00</time>
      </trkpt>
      <trkpt lat="0" lon="0">
        <time>2020-12-06T09:22:08.647000+00:00</time>
      </trkpt>
      <trkpt lat="0" lon="0">
        <time>2020-12-06T09:22:08.654000+00:00</time>
      </trkpt>
      <trkpt lat="0" lon="0">
        <time>2020-12-06T09:22:08.658000+00:00</time>
      </trkpt>
      <trkpt lat="47.33938" lon="-1.26975">
        <ele>52</ele>
        <time>2020-12-06T09:22:09.603000+00:00</time>
      </trkpt>
      <trkpt lat="0" lon="0">
        <time>2020-12-06T09:22:09.611000+00:00</time>
      </trkpt>
      <trkpt lat="0" lon="0">
        <time>2020-12-06T09:22:09.614000+00:00</time>
      </trkpt>
      <trkpt lat="0" lon="0">
        <time>2020-12-06T09:22:09.615000+00:00</time>
      </trkpt>
      <trkpt lat="47.33937" lon="-1.26981">
        <ele>52</ele>
        <time>2020-12-06T09:22:10.629000+00:00</time>
      </trkpt>
      <trkpt lat="0" lon="0">
        <time>2020-12-06T09:22:10.644000+00:00</time>
      </trkpt>
      <trkpt lat="0" lon="0">
        <time>2020-12-06T09:22:10.648000+00:00</time>
      </trkpt>
      <trkpt lat="0" lon="0">
        <time>2020-12-06T09:22:10.650000+00:00</time>
      </trkpt>
      <trkpt lat="47.33936" lon="-1.26988">
        <ele>53</ele>
        <time>2020-12-06T09:22:11.629000+00:00</time>
      </trkpt>
      <trkpt lat="0" lon="0">
        <time>2020-12-06T09:22:11.640000+00:00</time>
      </trkpt>
      <trkpt lat="0" lon="0">
        <time>2020-12-06T09:22:11.644000+00:00</time>
      </trkpt>
      <trkpt lat="0" lon="0">
        <time>2020-12-06T09:22:11.645000+00:00</time>
      </trkpt>
      <trkpt lat="47.33934" lon="-1.26994">
        <ele>53</ele>
        <time>2020-12-06T09:22:12.628000+00:00</time>
      </trkpt>
      <trkpt lat="0" lon="0">
        <time>2020-12-06T09:22:12.642000+00:00</time>
      </trkpt>
      <trkpt lat="0" lon="0">
        <time>2020-12-06T09:22:12.651000+00:00</time>
      </trkpt>
      <trkpt lat="0" lon="0">
        <time>2020-12-06T09:22:12.657000+00:00</time>
      </trkpt>
      <trkpt lat="47.33933" lon="-1.27001">
        <ele>54</ele>
        <time>2020-12-06T09:22:13.627000+00:00</time>
      </trkpt>
      <trkpt lat="0" lon="0">
        <time>2020-12-06T09:22:13.634000+00:00</time>
      </trkpt>
      <trkpt lat="0" lon="0">
        <time>2020-12-06T09:22:13.646000+00:00</time>
      </trkpt>
      <trkpt lat="0" lon="0">
        <time>2020-12-06T09:22:13.648000+00:00</time>
      </trkpt>
      <trkpt lat="47.33932" lon="-1.27008">
        <ele>54</ele>
        <time>2020-12-06T09:22:14.641000+00:00</time>
      </trkpt>
      <trkpt lat="0" lon="0">
        <time>2020-12-06T09:22:14.655000+00:00</time>
      </trkpt>
      <trkpt lat="0" lon="0">
        <time>2020-12-06T09:22:14.661000+00:00</time>
      </trkpt>
      <trkpt lat="0" lon="0">
        <time>2020-12-06T09:22:14.663000+00:00</time>
      </trkpt>
      <trkpt lat="47.3393" lon="-1.27014">
        <ele>55</ele>
        <time>2020-12-06T09:22:15.603000+00:00</time>
      </trkpt>
      <trkpt lat="0" lon="0">
        <time>2020-12-06T09:22:15.611000+00:00</time>
      </trkpt>
      <trkpt lat="0" lon="0">
        <time>2020-12-06T09:22:15.618000+00:00</time>
      </trkpt>
      <trkpt lat="0" lon="0">
        <time>2020-12-06T09:22:15.620000+00:00</time>
      </trkpt>
      <trkpt lat="47.3393" lon="-1.27021">
        <ele>56</ele>
        <time>2020-12-06T09:22:16.618000+00:00</time>
      </trkpt>
      <trkpt lat="0" lon="0">
        <time>2020-12-06T09:22:16.624000+00:00</time>
      </trkpt>
      <trkpt lat="0" lon="0">
        <time>2020-12-06T09:22:16.628000+00:00</time>
      </trkpt>
      <trkpt lat="0" lon="0">
        <time>2020-12-06T09:22:16.633000+00:00</time>
      </trkpt>
      <trkpt lat="47.33929" lon="-1.27028">
        <ele>57</ele>
        <time>2020-12-06T09:22:17.612000+00:00</time>
      </trkpt>
      <trkpt lat="0" lon="0">
        <time>2020-12-06T09:22:17.616000+00:00</time>
      </trkpt>
      <trkpt lat="0" lon="0">
        <time>2020-12-06T09:22:17.620000+00:00</time>
      </trkpt>
      <trkpt lat="0" lon="0">
        <time>2020-12-06T09:22:17.624000+00:00</time>
      </trkpt>
      <trkpt lat="47.33928" lon="-1.27036">
        <ele>58</ele>
        <time>2020-12-06T09:22:18.633000+00:00</time>
      </trkpt>
      <trkpt lat="0" lon="0">
        <time>2020-12-06T09:22:18.650000+00:00</time>
      </trkpt>
      <trkpt lat="0" lon="0">
        <time>2020-12-06T09:22:18.652000+00:00</time>
      </trkpt>
      <trkpt lat="0" lon="0">
        <time>2020-12-06T09:22:18.653000+00:00</time>
      </trkpt>
      <trkpt lat="47.33929" lon="-1.27043">
        <ele>58</ele>
        <time>2020-12-06T09:22:19.619000+00:00</time>
      </trkpt>
      <trkpt lat="0" lon="0">
        <time>2020-12-06T09:22:19.631000+00:00</time>
      </trkpt>
      <trkpt lat="0" lon="0">
        <time>2020-12-06T09:22:19.635000+00:00</time>
      </trkpt>
      <trkpt lat="0" lon="0">
        <time>2020-12-06T09:22:19.642000+00:00</time>
      </trkpt>
      <trkpt lat="47.33929" lon="-1.2705">
        <ele>59</ele>
        <time>2020-12-06T09:22:20.589000+00:00</time>
      </trkpt>
      <trkpt lat="0" lon="0">
        <time>2020-12-06T09:22:20.591000+00:00</time>
      </trkpt>
      <trkpt lat="0" lon="0">
        <time>2020-12-06T09:22:20.594000+00:00</time>
      </trkpt>
      <trkpt lat="0" lon="0">
        <time>2020-12-06T09:22:20.596000+00:00</time>
      </trkpt>
      <trkpt lat="47.33929" lon="-1.27057">
        <ele>59</ele>
        <time>2020-12-06T09:22:21.604000+00:00</time>
      </trkpt>
      <trkpt lat="0" lon="0">
        <time>2020-12-06T09:22:21.615000+00:00</time>
      </trkpt>
      <trkpt lat="0" lon="0">
        <time>2020-12-06T09:22:21.620000+00:00</time>
      </trkpt>
      <trkpt lat="0" lon="0">
        <time>2020-12-06T09:22:21.622000+00:00</time>
      </trkpt>
      <trkpt lat="47.33929" lon="-1.27064">
        <ele>60</ele>
        <time>2020-12-06T09:22:22.619000+00:00</time>
      </trkpt>
      <trkpt lat="0" lon="0">
        <time>2020-12-06T09:22:22.626000+00:00</time>
      </trkpt>
      <trkpt lat="0" lon="0">
        <time>2020-12-06T09:22:22.630000+00:00</time>
      </trkpt>
      <trkpt lat="0" lon="0">
        <time>2020-12-06T09:22:22.632000+00:00</time>
      </trkpt>
      <trkpt lat="47.33929" lon="-1.27071">
        <ele>60</ele>
        <time>2020-12-06T09:22:23.599000+00:00</time>
      </trkpt>
      <trkpt lat="0" lon="0">
        <time>2020-12-06T09:22:23.602000+00:00</time>
      </trkpt>
      <trkpt lat="0" lon="0">
        <time>2020-12-06T09:22:23.605000+00:00</time>
      </trkpt>
      <trkpt lat="0" lon="0">
        <time>2020-12-06T09:22:23.614000+00:00</time>
      </trkpt>
      <trkpt lat="47.33929" lon="-1.27078">
        <ele>61</ele>
        <time>2020-12-06T09:22:24.614000+00:00</time>
      </trkpt>
      <trkpt lat="0" lon="0">
        <time>2020-12-06T09:22:24.618000+00:00</time>
      </trkpt>
      <trkpt lat="0" lon="0">
        <time>2020-12-06T09:22:24.627000+00:00</time>
      </trkpt>
      <trkpt lat="0" lon="0">
        <time>2020-12-06T09:22:24.629000+00:00</time>
      </trkpt>
      <trkpt lat="47.3393" lon="-1.27086">
        <ele>61</ele>
        <time>2020-12-06T09:22:25.595000+00:00</time>
      </trkpt>
      <trkpt lat="0" lon="0">
        <time>2020-12-06T09:22:25.608000+00:00</time>
      </trkpt>
      <trkpt lat="0" lon="0">
        <time>2020-12-06T09:22:25.611000+00:00</time>
      </trkpt>
      <trkpt lat="0" lon="0">
        <time>2020-12-06T09:22:25.612000+00:00</time>
      </trkpt>
      <trkpt lat="47.3393" lon="-1.27093">
        <ele>61</ele>
        <time>2020-12-06T09:22:26.574000+00:00</time>
      </trkpt>
      <trkpt lat="0" lon="0">
        <time>2020-12-06T09:22:26.586000+00:00</time>
      </trkpt>
      <trkpt lat="0" lon="0">
        <time>2020-12-06T09:22:26.590000+00:00</time>
      </trkpt>
      <trkpt lat="0" lon="0">
        <time>2020-12-06T09:22:26.592000+00:00</time>
      </trkpt>
      <trkpt lat="47.3393" lon="-1.27101">
        <ele>61</ele>
        <time>2020-12-06T09:22:27.617000+00:00</time>
      </trkpt>
      <trkpt lat="0" lon="0">
        <time>2020-12-06T09:22:27.622000+00:00</time>
      </trkpt>
      <trkpt lat="0" lon="0">
        <time>2020-12-06T09:22:27.626000+00:00</time>
      </trkpt>
      <trkpt lat="0" lon="0">
        <time>2020-12-06T09:22:27.627000+00:00</time>
      </trkpt>
      <trkpt lat="47.33929" lon="-1.27108">
        <ele>61</ele>
        <time>2020-12-06T09:22:28.623000+00:00</time>
      </trkpt>
      <trkpt lat="0" lon="0">
        <time>2020-12-06T09:22:28.640000+00:00</time>
      </trkpt>
      <trkpt lat="0" lon="0">
        <time>2020-12-06T09:22:28.646000+00:00</time>
      </trkpt>
      <trkpt lat="0" lon="0">
        <time>2020-12-06T09:22:28.653000+00:00</time>
      </trkpt>
      <trkpt lat="47.33929" lon="-1.27115">
        <ele>62</ele>
        <time>2020-12-06T09:22:29.651000+00:00</time>
      </trkpt>
      <trkpt lat="0" lon="0">
        <time>2020-12-06T09:22:29.660000+00:00</time>
      </trkpt>
      <trkpt lat="0" lon="0">
        <time>2020-12-06T09:22:29.664000+00:00</time>
      </trkpt>
      <trkpt lat="0" lon="0">
        <time>2020-12-06T09:22:29.669000+00:00</time>
      </trkpt>
      <trkpt lat="47.33928" lon="-1.27122">
        <ele>62</ele>
        <time>2020-12-06T09:22:30.634000+00:00</time>
      </trkpt>
      <trkpt lat="0" lon="0">
        <time>2020-12-06T09:22:30.637000+00:00</time>
      </trkpt>
      <trkpt lat="0" lon="0">
        <time>2020-12-06T09:22:30.646000+00:00</time>
      </trkpt>
      <trkpt lat="0" lon="0">
        <time>2020-12-06T09:22:30.648000+00:00</time>
      </trkpt>
      <trkpt lat="47.33928" lon="-1.27129">
        <ele>62</ele>
        <time>2020-12-06T09:22:31.610000+00:00</time>
      </trkpt>
      <trkpt lat="0" lon="0">
        <time>2020-12-06T09:22:31.613000+00:00</time>
      </trkpt>
      <trkpt lat="0" lon="0">
        <time>2020-12-06T09:22:31.617000+00:00</time>
      </trkpt>
      <trkpt lat="0" lon="0">
        <time>2020-12-06T09:22:31.618000+00:00</time>
      </trkpt>
      <trkpt lat="47.33927" lon="-1.27136">
        <ele>63</ele>
        <time>2020-12-06T09:22:32.592000+00:00</time>
      </trkpt>
      <trkpt lat="0" lon="0">
        <time>2020-12-06T09:22:32.594000+00:00</time>
      </trkpt>
      <trkpt lat="0" lon="0">
        <time>2020-12-06T09:22:32.598000+00:00</time>
      </trkpt>
      <trkpt lat="0" lon="0">
        <time>2020-12-06T09:22:32.599000+00:00</time>
      </trkpt>
      <trkpt lat="47.33926" lon="-1.27142">
        <ele>63</ele>
        <time>2020-12-06T09:22:33.598000+00:00</time>
      </trkpt>
      <trkpt lat="0" lon="0">
        <time>2020-12-06T09:22:33.605000+00:00</time>
      </trkpt>
      <trkpt lat="0" lon="0">
        <time>2020-12-06T09:22:33.610000+00:00</time>
      </trkpt>
      <trkpt lat="0" lon="0">
        <time>2020-12-06T09:22:33.612000+00:00</time>
      </trkpt>
      <trkpt lat="47.33926" lon="-1.27148">
        <ele>64</ele>
        <time>2020-12-06T09:22:34.606000+00:00</time>
      </trkpt>
      <trkpt lat="0" lon="0">
        <time>2020-12-06T09:22:34.608000+00:00</time>
      </trkpt>
      <trkpt lat="0" lon="0">
        <time>2020-12-06T09:22:34.610000+00:00</time>
      </trkpt>
      <trkpt lat="0" lon="0">
        <time>2020-12-06T09:22:34.611000+00:00</time>
      </trkpt>
      <trkpt lat="47.33925" lon="-1.27154">
        <ele>64</ele>
        <time>2020-12-06T09:22:35.614000+00:00</time>
      </trkpt>
      <trkpt lat="0" lon="0">
        <time>2020-12-06T09:22:35.616000+00:00</time>
      </trkpt>
      <trkpt lat="0" lon="0">
        <time>2020-12-06T09:22:35.627000+00:00</time>
      </trkpt>
      <trkpt lat="0" lon="0">
        <time>2020-12-06T09:22:35.628000+00:00</time>
      </trkpt>
      <trkpt lat="47.33925" lon="-1.27159">
        <ele>64</ele>
        <time>2020-12-06T09:22:36.615000+00:00</time>
      </trkpt>
      <trkpt lat="0" lon="0">
        <time>2020-12-06T09:22:36.633000+00:00</time>
      </trkpt>
      <trkpt lat="0" lon="0">
        <time>2020-12-06T09:22:36.636000+00:00</time>
      </trkpt>
      <trkpt lat="0" lon="0">
        <time>2020-12-06T09:22:36.638000+00:00</time>
      </trkpt>
      <trkpt lat="47.33924" lon="-1.27164">
        <ele>65</ele>
        <time>2020-12-06T09:22:37.585000+00:00</time>
      </trkpt>
      <trkpt lat="0" lon="0">
        <time>2020-12-06T09:22:37.608000+00:00</time>
      </trkpt>
      <trkpt lat="0" lon="0">
        <time>2020-12-06T09:22:37.614000+00:00</time>
      </trkpt>
      <trkpt lat="0" lon="0">
        <time>2020-12-06T09:22:37.616000+00:00</time>
      </trkpt>
      <trkpt lat="47.33923" lon="-1.27168">
        <ele>65</ele>
        <time>2020-12-06T09:22:38.607000+00:00</time>
      </trkpt>
      <trkpt lat="0" lon="0">
        <time>2020-12-06T09:22:38.620000+00:00</time>
      </trkpt>
      <trkpt lat="0" lon="0">
        <time>2020-12-06T09:22:38.623000+00:00</time>
      </trkpt>
      <trkpt lat="0" lon="0">
        <time>2020-12-06T09:22:38.625000+00:00</time>
      </trkpt>
      <trkpt lat="47.33923" lon="-1.27172">
        <ele>65</ele>
        <time>2020-12-06T09:22:39.616000+00:00</time>
      </trkpt>
      <trkpt lat="0" lon="0">
        <time>2020-12-06T09:22:39.627000+00:00</time>
      </trkpt>
      <trkpt lat="0" lon="0">
        <time>2020-12-06T09:22:39.631000+00:00</time>
      </trkpt>
      <trkpt lat="0" lon="0">
        <time>2020-12-06T09:22:39.634000+00:00</time>
      </trkpt>
      <trkpt lat="47.33923" lon="-1.27175">
        <ele>65</ele>
        <time>2020-12-06T09:22:40.597000+00:00</time>
      </trkpt>
      <trkpt lat="0" lon="0">
        <time>2020-12-06T09:22:40.605000+00:00</time>
      </trkpt>
      <trkpt lat="0" lon="0">
        <time>2020-12-06T09:22:40.609000+00:00</time>
      </trkpt>
      <trkpt lat="0" lon="0">
        <time>2020-12-06T09:22:40.611000+00:00</time>
      </trkpt>
      <trkpt lat="47.33922" lon="-1.27177">
        <ele>65</ele>
        <time>2020-12-06T09:22:41.607000+00:00</time>
      </trkpt>
      <trkpt lat="0" lon="0">
        <time>2020-12-06T09:22:41.625000+00:00</time>
      </trkpt>
      <trkpt lat="0" lon="0">
        <time>2020-12-06T09:22:41.631000+00:00</time>
      </trkpt>
      <trkpt lat="0" lon="0">
        <time>2020-12-06T09:22:41.634000+00:00</time>
      </trkpt>
      <trkpt lat="47.33922" lon="-1.27178">
        <ele>65</ele>
        <time>2020-12-06T09:22:42.599000+00:00</time>
      </trkpt>
      <trkpt lat="0" lon="0">
        <time>2020-12-06T09:22:42.606000+00:00</time>
      </trkpt>
      <trkpt lat="0" lon="0">
        <time>2020-12-06T09:22:42.612000+00:00</time>
      </trkpt>
      <trkpt lat="0" lon="0">
        <time>2020-12-06T09:22:42.614000+00:00</time>
      </trkpt>
      <trkpt lat="47.33922" lon="-1.27179">
        <ele>65</ele>
        <time>2020-12-06T09:22:43.608000+00:00</time>
      </trkpt>
      <trkpt lat="0" lon="0">
        <time>2020-12-06T09:22:43.620000+00:00</time>
      </trkpt>
      <trkpt lat="0" lon="0">
        <time>2020-12-06T09:22:43.626000+00:00</time>
      </trkpt>
      <trkpt lat="0" lon="0">
        <time>2020-12-06T09:22:43.628000+00:00</time>
      </trkpt>
      <trkpt lat="47.33922" lon="-1.2718">
        <ele>65</ele>
        <time>2020-12-06T09:22:44.553000+00:00</time>
      </trkpt>
      <trkpt lat="0" lon="0">
        <time>2020-12-06T09:22:44.559000+00:00</time>
      </trkpt>
      <trkpt lat="0" lon="0">
        <time>2020-12-06T09:22:44.560000+00:00</time>
      </trkpt>
      <trkpt lat="0" lon="0">
        <time>2020-12-06T09:22:44.561000+00:00</time>
      </trkpt>
      <trkpt lat="47.33922" lon="-1.2718">
        <ele>65</ele>
        <time>2020-12-06T09:22:45.598000+00:00</time>
      </trkpt>
      <trkpt lat="0" lon="0">
        <time>2020-12-06T09:22:45.606000+00:00</time>
      </trkpt>
      <trkpt lat="0" lon="0">
        <time>2020-12-06T09:22:45.613000+00:00</time>
      </trkpt>
      <trkpt lat="0" lon="0">
        <time>2020-12-06T09:22:45.621000+00:00</time>
      </trkpt>
      <trkpt lat="47.33922" lon="-1.2718">
        <ele>65</ele>
        <time>2020-12-06T09:22:46.618000+00:00</time>
      </trkpt>
      <trkpt lat="0" lon="0">
        <time>2020-12-06T09:22:46.622000+00:00</time>
      </trkpt>
      <trkpt lat="0" lon="0">
        <time>2020-12-06T09:22:46.629000+00:00</time>
      </trkpt>
      <trkpt lat="0" lon="0">
        <time>2020-12-06T09:22:46.631000+00:00</time>
      </trkpt>
      <trkpt lat="47.33922" lon="-1.27179">
        <ele>65</ele>
        <time>2020-12-06T09:22:47.619000+00:00</time>
      </trkpt>
      <trkpt lat="0" lon="0">
        <time>2020-12-06T09:22:47.627000+00:00</time>
      </trkpt>
      <trkpt lat="0" lon="0">
        <time>2020-12-06T09:22:47.638000+00:00</time>
      </trkpt>
      <trkpt lat="0" lon="0">
        <time>2020-12-06T09:22:47.646000+00:00</time>
      </trkpt>
      <trkpt lat="47.33922" lon="-1.27179">
        <ele>65</ele>
        <time>2020-12-06T09:22:48.618000+00:00</time>
      </trkpt>
      <trkpt lat="0" lon="0">
        <time>2020-12-06T09:22:48.626000+00:00</time>
      </trkpt>
      <trkpt lat="0" lon="0">
        <time>2020-12-06T09:22:48.631000+00:00</time>
      </trkpt>
      <trkpt lat="0" lon="0">
        <time>2020-12-06T09:22:48.633000+00:00</time>
      </trkpt>
      <trkpt lat="47.33922" lon="-1.27178">
        <ele>65</ele>
        <time>2020-12-06T09:22:49.619000+00:00</time>
      </trkpt>
      <trkpt lat="0" lon="0">
        <time>2020-12-06T09:22:49.623000+00:00</time>
      </trkpt>
      <trkpt lat="0" lon="0">
        <time>2020-12-06T09:22:49.638000+00:00</time>
      </trkpt>
      <trkpt lat="0" lon="0">
        <time>2020-12-06T09:22:49.642000+00:00</time>
      </trkpt>
      <trkpt lat="47.33922" lon="-1.27178">
        <ele>65</ele>
        <time>2020-12-06T09:22:50.619000+00:00</time>
      </trkpt>
      <trkpt lat="0" lon="0">
        <time>2020-12-06T09:22:50.640000+00:00</time>
      </trkpt>
      <trkpt lat="0" lon="0">
        <time>2020-12-06T09:22:50.643000+00:00</time>
      </trkpt>
      <trkpt lat="0" lon="0">
        <time>2020-12-06T09:22:50.645000+00:00</time>
      </trkpt>
      <trkpt lat="47.33922" lon="-1.27178">
        <ele>65</ele>
        <time>2020-12-06T09:22:51.619000+00:00</time>
      </trkpt>
      <trkpt lat="0" lon="0">
        <time>2020-12-06T09:22:51.629000+00:00</time>
      </trkpt>
      <trkpt lat="0" lon="0">
        <time>2020-12-06T09:22:51.633000+00:00</time>
      </trkpt>
      <trkpt lat="0" lon="0">
        <time>2020-12-06T09:22:51.635000+00:00</time>
      </trkpt>
      <trkpt lat="47.33922" lon="-1.27178">
        <ele>65</ele>
        <time>2020-12-06T09:22:52.616000+00:00</time>
      </trkpt>
      <trkpt lat="0" lon="0">
        <time>2020-12-06T09:22:52.637000+00:00</time>
      </trkpt>
      <trkpt lat="0" lon="0">
        <time>2020-12-06T09:22:52.642000+00:00</time>
      </trkpt>
      <trkpt lat="0" lon="0">
        <time>2020-12-06T09:22:52.645000+00:00</time>
      </trkpt>
      <trkpt lat="47.33922" lon="-1.27179">
        <ele>65</ele>
        <time>2020-12-06T09:22:53.592000+00:00</time>
      </trkpt>
      <trkpt lat="0" lon="0">
        <time>2020-12-06T09:22:53.607000+00:00</time>
      </trkpt>
      <trkpt lat="0" lon="0">
        <time>2020-12-06T09:22:53.612000+00:00</time>
      </trkpt>
      <trkpt lat="0" lon="0">
        <time>2020-12-06T09:22:53.621000+00:00</time>
      </trkpt>
      <trkpt lat="47.33926" lon="-1.27285">
        <ele>60</ele>
        <time>2020-12-06T09:22:54.611000+00:00</time>
      </trkpt>
      <trkpt lat="0" lon="0">
        <time>2020-12-06T09:22:54.612000+00:00</time>
      </trkpt>
      <trkpt lat="0" lon="0">
        <time>2020-12-06T09:22:54.614000+00:00</time>
      </trkpt>
      <trkpt lat="47.33926" lon="-1.27288">
        <ele>59</ele>
        <time>2020-12-06T09:22:55.623000+00:00</time>
      </trkpt>
      <trkpt lat="0" lon="0">
        <time>2020-12-06T09:22:55.636000+00:00</time>
      </trkpt>
      <trkpt lat="0" lon="0">
        <time>2020-12-06T09:22:55.642000+00:00</time>
      </trkpt>
      <trkpt lat="0" lon="0">
        <time>2020-12-06T09:22:55.643000+00:00</time>
      </trkpt>
      <trkpt lat="47.33926" lon="-1.27291">
        <ele>59</ele>
        <time>2020-12-06T09:22:56.635000+00:00</time>
      </trkpt>
      <trkpt lat="0" lon="0">
        <time>2020-12-06T09:22:56.642000+00:00</time>
      </trkpt>
      <trkpt lat="0" lon="0">
        <time>2020-12-06T09:22:56.647000+00:00</time>
      </trkpt>
      <trkpt lat="0" lon="0">
        <time>2020-12-06T09:22:56.651000+00:00</time>
      </trkpt>
      <trkpt lat="47.33927" lon="-1.27295">
        <ele>59</ele>
        <time>2020-12-06T09:22:57.626000+00:00</time>
      </trkpt>
      <trkpt lat="0" lon="0">
        <time>2020-12-06T09:22:57.634000+00:00</time>
      </trkpt>
      <trkpt lat="0" lon="0">
        <time>2020-12-06T09:22:57.638000+00:00</time>
      </trkpt>
      <trkpt lat="0" lon="0">
        <time>2020-12-06T09:22:57.645000+00:00</time>
      </trkpt>
      <trkpt lat="47.33927" lon="-1.27299">
        <ele>58</ele>
        <time>2020-12-06T09:22:58.651000+00:00</time>
      </trkpt>
      <trkpt lat="0" lon="0">
        <time>2020-12-06T09:22:58.667000+00:00</time>
      </trkpt>
      <trkpt lat="0" lon="0">
        <time>2020-12-06T09:22:58.678000+00:00</time>
      </trkpt>
      <trkpt lat="0" lon="0">
        <time>2020-12-06T09:22:58.684000+00:00</time>
      </trkpt>
      <trkpt lat="47.33927" lon="-1.27303">
        <ele>58</ele>
        <time>2020-12-06T09:22:59.628000+00:00</time>
      </trkpt>
      <trkpt lat="0" lon="0">
        <time>2020-12-06T09:22:59.640000+00:00</time>
      </trkpt>
      <trkpt lat="0" lon="0">
        <time>2020-12-06T09:22:59.644000+00:00</time>
      </trkpt>
      <trkpt lat="0" lon="0">
        <time>2020-12-06T09:22:59.647000+00:00</time>
      </trkpt>
      <trkpt lat="47.33927" lon="-1.27306">
        <ele>58</ele>
        <time>2020-12-06T09:23:00.643000+00:00</time>
      </trkpt>
      <trkpt lat="0" lon="0">
        <time>2020-12-06T09:23:00.656000+00:00</time>
      </trkpt>
      <trkpt lat="0" lon="0">
        <time>2020-12-06T09:23:00.662000+00:00</time>
      </trkpt>
      <trkpt lat="0" lon="0">
        <time>2020-12-06T09:23:00.667000+00:00</time>
      </trkpt>
      <trkpt lat="47.33926" lon="-1.2731">
        <ele>58</ele>
        <time>2020-12-06T09:23:01.628000+00:00</time>
      </trkpt>
      <trkpt lat="0" lon="0">
        <time>2020-12-06T09:23:01.633000+00:00</time>
      </trkpt>
      <trkpt lat="0" lon="0">
        <time>2020-12-06T09:23:01.636000+00:00</time>
      </trkpt>
      <trkpt lat="0" lon="0">
        <time>2020-12-06T09:23:01.638000+00:00</time>
      </trkpt>
      <trkpt lat="47.33926" lon="-1.27313">
        <ele>58</ele>
        <time>2020-12-06T09:23:02.652000+00:00</time>
      </trkpt>
      <trkpt lat="0" lon="0">
        <time>2020-12-06T09:23:02.666000+00:00</time>
      </trkpt>
      <trkpt lat="0" lon="0">
        <time>2020-12-06T09:23:02.676000+00:00</time>
      </trkpt>
      <trkpt lat="0" lon="0">
        <time>2020-12-06T09:23:02.678000+00:00</time>
      </trkpt>
      <trkpt lat="47.33926" lon="-1.27317">
        <ele>57</ele>
        <time>2020-12-06T09:23:03.656000+00:00</time>
      </trkpt>
      <trkpt lat="0" lon="0">
        <time>2020-12-06T09:23:03.667000+00:00</time>
      </trkpt>
      <trkpt lat="0" lon="0">
        <time>2020-12-06T09:23:03.671000+00:00</time>
      </trkpt>
      <trkpt lat="0" lon="0">
        <time>2020-12-06T09:23:03.673000+00:00</time>
      </trkpt>
      <trkpt lat="47.33927" lon="-1.27321">
        <ele>57</ele>
        <time>2020-12-06T09:23:04.632000+00:00</time>
      </trkpt>
      <trkpt lat="0" lon="0">
        <time>2020-12-06T09:23:04.635000+00:00</time>
      </trkpt>
      <trkpt lat="0" lon="0">
        <time>2020-12-06T09:23:04.638000+00:00</time>
      </trkpt>
      <trkpt lat="0" lon="0">
        <time>2020-12-06T09:23:04.640000+00:00</time>
      </trkpt>
      <trkpt lat="47.33928" lon="-1.27326">
        <ele>56</ele>
        <time>2020-12-06T09:23:05.620000+00:00</time>
      </trkpt>
      <trkpt lat="0" lon="0">
        <time>2020-12-06T09:23:05.625000+00:00</time>
      </trkpt>
      <trkpt lat="0" lon="0">
        <time>2020-12-06T09:23:05.631000+00:00</time>
      </trkpt>
      <trkpt lat="0" lon="0">
        <time>2020-12-06T09:23:05.636000+00:00</time>
      </trkpt>
      <trkpt lat="47.3393" lon="-1.27331">
        <ele>55</ele>
        <time>2020-12-06T09:23:06.646000+00:00</time>
      </trkpt>
      <trkpt lat="0" lon="0">
        <time>2020-12-06T09:23:06.649000+00:00</time>
      </trkpt>
      <trkpt lat="0" lon="0">
        <time>2020-12-06T09:23:06.653000+00:00</time>
      </trkpt>
      <trkpt lat="0" lon="0">
        <time>2020-12-06T09:23:06.656000+00:00</time>
      </trkpt>
      <trkpt lat="47.33931" lon="-1.27336">
        <ele>54</ele>
        <time>2020-12-06T09:23:07.641000+00:00</time>
      </trkpt>
      <trkpt lat="0" lon="0">
        <time>2020-12-06T09:23:07.648000+00:00</time>
      </trkpt>
      <trkpt lat="0" lon="0">
        <time>2020-12-06T09:23:07.659000+00:00</time>
      </trkpt>
      <trkpt lat="0" lon="0">
        <time>2020-12-06T09:23:07.662000+00:00</time>
      </trkpt>
      <trkpt lat="47.33932" lon="-1.27341">
        <ele>53</ele>
        <time>2020-12-06T09:23:08.641000+00:00</time>
      </trkpt>
      <trkpt lat="0" lon="0">
        <time>2020-12-06T09:23:08.653000+00:00</time>
      </trkpt>
      <trkpt lat="0" lon="0">
        <time>2020-12-06T09:23:08.656000+00:00</time>
      </trkpt>
      <trkpt lat="0" lon="0">
        <time>2020-12-06T09:23:08.658000+00:00</time>
      </trkpt>
      <trkpt lat="47.33933" lon="-1.27347">
        <ele>52</ele>
        <time>2020-12-06T09:23:09.627000+00:00</time>
      </trkpt>
      <trkpt lat="0" lon="0">
        <time>2020-12-06T09:23:09.641000+00:00</time>
      </trkpt>
      <trkpt lat="0" lon="0">
        <time>2020-12-06T09:23:09.649000+00:00</time>
      </trkpt>
      <trkpt lat="0" lon="0">
        <time>2020-12-06T09:23:09.654000+00:00</time>
      </trkpt>
      <trkpt lat="47.33934" lon="-1.27353">
        <ele>51</ele>
        <time>2020-12-06T09:23:10.637000+00:00</time>
      </trkpt>
      <trkpt lat="0" lon="0">
        <time>2020-12-06T09:23:10.643000+00:00</time>
      </trkpt>
      <trkpt lat="0" lon="0">
        <time>2020-12-06T09:23:10.651000+00:00</time>
      </trkpt>
      <trkpt lat="0" lon="0">
        <time>2020-12-06T09:23:10.653000+00:00</time>
      </trkpt>
      <trkpt lat="47.33934" lon="-1.27359">
        <ele>50</ele>
        <time>2020-12-06T09:23:11.644000+00:00</time>
      </trkpt>
      <trkpt lat="0" lon="0">
        <time>2020-12-06T09:23:11.662000+00:00</time>
      </trkpt>
      <trkpt lat="0" lon="0">
        <time>2020-12-06T09:23:11.667000+00:00</time>
      </trkpt>
      <trkpt lat="0" lon="0">
        <time>2020-12-06T09:23:11.669000+00:00</time>
      </trkpt>
      <trkpt lat="47.33933" lon="-1.27365">
        <ele>50</ele>
        <time>2020-12-06T09:23:12.656000+00:00</time>
      </trkpt>
      <trkpt lat="0" lon="0">
        <time>2020-12-06T09:23:12.660000+00:00</time>
      </trkpt>
      <trkpt lat="0" lon="0">
        <time>2020-12-06T09:23:12.664000+00:00</time>
      </trkpt>
      <trkpt lat="0" lon="0">
        <time>2020-12-06T09:23:12.670000+00:00</time>
      </trkpt>
      <trkpt lat="47.33932" lon="-1.27371">
        <ele>50</ele>
        <time>2020-12-06T09:23:13.649000+00:00</time>
      </trkpt>
      <trkpt lat="0" lon="0">
        <time>2020-12-06T09:23:13.660000+00:00</time>
      </trkpt>
      <trkpt lat="0" lon="0">
        <time>2020-12-06T09:23:13.665000+00:00</time>
      </trkpt>
      <trkpt lat="0" lon="0">
        <time>2020-12-06T09:23:13.669000+00:00</time>
      </trkpt>
      <trkpt lat="47.33932" lon="-1.27377">
        <ele>49</ele>
        <time>2020-12-06T09:23:14.650000+00:00</time>
      </trkpt>
      <trkpt lat="0" lon="0">
        <time>2020-12-06T09:23:14.655000+00:00</time>
      </trkpt>
      <trkpt lat="0" lon="0">
        <time>2020-12-06T09:23:14.665000+00:00</time>
      </trkpt>
      <trkpt lat="0" lon="0">
        <time>2020-12-06T09:23:14.669000+00:00</time>
      </trkpt>
      <trkpt lat="47.3393" lon="-1.27383">
        <ele>49</ele>
        <time>2020-12-06T09:23:15.663000+00:00</time>
      </trkpt>
      <trkpt lat="0" lon="0">
        <time>2020-12-06T09:23:15.687000+00:00</time>
      </trkpt>
      <trkpt lat="0" lon="0">
        <time>2020-12-06T09:23:15.690000+00:00</time>
      </trkpt>
      <trkpt lat="0" lon="0">
        <time>2020-12-06T09:23:15.692000+00:00</time>
      </trkpt>
      <trkpt lat="47.33929" lon="-1.27389">
        <ele>49</ele>
        <time>2020-12-06T09:23:16.635000+00:00</time>
      </trkpt>
      <trkpt lat="0" lon="0">
        <time>2020-12-06T09:23:16.653000+00:00</time>
      </trkpt>
      <trkpt lat="0" lon="0">
        <time>2020-12-06T09:23:16.659000+00:00</time>
      </trkpt>
      <trkpt lat="0" lon="0">
        <time>2020-12-06T09:23:16.662000+00:00</time>
      </trkpt>
      <trkpt lat="47.33927" lon="-1.27395">
        <ele>49</ele>
        <time>2020-12-06T09:23:17.631000+00:00</time>
      </trkpt>
      <trkpt lat="0" lon="0">
        <time>2020-12-06T09:23:17.638000+00:00</time>
      </trkpt>
      <trkpt lat="0" lon="0">
        <time>2020-12-06T09:23:17.639000+00:00</time>
      </trkpt>
      <trkpt lat="0" lon="0">
        <time>2020-12-06T09:23:17.640000+00:00</time>
      </trkpt>
      <trkpt lat="47.33925" lon="-1.274">
        <ele>50</ele>
        <time>2020-12-06T09:23:18.649000+00:00</time>
      </trkpt>
      <trkpt lat="0" lon="0">
        <time>2020-12-06T09:23:18.652000+00:00</time>
      </trkpt>
      <trkpt lat="0" lon="0">
        <time>2020-12-06T09:23:18.666000+00:00</time>
      </trkpt>
      <trkpt lat="0" lon="0">
        <time>2020-12-06T09:23:18.672000+00:00</time>
      </trkpt>
      <trkpt lat="47.33923" lon="-1.27405">
        <ele>50</ele>
        <time>2020-12-06T09:23:19.628000+00:00</time>
      </trkpt>
      <trkpt lat="0" lon="0">
        <time>2020-12-06T09:23:19.635000+00:00</time>
      </trkpt>
      <trkpt lat="0" lon="0">
        <time>2020-12-06T09:23:19.638000+00:00</time>
      </trkpt>
      <trkpt lat="0" lon="0">
        <time>2020-12-06T09:23:19.640000+00:00</time>
      </trkpt>
      <trkpt lat="47.33922" lon="-1.2741">
        <ele>50</ele>
        <time>2020-12-06T09:23:20.646000+00:00</time>
      </trkpt>
      <trkpt lat="0" lon="0">
        <time>2020-12-06T09:23:20.652000+00:00</time>
      </trkpt>
      <trkpt lat="0" lon="0">
        <time>2020-12-06T09:23:20.659000+00:00</time>
      </trkpt>
      <trkpt lat="0" lon="0">
        <time>2020-12-06T09:23:20.662000+00:00</time>
      </trkpt>
      <trkpt lat="47.3392" lon="-1.27414">
        <ele>50</ele>
        <time>2020-12-06T09:23:21.627000+00:00</time>
      </trkpt>
      <trkpt lat="0" lon="0">
        <time>2020-12-06T09:23:21.647000+00:00</time>
      </trkpt>
      <trkpt lat="0" lon="0">
        <time>2020-12-06T09:23:21.653000+00:00</time>
      </trkpt>
      <trkpt lat="0" lon="0">
        <time>2020-12-06T09:23:21.655000+00:00</time>
      </trkpt>
      <trkpt lat="47.33919" lon="-1.27418">
        <ele>50</ele>
        <time>2020-12-06T09:23:22.616000+00:00</time>
      </trkpt>
      <trkpt lat="0" lon="0">
        <time>2020-12-06T09:23:22.619000+00:00</time>
      </trkpt>
      <trkpt lat="0" lon="0">
        <time>2020-12-06T09:23:22.636000+00:00</time>
      </trkpt>
      <trkpt lat="0" lon="0">
        <time>2020-12-06T09:23:22.640000+00:00</time>
      </trkpt>
      <trkpt lat="47.33918" lon="-1.27423">
        <ele>50</ele>
        <time>2020-12-06T09:23:23.667000+00:00</time>
      </trkpt>
      <trkpt lat="0" lon="0">
        <time>2020-12-06T09:23:23.671000+00:00</time>
      </trkpt>
      <trkpt lat="0" lon="0">
        <time>2020-12-06T09:23:23.675000+00:00</time>
      </trkpt>
      <trkpt lat="0" lon="0">
        <time>2020-12-06T09:23:23.677000+00:00</time>
      </trkpt>
      <trkpt lat="47.33917" lon="-1.27428">
        <ele>49</ele>
        <time>2020-12-06T09:23:24.614000+00:00</time>
      </trkpt>
      <trkpt lat="0" lon="0">
        <time>2020-12-06T09:23:24.620000+00:00</time>
      </trkpt>
      <trkpt lat="0" lon="0">
        <time>2020-12-06T09:23:24.636000+00:00</time>
      </trkpt>
      <trkpt lat="0" lon="0">
        <time>2020-12-06T09:23:24.641000+00:00</time>
      </trkpt>
      <trkpt lat="47.33916" lon="-1.27433">
        <ele>49</ele>
        <time>2020-12-06T09:23:25.641000+00:00</time>
      </trkpt>
      <trkpt lat="0" lon="0">
        <time>2020-12-06T09:23:25.645000+00:00</time>
      </trkpt>
      <trkpt lat="0" lon="0">
        <time>2020-12-06T09:23:25.652000+00:00</time>
      </trkpt>
      <trkpt lat="0" lon="0">
        <time>2020-12-06T09:23:25.654000+00:00</time>
      </trkpt>
      <trkpt lat="47.33916" lon="-1.27438">
        <ele>48</ele>
        <time>2020-12-06T09:23:26.643000+00:00</time>
      </trkpt>
      <trkpt lat="0" lon="0">
        <time>2020-12-06T09:23:26.648000+00:00</time>
      </trkpt>
      <trkpt lat="0" lon="0">
        <time>2020-12-06T09:23:26.651000+00:00</time>
      </trkpt>
      <trkpt lat="0" lon="0">
        <time>2020-12-06T09:23:26.665000+00:00</time>
      </trkpt>
      <trkpt lat="47.33916" lon="-1.27444">
        <ele>47</ele>
        <time>2020-12-06T09:23:27.621000+00:00</time>
      </trkpt>
      <trkpt lat="0" lon="0">
        <time>2020-12-06T09:23:27.626000+00:00</time>
      </trkpt>
      <trkpt lat="0" lon="0">
        <time>2020-12-06T09:23:27.629000+00:00</time>
      </trkpt>
      <trkpt lat="0" lon="0">
        <time>2020-12-06T09:23:27.637000+00:00</time>
      </trkpt>
      <trkpt lat="47.33917" lon="-1.2745">
        <ele>45</ele>
        <time>2020-12-06T09:23:28.619000+00:00</time>
      </trkpt>
      <trkpt lat="0" lon="0">
        <time>2020-12-06T09:23:28.638000+00:00</time>
      </trkpt>
      <trkpt lat="0" lon="0">
        <time>2020-12-06T09:23:28.641000+00:00</time>
      </trkpt>
      <trkpt lat="0" lon="0">
        <time>2020-12-06T09:23:28.643000+00:00</time>
      </trkpt>
      <trkpt lat="47.33917" lon="-1.27457">
        <ele>44</ele>
        <time>2020-12-06T09:23:29.634000+00:00</time>
      </trkpt>
      <trkpt lat="0" lon="0">
        <time>2020-12-06T09:23:29.638000+00:00</time>
      </trkpt>
      <trkpt lat="0" lon="0">
        <time>2020-12-06T09:23:29.643000+00:00</time>
      </trkpt>
      <trkpt lat="0" lon="0">
        <time>2020-12-06T09:23:29.645000+00:00</time>
      </trkpt>
      <trkpt lat="47.33917" lon="-1.27463">
        <ele>43</ele>
        <time>2020-12-06T09:23:30.628000+00:00</time>
      </trkpt>
      <trkpt lat="0" lon="0">
        <time>2020-12-06T09:23:30.637000+00:00</time>
      </trkpt>
      <trkpt lat="0" lon="0">
        <time>2020-12-06T09:23:30.647000+00:00</time>
      </trkpt>
      <trkpt lat="0" lon="0">
        <time>2020-12-06T09:23:30.649000+00:00</time>
      </trkpt>
      <trkpt lat="47.33917" lon="-1.2747">
        <ele>42</ele>
        <time>2020-12-06T09:23:31.646000+00:00</time>
      </trkpt>
      <trkpt lat="0" lon="0">
        <time>2020-12-06T09:23:31.653000+00:00</time>
      </trkpt>
      <trkpt lat="0" lon="0">
        <time>2020-12-06T09:23:31.657000+00:00</time>
      </trkpt>
      <trkpt lat="0" lon="0">
        <time>2020-12-06T09:23:31.659000+00:00</time>
      </trkpt>
      <trkpt lat="47.33917" lon="-1.27477">
        <ele>40</ele>
        <time>2020-12-06T09:23:32.625000+00:00</time>
      </trkpt>
      <trkpt lat="0" lon="0">
        <time>2020-12-06T09:23:32.628000+00:00</time>
      </trkpt>
      <trkpt lat="0" lon="0">
        <time>2020-12-06T09:23:32.641000+00:00</time>
      </trkpt>
      <trkpt lat="0" lon="0">
        <time>2020-12-06T09:23:32.643000+00:00</time>
      </trkpt>
      <trkpt lat="47.33917" lon="-1.27484">
        <ele>39</ele>
        <time>2020-12-06T09:23:33.668000+00:00</time>
      </trkpt>
      <trkpt lat="0" lon="0">
        <time>2020-12-06T09:23:33.672000+00:00</time>
      </trkpt>
      <trkpt lat="0" lon="0">
        <time>2020-12-06T09:23:33.676000+00:00</time>
      </trkpt>
      <trkpt lat="0" lon="0">
        <time>2020-12-06T09:23:33.686000+00:00</time>
      </trkpt>
      <trkpt lat="47.33917" lon="-1.27491">
        <ele>38</ele>
        <time>2020-12-06T09:23:34.657000+00:00</time>
      </trkpt>
      <trkpt lat="0" lon="0">
        <time>2020-12-06T09:23:34.661000+00:00</time>
      </trkpt>
      <trkpt lat="0" lon="0">
        <time>2020-12-06T09:23:34.671000+00:00</time>
      </trkpt>
      <trkpt lat="0" lon="0">
        <time>2020-12-06T09:23:34.680000+00:00</time>
      </trkpt>
      <trkpt lat="47.33916" lon="-1.27498">
        <ele>37</ele>
        <time>2020-12-06T09:23:35.650000+00:00</time>
      </trkpt>
      <trkpt lat="0" lon="0">
        <time>2020-12-06T09:23:35.659000+00:00</time>
      </trkpt>
      <trkpt lat="0" lon="0">
        <time>2020-12-06T09:23:35.663000+00:00</time>
      </trkpt>
      <trkpt lat="0" lon="0">
        <time>2020-12-06T09:23:35.674000+00:00</time>
      </trkpt>
      <trkpt lat="47.33916" lon="-1.27504">
        <ele>36</ele>
        <time>2020-12-06T09:23:36.627000+00:00</time>
      </trkpt>
      <trkpt lat="0" lon="0">
        <time>2020-12-06T09:23:36.639000+00:00</time>
      </trkpt>
      <trkpt lat="0" lon="0">
        <time>2020-12-06T09:23:36.650000+00:00</time>
      </trkpt>
      <trkpt lat="0" lon="0">
        <time>2020-12-06T09:23:36.652000+00:00</time>
      </trkpt>
      <trkpt lat="47.33915" lon="-1.27511">
        <ele>34</ele>
        <time>2020-12-06T09:23:37.634000+00:00</time>
      </trkpt>
      <trkpt lat="0" lon="0">
        <time>2020-12-06T09:23:37.645000+00:00</time>
      </trkpt>
      <trkpt lat="0" lon="0">
        <time>2020-12-06T09:23:37.652000+00:00</time>
      </trkpt>
      <trkpt lat="0" lon="0">
        <time>2020-12-06T09:23:37.655000+00:00</time>
      </trkpt>
      <trkpt lat="47.33914" lon="-1.27517">
        <ele>33</ele>
        <time>2020-12-06T09:23:38.656000+00:00</time>
      </trkpt>
      <trkpt lat="0" lon="0">
        <time>2020-12-06T09:23:38.674000+00:00</time>
      </trkpt>
      <trkpt lat="0" lon="0">
        <time>2020-12-06T09:23:38.678000+00:00</time>
      </trkpt>
      <trkpt lat="0" lon="0">
        <time>2020-12-06T09:23:38.680000+00:00</time>
      </trkpt>
      <trkpt lat="47.33913" lon="-1.27522">
        <ele>32</ele>
        <time>2020-12-06T09:23:39.677000+00:00</time>
      </trkpt>
      <trkpt lat="0" lon="0">
        <time>2020-12-06T09:23:39.685000+00:00</time>
      </trkpt>
      <trkpt lat="0" lon="0">
        <time>2020-12-06T09:23:39.686000+00:00</time>
      </trkpt>
      <trkpt lat="0" lon="0">
        <time>2020-12-06T09:23:39.687000+00:00</time>
      </trkpt>
      <trkpt lat="47.33913" lon="-1.27527">
        <ele>30</ele>
        <time>2020-12-06T09:23:40.646000+00:00</time>
      </trkpt>
      <trkpt lat="0" lon="0">
        <time>2020-12-06T09:23:40.650000+00:00</time>
      </trkpt>
      <trkpt lat="0" lon="0">
        <time>2020-12-06T09:23:40.666000+00:00</time>
      </trkpt>
      <trkpt lat="0" lon="0">
        <time>2020-12-06T09:23:40.668000+00:00</time>
      </trkpt>
      <trkpt lat="47.33912" lon="-1.27532">
        <ele>29</ele>
        <time>2020-12-06T09:23:41.631000+00:00</time>
      </trkpt>
      <trkpt lat="0" lon="0">
        <time>2020-12-06T09:23:41.642000+00:00</time>
      </trkpt>
      <trkpt lat="0" lon="0">
        <time>2020-12-06T09:23:41.646000+00:00</time>
      </trkpt>
      <trkpt lat="0" lon="0">
        <time>2020-12-06T09:23:41.649000+00:00</time>
      </trkpt>
      <trkpt lat="47.33913" lon="-1.27537">
        <ele>28</ele>
        <time>2020-12-06T09:23:42.624000+00:00</time>
      </trkpt>
      <trkpt lat="0" lon="0">
        <time>2020-12-06T09:23:42.635000+00:00</time>
      </trkpt>
      <trkpt lat="0" lon="0">
        <time>2020-12-06T09:23:42.641000+00:00</time>
      </trkpt>
      <trkpt lat="0" lon="0">
        <time>2020-12-06T09:23:42.643000+00:00</time>
      </trkpt>
      <trkpt lat="47.33913" lon="-1.27541">
        <ele>27</ele>
        <time>2020-12-06T09:23:43.626000+00:00</time>
      </trkpt>
      <trkpt lat="0" lon="0">
        <time>2020-12-06T09:23:43.639000+00:00</time>
      </trkpt>
      <trkpt lat="0" lon="0">
        <time>2020-12-06T09:23:43.647000+00:00</time>
      </trkpt>
      <trkpt lat="0" lon="0">
        <time>2020-12-06T09:23:43.648000+00:00</time>
      </trkpt>
      <trkpt lat="47.33914" lon="-1.27546">
        <ele>25</ele>
        <time>2020-12-06T09:23:44.661000+00:00</time>
      </trkpt>
      <trkpt lat="0" lon="0">
        <time>2020-12-06T09:23:44.676000+00:00</time>
      </trkpt>
      <trkpt lat="0" lon="0">
        <time>2020-12-06T09:23:44.682000+00:00</time>
      </trkpt>
      <trkpt lat="0" lon="0">
        <time>2020-12-06T09:23:44.683000+00:00</time>
      </trkpt>
      <trkpt lat="47.33916" lon="-1.2755">
        <ele>24</ele>
        <time>2020-12-06T09:23:45.648000+00:00</time>
      </trkpt>
      <trkpt lat="0" lon="0">
        <time>2020-12-06T09:23:45.654000+00:00</time>
      </trkpt>
      <trkpt lat="0" lon="0">
        <time>2020-12-06T09:23:45.656000+00:00</time>
      </trkpt>
      <trkpt lat="0" lon="0">
        <time>2020-12-06T09:23:45.657000+00:00</time>
      </trkpt>
      <trkpt lat="47.33917" lon="-1.27555">
        <ele>22</ele>
        <time>2020-12-06T09:23:46.662000+00:00</time>
      </trkpt>
      <trkpt lat="0" lon="0">
        <time>2020-12-06T09:23:46.670000+00:00</time>
      </trkpt>
      <trkpt lat="0" lon="0">
        <time>2020-12-06T09:23:46.676000+00:00</time>
      </trkpt>
      <trkpt lat="0" lon="0">
        <time>2020-12-06T09:23:46.681000+00:00</time>
      </trkpt>
      <trkpt lat="47.33919" lon="-1.2756">
        <ele>20</ele>
        <time>2020-12-06T09:23:47.641000+00:00</time>
      </trkpt>
      <trkpt lat="0" lon="0">
        <time>2020-12-06T09:23:47.645000+00:00</time>
      </trkpt>
      <trkpt lat="0" lon="0">
        <time>2020-12-06T09:23:47.653000+00:00</time>
      </trkpt>
      <trkpt lat="0" lon="0">
        <time>2020-12-06T09:23:47.654000+00:00</time>
      </trkpt>
      <trkpt lat="47.33922" lon="-1.27566">
        <ele>19</ele>
        <time>2020-12-06T09:23:48.652000+00:00</time>
      </trkpt>
      <trkpt lat="0" lon="0">
        <time>2020-12-06T09:23:48.655000+00:00</time>
      </trkpt>
      <trkpt lat="0" lon="0">
        <time>2020-12-06T09:23:48.659000+00:00</time>
      </trkpt>
      <trkpt lat="0" lon="0">
        <time>2020-12-06T09:23:48.661000+00:00</time>
      </trkpt>
      <trkpt lat="47.33924" lon="-1.27571">
        <ele>17</ele>
        <time>2020-12-06T09:23:49.648000+00:00</time>
      </trkpt>
      <trkpt lat="0" lon="0">
        <time>2020-12-06T09:23:49.663000+00:00</time>
      </trkpt>
      <trkpt lat="0" lon="0">
        <time>2020-12-06T09:23:49.666000+00:00</time>
      </trkpt>
      <trkpt lat="0" lon="0">
        <time>2020-12-06T09:23:49.668000+00:00</time>
      </trkpt>
      <trkpt lat="47.33926" lon="-1.27577">
        <ele>15</ele>
        <time>2020-12-06T09:23:50.629000+00:00</time>
      </trkpt>
      <trkpt lat="0" lon="0">
        <time>2020-12-06T09:23:50.632000+00:00</time>
      </trkpt>
      <trkpt lat="0" lon="0">
        <time>2020-12-06T09:23:50.642000+00:00</time>
      </trkpt>
      <trkpt lat="0" lon="0">
        <time>2020-12-06T09:23:50.648000+00:00</time>
      </trkpt>
      <trkpt lat="47.33928" lon="-1.27584">
        <ele>14</ele>
        <time>2020-12-06T09:23:51.629000+00:00</time>
      </trkpt>
      <trkpt lat="0" lon="0">
        <time>2020-12-06T09:23:51.634000+00:00</time>
      </trkpt>
      <trkpt lat="0" lon="0">
        <time>2020-12-06T09:23:51.636000+00:00</time>
      </trkpt>
      <trkpt lat="0" lon="0">
        <time>2020-12-06T09:23:51.638000+00:00</time>
      </trkpt>
      <trkpt lat="47.33929" lon="-1.2759">
        <ele>13</ele>
        <time>2020-12-06T09:23:52.623000+00:00</time>
      </trkpt>
      <trkpt lat="0" lon="0">
        <time>2020-12-06T09:23:52.629000+00:00</time>
      </trkpt>
      <trkpt lat="0" lon="0">
        <time>2020-12-06T09:23:52.638000+00:00</time>
      </trkpt>
      <trkpt lat="0" lon="0">
        <time>2020-12-06T09:23:52.642000+00:00</time>
      </trkpt>
      <trkpt lat="47.33929" lon="-1.27598">
        <ele>12</ele>
        <time>2020-12-06T09:23:53.667000+00:00</time>
      </trkpt>
      <trkpt lat="0" lon="0">
        <time>2020-12-06T09:23:53.679000+00:00</time>
      </trkpt>
      <trkpt lat="0" lon="0">
        <time>2020-12-06T09:23:53.682000+00:00</time>
      </trkpt>
      <trkpt lat="0" lon="0">
        <time>2020-12-06T09:23:53.684000+00:00</time>
      </trkpt>
      <trkpt lat="47.33928" lon="-1.27605">
        <ele>12</ele>
        <time>2020-12-06T09:23:54.644000+00:00</time>
      </trkpt>
      <trkpt lat="0" lon="0">
        <time>2020-12-06T09:23:54.657000+00:00</time>
      </trkpt>
      <trkpt lat="0" lon="0">
        <time>2020-12-06T09:23:54.666000+00:00</time>
      </trkpt>
      <trkpt lat="0" lon="0">
        <time>2020-12-06T09:23:54.669000+00:00</time>
      </trkpt>
      <trkpt lat="47.33928" lon="-1.27613">
        <ele>11</ele>
        <time>2020-12-06T09:23:55.650000+00:00</time>
      </trkpt>
      <trkpt lat="0" lon="0">
        <time>2020-12-06T09:23:55.660000+00:00</time>
      </trkpt>
      <trkpt lat="0" lon="0">
        <time>2020-12-06T09:23:55.666000+00:00</time>
      </trkpt>
      <trkpt lat="0" lon="0">
        <time>2020-12-06T09:23:55.672000+00:00</time>
      </trkpt>
      <trkpt lat="47.33926" lon="-1.27621">
        <ele>11</ele>
        <time>2020-12-06T09:23:56.681000+00:00</time>
      </trkpt>
      <trkpt lat="0" lon="0">
        <time>2020-12-06T09:23:56.687000+00:00</time>
      </trkpt>
      <trkpt lat="0" lon="0">
        <time>2020-12-06T09:23:56.690000+00:00</time>
      </trkpt>
      <trkpt lat="0" lon="0">
        <time>2020-12-06T09:23:56.691000+00:00</time>
      </trkpt>
      <trkpt lat="47.33925" lon="-1.27629">
        <ele>10</ele>
        <time>2020-12-06T09:23:57.644000+00:00</time>
      </trkpt>
      <trkpt lat="0" lon="0">
        <time>2020-12-06T09:23:57.649000+00:00</time>
      </trkpt>
      <trkpt lat="0" lon="0">
        <time>2020-12-06T09:23:57.654000+00:00</time>
      </trkpt>
      <trkpt lat="0" lon="0">
        <time>2020-12-06T09:23:57.656000+00:00</time>
      </trkpt>
      <trkpt lat="47.33924" lon="-1.27637">
        <ele>10</ele>
        <time>2020-12-06T09:23:58.932000+00:00</time>
      </trkpt>
      <trkpt lat="0" lon="0">
        <time>2020-12-06T09:23:58.935000+00:00</time>
      </trkpt>
      <trkpt lat="0" lon="0">
        <time>2020-12-06T09:23:58.941000+00:00</time>
      </trkpt>
      <trkpt lat="0" lon="0">
        <time>2020-12-06T09:23:58.948000+00:00</time>
      </trkpt>
      <trkpt lat="47.33922" lon="-1.27645">
        <ele>9</ele>
        <time>2020-12-06T09:23:59.664000+00:00</time>
      </trkpt>
      <trkpt lat="0" lon="0">
        <time>2020-12-06T09:23:59.667000+00:00</time>
      </trkpt>
      <trkpt lat="0" lon="0">
        <time>2020-12-06T09:23:59.683000+00:00</time>
      </trkpt>
      <trkpt lat="0" lon="0">
        <time>2020-12-06T09:23:59.684000+00:00</time>
      </trkpt>
      <trkpt lat="47.3392" lon="-1.27653">
        <ele>8</ele>
        <time>2020-12-06T09:24:00.646000+00:00</time>
      </trkpt>
      <trkpt lat="0" lon="0">
        <time>2020-12-06T09:24:00.661000+00:00</time>
      </trkpt>
      <trkpt lat="0" lon="0">
        <time>2020-12-06T09:24:00.666000+00:00</time>
      </trkpt>
      <trkpt lat="0" lon="0">
        <time>2020-12-06T09:24:00.668000+00:00</time>
      </trkpt>
      <trkpt lat="47.33919" lon="-1.2766">
        <ele>8</ele>
        <time>2020-12-06T09:24:01.662000+00:00</time>
      </trkpt>
      <trkpt lat="0" lon="0">
        <time>2020-12-06T09:24:01.669000+00:00</time>
      </trkpt>
      <trkpt lat="0" lon="0">
        <time>2020-12-06T09:24:01.676000+00:00</time>
      </trkpt>
      <trkpt lat="0" lon="0">
        <time>2020-12-06T09:24:01.678000+00:00</time>
      </trkpt>
      <trkpt lat="47.33917" lon="-1.27667">
        <ele>7</ele>
        <time>2020-12-06T09:24:02.650000+00:00</time>
      </trkpt>
      <trkpt lat="0" lon="0">
        <time>2020-12-06T09:24:02.667000+00:00</time>
      </trkpt>
      <trkpt lat="0" lon="0">
        <time>2020-12-06T09:24:02.671000+00:00</time>
      </trkpt>
      <trkpt lat="0" lon="0">
        <time>2020-12-06T09:24:02.672000+00:00</time>
      </trkpt>
      <trkpt lat="47.33916" lon="-1.27675">
        <ele>8</ele>
        <time>2020-12-06T09:24:03.634000+00:00</time>
      </trkpt>
      <trkpt lat="0" lon="0">
        <time>2020-12-06T09:24:03.636000+00:00</time>
      </trkpt>
      <trkpt lat="0" lon="0">
        <time>2020-12-06T09:24:03.640000+00:00</time>
      </trkpt>
      <trkpt lat="0" lon="0">
        <time>2020-12-06T09:24:03.642000+00:00</time>
      </trkpt>
      <trkpt lat="47.33914" lon="-1.27682">
        <ele>8</ele>
        <time>2020-12-06T09:24:04.665000+00:00</time>
      </trkpt>
      <trkpt lat="0" lon="0">
        <time>2020-12-06T09:24:04.671000+00:00</time>
      </trkpt>
      <trkpt lat="0" lon="0">
        <time>2020-12-06T09:24:04.675000+00:00</time>
      </trkpt>
      <trkpt lat="0" lon="0">
        <time>2020-12-06T09:24:04.677000+00:00</time>
      </trkpt>
      <trkpt lat="47.33912" lon="-1.2769">
        <ele>9</ele>
        <time>2020-12-06T09:24:05.640000+00:00</time>
      </trkpt>
      <trkpt lat="0" lon="0">
        <time>2020-12-06T09:24:05.646000+00:00</time>
      </trkpt>
      <trkpt lat="0" lon="0">
        <time>2020-12-06T09:24:05.653000+00:00</time>
      </trkpt>
      <trkpt lat="0" lon="0">
        <time>2020-12-06T09:24:05.655000+00:00</time>
      </trkpt>
      <trkpt lat="47.3391" lon="-1.27698">
        <ele>9</ele>
        <time>2020-12-06T09:24:06.637000+00:00</time>
      </trkpt>
      <trkpt lat="0" lon="0">
        <time>2020-12-06T09:24:06.640000+00:00</time>
      </trkpt>
      <trkpt lat="0" lon="0">
        <time>2020-12-06T09:24:06.644000+00:00</time>
      </trkpt>
      <trkpt lat="0" lon="0">
        <time>2020-12-06T09:24:06.647000+00:00</time>
      </trkpt>
      <trkpt lat="47.33908" lon="-1.27706">
        <ele>9</ele>
        <time>2020-12-06T09:24:07.644000+00:00</time>
      </trkpt>
      <trkpt lat="0" lon="0">
        <time>2020-12-06T09:24:07.661000+00:00</time>
      </trkpt>
      <trkpt lat="0" lon="0">
        <time>2020-12-06T09:24:07.667000+00:00</time>
      </trkpt>
      <trkpt lat="0" lon="0">
        <time>2020-12-06T09:24:07.669000+00:00</time>
      </trkpt>
      <trkpt lat="47.33906" lon="-1.27715">
        <ele>10</ele>
        <time>2020-12-06T09:24:08.632000+00:00</time>
      </trkpt>
      <trkpt lat="0" lon="0">
        <time>2020-12-06T09:24:08.643000+00:00</time>
      </trkpt>
      <trkpt lat="0" lon="0">
        <time>2020-12-06T09:24:08.647000+00:00</time>
      </trkpt>
      <trkpt lat="0" lon="0">
        <time>2020-12-06T09:24:08.651000+00:00</time>
      </trkpt>
      <trkpt lat="47.33904" lon="-1.27724">
        <ele>10</ele>
        <time>2020-12-06T09:24:09.670000+00:00</time>
      </trkpt>
      <trkpt lat="0" lon="0">
        <time>2020-12-06T09:24:09.676000+00:00</time>
      </trkpt>
      <trkpt lat="0" lon="0">
        <time>2020-12-06T09:24:09.685000+00:00</time>
      </trkpt>
      <trkpt lat="0" lon="0">
        <time>2020-12-06T09:24:09.693000+00:00</time>
      </trkpt>
      <trkpt lat="47.33902" lon="-1.27732">
        <ele>10</ele>
        <time>2020-12-06T09:24:10.679000+00:00</time>
      </trkpt>
      <trkpt lat="0" lon="0">
        <time>2020-12-06T09:24:10.689000+00:00</time>
      </trkpt>
      <trkpt lat="0" lon="0">
        <time>2020-12-06T09:24:10.698000+00:00</time>
      </trkpt>
      <trkpt lat="0" lon="0">
        <time>2020-12-06T09:24:10.700000+00:00</time>
      </trkpt>
      <trkpt lat="47.339" lon="-1.27741">
        <ele>10</ele>
        <time>2020-12-06T09:24:11.657000+00:00</time>
      </trkpt>
      <trkpt lat="0" lon="0">
        <time>2020-12-06T09:24:11.666000+00:00</time>
      </trkpt>
      <trkpt lat="0" lon="0">
        <time>2020-12-06T09:24:11.670000+00:00</time>
      </trkpt>
      <trkpt lat="0" lon="0">
        <time>2020-12-06T09:24:11.671000+00:00</time>
      </trkpt>
      <trkpt lat="47.33898" lon="-1.27749">
        <ele>10</ele>
        <time>2020-12-06T09:24:12.653000+00:00</time>
      </trkpt>
      <trkpt lat="0" lon="0">
        <time>2020-12-06T09:24:12.657000+00:00</time>
      </trkpt>
      <trkpt lat="0" lon="0">
        <time>2020-12-06T09:24:12.661000+00:00</time>
      </trkpt>
      <trkpt lat="0" lon="0">
        <time>2020-12-06T09:24:12.664000+00:00</time>
      </trkpt>
      <trkpt lat="47.33896" lon="-1.27757">
        <ele>10</ele>
        <time>2020-12-06T09:24:13.668000+00:00</time>
      </trkpt>
      <trkpt lat="0" lon="0">
        <time>2020-12-06T09:24:13.682000+00:00</time>
      </trkpt>
      <trkpt lat="0" lon="0">
        <time>2020-12-06T09:24:13.685000+00:00</time>
      </trkpt>
      <trkpt lat="0" lon="0">
        <time>2020-12-06T09:24:13.687000+00:00</time>
      </trkpt>
      <trkpt lat="47.33894" lon="-1.27765">
        <ele>10</ele>
        <time>2020-12-06T09:24:14.624000+00:00</time>
      </trkpt>
      <trkpt lat="0" lon="0">
        <time>2020-12-06T09:24:14.625000+00:00</time>
      </trkpt>
      <trkpt lat="0" lon="0">
        <time>2020-12-06T09:24:14.627000+00:00</time>
      </trkpt>
      <trkpt lat="0" lon="0">
        <time>2020-12-06T09:24:14.628000+00:00</time>
      </trkpt>
      <trkpt lat="47.33892" lon="-1.27773">
        <ele>10</ele>
        <time>2020-12-06T09:24:15.676000+00:00</time>
      </trkpt>
      <trkpt lat="0" lon="0">
        <time>2020-12-06T09:24:15.680000+00:00</time>
      </trkpt>
      <trkpt lat="0" lon="0">
        <time>2020-12-06T09:24:15.689000+00:00</time>
      </trkpt>
      <trkpt lat="0" lon="0">
        <time>2020-12-06T09:24:15.691000+00:00</time>
      </trkpt>
      <trkpt lat="47.3389" lon="-1.2778">
        <ele>10</ele>
        <time>2020-12-06T09:24:16.667000+00:00</time>
      </trkpt>
      <trkpt lat="0" lon="0">
        <time>2020-12-06T09:24:16.674000+00:00</time>
      </trkpt>
      <trkpt lat="0" lon="0">
        <time>2020-12-06T09:24:16.680000+00:00</time>
      </trkpt>
      <trkpt lat="0" lon="0">
        <time>2020-12-06T09:24:16.683000+00:00</time>
      </trkpt>
      <trkpt lat="47.33889" lon="-1.27788">
        <ele>10</ele>
        <time>2020-12-06T09:24:17.669000+00:00</time>
      </trkpt>
      <trkpt lat="0" lon="0">
        <time>2020-12-06T09:24:17.679000+00:00</time>
      </trkpt>
      <trkpt lat="0" lon="0">
        <time>2020-12-06T09:24:17.693000+00:00</time>
      </trkpt>
      <trkpt lat="0" lon="0">
        <time>2020-12-06T09:24:17.695000+00:00</time>
      </trkpt>
      <trkpt lat="47.33887" lon="-1.27795">
        <ele>10</ele>
        <time>2020-12-06T09:24:18.659000+00:00</time>
      </trkpt>
      <trkpt lat="0" lon="0">
        <time>2020-12-06T09:24:18.676000+00:00</time>
      </trkpt>
      <trkpt lat="0" lon="0">
        <time>2020-12-06T09:24:18.680000+00:00</time>
      </trkpt>
      <trkpt lat="0" lon="0">
        <time>2020-12-06T09:24:18.685000+00:00</time>
      </trkpt>
      <trkpt lat="47.33885" lon="-1.27801">
        <ele>10</ele>
        <time>2020-12-06T09:24:19.671000+00:00</time>
      </trkpt>
      <trkpt lat="0" lon="0">
        <time>2020-12-06T09:24:19.679000+00:00</time>
      </trkpt>
      <trkpt lat="0" lon="0">
        <time>2020-12-06T09:24:19.687000+00:00</time>
      </trkpt>
      <trkpt lat="0" lon="0">
        <time>2020-12-06T09:24:19.690000+00:00</time>
      </trkpt>
      <trkpt lat="47.33882" lon="-1.27806">
        <ele>9</ele>
        <time>2020-12-06T09:24:20.619000+00:00</time>
      </trkpt>
      <trkpt lat="0" lon="0">
        <time>2020-12-06T09:24:20.625000+00:00</time>
      </trkpt>
      <trkpt lat="0" lon="0">
        <time>2020-12-06T09:24:20.627000+00:00</time>
      </trkpt>
      <trkpt lat="0" lon="0">
        <time>2020-12-06T09:24:20.628000+00:00</time>
      </trkpt>
      <trkpt lat="47.33879" lon="-1.2781">
        <ele>9</ele>
        <time>2020-12-06T09:24:21.649000+00:00</time>
      </trkpt>
      <trkpt lat="0" lon="0">
        <time>2020-12-06T09:24:21.655000+00:00</time>
      </trkpt>
      <trkpt lat="0" lon="0">
        <time>2020-12-06T09:24:21.659000+00:00</time>
      </trkpt>
      <trkpt lat="0" lon="0">
        <time>2020-12-06T09:24:21.661000+00:00</time>
      </trkpt>
      <trkpt lat="47.33875" lon="-1.27812">
        <ele>9</ele>
        <time>2020-12-06T09:24:22.648000+00:00</time>
      </trkpt>
      <trkpt lat="0" lon="0">
        <time>2020-12-06T09:24:22.660000+00:00</time>
      </trkpt>
      <trkpt lat="0" lon="0">
        <time>2020-12-06T09:24:22.664000+00:00</time>
      </trkpt>
      <trkpt lat="0" lon="0">
        <time>2020-12-06T09:24:22.667000+00:00</time>
      </trkpt>
      <trkpt lat="47.33871" lon="-1.27813">
        <ele>9</ele>
        <time>2020-12-06T09:24:23.640000+00:00</time>
      </trkpt>
      <trkpt lat="0" lon="0">
        <time>2020-12-06T09:24:23.643000+00:00</time>
      </trkpt>
      <trkpt lat="0" lon="0">
        <time>2020-12-06T09:24:23.649000+00:00</time>
      </trkpt>
      <trkpt lat="0" lon="0">
        <time>2020-12-06T09:24:23.651000+00:00</time>
      </trkpt>
      <trkpt lat="47.33866" lon="-1.27813">
        <ele>9</ele>
        <time>2020-12-06T09:24:24.651000+00:00</time>
      </trkpt>
      <trkpt lat="0" lon="0">
        <time>2020-12-06T09:24:24.656000+00:00</time>
      </trkpt>
      <trkpt lat="0" lon="0">
        <time>2020-12-06T09:24:24.660000+00:00</time>
      </trkpt>
      <trkpt lat="0" lon="0">
        <time>2020-12-06T09:24:24.662000+00:00</time>
      </trkpt>
      <trkpt lat="47.33861" lon="-1.27811">
        <ele>9</ele>
        <time>2020-12-06T09:24:25.652000+00:00</time>
      </trkpt>
      <trkpt lat="0" lon="0">
        <time>2020-12-06T09:24:25.656000+00:00</time>
      </trkpt>
      <trkpt lat="0" lon="0">
        <time>2020-12-06T09:24:25.660000+00:00</time>
      </trkpt>
      <trkpt lat="0" lon="0">
        <time>2020-12-06T09:24:25.661000+00:00</time>
      </trkpt>
      <trkpt lat="47.33856" lon="-1.27809">
        <ele>9</ele>
        <time>2020-12-06T09:24:26.644000+00:00</time>
      </trkpt>
      <trkpt lat="0" lon="0">
        <time>2020-12-06T09:24:26.648000+00:00</time>
      </trkpt>
      <trkpt lat="0" lon="0">
        <time>2020-12-06T09:24:26.657000+00:00</time>
      </trkpt>
      <trkpt lat="0" lon="0">
        <time>2020-12-06T09:24:26.658000+00:00</time>
      </trkpt>
      <trkpt lat="47.33851" lon="-1.27807">
        <ele>9</ele>
        <time>2020-12-06T09:24:27.644000+00:00</time>
      </trkpt>
      <trkpt lat="0" lon="0">
        <time>2020-12-06T09:24:27.648000+00:00</time>
      </trkpt>
      <trkpt lat="0" lon="0">
        <time>2020-12-06T09:24:27.655000+00:00</time>
      </trkpt>
      <trkpt lat="0" lon="0">
        <time>2020-12-06T09:24:27.657000+00:00</time>
      </trkpt>
      <trkpt lat="47.33846" lon="-1.27804">
        <ele>10</ele>
        <time>2020-12-06T09:24:28.631000+00:00</time>
      </trkpt>
      <trkpt lat="0" lon="0">
        <time>2020-12-06T09:24:28.644000+00:00</time>
      </trkpt>
      <trkpt lat="0" lon="0">
        <time>2020-12-06T09:24:28.648000+00:00</time>
      </trkpt>
      <trkpt lat="0" lon="0">
        <time>2020-12-06T09:24:28.650000+00:00</time>
      </trkpt>
      <trkpt lat="47.3384" lon="-1.27801">
        <ele>10</ele>
        <time>2020-12-06T09:24:29.665000+00:00</time>
      </trkpt>
      <trkpt lat="0" lon="0">
        <time>2020-12-06T09:24:29.670000+00:00</time>
      </trkpt>
      <trkpt lat="0" lon="0">
        <time>2020-12-06T09:24:29.679000+00:00</time>
      </trkpt>
      <trkpt lat="0" lon="0">
        <time>2020-12-06T09:24:29.681000+00:00</time>
      </trkpt>
      <trkpt lat="47.33834" lon="-1.27798">
        <ele>10</ele>
        <time>2020-12-06T09:24:30.663000+00:00</time>
      </trkpt>
      <trkpt lat="0" lon="0">
        <time>2020-12-06T09:24:30.672000+00:00</time>
      </trkpt>
      <trkpt lat="0" lon="0">
        <time>2020-12-06T09:24:30.676000+00:00</time>
      </trkpt>
      <trkpt lat="0" lon="0">
        <time>2020-12-06T09:24:30.678000+00:00</time>
      </trkpt>
      <trkpt lat="47.33829" lon="-1.27794">
        <ele>10</ele>
        <time>2020-12-06T09:24:31.644000+00:00</time>
      </trkpt>
      <trkpt lat="0" lon="0">
        <time>2020-12-06T09:24:31.647000+00:00</time>
      </trkpt>
      <trkpt lat="0" lon="0">
        <time>2020-12-06T09:24:31.654000+00:00</time>
      </trkpt>
      <trkpt lat="0" lon="0">
        <time>2020-12-06T09:24:31.657000+00:00</time>
      </trkpt>
      <trkpt lat="47.33823" lon="-1.27791">
        <ele>10</ele>
        <time>2020-12-06T09:24:32.656000+00:00</time>
      </trkpt>
      <trkpt lat="0" lon="0">
        <time>2020-12-06T09:24:32.661000+00:00</time>
      </trkpt>
      <trkpt lat="0" lon="0">
        <time>2020-12-06T09:24:32.663000+00:00</time>
      </trkpt>
      <trkpt lat="47.33817" lon="-1.27787">
        <ele>11</ele>
        <time>2020-12-06T09:24:33.627000+00:00</time>
      </trkpt>
      <trkpt lat="0" lon="0">
        <time>2020-12-06T09:24:33.637000+00:00</time>
      </trkpt>
      <trkpt lat="0" lon="0">
        <time>2020-12-06T09:24:33.645000+00:00</time>
      </trkpt>
      <trkpt lat="0" lon="0">
        <time>2020-12-06T09:24:33.650000+00:00</time>
      </trkpt>
      <trkpt lat="47.33811" lon="-1.27783">
        <ele>11</ele>
        <time>2020-12-06T09:24:34.634000+00:00</time>
      </trkpt>
      <trkpt lat="0" lon="0">
        <time>2020-12-06T09:24:34.645000+00:00</time>
      </trkpt>
      <trkpt lat="0" lon="0">
        <time>2020-12-06T09:24:34.652000+00:00</time>
      </trkpt>
      <trkpt lat="0" lon="0">
        <time>2020-12-06T09:24:34.655000+00:00</time>
      </trkpt>
      <trkpt lat="47.33805" lon="-1.27779">
        <ele>12</ele>
        <time>2020-12-06T09:24:35.576000+00:00</time>
      </trkpt>
      <trkpt lat="0" lon="0">
        <time>2020-12-06T09:24:35.578000+00:00</time>
      </trkpt>
      <trkpt lat="0" lon="0">
        <time>2020-12-06T09:24:35.584000+00:00</time>
      </trkpt>
      <trkpt lat="0" lon="0">
        <time>2020-12-06T09:24:35.585000+00:00</time>
      </trkpt>
      <trkpt lat="47.338" lon="-1.27776">
        <ele>12</ele>
        <time>2020-12-06T09:24:36.623000+00:00</time>
      </trkpt>
      <trkpt lat="0" lon="0">
        <time>2020-12-06T09:24:36.627000+00:00</time>
      </trkpt>
      <trkpt lat="0" lon="0">
        <time>2020-12-06T09:24:36.630000+00:00</time>
      </trkpt>
      <trkpt lat="0" lon="0">
        <time>2020-12-06T09:24:36.631000+00:00</time>
      </trkpt>
      <trkpt lat="47.33794" lon="-1.27772">
        <ele>12</ele>
        <time>2020-12-06T09:24:37.618000+00:00</time>
      </trkpt>
      <trkpt lat="0" lon="0">
        <time>2020-12-06T09:24:37.631000+00:00</time>
      </trkpt>
      <trkpt lat="0" lon="0">
        <time>2020-12-06T09:24:37.635000+00:00</time>
      </trkpt>
      <trkpt lat="0" lon="0">
        <time>2020-12-06T09:24:37.637000+00:00</time>
      </trkpt>
      <trkpt lat="47.33788" lon="-1.27769">
        <ele>13</ele>
        <time>2020-12-06T09:24:38.639000+00:00</time>
      </trkpt>
      <trkpt lat="0" lon="0">
        <time>2020-12-06T09:24:38.648000+00:00</time>
      </trkpt>
      <trkpt lat="0" lon="0">
        <time>2020-12-06T09:24:38.649000+00:00</time>
      </trkpt>
      <trkpt lat="0" lon="0">
        <time>2020-12-06T09:24:38.650000+00:00</time>
      </trkpt>
      <trkpt lat="47.33782" lon="-1.27766">
        <ele>13</ele>
        <time>2020-12-06T09:24:39.693000+00:00</time>
      </trkpt>
      <trkpt lat="0" lon="0">
        <time>2020-12-06T09:24:39.698000+00:00</time>
      </trkpt>
      <trkpt lat="0" lon="0">
        <time>2020-12-06T09:24:39.702000+00:00</time>
      </trkpt>
      <trkpt lat="0" lon="0">
        <time>2020-12-06T09:24:39.715000+00:00</time>
      </trkpt>
      <trkpt lat="47.33776" lon="-1.27763">
        <ele>14</ele>
        <time>2020-12-06T09:24:40.669000+00:00</time>
      </trkpt>
      <trkpt lat="0" lon="0">
        <time>2020-12-06T09:24:40.692000+00:00</time>
      </trkpt>
      <trkpt lat="0" lon="0">
        <time>2020-12-06T09:24:40.696000+00:00</time>
      </trkpt>
      <trkpt lat="0" lon="0">
        <time>2020-12-06T09:24:40.697000+00:00</time>
      </trkpt>
      <trkpt lat="47.33771" lon="-1.27761">
        <ele>14</ele>
        <time>2020-12-06T09:24:41.641000+00:00</time>
      </trkpt>
      <trkpt lat="0" lon="0">
        <time>2020-12-06T09:24:41.654000+00:00</time>
      </trkpt>
      <trkpt lat="0" lon="0">
        <time>2020-12-06T09:24:41.660000+00:00</time>
      </trkpt>
      <trkpt lat="0" lon="0">
        <time>2020-12-06T09:24:41.664000+00:00</time>
      </trkpt>
      <trkpt lat="47.33765" lon="-1.27759">
        <ele>15</ele>
        <time>2020-12-06T09:24:42.631000+00:00</time>
      </trkpt>
      <trkpt lat="0" lon="0">
        <time>2020-12-06T09:24:42.647000+00:00</time>
      </trkpt>
      <trkpt lat="0" lon="0">
        <time>2020-12-06T09:24:42.656000+00:00</time>
      </trkpt>
      <trkpt lat="0" lon="0">
        <time>2020-12-06T09:24:42.659000+00:00</time>
      </trkpt>
      <trkpt lat="47.3376" lon="-1.27757">
        <ele>15</ele>
        <time>2020-12-06T09:24:43.620000+00:00</time>
      </trkpt>
      <trkpt lat="0" lon="0">
        <time>2020-12-06T09:24:43.628000+00:00</time>
      </trkpt>
      <trkpt lat="0" lon="0">
        <time>2020-12-06T09:24:43.630000+00:00</time>
      </trkpt>
      <trkpt lat="47.33755" lon="-1.27754">
        <ele>16</ele>
        <time>2020-12-06T09:24:44.623000+00:00</time>
      </trkpt>
      <trkpt lat="0" lon="0">
        <time>2020-12-06T09:24:44.626000+00:00</time>
      </trkpt>
      <trkpt lat="0" lon="0">
        <time>2020-12-06T09:24:44.629000+00:00</time>
      </trkpt>
      <trkpt lat="0" lon="0">
        <time>2020-12-06T09:24:44.634000+00:00</time>
      </trkpt>
      <trkpt lat="47.3375" lon="-1.27753">
        <ele>16</ele>
        <time>2020-12-06T09:24:45.648000+00:00</time>
      </trkpt>
      <trkpt lat="0" lon="0">
        <time>2020-12-06T09:24:45.656000+00:00</time>
      </trkpt>
      <trkpt lat="0" lon="0">
        <time>2020-12-06T09:24:45.663000+00:00</time>
      </trkpt>
      <trkpt lat="0" lon="0">
        <time>2020-12-06T09:24:45.667000+00:00</time>
      </trkpt>
      <trkpt lat="47.33746" lon="-1.27751">
        <ele>16</ele>
        <time>2020-12-06T09:24:46.659000+00:00</time>
      </trkpt>
      <trkpt lat="0" lon="0">
        <time>2020-12-06T09:24:46.662000+00:00</time>
      </trkpt>
      <trkpt lat="0" lon="0">
        <time>2020-12-06T09:24:46.671000+00:00</time>
      </trkpt>
      <trkpt lat="0" lon="0">
        <time>2020-12-06T09:24:46.674000+00:00</time>
      </trkpt>
      <trkpt lat="47.33741" lon="-1.27749">
        <ele>17</ele>
        <time>2020-12-06T09:24:47.669000+00:00</time>
      </trkpt>
      <trkpt lat="0" lon="0">
        <time>2020-12-06T09:24:47.684000+00:00</time>
      </trkpt>
      <trkpt lat="0" lon="0">
        <time>2020-12-06T09:24:47.690000+00:00</time>
      </trkpt>
      <trkpt lat="0" lon="0">
        <time>2020-12-06T09:24:47.697000+00:00</time>
      </trkpt>
      <trkpt lat="47.33738" lon="-1.27747">
        <ele>17</ele>
        <time>2020-12-06T09:24:48.675000+00:00</time>
      </trkpt>
      <trkpt lat="0" lon="0">
        <time>2020-12-06T09:24:48.684000+00:00</time>
      </trkpt>
      <trkpt lat="0" lon="0">
        <time>2020-12-06T09:24:48.690000+00:00</time>
      </trkpt>
      <trkpt lat="0" lon="0">
        <time>2020-12-06T09:24:48.692000+00:00</time>
      </trkpt>
      <trkpt lat="47.33735" lon="-1.27745">
        <ele>17</ele>
        <time>2020-12-06T09:24:49.641000+00:00</time>
      </trkpt>
      <trkpt lat="0" lon="0">
        <time>2020-12-06T09:24:49.654000+00:00</time>
      </trkpt>
      <trkpt lat="0" lon="0">
        <time>2020-12-06T09:24:49.659000+00:00</time>
      </trkpt>
      <trkpt lat="0" lon="0">
        <time>2020-12-06T09:24:49.662000+00:00</time>
      </trkpt>
      <trkpt lat="47.33733" lon="-1.27743">
        <ele>18</ele>
        <time>2020-12-06T09:24:50.651000+00:00</time>
      </trkpt>
      <trkpt lat="0" lon="0">
        <time>2020-12-06T09:24:50.656000+00:00</time>
      </trkpt>
      <trkpt lat="0" lon="0">
        <time>2020-12-06T09:24:50.667000+00:00</time>
      </trkpt>
      <trkpt lat="0" lon="0">
        <time>2020-12-06T09:24:50.673000+00:00</time>
      </trkpt>
      <trkpt lat="47.33732" lon="-1.27741">
        <ele>18</ele>
        <time>2020-12-06T09:24:51.642000+00:00</time>
      </trkpt>
      <trkpt lat="0" lon="0">
        <time>2020-12-06T09:24:51.662000+00:00</time>
      </trkpt>
      <trkpt lat="0" lon="0">
        <time>2020-12-06T09:24:51.670000+00:00</time>
      </trkpt>
      <trkpt lat="0" lon="0">
        <time>2020-12-06T09:24:51.672000+00:00</time>
      </trkpt>
      <trkpt lat="47.33733" lon="-1.27739">
        <ele>19</ele>
        <time>2020-12-06T09:24:52.631000+00:00</time>
      </trkpt>
      <trkpt lat="0" lon="0">
        <time>2020-12-06T09:24:52.647000+00:00</time>
      </trkpt>
      <trkpt lat="0" lon="0">
        <time>2020-12-06T09:24:52.650000+00:00</time>
      </trkpt>
      <trkpt lat="0" lon="0">
        <time>2020-12-06T09:24:52.651000+00:00</time>
      </trkpt>
      <trkpt lat="47.33734" lon="-1.27737">
        <ele>19</ele>
        <time>2020-12-06T09:24:53.648000+00:00</time>
      </trkpt>
      <trkpt lat="0" lon="0">
        <time>2020-12-06T09:24:53.661000+00:00</time>
      </trkpt>
      <trkpt lat="0" lon="0">
        <time>2020-12-06T09:24:53.671000+00:00</time>
      </trkpt>
      <trkpt lat="0" lon="0">
        <time>2020-12-06T09:24:53.673000+00:00</time>
      </trkpt>
      <trkpt lat="47.33736" lon="-1.27735">
        <ele>20</ele>
        <time>2020-12-06T09:24:54.651000+00:00</time>
      </trkpt>
      <trkpt lat="0" lon="0">
        <time>2020-12-06T09:24:54.661000+00:00</time>
      </trkpt>
      <trkpt lat="0" lon="0">
        <time>2020-12-06T09:24:54.665000+00:00</time>
      </trkpt>
      <trkpt lat="0" lon="0">
        <time>2020-12-06T09:24:54.666000+00:00</time>
      </trkpt>
      <trkpt lat="47.33739" lon="-1.27733">
        <ele>20</ele>
        <time>2020-12-06T09:24:55.668000+00:00</time>
      </trkpt>
      <trkpt lat="0" lon="0">
        <time>2020-12-06T09:24:55.673000+00:00</time>
      </trkpt>
      <trkpt lat="0" lon="0">
        <time>2020-12-06T09:24:55.682000+00:00</time>
      </trkpt>
      <trkpt lat="0" lon="0">
        <time>2020-12-06T09:24:55.684000+00:00</time>
      </trkpt>
      <trkpt lat="47.33742" lon="-1.27731">
        <ele>21</ele>
        <time>2020-12-06T09:24:56.663000+00:00</time>
      </trkpt>
      <trkpt lat="0" lon="0">
        <time>2020-12-06T09:24:56.678000+00:00</time>
      </trkpt>
      <trkpt lat="0" lon="0">
        <time>2020-12-06T09:24:56.682000+00:00</time>
      </trkpt>
      <trkpt lat="0" lon="0">
        <time>2020-12-06T09:24:56.684000+00:00</time>
      </trkpt>
      <trkpt lat="47.33746" lon="-1.2773">
        <ele>21</ele>
        <time>2020-12-06T09:24:57.635000+00:00</time>
      </trkpt>
      <trkpt lat="0" lon="0">
        <time>2020-12-06T09:24:57.638000+00:00</time>
      </trkpt>
      <trkpt lat="0" lon="0">
        <time>2020-12-06T09:24:57.642000+00:00</time>
      </trkpt>
      <trkpt lat="0" lon="0">
        <time>2020-12-06T09:24:57.644000+00:00</time>
      </trkpt>
      <trkpt lat="47.3375" lon="-1.27729">
        <ele>21</ele>
        <time>2020-12-06T09:24:58.654000+00:00</time>
      </trkpt>
      <trkpt lat="0" lon="0">
        <time>2020-12-06T09:24:58.664000+00:00</time>
      </trkpt>
      <trkpt lat="0" lon="0">
        <time>2020-12-06T09:24:58.673000+00:00</time>
      </trkpt>
      <trkpt lat="0" lon="0">
        <time>2020-12-06T09:24:58.679000+00:00</time>
      </trkpt>
      <trkpt lat="47.33754" lon="-1.2773">
        <ele>21</ele>
        <time>2020-12-06T09:24:59.634000+00:00</time>
      </trkpt>
      <trkpt lat="0" lon="0">
        <time>2020-12-06T09:24:59.641000+00:00</time>
      </trkpt>
      <trkpt lat="0" lon="0">
        <time>2020-12-06T09:24:59.646000+00:00</time>
      </trkpt>
      <trkpt lat="0" lon="0">
        <time>2020-12-06T09:24:59.648000+00:00</time>
      </trkpt>
      <trkpt lat="47.33759" lon="-1.27731">
        <ele>20</ele>
        <time>2020-12-06T09:25:00.683000+00:00</time>
      </trkpt>
      <trkpt lat="0" lon="0">
        <time>2020-12-06T09:25:00.685000+00:00</time>
      </trkpt>
      <trkpt lat="0" lon="0">
        <time>2020-12-06T09:25:00.689000+00:00</time>
      </trkpt>
      <trkpt lat="0" lon="0">
        <time>2020-12-06T09:25:00.690000+00:00</time>
      </trkpt>
      <trkpt lat="47.33763" lon="-1.27733">
        <ele>20</ele>
        <time>2020-12-06T09:25:01.641000+00:00</time>
      </trkpt>
      <trkpt lat="0" lon="0">
        <time>2020-12-06T09:25:01.644000+00:00</time>
      </trkpt>
      <trkpt lat="0" lon="0">
        <time>2020-12-06T09:25:01.653000+00:00</time>
      </trkpt>
      <trkpt lat="0" lon="0">
        <time>2020-12-06T09:25:01.662000+00:00</time>
      </trkpt>
      <trkpt lat="47.33768" lon="-1.27735">
        <ele>19</ele>
        <time>2020-12-06T09:25:02.626000+00:00</time>
      </trkpt>
      <trkpt lat="0" lon="0">
        <time>2020-12-06T09:25:02.635000+00:00</time>
      </trkpt>
      <trkpt lat="0" lon="0">
        <time>2020-12-06T09:25:02.639000+00:00</time>
      </trkpt>
      <trkpt lat="0" lon="0">
        <time>2020-12-06T09:25:02.645000+00:00</time>
      </trkpt>
      <trkpt lat="47.33773" lon="-1.27737">
        <ele>18</ele>
        <time>2020-12-06T09:25:03.639000+00:00</time>
      </trkpt>
      <trkpt lat="0" lon="0">
        <time>2020-12-06T09:25:03.649000+00:00</time>
      </trkpt>
      <trkpt lat="0" lon="0">
        <time>2020-12-06T09:25:03.655000+00:00</time>
      </trkpt>
      <trkpt lat="0" lon="0">
        <time>2020-12-06T09:25:03.665000+00:00</time>
      </trkpt>
      <trkpt lat="47.33778" lon="-1.27739">
        <ele>17</ele>
        <time>2020-12-06T09:25:04.646000+00:00</time>
      </trkpt>
      <trkpt lat="0" lon="0">
        <time>2020-12-06T09:25:04.651000+00:00</time>
      </trkpt>
      <trkpt lat="0" lon="0">
        <time>2020-12-06T09:25:04.655000+00:00</time>
      </trkpt>
      <trkpt lat="0" lon="0">
        <time>2020-12-06T09:25:04.658000+00:00</time>
      </trkpt>
      <trkpt lat="47.33784" lon="-1.2774">
        <ele>16</ele>
        <time>2020-12-06T09:25:05.655000+00:00</time>
      </trkpt>
      <trkpt lat="0" lon="0">
        <time>2020-12-06T09:25:05.658000+00:00</time>
      </trkpt>
      <trkpt lat="0" lon="0">
        <time>2020-12-06T09:25:05.672000+00:00</time>
      </trkpt>
      <trkpt lat="0" lon="0">
        <time>2020-12-06T09:25:05.674000+00:00</time>
      </trkpt>
      <trkpt lat="47.33789" lon="-1.27742">
        <ele>16</ele>
        <time>2020-12-06T09:25:06.627000+00:00</time>
      </trkpt>
      <trkpt lat="0" lon="0">
        <time>2020-12-06T09:25:06.632000+00:00</time>
      </trkpt>
      <trkpt lat="0" lon="0">
        <time>2020-12-06T09:25:06.635000+00:00</time>
      </trkpt>
      <trkpt lat="0" lon="0">
        <time>2020-12-06T09:25:06.644000+00:00</time>
      </trkpt>
      <trkpt lat="47.33794" lon="-1.27745">
        <ele>15</ele>
        <time>2020-12-06T09:25:07.654000+00:00</time>
      </trkpt>
      <trkpt lat="0" lon="0">
        <time>2020-12-06T09:25:07.659000+00:00</time>
      </trkpt>
      <trkpt lat="0" lon="0">
        <time>2020-12-06T09:25:07.664000+00:00</time>
      </trkpt>
      <trkpt lat="0" lon="0">
        <time>2020-12-06T09:25:07.666000+00:00</time>
      </trkpt>
      <trkpt lat="47.338" lon="-1.27747">
        <ele>14</ele>
        <time>2020-12-06T09:25:08.641000+00:00</time>
      </trkpt>
      <trkpt lat="0" lon="0">
        <time>2020-12-06T09:25:08.644000+00:00</time>
      </trkpt>
      <trkpt lat="0" lon="0">
        <time>2020-12-06T09:25:08.656000+00:00</time>
      </trkpt>
      <trkpt lat="0" lon="0">
        <time>2020-12-06T09:25:08.658000+00:00</time>
      </trkpt>
      <trkpt lat="47.33805" lon="-1.27749">
        <ele>13</ele>
        <time>2020-12-06T09:25:09.655000+00:00</time>
      </trkpt>
      <trkpt lat="0" lon="0">
        <time>2020-12-06T09:25:09.673000+00:00</time>
      </trkpt>
      <trkpt lat="0" lon="0">
        <time>2020-12-06T09:25:09.678000+00:00</time>
      </trkpt>
      <trkpt lat="0" lon="0">
        <time>2020-12-06T09:25:09.682000+00:00</time>
      </trkpt>
      <trkpt lat="47.33811" lon="-1.27751">
        <ele>13</ele>
        <time>2020-12-06T09:25:10.652000+00:00</time>
      </trkpt>
      <trkpt lat="0" lon="0">
        <time>2020-12-06T09:25:10.655000+00:00</time>
      </trkpt>
      <trkpt lat="0" lon="0">
        <time>2020-12-06T09:25:10.661000+00:00</time>
      </trkpt>
      <trkpt lat="0" lon="0">
        <time>2020-12-06T09:25:10.663000+00:00</time>
      </trkpt>
      <trkpt lat="47.33817" lon="-1.27753">
        <ele>12</ele>
        <time>2020-12-06T09:25:11.658000+00:00</time>
      </trkpt>
      <trkpt lat="0" lon="0">
        <time>2020-12-06T09:25:11.668000+00:00</time>
      </trkpt>
      <trkpt lat="0" lon="0">
        <time>2020-12-06T09:25:11.675000+00:00</time>
      </trkpt>
      <trkpt lat="0" lon="0">
        <time>2020-12-06T09:25:11.677000+00:00</time>
      </trkpt>
      <trkpt lat="47.33823" lon="-1.27755">
        <ele>12</ele>
        <time>2020-12-06T09:25:12.643000+00:00</time>
      </trkpt>
      <trkpt lat="0" lon="0">
        <time>2020-12-06T09:25:12.656000+00:00</time>
      </trkpt>
      <trkpt lat="0" lon="0">
        <time>2020-12-06T09:25:12.659000+00:00</time>
      </trkpt>
      <trkpt lat="0" lon="0">
        <time>2020-12-06T09:25:12.661000+00:00</time>
      </trkpt>
      <trkpt lat="47.33828" lon="-1.27757">
        <ele>12</ele>
        <time>2020-12-06T09:25:13.634000+00:00</time>
      </trkpt>
      <trkpt lat="0" lon="0">
        <time>2020-12-06T09:25:13.645000+00:00</time>
      </trkpt>
      <trkpt lat="0" lon="0">
        <time>2020-12-06T09:25:13.655000+00:00</time>
      </trkpt>
      <trkpt lat="0" lon="0">
        <time>2020-12-06T09:25:13.657000+00:00</time>
      </trkpt>
      <trkpt lat="47.33834" lon="-1.27759">
        <ele>11</ele>
        <time>2020-12-06T09:25:14.634000+00:00</time>
      </trkpt>
      <trkpt lat="0" lon="0">
        <time>2020-12-06T09:25:14.636000+00:00</time>
      </trkpt>
      <trkpt lat="0" lon="0">
        <time>2020-12-06T09:25:14.640000+00:00</time>
      </trkpt>
      <trkpt lat="0" lon="0">
        <time>2020-12-06T09:25:14.641000+00:00</time>
      </trkpt>
      <trkpt lat="47.3384" lon="-1.27761">
        <ele>11</ele>
        <time>2020-12-06T09:25:15.650000+00:00</time>
      </trkpt>
      <trkpt lat="0" lon="0">
        <time>2020-12-06T09:25:15.663000+00:00</time>
      </trkpt>
      <trkpt lat="0" lon="0">
        <time>2020-12-06T09:25:15.673000+00:00</time>
      </trkpt>
      <trkpt lat="0" lon="0">
        <time>2020-12-06T09:25:15.678000+00:00</time>
      </trkpt>
      <trkpt lat="47.33846" lon="-1.27763">
        <ele>11</ele>
        <time>2020-12-06T09:25:16.668000+00:00</time>
      </trkpt>
      <trkpt lat="0" lon="0">
        <time>2020-12-06T09:25:16.684000+00:00</time>
      </trkpt>
      <trkpt lat="0" lon="0">
        <time>2020-12-06T09:25:16.689000+00:00</time>
      </trkpt>
      <trkpt lat="0" lon="0">
        <time>2020-12-06T09:25:16.693000+00:00</time>
      </trkpt>
      <trkpt lat="47.33851" lon="-1.27765">
        <ele>11</ele>
        <time>2020-12-06T09:25:17.635000+00:00</time>
      </trkpt>
      <trkpt lat="0" lon="0">
        <time>2020-12-06T09:25:17.639000+00:00</time>
      </trkpt>
      <trkpt lat="0" lon="0">
        <time>2020-12-06T09:25:17.649000+00:00</time>
      </trkpt>
      <trkpt lat="0" lon="0">
        <time>2020-12-06T09:25:17.651000+00:00</time>
      </trkpt>
      <trkpt lat="47.33857" lon="-1.27767">
        <ele>11</ele>
        <time>2020-12-06T09:25:18.660000+00:00</time>
      </trkpt>
      <trkpt lat="0" lon="0">
        <time>2020-12-06T09:25:18.668000+00:00</time>
      </trkpt>
      <trkpt lat="0" lon="0">
        <time>2020-12-06T09:25:18.676000+00:00</time>
      </trkpt>
      <trkpt lat="0" lon="0">
        <time>2020-12-06T09:25:18.678000+00:00</time>
      </trkpt>
      <trkpt lat="47.33863" lon="-1.27769">
        <ele>10</ele>
        <time>2020-12-06T09:25:19.647000+00:00</time>
      </trkpt>
      <trkpt lat="0" lon="0">
        <time>2020-12-06T09:25:19.657000+00:00</time>
      </trkpt>
      <trkpt lat="0" lon="0">
        <time>2020-12-06T09:25:19.667000+00:00</time>
      </trkpt>
      <trkpt lat="0" lon="0">
        <time>2020-12-06T09:25:19.674000+00:00</time>
      </trkpt>
      <trkpt lat="47.33869" lon="-1.2777">
        <ele>10</ele>
        <time>2020-12-06T09:25:20.619000+00:00</time>
      </trkpt>
      <trkpt lat="0" lon="0">
        <time>2020-12-06T09:25:20.631000+00:00</time>
      </trkpt>
      <trkpt lat="0" lon="0">
        <time>2020-12-06T09:25:20.642000+00:00</time>
      </trkpt>
      <trkpt lat="0" lon="0">
        <time>2020-12-06T09:25:20.643000+00:00</time>
      </trkpt>
      <trkpt lat="47.33875" lon="-1.27772">
        <ele>10</ele>
        <time>2020-12-06T09:25:21.631000+00:00</time>
      </trkpt>
      <trkpt lat="0" lon="0">
        <time>2020-12-06T09:25:21.635000+00:00</time>
      </trkpt>
      <trkpt lat="0" lon="0">
        <time>2020-12-06T09:25:21.645000+00:00</time>
      </trkpt>
      <trkpt lat="0" lon="0">
        <time>2020-12-06T09:25:21.648000+00:00</time>
      </trkpt>
      <trkpt lat="47.33881" lon="-1.27774">
        <ele>10</ele>
        <time>2020-12-06T09:25:22.635000+00:00</time>
      </trkpt>
      <trkpt lat="0" lon="0">
        <time>2020-12-06T09:25:22.639000+00:00</time>
      </trkpt>
      <trkpt lat="0" lon="0">
        <time>2020-12-06T09:25:22.643000+00:00</time>
      </trkpt>
      <trkpt lat="0" lon="0">
        <time>2020-12-06T09:25:22.647000+00:00</time>
      </trkpt>
      <trkpt lat="47.33887" lon="-1.27776">
        <ele>10</ele>
        <time>2020-12-06T09:25:23.605000+00:00</time>
      </trkpt>
      <trkpt lat="0" lon="0">
        <time>2020-12-06T09:25:23.606000+00:00</time>
      </trkpt>
      <trkpt lat="0" lon="0">
        <time>2020-12-06T09:25:23.609000+00:00</time>
      </trkpt>
      <trkpt lat="0" lon="0">
        <time>2020-12-06T09:25:23.610000+00:00</time>
      </trkpt>
      <trkpt lat="47.33893" lon="-1.27778">
        <ele>10</ele>
        <time>2020-12-06T09:25:24.606000+00:00</time>
      </trkpt>
      <trkpt lat="0" lon="0">
        <time>2020-12-06T09:25:24.613000+00:00</time>
      </trkpt>
      <trkpt lat="0" lon="0">
        <time>2020-12-06T09:25:24.615000+00:00</time>
      </trkpt>
      <trkpt lat="0" lon="0">
        <time>2020-12-06T09:25:24.616000+00:00</time>
      </trkpt>
      <trkpt lat="47.33899" lon="-1.2778">
        <ele>10</ele>
        <time>2020-12-06T09:25:25.636000+00:00</time>
      </trkpt>
      <trkpt lat="0" lon="0">
        <time>2020-12-06T09:25:25.655000+00:00</time>
      </trkpt>
      <trkpt lat="0" lon="0">
        <time>2020-12-06T09:25:25.662000+00:00</time>
      </trkpt>
      <trkpt lat="0" lon="0">
        <time>2020-12-06T09:25:25.664000+00:00</time>
      </trkpt>
      <trkpt lat="47.33905" lon="-1.27782">
        <ele>10</ele>
        <time>2020-12-06T09:25:26.643000+00:00</time>
      </trkpt>
      <trkpt lat="0" lon="0">
        <time>2020-12-06T09:25:26.647000+00:00</time>
      </trkpt>
      <trkpt lat="0" lon="0">
        <time>2020-12-06T09:25:26.655000+00:00</time>
      </trkpt>
      <trkpt lat="0" lon="0">
        <time>2020-12-06T09:25:26.658000+00:00</time>
      </trkpt>
      <trkpt lat="47.33911" lon="-1.27784">
        <ele>10</ele>
        <time>2020-12-06T09:25:27.642000+00:00</time>
      </trkpt>
      <trkpt lat="0" lon="0">
        <time>2020-12-06T09:25:27.655000+00:00</time>
      </trkpt>
      <trkpt lat="0" lon="0">
        <time>2020-12-06T09:25:27.660000+00:00</time>
      </trkpt>
      <trkpt lat="0" lon="0">
        <time>2020-12-06T09:25:27.668000+00:00</time>
      </trkpt>
      <trkpt lat="47.33917" lon="-1.27786">
        <ele>9</ele>
        <time>2020-12-06T09:25:28.616000+00:00</time>
      </trkpt>
      <trkpt lat="0" lon="0">
        <time>2020-12-06T09:25:28.624000+00:00</time>
      </trkpt>
      <trkpt lat="0" lon="0">
        <time>2020-12-06T09:25:28.637000+00:00</time>
      </trkpt>
      <trkpt lat="0" lon="0">
        <time>2020-12-06T09:25:28.639000+00:00</time>
      </trkpt>
      <trkpt lat="47.33924" lon="-1.27787">
        <ele>9</ele>
        <time>2020-12-06T09:25:29.655000+00:00</time>
      </trkpt>
      <trkpt lat="0" lon="0">
        <time>2020-12-06T09:25:29.668000+00:00</time>
      </trkpt>
      <trkpt lat="0" lon="0">
        <time>2020-12-06T09:25:29.679000+00:00</time>
      </trkpt>
      <trkpt lat="0" lon="0">
        <time>2020-12-06T09:25:29.690000+00:00</time>
      </trkpt>
      <trkpt lat="47.3393" lon="-1.27789">
        <ele>9</ele>
        <time>2020-12-06T09:25:30.667000+00:00</time>
      </trkpt>
      <trkpt lat="0" lon="0">
        <time>2020-12-06T09:25:30.679000+00:00</time>
      </trkpt>
      <trkpt lat="0" lon="0">
        <time>2020-12-06T09:25:30.684000+00:00</time>
      </trkpt>
      <trkpt lat="0" lon="0">
        <time>2020-12-06T09:25:30.686000+00:00</time>
      </trkpt>
      <trkpt lat="47.33936" lon="-1.27791">
        <ele>9</ele>
        <time>2020-12-06T09:25:31.708000+00:00</time>
      </trkpt>
      <trkpt lat="0" lon="0">
        <time>2020-12-06T09:25:31.732000+00:00</time>
      </trkpt>
      <trkpt lat="0" lon="0">
        <time>2020-12-06T09:25:31.743000+00:00</time>
      </trkpt>
      <trkpt lat="0" lon="0">
        <time>2020-12-06T09:25:31.750000+00:00</time>
      </trkpt>
      <trkpt lat="47.33942" lon="-1.27793">
        <ele>8</ele>
        <time>2020-12-06T09:25:32.673000+00:00</time>
      </trkpt>
      <trkpt lat="0" lon="0">
        <time>2020-12-06T09:25:32.676000+00:00</time>
      </trkpt>
      <trkpt lat="0" lon="0">
        <time>2020-12-06T09:25:32.691000+00:00</time>
      </trkpt>
      <trkpt lat="0" lon="0">
        <time>2020-12-06T09:25:32.693000+00:00</time>
      </trkpt>
      <trkpt lat="47.33948" lon="-1.27794">
        <ele>8</ele>
        <time>2020-12-06T09:25:33.596000+00:00</time>
      </trkpt>
      <trkpt lat="0" lon="0">
        <time>2020-12-06T09:25:33.598000+00:00</time>
      </trkpt>
      <trkpt lat="0" lon="0">
        <time>2020-12-06T09:25:33.604000+00:00</time>
      </trkpt>
      <trkpt lat="0" lon="0">
        <time>2020-12-06T09:25:33.610000+00:00</time>
      </trkpt>
      <trkpt lat="47.33955" lon="-1.27796">
        <ele>8</ele>
        <time>2020-12-06T09:25:34.692000+00:00</time>
      </trkpt>
      <trkpt lat="0" lon="0">
        <time>2020-12-06T09:25:34.706000+00:00</time>
      </trkpt>
      <trkpt lat="0" lon="0">
        <time>2020-12-06T09:25:34.710000+00:00</time>
      </trkpt>
      <trkpt lat="0" lon="0">
        <time>2020-12-06T09:25:34.712000+00:00</time>
      </trkpt>
      <trkpt lat="47.33961" lon="-1.27798">
        <ele>7</ele>
        <time>2020-12-06T09:25:35.681000+00:00</time>
      </trkpt>
      <trkpt lat="0" lon="0">
        <time>2020-12-06T09:25:35.684000+00:00</time>
      </trkpt>
      <trkpt lat="0" lon="0">
        <time>2020-12-06T09:25:35.694000+00:00</time>
      </trkpt>
      <trkpt lat="0" lon="0">
        <time>2020-12-06T09:25:35.696000+00:00</time>
      </trkpt>
      <trkpt lat="47.33967" lon="-1.278">
        <ele>7</ele>
        <time>2020-12-06T09:25:36.707000+00:00</time>
      </trkpt>
      <trkpt lat="0" lon="0">
        <time>2020-12-06T09:25:36.724000+00:00</time>
      </trkpt>
      <trkpt lat="0" lon="0">
        <time>2020-12-06T09:25:36.727000+00:00</time>
      </trkpt>
      <trkpt lat="0" lon="0">
        <time>2020-12-06T09:25:36.729000+00:00</time>
      </trkpt>
      <trkpt lat="47.33973" lon="-1.27802">
        <ele>7</ele>
        <time>2020-12-06T09:25:37.661000+00:00</time>
      </trkpt>
      <trkpt lat="0" lon="0">
        <time>2020-12-06T09:25:37.665000+00:00</time>
      </trkpt>
      <trkpt lat="0" lon="0">
        <time>2020-12-06T09:25:37.667000+00:00</time>
      </trkpt>
      <trkpt lat="0" lon="0">
        <time>2020-12-06T09:25:37.673000+00:00</time>
      </trkpt>
      <trkpt lat="47.33979" lon="-1.27804">
        <ele>6</ele>
        <time>2020-12-06T09:25:38.585000+00:00</time>
      </trkpt>
      <trkpt lat="0" lon="0">
        <time>2020-12-06T09:25:38.586000+00:00</time>
      </trkpt>
      <trkpt lat="0" lon="0">
        <time>2020-12-06T09:25:38.588000+00:00</time>
      </trkpt>
      <trkpt lat="0" lon="0">
        <time>2020-12-06T09:25:38.591000+00:00</time>
      </trkpt>
      <trkpt lat="47.33986" lon="-1.27807">
        <ele>6</ele>
        <time>2020-12-06T09:25:39.676000+00:00</time>
      </trkpt>
      <trkpt lat="0" lon="0">
        <time>2020-12-06T09:25:39.690000+00:00</time>
      </trkpt>
      <trkpt lat="0" lon="0">
        <time>2020-12-06T09:25:39.692000+00:00</time>
      </trkpt>
      <trkpt lat="0" lon="0">
        <time>2020-12-06T09:25:39.693000+00:00</time>
      </trkpt>
      <trkpt lat="47.33992" lon="-1.27809">
        <ele>6</ele>
        <time>2020-12-06T09:25:40.701000+00:00</time>
      </trkpt>
      <trkpt lat="0" lon="0">
        <time>2020-12-06T09:25:40.705000+00:00</time>
      </trkpt>
      <trkpt lat="0" lon="0">
        <time>2020-12-06T09:25:40.711000+00:00</time>
      </trkpt>
      <trkpt lat="0" lon="0">
        <time>2020-12-06T09:25:40.712000+00:00</time>
      </trkpt>
      <trkpt lat="47.33999" lon="-1.27811">
        <ele>6</ele>
        <time>2020-12-06T09:25:41.686000+00:00</time>
      </trkpt>
      <trkpt lat="0" lon="0">
        <time>2020-12-06T09:25:41.699000+00:00</time>
      </trkpt>
      <trkpt lat="0" lon="0">
        <time>2020-12-06T09:25:41.706000+00:00</time>
      </trkpt>
      <trkpt lat="0" lon="0">
        <time>2020-12-06T09:25:41.715000+00:00</time>
      </trkpt>
      <trkpt lat="47.34005" lon="-1.27812">
        <ele>5</ele>
        <time>2020-12-06T09:25:42.674000+00:00</time>
      </trkpt>
      <trkpt lat="0" lon="0">
        <time>2020-12-06T09:25:42.679000+00:00</time>
      </trkpt>
      <trkpt lat="0" lon="0">
        <time>2020-12-06T09:25:42.685000+00:00</time>
      </trkpt>
      <trkpt lat="0" lon="0">
        <time>2020-12-06T09:25:42.687000+00:00</time>
      </trkpt>
      <trkpt lat="47.34011" lon="-1.27814">
        <ele>5</ele>
        <time>2020-12-06T09:25:43.661000+00:00</time>
      </trkpt>
      <trkpt lat="0" lon="0">
        <time>2020-12-06T09:25:43.662000+00:00</time>
      </trkpt>
      <trkpt lat="0" lon="0">
        <time>2020-12-06T09:25:43.664000+00:00</time>
      </trkpt>
      <trkpt lat="47.34018" lon="-1.27816">
        <ele>5</ele>
        <time>2020-12-06T09:25:44.663000+00:00</time>
      </trkpt>
      <trkpt lat="0" lon="0">
        <time>2020-12-06T09:25:44.686000+00:00</time>
      </trkpt>
      <trkpt lat="0" lon="0">
        <time>2020-12-06T09:25:44.689000+00:00</time>
      </trkpt>
      <trkpt lat="0" lon="0">
        <time>2020-12-06T09:25:44.694000+00:00</time>
      </trkpt>
      <trkpt lat="47.34024" lon="-1.27818">
        <ele>5</ele>
        <time>2020-12-06T09:25:45.686000+00:00</time>
      </trkpt>
      <trkpt lat="0" lon="0">
        <time>2020-12-06T09:25:45.690000+00:00</time>
      </trkpt>
      <trkpt lat="0" lon="0">
        <time>2020-12-06T09:25:45.698000+00:00</time>
      </trkpt>
      <trkpt lat="0" lon="0">
        <time>2020-12-06T09:25:45.700000+00:00</time>
      </trkpt>
      <trkpt lat="47.34031" lon="-1.2782">
        <ele>4</ele>
        <time>2020-12-06T09:25:46.690000+00:00</time>
      </trkpt>
      <trkpt lat="0" lon="0">
        <time>2020-12-06T09:25:46.709000+00:00</time>
      </trkpt>
      <trkpt lat="0" lon="0">
        <time>2020-12-06T09:25:46.716000+00:00</time>
      </trkpt>
      <trkpt lat="0" lon="0">
        <time>2020-12-06T09:25:46.721000+00:00</time>
      </trkpt>
      <trkpt lat="47.34037" lon="-1.27822">
        <ele>4</ele>
        <time>2020-12-06T09:25:47.686000+00:00</time>
      </trkpt>
      <trkpt lat="0" lon="0">
        <time>2020-12-06T09:25:47.703000+00:00</time>
      </trkpt>
      <trkpt lat="0" lon="0">
        <time>2020-12-06T09:25:47.707000+00:00</time>
      </trkpt>
      <trkpt lat="0" lon="0">
        <time>2020-12-06T09:25:47.711000+00:00</time>
      </trkpt>
      <trkpt lat="47.34043" lon="-1.27824">
        <ele>4</ele>
        <time>2020-12-06T09:25:48.671000+00:00</time>
      </trkpt>
      <trkpt lat="0" lon="0">
        <time>2020-12-06T09:25:48.675000+00:00</time>
      </trkpt>
      <trkpt lat="0" lon="0">
        <time>2020-12-06T09:25:48.681000+00:00</time>
      </trkpt>
      <trkpt lat="0" lon="0">
        <time>2020-12-06T09:25:48.685000+00:00</time>
      </trkpt>
      <trkpt lat="47.3405" lon="-1.27826">
        <ele>4</ele>
        <time>2020-12-06T09:25:49.686000+00:00</time>
      </trkpt>
      <trkpt lat="0" lon="0">
        <time>2020-12-06T09:25:49.698000+00:00</time>
      </trkpt>
      <trkpt lat="0" lon="0">
        <time>2020-12-06T09:25:49.708000+00:00</time>
      </trkpt>
      <trkpt lat="0" lon="0">
        <time>2020-12-06T09:25:49.710000+00:00</time>
      </trkpt>
      <trkpt lat="47.34056" lon="-1.27828">
        <ele>3</ele>
        <time>2020-12-06T09:25:50.702000+00:00</time>
      </trkpt>
      <trkpt lat="0" lon="0">
        <time>2020-12-06T09:25:50.706000+00:00</time>
      </trkpt>
      <trkpt lat="0" lon="0">
        <time>2020-12-06T09:25:50.712000+00:00</time>
      </trkpt>
      <trkpt lat="0" lon="0">
        <time>2020-12-06T09:25:50.714000+00:00</time>
      </trkpt>
      <trkpt lat="47.34062" lon="-1.2783">
        <ele>3</ele>
        <time>2020-12-06T09:25:51.694000+00:00</time>
      </trkpt>
      <trkpt lat="0" lon="0">
        <time>2020-12-06T09:25:51.705000+00:00</time>
      </trkpt>
      <trkpt lat="0" lon="0">
        <time>2020-12-06T09:25:51.709000+00:00</time>
      </trkpt>
      <trkpt lat="0" lon="0">
        <time>2020-12-06T09:25:51.718000+00:00</time>
      </trkpt>
      <trkpt lat="47.34069" lon="-1.27833">
        <ele>3</ele>
        <time>2020-12-06T09:25:52.697000+00:00</time>
      </trkpt>
      <trkpt lat="0" lon="0">
        <time>2020-12-06T09:25:52.701000+00:00</time>
      </trkpt>
      <trkpt lat="0" lon="0">
        <time>2020-12-06T09:25:52.720000+00:00</time>
      </trkpt>
      <trkpt lat="0" lon="0">
        <time>2020-12-06T09:25:52.723000+00:00</time>
      </trkpt>
      <trkpt lat="47.34075" lon="-1.27835">
        <ele>3</ele>
        <time>2020-12-06T09:25:53.691000+00:00</time>
      </trkpt>
      <trkpt lat="0" lon="0">
        <time>2020-12-06T09:25:53.693000+00:00</time>
      </trkpt>
      <trkpt lat="0" lon="0">
        <time>2020-12-06T09:25:53.695000+00:00</time>
      </trkpt>
      <trkpt lat="0" lon="0">
        <time>2020-12-06T09:25:53.696000+00:00</time>
      </trkpt>
      <trkpt lat="47.34081" lon="-1.27837">
        <ele>3</ele>
        <time>2020-12-06T09:25:54.674000+00:00</time>
      </trkpt>
      <trkpt lat="0" lon="0">
        <time>2020-12-06T09:25:54.690000+00:00</time>
      </trkpt>
      <trkpt lat="0" lon="0">
        <time>2020-12-06T09:25:54.694000+00:00</time>
      </trkpt>
      <trkpt lat="0" lon="0">
        <time>2020-12-06T09:25:54.695000+00:00</time>
      </trkpt>
      <trkpt lat="47.34088" lon="-1.27839">
        <ele>3</ele>
        <time>2020-12-06T09:25:55.700000+00:00</time>
      </trkpt>
      <trkpt lat="0" lon="0">
        <time>2020-12-06T09:25:55.710000+00:00</time>
      </trkpt>
      <trkpt lat="0" lon="0">
        <time>2020-12-06T09:25:55.714000+00:00</time>
      </trkpt>
      <trkpt lat="0" lon="0">
        <time>2020-12-06T09:25:55.717000+00:00</time>
      </trkpt>
      <trkpt lat="47.34094" lon="-1.27841">
        <ele>3</ele>
        <time>2020-12-06T09:25:56.712000+00:00</time>
      </trkpt>
      <trkpt lat="0" lon="0">
        <time>2020-12-06T09:25:56.725000+00:00</time>
      </trkpt>
      <trkpt lat="0" lon="0">
        <time>2020-12-06T09:25:56.728000+00:00</time>
      </trkpt>
      <trkpt lat="0" lon="0">
        <time>2020-12-06T09:25:56.731000+00:00</time>
      </trkpt>
      <trkpt lat="47.341" lon="-1.27843">
        <ele>3</ele>
        <time>2020-12-06T09:25:57.625000+00:00</time>
      </trkpt>
      <trkpt lat="0" lon="0">
        <time>2020-12-06T09:25:57.628000+00:00</time>
      </trkpt>
      <trkpt lat="0" lon="0">
        <time>2020-12-06T09:25:57.631000+00:00</time>
      </trkpt>
      <trkpt lat="0" lon="0">
        <time>2020-12-06T09:25:57.632000+00:00</time>
      </trkpt>
      <trkpt lat="47.34107" lon="-1.27845">
        <ele>3</ele>
        <time>2020-12-06T09:25:58.670000+00:00</time>
      </trkpt>
      <trkpt lat="0" lon="0">
        <time>2020-12-06T09:25:58.676000+00:00</time>
      </trkpt>
      <trkpt lat="0" lon="0">
        <time>2020-12-06T09:25:58.683000+00:00</time>
      </trkpt>
      <trkpt lat="0" lon="0">
        <time>2020-12-06T09:25:58.684000+00:00</time>
      </trkpt>
      <trkpt lat="47.34113" lon="-1.27847">
        <ele>3</ele>
        <time>2020-12-06T09:25:59.651000+00:00</time>
      </trkpt>
      <trkpt lat="0" lon="0">
        <time>2020-12-06T09:25:59.654000+00:00</time>
      </trkpt>
      <trkpt lat="0" lon="0">
        <time>2020-12-06T09:25:59.656000+00:00</time>
      </trkpt>
      <trkpt lat="0" lon="0">
        <time>2020-12-06T09:25:59.659000+00:00</time>
      </trkpt>
      <trkpt lat="47.34119" lon="-1.27849">
        <ele>3</ele>
        <time>2020-12-06T09:26:00.716000+00:00</time>
      </trkpt>
      <trkpt lat="0" lon="0">
        <time>2020-12-06T09:26:00.725000+00:00</time>
      </trkpt>
      <trkpt lat="0" lon="0">
        <time>2020-12-06T09:26:00.738000+00:00</time>
      </trkpt>
      <trkpt lat="0" lon="0">
        <time>2020-12-06T09:26:00.749000+00:00</time>
      </trkpt>
      <trkpt lat="47.34126" lon="-1.27851">
        <ele>3</ele>
        <time>2020-12-06T09:26:01.669000+00:00</time>
      </trkpt>
      <trkpt lat="0" lon="0">
        <time>2020-12-06T09:26:01.681000+00:00</time>
      </trkpt>
      <trkpt lat="0" lon="0">
        <time>2020-12-06T09:26:01.690000+00:00</time>
      </trkpt>
      <trkpt lat="0" lon="0">
        <time>2020-12-06T09:26:01.691000+00:00</time>
      </trkpt>
      <trkpt lat="47.34132" lon="-1.27853">
        <ele>3</ele>
        <time>2020-12-06T09:26:02.700000+00:00</time>
      </trkpt>
      <trkpt lat="0" lon="0">
        <time>2020-12-06T09:26:02.706000+00:00</time>
      </trkpt>
      <trkpt lat="0" lon="0">
        <time>2020-12-06T09:26:02.709000+00:00</time>
      </trkpt>
      <trkpt lat="0" lon="0">
        <time>2020-12-06T09:26:02.712000+00:00</time>
      </trkpt>
      <trkpt lat="47.34138" lon="-1.27855">
        <ele>3</ele>
        <time>2020-12-06T09:26:03.663000+00:00</time>
      </trkpt>
      <trkpt lat="0" lon="0">
        <time>2020-12-06T09:26:03.688000+00:00</time>
      </trkpt>
      <trkpt lat="0" lon="0">
        <time>2020-12-06T09:26:03.695000+00:00</time>
      </trkpt>
      <trkpt lat="0" lon="0">
        <time>2020-12-06T09:26:03.696000+00:00</time>
      </trkpt>
      <trkpt lat="47.34145" lon="-1.27857">
        <ele>3</ele>
        <time>2020-12-06T09:26:04.672000+00:00</time>
      </trkpt>
      <trkpt lat="0" lon="0">
        <time>2020-12-06T09:26:04.689000+00:00</time>
      </trkpt>
      <trkpt lat="0" lon="0">
        <time>2020-12-06T09:26:04.694000+00:00</time>
      </trkpt>
      <trkpt lat="0" lon="0">
        <time>2020-12-06T09:26:04.695000+00:00</time>
      </trkpt>
      <trkpt lat="47.34151" lon="-1.27859">
        <ele>3</ele>
        <time>2020-12-06T09:26:05.696000+00:00</time>
      </trkpt>
      <trkpt lat="0" lon="0">
        <time>2020-12-06T09:26:05.704000+00:00</time>
      </trkpt>
      <trkpt lat="0" lon="0">
        <time>2020-12-06T09:26:05.712000+00:00</time>
      </trkpt>
      <trkpt lat="0" lon="0">
        <time>2020-12-06T09:26:05.714000+00:00</time>
      </trkpt>
      <trkpt lat="47.34157" lon="-1.27861">
        <ele>3</ele>
        <time>2020-12-06T09:26:06.718000+00:00</time>
      </trkpt>
      <trkpt lat="0" lon="0">
        <time>2020-12-06T09:26:06.726000+00:00</time>
      </trkpt>
      <trkpt lat="0" lon="0">
        <time>2020-12-06T09:26:06.732000+00:00</time>
      </trkpt>
      <trkpt lat="0" lon="0">
        <time>2020-12-06T09:26:06.735000+00:00</time>
      </trkpt>
      <trkpt lat="47.34164" lon="-1.27864">
        <ele>3</ele>
        <time>2020-12-06T09:26:07.684000+00:00</time>
      </trkpt>
      <trkpt lat="0" lon="0">
        <time>2020-12-06T09:26:07.700000+00:00</time>
      </trkpt>
      <trkpt lat="0" lon="0">
        <time>2020-12-06T09:26:07.709000+00:00</time>
      </trkpt>
      <trkpt lat="0" lon="0">
        <time>2020-12-06T09:26:07.716000+00:00</time>
      </trkpt>
      <trkpt lat="47.3417" lon="-1.27866">
        <ele>3</ele>
        <time>2020-12-06T09:26:08.692000+00:00</time>
      </trkpt>
      <trkpt lat="0" lon="0">
        <time>2020-12-06T09:26:08.695000+00:00</time>
      </trkpt>
      <trkpt lat="0" lon="0">
        <time>2020-12-06T09:26:08.700000+00:00</time>
      </trkpt>
      <trkpt lat="0" lon="0">
        <time>2020-12-06T09:26:08.705000+00:00</time>
      </trkpt>
      <trkpt lat="47.34176" lon="-1.27868">
        <ele>3</ele>
        <time>2020-12-06T09:26:09.688000+00:00</time>
      </trkpt>
      <trkpt lat="0" lon="0">
        <time>2020-12-06T09:26:09.694000+00:00</time>
      </trkpt>
      <trkpt lat="0" lon="0">
        <time>2020-12-06T09:26:09.705000+00:00</time>
      </trkpt>
      <trkpt lat="0" lon="0">
        <time>2020-12-06T09:26:09.712000+00:00</time>
      </trkpt>
      <trkpt lat="47.34183" lon="-1.2787">
        <ele>3</ele>
        <time>2020-12-06T09:26:10.685000+00:00</time>
      </trkpt>
      <trkpt lat="0" lon="0">
        <time>2020-12-06T09:26:10.691000+00:00</time>
      </trkpt>
      <trkpt lat="0" lon="0">
        <time>2020-12-06T09:26:10.698000+00:00</time>
      </trkpt>
      <trkpt lat="0" lon="0">
        <time>2020-12-06T09:26:10.700000+00:00</time>
      </trkpt>
      <trkpt lat="47.34189" lon="-1.27872">
        <ele>3</ele>
        <time>2020-12-06T09:26:11.713000+00:00</time>
      </trkpt>
      <trkpt lat="0" lon="0">
        <time>2020-12-06T09:26:11.721000+00:00</time>
      </trkpt>
      <trkpt lat="0" lon="0">
        <time>2020-12-06T09:26:11.727000+00:00</time>
      </trkpt>
      <trkpt lat="0" lon="0">
        <time>2020-12-06T09:26:11.729000+00:00</time>
      </trkpt>
      <trkpt lat="47.34195" lon="-1.27874">
        <ele>3</ele>
        <time>2020-12-06T09:26:12.696000+00:00</time>
      </trkpt>
      <trkpt lat="0" lon="0">
        <time>2020-12-06T09:26:12.705000+00:00</time>
      </trkpt>
      <trkpt lat="0" lon="0">
        <time>2020-12-06T09:26:12.709000+00:00</time>
      </trkpt>
      <trkpt lat="0" lon="0">
        <time>2020-12-06T09:26:12.712000+00:00</time>
      </trkpt>
      <trkpt lat="47.34202" lon="-1.27876">
        <ele>3</ele>
        <time>2020-12-06T09:26:13.605000+00:00</time>
      </trkpt>
      <trkpt lat="0" lon="0">
        <time>2020-12-06T09:26:13.626000+00:00</time>
      </trkpt>
      <trkpt lat="0" lon="0">
        <time>2020-12-06T09:26:13.635000+00:00</time>
      </trkpt>
      <trkpt lat="0" lon="0">
        <time>2020-12-06T09:26:13.638000+00:00</time>
      </trkpt>
      <trkpt lat="47.34208" lon="-1.27878">
        <ele>3</ele>
        <time>2020-12-06T09:26:14.631000+00:00</time>
      </trkpt>
      <trkpt lat="0" lon="0">
        <time>2020-12-06T09:26:14.637000+00:00</time>
      </trkpt>
      <trkpt lat="0" lon="0">
        <time>2020-12-06T09:26:14.644000+00:00</time>
      </trkpt>
      <trkpt lat="0" lon="0">
        <time>2020-12-06T09:26:14.647000+00:00</time>
      </trkpt>
      <trkpt lat="47.34214" lon="-1.2788">
        <ele>3</ele>
        <time>2020-12-06T09:26:15.629000+00:00</time>
      </trkpt>
      <trkpt lat="0" lon="0">
        <time>2020-12-06T09:26:15.637000+00:00</time>
      </trkpt>
      <trkpt lat="0" lon="0">
        <time>2020-12-06T09:26:15.640000+00:00</time>
      </trkpt>
      <trkpt lat="0" lon="0">
        <time>2020-12-06T09:26:15.642000+00:00</time>
      </trkpt>
      <trkpt lat="47.34221" lon="-1.27882">
        <ele>3</ele>
        <time>2020-12-06T09:26:16.698000+00:00</time>
      </trkpt>
      <trkpt lat="0" lon="0">
        <time>2020-12-06T09:26:16.709000+00:00</time>
      </trkpt>
      <trkpt lat="0" lon="0">
        <time>2020-12-06T09:26:16.712000+00:00</time>
      </trkpt>
      <trkpt lat="0" lon="0">
        <time>2020-12-06T09:26:16.714000+00:00</time>
      </trkpt>
      <trkpt lat="47.34227" lon="-1.27883">
        <ele>3</ele>
        <time>2020-12-06T09:26:17.700000+00:00</time>
      </trkpt>
      <trkpt lat="0" lon="0">
        <time>2020-12-06T09:26:17.709000+00:00</time>
      </trkpt>
      <trkpt lat="0" lon="0">
        <time>2020-12-06T09:26:17.719000+00:00</time>
      </trkpt>
      <trkpt lat="0" lon="0">
        <time>2020-12-06T09:26:17.721000+00:00</time>
      </trkpt>
      <trkpt lat="47.34233" lon="-1.27886">
        <ele>3</ele>
        <time>2020-12-06T09:26:18.639000+00:00</time>
      </trkpt>
      <trkpt lat="0" lon="0">
        <time>2020-12-06T09:26:18.654000+00:00</time>
      </trkpt>
      <trkpt lat="0" lon="0">
        <time>2020-12-06T09:26:18.657000+00:00</time>
      </trkpt>
      <trkpt lat="0" lon="0">
        <time>2020-12-06T09:26:18.659000+00:00</time>
      </trkpt>
      <trkpt lat="47.34239" lon="-1.27888">
        <ele>3</ele>
        <time>2020-12-06T09:26:19.672000+00:00</time>
      </trkpt>
      <trkpt lat="0" lon="0">
        <time>2020-12-06T09:26:19.689000+00:00</time>
      </trkpt>
      <trkpt lat="0" lon="0">
        <time>2020-12-06T09:26:19.698000+00:00</time>
      </trkpt>
      <trkpt lat="0" lon="0">
        <time>2020-12-06T09:26:19.700000+00:00</time>
      </trkpt>
      <trkpt lat="47.34245" lon="-1.2789">
        <ele>3</ele>
        <time>2020-12-06T09:26:20.669000+00:00</time>
      </trkpt>
      <trkpt lat="0" lon="0">
        <time>2020-12-06T09:26:20.683000+00:00</time>
      </trkpt>
      <trkpt lat="0" lon="0">
        <time>2020-12-06T09:26:20.686000+00:00</time>
      </trkpt>
      <trkpt lat="0" lon="0">
        <time>2020-12-06T09:26:20.688000+00:00</time>
      </trkpt>
      <trkpt lat="47.34252" lon="-1.27892">
        <ele>3</ele>
        <time>2020-12-06T09:26:21.689000+00:00</time>
      </trkpt>
      <trkpt lat="0" lon="0">
        <time>2020-12-06T09:26:21.693000+00:00</time>
      </trkpt>
      <trkpt lat="0" lon="0">
        <time>2020-12-06T09:26:21.699000+00:00</time>
      </trkpt>
      <trkpt lat="0" lon="0">
        <time>2020-12-06T09:26:21.706000+00:00</time>
      </trkpt>
      <trkpt lat="47.34258" lon="-1.27894">
        <ele>3</ele>
        <time>2020-12-06T09:26:22.674000+00:00</time>
      </trkpt>
      <trkpt lat="0" lon="0">
        <time>2020-12-06T09:26:22.692000+00:00</time>
      </trkpt>
      <trkpt lat="0" lon="0">
        <time>2020-12-06T09:26:22.704000+00:00</time>
      </trkpt>
      <trkpt lat="0" lon="0">
        <time>2020-12-06T09:26:22.708000+00:00</time>
      </trkpt>
      <trkpt lat="47.34264" lon="-1.27896">
        <ele>3</ele>
        <time>2020-12-06T09:26:23.687000+00:00</time>
      </trkpt>
      <trkpt lat="0" lon="0">
        <time>2020-12-06T09:26:23.698000+00:00</time>
      </trkpt>
      <trkpt lat="0" lon="0">
        <time>2020-12-06T09:26:23.704000+00:00</time>
      </trkpt>
      <trkpt lat="0" lon="0">
        <time>2020-12-06T09:26:23.711000+00:00</time>
      </trkpt>
      <trkpt lat="47.3427" lon="-1.27898">
        <ele>3</ele>
        <time>2020-12-06T09:26:24.712000+00:00</time>
      </trkpt>
      <trkpt lat="0" lon="0">
        <time>2020-12-06T09:26:24.728000+00:00</time>
      </trkpt>
      <trkpt lat="0" lon="0">
        <time>2020-12-06T09:26:24.736000+00:00</time>
      </trkpt>
      <trkpt lat="0" lon="0">
        <time>2020-12-06T09:26:24.741000+00:00</time>
      </trkpt>
      <trkpt lat="47.34276" lon="-1.279">
        <ele>3</ele>
        <time>2020-12-06T09:26:25.676000+00:00</time>
      </trkpt>
      <trkpt lat="0" lon="0">
        <time>2020-12-06T09:26:25.692000+00:00</time>
      </trkpt>
      <trkpt lat="0" lon="0">
        <time>2020-12-06T09:26:25.696000+00:00</time>
      </trkpt>
      <trkpt lat="0" lon="0">
        <time>2020-12-06T09:26:25.698000+00:00</time>
      </trkpt>
      <trkpt lat="47.34283" lon="-1.27902">
        <ele>3</ele>
        <time>2020-12-06T09:26:26.683000+00:00</time>
      </trkpt>
      <trkpt lat="0" lon="0">
        <time>2020-12-06T09:26:26.688000+00:00</time>
      </trkpt>
      <trkpt lat="0" lon="0">
        <time>2020-12-06T09:26:26.697000+00:00</time>
      </trkpt>
      <trkpt lat="0" lon="0">
        <time>2020-12-06T09:26:26.699000+00:00</time>
      </trkpt>
      <trkpt lat="47.34289" lon="-1.27903">
        <ele>3</ele>
        <time>2020-12-06T09:26:27.668000+00:00</time>
      </trkpt>
      <trkpt lat="0" lon="0">
        <time>2020-12-06T09:26:27.682000+00:00</time>
      </trkpt>
      <trkpt lat="0" lon="0">
        <time>2020-12-06T09:26:27.695000+00:00</time>
      </trkpt>
      <trkpt lat="0" lon="0">
        <time>2020-12-06T09:26:27.697000+00:00</time>
      </trkpt>
      <trkpt lat="47.34296" lon="-1.27905">
        <ele>4</ele>
        <time>2020-12-06T09:26:28.689000+00:00</time>
      </trkpt>
      <trkpt lat="0" lon="0">
        <time>2020-12-06T09:26:28.698000+00:00</time>
      </trkpt>
      <trkpt lat="0" lon="0">
        <time>2020-12-06T09:26:28.702000+00:00</time>
      </trkpt>
      <trkpt lat="0" lon="0">
        <time>2020-12-06T09:26:28.704000+00:00</time>
      </trkpt>
      <trkpt lat="47.34302" lon="-1.27907">
        <ele>4</ele>
        <time>2020-12-06T09:26:29.724000+00:00</time>
      </trkpt>
      <trkpt lat="0" lon="0">
        <time>2020-12-06T09:26:29.736000+00:00</time>
      </trkpt>
      <trkpt lat="0" lon="0">
        <time>2020-12-06T09:26:29.741000+00:00</time>
      </trkpt>
      <trkpt lat="0" lon="0">
        <time>2020-12-06T09:26:29.743000+00:00</time>
      </trkpt>
      <trkpt lat="47.34309" lon="-1.27909">
        <ele>4</ele>
        <time>2020-12-06T09:26:30.687000+00:00</time>
      </trkpt>
      <trkpt lat="0" lon="0">
        <time>2020-12-06T09:26:30.700000+00:00</time>
      </trkpt>
      <trkpt lat="0" lon="0">
        <time>2020-12-06T09:26:30.710000+00:00</time>
      </trkpt>
      <trkpt lat="0" lon="0">
        <time>2020-12-06T09:26:30.712000+00:00</time>
      </trkpt>
      <trkpt lat="47.34315" lon="-1.27911">
        <ele>4</ele>
        <time>2020-12-06T09:26:31.667000+00:00</time>
      </trkpt>
      <trkpt lat="0" lon="0">
        <time>2020-12-06T09:26:31.670000+00:00</time>
      </trkpt>
      <trkpt lat="0" lon="0">
        <time>2020-12-06T09:26:31.679000+00:00</time>
      </trkpt>
      <trkpt lat="0" lon="0">
        <time>2020-12-06T09:26:31.681000+00:00</time>
      </trkpt>
      <trkpt lat="47.34321" lon="-1.27913">
        <ele>4</ele>
        <time>2020-12-06T09:26:32.662000+00:00</time>
      </trkpt>
      <trkpt lat="0" lon="0">
        <time>2020-12-06T09:26:32.663000+00:00</time>
      </trkpt>
      <trkpt lat="0" lon="0">
        <time>2020-12-06T09:26:32.665000+00:00</time>
      </trkpt>
      <trkpt lat="47.34328" lon="-1.27915">
        <ele>4</ele>
        <time>2020-12-06T09:26:33.697000+00:00</time>
      </trkpt>
      <trkpt lat="0" lon="0">
        <time>2020-12-06T09:26:33.701000+00:00</time>
      </trkpt>
      <trkpt lat="0" lon="0">
        <time>2020-12-06T09:26:33.718000+00:00</time>
      </trkpt>
      <trkpt lat="0" lon="0">
        <time>2020-12-06T09:26:33.720000+00:00</time>
      </trkpt>
      <trkpt lat="47.34334" lon="-1.27917">
        <ele>5</ele>
        <time>2020-12-06T09:26:34.666000+00:00</time>
      </trkpt>
      <trkpt lat="0" lon="0">
        <time>2020-12-06T09:26:34.677000+00:00</time>
      </trkpt>
      <trkpt lat="0" lon="0">
        <time>2020-12-06T09:26:34.685000+00:00</time>
      </trkpt>
      <trkpt lat="0" lon="0">
        <time>2020-12-06T09:26:34.687000+00:00</time>
      </trkpt>
      <trkpt lat="47.34341" lon="-1.27919">
        <ele>5</ele>
        <time>2020-12-06T09:26:35.664000+00:00</time>
      </trkpt>
      <trkpt lat="0" lon="0">
        <time>2020-12-06T09:26:35.677000+00:00</time>
      </trkpt>
      <trkpt lat="0" lon="0">
        <time>2020-12-06T09:26:35.682000+00:00</time>
      </trkpt>
      <trkpt lat="0" lon="0">
        <time>2020-12-06T09:26:35.688000+00:00</time>
      </trkpt>
      <trkpt lat="47.34347" lon="-1.27921">
        <ele>5</ele>
        <time>2020-12-06T09:26:36.692000+00:00</time>
      </trkpt>
      <trkpt lat="0" lon="0">
        <time>2020-12-06T09:26:36.695000+00:00</time>
      </trkpt>
      <trkpt lat="0" lon="0">
        <time>2020-12-06T09:26:36.699000+00:00</time>
      </trkpt>
      <trkpt lat="0" lon="0">
        <time>2020-12-06T09:26:36.700000+00:00</time>
      </trkpt>
      <trkpt lat="47.34354" lon="-1.27923">
        <ele>5</ele>
        <time>2020-12-06T09:26:37.691000+00:00</time>
      </trkpt>
      <trkpt lat="0" lon="0">
        <time>2020-12-06T09:26:37.694000+00:00</time>
      </trkpt>
      <trkpt lat="0" lon="0">
        <time>2020-12-06T09:26:37.696000+00:00</time>
      </trkpt>
      <trkpt lat="0" lon="0">
        <time>2020-12-06T09:26:37.697000+00:00</time>
      </trkpt>
      <trkpt lat="47.3436" lon="-1.27925">
        <ele>5</ele>
        <time>2020-12-06T09:26:38.684000+00:00</time>
      </trkpt>
      <trkpt lat="0" lon="0">
        <time>2020-12-06T09:26:38.698000+00:00</time>
      </trkpt>
      <trkpt lat="0" lon="0">
        <time>2020-12-06T09:26:38.712000+00:00</time>
      </trkpt>
      <trkpt lat="0" lon="0">
        <time>2020-12-06T09:26:38.714000+00:00</time>
      </trkpt>
      <trkpt lat="47.34367" lon="-1.27927">
        <ele>5</ele>
        <time>2020-12-06T09:26:39.710000+00:00</time>
      </trkpt>
      <trkpt lat="0" lon="0">
        <time>2020-12-06T09:26:39.714000+00:00</time>
      </trkpt>
      <trkpt lat="0" lon="0">
        <time>2020-12-06T09:26:39.720000+00:00</time>
      </trkpt>
      <trkpt lat="0" lon="0">
        <time>2020-12-06T09:26:39.722000+00:00</time>
      </trkpt>
      <trkpt lat="47.34373" lon="-1.27929">
        <ele>6</ele>
        <time>2020-12-06T09:26:40.689000+00:00</time>
      </trkpt>
      <trkpt lat="0" lon="0">
        <time>2020-12-06T09:26:40.698000+00:00</time>
      </trkpt>
      <trkpt lat="0" lon="0">
        <time>2020-12-06T09:26:40.703000+00:00</time>
      </trkpt>
      <trkpt lat="0" lon="0">
        <time>2020-12-06T09:26:40.705000+00:00</time>
      </trkpt>
      <trkpt lat="47.3438" lon="-1.27931">
        <ele>6</ele>
        <time>2020-12-06T09:26:41.686000+00:00</time>
      </trkpt>
      <trkpt lat="0" lon="0">
        <time>2020-12-06T09:26:41.694000+00:00</time>
      </trkpt>
      <trkpt lat="0" lon="0">
        <time>2020-12-06T09:26:41.703000+00:00</time>
      </trkpt>
      <trkpt lat="0" lon="0">
        <time>2020-12-06T09:26:41.707000+00:00</time>
      </trkpt>
      <trkpt lat="47.34386" lon="-1.27933">
        <ele>6</ele>
        <time>2020-12-06T09:26:42.676000+00:00</time>
      </trkpt>
      <trkpt lat="0" lon="0">
        <time>2020-12-06T09:26:42.687000+00:00</time>
      </trkpt>
      <trkpt lat="0" lon="0">
        <time>2020-12-06T09:26:42.693000+00:00</time>
      </trkpt>
      <trkpt lat="0" lon="0">
        <time>2020-12-06T09:26:42.694000+00:00</time>
      </trkpt>
      <trkpt lat="47.34393" lon="-1.27935">
        <ele>6</ele>
        <time>2020-12-06T09:26:43.694000+00:00</time>
      </trkpt>
      <trkpt lat="0" lon="0">
        <time>2020-12-06T09:26:43.698000+00:00</time>
      </trkpt>
      <trkpt lat="0" lon="0">
        <time>2020-12-06T09:26:43.711000+00:00</time>
      </trkpt>
      <trkpt lat="0" lon="0">
        <time>2020-12-06T09:26:43.715000+00:00</time>
      </trkpt>
      <trkpt lat="47.34399" lon="-1.27938">
        <ele>6</ele>
        <time>2020-12-06T09:26:44.692000+00:00</time>
      </trkpt>
      <trkpt lat="0" lon="0">
        <time>2020-12-06T09:26:44.710000+00:00</time>
      </trkpt>
      <trkpt lat="0" lon="0">
        <time>2020-12-06T09:26:44.713000+00:00</time>
      </trkpt>
      <trkpt lat="0" lon="0">
        <time>2020-12-06T09:26:44.714000+00:00</time>
      </trkpt>
      <trkpt lat="47.34406" lon="-1.2794">
        <ele>6</ele>
        <time>2020-12-06T09:26:45.665000+00:00</time>
      </trkpt>
      <trkpt lat="0" lon="0">
        <time>2020-12-06T09:26:45.667000+00:00</time>
      </trkpt>
      <trkpt lat="0" lon="0">
        <time>2020-12-06T09:26:45.668000+00:00</time>
      </trkpt>
      <trkpt lat="0" lon="0">
        <time>2020-12-06T09:26:45.669000+00:00</time>
      </trkpt>
      <trkpt lat="47.34412" lon="-1.27942">
        <ele>6</ele>
        <time>2020-12-06T09:26:46.664000+00:00</time>
      </trkpt>
      <trkpt lat="0" lon="0">
        <time>2020-12-06T09:26:46.680000+00:00</time>
      </trkpt>
      <trkpt lat="0" lon="0">
        <time>2020-12-06T09:26:46.689000+00:00</time>
      </trkpt>
      <trkpt lat="0" lon="0">
        <time>2020-12-06T09:26:46.695000+00:00</time>
      </trkpt>
      <trkpt lat="47.34418" lon="-1.27945">
        <ele>7</ele>
        <time>2020-12-06T09:26:47.673000+00:00</time>
      </trkpt>
      <trkpt lat="0" lon="0">
        <time>2020-12-06T09:26:47.684000+00:00</time>
      </trkpt>
      <trkpt lat="0" lon="0">
        <time>2020-12-06T09:26:47.693000+00:00</time>
      </trkpt>
      <trkpt lat="0" lon="0">
        <time>2020-12-06T09:26:47.695000+00:00</time>
      </trkpt>
      <trkpt lat="47.34424" lon="-1.27948">
        <ele>7</ele>
        <time>2020-12-06T09:26:48.697000+00:00</time>
      </trkpt>
      <trkpt lat="0" lon="0">
        <time>2020-12-06T09:26:48.708000+00:00</time>
      </trkpt>
      <trkpt lat="0" lon="0">
        <time>2020-12-06T09:26:48.715000+00:00</time>
      </trkpt>
      <trkpt lat="0" lon="0">
        <time>2020-12-06T09:26:48.718000+00:00</time>
      </trkpt>
      <trkpt lat="47.3443" lon="-1.27951">
        <ele>7</ele>
        <time>2020-12-06T09:26:49.688000+00:00</time>
      </trkpt>
      <trkpt lat="0" lon="0">
        <time>2020-12-06T09:26:49.693000+00:00</time>
      </trkpt>
      <trkpt lat="0" lon="0">
        <time>2020-12-06T09:26:49.696000+00:00</time>
      </trkpt>
      <trkpt lat="0" lon="0">
        <time>2020-12-06T09:26:49.698000+00:00</time>
      </trkpt>
      <trkpt lat="47.34436" lon="-1.27955">
        <ele>7</ele>
        <time>2020-12-06T09:26:50.694000+00:00</time>
      </trkpt>
      <trkpt lat="0" lon="0">
        <time>2020-12-06T09:26:50.702000+00:00</time>
      </trkpt>
      <trkpt lat="0" lon="0">
        <time>2020-12-06T09:26:50.711000+00:00</time>
      </trkpt>
      <trkpt lat="0" lon="0">
        <time>2020-12-06T09:26:50.714000+00:00</time>
      </trkpt>
      <trkpt lat="47.34442" lon="-1.27959">
        <ele>7</ele>
        <time>2020-12-06T09:26:51.684000+00:00</time>
      </trkpt>
      <trkpt lat="0" lon="0">
        <time>2020-12-06T09:26:51.695000+00:00</time>
      </trkpt>
      <trkpt lat="0" lon="0">
        <time>2020-12-06T09:26:51.700000+00:00</time>
      </trkpt>
      <trkpt lat="0" lon="0">
        <time>2020-12-06T09:26:51.703000+00:00</time>
      </trkpt>
      <trkpt lat="47.34448" lon="-1.27963">
        <ele>7</ele>
        <time>2020-12-06T09:26:52.690000+00:00</time>
      </trkpt>
      <trkpt lat="0" lon="0">
        <time>2020-12-06T09:26:52.700000+00:00</time>
      </trkpt>
      <trkpt lat="0" lon="0">
        <time>2020-12-06T09:26:52.705000+00:00</time>
      </trkpt>
      <trkpt lat="0" lon="0">
        <time>2020-12-06T09:26:52.707000+00:00</time>
      </trkpt>
      <trkpt lat="47.34453" lon="-1.27967">
        <ele>7</ele>
        <time>2020-12-06T09:26:53.687000+00:00</time>
      </trkpt>
      <trkpt lat="0" lon="0">
        <time>2020-12-06T09:26:53.711000+00:00</time>
      </trkpt>
      <trkpt lat="0" lon="0">
        <time>2020-12-06T09:26:53.717000+00:00</time>
      </trkpt>
      <trkpt lat="0" lon="0">
        <time>2020-12-06T09:26:53.720000+00:00</time>
      </trkpt>
      <trkpt lat="47.34459" lon="-1.27971">
        <ele>7</ele>
        <time>2020-12-06T09:26:54.683000+00:00</time>
      </trkpt>
      <trkpt lat="0" lon="0">
        <time>2020-12-06T09:26:54.688000+00:00</time>
      </trkpt>
      <trkpt lat="0" lon="0">
        <time>2020-12-06T09:26:54.691000+00:00</time>
      </trkpt>
      <trkpt lat="0" lon="0">
        <time>2020-12-06T09:26:54.698000+00:00</time>
      </trkpt>
      <trkpt lat="47.34464" lon="-1.27976">
        <ele>7</ele>
        <time>2020-12-06T09:26:55.706000+00:00</time>
      </trkpt>
      <trkpt lat="0" lon="0">
        <time>2020-12-06T09:26:55.725000+00:00</time>
      </trkpt>
      <trkpt lat="0" lon="0">
        <time>2020-12-06T09:26:55.733000+00:00</time>
      </trkpt>
      <trkpt lat="0" lon="0">
        <time>2020-12-06T09:26:55.735000+00:00</time>
      </trkpt>
      <trkpt lat="47.34469" lon="-1.27982">
        <ele>7</ele>
        <time>2020-12-06T09:26:56.680000+00:00</time>
      </trkpt>
      <trkpt lat="0" lon="0">
        <time>2020-12-06T09:26:56.685000+00:00</time>
      </trkpt>
      <trkpt lat="0" lon="0">
        <time>2020-12-06T09:26:56.691000+00:00</time>
      </trkpt>
      <trkpt lat="0" lon="0">
        <time>2020-12-06T09:26:56.693000+00:00</time>
      </trkpt>
      <trkpt lat="47.34474" lon="-1.27987">
        <ele>7</ele>
        <time>2020-12-06T09:26:57.710000+00:00</time>
      </trkpt>
      <trkpt lat="0" lon="0">
        <time>2020-12-06T09:26:57.715000+00:00</time>
      </trkpt>
      <trkpt lat="0" lon="0">
        <time>2020-12-06T09:26:57.725000+00:00</time>
      </trkpt>
      <trkpt lat="0" lon="0">
        <time>2020-12-06T09:26:57.727000+00:00</time>
      </trkpt>
      <trkpt lat="47.34479" lon="-1.27994">
        <ele>7</ele>
        <time>2020-12-06T09:26:58.686000+00:00</time>
      </trkpt>
      <trkpt lat="0" lon="0">
        <time>2020-12-06T09:26:58.696000+00:00</time>
      </trkpt>
      <trkpt lat="0" lon="0">
        <time>2020-12-06T09:26:58.700000+00:00</time>
      </trkpt>
      <trkpt lat="0" lon="0">
        <time>2020-12-06T09:26:58.702000+00:00</time>
      </trkpt>
      <trkpt lat="47.34484" lon="-1.28">
        <ele>7</ele>
        <time>2020-12-06T09:26:59.714000+00:00</time>
      </trkpt>
      <trkpt lat="0" lon="0">
        <time>2020-12-06T09:26:59.719000+00:00</time>
      </trkpt>
      <trkpt lat="0" lon="0">
        <time>2020-12-06T09:26:59.728000+00:00</time>
      </trkpt>
      <trkpt lat="0" lon="0">
        <time>2020-12-06T09:26:59.730000+00:00</time>
      </trkpt>
      <trkpt lat="47.34489" lon="-1.28008">
        <ele>7</ele>
        <time>2020-12-06T09:27:00.690000+00:00</time>
      </trkpt>
      <trkpt lat="0" lon="0">
        <time>2020-12-06T09:27:00.694000+00:00</time>
      </trkpt>
      <trkpt lat="0" lon="0">
        <time>2020-12-06T09:27:00.703000+00:00</time>
      </trkpt>
      <trkpt lat="0" lon="0">
        <time>2020-12-06T09:27:00.705000+00:00</time>
      </trkpt>
      <trkpt lat="47.34494" lon="-1.28016">
        <ele>7</ele>
        <time>2020-12-06T09:27:01.685000+00:00</time>
      </trkpt>
      <trkpt lat="0" lon="0">
        <time>2020-12-06T09:27:01.691000+00:00</time>
      </trkpt>
      <trkpt lat="0" lon="0">
        <time>2020-12-06T09:27:01.696000+00:00</time>
      </trkpt>
      <trkpt lat="0" lon="0">
        <time>2020-12-06T09:27:01.710000+00:00</time>
      </trkpt>
      <trkpt lat="47.34499" lon="-1.28025">
        <ele>7</ele>
        <time>2020-12-06T09:27:02.657000+00:00</time>
      </trkpt>
      <trkpt lat="0" lon="0">
        <time>2020-12-06T09:27:02.672000+00:00</time>
      </trkpt>
      <trkpt lat="0" lon="0">
        <time>2020-12-06T09:27:02.682000+00:00</time>
      </trkpt>
      <trkpt lat="0" lon="0">
        <time>2020-12-06T09:27:02.683000+00:00</time>
      </trkpt>
      <trkpt lat="47.34503" lon="-1.28034">
        <ele>7</ele>
        <time>2020-12-06T09:27:03.708000+00:00</time>
      </trkpt>
      <trkpt lat="0" lon="0">
        <time>2020-12-06T09:27:03.716000+00:00</time>
      </trkpt>
      <trkpt lat="0" lon="0">
        <time>2020-12-06T09:27:03.722000+00:00</time>
      </trkpt>
      <trkpt lat="0" lon="0">
        <time>2020-12-06T09:27:03.725000+00:00</time>
      </trkpt>
      <trkpt lat="47.34507" lon="-1.28044">
        <ele>7</ele>
        <time>2020-12-06T09:27:04.710000+00:00</time>
      </trkpt>
      <trkpt lat="0" lon="0">
        <time>2020-12-06T09:27:04.718000+00:00</time>
      </trkpt>
      <trkpt lat="0" lon="0">
        <time>2020-12-06T09:27:04.722000+00:00</time>
      </trkpt>
      <trkpt lat="0" lon="0">
        <time>2020-12-06T09:27:04.724000+00:00</time>
      </trkpt>
      <trkpt lat="47.34511" lon="-1.28055">
        <ele>6</ele>
        <time>2020-12-06T09:27:05.708000+00:00</time>
      </trkpt>
      <trkpt lat="0" lon="0">
        <time>2020-12-06T09:27:05.716000+00:00</time>
      </trkpt>
      <trkpt lat="0" lon="0">
        <time>2020-12-06T09:27:05.719000+00:00</time>
      </trkpt>
      <trkpt lat="0" lon="0">
        <time>2020-12-06T09:27:05.721000+00:00</time>
      </trkpt>
      <trkpt lat="47.34515" lon="-1.28066">
        <ele>6</ele>
        <time>2020-12-06T09:27:06.675000+00:00</time>
      </trkpt>
      <trkpt lat="0" lon="0">
        <time>2020-12-06T09:27:06.701000+00:00</time>
      </trkpt>
      <trkpt lat="0" lon="0">
        <time>2020-12-06T09:27:06.708000+00:00</time>
      </trkpt>
      <trkpt lat="0" lon="0">
        <time>2020-12-06T09:27:06.711000+00:00</time>
      </trkpt>
      <trkpt lat="47.34519" lon="-1.28078">
        <ele>6</ele>
        <time>2020-12-06T09:27:07.660000+00:00</time>
      </trkpt>
      <trkpt lat="0" lon="0">
        <time>2020-12-06T09:27:07.665000+00:00</time>
      </trkpt>
      <trkpt lat="0" lon="0">
        <time>2020-12-06T09:27:07.675000+00:00</time>
      </trkpt>
      <trkpt lat="0" lon="0">
        <time>2020-12-06T09:27:07.677000+00:00</time>
      </trkpt>
      <trkpt lat="47.34522" lon="-1.2809">
        <ele>6</ele>
        <time>2020-12-06T09:27:08.720000+00:00</time>
      </trkpt>
      <trkpt lat="0" lon="0">
        <time>2020-12-06T09:27:08.729000+00:00</time>
      </trkpt>
      <trkpt lat="0" lon="0">
        <time>2020-12-06T09:27:08.733000+00:00</time>
      </trkpt>
      <trkpt lat="0" lon="0">
        <time>2020-12-06T09:27:08.734000+00:00</time>
      </trkpt>
      <trkpt lat="47.34524" lon="-1.28103">
        <ele>6</ele>
        <time>2020-12-06T09:27:09.686000+00:00</time>
      </trkpt>
      <trkpt lat="0" lon="0">
        <time>2020-12-06T09:27:09.710000+00:00</time>
      </trkpt>
      <trkpt lat="0" lon="0">
        <time>2020-12-06T09:27:09.712000+00:00</time>
      </trkpt>
      <trkpt lat="0" lon="0">
        <time>2020-12-06T09:27:09.714000+00:00</time>
      </trkpt>
      <trkpt lat="47.34527" lon="-1.28116">
        <ele>6</ele>
        <time>2020-12-06T09:27:10.653000+00:00</time>
      </trkpt>
      <trkpt lat="0" lon="0">
        <time>2020-12-06T09:27:10.657000+00:00</time>
      </trkpt>
      <trkpt lat="0" lon="0">
        <time>2020-12-06T09:27:10.661000+00:00</time>
      </trkpt>
      <trkpt lat="0" lon="0">
        <time>2020-12-06T09:27:10.668000+00:00</time>
      </trkpt>
      <trkpt lat="47.34529" lon="-1.28129">
        <ele>6</ele>
        <time>2020-12-06T09:27:11.676000+00:00</time>
      </trkpt>
      <trkpt lat="0" lon="0">
        <time>2020-12-06T09:27:11.686000+00:00</time>
      </trkpt>
      <trkpt lat="0" lon="0">
        <time>2020-12-06T09:27:11.691000+00:00</time>
      </trkpt>
      <trkpt lat="0" lon="0">
        <time>2020-12-06T09:27:11.698000+00:00</time>
      </trkpt>
      <trkpt lat="47.3453" lon="-1.28143">
        <ele>6</ele>
        <time>2020-12-06T09:27:12.679000+00:00</time>
      </trkpt>
      <trkpt lat="0" lon="0">
        <time>2020-12-06T09:27:12.691000+00:00</time>
      </trkpt>
      <trkpt lat="0" lon="0">
        <time>2020-12-06T09:27:12.700000+00:00</time>
      </trkpt>
      <trkpt lat="0" lon="0">
        <time>2020-12-06T09:27:12.702000+00:00</time>
      </trkpt>
      <trkpt lat="47.34531" lon="-1.28156">
        <ele>6</ele>
        <time>2020-12-06T09:27:13.702000+00:00</time>
      </trkpt>
      <trkpt lat="0" lon="0">
        <time>2020-12-06T09:27:13.706000+00:00</time>
      </trkpt>
      <trkpt lat="0" lon="0">
        <time>2020-12-06T09:27:13.711000+00:00</time>
      </trkpt>
      <trkpt lat="0" lon="0">
        <time>2020-12-06T09:27:13.713000+00:00</time>
      </trkpt>
      <trkpt lat="47.34532" lon="-1.2817">
        <ele>6</ele>
        <time>2020-12-06T09:27:14.721000+00:00</time>
      </trkpt>
      <trkpt lat="0" lon="0">
        <time>2020-12-06T09:27:14.723000+00:00</time>
      </trkpt>
      <trkpt lat="0" lon="0">
        <time>2020-12-06T09:27:14.724000+00:00</time>
      </trkpt>
      <trkpt lat="0" lon="0">
        <time>2020-12-06T09:27:14.727000+00:00</time>
      </trkpt>
      <trkpt lat="47.34532" lon="-1.28184">
        <ele>6</ele>
        <time>2020-12-06T09:27:15.695000+00:00</time>
      </trkpt>
      <trkpt lat="0" lon="0">
        <time>2020-12-06T09:27:15.715000+00:00</time>
      </trkpt>
      <trkpt lat="0" lon="0">
        <time>2020-12-06T09:27:15.721000+00:00</time>
      </trkpt>
      <trkpt lat="0" lon="0">
        <time>2020-12-06T09:27:15.723000+00:00</time>
      </trkpt>
      <trkpt lat="47.34532" lon="-1.28197">
        <ele>6</ele>
        <time>2020-12-06T09:27:16.713000+00:00</time>
      </trkpt>
      <trkpt lat="0" lon="0">
        <time>2020-12-06T09:27:16.721000+00:00</time>
      </trkpt>
      <trkpt lat="0" lon="0">
        <time>2020-12-06T09:27:16.726000+00:00</time>
      </trkpt>
      <trkpt lat="0" lon="0">
        <time>2020-12-06T09:27:16.728000+00:00</time>
      </trkpt>
      <trkpt lat="47.34531" lon="-1.2821">
        <ele>6</ele>
        <time>2020-12-06T09:27:17.702000+00:00</time>
      </trkpt>
      <trkpt lat="0" lon="0">
        <time>2020-12-06T09:27:17.706000+00:00</time>
      </trkpt>
      <trkpt lat="0" lon="0">
        <time>2020-12-06T09:27:17.717000+00:00</time>
      </trkpt>
      <trkpt lat="0" lon="0">
        <time>2020-12-06T09:27:17.719000+00:00</time>
      </trkpt>
      <trkpt lat="47.3453" lon="-1.28223">
        <ele>6</ele>
        <time>2020-12-06T09:27:18.677000+00:00</time>
      </trkpt>
      <trkpt lat="0" lon="0">
        <time>2020-12-06T09:27:18.689000+00:00</time>
      </trkpt>
      <trkpt lat="0" lon="0">
        <time>2020-12-06T09:27:18.692000+00:00</time>
      </trkpt>
      <trkpt lat="0" lon="0">
        <time>2020-12-06T09:27:18.695000+00:00</time>
      </trkpt>
      <trkpt lat="47.3453" lon="-1.28235">
        <ele>6</ele>
        <time>2020-12-06T09:27:19.681000+00:00</time>
      </trkpt>
      <trkpt lat="0" lon="0">
        <time>2020-12-06T09:27:19.689000+00:00</time>
      </trkpt>
      <trkpt lat="0" lon="0">
        <time>2020-12-06T09:27:19.706000+00:00</time>
      </trkpt>
      <trkpt lat="0" lon="0">
        <time>2020-12-06T09:27:19.710000+00:00</time>
      </trkpt>
      <trkpt lat="47.34529" lon="-1.28247">
        <ele>6</ele>
        <time>2020-12-06T09:27:20.676000+00:00</time>
      </trkpt>
      <trkpt lat="0" lon="0">
        <time>2020-12-06T09:27:20.681000+00:00</time>
      </trkpt>
      <trkpt lat="0" lon="0">
        <time>2020-12-06T09:27:20.683000+00:00</time>
      </trkpt>
      <trkpt lat="0" lon="0">
        <time>2020-12-06T09:27:20.690000+00:00</time>
      </trkpt>
      <trkpt lat="47.34531" lon="-1.28257">
        <ele>6</ele>
        <time>2020-12-06T09:27:21.655000+00:00</time>
      </trkpt>
      <trkpt lat="0" lon="0">
        <time>2020-12-06T09:27:21.660000+00:00</time>
      </trkpt>
      <trkpt lat="0" lon="0">
        <time>2020-12-06T09:27:21.666000+00:00</time>
      </trkpt>
      <trkpt lat="0" lon="0">
        <time>2020-12-06T09:27:21.669000+00:00</time>
      </trkpt>
      <trkpt lat="47.34533" lon="-1.28265">
        <ele>6</ele>
        <time>2020-12-06T09:27:22.695000+00:00</time>
      </trkpt>
      <trkpt lat="0" lon="0">
        <time>2020-12-06T09:27:22.708000+00:00</time>
      </trkpt>
      <trkpt lat="0" lon="0">
        <time>2020-12-06T09:27:22.716000+00:00</time>
      </trkpt>
      <trkpt lat="0" lon="0">
        <time>2020-12-06T09:27:22.721000+00:00</time>
      </trkpt>
      <trkpt lat="47.34537" lon="-1.28271">
        <ele>6</ele>
        <time>2020-12-06T09:27:23.685000+00:00</time>
      </trkpt>
      <trkpt lat="0" lon="0">
        <time>2020-12-06T09:27:23.691000+00:00</time>
      </trkpt>
      <trkpt lat="0" lon="0">
        <time>2020-12-06T09:27:23.698000+00:00</time>
      </trkpt>
      <trkpt lat="0" lon="0">
        <time>2020-12-06T09:27:23.700000+00:00</time>
      </trkpt>
      <trkpt lat="47.34541" lon="-1.28274">
        <ele>6</ele>
        <time>2020-12-06T09:27:24.651000+00:00</time>
      </trkpt>
      <trkpt lat="0" lon="0">
        <time>2020-12-06T09:27:24.661000+00:00</time>
      </trkpt>
      <trkpt lat="0" lon="0">
        <time>2020-12-06T09:27:24.663000+00:00</time>
      </trkpt>
      <trkpt lat="0" lon="0">
        <time>2020-12-06T09:27:24.664000+00:00</time>
      </trkpt>
      <trkpt lat="47.34546" lon="-1.28275">
        <ele>6</ele>
        <time>2020-12-06T09:27:25.648000+00:00</time>
      </trkpt>
      <trkpt lat="0" lon="0">
        <time>2020-12-06T09:27:25.661000+00:00</time>
      </trkpt>
      <trkpt lat="0" lon="0">
        <time>2020-12-06T09:27:25.672000+00:00</time>
      </trkpt>
      <trkpt lat="0" lon="0">
        <time>2020-12-06T09:27:25.676000+00:00</time>
      </trkpt>
      <trkpt lat="47.34552" lon="-1.28275">
        <ele>6</ele>
        <time>2020-12-06T09:27:26.655000+00:00</time>
      </trkpt>
      <trkpt lat="0" lon="0">
        <time>2020-12-06T09:27:26.662000+00:00</time>
      </trkpt>
      <trkpt lat="0" lon="0">
        <time>2020-12-06T09:27:26.674000+00:00</time>
      </trkpt>
      <trkpt lat="0" lon="0">
        <time>2020-12-06T09:27:26.676000+00:00</time>
      </trkpt>
      <trkpt lat="47.34558" lon="-1.28273">
        <ele>6</ele>
        <time>2020-12-06T09:27:27.717000+00:00</time>
      </trkpt>
      <trkpt lat="0" lon="0">
        <time>2020-12-06T09:27:27.728000+00:00</time>
      </trkpt>
      <trkpt lat="0" lon="0">
        <time>2020-12-06T09:27:27.733000+00:00</time>
      </trkpt>
      <trkpt lat="0" lon="0">
        <time>2020-12-06T09:27:27.735000+00:00</time>
      </trkpt>
      <trkpt lat="47.34565" lon="-1.2827">
        <ele>6</ele>
        <time>2020-12-06T09:27:28.732000+00:00</time>
      </trkpt>
      <trkpt lat="0" lon="0">
        <time>2020-12-06T09:27:28.742000+00:00</time>
      </trkpt>
      <trkpt lat="0" lon="0">
        <time>2020-12-06T09:27:28.746000+00:00</time>
      </trkpt>
      <trkpt lat="0" lon="0">
        <time>2020-12-06T09:27:28.748000+00:00</time>
      </trkpt>
      <trkpt lat="47.34571" lon="-1.28266">
        <ele>6</ele>
        <time>2020-12-06T09:27:29.716000+00:00</time>
      </trkpt>
      <trkpt lat="0" lon="0">
        <time>2020-12-06T09:27:29.719000+00:00</time>
      </trkpt>
      <trkpt lat="0" lon="0">
        <time>2020-12-06T09:27:29.722000+00:00</time>
      </trkpt>
      <trkpt lat="0" lon="0">
        <time>2020-12-06T09:27:29.726000+00:00</time>
      </trkpt>
      <trkpt lat="47.34578" lon="-1.2826">
        <ele>6</ele>
        <time>2020-12-06T09:27:30.696000+00:00</time>
      </trkpt>
      <trkpt lat="0" lon="0">
        <time>2020-12-06T09:27:30.702000+00:00</time>
      </trkpt>
      <trkpt lat="0" lon="0">
        <time>2020-12-06T09:27:30.714000+00:00</time>
      </trkpt>
      <trkpt lat="0" lon="0">
        <time>2020-12-06T09:27:30.716000+00:00</time>
      </trkpt>
      <trkpt lat="47.34584" lon="-1.28254">
        <ele>6</ele>
        <time>2020-12-06T09:27:31.671000+00:00</time>
      </trkpt>
      <trkpt lat="0" lon="0">
        <time>2020-12-06T09:27:31.675000+00:00</time>
      </trkpt>
      <trkpt lat="0" lon="0">
        <time>2020-12-06T09:27:31.678000+00:00</time>
      </trkpt>
      <trkpt lat="0" lon="0">
        <time>2020-12-06T09:27:31.681000+00:00</time>
      </trkpt>
      <trkpt lat="47.3459" lon="-1.28248">
        <ele>6</ele>
        <time>2020-12-06T09:27:32.710000+00:00</time>
      </trkpt>
      <trkpt lat="0" lon="0">
        <time>2020-12-06T09:27:32.720000+00:00</time>
      </trkpt>
      <trkpt lat="0" lon="0">
        <time>2020-12-06T09:27:32.722000+00:00</time>
      </trkpt>
      <trkpt lat="0" lon="0">
        <time>2020-12-06T09:27:32.723000+00:00</time>
      </trkpt>
      <trkpt lat="47.34596" lon="-1.28241">
        <ele>6</ele>
        <time>2020-12-06T09:27:33.694000+00:00</time>
      </trkpt>
      <trkpt lat="0" lon="0">
        <time>2020-12-06T09:27:33.708000+00:00</time>
      </trkpt>
      <trkpt lat="0" lon="0">
        <time>2020-12-06T09:27:33.717000+00:00</time>
      </trkpt>
      <trkpt lat="0" lon="0">
        <time>2020-12-06T09:27:33.722000+00:00</time>
      </trkpt>
      <trkpt lat="47.34601" lon="-1.28234">
        <ele>6</ele>
        <time>2020-12-06T09:27:34.712000+00:00</time>
      </trkpt>
      <trkpt lat="0" lon="0">
        <time>2020-12-06T09:27:34.730000+00:00</time>
      </trkpt>
      <trkpt lat="0" lon="0">
        <time>2020-12-06T09:27:34.733000+00:00</time>
      </trkpt>
      <trkpt lat="0" lon="0">
        <time>2020-12-06T09:27:34.739000+00:00</time>
      </trkpt>
      <trkpt lat="47.34606" lon="-1.28226">
        <ele>6</ele>
        <time>2020-12-06T09:27:35.666000+00:00</time>
      </trkpt>
      <trkpt lat="0" lon="0">
        <time>2020-12-06T09:27:35.670000+00:00</time>
      </trkpt>
      <trkpt lat="0" lon="0">
        <time>2020-12-06T09:27:35.674000+00:00</time>
      </trkpt>
      <trkpt lat="0" lon="0">
        <time>2020-12-06T09:27:35.676000+00:00</time>
      </trkpt>
      <trkpt lat="47.34611" lon="-1.28218">
        <ele>6</ele>
        <time>2020-12-06T09:27:36.696000+00:00</time>
      </trkpt>
      <trkpt lat="0" lon="0">
        <time>2020-12-06T09:27:36.707000+00:00</time>
      </trkpt>
      <trkpt lat="0" lon="0">
        <time>2020-12-06T09:27:36.716000+00:00</time>
      </trkpt>
      <trkpt lat="0" lon="0">
        <time>2020-12-06T09:27:36.718000+00:00</time>
      </trkpt>
      <trkpt lat="47.34615" lon="-1.2821">
        <ele>6</ele>
        <time>2020-12-06T09:27:37.686000+00:00</time>
      </trkpt>
      <trkpt lat="0" lon="0">
        <time>2020-12-06T09:27:37.691000+00:00</time>
      </trkpt>
      <trkpt lat="0" lon="0">
        <time>2020-12-06T09:27:37.701000+00:00</time>
      </trkpt>
      <trkpt lat="0" lon="0">
        <time>2020-12-06T09:27:37.708000+00:00</time>
      </trkpt>
      <trkpt lat="47.34619" lon="-1.28202">
        <ele>6</ele>
        <time>2020-12-06T09:27:38.710000+00:00</time>
      </trkpt>
      <trkpt lat="0" lon="0">
        <time>2020-12-06T09:27:38.718000+00:00</time>
      </trkpt>
      <trkpt lat="0" lon="0">
        <time>2020-12-06T09:27:38.727000+00:00</time>
      </trkpt>
      <trkpt lat="0" lon="0">
        <time>2020-12-06T09:27:38.733000+00:00</time>
      </trkpt>
      <trkpt lat="47.34622" lon="-1.28194">
        <ele>6</ele>
        <time>2020-12-06T09:27:39.703000+00:00</time>
      </trkpt>
      <trkpt lat="0" lon="0">
        <time>2020-12-06T09:27:39.708000+00:00</time>
      </trkpt>
      <trkpt lat="0" lon="0">
        <time>2020-12-06T09:27:39.723000+00:00</time>
      </trkpt>
      <trkpt lat="0" lon="0">
        <time>2020-12-06T09:27:39.724000+00:00</time>
      </trkpt>
      <trkpt lat="47.34625" lon="-1.28186">
        <ele>6</ele>
        <time>2020-12-06T09:27:40.707000+00:00</time>
      </trkpt>
      <trkpt lat="0" lon="0">
        <time>2020-12-06T09:27:40.727000+00:00</time>
      </trkpt>
      <trkpt lat="0" lon="0">
        <time>2020-12-06T09:27:40.731000+00:00</time>
      </trkpt>
      <trkpt lat="0" lon="0">
        <time>2020-12-06T09:27:40.733000+00:00</time>
      </trkpt>
      <trkpt lat="47.34628" lon="-1.28179">
        <ele>6</ele>
        <time>2020-12-06T09:27:41.697000+00:00</time>
      </trkpt>
      <trkpt lat="0" lon="0">
        <time>2020-12-06T09:27:41.722000+00:00</time>
      </trkpt>
      <trkpt lat="0" lon="0">
        <time>2020-12-06T09:27:41.729000+00:00</time>
      </trkpt>
      <trkpt lat="0" lon="0">
        <time>2020-12-06T09:27:41.731000+00:00</time>
      </trkpt>
      <trkpt lat="47.34631" lon="-1.28172">
        <ele>6</ele>
        <time>2020-12-06T09:27:42.686000+00:00</time>
      </trkpt>
      <trkpt lat="0" lon="0">
        <time>2020-12-06T09:27:42.703000+00:00</time>
      </trkpt>
      <trkpt lat="0" lon="0">
        <time>2020-12-06T09:27:42.706000+00:00</time>
      </trkpt>
      <trkpt lat="0" lon="0">
        <time>2020-12-06T09:27:42.708000+00:00</time>
      </trkpt>
      <trkpt lat="47.34633" lon="-1.28166">
        <ele>6</ele>
        <time>2020-12-06T09:27:43.702000+00:00</time>
      </trkpt>
      <trkpt lat="0" lon="0">
        <time>2020-12-06T09:27:43.715000+00:00</time>
      </trkpt>
      <trkpt lat="0" lon="0">
        <time>2020-12-06T09:27:43.719000+00:00</time>
      </trkpt>
      <trkpt lat="0" lon="0">
        <time>2020-12-06T09:27:43.721000+00:00</time>
      </trkpt>
      <trkpt lat="47.34636" lon="-1.28159">
        <ele>6</ele>
        <time>2020-12-06T09:27:44.658000+00:00</time>
      </trkpt>
      <trkpt lat="0" lon="0">
        <time>2020-12-06T09:27:44.664000+00:00</time>
      </trkpt>
      <trkpt lat="0" lon="0">
        <time>2020-12-06T09:27:44.670000+00:00</time>
      </trkpt>
      <trkpt lat="0" lon="0">
        <time>2020-12-06T09:27:44.672000+00:00</time>
      </trkpt>
      <trkpt lat="47.34638" lon="-1.28153">
        <ele>6</ele>
        <time>2020-12-06T09:27:45.699000+00:00</time>
      </trkpt>
      <trkpt lat="0" lon="0">
        <time>2020-12-06T09:27:45.708000+00:00</time>
      </trkpt>
      <trkpt lat="0" lon="0">
        <time>2020-12-06T09:27:45.712000+00:00</time>
      </trkpt>
      <trkpt lat="0" lon="0">
        <time>2020-12-06T09:27:45.713000+00:00</time>
      </trkpt>
      <trkpt lat="47.3464" lon="-1.28147">
        <ele>6</ele>
        <time>2020-12-06T09:27:46.691000+00:00</time>
      </trkpt>
      <trkpt lat="0" lon="0">
        <time>2020-12-06T09:27:46.713000+00:00</time>
      </trkpt>
      <trkpt lat="0" lon="0">
        <time>2020-12-06T09:27:46.720000+00:00</time>
      </trkpt>
      <trkpt lat="0" lon="0">
        <time>2020-12-06T09:27:46.722000+00:00</time>
      </trkpt>
      <trkpt lat="47.34642" lon="-1.28141">
        <ele>6</ele>
        <time>2020-12-06T09:27:47.677000+00:00</time>
      </trkpt>
      <trkpt lat="0" lon="0">
        <time>2020-12-06T09:27:47.687000+00:00</time>
      </trkpt>
      <trkpt lat="0" lon="0">
        <time>2020-12-06T09:27:47.693000+00:00</time>
      </trkpt>
      <trkpt lat="0" lon="0">
        <time>2020-12-06T09:27:47.698000+00:00</time>
      </trkpt>
      <trkpt lat="47.34644" lon="-1.28136">
        <ele>6</ele>
        <time>2020-12-06T09:27:48.705000+00:00</time>
      </trkpt>
      <trkpt lat="0" lon="0">
        <time>2020-12-06T09:27:48.708000+00:00</time>
      </trkpt>
      <trkpt lat="0" lon="0">
        <time>2020-12-06T09:27:48.721000+00:00</time>
      </trkpt>
      <trkpt lat="0" lon="0">
        <time>2020-12-06T09:27:48.722000+00:00</time>
      </trkpt>
      <trkpt lat="47.34646" lon="-1.28131">
        <ele>6</ele>
        <time>2020-12-06T09:27:49.697000+00:00</time>
      </trkpt>
      <trkpt lat="0" lon="0">
        <time>2020-12-06T09:27:49.711000+00:00</time>
      </trkpt>
      <trkpt lat="0" lon="0">
        <time>2020-12-06T09:27:49.723000+00:00</time>
      </trkpt>
      <trkpt lat="0" lon="0">
        <time>2020-12-06T09:27:49.725000+00:00</time>
      </trkpt>
      <trkpt lat="47.34649" lon="-1.28127">
        <ele>6</ele>
        <time>2020-12-06T09:27:50.706000+00:00</time>
      </trkpt>
      <trkpt lat="0" lon="0">
        <time>2020-12-06T09:27:50.713000+00:00</time>
      </trkpt>
      <trkpt lat="0" lon="0">
        <time>2020-12-06T09:27:50.717000+00:00</time>
      </trkpt>
      <trkpt lat="0" lon="0">
        <time>2020-12-06T09:27:50.720000+00:00</time>
      </trkpt>
      <trkpt lat="47.34651" lon="-1.28123">
        <ele>6</ele>
        <time>2020-12-06T09:27:51.686000+00:00</time>
      </trkpt>
      <trkpt lat="0" lon="0">
        <time>2020-12-06T09:27:51.693000+00:00</time>
      </trkpt>
      <trkpt lat="0" lon="0">
        <time>2020-12-06T09:27:51.694000+00:00</time>
      </trkpt>
      <trkpt lat="47.34655" lon="-1.2812">
        <ele>6</ele>
        <time>2020-12-06T09:27:52.595000+00:00</time>
      </trkpt>
      <trkpt lat="0" lon="0">
        <time>2020-12-06T09:27:52.600000+00:00</time>
      </trkpt>
      <trkpt lat="0" lon="0">
        <time>2020-12-06T09:27:52.604000+00:00</time>
      </trkpt>
      <trkpt lat="0" lon="0">
        <time>2020-12-06T09:27:52.606000+00:00</time>
      </trkpt>
      <trkpt lat="47.34658" lon="-1.28117">
        <ele>6</ele>
        <time>2020-12-06T09:27:53.681000+00:00</time>
      </trkpt>
      <trkpt lat="0" lon="0">
        <time>2020-12-06T09:27:53.687000+00:00</time>
      </trkpt>
      <trkpt lat="0" lon="0">
        <time>2020-12-06T09:27:53.694000+00:00</time>
      </trkpt>
      <trkpt lat="0" lon="0">
        <time>2020-12-06T09:27:53.696000+00:00</time>
      </trkpt>
      <trkpt lat="47.34662" lon="-1.28115">
        <ele>6</ele>
        <time>2020-12-06T09:27:54.686000+00:00</time>
      </trkpt>
      <trkpt lat="0" lon="0">
        <time>2020-12-06T09:27:54.700000+00:00</time>
      </trkpt>
      <trkpt lat="0" lon="0">
        <time>2020-12-06T09:27:54.704000+00:00</time>
      </trkpt>
      <trkpt lat="0" lon="0">
        <time>2020-12-06T09:27:54.707000+00:00</time>
      </trkpt>
      <trkpt lat="47.34666" lon="-1.28114">
        <ele>6</ele>
        <time>2020-12-06T09:27:55.678000+00:00</time>
      </trkpt>
      <trkpt lat="0" lon="0">
        <time>2020-12-06T09:27:55.682000+00:00</time>
      </trkpt>
      <trkpt lat="0" lon="0">
        <time>2020-12-06T09:27:55.684000+00:00</time>
      </trkpt>
      <trkpt lat="47.34671" lon="-1.28113">
        <ele>6</ele>
        <time>2020-12-06T09:27:56.674000+00:00</time>
      </trkpt>
      <trkpt lat="0" lon="0">
        <time>2020-12-06T09:27:56.677000+00:00</time>
      </trkpt>
      <trkpt lat="0" lon="0">
        <time>2020-12-06T09:27:56.680000+00:00</time>
      </trkpt>
      <trkpt lat="0" lon="0">
        <time>2020-12-06T09:27:56.687000+00:00</time>
      </trkpt>
      <trkpt lat="47.34675" lon="-1.28113">
        <ele>6</ele>
        <time>2020-12-06T09:27:57.685000+00:00</time>
      </trkpt>
      <trkpt lat="0" lon="0">
        <time>2020-12-06T09:27:57.699000+00:00</time>
      </trkpt>
      <trkpt lat="0" lon="0">
        <time>2020-12-06T09:27:57.705000+00:00</time>
      </trkpt>
      <trkpt lat="0" lon="0">
        <time>2020-12-06T09:27:57.710000+00:00</time>
      </trkpt>
      <trkpt lat="47.3468" lon="-1.28113">
        <ele>6</ele>
        <time>2020-12-06T09:27:58.676000+00:00</time>
      </trkpt>
      <trkpt lat="0" lon="0">
        <time>2020-12-06T09:27:58.680000+00:00</time>
      </trkpt>
      <trkpt lat="0" lon="0">
        <time>2020-12-06T09:27:58.687000+00:00</time>
      </trkpt>
      <trkpt lat="0" lon="0">
        <time>2020-12-06T09:27:58.689000+00:00</time>
      </trkpt>
      <trkpt lat="47.34685" lon="-1.28113">
        <ele>6</ele>
        <time>2020-12-06T09:27:59.711000+00:00</time>
      </trkpt>
      <trkpt lat="0" lon="0">
        <time>2020-12-06T09:27:59.716000+00:00</time>
      </trkpt>
      <trkpt lat="0" lon="0">
        <time>2020-12-06T09:27:59.721000+00:00</time>
      </trkpt>
      <trkpt lat="0" lon="0">
        <time>2020-12-06T09:27:59.723000+00:00</time>
      </trkpt>
      <trkpt lat="47.3469" lon="-1.28114">
        <ele>7</ele>
        <time>2020-12-06T09:28:00.654000+00:00</time>
      </trkpt>
      <trkpt lat="0" lon="0">
        <time>2020-12-06T09:28:00.656000+00:00</time>
      </trkpt>
      <trkpt lat="0" lon="0">
        <time>2020-12-06T09:28:00.657000+00:00</time>
      </trkpt>
      <trkpt lat="0" lon="0">
        <time>2020-12-06T09:28:00.658000+00:00</time>
      </trkpt>
      <trkpt lat="47.34695" lon="-1.28115">
        <ele>7</ele>
        <time>2020-12-06T09:28:01.678000+00:00</time>
      </trkpt>
      <trkpt lat="0" lon="0">
        <time>2020-12-06T09:28:01.690000+00:00</time>
      </trkpt>
      <trkpt lat="0" lon="0">
        <time>2020-12-06T09:28:01.695000+00:00</time>
      </trkpt>
      <trkpt lat="0" lon="0">
        <time>2020-12-06T09:28:01.699000+00:00</time>
      </trkpt>
      <trkpt lat="47.347" lon="-1.28116">
        <ele>7</ele>
        <time>2020-12-06T09:28:02.622000+00:00</time>
      </trkpt>
      <trkpt lat="0" lon="0">
        <time>2020-12-06T09:28:02.636000+00:00</time>
      </trkpt>
      <trkpt lat="0" lon="0">
        <time>2020-12-06T09:28:02.641000+00:00</time>
      </trkpt>
      <trkpt lat="0" lon="0">
        <time>2020-12-06T09:28:02.642000+00:00</time>
      </trkpt>
      <trkpt lat="47.34704" lon="-1.28117">
        <ele>7</ele>
        <time>2020-12-06T09:28:03.646000+00:00</time>
      </trkpt>
      <trkpt lat="0" lon="0">
        <time>2020-12-06T09:28:03.652000+00:00</time>
      </trkpt>
      <trkpt lat="0" lon="0">
        <time>2020-12-06T09:28:03.657000+00:00</time>
      </trkpt>
      <trkpt lat="0" lon="0">
        <time>2020-12-06T09:28:03.658000+00:00</time>
      </trkpt>
      <trkpt lat="47.34709" lon="-1.28118">
        <ele>7</ele>
        <time>2020-12-06T09:28:04.663000+00:00</time>
      </trkpt>
      <trkpt lat="0" lon="0">
        <time>2020-12-06T09:28:04.665000+00:00</time>
      </trkpt>
      <trkpt lat="0" lon="0">
        <time>2020-12-06T09:28:04.668000+00:00</time>
      </trkpt>
      <trkpt lat="0" lon="0">
        <time>2020-12-06T09:28:04.674000+00:00</time>
      </trkpt>
      <trkpt lat="47.34713" lon="-1.28119">
        <ele>7</ele>
        <time>2020-12-06T09:28:05.693000+00:00</time>
      </trkpt>
      <trkpt lat="0" lon="0">
        <time>2020-12-06T09:28:05.704000+00:00</time>
      </trkpt>
      <trkpt lat="0" lon="0">
        <time>2020-12-06T09:28:05.710000+00:00</time>
      </trkpt>
      <trkpt lat="0" lon="0">
        <time>2020-12-06T09:28:05.712000+00:00</time>
      </trkpt>
      <trkpt lat="47.34717" lon="-1.2812">
        <ele>8</ele>
        <time>2020-12-06T09:28:06.696000+00:00</time>
      </trkpt>
      <trkpt lat="0" lon="0">
        <time>2020-12-06T09:28:06.698000+00:00</time>
      </trkpt>
      <trkpt lat="0" lon="0">
        <time>2020-12-06T09:28:06.712000+00:00</time>
      </trkpt>
      <trkpt lat="0" lon="0">
        <time>2020-12-06T09:28:06.714000+00:00</time>
      </trkpt>
      <trkpt lat="47.34721" lon="-1.28121">
        <ele>8</ele>
        <time>2020-12-06T09:28:07.688000+00:00</time>
      </trkpt>
      <trkpt lat="0" lon="0">
        <time>2020-12-06T09:28:07.696000+00:00</time>
      </trkpt>
      <trkpt lat="0" lon="0">
        <time>2020-12-06T09:28:07.704000+00:00</time>
      </trkpt>
      <trkpt lat="0" lon="0">
        <time>2020-12-06T09:28:07.707000+00:00</time>
      </trkpt>
      <trkpt lat="47.34725" lon="-1.28121">
        <ele>8</ele>
        <time>2020-12-06T09:28:08.690000+00:00</time>
      </trkpt>
      <trkpt lat="0" lon="0">
        <time>2020-12-06T09:28:08.702000+00:00</time>
      </trkpt>
      <trkpt lat="0" lon="0">
        <time>2020-12-06T09:28:08.704000+00:00</time>
      </trkpt>
      <trkpt lat="0" lon="0">
        <time>2020-12-06T09:28:08.705000+00:00</time>
      </trkpt>
      <trkpt lat="47.34728" lon="-1.28119">
        <ele>8</ele>
        <time>2020-12-06T09:28:09.665000+00:00</time>
      </trkpt>
      <trkpt lat="0" lon="0">
        <time>2020-12-06T09:28:09.669000+00:00</time>
      </trkpt>
      <trkpt lat="0" lon="0">
        <time>2020-12-06T09:28:09.679000+00:00</time>
      </trkpt>
      <trkpt lat="0" lon="0">
        <time>2020-12-06T09:28:09.681000+00:00</time>
      </trkpt>
      <trkpt lat="47.3473" lon="-1.28117">
        <ele>8</ele>
        <time>2020-12-06T09:28:10.664000+00:00</time>
      </trkpt>
      <trkpt lat="0" lon="0">
        <time>2020-12-06T09:28:10.668000+00:00</time>
      </trkpt>
      <trkpt lat="0" lon="0">
        <time>2020-12-06T09:28:10.686000+00:00</time>
      </trkpt>
      <trkpt lat="0" lon="0">
        <time>2020-12-06T09:28:10.690000+00:00</time>
      </trkpt>
      <trkpt lat="47.34732" lon="-1.28114">
        <ele>8</ele>
        <time>2020-12-06T09:28:11.684000+00:00</time>
      </trkpt>
      <trkpt lat="0" lon="0">
        <time>2020-12-06T09:28:11.703000+00:00</time>
      </trkpt>
      <trkpt lat="0" lon="0">
        <time>2020-12-06T09:28:11.714000+00:00</time>
      </trkpt>
      <trkpt lat="0" lon="0">
        <time>2020-12-06T09:28:11.715000+00:00</time>
      </trkpt>
      <trkpt lat="47.34733" lon="-1.28109">
        <ele>8</ele>
        <time>2020-12-06T09:28:12.663000+00:00</time>
      </trkpt>
      <trkpt lat="0" lon="0">
        <time>2020-12-06T09:28:12.671000+00:00</time>
      </trkpt>
      <trkpt lat="0" lon="0">
        <time>2020-12-06T09:28:12.678000+00:00</time>
      </trkpt>
      <trkpt lat="0" lon="0">
        <time>2020-12-06T09:28:12.679000+00:00</time>
      </trkpt>
      <trkpt lat="47.34734" lon="-1.28104">
        <ele>8</ele>
        <time>2020-12-06T09:28:13.708000+00:00</time>
      </trkpt>
      <trkpt lat="0" lon="0">
        <time>2020-12-06T09:28:13.715000+00:00</time>
      </trkpt>
      <trkpt lat="0" lon="0">
        <time>2020-12-06T09:28:13.728000+00:00</time>
      </trkpt>
      <trkpt lat="0" lon="0">
        <time>2020-12-06T09:28:13.730000+00:00</time>
      </trkpt>
      <trkpt lat="47.34734" lon="-1.28099">
        <ele>8</ele>
        <time>2020-12-06T09:28:14.693000+00:00</time>
      </trkpt>
      <trkpt lat="0" lon="0">
        <time>2020-12-06T09:28:14.698000+00:00</time>
      </trkpt>
      <trkpt lat="0" lon="0">
        <time>2020-12-06T09:28:14.702000+00:00</time>
      </trkpt>
      <trkpt lat="0" lon="0">
        <time>2020-12-06T09:28:14.704000+00:00</time>
      </trkpt>
      <trkpt lat="47.34734" lon="-1.28092">
        <ele>8</ele>
        <time>2020-12-06T09:28:15.713000+00:00</time>
      </trkpt>
      <trkpt lat="0" lon="0">
        <time>2020-12-06T09:28:15.725000+00:00</time>
      </trkpt>
      <trkpt lat="0" lon="0">
        <time>2020-12-06T09:28:15.729000+00:00</time>
      </trkpt>
      <trkpt lat="0" lon="0">
        <time>2020-12-06T09:28:15.731000+00:00</time>
      </trkpt>
      <trkpt lat="47.34735" lon="-1.28086">
        <ele>8</ele>
        <time>2020-12-06T09:28:16.687000+00:00</time>
      </trkpt>
      <trkpt lat="0" lon="0">
        <time>2020-12-06T09:28:16.707000+00:00</time>
      </trkpt>
      <trkpt lat="0" lon="0">
        <time>2020-12-06T09:28:16.714000+00:00</time>
      </trkpt>
      <trkpt lat="0" lon="0">
        <time>2020-12-06T09:28:16.719000+00:00</time>
      </trkpt>
      <trkpt lat="47.34736" lon="-1.28079">
        <ele>8</ele>
        <time>2020-12-06T09:28:17.663000+00:00</time>
      </trkpt>
      <trkpt lat="0" lon="0">
        <time>2020-12-06T09:28:17.668000+00:00</time>
      </trkpt>
      <trkpt lat="0" lon="0">
        <time>2020-12-06T09:28:17.671000+00:00</time>
      </trkpt>
      <trkpt lat="0" lon="0">
        <time>2020-12-06T09:28:17.673000+00:00</time>
      </trkpt>
      <trkpt lat="47.34737" lon="-1.28072">
        <ele>8</ele>
        <time>2020-12-06T09:28:18.697000+00:00</time>
      </trkpt>
      <trkpt lat="0" lon="0">
        <time>2020-12-06T09:28:18.701000+00:00</time>
      </trkpt>
      <trkpt lat="0" lon="0">
        <time>2020-12-06T09:28:18.707000+00:00</time>
      </trkpt>
      <trkpt lat="0" lon="0">
        <time>2020-12-06T09:28:18.712000+00:00</time>
      </trkpt>
      <trkpt lat="47.34739" lon="-1.28065">
        <ele>8</ele>
        <time>2020-12-06T09:28:19.696000+00:00</time>
      </trkpt>
      <trkpt lat="0" lon="0">
        <time>2020-12-06T09:28:19.699000+00:00</time>
      </trkpt>
      <trkpt lat="0" lon="0">
        <time>2020-12-06T09:28:19.704000+00:00</time>
      </trkpt>
      <trkpt lat="0" lon="0">
        <time>2020-12-06T09:28:19.710000+00:00</time>
      </trkpt>
      <trkpt lat="47.3474" lon="-1.28058">
        <ele>8</ele>
        <time>2020-12-06T09:28:20.701000+00:00</time>
      </trkpt>
      <trkpt lat="0" lon="0">
        <time>2020-12-06T09:28:20.711000+00:00</time>
      </trkpt>
      <trkpt lat="0" lon="0">
        <time>2020-12-06T09:28:20.719000+00:00</time>
      </trkpt>
      <trkpt lat="0" lon="0">
        <time>2020-12-06T09:28:20.722000+00:00</time>
      </trkpt>
      <trkpt lat="47.34741" lon="-1.28051">
        <ele>9</ele>
        <time>2020-12-06T09:28:21.685000+00:00</time>
      </trkpt>
      <trkpt lat="0" lon="0">
        <time>2020-12-06T09:28:21.690000+00:00</time>
      </trkpt>
      <trkpt lat="0" lon="0">
        <time>2020-12-06T09:28:21.694000+00:00</time>
      </trkpt>
      <trkpt lat="0" lon="0">
        <time>2020-12-06T09:28:21.695000+00:00</time>
      </trkpt>
      <trkpt lat="47.34743" lon="-1.28043">
        <ele>9</ele>
        <time>2020-12-06T09:28:22.738000+00:00</time>
      </trkpt>
      <trkpt lat="0" lon="0">
        <time>2020-12-06T09:28:22.743000+00:00</time>
      </trkpt>
      <trkpt lat="0" lon="0">
        <time>2020-12-06T09:28:22.752000+00:00</time>
      </trkpt>
      <trkpt lat="0" lon="0">
        <time>2020-12-06T09:28:22.755000+00:00</time>
      </trkpt>
      <trkpt lat="47.34745" lon="-1.28036">
        <ele>9</ele>
        <time>2020-12-06T09:28:23.690000+00:00</time>
      </trkpt>
      <trkpt lat="0" lon="0">
        <time>2020-12-06T09:28:23.693000+00:00</time>
      </trkpt>
      <trkpt lat="0" lon="0">
        <time>2020-12-06T09:28:23.697000+00:00</time>
      </trkpt>
      <trkpt lat="0" lon="0">
        <time>2020-12-06T09:28:23.699000+00:00</time>
      </trkpt>
      <trkpt lat="47.34746" lon="-1.28028">
        <ele>9</ele>
        <time>2020-12-06T09:28:24.718000+00:00</time>
      </trkpt>
      <trkpt lat="0" lon="0">
        <time>2020-12-06T09:28:24.720000+00:00</time>
      </trkpt>
      <trkpt lat="0" lon="0">
        <time>2020-12-06T09:28:24.728000+00:00</time>
      </trkpt>
      <trkpt lat="0" lon="0">
        <time>2020-12-06T09:28:24.730000+00:00</time>
      </trkpt>
      <trkpt lat="47.34748" lon="-1.2802">
        <ele>9</ele>
        <time>2020-12-06T09:28:25.698000+00:00</time>
      </trkpt>
      <trkpt lat="0" lon="0">
        <time>2020-12-06T09:28:25.703000+00:00</time>
      </trkpt>
      <trkpt lat="0" lon="0">
        <time>2020-12-06T09:28:25.717000+00:00</time>
      </trkpt>
      <trkpt lat="0" lon="0">
        <time>2020-12-06T09:28:25.731000+00:00</time>
      </trkpt>
      <trkpt lat="47.3475" lon="-1.28012">
        <ele>9</ele>
        <time>2020-12-06T09:28:26.704000+00:00</time>
      </trkpt>
      <trkpt lat="0" lon="0">
        <time>2020-12-06T09:28:26.708000+00:00</time>
      </trkpt>
      <trkpt lat="0" lon="0">
        <time>2020-12-06T09:28:26.724000+00:00</time>
      </trkpt>
      <trkpt lat="0" lon="0">
        <time>2020-12-06T09:28:26.728000+00:00</time>
      </trkpt>
      <trkpt lat="47.34751" lon="-1.28004">
        <ele>9</ele>
        <time>2020-12-06T09:28:27.708000+00:00</time>
      </trkpt>
      <trkpt lat="0" lon="0">
        <time>2020-12-06T09:28:27.713000+00:00</time>
      </trkpt>
      <trkpt lat="0" lon="0">
        <time>2020-12-06T09:28:27.717000+00:00</time>
      </trkpt>
      <trkpt lat="0" lon="0">
        <time>2020-12-06T09:28:27.719000+00:00</time>
      </trkpt>
      <trkpt lat="47.34753" lon="-1.27995">
        <ele>9</ele>
        <time>2020-12-06T09:28:28.682000+00:00</time>
      </trkpt>
      <trkpt lat="0" lon="0">
        <time>2020-12-06T09:28:28.687000+00:00</time>
      </trkpt>
      <trkpt lat="0" lon="0">
        <time>2020-12-06T09:28:28.689000+00:00</time>
      </trkpt>
      <trkpt lat="47.34755" lon="-1.27987">
        <ele>9</ele>
        <time>2020-12-06T09:28:29.707000+00:00</time>
      </trkpt>
      <trkpt lat="0" lon="0">
        <time>2020-12-06T09:28:29.715000+00:00</time>
      </trkpt>
      <trkpt lat="0" lon="0">
        <time>2020-12-06T09:28:29.721000+00:00</time>
      </trkpt>
      <trkpt lat="0" lon="0">
        <time>2020-12-06T09:28:29.727000+00:00</time>
      </trkpt>
      <trkpt lat="47.34757" lon="-1.27979">
        <ele>9</ele>
        <time>2020-12-06T09:28:30.676000+00:00</time>
      </trkpt>
      <trkpt lat="0" lon="0">
        <time>2020-12-06T09:28:30.691000+00:00</time>
      </trkpt>
      <trkpt lat="0" lon="0">
        <time>2020-12-06T09:28:30.699000+00:00</time>
      </trkpt>
      <trkpt lat="0" lon="0">
        <time>2020-12-06T09:28:30.701000+00:00</time>
      </trkpt>
      <trkpt lat="47.34758" lon="-1.27971">
        <ele>9</ele>
        <time>2020-12-06T09:28:31.685000+00:00</time>
      </trkpt>
      <trkpt lat="0" lon="0">
        <time>2020-12-06T09:28:31.691000+00:00</time>
      </trkpt>
      <trkpt lat="0" lon="0">
        <time>2020-12-06T09:28:31.698000+00:00</time>
      </trkpt>
      <trkpt lat="0" lon="0">
        <time>2020-12-06T09:28:31.700000+00:00</time>
      </trkpt>
      <trkpt lat="47.3476" lon="-1.27963">
        <ele>9</ele>
        <time>2020-12-06T09:28:32.671000+00:00</time>
      </trkpt>
      <trkpt lat="0" lon="0">
        <time>2020-12-06T09:28:32.684000+00:00</time>
      </trkpt>
      <trkpt lat="0" lon="0">
        <time>2020-12-06T09:28:32.686000+00:00</time>
      </trkpt>
      <trkpt lat="0" lon="0">
        <time>2020-12-06T09:28:32.687000+00:00</time>
      </trkpt>
      <trkpt lat="47.34762" lon="-1.27955">
        <ele>9</ele>
        <time>2020-12-06T09:28:33.702000+00:00</time>
      </trkpt>
      <trkpt lat="0" lon="0">
        <time>2020-12-06T09:28:33.708000+00:00</time>
      </trkpt>
      <trkpt lat="0" lon="0">
        <time>2020-12-06T09:28:33.713000+00:00</time>
      </trkpt>
      <trkpt lat="0" lon="0">
        <time>2020-12-06T09:28:33.718000+00:00</time>
      </trkpt>
      <trkpt lat="47.34763" lon="-1.27947">
        <ele>9</ele>
        <time>2020-12-06T09:28:34.656000+00:00</time>
      </trkpt>
      <trkpt lat="0" lon="0">
        <time>2020-12-06T09:28:34.663000+00:00</time>
      </trkpt>
      <trkpt lat="0" lon="0">
        <time>2020-12-06T09:28:34.665000+00:00</time>
      </trkpt>
      <trkpt lat="0" lon="0">
        <time>2020-12-06T09:28:34.666000+00:00</time>
      </trkpt>
      <trkpt lat="47.34765" lon="-1.27939">
        <ele>9</ele>
        <time>2020-12-06T09:28:35.692000+00:00</time>
      </trkpt>
      <trkpt lat="0" lon="0">
        <time>2020-12-06T09:28:35.696000+00:00</time>
      </trkpt>
      <trkpt lat="0" lon="0">
        <time>2020-12-06T09:28:35.709000+00:00</time>
      </trkpt>
      <trkpt lat="0" lon="0">
        <time>2020-12-06T09:28:35.711000+00:00</time>
      </trkpt>
      <trkpt lat="47.34767" lon="-1.27931">
        <ele>8</ele>
        <time>2020-12-06T09:28:36.699000+00:00</time>
      </trkpt>
      <trkpt lat="0" lon="0">
        <time>2020-12-06T09:28:36.709000+00:00</time>
      </trkpt>
      <trkpt lat="0" lon="0">
        <time>2020-12-06T09:28:36.713000+00:00</time>
      </trkpt>
      <trkpt lat="0" lon="0">
        <time>2020-12-06T09:28:36.715000+00:00</time>
      </trkpt>
      <trkpt lat="47.34769" lon="-1.27923">
        <ele>8</ele>
        <time>2020-12-06T09:28:37.688000+00:00</time>
      </trkpt>
      <trkpt lat="0" lon="0">
        <time>2020-12-06T09:28:37.700000+00:00</time>
      </trkpt>
      <trkpt lat="0" lon="0">
        <time>2020-12-06T09:28:37.704000+00:00</time>
      </trkpt>
      <trkpt lat="0" lon="0">
        <time>2020-12-06T09:28:37.710000+00:00</time>
      </trkpt>
      <trkpt lat="47.3477" lon="-1.27915">
        <ele>8</ele>
        <time>2020-12-06T09:28:38.715000+00:00</time>
      </trkpt>
      <trkpt lat="0" lon="0">
        <time>2020-12-06T09:28:38.741000+00:00</time>
      </trkpt>
      <trkpt lat="0" lon="0">
        <time>2020-12-06T09:28:38.747000+00:00</time>
      </trkpt>
      <trkpt lat="0" lon="0">
        <time>2020-12-06T09:28:38.749000+00:00</time>
      </trkpt>
      <trkpt lat="47.34772" lon="-1.27907">
        <ele>8</ele>
        <time>2020-12-06T09:28:39.681000+00:00</time>
      </trkpt>
      <trkpt lat="0" lon="0">
        <time>2020-12-06T09:28:39.685000+00:00</time>
      </trkpt>
      <trkpt lat="0" lon="0">
        <time>2020-12-06T09:28:39.696000+00:00</time>
      </trkpt>
      <trkpt lat="0" lon="0">
        <time>2020-12-06T09:28:39.698000+00:00</time>
      </trkpt>
      <trkpt lat="47.34774" lon="-1.27899">
        <ele>8</ele>
        <time>2020-12-06T09:28:40.695000+00:00</time>
      </trkpt>
      <trkpt lat="0" lon="0">
        <time>2020-12-06T09:28:40.713000+00:00</time>
      </trkpt>
      <trkpt lat="0" lon="0">
        <time>2020-12-06T09:28:40.716000+00:00</time>
      </trkpt>
      <trkpt lat="0" lon="0">
        <time>2020-12-06T09:28:40.719000+00:00</time>
      </trkpt>
      <trkpt lat="47.34776" lon="-1.27891">
        <ele>8</ele>
        <time>2020-12-06T09:28:41.684000+00:00</time>
      </trkpt>
      <trkpt lat="0" lon="0">
        <time>2020-12-06T09:28:41.691000+00:00</time>
      </trkpt>
      <trkpt lat="0" lon="0">
        <time>2020-12-06T09:28:41.697000+00:00</time>
      </trkpt>
      <trkpt lat="0" lon="0">
        <time>2020-12-06T09:28:41.707000+00:00</time>
      </trkpt>
      <trkpt lat="47.34777" lon="-1.27884">
        <ele>8</ele>
        <time>2020-12-06T09:28:42.682000+00:00</time>
      </trkpt>
      <trkpt lat="0" lon="0">
        <time>2020-12-06T09:28:42.692000+00:00</time>
      </trkpt>
      <trkpt lat="0" lon="0">
        <time>2020-12-06T09:28:42.695000+00:00</time>
      </trkpt>
      <trkpt lat="0" lon="0">
        <time>2020-12-06T09:28:42.698000+00:00</time>
      </trkpt>
      <trkpt lat="47.34779" lon="-1.27876">
        <ele>8</ele>
        <time>2020-12-06T09:28:43.690000+00:00</time>
      </trkpt>
      <trkpt lat="0" lon="0">
        <time>2020-12-06T09:28:43.696000+00:00</time>
      </trkpt>
      <trkpt lat="0" lon="0">
        <time>2020-12-06T09:28:43.703000+00:00</time>
      </trkpt>
      <trkpt lat="0" lon="0">
        <time>2020-12-06T09:28:43.704000+00:00</time>
      </trkpt>
      <trkpt lat="47.34781" lon="-1.27868">
        <ele>8</ele>
        <time>2020-12-06T09:28:44.676000+00:00</time>
      </trkpt>
      <trkpt lat="0" lon="0">
        <time>2020-12-06T09:28:44.691000+00:00</time>
      </trkpt>
      <trkpt lat="0" lon="0">
        <time>2020-12-06T09:28:44.695000+00:00</time>
      </trkpt>
      <trkpt lat="0" lon="0">
        <time>2020-12-06T09:28:44.697000+00:00</time>
      </trkpt>
      <trkpt lat="47.34782" lon="-1.27861">
        <ele>8</ele>
        <time>2020-12-06T09:28:45.700000+00:00</time>
      </trkpt>
      <trkpt lat="0" lon="0">
        <time>2020-12-06T09:28:45.716000+00:00</time>
      </trkpt>
      <trkpt lat="0" lon="0">
        <time>2020-12-06T09:28:45.722000+00:00</time>
      </trkpt>
      <trkpt lat="0" lon="0">
        <time>2020-12-06T09:28:45.724000+00:00</time>
      </trkpt>
      <trkpt lat="47.34784" lon="-1.27853">
        <ele>8</ele>
        <time>2020-12-06T09:28:46.720000+00:00</time>
      </trkpt>
      <trkpt lat="0" lon="0">
        <time>2020-12-06T09:28:46.722000+00:00</time>
      </trkpt>
      <trkpt lat="0" lon="0">
        <time>2020-12-06T09:28:46.724000+00:00</time>
      </trkpt>
      <trkpt lat="47.34786" lon="-1.27845">
        <ele>8</ele>
        <time>2020-12-06T09:28:47.701000+00:00</time>
      </trkpt>
      <trkpt lat="0" lon="0">
        <time>2020-12-06T09:28:47.710000+00:00</time>
      </trkpt>
      <trkpt lat="0" lon="0">
        <time>2020-12-06T09:28:47.713000+00:00</time>
      </trkpt>
      <trkpt lat="0" lon="0">
        <time>2020-12-06T09:28:47.715000+00:00</time>
      </trkpt>
      <trkpt lat="47.34787" lon="-1.27838">
        <ele>8</ele>
        <time>2020-12-06T09:28:48.696000+00:00</time>
      </trkpt>
      <trkpt lat="0" lon="0">
        <time>2020-12-06T09:28:48.710000+00:00</time>
      </trkpt>
      <trkpt lat="0" lon="0">
        <time>2020-12-06T09:28:48.713000+00:00</time>
      </trkpt>
      <trkpt lat="0" lon="0">
        <time>2020-12-06T09:28:48.715000+00:00</time>
      </trkpt>
      <trkpt lat="47.34789" lon="-1.27831">
        <ele>8</ele>
        <time>2020-12-06T09:28:49.672000+00:00</time>
      </trkpt>
      <trkpt lat="0" lon="0">
        <time>2020-12-06T09:28:49.687000+00:00</time>
      </trkpt>
      <trkpt lat="0" lon="0">
        <time>2020-12-06T09:28:49.692000+00:00</time>
      </trkpt>
      <trkpt lat="0" lon="0">
        <time>2020-12-06T09:28:49.695000+00:00</time>
      </trkpt>
      <trkpt lat="47.34791" lon="-1.27824">
        <ele>8</ele>
        <time>2020-12-06T09:28:50.699000+00:00</time>
      </trkpt>
      <trkpt lat="0" lon="0">
        <time>2020-12-06T09:28:50.703000+00:00</time>
      </trkpt>
      <trkpt lat="0" lon="0">
        <time>2020-12-06T09:28:50.713000+00:00</time>
      </trkpt>
      <trkpt lat="0" lon="0">
        <time>2020-12-06T09:28:50.715000+00:00</time>
      </trkpt>
      <trkpt lat="47.34793" lon="-1.27818">
        <ele>7</ele>
        <time>2020-12-06T09:28:51.713000+00:00</time>
      </trkpt>
      <trkpt lat="0" lon="0">
        <time>2020-12-06T09:28:51.740000+00:00</time>
      </trkpt>
      <trkpt lat="0" lon="0">
        <time>2020-12-06T09:28:51.745000+00:00</time>
      </trkpt>
      <trkpt lat="0" lon="0">
        <time>2020-12-06T09:28:51.747000+00:00</time>
      </trkpt>
      <trkpt lat="47.34795" lon="-1.27812">
        <ele>7</ele>
        <time>2020-12-06T09:28:52.687000+00:00</time>
      </trkpt>
      <trkpt lat="0" lon="0">
        <time>2020-12-06T09:28:52.706000+00:00</time>
      </trkpt>
      <trkpt lat="0" lon="0">
        <time>2020-12-06T09:28:52.710000+00:00</time>
      </trkpt>
      <trkpt lat="0" lon="0">
        <time>2020-12-06T09:28:52.715000+00:00</time>
      </trkpt>
      <trkpt lat="47.34798" lon="-1.27807">
        <ele>7</ele>
        <time>2020-12-06T09:28:53.695000+00:00</time>
      </trkpt>
      <trkpt lat="0" lon="0">
        <time>2020-12-06T09:28:53.704000+00:00</time>
      </trkpt>
      <trkpt lat="0" lon="0">
        <time>2020-12-06T09:28:53.718000+00:00</time>
      </trkpt>
      <trkpt lat="0" lon="0">
        <time>2020-12-06T09:28:53.723000+00:00</time>
      </trkpt>
      <trkpt lat="47.34801" lon="-1.27802">
        <ele>7</ele>
        <time>2020-12-06T09:28:54.724000+00:00</time>
      </trkpt>
      <trkpt lat="0" lon="0">
        <time>2020-12-06T09:28:54.732000+00:00</time>
      </trkpt>
      <trkpt lat="0" lon="0">
        <time>2020-12-06T09:28:54.739000+00:00</time>
      </trkpt>
      <trkpt lat="0" lon="0">
        <time>2020-12-06T09:28:54.741000+00:00</time>
      </trkpt>
      <trkpt lat="47.34803" lon="-1.27797">
        <ele>7</ele>
        <time>2020-12-06T09:28:55.740000+00:00</time>
      </trkpt>
      <trkpt lat="0" lon="0">
        <time>2020-12-06T09:28:55.750000+00:00</time>
      </trkpt>
      <trkpt lat="0" lon="0">
        <time>2020-12-06T09:28:55.754000+00:00</time>
      </trkpt>
      <trkpt lat="0" lon="0">
        <time>2020-12-06T09:28:55.757000+00:00</time>
      </trkpt>
      <trkpt lat="47.34805" lon="-1.27792">
        <ele>7</ele>
        <time>2020-12-06T09:28:56.687000+00:00</time>
      </trkpt>
      <trkpt lat="0" lon="0">
        <time>2020-12-06T09:28:56.701000+00:00</time>
      </trkpt>
      <trkpt lat="0" lon="0">
        <time>2020-12-06T09:28:56.707000+00:00</time>
      </trkpt>
      <trkpt lat="0" lon="0">
        <time>2020-12-06T09:28:56.710000+00:00</time>
      </trkpt>
      <trkpt lat="47.34807" lon="-1.27787">
        <ele>7</ele>
        <time>2020-12-06T09:28:57.639000+00:00</time>
      </trkpt>
      <trkpt lat="0" lon="0">
        <time>2020-12-06T09:28:57.645000+00:00</time>
      </trkpt>
      <trkpt lat="0" lon="0">
        <time>2020-12-06T09:28:57.648000+00:00</time>
      </trkpt>
      <trkpt lat="0" lon="0">
        <time>2020-12-06T09:28:57.651000+00:00</time>
      </trkpt>
      <trkpt lat="47.34808" lon="-1.27781">
        <ele>6</ele>
        <time>2020-12-06T09:28:58.705000+00:00</time>
      </trkpt>
      <trkpt lat="0" lon="0">
        <time>2020-12-06T09:28:58.722000+00:00</time>
      </trkpt>
      <trkpt lat="0" lon="0">
        <time>2020-12-06T09:28:58.727000+00:00</time>
      </trkpt>
      <trkpt lat="0" lon="0">
        <time>2020-12-06T09:28:58.730000+00:00</time>
      </trkpt>
      <trkpt lat="47.34809" lon="-1.27775">
        <ele>6</ele>
        <time>2020-12-06T09:28:59.677000+00:00</time>
      </trkpt>
      <trkpt lat="0" lon="0">
        <time>2020-12-06T09:28:59.682000+00:00</time>
      </trkpt>
      <trkpt lat="0" lon="0">
        <time>2020-12-06T09:28:59.686000+00:00</time>
      </trkpt>
      <trkpt lat="0" lon="0">
        <time>2020-12-06T09:28:59.688000+00:00</time>
      </trkpt>
      <trkpt lat="47.3481" lon="-1.27768">
        <ele>6</ele>
        <time>2020-12-06T09:29:00.749000+00:00</time>
      </trkpt>
      <trkpt lat="0" lon="0">
        <time>2020-12-06T09:29:00.756000+00:00</time>
      </trkpt>
      <trkpt lat="0" lon="0">
        <time>2020-12-06T09:29:00.768000+00:00</time>
      </trkpt>
      <trkpt lat="0" lon="0">
        <time>2020-12-06T09:29:00.774000+00:00</time>
      </trkpt>
      <trkpt lat="47.34811" lon="-1.27761">
        <ele>6</ele>
        <time>2020-12-06T09:29:01.676000+00:00</time>
      </trkpt>
      <trkpt lat="0" lon="0">
        <time>2020-12-06T09:29:01.679000+00:00</time>
      </trkpt>
      <trkpt lat="0" lon="0">
        <time>2020-12-06T09:29:01.697000+00:00</time>
      </trkpt>
      <trkpt lat="0" lon="0">
        <time>2020-12-06T09:29:01.699000+00:00</time>
      </trkpt>
      <trkpt lat="47.34811" lon="-1.27754">
        <ele>5</ele>
        <time>2020-12-06T09:29:02.685000+00:00</time>
      </trkpt>
      <trkpt lat="0" lon="0">
        <time>2020-12-06T09:29:02.703000+00:00</time>
      </trkpt>
      <trkpt lat="0" lon="0">
        <time>2020-12-06T09:29:02.708000+00:00</time>
      </trkpt>
      <trkpt lat="0" lon="0">
        <time>2020-12-06T09:29:02.710000+00:00</time>
      </trkpt>
      <trkpt lat="47.34812" lon="-1.27747">
        <ele>5</ele>
        <time>2020-12-06T09:29:03.671000+00:00</time>
      </trkpt>
      <trkpt lat="0" lon="0">
        <time>2020-12-06T09:29:03.677000+00:00</time>
      </trkpt>
      <trkpt lat="0" lon="0">
        <time>2020-12-06T09:29:03.685000+00:00</time>
      </trkpt>
      <trkpt lat="0" lon="0">
        <time>2020-12-06T09:29:03.687000+00:00</time>
      </trkpt>
      <trkpt lat="47.34813" lon="-1.27739">
        <ele>5</ele>
        <time>2020-12-06T09:29:04.690000+00:00</time>
      </trkpt>
      <trkpt lat="0" lon="0">
        <time>2020-12-06T09:29:04.696000+00:00</time>
      </trkpt>
      <trkpt lat="0" lon="0">
        <time>2020-12-06T09:29:04.700000+00:00</time>
      </trkpt>
      <trkpt lat="0" lon="0">
        <time>2020-12-06T09:29:04.704000+00:00</time>
      </trkpt>
      <trkpt lat="47.34814" lon="-1.27732">
        <ele>5</ele>
        <time>2020-12-06T09:29:05.692000+00:00</time>
      </trkpt>
      <trkpt lat="0" lon="0">
        <time>2020-12-06T09:29:05.696000+00:00</time>
      </trkpt>
      <trkpt lat="0" lon="0">
        <time>2020-12-06T09:29:05.699000+00:00</time>
      </trkpt>
      <trkpt lat="0" lon="0">
        <time>2020-12-06T09:29:05.700000+00:00</time>
      </trkpt>
      <trkpt lat="47.34815" lon="-1.27724">
        <ele>5</ele>
        <time>2020-12-06T09:29:06.660000+00:00</time>
      </trkpt>
      <trkpt lat="0" lon="0">
        <time>2020-12-06T09:29:06.677000+00:00</time>
      </trkpt>
      <trkpt lat="0" lon="0">
        <time>2020-12-06T09:29:06.683000+00:00</time>
      </trkpt>
      <trkpt lat="0" lon="0">
        <time>2020-12-06T09:29:06.686000+00:00</time>
      </trkpt>
      <trkpt lat="47.34816" lon="-1.27717">
        <ele>5</ele>
        <time>2020-12-06T09:29:07.727000+00:00</time>
      </trkpt>
      <trkpt lat="0" lon="0">
        <time>2020-12-06T09:29:07.735000+00:00</time>
      </trkpt>
      <trkpt lat="0" lon="0">
        <time>2020-12-06T09:29:07.743000+00:00</time>
      </trkpt>
      <trkpt lat="0" lon="0">
        <time>2020-12-06T09:29:07.746000+00:00</time>
      </trkpt>
      <trkpt lat="47.34817" lon="-1.2771">
        <ele>5</ele>
        <time>2020-12-06T09:29:08.719000+00:00</time>
      </trkpt>
      <trkpt lat="0" lon="0">
        <time>2020-12-06T09:29:08.723000+00:00</time>
      </trkpt>
      <trkpt lat="0" lon="0">
        <time>2020-12-06T09:29:08.725000+00:00</time>
      </trkpt>
      <trkpt lat="0" lon="0">
        <time>2020-12-06T09:29:08.726000+00:00</time>
      </trkpt>
      <trkpt lat="47.34818" lon="-1.27703">
        <ele>5</ele>
        <time>2020-12-06T09:29:09.707000+00:00</time>
      </trkpt>
      <trkpt lat="0" lon="0">
        <time>2020-12-06T09:29:09.713000+00:00</time>
      </trkpt>
      <trkpt lat="0" lon="0">
        <time>2020-12-06T09:29:09.723000+00:00</time>
      </trkpt>
      <trkpt lat="0" lon="0">
        <time>2020-12-06T09:29:09.725000+00:00</time>
      </trkpt>
      <trkpt lat="47.34819" lon="-1.27696">
        <ele>5</ele>
        <time>2020-12-06T09:29:10.695000+00:00</time>
      </trkpt>
      <trkpt lat="0" lon="0">
        <time>2020-12-06T09:29:10.714000+00:00</time>
      </trkpt>
      <trkpt lat="0" lon="0">
        <time>2020-12-06T09:29:10.718000+00:00</time>
      </trkpt>
      <trkpt lat="0" lon="0">
        <time>2020-12-06T09:29:10.720000+00:00</time>
      </trkpt>
      <trkpt lat="47.3482" lon="-1.27689">
        <ele>5</ele>
        <time>2020-12-06T09:29:11.701000+00:00</time>
      </trkpt>
      <trkpt lat="0" lon="0">
        <time>2020-12-06T09:29:11.705000+00:00</time>
      </trkpt>
      <trkpt lat="0" lon="0">
        <time>2020-12-06T09:29:11.721000+00:00</time>
      </trkpt>
      <trkpt lat="0" lon="0">
        <time>2020-12-06T09:29:11.723000+00:00</time>
      </trkpt>
      <trkpt lat="47.34821" lon="-1.27683">
        <ele>5</ele>
        <time>2020-12-06T09:29:12.726000+00:00</time>
      </trkpt>
      <trkpt lat="0" lon="0">
        <time>2020-12-06T09:29:12.736000+00:00</time>
      </trkpt>
      <trkpt lat="0" lon="0">
        <time>2020-12-06T09:29:12.751000+00:00</time>
      </trkpt>
      <trkpt lat="0" lon="0">
        <time>2020-12-06T09:29:12.753000+00:00</time>
      </trkpt>
      <trkpt lat="47.34823" lon="-1.27676">
        <ele>5</ele>
        <time>2020-12-06T09:29:13.693000+00:00</time>
      </trkpt>
      <trkpt lat="0" lon="0">
        <time>2020-12-06T09:29:13.703000+00:00</time>
      </trkpt>
      <trkpt lat="0" lon="0">
        <time>2020-12-06T09:29:13.707000+00:00</time>
      </trkpt>
      <trkpt lat="0" lon="0">
        <time>2020-12-06T09:29:13.709000+00:00</time>
      </trkpt>
      <trkpt lat="47.34824" lon="-1.27668">
        <ele>5</ele>
        <time>2020-12-06T09:29:14.692000+00:00</time>
      </trkpt>
      <trkpt lat="0" lon="0">
        <time>2020-12-06T09:29:14.695000+00:00</time>
      </trkpt>
      <trkpt lat="0" lon="0">
        <time>2020-12-06T09:29:14.702000+00:00</time>
      </trkpt>
      <trkpt lat="0" lon="0">
        <time>2020-12-06T09:29:14.703000+00:00</time>
      </trkpt>
      <trkpt lat="47.34825" lon="-1.27661">
        <ele>5</ele>
        <time>2020-12-06T09:29:15.702000+00:00</time>
      </trkpt>
      <trkpt lat="0" lon="0">
        <time>2020-12-06T09:29:15.716000+00:00</time>
      </trkpt>
      <trkpt lat="0" lon="0">
        <time>2020-12-06T09:29:15.719000+00:00</time>
      </trkpt>
      <trkpt lat="0" lon="0">
        <time>2020-12-06T09:29:15.721000+00:00</time>
      </trkpt>
      <trkpt lat="47.34826" lon="-1.27655">
        <ele>5</ele>
        <time>2020-12-06T09:29:16.692000+00:00</time>
      </trkpt>
      <trkpt lat="0" lon="0">
        <time>2020-12-06T09:29:16.704000+00:00</time>
      </trkpt>
      <trkpt lat="0" lon="0">
        <time>2020-12-06T09:29:16.710000+00:00</time>
      </trkpt>
      <trkpt lat="0" lon="0">
        <time>2020-12-06T09:29:16.717000+00:00</time>
      </trkpt>
      <trkpt lat="47.34827" lon="-1.27648">
        <ele>6</ele>
        <time>2020-12-06T09:29:17.689000+00:00</time>
      </trkpt>
      <trkpt lat="0" lon="0">
        <time>2020-12-06T09:29:17.692000+00:00</time>
      </trkpt>
      <trkpt lat="0" lon="0">
        <time>2020-12-06T09:29:17.702000+00:00</time>
      </trkpt>
      <trkpt lat="0" lon="0">
        <time>2020-12-06T09:29:17.705000+00:00</time>
      </trkpt>
      <trkpt lat="47.34828" lon="-1.27642">
        <ele>6</ele>
        <time>2020-12-06T09:29:18.699000+00:00</time>
      </trkpt>
      <trkpt lat="0" lon="0">
        <time>2020-12-06T09:29:18.710000+00:00</time>
      </trkpt>
      <trkpt lat="0" lon="0">
        <time>2020-12-06T09:29:18.713000+00:00</time>
      </trkpt>
      <trkpt lat="0" lon="0">
        <time>2020-12-06T09:29:18.722000+00:00</time>
      </trkpt>
      <trkpt lat="47.34828" lon="-1.27635">
        <ele>6</ele>
        <time>2020-12-06T09:29:19.723000+00:00</time>
      </trkpt>
      <trkpt lat="0" lon="0">
        <time>2020-12-06T09:29:19.732000+00:00</time>
      </trkpt>
      <trkpt lat="0" lon="0">
        <time>2020-12-06T09:29:19.736000+00:00</time>
      </trkpt>
      <trkpt lat="0" lon="0">
        <time>2020-12-06T09:29:19.738000+00:00</time>
      </trkpt>
      <trkpt lat="47.34828" lon="-1.27628">
        <ele>6</ele>
        <time>2020-12-06T09:29:20.732000+00:00</time>
      </trkpt>
      <trkpt lat="0" lon="0">
        <time>2020-12-06T09:29:20.735000+00:00</time>
      </trkpt>
      <trkpt lat="0" lon="0">
        <time>2020-12-06T09:29:20.736000+00:00</time>
      </trkpt>
      <trkpt lat="0" lon="0">
        <time>2020-12-06T09:29:20.737000+00:00</time>
      </trkpt>
      <trkpt lat="47.34828" lon="-1.27622">
        <ele>6</ele>
        <time>2020-12-06T09:29:21.694000+00:00</time>
      </trkpt>
      <trkpt lat="0" lon="0">
        <time>2020-12-06T09:29:21.720000+00:00</time>
      </trkpt>
      <trkpt lat="0" lon="0">
        <time>2020-12-06T09:29:21.728000+00:00</time>
      </trkpt>
      <trkpt lat="0" lon="0">
        <time>2020-12-06T09:29:21.730000+00:00</time>
      </trkpt>
      <trkpt lat="47.34828" lon="-1.27615">
        <ele>6</ele>
        <time>2020-12-06T09:29:22.706000+00:00</time>
      </trkpt>
      <trkpt lat="0" lon="0">
        <time>2020-12-06T09:29:22.719000+00:00</time>
      </trkpt>
      <trkpt lat="0" lon="0">
        <time>2020-12-06T09:29:22.725000+00:00</time>
      </trkpt>
      <trkpt lat="0" lon="0">
        <time>2020-12-06T09:29:22.728000+00:00</time>
      </trkpt>
      <trkpt lat="47.34828" lon="-1.27609">
        <ele>6</ele>
        <time>2020-12-06T09:29:23.706000+00:00</time>
      </trkpt>
      <trkpt lat="0" lon="0">
        <time>2020-12-06T09:29:23.719000+00:00</time>
      </trkpt>
      <trkpt lat="0" lon="0">
        <time>2020-12-06T09:29:23.723000+00:00</time>
      </trkpt>
      <trkpt lat="0" lon="0">
        <time>2020-12-06T09:29:23.726000+00:00</time>
      </trkpt>
      <trkpt lat="47.34828" lon="-1.27602">
        <ele>6</ele>
        <time>2020-12-06T09:29:24.745000+00:00</time>
      </trkpt>
      <trkpt lat="0" lon="0">
        <time>2020-12-06T09:29:24.764000+00:00</time>
      </trkpt>
      <trkpt lat="0" lon="0">
        <time>2020-12-06T09:29:24.767000+00:00</time>
      </trkpt>
      <trkpt lat="0" lon="0">
        <time>2020-12-06T09:29:24.769000+00:00</time>
      </trkpt>
      <trkpt lat="47.34828" lon="-1.27595">
        <ele>6</ele>
        <time>2020-12-06T09:29:25.714000+00:00</time>
      </trkpt>
      <trkpt lat="0" lon="0">
        <time>2020-12-06T09:29:25.721000+00:00</time>
      </trkpt>
      <trkpt lat="0" lon="0">
        <time>2020-12-06T09:29:25.726000+00:00</time>
      </trkpt>
      <trkpt lat="0" lon="0">
        <time>2020-12-06T09:29:25.728000+00:00</time>
      </trkpt>
      <trkpt lat="47.34828" lon="-1.27589">
        <ele>6</ele>
        <time>2020-12-06T09:29:26.714000+00:00</time>
      </trkpt>
      <trkpt lat="0" lon="0">
        <time>2020-12-06T09:29:26.718000+00:00</time>
      </trkpt>
      <trkpt lat="0" lon="0">
        <time>2020-12-06T09:29:26.720000+00:00</time>
      </trkpt>
      <trkpt lat="47.34828" lon="-1.27582">
        <ele>6</ele>
        <time>2020-12-06T09:29:27.748000+00:00</time>
      </trkpt>
      <trkpt lat="0" lon="0">
        <time>2020-12-06T09:29:27.754000+00:00</time>
      </trkpt>
      <trkpt lat="0" lon="0">
        <time>2020-12-06T09:29:27.760000+00:00</time>
      </trkpt>
      <trkpt lat="0" lon="0">
        <time>2020-12-06T09:29:27.762000+00:00</time>
      </trkpt>
      <trkpt lat="47.34829" lon="-1.27577">
        <ele>6</ele>
        <time>2020-12-06T09:29:28.686000+00:00</time>
      </trkpt>
      <trkpt lat="0" lon="0">
        <time>2020-12-06T09:29:28.704000+00:00</time>
      </trkpt>
      <trkpt lat="0" lon="0">
        <time>2020-12-06T09:29:28.707000+00:00</time>
      </trkpt>
      <trkpt lat="0" lon="0">
        <time>2020-12-06T09:29:28.709000+00:00</time>
      </trkpt>
      <trkpt lat="47.3483" lon="-1.27571">
        <ele>6</ele>
        <time>2020-12-06T09:29:29.689000+00:00</time>
      </trkpt>
      <trkpt lat="0" lon="0">
        <time>2020-12-06T09:29:29.715000+00:00</time>
      </trkpt>
      <trkpt lat="0" lon="0">
        <time>2020-12-06T09:29:29.719000+00:00</time>
      </trkpt>
      <trkpt lat="0" lon="0">
        <time>2020-12-06T09:29:29.721000+00:00</time>
      </trkpt>
      <trkpt lat="47.34831" lon="-1.27566">
        <ele>6</ele>
        <time>2020-12-06T09:29:30.703000+00:00</time>
      </trkpt>
      <trkpt lat="0" lon="0">
        <time>2020-12-06T09:29:30.709000+00:00</time>
      </trkpt>
      <trkpt lat="0" lon="0">
        <time>2020-12-06T09:29:30.715000+00:00</time>
      </trkpt>
      <trkpt lat="0" lon="0">
        <time>2020-12-06T09:29:30.718000+00:00</time>
      </trkpt>
      <trkpt lat="47.34833" lon="-1.27561">
        <ele>7</ele>
        <time>2020-12-06T09:29:31.717000+00:00</time>
      </trkpt>
      <trkpt lat="0" lon="0">
        <time>2020-12-06T09:29:31.731000+00:00</time>
      </trkpt>
      <trkpt lat="0" lon="0">
        <time>2020-12-06T09:29:31.742000+00:00</time>
      </trkpt>
      <trkpt lat="0" lon="0">
        <time>2020-12-06T09:29:31.744000+00:00</time>
      </trkpt>
      <trkpt lat="47.34835" lon="-1.27556">
        <ele>7</ele>
        <time>2020-12-06T09:29:32.706000+00:00</time>
      </trkpt>
      <trkpt lat="0" lon="0">
        <time>2020-12-06T09:29:32.715000+00:00</time>
      </trkpt>
      <trkpt lat="0" lon="0">
        <time>2020-12-06T09:29:32.723000+00:00</time>
      </trkpt>
      <trkpt lat="0" lon="0">
        <time>2020-12-06T09:29:32.725000+00:00</time>
      </trkpt>
      <trkpt lat="47.34837" lon="-1.2755">
        <ele>7</ele>
        <time>2020-12-06T09:29:33.661000+00:00</time>
      </trkpt>
      <trkpt lat="0" lon="0">
        <time>2020-12-06T09:29:33.673000+00:00</time>
      </trkpt>
      <trkpt lat="0" lon="0">
        <time>2020-12-06T09:29:33.679000+00:00</time>
      </trkpt>
      <trkpt lat="0" lon="0">
        <time>2020-12-06T09:29:33.680000+00:00</time>
      </trkpt>
      <trkpt lat="47.34838" lon="-1.27544">
        <ele>7</ele>
        <time>2020-12-06T09:29:34.701000+00:00</time>
      </trkpt>
      <trkpt lat="0" lon="0">
        <time>2020-12-06T09:29:34.706000+00:00</time>
      </trkpt>
      <trkpt lat="0" lon="0">
        <time>2020-12-06T09:29:34.712000+00:00</time>
      </trkpt>
      <trkpt lat="0" lon="0">
        <time>2020-12-06T09:29:34.713000+00:00</time>
      </trkpt>
      <trkpt lat="47.34839" lon="-1.27538">
        <ele>7</ele>
        <time>2020-12-06T09:29:35.624000+00:00</time>
      </trkpt>
      <trkpt lat="0" lon="0">
        <time>2020-12-06T09:29:35.625000+00:00</time>
      </trkpt>
      <trkpt lat="0" lon="0">
        <time>2020-12-06T09:29:35.626000+00:00</time>
      </trkpt>
      <trkpt lat="47.3484" lon="-1.27533">
        <ele>7</ele>
        <time>2020-12-06T09:29:36.690000+00:00</time>
      </trkpt>
      <trkpt lat="0" lon="0">
        <time>2020-12-06T09:29:36.697000+00:00</time>
      </trkpt>
      <trkpt lat="0" lon="0">
        <time>2020-12-06T09:29:36.703000+00:00</time>
      </trkpt>
      <trkpt lat="0" lon="0">
        <time>2020-12-06T09:29:36.705000+00:00</time>
      </trkpt>
      <trkpt lat="47.34841" lon="-1.27527">
        <ele>7</ele>
        <time>2020-12-06T09:29:37.691000+00:00</time>
      </trkpt>
      <trkpt lat="0" lon="0">
        <time>2020-12-06T09:29:37.694000+00:00</time>
      </trkpt>
      <trkpt lat="0" lon="0">
        <time>2020-12-06T09:29:37.699000+00:00</time>
      </trkpt>
      <trkpt lat="0" lon="0">
        <time>2020-12-06T09:29:37.702000+00:00</time>
      </trkpt>
      <trkpt lat="47.34842" lon="-1.27521">
        <ele>7</ele>
        <time>2020-12-06T09:29:38.585000+00:00</time>
      </trkpt>
      <trkpt lat="0" lon="0">
        <time>2020-12-06T09:29:38.586000+00:00</time>
      </trkpt>
      <trkpt lat="0" lon="0">
        <time>2020-12-06T09:29:38.587000+00:00</time>
      </trkpt>
      <trkpt lat="0" lon="0">
        <time>2020-12-06T09:29:38.588000+00:00</time>
      </trkpt>
      <trkpt lat="47.34842" lon="-1.27515">
        <ele>7</ele>
        <time>2020-12-06T09:29:39.652000+00:00</time>
      </trkpt>
      <trkpt lat="0" lon="0">
        <time>2020-12-06T09:29:39.662000+00:00</time>
      </trkpt>
      <trkpt lat="0" lon="0">
        <time>2020-12-06T09:29:39.669000+00:00</time>
      </trkpt>
      <trkpt lat="0" lon="0">
        <time>2020-12-06T09:29:39.671000+00:00</time>
      </trkpt>
      <trkpt lat="47.34843" lon="-1.27509">
        <ele>7</ele>
        <time>2020-12-06T09:29:40.778000+00:00</time>
      </trkpt>
      <trkpt lat="0" lon="0">
        <time>2020-12-06T09:29:40.781000+00:00</time>
      </trkpt>
      <trkpt lat="0" lon="0">
        <time>2020-12-06T09:29:40.786000+00:00</time>
      </trkpt>
      <trkpt lat="47.34844" lon="-1.27504">
        <ele>7</ele>
        <time>2020-12-06T09:29:41.747000+00:00</time>
      </trkpt>
      <trkpt lat="0" lon="0">
        <time>2020-12-06T09:29:41.752000+00:00</time>
      </trkpt>
      <trkpt lat="0" lon="0">
        <time>2020-12-06T09:29:41.758000+00:00</time>
      </trkpt>
      <trkpt lat="0" lon="0">
        <time>2020-12-06T09:29:41.761000+00:00</time>
      </trkpt>
      <trkpt lat="47.34845" lon="-1.27499">
        <ele>7</ele>
        <time>2020-12-06T09:29:42.720000+00:00</time>
      </trkpt>
      <trkpt lat="0" lon="0">
        <time>2020-12-06T09:29:42.726000+00:00</time>
      </trkpt>
      <trkpt lat="0" lon="0">
        <time>2020-12-06T09:29:42.736000+00:00</time>
      </trkpt>
      <trkpt lat="0" lon="0">
        <time>2020-12-06T09:29:42.738000+00:00</time>
      </trkpt>
      <trkpt lat="47.34847" lon="-1.27495">
        <ele>7</ele>
        <time>2020-12-06T09:29:43.693000+00:00</time>
      </trkpt>
      <trkpt lat="0" lon="0">
        <time>2020-12-06T09:29:43.707000+00:00</time>
      </trkpt>
      <trkpt lat="0" lon="0">
        <time>2020-12-06T09:29:43.712000+00:00</time>
      </trkpt>
      <trkpt lat="0" lon="0">
        <time>2020-12-06T09:29:43.714000+00:00</time>
      </trkpt>
      <trkpt lat="47.34848" lon="-1.27491">
        <ele>7</ele>
        <time>2020-12-06T09:29:44.707000+00:00</time>
      </trkpt>
      <trkpt lat="0" lon="0">
        <time>2020-12-06T09:29:44.708000+00:00</time>
      </trkpt>
      <trkpt lat="0" lon="0">
        <time>2020-12-06T09:29:44.713000+00:00</time>
      </trkpt>
      <trkpt lat="0" lon="0">
        <time>2020-12-06T09:29:44.714000+00:00</time>
      </trkpt>
      <trkpt lat="47.34849" lon="-1.27486">
        <ele>7</ele>
        <time>2020-12-06T09:29:45.703000+00:00</time>
      </trkpt>
      <trkpt lat="0" lon="0">
        <time>2020-12-06T09:29:45.726000+00:00</time>
      </trkpt>
      <trkpt lat="0" lon="0">
        <time>2020-12-06T09:29:45.732000+00:00</time>
      </trkpt>
      <trkpt lat="0" lon="0">
        <time>2020-12-06T09:29:45.733000+00:00</time>
      </trkpt>
      <trkpt lat="47.34851" lon="-1.27483">
        <ele>7</ele>
        <time>2020-12-06T09:29:46.690000+00:00</time>
      </trkpt>
      <trkpt lat="0" lon="0">
        <time>2020-12-06T09:29:46.703000+00:00</time>
      </trkpt>
      <trkpt lat="0" lon="0">
        <time>2020-12-06T09:29:46.711000+00:00</time>
      </trkpt>
      <trkpt lat="0" lon="0">
        <time>2020-12-06T09:29:46.715000+00:00</time>
      </trkpt>
      <trkpt lat="47.34852" lon="-1.2748">
        <ele>7</ele>
        <time>2020-12-06T09:29:47.639000+00:00</time>
      </trkpt>
      <trkpt lat="0" lon="0">
        <time>2020-12-06T09:29:47.646000+00:00</time>
      </trkpt>
      <trkpt lat="0" lon="0">
        <time>2020-12-06T09:29:47.648000+00:00</time>
      </trkpt>
      <trkpt lat="0" lon="0">
        <time>2020-12-06T09:29:47.650000+00:00</time>
      </trkpt>
      <trkpt lat="47.34855" lon="-1.27477">
        <ele>7</ele>
        <time>2020-12-06T09:29:48.699000+00:00</time>
      </trkpt>
      <trkpt lat="0" lon="0">
        <time>2020-12-06T09:29:48.704000+00:00</time>
      </trkpt>
      <trkpt lat="0" lon="0">
        <time>2020-12-06T09:29:48.710000+00:00</time>
      </trkpt>
      <trkpt lat="0" lon="0">
        <time>2020-12-06T09:29:48.714000+00:00</time>
      </trkpt>
      <trkpt lat="47.34857" lon="-1.27476">
        <ele>7</ele>
        <time>2020-12-06T09:29:49.698000+00:00</time>
      </trkpt>
      <trkpt lat="0" lon="0">
        <time>2020-12-06T09:29:49.710000+00:00</time>
      </trkpt>
      <trkpt lat="0" lon="0">
        <time>2020-12-06T09:29:49.711000+00:00</time>
      </trkpt>
      <trkpt lat="0" lon="0">
        <time>2020-12-06T09:29:49.712000+00:00</time>
      </trkpt>
      <trkpt lat="47.3486" lon="-1.27474">
        <ele>7</ele>
        <time>2020-12-06T09:29:50.722000+00:00</time>
      </trkpt>
      <trkpt lat="0" lon="0">
        <time>2020-12-06T09:29:50.727000+00:00</time>
      </trkpt>
      <trkpt lat="0" lon="0">
        <time>2020-12-06T09:29:50.730000+00:00</time>
      </trkpt>
      <trkpt lat="0" lon="0">
        <time>2020-12-06T09:29:50.731000+00:00</time>
      </trkpt>
      <trkpt lat="47.34862" lon="-1.27472">
        <ele>7</ele>
        <time>2020-12-06T09:29:51.692000+00:00</time>
      </trkpt>
      <trkpt lat="0" lon="0">
        <time>2020-12-06T09:29:51.696000+00:00</time>
      </trkpt>
      <trkpt lat="0" lon="0">
        <time>2020-12-06T09:29:51.699000+00:00</time>
      </trkpt>
      <trkpt lat="0" lon="0">
        <time>2020-12-06T09:29:51.700000+00:00</time>
      </trkpt>
      <trkpt lat="47.34865" lon="-1.2747">
        <ele>7</ele>
        <time>2020-12-06T09:29:52.699000+00:00</time>
      </trkpt>
      <trkpt lat="0" lon="0">
        <time>2020-12-06T09:29:52.705000+00:00</time>
      </trkpt>
      <trkpt lat="0" lon="0">
        <time>2020-12-06T09:29:52.712000+00:00</time>
      </trkpt>
      <trkpt lat="0" lon="0">
        <time>2020-12-06T09:29:52.716000+00:00</time>
      </trkpt>
      <trkpt lat="47.34867" lon="-1.27468">
        <ele>8</ele>
        <time>2020-12-06T09:29:53.734000+00:00</time>
      </trkpt>
      <trkpt lat="0" lon="0">
        <time>2020-12-06T09:29:53.745000+00:00</time>
      </trkpt>
      <trkpt lat="0" lon="0">
        <time>2020-12-06T09:29:53.747000+00:00</time>
      </trkpt>
      <trkpt lat="0" lon="0">
        <time>2020-12-06T09:29:53.748000+00:00</time>
      </trkpt>
      <trkpt lat="47.3487" lon="-1.27466">
        <ele>8</ele>
        <time>2020-12-06T09:29:54.728000+00:00</time>
      </trkpt>
      <trkpt lat="0" lon="0">
        <time>2020-12-06T09:29:54.731000+00:00</time>
      </trkpt>
      <trkpt lat="0" lon="0">
        <time>2020-12-06T09:29:54.737000+00:00</time>
      </trkpt>
      <trkpt lat="0" lon="0">
        <time>2020-12-06T09:29:54.743000+00:00</time>
      </trkpt>
      <trkpt lat="47.34872" lon="-1.27464">
        <ele>8</ele>
        <time>2020-12-06T09:29:55.698000+00:00</time>
      </trkpt>
      <trkpt lat="0" lon="0">
        <time>2020-12-06T09:29:55.710000+00:00</time>
      </trkpt>
      <trkpt lat="0" lon="0">
        <time>2020-12-06T09:29:55.717000+00:00</time>
      </trkpt>
      <trkpt lat="0" lon="0">
        <time>2020-12-06T09:29:55.720000+00:00</time>
      </trkpt>
      <trkpt lat="47.34874" lon="-1.27463">
        <ele>8</ele>
        <time>2020-12-06T09:29:56.698000+00:00</time>
      </trkpt>
      <trkpt lat="0" lon="0">
        <time>2020-12-06T09:29:56.711000+00:00</time>
      </trkpt>
      <trkpt lat="0" lon="0">
        <time>2020-12-06T09:29:56.716000+00:00</time>
      </trkpt>
      <trkpt lat="0" lon="0">
        <time>2020-12-06T09:29:56.720000+00:00</time>
      </trkpt>
      <trkpt lat="47.34876" lon="-1.27461">
        <ele>8</ele>
        <time>2020-12-06T09:29:57.710000+00:00</time>
      </trkpt>
      <trkpt lat="0" lon="0">
        <time>2020-12-06T09:29:57.719000+00:00</time>
      </trkpt>
      <trkpt lat="0" lon="0">
        <time>2020-12-06T09:29:57.722000+00:00</time>
      </trkpt>
      <trkpt lat="0" lon="0">
        <time>2020-12-06T09:29:57.726000+00:00</time>
      </trkpt>
      <trkpt lat="47.34878" lon="-1.27459">
        <ele>8</ele>
        <time>2020-12-06T09:29:58.701000+00:00</time>
      </trkpt>
      <trkpt lat="0" lon="0">
        <time>2020-12-06T09:29:58.707000+00:00</time>
      </trkpt>
      <trkpt lat="0" lon="0">
        <time>2020-12-06T09:29:58.714000+00:00</time>
      </trkpt>
      <trkpt lat="0" lon="0">
        <time>2020-12-06T09:29:58.716000+00:00</time>
      </trkpt>
      <trkpt lat="47.3488" lon="-1.27457">
        <ele>8</ele>
        <time>2020-12-06T09:29:59.712000+00:00</time>
      </trkpt>
      <trkpt lat="0" lon="0">
        <time>2020-12-06T09:29:59.727000+00:00</time>
      </trkpt>
      <trkpt lat="0" lon="0">
        <time>2020-12-06T09:29:59.732000+00:00</time>
      </trkpt>
      <trkpt lat="0" lon="0">
        <time>2020-12-06T09:29:59.734000+00:00</time>
      </trkpt>
      <trkpt lat="47.34882" lon="-1.27455">
        <ele>8</ele>
        <time>2020-12-06T09:30:00.687000+00:00</time>
      </trkpt>
      <trkpt lat="0" lon="0">
        <time>2020-12-06T09:30:00.693000+00:00</time>
      </trkpt>
      <trkpt lat="0" lon="0">
        <time>2020-12-06T09:30:00.707000+00:00</time>
      </trkpt>
      <trkpt lat="0" lon="0">
        <time>2020-12-06T09:30:00.709000+00:00</time>
      </trkpt>
      <trkpt lat="47.34883" lon="-1.27453">
        <ele>8</ele>
        <time>2020-12-06T09:30:01.730000+00:00</time>
      </trkpt>
      <trkpt lat="0" lon="0">
        <time>2020-12-06T09:30:01.746000+00:00</time>
      </trkpt>
      <trkpt lat="0" lon="0">
        <time>2020-12-06T09:30:01.748000+00:00</time>
      </trkpt>
      <trkpt lat="0" lon="0">
        <time>2020-12-06T09:30:01.750000+00:00</time>
      </trkpt>
      <trkpt lat="47.34885" lon="-1.2745">
        <ele>8</ele>
        <time>2020-12-06T09:30:02.700000+00:00</time>
      </trkpt>
      <trkpt lat="0" lon="0">
        <time>2020-12-06T09:30:02.715000+00:00</time>
      </trkpt>
      <trkpt lat="0" lon="0">
        <time>2020-12-06T09:30:02.723000+00:00</time>
      </trkpt>
      <trkpt lat="0" lon="0">
        <time>2020-12-06T09:30:02.731000+00:00</time>
      </trkpt>
      <trkpt lat="47.34887" lon="-1.27449">
        <ele>8</ele>
        <time>2020-12-06T09:30:03.656000+00:00</time>
      </trkpt>
      <trkpt lat="0" lon="0">
        <time>2020-12-06T09:30:03.663000+00:00</time>
      </trkpt>
      <trkpt lat="0" lon="0">
        <time>2020-12-06T09:30:03.667000+00:00</time>
      </trkpt>
      <trkpt lat="0" lon="0">
        <time>2020-12-06T09:30:03.670000+00:00</time>
      </trkpt>
      <trkpt lat="47.34888" lon="-1.27447">
        <ele>8</ele>
        <time>2020-12-06T09:30:04.690000+00:00</time>
      </trkpt>
      <trkpt lat="0" lon="0">
        <time>2020-12-06T09:30:04.695000+00:00</time>
      </trkpt>
      <trkpt lat="0" lon="0">
        <time>2020-12-06T09:30:04.698000+00:00</time>
      </trkpt>
      <trkpt lat="0" lon="0">
        <time>2020-12-06T09:30:04.701000+00:00</time>
      </trkpt>
      <trkpt lat="47.3489" lon="-1.27446">
        <ele>8</ele>
        <time>2020-12-06T09:30:05.703000+00:00</time>
      </trkpt>
      <trkpt lat="0" lon="0">
        <time>2020-12-06T09:30:05.707000+00:00</time>
      </trkpt>
      <trkpt lat="0" lon="0">
        <time>2020-12-06T09:30:05.709000+00:00</time>
      </trkpt>
      <trkpt lat="0" lon="0">
        <time>2020-12-06T09:30:05.712000+00:00</time>
      </trkpt>
      <trkpt lat="47.34892" lon="-1.27446">
        <ele>8</ele>
        <time>2020-12-06T09:30:06.693000+00:00</time>
      </trkpt>
      <trkpt lat="0" lon="0">
        <time>2020-12-06T09:30:06.697000+00:00</time>
      </trkpt>
      <trkpt lat="0" lon="0">
        <time>2020-12-06T09:30:06.707000+00:00</time>
      </trkpt>
      <trkpt lat="0" lon="0">
        <time>2020-12-06T09:30:06.708000+00:00</time>
      </trkpt>
      <trkpt lat="47.34893" lon="-1.27446">
        <ele>8</ele>
        <time>2020-12-06T09:30:07.663000+00:00</time>
      </trkpt>
      <trkpt lat="0" lon="0">
        <time>2020-12-06T09:30:07.668000+00:00</time>
      </trkpt>
      <trkpt lat="0" lon="0">
        <time>2020-12-06T09:30:07.683000+00:00</time>
      </trkpt>
      <trkpt lat="0" lon="0">
        <time>2020-12-06T09:30:07.685000+00:00</time>
      </trkpt>
      <trkpt lat="47.34895" lon="-1.27446">
        <ele>9</ele>
        <time>2020-12-06T09:30:08.680000+00:00</time>
      </trkpt>
      <trkpt lat="0" lon="0">
        <time>2020-12-06T09:30:08.689000+00:00</time>
      </trkpt>
      <trkpt lat="0" lon="0">
        <time>2020-12-06T09:30:08.695000+00:00</time>
      </trkpt>
      <trkpt lat="0" lon="0">
        <time>2020-12-06T09:30:08.697000+00:00</time>
      </trkpt>
      <trkpt lat="47.34896" lon="-1.27446">
        <ele>9</ele>
        <time>2020-12-06T09:30:09.683000+00:00</time>
      </trkpt>
      <trkpt lat="0" lon="0">
        <time>2020-12-06T09:30:09.687000+00:00</time>
      </trkpt>
      <trkpt lat="0" lon="0">
        <time>2020-12-06T09:30:09.696000+00:00</time>
      </trkpt>
      <trkpt lat="0" lon="0">
        <time>2020-12-06T09:30:09.698000+00:00</time>
      </trkpt>
      <trkpt lat="47.34898" lon="-1.27446">
        <ele>9</ele>
        <time>2020-12-06T09:30:10.693000+00:00</time>
      </trkpt>
      <trkpt lat="0" lon="0">
        <time>2020-12-06T09:30:10.698000+00:00</time>
      </trkpt>
      <trkpt lat="0" lon="0">
        <time>2020-12-06T09:30:10.713000+00:00</time>
      </trkpt>
      <trkpt lat="0" lon="0">
        <time>2020-12-06T09:30:10.716000+00:00</time>
      </trkpt>
      <trkpt lat="47.349" lon="-1.27446">
        <ele>9</ele>
        <time>2020-12-06T09:30:11.652000+00:00</time>
      </trkpt>
      <trkpt lat="0" lon="0">
        <time>2020-12-06T09:30:11.658000+00:00</time>
      </trkpt>
      <trkpt lat="0" lon="0">
        <time>2020-12-06T09:30:11.668000+00:00</time>
      </trkpt>
      <trkpt lat="0" lon="0">
        <time>2020-12-06T09:30:11.669000+00:00</time>
      </trkpt>
      <trkpt lat="47.34901" lon="-1.27445">
        <ele>9</ele>
        <time>2020-12-06T09:30:12.674000+00:00</time>
      </trkpt>
      <trkpt lat="0" lon="0">
        <time>2020-12-06T09:30:12.681000+00:00</time>
      </trkpt>
      <trkpt lat="0" lon="0">
        <time>2020-12-06T09:30:12.684000+00:00</time>
      </trkpt>
      <trkpt lat="0" lon="0">
        <time>2020-12-06T09:30:12.686000+00:00</time>
      </trkpt>
      <trkpt lat="47.34903" lon="-1.27444">
        <ele>9</ele>
        <time>2020-12-06T09:30:13.643000+00:00</time>
      </trkpt>
      <trkpt lat="0" lon="0">
        <time>2020-12-06T09:30:13.662000+00:00</time>
      </trkpt>
      <trkpt lat="0" lon="0">
        <time>2020-12-06T09:30:13.666000+00:00</time>
      </trkpt>
      <trkpt lat="0" lon="0">
        <time>2020-12-06T09:30:13.667000+00:00</time>
      </trkpt>
      <trkpt lat="47.34904" lon="-1.27442">
        <ele>9</ele>
        <time>2020-12-06T09:30:14.698000+00:00</time>
      </trkpt>
      <trkpt lat="0" lon="0">
        <time>2020-12-06T09:30:14.707000+00:00</time>
      </trkpt>
      <trkpt lat="0" lon="0">
        <time>2020-12-06T09:30:14.714000+00:00</time>
      </trkpt>
      <trkpt lat="0" lon="0">
        <time>2020-12-06T09:30:14.717000+00:00</time>
      </trkpt>
      <trkpt lat="47.34905" lon="-1.2744">
        <ele>9</ele>
        <time>2020-12-06T09:30:15.695000+00:00</time>
      </trkpt>
      <trkpt lat="0" lon="0">
        <time>2020-12-06T09:30:15.712000+00:00</time>
      </trkpt>
      <trkpt lat="0" lon="0">
        <time>2020-12-06T09:30:15.716000+00:00</time>
      </trkpt>
      <trkpt lat="0" lon="0">
        <time>2020-12-06T09:30:15.721000+00:00</time>
      </trkpt>
      <trkpt lat="47.34905" lon="-1.27438">
        <ele>9</ele>
        <time>2020-12-06T09:30:16.648000+00:00</time>
      </trkpt>
      <trkpt lat="0" lon="0">
        <time>2020-12-06T09:30:16.656000+00:00</time>
      </trkpt>
      <trkpt lat="0" lon="0">
        <time>2020-12-06T09:30:16.660000+00:00</time>
      </trkpt>
      <trkpt lat="0" lon="0">
        <time>2020-12-06T09:30:16.662000+00:00</time>
      </trkpt>
      <trkpt lat="47.34906" lon="-1.27435">
        <ele>9</ele>
        <time>2020-12-06T09:30:17.660000+00:00</time>
      </trkpt>
      <trkpt lat="0" lon="0">
        <time>2020-12-06T09:30:17.670000+00:00</time>
      </trkpt>
      <trkpt lat="0" lon="0">
        <time>2020-12-06T09:30:17.672000+00:00</time>
      </trkpt>
      <trkpt lat="0" lon="0">
        <time>2020-12-06T09:30:17.673000+00:00</time>
      </trkpt>
      <trkpt lat="47.34906" lon="-1.27432">
        <ele>9</ele>
        <time>2020-12-06T09:30:18.703000+00:00</time>
      </trkpt>
      <trkpt lat="0" lon="0">
        <time>2020-12-06T09:30:18.714000+00:00</time>
      </trkpt>
      <trkpt lat="0" lon="0">
        <time>2020-12-06T09:30:18.717000+00:00</time>
      </trkpt>
      <trkpt lat="0" lon="0">
        <time>2020-12-06T09:30:18.720000+00:00</time>
      </trkpt>
      <trkpt lat="47.34906" lon="-1.27428">
        <ele>9</ele>
        <time>2020-12-06T09:30:19.689000+00:00</time>
      </trkpt>
      <trkpt lat="0" lon="0">
        <time>2020-12-06T09:30:19.695000+00:00</time>
      </trkpt>
      <trkpt lat="0" lon="0">
        <time>2020-12-06T09:30:19.704000+00:00</time>
      </trkpt>
      <trkpt lat="0" lon="0">
        <time>2020-12-06T09:30:19.707000+00:00</time>
      </trkpt>
      <trkpt lat="47.34906" lon="-1.27424">
        <ele>9</ele>
        <time>2020-12-06T09:30:20.680000+00:00</time>
      </trkpt>
      <trkpt lat="0" lon="0">
        <time>2020-12-06T09:30:20.683000+00:00</time>
      </trkpt>
      <trkpt lat="0" lon="0">
        <time>2020-12-06T09:30:20.694000+00:00</time>
      </trkpt>
      <trkpt lat="0" lon="0">
        <time>2020-12-06T09:30:20.696000+00:00</time>
      </trkpt>
      <trkpt lat="47.34906" lon="-1.2742">
        <ele>9</ele>
        <time>2020-12-06T09:30:21.707000+00:00</time>
      </trkpt>
      <trkpt lat="0" lon="0">
        <time>2020-12-06T09:30:21.713000+00:00</time>
      </trkpt>
      <trkpt lat="0" lon="0">
        <time>2020-12-06T09:30:21.719000+00:00</time>
      </trkpt>
      <trkpt lat="0" lon="0">
        <time>2020-12-06T09:30:21.726000+00:00</time>
      </trkpt>
      <trkpt lat="47.34906" lon="-1.27415">
        <ele>9</ele>
        <time>2020-12-06T09:30:22.753000+00:00</time>
      </trkpt>
      <trkpt lat="0" lon="0">
        <time>2020-12-06T09:30:22.765000+00:00</time>
      </trkpt>
      <trkpt lat="0" lon="0">
        <time>2020-12-06T09:30:22.771000+00:00</time>
      </trkpt>
      <trkpt lat="0" lon="0">
        <time>2020-12-06T09:30:22.773000+00:00</time>
      </trkpt>
      <trkpt lat="47.34906" lon="-1.2741">
        <ele>9</ele>
        <time>2020-12-06T09:30:23.684000+00:00</time>
      </trkpt>
      <trkpt lat="0" lon="0">
        <time>2020-12-06T09:30:23.694000+00:00</time>
      </trkpt>
      <trkpt lat="0" lon="0">
        <time>2020-12-06T09:30:23.696000+00:00</time>
      </trkpt>
      <trkpt lat="0" lon="0">
        <time>2020-12-06T09:30:23.697000+00:00</time>
      </trkpt>
      <trkpt lat="47.34906" lon="-1.27406">
        <ele>9</ele>
        <time>2020-12-06T09:30:24.714000+00:00</time>
      </trkpt>
      <trkpt lat="0" lon="0">
        <time>2020-12-06T09:30:24.723000+00:00</time>
      </trkpt>
      <trkpt lat="0" lon="0">
        <time>2020-12-06T09:30:24.726000+00:00</time>
      </trkpt>
      <trkpt lat="0" lon="0">
        <time>2020-12-06T09:30:24.730000+00:00</time>
      </trkpt>
      <trkpt lat="47.34907" lon="-1.27401">
        <ele>9</ele>
        <time>2020-12-06T09:30:25.685000+00:00</time>
      </trkpt>
      <trkpt lat="0" lon="0">
        <time>2020-12-06T09:30:25.699000+00:00</time>
      </trkpt>
      <trkpt lat="0" lon="0">
        <time>2020-12-06T09:30:25.703000+00:00</time>
      </trkpt>
      <trkpt lat="0" lon="0">
        <time>2020-12-06T09:30:25.705000+00:00</time>
      </trkpt>
      <trkpt lat="47.34908" lon="-1.27396">
        <ele>9</ele>
        <time>2020-12-06T09:30:26.699000+00:00</time>
      </trkpt>
      <trkpt lat="0" lon="0">
        <time>2020-12-06T09:30:26.707000+00:00</time>
      </trkpt>
      <trkpt lat="0" lon="0">
        <time>2020-12-06T09:30:26.712000+00:00</time>
      </trkpt>
      <trkpt lat="0" lon="0">
        <time>2020-12-06T09:30:26.713000+00:00</time>
      </trkpt>
      <trkpt lat="47.34909" lon="-1.27391">
        <ele>9</ele>
        <time>2020-12-06T09:30:27.690000+00:00</time>
      </trkpt>
      <trkpt lat="0" lon="0">
        <time>2020-12-06T09:30:27.706000+00:00</time>
      </trkpt>
      <trkpt lat="0" lon="0">
        <time>2020-12-06T09:30:27.710000+00:00</time>
      </trkpt>
      <trkpt lat="0" lon="0">
        <time>2020-12-06T09:30:27.712000+00:00</time>
      </trkpt>
      <trkpt lat="47.34911" lon="-1.27386">
        <ele>9</ele>
        <time>2020-12-06T09:30:28.691000+00:00</time>
      </trkpt>
      <trkpt lat="0" lon="0">
        <time>2020-12-06T09:30:28.698000+00:00</time>
      </trkpt>
      <trkpt lat="0" lon="0">
        <time>2020-12-06T09:30:28.703000+00:00</time>
      </trkpt>
      <trkpt lat="0" lon="0">
        <time>2020-12-06T09:30:28.717000+00:00</time>
      </trkpt>
      <trkpt lat="47.34913" lon="-1.27382">
        <ele>9</ele>
        <time>2020-12-06T09:30:29.671000+00:00</time>
      </trkpt>
      <trkpt lat="0" lon="0">
        <time>2020-12-06T09:30:29.680000+00:00</time>
      </trkpt>
      <trkpt lat="0" lon="0">
        <time>2020-12-06T09:30:29.684000+00:00</time>
      </trkpt>
      <trkpt lat="0" lon="0">
        <time>2020-12-06T09:30:29.688000+00:00</time>
      </trkpt>
      <trkpt lat="47.34915" lon="-1.27377">
        <ele>9</ele>
        <time>2020-12-06T09:30:30.661000+00:00</time>
      </trkpt>
      <trkpt lat="0" lon="0">
        <time>2020-12-06T09:30:30.671000+00:00</time>
      </trkpt>
      <trkpt lat="0" lon="0">
        <time>2020-12-06T09:30:30.683000+00:00</time>
      </trkpt>
      <trkpt lat="0" lon="0">
        <time>2020-12-06T09:30:30.689000+00:00</time>
      </trkpt>
      <trkpt lat="47.34918" lon="-1.27372">
        <ele>9</ele>
        <time>2020-12-06T09:30:31.688000+00:00</time>
      </trkpt>
      <trkpt lat="0" lon="0">
        <time>2020-12-06T09:30:31.701000+00:00</time>
      </trkpt>
      <trkpt lat="0" lon="0">
        <time>2020-12-06T09:30:31.706000+00:00</time>
      </trkpt>
      <trkpt lat="0" lon="0">
        <time>2020-12-06T09:30:31.711000+00:00</time>
      </trkpt>
      <trkpt lat="47.3492" lon="-1.27368">
        <ele>9</ele>
        <time>2020-12-06T09:30:32.716000+00:00</time>
      </trkpt>
      <trkpt lat="0" lon="0">
        <time>2020-12-06T09:30:32.719000+00:00</time>
      </trkpt>
      <trkpt lat="0" lon="0">
        <time>2020-12-06T09:30:32.737000+00:00</time>
      </trkpt>
      <trkpt lat="0" lon="0">
        <time>2020-12-06T09:30:32.739000+00:00</time>
      </trkpt>
      <trkpt lat="47.34923" lon="-1.27363">
        <ele>10</ele>
        <time>2020-12-06T09:30:33.680000+00:00</time>
      </trkpt>
      <trkpt lat="0" lon="0">
        <time>2020-12-06T09:30:33.703000+00:00</time>
      </trkpt>
      <trkpt lat="0" lon="0">
        <time>2020-12-06T09:30:33.707000+00:00</time>
      </trkpt>
      <trkpt lat="0" lon="0">
        <time>2020-12-06T09:30:33.710000+00:00</time>
      </trkpt>
      <trkpt lat="47.34926" lon="-1.27359">
        <ele>10</ele>
        <time>2020-12-06T09:30:34.669000+00:00</time>
      </trkpt>
      <trkpt lat="0" lon="0">
        <time>2020-12-06T09:30:34.677000+00:00</time>
      </trkpt>
      <trkpt lat="0" lon="0">
        <time>2020-12-06T09:30:34.680000+00:00</time>
      </trkpt>
      <trkpt lat="0" lon="0">
        <time>2020-12-06T09:30:34.683000+00:00</time>
      </trkpt>
      <trkpt lat="47.3493" lon="-1.27355">
        <ele>10</ele>
        <time>2020-12-06T09:30:35.687000+00:00</time>
      </trkpt>
      <trkpt lat="0" lon="0">
        <time>2020-12-06T09:30:35.693000+00:00</time>
      </trkpt>
      <trkpt lat="0" lon="0">
        <time>2020-12-06T09:30:35.703000+00:00</time>
      </trkpt>
      <trkpt lat="0" lon="0">
        <time>2020-12-06T09:30:35.705000+00:00</time>
      </trkpt>
      <trkpt lat="47.34933" lon="-1.27352">
        <ele>10</ele>
        <time>2020-12-06T09:30:36.691000+00:00</time>
      </trkpt>
      <trkpt lat="0" lon="0">
        <time>2020-12-06T09:30:36.711000+00:00</time>
      </trkpt>
      <trkpt lat="0" lon="0">
        <time>2020-12-06T09:30:36.714000+00:00</time>
      </trkpt>
      <trkpt lat="0" lon="0">
        <time>2020-12-06T09:30:36.716000+00:00</time>
      </trkpt>
      <trkpt lat="47.34936" lon="-1.2735">
        <ele>11</ele>
        <time>2020-12-06T09:30:37.689000+00:00</time>
      </trkpt>
      <trkpt lat="0" lon="0">
        <time>2020-12-06T09:30:37.702000+00:00</time>
      </trkpt>
      <trkpt lat="0" lon="0">
        <time>2020-12-06T09:30:37.706000+00:00</time>
      </trkpt>
      <trkpt lat="0" lon="0">
        <time>2020-12-06T09:30:37.708000+00:00</time>
      </trkpt>
      <trkpt lat="47.3494" lon="-1.27348">
        <ele>11</ele>
        <time>2020-12-06T09:30:38.691000+00:00</time>
      </trkpt>
      <trkpt lat="0" lon="0">
        <time>2020-12-06T09:30:38.704000+00:00</time>
      </trkpt>
      <trkpt lat="0" lon="0">
        <time>2020-12-06T09:30:38.707000+00:00</time>
      </trkpt>
      <trkpt lat="0" lon="0">
        <time>2020-12-06T09:30:38.709000+00:00</time>
      </trkpt>
      <trkpt lat="47.34944" lon="-1.27347">
        <ele>12</ele>
        <time>2020-12-06T09:30:39.714000+00:00</time>
      </trkpt>
      <trkpt lat="0" lon="0">
        <time>2020-12-06T09:30:39.715000+00:00</time>
      </trkpt>
      <trkpt lat="0" lon="0">
        <time>2020-12-06T09:30:39.717000+00:00</time>
      </trkpt>
      <trkpt lat="47.34948" lon="-1.27347">
        <ele>12</ele>
        <time>2020-12-06T09:30:40.682000+00:00</time>
      </trkpt>
      <trkpt lat="0" lon="0">
        <time>2020-12-06T09:30:40.691000+00:00</time>
      </trkpt>
      <trkpt lat="0" lon="0">
        <time>2020-12-06T09:30:40.696000+00:00</time>
      </trkpt>
      <trkpt lat="0" lon="0">
        <time>2020-12-06T09:30:40.698000+00:00</time>
      </trkpt>
      <trkpt lat="47.34952" lon="-1.27346">
        <ele>12</ele>
        <time>2020-12-06T09:30:41.672000+00:00</time>
      </trkpt>
      <trkpt lat="0" lon="0">
        <time>2020-12-06T09:30:41.676000+00:00</time>
      </trkpt>
      <trkpt lat="0" lon="0">
        <time>2020-12-06T09:30:41.685000+00:00</time>
      </trkpt>
      <trkpt lat="0" lon="0">
        <time>2020-12-06T09:30:41.686000+00:00</time>
      </trkpt>
      <trkpt lat="47.34956" lon="-1.27347">
        <ele>13</ele>
        <time>2020-12-06T09:30:42.698000+00:00</time>
      </trkpt>
      <trkpt lat="0" lon="0">
        <time>2020-12-06T09:30:42.706000+00:00</time>
      </trkpt>
      <trkpt lat="0" lon="0">
        <time>2020-12-06T09:30:42.712000+00:00</time>
      </trkpt>
      <trkpt lat="0" lon="0">
        <time>2020-12-06T09:30:42.718000+00:00</time>
      </trkpt>
      <trkpt lat="47.34961" lon="-1.27347">
        <ele>13</ele>
        <time>2020-12-06T09:30:43.663000+00:00</time>
      </trkpt>
      <trkpt lat="0" lon="0">
        <time>2020-12-06T09:30:43.667000+00:00</time>
      </trkpt>
      <trkpt lat="0" lon="0">
        <time>2020-12-06T09:30:43.676000+00:00</time>
      </trkpt>
      <trkpt lat="0" lon="0">
        <time>2020-12-06T09:30:43.683000+00:00</time>
      </trkpt>
      <trkpt lat="47.34965" lon="-1.27348">
        <ele>14</ele>
        <time>2020-12-06T09:30:44.676000+00:00</time>
      </trkpt>
      <trkpt lat="0" lon="0">
        <time>2020-12-06T09:30:44.691000+00:00</time>
      </trkpt>
      <trkpt lat="0" lon="0">
        <time>2020-12-06T09:30:44.693000+00:00</time>
      </trkpt>
      <trkpt lat="0" lon="0">
        <time>2020-12-06T09:30:44.695000+00:00</time>
      </trkpt>
      <trkpt lat="47.34969" lon="-1.27349">
        <ele>14</ele>
        <time>2020-12-06T09:30:45.682000+00:00</time>
      </trkpt>
      <trkpt lat="0" lon="0">
        <time>2020-12-06T09:30:45.687000+00:00</time>
      </trkpt>
      <trkpt lat="0" lon="0">
        <time>2020-12-06T09:30:45.688000+00:00</time>
      </trkpt>
      <trkpt lat="0" lon="0">
        <time>2020-12-06T09:30:45.689000+00:00</time>
      </trkpt>
      <trkpt lat="47.34974" lon="-1.2735">
        <ele>15</ele>
        <time>2020-12-06T09:30:46.657000+00:00</time>
      </trkpt>
      <trkpt lat="0" lon="0">
        <time>2020-12-06T09:30:46.660000+00:00</time>
      </trkpt>
      <trkpt lat="0" lon="0">
        <time>2020-12-06T09:30:46.670000+00:00</time>
      </trkpt>
      <trkpt lat="0" lon="0">
        <time>2020-12-06T09:30:46.671000+00:00</time>
      </trkpt>
      <trkpt lat="47.34978" lon="-1.27352">
        <ele>15</ele>
        <time>2020-12-06T09:30:47.685000+00:00</time>
      </trkpt>
      <trkpt lat="0" lon="0">
        <time>2020-12-06T09:30:47.696000+00:00</time>
      </trkpt>
      <trkpt lat="0" lon="0">
        <time>2020-12-06T09:30:47.703000+00:00</time>
      </trkpt>
      <trkpt lat="0" lon="0">
        <time>2020-12-06T09:30:47.705000+00:00</time>
      </trkpt>
      <trkpt lat="47.34982" lon="-1.27353">
        <ele>16</ele>
        <time>2020-12-06T09:30:48.684000+00:00</time>
      </trkpt>
      <trkpt lat="0" lon="0">
        <time>2020-12-06T09:30:48.698000+00:00</time>
      </trkpt>
      <trkpt lat="0" lon="0">
        <time>2020-12-06T09:30:48.706000+00:00</time>
      </trkpt>
      <trkpt lat="0" lon="0">
        <time>2020-12-06T09:30:48.707000+00:00</time>
      </trkpt>
      <trkpt lat="47.34986" lon="-1.27355">
        <ele>16</ele>
        <time>2020-12-06T09:30:49.668000+00:00</time>
      </trkpt>
      <trkpt lat="0" lon="0">
        <time>2020-12-06T09:30:49.686000+00:00</time>
      </trkpt>
      <trkpt lat="0" lon="0">
        <time>2020-12-06T09:30:49.690000+00:00</time>
      </trkpt>
      <trkpt lat="0" lon="0">
        <time>2020-12-06T09:30:49.696000+00:00</time>
      </trkpt>
      <trkpt lat="47.3499" lon="-1.27356">
        <ele>16</ele>
        <time>2020-12-06T09:30:50.675000+00:00</time>
      </trkpt>
      <trkpt lat="0" lon="0">
        <time>2020-12-06T09:30:50.681000+00:00</time>
      </trkpt>
      <trkpt lat="0" lon="0">
        <time>2020-12-06T09:30:50.685000+00:00</time>
      </trkpt>
      <trkpt lat="0" lon="0">
        <time>2020-12-06T09:30:50.689000+00:00</time>
      </trkpt>
      <trkpt lat="47.34994" lon="-1.27358">
        <ele>17</ele>
        <time>2020-12-06T09:30:51.685000+00:00</time>
      </trkpt>
      <trkpt lat="0" lon="0">
        <time>2020-12-06T09:30:51.691000+00:00</time>
      </trkpt>
      <trkpt lat="0" lon="0">
        <time>2020-12-06T09:30:51.697000+00:00</time>
      </trkpt>
      <trkpt lat="0" lon="0">
        <time>2020-12-06T09:30:51.700000+00:00</time>
      </trkpt>
      <trkpt lat="47.34998" lon="-1.27359">
        <ele>17</ele>
        <time>2020-12-06T09:30:52.670000+00:00</time>
      </trkpt>
      <trkpt lat="0" lon="0">
        <time>2020-12-06T09:30:52.678000+00:00</time>
      </trkpt>
      <trkpt lat="0" lon="0">
        <time>2020-12-06T09:30:52.679000+00:00</time>
      </trkpt>
      <trkpt lat="0" lon="0">
        <time>2020-12-06T09:30:52.680000+00:00</time>
      </trkpt>
      <trkpt lat="47.35002" lon="-1.27361">
        <ele>18</ele>
        <time>2020-12-06T09:30:53.715000+00:00</time>
      </trkpt>
      <trkpt lat="0" lon="0">
        <time>2020-12-06T09:30:53.721000+00:00</time>
      </trkpt>
      <trkpt lat="0" lon="0">
        <time>2020-12-06T09:30:53.726000+00:00</time>
      </trkpt>
      <trkpt lat="0" lon="0">
        <time>2020-12-06T09:30:53.730000+00:00</time>
      </trkpt>
      <trkpt lat="47.35006" lon="-1.27362">
        <ele>18</ele>
        <time>2020-12-06T09:30:54.604000+00:00</time>
      </trkpt>
      <trkpt lat="0" lon="0">
        <time>2020-12-06T09:30:54.605000+00:00</time>
      </trkpt>
      <trkpt lat="0" lon="0">
        <time>2020-12-06T09:30:54.607000+00:00</time>
      </trkpt>
      <trkpt lat="0" lon="0">
        <time>2020-12-06T09:30:54.608000+00:00</time>
      </trkpt>
      <trkpt lat="47.3501" lon="-1.27363">
        <ele>18</ele>
        <time>2020-12-06T09:30:55.675000+00:00</time>
      </trkpt>
      <trkpt lat="0" lon="0">
        <time>2020-12-06T09:30:55.688000+00:00</time>
      </trkpt>
      <trkpt lat="0" lon="0">
        <time>2020-12-06T09:30:55.697000+00:00</time>
      </trkpt>
      <trkpt lat="0" lon="0">
        <time>2020-12-06T09:30:55.699000+00:00</time>
      </trkpt>
      <trkpt lat="47.35014" lon="-1.27364">
        <ele>18</ele>
        <time>2020-12-06T09:30:56.662000+00:00</time>
      </trkpt>
      <trkpt lat="0" lon="0">
        <time>2020-12-06T09:30:56.673000+00:00</time>
      </trkpt>
      <trkpt lat="0" lon="0">
        <time>2020-12-06T09:30:56.679000+00:00</time>
      </trkpt>
      <trkpt lat="0" lon="0">
        <time>2020-12-06T09:30:56.685000+00:00</time>
      </trkpt>
      <trkpt lat="47.35017" lon="-1.27365">
        <ele>18</ele>
        <time>2020-12-06T09:30:57.713000+00:00</time>
      </trkpt>
      <trkpt lat="0" lon="0">
        <time>2020-12-06T09:30:57.716000+00:00</time>
      </trkpt>
      <trkpt lat="0" lon="0">
        <time>2020-12-06T09:30:57.719000+00:00</time>
      </trkpt>
      <trkpt lat="0" lon="0">
        <time>2020-12-06T09:30:57.726000+00:00</time>
      </trkpt>
      <trkpt lat="47.35021" lon="-1.27366">
        <ele>19</ele>
        <time>2020-12-06T09:30:58.719000+00:00</time>
      </trkpt>
      <trkpt lat="0" lon="0">
        <time>2020-12-06T09:30:58.725000+00:00</time>
      </trkpt>
      <trkpt lat="0" lon="0">
        <time>2020-12-06T09:30:58.734000+00:00</time>
      </trkpt>
      <trkpt lat="0" lon="0">
        <time>2020-12-06T09:30:58.739000+00:00</time>
      </trkpt>
      <trkpt lat="47.35025" lon="-1.27367">
        <ele>19</ele>
        <time>2020-12-06T09:30:59.685000+00:00</time>
      </trkpt>
      <trkpt lat="0" lon="0">
        <time>2020-12-06T09:30:59.695000+00:00</time>
      </trkpt>
      <trkpt lat="0" lon="0">
        <time>2020-12-06T09:30:59.698000+00:00</time>
      </trkpt>
      <trkpt lat="0" lon="0">
        <time>2020-12-06T09:30:59.701000+00:00</time>
      </trkpt>
      <trkpt lat="47.35028" lon="-1.27367">
        <ele>19</ele>
        <time>2020-12-06T09:31:00.682000+00:00</time>
      </trkpt>
      <trkpt lat="0" lon="0">
        <time>2020-12-06T09:31:00.697000+00:00</time>
      </trkpt>
      <trkpt lat="0" lon="0">
        <time>2020-12-06T09:31:00.704000+00:00</time>
      </trkpt>
      <trkpt lat="0" lon="0">
        <time>2020-12-06T09:31:00.706000+00:00</time>
      </trkpt>
      <trkpt lat="47.35032" lon="-1.27367">
        <ele>19</ele>
        <time>2020-12-06T09:31:01.666000+00:00</time>
      </trkpt>
      <trkpt lat="0" lon="0">
        <time>2020-12-06T09:31:01.677000+00:00</time>
      </trkpt>
      <trkpt lat="0" lon="0">
        <time>2020-12-06T09:31:01.681000+00:00</time>
      </trkpt>
      <trkpt lat="0" lon="0">
        <time>2020-12-06T09:31:01.683000+00:00</time>
      </trkpt>
      <trkpt lat="47.35035" lon="-1.27368">
        <ele>19</ele>
        <time>2020-12-06T09:31:02.700000+00:00</time>
      </trkpt>
      <trkpt lat="0" lon="0">
        <time>2020-12-06T09:31:02.721000+00:00</time>
      </trkpt>
      <trkpt lat="0" lon="0">
        <time>2020-12-06T09:31:02.728000+00:00</time>
      </trkpt>
      <trkpt lat="0" lon="0">
        <time>2020-12-06T09:31:02.730000+00:00</time>
      </trkpt>
      <trkpt lat="47.35038" lon="-1.27368">
        <ele>19</ele>
        <time>2020-12-06T09:31:03.695000+00:00</time>
      </trkpt>
      <trkpt lat="0" lon="0">
        <time>2020-12-06T09:31:03.699000+00:00</time>
      </trkpt>
      <trkpt lat="0" lon="0">
        <time>2020-12-06T09:31:03.706000+00:00</time>
      </trkpt>
      <trkpt lat="0" lon="0">
        <time>2020-12-06T09:31:03.710000+00:00</time>
      </trkpt>
      <trkpt lat="47.35042" lon="-1.27368">
        <ele>20</ele>
        <time>2020-12-06T09:31:04.685000+00:00</time>
      </trkpt>
      <trkpt lat="0" lon="0">
        <time>2020-12-06T09:31:04.691000+00:00</time>
      </trkpt>
      <trkpt lat="0" lon="0">
        <time>2020-12-06T09:31:04.694000+00:00</time>
      </trkpt>
      <trkpt lat="0" lon="0">
        <time>2020-12-06T09:31:04.696000+00:00</time>
      </trkpt>
      <trkpt lat="47.35045" lon="-1.27368">
        <ele>20</ele>
        <time>2020-12-06T09:31:05.666000+00:00</time>
      </trkpt>
      <trkpt lat="0" lon="0">
        <time>2020-12-06T09:31:05.677000+00:00</time>
      </trkpt>
      <trkpt lat="0" lon="0">
        <time>2020-12-06T09:31:05.686000+00:00</time>
      </trkpt>
      <trkpt lat="0" lon="0">
        <time>2020-12-06T09:31:05.691000+00:00</time>
      </trkpt>
      <trkpt lat="47.35048" lon="-1.27368">
        <ele>20</ele>
        <time>2020-12-06T09:31:06.681000+00:00</time>
      </trkpt>
      <trkpt lat="0" lon="0">
        <time>2020-12-06T09:31:06.691000+00:00</time>
      </trkpt>
      <trkpt lat="0" lon="0">
        <time>2020-12-06T09:31:06.701000+00:00</time>
      </trkpt>
      <trkpt lat="0" lon="0">
        <time>2020-12-06T09:31:06.703000+00:00</time>
      </trkpt>
      <trkpt lat="47.35051" lon="-1.27368">
        <ele>20</ele>
        <time>2020-12-06T09:31:07.695000+00:00</time>
      </trkpt>
      <trkpt lat="0" lon="0">
        <time>2020-12-06T09:31:07.699000+00:00</time>
      </trkpt>
      <trkpt lat="0" lon="0">
        <time>2020-12-06T09:31:07.704000+00:00</time>
      </trkpt>
      <trkpt lat="0" lon="0">
        <time>2020-12-06T09:31:07.710000+00:00</time>
      </trkpt>
      <trkpt lat="47.35054" lon="-1.27369">
        <ele>20</ele>
        <time>2020-12-06T09:31:08.711000+00:00</time>
      </trkpt>
      <trkpt lat="0" lon="0">
        <time>2020-12-06T09:31:08.719000+00:00</time>
      </trkpt>
      <trkpt lat="0" lon="0">
        <time>2020-12-06T09:31:08.722000+00:00</time>
      </trkpt>
      <trkpt lat="0" lon="0">
        <time>2020-12-06T09:31:08.725000+00:00</time>
      </trkpt>
      <trkpt lat="47.35057" lon="-1.27369">
        <ele>20</ele>
        <time>2020-12-06T09:31:09.678000+00:00</time>
      </trkpt>
      <trkpt lat="0" lon="0">
        <time>2020-12-06T09:31:09.691000+00:00</time>
      </trkpt>
      <trkpt lat="0" lon="0">
        <time>2020-12-06T09:31:09.699000+00:00</time>
      </trkpt>
      <trkpt lat="0" lon="0">
        <time>2020-12-06T09:31:09.701000+00:00</time>
      </trkpt>
      <trkpt lat="47.3506" lon="-1.27369">
        <ele>20</ele>
        <time>2020-12-06T09:31:10.696000+00:00</time>
      </trkpt>
      <trkpt lat="0" lon="0">
        <time>2020-12-06T09:31:10.705000+00:00</time>
      </trkpt>
      <trkpt lat="0" lon="0">
        <time>2020-12-06T09:31:10.708000+00:00</time>
      </trkpt>
      <trkpt lat="0" lon="0">
        <time>2020-12-06T09:31:10.711000+00:00</time>
      </trkpt>
      <trkpt lat="47.35063" lon="-1.27369">
        <ele>21</ele>
        <time>2020-12-06T09:31:11.681000+00:00</time>
      </trkpt>
      <trkpt lat="0" lon="0">
        <time>2020-12-06T09:31:11.695000+00:00</time>
      </trkpt>
      <trkpt lat="0" lon="0">
        <time>2020-12-06T09:31:11.700000+00:00</time>
      </trkpt>
      <trkpt lat="0" lon="0">
        <time>2020-12-06T09:31:11.702000+00:00</time>
      </trkpt>
      <trkpt lat="47.35066" lon="-1.27369">
        <ele>21</ele>
        <time>2020-12-06T09:31:12.705000+00:00</time>
      </trkpt>
      <trkpt lat="0" lon="0">
        <time>2020-12-06T09:31:12.709000+00:00</time>
      </trkpt>
      <trkpt lat="0" lon="0">
        <time>2020-12-06T09:31:12.717000+00:00</time>
      </trkpt>
      <trkpt lat="0" lon="0">
        <time>2020-12-06T09:31:12.721000+00:00</time>
      </trkpt>
      <trkpt lat="47.35068" lon="-1.27369">
        <ele>21</ele>
        <time>2020-12-06T09:31:13.655000+00:00</time>
      </trkpt>
      <trkpt lat="0" lon="0">
        <time>2020-12-06T09:31:13.660000+00:00</time>
      </trkpt>
      <trkpt lat="0" lon="0">
        <time>2020-12-06T09:31:13.664000+00:00</time>
      </trkpt>
      <trkpt lat="0" lon="0">
        <time>2020-12-06T09:31:13.669000+00:00</time>
      </trkpt>
      <trkpt lat="47.35071" lon="-1.27369">
        <ele>21</ele>
        <time>2020-12-06T09:31:14.703000+00:00</time>
      </trkpt>
      <trkpt lat="0" lon="0">
        <time>2020-12-06T09:31:14.710000+00:00</time>
      </trkpt>
      <trkpt lat="0" lon="0">
        <time>2020-12-06T09:31:14.711000+00:00</time>
      </trkpt>
      <trkpt lat="0" lon="0">
        <time>2020-12-06T09:31:14.712000+00:00</time>
      </trkpt>
      <trkpt lat="47.35074" lon="-1.27369">
        <ele>21</ele>
        <time>2020-12-06T09:31:15.693000+00:00</time>
      </trkpt>
      <trkpt lat="0" lon="0">
        <time>2020-12-06T09:31:15.697000+00:00</time>
      </trkpt>
      <trkpt lat="0" lon="0">
        <time>2020-12-06T09:31:15.706000+00:00</time>
      </trkpt>
      <trkpt lat="0" lon="0">
        <time>2020-12-06T09:31:15.708000+00:00</time>
      </trkpt>
      <trkpt lat="47.35077" lon="-1.27369">
        <ele>21</ele>
        <time>2020-12-06T09:31:16.700000+00:00</time>
      </trkpt>
      <trkpt lat="0" lon="0">
        <time>2020-12-06T09:31:16.703000+00:00</time>
      </trkpt>
      <trkpt lat="0" lon="0">
        <time>2020-12-06T09:31:16.710000+00:00</time>
      </trkpt>
      <trkpt lat="0" lon="0">
        <time>2020-12-06T09:31:16.713000+00:00</time>
      </trkpt>
      <trkpt lat="47.35079" lon="-1.2737">
        <ele>21</ele>
        <time>2020-12-06T09:31:17.730000+00:00</time>
      </trkpt>
      <trkpt lat="0" lon="0">
        <time>2020-12-06T09:31:17.736000+00:00</time>
      </trkpt>
      <trkpt lat="0" lon="0">
        <time>2020-12-06T09:31:17.743000+00:00</time>
      </trkpt>
      <trkpt lat="0" lon="0">
        <time>2020-12-06T09:31:17.744000+00:00</time>
      </trkpt>
      <trkpt lat="47.35082" lon="-1.2737">
        <ele>21</ele>
        <time>2020-12-06T09:31:18.698000+00:00</time>
      </trkpt>
      <trkpt lat="0" lon="0">
        <time>2020-12-06T09:31:18.709000+00:00</time>
      </trkpt>
      <trkpt lat="0" lon="0">
        <time>2020-12-06T09:31:18.714000+00:00</time>
      </trkpt>
      <trkpt lat="0" lon="0">
        <time>2020-12-06T09:31:18.716000+00:00</time>
      </trkpt>
      <trkpt lat="47.35084" lon="-1.2737">
        <ele>22</ele>
        <time>2020-12-06T09:31:19.669000+00:00</time>
      </trkpt>
      <trkpt lat="0" lon="0">
        <time>2020-12-06T09:31:19.677000+00:00</time>
      </trkpt>
      <trkpt lat="0" lon="0">
        <time>2020-12-06T09:31:19.690000+00:00</time>
      </trkpt>
      <trkpt lat="0" lon="0">
        <time>2020-12-06T09:31:19.697000+00:00</time>
      </trkpt>
      <trkpt lat="47.35087" lon="-1.2737">
        <ele>22</ele>
        <time>2020-12-06T09:31:20.666000+00:00</time>
      </trkpt>
      <trkpt lat="0" lon="0">
        <time>2020-12-06T09:31:20.677000+00:00</time>
      </trkpt>
      <trkpt lat="0" lon="0">
        <time>2020-12-06T09:31:20.679000+00:00</time>
      </trkpt>
      <trkpt lat="0" lon="0">
        <time>2020-12-06T09:31:20.680000+00:00</time>
      </trkpt>
      <trkpt lat="47.3509" lon="-1.2737">
        <ele>22</ele>
        <time>2020-12-06T09:31:21.680000+00:00</time>
      </trkpt>
      <trkpt lat="0" lon="0">
        <time>2020-12-06T09:31:21.692000+00:00</time>
      </trkpt>
      <trkpt lat="0" lon="0">
        <time>2020-12-06T09:31:21.696000+00:00</time>
      </trkpt>
      <trkpt lat="0" lon="0">
        <time>2020-12-06T09:31:21.701000+00:00</time>
      </trkpt>
      <trkpt lat="47.35092" lon="-1.2737">
        <ele>22</ele>
        <time>2020-12-06T09:31:22.678000+00:00</time>
      </trkpt>
      <trkpt lat="0" lon="0">
        <time>2020-12-06T09:31:22.690000+00:00</time>
      </trkpt>
      <trkpt lat="0" lon="0">
        <time>2020-12-06T09:31:22.705000+00:00</time>
      </trkpt>
      <trkpt lat="0" lon="0">
        <time>2020-12-06T09:31:22.707000+00:00</time>
      </trkpt>
      <trkpt lat="47.35095" lon="-1.2737">
        <ele>22</ele>
        <time>2020-12-06T09:31:23.680000+00:00</time>
      </trkpt>
      <trkpt lat="0" lon="0">
        <time>2020-12-06T09:31:23.693000+00:00</time>
      </trkpt>
      <trkpt lat="0" lon="0">
        <time>2020-12-06T09:31:23.695000+00:00</time>
      </trkpt>
      <trkpt lat="0" lon="0">
        <time>2020-12-06T09:31:23.696000+00:00</time>
      </trkpt>
      <trkpt lat="47.35097" lon="-1.27369">
        <ele>22</ele>
        <time>2020-12-06T09:31:24.666000+00:00</time>
      </trkpt>
      <trkpt lat="0" lon="0">
        <time>2020-12-06T09:31:24.680000+00:00</time>
      </trkpt>
      <trkpt lat="0" lon="0">
        <time>2020-12-06T09:31:24.684000+00:00</time>
      </trkpt>
      <trkpt lat="0" lon="0">
        <time>2020-12-06T09:31:24.686000+00:00</time>
      </trkpt>
      <trkpt lat="47.351" lon="-1.27369">
        <ele>23</ele>
        <time>2020-12-06T09:31:25.695000+00:00</time>
      </trkpt>
      <trkpt lat="0" lon="0">
        <time>2020-12-06T09:31:25.704000+00:00</time>
      </trkpt>
      <trkpt lat="0" lon="0">
        <time>2020-12-06T09:31:25.721000+00:00</time>
      </trkpt>
      <trkpt lat="0" lon="0">
        <time>2020-12-06T09:31:25.729000+00:00</time>
      </trkpt>
      <trkpt lat="47.35102" lon="-1.27369">
        <ele>23</ele>
        <time>2020-12-06T09:31:26.668000+00:00</time>
      </trkpt>
      <trkpt lat="0" lon="0">
        <time>2020-12-06T09:31:26.671000+00:00</time>
      </trkpt>
      <trkpt lat="0" lon="0">
        <time>2020-12-06T09:31:26.685000+00:00</time>
      </trkpt>
      <trkpt lat="0" lon="0">
        <time>2020-12-06T09:31:26.686000+00:00</time>
      </trkpt>
      <trkpt lat="47.35105" lon="-1.27368">
        <ele>23</ele>
        <time>2020-12-06T09:31:27.668000+00:00</time>
      </trkpt>
      <trkpt lat="0" lon="0">
        <time>2020-12-06T09:31:27.679000+00:00</time>
      </trkpt>
      <trkpt lat="0" lon="0">
        <time>2020-12-06T09:31:27.684000+00:00</time>
      </trkpt>
      <trkpt lat="0" lon="0">
        <time>2020-12-06T09:31:27.690000+00:00</time>
      </trkpt>
      <trkpt lat="47.35107" lon="-1.27368">
        <ele>23</ele>
        <time>2020-12-06T09:31:28.688000+00:00</time>
      </trkpt>
      <trkpt lat="0" lon="0">
        <time>2020-12-06T09:31:28.702000+00:00</time>
      </trkpt>
      <trkpt lat="0" lon="0">
        <time>2020-12-06T09:31:28.704000+00:00</time>
      </trkpt>
      <trkpt lat="0" lon="0">
        <time>2020-12-06T09:31:28.705000+00:00</time>
      </trkpt>
      <trkpt lat="47.3511" lon="-1.27368">
        <ele>23</ele>
        <time>2020-12-06T09:31:29.686000+00:00</time>
      </trkpt>
      <trkpt lat="0" lon="0">
        <time>2020-12-06T09:31:29.690000+00:00</time>
      </trkpt>
      <trkpt lat="0" lon="0">
        <time>2020-12-06T09:31:29.698000+00:00</time>
      </trkpt>
      <trkpt lat="0" lon="0">
        <time>2020-12-06T09:31:29.700000+00:00</time>
      </trkpt>
      <trkpt lat="47.35112" lon="-1.27368">
        <ele>24</ele>
        <time>2020-12-06T09:31:30.670000+00:00</time>
      </trkpt>
      <trkpt lat="0" lon="0">
        <time>2020-12-06T09:31:30.672000+00:00</time>
      </trkpt>
      <trkpt lat="0" lon="0">
        <time>2020-12-06T09:31:30.676000+00:00</time>
      </trkpt>
      <trkpt lat="0" lon="0">
        <time>2020-12-06T09:31:30.677000+00:00</time>
      </trkpt>
      <trkpt lat="47.35114" lon="-1.27368">
        <ele>24</ele>
        <time>2020-12-06T09:31:31.678000+00:00</time>
      </trkpt>
      <trkpt lat="0" lon="0">
        <time>2020-12-06T09:31:31.687000+00:00</time>
      </trkpt>
      <trkpt lat="0" lon="0">
        <time>2020-12-06T09:31:31.696000+00:00</time>
      </trkpt>
      <trkpt lat="0" lon="0">
        <time>2020-12-06T09:31:31.698000+00:00</time>
      </trkpt>
      <trkpt lat="47.35117" lon="-1.27368">
        <ele>24</ele>
        <time>2020-12-06T09:31:32.665000+00:00</time>
      </trkpt>
      <trkpt lat="0" lon="0">
        <time>2020-12-06T09:31:32.673000+00:00</time>
      </trkpt>
      <trkpt lat="0" lon="0">
        <time>2020-12-06T09:31:32.675000+00:00</time>
      </trkpt>
      <trkpt lat="0" lon="0">
        <time>2020-12-06T09:31:32.676000+00:00</time>
      </trkpt>
      <trkpt lat="47.35119" lon="-1.27368">
        <ele>24</ele>
        <time>2020-12-06T09:31:33.701000+00:00</time>
      </trkpt>
      <trkpt lat="0" lon="0">
        <time>2020-12-06T09:31:33.704000+00:00</time>
      </trkpt>
      <trkpt lat="0" lon="0">
        <time>2020-12-06T09:31:33.716000+00:00</time>
      </trkpt>
      <trkpt lat="0" lon="0">
        <time>2020-12-06T09:31:33.719000+00:00</time>
      </trkpt>
      <trkpt lat="47.35121" lon="-1.27368">
        <ele>24</ele>
        <time>2020-12-06T09:31:34.714000+00:00</time>
      </trkpt>
      <trkpt lat="0" lon="0">
        <time>2020-12-06T09:31:34.721000+00:00</time>
      </trkpt>
      <trkpt lat="0" lon="0">
        <time>2020-12-06T09:31:34.724000+00:00</time>
      </trkpt>
      <trkpt lat="0" lon="0">
        <time>2020-12-06T09:31:34.727000+00:00</time>
      </trkpt>
      <trkpt lat="47.35122" lon="-1.27369">
        <ele>24</ele>
        <time>2020-12-06T09:31:35.648000+00:00</time>
      </trkpt>
      <trkpt lat="0" lon="0">
        <time>2020-12-06T09:31:35.651000+00:00</time>
      </trkpt>
      <trkpt lat="0" lon="0">
        <time>2020-12-06T09:31:35.660000+00:00</time>
      </trkpt>
      <trkpt lat="0" lon="0">
        <time>2020-12-06T09:31:35.667000+00:00</time>
      </trkpt>
      <trkpt lat="47.35124" lon="-1.2737">
        <ele>24</ele>
        <time>2020-12-06T09:31:36.686000+00:00</time>
      </trkpt>
      <trkpt lat="0" lon="0">
        <time>2020-12-06T09:31:36.694000+00:00</time>
      </trkpt>
      <trkpt lat="0" lon="0">
        <time>2020-12-06T09:31:36.702000+00:00</time>
      </trkpt>
      <trkpt lat="0" lon="0">
        <time>2020-12-06T09:31:36.704000+00:00</time>
      </trkpt>
      <trkpt lat="47.35124" lon="-1.27372">
        <ele>24</ele>
        <time>2020-12-06T09:31:37.663000+00:00</time>
      </trkpt>
      <trkpt lat="0" lon="0">
        <time>2020-12-06T09:31:37.666000+00:00</time>
      </trkpt>
      <trkpt lat="0" lon="0">
        <time>2020-12-06T09:31:37.682000+00:00</time>
      </trkpt>
      <trkpt lat="0" lon="0">
        <time>2020-12-06T09:31:37.683000+00:00</time>
      </trkpt>
      <trkpt lat="47.35124" lon="-1.27374">
        <ele>24</ele>
        <time>2020-12-06T09:31:38.652000+00:00</time>
      </trkpt>
      <trkpt lat="0" lon="0">
        <time>2020-12-06T09:31:38.666000+00:00</time>
      </trkpt>
      <trkpt lat="0" lon="0">
        <time>2020-12-06T09:31:38.677000+00:00</time>
      </trkpt>
      <trkpt lat="0" lon="0">
        <time>2020-12-06T09:31:38.679000+00:00</time>
      </trkpt>
      <trkpt lat="47.35124" lon="-1.27376">
        <ele>24</ele>
        <time>2020-12-06T09:31:39.679000+00:00</time>
      </trkpt>
      <trkpt lat="0" lon="0">
        <time>2020-12-06T09:31:39.689000+00:00</time>
      </trkpt>
      <trkpt lat="0" lon="0">
        <time>2020-12-06T09:31:39.691000+00:00</time>
      </trkpt>
      <trkpt lat="0" lon="0">
        <time>2020-12-06T09:31:39.692000+00:00</time>
      </trkpt>
      <trkpt lat="47.35123" lon="-1.27379">
        <ele>24</ele>
        <time>2020-12-06T09:31:40.688000+00:00</time>
      </trkpt>
      <trkpt lat="0" lon="0">
        <time>2020-12-06T09:31:40.692000+00:00</time>
      </trkpt>
      <trkpt lat="0" lon="0">
        <time>2020-12-06T09:31:40.701000+00:00</time>
      </trkpt>
      <trkpt lat="0" lon="0">
        <time>2020-12-06T09:31:40.705000+00:00</time>
      </trkpt>
      <trkpt lat="47.35121" lon="-1.27382">
        <ele>24</ele>
        <time>2020-12-06T09:31:41.692000+00:00</time>
      </trkpt>
      <trkpt lat="0" lon="0">
        <time>2020-12-06T09:31:41.699000+00:00</time>
      </trkpt>
      <trkpt lat="0" lon="0">
        <time>2020-12-06T09:31:41.702000+00:00</time>
      </trkpt>
      <trkpt lat="0" lon="0">
        <time>2020-12-06T09:31:41.709000+00:00</time>
      </trkpt>
      <trkpt lat="47.3512" lon="-1.27386">
        <ele>24</ele>
        <time>2020-12-06T09:31:42.681000+00:00</time>
      </trkpt>
      <trkpt lat="0" lon="0">
        <time>2020-12-06T09:31:42.684000+00:00</time>
      </trkpt>
      <trkpt lat="0" lon="0">
        <time>2020-12-06T09:31:42.694000+00:00</time>
      </trkpt>
      <trkpt lat="0" lon="0">
        <time>2020-12-06T09:31:42.695000+00:00</time>
      </trkpt>
      <trkpt lat="47.35118" lon="-1.2739">
        <ele>24</ele>
        <time>2020-12-06T09:31:43.691000+00:00</time>
      </trkpt>
      <trkpt lat="0" lon="0">
        <time>2020-12-06T09:31:43.706000+00:00</time>
      </trkpt>
      <trkpt lat="0" lon="0">
        <time>2020-12-06T09:31:43.709000+00:00</time>
      </trkpt>
      <trkpt lat="0" lon="0">
        <time>2020-12-06T09:31:43.713000+00:00</time>
      </trkpt>
      <trkpt lat="47.35116" lon="-1.27395">
        <ele>24</ele>
        <time>2020-12-06T09:31:44.675000+00:00</time>
      </trkpt>
      <trkpt lat="0" lon="0">
        <time>2020-12-06T09:31:44.678000+00:00</time>
      </trkpt>
      <trkpt lat="0" lon="0">
        <time>2020-12-06T09:31:44.689000+00:00</time>
      </trkpt>
      <trkpt lat="0" lon="0">
        <time>2020-12-06T09:31:44.690000+00:00</time>
      </trkpt>
      <trkpt lat="47.35113" lon="-1.274">
        <ele>24</ele>
        <time>2020-12-06T09:31:45.704000+00:00</time>
      </trkpt>
      <trkpt lat="0" lon="0">
        <time>2020-12-06T09:31:45.717000+00:00</time>
      </trkpt>
      <trkpt lat="0" lon="0">
        <time>2020-12-06T09:31:45.728000+00:00</time>
      </trkpt>
      <trkpt lat="0" lon="0">
        <time>2020-12-06T09:31:45.731000+00:00</time>
      </trkpt>
      <trkpt lat="47.35111" lon="-1.27405">
        <ele>23</ele>
        <time>2020-12-06T09:31:46.688000+00:00</time>
      </trkpt>
      <trkpt lat="0" lon="0">
        <time>2020-12-06T09:31:46.700000+00:00</time>
      </trkpt>
      <trkpt lat="0" lon="0">
        <time>2020-12-06T09:31:46.705000+00:00</time>
      </trkpt>
      <trkpt lat="0" lon="0">
        <time>2020-12-06T09:31:46.708000+00:00</time>
      </trkpt>
      <trkpt lat="47.35108" lon="-1.27411">
        <ele>23</ele>
        <time>2020-12-06T09:31:47.681000+00:00</time>
      </trkpt>
      <trkpt lat="0" lon="0">
        <time>2020-12-06T09:31:47.689000+00:00</time>
      </trkpt>
      <trkpt lat="0" lon="0">
        <time>2020-12-06T09:31:47.692000+00:00</time>
      </trkpt>
      <trkpt lat="0" lon="0">
        <time>2020-12-06T09:31:47.695000+00:00</time>
      </trkpt>
      <trkpt lat="47.35105" lon="-1.27417">
        <ele>23</ele>
        <time>2020-12-06T09:31:48.714000+00:00</time>
      </trkpt>
      <trkpt lat="0" lon="0">
        <time>2020-12-06T09:31:48.726000+00:00</time>
      </trkpt>
      <trkpt lat="0" lon="0">
        <time>2020-12-06T09:31:48.733000+00:00</time>
      </trkpt>
      <trkpt lat="0" lon="0">
        <time>2020-12-06T09:31:48.738000+00:00</time>
      </trkpt>
      <trkpt lat="47.35102" lon="-1.27423">
        <ele>23</ele>
        <time>2020-12-06T09:31:49.622000+00:00</time>
      </trkpt>
      <trkpt lat="0" lon="0">
        <time>2020-12-06T09:31:49.623000+00:00</time>
      </trkpt>
      <trkpt lat="0" lon="0">
        <time>2020-12-06T09:31:49.625000+00:00</time>
      </trkpt>
      <trkpt lat="0" lon="0">
        <time>2020-12-06T09:31:49.627000+00:00</time>
      </trkpt>
      <trkpt lat="47.35098" lon="-1.2743">
        <ele>23</ele>
        <time>2020-12-06T09:31:50.690000+00:00</time>
      </trkpt>
      <trkpt lat="0" lon="0">
        <time>2020-12-06T09:31:50.696000+00:00</time>
      </trkpt>
      <trkpt lat="0" lon="0">
        <time>2020-12-06T09:31:50.700000+00:00</time>
      </trkpt>
      <trkpt lat="0" lon="0">
        <time>2020-12-06T09:31:50.704000+00:00</time>
      </trkpt>
      <trkpt lat="47.35095" lon="-1.27437">
        <ele>22</ele>
        <time>2020-12-06T09:31:51.682000+00:00</time>
      </trkpt>
      <trkpt lat="0" lon="0">
        <time>2020-12-06T09:31:51.686000+00:00</time>
      </trkpt>
      <trkpt lat="0" lon="0">
        <time>2020-12-06T09:31:51.689000+00:00</time>
      </trkpt>
      <trkpt lat="0" lon="0">
        <time>2020-12-06T09:31:51.693000+00:00</time>
      </trkpt>
      <trkpt lat="47.35091" lon="-1.27445">
        <ele>22</ele>
        <time>2020-12-06T09:31:52.630000+00:00</time>
      </trkpt>
      <trkpt lat="0" lon="0">
        <time>2020-12-06T09:31:52.632000+00:00</time>
      </trkpt>
      <trkpt lat="0" lon="0">
        <time>2020-12-06T09:31:52.636000+00:00</time>
      </trkpt>
      <trkpt lat="0" lon="0">
        <time>2020-12-06T09:31:52.640000+00:00</time>
      </trkpt>
      <trkpt lat="47.35087" lon="-1.27454">
        <ele>22</ele>
        <time>2020-12-06T09:31:53.679000+00:00</time>
      </trkpt>
      <trkpt lat="0" lon="0">
        <time>2020-12-06T09:31:53.690000+00:00</time>
      </trkpt>
      <trkpt lat="0" lon="0">
        <time>2020-12-06T09:31:53.701000+00:00</time>
      </trkpt>
      <trkpt lat="0" lon="0">
        <time>2020-12-06T09:31:53.702000+00:00</time>
      </trkpt>
      <trkpt lat="47.35083" lon="-1.27463">
        <ele>21</ele>
        <time>2020-12-06T09:31:54.634000+00:00</time>
      </trkpt>
      <trkpt lat="0" lon="0">
        <time>2020-12-06T09:31:54.637000+00:00</time>
      </trkpt>
      <trkpt lat="0" lon="0">
        <time>2020-12-06T09:31:54.656000+00:00</time>
      </trkpt>
      <trkpt lat="0" lon="0">
        <time>2020-12-06T09:31:54.657000+00:00</time>
      </trkpt>
      <trkpt lat="47.35079" lon="-1.27472">
        <ele>21</ele>
        <time>2020-12-06T09:31:55.674000+00:00</time>
      </trkpt>
      <trkpt lat="0" lon="0">
        <time>2020-12-06T09:31:55.679000+00:00</time>
      </trkpt>
      <trkpt lat="0" lon="0">
        <time>2020-12-06T09:31:55.685000+00:00</time>
      </trkpt>
      <trkpt lat="0" lon="0">
        <time>2020-12-06T09:31:55.688000+00:00</time>
      </trkpt>
      <trkpt lat="47.35074" lon="-1.27481">
        <ele>21</ele>
        <time>2020-12-06T09:31:56.607000+00:00</time>
      </trkpt>
      <trkpt lat="0" lon="0">
        <time>2020-12-06T09:31:56.612000+00:00</time>
      </trkpt>
      <trkpt lat="0" lon="0">
        <time>2020-12-06T09:31:56.614000+00:00</time>
      </trkpt>
      <trkpt lat="0" lon="0">
        <time>2020-12-06T09:31:56.615000+00:00</time>
      </trkpt>
      <trkpt lat="47.35069" lon="-1.27491">
        <ele>21</ele>
        <time>2020-12-06T09:31:57.695000+00:00</time>
      </trkpt>
      <trkpt lat="0" lon="0">
        <time>2020-12-06T09:31:57.708000+00:00</time>
      </trkpt>
      <trkpt lat="0" lon="0">
        <time>2020-12-06T09:31:57.714000+00:00</time>
      </trkpt>
      <trkpt lat="0" lon="0">
        <time>2020-12-06T09:31:57.716000+00:00</time>
      </trkpt>
      <trkpt lat="47.35065" lon="-1.27502">
        <ele>20</ele>
        <time>2020-12-06T09:31:58.699000+00:00</time>
      </trkpt>
      <trkpt lat="0" lon="0">
        <time>2020-12-06T09:31:58.707000+00:00</time>
      </trkpt>
      <trkpt lat="0" lon="0">
        <time>2020-12-06T09:31:58.713000+00:00</time>
      </trkpt>
      <trkpt lat="0" lon="0">
        <time>2020-12-06T09:31:58.715000+00:00</time>
      </trkpt>
      <trkpt lat="47.3506" lon="-1.27512">
        <ele>20</ele>
        <time>2020-12-06T09:31:59.676000+00:00</time>
      </trkpt>
      <trkpt lat="0" lon="0">
        <time>2020-12-06T09:31:59.686000+00:00</time>
      </trkpt>
      <trkpt lat="0" lon="0">
        <time>2020-12-06T09:31:59.690000+00:00</time>
      </trkpt>
      <trkpt lat="0" lon="0">
        <time>2020-12-06T09:31:59.694000+00:00</time>
      </trkpt>
      <trkpt lat="47.35055" lon="-1.27522">
        <ele>20</ele>
        <time>2020-12-06T09:32:00.694000+00:00</time>
      </trkpt>
      <trkpt lat="0" lon="0">
        <time>2020-12-06T09:32:00.706000+00:00</time>
      </trkpt>
      <trkpt lat="0" lon="0">
        <time>2020-12-06T09:32:00.710000+00:00</time>
      </trkpt>
      <trkpt lat="0" lon="0">
        <time>2020-12-06T09:32:00.711000+00:00</time>
      </trkpt>
      <trkpt lat="47.3505" lon="-1.27532">
        <ele>20</ele>
        <time>2020-12-06T09:32:01.692000+00:00</time>
      </trkpt>
      <trkpt lat="0" lon="0">
        <time>2020-12-06T09:32:01.696000+00:00</time>
      </trkpt>
      <trkpt lat="0" lon="0">
        <time>2020-12-06T09:32:01.704000+00:00</time>
      </trkpt>
      <trkpt lat="0" lon="0">
        <time>2020-12-06T09:32:01.707000+00:00</time>
      </trkpt>
      <trkpt lat="47.35045" lon="-1.27543">
        <ele>20</ele>
        <time>2020-12-06T09:32:02.695000+00:00</time>
      </trkpt>
      <trkpt lat="0" lon="0">
        <time>2020-12-06T09:32:02.707000+00:00</time>
      </trkpt>
      <trkpt lat="0" lon="0">
        <time>2020-12-06T09:32:02.708000+00:00</time>
      </trkpt>
      <trkpt lat="0" lon="0">
        <time>2020-12-06T09:32:02.709000+00:00</time>
      </trkpt>
      <trkpt lat="47.35041" lon="-1.27553">
        <ele>20</ele>
        <time>2020-12-06T09:32:03.691000+00:00</time>
      </trkpt>
      <trkpt lat="0" lon="0">
        <time>2020-12-06T09:32:03.705000+00:00</time>
      </trkpt>
      <trkpt lat="0" lon="0">
        <time>2020-12-06T09:32:03.708000+00:00</time>
      </trkpt>
      <trkpt lat="0" lon="0">
        <time>2020-12-06T09:32:03.712000+00:00</time>
      </trkpt>
      <trkpt lat="47.35037" lon="-1.27563">
        <ele>20</ele>
        <time>2020-12-06T09:32:04.664000+00:00</time>
      </trkpt>
      <trkpt lat="0" lon="0">
        <time>2020-12-06T09:32:04.677000+00:00</time>
      </trkpt>
      <trkpt lat="0" lon="0">
        <time>2020-12-06T09:32:04.680000+00:00</time>
      </trkpt>
      <trkpt lat="0" lon="0">
        <time>2020-12-06T09:32:04.685000+00:00</time>
      </trkpt>
      <trkpt lat="47.35034" lon="-1.27573">
        <ele>20</ele>
        <time>2020-12-06T09:32:05.610000+00:00</time>
      </trkpt>
      <trkpt lat="0" lon="0">
        <time>2020-12-06T09:32:05.613000+00:00</time>
      </trkpt>
      <trkpt lat="0" lon="0">
        <time>2020-12-06T09:32:05.628000+00:00</time>
      </trkpt>
      <trkpt lat="0" lon="0">
        <time>2020-12-06T09:32:05.629000+00:00</time>
      </trkpt>
      <trkpt lat="47.35031" lon="-1.27583">
        <ele>20</ele>
        <time>2020-12-06T09:32:06.678000+00:00</time>
      </trkpt>
      <trkpt lat="0" lon="0">
        <time>2020-12-06T09:32:06.688000+00:00</time>
      </trkpt>
      <trkpt lat="0" lon="0">
        <time>2020-12-06T09:32:06.690000+00:00</time>
      </trkpt>
      <trkpt lat="0" lon="0">
        <time>2020-12-06T09:32:06.691000+00:00</time>
      </trkpt>
      <trkpt lat="47.35029" lon="-1.27593">
        <ele>20</ele>
        <time>2020-12-06T09:32:07.648000+00:00</time>
      </trkpt>
      <trkpt lat="0" lon="0">
        <time>2020-12-06T09:32:07.662000+00:00</time>
      </trkpt>
      <trkpt lat="0" lon="0">
        <time>2020-12-06T09:32:07.666000+00:00</time>
      </trkpt>
      <trkpt lat="0" lon="0">
        <time>2020-12-06T09:32:07.668000+00:00</time>
      </trkpt>
      <trkpt lat="47.35027" lon="-1.27603">
        <ele>21</ele>
        <time>2020-12-06T09:32:08.718000+00:00</time>
      </trkpt>
      <trkpt lat="0" lon="0">
        <time>2020-12-06T09:32:08.735000+00:00</time>
      </trkpt>
      <trkpt lat="0" lon="0">
        <time>2020-12-06T09:32:08.743000+00:00</time>
      </trkpt>
      <trkpt lat="0" lon="0">
        <time>2020-12-06T09:32:08.745000+00:00</time>
      </trkpt>
      <trkpt lat="47.35025" lon="-1.27612">
        <ele>21</ele>
        <time>2020-12-06T09:32:09.687000+00:00</time>
      </trkpt>
      <trkpt lat="0" lon="0">
        <time>2020-12-06T09:32:09.701000+00:00</time>
      </trkpt>
      <trkpt lat="0" lon="0">
        <time>2020-12-06T09:32:09.705000+00:00</time>
      </trkpt>
      <trkpt lat="0" lon="0">
        <time>2020-12-06T09:32:09.708000+00:00</time>
      </trkpt>
      <trkpt lat="47.35024" lon="-1.2762">
        <ele>21</ele>
        <time>2020-12-06T09:32:10.676000+00:00</time>
      </trkpt>
      <trkpt lat="0" lon="0">
        <time>2020-12-06T09:32:10.689000+00:00</time>
      </trkpt>
      <trkpt lat="0" lon="0">
        <time>2020-12-06T09:32:10.694000+00:00</time>
      </trkpt>
      <trkpt lat="0" lon="0">
        <time>2020-12-06T09:32:10.696000+00:00</time>
      </trkpt>
      <trkpt lat="47.35023" lon="-1.27628">
        <ele>21</ele>
        <time>2020-12-06T09:32:11.674000+00:00</time>
      </trkpt>
      <trkpt lat="0" lon="0">
        <time>2020-12-06T09:32:11.686000+00:00</time>
      </trkpt>
      <trkpt lat="0" lon="0">
        <time>2020-12-06T09:32:11.691000+00:00</time>
      </trkpt>
      <trkpt lat="0" lon="0">
        <time>2020-12-06T09:32:11.693000+00:00</time>
      </trkpt>
      <trkpt lat="47.35023" lon="-1.27634">
        <ele>21</ele>
        <time>2020-12-06T09:32:12.691000+00:00</time>
      </trkpt>
      <trkpt lat="0" lon="0">
        <time>2020-12-06T09:32:12.698000+00:00</time>
      </trkpt>
      <trkpt lat="0" lon="0">
        <time>2020-12-06T09:32:12.699000+00:00</time>
      </trkpt>
      <trkpt lat="0" lon="0">
        <time>2020-12-06T09:32:12.700000+00:00</time>
      </trkpt>
      <trkpt lat="47.35023" lon="-1.27641">
        <ele>21</ele>
        <time>2020-12-06T09:32:13.670000+00:00</time>
      </trkpt>
      <trkpt lat="0" lon="0">
        <time>2020-12-06T09:32:13.676000+00:00</time>
      </trkpt>
      <trkpt lat="0" lon="0">
        <time>2020-12-06T09:32:13.681000+00:00</time>
      </trkpt>
      <trkpt lat="0" lon="0">
        <time>2020-12-06T09:32:13.683000+00:00</time>
      </trkpt>
      <trkpt lat="47.35023" lon="-1.27647">
        <ele>21</ele>
        <time>2020-12-06T09:32:14.709000+00:00</time>
      </trkpt>
      <trkpt lat="0" lon="0">
        <time>2020-12-06T09:32:14.717000+00:00</time>
      </trkpt>
      <trkpt lat="0" lon="0">
        <time>2020-12-06T09:32:14.721000+00:00</time>
      </trkpt>
      <trkpt lat="0" lon="0">
        <time>2020-12-06T09:32:14.727000+00:00</time>
      </trkpt>
      <trkpt lat="47.35023" lon="-1.27652">
        <ele>22</ele>
        <time>2020-12-06T09:32:15.675000+00:00</time>
      </trkpt>
      <trkpt lat="0" lon="0">
        <time>2020-12-06T09:32:15.694000+00:00</time>
      </trkpt>
      <trkpt lat="0" lon="0">
        <time>2020-12-06T09:32:15.696000+00:00</time>
      </trkpt>
      <trkpt lat="0" lon="0">
        <time>2020-12-06T09:32:15.705000+00:00</time>
      </trkpt>
      <trkpt lat="47.35022" lon="-1.27657">
        <ele>22</ele>
        <time>2020-12-06T09:32:16.678000+00:00</time>
      </trkpt>
      <trkpt lat="0" lon="0">
        <time>2020-12-06T09:32:16.690000+00:00</time>
      </trkpt>
      <trkpt lat="0" lon="0">
        <time>2020-12-06T09:32:16.697000+00:00</time>
      </trkpt>
      <trkpt lat="0" lon="0">
        <time>2020-12-06T09:32:16.705000+00:00</time>
      </trkpt>
      <trkpt lat="47.35022" lon="-1.27662">
        <ele>22</ele>
        <time>2020-12-06T09:32:17.681000+00:00</time>
      </trkpt>
      <trkpt lat="0" lon="0">
        <time>2020-12-06T09:32:17.696000+00:00</time>
      </trkpt>
      <trkpt lat="0" lon="0">
        <time>2020-12-06T09:32:17.703000+00:00</time>
      </trkpt>
      <trkpt lat="0" lon="0">
        <time>2020-12-06T09:32:17.704000+00:00</time>
      </trkpt>
      <trkpt lat="47.35022" lon="-1.27666">
        <ele>22</ele>
        <time>2020-12-06T09:32:18.684000+00:00</time>
      </trkpt>
      <trkpt lat="0" lon="0">
        <time>2020-12-06T09:32:18.703000+00:00</time>
      </trkpt>
      <trkpt lat="0" lon="0">
        <time>2020-12-06T09:32:18.707000+00:00</time>
      </trkpt>
      <trkpt lat="0" lon="0">
        <time>2020-12-06T09:32:18.714000+00:00</time>
      </trkpt>
      <trkpt lat="47.35022" lon="-1.2767">
        <ele>22</ele>
        <time>2020-12-06T09:32:19.690000+00:00</time>
      </trkpt>
      <trkpt lat="0" lon="0">
        <time>2020-12-06T09:32:19.702000+00:00</time>
      </trkpt>
      <trkpt lat="0" lon="0">
        <time>2020-12-06T09:32:19.711000+00:00</time>
      </trkpt>
      <trkpt lat="0" lon="0">
        <time>2020-12-06T09:32:19.712000+00:00</time>
      </trkpt>
      <trkpt lat="47.35022" lon="-1.27674">
        <ele>22</ele>
        <time>2020-12-06T09:32:20.674000+00:00</time>
      </trkpt>
      <trkpt lat="0" lon="0">
        <time>2020-12-06T09:32:20.677000+00:00</time>
      </trkpt>
      <trkpt lat="0" lon="0">
        <time>2020-12-06T09:32:20.684000+00:00</time>
      </trkpt>
      <trkpt lat="0" lon="0">
        <time>2020-12-06T09:32:20.687000+00:00</time>
      </trkpt>
      <trkpt lat="47.35022" lon="-1.27677">
        <ele>22</ele>
        <time>2020-12-06T09:32:21.670000+00:00</time>
      </trkpt>
      <trkpt lat="0" lon="0">
        <time>2020-12-06T09:32:21.680000+00:00</time>
      </trkpt>
      <trkpt lat="0" lon="0">
        <time>2020-12-06T09:32:21.684000+00:00</time>
      </trkpt>
      <trkpt lat="0" lon="0">
        <time>2020-12-06T09:32:21.687000+00:00</time>
      </trkpt>
      <trkpt lat="47.35021" lon="-1.2768">
        <ele>22</ele>
        <time>2020-12-06T09:32:22.657000+00:00</time>
      </trkpt>
      <trkpt lat="0" lon="0">
        <time>2020-12-06T09:32:22.675000+00:00</time>
      </trkpt>
      <trkpt lat="0" lon="0">
        <time>2020-12-06T09:32:22.679000+00:00</time>
      </trkpt>
      <trkpt lat="0" lon="0">
        <time>2020-12-06T09:32:22.680000+00:00</time>
      </trkpt>
      <trkpt lat="47.35021" lon="-1.27683">
        <ele>22</ele>
        <time>2020-12-06T09:32:23.667000+00:00</time>
      </trkpt>
      <trkpt lat="0" lon="0">
        <time>2020-12-06T09:32:23.673000+00:00</time>
      </trkpt>
      <trkpt lat="0" lon="0">
        <time>2020-12-06T09:32:23.680000+00:00</time>
      </trkpt>
      <trkpt lat="0" lon="0">
        <time>2020-12-06T09:32:23.682000+00:00</time>
      </trkpt>
      <trkpt lat="47.35021" lon="-1.27686">
        <ele>22</ele>
        <time>2020-12-06T09:32:24.685000+00:00</time>
      </trkpt>
      <trkpt lat="0" lon="0">
        <time>2020-12-06T09:32:24.692000+00:00</time>
      </trkpt>
      <trkpt lat="0" lon="0">
        <time>2020-12-06T09:32:24.702000+00:00</time>
      </trkpt>
      <trkpt lat="0" lon="0">
        <time>2020-12-06T09:32:24.704000+00:00</time>
      </trkpt>
      <trkpt lat="47.35021" lon="-1.27688">
        <ele>22</ele>
        <time>2020-12-06T09:32:25.682000+00:00</time>
      </trkpt>
      <trkpt lat="0" lon="0">
        <time>2020-12-06T09:32:25.699000+00:00</time>
      </trkpt>
      <trkpt lat="0" lon="0">
        <time>2020-12-06T09:32:25.706000+00:00</time>
      </trkpt>
      <trkpt lat="0" lon="0">
        <time>2020-12-06T09:32:25.707000+00:00</time>
      </trkpt>
      <trkpt lat="47.35021" lon="-1.27691">
        <ele>22</ele>
        <time>2020-12-06T09:32:26.692000+00:00</time>
      </trkpt>
      <trkpt lat="0" lon="0">
        <time>2020-12-06T09:32:26.701000+00:00</time>
      </trkpt>
      <trkpt lat="0" lon="0">
        <time>2020-12-06T09:32:26.719000+00:00</time>
      </trkpt>
      <trkpt lat="0" lon="0">
        <time>2020-12-06T09:32:26.725000+00:00</time>
      </trkpt>
      <trkpt lat="47.35022" lon="-1.27693">
        <ele>22</ele>
        <time>2020-12-06T09:32:27.696000+00:00</time>
      </trkpt>
      <trkpt lat="0" lon="0">
        <time>2020-12-06T09:32:27.702000+00:00</time>
      </trkpt>
      <trkpt lat="0" lon="0">
        <time>2020-12-06T09:32:27.706000+00:00</time>
      </trkpt>
      <trkpt lat="0" lon="0">
        <time>2020-12-06T09:32:27.708000+00:00</time>
      </trkpt>
      <trkpt lat="47.35023" lon="-1.27696">
        <ele>22</ele>
        <time>2020-12-06T09:32:28.692000+00:00</time>
      </trkpt>
      <trkpt lat="0" lon="0">
        <time>2020-12-06T09:32:28.695000+00:00</time>
      </trkpt>
      <trkpt lat="0" lon="0">
        <time>2020-12-06T09:32:28.719000+00:00</time>
      </trkpt>
      <trkpt lat="0" lon="0">
        <time>2020-12-06T09:32:28.722000+00:00</time>
      </trkpt>
      <trkpt lat="47.35024" lon="-1.277">
        <ele>23</ele>
        <time>2020-12-06T09:32:29.630000+00:00</time>
      </trkpt>
      <trkpt lat="0" lon="0">
        <time>2020-12-06T09:32:29.646000+00:00</time>
      </trkpt>
      <trkpt lat="0" lon="0">
        <time>2020-12-06T09:32:29.654000+00:00</time>
      </trkpt>
      <trkpt lat="0" lon="0">
        <time>2020-12-06T09:32:29.656000+00:00</time>
      </trkpt>
      <trkpt lat="47.35025" lon="-1.27704">
        <ele>23</ele>
        <time>2020-12-06T09:32:30.693000+00:00</time>
      </trkpt>
      <trkpt lat="0" lon="0">
        <time>2020-12-06T09:32:30.696000+00:00</time>
      </trkpt>
      <trkpt lat="0" lon="0">
        <time>2020-12-06T09:32:30.699000+00:00</time>
      </trkpt>
      <trkpt lat="0" lon="0">
        <time>2020-12-06T09:32:30.702000+00:00</time>
      </trkpt>
      <trkpt lat="47.35026" lon="-1.27708">
        <ele>23</ele>
        <time>2020-12-06T09:32:31.711000+00:00</time>
      </trkpt>
      <trkpt lat="0" lon="0">
        <time>2020-12-06T09:32:31.714000+00:00</time>
      </trkpt>
      <trkpt lat="0" lon="0">
        <time>2020-12-06T09:32:31.719000+00:00</time>
      </trkpt>
      <trkpt lat="0" lon="0">
        <time>2020-12-06T09:32:31.722000+00:00</time>
      </trkpt>
      <trkpt lat="47.35028" lon="-1.27712">
        <ele>23</ele>
        <time>2020-12-06T09:32:32.694000+00:00</time>
      </trkpt>
      <trkpt lat="0" lon="0">
        <time>2020-12-06T09:32:32.706000+00:00</time>
      </trkpt>
      <trkpt lat="0" lon="0">
        <time>2020-12-06T09:32:32.710000+00:00</time>
      </trkpt>
      <trkpt lat="0" lon="0">
        <time>2020-12-06T09:32:32.713000+00:00</time>
      </trkpt>
      <trkpt lat="47.3503" lon="-1.27717">
        <ele>23</ele>
        <time>2020-12-06T09:32:33.645000+00:00</time>
      </trkpt>
      <trkpt lat="0" lon="0">
        <time>2020-12-06T09:32:33.648000+00:00</time>
      </trkpt>
      <trkpt lat="0" lon="0">
        <time>2020-12-06T09:32:33.656000+00:00</time>
      </trkpt>
      <trkpt lat="0" lon="0">
        <time>2020-12-06T09:32:33.657000+00:00</time>
      </trkpt>
      <trkpt lat="47.35033" lon="-1.2772">
        <ele>24</ele>
        <time>2020-12-06T09:32:34.674000+00:00</time>
      </trkpt>
      <trkpt lat="0" lon="0">
        <time>2020-12-06T09:32:34.682000+00:00</time>
      </trkpt>
      <trkpt lat="0" lon="0">
        <time>2020-12-06T09:32:34.691000+00:00</time>
      </trkpt>
      <trkpt lat="0" lon="0">
        <time>2020-12-06T09:32:34.693000+00:00</time>
      </trkpt>
      <trkpt lat="47.35036" lon="-1.27723">
        <ele>24</ele>
        <time>2020-12-06T09:32:35.659000+00:00</time>
      </trkpt>
      <trkpt lat="0" lon="0">
        <time>2020-12-06T09:32:35.671000+00:00</time>
      </trkpt>
      <trkpt lat="0" lon="0">
        <time>2020-12-06T09:32:35.677000+00:00</time>
      </trkpt>
      <trkpt lat="0" lon="0">
        <time>2020-12-06T09:32:35.680000+00:00</time>
      </trkpt>
      <trkpt lat="47.3504" lon="-1.27725">
        <ele>24</ele>
        <time>2020-12-06T09:32:36.607000+00:00</time>
      </trkpt>
      <trkpt lat="0" lon="0">
        <time>2020-12-06T09:32:36.614000+00:00</time>
      </trkpt>
      <trkpt lat="0" lon="0">
        <time>2020-12-06T09:32:36.616000+00:00</time>
      </trkpt>
      <trkpt lat="0" lon="0">
        <time>2020-12-06T09:32:36.619000+00:00</time>
      </trkpt>
      <trkpt lat="47.35044" lon="-1.27727">
        <ele>25</ele>
        <time>2020-12-06T09:32:37.741000+00:00</time>
      </trkpt>
      <trkpt lat="0" lon="0">
        <time>2020-12-06T09:32:37.749000+00:00</time>
      </trkpt>
      <trkpt lat="0" lon="0">
        <time>2020-12-06T09:32:37.753000+00:00</time>
      </trkpt>
      <trkpt lat="0" lon="0">
        <time>2020-12-06T09:32:37.756000+00:00</time>
      </trkpt>
      <trkpt lat="47.35048" lon="-1.27729">
        <ele>25</ele>
        <time>2020-12-06T09:32:38.713000+00:00</time>
      </trkpt>
      <trkpt lat="0" lon="0">
        <time>2020-12-06T09:32:38.717000+00:00</time>
      </trkpt>
      <trkpt lat="0" lon="0">
        <time>2020-12-06T09:32:38.725000+00:00</time>
      </trkpt>
      <trkpt lat="0" lon="0">
        <time>2020-12-06T09:32:38.733000+00:00</time>
      </trkpt>
      <trkpt lat="47.35052" lon="-1.2773">
        <ele>25</ele>
        <time>2020-12-06T09:32:39.741000+00:00</time>
      </trkpt>
      <trkpt lat="0" lon="0">
        <time>2020-12-06T09:32:39.746000+00:00</time>
      </trkpt>
      <trkpt lat="0" lon="0">
        <time>2020-12-06T09:32:39.749000+00:00</time>
      </trkpt>
      <trkpt lat="0" lon="0">
        <time>2020-12-06T09:32:39.755000+00:00</time>
      </trkpt>
      <trkpt lat="47.35057" lon="-1.27731">
        <ele>26</ele>
        <time>2020-12-06T09:32:40.638000+00:00</time>
      </trkpt>
      <trkpt lat="0" lon="0">
        <time>2020-12-06T09:32:40.640000+00:00</time>
      </trkpt>
      <trkpt lat="0" lon="0">
        <time>2020-12-06T09:32:40.643000+00:00</time>
      </trkpt>
      <trkpt lat="0" lon="0">
        <time>2020-12-06T09:32:40.645000+00:00</time>
      </trkpt>
      <trkpt lat="47.35061" lon="-1.27732">
        <ele>26</ele>
        <time>2020-12-06T09:32:41.672000+00:00</time>
      </trkpt>
      <trkpt lat="0" lon="0">
        <time>2020-12-06T09:32:41.676000+00:00</time>
      </trkpt>
      <trkpt lat="0" lon="0">
        <time>2020-12-06T09:32:41.684000+00:00</time>
      </trkpt>
      <trkpt lat="0" lon="0">
        <time>2020-12-06T09:32:41.686000+00:00</time>
      </trkpt>
      <trkpt lat="47.35065" lon="-1.27733">
        <ele>26</ele>
        <time>2020-12-06T09:32:42.666000+00:00</time>
      </trkpt>
      <trkpt lat="0" lon="0">
        <time>2020-12-06T09:32:42.674000+00:00</time>
      </trkpt>
      <trkpt lat="0" lon="0">
        <time>2020-12-06T09:32:42.682000+00:00</time>
      </trkpt>
      <trkpt lat="0" lon="0">
        <time>2020-12-06T09:32:42.684000+00:00</time>
      </trkpt>
      <trkpt lat="47.3507" lon="-1.27733">
        <ele>27</ele>
        <time>2020-12-06T09:32:43.679000+00:00</time>
      </trkpt>
      <trkpt lat="0" lon="0">
        <time>2020-12-06T09:32:43.695000+00:00</time>
      </trkpt>
      <trkpt lat="0" lon="0">
        <time>2020-12-06T09:32:43.704000+00:00</time>
      </trkpt>
      <trkpt lat="0" lon="0">
        <time>2020-12-06T09:32:43.706000+00:00</time>
      </trkpt>
      <trkpt lat="47.35074" lon="-1.27733">
        <ele>27</ele>
        <time>2020-12-06T09:32:44.659000+00:00</time>
      </trkpt>
      <trkpt lat="0" lon="0">
        <time>2020-12-06T09:32:44.670000+00:00</time>
      </trkpt>
      <trkpt lat="0" lon="0">
        <time>2020-12-06T09:32:44.674000+00:00</time>
      </trkpt>
      <trkpt lat="0" lon="0">
        <time>2020-12-06T09:32:44.676000+00:00</time>
      </trkpt>
      <trkpt lat="47.35078" lon="-1.27733">
        <ele>28</ele>
        <time>2020-12-06T09:32:45.683000+00:00</time>
      </trkpt>
      <trkpt lat="0" lon="0">
        <time>2020-12-06T09:32:45.689000+00:00</time>
      </trkpt>
      <trkpt lat="0" lon="0">
        <time>2020-12-06T09:32:45.694000+00:00</time>
      </trkpt>
      <trkpt lat="0" lon="0">
        <time>2020-12-06T09:32:45.703000+00:00</time>
      </trkpt>
      <trkpt lat="47.35083" lon="-1.27733">
        <ele>28</ele>
        <time>2020-12-06T09:32:46.671000+00:00</time>
      </trkpt>
      <trkpt lat="0" lon="0">
        <time>2020-12-06T09:32:46.683000+00:00</time>
      </trkpt>
      <trkpt lat="0" lon="0">
        <time>2020-12-06T09:32:46.687000+00:00</time>
      </trkpt>
      <trkpt lat="0" lon="0">
        <time>2020-12-06T09:32:46.689000+00:00</time>
      </trkpt>
      <trkpt lat="47.35087" lon="-1.27733">
        <ele>28</ele>
        <time>2020-12-06T09:32:47.616000+00:00</time>
      </trkpt>
      <trkpt lat="0" lon="0">
        <time>2020-12-06T09:32:47.619000+00:00</time>
      </trkpt>
      <trkpt lat="0" lon="0">
        <time>2020-12-06T09:32:47.627000+00:00</time>
      </trkpt>
      <trkpt lat="0" lon="0">
        <time>2020-12-06T09:32:47.629000+00:00</time>
      </trkpt>
      <trkpt lat="47.3509" lon="-1.27732">
        <ele>28</ele>
        <time>2020-12-06T09:32:48.628000+00:00</time>
      </trkpt>
      <trkpt lat="0" lon="0">
        <time>2020-12-06T09:32:48.630000+00:00</time>
      </trkpt>
      <trkpt lat="0" lon="0">
        <time>2020-12-06T09:32:48.632000+00:00</time>
      </trkpt>
      <trkpt lat="0" lon="0">
        <time>2020-12-06T09:32:48.633000+00:00</time>
      </trkpt>
      <trkpt lat="47.35094" lon="-1.27732">
        <ele>28</ele>
        <time>2020-12-06T09:32:49.647000+00:00</time>
      </trkpt>
      <trkpt lat="0" lon="0">
        <time>2020-12-06T09:32:49.651000+00:00</time>
      </trkpt>
      <trkpt lat="0" lon="0">
        <time>2020-12-06T09:32:49.655000+00:00</time>
      </trkpt>
      <trkpt lat="0" lon="0">
        <time>2020-12-06T09:32:49.658000+00:00</time>
      </trkpt>
      <trkpt lat="47.35098" lon="-1.27732">
        <ele>29</ele>
        <time>2020-12-06T09:32:50.660000+00:00</time>
      </trkpt>
      <trkpt lat="0" lon="0">
        <time>2020-12-06T09:32:50.663000+00:00</time>
      </trkpt>
      <trkpt lat="0" lon="0">
        <time>2020-12-06T09:32:50.671000+00:00</time>
      </trkpt>
      <trkpt lat="0" lon="0">
        <time>2020-12-06T09:32:50.679000+00:00</time>
      </trkpt>
      <trkpt lat="47.35101" lon="-1.27731">
        <ele>29</ele>
        <time>2020-12-06T09:32:51.674000+00:00</time>
      </trkpt>
      <trkpt lat="0" lon="0">
        <time>2020-12-06T09:32:51.686000+00:00</time>
      </trkpt>
      <trkpt lat="0" lon="0">
        <time>2020-12-06T09:32:51.690000+00:00</time>
      </trkpt>
      <trkpt lat="0" lon="0">
        <time>2020-12-06T09:32:51.693000+00:00</time>
      </trkpt>
      <trkpt lat="47.35105" lon="-1.27731">
        <ele>29</ele>
        <time>2020-12-06T09:32:52.663000+00:00</time>
      </trkpt>
      <trkpt lat="0" lon="0">
        <time>2020-12-06T09:32:52.672000+00:00</time>
      </trkpt>
      <trkpt lat="0" lon="0">
        <time>2020-12-06T09:32:52.676000+00:00</time>
      </trkpt>
      <trkpt lat="0" lon="0">
        <time>2020-12-06T09:32:52.681000+00:00</time>
      </trkpt>
      <trkpt lat="47.35108" lon="-1.27731">
        <ele>29</ele>
        <time>2020-12-06T09:32:53.675000+00:00</time>
      </trkpt>
      <trkpt lat="0" lon="0">
        <time>2020-12-06T09:32:53.689000+00:00</time>
      </trkpt>
      <trkpt lat="0" lon="0">
        <time>2020-12-06T09:32:53.697000+00:00</time>
      </trkpt>
      <trkpt lat="0" lon="0">
        <time>2020-12-06T09:32:53.700000+00:00</time>
      </trkpt>
      <trkpt lat="47.3511" lon="-1.27731">
        <ele>29</ele>
        <time>2020-12-06T09:32:54.670000+00:00</time>
      </trkpt>
      <trkpt lat="0" lon="0">
        <time>2020-12-06T09:32:54.674000+00:00</time>
      </trkpt>
      <trkpt lat="0" lon="0">
        <time>2020-12-06T09:32:54.678000+00:00</time>
      </trkpt>
      <trkpt lat="0" lon="0">
        <time>2020-12-06T09:32:54.682000+00:00</time>
      </trkpt>
      <trkpt lat="47.35113" lon="-1.2773">
        <ele>29</ele>
        <time>2020-12-06T09:32:55.638000+00:00</time>
      </trkpt>
      <trkpt lat="0" lon="0">
        <time>2020-12-06T09:32:55.639000+00:00</time>
      </trkpt>
      <trkpt lat="0" lon="0">
        <time>2020-12-06T09:32:55.641000+00:00</time>
      </trkpt>
      <trkpt lat="0" lon="0">
        <time>2020-12-06T09:32:55.642000+00:00</time>
      </trkpt>
      <trkpt lat="47.35115" lon="-1.2773">
        <ele>30</ele>
        <time>2020-12-06T09:32:56.640000+00:00</time>
      </trkpt>
      <trkpt lat="0" lon="0">
        <time>2020-12-06T09:32:56.645000+00:00</time>
      </trkpt>
      <trkpt lat="0" lon="0">
        <time>2020-12-06T09:32:56.661000+00:00</time>
      </trkpt>
      <trkpt lat="0" lon="0">
        <time>2020-12-06T09:32:56.663000+00:00</time>
      </trkpt>
      <trkpt lat="47.35117" lon="-1.2773">
        <ele>30</ele>
        <time>2020-12-06T09:32:57.599000+00:00</time>
      </trkpt>
      <trkpt lat="0" lon="0">
        <time>2020-12-06T09:32:57.612000+00:00</time>
      </trkpt>
      <trkpt lat="0" lon="0">
        <time>2020-12-06T09:32:57.616000+00:00</time>
      </trkpt>
      <trkpt lat="0" lon="0">
        <time>2020-12-06T09:32:57.622000+00:00</time>
      </trkpt>
      <trkpt lat="47.35119" lon="-1.2773">
        <ele>30</ele>
        <time>2020-12-06T09:32:58.655000+00:00</time>
      </trkpt>
      <trkpt lat="0" lon="0">
        <time>2020-12-06T09:32:58.667000+00:00</time>
      </trkpt>
      <trkpt lat="0" lon="0">
        <time>2020-12-06T09:32:58.670000+00:00</time>
      </trkpt>
      <trkpt lat="47.35121" lon="-1.2773">
        <ele>30</ele>
        <time>2020-12-06T09:32:59.715000+00:00</time>
      </trkpt>
      <trkpt lat="0" lon="0">
        <time>2020-12-06T09:32:59.721000+00:00</time>
      </trkpt>
      <trkpt lat="0" lon="0">
        <time>2020-12-06T09:32:59.725000+00:00</time>
      </trkpt>
      <trkpt lat="0" lon="0">
        <time>2020-12-06T09:32:59.732000+00:00</time>
      </trkpt>
      <trkpt lat="47.35123" lon="-1.27729">
        <ele>30</ele>
        <time>2020-12-06T09:33:00.671000+00:00</time>
      </trkpt>
      <trkpt lat="0" lon="0">
        <time>2020-12-06T09:33:00.676000+00:00</time>
      </trkpt>
      <trkpt lat="0" lon="0">
        <time>2020-12-06T09:33:00.679000+00:00</time>
      </trkpt>
      <trkpt lat="0" lon="0">
        <time>2020-12-06T09:33:00.681000+00:00</time>
      </trkpt>
      <trkpt lat="47.35125" lon="-1.27729">
        <ele>30</ele>
        <time>2020-12-06T09:33:01.645000+00:00</time>
      </trkpt>
      <trkpt lat="0" lon="0">
        <time>2020-12-06T09:33:01.658000+00:00</time>
      </trkpt>
      <trkpt lat="0" lon="0">
        <time>2020-12-06T09:33:01.662000+00:00</time>
      </trkpt>
      <trkpt lat="0" lon="0">
        <time>2020-12-06T09:33:01.664000+00:00</time>
      </trkpt>
      <trkpt lat="47.35127" lon="-1.27729">
        <ele>30</ele>
        <time>2020-12-06T09:33:02.628000+00:00</time>
      </trkpt>
      <trkpt lat="0" lon="0">
        <time>2020-12-06T09:33:02.631000+00:00</time>
      </trkpt>
      <trkpt lat="0" lon="0">
        <time>2020-12-06T09:33:02.637000+00:00</time>
      </trkpt>
      <trkpt lat="0" lon="0">
        <time>2020-12-06T09:33:02.641000+00:00</time>
      </trkpt>
      <trkpt lat="47.35129" lon="-1.27729">
        <ele>30</ele>
        <time>2020-12-06T09:33:03.654000+00:00</time>
      </trkpt>
      <trkpt lat="0" lon="0">
        <time>2020-12-06T09:33:03.660000+00:00</time>
      </trkpt>
      <trkpt lat="0" lon="0">
        <time>2020-12-06T09:33:03.676000+00:00</time>
      </trkpt>
      <trkpt lat="0" lon="0">
        <time>2020-12-06T09:33:03.679000+00:00</time>
      </trkpt>
      <trkpt lat="47.35131" lon="-1.27728">
        <ele>30</ele>
        <time>2020-12-06T09:33:04.636000+00:00</time>
      </trkpt>
      <trkpt lat="0" lon="0">
        <time>2020-12-06T09:33:04.641000+00:00</time>
      </trkpt>
      <trkpt lat="0" lon="0">
        <time>2020-12-06T09:33:04.642000+00:00</time>
      </trkpt>
      <trkpt lat="0" lon="0">
        <time>2020-12-06T09:33:04.643000+00:00</time>
      </trkpt>
      <trkpt lat="47.35132" lon="-1.27728">
        <ele>30</ele>
        <time>2020-12-06T09:33:05.703000+00:00</time>
      </trkpt>
      <trkpt lat="0" lon="0">
        <time>2020-12-06T09:33:05.717000+00:00</time>
      </trkpt>
      <trkpt lat="0" lon="0">
        <time>2020-12-06T09:33:05.721000+00:00</time>
      </trkpt>
      <trkpt lat="0" lon="0">
        <time>2020-12-06T09:33:05.728000+00:00</time>
      </trkpt>
      <trkpt lat="47.35134" lon="-1.27729">
        <ele>30</ele>
        <time>2020-12-06T09:33:06.671000+00:00</time>
      </trkpt>
      <trkpt lat="0" lon="0">
        <time>2020-12-06T09:33:06.675000+00:00</time>
      </trkpt>
      <trkpt lat="0" lon="0">
        <time>2020-12-06T09:33:06.682000+00:00</time>
      </trkpt>
      <trkpt lat="0" lon="0">
        <time>2020-12-06T09:33:06.684000+00:00</time>
      </trkpt>
      <trkpt lat="47.35136" lon="-1.27729">
        <ele>31</ele>
        <time>2020-12-06T09:33:07.661000+00:00</time>
      </trkpt>
      <trkpt lat="0" lon="0">
        <time>2020-12-06T09:33:07.674000+00:00</time>
      </trkpt>
      <trkpt lat="0" lon="0">
        <time>2020-12-06T09:33:07.677000+00:00</time>
      </trkpt>
      <trkpt lat="0" lon="0">
        <time>2020-12-06T09:33:07.679000+00:00</time>
      </trkpt>
      <trkpt lat="47.35138" lon="-1.27729">
        <ele>31</ele>
        <time>2020-12-06T09:33:08.728000+00:00</time>
      </trkpt>
      <trkpt lat="0" lon="0">
        <time>2020-12-06T09:33:08.732000+00:00</time>
      </trkpt>
      <trkpt lat="0" lon="0">
        <time>2020-12-06T09:33:08.735000+00:00</time>
      </trkpt>
      <trkpt lat="0" lon="0">
        <time>2020-12-06T09:33:08.737000+00:00</time>
      </trkpt>
      <trkpt lat="47.3514" lon="-1.27729">
        <ele>31</ele>
        <time>2020-12-06T09:33:09.676000+00:00</time>
      </trkpt>
      <trkpt lat="0" lon="0">
        <time>2020-12-06T09:33:09.691000+00:00</time>
      </trkpt>
      <trkpt lat="0" lon="0">
        <time>2020-12-06T09:33:09.695000+00:00</time>
      </trkpt>
      <trkpt lat="0" lon="0">
        <time>2020-12-06T09:33:09.697000+00:00</time>
      </trkpt>
      <trkpt lat="47.35142" lon="-1.27729">
        <ele>31</ele>
        <time>2020-12-06T09:33:10.643000+00:00</time>
      </trkpt>
      <trkpt lat="0" lon="0">
        <time>2020-12-06T09:33:10.645000+00:00</time>
      </trkpt>
      <trkpt lat="0" lon="0">
        <time>2020-12-06T09:33:10.649000+00:00</time>
      </trkpt>
      <trkpt lat="0" lon="0">
        <time>2020-12-06T09:33:10.650000+00:00</time>
      </trkpt>
      <trkpt lat="47.35144" lon="-1.2773">
        <ele>31</ele>
        <time>2020-12-06T09:33:11.624000+00:00</time>
      </trkpt>
      <trkpt lat="0" lon="0">
        <time>2020-12-06T09:33:11.628000+00:00</time>
      </trkpt>
      <trkpt lat="0" lon="0">
        <time>2020-12-06T09:33:11.629000+00:00</time>
      </trkpt>
      <trkpt lat="0" lon="0">
        <time>2020-12-06T09:33:11.630000+00:00</time>
      </trkpt>
      <trkpt lat="47.35146" lon="-1.27731">
        <ele>31</ele>
        <time>2020-12-06T09:33:12.646000+00:00</time>
      </trkpt>
      <trkpt lat="0" lon="0">
        <time>2020-12-06T09:33:12.652000+00:00</time>
      </trkpt>
      <trkpt lat="0" lon="0">
        <time>2020-12-06T09:33:12.658000+00:00</time>
      </trkpt>
      <trkpt lat="0" lon="0">
        <time>2020-12-06T09:33:12.661000+00:00</time>
      </trkpt>
      <trkpt lat="47.35147" lon="-1.27732">
        <ele>31</ele>
        <time>2020-12-06T09:33:13.652000+00:00</time>
      </trkpt>
      <trkpt lat="0" lon="0">
        <time>2020-12-06T09:33:13.672000+00:00</time>
      </trkpt>
      <trkpt lat="0" lon="0">
        <time>2020-12-06T09:33:13.676000+00:00</time>
      </trkpt>
      <trkpt lat="0" lon="0">
        <time>2020-12-06T09:33:13.678000+00:00</time>
      </trkpt>
      <trkpt lat="47.35149" lon="-1.27734">
        <ele>31</ele>
        <time>2020-12-06T09:33:14.640000+00:00</time>
      </trkpt>
      <trkpt lat="0" lon="0">
        <time>2020-12-06T09:33:14.650000+00:00</time>
      </trkpt>
      <trkpt lat="0" lon="0">
        <time>2020-12-06T09:33:14.656000+00:00</time>
      </trkpt>
      <trkpt lat="0" lon="0">
        <time>2020-12-06T09:33:14.660000+00:00</time>
      </trkpt>
      <trkpt lat="47.35149" lon="-1.27737">
        <ele>31</ele>
        <time>2020-12-06T09:33:15.664000+00:00</time>
      </trkpt>
      <trkpt lat="0" lon="0">
        <time>2020-12-06T09:33:15.669000+00:00</time>
      </trkpt>
      <trkpt lat="0" lon="0">
        <time>2020-12-06T09:33:15.674000+00:00</time>
      </trkpt>
      <trkpt lat="0" lon="0">
        <time>2020-12-06T09:33:15.675000+00:00</time>
      </trkpt>
      <trkpt lat="47.3515" lon="-1.27741">
        <ele>32</ele>
        <time>2020-12-06T09:33:16.657000+00:00</time>
      </trkpt>
      <trkpt lat="0" lon="0">
        <time>2020-12-06T09:33:16.659000+00:00</time>
      </trkpt>
      <trkpt lat="0" lon="0">
        <time>2020-12-06T09:33:16.661000+00:00</time>
      </trkpt>
      <trkpt lat="0" lon="0">
        <time>2020-12-06T09:33:16.662000+00:00</time>
      </trkpt>
      <trkpt lat="47.3515" lon="-1.27744">
        <ele>32</ele>
        <time>2020-12-06T09:33:17.636000+00:00</time>
      </trkpt>
      <trkpt lat="0" lon="0">
        <time>2020-12-06T09:33:17.648000+00:00</time>
      </trkpt>
      <trkpt lat="0" lon="0">
        <time>2020-12-06T09:33:17.659000+00:00</time>
      </trkpt>
      <trkpt lat="0" lon="0">
        <time>2020-12-06T09:33:17.663000+00:00</time>
      </trkpt>
      <trkpt lat="47.3515" lon="-1.27748">
        <ele>32</ele>
        <time>2020-12-06T09:33:18.640000+00:00</time>
      </trkpt>
      <trkpt lat="0" lon="0">
        <time>2020-12-06T09:33:18.658000+00:00</time>
      </trkpt>
      <trkpt lat="0" lon="0">
        <time>2020-12-06T09:33:18.668000+00:00</time>
      </trkpt>
      <trkpt lat="0" lon="0">
        <time>2020-12-06T09:33:18.670000+00:00</time>
      </trkpt>
      <trkpt lat="47.3515" lon="-1.27753">
        <ele>32</ele>
        <time>2020-12-06T09:33:19.640000+00:00</time>
      </trkpt>
      <trkpt lat="0" lon="0">
        <time>2020-12-06T09:33:19.661000+00:00</time>
      </trkpt>
      <trkpt lat="0" lon="0">
        <time>2020-12-06T09:33:19.668000+00:00</time>
      </trkpt>
      <trkpt lat="0" lon="0">
        <time>2020-12-06T09:33:19.671000+00:00</time>
      </trkpt>
      <trkpt lat="47.3515" lon="-1.27757">
        <ele>32</ele>
        <time>2020-12-06T09:33:20.630000+00:00</time>
      </trkpt>
      <trkpt lat="0" lon="0">
        <time>2020-12-06T09:33:20.643000+00:00</time>
      </trkpt>
      <trkpt lat="0" lon="0">
        <time>2020-12-06T09:33:20.645000+00:00</time>
      </trkpt>
      <trkpt lat="0" lon="0">
        <time>2020-12-06T09:33:20.646000+00:00</time>
      </trkpt>
      <trkpt lat="47.35149" lon="-1.27762">
        <ele>32</ele>
        <time>2020-12-06T09:33:21.667000+00:00</time>
      </trkpt>
      <trkpt lat="0" lon="0">
        <time>2020-12-06T09:33:21.677000+00:00</time>
      </trkpt>
      <trkpt lat="0" lon="0">
        <time>2020-12-06T09:33:21.684000+00:00</time>
      </trkpt>
      <trkpt lat="0" lon="0">
        <time>2020-12-06T09:33:21.686000+00:00</time>
      </trkpt>
      <trkpt lat="47.35148" lon="-1.27767">
        <ele>32</ele>
        <time>2020-12-06T09:33:22.659000+00:00</time>
      </trkpt>
      <trkpt lat="0" lon="0">
        <time>2020-12-06T09:33:22.663000+00:00</time>
      </trkpt>
      <trkpt lat="0" lon="0">
        <time>2020-12-06T09:33:22.664000+00:00</time>
      </trkpt>
      <trkpt lat="0" lon="0">
        <time>2020-12-06T09:33:22.670000+00:00</time>
      </trkpt>
      <trkpt lat="47.35147" lon="-1.27772">
        <ele>32</ele>
        <time>2020-12-06T09:33:23.629000+00:00</time>
      </trkpt>
      <trkpt lat="0" lon="0">
        <time>2020-12-06T09:33:23.639000+00:00</time>
      </trkpt>
      <trkpt lat="0" lon="0">
        <time>2020-12-06T09:33:23.644000+00:00</time>
      </trkpt>
      <trkpt lat="0" lon="0">
        <time>2020-12-06T09:33:23.646000+00:00</time>
      </trkpt>
      <trkpt lat="47.35147" lon="-1.27777">
        <ele>32</ele>
        <time>2020-12-06T09:33:24.598000+00:00</time>
      </trkpt>
      <trkpt lat="0" lon="0">
        <time>2020-12-06T09:33:24.601000+00:00</time>
      </trkpt>
      <trkpt lat="0" lon="0">
        <time>2020-12-06T09:33:24.604000+00:00</time>
      </trkpt>
      <trkpt lat="0" lon="0">
        <time>2020-12-06T09:33:24.607000+00:00</time>
      </trkpt>
      <trkpt lat="47.35146" lon="-1.27783">
        <ele>33</ele>
        <time>2020-12-06T09:33:25.632000+00:00</time>
      </trkpt>
      <trkpt lat="0" lon="0">
        <time>2020-12-06T09:33:25.645000+00:00</time>
      </trkpt>
      <trkpt lat="0" lon="0">
        <time>2020-12-06T09:33:25.649000+00:00</time>
      </trkpt>
      <trkpt lat="0" lon="0">
        <time>2020-12-06T09:33:25.651000+00:00</time>
      </trkpt>
      <trkpt lat="47.35145" lon="-1.27788">
        <ele>33</ele>
        <time>2020-12-06T09:33:26.632000+00:00</time>
      </trkpt>
      <trkpt lat="0" lon="0">
        <time>2020-12-06T09:33:26.643000+00:00</time>
      </trkpt>
      <trkpt lat="0" lon="0">
        <time>2020-12-06T09:33:26.646000+00:00</time>
      </trkpt>
      <trkpt lat="0" lon="0">
        <time>2020-12-06T09:33:26.650000+00:00</time>
      </trkpt>
      <trkpt lat="47.35145" lon="-1.27793">
        <ele>33</ele>
        <time>2020-12-06T09:33:27.627000+00:00</time>
      </trkpt>
      <trkpt lat="0" lon="0">
        <time>2020-12-06T09:33:27.635000+00:00</time>
      </trkpt>
      <trkpt lat="0" lon="0">
        <time>2020-12-06T09:33:27.644000+00:00</time>
      </trkpt>
      <trkpt lat="0" lon="0">
        <time>2020-12-06T09:33:27.645000+00:00</time>
      </trkpt>
      <trkpt lat="47.35144" lon="-1.27798">
        <ele>33</ele>
        <time>2020-12-06T09:33:28.669000+00:00</time>
      </trkpt>
      <trkpt lat="0" lon="0">
        <time>2020-12-06T09:33:28.678000+00:00</time>
      </trkpt>
      <trkpt lat="0" lon="0">
        <time>2020-12-06T09:33:28.679000+00:00</time>
      </trkpt>
      <trkpt lat="47.35144" lon="-1.27804">
        <ele>33</ele>
        <time>2020-12-06T09:33:29.644000+00:00</time>
      </trkpt>
      <trkpt lat="0" lon="0">
        <time>2020-12-06T09:33:29.656000+00:00</time>
      </trkpt>
      <trkpt lat="0" lon="0">
        <time>2020-12-06T09:33:29.660000+00:00</time>
      </trkpt>
      <trkpt lat="0" lon="0">
        <time>2020-12-06T09:33:29.662000+00:00</time>
      </trkpt>
      <trkpt lat="47.35144" lon="-1.27809">
        <ele>33</ele>
        <time>2020-12-06T09:33:30.638000+00:00</time>
      </trkpt>
      <trkpt lat="0" lon="0">
        <time>2020-12-06T09:33:30.656000+00:00</time>
      </trkpt>
      <trkpt lat="0" lon="0">
        <time>2020-12-06T09:33:30.666000+00:00</time>
      </trkpt>
      <trkpt lat="0" lon="0">
        <time>2020-12-06T09:33:30.669000+00:00</time>
      </trkpt>
      <trkpt lat="47.35144" lon="-1.27814">
        <ele>34</ele>
        <time>2020-12-06T09:33:31.642000+00:00</time>
      </trkpt>
      <trkpt lat="0" lon="0">
        <time>2020-12-06T09:33:31.658000+00:00</time>
      </trkpt>
      <trkpt lat="0" lon="0">
        <time>2020-12-06T09:33:31.660000+00:00</time>
      </trkpt>
      <trkpt lat="47.35144" lon="-1.27819">
        <ele>34</ele>
        <time>2020-12-06T09:33:32.650000+00:00</time>
      </trkpt>
      <trkpt lat="0" lon="0">
        <time>2020-12-06T09:33:32.658000+00:00</time>
      </trkpt>
      <trkpt lat="0" lon="0">
        <time>2020-12-06T09:33:32.660000+00:00</time>
      </trkpt>
      <trkpt lat="0" lon="0">
        <time>2020-12-06T09:33:32.662000+00:00</time>
      </trkpt>
      <trkpt lat="47.35144" lon="-1.27824">
        <ele>34</ele>
        <time>2020-12-06T09:33:33.639000+00:00</time>
      </trkpt>
      <trkpt lat="0" lon="0">
        <time>2020-12-06T09:33:33.642000+00:00</time>
      </trkpt>
      <trkpt lat="0" lon="0">
        <time>2020-12-06T09:33:33.648000+00:00</time>
      </trkpt>
      <trkpt lat="0" lon="0">
        <time>2020-12-06T09:33:33.650000+00:00</time>
      </trkpt>
      <trkpt lat="47.35145" lon="-1.27829">
        <ele>34</ele>
        <time>2020-12-06T09:33:34.624000+00:00</time>
      </trkpt>
      <trkpt lat="0" lon="0">
        <time>2020-12-06T09:33:34.628000+00:00</time>
      </trkpt>
      <trkpt lat="0" lon="0">
        <time>2020-12-06T09:33:34.631000+00:00</time>
      </trkpt>
      <trkpt lat="0" lon="0">
        <time>2020-12-06T09:33:34.632000+00:00</time>
      </trkpt>
      <trkpt lat="47.35145" lon="-1.27834">
        <ele>34</ele>
        <time>2020-12-06T09:33:35.647000+00:00</time>
      </trkpt>
      <trkpt lat="0" lon="0">
        <time>2020-12-06T09:33:35.656000+00:00</time>
      </trkpt>
      <trkpt lat="0" lon="0">
        <time>2020-12-06T09:33:35.659000+00:00</time>
      </trkpt>
      <trkpt lat="0" lon="0">
        <time>2020-12-06T09:33:35.662000+00:00</time>
      </trkpt>
      <trkpt lat="47.35145" lon="-1.27839">
        <ele>34</ele>
        <time>2020-12-06T09:33:36.642000+00:00</time>
      </trkpt>
      <trkpt lat="0" lon="0">
        <time>2020-12-06T09:33:36.658000+00:00</time>
      </trkpt>
      <trkpt lat="0" lon="0">
        <time>2020-12-06T09:33:36.661000+00:00</time>
      </trkpt>
      <trkpt lat="0" lon="0">
        <time>2020-12-06T09:33:36.663000+00:00</time>
      </trkpt>
      <trkpt lat="47.35146" lon="-1.27844">
        <ele>35</ele>
        <time>2020-12-06T09:33:37.640000+00:00</time>
      </trkpt>
      <trkpt lat="0" lon="0">
        <time>2020-12-06T09:33:37.648000+00:00</time>
      </trkpt>
      <trkpt lat="0" lon="0">
        <time>2020-12-06T09:33:37.657000+00:00</time>
      </trkpt>
      <trkpt lat="0" lon="0">
        <time>2020-12-06T09:33:37.664000+00:00</time>
      </trkpt>
      <trkpt lat="47.35146" lon="-1.27848">
        <ele>35</ele>
        <time>2020-12-06T09:33:38.654000+00:00</time>
      </trkpt>
      <trkpt lat="0" lon="0">
        <time>2020-12-06T09:33:38.655000+00:00</time>
      </trkpt>
      <trkpt lat="0" lon="0">
        <time>2020-12-06T09:33:38.658000+00:00</time>
      </trkpt>
      <trkpt lat="0" lon="0">
        <time>2020-12-06T09:33:38.659000+00:00</time>
      </trkpt>
      <trkpt lat="47.35147" lon="-1.27853">
        <ele>35</ele>
        <time>2020-12-06T09:33:39.648000+00:00</time>
      </trkpt>
      <trkpt lat="0" lon="0">
        <time>2020-12-06T09:33:39.652000+00:00</time>
      </trkpt>
      <trkpt lat="0" lon="0">
        <time>2020-12-06T09:33:39.658000+00:00</time>
      </trkpt>
      <trkpt lat="0" lon="0">
        <time>2020-12-06T09:33:39.659000+00:00</time>
      </trkpt>
      <trkpt lat="47.35147" lon="-1.27858">
        <ele>35</ele>
        <time>2020-12-06T09:33:40.649000+00:00</time>
      </trkpt>
      <trkpt lat="0" lon="0">
        <time>2020-12-06T09:33:40.651000+00:00</time>
      </trkpt>
      <trkpt lat="0" lon="0">
        <time>2020-12-06T09:33:40.659000+00:00</time>
      </trkpt>
      <trkpt lat="0" lon="0">
        <time>2020-12-06T09:33:40.662000+00:00</time>
      </trkpt>
      <trkpt lat="47.35148" lon="-1.27863">
        <ele>36</ele>
        <time>2020-12-06T09:33:41.658000+00:00</time>
      </trkpt>
      <trkpt lat="0" lon="0">
        <time>2020-12-06T09:33:41.669000+00:00</time>
      </trkpt>
      <trkpt lat="0" lon="0">
        <time>2020-12-06T09:33:41.673000+00:00</time>
      </trkpt>
      <trkpt lat="0" lon="0">
        <time>2020-12-06T09:33:41.675000+00:00</time>
      </trkpt>
      <trkpt lat="47.35149" lon="-1.27867">
        <ele>36</ele>
        <time>2020-12-06T09:33:42.616000+00:00</time>
      </trkpt>
      <trkpt lat="0" lon="0">
        <time>2020-12-06T09:33:42.624000+00:00</time>
      </trkpt>
      <trkpt lat="0" lon="0">
        <time>2020-12-06T09:33:42.634000+00:00</time>
      </trkpt>
      <trkpt lat="0" lon="0">
        <time>2020-12-06T09:33:42.639000+00:00</time>
      </trkpt>
      <trkpt lat="47.3515" lon="-1.2787">
        <ele>36</ele>
        <time>2020-12-06T09:33:43.647000+00:00</time>
      </trkpt>
      <trkpt lat="0" lon="0">
        <time>2020-12-06T09:33:43.654000+00:00</time>
      </trkpt>
      <trkpt lat="0" lon="0">
        <time>2020-12-06T09:33:43.658000+00:00</time>
      </trkpt>
      <trkpt lat="0" lon="0">
        <time>2020-12-06T09:33:43.661000+00:00</time>
      </trkpt>
      <trkpt lat="47.35152" lon="-1.27873">
        <ele>36</ele>
        <time>2020-12-06T09:33:44.622000+00:00</time>
      </trkpt>
      <trkpt lat="0" lon="0">
        <time>2020-12-06T09:33:44.624000+00:00</time>
      </trkpt>
      <trkpt lat="0" lon="0">
        <time>2020-12-06T09:33:44.629000+00:00</time>
      </trkpt>
      <trkpt lat="0" lon="0">
        <time>2020-12-06T09:33:44.631000+00:00</time>
      </trkpt>
      <trkpt lat="47.35154" lon="-1.27874">
        <ele>37</ele>
        <time>2020-12-06T09:33:45.634000+00:00</time>
      </trkpt>
      <trkpt lat="0" lon="0">
        <time>2020-12-06T09:33:45.639000+00:00</time>
      </trkpt>
      <trkpt lat="0" lon="0">
        <time>2020-12-06T09:33:45.644000+00:00</time>
      </trkpt>
      <trkpt lat="0" lon="0">
        <time>2020-12-06T09:33:45.646000+00:00</time>
      </trkpt>
      <trkpt lat="47.35156" lon="-1.27874">
        <ele>37</ele>
        <time>2020-12-06T09:33:46.622000+00:00</time>
      </trkpt>
      <trkpt lat="0" lon="0">
        <time>2020-12-06T09:33:46.624000+00:00</time>
      </trkpt>
      <trkpt lat="0" lon="0">
        <time>2020-12-06T09:33:46.633000+00:00</time>
      </trkpt>
      <trkpt lat="0" lon="0">
        <time>2020-12-06T09:33:46.634000+00:00</time>
      </trkpt>
      <trkpt lat="47.35159" lon="-1.27874">
        <ele>37</ele>
        <time>2020-12-06T09:33:47.647000+00:00</time>
      </trkpt>
      <trkpt lat="0" lon="0">
        <time>2020-12-06T09:33:47.652000+00:00</time>
      </trkpt>
      <trkpt lat="0" lon="0">
        <time>2020-12-06T09:33:47.656000+00:00</time>
      </trkpt>
      <trkpt lat="0" lon="0">
        <time>2020-12-06T09:33:47.657000+00:00</time>
      </trkpt>
      <trkpt lat="47.35161" lon="-1.27874">
        <ele>37</ele>
        <time>2020-12-06T09:33:48.654000+00:00</time>
      </trkpt>
      <trkpt lat="0" lon="0">
        <time>2020-12-06T09:33:48.667000+00:00</time>
      </trkpt>
      <trkpt lat="0" lon="0">
        <time>2020-12-06T09:33:48.677000+00:00</time>
      </trkpt>
      <trkpt lat="0" lon="0">
        <time>2020-12-06T09:33:48.680000+00:00</time>
      </trkpt>
      <trkpt lat="47.35164" lon="-1.27873">
        <ele>37</ele>
        <time>2020-12-06T09:33:49.650000+00:00</time>
      </trkpt>
      <trkpt lat="0" lon="0">
        <time>2020-12-06T09:33:49.655000+00:00</time>
      </trkpt>
      <trkpt lat="0" lon="0">
        <time>2020-12-06T09:33:49.668000+00:00</time>
      </trkpt>
      <trkpt lat="0" lon="0">
        <time>2020-12-06T09:33:49.675000+00:00</time>
      </trkpt>
      <trkpt lat="47.35167" lon="-1.27871">
        <ele>37</ele>
        <time>2020-12-06T09:33:50.663000+00:00</time>
      </trkpt>
      <trkpt lat="0" lon="0">
        <time>2020-12-06T09:33:50.668000+00:00</time>
      </trkpt>
      <trkpt lat="0" lon="0">
        <time>2020-12-06T09:33:50.671000+00:00</time>
      </trkpt>
      <trkpt lat="0" lon="0">
        <time>2020-12-06T09:33:50.673000+00:00</time>
      </trkpt>
      <trkpt lat="47.35169" lon="-1.2787">
        <ele>37</ele>
        <time>2020-12-06T09:33:51.655000+00:00</time>
      </trkpt>
      <trkpt lat="0" lon="0">
        <time>2020-12-06T09:33:51.668000+00:00</time>
      </trkpt>
      <trkpt lat="0" lon="0">
        <time>2020-12-06T09:33:51.675000+00:00</time>
      </trkpt>
      <trkpt lat="0" lon="0">
        <time>2020-12-06T09:33:51.677000+00:00</time>
      </trkpt>
      <trkpt lat="47.35172" lon="-1.27868">
        <ele>38</ele>
        <time>2020-12-06T09:33:52.678000+00:00</time>
      </trkpt>
      <trkpt lat="0" lon="0">
        <time>2020-12-06T09:33:52.690000+00:00</time>
      </trkpt>
      <trkpt lat="0" lon="0">
        <time>2020-12-06T09:33:52.694000+00:00</time>
      </trkpt>
      <trkpt lat="0" lon="0">
        <time>2020-12-06T09:33:52.695000+00:00</time>
      </trkpt>
      <trkpt lat="47.35174" lon="-1.27867">
        <ele>38</ele>
        <time>2020-12-06T09:33:53.623000+00:00</time>
      </trkpt>
      <trkpt lat="0" lon="0">
        <time>2020-12-06T09:33:53.637000+00:00</time>
      </trkpt>
      <trkpt lat="0" lon="0">
        <time>2020-12-06T09:33:53.640000+00:00</time>
      </trkpt>
      <trkpt lat="0" lon="0">
        <time>2020-12-06T09:33:53.650000+00:00</time>
      </trkpt>
      <trkpt lat="47.35177" lon="-1.27866">
        <ele>38</ele>
        <time>2020-12-06T09:33:54.652000+00:00</time>
      </trkpt>
      <trkpt lat="0" lon="0">
        <time>2020-12-06T09:33:54.672000+00:00</time>
      </trkpt>
      <trkpt lat="0" lon="0">
        <time>2020-12-06T09:33:54.676000+00:00</time>
      </trkpt>
      <trkpt lat="0" lon="0">
        <time>2020-12-06T09:33:54.679000+00:00</time>
      </trkpt>
      <trkpt lat="47.35179" lon="-1.27865">
        <ele>38</ele>
        <time>2020-12-06T09:33:55.644000+00:00</time>
      </trkpt>
      <trkpt lat="0" lon="0">
        <time>2020-12-06T09:33:55.663000+00:00</time>
      </trkpt>
      <trkpt lat="0" lon="0">
        <time>2020-12-06T09:33:55.671000+00:00</time>
      </trkpt>
      <trkpt lat="0" lon="0">
        <time>2020-12-06T09:33:55.672000+00:00</time>
      </trkpt>
      <trkpt lat="47.35181" lon="-1.27864">
        <ele>38</ele>
        <time>2020-12-06T09:33:56.657000+00:00</time>
      </trkpt>
      <trkpt lat="0" lon="0">
        <time>2020-12-06T09:33:56.668000+00:00</time>
      </trkpt>
      <trkpt lat="0" lon="0">
        <time>2020-12-06T09:33:56.674000+00:00</time>
      </trkpt>
      <trkpt lat="0" lon="0">
        <time>2020-12-06T09:33:56.681000+00:00</time>
      </trkpt>
      <trkpt lat="47.35184" lon="-1.27864">
        <ele>38</ele>
        <time>2020-12-06T09:33:57.632000+00:00</time>
      </trkpt>
      <trkpt lat="0" lon="0">
        <time>2020-12-06T09:33:57.635000+00:00</time>
      </trkpt>
      <trkpt lat="0" lon="0">
        <time>2020-12-06T09:33:57.647000+00:00</time>
      </trkpt>
      <trkpt lat="0" lon="0">
        <time>2020-12-06T09:33:57.653000+00:00</time>
      </trkpt>
      <trkpt lat="47.35186" lon="-1.27863">
        <ele>38</ele>
        <time>2020-12-06T09:33:58.650000+00:00</time>
      </trkpt>
      <trkpt lat="0" lon="0">
        <time>2020-12-06T09:33:58.653000+00:00</time>
      </trkpt>
      <trkpt lat="0" lon="0">
        <time>2020-12-06T09:33:58.656000+00:00</time>
      </trkpt>
      <trkpt lat="0" lon="0">
        <time>2020-12-06T09:33:58.659000+00:00</time>
      </trkpt>
      <trkpt lat="47.35188" lon="-1.27862">
        <ele>39</ele>
        <time>2020-12-06T09:33:59.629000+00:00</time>
      </trkpt>
      <trkpt lat="0" lon="0">
        <time>2020-12-06T09:33:59.632000+00:00</time>
      </trkpt>
      <trkpt lat="0" lon="0">
        <time>2020-12-06T09:33:59.641000+00:00</time>
      </trkpt>
      <trkpt lat="0" lon="0">
        <time>2020-12-06T09:33:59.645000+00:00</time>
      </trkpt>
      <trkpt lat="47.3519" lon="-1.27862">
        <ele>39</ele>
        <time>2020-12-06T09:34:00.633000+00:00</time>
      </trkpt>
      <trkpt lat="0" lon="0">
        <time>2020-12-06T09:34:00.646000+00:00</time>
      </trkpt>
      <trkpt lat="0" lon="0">
        <time>2020-12-06T09:34:00.654000+00:00</time>
      </trkpt>
      <trkpt lat="0" lon="0">
        <time>2020-12-06T09:34:00.656000+00:00</time>
      </trkpt>
      <trkpt lat="47.35193" lon="-1.27861">
        <ele>39</ele>
        <time>2020-12-06T09:34:01.653000+00:00</time>
      </trkpt>
      <trkpt lat="0" lon="0">
        <time>2020-12-06T09:34:01.663000+00:00</time>
      </trkpt>
      <trkpt lat="0" lon="0">
        <time>2020-12-06T09:34:01.668000+00:00</time>
      </trkpt>
      <trkpt lat="0" lon="0">
        <time>2020-12-06T09:34:01.672000+00:00</time>
      </trkpt>
      <trkpt lat="47.35195" lon="-1.27861">
        <ele>39</ele>
        <time>2020-12-06T09:34:02.636000+00:00</time>
      </trkpt>
      <trkpt lat="0" lon="0">
        <time>2020-12-06T09:34:02.645000+00:00</time>
      </trkpt>
      <trkpt lat="0" lon="0">
        <time>2020-12-06T09:34:02.648000+00:00</time>
      </trkpt>
      <trkpt lat="0" lon="0">
        <time>2020-12-06T09:34:02.650000+00:00</time>
      </trkpt>
      <trkpt lat="47.35197" lon="-1.2786">
        <ele>39</ele>
        <time>2020-12-06T09:34:03.630000+00:00</time>
      </trkpt>
      <trkpt lat="0" lon="0">
        <time>2020-12-06T09:34:03.636000+00:00</time>
      </trkpt>
      <trkpt lat="0" lon="0">
        <time>2020-12-06T09:34:03.638000+00:00</time>
      </trkpt>
      <trkpt lat="0" lon="0">
        <time>2020-12-06T09:34:03.640000+00:00</time>
      </trkpt>
      <trkpt lat="47.35199" lon="-1.2786">
        <ele>39</ele>
        <time>2020-12-06T09:34:04.656000+00:00</time>
      </trkpt>
      <trkpt lat="0" lon="0">
        <time>2020-12-06T09:34:04.659000+00:00</time>
      </trkpt>
      <trkpt lat="0" lon="0">
        <time>2020-12-06T09:34:04.662000+00:00</time>
      </trkpt>
      <trkpt lat="0" lon="0">
        <time>2020-12-06T09:34:04.663000+00:00</time>
      </trkpt>
      <trkpt lat="47.35201" lon="-1.2786">
        <ele>40</ele>
        <time>2020-12-06T09:34:05.636000+00:00</time>
      </trkpt>
      <trkpt lat="0" lon="0">
        <time>2020-12-06T09:34:05.641000+00:00</time>
      </trkpt>
      <trkpt lat="0" lon="0">
        <time>2020-12-06T09:34:05.644000+00:00</time>
      </trkpt>
      <trkpt lat="0" lon="0">
        <time>2020-12-06T09:34:05.647000+00:00</time>
      </trkpt>
      <trkpt lat="47.35203" lon="-1.2786">
        <ele>40</ele>
        <time>2020-12-06T09:34:06.650000+00:00</time>
      </trkpt>
      <trkpt lat="0" lon="0">
        <time>2020-12-06T09:34:06.653000+00:00</time>
      </trkpt>
      <trkpt lat="0" lon="0">
        <time>2020-12-06T09:34:06.660000+00:00</time>
      </trkpt>
      <trkpt lat="0" lon="0">
        <time>2020-12-06T09:34:06.663000+00:00</time>
      </trkpt>
      <trkpt lat="47.35205" lon="-1.2786">
        <ele>40</ele>
        <time>2020-12-06T09:34:07.651000+00:00</time>
      </trkpt>
      <trkpt lat="0" lon="0">
        <time>2020-12-06T09:34:07.673000+00:00</time>
      </trkpt>
      <trkpt lat="0" lon="0">
        <time>2020-12-06T09:34:07.676000+00:00</time>
      </trkpt>
      <trkpt lat="0" lon="0">
        <time>2020-12-06T09:34:07.678000+00:00</time>
      </trkpt>
      <trkpt lat="47.35207" lon="-1.27859">
        <ele>40</ele>
        <time>2020-12-06T09:34:08.670000+00:00</time>
      </trkpt>
      <trkpt lat="0" lon="0">
        <time>2020-12-06T09:34:08.682000+00:00</time>
      </trkpt>
      <trkpt lat="0" lon="0">
        <time>2020-12-06T09:34:08.686000+00:00</time>
      </trkpt>
      <trkpt lat="0" lon="0">
        <time>2020-12-06T09:34:08.691000+00:00</time>
      </trkpt>
      <trkpt lat="47.35209" lon="-1.27859">
        <ele>40</ele>
        <time>2020-12-06T09:34:09.636000+00:00</time>
      </trkpt>
      <trkpt lat="0" lon="0">
        <time>2020-12-06T09:34:09.637000+00:00</time>
      </trkpt>
      <trkpt lat="0" lon="0">
        <time>2020-12-06T09:34:09.639000+00:00</time>
      </trkpt>
      <trkpt lat="0" lon="0">
        <time>2020-12-06T09:34:09.640000+00:00</time>
      </trkpt>
      <trkpt lat="47.35211" lon="-1.27858">
        <ele>40</ele>
        <time>2020-12-06T09:34:10.614000+00:00</time>
      </trkpt>
      <trkpt lat="0" lon="0">
        <time>2020-12-06T09:34:10.616000+00:00</time>
      </trkpt>
      <trkpt lat="0" lon="0">
        <time>2020-12-06T09:34:10.623000+00:00</time>
      </trkpt>
      <trkpt lat="0" lon="0">
        <time>2020-12-06T09:34:10.624000+00:00</time>
      </trkpt>
      <trkpt lat="47.35213" lon="-1.27858">
        <ele>40</ele>
        <time>2020-12-06T09:34:11.647000+00:00</time>
      </trkpt>
      <trkpt lat="0" lon="0">
        <time>2020-12-06T09:34:11.659000+00:00</time>
      </trkpt>
      <trkpt lat="0" lon="0">
        <time>2020-12-06T09:34:11.664000+00:00</time>
      </trkpt>
      <trkpt lat="0" lon="0">
        <time>2020-12-06T09:34:11.666000+00:00</time>
      </trkpt>
      <trkpt lat="47.35215" lon="-1.27858">
        <ele>41</ele>
        <time>2020-12-06T09:34:12.637000+00:00</time>
      </trkpt>
      <trkpt lat="0" lon="0">
        <time>2020-12-06T09:34:12.639000+00:00</time>
      </trkpt>
      <trkpt lat="0" lon="0">
        <time>2020-12-06T09:34:12.642000+00:00</time>
      </trkpt>
      <trkpt lat="0" lon="0">
        <time>2020-12-06T09:34:12.646000+00:00</time>
      </trkpt>
      <trkpt lat="47.35217" lon="-1.27857">
        <ele>41</ele>
        <time>2020-12-06T09:34:13.643000+00:00</time>
      </trkpt>
      <trkpt lat="0" lon="0">
        <time>2020-12-06T09:34:13.654000+00:00</time>
      </trkpt>
      <trkpt lat="0" lon="0">
        <time>2020-12-06T09:34:13.657000+00:00</time>
      </trkpt>
      <trkpt lat="0" lon="0">
        <time>2020-12-06T09:34:13.659000+00:00</time>
      </trkpt>
      <trkpt lat="47.35219" lon="-1.27857">
        <ele>41</ele>
        <time>2020-12-06T09:34:14.654000+00:00</time>
      </trkpt>
      <trkpt lat="0" lon="0">
        <time>2020-12-06T09:34:14.660000+00:00</time>
      </trkpt>
      <trkpt lat="0" lon="0">
        <time>2020-12-06T09:34:14.666000+00:00</time>
      </trkpt>
      <trkpt lat="0" lon="0">
        <time>2020-12-06T09:34:14.668000+00:00</time>
      </trkpt>
      <trkpt lat="47.35221" lon="-1.27857">
        <ele>41</ele>
        <time>2020-12-06T09:34:15.664000+00:00</time>
      </trkpt>
      <trkpt lat="0" lon="0">
        <time>2020-12-06T09:34:15.669000+00:00</time>
      </trkpt>
      <trkpt lat="0" lon="0">
        <time>2020-12-06T09:34:15.671000+00:00</time>
      </trkpt>
      <trkpt lat="0" lon="0">
        <time>2020-12-06T09:34:15.672000+00:00</time>
      </trkpt>
      <trkpt lat="47.35223" lon="-1.27856">
        <ele>41</ele>
        <time>2020-12-06T09:34:16.633000+00:00</time>
      </trkpt>
      <trkpt lat="0" lon="0">
        <time>2020-12-06T09:34:16.636000+00:00</time>
      </trkpt>
      <trkpt lat="0" lon="0">
        <time>2020-12-06T09:34:16.640000+00:00</time>
      </trkpt>
      <trkpt lat="0" lon="0">
        <time>2020-12-06T09:34:16.644000+00:00</time>
      </trkpt>
      <trkpt lat="47.35225" lon="-1.27855">
        <ele>41</ele>
        <time>2020-12-06T09:34:17.641000+00:00</time>
      </trkpt>
      <trkpt lat="0" lon="0">
        <time>2020-12-06T09:34:17.651000+00:00</time>
      </trkpt>
      <trkpt lat="0" lon="0">
        <time>2020-12-06T09:34:17.660000+00:00</time>
      </trkpt>
      <trkpt lat="0" lon="0">
        <time>2020-12-06T09:34:17.662000+00:00</time>
      </trkpt>
      <trkpt lat="47.35227" lon="-1.27855">
        <ele>41</ele>
        <time>2020-12-06T09:34:18.671000+00:00</time>
      </trkpt>
      <trkpt lat="0" lon="0">
        <time>2020-12-06T09:34:18.685000+00:00</time>
      </trkpt>
      <trkpt lat="0" lon="0">
        <time>2020-12-06T09:34:18.688000+00:00</time>
      </trkpt>
      <trkpt lat="0" lon="0">
        <time>2020-12-06T09:34:18.691000+00:00</time>
      </trkpt>
      <trkpt lat="47.35229" lon="-1.27854">
        <ele>42</ele>
        <time>2020-12-06T09:34:19.648000+00:00</time>
      </trkpt>
      <trkpt lat="0" lon="0">
        <time>2020-12-06T09:34:19.655000+00:00</time>
      </trkpt>
      <trkpt lat="0" lon="0">
        <time>2020-12-06T09:34:19.659000+00:00</time>
      </trkpt>
      <trkpt lat="0" lon="0">
        <time>2020-12-06T09:34:19.666000+00:00</time>
      </trkpt>
      <trkpt lat="47.3523" lon="-1.27853">
        <ele>42</ele>
        <time>2020-12-06T09:34:20.640000+00:00</time>
      </trkpt>
      <trkpt lat="0" lon="0">
        <time>2020-12-06T09:34:20.648000+00:00</time>
      </trkpt>
      <trkpt lat="0" lon="0">
        <time>2020-12-06T09:34:20.657000+00:00</time>
      </trkpt>
      <trkpt lat="0" lon="0">
        <time>2020-12-06T09:34:20.659000+00:00</time>
      </trkpt>
      <trkpt lat="47.35232" lon="-1.27852">
        <ele>42</ele>
        <time>2020-12-06T09:34:21.658000+00:00</time>
      </trkpt>
      <trkpt lat="0" lon="0">
        <time>2020-12-06T09:34:21.670000+00:00</time>
      </trkpt>
      <trkpt lat="0" lon="0">
        <time>2020-12-06T09:34:21.675000+00:00</time>
      </trkpt>
      <trkpt lat="0" lon="0">
        <time>2020-12-06T09:34:21.678000+00:00</time>
      </trkpt>
      <trkpt lat="47.35233" lon="-1.27851">
        <ele>42</ele>
        <time>2020-12-06T09:34:22.660000+00:00</time>
      </trkpt>
      <trkpt lat="0" lon="0">
        <time>2020-12-06T09:34:22.671000+00:00</time>
      </trkpt>
      <trkpt lat="0" lon="0">
        <time>2020-12-06T09:34:22.675000+00:00</time>
      </trkpt>
      <trkpt lat="0" lon="0">
        <time>2020-12-06T09:34:22.677000+00:00</time>
      </trkpt>
      <trkpt lat="47.35235" lon="-1.2785">
        <ele>42</ele>
        <time>2020-12-06T09:34:23.651000+00:00</time>
      </trkpt>
      <trkpt lat="0" lon="0">
        <time>2020-12-06T09:34:23.660000+00:00</time>
      </trkpt>
      <trkpt lat="0" lon="0">
        <time>2020-12-06T09:34:23.665000+00:00</time>
      </trkpt>
      <trkpt lat="0" lon="0">
        <time>2020-12-06T09:34:23.669000+00:00</time>
      </trkpt>
      <trkpt lat="47.35237" lon="-1.27849">
        <ele>42</ele>
        <time>2020-12-06T09:34:24.619000+00:00</time>
      </trkpt>
      <trkpt lat="0" lon="0">
        <time>2020-12-06T09:34:24.622000+00:00</time>
      </trkpt>
      <trkpt lat="0" lon="0">
        <time>2020-12-06T09:34:24.631000+00:00</time>
      </trkpt>
      <trkpt lat="0" lon="0">
        <time>2020-12-06T09:34:24.636000+00:00</time>
      </trkpt>
      <trkpt lat="47.35238" lon="-1.27848">
        <ele>42</ele>
        <time>2020-12-06T09:34:25.630000+00:00</time>
      </trkpt>
      <trkpt lat="0" lon="0">
        <time>2020-12-06T09:34:25.638000+00:00</time>
      </trkpt>
      <trkpt lat="0" lon="0">
        <time>2020-12-06T09:34:25.640000+00:00</time>
      </trkpt>
      <trkpt lat="0" lon="0">
        <time>2020-12-06T09:34:25.642000+00:00</time>
      </trkpt>
      <trkpt lat="47.3524" lon="-1.27847">
        <ele>42</ele>
        <time>2020-12-06T09:34:26.647000+00:00</time>
      </trkpt>
      <trkpt lat="0" lon="0">
        <time>2020-12-06T09:34:26.653000+00:00</time>
      </trkpt>
      <trkpt lat="0" lon="0">
        <time>2020-12-06T09:34:26.655000+00:00</time>
      </trkpt>
      <trkpt lat="47.35241" lon="-1.27846">
        <ele>42</ele>
        <time>2020-12-06T09:34:27.640000+00:00</time>
      </trkpt>
      <trkpt lat="0" lon="0">
        <time>2020-12-06T09:34:27.641000+00:00</time>
      </trkpt>
      <trkpt lat="0" lon="0">
        <time>2020-12-06T09:34:27.643000+00:00</time>
      </trkpt>
      <trkpt lat="0" lon="0">
        <time>2020-12-06T09:34:27.644000+00:00</time>
      </trkpt>
      <trkpt lat="47.35243" lon="-1.27846">
        <ele>42</ele>
        <time>2020-12-06T09:34:28.639000+00:00</time>
      </trkpt>
      <trkpt lat="0" lon="0">
        <time>2020-12-06T09:34:28.652000+00:00</time>
      </trkpt>
      <trkpt lat="0" lon="0">
        <time>2020-12-06T09:34:28.654000+00:00</time>
      </trkpt>
      <trkpt lat="47.35244" lon="-1.27847">
        <ele>42</ele>
        <time>2020-12-06T09:34:29.651000+00:00</time>
      </trkpt>
      <trkpt lat="0" lon="0">
        <time>2020-12-06T09:34:29.655000+00:00</time>
      </trkpt>
      <trkpt lat="0" lon="0">
        <time>2020-12-06T09:34:29.669000+00:00</time>
      </trkpt>
      <trkpt lat="0" lon="0">
        <time>2020-12-06T09:34:29.674000+00:00</time>
      </trkpt>
      <trkpt lat="47.35245" lon="-1.27848">
        <ele>43</ele>
        <time>2020-12-06T09:34:30.629000+00:00</time>
      </trkpt>
      <trkpt lat="0" lon="0">
        <time>2020-12-06T09:34:30.639000+00:00</time>
      </trkpt>
      <trkpt lat="0" lon="0">
        <time>2020-12-06T09:34:30.643000+00:00</time>
      </trkpt>
      <trkpt lat="0" lon="0">
        <time>2020-12-06T09:34:30.644000+00:00</time>
      </trkpt>
      <trkpt lat="47.35246" lon="-1.27849">
        <ele>43</ele>
        <time>2020-12-06T09:34:31.648000+00:00</time>
      </trkpt>
      <trkpt lat="0" lon="0">
        <time>2020-12-06T09:34:31.652000+00:00</time>
      </trkpt>
      <trkpt lat="0" lon="0">
        <time>2020-12-06T09:34:31.658000+00:00</time>
      </trkpt>
      <trkpt lat="0" lon="0">
        <time>2020-12-06T09:34:31.660000+00:00</time>
      </trkpt>
      <trkpt lat="47.35246" lon="-1.27851">
        <ele>43</ele>
        <time>2020-12-06T09:34:32.642000+00:00</time>
      </trkpt>
      <trkpt lat="0" lon="0">
        <time>2020-12-06T09:34:32.645000+00:00</time>
      </trkpt>
      <trkpt lat="0" lon="0">
        <time>2020-12-06T09:34:32.650000+00:00</time>
      </trkpt>
      <trkpt lat="0" lon="0">
        <time>2020-12-06T09:34:32.653000+00:00</time>
      </trkpt>
      <trkpt lat="47.35246" lon="-1.27854">
        <ele>43</ele>
        <time>2020-12-06T09:34:33.630000+00:00</time>
      </trkpt>
      <trkpt lat="0" lon="0">
        <time>2020-12-06T09:34:33.632000+00:00</time>
      </trkpt>
      <trkpt lat="0" lon="0">
        <time>2020-12-06T09:34:33.646000+00:00</time>
      </trkpt>
      <trkpt lat="0" lon="0">
        <time>2020-12-06T09:34:33.647000+00:00</time>
      </trkpt>
      <trkpt lat="47.35246" lon="-1.27857">
        <ele>43</ele>
        <time>2020-12-06T09:34:34.651000+00:00</time>
      </trkpt>
      <trkpt lat="0" lon="0">
        <time>2020-12-06T09:34:34.659000+00:00</time>
      </trkpt>
      <trkpt lat="0" lon="0">
        <time>2020-12-06T09:34:34.661000+00:00</time>
      </trkpt>
      <trkpt lat="0" lon="0">
        <time>2020-12-06T09:34:34.662000+00:00</time>
      </trkpt>
      <trkpt lat="47.35245" lon="-1.2786">
        <ele>43</ele>
        <time>2020-12-06T09:34:35.655000+00:00</time>
      </trkpt>
      <trkpt lat="0" lon="0">
        <time>2020-12-06T09:34:35.670000+00:00</time>
      </trkpt>
      <trkpt lat="0" lon="0">
        <time>2020-12-06T09:34:35.673000+00:00</time>
      </trkpt>
      <trkpt lat="0" lon="0">
        <time>2020-12-06T09:34:35.675000+00:00</time>
      </trkpt>
      <trkpt lat="47.35245" lon="-1.27863">
        <ele>43</ele>
        <time>2020-12-06T09:34:36.637000+00:00</time>
      </trkpt>
      <trkpt lat="0" lon="0">
        <time>2020-12-06T09:34:36.648000+00:00</time>
      </trkpt>
      <trkpt lat="0" lon="0">
        <time>2020-12-06T09:34:36.650000+00:00</time>
      </trkpt>
      <trkpt lat="0" lon="0">
        <time>2020-12-06T09:34:36.658000+00:00</time>
      </trkpt>
      <trkpt lat="47.35244" lon="-1.27866">
        <ele>43</ele>
        <time>2020-12-06T09:34:37.627000+00:00</time>
      </trkpt>
      <trkpt lat="0" lon="0">
        <time>2020-12-06T09:34:37.634000+00:00</time>
      </trkpt>
      <trkpt lat="0" lon="0">
        <time>2020-12-06T09:34:37.639000+00:00</time>
      </trkpt>
      <trkpt lat="0" lon="0">
        <time>2020-12-06T09:34:37.642000+00:00</time>
      </trkpt>
      <trkpt lat="47.35244" lon="-1.27869">
        <ele>43</ele>
        <time>2020-12-06T09:34:38.670000+00:00</time>
      </trkpt>
      <trkpt lat="0" lon="0">
        <time>2020-12-06T09:34:38.672000+00:00</time>
      </trkpt>
      <trkpt lat="0" lon="0">
        <time>2020-12-06T09:34:38.675000+00:00</time>
      </trkpt>
      <trkpt lat="0" lon="0">
        <time>2020-12-06T09:34:38.676000+00:00</time>
      </trkpt>
      <trkpt lat="47.35243" lon="-1.27873">
        <ele>43</ele>
        <time>2020-12-06T09:34:39.673000+00:00</time>
      </trkpt>
      <trkpt lat="0" lon="0">
        <time>2020-12-06T09:34:39.683000+00:00</time>
      </trkpt>
      <trkpt lat="0" lon="0">
        <time>2020-12-06T09:34:39.688000+00:00</time>
      </trkpt>
      <trkpt lat="0" lon="0">
        <time>2020-12-06T09:34:39.690000+00:00</time>
      </trkpt>
      <trkpt lat="47.35242" lon="-1.27877">
        <ele>43</ele>
        <time>2020-12-06T09:34:40.638000+00:00</time>
      </trkpt>
      <trkpt lat="0" lon="0">
        <time>2020-12-06T09:34:40.647000+00:00</time>
      </trkpt>
      <trkpt lat="0" lon="0">
        <time>2020-12-06T09:34:40.648000+00:00</time>
      </trkpt>
      <trkpt lat="0" lon="0">
        <time>2020-12-06T09:34:40.649000+00:00</time>
      </trkpt>
      <trkpt lat="47.35242" lon="-1.27881">
        <ele>44</ele>
        <time>2020-12-06T09:34:41.666000+00:00</time>
      </trkpt>
      <trkpt lat="0" lon="0">
        <time>2020-12-06T09:34:41.669000+00:00</time>
      </trkpt>
      <trkpt lat="0" lon="0">
        <time>2020-12-06T09:34:41.673000+00:00</time>
      </trkpt>
      <trkpt lat="0" lon="0">
        <time>2020-12-06T09:34:41.675000+00:00</time>
      </trkpt>
      <trkpt lat="47.35241" lon="-1.27885">
        <ele>44</ele>
        <time>2020-12-06T09:34:42.672000+00:00</time>
      </trkpt>
      <trkpt lat="0" lon="0">
        <time>2020-12-06T09:34:42.681000+00:00</time>
      </trkpt>
      <trkpt lat="0" lon="0">
        <time>2020-12-06T09:34:42.683000+00:00</time>
      </trkpt>
      <trkpt lat="47.35241" lon="-1.27889">
        <ele>44</ele>
        <time>2020-12-06T09:34:43.670000+00:00</time>
      </trkpt>
      <trkpt lat="0" lon="0">
        <time>2020-12-06T09:34:43.676000+00:00</time>
      </trkpt>
      <trkpt lat="0" lon="0">
        <time>2020-12-06T09:34:43.690000+00:00</time>
      </trkpt>
      <trkpt lat="0" lon="0">
        <time>2020-12-06T09:34:43.691000+00:00</time>
      </trkpt>
      <trkpt lat="47.3524" lon="-1.27894">
        <ele>44</ele>
        <time>2020-12-06T09:34:44.656000+00:00</time>
      </trkpt>
      <trkpt lat="0" lon="0">
        <time>2020-12-06T09:34:44.668000+00:00</time>
      </trkpt>
      <trkpt lat="0" lon="0">
        <time>2020-12-06T09:34:44.674000+00:00</time>
      </trkpt>
      <trkpt lat="0" lon="0">
        <time>2020-12-06T09:34:44.677000+00:00</time>
      </trkpt>
      <trkpt lat="47.35239" lon="-1.27899">
        <ele>44</ele>
        <time>2020-12-06T09:34:45.685000+00:00</time>
      </trkpt>
      <trkpt lat="0" lon="0">
        <time>2020-12-06T09:34:45.690000+00:00</time>
      </trkpt>
      <trkpt lat="0" lon="0">
        <time>2020-12-06T09:34:45.694000+00:00</time>
      </trkpt>
      <trkpt lat="0" lon="0">
        <time>2020-12-06T09:34:45.696000+00:00</time>
      </trkpt>
      <trkpt lat="47.35237" lon="-1.27904">
        <ele>44</ele>
        <time>2020-12-06T09:34:46.628000+00:00</time>
      </trkpt>
      <trkpt lat="0" lon="0">
        <time>2020-12-06T09:34:46.630000+00:00</time>
      </trkpt>
      <trkpt lat="0" lon="0">
        <time>2020-12-06T09:34:46.640000+00:00</time>
      </trkpt>
      <trkpt lat="0" lon="0">
        <time>2020-12-06T09:34:46.643000+00:00</time>
      </trkpt>
      <trkpt lat="47.35236" lon="-1.2791">
        <ele>44</ele>
        <time>2020-12-06T09:34:47.650000+00:00</time>
      </trkpt>
      <trkpt lat="0" lon="0">
        <time>2020-12-06T09:34:47.657000+00:00</time>
      </trkpt>
      <trkpt lat="0" lon="0">
        <time>2020-12-06T09:34:47.662000+00:00</time>
      </trkpt>
      <trkpt lat="0" lon="0">
        <time>2020-12-06T09:34:47.664000+00:00</time>
      </trkpt>
      <trkpt lat="47.35234" lon="-1.27916">
        <ele>44</ele>
        <time>2020-12-06T09:34:48.672000+00:00</time>
      </trkpt>
      <trkpt lat="0" lon="0">
        <time>2020-12-06T09:34:48.677000+00:00</time>
      </trkpt>
      <trkpt lat="0" lon="0">
        <time>2020-12-06T09:34:48.694000+00:00</time>
      </trkpt>
      <trkpt lat="0" lon="0">
        <time>2020-12-06T09:34:48.695000+00:00</time>
      </trkpt>
      <trkpt lat="47.35233" lon="-1.27922">
        <ele>45</ele>
        <time>2020-12-06T09:34:49.658000+00:00</time>
      </trkpt>
      <trkpt lat="0" lon="0">
        <time>2020-12-06T09:34:49.667000+00:00</time>
      </trkpt>
      <trkpt lat="0" lon="0">
        <time>2020-12-06T09:34:49.668000+00:00</time>
      </trkpt>
      <trkpt lat="0" lon="0">
        <time>2020-12-06T09:34:49.670000+00:00</time>
      </trkpt>
      <trkpt lat="47.35232" lon="-1.27927">
        <ele>45</ele>
        <time>2020-12-06T09:34:50.670000+00:00</time>
      </trkpt>
      <trkpt lat="0" lon="0">
        <time>2020-12-06T09:34:50.676000+00:00</time>
      </trkpt>
      <trkpt lat="0" lon="0">
        <time>2020-12-06T09:34:50.679000+00:00</time>
      </trkpt>
      <trkpt lat="0" lon="0">
        <time>2020-12-06T09:34:50.680000+00:00</time>
      </trkpt>
      <trkpt lat="47.35231" lon="-1.27933">
        <ele>45</ele>
        <time>2020-12-06T09:34:51.668000+00:00</time>
      </trkpt>
      <trkpt lat="0" lon="0">
        <time>2020-12-06T09:34:51.677000+00:00</time>
      </trkpt>
      <trkpt lat="0" lon="0">
        <time>2020-12-06T09:34:51.681000+00:00</time>
      </trkpt>
      <trkpt lat="0" lon="0">
        <time>2020-12-06T09:34:51.685000+00:00</time>
      </trkpt>
      <trkpt lat="47.3523" lon="-1.27938">
        <ele>45</ele>
        <time>2020-12-06T09:34:52.660000+00:00</time>
      </trkpt>
      <trkpt lat="0" lon="0">
        <time>2020-12-06T09:34:52.671000+00:00</time>
      </trkpt>
      <trkpt lat="0" lon="0">
        <time>2020-12-06T09:34:52.677000+00:00</time>
      </trkpt>
      <trkpt lat="0" lon="0">
        <time>2020-12-06T09:34:52.679000+00:00</time>
      </trkpt>
      <trkpt lat="47.35229" lon="-1.27944">
        <ele>45</ele>
        <time>2020-12-06T09:34:53.674000+00:00</time>
      </trkpt>
      <trkpt lat="0" lon="0">
        <time>2020-12-06T09:34:53.676000+00:00</time>
      </trkpt>
      <trkpt lat="0" lon="0">
        <time>2020-12-06T09:34:53.677000+00:00</time>
      </trkpt>
      <trkpt lat="0" lon="0">
        <time>2020-12-06T09:34:53.678000+00:00</time>
      </trkpt>
      <trkpt lat="47.35229" lon="-1.27949">
        <ele>46</ele>
        <time>2020-12-06T09:34:54.655000+00:00</time>
      </trkpt>
      <trkpt lat="0" lon="0">
        <time>2020-12-06T09:34:54.656000+00:00</time>
      </trkpt>
      <trkpt lat="0" lon="0">
        <time>2020-12-06T09:34:54.658000+00:00</time>
      </trkpt>
      <trkpt lat="0" lon="0">
        <time>2020-12-06T09:34:54.659000+00:00</time>
      </trkpt>
      <trkpt lat="47.35228" lon="-1.27954">
        <ele>46</ele>
        <time>2020-12-06T09:34:55.655000+00:00</time>
      </trkpt>
      <trkpt lat="0" lon="0">
        <time>2020-12-06T09:34:55.664000+00:00</time>
      </trkpt>
      <trkpt lat="0" lon="0">
        <time>2020-12-06T09:34:55.670000+00:00</time>
      </trkpt>
      <trkpt lat="0" lon="0">
        <time>2020-12-06T09:34:55.673000+00:00</time>
      </trkpt>
      <trkpt lat="47.35228" lon="-1.27959">
        <ele>46</ele>
        <time>2020-12-06T09:34:56.652000+00:00</time>
      </trkpt>
      <trkpt lat="0" lon="0">
        <time>2020-12-06T09:34:56.675000+00:00</time>
      </trkpt>
      <trkpt lat="0" lon="0">
        <time>2020-12-06T09:34:56.677000+00:00</time>
      </trkpt>
      <trkpt lat="0" lon="0">
        <time>2020-12-06T09:34:56.678000+00:00</time>
      </trkpt>
      <trkpt lat="47.35227" lon="-1.27964">
        <ele>46</ele>
        <time>2020-12-06T09:34:57.682000+00:00</time>
      </trkpt>
      <trkpt lat="0" lon="0">
        <time>2020-12-06T09:34:57.688000+00:00</time>
      </trkpt>
      <trkpt lat="0" lon="0">
        <time>2020-12-06T09:34:57.690000+00:00</time>
      </trkpt>
      <trkpt lat="0" lon="0">
        <time>2020-12-06T09:34:57.691000+00:00</time>
      </trkpt>
      <trkpt lat="47.35226" lon="-1.27969">
        <ele>46</ele>
        <time>2020-12-06T09:34:58.663000+00:00</time>
      </trkpt>
      <trkpt lat="0" lon="0">
        <time>2020-12-06T09:34:58.669000+00:00</time>
      </trkpt>
      <trkpt lat="0" lon="0">
        <time>2020-12-06T09:34:58.683000+00:00</time>
      </trkpt>
      <trkpt lat="0" lon="0">
        <time>2020-12-06T09:34:58.684000+00:00</time>
      </trkpt>
      <trkpt lat="47.35225" lon="-1.27974">
        <ele>46</ele>
        <time>2020-12-06T09:34:59.651000+00:00</time>
      </trkpt>
      <trkpt lat="0" lon="0">
        <time>2020-12-06T09:34:59.659000+00:00</time>
      </trkpt>
      <trkpt lat="0" lon="0">
        <time>2020-12-06T09:34:59.664000+00:00</time>
      </trkpt>
      <trkpt lat="0" lon="0">
        <time>2020-12-06T09:34:59.666000+00:00</time>
      </trkpt>
      <trkpt lat="47.35224" lon="-1.27979">
        <ele>47</ele>
        <time>2020-12-06T09:35:00.664000+00:00</time>
      </trkpt>
      <trkpt lat="0" lon="0">
        <time>2020-12-06T09:35:00.673000+00:00</time>
      </trkpt>
      <trkpt lat="0" lon="0">
        <time>2020-12-06T09:35:00.674000+00:00</time>
      </trkpt>
      <trkpt lat="0" lon="0">
        <time>2020-12-06T09:35:00.675000+00:00</time>
      </trkpt>
      <trkpt lat="47.35222" lon="-1.27984">
        <ele>47</ele>
        <time>2020-12-06T09:35:01.685000+00:00</time>
      </trkpt>
      <trkpt lat="0" lon="0">
        <time>2020-12-06T09:35:01.691000+00:00</time>
      </trkpt>
      <trkpt lat="0" lon="0">
        <time>2020-12-06T09:35:01.695000+00:00</time>
      </trkpt>
      <trkpt lat="0" lon="0">
        <time>2020-12-06T09:35:01.696000+00:00</time>
      </trkpt>
      <trkpt lat="47.3522" lon="-1.27989">
        <ele>47</ele>
        <time>2020-12-06T09:35:02.663000+00:00</time>
      </trkpt>
      <trkpt lat="0" lon="0">
        <time>2020-12-06T09:35:02.667000+00:00</time>
      </trkpt>
      <trkpt lat="0" lon="0">
        <time>2020-12-06T09:35:02.681000+00:00</time>
      </trkpt>
      <trkpt lat="0" lon="0">
        <time>2020-12-06T09:35:02.682000+00:00</time>
      </trkpt>
      <trkpt lat="47.35219" lon="-1.27994">
        <ele>47</ele>
        <time>2020-12-06T09:35:03.658000+00:00</time>
      </trkpt>
      <trkpt lat="0" lon="0">
        <time>2020-12-06T09:35:03.660000+00:00</time>
      </trkpt>
      <trkpt lat="0" lon="0">
        <time>2020-12-06T09:35:03.662000+00:00</time>
      </trkpt>
      <trkpt lat="0" lon="0">
        <time>2020-12-06T09:35:03.663000+00:00</time>
      </trkpt>
      <trkpt lat="47.35218" lon="-1.28">
        <ele>47</ele>
        <time>2020-12-06T09:35:04.672000+00:00</time>
      </trkpt>
      <trkpt lat="0" lon="0">
        <time>2020-12-06T09:35:04.685000+00:00</time>
      </trkpt>
      <trkpt lat="0" lon="0">
        <time>2020-12-06T09:35:04.688000+00:00</time>
      </trkpt>
      <trkpt lat="0" lon="0">
        <time>2020-12-06T09:35:04.691000+00:00</time>
      </trkpt>
      <trkpt lat="47.35217" lon="-1.28005">
        <ele>47</ele>
        <time>2020-12-06T09:35:05.677000+00:00</time>
      </trkpt>
      <trkpt lat="0" lon="0">
        <time>2020-12-06T09:35:05.683000+00:00</time>
      </trkpt>
      <trkpt lat="0" lon="0">
        <time>2020-12-06T09:35:05.698000+00:00</time>
      </trkpt>
      <trkpt lat="0" lon="0">
        <time>2020-12-06T09:35:05.704000+00:00</time>
      </trkpt>
      <trkpt lat="47.35217" lon="-1.28009">
        <ele>47</ele>
        <time>2020-12-06T09:35:06.692000+00:00</time>
      </trkpt>
      <trkpt lat="0" lon="0">
        <time>2020-12-06T09:35:06.702000+00:00</time>
      </trkpt>
      <trkpt lat="0" lon="0">
        <time>2020-12-06T09:35:06.705000+00:00</time>
      </trkpt>
      <trkpt lat="0" lon="0">
        <time>2020-12-06T09:35:06.708000+00:00</time>
      </trkpt>
      <trkpt lat="47.35218" lon="-1.28014">
        <ele>48</ele>
        <time>2020-12-06T09:35:07.663000+00:00</time>
      </trkpt>
      <trkpt lat="0" lon="0">
        <time>2020-12-06T09:35:07.676000+00:00</time>
      </trkpt>
      <trkpt lat="0" lon="0">
        <time>2020-12-06T09:35:07.678000+00:00</time>
      </trkpt>
      <trkpt lat="0" lon="0">
        <time>2020-12-06T09:35:07.679000+00:00</time>
      </trkpt>
      <trkpt lat="47.35219" lon="-1.28018">
        <ele>48</ele>
        <time>2020-12-06T09:35:08.635000+00:00</time>
      </trkpt>
      <trkpt lat="0" lon="0">
        <time>2020-12-06T09:35:08.640000+00:00</time>
      </trkpt>
      <trkpt lat="0" lon="0">
        <time>2020-12-06T09:35:08.642000+00:00</time>
      </trkpt>
      <trkpt lat="0" lon="0">
        <time>2020-12-06T09:35:08.643000+00:00</time>
      </trkpt>
      <trkpt lat="47.3522" lon="-1.28022">
        <ele>48</ele>
        <time>2020-12-06T09:35:09.684000+00:00</time>
      </trkpt>
      <trkpt lat="0" lon="0">
        <time>2020-12-06T09:35:09.693000+00:00</time>
      </trkpt>
      <trkpt lat="0" lon="0">
        <time>2020-12-06T09:35:09.695000+00:00</time>
      </trkpt>
      <trkpt lat="47.35221" lon="-1.28027">
        <ele>48</ele>
        <time>2020-12-06T09:35:10.652000+00:00</time>
      </trkpt>
      <trkpt lat="0" lon="0">
        <time>2020-12-06T09:35:10.654000+00:00</time>
      </trkpt>
      <trkpt lat="0" lon="0">
        <time>2020-12-06T09:35:10.656000+00:00</time>
      </trkpt>
      <trkpt lat="0" lon="0">
        <time>2020-12-06T09:35:10.658000+00:00</time>
      </trkpt>
      <trkpt lat="47.35222" lon="-1.28032">
        <ele>48</ele>
        <time>2020-12-06T09:35:11.668000+00:00</time>
      </trkpt>
      <trkpt lat="0" lon="0">
        <time>2020-12-06T09:35:11.671000+00:00</time>
      </trkpt>
      <trkpt lat="0" lon="0">
        <time>2020-12-06T09:35:11.674000+00:00</time>
      </trkpt>
      <trkpt lat="0" lon="0">
        <time>2020-12-06T09:35:11.677000+00:00</time>
      </trkpt>
      <trkpt lat="47.35223" lon="-1.28037">
        <ele>48</ele>
        <time>2020-12-06T09:35:12.662000+00:00</time>
      </trkpt>
      <trkpt lat="0" lon="0">
        <time>2020-12-06T09:35:12.667000+00:00</time>
      </trkpt>
      <trkpt lat="0" lon="0">
        <time>2020-12-06T09:35:12.673000+00:00</time>
      </trkpt>
      <trkpt lat="0" lon="0">
        <time>2020-12-06T09:35:12.674000+00:00</time>
      </trkpt>
      <trkpt lat="47.35223" lon="-1.28042">
        <ele>49</ele>
        <time>2020-12-06T09:35:13.645000+00:00</time>
      </trkpt>
      <trkpt lat="0" lon="0">
        <time>2020-12-06T09:35:13.648000+00:00</time>
      </trkpt>
      <trkpt lat="0" lon="0">
        <time>2020-12-06T09:35:13.654000+00:00</time>
      </trkpt>
      <trkpt lat="0" lon="0">
        <time>2020-12-06T09:35:13.656000+00:00</time>
      </trkpt>
      <trkpt lat="47.35224" lon="-1.28046">
        <ele>49</ele>
        <time>2020-12-06T09:35:14.680000+00:00</time>
      </trkpt>
      <trkpt lat="0" lon="0">
        <time>2020-12-06T09:35:14.690000+00:00</time>
      </trkpt>
      <trkpt lat="0" lon="0">
        <time>2020-12-06T09:35:14.696000+00:00</time>
      </trkpt>
      <trkpt lat="0" lon="0">
        <time>2020-12-06T09:35:14.698000+00:00</time>
      </trkpt>
      <trkpt lat="47.35224" lon="-1.28051">
        <ele>49</ele>
        <time>2020-12-06T09:35:15.680000+00:00</time>
      </trkpt>
      <trkpt lat="0" lon="0">
        <time>2020-12-06T09:35:15.688000+00:00</time>
      </trkpt>
      <trkpt lat="0" lon="0">
        <time>2020-12-06T09:35:15.693000+00:00</time>
      </trkpt>
      <trkpt lat="0" lon="0">
        <time>2020-12-06T09:35:15.696000+00:00</time>
      </trkpt>
      <trkpt lat="47.35224" lon="-1.28056">
        <ele>49</ele>
        <time>2020-12-06T09:35:16.618000+00:00</time>
      </trkpt>
      <trkpt lat="0" lon="0">
        <time>2020-12-06T09:35:16.626000+00:00</time>
      </trkpt>
      <trkpt lat="0" lon="0">
        <time>2020-12-06T09:35:16.633000+00:00</time>
      </trkpt>
      <trkpt lat="0" lon="0">
        <time>2020-12-06T09:35:16.635000+00:00</time>
      </trkpt>
      <trkpt lat="47.35223" lon="-1.28061">
        <ele>49</ele>
        <time>2020-12-06T09:35:17.689000+00:00</time>
      </trkpt>
      <trkpt lat="0" lon="0">
        <time>2020-12-06T09:35:17.700000+00:00</time>
      </trkpt>
      <trkpt lat="0" lon="0">
        <time>2020-12-06T09:35:17.703000+00:00</time>
      </trkpt>
      <trkpt lat="0" lon="0">
        <time>2020-12-06T09:35:17.706000+00:00</time>
      </trkpt>
      <trkpt lat="47.35223" lon="-1.28066">
        <ele>49</ele>
        <time>2020-12-06T09:35:18.695000+00:00</time>
      </trkpt>
      <trkpt lat="0" lon="0">
        <time>2020-12-06T09:35:18.711000+00:00</time>
      </trkpt>
      <trkpt lat="0" lon="0">
        <time>2020-12-06T09:35:18.714000+00:00</time>
      </trkpt>
      <trkpt lat="0" lon="0">
        <time>2020-12-06T09:35:18.716000+00:00</time>
      </trkpt>
      <trkpt lat="47.35223" lon="-1.28071">
        <ele>49</ele>
        <time>2020-12-06T09:35:19.655000+00:00</time>
      </trkpt>
      <trkpt lat="0" lon="0">
        <time>2020-12-06T09:35:19.657000+00:00</time>
      </trkpt>
      <trkpt lat="0" lon="0">
        <time>2020-12-06T09:35:19.659000+00:00</time>
      </trkpt>
      <trkpt lat="0" lon="0">
        <time>2020-12-06T09:35:19.660000+00:00</time>
      </trkpt>
      <trkpt lat="47.35223" lon="-1.28077">
        <ele>49</ele>
        <time>2020-12-06T09:35:20.702000+00:00</time>
      </trkpt>
      <trkpt lat="0" lon="0">
        <time>2020-12-06T09:35:20.707000+00:00</time>
      </trkpt>
      <trkpt lat="0" lon="0">
        <time>2020-12-06T09:35:20.709000+00:00</time>
      </trkpt>
      <trkpt lat="47.35223" lon="-1.28083">
        <ele>50</ele>
        <time>2020-12-06T09:35:21.648000+00:00</time>
      </trkpt>
      <trkpt lat="0" lon="0">
        <time>2020-12-06T09:35:21.660000+00:00</time>
      </trkpt>
      <trkpt lat="0" lon="0">
        <time>2020-12-06T09:35:21.663000+00:00</time>
      </trkpt>
      <trkpt lat="0" lon="0">
        <time>2020-12-06T09:35:21.665000+00:00</time>
      </trkpt>
      <trkpt lat="47.35223" lon="-1.28089">
        <ele>50</ele>
        <time>2020-12-06T09:35:22.679000+00:00</time>
      </trkpt>
      <trkpt lat="0" lon="0">
        <time>2020-12-06T09:35:22.681000+00:00</time>
      </trkpt>
      <trkpt lat="0" lon="0">
        <time>2020-12-06T09:35:22.696000+00:00</time>
      </trkpt>
      <trkpt lat="0" lon="0">
        <time>2020-12-06T09:35:22.698000+00:00</time>
      </trkpt>
      <trkpt lat="47.35223" lon="-1.28095">
        <ele>50</ele>
        <time>2020-12-06T09:35:23.679000+00:00</time>
      </trkpt>
      <trkpt lat="0" lon="0">
        <time>2020-12-06T09:35:23.698000+00:00</time>
      </trkpt>
      <trkpt lat="0" lon="0">
        <time>2020-12-06T09:35:23.704000+00:00</time>
      </trkpt>
      <trkpt lat="0" lon="0">
        <time>2020-12-06T09:35:23.708000+00:00</time>
      </trkpt>
      <trkpt lat="47.35222" lon="-1.28101">
        <ele>50</ele>
        <time>2020-12-06T09:35:24.640000+00:00</time>
      </trkpt>
      <trkpt lat="0" lon="0">
        <time>2020-12-06T09:35:24.643000+00:00</time>
      </trkpt>
      <trkpt lat="0" lon="0">
        <time>2020-12-06T09:35:24.663000+00:00</time>
      </trkpt>
      <trkpt lat="0" lon="0">
        <time>2020-12-06T09:35:24.668000+00:00</time>
      </trkpt>
      <trkpt lat="47.35221" lon="-1.28107">
        <ele>50</ele>
        <time>2020-12-06T09:35:25.689000+00:00</time>
      </trkpt>
      <trkpt lat="0" lon="0">
        <time>2020-12-06T09:35:25.706000+00:00</time>
      </trkpt>
      <trkpt lat="0" lon="0">
        <time>2020-12-06T09:35:25.710000+00:00</time>
      </trkpt>
      <trkpt lat="0" lon="0">
        <time>2020-12-06T09:35:25.712000+00:00</time>
      </trkpt>
      <trkpt lat="47.3522" lon="-1.28113">
        <ele>50</ele>
        <time>2020-12-06T09:35:26.699000+00:00</time>
      </trkpt>
      <trkpt lat="0" lon="0">
        <time>2020-12-06T09:35:26.707000+00:00</time>
      </trkpt>
      <trkpt lat="0" lon="0">
        <time>2020-12-06T09:35:26.714000+00:00</time>
      </trkpt>
      <trkpt lat="0" lon="0">
        <time>2020-12-06T09:35:26.715000+00:00</time>
      </trkpt>
      <trkpt lat="47.35218" lon="-1.28118">
        <ele>50</ele>
        <time>2020-12-06T09:35:27.677000+00:00</time>
      </trkpt>
      <trkpt lat="0" lon="0">
        <time>2020-12-06T09:35:27.680000+00:00</time>
      </trkpt>
      <trkpt lat="0" lon="0">
        <time>2020-12-06T09:35:27.683000+00:00</time>
      </trkpt>
      <trkpt lat="0" lon="0">
        <time>2020-12-06T09:35:27.684000+00:00</time>
      </trkpt>
      <trkpt lat="47.35217" lon="-1.28124">
        <ele>50</ele>
        <time>2020-12-06T09:35:28.626000+00:00</time>
      </trkpt>
      <trkpt lat="0" lon="0">
        <time>2020-12-06T09:35:28.628000+00:00</time>
      </trkpt>
      <trkpt lat="0" lon="0">
        <time>2020-12-06T09:35:28.630000+00:00</time>
      </trkpt>
      <trkpt lat="47.35217" lon="-1.2813">
        <ele>50</ele>
        <time>2020-12-06T09:35:29.648000+00:00</time>
      </trkpt>
      <trkpt lat="0" lon="0">
        <time>2020-12-06T09:35:29.649000+00:00</time>
      </trkpt>
      <trkpt lat="0" lon="0">
        <time>2020-12-06T09:35:29.650000+00:00</time>
      </trkpt>
      <trkpt lat="0" lon="0">
        <time>2020-12-06T09:35:29.651000+00:00</time>
      </trkpt>
      <trkpt lat="47.35216" lon="-1.28136">
        <ele>51</ele>
        <time>2020-12-06T09:35:30.655000+00:00</time>
      </trkpt>
      <trkpt lat="0" lon="0">
        <time>2020-12-06T09:35:30.670000+00:00</time>
      </trkpt>
      <trkpt lat="0" lon="0">
        <time>2020-12-06T09:35:30.674000+00:00</time>
      </trkpt>
      <trkpt lat="47.35217" lon="-1.28142">
        <ele>51</ele>
        <time>2020-12-06T09:35:31.654000+00:00</time>
      </trkpt>
      <trkpt lat="0" lon="0">
        <time>2020-12-06T09:35:31.656000+00:00</time>
      </trkpt>
      <trkpt lat="0" lon="0">
        <time>2020-12-06T09:35:31.662000+00:00</time>
      </trkpt>
      <trkpt lat="0" lon="0">
        <time>2020-12-06T09:35:31.664000+00:00</time>
      </trkpt>
      <trkpt lat="47.35218" lon="-1.28147">
        <ele>51</ele>
        <time>2020-12-06T09:35:32.682000+00:00</time>
      </trkpt>
      <trkpt lat="0" lon="0">
        <time>2020-12-06T09:35:32.692000+00:00</time>
      </trkpt>
      <trkpt lat="0" lon="0">
        <time>2020-12-06T09:35:32.697000+00:00</time>
      </trkpt>
      <trkpt lat="0" lon="0">
        <time>2020-12-06T09:35:32.699000+00:00</time>
      </trkpt>
      <trkpt lat="47.3522" lon="-1.28152">
        <ele>51</ele>
        <time>2020-12-06T09:35:33.622000+00:00</time>
      </trkpt>
      <trkpt lat="0" lon="0">
        <time>2020-12-06T09:35:33.625000+00:00</time>
      </trkpt>
      <trkpt lat="0" lon="0">
        <time>2020-12-06T09:35:33.628000+00:00</time>
      </trkpt>
      <trkpt lat="0" lon="0">
        <time>2020-12-06T09:35:33.631000+00:00</time>
      </trkpt>
      <trkpt lat="47.35222" lon="-1.28157">
        <ele>52</ele>
        <time>2020-12-06T09:35:34.692000+00:00</time>
      </trkpt>
      <trkpt lat="0" lon="0">
        <time>2020-12-06T09:35:34.694000+00:00</time>
      </trkpt>
      <trkpt lat="0" lon="0">
        <time>2020-12-06T09:35:34.696000+00:00</time>
      </trkpt>
      <trkpt lat="47.35225" lon="-1.28161">
        <ele>52</ele>
        <time>2020-12-06T09:35:35.691000+00:00</time>
      </trkpt>
      <trkpt lat="0" lon="0">
        <time>2020-12-06T09:35:35.719000+00:00</time>
      </trkpt>
      <trkpt lat="0" lon="0">
        <time>2020-12-06T09:35:35.722000+00:00</time>
      </trkpt>
      <trkpt lat="0" lon="0">
        <time>2020-12-06T09:35:35.723000+00:00</time>
      </trkpt>
      <trkpt lat="47.35228" lon="-1.28167">
        <ele>52</ele>
        <time>2020-12-06T09:35:36.661000+00:00</time>
      </trkpt>
      <trkpt lat="0" lon="0">
        <time>2020-12-06T09:35:36.667000+00:00</time>
      </trkpt>
      <trkpt lat="0" lon="0">
        <time>2020-12-06T09:35:36.671000+00:00</time>
      </trkpt>
      <trkpt lat="0" lon="0">
        <time>2020-12-06T09:35:36.672000+00:00</time>
      </trkpt>
      <trkpt lat="47.3523" lon="-1.28172">
        <ele>53</ele>
        <time>2020-12-06T09:35:37.654000+00:00</time>
      </trkpt>
      <trkpt lat="0" lon="0">
        <time>2020-12-06T09:35:37.667000+00:00</time>
      </trkpt>
      <trkpt lat="0" lon="0">
        <time>2020-12-06T09:35:37.674000+00:00</time>
      </trkpt>
      <trkpt lat="0" lon="0">
        <time>2020-12-06T09:35:37.677000+00:00</time>
      </trkpt>
      <trkpt lat="47.35233" lon="-1.28178">
        <ele>53</ele>
        <time>2020-12-06T09:35:38.684000+00:00</time>
      </trkpt>
      <trkpt lat="0" lon="0">
        <time>2020-12-06T09:35:38.689000+00:00</time>
      </trkpt>
      <trkpt lat="0" lon="0">
        <time>2020-12-06T09:35:38.697000+00:00</time>
      </trkpt>
      <trkpt lat="0" lon="0">
        <time>2020-12-06T09:35:38.698000+00:00</time>
      </trkpt>
      <trkpt lat="47.35235" lon="-1.28184">
        <ele>53</ele>
        <time>2020-12-06T09:35:39.693000+00:00</time>
      </trkpt>
      <trkpt lat="0" lon="0">
        <time>2020-12-06T09:35:39.700000+00:00</time>
      </trkpt>
      <trkpt lat="0" lon="0">
        <time>2020-12-06T09:35:39.710000+00:00</time>
      </trkpt>
      <trkpt lat="0" lon="0">
        <time>2020-12-06T09:35:39.713000+00:00</time>
      </trkpt>
      <trkpt lat="47.35237" lon="-1.2819">
        <ele>54</ele>
        <time>2020-12-06T09:35:40.715000+00:00</time>
      </trkpt>
      <trkpt lat="0" lon="0">
        <time>2020-12-06T09:35:40.717000+00:00</time>
      </trkpt>
      <trkpt lat="0" lon="0">
        <time>2020-12-06T09:35:40.724000+00:00</time>
      </trkpt>
      <trkpt lat="0" lon="0">
        <time>2020-12-06T09:35:40.725000+00:00</time>
      </trkpt>
      <trkpt lat="47.35238" lon="-1.28196">
        <ele>54</ele>
        <time>2020-12-06T09:35:41.655000+00:00</time>
      </trkpt>
      <trkpt lat="0" lon="0">
        <time>2020-12-06T09:35:41.664000+00:00</time>
      </trkpt>
      <trkpt lat="0" lon="0">
        <time>2020-12-06T09:35:41.666000+00:00</time>
      </trkpt>
      <trkpt lat="47.35239" lon="-1.28202">
        <ele>54</ele>
        <time>2020-12-06T09:35:42.660000+00:00</time>
      </trkpt>
      <trkpt lat="0" lon="0">
        <time>2020-12-06T09:35:42.666000+00:00</time>
      </trkpt>
      <trkpt lat="0" lon="0">
        <time>2020-12-06T09:35:42.669000+00:00</time>
      </trkpt>
      <trkpt lat="0" lon="0">
        <time>2020-12-06T09:35:42.670000+00:00</time>
      </trkpt>
      <trkpt lat="47.35239" lon="-1.28208">
        <ele>55</ele>
        <time>2020-12-06T09:35:43.655000+00:00</time>
      </trkpt>
      <trkpt lat="0" lon="0">
        <time>2020-12-06T09:35:43.670000+00:00</time>
      </trkpt>
      <trkpt lat="0" lon="0">
        <time>2020-12-06T09:35:43.674000+00:00</time>
      </trkpt>
      <trkpt lat="0" lon="0">
        <time>2020-12-06T09:35:43.677000+00:00</time>
      </trkpt>
      <trkpt lat="47.3524" lon="-1.28214">
        <ele>55</ele>
        <time>2020-12-06T09:35:44.671000+00:00</time>
      </trkpt>
      <trkpt lat="0" lon="0">
        <time>2020-12-06T09:35:44.679000+00:00</time>
      </trkpt>
      <trkpt lat="0" lon="0">
        <time>2020-12-06T09:35:44.680000+00:00</time>
      </trkpt>
      <trkpt lat="0" lon="0">
        <time>2020-12-06T09:35:44.681000+00:00</time>
      </trkpt>
      <trkpt lat="47.35242" lon="-1.2822">
        <ele>56</ele>
        <time>2020-12-06T09:35:45.648000+00:00</time>
      </trkpt>
      <trkpt lat="0" lon="0">
        <time>2020-12-06T09:35:45.649000+00:00</time>
      </trkpt>
      <trkpt lat="0" lon="0">
        <time>2020-12-06T09:35:45.651000+00:00</time>
      </trkpt>
      <trkpt lat="47.35244" lon="-1.28226">
        <ele>56</ele>
        <time>2020-12-06T09:35:46.654000+00:00</time>
      </trkpt>
      <trkpt lat="0" lon="0">
        <time>2020-12-06T09:35:46.657000+00:00</time>
      </trkpt>
      <trkpt lat="0" lon="0">
        <time>2020-12-06T09:35:46.666000+00:00</time>
      </trkpt>
      <trkpt lat="47.35247" lon="-1.28231">
        <ele>56</ele>
        <time>2020-12-06T09:35:47.699000+00:00</time>
      </trkpt>
      <trkpt lat="0" lon="0">
        <time>2020-12-06T09:35:47.714000+00:00</time>
      </trkpt>
      <trkpt lat="0" lon="0">
        <time>2020-12-06T09:35:47.722000+00:00</time>
      </trkpt>
      <trkpt lat="0" lon="0">
        <time>2020-12-06T09:35:47.724000+00:00</time>
      </trkpt>
      <trkpt lat="47.35249" lon="-1.28237">
        <ele>57</ele>
        <time>2020-12-06T09:35:48.693000+00:00</time>
      </trkpt>
      <trkpt lat="0" lon="0">
        <time>2020-12-06T09:35:48.704000+00:00</time>
      </trkpt>
      <trkpt lat="0" lon="0">
        <time>2020-12-06T09:35:48.705000+00:00</time>
      </trkpt>
      <trkpt lat="0" lon="0">
        <time>2020-12-06T09:35:48.706000+00:00</time>
      </trkpt>
      <trkpt lat="47.3525" lon="-1.28243">
        <ele>57</ele>
        <time>2020-12-06T09:35:49.684000+00:00</time>
      </trkpt>
      <trkpt lat="0" lon="0">
        <time>2020-12-06T09:35:49.703000+00:00</time>
      </trkpt>
      <trkpt lat="0" lon="0">
        <time>2020-12-06T09:35:49.707000+00:00</time>
      </trkpt>
      <trkpt lat="0" lon="0">
        <time>2020-12-06T09:35:49.710000+00:00</time>
      </trkpt>
      <trkpt lat="47.3525" lon="-1.28249">
        <ele>57</ele>
        <time>2020-12-06T09:35:50.646000+00:00</time>
      </trkpt>
      <trkpt lat="0" lon="0">
        <time>2020-12-06T09:35:50.650000+00:00</time>
      </trkpt>
      <trkpt lat="0" lon="0">
        <time>2020-12-06T09:35:50.651000+00:00</time>
      </trkpt>
      <trkpt lat="47.3525" lon="-1.28254">
        <ele>57</ele>
        <time>2020-12-06T09:35:51.672000+00:00</time>
      </trkpt>
      <trkpt lat="0" lon="0">
        <time>2020-12-06T09:35:51.679000+00:00</time>
      </trkpt>
      <trkpt lat="0" lon="0">
        <time>2020-12-06T09:35:51.687000+00:00</time>
      </trkpt>
      <trkpt lat="0" lon="0">
        <time>2020-12-06T09:35:51.688000+00:00</time>
      </trkpt>
      <trkpt lat="47.35249" lon="-1.28259">
        <ele>57</ele>
        <time>2020-12-06T09:35:52.678000+00:00</time>
      </trkpt>
      <trkpt lat="0" lon="0">
        <time>2020-12-06T09:35:52.679000+00:00</time>
      </trkpt>
      <trkpt lat="0" lon="0">
        <time>2020-12-06T09:35:52.683000+00:00</time>
      </trkpt>
      <trkpt lat="0" lon="0">
        <time>2020-12-06T09:35:52.684000+00:00</time>
      </trkpt>
      <trkpt lat="47.35248" lon="-1.28265">
        <ele>57</ele>
        <time>2020-12-06T09:35:53.687000+00:00</time>
      </trkpt>
      <trkpt lat="0" lon="0">
        <time>2020-12-06T09:35:53.692000+00:00</time>
      </trkpt>
      <trkpt lat="0" lon="0">
        <time>2020-12-06T09:35:53.700000+00:00</time>
      </trkpt>
      <trkpt lat="0" lon="0">
        <time>2020-12-06T09:35:53.702000+00:00</time>
      </trkpt>
      <trkpt lat="47.35247" lon="-1.28271">
        <ele>57</ele>
        <time>2020-12-06T09:35:54.655000+00:00</time>
      </trkpt>
      <trkpt lat="0" lon="0">
        <time>2020-12-06T09:35:54.676000+00:00</time>
      </trkpt>
      <trkpt lat="0" lon="0">
        <time>2020-12-06T09:35:54.681000+00:00</time>
      </trkpt>
      <trkpt lat="0" lon="0">
        <time>2020-12-06T09:35:54.682000+00:00</time>
      </trkpt>
      <trkpt lat="47.35245" lon="-1.28277">
        <ele>57</ele>
        <time>2020-12-06T09:35:55.679000+00:00</time>
      </trkpt>
      <trkpt lat="0" lon="0">
        <time>2020-12-06T09:35:55.685000+00:00</time>
      </trkpt>
      <trkpt lat="0" lon="0">
        <time>2020-12-06T09:35:55.689000+00:00</time>
      </trkpt>
      <trkpt lat="0" lon="0">
        <time>2020-12-06T09:35:55.691000+00:00</time>
      </trkpt>
      <trkpt lat="47.35243" lon="-1.28283">
        <ele>57</ele>
        <time>2020-12-06T09:35:56.687000+00:00</time>
      </trkpt>
      <trkpt lat="0" lon="0">
        <time>2020-12-06T09:35:56.691000+00:00</time>
      </trkpt>
      <trkpt lat="0" lon="0">
        <time>2020-12-06T09:35:56.700000+00:00</time>
      </trkpt>
      <trkpt lat="0" lon="0">
        <time>2020-12-06T09:35:56.702000+00:00</time>
      </trkpt>
      <trkpt lat="47.35242" lon="-1.28289">
        <ele>57</ele>
        <time>2020-12-06T09:35:57.704000+00:00</time>
      </trkpt>
      <trkpt lat="0" lon="0">
        <time>2020-12-06T09:35:57.707000+00:00</time>
      </trkpt>
      <trkpt lat="0" lon="0">
        <time>2020-12-06T09:35:57.716000+00:00</time>
      </trkpt>
      <trkpt lat="0" lon="0">
        <time>2020-12-06T09:35:57.717000+00:00</time>
      </trkpt>
      <trkpt lat="47.3524" lon="-1.28295">
        <ele>57</ele>
        <time>2020-12-06T09:35:58.656000+00:00</time>
      </trkpt>
      <trkpt lat="0" lon="0">
        <time>2020-12-06T09:35:58.674000+00:00</time>
      </trkpt>
      <trkpt lat="0" lon="0">
        <time>2020-12-06T09:35:58.681000+00:00</time>
      </trkpt>
      <trkpt lat="0" lon="0">
        <time>2020-12-06T09:35:58.683000+00:00</time>
      </trkpt>
      <trkpt lat="47.3524" lon="-1.28301">
        <ele>57</ele>
        <time>2020-12-06T09:35:59.639000+00:00</time>
      </trkpt>
      <trkpt lat="0" lon="0">
        <time>2020-12-06T09:35:59.654000+00:00</time>
      </trkpt>
      <trkpt lat="0" lon="0">
        <time>2020-12-06T09:35:59.657000+00:00</time>
      </trkpt>
      <trkpt lat="0" lon="0">
        <time>2020-12-06T09:35:59.658000+00:00</time>
      </trkpt>
      <trkpt lat="47.3524" lon="-1.28308">
        <ele>57</ele>
        <time>2020-12-06T09:36:00.672000+00:00</time>
      </trkpt>
      <trkpt lat="0" lon="0">
        <time>2020-12-06T09:36:00.675000+00:00</time>
      </trkpt>
      <trkpt lat="0" lon="0">
        <time>2020-12-06T09:36:00.680000+00:00</time>
      </trkpt>
      <trkpt lat="0" lon="0">
        <time>2020-12-06T09:36:00.681000+00:00</time>
      </trkpt>
      <trkpt lat="47.3524" lon="-1.28315">
        <ele>57</ele>
        <time>2020-12-06T09:36:01.693000+00:00</time>
      </trkpt>
      <trkpt lat="0" lon="0">
        <time>2020-12-06T09:36:01.696000+00:00</time>
      </trkpt>
      <trkpt lat="0" lon="0">
        <time>2020-12-06T09:36:01.703000+00:00</time>
      </trkpt>
      <trkpt lat="0" lon="0">
        <time>2020-12-06T09:36:01.704000+00:00</time>
      </trkpt>
      <trkpt lat="47.35241" lon="-1.28321">
        <ele>57</ele>
        <time>2020-12-06T09:36:02.682000+00:00</time>
      </trkpt>
      <trkpt lat="0" lon="0">
        <time>2020-12-06T09:36:02.693000+00:00</time>
      </trkpt>
      <trkpt lat="0" lon="0">
        <time>2020-12-06T09:36:02.697000+00:00</time>
      </trkpt>
      <trkpt lat="0" lon="0">
        <time>2020-12-06T09:36:02.700000+00:00</time>
      </trkpt>
      <trkpt lat="47.35242" lon="-1.28328">
        <ele>57</ele>
        <time>2020-12-06T09:36:03.675000+00:00</time>
      </trkpt>
      <trkpt lat="0" lon="0">
        <time>2020-12-06T09:36:03.683000+00:00</time>
      </trkpt>
      <trkpt lat="0" lon="0">
        <time>2020-12-06T09:36:03.687000+00:00</time>
      </trkpt>
      <trkpt lat="0" lon="0">
        <time>2020-12-06T09:36:03.688000+00:00</time>
      </trkpt>
      <trkpt lat="47.35243" lon="-1.28336">
        <ele>57</ele>
        <time>2020-12-06T09:36:04.666000+00:00</time>
      </trkpt>
      <trkpt lat="0" lon="0">
        <time>2020-12-06T09:36:04.667000+00:00</time>
      </trkpt>
      <trkpt lat="0" lon="0">
        <time>2020-12-06T09:36:04.669000+00:00</time>
      </trkpt>
      <trkpt lat="0" lon="0">
        <time>2020-12-06T09:36:04.670000+00:00</time>
      </trkpt>
      <trkpt lat="47.35244" lon="-1.28343">
        <ele>57</ele>
        <time>2020-12-06T09:36:05.677000+00:00</time>
      </trkpt>
      <trkpt lat="0" lon="0">
        <time>2020-12-06T09:36:05.686000+00:00</time>
      </trkpt>
      <trkpt lat="0" lon="0">
        <time>2020-12-06T09:36:05.689000+00:00</time>
      </trkpt>
      <trkpt lat="0" lon="0">
        <time>2020-12-06T09:36:05.690000+00:00</time>
      </trkpt>
      <trkpt lat="47.35245" lon="-1.28351">
        <ele>57</ele>
        <time>2020-12-06T09:36:06.654000+00:00</time>
      </trkpt>
      <trkpt lat="0" lon="0">
        <time>2020-12-06T09:36:06.663000+00:00</time>
      </trkpt>
      <trkpt lat="0" lon="0">
        <time>2020-12-06T09:36:06.672000+00:00</time>
      </trkpt>
      <trkpt lat="0" lon="0">
        <time>2020-12-06T09:36:06.676000+00:00</time>
      </trkpt>
      <trkpt lat="47.35247" lon="-1.28358">
        <ele>57</ele>
        <time>2020-12-06T09:36:07.672000+00:00</time>
      </trkpt>
      <trkpt lat="0" lon="0">
        <time>2020-12-06T09:36:07.675000+00:00</time>
      </trkpt>
      <trkpt lat="0" lon="0">
        <time>2020-12-06T09:36:07.691000+00:00</time>
      </trkpt>
      <trkpt lat="0" lon="0">
        <time>2020-12-06T09:36:07.693000+00:00</time>
      </trkpt>
      <trkpt lat="47.35248" lon="-1.28366">
        <ele>57</ele>
        <time>2020-12-06T09:36:08.680000+00:00</time>
      </trkpt>
      <trkpt lat="0" lon="0">
        <time>2020-12-06T09:36:08.686000+00:00</time>
      </trkpt>
      <trkpt lat="0" lon="0">
        <time>2020-12-06T09:36:08.695000+00:00</time>
      </trkpt>
      <trkpt lat="0" lon="0">
        <time>2020-12-06T09:36:08.698000+00:00</time>
      </trkpt>
      <trkpt lat="47.3525" lon="-1.28373">
        <ele>57</ele>
        <time>2020-12-06T09:36:09.666000+00:00</time>
      </trkpt>
      <trkpt lat="0" lon="0">
        <time>2020-12-06T09:36:09.685000+00:00</time>
      </trkpt>
      <trkpt lat="0" lon="0">
        <time>2020-12-06T09:36:09.686000+00:00</time>
      </trkpt>
      <trkpt lat="47.35252" lon="-1.2838">
        <ele>57</ele>
        <time>2020-12-06T09:36:10.745000+00:00</time>
      </trkpt>
      <trkpt lat="0" lon="0">
        <time>2020-12-06T09:36:10.749000+00:00</time>
      </trkpt>
      <trkpt lat="0" lon="0">
        <time>2020-12-06T09:36:10.751000+00:00</time>
      </trkpt>
      <trkpt lat="47.35254" lon="-1.28387">
        <ele>57</ele>
        <time>2020-12-06T09:36:11.718000+00:00</time>
      </trkpt>
      <trkpt lat="0" lon="0">
        <time>2020-12-06T09:36:11.720000+00:00</time>
      </trkpt>
      <trkpt lat="0" lon="0">
        <time>2020-12-06T09:36:11.722000+00:00</time>
      </trkpt>
      <trkpt lat="0" lon="0">
        <time>2020-12-06T09:36:11.723000+00:00</time>
      </trkpt>
      <trkpt lat="47.35257" lon="-1.28394">
        <ele>57</ele>
        <time>2020-12-06T09:36:12.679000+00:00</time>
      </trkpt>
      <trkpt lat="0" lon="0">
        <time>2020-12-06T09:36:12.693000+00:00</time>
      </trkpt>
      <trkpt lat="0" lon="0">
        <time>2020-12-06T09:36:12.698000+00:00</time>
      </trkpt>
      <trkpt lat="0" lon="0">
        <time>2020-12-06T09:36:12.699000+00:00</time>
      </trkpt>
      <trkpt lat="47.35258" lon="-1.28402">
        <ele>57</ele>
        <time>2020-12-06T09:36:13.669000+00:00</time>
      </trkpt>
      <trkpt lat="0" lon="0">
        <time>2020-12-06T09:36:13.674000+00:00</time>
      </trkpt>
      <trkpt lat="0" lon="0">
        <time>2020-12-06T09:36:13.684000+00:00</time>
      </trkpt>
      <trkpt lat="0" lon="0">
        <time>2020-12-06T09:36:13.686000+00:00</time>
      </trkpt>
      <trkpt lat="47.3526" lon="-1.28409">
        <ele>56</ele>
        <time>2020-12-06T09:36:14.641000+00:00</time>
      </trkpt>
      <trkpt lat="0" lon="0">
        <time>2020-12-06T09:36:14.649000+00:00</time>
      </trkpt>
      <trkpt lat="0" lon="0">
        <time>2020-12-06T09:36:14.651000+00:00</time>
      </trkpt>
      <trkpt lat="0" lon="0">
        <time>2020-12-06T09:36:14.652000+00:00</time>
      </trkpt>
      <trkpt lat="47.35262" lon="-1.28416">
        <ele>56</ele>
        <time>2020-12-06T09:36:15.669000+00:00</time>
      </trkpt>
      <trkpt lat="0" lon="0">
        <time>2020-12-06T09:36:15.685000+00:00</time>
      </trkpt>
      <trkpt lat="0" lon="0">
        <time>2020-12-06T09:36:15.692000+00:00</time>
      </trkpt>
      <trkpt lat="0" lon="0">
        <time>2020-12-06T09:36:15.698000+00:00</time>
      </trkpt>
      <trkpt lat="47.35263" lon="-1.28422">
        <ele>56</ele>
        <time>2020-12-06T09:36:16.629000+00:00</time>
      </trkpt>
      <trkpt lat="0" lon="0">
        <time>2020-12-06T09:36:16.631000+00:00</time>
      </trkpt>
      <trkpt lat="0" lon="0">
        <time>2020-12-06T09:36:16.637000+00:00</time>
      </trkpt>
      <trkpt lat="0" lon="0">
        <time>2020-12-06T09:36:16.639000+00:00</time>
      </trkpt>
      <trkpt lat="47.35263" lon="-1.28429">
        <ele>56</ele>
        <time>2020-12-06T09:36:17.616000+00:00</time>
      </trkpt>
      <trkpt lat="0" lon="0">
        <time>2020-12-06T09:36:17.619000+00:00</time>
      </trkpt>
      <trkpt lat="0" lon="0">
        <time>2020-12-06T09:36:17.620000+00:00</time>
      </trkpt>
      <trkpt lat="0" lon="0">
        <time>2020-12-06T09:36:17.621000+00:00</time>
      </trkpt>
      <trkpt lat="47.35263" lon="-1.28435">
        <ele>55</ele>
        <time>2020-12-06T09:36:18.645000+00:00</time>
      </trkpt>
      <trkpt lat="0" lon="0">
        <time>2020-12-06T09:36:18.666000+00:00</time>
      </trkpt>
      <trkpt lat="0" lon="0">
        <time>2020-12-06T09:36:18.669000+00:00</time>
      </trkpt>
      <trkpt lat="0" lon="0">
        <time>2020-12-06T09:36:18.671000+00:00</time>
      </trkpt>
      <trkpt lat="47.35262" lon="-1.2844">
        <ele>55</ele>
        <time>2020-12-06T09:36:19.657000+00:00</time>
      </trkpt>
      <trkpt lat="0" lon="0">
        <time>2020-12-06T09:36:19.660000+00:00</time>
      </trkpt>
      <trkpt lat="0" lon="0">
        <time>2020-12-06T09:36:19.670000+00:00</time>
      </trkpt>
      <trkpt lat="0" lon="0">
        <time>2020-12-06T09:36:19.672000+00:00</time>
      </trkpt>
      <trkpt lat="47.3526" lon="-1.28445">
        <ele>55</ele>
        <time>2020-12-06T09:36:20.635000+00:00</time>
      </trkpt>
      <trkpt lat="0" lon="0">
        <time>2020-12-06T09:36:20.647000+00:00</time>
      </trkpt>
      <trkpt lat="0" lon="0">
        <time>2020-12-06T09:36:20.649000+00:00</time>
      </trkpt>
      <trkpt lat="0" lon="0">
        <time>2020-12-06T09:36:20.650000+00:00</time>
      </trkpt>
      <trkpt lat="47.35257" lon="-1.28449">
        <ele>54</ele>
        <time>2020-12-06T09:36:21.651000+00:00</time>
      </trkpt>
      <trkpt lat="0" lon="0">
        <time>2020-12-06T09:36:21.661000+00:00</time>
      </trkpt>
      <trkpt lat="0" lon="0">
        <time>2020-12-06T09:36:21.675000+00:00</time>
      </trkpt>
      <trkpt lat="0" lon="0">
        <time>2020-12-06T09:36:21.677000+00:00</time>
      </trkpt>
      <trkpt lat="47.35254" lon="-1.28453">
        <ele>54</ele>
        <time>2020-12-06T09:36:22.668000+00:00</time>
      </trkpt>
      <trkpt lat="0" lon="0">
        <time>2020-12-06T09:36:22.669000+00:00</time>
      </trkpt>
      <trkpt lat="0" lon="0">
        <time>2020-12-06T09:36:22.670000+00:00</time>
      </trkpt>
      <trkpt lat="0" lon="0">
        <time>2020-12-06T09:36:22.671000+00:00</time>
      </trkpt>
      <trkpt lat="47.3525" lon="-1.28456">
        <ele>54</ele>
        <time>2020-12-06T09:36:23.692000+00:00</time>
      </trkpt>
      <trkpt lat="0" lon="0">
        <time>2020-12-06T09:36:23.707000+00:00</time>
      </trkpt>
      <trkpt lat="0" lon="0">
        <time>2020-12-06T09:36:23.708000+00:00</time>
      </trkpt>
      <trkpt lat="0" lon="0">
        <time>2020-12-06T09:36:23.709000+00:00</time>
      </trkpt>
      <trkpt lat="47.35246" lon="-1.28458">
        <ele>54</ele>
        <time>2020-12-06T09:36:24.687000+00:00</time>
      </trkpt>
      <trkpt lat="0" lon="0">
        <time>2020-12-06T09:36:24.693000+00:00</time>
      </trkpt>
      <trkpt lat="0" lon="0">
        <time>2020-12-06T09:36:24.707000+00:00</time>
      </trkpt>
      <trkpt lat="0" lon="0">
        <time>2020-12-06T09:36:24.709000+00:00</time>
      </trkpt>
      <trkpt lat="47.35241" lon="-1.28461">
        <ele>54</ele>
        <time>2020-12-06T09:36:25.686000+00:00</time>
      </trkpt>
      <trkpt lat="0" lon="0">
        <time>2020-12-06T09:36:25.699000+00:00</time>
      </trkpt>
      <trkpt lat="0" lon="0">
        <time>2020-12-06T09:36:25.709000+00:00</time>
      </trkpt>
      <trkpt lat="0" lon="0">
        <time>2020-12-06T09:36:25.710000+00:00</time>
      </trkpt>
      <trkpt lat="47.35236" lon="-1.28463">
        <ele>53</ele>
        <time>2020-12-06T09:36:26.692000+00:00</time>
      </trkpt>
      <trkpt lat="0" lon="0">
        <time>2020-12-06T09:36:26.695000+00:00</time>
      </trkpt>
      <trkpt lat="0" lon="0">
        <time>2020-12-06T09:36:26.704000+00:00</time>
      </trkpt>
      <trkpt lat="0" lon="0">
        <time>2020-12-06T09:36:26.707000+00:00</time>
      </trkpt>
      <trkpt lat="47.35231" lon="-1.28466">
        <ele>53</ele>
        <time>2020-12-06T09:36:27.713000+00:00</time>
      </trkpt>
      <trkpt lat="0" lon="0">
        <time>2020-12-06T09:36:27.715000+00:00</time>
      </trkpt>
      <trkpt lat="0" lon="0">
        <time>2020-12-06T09:36:27.722000+00:00</time>
      </trkpt>
      <trkpt lat="0" lon="0">
        <time>2020-12-06T09:36:27.724000+00:00</time>
      </trkpt>
      <trkpt lat="47.35226" lon="-1.28469">
        <ele>53</ele>
        <time>2020-12-06T09:36:28.671000+00:00</time>
      </trkpt>
      <trkpt lat="0" lon="0">
        <time>2020-12-06T09:36:28.682000+00:00</time>
      </trkpt>
      <trkpt lat="0" lon="0">
        <time>2020-12-06T09:36:28.698000+00:00</time>
      </trkpt>
      <trkpt lat="0" lon="0">
        <time>2020-12-06T09:36:28.700000+00:00</time>
      </trkpt>
      <trkpt lat="47.35221" lon="-1.28472">
        <ele>53</ele>
        <time>2020-12-06T09:36:29.602000+00:00</time>
      </trkpt>
      <trkpt lat="0" lon="0">
        <time>2020-12-06T09:36:29.611000+00:00</time>
      </trkpt>
      <trkpt lat="0" lon="0">
        <time>2020-12-06T09:36:29.614000+00:00</time>
      </trkpt>
      <trkpt lat="0" lon="0">
        <time>2020-12-06T09:36:29.616000+00:00</time>
      </trkpt>
      <trkpt lat="47.35216" lon="-1.28475">
        <ele>53</ele>
        <time>2020-12-06T09:36:30.667000+00:00</time>
      </trkpt>
      <trkpt lat="0" lon="0">
        <time>2020-12-06T09:36:30.684000+00:00</time>
      </trkpt>
      <trkpt lat="0" lon="0">
        <time>2020-12-06T09:36:30.688000+00:00</time>
      </trkpt>
      <trkpt lat="0" lon="0">
        <time>2020-12-06T09:36:30.692000+00:00</time>
      </trkpt>
      <trkpt lat="47.35212" lon="-1.28478">
        <ele>52</ele>
        <time>2020-12-06T09:36:31.657000+00:00</time>
      </trkpt>
      <trkpt lat="0" lon="0">
        <time>2020-12-06T09:36:31.670000+00:00</time>
      </trkpt>
      <trkpt lat="0" lon="0">
        <time>2020-12-06T09:36:31.672000+00:00</time>
      </trkpt>
      <trkpt lat="0" lon="0">
        <time>2020-12-06T09:36:31.675000+00:00</time>
      </trkpt>
      <trkpt lat="47.35207" lon="-1.28481">
        <ele>52</ele>
        <time>2020-12-06T09:36:32.671000+00:00</time>
      </trkpt>
      <trkpt lat="0" lon="0">
        <time>2020-12-06T09:36:32.689000+00:00</time>
      </trkpt>
      <trkpt lat="0" lon="0">
        <time>2020-12-06T09:36:32.696000+00:00</time>
      </trkpt>
      <trkpt lat="0" lon="0">
        <time>2020-12-06T09:36:32.700000+00:00</time>
      </trkpt>
      <trkpt lat="47.35202" lon="-1.28484">
        <ele>52</ele>
        <time>2020-12-06T09:36:33.662000+00:00</time>
      </trkpt>
      <trkpt lat="0" lon="0">
        <time>2020-12-06T09:36:33.665000+00:00</time>
      </trkpt>
      <trkpt lat="0" lon="0">
        <time>2020-12-06T09:36:33.668000+00:00</time>
      </trkpt>
      <trkpt lat="0" lon="0">
        <time>2020-12-06T09:36:33.670000+00:00</time>
      </trkpt>
      <trkpt lat="47.35197" lon="-1.28487">
        <ele>52</ele>
        <time>2020-12-06T09:36:34.674000+00:00</time>
      </trkpt>
      <trkpt lat="0" lon="0">
        <time>2020-12-06T09:36:34.689000+00:00</time>
      </trkpt>
      <trkpt lat="0" lon="0">
        <time>2020-12-06T09:36:34.711000+00:00</time>
      </trkpt>
      <trkpt lat="0" lon="0">
        <time>2020-12-06T09:36:34.712000+00:00</time>
      </trkpt>
      <trkpt lat="47.35193" lon="-1.2849">
        <ele>52</ele>
        <time>2020-12-06T09:36:35.675000+00:00</time>
      </trkpt>
      <trkpt lat="0" lon="0">
        <time>2020-12-06T09:36:35.677000+00:00</time>
      </trkpt>
      <trkpt lat="0" lon="0">
        <time>2020-12-06T09:36:35.679000+00:00</time>
      </trkpt>
      <trkpt lat="47.35188" lon="-1.28493">
        <ele>52</ele>
        <time>2020-12-06T09:36:36.673000+00:00</time>
      </trkpt>
      <trkpt lat="0" lon="0">
        <time>2020-12-06T09:36:36.683000+00:00</time>
      </trkpt>
      <trkpt lat="0" lon="0">
        <time>2020-12-06T09:36:36.687000+00:00</time>
      </trkpt>
      <trkpt lat="0" lon="0">
        <time>2020-12-06T09:36:36.689000+00:00</time>
      </trkpt>
      <trkpt lat="47.35183" lon="-1.28496">
        <ele>52</ele>
        <time>2020-12-06T09:36:37.671000+00:00</time>
      </trkpt>
      <trkpt lat="0" lon="0">
        <time>2020-12-06T09:36:37.680000+00:00</time>
      </trkpt>
      <trkpt lat="0" lon="0">
        <time>2020-12-06T09:36:37.691000+00:00</time>
      </trkpt>
      <trkpt lat="0" lon="0">
        <time>2020-12-06T09:36:37.695000+00:00</time>
      </trkpt>
      <trkpt lat="47.35178" lon="-1.28498">
        <ele>52</ele>
        <time>2020-12-06T09:36:38.655000+00:00</time>
      </trkpt>
      <trkpt lat="0" lon="0">
        <time>2020-12-06T09:36:38.660000+00:00</time>
      </trkpt>
      <trkpt lat="0" lon="0">
        <time>2020-12-06T09:36:38.664000+00:00</time>
      </trkpt>
      <trkpt lat="0" lon="0">
        <time>2020-12-06T09:36:38.667000+00:00</time>
      </trkpt>
      <trkpt lat="47.35174" lon="-1.28501">
        <ele>51</ele>
        <time>2020-12-06T09:36:39.688000+00:00</time>
      </trkpt>
      <trkpt lat="0" lon="0">
        <time>2020-12-06T09:36:39.692000+00:00</time>
      </trkpt>
      <trkpt lat="0" lon="0">
        <time>2020-12-06T09:36:39.708000+00:00</time>
      </trkpt>
      <trkpt lat="0" lon="0">
        <time>2020-12-06T09:36:39.709000+00:00</time>
      </trkpt>
      <trkpt lat="47.3517" lon="-1.28503">
        <ele>51</ele>
        <time>2020-12-06T09:36:40.692000+00:00</time>
      </trkpt>
      <trkpt lat="0" lon="0">
        <time>2020-12-06T09:36:40.703000+00:00</time>
      </trkpt>
      <trkpt lat="0" lon="0">
        <time>2020-12-06T09:36:40.715000+00:00</time>
      </trkpt>
      <trkpt lat="0" lon="0">
        <time>2020-12-06T09:36:40.719000+00:00</time>
      </trkpt>
      <trkpt lat="47.35166" lon="-1.28505">
        <ele>51</ele>
        <time>2020-12-06T09:36:41.658000+00:00</time>
      </trkpt>
      <trkpt lat="0" lon="0">
        <time>2020-12-06T09:36:41.664000+00:00</time>
      </trkpt>
      <trkpt lat="0" lon="0">
        <time>2020-12-06T09:36:41.667000+00:00</time>
      </trkpt>
      <trkpt lat="0" lon="0">
        <time>2020-12-06T09:36:41.669000+00:00</time>
      </trkpt>
      <trkpt lat="47.35162" lon="-1.28507">
        <ele>51</ele>
        <time>2020-12-06T09:36:42.700000+00:00</time>
      </trkpt>
      <trkpt lat="0" lon="0">
        <time>2020-12-06T09:36:42.722000+00:00</time>
      </trkpt>
      <trkpt lat="0" lon="0">
        <time>2020-12-06T09:36:42.728000+00:00</time>
      </trkpt>
      <trkpt lat="0" lon="0">
        <time>2020-12-06T09:36:42.730000+00:00</time>
      </trkpt>
      <trkpt lat="47.35159" lon="-1.2851">
        <ele>51</ele>
        <time>2020-12-06T09:36:43.678000+00:00</time>
      </trkpt>
      <trkpt lat="0" lon="0">
        <time>2020-12-06T09:36:43.688000+00:00</time>
      </trkpt>
      <trkpt lat="0" lon="0">
        <time>2020-12-06T09:36:43.693000+00:00</time>
      </trkpt>
      <trkpt lat="0" lon="0">
        <time>2020-12-06T09:36:43.695000+00:00</time>
      </trkpt>
      <trkpt lat="47.35156" lon="-1.28512">
        <ele>51</ele>
        <time>2020-12-06T09:36:44.666000+00:00</time>
      </trkpt>
      <trkpt lat="0" lon="0">
        <time>2020-12-06T09:36:44.673000+00:00</time>
      </trkpt>
      <trkpt lat="0" lon="0">
        <time>2020-12-06T09:36:44.677000+00:00</time>
      </trkpt>
      <trkpt lat="0" lon="0">
        <time>2020-12-06T09:36:44.681000+00:00</time>
      </trkpt>
      <trkpt lat="47.35154" lon="-1.28516">
        <ele>51</ele>
        <time>2020-12-06T09:36:45.677000+00:00</time>
      </trkpt>
      <trkpt lat="0" lon="0">
        <time>2020-12-06T09:36:45.687000+00:00</time>
      </trkpt>
      <trkpt lat="0" lon="0">
        <time>2020-12-06T09:36:45.690000+00:00</time>
      </trkpt>
      <trkpt lat="0" lon="0">
        <time>2020-12-06T09:36:45.692000+00:00</time>
      </trkpt>
      <trkpt lat="47.35153" lon="-1.2852">
        <ele>51</ele>
        <time>2020-12-06T09:36:46.652000+00:00</time>
      </trkpt>
      <trkpt lat="0" lon="0">
        <time>2020-12-06T09:36:46.664000+00:00</time>
      </trkpt>
      <trkpt lat="0" lon="0">
        <time>2020-12-06T09:36:46.669000+00:00</time>
      </trkpt>
      <trkpt lat="0" lon="0">
        <time>2020-12-06T09:36:46.675000+00:00</time>
      </trkpt>
      <trkpt lat="47.35152" lon="-1.28524">
        <ele>51</ele>
        <time>2020-12-06T09:36:47.672000+00:00</time>
      </trkpt>
      <trkpt lat="0" lon="0">
        <time>2020-12-06T09:36:47.681000+00:00</time>
      </trkpt>
      <trkpt lat="0" lon="0">
        <time>2020-12-06T09:36:47.686000+00:00</time>
      </trkpt>
      <trkpt lat="0" lon="0">
        <time>2020-12-06T09:36:47.688000+00:00</time>
      </trkpt>
      <trkpt lat="47.35152" lon="-1.28529">
        <ele>51</ele>
        <time>2020-12-06T09:36:48.644000+00:00</time>
      </trkpt>
      <trkpt lat="0" lon="0">
        <time>2020-12-06T09:36:48.652000+00:00</time>
      </trkpt>
      <trkpt lat="0" lon="0">
        <time>2020-12-06T09:36:48.655000+00:00</time>
      </trkpt>
      <trkpt lat="0" lon="0">
        <time>2020-12-06T09:36:48.658000+00:00</time>
      </trkpt>
      <trkpt lat="47.35152" lon="-1.28535">
        <ele>51</ele>
        <time>2020-12-06T09:36:49.690000+00:00</time>
      </trkpt>
      <trkpt lat="0" lon="0">
        <time>2020-12-06T09:36:49.701000+00:00</time>
      </trkpt>
      <trkpt lat="0" lon="0">
        <time>2020-12-06T09:36:49.706000+00:00</time>
      </trkpt>
      <trkpt lat="0" lon="0">
        <time>2020-12-06T09:36:49.708000+00:00</time>
      </trkpt>
      <trkpt lat="47.35152" lon="-1.28541">
        <ele>51</ele>
        <time>2020-12-06T09:36:50.666000+00:00</time>
      </trkpt>
      <trkpt lat="0" lon="0">
        <time>2020-12-06T09:36:50.669000+00:00</time>
      </trkpt>
      <trkpt lat="0" lon="0">
        <time>2020-12-06T09:36:50.677000+00:00</time>
      </trkpt>
      <trkpt lat="0" lon="0">
        <time>2020-12-06T09:36:50.679000+00:00</time>
      </trkpt>
      <trkpt lat="47.35153" lon="-1.28549">
        <ele>50</ele>
        <time>2020-12-06T09:36:51.680000+00:00</time>
      </trkpt>
      <trkpt lat="0" lon="0">
        <time>2020-12-06T09:36:51.694000+00:00</time>
      </trkpt>
      <trkpt lat="0" lon="0">
        <time>2020-12-06T09:36:51.700000+00:00</time>
      </trkpt>
      <trkpt lat="0" lon="0">
        <time>2020-12-06T09:36:51.704000+00:00</time>
      </trkpt>
      <trkpt lat="47.35154" lon="-1.28556">
        <ele>50</ele>
        <time>2020-12-06T09:36:52.652000+00:00</time>
      </trkpt>
      <trkpt lat="0" lon="0">
        <time>2020-12-06T09:36:52.656000+00:00</time>
      </trkpt>
      <trkpt lat="0" lon="0">
        <time>2020-12-06T09:36:52.660000+00:00</time>
      </trkpt>
      <trkpt lat="0" lon="0">
        <time>2020-12-06T09:36:52.662000+00:00</time>
      </trkpt>
      <trkpt lat="47.35155" lon="-1.28564">
        <ele>50</ele>
        <time>2020-12-06T09:36:53.688000+00:00</time>
      </trkpt>
      <trkpt lat="0" lon="0">
        <time>2020-12-06T09:36:53.697000+00:00</time>
      </trkpt>
      <trkpt lat="0" lon="0">
        <time>2020-12-06T09:36:53.700000+00:00</time>
      </trkpt>
      <trkpt lat="0" lon="0">
        <time>2020-12-06T09:36:53.703000+00:00</time>
      </trkpt>
      <trkpt lat="47.35156" lon="-1.28572">
        <ele>50</ele>
        <time>2020-12-06T09:36:54.687000+00:00</time>
      </trkpt>
      <trkpt lat="0" lon="0">
        <time>2020-12-06T09:36:54.690000+00:00</time>
      </trkpt>
      <trkpt lat="0" lon="0">
        <time>2020-12-06T09:36:54.696000+00:00</time>
      </trkpt>
      <trkpt lat="0" lon="0">
        <time>2020-12-06T09:36:54.698000+00:00</time>
      </trkpt>
      <trkpt lat="47.35158" lon="-1.2858">
        <ele>50</ele>
        <time>2020-12-06T09:36:55.683000+00:00</time>
      </trkpt>
      <trkpt lat="0" lon="0">
        <time>2020-12-06T09:36:55.690000+00:00</time>
      </trkpt>
      <trkpt lat="0" lon="0">
        <time>2020-12-06T09:36:55.692000+00:00</time>
      </trkpt>
      <trkpt lat="0" lon="0">
        <time>2020-12-06T09:36:55.694000+00:00</time>
      </trkpt>
      <trkpt lat="47.35159" lon="-1.28587">
        <ele>49</ele>
        <time>2020-12-06T09:36:56.688000+00:00</time>
      </trkpt>
      <trkpt lat="0" lon="0">
        <time>2020-12-06T09:36:56.695000+00:00</time>
      </trkpt>
      <trkpt lat="0" lon="0">
        <time>2020-12-06T09:36:56.701000+00:00</time>
      </trkpt>
      <trkpt lat="0" lon="0">
        <time>2020-12-06T09:36:56.709000+00:00</time>
      </trkpt>
      <trkpt lat="47.35161" lon="-1.28594">
        <ele>49</ele>
        <time>2020-12-06T09:36:57.718000+00:00</time>
      </trkpt>
      <trkpt lat="0" lon="0">
        <time>2020-12-06T09:36:57.722000+00:00</time>
      </trkpt>
      <trkpt lat="0" lon="0">
        <time>2020-12-06T09:36:57.724000+00:00</time>
      </trkpt>
      <trkpt lat="0" lon="0">
        <time>2020-12-06T09:36:57.725000+00:00</time>
      </trkpt>
      <trkpt lat="47.35162" lon="-1.28599">
        <ele>49</ele>
        <time>2020-12-06T09:36:58.692000+00:00</time>
      </trkpt>
      <trkpt lat="0" lon="0">
        <time>2020-12-06T09:36:58.695000+00:00</time>
      </trkpt>
      <trkpt lat="0" lon="0">
        <time>2020-12-06T09:36:58.702000+00:00</time>
      </trkpt>
      <trkpt lat="0" lon="0">
        <time>2020-12-06T09:36:58.705000+00:00</time>
      </trkpt>
      <trkpt lat="47.35163" lon="-1.28605">
        <ele>49</ele>
        <time>2020-12-06T09:36:59.724000+00:00</time>
      </trkpt>
      <trkpt lat="0" lon="0">
        <time>2020-12-06T09:36:59.733000+00:00</time>
      </trkpt>
      <trkpt lat="0" lon="0">
        <time>2020-12-06T09:36:59.737000+00:00</time>
      </trkpt>
      <trkpt lat="0" lon="0">
        <time>2020-12-06T09:36:59.739000+00:00</time>
      </trkpt>
      <trkpt lat="47.35164" lon="-1.2861">
        <ele>49</ele>
        <time>2020-12-06T09:37:00.672000+00:00</time>
      </trkpt>
      <trkpt lat="0" lon="0">
        <time>2020-12-06T09:37:00.679000+00:00</time>
      </trkpt>
      <trkpt lat="0" lon="0">
        <time>2020-12-06T09:37:00.686000+00:00</time>
      </trkpt>
      <trkpt lat="0" lon="0">
        <time>2020-12-06T09:37:00.688000+00:00</time>
      </trkpt>
      <trkpt lat="47.35164" lon="-1.28615">
        <ele>49</ele>
        <time>2020-12-06T09:37:01.658000+00:00</time>
      </trkpt>
      <trkpt lat="0" lon="0">
        <time>2020-12-06T09:37:01.664000+00:00</time>
      </trkpt>
      <trkpt lat="0" lon="0">
        <time>2020-12-06T09:37:01.668000+00:00</time>
      </trkpt>
      <trkpt lat="0" lon="0">
        <time>2020-12-06T09:37:01.670000+00:00</time>
      </trkpt>
      <trkpt lat="47.35163" lon="-1.2862">
        <ele>49</ele>
        <time>2020-12-06T09:37:02.686000+00:00</time>
      </trkpt>
      <trkpt lat="0" lon="0">
        <time>2020-12-06T09:37:02.698000+00:00</time>
      </trkpt>
      <trkpt lat="0" lon="0">
        <time>2020-12-06T09:37:02.706000+00:00</time>
      </trkpt>
      <trkpt lat="0" lon="0">
        <time>2020-12-06T09:37:02.707000+00:00</time>
      </trkpt>
      <trkpt lat="47.35162" lon="-1.28625">
        <ele>49</ele>
        <time>2020-12-06T09:37:03.684000+00:00</time>
      </trkpt>
      <trkpt lat="0" lon="0">
        <time>2020-12-06T09:37:03.688000+00:00</time>
      </trkpt>
      <trkpt lat="0" lon="0">
        <time>2020-12-06T09:37:03.698000+00:00</time>
      </trkpt>
      <trkpt lat="0" lon="0">
        <time>2020-12-06T09:37:03.702000+00:00</time>
      </trkpt>
      <trkpt lat="47.3516" lon="-1.2863">
        <ele>49</ele>
        <time>2020-12-06T09:37:04.706000+00:00</time>
      </trkpt>
      <trkpt lat="0" lon="0">
        <time>2020-12-06T09:37:04.709000+00:00</time>
      </trkpt>
      <trkpt lat="0" lon="0">
        <time>2020-12-06T09:37:04.722000+00:00</time>
      </trkpt>
      <trkpt lat="0" lon="0">
        <time>2020-12-06T09:37:04.723000+00:00</time>
      </trkpt>
      <trkpt lat="47.35157" lon="-1.28635">
        <ele>49</ele>
        <time>2020-12-06T09:37:05.675000+00:00</time>
      </trkpt>
      <trkpt lat="0" lon="0">
        <time>2020-12-06T09:37:05.677000+00:00</time>
      </trkpt>
      <trkpt lat="0" lon="0">
        <time>2020-12-06T09:37:05.679000+00:00</time>
      </trkpt>
      <trkpt lat="0" lon="0">
        <time>2020-12-06T09:37:05.680000+00:00</time>
      </trkpt>
      <trkpt lat="47.35155" lon="-1.2864">
        <ele>49</ele>
        <time>2020-12-06T09:37:06.725000+00:00</time>
      </trkpt>
      <trkpt lat="0" lon="0">
        <time>2020-12-06T09:37:06.734000+00:00</time>
      </trkpt>
      <trkpt lat="0" lon="0">
        <time>2020-12-06T09:37:06.738000+00:00</time>
      </trkpt>
      <trkpt lat="0" lon="0">
        <time>2020-12-06T09:37:06.743000+00:00</time>
      </trkpt>
      <trkpt lat="47.35151" lon="-1.28645">
        <ele>49</ele>
        <time>2020-12-06T09:37:07.667000+00:00</time>
      </trkpt>
      <trkpt lat="0" lon="0">
        <time>2020-12-06T09:37:07.668000+00:00</time>
      </trkpt>
      <trkpt lat="0" lon="0">
        <time>2020-12-06T09:37:07.670000+00:00</time>
      </trkpt>
      <trkpt lat="0" lon="0">
        <time>2020-12-06T09:37:07.671000+00:00</time>
      </trkpt>
      <trkpt lat="47.35148" lon="-1.28651">
        <ele>49</ele>
        <time>2020-12-06T09:37:08.731000+00:00</time>
      </trkpt>
      <trkpt lat="0" lon="0">
        <time>2020-12-06T09:37:08.748000+00:00</time>
      </trkpt>
      <trkpt lat="0" lon="0">
        <time>2020-12-06T09:37:08.749000+00:00</time>
      </trkpt>
      <trkpt lat="0" lon="0">
        <time>2020-12-06T09:37:08.750000+00:00</time>
      </trkpt>
      <trkpt lat="47.35144" lon="-1.28656">
        <ele>48</ele>
        <time>2020-12-06T09:37:09.723000+00:00</time>
      </trkpt>
      <trkpt lat="0" lon="0">
        <time>2020-12-06T09:37:09.735000+00:00</time>
      </trkpt>
      <trkpt lat="0" lon="0">
        <time>2020-12-06T09:37:09.741000+00:00</time>
      </trkpt>
      <trkpt lat="0" lon="0">
        <time>2020-12-06T09:37:09.749000+00:00</time>
      </trkpt>
      <trkpt lat="47.3514" lon="-1.28663">
        <ele>48</ele>
        <time>2020-12-06T09:37:10.712000+00:00</time>
      </trkpt>
      <trkpt lat="0" lon="0">
        <time>2020-12-06T09:37:10.720000+00:00</time>
      </trkpt>
      <trkpt lat="0" lon="0">
        <time>2020-12-06T09:37:10.728000+00:00</time>
      </trkpt>
      <trkpt lat="0" lon="0">
        <time>2020-12-06T09:37:10.729000+00:00</time>
      </trkpt>
      <trkpt lat="47.35135" lon="-1.2867">
        <ele>48</ele>
        <time>2020-12-06T09:37:11.709000+00:00</time>
      </trkpt>
      <trkpt lat="0" lon="0">
        <time>2020-12-06T09:37:11.719000+00:00</time>
      </trkpt>
      <trkpt lat="0" lon="0">
        <time>2020-12-06T09:37:11.720000+00:00</time>
      </trkpt>
      <trkpt lat="0" lon="0">
        <time>2020-12-06T09:37:11.721000+00:00</time>
      </trkpt>
      <trkpt lat="47.35131" lon="-1.28677">
        <ele>47</ele>
        <time>2020-12-06T09:37:12.708000+00:00</time>
      </trkpt>
      <trkpt lat="0" lon="0">
        <time>2020-12-06T09:37:12.711000+00:00</time>
      </trkpt>
      <trkpt lat="0" lon="0">
        <time>2020-12-06T09:37:12.715000+00:00</time>
      </trkpt>
      <trkpt lat="0" lon="0">
        <time>2020-12-06T09:37:12.720000+00:00</time>
      </trkpt>
      <trkpt lat="47.35127" lon="-1.28685">
        <ele>46</ele>
        <time>2020-12-06T09:37:13.697000+00:00</time>
      </trkpt>
      <trkpt lat="0" lon="0">
        <time>2020-12-06T09:37:13.700000+00:00</time>
      </trkpt>
      <trkpt lat="0" lon="0">
        <time>2020-12-06T09:37:13.702000+00:00</time>
      </trkpt>
      <trkpt lat="0" lon="0">
        <time>2020-12-06T09:37:13.703000+00:00</time>
      </trkpt>
      <trkpt lat="47.35123" lon="-1.28693">
        <ele>46</ele>
        <time>2020-12-06T09:37:14.701000+00:00</time>
      </trkpt>
      <trkpt lat="0" lon="0">
        <time>2020-12-06T09:37:14.703000+00:00</time>
      </trkpt>
      <trkpt lat="0" lon="0">
        <time>2020-12-06T09:37:14.705000+00:00</time>
      </trkpt>
      <trkpt lat="0" lon="0">
        <time>2020-12-06T09:37:14.706000+00:00</time>
      </trkpt>
      <trkpt lat="47.35118" lon="-1.28701">
        <ele>45</ele>
        <time>2020-12-06T09:37:15.698000+00:00</time>
      </trkpt>
      <trkpt lat="0" lon="0">
        <time>2020-12-06T09:37:15.700000+00:00</time>
      </trkpt>
      <trkpt lat="0" lon="0">
        <time>2020-12-06T09:37:15.712000+00:00</time>
      </trkpt>
      <trkpt lat="0" lon="0">
        <time>2020-12-06T09:37:15.715000+00:00</time>
      </trkpt>
      <trkpt lat="47.35114" lon="-1.2871">
        <ele>44</ele>
        <time>2020-12-06T09:37:16.712000+00:00</time>
      </trkpt>
      <trkpt lat="0" lon="0">
        <time>2020-12-06T09:37:16.724000+00:00</time>
      </trkpt>
      <trkpt lat="0" lon="0">
        <time>2020-12-06T09:37:16.728000+00:00</time>
      </trkpt>
      <trkpt lat="0" lon="0">
        <time>2020-12-06T09:37:16.731000+00:00</time>
      </trkpt>
      <trkpt lat="47.3511" lon="-1.28719">
        <ele>44</ele>
        <time>2020-12-06T09:37:17.719000+00:00</time>
      </trkpt>
      <trkpt lat="0" lon="0">
        <time>2020-12-06T09:37:17.723000+00:00</time>
      </trkpt>
      <trkpt lat="0" lon="0">
        <time>2020-12-06T09:37:17.727000+00:00</time>
      </trkpt>
      <trkpt lat="0" lon="0">
        <time>2020-12-06T09:37:17.729000+00:00</time>
      </trkpt>
      <trkpt lat="47.35106" lon="-1.28729">
        <ele>43</ele>
        <time>2020-12-06T09:37:18.708000+00:00</time>
      </trkpt>
      <trkpt lat="0" lon="0">
        <time>2020-12-06T09:37:18.714000+00:00</time>
      </trkpt>
      <trkpt lat="0" lon="0">
        <time>2020-12-06T09:37:18.716000+00:00</time>
      </trkpt>
      <trkpt lat="0" lon="0">
        <time>2020-12-06T09:37:18.718000+00:00</time>
      </trkpt>
      <trkpt lat="47.35102" lon="-1.28738">
        <ele>42</ele>
        <time>2020-12-06T09:37:19.702000+00:00</time>
      </trkpt>
      <trkpt lat="0" lon="0">
        <time>2020-12-06T09:37:19.714000+00:00</time>
      </trkpt>
      <trkpt lat="0" lon="0">
        <time>2020-12-06T09:37:19.717000+00:00</time>
      </trkpt>
      <trkpt lat="0" lon="0">
        <time>2020-12-06T09:37:19.721000+00:00</time>
      </trkpt>
      <trkpt lat="47.35098" lon="-1.28747">
        <ele>42</ele>
        <time>2020-12-06T09:37:20.686000+00:00</time>
      </trkpt>
      <trkpt lat="0" lon="0">
        <time>2020-12-06T09:37:20.690000+00:00</time>
      </trkpt>
      <trkpt lat="0" lon="0">
        <time>2020-12-06T09:37:20.692000+00:00</time>
      </trkpt>
      <trkpt lat="0" lon="0">
        <time>2020-12-06T09:37:20.693000+00:00</time>
      </trkpt>
      <trkpt lat="47.35094" lon="-1.28756">
        <ele>41</ele>
        <time>2020-12-06T09:37:21.705000+00:00</time>
      </trkpt>
      <trkpt lat="0" lon="0">
        <time>2020-12-06T09:37:21.707000+00:00</time>
      </trkpt>
      <trkpt lat="0" lon="0">
        <time>2020-12-06T09:37:21.709000+00:00</time>
      </trkpt>
      <trkpt lat="0" lon="0">
        <time>2020-12-06T09:37:21.710000+00:00</time>
      </trkpt>
      <trkpt lat="47.35089" lon="-1.28764">
        <ele>39</ele>
        <time>2020-12-06T09:37:22.686000+00:00</time>
      </trkpt>
      <trkpt lat="0" lon="0">
        <time>2020-12-06T09:37:22.689000+00:00</time>
      </trkpt>
      <trkpt lat="0" lon="0">
        <time>2020-12-06T09:37:22.695000+00:00</time>
      </trkpt>
      <trkpt lat="0" lon="0">
        <time>2020-12-06T09:37:22.696000+00:00</time>
      </trkpt>
      <trkpt lat="47.35084" lon="-1.28772">
        <ele>37</ele>
        <time>2020-12-06T09:37:23.744000+00:00</time>
      </trkpt>
      <trkpt lat="0" lon="0">
        <time>2020-12-06T09:37:23.749000+00:00</time>
      </trkpt>
      <trkpt lat="0" lon="0">
        <time>2020-12-06T09:37:23.761000+00:00</time>
      </trkpt>
      <trkpt lat="0" lon="0">
        <time>2020-12-06T09:37:23.768000+00:00</time>
      </trkpt>
      <trkpt lat="47.35079" lon="-1.28779">
        <ele>36</ele>
        <time>2020-12-06T09:37:24.723000+00:00</time>
      </trkpt>
      <trkpt lat="0" lon="0">
        <time>2020-12-06T09:37:24.731000+00:00</time>
      </trkpt>
      <trkpt lat="0" lon="0">
        <time>2020-12-06T09:37:24.737000+00:00</time>
      </trkpt>
      <trkpt lat="0" lon="0">
        <time>2020-12-06T09:37:24.738000+00:00</time>
      </trkpt>
      <trkpt lat="47.35073" lon="-1.28785">
        <ele>34</ele>
        <time>2020-12-06T09:37:25.719000+00:00</time>
      </trkpt>
      <trkpt lat="0" lon="0">
        <time>2020-12-06T09:37:25.722000+00:00</time>
      </trkpt>
      <trkpt lat="0" lon="0">
        <time>2020-12-06T09:37:25.731000+00:00</time>
      </trkpt>
      <trkpt lat="0" lon="0">
        <time>2020-12-06T09:37:25.732000+00:00</time>
      </trkpt>
      <trkpt lat="47.35067" lon="-1.28791">
        <ele>32</ele>
        <time>2020-12-06T09:37:26.684000+00:00</time>
      </trkpt>
      <trkpt lat="0" lon="0">
        <time>2020-12-06T09:37:26.687000+00:00</time>
      </trkpt>
      <trkpt lat="0" lon="0">
        <time>2020-12-06T09:37:26.688000+00:00</time>
      </trkpt>
      <trkpt lat="0" lon="0">
        <time>2020-12-06T09:37:26.690000+00:00</time>
      </trkpt>
      <trkpt lat="47.3506" lon="-1.28796">
        <ele>31</ele>
        <time>2020-12-06T09:37:27.669000+00:00</time>
      </trkpt>
      <trkpt lat="0" lon="0">
        <time>2020-12-06T09:37:27.672000+00:00</time>
      </trkpt>
      <trkpt lat="0" lon="0">
        <time>2020-12-06T09:37:27.675000+00:00</time>
      </trkpt>
      <trkpt lat="0" lon="0">
        <time>2020-12-06T09:37:27.677000+00:00</time>
      </trkpt>
      <trkpt lat="47.35053" lon="-1.288">
        <ele>29</ele>
        <time>2020-12-06T09:37:28.678000+00:00</time>
      </trkpt>
      <trkpt lat="0" lon="0">
        <time>2020-12-06T09:37:28.680000+00:00</time>
      </trkpt>
      <trkpt lat="0" lon="0">
        <time>2020-12-06T09:37:28.682000+00:00</time>
      </trkpt>
      <trkpt lat="0" lon="0">
        <time>2020-12-06T09:37:28.683000+00:00</time>
      </trkpt>
      <trkpt lat="47.35046" lon="-1.28804">
        <ele>28</ele>
        <time>2020-12-06T09:37:29.728000+00:00</time>
      </trkpt>
      <trkpt lat="0" lon="0">
        <time>2020-12-06T09:37:29.738000+00:00</time>
      </trkpt>
      <trkpt lat="0" lon="0">
        <time>2020-12-06T09:37:29.740000+00:00</time>
      </trkpt>
      <trkpt lat="0" lon="0">
        <time>2020-12-06T09:37:29.741000+00:00</time>
      </trkpt>
      <trkpt lat="47.35038" lon="-1.28808">
        <ele>27</ele>
        <time>2020-12-06T09:37:30.688000+00:00</time>
      </trkpt>
      <trkpt lat="0" lon="0">
        <time>2020-12-06T09:37:30.691000+00:00</time>
      </trkpt>
      <trkpt lat="0" lon="0">
        <time>2020-12-06T09:37:30.694000+00:00</time>
      </trkpt>
      <trkpt lat="0" lon="0">
        <time>2020-12-06T09:37:30.695000+00:00</time>
      </trkpt>
      <trkpt lat="47.3503" lon="-1.2881">
        <ele>26</ele>
        <time>2020-12-06T09:37:31.695000+00:00</time>
      </trkpt>
      <trkpt lat="0" lon="0">
        <time>2020-12-06T09:37:31.703000+00:00</time>
      </trkpt>
      <trkpt lat="0" lon="0">
        <time>2020-12-06T09:37:31.708000+00:00</time>
      </trkpt>
      <trkpt lat="0" lon="0">
        <time>2020-12-06T09:37:31.709000+00:00</time>
      </trkpt>
      <trkpt lat="47.35021" lon="-1.28813">
        <ele>25</ele>
        <time>2020-12-06T09:37:32.660000+00:00</time>
      </trkpt>
      <trkpt lat="0" lon="0">
        <time>2020-12-06T09:37:32.679000+00:00</time>
      </trkpt>
      <trkpt lat="0" lon="0">
        <time>2020-12-06T09:37:32.684000+00:00</time>
      </trkpt>
      <trkpt lat="0" lon="0">
        <time>2020-12-06T09:37:32.686000+00:00</time>
      </trkpt>
      <trkpt lat="47.35012" lon="-1.28815">
        <ele>25</ele>
        <time>2020-12-06T09:37:33.710000+00:00</time>
      </trkpt>
      <trkpt lat="0" lon="0">
        <time>2020-12-06T09:37:33.714000+00:00</time>
      </trkpt>
      <trkpt lat="0" lon="0">
        <time>2020-12-06T09:37:33.727000+00:00</time>
      </trkpt>
      <trkpt lat="0" lon="0">
        <time>2020-12-06T09:37:33.728000+00:00</time>
      </trkpt>
      <trkpt lat="47.35003" lon="-1.28817">
        <ele>24</ele>
        <time>2020-12-06T09:37:34.671000+00:00</time>
      </trkpt>
      <trkpt lat="0" lon="0">
        <time>2020-12-06T09:37:34.675000+00:00</time>
      </trkpt>
      <trkpt lat="0" lon="0">
        <time>2020-12-06T09:37:34.680000+00:00</time>
      </trkpt>
      <trkpt lat="0" lon="0">
        <time>2020-12-06T09:37:34.682000+00:00</time>
      </trkpt>
      <trkpt lat="47.34994" lon="-1.28818">
        <ele>23</ele>
        <time>2020-12-06T09:37:35.679000+00:00</time>
      </trkpt>
      <trkpt lat="0" lon="0">
        <time>2020-12-06T09:37:35.695000+00:00</time>
      </trkpt>
      <trkpt lat="0" lon="0">
        <time>2020-12-06T09:37:35.699000+00:00</time>
      </trkpt>
      <trkpt lat="0" lon="0">
        <time>2020-12-06T09:37:35.700000+00:00</time>
      </trkpt>
      <trkpt lat="47.34984" lon="-1.28819">
        <ele>23</ele>
        <time>2020-12-06T09:37:36.693000+00:00</time>
      </trkpt>
      <trkpt lat="0" lon="0">
        <time>2020-12-06T09:37:36.705000+00:00</time>
      </trkpt>
      <trkpt lat="0" lon="0">
        <time>2020-12-06T09:37:36.714000+00:00</time>
      </trkpt>
      <trkpt lat="0" lon="0">
        <time>2020-12-06T09:37:36.715000+00:00</time>
      </trkpt>
      <trkpt lat="47.34974" lon="-1.2882">
        <ele>22</ele>
        <time>2020-12-06T09:37:37.671000+00:00</time>
      </trkpt>
      <trkpt lat="0" lon="0">
        <time>2020-12-06T09:37:37.679000+00:00</time>
      </trkpt>
      <trkpt lat="0" lon="0">
        <time>2020-12-06T09:37:37.684000+00:00</time>
      </trkpt>
      <trkpt lat="0" lon="0">
        <time>2020-12-06T09:37:37.692000+00:00</time>
      </trkpt>
      <trkpt lat="47.34964" lon="-1.2882">
        <ele>22</ele>
        <time>2020-12-06T09:37:38.721000+00:00</time>
      </trkpt>
      <trkpt lat="0" lon="0">
        <time>2020-12-06T09:37:38.724000+00:00</time>
      </trkpt>
      <trkpt lat="0" lon="0">
        <time>2020-12-06T09:37:38.732000+00:00</time>
      </trkpt>
      <trkpt lat="0" lon="0">
        <time>2020-12-06T09:37:38.735000+00:00</time>
      </trkpt>
      <trkpt lat="47.34953" lon="-1.28819">
        <ele>21</ele>
        <time>2020-12-06T09:37:39.719000+00:00</time>
      </trkpt>
      <trkpt lat="0" lon="0">
        <time>2020-12-06T09:37:39.733000+00:00</time>
      </trkpt>
      <trkpt lat="0" lon="0">
        <time>2020-12-06T09:37:39.737000+00:00</time>
      </trkpt>
      <trkpt lat="0" lon="0">
        <time>2020-12-06T09:37:39.739000+00:00</time>
      </trkpt>
      <trkpt lat="47.34942" lon="-1.28818">
        <ele>21</ele>
        <time>2020-12-06T09:37:40.657000+00:00</time>
      </trkpt>
      <trkpt lat="0" lon="0">
        <time>2020-12-06T09:37:40.660000+00:00</time>
      </trkpt>
      <trkpt lat="0" lon="0">
        <time>2020-12-06T09:37:40.673000+00:00</time>
      </trkpt>
      <trkpt lat="0" lon="0">
        <time>2020-12-06T09:37:40.675000+00:00</time>
      </trkpt>
      <trkpt lat="47.34931" lon="-1.28815">
        <ele>21</ele>
        <time>2020-12-06T09:37:41.673000+00:00</time>
      </trkpt>
      <trkpt lat="0" lon="0">
        <time>2020-12-06T09:37:41.685000+00:00</time>
      </trkpt>
      <trkpt lat="0" lon="0">
        <time>2020-12-06T09:37:41.690000+00:00</time>
      </trkpt>
      <trkpt lat="0" lon="0">
        <time>2020-12-06T09:37:41.691000+00:00</time>
      </trkpt>
      <trkpt lat="47.34919" lon="-1.28813">
        <ele>21</ele>
        <time>2020-12-06T09:37:42.679000+00:00</time>
      </trkpt>
      <trkpt lat="0" lon="0">
        <time>2020-12-06T09:37:42.690000+00:00</time>
      </trkpt>
      <trkpt lat="0" lon="0">
        <time>2020-12-06T09:37:42.691000+00:00</time>
      </trkpt>
      <trkpt lat="0" lon="0">
        <time>2020-12-06T09:37:42.693000+00:00</time>
      </trkpt>
      <trkpt lat="47.34908" lon="-1.2881">
        <ele>20</ele>
        <time>2020-12-06T09:37:43.676000+00:00</time>
      </trkpt>
      <trkpt lat="0" lon="0">
        <time>2020-12-06T09:37:43.681000+00:00</time>
      </trkpt>
      <trkpt lat="0" lon="0">
        <time>2020-12-06T09:37:43.688000+00:00</time>
      </trkpt>
      <trkpt lat="0" lon="0">
        <time>2020-12-06T09:37:43.691000+00:00</time>
      </trkpt>
      <trkpt lat="47.34897" lon="-1.28806">
        <ele>20</ele>
        <time>2020-12-06T09:37:44.671000+00:00</time>
      </trkpt>
      <trkpt lat="0" lon="0">
        <time>2020-12-06T09:37:44.692000+00:00</time>
      </trkpt>
      <trkpt lat="0" lon="0">
        <time>2020-12-06T09:37:44.702000+00:00</time>
      </trkpt>
      <trkpt lat="0" lon="0">
        <time>2020-12-06T09:37:44.704000+00:00</time>
      </trkpt>
      <trkpt lat="47.34885" lon="-1.28802">
        <ele>19</ele>
        <time>2020-12-06T09:37:45.667000+00:00</time>
      </trkpt>
      <trkpt lat="0" lon="0">
        <time>2020-12-06T09:37:45.675000+00:00</time>
      </trkpt>
      <trkpt lat="0" lon="0">
        <time>2020-12-06T09:37:45.679000+00:00</time>
      </trkpt>
      <trkpt lat="0" lon="0">
        <time>2020-12-06T09:37:45.680000+00:00</time>
      </trkpt>
      <trkpt lat="47.34874" lon="-1.28798">
        <ele>18</ele>
        <time>2020-12-06T09:37:46.667000+00:00</time>
      </trkpt>
      <trkpt lat="0" lon="0">
        <time>2020-12-06T09:37:46.670000+00:00</time>
      </trkpt>
      <trkpt lat="0" lon="0">
        <time>2020-12-06T09:37:46.673000+00:00</time>
      </trkpt>
      <trkpt lat="0" lon="0">
        <time>2020-12-06T09:37:46.675000+00:00</time>
      </trkpt>
      <trkpt lat="47.34863" lon="-1.28793">
        <ele>18</ele>
        <time>2020-12-06T09:37:47.642000+00:00</time>
      </trkpt>
      <trkpt lat="0" lon="0">
        <time>2020-12-06T09:37:47.643000+00:00</time>
      </trkpt>
      <trkpt lat="0" lon="0">
        <time>2020-12-06T09:37:47.645000+00:00</time>
      </trkpt>
      <trkpt lat="0" lon="0">
        <time>2020-12-06T09:37:47.646000+00:00</time>
      </trkpt>
      <trkpt lat="47.34851" lon="-1.28789">
        <ele>17</ele>
        <time>2020-12-06T09:37:48.676000+00:00</time>
      </trkpt>
      <trkpt lat="0" lon="0">
        <time>2020-12-06T09:37:48.687000+00:00</time>
      </trkpt>
      <trkpt lat="0" lon="0">
        <time>2020-12-06T09:37:48.689000+00:00</time>
      </trkpt>
      <trkpt lat="0" lon="0">
        <time>2020-12-06T09:37:48.690000+00:00</time>
      </trkpt>
      <trkpt lat="47.3484" lon="-1.28784">
        <ele>16</ele>
        <time>2020-12-06T09:37:49.669000+00:00</time>
      </trkpt>
      <trkpt lat="0" lon="0">
        <time>2020-12-06T09:37:49.678000+00:00</time>
      </trkpt>
      <trkpt lat="0" lon="0">
        <time>2020-12-06T09:37:49.686000+00:00</time>
      </trkpt>
      <trkpt lat="0" lon="0">
        <time>2020-12-06T09:37:49.689000+00:00</time>
      </trkpt>
      <trkpt lat="47.34829" lon="-1.2878">
        <ele>16</ele>
        <time>2020-12-06T09:37:50.678000+00:00</time>
      </trkpt>
      <trkpt lat="0" lon="0">
        <time>2020-12-06T09:37:50.698000+00:00</time>
      </trkpt>
      <trkpt lat="0" lon="0">
        <time>2020-12-06T09:37:50.702000+00:00</time>
      </trkpt>
      <trkpt lat="0" lon="0">
        <time>2020-12-06T09:37:50.703000+00:00</time>
      </trkpt>
      <trkpt lat="47.34818" lon="-1.28775">
        <ele>15</ele>
        <time>2020-12-06T09:37:51.689000+00:00</time>
      </trkpt>
      <trkpt lat="0" lon="0">
        <time>2020-12-06T09:37:51.692000+00:00</time>
      </trkpt>
      <trkpt lat="0" lon="0">
        <time>2020-12-06T09:37:51.705000+00:00</time>
      </trkpt>
      <trkpt lat="0" lon="0">
        <time>2020-12-06T09:37:51.708000+00:00</time>
      </trkpt>
      <trkpt lat="47.34807" lon="-1.2877">
        <ele>15</ele>
        <time>2020-12-06T09:37:52.669000+00:00</time>
      </trkpt>
      <trkpt lat="0" lon="0">
        <time>2020-12-06T09:37:52.690000+00:00</time>
      </trkpt>
      <trkpt lat="0" lon="0">
        <time>2020-12-06T09:37:52.693000+00:00</time>
      </trkpt>
      <trkpt lat="0" lon="0">
        <time>2020-12-06T09:37:52.695000+00:00</time>
      </trkpt>
      <trkpt lat="47.34796" lon="-1.28766">
        <ele>14</ele>
        <time>2020-12-06T09:37:53.724000+00:00</time>
      </trkpt>
      <trkpt lat="0" lon="0">
        <time>2020-12-06T09:37:53.728000+00:00</time>
      </trkpt>
      <trkpt lat="0" lon="0">
        <time>2020-12-06T09:37:53.733000+00:00</time>
      </trkpt>
      <trkpt lat="0" lon="0">
        <time>2020-12-06T09:37:53.735000+00:00</time>
      </trkpt>
      <trkpt lat="47.34785" lon="-1.28762">
        <ele>14</ele>
        <time>2020-12-06T09:37:54.675000+00:00</time>
      </trkpt>
      <trkpt lat="0" lon="0">
        <time>2020-12-06T09:37:54.693000+00:00</time>
      </trkpt>
      <trkpt lat="0" lon="0">
        <time>2020-12-06T09:37:54.697000+00:00</time>
      </trkpt>
      <trkpt lat="0" lon="0">
        <time>2020-12-06T09:37:54.700000+00:00</time>
      </trkpt>
      <trkpt lat="47.34774" lon="-1.28757">
        <ele>13</ele>
        <time>2020-12-06T09:37:55.689000+00:00</time>
      </trkpt>
      <trkpt lat="0" lon="0">
        <time>2020-12-06T09:37:55.694000+00:00</time>
      </trkpt>
      <trkpt lat="0" lon="0">
        <time>2020-12-06T09:37:55.700000+00:00</time>
      </trkpt>
      <trkpt lat="0" lon="0">
        <time>2020-12-06T09:37:55.702000+00:00</time>
      </trkpt>
      <trkpt lat="47.34763" lon="-1.28752">
        <ele>12</ele>
        <time>2020-12-06T09:37:56.680000+00:00</time>
      </trkpt>
      <trkpt lat="0" lon="0">
        <time>2020-12-06T09:37:56.685000+00:00</time>
      </trkpt>
      <trkpt lat="0" lon="0">
        <time>2020-12-06T09:37:56.691000+00:00</time>
      </trkpt>
      <trkpt lat="0" lon="0">
        <time>2020-12-06T09:37:56.694000+00:00</time>
      </trkpt>
      <trkpt lat="47.34752" lon="-1.28747">
        <ele>12</ele>
        <time>2020-12-06T09:37:57.739000+00:00</time>
      </trkpt>
      <trkpt lat="0" lon="0">
        <time>2020-12-06T09:37:57.755000+00:00</time>
      </trkpt>
      <trkpt lat="0" lon="0">
        <time>2020-12-06T09:37:57.760000+00:00</time>
      </trkpt>
      <trkpt lat="0" lon="0">
        <time>2020-12-06T09:37:57.763000+00:00</time>
      </trkpt>
      <trkpt lat="47.34742" lon="-1.28741">
        <ele>11</ele>
        <time>2020-12-06T09:37:58.692000+00:00</time>
      </trkpt>
      <trkpt lat="0" lon="0">
        <time>2020-12-06T09:37:58.696000+00:00</time>
      </trkpt>
      <trkpt lat="0" lon="0">
        <time>2020-12-06T09:37:58.700000+00:00</time>
      </trkpt>
      <trkpt lat="0" lon="0">
        <time>2020-12-06T09:37:58.702000+00:00</time>
      </trkpt>
      <trkpt lat="47.34733" lon="-1.28733">
        <ele>11</ele>
        <time>2020-12-06T09:37:59.699000+00:00</time>
      </trkpt>
      <trkpt lat="0" lon="0">
        <time>2020-12-06T09:37:59.711000+00:00</time>
      </trkpt>
      <trkpt lat="0" lon="0">
        <time>2020-12-06T09:37:59.714000+00:00</time>
      </trkpt>
      <trkpt lat="0" lon="0">
        <time>2020-12-06T09:37:59.716000+00:00</time>
      </trkpt>
      <trkpt lat="47.34724" lon="-1.28725">
        <ele>11</ele>
        <time>2020-12-06T09:38:00.651000+00:00</time>
      </trkpt>
      <trkpt lat="0" lon="0">
        <time>2020-12-06T09:38:00.657000+00:00</time>
      </trkpt>
      <trkpt lat="0" lon="0">
        <time>2020-12-06T09:38:00.659000+00:00</time>
      </trkpt>
      <trkpt lat="0" lon="0">
        <time>2020-12-06T09:38:00.662000+00:00</time>
      </trkpt>
      <trkpt lat="47.34716" lon="-1.28717">
        <ele>11</ele>
        <time>2020-12-06T09:38:01.681000+00:00</time>
      </trkpt>
      <trkpt lat="0" lon="0">
        <time>2020-12-06T09:38:01.698000+00:00</time>
      </trkpt>
      <trkpt lat="0" lon="0">
        <time>2020-12-06T09:38:01.705000+00:00</time>
      </trkpt>
      <trkpt lat="0" lon="0">
        <time>2020-12-06T09:38:01.707000+00:00</time>
      </trkpt>
      <trkpt lat="47.34709" lon="-1.28708">
        <ele>11</ele>
        <time>2020-12-06T09:38:02.630000+00:00</time>
      </trkpt>
      <trkpt lat="0" lon="0">
        <time>2020-12-06T09:38:02.638000+00:00</time>
      </trkpt>
      <trkpt lat="0" lon="0">
        <time>2020-12-06T09:38:02.641000+00:00</time>
      </trkpt>
      <trkpt lat="0" lon="0">
        <time>2020-12-06T09:38:02.643000+00:00</time>
      </trkpt>
      <trkpt lat="47.34703" lon="-1.287">
        <ele>11</ele>
        <time>2020-12-06T09:38:03.645000+00:00</time>
      </trkpt>
      <trkpt lat="0" lon="0">
        <time>2020-12-06T09:38:03.659000+00:00</time>
      </trkpt>
      <trkpt lat="0" lon="0">
        <time>2020-12-06T09:38:03.669000+00:00</time>
      </trkpt>
      <trkpt lat="0" lon="0">
        <time>2020-12-06T09:38:03.671000+00:00</time>
      </trkpt>
      <trkpt lat="47.34698" lon="-1.28693">
        <ele>11</ele>
        <time>2020-12-06T09:38:04.699000+00:00</time>
      </trkpt>
      <trkpt lat="0" lon="0">
        <time>2020-12-06T09:38:04.702000+00:00</time>
      </trkpt>
      <trkpt lat="0" lon="0">
        <time>2020-12-06T09:38:04.704000+00:00</time>
      </trkpt>
      <trkpt lat="0" lon="0">
        <time>2020-12-06T09:38:04.706000+00:00</time>
      </trkpt>
      <trkpt lat="47.34694" lon="-1.28687">
        <ele>10</ele>
        <time>2020-12-06T09:38:05.683000+00:00</time>
      </trkpt>
      <trkpt lat="0" lon="0">
        <time>2020-12-06T09:38:05.688000+00:00</time>
      </trkpt>
      <trkpt lat="0" lon="0">
        <time>2020-12-06T09:38:05.692000+00:00</time>
      </trkpt>
      <trkpt lat="0" lon="0">
        <time>2020-12-06T09:38:05.696000+00:00</time>
      </trkpt>
      <trkpt lat="47.34691" lon="-1.28683">
        <ele>10</ele>
        <time>2020-12-06T09:38:06.726000+00:00</time>
      </trkpt>
      <trkpt lat="0" lon="0">
        <time>2020-12-06T09:38:06.742000+00:00</time>
      </trkpt>
      <trkpt lat="0" lon="0">
        <time>2020-12-06T09:38:06.746000+00:00</time>
      </trkpt>
      <trkpt lat="0" lon="0">
        <time>2020-12-06T09:38:06.747000+00:00</time>
      </trkpt>
      <trkpt lat="47.34689" lon="-1.2868">
        <ele>10</ele>
        <time>2020-12-06T09:38:07.669000+00:00</time>
      </trkpt>
      <trkpt lat="0" lon="0">
        <time>2020-12-06T09:38:07.677000+00:00</time>
      </trkpt>
      <trkpt lat="0" lon="0">
        <time>2020-12-06T09:38:07.682000+00:00</time>
      </trkpt>
      <trkpt lat="0" lon="0">
        <time>2020-12-06T09:38:07.684000+00:00</time>
      </trkpt>
      <trkpt lat="47.34686" lon="-1.28678">
        <ele>10</ele>
        <time>2020-12-06T09:38:08.700000+00:00</time>
      </trkpt>
      <trkpt lat="0" lon="0">
        <time>2020-12-06T09:38:08.709000+00:00</time>
      </trkpt>
      <trkpt lat="0" lon="0">
        <time>2020-12-06T09:38:08.710000+00:00</time>
      </trkpt>
      <trkpt lat="0" lon="0">
        <time>2020-12-06T09:38:08.711000+00:00</time>
      </trkpt>
      <trkpt lat="47.34684" lon="-1.28677">
        <ele>10</ele>
        <time>2020-12-06T09:38:09.736000+00:00</time>
      </trkpt>
      <trkpt lat="0" lon="0">
        <time>2020-12-06T09:38:09.749000+00:00</time>
      </trkpt>
      <trkpt lat="0" lon="0">
        <time>2020-12-06T09:38:09.753000+00:00</time>
      </trkpt>
      <trkpt lat="0" lon="0">
        <time>2020-12-06T09:38:09.759000+00:00</time>
      </trkpt>
      <trkpt lat="47.34682" lon="-1.28677">
        <ele>10</ele>
        <time>2020-12-06T09:38:10.714000+00:00</time>
      </trkpt>
      <trkpt lat="0" lon="0">
        <time>2020-12-06T09:38:10.719000+00:00</time>
      </trkpt>
      <trkpt lat="0" lon="0">
        <time>2020-12-06T09:38:10.722000+00:00</time>
      </trkpt>
      <trkpt lat="0" lon="0">
        <time>2020-12-06T09:38:10.726000+00:00</time>
      </trkpt>
      <trkpt lat="47.3468" lon="-1.28677">
        <ele>10</ele>
        <time>2020-12-06T09:38:11.704000+00:00</time>
      </trkpt>
      <trkpt lat="0" lon="0">
        <time>2020-12-06T09:38:11.709000+00:00</time>
      </trkpt>
      <trkpt lat="0" lon="0">
        <time>2020-12-06T09:38:11.714000+00:00</time>
      </trkpt>
      <trkpt lat="0" lon="0">
        <time>2020-12-06T09:38:11.723000+00:00</time>
      </trkpt>
      <trkpt lat="47.34678" lon="-1.28678">
        <ele>10</ele>
        <time>2020-12-06T09:38:12.707000+00:00</time>
      </trkpt>
      <trkpt lat="0" lon="0">
        <time>2020-12-06T09:38:12.717000+00:00</time>
      </trkpt>
      <trkpt lat="0" lon="0">
        <time>2020-12-06T09:38:12.722000+00:00</time>
      </trkpt>
      <trkpt lat="0" lon="0">
        <time>2020-12-06T09:38:12.724000+00:00</time>
      </trkpt>
      <trkpt lat="47.34676" lon="-1.2868">
        <ele>10</ele>
        <time>2020-12-06T09:38:13.634000+00:00</time>
      </trkpt>
      <trkpt lat="0" lon="0">
        <time>2020-12-06T09:38:13.640000+00:00</time>
      </trkpt>
      <trkpt lat="0" lon="0">
        <time>2020-12-06T09:38:13.647000+00:00</time>
      </trkpt>
      <trkpt lat="0" lon="0">
        <time>2020-12-06T09:38:13.650000+00:00</time>
      </trkpt>
      <trkpt lat="47.34675" lon="-1.28683">
        <ele>10</ele>
        <time>2020-12-06T09:38:14.682000+00:00</time>
      </trkpt>
      <trkpt lat="0" lon="0">
        <time>2020-12-06T09:38:14.687000+00:00</time>
      </trkpt>
      <trkpt lat="0" lon="0">
        <time>2020-12-06T09:38:14.698000+00:00</time>
      </trkpt>
      <trkpt lat="0" lon="0">
        <time>2020-12-06T09:38:14.700000+00:00</time>
      </trkpt>
      <trkpt lat="47.34674" lon="-1.28686">
        <ele>10</ele>
        <time>2020-12-06T09:38:15.675000+00:00</time>
      </trkpt>
      <trkpt lat="0" lon="0">
        <time>2020-12-06T09:38:15.691000+00:00</time>
      </trkpt>
      <trkpt lat="0" lon="0">
        <time>2020-12-06T09:38:15.699000+00:00</time>
      </trkpt>
      <trkpt lat="0" lon="0">
        <time>2020-12-06T09:38:15.701000+00:00</time>
      </trkpt>
      <trkpt lat="47.34673" lon="-1.28691">
        <ele>9</ele>
        <time>2020-12-06T09:38:16.628000+00:00</time>
      </trkpt>
      <trkpt lat="0" lon="0">
        <time>2020-12-06T09:38:16.639000+00:00</time>
      </trkpt>
      <trkpt lat="0" lon="0">
        <time>2020-12-06T09:38:16.641000+00:00</time>
      </trkpt>
      <trkpt lat="0" lon="0">
        <time>2020-12-06T09:38:16.642000+00:00</time>
      </trkpt>
      <trkpt lat="47.34673" lon="-1.28696">
        <ele>9</ele>
        <time>2020-12-06T09:38:17.701000+00:00</time>
      </trkpt>
      <trkpt lat="0" lon="0">
        <time>2020-12-06T09:38:17.709000+00:00</time>
      </trkpt>
      <trkpt lat="0" lon="0">
        <time>2020-12-06T09:38:17.715000+00:00</time>
      </trkpt>
      <trkpt lat="0" lon="0">
        <time>2020-12-06T09:38:17.716000+00:00</time>
      </trkpt>
      <trkpt lat="47.34673" lon="-1.28703">
        <ele>9</ele>
        <time>2020-12-06T09:38:18.693000+00:00</time>
      </trkpt>
      <trkpt lat="0" lon="0">
        <time>2020-12-06T09:38:18.696000+00:00</time>
      </trkpt>
      <trkpt lat="0" lon="0">
        <time>2020-12-06T09:38:18.700000+00:00</time>
      </trkpt>
      <trkpt lat="0" lon="0">
        <time>2020-12-06T09:38:18.702000+00:00</time>
      </trkpt>
      <trkpt lat="47.34672" lon="-1.2871">
        <ele>9</ele>
        <time>2020-12-06T09:38:19.685000+00:00</time>
      </trkpt>
      <trkpt lat="0" lon="0">
        <time>2020-12-06T09:38:19.705000+00:00</time>
      </trkpt>
      <trkpt lat="0" lon="0">
        <time>2020-12-06T09:38:19.709000+00:00</time>
      </trkpt>
      <trkpt lat="0" lon="0">
        <time>2020-12-06T09:38:19.711000+00:00</time>
      </trkpt>
      <trkpt lat="47.34672" lon="-1.28717">
        <ele>9</ele>
        <time>2020-12-06T09:38:20.714000+00:00</time>
      </trkpt>
      <trkpt lat="0" lon="0">
        <time>2020-12-06T09:38:20.719000+00:00</time>
      </trkpt>
      <trkpt lat="0" lon="0">
        <time>2020-12-06T09:38:20.734000+00:00</time>
      </trkpt>
      <trkpt lat="0" lon="0">
        <time>2020-12-06T09:38:20.736000+00:00</time>
      </trkpt>
      <trkpt lat="47.34672" lon="-1.28725">
        <ele>9</ele>
        <time>2020-12-06T09:38:21.650000+00:00</time>
      </trkpt>
      <trkpt lat="0" lon="0">
        <time>2020-12-06T09:38:21.669000+00:00</time>
      </trkpt>
      <trkpt lat="0" lon="0">
        <time>2020-12-06T09:38:21.673000+00:00</time>
      </trkpt>
      <trkpt lat="0" lon="0">
        <time>2020-12-06T09:38:21.675000+00:00</time>
      </trkpt>
      <trkpt lat="47.34672" lon="-1.28732">
        <ele>9</ele>
        <time>2020-12-06T09:38:22.676000+00:00</time>
      </trkpt>
      <trkpt lat="0" lon="0">
        <time>2020-12-06T09:38:22.685000+00:00</time>
      </trkpt>
      <trkpt lat="0" lon="0">
        <time>2020-12-06T09:38:22.691000+00:00</time>
      </trkpt>
      <trkpt lat="0" lon="0">
        <time>2020-12-06T09:38:22.696000+00:00</time>
      </trkpt>
      <trkpt lat="47.34672" lon="-1.2874">
        <ele>9</ele>
        <time>2020-12-06T09:38:23.692000+00:00</time>
      </trkpt>
      <trkpt lat="0" lon="0">
        <time>2020-12-06T09:38:23.695000+00:00</time>
      </trkpt>
      <trkpt lat="0" lon="0">
        <time>2020-12-06T09:38:23.704000+00:00</time>
      </trkpt>
      <trkpt lat="0" lon="0">
        <time>2020-12-06T09:38:23.710000+00:00</time>
      </trkpt>
      <trkpt lat="47.34671" lon="-1.28748">
        <ele>9</ele>
        <time>2020-12-06T09:38:24.700000+00:00</time>
      </trkpt>
      <trkpt lat="0" lon="0">
        <time>2020-12-06T09:38:24.705000+00:00</time>
      </trkpt>
      <trkpt lat="0" lon="0">
        <time>2020-12-06T09:38:24.712000+00:00</time>
      </trkpt>
      <trkpt lat="0" lon="0">
        <time>2020-12-06T09:38:24.716000+00:00</time>
      </trkpt>
      <trkpt lat="47.34671" lon="-1.28755">
        <ele>9</ele>
        <time>2020-12-06T09:38:25.677000+00:00</time>
      </trkpt>
      <trkpt lat="0" lon="0">
        <time>2020-12-06T09:38:25.689000+00:00</time>
      </trkpt>
      <trkpt lat="0" lon="0">
        <time>2020-12-06T09:38:25.692000+00:00</time>
      </trkpt>
      <trkpt lat="0" lon="0">
        <time>2020-12-06T09:38:25.699000+00:00</time>
      </trkpt>
      <trkpt lat="47.3467" lon="-1.28761">
        <ele>9</ele>
        <time>2020-12-06T09:38:26.698000+00:00</time>
      </trkpt>
      <trkpt lat="0" lon="0">
        <time>2020-12-06T09:38:26.711000+00:00</time>
      </trkpt>
      <trkpt lat="0" lon="0">
        <time>2020-12-06T09:38:26.722000+00:00</time>
      </trkpt>
      <trkpt lat="0" lon="0">
        <time>2020-12-06T09:38:26.723000+00:00</time>
      </trkpt>
      <trkpt lat="47.34669" lon="-1.28767">
        <ele>9</ele>
        <time>2020-12-06T09:38:27.672000+00:00</time>
      </trkpt>
      <trkpt lat="0" lon="0">
        <time>2020-12-06T09:38:27.684000+00:00</time>
      </trkpt>
      <trkpt lat="0" lon="0">
        <time>2020-12-06T09:38:27.689000+00:00</time>
      </trkpt>
      <trkpt lat="0" lon="0">
        <time>2020-12-06T09:38:27.691000+00:00</time>
      </trkpt>
      <trkpt lat="47.34667" lon="-1.28772">
        <ele>9</ele>
        <time>2020-12-06T09:38:28.672000+00:00</time>
      </trkpt>
      <trkpt lat="0" lon="0">
        <time>2020-12-06T09:38:28.675000+00:00</time>
      </trkpt>
      <trkpt lat="0" lon="0">
        <time>2020-12-06T09:38:28.684000+00:00</time>
      </trkpt>
      <trkpt lat="0" lon="0">
        <time>2020-12-06T09:38:28.687000+00:00</time>
      </trkpt>
      <trkpt lat="47.34665" lon="-1.28775">
        <ele>8</ele>
        <time>2020-12-06T09:38:29.649000+00:00</time>
      </trkpt>
      <trkpt lat="0" lon="0">
        <time>2020-12-06T09:38:29.657000+00:00</time>
      </trkpt>
      <trkpt lat="0" lon="0">
        <time>2020-12-06T09:38:29.660000+00:00</time>
      </trkpt>
      <trkpt lat="0" lon="0">
        <time>2020-12-06T09:38:29.661000+00:00</time>
      </trkpt>
      <trkpt lat="47.34663" lon="-1.28776">
        <ele>8</ele>
        <time>2020-12-06T09:38:30.700000+00:00</time>
      </trkpt>
      <trkpt lat="0" lon="0">
        <time>2020-12-06T09:38:30.706000+00:00</time>
      </trkpt>
      <trkpt lat="0" lon="0">
        <time>2020-12-06T09:38:30.713000+00:00</time>
      </trkpt>
      <trkpt lat="0" lon="0">
        <time>2020-12-06T09:38:30.716000+00:00</time>
      </trkpt>
      <trkpt lat="47.34661" lon="-1.28776">
        <ele>8</ele>
        <time>2020-12-06T09:38:31.692000+00:00</time>
      </trkpt>
      <trkpt lat="0" lon="0">
        <time>2020-12-06T09:38:31.702000+00:00</time>
      </trkpt>
      <trkpt lat="0" lon="0">
        <time>2020-12-06T09:38:31.707000+00:00</time>
      </trkpt>
      <trkpt lat="0" lon="0">
        <time>2020-12-06T09:38:31.714000+00:00</time>
      </trkpt>
      <trkpt lat="47.34658" lon="-1.28776">
        <ele>8</ele>
        <time>2020-12-06T09:38:32.709000+00:00</time>
      </trkpt>
      <trkpt lat="0" lon="0">
        <time>2020-12-06T09:38:32.718000+00:00</time>
      </trkpt>
      <trkpt lat="0" lon="0">
        <time>2020-12-06T09:38:32.723000+00:00</time>
      </trkpt>
      <trkpt lat="0" lon="0">
        <time>2020-12-06T09:38:32.725000+00:00</time>
      </trkpt>
      <trkpt lat="47.34655" lon="-1.28774">
        <ele>8</ele>
        <time>2020-12-06T09:38:33.672000+00:00</time>
      </trkpt>
      <trkpt lat="0" lon="0">
        <time>2020-12-06T09:38:33.678000+00:00</time>
      </trkpt>
      <trkpt lat="0" lon="0">
        <time>2020-12-06T09:38:33.682000+00:00</time>
      </trkpt>
      <trkpt lat="0" lon="0">
        <time>2020-12-06T09:38:33.684000+00:00</time>
      </trkpt>
      <trkpt lat="47.34653" lon="-1.28772">
        <ele>8</ele>
        <time>2020-12-06T09:38:34.711000+00:00</time>
      </trkpt>
      <trkpt lat="0" lon="0">
        <time>2020-12-06T09:38:34.718000+00:00</time>
      </trkpt>
      <trkpt lat="0" lon="0">
        <time>2020-12-06T09:38:34.721000+00:00</time>
      </trkpt>
      <trkpt lat="0" lon="0">
        <time>2020-12-06T09:38:34.723000+00:00</time>
      </trkpt>
      <trkpt lat="47.3465" lon="-1.2877">
        <ele>8</ele>
        <time>2020-12-06T09:38:35.715000+00:00</time>
      </trkpt>
      <trkpt lat="0" lon="0">
        <time>2020-12-06T09:38:35.738000+00:00</time>
      </trkpt>
      <trkpt lat="0" lon="0">
        <time>2020-12-06T09:38:35.741000+00:00</time>
      </trkpt>
      <trkpt lat="0" lon="0">
        <time>2020-12-06T09:38:35.743000+00:00</time>
      </trkpt>
      <trkpt lat="47.34648" lon="-1.28767">
        <ele>8</ele>
        <time>2020-12-06T09:38:36.691000+00:00</time>
      </trkpt>
      <trkpt lat="0" lon="0">
        <time>2020-12-06T09:38:36.695000+00:00</time>
      </trkpt>
      <trkpt lat="0" lon="0">
        <time>2020-12-06T09:38:36.702000+00:00</time>
      </trkpt>
      <trkpt lat="0" lon="0">
        <time>2020-12-06T09:38:36.704000+00:00</time>
      </trkpt>
      <trkpt lat="47.34645" lon="-1.28763">
        <ele>8</ele>
        <time>2020-12-06T09:38:37.687000+00:00</time>
      </trkpt>
      <trkpt lat="0" lon="0">
        <time>2020-12-06T09:38:37.695000+00:00</time>
      </trkpt>
      <trkpt lat="0" lon="0">
        <time>2020-12-06T09:38:37.699000+00:00</time>
      </trkpt>
      <trkpt lat="0" lon="0">
        <time>2020-12-06T09:38:37.701000+00:00</time>
      </trkpt>
      <trkpt lat="47.34643" lon="-1.2876">
        <ele>8</ele>
        <time>2020-12-06T09:38:38.718000+00:00</time>
      </trkpt>
      <trkpt lat="0" lon="0">
        <time>2020-12-06T09:38:38.729000+00:00</time>
      </trkpt>
      <trkpt lat="0" lon="0">
        <time>2020-12-06T09:38:38.735000+00:00</time>
      </trkpt>
      <trkpt lat="0" lon="0">
        <time>2020-12-06T09:38:38.737000+00:00</time>
      </trkpt>
      <trkpt lat="47.3464" lon="-1.28756">
        <ele>8</ele>
        <time>2020-12-06T09:38:39.715000+00:00</time>
      </trkpt>
      <trkpt lat="0" lon="0">
        <time>2020-12-06T09:38:39.719000+00:00</time>
      </trkpt>
      <trkpt lat="0" lon="0">
        <time>2020-12-06T09:38:39.741000+00:00</time>
      </trkpt>
      <trkpt lat="0" lon="0">
        <time>2020-12-06T09:38:39.743000+00:00</time>
      </trkpt>
      <trkpt lat="47.34638" lon="-1.28752">
        <ele>8</ele>
        <time>2020-12-06T09:38:40.720000+00:00</time>
      </trkpt>
      <trkpt lat="0" lon="0">
        <time>2020-12-06T09:38:40.723000+00:00</time>
      </trkpt>
      <trkpt lat="0" lon="0">
        <time>2020-12-06T09:38:40.732000+00:00</time>
      </trkpt>
      <trkpt lat="0" lon="0">
        <time>2020-12-06T09:38:40.733000+00:00</time>
      </trkpt>
      <trkpt lat="47.34636" lon="-1.28748">
        <ele>8</ele>
        <time>2020-12-06T09:38:41.726000+00:00</time>
      </trkpt>
      <trkpt lat="0" lon="0">
        <time>2020-12-06T09:38:41.730000+00:00</time>
      </trkpt>
      <trkpt lat="0" lon="0">
        <time>2020-12-06T09:38:41.734000+00:00</time>
      </trkpt>
      <trkpt lat="0" lon="0">
        <time>2020-12-06T09:38:41.737000+00:00</time>
      </trkpt>
      <trkpt lat="47.34633" lon="-1.28745">
        <ele>8</ele>
        <time>2020-12-06T09:38:42.702000+00:00</time>
      </trkpt>
      <trkpt lat="0" lon="0">
        <time>2020-12-06T09:38:42.721000+00:00</time>
      </trkpt>
      <trkpt lat="0" lon="0">
        <time>2020-12-06T09:38:42.725000+00:00</time>
      </trkpt>
      <trkpt lat="0" lon="0">
        <time>2020-12-06T09:38:42.727000+00:00</time>
      </trkpt>
      <trkpt lat="47.34631" lon="-1.28742">
        <ele>8</ele>
        <time>2020-12-06T09:38:43.738000+00:00</time>
      </trkpt>
      <trkpt lat="0" lon="0">
        <time>2020-12-06T09:38:43.741000+00:00</time>
      </trkpt>
      <trkpt lat="0" lon="0">
        <time>2020-12-06T09:38:43.745000+00:00</time>
      </trkpt>
      <trkpt lat="0" lon="0">
        <time>2020-12-06T09:38:43.746000+00:00</time>
      </trkpt>
      <trkpt lat="47.34629" lon="-1.28739">
        <ele>8</ele>
        <time>2020-12-06T09:38:44.711000+00:00</time>
      </trkpt>
      <trkpt lat="0" lon="0">
        <time>2020-12-06T09:38:44.719000+00:00</time>
      </trkpt>
      <trkpt lat="0" lon="0">
        <time>2020-12-06T09:38:44.731000+00:00</time>
      </trkpt>
      <trkpt lat="0" lon="0">
        <time>2020-12-06T09:38:44.734000+00:00</time>
      </trkpt>
      <trkpt lat="47.34627" lon="-1.28736">
        <ele>8</ele>
        <time>2020-12-06T09:38:45.710000+00:00</time>
      </trkpt>
      <trkpt lat="0" lon="0">
        <time>2020-12-06T09:38:45.715000+00:00</time>
      </trkpt>
      <trkpt lat="0" lon="0">
        <time>2020-12-06T09:38:45.718000+00:00</time>
      </trkpt>
      <trkpt lat="0" lon="0">
        <time>2020-12-06T09:38:45.721000+00:00</time>
      </trkpt>
      <trkpt lat="47.34625" lon="-1.28733">
        <ele>8</ele>
        <time>2020-12-06T09:38:46.746000+00:00</time>
      </trkpt>
      <trkpt lat="0" lon="0">
        <time>2020-12-06T09:38:46.753000+00:00</time>
      </trkpt>
      <trkpt lat="0" lon="0">
        <time>2020-12-06T09:38:46.755000+00:00</time>
      </trkpt>
      <trkpt lat="0" lon="0">
        <time>2020-12-06T09:38:46.756000+00:00</time>
      </trkpt>
      <trkpt lat="47.34623" lon="-1.28731">
        <ele>8</ele>
        <time>2020-12-06T09:38:47.720000+00:00</time>
      </trkpt>
      <trkpt lat="0" lon="0">
        <time>2020-12-06T09:38:47.735000+00:00</time>
      </trkpt>
      <trkpt lat="0" lon="0">
        <time>2020-12-06T09:38:47.741000+00:00</time>
      </trkpt>
      <trkpt lat="0" lon="0">
        <time>2020-12-06T09:38:47.743000+00:00</time>
      </trkpt>
      <trkpt lat="47.3462" lon="-1.28728">
        <ele>8</ele>
        <time>2020-12-06T09:38:48.705000+00:00</time>
      </trkpt>
      <trkpt lat="0" lon="0">
        <time>2020-12-06T09:38:48.719000+00:00</time>
      </trkpt>
      <trkpt lat="0" lon="0">
        <time>2020-12-06T09:38:48.722000+00:00</time>
      </trkpt>
      <trkpt lat="0" lon="0">
        <time>2020-12-06T09:38:48.724000+00:00</time>
      </trkpt>
      <trkpt lat="47.34618" lon="-1.28725">
        <ele>7</ele>
        <time>2020-12-06T09:38:49.705000+00:00</time>
      </trkpt>
      <trkpt lat="0" lon="0">
        <time>2020-12-06T09:38:49.711000+00:00</time>
      </trkpt>
      <trkpt lat="0" lon="0">
        <time>2020-12-06T09:38:49.715000+00:00</time>
      </trkpt>
      <trkpt lat="0" lon="0">
        <time>2020-12-06T09:38:49.718000+00:00</time>
      </trkpt>
      <trkpt lat="47.34616" lon="-1.28721">
        <ele>7</ele>
        <time>2020-12-06T09:38:50.713000+00:00</time>
      </trkpt>
      <trkpt lat="0" lon="0">
        <time>2020-12-06T09:38:50.727000+00:00</time>
      </trkpt>
      <trkpt lat="0" lon="0">
        <time>2020-12-06T09:38:50.731000+00:00</time>
      </trkpt>
      <trkpt lat="0" lon="0">
        <time>2020-12-06T09:38:50.736000+00:00</time>
      </trkpt>
      <trkpt lat="47.34614" lon="-1.28718">
        <ele>7</ele>
        <time>2020-12-06T09:38:51.707000+00:00</time>
      </trkpt>
      <trkpt lat="0" lon="0">
        <time>2020-12-06T09:38:51.723000+00:00</time>
      </trkpt>
      <trkpt lat="0" lon="0">
        <time>2020-12-06T09:38:51.727000+00:00</time>
      </trkpt>
      <trkpt lat="0" lon="0">
        <time>2020-12-06T09:38:51.729000+00:00</time>
      </trkpt>
      <trkpt lat="47.34611" lon="-1.28715">
        <ele>7</ele>
        <time>2020-12-06T09:38:52.689000+00:00</time>
      </trkpt>
      <trkpt lat="0" lon="0">
        <time>2020-12-06T09:38:52.693000+00:00</time>
      </trkpt>
      <trkpt lat="0" lon="0">
        <time>2020-12-06T09:38:52.697000+00:00</time>
      </trkpt>
      <trkpt lat="0" lon="0">
        <time>2020-12-06T09:38:52.700000+00:00</time>
      </trkpt>
      <trkpt lat="47.34609" lon="-1.28712">
        <ele>7</ele>
        <time>2020-12-06T09:38:53.737000+00:00</time>
      </trkpt>
      <trkpt lat="0" lon="0">
        <time>2020-12-06T09:38:53.748000+00:00</time>
      </trkpt>
      <trkpt lat="0" lon="0">
        <time>2020-12-06T09:38:53.753000+00:00</time>
      </trkpt>
      <trkpt lat="0" lon="0">
        <time>2020-12-06T09:38:53.754000+00:00</time>
      </trkpt>
      <trkpt lat="47.34607" lon="-1.28709">
        <ele>7</ele>
        <time>2020-12-06T09:38:54.682000+00:00</time>
      </trkpt>
      <trkpt lat="0" lon="0">
        <time>2020-12-06T09:38:54.686000+00:00</time>
      </trkpt>
      <trkpt lat="0" lon="0">
        <time>2020-12-06T09:38:54.703000+00:00</time>
      </trkpt>
      <trkpt lat="0" lon="0">
        <time>2020-12-06T09:38:54.706000+00:00</time>
      </trkpt>
      <trkpt lat="47.34605" lon="-1.28706">
        <ele>7</ele>
        <time>2020-12-06T09:38:55.696000+00:00</time>
      </trkpt>
      <trkpt lat="0" lon="0">
        <time>2020-12-06T09:38:55.710000+00:00</time>
      </trkpt>
      <trkpt lat="0" lon="0">
        <time>2020-12-06T09:38:55.721000+00:00</time>
      </trkpt>
      <trkpt lat="0" lon="0">
        <time>2020-12-06T09:38:55.723000+00:00</time>
      </trkpt>
      <trkpt lat="47.34603" lon="-1.28704">
        <ele>7</ele>
        <time>2020-12-06T09:38:56.660000+00:00</time>
      </trkpt>
      <trkpt lat="0" lon="0">
        <time>2020-12-06T09:38:56.663000+00:00</time>
      </trkpt>
      <trkpt lat="0" lon="0">
        <time>2020-12-06T09:38:56.667000+00:00</time>
      </trkpt>
      <trkpt lat="0" lon="0">
        <time>2020-12-06T09:38:56.671000+00:00</time>
      </trkpt>
      <trkpt lat="47.34601" lon="-1.28702">
        <ele>7</ele>
        <time>2020-12-06T09:38:57.700000+00:00</time>
      </trkpt>
      <trkpt lat="0" lon="0">
        <time>2020-12-06T09:38:57.714000+00:00</time>
      </trkpt>
      <trkpt lat="0" lon="0">
        <time>2020-12-06T09:38:57.721000+00:00</time>
      </trkpt>
      <trkpt lat="0" lon="0">
        <time>2020-12-06T09:38:57.724000+00:00</time>
      </trkpt>
      <trkpt lat="47.346" lon="-1.28701">
        <ele>7</ele>
        <time>2020-12-06T09:38:58.660000+00:00</time>
      </trkpt>
      <trkpt lat="0" lon="0">
        <time>2020-12-06T09:38:58.670000+00:00</time>
      </trkpt>
      <trkpt lat="0" lon="0">
        <time>2020-12-06T09:38:58.674000+00:00</time>
      </trkpt>
      <trkpt lat="0" lon="0">
        <time>2020-12-06T09:38:58.680000+00:00</time>
      </trkpt>
      <trkpt lat="47.34599" lon="-1.287">
        <ele>7</ele>
        <time>2020-12-06T09:38:59.692000+00:00</time>
      </trkpt>
      <trkpt lat="0" lon="0">
        <time>2020-12-06T09:38:59.699000+00:00</time>
      </trkpt>
      <trkpt lat="0" lon="0">
        <time>2020-12-06T09:38:59.705000+00:00</time>
      </trkpt>
      <trkpt lat="0" lon="0">
        <time>2020-12-06T09:38:59.709000+00:00</time>
      </trkpt>
      <trkpt lat="47.34598" lon="-1.28699">
        <ele>7</ele>
        <time>2020-12-06T09:39:00.666000+00:00</time>
      </trkpt>
      <trkpt lat="0" lon="0">
        <time>2020-12-06T09:39:00.672000+00:00</time>
      </trkpt>
      <trkpt lat="0" lon="0">
        <time>2020-12-06T09:39:00.680000+00:00</time>
      </trkpt>
      <trkpt lat="0" lon="0">
        <time>2020-12-06T09:39:00.682000+00:00</time>
      </trkpt>
      <trkpt lat="47.34597" lon="-1.28699">
        <ele>7</ele>
        <time>2020-12-06T09:39:01.682000+00:00</time>
      </trkpt>
      <trkpt lat="0" lon="0">
        <time>2020-12-06T09:39:01.701000+00:00</time>
      </trkpt>
      <trkpt lat="0" lon="0">
        <time>2020-12-06T09:39:01.710000+00:00</time>
      </trkpt>
      <trkpt lat="0" lon="0">
        <time>2020-12-06T09:39:01.712000+00:00</time>
      </trkpt>
      <trkpt lat="47.34597" lon="-1.28698">
        <ele>7</ele>
        <time>2020-12-06T09:39:02.642000+00:00</time>
      </trkpt>
      <trkpt lat="0" lon="0">
        <time>2020-12-06T09:39:02.644000+00:00</time>
      </trkpt>
      <trkpt lat="0" lon="0">
        <time>2020-12-06T09:39:02.646000+00:00</time>
      </trkpt>
      <trkpt lat="0" lon="0">
        <time>2020-12-06T09:39:02.647000+00:00</time>
      </trkpt>
      <trkpt lat="47.34596" lon="-1.28697">
        <ele>7</ele>
        <time>2020-12-06T09:39:03.697000+00:00</time>
      </trkpt>
      <trkpt lat="0" lon="0">
        <time>2020-12-06T09:39:03.706000+00:00</time>
      </trkpt>
      <trkpt lat="0" lon="0">
        <time>2020-12-06T09:39:03.709000+00:00</time>
      </trkpt>
      <trkpt lat="0" lon="0">
        <time>2020-12-06T09:39:03.712000+00:00</time>
      </trkpt>
      <trkpt lat="47.34596" lon="-1.28697">
        <ele>7</ele>
        <time>2020-12-06T09:39:04.673000+00:00</time>
      </trkpt>
      <trkpt lat="0" lon="0">
        <time>2020-12-06T09:39:04.677000+00:00</time>
      </trkpt>
      <trkpt lat="0" lon="0">
        <time>2020-12-06T09:39:04.684000+00:00</time>
      </trkpt>
      <trkpt lat="0" lon="0">
        <time>2020-12-06T09:39:04.686000+00:00</time>
      </trkpt>
      <trkpt lat="47.34596" lon="-1.28697">
        <ele>7</ele>
        <time>2020-12-06T09:39:05.697000+00:00</time>
      </trkpt>
      <trkpt lat="0" lon="0">
        <time>2020-12-06T09:39:05.710000+00:00</time>
      </trkpt>
      <trkpt lat="0" lon="0">
        <time>2020-12-06T09:39:05.714000+00:00</time>
      </trkpt>
      <trkpt lat="0" lon="0">
        <time>2020-12-06T09:39:05.716000+00:00</time>
      </trkpt>
      <trkpt lat="47.34597" lon="-1.28697">
        <ele>7</ele>
        <time>2020-12-06T09:39:06.650000+00:00</time>
      </trkpt>
      <trkpt lat="0" lon="0">
        <time>2020-12-06T09:39:06.665000+00:00</time>
      </trkpt>
      <trkpt lat="0" lon="0">
        <time>2020-12-06T09:39:06.670000+00:00</time>
      </trkpt>
      <trkpt lat="0" lon="0">
        <time>2020-12-06T09:39:06.673000+00:00</time>
      </trkpt>
      <trkpt lat="47.34597" lon="-1.28697">
        <ele>7</ele>
        <time>2020-12-06T09:39:07.662000+00:00</time>
      </trkpt>
      <trkpt lat="0" lon="0">
        <time>2020-12-06T09:39:07.667000+00:00</time>
      </trkpt>
      <trkpt lat="0" lon="0">
        <time>2020-12-06T09:39:07.674000+00:00</time>
      </trkpt>
      <trkpt lat="0" lon="0">
        <time>2020-12-06T09:39:07.676000+00:00</time>
      </trkpt>
      <trkpt lat="47.34597" lon="-1.28697">
        <ele>7</ele>
        <time>2020-12-06T09:39:08.680000+00:00</time>
      </trkpt>
      <trkpt lat="0" lon="0">
        <time>2020-12-06T09:39:08.693000+00:00</time>
      </trkpt>
      <trkpt lat="0" lon="0">
        <time>2020-12-06T09:39:08.701000+00:00</time>
      </trkpt>
      <trkpt lat="0" lon="0">
        <time>2020-12-06T09:39:08.705000+00:00</time>
      </trkpt>
      <trkpt lat="47.34598" lon="-1.28697">
        <ele>7</ele>
        <time>2020-12-06T09:39:09.682000+00:00</time>
      </trkpt>
      <trkpt lat="0" lon="0">
        <time>2020-12-06T09:39:09.683000+00:00</time>
      </trkpt>
      <trkpt lat="0" lon="0">
        <time>2020-12-06T09:39:09.685000+00:00</time>
      </trkpt>
      <trkpt lat="0" lon="0">
        <time>2020-12-06T09:39:09.686000+00:00</time>
      </trkpt>
      <trkpt lat="47.34598" lon="-1.28698">
        <ele>7</ele>
        <time>2020-12-06T09:39:10.675000+00:00</time>
      </trkpt>
      <trkpt lat="0" lon="0">
        <time>2020-12-06T09:39:10.682000+00:00</time>
      </trkpt>
      <trkpt lat="0" lon="0">
        <time>2020-12-06T09:39:10.688000+00:00</time>
      </trkpt>
      <trkpt lat="0" lon="0">
        <time>2020-12-06T09:39:10.698000+00:00</time>
      </trkpt>
      <trkpt lat="47.34598" lon="-1.287">
        <ele>7</ele>
        <time>2020-12-06T09:39:11.634000+00:00</time>
      </trkpt>
      <trkpt lat="0" lon="0">
        <time>2020-12-06T09:39:11.655000+00:00</time>
      </trkpt>
      <trkpt lat="0" lon="0">
        <time>2020-12-06T09:39:11.658000+00:00</time>
      </trkpt>
      <trkpt lat="0" lon="0">
        <time>2020-12-06T09:39:11.659000+00:00</time>
      </trkpt>
      <trkpt lat="47.346" lon="-1.287">
        <ele>7</ele>
        <time>2020-12-06T09:39:12.653000+00:00</time>
      </trkpt>
      <trkpt lat="0" lon="0">
        <time>2020-12-06T09:39:12.667000+00:00</time>
      </trkpt>
      <trkpt lat="0" lon="0">
        <time>2020-12-06T09:39:12.675000+00:00</time>
      </trkpt>
      <trkpt lat="0" lon="0">
        <time>2020-12-06T09:39:12.677000+00:00</time>
      </trkpt>
      <trkpt lat="47.34603" lon="-1.28701">
        <ele>7</ele>
        <time>2020-12-06T09:39:13.697000+00:00</time>
      </trkpt>
      <trkpt lat="0" lon="0">
        <time>2020-12-06T09:39:13.709000+00:00</time>
      </trkpt>
      <trkpt lat="0" lon="0">
        <time>2020-12-06T09:39:13.712000+00:00</time>
      </trkpt>
      <trkpt lat="0" lon="0">
        <time>2020-12-06T09:39:13.714000+00:00</time>
      </trkpt>
      <trkpt lat="47.34606" lon="-1.28703">
        <ele>7</ele>
        <time>2020-12-06T09:39:14.702000+00:00</time>
      </trkpt>
      <trkpt lat="0" lon="0">
        <time>2020-12-06T09:39:14.715000+00:00</time>
      </trkpt>
      <trkpt lat="0" lon="0">
        <time>2020-12-06T09:39:14.717000+00:00</time>
      </trkpt>
      <trkpt lat="0" lon="0">
        <time>2020-12-06T09:39:14.718000+00:00</time>
      </trkpt>
      <trkpt lat="47.3461" lon="-1.28705">
        <ele>7</ele>
        <time>2020-12-06T09:39:15.720000+00:00</time>
      </trkpt>
      <trkpt lat="0" lon="0">
        <time>2020-12-06T09:39:15.725000+00:00</time>
      </trkpt>
      <trkpt lat="0" lon="0">
        <time>2020-12-06T09:39:15.727000+00:00</time>
      </trkpt>
      <trkpt lat="0" lon="0">
        <time>2020-12-06T09:39:15.728000+00:00</time>
      </trkpt>
      <trkpt lat="47.34613" lon="-1.28708">
        <ele>7</ele>
        <time>2020-12-06T09:39:16.717000+00:00</time>
      </trkpt>
      <trkpt lat="0" lon="0">
        <time>2020-12-06T09:39:16.720000+00:00</time>
      </trkpt>
      <trkpt lat="0" lon="0">
        <time>2020-12-06T09:39:16.731000+00:00</time>
      </trkpt>
      <trkpt lat="0" lon="0">
        <time>2020-12-06T09:39:16.732000+00:00</time>
      </trkpt>
      <trkpt lat="47.34616" lon="-1.28711">
        <ele>7</ele>
        <time>2020-12-06T09:39:17.692000+00:00</time>
      </trkpt>
      <trkpt lat="0" lon="0">
        <time>2020-12-06T09:39:17.710000+00:00</time>
      </trkpt>
      <trkpt lat="0" lon="0">
        <time>2020-12-06T09:39:17.713000+00:00</time>
      </trkpt>
      <trkpt lat="0" lon="0">
        <time>2020-12-06T09:39:17.716000+00:00</time>
      </trkpt>
      <trkpt lat="47.34618" lon="-1.28714">
        <ele>8</ele>
        <time>2020-12-06T09:39:18.681000+00:00</time>
      </trkpt>
      <trkpt lat="0" lon="0">
        <time>2020-12-06T09:39:18.695000+00:00</time>
      </trkpt>
      <trkpt lat="0" lon="0">
        <time>2020-12-06T09:39:18.701000+00:00</time>
      </trkpt>
      <trkpt lat="0" lon="0">
        <time>2020-12-06T09:39:18.703000+00:00</time>
      </trkpt>
      <trkpt lat="47.3462" lon="-1.28717">
        <ele>8</ele>
        <time>2020-12-06T09:39:19.652000+00:00</time>
      </trkpt>
      <trkpt lat="0" lon="0">
        <time>2020-12-06T09:39:19.668000+00:00</time>
      </trkpt>
      <trkpt lat="0" lon="0">
        <time>2020-12-06T09:39:19.670000+00:00</time>
      </trkpt>
      <trkpt lat="0" lon="0">
        <time>2020-12-06T09:39:19.671000+00:00</time>
      </trkpt>
      <trkpt lat="47.34621" lon="-1.28719">
        <ele>8</ele>
        <time>2020-12-06T09:39:20.680000+00:00</time>
      </trkpt>
      <trkpt lat="0" lon="0">
        <time>2020-12-06T09:39:20.681000+00:00</time>
      </trkpt>
      <trkpt lat="0" lon="0">
        <time>2020-12-06T09:39:20.683000+00:00</time>
      </trkpt>
      <trkpt lat="0" lon="0">
        <time>2020-12-06T09:39:20.684000+00:00</time>
      </trkpt>
      <trkpt lat="47.34622" lon="-1.28721">
        <ele>8</ele>
        <time>2020-12-06T09:39:21.713000+00:00</time>
      </trkpt>
      <trkpt lat="0" lon="0">
        <time>2020-12-06T09:39:21.714000+00:00</time>
      </trkpt>
      <trkpt lat="0" lon="0">
        <time>2020-12-06T09:39:21.716000+00:00</time>
      </trkpt>
      <trkpt lat="47.34623" lon="-1.28723">
        <ele>8</ele>
        <time>2020-12-06T09:39:22.682000+00:00</time>
      </trkpt>
      <trkpt lat="0" lon="0">
        <time>2020-12-06T09:39:22.690000+00:00</time>
      </trkpt>
      <trkpt lat="0" lon="0">
        <time>2020-12-06T09:39:22.697000+00:00</time>
      </trkpt>
      <trkpt lat="0" lon="0">
        <time>2020-12-06T09:39:22.698000+00:00</time>
      </trkpt>
      <trkpt lat="47.34623" lon="-1.28724">
        <ele>8</ele>
        <time>2020-12-06T09:39:23.715000+00:00</time>
      </trkpt>
      <trkpt lat="0" lon="0">
        <time>2020-12-06T09:39:23.727000+00:00</time>
      </trkpt>
      <trkpt lat="0" lon="0">
        <time>2020-12-06T09:39:23.734000+00:00</time>
      </trkpt>
      <trkpt lat="0" lon="0">
        <time>2020-12-06T09:39:23.735000+00:00</time>
      </trkpt>
      <trkpt lat="47.34623" lon="-1.28725">
        <ele>8</ele>
        <time>2020-12-06T09:39:24.695000+00:00</time>
      </trkpt>
      <trkpt lat="0" lon="0">
        <time>2020-12-06T09:39:24.703000+00:00</time>
      </trkpt>
      <trkpt lat="0" lon="0">
        <time>2020-12-06T09:39:24.706000+00:00</time>
      </trkpt>
      <trkpt lat="0" lon="0">
        <time>2020-12-06T09:39:24.707000+00:00</time>
      </trkpt>
      <trkpt lat="47.34624" lon="-1.28726">
        <ele>8</ele>
        <time>2020-12-06T09:39:25.695000+00:00</time>
      </trkpt>
      <trkpt lat="0" lon="0">
        <time>2020-12-06T09:39:25.697000+00:00</time>
      </trkpt>
      <trkpt lat="0" lon="0">
        <time>2020-12-06T09:39:25.698000+00:00</time>
      </trkpt>
      <trkpt lat="0" lon="0">
        <time>2020-12-06T09:39:25.699000+00:00</time>
      </trkpt>
      <trkpt lat="47.34624" lon="-1.28727">
        <ele>8</ele>
        <time>2020-12-06T09:39:26.728000+00:00</time>
      </trkpt>
      <trkpt lat="0" lon="0">
        <time>2020-12-06T09:39:26.731000+00:00</time>
      </trkpt>
      <trkpt lat="0" lon="0">
        <time>2020-12-06T09:39:26.734000+00:00</time>
      </trkpt>
      <trkpt lat="0" lon="0">
        <time>2020-12-06T09:39:26.743000+00:00</time>
      </trkpt>
      <trkpt lat="47.34624" lon="-1.28728">
        <ele>8</ele>
        <time>2020-12-06T09:39:27.727000+00:00</time>
      </trkpt>
      <trkpt lat="0" lon="0">
        <time>2020-12-06T09:39:27.738000+00:00</time>
      </trkpt>
      <trkpt lat="0" lon="0">
        <time>2020-12-06T09:39:27.748000+00:00</time>
      </trkpt>
      <trkpt lat="0" lon="0">
        <time>2020-12-06T09:39:27.750000+00:00</time>
      </trkpt>
      <trkpt lat="47.34624" lon="-1.28728">
        <ele>8</ele>
        <time>2020-12-06T09:39:28.654000+00:00</time>
      </trkpt>
      <trkpt lat="0" lon="0">
        <time>2020-12-06T09:39:28.659000+00:00</time>
      </trkpt>
      <trkpt lat="0" lon="0">
        <time>2020-12-06T09:39:28.671000+00:00</time>
      </trkpt>
      <trkpt lat="47.34624" lon="-1.28728">
        <ele>8</ele>
        <time>2020-12-06T09:39:29.721000+00:00</time>
      </trkpt>
      <trkpt lat="0" lon="0">
        <time>2020-12-06T09:39:29.732000+00:00</time>
      </trkpt>
      <trkpt lat="0" lon="0">
        <time>2020-12-06T09:39:29.740000+00:00</time>
      </trkpt>
      <trkpt lat="0" lon="0">
        <time>2020-12-06T09:39:29.742000+00:00</time>
      </trkpt>
      <trkpt lat="47.34623" lon="-1.28728">
        <ele>8</ele>
        <time>2020-12-06T09:39:30.694000+00:00</time>
      </trkpt>
      <trkpt lat="0" lon="0">
        <time>2020-12-06T09:39:30.699000+00:00</time>
      </trkpt>
      <trkpt lat="0" lon="0">
        <time>2020-12-06T09:39:30.702000+00:00</time>
      </trkpt>
      <trkpt lat="0" lon="0">
        <time>2020-12-06T09:39:30.704000+00:00</time>
      </trkpt>
      <trkpt lat="47.34623" lon="-1.28728">
        <ele>8</ele>
        <time>2020-12-06T09:39:31.668000+00:00</time>
      </trkpt>
      <trkpt lat="0" lon="0">
        <time>2020-12-06T09:39:31.671000+00:00</time>
      </trkpt>
      <trkpt lat="0" lon="0">
        <time>2020-12-06T09:39:31.672000+00:00</time>
      </trkpt>
      <trkpt lat="0" lon="0">
        <time>2020-12-06T09:39:31.673000+00:00</time>
      </trkpt>
      <trkpt lat="47.34623" lon="-1.28728">
        <ele>8</ele>
        <time>2020-12-06T09:39:32.694000+00:00</time>
      </trkpt>
      <trkpt lat="0" lon="0">
        <time>2020-12-06T09:39:32.707000+00:00</time>
      </trkpt>
      <trkpt lat="0" lon="0">
        <time>2020-12-06T09:39:32.719000+00:00</time>
      </trkpt>
      <trkpt lat="0" lon="0">
        <time>2020-12-06T09:39:32.731000+00:00</time>
      </trkpt>
      <trkpt lat="47.3461" lon="-1.28725">
        <ele>7</ele>
        <time>2020-12-06T09:39:33.697000+00:00</time>
      </trkpt>
      <trkpt lat="0" lon="0">
        <time>2020-12-06T09:39:33.698000+00:00</time>
      </trkpt>
      <trkpt lat="0" lon="0">
        <time>2020-12-06T09:39:33.700000+00:00</time>
      </trkpt>
      <trkpt lat="47.34609" lon="-1.28725">
        <ele>7</ele>
        <time>2020-12-06T09:39:34.712000+00:00</time>
      </trkpt>
      <trkpt lat="0" lon="0">
        <time>2020-12-06T09:39:34.722000+00:00</time>
      </trkpt>
      <trkpt lat="0" lon="0">
        <time>2020-12-06T09:39:34.738000+00:00</time>
      </trkpt>
      <trkpt lat="0" lon="0">
        <time>2020-12-06T09:39:34.741000+00:00</time>
      </trkpt>
      <trkpt lat="47.34608" lon="-1.28725">
        <ele>7</ele>
        <time>2020-12-06T09:39:35.745000+00:00</time>
      </trkpt>
      <trkpt lat="0" lon="0">
        <time>2020-12-06T09:39:35.759000+00:00</time>
      </trkpt>
      <trkpt lat="0" lon="0">
        <time>2020-12-06T09:39:35.763000+00:00</time>
      </trkpt>
      <trkpt lat="0" lon="0">
        <time>2020-12-06T09:39:35.765000+00:00</time>
      </trkpt>
      <trkpt lat="47.34607" lon="-1.28724">
        <ele>7</ele>
        <time>2020-12-06T09:39:36.752000+00:00</time>
      </trkpt>
      <trkpt lat="0" lon="0">
        <time>2020-12-06T09:39:36.760000+00:00</time>
      </trkpt>
      <trkpt lat="0" lon="0">
        <time>2020-12-06T09:39:36.775000+00:00</time>
      </trkpt>
      <trkpt lat="0" lon="0">
        <time>2020-12-06T09:39:36.777000+00:00</time>
      </trkpt>
      <trkpt lat="47.34606" lon="-1.28724">
        <ele>7</ele>
        <time>2020-12-06T09:39:37.745000+00:00</time>
      </trkpt>
      <trkpt lat="0" lon="0">
        <time>2020-12-06T09:39:37.751000+00:00</time>
      </trkpt>
      <trkpt lat="0" lon="0">
        <time>2020-12-06T09:39:37.755000+00:00</time>
      </trkpt>
      <trkpt lat="0" lon="0">
        <time>2020-12-06T09:39:37.758000+00:00</time>
      </trkpt>
      <trkpt lat="47.34606" lon="-1.28724">
        <ele>7</ele>
        <time>2020-12-06T09:39:38.748000+00:00</time>
      </trkpt>
      <trkpt lat="0" lon="0">
        <time>2020-12-06T09:39:38.760000+00:00</time>
      </trkpt>
      <trkpt lat="0" lon="0">
        <time>2020-12-06T09:39:38.767000+00:00</time>
      </trkpt>
      <trkpt lat="0" lon="0">
        <time>2020-12-06T09:39:38.769000+00:00</time>
      </trkpt>
      <trkpt lat="47.34606" lon="-1.28724">
        <ele>7</ele>
        <time>2020-12-06T09:39:39.750000+00:00</time>
      </trkpt>
      <trkpt lat="0" lon="0">
        <time>2020-12-06T09:39:39.762000+00:00</time>
      </trkpt>
      <trkpt lat="0" lon="0">
        <time>2020-12-06T09:39:39.772000+00:00</time>
      </trkpt>
      <trkpt lat="0" lon="0">
        <time>2020-12-06T09:39:39.778000+00:00</time>
      </trkpt>
      <trkpt lat="47.34606" lon="-1.28724">
        <ele>7</ele>
        <time>2020-12-06T09:39:40.785000+00:00</time>
      </trkpt>
      <trkpt lat="0" lon="0">
        <time>2020-12-06T09:39:40.790000+00:00</time>
      </trkpt>
      <trkpt lat="0" lon="0">
        <time>2020-12-06T09:39:40.799000+00:00</time>
      </trkpt>
      <trkpt lat="0" lon="0">
        <time>2020-12-06T09:39:40.801000+00:00</time>
      </trkpt>
      <trkpt lat="47.34606" lon="-1.28725">
        <ele>7</ele>
        <time>2020-12-06T09:39:41.745000+00:00</time>
      </trkpt>
      <trkpt lat="0" lon="0">
        <time>2020-12-06T09:39:41.750000+00:00</time>
      </trkpt>
      <trkpt lat="0" lon="0">
        <time>2020-12-06T09:39:41.764000+00:00</time>
      </trkpt>
      <trkpt lat="0" lon="0">
        <time>2020-12-06T09:39:41.776000+00:00</time>
      </trkpt>
      <trkpt lat="47.34618" lon="-1.28739">
        <ele>7</ele>
        <time>2020-12-06T09:39:42.745000+00:00</time>
      </trkpt>
      <trkpt lat="0" lon="0">
        <time>2020-12-06T09:39:42.748000+00:00</time>
      </trkpt>
      <trkpt lat="0" lon="0">
        <time>2020-12-06T09:39:42.755000+00:00</time>
      </trkpt>
      <trkpt lat="0" lon="0">
        <time>2020-12-06T09:39:42.757000+00:00</time>
      </trkpt>
      <trkpt lat="47.34619" lon="-1.28739">
        <ele>7</ele>
        <time>2020-12-06T09:39:43.801000+00:00</time>
      </trkpt>
      <trkpt lat="0" lon="0">
        <time>2020-12-06T09:39:43.804000+00:00</time>
      </trkpt>
      <trkpt lat="0" lon="0">
        <time>2020-12-06T09:39:43.814000+00:00</time>
      </trkpt>
      <trkpt lat="0" lon="0">
        <time>2020-12-06T09:39:43.815000+00:00</time>
      </trkpt>
      <trkpt lat="47.3462" lon="-1.28739">
        <ele>7</ele>
        <time>2020-12-06T09:39:44.772000+00:00</time>
      </trkpt>
      <trkpt lat="0" lon="0">
        <time>2020-12-06T09:39:44.784000+00:00</time>
      </trkpt>
      <trkpt lat="0" lon="0">
        <time>2020-12-06T09:39:44.785000+00:00</time>
      </trkpt>
      <trkpt lat="0" lon="0">
        <time>2020-12-06T09:39:44.787000+00:00</time>
      </trkpt>
      <trkpt lat="47.3462" lon="-1.28738">
        <ele>7</ele>
        <time>2020-12-06T09:39:45.791000+00:00</time>
      </trkpt>
      <trkpt lat="0" lon="0">
        <time>2020-12-06T09:39:45.808000+00:00</time>
      </trkpt>
      <trkpt lat="0" lon="0">
        <time>2020-12-06T09:39:45.817000+00:00</time>
      </trkpt>
      <trkpt lat="0" lon="0">
        <time>2020-12-06T09:39:45.832000+00:00</time>
      </trkpt>
      <trkpt lat="47.34608" lon="-1.28725">
        <ele>7</ele>
        <time>2020-12-06T09:39:46.817000+00:00</time>
      </trkpt>
      <trkpt lat="0" lon="0">
        <time>2020-12-06T09:39:46.828000+00:00</time>
      </trkpt>
      <trkpt lat="0" lon="0">
        <time>2020-12-06T09:39:46.831000+00:00</time>
      </trkpt>
      <trkpt lat="0" lon="0">
        <time>2020-12-06T09:39:46.832000+00:00</time>
      </trkpt>
      <trkpt lat="47.34606" lon="-1.28724">
        <ele>7</ele>
        <time>2020-12-06T09:39:47.875000+00:00</time>
      </trkpt>
      <trkpt lat="0" lon="0">
        <time>2020-12-06T09:39:47.879000+00:00</time>
      </trkpt>
      <trkpt lat="0" lon="0">
        <time>2020-12-06T09:39:47.882000+00:00</time>
      </trkpt>
      <trkpt lat="0" lon="0">
        <time>2020-12-06T09:39:47.885000+00:00</time>
      </trkpt>
      <trkpt lat="47.34605" lon="-1.28723">
        <ele>7</ele>
        <time>2020-12-06T09:39:48.868000+00:00</time>
      </trkpt>
      <trkpt lat="0" lon="0">
        <time>2020-12-06T09:39:48.871000+00:00</time>
      </trkpt>
      <trkpt lat="0" lon="0">
        <time>2020-12-06T09:39:48.876000+00:00</time>
      </trkpt>
      <trkpt lat="0" lon="0">
        <time>2020-12-06T09:39:48.877000+00:00</time>
      </trkpt>
      <trkpt lat="47.34604" lon="-1.28722">
        <ele>7</ele>
        <time>2020-12-06T09:39:49.875000+00:00</time>
      </trkpt>
      <trkpt lat="0" lon="0">
        <time>2020-12-06T09:39:49.882000+00:00</time>
      </trkpt>
      <trkpt lat="0" lon="0">
        <time>2020-12-06T09:39:49.887000+00:00</time>
      </trkpt>
      <trkpt lat="0" lon="0">
        <time>2020-12-06T09:39:49.888000+00:00</time>
      </trkpt>
      <trkpt lat="47.34604" lon="-1.28721">
        <ele>7</ele>
        <time>2020-12-06T09:39:50.864000+00:00</time>
      </trkpt>
      <trkpt lat="0" lon="0">
        <time>2020-12-06T09:39:50.867000+00:00</time>
      </trkpt>
      <trkpt lat="0" lon="0">
        <time>2020-12-06T09:39:50.871000+00:00</time>
      </trkpt>
      <trkpt lat="0" lon="0">
        <time>2020-12-06T09:39:50.872000+00:00</time>
      </trkpt>
      <trkpt lat="47.34603" lon="-1.28721">
        <ele>7</ele>
        <time>2020-12-06T09:39:51.872000+00:00</time>
      </trkpt>
      <trkpt lat="0" lon="0">
        <time>2020-12-06T09:39:51.878000+00:00</time>
      </trkpt>
      <trkpt lat="0" lon="0">
        <time>2020-12-06T09:39:51.881000+00:00</time>
      </trkpt>
      <trkpt lat="0" lon="0">
        <time>2020-12-06T09:39:51.884000+00:00</time>
      </trkpt>
      <trkpt lat="47.34603" lon="-1.2872">
        <ele>7</ele>
        <time>2020-12-06T09:39:52.873000+00:00</time>
      </trkpt>
      <trkpt lat="0" lon="0">
        <time>2020-12-06T09:39:52.880000+00:00</time>
      </trkpt>
      <trkpt lat="0" lon="0">
        <time>2020-12-06T09:39:52.885000+00:00</time>
      </trkpt>
      <trkpt lat="0" lon="0">
        <time>2020-12-06T09:39:52.888000+00:00</time>
      </trkpt>
      <trkpt lat="47.34603" lon="-1.28719">
        <ele>7</ele>
        <time>2020-12-06T09:39:53.831000+00:00</time>
      </trkpt>
      <trkpt lat="0" lon="0">
        <time>2020-12-06T09:39:53.842000+00:00</time>
      </trkpt>
      <trkpt lat="0" lon="0">
        <time>2020-12-06T09:39:53.847000+00:00</time>
      </trkpt>
      <trkpt lat="0" lon="0">
        <time>2020-12-06T09:39:53.848000+00:00</time>
      </trkpt>
      <trkpt lat="47.34603" lon="-1.28718">
        <ele>7</ele>
        <time>2020-12-06T09:39:54.834000+00:00</time>
      </trkpt>
      <trkpt lat="0" lon="0">
        <time>2020-12-06T09:39:54.845000+00:00</time>
      </trkpt>
      <trkpt lat="0" lon="0">
        <time>2020-12-06T09:39:54.848000+00:00</time>
      </trkpt>
      <trkpt lat="0" lon="0">
        <time>2020-12-06T09:39:54.850000+00:00</time>
      </trkpt>
      <trkpt lat="47.34603" lon="-1.28718">
        <ele>7</ele>
        <time>2020-12-06T09:39:55.806000+00:00</time>
      </trkpt>
      <trkpt lat="0" lon="0">
        <time>2020-12-06T09:39:55.814000+00:00</time>
      </trkpt>
      <trkpt lat="0" lon="0">
        <time>2020-12-06T09:39:55.817000+00:00</time>
      </trkpt>
      <trkpt lat="0" lon="0">
        <time>2020-12-06T09:39:55.834000+00:00</time>
      </trkpt>
      <trkpt lat="47.34606" lon="-1.28726">
        <ele>7</ele>
        <time>2020-12-06T09:39:56.836000+00:00</time>
      </trkpt>
      <trkpt lat="0" lon="0">
        <time>2020-12-06T09:39:56.848000+00:00</time>
      </trkpt>
      <trkpt lat="0" lon="0">
        <time>2020-12-06T09:39:56.851000+00:00</time>
      </trkpt>
      <trkpt lat="0" lon="0">
        <time>2020-12-06T09:39:56.855000+00:00</time>
      </trkpt>
      <trkpt lat="47.34605" lon="-1.28725">
        <ele>7</ele>
        <time>2020-12-06T09:39:57.850000+00:00</time>
      </trkpt>
      <trkpt lat="0" lon="0">
        <time>2020-12-06T09:39:57.869000+00:00</time>
      </trkpt>
      <trkpt lat="0" lon="0">
        <time>2020-12-06T09:39:57.875000+00:00</time>
      </trkpt>
      <trkpt lat="0" lon="0">
        <time>2020-12-06T09:39:57.877000+00:00</time>
      </trkpt>
      <trkpt lat="47.34605" lon="-1.28725">
        <ele>7</ele>
        <time>2020-12-06T09:39:58.842000+00:00</time>
      </trkpt>
      <trkpt lat="0" lon="0">
        <time>2020-12-06T09:39:58.849000+00:00</time>
      </trkpt>
      <trkpt lat="0" lon="0">
        <time>2020-12-06T09:39:58.852000+00:00</time>
      </trkpt>
      <trkpt lat="0" lon="0">
        <time>2020-12-06T09:39:58.854000+00:00</time>
      </trkpt>
      <trkpt lat="47.34604" lon="-1.28724">
        <ele>7</ele>
        <time>2020-12-06T09:39:59.904000+00:00</time>
      </trkpt>
      <trkpt lat="0" lon="0">
        <time>2020-12-06T09:39:59.906000+00:00</time>
      </trkpt>
      <trkpt lat="0" lon="0">
        <time>2020-12-06T09:39:59.908000+00:00</time>
      </trkpt>
      <trkpt lat="0" lon="0">
        <time>2020-12-06T09:39:59.909000+00:00</time>
      </trkpt>
      <trkpt lat="47.34604" lon="-1.28724">
        <ele>7</ele>
        <time>2020-12-06T09:40:00.838000+00:00</time>
      </trkpt>
      <trkpt lat="0" lon="0">
        <time>2020-12-06T09:40:00.843000+00:00</time>
      </trkpt>
      <trkpt lat="0" lon="0">
        <time>2020-12-06T09:40:00.847000+00:00</time>
      </trkpt>
      <trkpt lat="0" lon="0">
        <time>2020-12-06T09:40:00.849000+00:00</time>
      </trkpt>
      <trkpt lat="47.34605" lon="-1.28723">
        <ele>7</ele>
        <time>2020-12-06T09:40:01.836000+00:00</time>
      </trkpt>
      <trkpt lat="0" lon="0">
        <time>2020-12-06T09:40:01.850000+00:00</time>
      </trkpt>
      <trkpt lat="0" lon="0">
        <time>2020-12-06T09:40:01.853000+00:00</time>
      </trkpt>
      <trkpt lat="0" lon="0">
        <time>2020-12-06T09:40:01.862000+00:00</time>
      </trkpt>
      <trkpt lat="47.34617" lon="-1.28724">
        <ele>7</ele>
        <time>2020-12-06T09:40:02.825000+00:00</time>
      </trkpt>
      <trkpt lat="0" lon="0">
        <time>2020-12-06T09:40:02.835000+00:00</time>
      </trkpt>
      <trkpt lat="0" lon="0">
        <time>2020-12-06T09:40:02.848000+00:00</time>
      </trkpt>
      <trkpt lat="0" lon="0">
        <time>2020-12-06T09:40:02.858000+00:00</time>
      </trkpt>
      <trkpt lat="47.34619" lon="-1.28724">
        <ele>7</ele>
        <time>2020-12-06T09:40:03.863000+00:00</time>
      </trkpt>
      <trkpt lat="0" lon="0">
        <time>2020-12-06T09:40:03.869000+00:00</time>
      </trkpt>
      <trkpt lat="0" lon="0">
        <time>2020-12-06T09:40:03.878000+00:00</time>
      </trkpt>
      <trkpt lat="0" lon="0">
        <time>2020-12-06T09:40:03.880000+00:00</time>
      </trkpt>
      <trkpt lat="47.3462" lon="-1.28723">
        <ele>8</ele>
        <time>2020-12-06T09:40:04.861000+00:00</time>
      </trkpt>
      <trkpt lat="0" lon="0">
        <time>2020-12-06T09:40:04.864000+00:00</time>
      </trkpt>
      <trkpt lat="0" lon="0">
        <time>2020-12-06T09:40:04.877000+00:00</time>
      </trkpt>
      <trkpt lat="0" lon="0">
        <time>2020-12-06T09:40:04.880000+00:00</time>
      </trkpt>
      <trkpt lat="47.34621" lon="-1.28723">
        <ele>8</ele>
        <time>2020-12-06T09:40:05.858000+00:00</time>
      </trkpt>
      <trkpt lat="0" lon="0">
        <time>2020-12-06T09:40:05.870000+00:00</time>
      </trkpt>
      <trkpt lat="0" lon="0">
        <time>2020-12-06T09:40:05.877000+00:00</time>
      </trkpt>
      <trkpt lat="0" lon="0">
        <time>2020-12-06T09:40:05.879000+00:00</time>
      </trkpt>
      <trkpt lat="47.34622" lon="-1.28723">
        <ele>8</ele>
        <time>2020-12-06T09:40:06.864000+00:00</time>
      </trkpt>
      <trkpt lat="0" lon="0">
        <time>2020-12-06T09:40:06.873000+00:00</time>
      </trkpt>
      <trkpt lat="0" lon="0">
        <time>2020-12-06T09:40:06.893000+00:00</time>
      </trkpt>
      <trkpt lat="0" lon="0">
        <time>2020-12-06T09:40:06.899000+00:00</time>
      </trkpt>
      <trkpt lat="47.34622" lon="-1.28723">
        <ele>8</ele>
        <time>2020-12-06T09:40:07.873000+00:00</time>
      </trkpt>
      <trkpt lat="0" lon="0">
        <time>2020-12-06T09:40:07.887000+00:00</time>
      </trkpt>
      <trkpt lat="0" lon="0">
        <time>2020-12-06T09:40:07.891000+00:00</time>
      </trkpt>
      <trkpt lat="0" lon="0">
        <time>2020-12-06T09:40:07.894000+00:00</time>
      </trkpt>
      <trkpt lat="47.34623" lon="-1.28723">
        <ele>8</ele>
        <time>2020-12-06T09:40:08.881000+00:00</time>
      </trkpt>
      <trkpt lat="0" lon="0">
        <time>2020-12-06T09:40:08.889000+00:00</time>
      </trkpt>
      <trkpt lat="0" lon="0">
        <time>2020-12-06T09:40:08.894000+00:00</time>
      </trkpt>
      <trkpt lat="0" lon="0">
        <time>2020-12-06T09:40:08.895000+00:00</time>
      </trkpt>
      <trkpt lat="47.34622" lon="-1.28723">
        <ele>8</ele>
        <time>2020-12-06T09:40:09.867000+00:00</time>
      </trkpt>
      <trkpt lat="0" lon="0">
        <time>2020-12-06T09:40:09.878000+00:00</time>
      </trkpt>
      <trkpt lat="0" lon="0">
        <time>2020-12-06T09:40:09.881000+00:00</time>
      </trkpt>
      <trkpt lat="0" lon="0">
        <time>2020-12-06T09:40:09.885000+00:00</time>
      </trkpt>
      <trkpt lat="47.34622" lon="-1.28723">
        <ele>8</ele>
        <time>2020-12-06T09:40:10.881000+00:00</time>
      </trkpt>
      <trkpt lat="0" lon="0">
        <time>2020-12-06T09:40:10.888000+00:00</time>
      </trkpt>
      <trkpt lat="0" lon="0">
        <time>2020-12-06T09:40:10.895000+00:00</time>
      </trkpt>
      <trkpt lat="0" lon="0">
        <time>2020-12-06T09:40:10.896000+00:00</time>
      </trkpt>
      <trkpt lat="47.34622" lon="-1.28723">
        <ele>8</ele>
        <time>2020-12-06T09:40:11.886000+00:00</time>
      </trkpt>
      <trkpt lat="0" lon="0">
        <time>2020-12-06T09:40:11.895000+00:00</time>
      </trkpt>
      <trkpt lat="0" lon="0">
        <time>2020-12-06T09:40:11.901000+00:00</time>
      </trkpt>
      <trkpt lat="0" lon="0">
        <time>2020-12-06T09:40:11.924000+00:00</time>
      </trkpt>
      <trkpt lat="47.34598" lon="-1.28717">
        <ele>7</ele>
        <time>2020-12-06T09:40:12.824000+00:00</time>
      </trkpt>
      <trkpt lat="0" lon="0">
        <time>2020-12-06T09:40:12.825000+00:00</time>
      </trkpt>
      <trkpt lat="0" lon="0">
        <time>2020-12-06T09:40:12.826000+00:00</time>
      </trkpt>
      <trkpt lat="47.34595" lon="-1.28717">
        <ele>7</ele>
        <time>2020-12-06T09:40:13.829000+00:00</time>
      </trkpt>
      <trkpt lat="0" lon="0">
        <time>2020-12-06T09:40:13.844000+00:00</time>
      </trkpt>
      <trkpt lat="0" lon="0">
        <time>2020-12-06T09:40:13.848000+00:00</time>
      </trkpt>
      <trkpt lat="0" lon="0">
        <time>2020-12-06T09:40:13.850000+00:00</time>
      </trkpt>
      <trkpt lat="47.34593" lon="-1.28716">
        <ele>7</ele>
        <time>2020-12-06T09:40:14.870000+00:00</time>
      </trkpt>
      <trkpt lat="0" lon="0">
        <time>2020-12-06T09:40:14.875000+00:00</time>
      </trkpt>
      <trkpt lat="0" lon="0">
        <time>2020-12-06T09:40:14.881000+00:00</time>
      </trkpt>
      <trkpt lat="0" lon="0">
        <time>2020-12-06T09:40:14.883000+00:00</time>
      </trkpt>
      <trkpt lat="47.34591" lon="-1.28716">
        <ele>7</ele>
        <time>2020-12-06T09:40:15.895000+00:00</time>
      </trkpt>
      <trkpt lat="0" lon="0">
        <time>2020-12-06T09:40:15.906000+00:00</time>
      </trkpt>
      <trkpt lat="0" lon="0">
        <time>2020-12-06T09:40:15.912000+00:00</time>
      </trkpt>
      <trkpt lat="0" lon="0">
        <time>2020-12-06T09:40:15.915000+00:00</time>
      </trkpt>
      <trkpt lat="47.34589" lon="-1.28716">
        <ele>7</ele>
        <time>2020-12-06T09:40:16.896000+00:00</time>
      </trkpt>
      <trkpt lat="0" lon="0">
        <time>2020-12-06T09:40:16.921000+00:00</time>
      </trkpt>
      <trkpt lat="0" lon="0">
        <time>2020-12-06T09:40:16.926000+00:00</time>
      </trkpt>
      <trkpt lat="0" lon="0">
        <time>2020-12-06T09:40:16.928000+00:00</time>
      </trkpt>
      <trkpt lat="47.34587" lon="-1.28716">
        <ele>7</ele>
        <time>2020-12-06T09:40:17.881000+00:00</time>
      </trkpt>
      <trkpt lat="0" lon="0">
        <time>2020-12-06T09:40:17.884000+00:00</time>
      </trkpt>
      <trkpt lat="0" lon="0">
        <time>2020-12-06T09:40:17.894000+00:00</time>
      </trkpt>
      <trkpt lat="0" lon="0">
        <time>2020-12-06T09:40:17.896000+00:00</time>
      </trkpt>
      <trkpt lat="47.34586" lon="-1.28715">
        <ele>7</ele>
        <time>2020-12-06T09:40:18.895000+00:00</time>
      </trkpt>
      <trkpt lat="0" lon="0">
        <time>2020-12-06T09:40:18.911000+00:00</time>
      </trkpt>
      <trkpt lat="0" lon="0">
        <time>2020-12-06T09:40:18.919000+00:00</time>
      </trkpt>
      <trkpt lat="0" lon="0">
        <time>2020-12-06T09:40:18.920000+00:00</time>
      </trkpt>
      <trkpt lat="47.34586" lon="-1.28716">
        <ele>7</ele>
        <time>2020-12-06T09:40:19.865000+00:00</time>
      </trkpt>
      <trkpt lat="0" lon="0">
        <time>2020-12-06T09:40:19.871000+00:00</time>
      </trkpt>
      <trkpt lat="0" lon="0">
        <time>2020-12-06T09:40:19.892000+00:00</time>
      </trkpt>
      <trkpt lat="0" lon="0">
        <time>2020-12-06T09:40:19.895000+00:00</time>
      </trkpt>
      <trkpt lat="47.34586" lon="-1.28717">
        <ele>7</ele>
        <time>2020-12-06T09:40:20.902000+00:00</time>
      </trkpt>
      <trkpt lat="0" lon="0">
        <time>2020-12-06T09:40:20.909000+00:00</time>
      </trkpt>
      <trkpt lat="0" lon="0">
        <time>2020-12-06T09:40:20.915000+00:00</time>
      </trkpt>
      <trkpt lat="0" lon="0">
        <time>2020-12-06T09:40:20.918000+00:00</time>
      </trkpt>
      <trkpt lat="47.34587" lon="-1.28718">
        <ele>7</ele>
        <time>2020-12-06T09:40:21.904000+00:00</time>
      </trkpt>
      <trkpt lat="0" lon="0">
        <time>2020-12-06T09:40:21.911000+00:00</time>
      </trkpt>
      <trkpt lat="0" lon="0">
        <time>2020-12-06T09:40:21.917000+00:00</time>
      </trkpt>
      <trkpt lat="0" lon="0">
        <time>2020-12-06T09:40:21.922000+00:00</time>
      </trkpt>
      <trkpt lat="47.34587" lon="-1.28719">
        <ele>7</ele>
        <time>2020-12-06T09:40:22.857000+00:00</time>
      </trkpt>
      <trkpt lat="0" lon="0">
        <time>2020-12-06T09:40:22.864000+00:00</time>
      </trkpt>
      <trkpt lat="0" lon="0">
        <time>2020-12-06T09:40:22.867000+00:00</time>
      </trkpt>
      <trkpt lat="0" lon="0">
        <time>2020-12-06T09:40:22.869000+00:00</time>
      </trkpt>
      <trkpt lat="47.34588" lon="-1.2872">
        <ele>7</ele>
        <time>2020-12-06T09:40:23.865000+00:00</time>
      </trkpt>
      <trkpt lat="0" lon="0">
        <time>2020-12-06T09:40:23.868000+00:00</time>
      </trkpt>
      <trkpt lat="0" lon="0">
        <time>2020-12-06T09:40:23.885000+00:00</time>
      </trkpt>
      <trkpt lat="0" lon="0">
        <time>2020-12-06T09:40:23.888000+00:00</time>
      </trkpt>
      <trkpt lat="47.34588" lon="-1.28721">
        <ele>7</ele>
        <time>2020-12-06T09:40:24.861000+00:00</time>
      </trkpt>
      <trkpt lat="0" lon="0">
        <time>2020-12-06T09:40:24.874000+00:00</time>
      </trkpt>
      <trkpt lat="0" lon="0">
        <time>2020-12-06T09:40:24.884000+00:00</time>
      </trkpt>
      <trkpt lat="0" lon="0">
        <time>2020-12-06T09:40:24.886000+00:00</time>
      </trkpt>
      <trkpt lat="47.34589" lon="-1.28722">
        <ele>7</ele>
        <time>2020-12-06T09:40:25.879000+00:00</time>
      </trkpt>
      <trkpt lat="0" lon="0">
        <time>2020-12-06T09:40:25.896000+00:00</time>
      </trkpt>
      <trkpt lat="0" lon="0">
        <time>2020-12-06T09:40:25.903000+00:00</time>
      </trkpt>
      <trkpt lat="0" lon="0">
        <time>2020-12-06T09:40:25.919000+00:00</time>
      </trkpt>
      <trkpt lat="47.34587" lon="-1.28737">
        <ele>7</ele>
        <time>2020-12-06T09:40:26.839000+00:00</time>
      </trkpt>
      <trkpt lat="0" lon="0">
        <time>2020-12-06T09:40:26.845000+00:00</time>
      </trkpt>
      <trkpt lat="0" lon="0">
        <time>2020-12-06T09:40:26.848000+00:00</time>
      </trkpt>
      <trkpt lat="0" lon="0">
        <time>2020-12-06T09:40:26.850000+00:00</time>
      </trkpt>
      <trkpt lat="47.34585" lon="-1.28737">
        <ele>7</ele>
        <time>2020-12-06T09:40:27.889000+00:00</time>
      </trkpt>
      <trkpt lat="0" lon="0">
        <time>2020-12-06T09:40:27.891000+00:00</time>
      </trkpt>
      <trkpt lat="0" lon="0">
        <time>2020-12-06T09:40:27.893000+00:00</time>
      </trkpt>
      <trkpt lat="47.34584" lon="-1.28737">
        <ele>7</ele>
        <time>2020-12-06T09:40:28.917000+00:00</time>
      </trkpt>
      <trkpt lat="0" lon="0">
        <time>2020-12-06T09:40:28.926000+00:00</time>
      </trkpt>
      <trkpt lat="0" lon="0">
        <time>2020-12-06T09:40:28.929000+00:00</time>
      </trkpt>
      <trkpt lat="0" lon="0">
        <time>2020-12-06T09:40:28.932000+00:00</time>
      </trkpt>
      <trkpt lat="47.34583" lon="-1.28737">
        <ele>7</ele>
        <time>2020-12-06T09:40:29.927000+00:00</time>
      </trkpt>
      <trkpt lat="0" lon="0">
        <time>2020-12-06T09:40:29.930000+00:00</time>
      </trkpt>
      <trkpt lat="0" lon="0">
        <time>2020-12-06T09:40:29.936000+00:00</time>
      </trkpt>
      <trkpt lat="0" lon="0">
        <time>2020-12-06T09:40:29.939000+00:00</time>
      </trkpt>
      <trkpt lat="47.34583" lon="-1.28736">
        <ele>7</ele>
        <time>2020-12-06T09:40:30.917000+00:00</time>
      </trkpt>
      <trkpt lat="0" lon="0">
        <time>2020-12-06T09:40:30.931000+00:00</time>
      </trkpt>
      <trkpt lat="0" lon="0">
        <time>2020-12-06T09:40:30.937000+00:00</time>
      </trkpt>
      <trkpt lat="0" lon="0">
        <time>2020-12-06T09:40:30.939000+00:00</time>
      </trkpt>
      <trkpt lat="47.34583" lon="-1.28736">
        <ele>7</ele>
        <time>2020-12-06T09:40:31.911000+00:00</time>
      </trkpt>
      <trkpt lat="0" lon="0">
        <time>2020-12-06T09:40:31.921000+00:00</time>
      </trkpt>
      <trkpt lat="0" lon="0">
        <time>2020-12-06T09:40:31.925000+00:00</time>
      </trkpt>
      <trkpt lat="0" lon="0">
        <time>2020-12-06T09:40:31.928000+00:00</time>
      </trkpt>
      <trkpt lat="47.34584" lon="-1.28735">
        <ele>7</ele>
        <time>2020-12-06T09:40:32.887000+00:00</time>
      </trkpt>
      <trkpt lat="0" lon="0">
        <time>2020-12-06T09:40:32.890000+00:00</time>
      </trkpt>
      <trkpt lat="0" lon="0">
        <time>2020-12-06T09:40:32.900000+00:00</time>
      </trkpt>
      <trkpt lat="0" lon="0">
        <time>2020-12-06T09:40:32.902000+00:00</time>
      </trkpt>
      <trkpt lat="47.34584" lon="-1.28735">
        <ele>7</ele>
        <time>2020-12-06T09:40:33.894000+00:00</time>
      </trkpt>
      <trkpt lat="0" lon="0">
        <time>2020-12-06T09:40:33.908000+00:00</time>
      </trkpt>
      <trkpt lat="0" lon="0">
        <time>2020-12-06T09:40:33.911000+00:00</time>
      </trkpt>
      <trkpt lat="0" lon="0">
        <time>2020-12-06T09:40:33.914000+00:00</time>
      </trkpt>
      <trkpt lat="47.34584" lon="-1.28734">
        <ele>7</ele>
        <time>2020-12-06T09:40:34.905000+00:00</time>
      </trkpt>
      <trkpt lat="0" lon="0">
        <time>2020-12-06T09:40:34.918000+00:00</time>
      </trkpt>
      <trkpt lat="0" lon="0">
        <time>2020-12-06T09:40:34.922000+00:00</time>
      </trkpt>
      <trkpt lat="0" lon="0">
        <time>2020-12-06T09:40:34.923000+00:00</time>
      </trkpt>
      <trkpt lat="47.34584" lon="-1.28734">
        <ele>7</ele>
        <time>2020-12-06T09:40:35.906000+00:00</time>
      </trkpt>
      <trkpt lat="0" lon="0">
        <time>2020-12-06T09:40:35.917000+00:00</time>
      </trkpt>
      <trkpt lat="0" lon="0">
        <time>2020-12-06T09:40:35.926000+00:00</time>
      </trkpt>
      <trkpt lat="0" lon="0">
        <time>2020-12-06T09:40:35.942000+00:00</time>
      </trkpt>
      <trkpt lat="47.34593" lon="-1.28737">
        <ele>7</ele>
        <time>2020-12-06T09:40:36.897000+00:00</time>
      </trkpt>
      <trkpt lat="0" lon="0">
        <time>2020-12-06T09:40:36.900000+00:00</time>
      </trkpt>
      <trkpt lat="0" lon="0">
        <time>2020-12-06T09:40:36.905000+00:00</time>
      </trkpt>
      <trkpt lat="0" lon="0">
        <time>2020-12-06T09:40:36.907000+00:00</time>
      </trkpt>
      <trkpt lat="47.34592" lon="-1.28737">
        <ele>7</ele>
        <time>2020-12-06T09:40:37.934000+00:00</time>
      </trkpt>
      <trkpt lat="0" lon="0">
        <time>2020-12-06T09:40:37.950000+00:00</time>
      </trkpt>
      <trkpt lat="0" lon="0">
        <time>2020-12-06T09:40:37.958000+00:00</time>
      </trkpt>
      <trkpt lat="0" lon="0">
        <time>2020-12-06T09:40:37.963000+00:00</time>
      </trkpt>
      <trkpt lat="47.34591" lon="-1.28737">
        <ele>7</ele>
        <time>2020-12-06T09:40:38.910000+00:00</time>
      </trkpt>
      <trkpt lat="0" lon="0">
        <time>2020-12-06T09:40:38.915000+00:00</time>
      </trkpt>
      <trkpt lat="0" lon="0">
        <time>2020-12-06T09:40:38.923000+00:00</time>
      </trkpt>
      <trkpt lat="0" lon="0">
        <time>2020-12-06T09:40:38.927000+00:00</time>
      </trkpt>
      <trkpt lat="47.3459" lon="-1.28737">
        <ele>7</ele>
        <time>2020-12-06T09:40:39.928000+00:00</time>
      </trkpt>
      <trkpt lat="0" lon="0">
        <time>2020-12-06T09:40:39.931000+00:00</time>
      </trkpt>
      <trkpt lat="0" lon="0">
        <time>2020-12-06T09:40:39.943000+00:00</time>
      </trkpt>
      <trkpt lat="0" lon="0">
        <time>2020-12-06T09:40:39.953000+00:00</time>
      </trkpt>
      <trkpt lat="47.3459" lon="-1.28737">
        <ele>7</ele>
        <time>2020-12-06T09:40:40.911000+00:00</time>
      </trkpt>
      <trkpt lat="0" lon="0">
        <time>2020-12-06T09:40:40.923000+00:00</time>
      </trkpt>
      <trkpt lat="0" lon="0">
        <time>2020-12-06T09:40:40.926000+00:00</time>
      </trkpt>
      <trkpt lat="0" lon="0">
        <time>2020-12-06T09:40:40.927000+00:00</time>
      </trkpt>
      <trkpt lat="47.3459" lon="-1.28737">
        <ele>7</ele>
        <time>2020-12-06T09:40:41.940000+00:00</time>
      </trkpt>
      <trkpt lat="0" lon="0">
        <time>2020-12-06T09:40:41.947000+00:00</time>
      </trkpt>
      <trkpt lat="0" lon="0">
        <time>2020-12-06T09:40:41.952000+00:00</time>
      </trkpt>
      <trkpt lat="0" lon="0">
        <time>2020-12-06T09:40:41.954000+00:00</time>
      </trkpt>
      <trkpt lat="47.3459" lon="-1.28736">
        <ele>7</ele>
        <time>2020-12-06T09:40:42.966000+00:00</time>
      </trkpt>
      <trkpt lat="0" lon="0">
        <time>2020-12-06T09:40:42.974000+00:00</time>
      </trkpt>
      <trkpt lat="0" lon="0">
        <time>2020-12-06T09:40:42.983000+00:00</time>
      </trkpt>
      <trkpt lat="0" lon="0">
        <time>2020-12-06T09:40:43.001000+00:00</time>
      </trkpt>
      <trkpt lat="47.34607" lon="-1.28732">
        <ele>7</ele>
        <time>2020-12-06T09:40:44.007000+00:00</time>
      </trkpt>
      <trkpt lat="0" lon="0">
        <time>2020-12-06T09:40:44.028000+00:00</time>
      </trkpt>
      <trkpt lat="0" lon="0">
        <time>2020-12-06T09:40:44.032000+00:00</time>
      </trkpt>
      <trkpt lat="0" lon="0">
        <time>2020-12-06T09:40:44.033000+00:00</time>
      </trkpt>
      <trkpt lat="47.34608" lon="-1.28732">
        <ele>7</ele>
        <time>2020-12-06T09:40:45.031000+00:00</time>
      </trkpt>
      <trkpt lat="0" lon="0">
        <time>2020-12-06T09:40:45.035000+00:00</time>
      </trkpt>
      <trkpt lat="0" lon="0">
        <time>2020-12-06T09:40:45.038000+00:00</time>
      </trkpt>
      <trkpt lat="0" lon="0">
        <time>2020-12-06T09:40:45.040000+00:00</time>
      </trkpt>
      <trkpt lat="47.34608" lon="-1.28732">
        <ele>7</ele>
        <time>2020-12-06T09:40:46.041000+00:00</time>
      </trkpt>
      <trkpt lat="0" lon="0">
        <time>2020-12-06T09:40:46.044000+00:00</time>
      </trkpt>
      <trkpt lat="0" lon="0">
        <time>2020-12-06T09:40:46.047000+00:00</time>
      </trkpt>
      <trkpt lat="0" lon="0">
        <time>2020-12-06T09:40:46.049000+00:00</time>
      </trkpt>
      <trkpt lat="47.34609" lon="-1.28731">
        <ele>7</ele>
        <time>2020-12-06T09:40:46.994000+00:00</time>
      </trkpt>
      <trkpt lat="0" lon="0">
        <time>2020-12-06T09:40:47.003000+00:00</time>
      </trkpt>
      <trkpt lat="0" lon="0">
        <time>2020-12-06T09:40:47.011000+00:00</time>
      </trkpt>
      <trkpt lat="0" lon="0">
        <time>2020-12-06T09:40:47.024000+00:00</time>
      </trkpt>
      <trkpt lat="47.34635" lon="-1.28731">
        <ele>8</ele>
        <time>2020-12-06T09:40:48.007000+00:00</time>
      </trkpt>
      <trkpt lat="0" lon="0">
        <time>2020-12-06T09:40:48.013000+00:00</time>
      </trkpt>
      <trkpt lat="0" lon="0">
        <time>2020-12-06T09:40:48.018000+00:00</time>
      </trkpt>
      <trkpt lat="0" lon="0">
        <time>2020-12-06T09:40:48.023000+00:00</time>
      </trkpt>
      <trkpt lat="47.34636" lon="-1.28732">
        <ele>8</ele>
        <time>2020-12-06T09:40:49.015000+00:00</time>
      </trkpt>
      <trkpt lat="0" lon="0">
        <time>2020-12-06T09:40:49.019000+00:00</time>
      </trkpt>
      <trkpt lat="0" lon="0">
        <time>2020-12-06T09:40:49.025000+00:00</time>
      </trkpt>
      <trkpt lat="0" lon="0">
        <time>2020-12-06T09:40:49.026000+00:00</time>
      </trkpt>
      <trkpt lat="47.34637" lon="-1.28733">
        <ele>8</ele>
        <time>2020-12-06T09:40:50.005000+00:00</time>
      </trkpt>
      <trkpt lat="0" lon="0">
        <time>2020-12-06T09:40:50.012000+00:00</time>
      </trkpt>
      <trkpt lat="0" lon="0">
        <time>2020-12-06T09:40:50.020000+00:00</time>
      </trkpt>
      <trkpt lat="0" lon="0">
        <time>2020-12-06T09:40:50.026000+00:00</time>
      </trkpt>
      <trkpt lat="47.34637" lon="-1.28733">
        <ele>8</ele>
        <time>2020-12-06T09:40:51.014000+00:00</time>
      </trkpt>
      <trkpt lat="0" lon="0">
        <time>2020-12-06T09:40:51.015000+00:00</time>
      </trkpt>
      <trkpt lat="0" lon="0">
        <time>2020-12-06T09:40:51.017000+00:00</time>
      </trkpt>
      <trkpt lat="0" lon="0">
        <time>2020-12-06T09:40:51.018000+00:00</time>
      </trkpt>
      <trkpt lat="47.34636" lon="-1.28734">
        <ele>8</ele>
        <time>2020-12-06T09:40:51.996000+00:00</time>
      </trkpt>
      <trkpt lat="0" lon="0">
        <time>2020-12-06T09:40:51.999000+00:00</time>
      </trkpt>
      <trkpt lat="0" lon="0">
        <time>2020-12-06T09:40:52.010000+00:00</time>
      </trkpt>
      <trkpt lat="0" lon="0">
        <time>2020-12-06T09:40:52.014000+00:00</time>
      </trkpt>
      <trkpt lat="47.34636" lon="-1.28734">
        <ele>8</ele>
        <time>2020-12-06T09:40:53.041000+00:00</time>
      </trkpt>
      <trkpt lat="0" lon="0">
        <time>2020-12-06T09:40:53.044000+00:00</time>
      </trkpt>
      <trkpt lat="0" lon="0">
        <time>2020-12-06T09:40:53.046000+00:00</time>
      </trkpt>
      <trkpt lat="0" lon="0">
        <time>2020-12-06T09:40:53.048000+00:00</time>
      </trkpt>
      <trkpt lat="47.34634" lon="-1.28734">
        <ele>8</ele>
        <time>2020-12-06T09:40:53.996000+00:00</time>
      </trkpt>
      <trkpt lat="0" lon="0">
        <time>2020-12-06T09:40:54.006000+00:00</time>
      </trkpt>
      <trkpt lat="0" lon="0">
        <time>2020-12-06T09:40:54.015000+00:00</time>
      </trkpt>
      <trkpt lat="0" lon="0">
        <time>2020-12-06T09:40:54.018000+00:00</time>
      </trkpt>
      <trkpt lat="47.34632" lon="-1.28735">
        <ele>8</ele>
        <time>2020-12-06T09:40:55.023000+00:00</time>
      </trkpt>
      <trkpt lat="0" lon="0">
        <time>2020-12-06T09:40:55.036000+00:00</time>
      </trkpt>
      <trkpt lat="0" lon="0">
        <time>2020-12-06T09:40:55.041000+00:00</time>
      </trkpt>
      <trkpt lat="0" lon="0">
        <time>2020-12-06T09:40:55.058000+00:00</time>
      </trkpt>
      <trkpt lat="47.34624" lon="-1.28753">
        <ele>8</ele>
        <time>2020-12-06T09:40:55.994000+00:00</time>
      </trkpt>
      <trkpt lat="0" lon="0">
        <time>2020-12-06T09:40:55.995000+00:00</time>
      </trkpt>
      <trkpt lat="0" lon="0">
        <time>2020-12-06T09:40:55.997000+00:00</time>
      </trkpt>
      <trkpt lat="0" lon="0">
        <time>2020-12-06T09:40:55.998000+00:00</time>
      </trkpt>
      <trkpt lat="47.34625" lon="-1.28754">
        <ele>8</ele>
        <time>2020-12-06T09:40:57.029000+00:00</time>
      </trkpt>
      <trkpt lat="0" lon="0">
        <time>2020-12-06T09:40:57.041000+00:00</time>
      </trkpt>
      <trkpt lat="0" lon="0">
        <time>2020-12-06T09:40:57.045000+00:00</time>
      </trkpt>
      <trkpt lat="0" lon="0">
        <time>2020-12-06T09:40:57.051000+00:00</time>
      </trkpt>
      <trkpt lat="47.34626" lon="-1.28754">
        <ele>8</ele>
        <time>2020-12-06T09:40:58.084000+00:00</time>
      </trkpt>
      <trkpt lat="0" lon="0">
        <time>2020-12-06T09:40:58.088000+00:00</time>
      </trkpt>
      <trkpt lat="0" lon="0">
        <time>2020-12-06T09:40:58.092000+00:00</time>
      </trkpt>
      <trkpt lat="0" lon="0">
        <time>2020-12-06T09:40:58.094000+00:00</time>
      </trkpt>
      <trkpt lat="47.34627" lon="-1.28753">
        <ele>8</ele>
        <time>2020-12-06T09:40:59.083000+00:00</time>
      </trkpt>
      <trkpt lat="0" lon="0">
        <time>2020-12-06T09:40:59.089000+00:00</time>
      </trkpt>
      <trkpt lat="0" lon="0">
        <time>2020-12-06T09:40:59.093000+00:00</time>
      </trkpt>
      <trkpt lat="0" lon="0">
        <time>2020-12-06T09:40:59.095000+00:00</time>
      </trkpt>
      <trkpt lat="47.34628" lon="-1.28752">
        <ele>8</ele>
        <time>2020-12-06T09:41:00.040000+00:00</time>
      </trkpt>
      <trkpt lat="0" lon="0">
        <time>2020-12-06T09:41:00.053000+00:00</time>
      </trkpt>
      <trkpt lat="0" lon="0">
        <time>2020-12-06T09:41:00.061000+00:00</time>
      </trkpt>
      <trkpt lat="0" lon="0">
        <time>2020-12-06T09:41:00.066000+00:00</time>
      </trkpt>
      <trkpt lat="47.34628" lon="-1.28751">
        <ele>8</ele>
        <time>2020-12-06T09:41:01.058000+00:00</time>
      </trkpt>
      <trkpt lat="0" lon="0">
        <time>2020-12-06T09:41:01.080000+00:00</time>
      </trkpt>
      <trkpt lat="0" lon="0">
        <time>2020-12-06T09:41:01.083000+00:00</time>
      </trkpt>
      <trkpt lat="0" lon="0">
        <time>2020-12-06T09:41:01.088000+00:00</time>
      </trkpt>
      <trkpt lat="47.34627" lon="-1.28749">
        <ele>8</ele>
        <time>2020-12-06T09:41:02.059000+00:00</time>
      </trkpt>
      <trkpt lat="0" lon="0">
        <time>2020-12-06T09:41:02.077000+00:00</time>
      </trkpt>
      <trkpt lat="0" lon="0">
        <time>2020-12-06T09:41:02.080000+00:00</time>
      </trkpt>
      <trkpt lat="0" lon="0">
        <time>2020-12-06T09:41:02.082000+00:00</time>
      </trkpt>
      <trkpt lat="47.34627" lon="-1.28748">
        <ele>8</ele>
        <time>2020-12-06T09:41:03.067000+00:00</time>
      </trkpt>
      <trkpt lat="0" lon="0">
        <time>2020-12-06T09:41:03.081000+00:00</time>
      </trkpt>
      <trkpt lat="0" lon="0">
        <time>2020-12-06T09:41:03.084000+00:00</time>
      </trkpt>
      <trkpt lat="0" lon="0">
        <time>2020-12-06T09:41:03.107000+00:00</time>
      </trkpt>
      <trkpt lat="47.34616" lon="-1.28722">
        <ele>7</ele>
        <time>2020-12-06T09:41:04.074000+00:00</time>
      </trkpt>
      <trkpt lat="0" lon="0">
        <time>2020-12-06T09:41:04.075000+00:00</time>
      </trkpt>
      <trkpt lat="0" lon="0">
        <time>2020-12-06T09:41:04.077000+00:00</time>
      </trkpt>
      <trkpt lat="0" lon="0">
        <time>2020-12-06T09:41:04.078000+00:00</time>
      </trkpt>
      <trkpt lat="47.34615" lon="-1.28719">
        <ele>7</ele>
        <time>2020-12-06T09:41:05.114000+00:00</time>
      </trkpt>
      <trkpt lat="0" lon="0">
        <time>2020-12-06T09:41:05.118000+00:00</time>
      </trkpt>
      <trkpt lat="0" lon="0">
        <time>2020-12-06T09:41:05.123000+00:00</time>
      </trkpt>
      <trkpt lat="0" lon="0">
        <time>2020-12-06T09:41:05.125000+00:00</time>
      </trkpt>
      <trkpt lat="47.34614" lon="-1.28715">
        <ele>7</ele>
        <time>2020-12-06T09:41:06.100000+00:00</time>
      </trkpt>
      <trkpt lat="0" lon="0">
        <time>2020-12-06T09:41:06.114000+00:00</time>
      </trkpt>
      <trkpt lat="0" lon="0">
        <time>2020-12-06T09:41:06.123000+00:00</time>
      </trkpt>
      <trkpt lat="0" lon="0">
        <time>2020-12-06T09:41:06.125000+00:00</time>
      </trkpt>
      <trkpt lat="47.34614" lon="-1.28713">
        <ele>7</ele>
        <time>2020-12-06T09:41:07.122000+00:00</time>
      </trkpt>
      <trkpt lat="0" lon="0">
        <time>2020-12-06T09:41:07.139000+00:00</time>
      </trkpt>
      <trkpt lat="0" lon="0">
        <time>2020-12-06T09:41:07.147000+00:00</time>
      </trkpt>
      <trkpt lat="0" lon="0">
        <time>2020-12-06T09:41:07.149000+00:00</time>
      </trkpt>
      <trkpt lat="47.34614" lon="-1.2871">
        <ele>7</ele>
        <time>2020-12-06T09:41:08.144000+00:00</time>
      </trkpt>
      <trkpt lat="0" lon="0">
        <time>2020-12-06T09:41:08.146000+00:00</time>
      </trkpt>
      <trkpt lat="0" lon="0">
        <time>2020-12-06T09:41:08.148000+00:00</time>
      </trkpt>
      <trkpt lat="0" lon="0">
        <time>2020-12-06T09:41:08.155000+00:00</time>
      </trkpt>
      <trkpt lat="47.34613" lon="-1.28708">
        <ele>7</ele>
        <time>2020-12-06T09:41:09.133000+00:00</time>
      </trkpt>
      <trkpt lat="0" lon="0">
        <time>2020-12-06T09:41:09.147000+00:00</time>
      </trkpt>
      <trkpt lat="0" lon="0">
        <time>2020-12-06T09:41:09.152000+00:00</time>
      </trkpt>
      <trkpt lat="0" lon="0">
        <time>2020-12-06T09:41:09.156000+00:00</time>
      </trkpt>
      <trkpt lat="47.34613" lon="-1.28706">
        <ele>7</ele>
        <time>2020-12-06T09:41:10.133000+00:00</time>
      </trkpt>
      <trkpt lat="0" lon="0">
        <time>2020-12-06T09:41:10.145000+00:00</time>
      </trkpt>
      <trkpt lat="0" lon="0">
        <time>2020-12-06T09:41:10.150000+00:00</time>
      </trkpt>
      <trkpt lat="0" lon="0">
        <time>2020-12-06T09:41:10.152000+00:00</time>
      </trkpt>
      <trkpt lat="47.34613" lon="-1.28705">
        <ele>7</ele>
        <time>2020-12-06T09:41:11.124000+00:00</time>
      </trkpt>
      <trkpt lat="0" lon="0">
        <time>2020-12-06T09:41:11.134000+00:00</time>
      </trkpt>
      <trkpt lat="0" lon="0">
        <time>2020-12-06T09:41:11.147000+00:00</time>
      </trkpt>
      <trkpt lat="0" lon="0">
        <time>2020-12-06T09:41:11.152000+00:00</time>
      </trkpt>
      <trkpt lat="47.34613" lon="-1.28704">
        <ele>7</ele>
        <time>2020-12-06T09:41:12.122000+00:00</time>
      </trkpt>
      <trkpt lat="0" lon="0">
        <time>2020-12-06T09:41:12.137000+00:00</time>
      </trkpt>
      <trkpt lat="0" lon="0">
        <time>2020-12-06T09:41:12.143000+00:00</time>
      </trkpt>
      <trkpt lat="0" lon="0">
        <time>2020-12-06T09:41:12.145000+00:00</time>
      </trkpt>
      <trkpt lat="47.34613" lon="-1.28704">
        <ele>7</ele>
        <time>2020-12-06T09:41:13.140000+00:00</time>
      </trkpt>
      <trkpt lat="0" lon="0">
        <time>2020-12-06T09:41:13.162000+00:00</time>
      </trkpt>
      <trkpt lat="0" lon="0">
        <time>2020-12-06T09:41:13.171000+00:00</time>
      </trkpt>
      <trkpt lat="0" lon="0">
        <time>2020-12-06T09:41:13.172000+00:00</time>
      </trkpt>
      <trkpt lat="47.34613" lon="-1.28704">
        <ele>7</ele>
        <time>2020-12-06T09:41:14.126000+00:00</time>
      </trkpt>
      <trkpt lat="0" lon="0">
        <time>2020-12-06T09:41:14.142000+00:00</time>
      </trkpt>
      <trkpt lat="0" lon="0">
        <time>2020-12-06T09:41:14.146000+00:00</time>
      </trkpt>
      <trkpt lat="0" lon="0">
        <time>2020-12-06T09:41:14.150000+00:00</time>
      </trkpt>
      <trkpt lat="47.34614" lon="-1.28705">
        <ele>7</ele>
        <time>2020-12-06T09:41:15.114000+00:00</time>
      </trkpt>
      <trkpt lat="0" lon="0">
        <time>2020-12-06T09:41:15.119000+00:00</time>
      </trkpt>
      <trkpt lat="0" lon="0">
        <time>2020-12-06T09:41:15.124000+00:00</time>
      </trkpt>
      <trkpt lat="0" lon="0">
        <time>2020-12-06T09:41:15.126000+00:00</time>
      </trkpt>
      <trkpt lat="47.34615" lon="-1.28705">
        <ele>7</ele>
        <time>2020-12-06T09:41:16.135000+00:00</time>
      </trkpt>
      <trkpt lat="0" lon="0">
        <time>2020-12-06T09:41:16.159000+00:00</time>
      </trkpt>
      <trkpt lat="0" lon="0">
        <time>2020-12-06T09:41:16.163000+00:00</time>
      </trkpt>
      <trkpt lat="0" lon="0">
        <time>2020-12-06T09:41:16.168000+00:00</time>
      </trkpt>
      <trkpt lat="47.34616" lon="-1.28706">
        <ele>7</ele>
        <time>2020-12-06T09:41:17.129000+00:00</time>
      </trkpt>
      <trkpt lat="0" lon="0">
        <time>2020-12-06T09:41:17.139000+00:00</time>
      </trkpt>
      <trkpt lat="0" lon="0">
        <time>2020-12-06T09:41:17.142000+00:00</time>
      </trkpt>
      <trkpt lat="0" lon="0">
        <time>2020-12-06T09:41:17.143000+00:00</time>
      </trkpt>
      <trkpt lat="47.34617" lon="-1.28707">
        <ele>8</ele>
        <time>2020-12-06T09:41:18.133000+00:00</time>
      </trkpt>
      <trkpt lat="0" lon="0">
        <time>2020-12-06T09:41:18.137000+00:00</time>
      </trkpt>
      <trkpt lat="0" lon="0">
        <time>2020-12-06T09:41:18.143000+00:00</time>
      </trkpt>
      <trkpt lat="0" lon="0">
        <time>2020-12-06T09:41:18.158000+00:00</time>
      </trkpt>
      <trkpt lat="47.34625" lon="-1.28718">
        <ele>8</ele>
        <time>2020-12-06T09:41:19.111000+00:00</time>
      </trkpt>
      <trkpt lat="0" lon="0">
        <time>2020-12-06T09:41:19.115000+00:00</time>
      </trkpt>
      <trkpt lat="0" lon="0">
        <time>2020-12-06T09:41:19.119000+00:00</time>
      </trkpt>
      <trkpt lat="0" lon="0">
        <time>2020-12-06T09:41:19.126000+00:00</time>
      </trkpt>
      <trkpt lat="47.34626" lon="-1.28717">
        <ele>8</ele>
        <time>2020-12-06T09:41:20.124000+00:00</time>
      </trkpt>
      <trkpt lat="0" lon="0">
        <time>2020-12-06T09:41:20.129000+00:00</time>
      </trkpt>
      <trkpt lat="0" lon="0">
        <time>2020-12-06T09:41:20.132000+00:00</time>
      </trkpt>
      <trkpt lat="0" lon="0">
        <time>2020-12-06T09:41:20.134000+00:00</time>
      </trkpt>
      <trkpt lat="47.34627" lon="-1.28717">
        <ele>8</ele>
        <time>2020-12-06T09:41:21.139000+00:00</time>
      </trkpt>
      <trkpt lat="0" lon="0">
        <time>2020-12-06T09:41:21.154000+00:00</time>
      </trkpt>
      <trkpt lat="0" lon="0">
        <time>2020-12-06T09:41:21.158000+00:00</time>
      </trkpt>
      <trkpt lat="0" lon="0">
        <time>2020-12-06T09:41:21.160000+00:00</time>
      </trkpt>
      <trkpt lat="47.34628" lon="-1.28716">
        <ele>8</ele>
        <time>2020-12-06T09:41:22.124000+00:00</time>
      </trkpt>
      <trkpt lat="0" lon="0">
        <time>2020-12-06T09:41:22.128000+00:00</time>
      </trkpt>
      <trkpt lat="0" lon="0">
        <time>2020-12-06T09:41:22.140000+00:00</time>
      </trkpt>
      <trkpt lat="0" lon="0">
        <time>2020-12-06T09:41:22.142000+00:00</time>
      </trkpt>
      <trkpt lat="47.34629" lon="-1.28715">
        <ele>8</ele>
        <time>2020-12-06T09:41:23.133000+00:00</time>
      </trkpt>
      <trkpt lat="0" lon="0">
        <time>2020-12-06T09:41:23.139000+00:00</time>
      </trkpt>
      <trkpt lat="0" lon="0">
        <time>2020-12-06T09:41:23.149000+00:00</time>
      </trkpt>
      <trkpt lat="0" lon="0">
        <time>2020-12-06T09:41:23.152000+00:00</time>
      </trkpt>
      <trkpt lat="47.3463" lon="-1.28715">
        <ele>8</ele>
        <time>2020-12-06T09:41:24.120000+00:00</time>
      </trkpt>
      <trkpt lat="0" lon="0">
        <time>2020-12-06T09:41:24.124000+00:00</time>
      </trkpt>
      <trkpt lat="0" lon="0">
        <time>2020-12-06T09:41:24.132000+00:00</time>
      </trkpt>
      <trkpt lat="0" lon="0">
        <time>2020-12-06T09:41:24.134000+00:00</time>
      </trkpt>
      <trkpt lat="47.34631" lon="-1.28714">
        <ele>8</ele>
        <time>2020-12-06T09:41:25.117000+00:00</time>
      </trkpt>
      <trkpt lat="0" lon="0">
        <time>2020-12-06T09:41:25.121000+00:00</time>
      </trkpt>
      <trkpt lat="0" lon="0">
        <time>2020-12-06T09:41:25.124000+00:00</time>
      </trkpt>
      <trkpt lat="0" lon="0">
        <time>2020-12-06T09:41:25.126000+00:00</time>
      </trkpt>
      <trkpt lat="47.34632" lon="-1.28714">
        <ele>8</ele>
        <time>2020-12-06T09:41:26.138000+00:00</time>
      </trkpt>
      <trkpt lat="0" lon="0">
        <time>2020-12-06T09:41:26.154000+00:00</time>
      </trkpt>
      <trkpt lat="0" lon="0">
        <time>2020-12-06T09:41:26.159000+00:00</time>
      </trkpt>
      <trkpt lat="0" lon="0">
        <time>2020-12-06T09:41:26.161000+00:00</time>
      </trkpt>
      <trkpt lat="47.34633" lon="-1.28714">
        <ele>8</ele>
        <time>2020-12-06T09:41:27.152000+00:00</time>
      </trkpt>
      <trkpt lat="0" lon="0">
        <time>2020-12-06T09:41:27.169000+00:00</time>
      </trkpt>
      <trkpt lat="0" lon="0">
        <time>2020-12-06T09:41:27.173000+00:00</time>
      </trkpt>
      <trkpt lat="0" lon="0">
        <time>2020-12-06T09:41:27.175000+00:00</time>
      </trkpt>
      <trkpt lat="47.34634" lon="-1.28714">
        <ele>8</ele>
        <time>2020-12-06T09:41:28.126000+00:00</time>
      </trkpt>
      <trkpt lat="0" lon="0">
        <time>2020-12-06T09:41:28.135000+00:00</time>
      </trkpt>
      <trkpt lat="0" lon="0">
        <time>2020-12-06T09:41:28.140000+00:00</time>
      </trkpt>
      <trkpt lat="0" lon="0">
        <time>2020-12-06T09:41:28.143000+00:00</time>
      </trkpt>
      <trkpt lat="47.34634" lon="-1.28714">
        <ele>8</ele>
        <time>2020-12-06T09:41:29.153000+00:00</time>
      </trkpt>
      <trkpt lat="0" lon="0">
        <time>2020-12-06T09:41:29.172000+00:00</time>
      </trkpt>
      <trkpt lat="0" lon="0">
        <time>2020-12-06T09:41:29.178000+00:00</time>
      </trkpt>
      <trkpt lat="0" lon="0">
        <time>2020-12-06T09:41:29.180000+00:00</time>
      </trkpt>
      <trkpt lat="47.34635" lon="-1.28714">
        <ele>8</ele>
        <time>2020-12-06T09:41:30.165000+00:00</time>
      </trkpt>
      <trkpt lat="0" lon="0">
        <time>2020-12-06T09:41:30.168000+00:00</time>
      </trkpt>
      <trkpt lat="0" lon="0">
        <time>2020-12-06T09:41:30.172000+00:00</time>
      </trkpt>
      <trkpt lat="0" lon="0">
        <time>2020-12-06T09:41:30.173000+00:00</time>
      </trkpt>
      <trkpt lat="47.34635" lon="-1.28715">
        <ele>8</ele>
        <time>2020-12-06T09:41:31.142000+00:00</time>
      </trkpt>
      <trkpt lat="0" lon="0">
        <time>2020-12-06T09:41:31.145000+00:00</time>
      </trkpt>
      <trkpt lat="0" lon="0">
        <time>2020-12-06T09:41:31.152000+00:00</time>
      </trkpt>
      <trkpt lat="0" lon="0">
        <time>2020-12-06T09:41:31.154000+00:00</time>
      </trkpt>
      <trkpt lat="47.34635" lon="-1.28716">
        <ele>8</ele>
        <time>2020-12-06T09:41:32.124000+00:00</time>
      </trkpt>
      <trkpt lat="0" lon="0">
        <time>2020-12-06T09:41:32.142000+00:00</time>
      </trkpt>
      <trkpt lat="0" lon="0">
        <time>2020-12-06T09:41:32.151000+00:00</time>
      </trkpt>
      <trkpt lat="0" lon="0">
        <time>2020-12-06T09:41:32.159000+00:00</time>
      </trkpt>
      <trkpt lat="47.34619" lon="-1.28721">
        <ele>8</ele>
        <time>2020-12-06T09:41:33.122000+00:00</time>
      </trkpt>
      <trkpt lat="0" lon="0">
        <time>2020-12-06T09:41:33.136000+00:00</time>
      </trkpt>
      <trkpt lat="0" lon="0">
        <time>2020-12-06T09:41:33.139000+00:00</time>
      </trkpt>
      <trkpt lat="0" lon="0">
        <time>2020-12-06T09:41:33.141000+00:00</time>
      </trkpt>
      <trkpt lat="47.34618" lon="-1.2872">
        <ele>7</ele>
        <time>2020-12-06T09:41:34.168000+00:00</time>
      </trkpt>
      <trkpt lat="0" lon="0">
        <time>2020-12-06T09:41:34.179000+00:00</time>
      </trkpt>
      <trkpt lat="0" lon="0">
        <time>2020-12-06T09:41:34.183000+00:00</time>
      </trkpt>
      <trkpt lat="0" lon="0">
        <time>2020-12-06T09:41:34.186000+00:00</time>
      </trkpt>
      <trkpt lat="47.34617" lon="-1.2872">
        <ele>7</ele>
        <time>2020-12-06T09:41:35.167000+00:00</time>
      </trkpt>
      <trkpt lat="0" lon="0">
        <time>2020-12-06T09:41:35.179000+00:00</time>
      </trkpt>
      <trkpt lat="0" lon="0">
        <time>2020-12-06T09:41:35.184000+00:00</time>
      </trkpt>
      <trkpt lat="0" lon="0">
        <time>2020-12-06T09:41:35.189000+00:00</time>
      </trkpt>
      <trkpt lat="47.34616" lon="-1.2872">
        <ele>7</ele>
        <time>2020-12-06T09:41:36.189000+00:00</time>
      </trkpt>
      <trkpt lat="0" lon="0">
        <time>2020-12-06T09:41:36.200000+00:00</time>
      </trkpt>
      <trkpt lat="0" lon="0">
        <time>2020-12-06T09:41:36.204000+00:00</time>
      </trkpt>
      <trkpt lat="0" lon="0">
        <time>2020-12-06T09:41:36.205000+00:00</time>
      </trkpt>
      <trkpt lat="47.34615" lon="-1.28719">
        <ele>7</ele>
        <time>2020-12-06T09:41:37.174000+00:00</time>
      </trkpt>
      <trkpt lat="0" lon="0">
        <time>2020-12-06T09:41:37.179000+00:00</time>
      </trkpt>
      <trkpt lat="0" lon="0">
        <time>2020-12-06T09:41:37.188000+00:00</time>
      </trkpt>
      <trkpt lat="0" lon="0">
        <time>2020-12-06T09:41:37.197000+00:00</time>
      </trkpt>
      <trkpt lat="47.34615" lon="-1.28719">
        <ele>7</ele>
        <time>2020-12-06T09:41:38.164000+00:00</time>
      </trkpt>
      <trkpt lat="0" lon="0">
        <time>2020-12-06T09:41:38.174000+00:00</time>
      </trkpt>
      <trkpt lat="0" lon="0">
        <time>2020-12-06T09:41:38.180000+00:00</time>
      </trkpt>
      <trkpt lat="0" lon="0">
        <time>2020-12-06T09:41:38.184000+00:00</time>
      </trkpt>
      <trkpt lat="47.34614" lon="-1.28719">
        <ele>7</ele>
        <time>2020-12-06T09:41:39.159000+00:00</time>
      </trkpt>
      <trkpt lat="0" lon="0">
        <time>2020-12-06T09:41:39.168000+00:00</time>
      </trkpt>
      <trkpt lat="0" lon="0">
        <time>2020-12-06T09:41:39.172000+00:00</time>
      </trkpt>
      <trkpt lat="0" lon="0">
        <time>2020-12-06T09:41:39.174000+00:00</time>
      </trkpt>
      <trkpt lat="47.34614" lon="-1.28719">
        <ele>7</ele>
        <time>2020-12-06T09:41:40.180000+00:00</time>
      </trkpt>
      <trkpt lat="0" lon="0">
        <time>2020-12-06T09:41:40.184000+00:00</time>
      </trkpt>
      <trkpt lat="0" lon="0">
        <time>2020-12-06T09:41:40.202000+00:00</time>
      </trkpt>
      <trkpt lat="0" lon="0">
        <time>2020-12-06T09:41:40.204000+00:00</time>
      </trkpt>
      <trkpt lat="47.34614" lon="-1.28719">
        <ele>7</ele>
        <time>2020-12-06T09:41:41.180000+00:00</time>
      </trkpt>
      <trkpt lat="0" lon="0">
        <time>2020-12-06T09:41:41.189000+00:00</time>
      </trkpt>
      <trkpt lat="0" lon="0">
        <time>2020-12-06T09:41:41.196000+00:00</time>
      </trkpt>
      <trkpt lat="0" lon="0">
        <time>2020-12-06T09:41:41.197000+00:00</time>
      </trkpt>
      <trkpt lat="47.34614" lon="-1.28718">
        <ele>7</ele>
        <time>2020-12-06T09:41:42.149000+00:00</time>
      </trkpt>
      <trkpt lat="0" lon="0">
        <time>2020-12-06T09:41:42.158000+00:00</time>
      </trkpt>
      <trkpt lat="0" lon="0">
        <time>2020-12-06T09:41:42.162000+00:00</time>
      </trkpt>
      <trkpt lat="0" lon="0">
        <time>2020-12-06T09:41:42.180000+00:00</time>
      </trkpt>
      <trkpt lat="47.34619" lon="-1.28729">
        <ele>7</ele>
        <time>2020-12-06T09:41:43.146000+00:00</time>
      </trkpt>
      <trkpt lat="0" lon="0">
        <time>2020-12-06T09:41:43.149000+00:00</time>
      </trkpt>
      <trkpt lat="0" lon="0">
        <time>2020-12-06T09:41:43.153000+00:00</time>
      </trkpt>
      <trkpt lat="0" lon="0">
        <time>2020-12-06T09:41:43.155000+00:00</time>
      </trkpt>
      <trkpt lat="47.34619" lon="-1.28729">
        <ele>7</ele>
        <time>2020-12-06T09:41:44.176000+00:00</time>
      </trkpt>
      <trkpt lat="0" lon="0">
        <time>2020-12-06T09:41:44.183000+00:00</time>
      </trkpt>
      <trkpt lat="0" lon="0">
        <time>2020-12-06T09:41:44.186000+00:00</time>
      </trkpt>
      <trkpt lat="0" lon="0">
        <time>2020-12-06T09:41:44.188000+00:00</time>
      </trkpt>
      <trkpt lat="47.34619" lon="-1.28729">
        <ele>7</ele>
        <time>2020-12-06T09:41:45.199000+00:00</time>
      </trkpt>
      <trkpt lat="0" lon="0">
        <time>2020-12-06T09:41:45.204000+00:00</time>
      </trkpt>
      <trkpt lat="0" lon="0">
        <time>2020-12-06T09:41:45.222000+00:00</time>
      </trkpt>
      <trkpt lat="47.34617" lon="-1.28719">
        <ele>7</ele>
        <time>2020-12-06T09:41:45.923000+00:00</time>
      </trkpt>
      <trkpt lat="0" lon="0">
        <time>2020-12-06T09:41:45.926000+00:00</time>
      </trkpt>
      <trkpt lat="0" lon="0">
        <time>2020-12-06T09:41:45.929000+00:00</time>
      </trkpt>
      <trkpt lat="0" lon="0">
        <time>2020-12-06T09:41:45.930000+00:00</time>
      </trkpt>
      <trkpt lat="47.34617" lon="-1.28719">
        <ele>7</ele>
        <time>2020-12-06T09:41:46.847000+00:00</time>
      </trkpt>
      <trkpt lat="0" lon="0">
        <time>2020-12-06T09:41:46.853000+00:00</time>
      </trkpt>
      <trkpt lat="0" lon="0">
        <time>2020-12-06T09:41:46.857000+00:00</time>
      </trkpt>
      <trkpt lat="0" lon="0">
        <time>2020-12-06T09:41:46.859000+00:00</time>
      </trkpt>
      <trkpt lat="47.34617" lon="-1.2872">
        <ele>7</ele>
        <time>2020-12-06T09:41:47.863000+00:00</time>
      </trkpt>
      <trkpt lat="0" lon="0">
        <time>2020-12-06T09:41:47.866000+00:00</time>
      </trkpt>
      <trkpt lat="0" lon="0">
        <time>2020-12-06T09:41:47.869000+00:00</time>
      </trkpt>
      <trkpt lat="0" lon="0">
        <time>2020-12-06T09:41:47.875000+00:00</time>
      </trkpt>
      <trkpt lat="47.3461" lon="-1.28702">
        <ele>7</ele>
        <time>2020-12-06T09:41:48.813000+00:00</time>
      </trkpt>
      <trkpt lat="0" lon="0">
        <time>2020-12-06T09:41:48.819000+00:00</time>
      </trkpt>
      <trkpt lat="0" lon="0">
        <time>2020-12-06T09:41:48.822000+00:00</time>
      </trkpt>
      <trkpt lat="0" lon="0">
        <time>2020-12-06T09:41:48.824000+00:00</time>
      </trkpt>
      <trkpt lat="47.34608" lon="-1.287">
        <ele>7</ele>
        <time>2020-12-06T09:41:49.920000+00:00</time>
      </trkpt>
      <trkpt lat="0" lon="0">
        <time>2020-12-06T09:41:49.929000+00:00</time>
      </trkpt>
      <trkpt lat="0" lon="0">
        <time>2020-12-06T09:41:49.933000+00:00</time>
      </trkpt>
      <trkpt lat="0" lon="0">
        <time>2020-12-06T09:41:49.935000+00:00</time>
      </trkpt>
      <trkpt lat="47.34606" lon="-1.28699">
        <ele>7</ele>
        <time>2020-12-06T09:41:50.916000+00:00</time>
      </trkpt>
      <trkpt lat="0" lon="0">
        <time>2020-12-06T09:41:50.924000+00:00</time>
      </trkpt>
      <trkpt lat="0" lon="0">
        <time>2020-12-06T09:41:50.927000+00:00</time>
      </trkpt>
      <trkpt lat="0" lon="0">
        <time>2020-12-06T09:41:50.929000+00:00</time>
      </trkpt>
      <trkpt lat="47.34604" lon="-1.28698">
        <ele>7</ele>
        <time>2020-12-06T09:41:51.874000+00:00</time>
      </trkpt>
      <trkpt lat="0" lon="0">
        <time>2020-12-06T09:41:51.881000+00:00</time>
      </trkpt>
      <trkpt lat="0" lon="0">
        <time>2020-12-06T09:41:51.885000+00:00</time>
      </trkpt>
      <trkpt lat="0" lon="0">
        <time>2020-12-06T09:41:51.888000+00:00</time>
      </trkpt>
      <trkpt lat="47.34603" lon="-1.28698">
        <ele>7</ele>
        <time>2020-12-06T09:41:52.852000+00:00</time>
      </trkpt>
      <trkpt lat="0" lon="0">
        <time>2020-12-06T09:41:52.861000+00:00</time>
      </trkpt>
      <trkpt lat="0" lon="0">
        <time>2020-12-06T09:41:52.865000+00:00</time>
      </trkpt>
      <trkpt lat="0" lon="0">
        <time>2020-12-06T09:41:52.870000+00:00</time>
      </trkpt>
      <trkpt lat="47.34602" lon="-1.28697">
        <ele>7</ele>
        <time>2020-12-06T09:41:53.918000+00:00</time>
      </trkpt>
      <trkpt lat="0" lon="0">
        <time>2020-12-06T09:41:53.921000+00:00</time>
      </trkpt>
      <trkpt lat="0" lon="0">
        <time>2020-12-06T09:41:53.926000+00:00</time>
      </trkpt>
      <trkpt lat="0" lon="0">
        <time>2020-12-06T09:41:53.928000+00:00</time>
      </trkpt>
      <trkpt lat="47.34601" lon="-1.28698">
        <ele>7</ele>
        <time>2020-12-06T09:41:54.841000+00:00</time>
      </trkpt>
      <trkpt lat="0" lon="0">
        <time>2020-12-06T09:41:54.846000+00:00</time>
      </trkpt>
      <trkpt lat="0" lon="0">
        <time>2020-12-06T09:41:54.849000+00:00</time>
      </trkpt>
      <trkpt lat="0" lon="0">
        <time>2020-12-06T09:41:54.851000+00:00</time>
      </trkpt>
      <trkpt lat="47.346" lon="-1.28698">
        <ele>7</ele>
        <time>2020-12-06T09:41:55.898000+00:00</time>
      </trkpt>
      <trkpt lat="0" lon="0">
        <time>2020-12-06T09:41:55.902000+00:00</time>
      </trkpt>
      <trkpt lat="0" lon="0">
        <time>2020-12-06T09:41:55.906000+00:00</time>
      </trkpt>
      <trkpt lat="0" lon="0">
        <time>2020-12-06T09:41:55.908000+00:00</time>
      </trkpt>
      <trkpt lat="47.34599" lon="-1.287">
        <ele>7</ele>
        <time>2020-12-06T09:41:56.872000+00:00</time>
      </trkpt>
      <trkpt lat="0" lon="0">
        <time>2020-12-06T09:41:56.877000+00:00</time>
      </trkpt>
      <trkpt lat="0" lon="0">
        <time>2020-12-06T09:41:56.881000+00:00</time>
      </trkpt>
      <trkpt lat="0" lon="0">
        <time>2020-12-06T09:41:56.886000+00:00</time>
      </trkpt>
      <trkpt lat="47.34598" lon="-1.28701">
        <ele>7</ele>
        <time>2020-12-06T09:41:57.940000+00:00</time>
      </trkpt>
      <trkpt lat="0" lon="0">
        <time>2020-12-06T09:41:57.943000+00:00</time>
      </trkpt>
      <trkpt lat="0" lon="0">
        <time>2020-12-06T09:41:57.947000+00:00</time>
      </trkpt>
      <trkpt lat="0" lon="0">
        <time>2020-12-06T09:41:57.949000+00:00</time>
      </trkpt>
      <trkpt lat="47.34597" lon="-1.28702">
        <ele>7</ele>
        <time>2020-12-06T09:41:58.881000+00:00</time>
      </trkpt>
      <trkpt lat="0" lon="0">
        <time>2020-12-06T09:41:58.898000+00:00</time>
      </trkpt>
      <trkpt lat="0" lon="0">
        <time>2020-12-06T09:41:58.905000+00:00</time>
      </trkpt>
      <trkpt lat="0" lon="0">
        <time>2020-12-06T09:41:58.906000+00:00</time>
      </trkpt>
      <trkpt lat="47.34597" lon="-1.28703">
        <ele>7</ele>
        <time>2020-12-06T09:41:59.871000+00:00</time>
      </trkpt>
      <trkpt lat="0" lon="0">
        <time>2020-12-06T09:41:59.872000+00:00</time>
      </trkpt>
      <trkpt lat="0" lon="0">
        <time>2020-12-06T09:41:59.873000+00:00</time>
      </trkpt>
      <trkpt lat="47.34596" lon="-1.28704">
        <ele>7</ele>
        <time>2020-12-06T09:42:00.866000+00:00</time>
      </trkpt>
      <trkpt lat="0" lon="0">
        <time>2020-12-06T09:42:00.869000+00:00</time>
      </trkpt>
      <trkpt lat="0" lon="0">
        <time>2020-12-06T09:42:00.875000+00:00</time>
      </trkpt>
      <trkpt lat="0" lon="0">
        <time>2020-12-06T09:42:00.879000+00:00</time>
      </trkpt>
      <trkpt lat="47.34596" lon="-1.28704">
        <ele>7</ele>
        <time>2020-12-06T09:42:01.905000+00:00</time>
      </trkpt>
      <trkpt lat="0" lon="0">
        <time>2020-12-06T09:42:01.912000+00:00</time>
      </trkpt>
      <trkpt lat="0" lon="0">
        <time>2020-12-06T09:42:01.917000+00:00</time>
      </trkpt>
      <trkpt lat="0" lon="0">
        <time>2020-12-06T09:42:01.918000+00:00</time>
      </trkpt>
      <trkpt lat="47.34596" lon="-1.28705">
        <ele>7</ele>
        <time>2020-12-06T09:42:02.868000+00:00</time>
      </trkpt>
      <trkpt lat="0" lon="0">
        <time>2020-12-06T09:42:02.876000+00:00</time>
      </trkpt>
      <trkpt lat="0" lon="0">
        <time>2020-12-06T09:42:02.879000+00:00</time>
      </trkpt>
      <trkpt lat="0" lon="0">
        <time>2020-12-06T09:42:02.880000+00:00</time>
      </trkpt>
      <trkpt lat="47.34596" lon="-1.28705">
        <ele>7</ele>
        <time>2020-12-06T09:42:03.835000+00:00</time>
      </trkpt>
      <trkpt lat="0" lon="0">
        <time>2020-12-06T09:42:03.842000+00:00</time>
      </trkpt>
      <trkpt lat="0" lon="0">
        <time>2020-12-06T09:42:03.849000+00:00</time>
      </trkpt>
      <trkpt lat="0" lon="0">
        <time>2020-12-06T09:42:03.866000+00:00</time>
      </trkpt>
      <trkpt lat="47.34586" lon="-1.28724">
        <ele>7</ele>
        <time>2020-12-06T09:42:04.820000+00:00</time>
      </trkpt>
      <trkpt lat="0" lon="0">
        <time>2020-12-06T09:42:04.821000+00:00</time>
      </trkpt>
      <trkpt lat="0" lon="0">
        <time>2020-12-06T09:42:04.823000+00:00</time>
      </trkpt>
      <trkpt lat="0" lon="0">
        <time>2020-12-06T09:42:04.824000+00:00</time>
      </trkpt>
      <trkpt lat="47.34584" lon="-1.2873">
        <ele>7</ele>
        <time>2020-12-06T09:42:05.808000+00:00</time>
      </trkpt>
      <trkpt lat="0" lon="0">
        <time>2020-12-06T09:42:05.811000+00:00</time>
      </trkpt>
      <trkpt lat="0" lon="0">
        <time>2020-12-06T09:42:05.812000+00:00</time>
      </trkpt>
      <trkpt lat="0" lon="0">
        <time>2020-12-06T09:42:05.817000+00:00</time>
      </trkpt>
      <trkpt lat="47.34582" lon="-1.28736">
        <ele>6</ele>
        <time>2020-12-06T09:42:06.840000+00:00</time>
      </trkpt>
      <trkpt lat="0" lon="0">
        <time>2020-12-06T09:42:06.848000+00:00</time>
      </trkpt>
      <trkpt lat="0" lon="0">
        <time>2020-12-06T09:42:06.855000+00:00</time>
      </trkpt>
      <trkpt lat="0" lon="0">
        <time>2020-12-06T09:42:06.862000+00:00</time>
      </trkpt>
      <trkpt lat="47.3458" lon="-1.28742">
        <ele>6</ele>
        <time>2020-12-06T09:42:07.896000+00:00</time>
      </trkpt>
      <trkpt lat="0" lon="0">
        <time>2020-12-06T09:42:07.901000+00:00</time>
      </trkpt>
      <trkpt lat="0" lon="0">
        <time>2020-12-06T09:42:07.905000+00:00</time>
      </trkpt>
      <trkpt lat="0" lon="0">
        <time>2020-12-06T09:42:07.907000+00:00</time>
      </trkpt>
      <trkpt lat="47.34578" lon="-1.2875">
        <ele>6</ele>
        <time>2020-12-06T09:42:08.867000+00:00</time>
      </trkpt>
      <trkpt lat="0" lon="0">
        <time>2020-12-06T09:42:08.880000+00:00</time>
      </trkpt>
      <trkpt lat="0" lon="0">
        <time>2020-12-06T09:42:08.884000+00:00</time>
      </trkpt>
      <trkpt lat="0" lon="0">
        <time>2020-12-06T09:42:08.885000+00:00</time>
      </trkpt>
      <trkpt lat="47.34576" lon="-1.28757">
        <ele>7</ele>
        <time>2020-12-06T09:42:09.879000+00:00</time>
      </trkpt>
      <trkpt lat="0" lon="0">
        <time>2020-12-06T09:42:09.881000+00:00</time>
      </trkpt>
      <trkpt lat="0" lon="0">
        <time>2020-12-06T09:42:09.882000+00:00</time>
      </trkpt>
      <trkpt lat="47.34573" lon="-1.28765">
        <ele>7</ele>
        <time>2020-12-06T09:42:10.835000+00:00</time>
      </trkpt>
      <trkpt lat="0" lon="0">
        <time>2020-12-06T09:42:10.838000+00:00</time>
      </trkpt>
      <trkpt lat="0" lon="0">
        <time>2020-12-06T09:42:10.853000+00:00</time>
      </trkpt>
      <trkpt lat="0" lon="0">
        <time>2020-12-06T09:42:10.854000+00:00</time>
      </trkpt>
      <trkpt lat="47.34571" lon="-1.28773">
        <ele>7</ele>
        <time>2020-12-06T09:42:11.880000+00:00</time>
      </trkpt>
      <trkpt lat="0" lon="0">
        <time>2020-12-06T09:42:11.890000+00:00</time>
      </trkpt>
      <trkpt lat="0" lon="0">
        <time>2020-12-06T09:42:11.904000+00:00</time>
      </trkpt>
      <trkpt lat="0" lon="0">
        <time>2020-12-06T09:42:11.906000+00:00</time>
      </trkpt>
      <trkpt lat="47.34569" lon="-1.28781">
        <ele>7</ele>
        <time>2020-12-06T09:42:12.849000+00:00</time>
      </trkpt>
      <trkpt lat="0" lon="0">
        <time>2020-12-06T09:42:12.854000+00:00</time>
      </trkpt>
      <trkpt lat="0" lon="0">
        <time>2020-12-06T09:42:12.865000+00:00</time>
      </trkpt>
      <trkpt lat="0" lon="0">
        <time>2020-12-06T09:42:12.873000+00:00</time>
      </trkpt>
      <trkpt lat="47.34567" lon="-1.28789">
        <ele>7</ele>
        <time>2020-12-06T09:42:13.869000+00:00</time>
      </trkpt>
      <trkpt lat="0" lon="0">
        <time>2020-12-06T09:42:13.883000+00:00</time>
      </trkpt>
      <trkpt lat="0" lon="0">
        <time>2020-12-06T09:42:13.892000+00:00</time>
      </trkpt>
      <trkpt lat="0" lon="0">
        <time>2020-12-06T09:42:13.894000+00:00</time>
      </trkpt>
      <trkpt lat="47.34565" lon="-1.28797">
        <ele>7</ele>
        <time>2020-12-06T09:42:14.857000+00:00</time>
      </trkpt>
      <trkpt lat="0" lon="0">
        <time>2020-12-06T09:42:14.859000+00:00</time>
      </trkpt>
      <trkpt lat="0" lon="0">
        <time>2020-12-06T09:42:14.861000+00:00</time>
      </trkpt>
      <trkpt lat="0" lon="0">
        <time>2020-12-06T09:42:14.862000+00:00</time>
      </trkpt>
      <trkpt lat="47.34562" lon="-1.28805">
        <ele>7</ele>
        <time>2020-12-06T09:42:15.882000+00:00</time>
      </trkpt>
      <trkpt lat="0" lon="0">
        <time>2020-12-06T09:42:15.896000+00:00</time>
      </trkpt>
      <trkpt lat="0" lon="0">
        <time>2020-12-06T09:42:15.899000+00:00</time>
      </trkpt>
      <trkpt lat="0" lon="0">
        <time>2020-12-06T09:42:15.901000+00:00</time>
      </trkpt>
      <trkpt lat="47.3456" lon="-1.28813">
        <ele>7</ele>
        <time>2020-12-06T09:42:16.874000+00:00</time>
      </trkpt>
      <trkpt lat="0" lon="0">
        <time>2020-12-06T09:42:16.882000+00:00</time>
      </trkpt>
      <trkpt lat="0" lon="0">
        <time>2020-12-06T09:42:16.886000+00:00</time>
      </trkpt>
      <trkpt lat="0" lon="0">
        <time>2020-12-06T09:42:16.893000+00:00</time>
      </trkpt>
      <trkpt lat="47.34558" lon="-1.28821">
        <ele>7</ele>
        <time>2020-12-06T09:42:17.843000+00:00</time>
      </trkpt>
      <trkpt lat="0" lon="0">
        <time>2020-12-06T09:42:17.848000+00:00</time>
      </trkpt>
      <trkpt lat="0" lon="0">
        <time>2020-12-06T09:42:17.856000+00:00</time>
      </trkpt>
      <trkpt lat="0" lon="0">
        <time>2020-12-06T09:42:17.858000+00:00</time>
      </trkpt>
      <trkpt lat="47.34556" lon="-1.28828">
        <ele>7</ele>
        <time>2020-12-06T09:42:18.890000+00:00</time>
      </trkpt>
      <trkpt lat="0" lon="0">
        <time>2020-12-06T09:42:18.902000+00:00</time>
      </trkpt>
      <trkpt lat="0" lon="0">
        <time>2020-12-06T09:42:18.910000+00:00</time>
      </trkpt>
      <trkpt lat="0" lon="0">
        <time>2020-12-06T09:42:18.913000+00:00</time>
      </trkpt>
      <trkpt lat="47.34554" lon="-1.28836">
        <ele>8</ele>
        <time>2020-12-06T09:42:19.890000+00:00</time>
      </trkpt>
      <trkpt lat="0" lon="0">
        <time>2020-12-06T09:42:19.894000+00:00</time>
      </trkpt>
      <trkpt lat="0" lon="0">
        <time>2020-12-06T09:42:19.914000+00:00</time>
      </trkpt>
      <trkpt lat="0" lon="0">
        <time>2020-12-06T09:42:19.922000+00:00</time>
      </trkpt>
      <trkpt lat="47.34553" lon="-1.28843">
        <ele>8</ele>
        <time>2020-12-06T09:42:20.853000+00:00</time>
      </trkpt>
      <trkpt lat="0" lon="0">
        <time>2020-12-06T09:42:20.858000+00:00</time>
      </trkpt>
      <trkpt lat="0" lon="0">
        <time>2020-12-06T09:42:20.862000+00:00</time>
      </trkpt>
      <trkpt lat="0" lon="0">
        <time>2020-12-06T09:42:20.865000+00:00</time>
      </trkpt>
      <trkpt lat="47.34552" lon="-1.28851">
        <ele>8</ele>
        <time>2020-12-06T09:42:21.882000+00:00</time>
      </trkpt>
      <trkpt lat="0" lon="0">
        <time>2020-12-06T09:42:21.892000+00:00</time>
      </trkpt>
      <trkpt lat="0" lon="0">
        <time>2020-12-06T09:42:21.900000+00:00</time>
      </trkpt>
      <trkpt lat="0" lon="0">
        <time>2020-12-06T09:42:21.903000+00:00</time>
      </trkpt>
      <trkpt lat="47.3455" lon="-1.28858">
        <ele>8</ele>
        <time>2020-12-06T09:42:22.912000+00:00</time>
      </trkpt>
      <trkpt lat="0" lon="0">
        <time>2020-12-06T09:42:22.926000+00:00</time>
      </trkpt>
      <trkpt lat="0" lon="0">
        <time>2020-12-06T09:42:22.929000+00:00</time>
      </trkpt>
      <trkpt lat="0" lon="0">
        <time>2020-12-06T09:42:22.932000+00:00</time>
      </trkpt>
      <trkpt lat="47.34549" lon="-1.28865">
        <ele>9</ele>
        <time>2020-12-06T09:42:23.864000+00:00</time>
      </trkpt>
      <trkpt lat="0" lon="0">
        <time>2020-12-06T09:42:23.875000+00:00</time>
      </trkpt>
      <trkpt lat="0" lon="0">
        <time>2020-12-06T09:42:23.881000+00:00</time>
      </trkpt>
      <trkpt lat="0" lon="0">
        <time>2020-12-06T09:42:23.882000+00:00</time>
      </trkpt>
      <trkpt lat="47.34548" lon="-1.28872">
        <ele>9</ele>
        <time>2020-12-06T09:42:24.826000+00:00</time>
      </trkpt>
      <trkpt lat="0" lon="0">
        <time>2020-12-06T09:42:24.833000+00:00</time>
      </trkpt>
      <trkpt lat="0" lon="0">
        <time>2020-12-06T09:42:24.837000+00:00</time>
      </trkpt>
      <trkpt lat="0" lon="0">
        <time>2020-12-06T09:42:24.839000+00:00</time>
      </trkpt>
      <trkpt lat="47.34546" lon="-1.28878">
        <ele>9</ele>
        <time>2020-12-06T09:42:25.850000+00:00</time>
      </trkpt>
      <trkpt lat="0" lon="0">
        <time>2020-12-06T09:42:25.863000+00:00</time>
      </trkpt>
      <trkpt lat="0" lon="0">
        <time>2020-12-06T09:42:25.866000+00:00</time>
      </trkpt>
      <trkpt lat="0" lon="0">
        <time>2020-12-06T09:42:25.869000+00:00</time>
      </trkpt>
      <trkpt lat="47.34544" lon="-1.28884">
        <ele>9</ele>
        <time>2020-12-06T09:42:26.858000+00:00</time>
      </trkpt>
      <trkpt lat="0" lon="0">
        <time>2020-12-06T09:42:26.869000+00:00</time>
      </trkpt>
      <trkpt lat="0" lon="0">
        <time>2020-12-06T09:42:26.872000+00:00</time>
      </trkpt>
      <trkpt lat="0" lon="0">
        <time>2020-12-06T09:42:26.877000+00:00</time>
      </trkpt>
      <trkpt lat="47.34541" lon="-1.28888">
        <ele>9</ele>
        <time>2020-12-06T09:42:27.869000+00:00</time>
      </trkpt>
      <trkpt lat="0" lon="0">
        <time>2020-12-06T09:42:27.880000+00:00</time>
      </trkpt>
      <trkpt lat="0" lon="0">
        <time>2020-12-06T09:42:27.884000+00:00</time>
      </trkpt>
      <trkpt lat="0" lon="0">
        <time>2020-12-06T09:42:27.886000+00:00</time>
      </trkpt>
      <trkpt lat="47.34538" lon="-1.28891">
        <ele>9</ele>
        <time>2020-12-06T09:42:28.843000+00:00</time>
      </trkpt>
      <trkpt lat="0" lon="0">
        <time>2020-12-06T09:42:28.850000+00:00</time>
      </trkpt>
      <trkpt lat="0" lon="0">
        <time>2020-12-06T09:42:28.857000+00:00</time>
      </trkpt>
      <trkpt lat="0" lon="0">
        <time>2020-12-06T09:42:28.862000+00:00</time>
      </trkpt>
      <trkpt lat="47.34534" lon="-1.28894">
        <ele>9</ele>
        <time>2020-12-06T09:42:29.861000+00:00</time>
      </trkpt>
      <trkpt lat="0" lon="0">
        <time>2020-12-06T09:42:29.875000+00:00</time>
      </trkpt>
      <trkpt lat="0" lon="0">
        <time>2020-12-06T09:42:29.879000+00:00</time>
      </trkpt>
      <trkpt lat="0" lon="0">
        <time>2020-12-06T09:42:29.880000+00:00</time>
      </trkpt>
      <trkpt lat="47.3453" lon="-1.28896">
        <ele>9</ele>
        <time>2020-12-06T09:42:30.906000+00:00</time>
      </trkpt>
      <trkpt lat="0" lon="0">
        <time>2020-12-06T09:42:30.912000+00:00</time>
      </trkpt>
      <trkpt lat="0" lon="0">
        <time>2020-12-06T09:42:30.916000+00:00</time>
      </trkpt>
      <trkpt lat="0" lon="0">
        <time>2020-12-06T09:42:30.917000+00:00</time>
      </trkpt>
      <trkpt lat="47.34526" lon="-1.28898">
        <ele>9</ele>
        <time>2020-12-06T09:42:31.885000+00:00</time>
      </trkpt>
      <trkpt lat="0" lon="0">
        <time>2020-12-06T09:42:31.892000+00:00</time>
      </trkpt>
      <trkpt lat="0" lon="0">
        <time>2020-12-06T09:42:31.897000+00:00</time>
      </trkpt>
      <trkpt lat="0" lon="0">
        <time>2020-12-06T09:42:31.898000+00:00</time>
      </trkpt>
      <trkpt lat="47.34521" lon="-1.28899">
        <ele>8</ele>
        <time>2020-12-06T09:42:32.870000+00:00</time>
      </trkpt>
      <trkpt lat="0" lon="0">
        <time>2020-12-06T09:42:32.877000+00:00</time>
      </trkpt>
      <trkpt lat="0" lon="0">
        <time>2020-12-06T09:42:32.879000+00:00</time>
      </trkpt>
      <trkpt lat="0" lon="0">
        <time>2020-12-06T09:42:32.883000+00:00</time>
      </trkpt>
      <trkpt lat="47.34516" lon="-1.28901">
        <ele>8</ele>
        <time>2020-12-06T09:42:33.859000+00:00</time>
      </trkpt>
      <trkpt lat="0" lon="0">
        <time>2020-12-06T09:42:33.877000+00:00</time>
      </trkpt>
      <trkpt lat="0" lon="0">
        <time>2020-12-06T09:42:33.878000+00:00</time>
      </trkpt>
      <trkpt lat="47.34512" lon="-1.28903">
        <ele>8</ele>
        <time>2020-12-06T09:42:34.876000+00:00</time>
      </trkpt>
      <trkpt lat="0" lon="0">
        <time>2020-12-06T09:42:34.886000+00:00</time>
      </trkpt>
      <trkpt lat="0" lon="0">
        <time>2020-12-06T09:42:34.890000+00:00</time>
      </trkpt>
      <trkpt lat="0" lon="0">
        <time>2020-12-06T09:42:34.898000+00:00</time>
      </trkpt>
      <trkpt lat="47.34507" lon="-1.28905">
        <ele>8</ele>
        <time>2020-12-06T09:42:35.937000+00:00</time>
      </trkpt>
      <trkpt lat="0" lon="0">
        <time>2020-12-06T09:42:35.952000+00:00</time>
      </trkpt>
      <trkpt lat="0" lon="0">
        <time>2020-12-06T09:42:35.958000+00:00</time>
      </trkpt>
      <trkpt lat="0" lon="0">
        <time>2020-12-06T09:42:35.960000+00:00</time>
      </trkpt>
      <trkpt lat="47.34502" lon="-1.28907">
        <ele>7</ele>
        <time>2020-12-06T09:42:36.898000+00:00</time>
      </trkpt>
      <trkpt lat="0" lon="0">
        <time>2020-12-06T09:42:36.907000+00:00</time>
      </trkpt>
      <trkpt lat="0" lon="0">
        <time>2020-12-06T09:42:36.908000+00:00</time>
      </trkpt>
      <trkpt lat="0" lon="0">
        <time>2020-12-06T09:42:36.911000+00:00</time>
      </trkpt>
      <trkpt lat="47.34498" lon="-1.2891">
        <ele>7</ele>
        <time>2020-12-06T09:42:37.894000+00:00</time>
      </trkpt>
      <trkpt lat="0" lon="0">
        <time>2020-12-06T09:42:37.909000+00:00</time>
      </trkpt>
      <trkpt lat="0" lon="0">
        <time>2020-12-06T09:42:37.919000+00:00</time>
      </trkpt>
      <trkpt lat="0" lon="0">
        <time>2020-12-06T09:42:37.922000+00:00</time>
      </trkpt>
      <trkpt lat="47.34494" lon="-1.28913">
        <ele>7</ele>
        <time>2020-12-06T09:42:38.874000+00:00</time>
      </trkpt>
      <trkpt lat="0" lon="0">
        <time>2020-12-06T09:42:38.888000+00:00</time>
      </trkpt>
      <trkpt lat="0" lon="0">
        <time>2020-12-06T09:42:38.894000+00:00</time>
      </trkpt>
      <trkpt lat="0" lon="0">
        <time>2020-12-06T09:42:38.895000+00:00</time>
      </trkpt>
      <trkpt lat="47.3449" lon="-1.28916">
        <ele>7</ele>
        <time>2020-12-06T09:42:39.892000+00:00</time>
      </trkpt>
      <trkpt lat="0" lon="0">
        <time>2020-12-06T09:42:39.897000+00:00</time>
      </trkpt>
      <trkpt lat="0" lon="0">
        <time>2020-12-06T09:42:39.901000+00:00</time>
      </trkpt>
      <trkpt lat="0" lon="0">
        <time>2020-12-06T09:42:39.904000+00:00</time>
      </trkpt>
      <trkpt lat="47.34485" lon="-1.2892">
        <ele>7</ele>
        <time>2020-12-06T09:42:40.888000+00:00</time>
      </trkpt>
      <trkpt lat="0" lon="0">
        <time>2020-12-06T09:42:40.892000+00:00</time>
      </trkpt>
      <trkpt lat="0" lon="0">
        <time>2020-12-06T09:42:40.908000+00:00</time>
      </trkpt>
      <trkpt lat="0" lon="0">
        <time>2020-12-06T09:42:40.910000+00:00</time>
      </trkpt>
      <trkpt lat="47.34481" lon="-1.28925">
        <ele>7</ele>
        <time>2020-12-06T09:42:41.864000+00:00</time>
      </trkpt>
      <trkpt lat="0" lon="0">
        <time>2020-12-06T09:42:41.872000+00:00</time>
      </trkpt>
      <trkpt lat="0" lon="0">
        <time>2020-12-06T09:42:41.879000+00:00</time>
      </trkpt>
      <trkpt lat="0" lon="0">
        <time>2020-12-06T09:42:41.884000+00:00</time>
      </trkpt>
      <trkpt lat="47.34477" lon="-1.28931">
        <ele>7</ele>
        <time>2020-12-06T09:42:42.877000+00:00</time>
      </trkpt>
      <trkpt lat="0" lon="0">
        <time>2020-12-06T09:42:42.880000+00:00</time>
      </trkpt>
      <trkpt lat="0" lon="0">
        <time>2020-12-06T09:42:42.884000+00:00</time>
      </trkpt>
      <trkpt lat="0" lon="0">
        <time>2020-12-06T09:42:42.885000+00:00</time>
      </trkpt>
      <trkpt lat="47.34473" lon="-1.28938">
        <ele>7</ele>
        <time>2020-12-06T09:42:43.859000+00:00</time>
      </trkpt>
      <trkpt lat="0" lon="0">
        <time>2020-12-06T09:42:43.862000+00:00</time>
      </trkpt>
      <trkpt lat="0" lon="0">
        <time>2020-12-06T09:42:43.879000+00:00</time>
      </trkpt>
      <trkpt lat="0" lon="0">
        <time>2020-12-06T09:42:43.881000+00:00</time>
      </trkpt>
      <trkpt lat="47.34469" lon="-1.28945">
        <ele>7</ele>
        <time>2020-12-06T09:42:44.869000+00:00</time>
      </trkpt>
      <trkpt lat="0" lon="0">
        <time>2020-12-06T09:42:44.877000+00:00</time>
      </trkpt>
      <trkpt lat="0" lon="0">
        <time>2020-12-06T09:42:44.886000+00:00</time>
      </trkpt>
      <trkpt lat="0" lon="0">
        <time>2020-12-06T09:42:44.893000+00:00</time>
      </trkpt>
      <trkpt lat="47.34465" lon="-1.28953">
        <ele>7</ele>
        <time>2020-12-06T09:42:45.854000+00:00</time>
      </trkpt>
      <trkpt lat="0" lon="0">
        <time>2020-12-06T09:42:45.865000+00:00</time>
      </trkpt>
      <trkpt lat="0" lon="0">
        <time>2020-12-06T09:42:45.874000+00:00</time>
      </trkpt>
      <trkpt lat="0" lon="0">
        <time>2020-12-06T09:42:45.876000+00:00</time>
      </trkpt>
      <trkpt lat="47.34461" lon="-1.28961">
        <ele>7</ele>
        <time>2020-12-06T09:42:46.880000+00:00</time>
      </trkpt>
      <trkpt lat="0" lon="0">
        <time>2020-12-06T09:42:46.905000+00:00</time>
      </trkpt>
      <trkpt lat="0" lon="0">
        <time>2020-12-06T09:42:46.916000+00:00</time>
      </trkpt>
      <trkpt lat="0" lon="0">
        <time>2020-12-06T09:42:46.917000+00:00</time>
      </trkpt>
      <trkpt lat="47.34457" lon="-1.2897">
        <ele>7</ele>
        <time>2020-12-06T09:42:47.894000+00:00</time>
      </trkpt>
      <trkpt lat="0" lon="0">
        <time>2020-12-06T09:42:47.911000+00:00</time>
      </trkpt>
      <trkpt lat="0" lon="0">
        <time>2020-12-06T09:42:47.918000+00:00</time>
      </trkpt>
      <trkpt lat="0" lon="0">
        <time>2020-12-06T09:42:47.920000+00:00</time>
      </trkpt>
      <trkpt lat="47.34453" lon="-1.28979">
        <ele>7</ele>
        <time>2020-12-06T09:42:48.911000+00:00</time>
      </trkpt>
      <trkpt lat="0" lon="0">
        <time>2020-12-06T09:42:48.932000+00:00</time>
      </trkpt>
      <trkpt lat="0" lon="0">
        <time>2020-12-06T09:42:48.938000+00:00</time>
      </trkpt>
      <trkpt lat="0" lon="0">
        <time>2020-12-06T09:42:48.939000+00:00</time>
      </trkpt>
      <trkpt lat="47.3445" lon="-1.28988">
        <ele>7</ele>
        <time>2020-12-06T09:42:49.885000+00:00</time>
      </trkpt>
      <trkpt lat="0" lon="0">
        <time>2020-12-06T09:42:49.896000+00:00</time>
      </trkpt>
      <trkpt lat="0" lon="0">
        <time>2020-12-06T09:42:49.897000+00:00</time>
      </trkpt>
      <trkpt lat="0" lon="0">
        <time>2020-12-06T09:42:49.898000+00:00</time>
      </trkpt>
      <trkpt lat="47.34447" lon="-1.28997">
        <ele>7</ele>
        <time>2020-12-06T09:42:50.875000+00:00</time>
      </trkpt>
      <trkpt lat="0" lon="0">
        <time>2020-12-06T09:42:50.878000+00:00</time>
      </trkpt>
      <trkpt lat="0" lon="0">
        <time>2020-12-06T09:42:50.882000+00:00</time>
      </trkpt>
      <trkpt lat="0" lon="0">
        <time>2020-12-06T09:42:50.886000+00:00</time>
      </trkpt>
      <trkpt lat="47.34444" lon="-1.29007">
        <ele>8</ele>
        <time>2020-12-06T09:42:51.897000+00:00</time>
      </trkpt>
      <trkpt lat="0" lon="0">
        <time>2020-12-06T09:42:51.901000+00:00</time>
      </trkpt>
      <trkpt lat="0" lon="0">
        <time>2020-12-06T09:42:51.906000+00:00</time>
      </trkpt>
      <trkpt lat="0" lon="0">
        <time>2020-12-06T09:42:51.910000+00:00</time>
      </trkpt>
      <trkpt lat="47.34441" lon="-1.29016">
        <ele>8</ele>
        <time>2020-12-06T09:42:52.885000+00:00</time>
      </trkpt>
      <trkpt lat="0" lon="0">
        <time>2020-12-06T09:42:52.889000+00:00</time>
      </trkpt>
      <trkpt lat="0" lon="0">
        <time>2020-12-06T09:42:52.891000+00:00</time>
      </trkpt>
      <trkpt lat="47.34439" lon="-1.29026">
        <ele>8</ele>
        <time>2020-12-06T09:42:53.875000+00:00</time>
      </trkpt>
      <trkpt lat="0" lon="0">
        <time>2020-12-06T09:42:53.889000+00:00</time>
      </trkpt>
      <trkpt lat="0" lon="0">
        <time>2020-12-06T09:42:53.892000+00:00</time>
      </trkpt>
      <trkpt lat="0" lon="0">
        <time>2020-12-06T09:42:53.893000+00:00</time>
      </trkpt>
      <trkpt lat="47.34437" lon="-1.29036">
        <ele>8</ele>
        <time>2020-12-06T09:42:54.867000+00:00</time>
      </trkpt>
      <trkpt lat="0" lon="0">
        <time>2020-12-06T09:42:54.870000+00:00</time>
      </trkpt>
      <trkpt lat="0" lon="0">
        <time>2020-12-06T09:42:54.880000+00:00</time>
      </trkpt>
      <trkpt lat="0" lon="0">
        <time>2020-12-06T09:42:54.882000+00:00</time>
      </trkpt>
      <trkpt lat="47.34436" lon="-1.29046">
        <ele>8</ele>
        <time>2020-12-06T09:42:55.924000+00:00</time>
      </trkpt>
      <trkpt lat="0" lon="0">
        <time>2020-12-06T09:42:55.929000+00:00</time>
      </trkpt>
      <trkpt lat="0" lon="0">
        <time>2020-12-06T09:42:55.930000+00:00</time>
      </trkpt>
      <trkpt lat="0" lon="0">
        <time>2020-12-06T09:42:55.931000+00:00</time>
      </trkpt>
      <trkpt lat="47.34434" lon="-1.29055">
        <ele>8</ele>
        <time>2020-12-06T09:42:56.899000+00:00</time>
      </trkpt>
      <trkpt lat="0" lon="0">
        <time>2020-12-06T09:42:56.908000+00:00</time>
      </trkpt>
      <trkpt lat="0" lon="0">
        <time>2020-12-06T09:42:56.914000+00:00</time>
      </trkpt>
      <trkpt lat="0" lon="0">
        <time>2020-12-06T09:42:56.916000+00:00</time>
      </trkpt>
      <trkpt lat="47.34433" lon="-1.29065">
        <ele>8</ele>
        <time>2020-12-06T09:42:57.911000+00:00</time>
      </trkpt>
      <trkpt lat="0" lon="0">
        <time>2020-12-06T09:42:57.927000+00:00</time>
      </trkpt>
      <trkpt lat="0" lon="0">
        <time>2020-12-06T09:42:57.932000+00:00</time>
      </trkpt>
      <trkpt lat="0" lon="0">
        <time>2020-12-06T09:42:57.935000+00:00</time>
      </trkpt>
      <trkpt lat="47.34433" lon="-1.29074">
        <ele>8</ele>
        <time>2020-12-06T09:42:58.894000+00:00</time>
      </trkpt>
      <trkpt lat="0" lon="0">
        <time>2020-12-06T09:42:58.901000+00:00</time>
      </trkpt>
      <trkpt lat="0" lon="0">
        <time>2020-12-06T09:42:58.907000+00:00</time>
      </trkpt>
      <trkpt lat="0" lon="0">
        <time>2020-12-06T09:42:58.909000+00:00</time>
      </trkpt>
      <trkpt lat="47.34432" lon="-1.29084">
        <ele>8</ele>
        <time>2020-12-06T09:42:59.915000+00:00</time>
      </trkpt>
      <trkpt lat="0" lon="0">
        <time>2020-12-06T09:42:59.921000+00:00</time>
      </trkpt>
      <trkpt lat="0" lon="0">
        <time>2020-12-06T09:42:59.926000+00:00</time>
      </trkpt>
      <trkpt lat="0" lon="0">
        <time>2020-12-06T09:42:59.929000+00:00</time>
      </trkpt>
      <trkpt lat="47.34432" lon="-1.29093">
        <ele>8</ele>
        <time>2020-12-06T09:43:00.869000+00:00</time>
      </trkpt>
      <trkpt lat="0" lon="0">
        <time>2020-12-06T09:43:00.881000+00:00</time>
      </trkpt>
      <trkpt lat="0" lon="0">
        <time>2020-12-06T09:43:00.885000+00:00</time>
      </trkpt>
      <trkpt lat="0" lon="0">
        <time>2020-12-06T09:43:00.887000+00:00</time>
      </trkpt>
      <trkpt lat="47.34432" lon="-1.29103">
        <ele>8</ele>
        <time>2020-12-06T09:43:01.909000+00:00</time>
      </trkpt>
      <trkpt lat="0" lon="0">
        <time>2020-12-06T09:43:01.917000+00:00</time>
      </trkpt>
      <trkpt lat="0" lon="0">
        <time>2020-12-06T09:43:01.929000+00:00</time>
      </trkpt>
      <trkpt lat="0" lon="0">
        <time>2020-12-06T09:43:01.932000+00:00</time>
      </trkpt>
      <trkpt lat="47.34432" lon="-1.29112">
        <ele>8</ele>
        <time>2020-12-06T09:43:02.895000+00:00</time>
      </trkpt>
      <trkpt lat="0" lon="0">
        <time>2020-12-06T09:43:02.915000+00:00</time>
      </trkpt>
      <trkpt lat="0" lon="0">
        <time>2020-12-06T09:43:02.920000+00:00</time>
      </trkpt>
      <trkpt lat="0" lon="0">
        <time>2020-12-06T09:43:02.924000+00:00</time>
      </trkpt>
      <trkpt lat="47.34432" lon="-1.2912">
        <ele>8</ele>
        <time>2020-12-06T09:43:03.864000+00:00</time>
      </trkpt>
      <trkpt lat="0" lon="0">
        <time>2020-12-06T09:43:03.869000+00:00</time>
      </trkpt>
      <trkpt lat="0" lon="0">
        <time>2020-12-06T09:43:03.874000+00:00</time>
      </trkpt>
      <trkpt lat="0" lon="0">
        <time>2020-12-06T09:43:03.877000+00:00</time>
      </trkpt>
      <trkpt lat="47.34433" lon="-1.29128">
        <ele>8</ele>
        <time>2020-12-06T09:43:04.870000+00:00</time>
      </trkpt>
      <trkpt lat="0" lon="0">
        <time>2020-12-06T09:43:04.885000+00:00</time>
      </trkpt>
      <trkpt lat="0" lon="0">
        <time>2020-12-06T09:43:04.890000+00:00</time>
      </trkpt>
      <trkpt lat="0" lon="0">
        <time>2020-12-06T09:43:04.892000+00:00</time>
      </trkpt>
      <trkpt lat="47.34433" lon="-1.29136">
        <ele>8</ele>
        <time>2020-12-06T09:43:05.890000+00:00</time>
      </trkpt>
      <trkpt lat="0" lon="0">
        <time>2020-12-06T09:43:05.898000+00:00</time>
      </trkpt>
      <trkpt lat="0" lon="0">
        <time>2020-12-06T09:43:05.907000+00:00</time>
      </trkpt>
      <trkpt lat="0" lon="0">
        <time>2020-12-06T09:43:05.913000+00:00</time>
      </trkpt>
      <trkpt lat="47.34434" lon="-1.29144">
        <ele>8</ele>
        <time>2020-12-06T09:43:06.870000+00:00</time>
      </trkpt>
      <trkpt lat="0" lon="0">
        <time>2020-12-06T09:43:06.877000+00:00</time>
      </trkpt>
      <trkpt lat="0" lon="0">
        <time>2020-12-06T09:43:06.881000+00:00</time>
      </trkpt>
      <trkpt lat="0" lon="0">
        <time>2020-12-06T09:43:06.884000+00:00</time>
      </trkpt>
      <trkpt lat="47.34435" lon="-1.29151">
        <ele>8</ele>
        <time>2020-12-06T09:43:07.916000+00:00</time>
      </trkpt>
      <trkpt lat="0" lon="0">
        <time>2020-12-06T09:43:07.919000+00:00</time>
      </trkpt>
      <trkpt lat="0" lon="0">
        <time>2020-12-06T09:43:07.923000+00:00</time>
      </trkpt>
      <trkpt lat="0" lon="0">
        <time>2020-12-06T09:43:07.926000+00:00</time>
      </trkpt>
      <trkpt lat="47.34436" lon="-1.29159">
        <ele>8</ele>
        <time>2020-12-06T09:43:08.880000+00:00</time>
      </trkpt>
      <trkpt lat="0" lon="0">
        <time>2020-12-06T09:43:08.893000+00:00</time>
      </trkpt>
      <trkpt lat="0" lon="0">
        <time>2020-12-06T09:43:08.896000+00:00</time>
      </trkpt>
      <trkpt lat="0" lon="0">
        <time>2020-12-06T09:43:08.899000+00:00</time>
      </trkpt>
      <trkpt lat="47.34436" lon="-1.29166">
        <ele>9</ele>
        <time>2020-12-06T09:43:09.862000+00:00</time>
      </trkpt>
      <trkpt lat="0" lon="0">
        <time>2020-12-06T09:43:09.878000+00:00</time>
      </trkpt>
      <trkpt lat="0" lon="0">
        <time>2020-12-06T09:43:09.881000+00:00</time>
      </trkpt>
      <trkpt lat="0" lon="0">
        <time>2020-12-06T09:43:09.883000+00:00</time>
      </trkpt>
      <trkpt lat="47.34437" lon="-1.29174">
        <ele>8</ele>
        <time>2020-12-06T09:43:10.875000+00:00</time>
      </trkpt>
      <trkpt lat="0" lon="0">
        <time>2020-12-06T09:43:10.886000+00:00</time>
      </trkpt>
      <trkpt lat="0" lon="0">
        <time>2020-12-06T09:43:10.888000+00:00</time>
      </trkpt>
      <trkpt lat="0" lon="0">
        <time>2020-12-06T09:43:10.889000+00:00</time>
      </trkpt>
      <trkpt lat="47.34438" lon="-1.29182">
        <ele>8</ele>
        <time>2020-12-06T09:43:11.893000+00:00</time>
      </trkpt>
      <trkpt lat="0" lon="0">
        <time>2020-12-06T09:43:11.906000+00:00</time>
      </trkpt>
      <trkpt lat="0" lon="0">
        <time>2020-12-06T09:43:11.921000+00:00</time>
      </trkpt>
      <trkpt lat="0" lon="0">
        <time>2020-12-06T09:43:11.924000+00:00</time>
      </trkpt>
      <trkpt lat="47.34438" lon="-1.29189">
        <ele>8</ele>
        <time>2020-12-06T09:43:12.839000+00:00</time>
      </trkpt>
      <trkpt lat="0" lon="0">
        <time>2020-12-06T09:43:12.852000+00:00</time>
      </trkpt>
      <trkpt lat="0" lon="0">
        <time>2020-12-06T09:43:12.860000+00:00</time>
      </trkpt>
      <trkpt lat="0" lon="0">
        <time>2020-12-06T09:43:12.861000+00:00</time>
      </trkpt>
      <trkpt lat="47.34439" lon="-1.29197">
        <ele>8</ele>
        <time>2020-12-06T09:43:13.880000+00:00</time>
      </trkpt>
      <trkpt lat="0" lon="0">
        <time>2020-12-06T09:43:13.897000+00:00</time>
      </trkpt>
      <trkpt lat="0" lon="0">
        <time>2020-12-06T09:43:13.906000+00:00</time>
      </trkpt>
      <trkpt lat="0" lon="0">
        <time>2020-12-06T09:43:13.909000+00:00</time>
      </trkpt>
      <trkpt lat="47.34439" lon="-1.29205">
        <ele>8</ele>
        <time>2020-12-06T09:43:14.912000+00:00</time>
      </trkpt>
      <trkpt lat="0" lon="0">
        <time>2020-12-06T09:43:14.918000+00:00</time>
      </trkpt>
      <trkpt lat="0" lon="0">
        <time>2020-12-06T09:43:14.922000+00:00</time>
      </trkpt>
      <trkpt lat="0" lon="0">
        <time>2020-12-06T09:43:14.929000+00:00</time>
      </trkpt>
      <trkpt lat="47.34439" lon="-1.29214">
        <ele>8</ele>
        <time>2020-12-06T09:43:15.899000+00:00</time>
      </trkpt>
      <trkpt lat="0" lon="0">
        <time>2020-12-06T09:43:15.905000+00:00</time>
      </trkpt>
      <trkpt lat="0" lon="0">
        <time>2020-12-06T09:43:15.906000+00:00</time>
      </trkpt>
      <trkpt lat="0" lon="0">
        <time>2020-12-06T09:43:15.907000+00:00</time>
      </trkpt>
      <trkpt lat="47.34439" lon="-1.29222">
        <ele>8</ele>
        <time>2020-12-06T09:43:16.868000+00:00</time>
      </trkpt>
      <trkpt lat="0" lon="0">
        <time>2020-12-06T09:43:16.880000+00:00</time>
      </trkpt>
      <trkpt lat="0" lon="0">
        <time>2020-12-06T09:43:16.882000+00:00</time>
      </trkpt>
      <trkpt lat="0" lon="0">
        <time>2020-12-06T09:43:16.883000+00:00</time>
      </trkpt>
      <trkpt lat="47.34439" lon="-1.29231">
        <ele>8</ele>
        <time>2020-12-06T09:43:17.934000+00:00</time>
      </trkpt>
      <trkpt lat="0" lon="0">
        <time>2020-12-06T09:43:17.948000+00:00</time>
      </trkpt>
      <trkpt lat="0" lon="0">
        <time>2020-12-06T09:43:17.952000+00:00</time>
      </trkpt>
      <trkpt lat="0" lon="0">
        <time>2020-12-06T09:43:17.953000+00:00</time>
      </trkpt>
      <trkpt lat="47.34439" lon="-1.2924">
        <ele>8</ele>
        <time>2020-12-06T09:43:18.862000+00:00</time>
      </trkpt>
      <trkpt lat="0" lon="0">
        <time>2020-12-06T09:43:18.878000+00:00</time>
      </trkpt>
      <trkpt lat="0" lon="0">
        <time>2020-12-06T09:43:18.882000+00:00</time>
      </trkpt>
      <trkpt lat="0" lon="0">
        <time>2020-12-06T09:43:18.884000+00:00</time>
      </trkpt>
      <trkpt lat="47.34439" lon="-1.29249">
        <ele>8</ele>
        <time>2020-12-06T09:43:19.869000+00:00</time>
      </trkpt>
      <trkpt lat="0" lon="0">
        <time>2020-12-06T09:43:19.885000+00:00</time>
      </trkpt>
      <trkpt lat="0" lon="0">
        <time>2020-12-06T09:43:19.889000+00:00</time>
      </trkpt>
      <trkpt lat="0" lon="0">
        <time>2020-12-06T09:43:19.890000+00:00</time>
      </trkpt>
      <trkpt lat="47.34439" lon="-1.29258">
        <ele>8</ele>
        <time>2020-12-06T09:43:20.885000+00:00</time>
      </trkpt>
      <trkpt lat="0" lon="0">
        <time>2020-12-06T09:43:20.895000+00:00</time>
      </trkpt>
      <trkpt lat="0" lon="0">
        <time>2020-12-06T09:43:20.908000+00:00</time>
      </trkpt>
      <trkpt lat="0" lon="0">
        <time>2020-12-06T09:43:20.910000+00:00</time>
      </trkpt>
      <trkpt lat="47.34439" lon="-1.29267">
        <ele>8</ele>
        <time>2020-12-06T09:43:21.866000+00:00</time>
      </trkpt>
      <trkpt lat="0" lon="0">
        <time>2020-12-06T09:43:21.871000+00:00</time>
      </trkpt>
      <trkpt lat="0" lon="0">
        <time>2020-12-06T09:43:21.884000+00:00</time>
      </trkpt>
      <trkpt lat="0" lon="0">
        <time>2020-12-06T09:43:21.886000+00:00</time>
      </trkpt>
      <trkpt lat="47.34439" lon="-1.29276">
        <ele>8</ele>
        <time>2020-12-06T09:43:22.843000+00:00</time>
      </trkpt>
      <trkpt lat="0" lon="0">
        <time>2020-12-06T09:43:22.850000+00:00</time>
      </trkpt>
      <trkpt lat="0" lon="0">
        <time>2020-12-06T09:43:22.856000+00:00</time>
      </trkpt>
      <trkpt lat="0" lon="0">
        <time>2020-12-06T09:43:22.858000+00:00</time>
      </trkpt>
      <trkpt lat="47.34439" lon="-1.29286">
        <ele>8</ele>
        <time>2020-12-06T09:43:23.853000+00:00</time>
      </trkpt>
      <trkpt lat="0" lon="0">
        <time>2020-12-06T09:43:23.866000+00:00</time>
      </trkpt>
      <trkpt lat="0" lon="0">
        <time>2020-12-06T09:43:23.870000+00:00</time>
      </trkpt>
      <trkpt lat="0" lon="0">
        <time>2020-12-06T09:43:23.876000+00:00</time>
      </trkpt>
      <trkpt lat="47.34439" lon="-1.29296">
        <ele>8</ele>
        <time>2020-12-06T09:43:24.843000+00:00</time>
      </trkpt>
      <trkpt lat="0" lon="0">
        <time>2020-12-06T09:43:24.858000+00:00</time>
      </trkpt>
      <trkpt lat="0" lon="0">
        <time>2020-12-06T09:43:24.861000+00:00</time>
      </trkpt>
      <trkpt lat="0" lon="0">
        <time>2020-12-06T09:43:24.862000+00:00</time>
      </trkpt>
      <trkpt lat="47.34439" lon="-1.29305">
        <ele>8</ele>
        <time>2020-12-06T09:43:25.859000+00:00</time>
      </trkpt>
      <trkpt lat="0" lon="0">
        <time>2020-12-06T09:43:25.870000+00:00</time>
      </trkpt>
      <trkpt lat="0" lon="0">
        <time>2020-12-06T09:43:25.874000+00:00</time>
      </trkpt>
      <trkpt lat="0" lon="0">
        <time>2020-12-06T09:43:25.876000+00:00</time>
      </trkpt>
      <trkpt lat="47.34439" lon="-1.29314">
        <ele>8</ele>
        <time>2020-12-06T09:43:26.867000+00:00</time>
      </trkpt>
      <trkpt lat="0" lon="0">
        <time>2020-12-06T09:43:26.875000+00:00</time>
      </trkpt>
      <trkpt lat="0" lon="0">
        <time>2020-12-06T09:43:26.881000+00:00</time>
      </trkpt>
      <trkpt lat="0" lon="0">
        <time>2020-12-06T09:43:26.883000+00:00</time>
      </trkpt>
      <trkpt lat="47.34439" lon="-1.29324">
        <ele>8</ele>
        <time>2020-12-06T09:43:27.872000+00:00</time>
      </trkpt>
      <trkpt lat="0" lon="0">
        <time>2020-12-06T09:43:27.873000+00:00</time>
      </trkpt>
      <trkpt lat="0" lon="0">
        <time>2020-12-06T09:43:27.875000+00:00</time>
      </trkpt>
      <trkpt lat="0" lon="0">
        <time>2020-12-06T09:43:27.876000+00:00</time>
      </trkpt>
      <trkpt lat="47.34439" lon="-1.29333">
        <ele>8</ele>
        <time>2020-12-06T09:43:28.889000+00:00</time>
      </trkpt>
      <trkpt lat="0" lon="0">
        <time>2020-12-06T09:43:28.896000+00:00</time>
      </trkpt>
      <trkpt lat="0" lon="0">
        <time>2020-12-06T09:43:28.899000+00:00</time>
      </trkpt>
      <trkpt lat="0" lon="0">
        <time>2020-12-06T09:43:28.901000+00:00</time>
      </trkpt>
      <trkpt lat="47.34439" lon="-1.29342">
        <ele>7</ele>
        <time>2020-12-06T09:43:29.855000+00:00</time>
      </trkpt>
      <trkpt lat="0" lon="0">
        <time>2020-12-06T09:43:29.864000+00:00</time>
      </trkpt>
      <trkpt lat="0" lon="0">
        <time>2020-12-06T09:43:29.873000+00:00</time>
      </trkpt>
      <trkpt lat="0" lon="0">
        <time>2020-12-06T09:43:29.875000+00:00</time>
      </trkpt>
      <trkpt lat="47.3444" lon="-1.29352">
        <ele>7</ele>
        <time>2020-12-06T09:43:30.874000+00:00</time>
      </trkpt>
      <trkpt lat="0" lon="0">
        <time>2020-12-06T09:43:30.891000+00:00</time>
      </trkpt>
      <trkpt lat="0" lon="0">
        <time>2020-12-06T09:43:30.898000+00:00</time>
      </trkpt>
      <trkpt lat="0" lon="0">
        <time>2020-12-06T09:43:30.902000+00:00</time>
      </trkpt>
      <trkpt lat="47.3444" lon="-1.29361">
        <ele>7</ele>
        <time>2020-12-06T09:43:31.898000+00:00</time>
      </trkpt>
      <trkpt lat="0" lon="0">
        <time>2020-12-06T09:43:31.917000+00:00</time>
      </trkpt>
      <trkpt lat="0" lon="0">
        <time>2020-12-06T09:43:31.921000+00:00</time>
      </trkpt>
      <trkpt lat="0" lon="0">
        <time>2020-12-06T09:43:31.925000+00:00</time>
      </trkpt>
      <trkpt lat="47.3444" lon="-1.2937">
        <ele>7</ele>
        <time>2020-12-06T09:43:32.889000+00:00</time>
      </trkpt>
      <trkpt lat="0" lon="0">
        <time>2020-12-06T09:43:32.894000+00:00</time>
      </trkpt>
      <trkpt lat="0" lon="0">
        <time>2020-12-06T09:43:32.905000+00:00</time>
      </trkpt>
      <trkpt lat="0" lon="0">
        <time>2020-12-06T09:43:32.906000+00:00</time>
      </trkpt>
      <trkpt lat="47.3444" lon="-1.29379">
        <ele>7</ele>
        <time>2020-12-06T09:43:33.872000+00:00</time>
      </trkpt>
      <trkpt lat="0" lon="0">
        <time>2020-12-06T09:43:33.888000+00:00</time>
      </trkpt>
      <trkpt lat="0" lon="0">
        <time>2020-12-06T09:43:33.891000+00:00</time>
      </trkpt>
      <trkpt lat="0" lon="0">
        <time>2020-12-06T09:43:33.892000+00:00</time>
      </trkpt>
      <trkpt lat="47.3444" lon="-1.29388">
        <ele>7</ele>
        <time>2020-12-06T09:43:34.873000+00:00</time>
      </trkpt>
      <trkpt lat="0" lon="0">
        <time>2020-12-06T09:43:34.885000+00:00</time>
      </trkpt>
      <trkpt lat="0" lon="0">
        <time>2020-12-06T09:43:34.901000+00:00</time>
      </trkpt>
      <trkpt lat="0" lon="0">
        <time>2020-12-06T09:43:34.904000+00:00</time>
      </trkpt>
      <trkpt lat="47.3444" lon="-1.29397">
        <ele>7</ele>
        <time>2020-12-06T09:43:35.914000+00:00</time>
      </trkpt>
      <trkpt lat="0" lon="0">
        <time>2020-12-06T09:43:35.929000+00:00</time>
      </trkpt>
      <trkpt lat="0" lon="0">
        <time>2020-12-06T09:43:35.936000+00:00</time>
      </trkpt>
      <trkpt lat="0" lon="0">
        <time>2020-12-06T09:43:35.939000+00:00</time>
      </trkpt>
      <trkpt lat="47.3444" lon="-1.29406">
        <ele>7</ele>
        <time>2020-12-06T09:43:36.878000+00:00</time>
      </trkpt>
      <trkpt lat="0" lon="0">
        <time>2020-12-06T09:43:36.886000+00:00</time>
      </trkpt>
      <trkpt lat="0" lon="0">
        <time>2020-12-06T09:43:36.893000+00:00</time>
      </trkpt>
      <trkpt lat="0" lon="0">
        <time>2020-12-06T09:43:36.895000+00:00</time>
      </trkpt>
      <trkpt lat="47.3444" lon="-1.29415">
        <ele>7</ele>
        <time>2020-12-06T09:43:37.885000+00:00</time>
      </trkpt>
      <trkpt lat="0" lon="0">
        <time>2020-12-06T09:43:37.898000+00:00</time>
      </trkpt>
      <trkpt lat="0" lon="0">
        <time>2020-12-06T09:43:37.909000+00:00</time>
      </trkpt>
      <trkpt lat="0" lon="0">
        <time>2020-12-06T09:43:37.912000+00:00</time>
      </trkpt>
      <trkpt lat="47.3444" lon="-1.29424">
        <ele>7</ele>
        <time>2020-12-06T09:43:38.871000+00:00</time>
      </trkpt>
      <trkpt lat="0" lon="0">
        <time>2020-12-06T09:43:38.885000+00:00</time>
      </trkpt>
      <trkpt lat="0" lon="0">
        <time>2020-12-06T09:43:38.891000+00:00</time>
      </trkpt>
      <trkpt lat="0" lon="0">
        <time>2020-12-06T09:43:38.895000+00:00</time>
      </trkpt>
      <trkpt lat="47.3444" lon="-1.29433">
        <ele>7</ele>
        <time>2020-12-06T09:43:39.868000+00:00</time>
      </trkpt>
      <trkpt lat="0" lon="0">
        <time>2020-12-06T09:43:39.878000+00:00</time>
      </trkpt>
      <trkpt lat="0" lon="0">
        <time>2020-12-06T09:43:39.883000+00:00</time>
      </trkpt>
      <trkpt lat="0" lon="0">
        <time>2020-12-06T09:43:39.886000+00:00</time>
      </trkpt>
      <trkpt lat="47.3444" lon="-1.29442">
        <ele>7</ele>
        <time>2020-12-06T09:43:40.901000+00:00</time>
      </trkpt>
      <trkpt lat="0" lon="0">
        <time>2020-12-06T09:43:40.912000+00:00</time>
      </trkpt>
      <trkpt lat="0" lon="0">
        <time>2020-12-06T09:43:40.916000+00:00</time>
      </trkpt>
      <trkpt lat="0" lon="0">
        <time>2020-12-06T09:43:40.920000+00:00</time>
      </trkpt>
      <trkpt lat="47.34439" lon="-1.29451">
        <ele>7</ele>
        <time>2020-12-06T09:43:41.875000+00:00</time>
      </trkpt>
      <trkpt lat="0" lon="0">
        <time>2020-12-06T09:43:41.894000+00:00</time>
      </trkpt>
      <trkpt lat="0" lon="0">
        <time>2020-12-06T09:43:41.898000+00:00</time>
      </trkpt>
      <trkpt lat="0" lon="0">
        <time>2020-12-06T09:43:41.900000+00:00</time>
      </trkpt>
      <trkpt lat="47.34439" lon="-1.2946">
        <ele>7</ele>
        <time>2020-12-06T09:43:42.878000+00:00</time>
      </trkpt>
      <trkpt lat="0" lon="0">
        <time>2020-12-06T09:43:42.887000+00:00</time>
      </trkpt>
      <trkpt lat="0" lon="0">
        <time>2020-12-06T09:43:42.896000+00:00</time>
      </trkpt>
      <trkpt lat="0" lon="0">
        <time>2020-12-06T09:43:42.898000+00:00</time>
      </trkpt>
      <trkpt lat="47.34438" lon="-1.29469">
        <ele>7</ele>
        <time>2020-12-06T09:43:43.827000+00:00</time>
      </trkpt>
      <trkpt lat="0" lon="0">
        <time>2020-12-06T09:43:43.830000+00:00</time>
      </trkpt>
      <trkpt lat="0" lon="0">
        <time>2020-12-06T09:43:43.841000+00:00</time>
      </trkpt>
      <trkpt lat="0" lon="0">
        <time>2020-12-06T09:43:43.844000+00:00</time>
      </trkpt>
      <trkpt lat="47.34437" lon="-1.29477">
        <ele>7</ele>
        <time>2020-12-06T09:43:44.867000+00:00</time>
      </trkpt>
      <trkpt lat="0" lon="0">
        <time>2020-12-06T09:43:44.870000+00:00</time>
      </trkpt>
      <trkpt lat="0" lon="0">
        <time>2020-12-06T09:43:44.887000+00:00</time>
      </trkpt>
      <trkpt lat="0" lon="0">
        <time>2020-12-06T09:43:44.889000+00:00</time>
      </trkpt>
      <trkpt lat="47.34436" lon="-1.29486">
        <ele>7</ele>
        <time>2020-12-06T09:43:45.897000+00:00</time>
      </trkpt>
      <trkpt lat="0" lon="0">
        <time>2020-12-06T09:43:45.908000+00:00</time>
      </trkpt>
      <trkpt lat="0" lon="0">
        <time>2020-12-06T09:43:45.918000+00:00</time>
      </trkpt>
      <trkpt lat="0" lon="0">
        <time>2020-12-06T09:43:45.924000+00:00</time>
      </trkpt>
      <trkpt lat="47.34435" lon="-1.29495">
        <ele>7</ele>
        <time>2020-12-06T09:43:46.855000+00:00</time>
      </trkpt>
      <trkpt lat="0" lon="0">
        <time>2020-12-06T09:43:46.873000+00:00</time>
      </trkpt>
      <trkpt lat="0" lon="0">
        <time>2020-12-06T09:43:46.881000+00:00</time>
      </trkpt>
      <trkpt lat="0" lon="0">
        <time>2020-12-06T09:43:46.882000+00:00</time>
      </trkpt>
      <trkpt lat="47.34433" lon="-1.29504">
        <ele>7</ele>
        <time>2020-12-06T09:43:47.846000+00:00</time>
      </trkpt>
      <trkpt lat="0" lon="0">
        <time>2020-12-06T09:43:47.850000+00:00</time>
      </trkpt>
      <trkpt lat="0" lon="0">
        <time>2020-12-06T09:43:47.860000+00:00</time>
      </trkpt>
      <trkpt lat="0" lon="0">
        <time>2020-12-06T09:43:47.863000+00:00</time>
      </trkpt>
      <trkpt lat="47.34432" lon="-1.29512">
        <ele>7</ele>
        <time>2020-12-06T09:43:48.868000+00:00</time>
      </trkpt>
      <trkpt lat="0" lon="0">
        <time>2020-12-06T09:43:48.879000+00:00</time>
      </trkpt>
      <trkpt lat="0" lon="0">
        <time>2020-12-06T09:43:48.892000+00:00</time>
      </trkpt>
      <trkpt lat="0" lon="0">
        <time>2020-12-06T09:43:48.895000+00:00</time>
      </trkpt>
      <trkpt lat="47.34431" lon="-1.29521">
        <ele>7</ele>
        <time>2020-12-06T09:43:49.902000+00:00</time>
      </trkpt>
      <trkpt lat="0" lon="0">
        <time>2020-12-06T09:43:49.907000+00:00</time>
      </trkpt>
      <trkpt lat="0" lon="0">
        <time>2020-12-06T09:43:49.921000+00:00</time>
      </trkpt>
      <trkpt lat="0" lon="0">
        <time>2020-12-06T09:43:49.927000+00:00</time>
      </trkpt>
      <trkpt lat="47.3443" lon="-1.29529">
        <ele>6</ele>
        <time>2020-12-06T09:43:50.852000+00:00</time>
      </trkpt>
      <trkpt lat="0" lon="0">
        <time>2020-12-06T09:43:50.862000+00:00</time>
      </trkpt>
      <trkpt lat="0" lon="0">
        <time>2020-12-06T09:43:50.873000+00:00</time>
      </trkpt>
      <trkpt lat="0" lon="0">
        <time>2020-12-06T09:43:50.876000+00:00</time>
      </trkpt>
      <trkpt lat="47.34428" lon="-1.29538">
        <ele>6</ele>
        <time>2020-12-06T09:43:51.878000+00:00</time>
      </trkpt>
      <trkpt lat="0" lon="0">
        <time>2020-12-06T09:43:51.885000+00:00</time>
      </trkpt>
      <trkpt lat="0" lon="0">
        <time>2020-12-06T09:43:51.896000+00:00</time>
      </trkpt>
      <trkpt lat="0" lon="0">
        <time>2020-12-06T09:43:51.897000+00:00</time>
      </trkpt>
      <trkpt lat="47.34427" lon="-1.29547">
        <ele>6</ele>
        <time>2020-12-06T09:43:52.876000+00:00</time>
      </trkpt>
      <trkpt lat="0" lon="0">
        <time>2020-12-06T09:43:52.895000+00:00</time>
      </trkpt>
      <trkpt lat="0" lon="0">
        <time>2020-12-06T09:43:52.898000+00:00</time>
      </trkpt>
      <trkpt lat="0" lon="0">
        <time>2020-12-06T09:43:52.901000+00:00</time>
      </trkpt>
      <trkpt lat="47.34426" lon="-1.29555">
        <ele>6</ele>
        <time>2020-12-06T09:43:53.862000+00:00</time>
      </trkpt>
      <trkpt lat="0" lon="0">
        <time>2020-12-06T09:43:53.865000+00:00</time>
      </trkpt>
      <trkpt lat="0" lon="0">
        <time>2020-12-06T09:43:53.869000+00:00</time>
      </trkpt>
      <trkpt lat="0" lon="0">
        <time>2020-12-06T09:43:53.873000+00:00</time>
      </trkpt>
      <trkpt lat="47.34424" lon="-1.29564">
        <ele>6</ele>
        <time>2020-12-06T09:43:54.885000+00:00</time>
      </trkpt>
      <trkpt lat="0" lon="0">
        <time>2020-12-06T09:43:54.903000+00:00</time>
      </trkpt>
      <trkpt lat="0" lon="0">
        <time>2020-12-06T09:43:54.912000+00:00</time>
      </trkpt>
      <trkpt lat="0" lon="0">
        <time>2020-12-06T09:43:54.914000+00:00</time>
      </trkpt>
      <trkpt lat="47.34422" lon="-1.29573">
        <ele>6</ele>
        <time>2020-12-06T09:43:55.909000+00:00</time>
      </trkpt>
      <trkpt lat="0" lon="0">
        <time>2020-12-06T09:43:55.914000+00:00</time>
      </trkpt>
      <trkpt lat="0" lon="0">
        <time>2020-12-06T09:43:55.924000+00:00</time>
      </trkpt>
      <trkpt lat="0" lon="0">
        <time>2020-12-06T09:43:55.925000+00:00</time>
      </trkpt>
      <trkpt lat="47.34421" lon="-1.29582">
        <ele>6</ele>
        <time>2020-12-06T09:43:56.864000+00:00</time>
      </trkpt>
      <trkpt lat="0" lon="0">
        <time>2020-12-06T09:43:56.877000+00:00</time>
      </trkpt>
      <trkpt lat="0" lon="0">
        <time>2020-12-06T09:43:56.883000+00:00</time>
      </trkpt>
      <trkpt lat="0" lon="0">
        <time>2020-12-06T09:43:56.885000+00:00</time>
      </trkpt>
      <trkpt lat="47.34419" lon="-1.29591">
        <ele>6</ele>
        <time>2020-12-06T09:43:57.878000+00:00</time>
      </trkpt>
      <trkpt lat="0" lon="0">
        <time>2020-12-06T09:43:57.882000+00:00</time>
      </trkpt>
      <trkpt lat="0" lon="0">
        <time>2020-12-06T09:43:57.884000+00:00</time>
      </trkpt>
      <trkpt lat="47.34418" lon="-1.296">
        <ele>6</ele>
        <time>2020-12-06T09:43:58.877000+00:00</time>
      </trkpt>
      <trkpt lat="0" lon="0">
        <time>2020-12-06T09:43:58.888000+00:00</time>
      </trkpt>
      <trkpt lat="0" lon="0">
        <time>2020-12-06T09:43:58.892000+00:00</time>
      </trkpt>
      <trkpt lat="0" lon="0">
        <time>2020-12-06T09:43:58.894000+00:00</time>
      </trkpt>
      <trkpt lat="47.34416" lon="-1.29608">
        <ele>6</ele>
        <time>2020-12-06T09:43:59.885000+00:00</time>
      </trkpt>
      <trkpt lat="0" lon="0">
        <time>2020-12-06T09:43:59.905000+00:00</time>
      </trkpt>
      <trkpt lat="0" lon="0">
        <time>2020-12-06T09:43:59.911000+00:00</time>
      </trkpt>
      <trkpt lat="0" lon="0">
        <time>2020-12-06T09:43:59.914000+00:00</time>
      </trkpt>
      <trkpt lat="47.34414" lon="-1.29617">
        <ele>6</ele>
        <time>2020-12-06T09:44:00.811000+00:00</time>
      </trkpt>
      <trkpt lat="0" lon="0">
        <time>2020-12-06T09:44:00.817000+00:00</time>
      </trkpt>
      <trkpt lat="0" lon="0">
        <time>2020-12-06T09:44:00.819000+00:00</time>
      </trkpt>
      <trkpt lat="0" lon="0">
        <time>2020-12-06T09:44:00.820000+00:00</time>
      </trkpt>
      <trkpt lat="47.34413" lon="-1.29625">
        <ele>6</ele>
        <time>2020-12-06T09:44:01.870000+00:00</time>
      </trkpt>
      <trkpt lat="0" lon="0">
        <time>2020-12-06T09:44:01.878000+00:00</time>
      </trkpt>
      <trkpt lat="0" lon="0">
        <time>2020-12-06T09:44:01.891000+00:00</time>
      </trkpt>
      <trkpt lat="0" lon="0">
        <time>2020-12-06T09:44:01.898000+00:00</time>
      </trkpt>
      <trkpt lat="47.34411" lon="-1.29634">
        <ele>6</ele>
        <time>2020-12-06T09:44:02.876000+00:00</time>
      </trkpt>
      <trkpt lat="0" lon="0">
        <time>2020-12-06T09:44:02.882000+00:00</time>
      </trkpt>
      <trkpt lat="0" lon="0">
        <time>2020-12-06T09:44:02.890000+00:00</time>
      </trkpt>
      <trkpt lat="0" lon="0">
        <time>2020-12-06T09:44:02.893000+00:00</time>
      </trkpt>
      <trkpt lat="47.34409" lon="-1.29642">
        <ele>6</ele>
        <time>2020-12-06T09:44:03.861000+00:00</time>
      </trkpt>
      <trkpt lat="0" lon="0">
        <time>2020-12-06T09:44:03.873000+00:00</time>
      </trkpt>
      <trkpt lat="0" lon="0">
        <time>2020-12-06T09:44:03.876000+00:00</time>
      </trkpt>
      <trkpt lat="0" lon="0">
        <time>2020-12-06T09:44:03.880000+00:00</time>
      </trkpt>
      <trkpt lat="47.34408" lon="-1.2965">
        <ele>6</ele>
        <time>2020-12-06T09:44:04.911000+00:00</time>
      </trkpt>
      <trkpt lat="0" lon="0">
        <time>2020-12-06T09:44:04.920000+00:00</time>
      </trkpt>
      <trkpt lat="0" lon="0">
        <time>2020-12-06T09:44:04.924000+00:00</time>
      </trkpt>
      <trkpt lat="0" lon="0">
        <time>2020-12-06T09:44:04.927000+00:00</time>
      </trkpt>
      <trkpt lat="47.34405" lon="-1.29658">
        <ele>6</ele>
        <time>2020-12-06T09:44:05.865000+00:00</time>
      </trkpt>
      <trkpt lat="0" lon="0">
        <time>2020-12-06T09:44:05.884000+00:00</time>
      </trkpt>
      <trkpt lat="0" lon="0">
        <time>2020-12-06T09:44:05.890000+00:00</time>
      </trkpt>
      <trkpt lat="0" lon="0">
        <time>2020-12-06T09:44:05.893000+00:00</time>
      </trkpt>
      <trkpt lat="47.34403" lon="-1.29665">
        <ele>6</ele>
        <time>2020-12-06T09:44:06.782000+00:00</time>
      </trkpt>
      <trkpt lat="0" lon="0">
        <time>2020-12-06T09:44:06.787000+00:00</time>
      </trkpt>
      <trkpt lat="0" lon="0">
        <time>2020-12-06T09:44:06.790000+00:00</time>
      </trkpt>
      <trkpt lat="0" lon="0">
        <time>2020-12-06T09:44:06.795000+00:00</time>
      </trkpt>
      <trkpt lat="47.34401" lon="-1.29673">
        <ele>7</ele>
        <time>2020-12-06T09:44:07.890000+00:00</time>
      </trkpt>
      <trkpt lat="0" lon="0">
        <time>2020-12-06T09:44:07.893000+00:00</time>
      </trkpt>
      <trkpt lat="0" lon="0">
        <time>2020-12-06T09:44:07.898000+00:00</time>
      </trkpt>
      <trkpt lat="0" lon="0">
        <time>2020-12-06T09:44:07.900000+00:00</time>
      </trkpt>
      <trkpt lat="47.34398" lon="-1.2968">
        <ele>7</ele>
        <time>2020-12-06T09:44:08.895000+00:00</time>
      </trkpt>
      <trkpt lat="0" lon="0">
        <time>2020-12-06T09:44:08.913000+00:00</time>
      </trkpt>
      <trkpt lat="0" lon="0">
        <time>2020-12-06T09:44:08.916000+00:00</time>
      </trkpt>
      <trkpt lat="0" lon="0">
        <time>2020-12-06T09:44:08.919000+00:00</time>
      </trkpt>
      <trkpt lat="47.34395" lon="-1.29687">
        <ele>7</ele>
        <time>2020-12-06T09:44:09.880000+00:00</time>
      </trkpt>
      <trkpt lat="0" lon="0">
        <time>2020-12-06T09:44:09.899000+00:00</time>
      </trkpt>
      <trkpt lat="0" lon="0">
        <time>2020-12-06T09:44:09.902000+00:00</time>
      </trkpt>
      <trkpt lat="0" lon="0">
        <time>2020-12-06T09:44:09.904000+00:00</time>
      </trkpt>
      <trkpt lat="47.34391" lon="-1.29695">
        <ele>7</ele>
        <time>2020-12-06T09:44:10.822000+00:00</time>
      </trkpt>
      <trkpt lat="0" lon="0">
        <time>2020-12-06T09:44:10.825000+00:00</time>
      </trkpt>
      <trkpt lat="0" lon="0">
        <time>2020-12-06T09:44:10.829000+00:00</time>
      </trkpt>
      <trkpt lat="0" lon="0">
        <time>2020-12-06T09:44:10.832000+00:00</time>
      </trkpt>
      <trkpt lat="47.34388" lon="-1.29702">
        <ele>7</ele>
        <time>2020-12-06T09:44:11.856000+00:00</time>
      </trkpt>
      <trkpt lat="0" lon="0">
        <time>2020-12-06T09:44:11.869000+00:00</time>
      </trkpt>
      <trkpt lat="0" lon="0">
        <time>2020-12-06T09:44:11.873000+00:00</time>
      </trkpt>
      <trkpt lat="0" lon="0">
        <time>2020-12-06T09:44:11.876000+00:00</time>
      </trkpt>
      <trkpt lat="47.34384" lon="-1.29708">
        <ele>7</ele>
        <time>2020-12-06T09:44:12.868000+00:00</time>
      </trkpt>
      <trkpt lat="0" lon="0">
        <time>2020-12-06T09:44:12.872000+00:00</time>
      </trkpt>
      <trkpt lat="0" lon="0">
        <time>2020-12-06T09:44:12.880000+00:00</time>
      </trkpt>
      <trkpt lat="0" lon="0">
        <time>2020-12-06T09:44:12.883000+00:00</time>
      </trkpt>
      <trkpt lat="47.3438" lon="-1.29715">
        <ele>7</ele>
        <time>2020-12-06T09:44:13.885000+00:00</time>
      </trkpt>
      <trkpt lat="0" lon="0">
        <time>2020-12-06T09:44:13.910000+00:00</time>
      </trkpt>
      <trkpt lat="0" lon="0">
        <time>2020-12-06T09:44:13.914000+00:00</time>
      </trkpt>
      <trkpt lat="0" lon="0">
        <time>2020-12-06T09:44:13.917000+00:00</time>
      </trkpt>
      <trkpt lat="47.34377" lon="-1.29722">
        <ele>7</ele>
        <time>2020-12-06T09:44:14.886000+00:00</time>
      </trkpt>
      <trkpt lat="0" lon="0">
        <time>2020-12-06T09:44:14.894000+00:00</time>
      </trkpt>
      <trkpt lat="0" lon="0">
        <time>2020-12-06T09:44:14.897000+00:00</time>
      </trkpt>
      <trkpt lat="0" lon="0">
        <time>2020-12-06T09:44:14.904000+00:00</time>
      </trkpt>
      <trkpt lat="47.34373" lon="-1.29729">
        <ele>6</ele>
        <time>2020-12-06T09:44:15.855000+00:00</time>
      </trkpt>
      <trkpt lat="0" lon="0">
        <time>2020-12-06T09:44:15.867000+00:00</time>
      </trkpt>
      <trkpt lat="0" lon="0">
        <time>2020-12-06T09:44:15.874000+00:00</time>
      </trkpt>
      <trkpt lat="0" lon="0">
        <time>2020-12-06T09:44:15.875000+00:00</time>
      </trkpt>
      <trkpt lat="47.34369" lon="-1.29736">
        <ele>6</ele>
        <time>2020-12-06T09:44:16.872000+00:00</time>
      </trkpt>
      <trkpt lat="0" lon="0">
        <time>2020-12-06T09:44:16.880000+00:00</time>
      </trkpt>
      <trkpt lat="0" lon="0">
        <time>2020-12-06T09:44:16.885000+00:00</time>
      </trkpt>
      <trkpt lat="0" lon="0">
        <time>2020-12-06T09:44:16.886000+00:00</time>
      </trkpt>
      <trkpt lat="47.34365" lon="-1.29743">
        <ele>6</ele>
        <time>2020-12-06T09:44:17.861000+00:00</time>
      </trkpt>
      <trkpt lat="0" lon="0">
        <time>2020-12-06T09:44:17.868000+00:00</time>
      </trkpt>
      <trkpt lat="0" lon="0">
        <time>2020-12-06T09:44:17.873000+00:00</time>
      </trkpt>
      <trkpt lat="0" lon="0">
        <time>2020-12-06T09:44:17.875000+00:00</time>
      </trkpt>
      <trkpt lat="47.34361" lon="-1.2975">
        <ele>6</ele>
        <time>2020-12-06T09:44:18.853000+00:00</time>
      </trkpt>
      <trkpt lat="0" lon="0">
        <time>2020-12-06T09:44:18.862000+00:00</time>
      </trkpt>
      <trkpt lat="0" lon="0">
        <time>2020-12-06T09:44:18.874000+00:00</time>
      </trkpt>
      <trkpt lat="0" lon="0">
        <time>2020-12-06T09:44:18.877000+00:00</time>
      </trkpt>
      <trkpt lat="47.34358" lon="-1.29757">
        <ele>6</ele>
        <time>2020-12-06T09:44:19.890000+00:00</time>
      </trkpt>
      <trkpt lat="0" lon="0">
        <time>2020-12-06T09:44:19.907000+00:00</time>
      </trkpt>
      <trkpt lat="0" lon="0">
        <time>2020-12-06T09:44:19.911000+00:00</time>
      </trkpt>
      <trkpt lat="0" lon="0">
        <time>2020-12-06T09:44:19.913000+00:00</time>
      </trkpt>
      <trkpt lat="47.34354" lon="-1.29765">
        <ele>6</ele>
        <time>2020-12-06T09:44:20.903000+00:00</time>
      </trkpt>
      <trkpt lat="0" lon="0">
        <time>2020-12-06T09:44:20.914000+00:00</time>
      </trkpt>
      <trkpt lat="0" lon="0">
        <time>2020-12-06T09:44:20.916000+00:00</time>
      </trkpt>
      <trkpt lat="0" lon="0">
        <time>2020-12-06T09:44:20.917000+00:00</time>
      </trkpt>
      <trkpt lat="47.3435" lon="-1.29772">
        <ele>6</ele>
        <time>2020-12-06T09:44:21.891000+00:00</time>
      </trkpt>
      <trkpt lat="0" lon="0">
        <time>2020-12-06T09:44:21.913000+00:00</time>
      </trkpt>
      <trkpt lat="0" lon="0">
        <time>2020-12-06T09:44:21.919000+00:00</time>
      </trkpt>
      <trkpt lat="0" lon="0">
        <time>2020-12-06T09:44:21.923000+00:00</time>
      </trkpt>
      <trkpt lat="47.34346" lon="-1.2978">
        <ele>6</ele>
        <time>2020-12-06T09:44:22.904000+00:00</time>
      </trkpt>
      <trkpt lat="0" lon="0">
        <time>2020-12-06T09:44:22.913000+00:00</time>
      </trkpt>
      <trkpt lat="0" lon="0">
        <time>2020-12-06T09:44:22.918000+00:00</time>
      </trkpt>
      <trkpt lat="0" lon="0">
        <time>2020-12-06T09:44:22.929000+00:00</time>
      </trkpt>
      <trkpt lat="47.34343" lon="-1.29788">
        <ele>6</ele>
        <time>2020-12-06T09:44:23.914000+00:00</time>
      </trkpt>
      <trkpt lat="0" lon="0">
        <time>2020-12-06T09:44:23.918000+00:00</time>
      </trkpt>
      <trkpt lat="0" lon="0">
        <time>2020-12-06T09:44:23.929000+00:00</time>
      </trkpt>
      <trkpt lat="0" lon="0">
        <time>2020-12-06T09:44:23.931000+00:00</time>
      </trkpt>
      <trkpt lat="47.34339" lon="-1.29796">
        <ele>6</ele>
        <time>2020-12-06T09:44:24.896000+00:00</time>
      </trkpt>
      <trkpt lat="0" lon="0">
        <time>2020-12-06T09:44:24.911000+00:00</time>
      </trkpt>
      <trkpt lat="0" lon="0">
        <time>2020-12-06T09:44:24.923000+00:00</time>
      </trkpt>
      <trkpt lat="0" lon="0">
        <time>2020-12-06T09:44:24.925000+00:00</time>
      </trkpt>
      <trkpt lat="47.34335" lon="-1.29803">
        <ele>6</ele>
        <time>2020-12-06T09:44:25.775000+00:00</time>
      </trkpt>
      <trkpt lat="0" lon="0">
        <time>2020-12-06T09:44:25.777000+00:00</time>
      </trkpt>
      <trkpt lat="0" lon="0">
        <time>2020-12-06T09:44:25.786000+00:00</time>
      </trkpt>
      <trkpt lat="0" lon="0">
        <time>2020-12-06T09:44:25.787000+00:00</time>
      </trkpt>
      <trkpt lat="47.34332" lon="-1.29811">
        <ele>6</ele>
        <time>2020-12-06T09:44:26.865000+00:00</time>
      </trkpt>
      <trkpt lat="0" lon="0">
        <time>2020-12-06T09:44:26.879000+00:00</time>
      </trkpt>
      <trkpt lat="0" lon="0">
        <time>2020-12-06T09:44:26.888000+00:00</time>
      </trkpt>
      <trkpt lat="0" lon="0">
        <time>2020-12-06T09:44:26.896000+00:00</time>
      </trkpt>
      <trkpt lat="47.34328" lon="-1.29819">
        <ele>6</ele>
        <time>2020-12-06T09:44:27.802000+00:00</time>
      </trkpt>
      <trkpt lat="0" lon="0">
        <time>2020-12-06T09:44:27.811000+00:00</time>
      </trkpt>
      <trkpt lat="0" lon="0">
        <time>2020-12-06T09:44:27.815000+00:00</time>
      </trkpt>
      <trkpt lat="0" lon="0">
        <time>2020-12-06T09:44:27.818000+00:00</time>
      </trkpt>
      <trkpt lat="47.34324" lon="-1.29827">
        <ele>6</ele>
        <time>2020-12-06T09:44:28.882000+00:00</time>
      </trkpt>
      <trkpt lat="0" lon="0">
        <time>2020-12-06T09:44:28.903000+00:00</time>
      </trkpt>
      <trkpt lat="0" lon="0">
        <time>2020-12-06T09:44:28.906000+00:00</time>
      </trkpt>
      <trkpt lat="0" lon="0">
        <time>2020-12-06T09:44:28.909000+00:00</time>
      </trkpt>
      <trkpt lat="47.34321" lon="-1.29835">
        <ele>6</ele>
        <time>2020-12-06T09:44:29.871000+00:00</time>
      </trkpt>
      <trkpt lat="0" lon="0">
        <time>2020-12-06T09:44:29.886000+00:00</time>
      </trkpt>
      <trkpt lat="0" lon="0">
        <time>2020-12-06T09:44:29.893000+00:00</time>
      </trkpt>
      <trkpt lat="0" lon="0">
        <time>2020-12-06T09:44:29.899000+00:00</time>
      </trkpt>
      <trkpt lat="47.34318" lon="-1.29843">
        <ele>6</ele>
        <time>2020-12-06T09:44:30.848000+00:00</time>
      </trkpt>
      <trkpt lat="0" lon="0">
        <time>2020-12-06T09:44:30.856000+00:00</time>
      </trkpt>
      <trkpt lat="0" lon="0">
        <time>2020-12-06T09:44:30.860000+00:00</time>
      </trkpt>
      <trkpt lat="0" lon="0">
        <time>2020-12-06T09:44:30.861000+00:00</time>
      </trkpt>
      <trkpt lat="47.34314" lon="-1.29851">
        <ele>6</ele>
        <time>2020-12-06T09:44:31.885000+00:00</time>
      </trkpt>
      <trkpt lat="0" lon="0">
        <time>2020-12-06T09:44:31.890000+00:00</time>
      </trkpt>
      <trkpt lat="0" lon="0">
        <time>2020-12-06T09:44:31.896000+00:00</time>
      </trkpt>
      <trkpt lat="0" lon="0">
        <time>2020-12-06T09:44:31.900000+00:00</time>
      </trkpt>
      <trkpt lat="47.34311" lon="-1.29859">
        <ele>6</ele>
        <time>2020-12-06T09:44:32.853000+00:00</time>
      </trkpt>
      <trkpt lat="0" lon="0">
        <time>2020-12-06T09:44:32.856000+00:00</time>
      </trkpt>
      <trkpt lat="0" lon="0">
        <time>2020-12-06T09:44:32.859000+00:00</time>
      </trkpt>
      <trkpt lat="0" lon="0">
        <time>2020-12-06T09:44:32.865000+00:00</time>
      </trkpt>
      <trkpt lat="47.34308" lon="-1.29867">
        <ele>6</ele>
        <time>2020-12-06T09:44:33.865000+00:00</time>
      </trkpt>
      <trkpt lat="0" lon="0">
        <time>2020-12-06T09:44:33.869000+00:00</time>
      </trkpt>
      <trkpt lat="0" lon="0">
        <time>2020-12-06T09:44:33.874000+00:00</time>
      </trkpt>
      <trkpt lat="0" lon="0">
        <time>2020-12-06T09:44:33.875000+00:00</time>
      </trkpt>
      <trkpt lat="47.34306" lon="-1.29874">
        <ele>6</ele>
        <time>2020-12-06T09:44:34.884000+00:00</time>
      </trkpt>
      <trkpt lat="0" lon="0">
        <time>2020-12-06T09:44:34.888000+00:00</time>
      </trkpt>
      <trkpt lat="0" lon="0">
        <time>2020-12-06T09:44:34.895000+00:00</time>
      </trkpt>
      <trkpt lat="0" lon="0">
        <time>2020-12-06T09:44:34.897000+00:00</time>
      </trkpt>
      <trkpt lat="47.34303" lon="-1.29882">
        <ele>6</ele>
        <time>2020-12-06T09:44:35.797000+00:00</time>
      </trkpt>
      <trkpt lat="0" lon="0">
        <time>2020-12-06T09:44:35.800000+00:00</time>
      </trkpt>
      <trkpt lat="0" lon="0">
        <time>2020-12-06T09:44:35.804000+00:00</time>
      </trkpt>
      <trkpt lat="0" lon="0">
        <time>2020-12-06T09:44:35.805000+00:00</time>
      </trkpt>
      <trkpt lat="47.343" lon="-1.2989">
        <ele>5</ele>
        <time>2020-12-06T09:44:36.793000+00:00</time>
      </trkpt>
      <trkpt lat="0" lon="0">
        <time>2020-12-06T09:44:36.794000+00:00</time>
      </trkpt>
      <trkpt lat="0" lon="0">
        <time>2020-12-06T09:44:36.796000+00:00</time>
      </trkpt>
      <trkpt lat="47.34298" lon="-1.29898">
        <ele>5</ele>
        <time>2020-12-06T09:44:37.821000+00:00</time>
      </trkpt>
      <trkpt lat="0" lon="0">
        <time>2020-12-06T09:44:37.833000+00:00</time>
      </trkpt>
      <trkpt lat="0" lon="0">
        <time>2020-12-06T09:44:37.842000+00:00</time>
      </trkpt>
      <trkpt lat="0" lon="0">
        <time>2020-12-06T09:44:37.845000+00:00</time>
      </trkpt>
      <trkpt lat="47.34295" lon="-1.29905">
        <ele>5</ele>
        <time>2020-12-06T09:44:38.859000+00:00</time>
      </trkpt>
      <trkpt lat="0" lon="0">
        <time>2020-12-06T09:44:38.872000+00:00</time>
      </trkpt>
      <trkpt lat="0" lon="0">
        <time>2020-12-06T09:44:38.875000+00:00</time>
      </trkpt>
      <trkpt lat="0" lon="0">
        <time>2020-12-06T09:44:38.876000+00:00</time>
      </trkpt>
      <trkpt lat="47.34293" lon="-1.29913">
        <ele>5</ele>
        <time>2020-12-06T09:44:39.912000+00:00</time>
      </trkpt>
      <trkpt lat="0" lon="0">
        <time>2020-12-06T09:44:39.920000+00:00</time>
      </trkpt>
      <trkpt lat="0" lon="0">
        <time>2020-12-06T09:44:39.927000+00:00</time>
      </trkpt>
      <trkpt lat="0" lon="0">
        <time>2020-12-06T09:44:39.933000+00:00</time>
      </trkpt>
      <trkpt lat="47.3429" lon="-1.2992">
        <ele>5</ele>
        <time>2020-12-06T09:44:40.809000+00:00</time>
      </trkpt>
      <trkpt lat="0" lon="0">
        <time>2020-12-06T09:44:40.813000+00:00</time>
      </trkpt>
      <trkpt lat="0" lon="0">
        <time>2020-12-06T09:44:40.820000+00:00</time>
      </trkpt>
      <trkpt lat="0" lon="0">
        <time>2020-12-06T09:44:40.821000+00:00</time>
      </trkpt>
      <trkpt lat="47.34288" lon="-1.29928">
        <ele>5</ele>
        <time>2020-12-06T09:44:41.895000+00:00</time>
      </trkpt>
      <trkpt lat="0" lon="0">
        <time>2020-12-06T09:44:41.898000+00:00</time>
      </trkpt>
      <trkpt lat="0" lon="0">
        <time>2020-12-06T09:44:41.908000+00:00</time>
      </trkpt>
      <trkpt lat="0" lon="0">
        <time>2020-12-06T09:44:41.912000+00:00</time>
      </trkpt>
      <trkpt lat="47.34286" lon="-1.29935">
        <ele>5</ele>
        <time>2020-12-06T09:44:42.847000+00:00</time>
      </trkpt>
      <trkpt lat="0" lon="0">
        <time>2020-12-06T09:44:42.858000+00:00</time>
      </trkpt>
      <trkpt lat="0" lon="0">
        <time>2020-12-06T09:44:42.865000+00:00</time>
      </trkpt>
      <trkpt lat="0" lon="0">
        <time>2020-12-06T09:44:42.868000+00:00</time>
      </trkpt>
      <trkpt lat="47.34283" lon="-1.29942">
        <ele>5</ele>
        <time>2020-12-06T09:44:43.858000+00:00</time>
      </trkpt>
      <trkpt lat="0" lon="0">
        <time>2020-12-06T09:44:43.862000+00:00</time>
      </trkpt>
      <trkpt lat="0" lon="0">
        <time>2020-12-06T09:44:43.870000+00:00</time>
      </trkpt>
      <trkpt lat="0" lon="0">
        <time>2020-12-06T09:44:43.876000+00:00</time>
      </trkpt>
      <trkpt lat="47.34281" lon="-1.2995">
        <ele>5</ele>
        <time>2020-12-06T09:44:44.913000+00:00</time>
      </trkpt>
      <trkpt lat="0" lon="0">
        <time>2020-12-06T09:44:44.925000+00:00</time>
      </trkpt>
      <trkpt lat="0" lon="0">
        <time>2020-12-06T09:44:44.929000+00:00</time>
      </trkpt>
      <trkpt lat="0" lon="0">
        <time>2020-12-06T09:44:44.932000+00:00</time>
      </trkpt>
      <trkpt lat="47.34279" lon="-1.29957">
        <ele>5</ele>
        <time>2020-12-06T09:44:45.935000+00:00</time>
      </trkpt>
      <trkpt lat="0" lon="0">
        <time>2020-12-06T09:44:45.951000+00:00</time>
      </trkpt>
      <trkpt lat="0" lon="0">
        <time>2020-12-06T09:44:45.955000+00:00</time>
      </trkpt>
      <trkpt lat="0" lon="0">
        <time>2020-12-06T09:44:45.957000+00:00</time>
      </trkpt>
      <trkpt lat="47.34278" lon="-1.29964">
        <ele>5</ele>
        <time>2020-12-06T09:44:46.877000+00:00</time>
      </trkpt>
      <trkpt lat="0" lon="0">
        <time>2020-12-06T09:44:46.888000+00:00</time>
      </trkpt>
      <trkpt lat="0" lon="0">
        <time>2020-12-06T09:44:46.892000+00:00</time>
      </trkpt>
      <trkpt lat="0" lon="0">
        <time>2020-12-06T09:44:46.894000+00:00</time>
      </trkpt>
      <trkpt lat="47.34277" lon="-1.29972">
        <ele>5</ele>
        <time>2020-12-06T09:44:47.947000+00:00</time>
      </trkpt>
      <trkpt lat="0" lon="0">
        <time>2020-12-06T09:44:47.956000+00:00</time>
      </trkpt>
      <trkpt lat="0" lon="0">
        <time>2020-12-06T09:44:47.959000+00:00</time>
      </trkpt>
      <trkpt lat="0" lon="0">
        <time>2020-12-06T09:44:47.961000+00:00</time>
      </trkpt>
      <trkpt lat="47.34276" lon="-1.29979">
        <ele>5</ele>
        <time>2020-12-06T09:44:48.870000+00:00</time>
      </trkpt>
      <trkpt lat="0" lon="0">
        <time>2020-12-06T09:44:48.875000+00:00</time>
      </trkpt>
      <trkpt lat="0" lon="0">
        <time>2020-12-06T09:44:48.877000+00:00</time>
      </trkpt>
      <trkpt lat="0" lon="0">
        <time>2020-12-06T09:44:48.878000+00:00</time>
      </trkpt>
      <trkpt lat="47.34275" lon="-1.29987">
        <ele>6</ele>
        <time>2020-12-06T09:44:49.862000+00:00</time>
      </trkpt>
      <trkpt lat="0" lon="0">
        <time>2020-12-06T09:44:49.872000+00:00</time>
      </trkpt>
      <trkpt lat="0" lon="0">
        <time>2020-12-06T09:44:49.877000+00:00</time>
      </trkpt>
      <trkpt lat="0" lon="0">
        <time>2020-12-06T09:44:49.880000+00:00</time>
      </trkpt>
      <trkpt lat="47.34275" lon="-1.29995">
        <ele>6</ele>
        <time>2020-12-06T09:44:50.903000+00:00</time>
      </trkpt>
      <trkpt lat="0" lon="0">
        <time>2020-12-06T09:44:50.907000+00:00</time>
      </trkpt>
      <trkpt lat="0" lon="0">
        <time>2020-12-06T09:44:50.917000+00:00</time>
      </trkpt>
      <trkpt lat="0" lon="0">
        <time>2020-12-06T09:44:50.920000+00:00</time>
      </trkpt>
      <trkpt lat="47.34275" lon="-1.30002">
        <ele>6</ele>
        <time>2020-12-06T09:44:51.865000+00:00</time>
      </trkpt>
      <trkpt lat="0" lon="0">
        <time>2020-12-06T09:44:51.884000+00:00</time>
      </trkpt>
      <trkpt lat="0" lon="0">
        <time>2020-12-06T09:44:51.889000+00:00</time>
      </trkpt>
      <trkpt lat="0" lon="0">
        <time>2020-12-06T09:44:51.891000+00:00</time>
      </trkpt>
      <trkpt lat="47.34275" lon="-1.3001">
        <ele>6</ele>
        <time>2020-12-06T09:44:52.876000+00:00</time>
      </trkpt>
      <trkpt lat="0" lon="0">
        <time>2020-12-06T09:44:52.883000+00:00</time>
      </trkpt>
      <trkpt lat="0" lon="0">
        <time>2020-12-06T09:44:52.889000+00:00</time>
      </trkpt>
      <trkpt lat="0" lon="0">
        <time>2020-12-06T09:44:52.891000+00:00</time>
      </trkpt>
      <trkpt lat="47.34275" lon="-1.30018">
        <ele>6</ele>
        <time>2020-12-06T09:44:53.845000+00:00</time>
      </trkpt>
      <trkpt lat="0" lon="0">
        <time>2020-12-06T09:44:53.862000+00:00</time>
      </trkpt>
      <trkpt lat="0" lon="0">
        <time>2020-12-06T09:44:53.865000+00:00</time>
      </trkpt>
      <trkpt lat="0" lon="0">
        <time>2020-12-06T09:44:53.869000+00:00</time>
      </trkpt>
      <trkpt lat="47.34276" lon="-1.30025">
        <ele>6</ele>
        <time>2020-12-06T09:44:54.885000+00:00</time>
      </trkpt>
      <trkpt lat="0" lon="0">
        <time>2020-12-06T09:44:54.907000+00:00</time>
      </trkpt>
      <trkpt lat="0" lon="0">
        <time>2020-12-06T09:44:54.914000+00:00</time>
      </trkpt>
      <trkpt lat="0" lon="0">
        <time>2020-12-06T09:44:54.920000+00:00</time>
      </trkpt>
      <trkpt lat="47.34277" lon="-1.30032">
        <ele>6</ele>
        <time>2020-12-06T09:44:55.910000+00:00</time>
      </trkpt>
      <trkpt lat="0" lon="0">
        <time>2020-12-06T09:44:55.917000+00:00</time>
      </trkpt>
      <trkpt lat="0" lon="0">
        <time>2020-12-06T09:44:55.922000+00:00</time>
      </trkpt>
      <trkpt lat="0" lon="0">
        <time>2020-12-06T09:44:55.924000+00:00</time>
      </trkpt>
      <trkpt lat="47.34278" lon="-1.30039">
        <ele>6</ele>
        <time>2020-12-06T09:44:56.912000+00:00</time>
      </trkpt>
      <trkpt lat="0" lon="0">
        <time>2020-12-06T09:44:56.916000+00:00</time>
      </trkpt>
      <trkpt lat="0" lon="0">
        <time>2020-12-06T09:44:56.929000+00:00</time>
      </trkpt>
      <trkpt lat="0" lon="0">
        <time>2020-12-06T09:44:56.930000+00:00</time>
      </trkpt>
      <trkpt lat="47.3428" lon="-1.30046">
        <ele>6</ele>
        <time>2020-12-06T09:44:57.851000+00:00</time>
      </trkpt>
      <trkpt lat="0" lon="0">
        <time>2020-12-06T09:44:57.864000+00:00</time>
      </trkpt>
      <trkpt lat="0" lon="0">
        <time>2020-12-06T09:44:57.872000+00:00</time>
      </trkpt>
      <trkpt lat="0" lon="0">
        <time>2020-12-06T09:44:57.878000+00:00</time>
      </trkpt>
      <trkpt lat="47.34281" lon="-1.30052">
        <ele>6</ele>
        <time>2020-12-06T09:44:58.915000+00:00</time>
      </trkpt>
      <trkpt lat="0" lon="0">
        <time>2020-12-06T09:44:58.929000+00:00</time>
      </trkpt>
      <trkpt lat="0" lon="0">
        <time>2020-12-06T09:44:58.934000+00:00</time>
      </trkpt>
      <trkpt lat="0" lon="0">
        <time>2020-12-06T09:44:58.937000+00:00</time>
      </trkpt>
      <trkpt lat="47.34284" lon="-1.30058">
        <ele>7</ele>
        <time>2020-12-06T09:44:59.885000+00:00</time>
      </trkpt>
      <trkpt lat="0" lon="0">
        <time>2020-12-06T09:44:59.895000+00:00</time>
      </trkpt>
      <trkpt lat="0" lon="0">
        <time>2020-12-06T09:44:59.904000+00:00</time>
      </trkpt>
      <trkpt lat="0" lon="0">
        <time>2020-12-06T09:44:59.905000+00:00</time>
      </trkpt>
      <trkpt lat="47.34286" lon="-1.30064">
        <ele>7</ele>
        <time>2020-12-06T09:45:00.904000+00:00</time>
      </trkpt>
      <trkpt lat="0" lon="0">
        <time>2020-12-06T09:45:00.921000+00:00</time>
      </trkpt>
      <trkpt lat="0" lon="0">
        <time>2020-12-06T09:45:00.922000+00:00</time>
      </trkpt>
      <trkpt lat="0" lon="0">
        <time>2020-12-06T09:45:00.923000+00:00</time>
      </trkpt>
      <trkpt lat="47.34288" lon="-1.3007">
        <ele>7</ele>
        <time>2020-12-06T09:45:01.876000+00:00</time>
      </trkpt>
      <trkpt lat="0" lon="0">
        <time>2020-12-06T09:45:01.882000+00:00</time>
      </trkpt>
      <trkpt lat="0" lon="0">
        <time>2020-12-06T09:45:01.896000+00:00</time>
      </trkpt>
      <trkpt lat="0" lon="0">
        <time>2020-12-06T09:45:01.898000+00:00</time>
      </trkpt>
      <trkpt lat="47.34291" lon="-1.30076">
        <ele>7</ele>
        <time>2020-12-06T09:45:02.871000+00:00</time>
      </trkpt>
      <trkpt lat="0" lon="0">
        <time>2020-12-06T09:45:02.883000+00:00</time>
      </trkpt>
      <trkpt lat="0" lon="0">
        <time>2020-12-06T09:45:02.886000+00:00</time>
      </trkpt>
      <trkpt lat="47.34293" lon="-1.30082">
        <ele>8</ele>
        <time>2020-12-06T09:45:03.894000+00:00</time>
      </trkpt>
      <trkpt lat="0" lon="0">
        <time>2020-12-06T09:45:03.911000+00:00</time>
      </trkpt>
      <trkpt lat="0" lon="0">
        <time>2020-12-06T09:45:03.920000+00:00</time>
      </trkpt>
      <trkpt lat="0" lon="0">
        <time>2020-12-06T09:45:03.922000+00:00</time>
      </trkpt>
      <trkpt lat="47.34296" lon="-1.30087">
        <ele>8</ele>
        <time>2020-12-06T09:45:04.884000+00:00</time>
      </trkpt>
      <trkpt lat="0" lon="0">
        <time>2020-12-06T09:45:04.892000+00:00</time>
      </trkpt>
      <trkpt lat="0" lon="0">
        <time>2020-12-06T09:45:04.894000+00:00</time>
      </trkpt>
      <trkpt lat="0" lon="0">
        <time>2020-12-06T09:45:04.896000+00:00</time>
      </trkpt>
      <trkpt lat="47.34298" lon="-1.30092">
        <ele>8</ele>
        <time>2020-12-06T09:45:05.850000+00:00</time>
      </trkpt>
      <trkpt lat="0" lon="0">
        <time>2020-12-06T09:45:05.866000+00:00</time>
      </trkpt>
      <trkpt lat="0" lon="0">
        <time>2020-12-06T09:45:05.873000+00:00</time>
      </trkpt>
      <trkpt lat="0" lon="0">
        <time>2020-12-06T09:45:05.875000+00:00</time>
      </trkpt>
      <trkpt lat="47.34301" lon="-1.30097">
        <ele>9</ele>
        <time>2020-12-06T09:45:06.883000+00:00</time>
      </trkpt>
      <trkpt lat="0" lon="0">
        <time>2020-12-06T09:45:06.892000+00:00</time>
      </trkpt>
      <trkpt lat="0" lon="0">
        <time>2020-12-06T09:45:06.901000+00:00</time>
      </trkpt>
      <trkpt lat="0" lon="0">
        <time>2020-12-06T09:45:06.908000+00:00</time>
      </trkpt>
      <trkpt lat="47.34304" lon="-1.30101">
        <ele>9</ele>
        <time>2020-12-06T09:45:07.905000+00:00</time>
      </trkpt>
      <trkpt lat="0" lon="0">
        <time>2020-12-06T09:45:07.909000+00:00</time>
      </trkpt>
      <trkpt lat="0" lon="0">
        <time>2020-12-06T09:45:07.914000+00:00</time>
      </trkpt>
      <trkpt lat="0" lon="0">
        <time>2020-12-06T09:45:07.916000+00:00</time>
      </trkpt>
      <trkpt lat="47.34307" lon="-1.30105">
        <ele>9</ele>
        <time>2020-12-06T09:45:08.886000+00:00</time>
      </trkpt>
      <trkpt lat="0" lon="0">
        <time>2020-12-06T09:45:08.889000+00:00</time>
      </trkpt>
      <trkpt lat="0" lon="0">
        <time>2020-12-06T09:45:08.901000+00:00</time>
      </trkpt>
      <trkpt lat="0" lon="0">
        <time>2020-12-06T09:45:08.903000+00:00</time>
      </trkpt>
      <trkpt lat="47.34311" lon="-1.30107">
        <ele>10</ele>
        <time>2020-12-06T09:45:09.870000+00:00</time>
      </trkpt>
      <trkpt lat="0" lon="0">
        <time>2020-12-06T09:45:09.874000+00:00</time>
      </trkpt>
      <trkpt lat="0" lon="0">
        <time>2020-12-06T09:45:09.881000+00:00</time>
      </trkpt>
      <trkpt lat="0" lon="0">
        <time>2020-12-06T09:45:09.884000+00:00</time>
      </trkpt>
      <trkpt lat="47.34314" lon="-1.30109">
        <ele>10</ele>
        <time>2020-12-06T09:45:10.862000+00:00</time>
      </trkpt>
      <trkpt lat="0" lon="0">
        <time>2020-12-06T09:45:10.876000+00:00</time>
      </trkpt>
      <trkpt lat="0" lon="0">
        <time>2020-12-06T09:45:10.878000+00:00</time>
      </trkpt>
      <trkpt lat="0" lon="0">
        <time>2020-12-06T09:45:10.880000+00:00</time>
      </trkpt>
      <trkpt lat="47.34318" lon="-1.30111">
        <ele>11</ele>
        <time>2020-12-06T09:45:11.881000+00:00</time>
      </trkpt>
      <trkpt lat="0" lon="0">
        <time>2020-12-06T09:45:11.901000+00:00</time>
      </trkpt>
      <trkpt lat="0" lon="0">
        <time>2020-12-06T09:45:11.905000+00:00</time>
      </trkpt>
      <trkpt lat="0" lon="0">
        <time>2020-12-06T09:45:11.907000+00:00</time>
      </trkpt>
      <trkpt lat="47.34321" lon="-1.30112">
        <ele>11</ele>
        <time>2020-12-06T09:45:12.926000+00:00</time>
      </trkpt>
      <trkpt lat="0" lon="0">
        <time>2020-12-06T09:45:12.930000+00:00</time>
      </trkpt>
      <trkpt lat="0" lon="0">
        <time>2020-12-06T09:45:12.934000+00:00</time>
      </trkpt>
      <trkpt lat="0" lon="0">
        <time>2020-12-06T09:45:12.936000+00:00</time>
      </trkpt>
      <trkpt lat="47.34325" lon="-1.30112">
        <ele>11</ele>
        <time>2020-12-06T09:45:13.906000+00:00</time>
      </trkpt>
      <trkpt lat="0" lon="0">
        <time>2020-12-06T09:45:13.917000+00:00</time>
      </trkpt>
      <trkpt lat="0" lon="0">
        <time>2020-12-06T09:45:13.920000+00:00</time>
      </trkpt>
      <trkpt lat="0" lon="0">
        <time>2020-12-06T09:45:13.922000+00:00</time>
      </trkpt>
      <trkpt lat="47.34329" lon="-1.30113">
        <ele>12</ele>
        <time>2020-12-06T09:45:14.845000+00:00</time>
      </trkpt>
      <trkpt lat="0" lon="0">
        <time>2020-12-06T09:45:14.853000+00:00</time>
      </trkpt>
      <trkpt lat="0" lon="0">
        <time>2020-12-06T09:45:14.857000+00:00</time>
      </trkpt>
      <trkpt lat="0" lon="0">
        <time>2020-12-06T09:45:14.861000+00:00</time>
      </trkpt>
      <trkpt lat="47.34333" lon="-1.30113">
        <ele>12</ele>
        <time>2020-12-06T09:45:15.806000+00:00</time>
      </trkpt>
      <trkpt lat="0" lon="0">
        <time>2020-12-06T09:45:15.809000+00:00</time>
      </trkpt>
      <trkpt lat="0" lon="0">
        <time>2020-12-06T09:45:15.814000+00:00</time>
      </trkpt>
      <trkpt lat="0" lon="0">
        <time>2020-12-06T09:45:15.819000+00:00</time>
      </trkpt>
      <trkpt lat="47.34338" lon="-1.30114">
        <ele>12</ele>
        <time>2020-12-06T09:45:16.811000+00:00</time>
      </trkpt>
      <trkpt lat="0" lon="0">
        <time>2020-12-06T09:45:16.812000+00:00</time>
      </trkpt>
      <trkpt lat="0" lon="0">
        <time>2020-12-06T09:45:16.813000+00:00</time>
      </trkpt>
      <trkpt lat="0" lon="0">
        <time>2020-12-06T09:45:16.815000+00:00</time>
      </trkpt>
      <trkpt lat="47.34342" lon="-1.30115">
        <ele>12</ele>
        <time>2020-12-06T09:45:17.871000+00:00</time>
      </trkpt>
      <trkpt lat="0" lon="0">
        <time>2020-12-06T09:45:17.874000+00:00</time>
      </trkpt>
      <trkpt lat="0" lon="0">
        <time>2020-12-06T09:45:17.877000+00:00</time>
      </trkpt>
      <trkpt lat="0" lon="0">
        <time>2020-12-06T09:45:17.879000+00:00</time>
      </trkpt>
      <trkpt lat="47.34346" lon="-1.30117">
        <ele>13</ele>
        <time>2020-12-06T09:45:18.854000+00:00</time>
      </trkpt>
      <trkpt lat="0" lon="0">
        <time>2020-12-06T09:45:18.863000+00:00</time>
      </trkpt>
      <trkpt lat="0" lon="0">
        <time>2020-12-06T09:45:18.867000+00:00</time>
      </trkpt>
      <trkpt lat="0" lon="0">
        <time>2020-12-06T09:45:18.869000+00:00</time>
      </trkpt>
      <trkpt lat="47.3435" lon="-1.30119">
        <ele>13</ele>
        <time>2020-12-06T09:45:19.906000+00:00</time>
      </trkpt>
      <trkpt lat="0" lon="0">
        <time>2020-12-06T09:45:19.916000+00:00</time>
      </trkpt>
      <trkpt lat="0" lon="0">
        <time>2020-12-06T09:45:19.926000+00:00</time>
      </trkpt>
      <trkpt lat="0" lon="0">
        <time>2020-12-06T09:45:19.930000+00:00</time>
      </trkpt>
      <trkpt lat="47.34354" lon="-1.30121">
        <ele>13</ele>
        <time>2020-12-06T09:45:20.865000+00:00</time>
      </trkpt>
      <trkpt lat="0" lon="0">
        <time>2020-12-06T09:45:20.869000+00:00</time>
      </trkpt>
      <trkpt lat="0" lon="0">
        <time>2020-12-06T09:45:20.880000+00:00</time>
      </trkpt>
      <trkpt lat="0" lon="0">
        <time>2020-12-06T09:45:20.881000+00:00</time>
      </trkpt>
      <trkpt lat="47.34358" lon="-1.30124">
        <ele>14</ele>
        <time>2020-12-06T09:45:21.865000+00:00</time>
      </trkpt>
      <trkpt lat="0" lon="0">
        <time>2020-12-06T09:45:21.874000+00:00</time>
      </trkpt>
      <trkpt lat="0" lon="0">
        <time>2020-12-06T09:45:21.878000+00:00</time>
      </trkpt>
      <trkpt lat="0" lon="0">
        <time>2020-12-06T09:45:21.883000+00:00</time>
      </trkpt>
      <trkpt lat="47.34362" lon="-1.30128">
        <ele>14</ele>
        <time>2020-12-06T09:45:22.912000+00:00</time>
      </trkpt>
      <trkpt lat="0" lon="0">
        <time>2020-12-06T09:45:22.924000+00:00</time>
      </trkpt>
      <trkpt lat="0" lon="0">
        <time>2020-12-06T09:45:22.932000+00:00</time>
      </trkpt>
      <trkpt lat="0" lon="0">
        <time>2020-12-06T09:45:22.934000+00:00</time>
      </trkpt>
      <trkpt lat="47.3437" lon="-1.30136">
        <ele>15</ele>
        <time>2020-12-06T09:45:24.887000+00:00</time>
      </trkpt>
      <trkpt lat="0" lon="0">
        <time>2020-12-06T09:45:24.899000+00:00</time>
      </trkpt>
      <trkpt lat="0" lon="0">
        <time>2020-12-06T09:45:24.905000+00:00</time>
      </trkpt>
      <trkpt lat="0" lon="0">
        <time>2020-12-06T09:45:24.911000+00:00</time>
      </trkpt>
      <trkpt lat="47.34374" lon="-1.30141">
        <ele>16</ele>
        <time>2020-12-06T09:45:25.897000+00:00</time>
      </trkpt>
      <trkpt lat="0" lon="0">
        <time>2020-12-06T09:45:25.902000+00:00</time>
      </trkpt>
      <trkpt lat="0" lon="0">
        <time>2020-12-06T09:45:25.909000+00:00</time>
      </trkpt>
      <trkpt lat="0" lon="0">
        <time>2020-12-06T09:45:25.911000+00:00</time>
      </trkpt>
      <trkpt lat="47.34379" lon="-1.30146">
        <ele>16</ele>
        <time>2020-12-06T09:45:26.884000+00:00</time>
      </trkpt>
      <trkpt lat="0" lon="0">
        <time>2020-12-06T09:45:26.895000+00:00</time>
      </trkpt>
      <trkpt lat="0" lon="0">
        <time>2020-12-06T09:45:26.900000+00:00</time>
      </trkpt>
      <trkpt lat="0" lon="0">
        <time>2020-12-06T09:45:26.902000+00:00</time>
      </trkpt>
      <trkpt lat="47.34383" lon="-1.30151">
        <ele>17</ele>
        <time>2020-12-06T09:45:27.907000+00:00</time>
      </trkpt>
      <trkpt lat="0" lon="0">
        <time>2020-12-06T09:45:27.921000+00:00</time>
      </trkpt>
      <trkpt lat="0" lon="0">
        <time>2020-12-06T09:45:27.924000+00:00</time>
      </trkpt>
      <trkpt lat="0" lon="0">
        <time>2020-12-06T09:45:27.927000+00:00</time>
      </trkpt>
      <trkpt lat="47.34388" lon="-1.30156">
        <ele>18</ele>
        <time>2020-12-06T09:45:28.914000+00:00</time>
      </trkpt>
      <trkpt lat="0" lon="0">
        <time>2020-12-06T09:45:28.925000+00:00</time>
      </trkpt>
      <trkpt lat="0" lon="0">
        <time>2020-12-06T09:45:28.939000+00:00</time>
      </trkpt>
      <trkpt lat="0" lon="0">
        <time>2020-12-06T09:45:28.941000+00:00</time>
      </trkpt>
      <trkpt lat="47.34392" lon="-1.30161">
        <ele>18</ele>
        <time>2020-12-06T09:45:29.877000+00:00</time>
      </trkpt>
      <trkpt lat="0" lon="0">
        <time>2020-12-06T09:45:29.898000+00:00</time>
      </trkpt>
      <trkpt lat="0" lon="0">
        <time>2020-12-06T09:45:29.908000+00:00</time>
      </trkpt>
      <trkpt lat="0" lon="0">
        <time>2020-12-06T09:45:29.909000+00:00</time>
      </trkpt>
      <trkpt lat="47.34397" lon="-1.30165">
        <ele>19</ele>
        <time>2020-12-06T09:45:30.872000+00:00</time>
      </trkpt>
      <trkpt lat="0" lon="0">
        <time>2020-12-06T09:45:30.881000+00:00</time>
      </trkpt>
      <trkpt lat="0" lon="0">
        <time>2020-12-06T09:45:30.885000+00:00</time>
      </trkpt>
      <trkpt lat="0" lon="0">
        <time>2020-12-06T09:45:30.887000+00:00</time>
      </trkpt>
      <trkpt lat="47.34402" lon="-1.3017">
        <ele>20</ele>
        <time>2020-12-06T09:45:31.855000+00:00</time>
      </trkpt>
      <trkpt lat="0" lon="0">
        <time>2020-12-06T09:45:31.862000+00:00</time>
      </trkpt>
      <trkpt lat="0" lon="0">
        <time>2020-12-06T09:45:31.866000+00:00</time>
      </trkpt>
      <trkpt lat="0" lon="0">
        <time>2020-12-06T09:45:31.872000+00:00</time>
      </trkpt>
      <trkpt lat="47.34407" lon="-1.30174">
        <ele>21</ele>
        <time>2020-12-06T09:45:32.875000+00:00</time>
      </trkpt>
      <trkpt lat="0" lon="0">
        <time>2020-12-06T09:45:32.882000+00:00</time>
      </trkpt>
      <trkpt lat="0" lon="0">
        <time>2020-12-06T09:45:32.886000+00:00</time>
      </trkpt>
      <trkpt lat="0" lon="0">
        <time>2020-12-06T09:45:32.888000+00:00</time>
      </trkpt>
      <trkpt lat="47.34412" lon="-1.30178">
        <ele>21</ele>
        <time>2020-12-06T09:45:33.874000+00:00</time>
      </trkpt>
      <trkpt lat="0" lon="0">
        <time>2020-12-06T09:45:33.885000+00:00</time>
      </trkpt>
      <trkpt lat="0" lon="0">
        <time>2020-12-06T09:45:33.892000+00:00</time>
      </trkpt>
      <trkpt lat="0" lon="0">
        <time>2020-12-06T09:45:33.894000+00:00</time>
      </trkpt>
      <trkpt lat="47.34417" lon="-1.30181">
        <ele>22</ele>
        <time>2020-12-06T09:45:34.890000+00:00</time>
      </trkpt>
      <trkpt lat="0" lon="0">
        <time>2020-12-06T09:45:34.897000+00:00</time>
      </trkpt>
      <trkpt lat="0" lon="0">
        <time>2020-12-06T09:45:34.905000+00:00</time>
      </trkpt>
      <trkpt lat="0" lon="0">
        <time>2020-12-06T09:45:34.909000+00:00</time>
      </trkpt>
      <trkpt lat="47.34421" lon="-1.30184">
        <ele>22</ele>
        <time>2020-12-06T09:45:35.895000+00:00</time>
      </trkpt>
      <trkpt lat="0" lon="0">
        <time>2020-12-06T09:45:35.904000+00:00</time>
      </trkpt>
      <trkpt lat="0" lon="0">
        <time>2020-12-06T09:45:35.913000+00:00</time>
      </trkpt>
      <trkpt lat="0" lon="0">
        <time>2020-12-06T09:45:35.915000+00:00</time>
      </trkpt>
      <trkpt lat="47.34426" lon="-1.30188">
        <ele>23</ele>
        <time>2020-12-06T09:45:36.830000+00:00</time>
      </trkpt>
      <trkpt lat="0" lon="0">
        <time>2020-12-06T09:45:36.838000+00:00</time>
      </trkpt>
      <trkpt lat="0" lon="0">
        <time>2020-12-06T09:45:36.847000+00:00</time>
      </trkpt>
      <trkpt lat="0" lon="0">
        <time>2020-12-06T09:45:36.852000+00:00</time>
      </trkpt>
      <trkpt lat="47.34431" lon="-1.30191">
        <ele>23</ele>
        <time>2020-12-06T09:45:37.889000+00:00</time>
      </trkpt>
      <trkpt lat="0" lon="0">
        <time>2020-12-06T09:45:37.895000+00:00</time>
      </trkpt>
      <trkpt lat="0" lon="0">
        <time>2020-12-06T09:45:37.903000+00:00</time>
      </trkpt>
      <trkpt lat="0" lon="0">
        <time>2020-12-06T09:45:37.905000+00:00</time>
      </trkpt>
      <trkpt lat="47.34435" lon="-1.30194">
        <ele>23</ele>
        <time>2020-12-06T09:45:38.895000+00:00</time>
      </trkpt>
      <trkpt lat="0" lon="0">
        <time>2020-12-06T09:45:38.903000+00:00</time>
      </trkpt>
      <trkpt lat="0" lon="0">
        <time>2020-12-06T09:45:38.906000+00:00</time>
      </trkpt>
      <trkpt lat="0" lon="0">
        <time>2020-12-06T09:45:38.908000+00:00</time>
      </trkpt>
      <trkpt lat="47.34439" lon="-1.30197">
        <ele>24</ele>
        <time>2020-12-06T09:45:39.886000+00:00</time>
      </trkpt>
      <trkpt lat="0" lon="0">
        <time>2020-12-06T09:45:39.902000+00:00</time>
      </trkpt>
      <trkpt lat="0" lon="0">
        <time>2020-12-06T09:45:39.909000+00:00</time>
      </trkpt>
      <trkpt lat="0" lon="0">
        <time>2020-12-06T09:45:39.912000+00:00</time>
      </trkpt>
      <trkpt lat="47.34444" lon="-1.30199">
        <ele>24</ele>
        <time>2020-12-06T09:45:40.890000+00:00</time>
      </trkpt>
      <trkpt lat="0" lon="0">
        <time>2020-12-06T09:45:40.902000+00:00</time>
      </trkpt>
      <trkpt lat="0" lon="0">
        <time>2020-12-06T09:45:40.912000+00:00</time>
      </trkpt>
      <trkpt lat="0" lon="0">
        <time>2020-12-06T09:45:40.914000+00:00</time>
      </trkpt>
      <trkpt lat="47.34448" lon="-1.30202">
        <ele>24</ele>
        <time>2020-12-06T09:45:41.920000+00:00</time>
      </trkpt>
      <trkpt lat="0" lon="0">
        <time>2020-12-06T09:45:41.929000+00:00</time>
      </trkpt>
      <trkpt lat="0" lon="0">
        <time>2020-12-06T09:45:41.933000+00:00</time>
      </trkpt>
      <trkpt lat="0" lon="0">
        <time>2020-12-06T09:45:41.936000+00:00</time>
      </trkpt>
      <trkpt lat="47.34452" lon="-1.30204">
        <ele>24</ele>
        <time>2020-12-06T09:45:42.890000+00:00</time>
      </trkpt>
      <trkpt lat="0" lon="0">
        <time>2020-12-06T09:45:42.902000+00:00</time>
      </trkpt>
      <trkpt lat="0" lon="0">
        <time>2020-12-06T09:45:42.905000+00:00</time>
      </trkpt>
      <trkpt lat="0" lon="0">
        <time>2020-12-06T09:45:42.909000+00:00</time>
      </trkpt>
      <trkpt lat="47.34456" lon="-1.30205">
        <ele>24</ele>
        <time>2020-12-06T09:45:43.880000+00:00</time>
      </trkpt>
      <trkpt lat="0" lon="0">
        <time>2020-12-06T09:45:43.888000+00:00</time>
      </trkpt>
      <trkpt lat="0" lon="0">
        <time>2020-12-06T09:45:43.894000+00:00</time>
      </trkpt>
      <trkpt lat="0" lon="0">
        <time>2020-12-06T09:45:43.896000+00:00</time>
      </trkpt>
      <trkpt lat="47.34459" lon="-1.30206">
        <ele>25</ele>
        <time>2020-12-06T09:45:44.910000+00:00</time>
      </trkpt>
      <trkpt lat="0" lon="0">
        <time>2020-12-06T09:45:44.919000+00:00</time>
      </trkpt>
      <trkpt lat="0" lon="0">
        <time>2020-12-06T09:45:44.927000+00:00</time>
      </trkpt>
      <trkpt lat="0" lon="0">
        <time>2020-12-06T09:45:44.932000+00:00</time>
      </trkpt>
      <trkpt lat="47.34462" lon="-1.30207">
        <ele>25</ele>
        <time>2020-12-06T09:45:45.892000+00:00</time>
      </trkpt>
      <trkpt lat="0" lon="0">
        <time>2020-12-06T09:45:45.904000+00:00</time>
      </trkpt>
      <trkpt lat="0" lon="0">
        <time>2020-12-06T09:45:45.909000+00:00</time>
      </trkpt>
      <trkpt lat="0" lon="0">
        <time>2020-12-06T09:45:45.911000+00:00</time>
      </trkpt>
      <trkpt lat="47.34466" lon="-1.30208">
        <ele>25</ele>
        <time>2020-12-06T09:45:46.799000+00:00</time>
      </trkpt>
      <trkpt lat="0" lon="0">
        <time>2020-12-06T09:45:46.809000+00:00</time>
      </trkpt>
      <trkpt lat="0" lon="0">
        <time>2020-12-06T09:45:46.810000+00:00</time>
      </trkpt>
      <trkpt lat="0" lon="0">
        <time>2020-12-06T09:45:46.811000+00:00</time>
      </trkpt>
      <trkpt lat="47.34469" lon="-1.30209">
        <ele>25</ele>
        <time>2020-12-06T09:45:47.842000+00:00</time>
      </trkpt>
      <trkpt lat="0" lon="0">
        <time>2020-12-06T09:45:47.848000+00:00</time>
      </trkpt>
      <trkpt lat="0" lon="0">
        <time>2020-12-06T09:45:47.852000+00:00</time>
      </trkpt>
      <trkpt lat="0" lon="0">
        <time>2020-12-06T09:45:47.855000+00:00</time>
      </trkpt>
      <trkpt lat="47.34471" lon="-1.3021">
        <ele>25</ele>
        <time>2020-12-06T09:45:48.888000+00:00</time>
      </trkpt>
      <trkpt lat="0" lon="0">
        <time>2020-12-06T09:45:48.891000+00:00</time>
      </trkpt>
      <trkpt lat="0" lon="0">
        <time>2020-12-06T09:45:48.903000+00:00</time>
      </trkpt>
      <trkpt lat="0" lon="0">
        <time>2020-12-06T09:45:48.905000+00:00</time>
      </trkpt>
      <trkpt lat="47.34474" lon="-1.30211">
        <ele>25</ele>
        <time>2020-12-06T09:45:49.882000+00:00</time>
      </trkpt>
      <trkpt lat="0" lon="0">
        <time>2020-12-06T09:45:49.886000+00:00</time>
      </trkpt>
      <trkpt lat="0" lon="0">
        <time>2020-12-06T09:45:49.897000+00:00</time>
      </trkpt>
      <trkpt lat="0" lon="0">
        <time>2020-12-06T09:45:49.910000+00:00</time>
      </trkpt>
      <trkpt lat="47.34478" lon="-1.30212">
        <ele>25</ele>
        <time>2020-12-06T09:45:50.875000+00:00</time>
      </trkpt>
      <trkpt lat="0" lon="0">
        <time>2020-12-06T09:45:50.881000+00:00</time>
      </trkpt>
      <trkpt lat="0" lon="0">
        <time>2020-12-06T09:45:50.889000+00:00</time>
      </trkpt>
      <trkpt lat="0" lon="0">
        <time>2020-12-06T09:45:50.894000+00:00</time>
      </trkpt>
      <trkpt lat="47.34481" lon="-1.30212">
        <ele>25</ele>
        <time>2020-12-06T09:45:51.836000+00:00</time>
      </trkpt>
      <trkpt lat="0" lon="0">
        <time>2020-12-06T09:45:51.851000+00:00</time>
      </trkpt>
      <trkpt lat="0" lon="0">
        <time>2020-12-06T09:45:51.855000+00:00</time>
      </trkpt>
      <trkpt lat="0" lon="0">
        <time>2020-12-06T09:45:51.860000+00:00</time>
      </trkpt>
      <trkpt lat="47.34484" lon="-1.30213">
        <ele>25</ele>
        <time>2020-12-06T09:45:52.906000+00:00</time>
      </trkpt>
      <trkpt lat="0" lon="0">
        <time>2020-12-06T09:45:52.911000+00:00</time>
      </trkpt>
      <trkpt lat="0" lon="0">
        <time>2020-12-06T09:45:52.914000+00:00</time>
      </trkpt>
      <trkpt lat="0" lon="0">
        <time>2020-12-06T09:45:52.917000+00:00</time>
      </trkpt>
      <trkpt lat="47.34488" lon="-1.30214">
        <ele>25</ele>
        <time>2020-12-06T09:45:53.857000+00:00</time>
      </trkpt>
      <trkpt lat="0" lon="0">
        <time>2020-12-06T09:45:53.876000+00:00</time>
      </trkpt>
      <trkpt lat="0" lon="0">
        <time>2020-12-06T09:45:53.884000+00:00</time>
      </trkpt>
      <trkpt lat="0" lon="0">
        <time>2020-12-06T09:45:53.885000+00:00</time>
      </trkpt>
      <trkpt lat="47.34491" lon="-1.30214">
        <ele>25</ele>
        <time>2020-12-06T09:45:54.878000+00:00</time>
      </trkpt>
      <trkpt lat="0" lon="0">
        <time>2020-12-06T09:45:54.897000+00:00</time>
      </trkpt>
      <trkpt lat="0" lon="0">
        <time>2020-12-06T09:45:54.908000+00:00</time>
      </trkpt>
      <trkpt lat="0" lon="0">
        <time>2020-12-06T09:45:54.915000+00:00</time>
      </trkpt>
      <trkpt lat="47.34495" lon="-1.30215">
        <ele>25</ele>
        <time>2020-12-06T09:45:55.816000+00:00</time>
      </trkpt>
      <trkpt lat="0" lon="0">
        <time>2020-12-06T09:45:55.831000+00:00</time>
      </trkpt>
      <trkpt lat="0" lon="0">
        <time>2020-12-06T09:45:55.837000+00:00</time>
      </trkpt>
      <trkpt lat="0" lon="0">
        <time>2020-12-06T09:45:55.840000+00:00</time>
      </trkpt>
      <trkpt lat="47.34498" lon="-1.30215">
        <ele>25</ele>
        <time>2020-12-06T09:45:56.783000+00:00</time>
      </trkpt>
      <trkpt lat="0" lon="0">
        <time>2020-12-06T09:45:56.790000+00:00</time>
      </trkpt>
      <trkpt lat="0" lon="0">
        <time>2020-12-06T09:45:56.793000+00:00</time>
      </trkpt>
      <trkpt lat="0" lon="0">
        <time>2020-12-06T09:45:56.795000+00:00</time>
      </trkpt>
      <trkpt lat="47.34502" lon="-1.30215">
        <ele>25</ele>
        <time>2020-12-06T09:45:57.814000+00:00</time>
      </trkpt>
      <trkpt lat="0" lon="0">
        <time>2020-12-06T09:45:57.821000+00:00</time>
      </trkpt>
      <trkpt lat="0" lon="0">
        <time>2020-12-06T09:45:57.828000+00:00</time>
      </trkpt>
      <trkpt lat="0" lon="0">
        <time>2020-12-06T09:45:57.834000+00:00</time>
      </trkpt>
      <trkpt lat="47.34507" lon="-1.30216">
        <ele>25</ele>
        <time>2020-12-06T09:45:58.845000+00:00</time>
      </trkpt>
      <trkpt lat="0" lon="0">
        <time>2020-12-06T09:45:58.854000+00:00</time>
      </trkpt>
      <trkpt lat="0" lon="0">
        <time>2020-12-06T09:45:58.861000+00:00</time>
      </trkpt>
      <trkpt lat="0" lon="0">
        <time>2020-12-06T09:45:58.865000+00:00</time>
      </trkpt>
      <trkpt lat="47.34511" lon="-1.30216">
        <ele>25</ele>
        <time>2020-12-06T09:45:59.839000+00:00</time>
      </trkpt>
      <trkpt lat="0" lon="0">
        <time>2020-12-06T09:45:59.842000+00:00</time>
      </trkpt>
      <trkpt lat="0" lon="0">
        <time>2020-12-06T09:45:59.845000+00:00</time>
      </trkpt>
      <trkpt lat="0" lon="0">
        <time>2020-12-06T09:45:59.855000+00:00</time>
      </trkpt>
      <trkpt lat="47.34515" lon="-1.30216">
        <ele>25</ele>
        <time>2020-12-06T09:46:00.913000+00:00</time>
      </trkpt>
      <trkpt lat="0" lon="0">
        <time>2020-12-06T09:46:00.928000+00:00</time>
      </trkpt>
      <trkpt lat="0" lon="0">
        <time>2020-12-06T09:46:00.931000+00:00</time>
      </trkpt>
      <trkpt lat="0" lon="0">
        <time>2020-12-06T09:46:00.933000+00:00</time>
      </trkpt>
      <trkpt lat="47.34519" lon="-1.30217">
        <ele>25</ele>
        <time>2020-12-06T09:46:01.862000+00:00</time>
      </trkpt>
      <trkpt lat="0" lon="0">
        <time>2020-12-06T09:46:01.869000+00:00</time>
      </trkpt>
      <trkpt lat="0" lon="0">
        <time>2020-12-06T09:46:01.876000+00:00</time>
      </trkpt>
      <trkpt lat="0" lon="0">
        <time>2020-12-06T09:46:01.878000+00:00</time>
      </trkpt>
      <trkpt lat="47.34522" lon="-1.30218">
        <ele>25</ele>
        <time>2020-12-06T09:46:02.862000+00:00</time>
      </trkpt>
      <trkpt lat="0" lon="0">
        <time>2020-12-06T09:46:02.873000+00:00</time>
      </trkpt>
      <trkpt lat="0" lon="0">
        <time>2020-12-06T09:46:02.880000+00:00</time>
      </trkpt>
      <trkpt lat="0" lon="0">
        <time>2020-12-06T09:46:02.882000+00:00</time>
      </trkpt>
      <trkpt lat="47.34525" lon="-1.30218">
        <ele>25</ele>
        <time>2020-12-06T09:46:03.878000+00:00</time>
      </trkpt>
      <trkpt lat="0" lon="0">
        <time>2020-12-06T09:46:03.889000+00:00</time>
      </trkpt>
      <trkpt lat="0" lon="0">
        <time>2020-12-06T09:46:03.894000+00:00</time>
      </trkpt>
      <trkpt lat="0" lon="0">
        <time>2020-12-06T09:46:03.896000+00:00</time>
      </trkpt>
      <trkpt lat="47.34528" lon="-1.30219">
        <ele>25</ele>
        <time>2020-12-06T09:46:04.917000+00:00</time>
      </trkpt>
      <trkpt lat="0" lon="0">
        <time>2020-12-06T09:46:04.929000+00:00</time>
      </trkpt>
      <trkpt lat="0" lon="0">
        <time>2020-12-06T09:46:04.933000+00:00</time>
      </trkpt>
      <trkpt lat="0" lon="0">
        <time>2020-12-06T09:46:04.935000+00:00</time>
      </trkpt>
      <trkpt lat="47.34531" lon="-1.3022">
        <ele>25</ele>
        <time>2020-12-06T09:46:05.892000+00:00</time>
      </trkpt>
      <trkpt lat="0" lon="0">
        <time>2020-12-06T09:46:05.908000+00:00</time>
      </trkpt>
      <trkpt lat="0" lon="0">
        <time>2020-12-06T09:46:05.916000+00:00</time>
      </trkpt>
      <trkpt lat="0" lon="0">
        <time>2020-12-06T09:46:05.920000+00:00</time>
      </trkpt>
      <trkpt lat="47.34533" lon="-1.30221">
        <ele>25</ele>
        <time>2020-12-06T09:46:06.888000+00:00</time>
      </trkpt>
      <trkpt lat="0" lon="0">
        <time>2020-12-06T09:46:06.897000+00:00</time>
      </trkpt>
      <trkpt lat="0" lon="0">
        <time>2020-12-06T09:46:06.904000+00:00</time>
      </trkpt>
      <trkpt lat="0" lon="0">
        <time>2020-12-06T09:46:06.907000+00:00</time>
      </trkpt>
      <trkpt lat="47.34535" lon="-1.30221">
        <ele>25</ele>
        <time>2020-12-06T09:46:07.889000+00:00</time>
      </trkpt>
      <trkpt lat="0" lon="0">
        <time>2020-12-06T09:46:07.900000+00:00</time>
      </trkpt>
      <trkpt lat="0" lon="0">
        <time>2020-12-06T09:46:07.910000+00:00</time>
      </trkpt>
      <trkpt lat="0" lon="0">
        <time>2020-12-06T09:46:07.913000+00:00</time>
      </trkpt>
      <trkpt lat="47.34538" lon="-1.30222">
        <ele>25</ele>
        <time>2020-12-06T09:46:08.915000+00:00</time>
      </trkpt>
      <trkpt lat="0" lon="0">
        <time>2020-12-06T09:46:08.926000+00:00</time>
      </trkpt>
      <trkpt lat="0" lon="0">
        <time>2020-12-06T09:46:08.929000+00:00</time>
      </trkpt>
      <trkpt lat="0" lon="0">
        <time>2020-12-06T09:46:08.930000+00:00</time>
      </trkpt>
      <trkpt lat="47.34539" lon="-1.30223">
        <ele>25</ele>
        <time>2020-12-06T09:46:09.919000+00:00</time>
      </trkpt>
      <trkpt lat="0" lon="0">
        <time>2020-12-06T09:46:09.927000+00:00</time>
      </trkpt>
      <trkpt lat="0" lon="0">
        <time>2020-12-06T09:46:09.931000+00:00</time>
      </trkpt>
      <trkpt lat="0" lon="0">
        <time>2020-12-06T09:46:09.933000+00:00</time>
      </trkpt>
      <trkpt lat="47.34541" lon="-1.30223">
        <ele>25</ele>
        <time>2020-12-06T09:46:10.884000+00:00</time>
      </trkpt>
      <trkpt lat="0" lon="0">
        <time>2020-12-06T09:46:10.894000+00:00</time>
      </trkpt>
      <trkpt lat="0" lon="0">
        <time>2020-12-06T09:46:10.901000+00:00</time>
      </trkpt>
      <trkpt lat="0" lon="0">
        <time>2020-12-06T09:46:10.903000+00:00</time>
      </trkpt>
      <trkpt lat="47.34543" lon="-1.30224">
        <ele>25</ele>
        <time>2020-12-06T09:46:11.846000+00:00</time>
      </trkpt>
      <trkpt lat="0" lon="0">
        <time>2020-12-06T09:46:11.856000+00:00</time>
      </trkpt>
      <trkpt lat="0" lon="0">
        <time>2020-12-06T09:46:11.861000+00:00</time>
      </trkpt>
      <trkpt lat="0" lon="0">
        <time>2020-12-06T09:46:11.862000+00:00</time>
      </trkpt>
      <trkpt lat="47.34544" lon="-1.30224">
        <ele>26</ele>
        <time>2020-12-06T09:46:12.885000+00:00</time>
      </trkpt>
      <trkpt lat="0" lon="0">
        <time>2020-12-06T09:46:12.897000+00:00</time>
      </trkpt>
      <trkpt lat="0" lon="0">
        <time>2020-12-06T09:46:12.902000+00:00</time>
      </trkpt>
      <trkpt lat="0" lon="0">
        <time>2020-12-06T09:46:12.904000+00:00</time>
      </trkpt>
      <trkpt lat="47.34545" lon="-1.30225">
        <ele>26</ele>
        <time>2020-12-06T09:46:13.905000+00:00</time>
      </trkpt>
      <trkpt lat="0" lon="0">
        <time>2020-12-06T09:46:13.912000+00:00</time>
      </trkpt>
      <trkpt lat="0" lon="0">
        <time>2020-12-06T09:46:13.915000+00:00</time>
      </trkpt>
      <trkpt lat="0" lon="0">
        <time>2020-12-06T09:46:13.917000+00:00</time>
      </trkpt>
      <trkpt lat="47.34546" lon="-1.30226">
        <ele>26</ele>
        <time>2020-12-06T09:46:14.875000+00:00</time>
      </trkpt>
      <trkpt lat="0" lon="0">
        <time>2020-12-06T09:46:14.881000+00:00</time>
      </trkpt>
      <trkpt lat="0" lon="0">
        <time>2020-12-06T09:46:14.892000+00:00</time>
      </trkpt>
      <trkpt lat="0" lon="0">
        <time>2020-12-06T09:46:14.896000+00:00</time>
      </trkpt>
      <trkpt lat="47.34547" lon="-1.30226">
        <ele>26</ele>
        <time>2020-12-06T09:46:15.853000+00:00</time>
      </trkpt>
      <trkpt lat="0" lon="0">
        <time>2020-12-06T09:46:15.861000+00:00</time>
      </trkpt>
      <trkpt lat="0" lon="0">
        <time>2020-12-06T09:46:15.867000+00:00</time>
      </trkpt>
      <trkpt lat="0" lon="0">
        <time>2020-12-06T09:46:15.872000+00:00</time>
      </trkpt>
      <trkpt lat="47.34548" lon="-1.30227">
        <ele>26</ele>
        <time>2020-12-06T09:46:17.132000+00:00</time>
      </trkpt>
      <trkpt lat="0" lon="0">
        <time>2020-12-06T09:46:17.156000+00:00</time>
      </trkpt>
      <trkpt lat="0" lon="0">
        <time>2020-12-06T09:46:17.160000+00:00</time>
      </trkpt>
      <trkpt lat="0" lon="0">
        <time>2020-12-06T09:46:17.161000+00:00</time>
      </trkpt>
      <trkpt lat="47.34549" lon="-1.30228">
        <ele>26</ele>
        <time>2020-12-06T09:46:17.852000+00:00</time>
      </trkpt>
      <trkpt lat="0" lon="0">
        <time>2020-12-06T09:46:17.861000+00:00</time>
      </trkpt>
      <trkpt lat="0" lon="0">
        <time>2020-12-06T09:46:17.866000+00:00</time>
      </trkpt>
      <trkpt lat="0" lon="0">
        <time>2020-12-06T09:46:17.868000+00:00</time>
      </trkpt>
      <trkpt lat="47.3455" lon="-1.30229">
        <ele>26</ele>
        <time>2020-12-06T09:46:18.883000+00:00</time>
      </trkpt>
      <trkpt lat="0" lon="0">
        <time>2020-12-06T09:46:18.892000+00:00</time>
      </trkpt>
      <trkpt lat="0" lon="0">
        <time>2020-12-06T09:46:18.896000+00:00</time>
      </trkpt>
      <trkpt lat="0" lon="0">
        <time>2020-12-06T09:46:18.897000+00:00</time>
      </trkpt>
      <trkpt lat="47.34551" lon="-1.30229">
        <ele>26</ele>
        <time>2020-12-06T09:46:19.873000+00:00</time>
      </trkpt>
      <trkpt lat="0" lon="0">
        <time>2020-12-06T09:46:19.893000+00:00</time>
      </trkpt>
      <trkpt lat="0" lon="0">
        <time>2020-12-06T09:46:19.897000+00:00</time>
      </trkpt>
      <trkpt lat="0" lon="0">
        <time>2020-12-06T09:46:19.898000+00:00</time>
      </trkpt>
      <trkpt lat="47.34552" lon="-1.30229">
        <ele>26</ele>
        <time>2020-12-06T09:46:20.864000+00:00</time>
      </trkpt>
      <trkpt lat="0" lon="0">
        <time>2020-12-06T09:46:20.869000+00:00</time>
      </trkpt>
      <trkpt lat="0" lon="0">
        <time>2020-12-06T09:46:20.877000+00:00</time>
      </trkpt>
      <trkpt lat="0" lon="0">
        <time>2020-12-06T09:46:20.879000+00:00</time>
      </trkpt>
      <trkpt lat="47.34553" lon="-1.3023">
        <ele>26</ele>
        <time>2020-12-06T09:46:21.849000+00:00</time>
      </trkpt>
      <trkpt lat="0" lon="0">
        <time>2020-12-06T09:46:21.859000+00:00</time>
      </trkpt>
      <trkpt lat="0" lon="0">
        <time>2020-12-06T09:46:21.864000+00:00</time>
      </trkpt>
      <trkpt lat="0" lon="0">
        <time>2020-12-06T09:46:21.866000+00:00</time>
      </trkpt>
      <trkpt lat="47.34553" lon="-1.3023">
        <ele>26</ele>
        <time>2020-12-06T09:46:22.854000+00:00</time>
      </trkpt>
      <trkpt lat="0" lon="0">
        <time>2020-12-06T09:46:22.859000+00:00</time>
      </trkpt>
      <trkpt lat="0" lon="0">
        <time>2020-12-06T09:46:22.861000+00:00</time>
      </trkpt>
      <trkpt lat="0" lon="0">
        <time>2020-12-06T09:46:22.863000+00:00</time>
      </trkpt>
      <trkpt lat="47.34554" lon="-1.30231">
        <ele>26</ele>
        <time>2020-12-06T09:46:23.852000+00:00</time>
      </trkpt>
      <trkpt lat="0" lon="0">
        <time>2020-12-06T09:46:23.867000+00:00</time>
      </trkpt>
      <trkpt lat="0" lon="0">
        <time>2020-12-06T09:46:23.877000+00:00</time>
      </trkpt>
      <trkpt lat="0" lon="0">
        <time>2020-12-06T09:46:23.882000+00:00</time>
      </trkpt>
      <trkpt lat="47.34555" lon="-1.30231">
        <ele>26</ele>
        <time>2020-12-06T09:46:24.844000+00:00</time>
      </trkpt>
      <trkpt lat="0" lon="0">
        <time>2020-12-06T09:46:24.848000+00:00</time>
      </trkpt>
      <trkpt lat="0" lon="0">
        <time>2020-12-06T09:46:24.856000+00:00</time>
      </trkpt>
      <trkpt lat="0" lon="0">
        <time>2020-12-06T09:46:24.857000+00:00</time>
      </trkpt>
      <trkpt lat="47.34556" lon="-1.30232">
        <ele>26</ele>
        <time>2020-12-06T09:46:25.863000+00:00</time>
      </trkpt>
      <trkpt lat="0" lon="0">
        <time>2020-12-06T09:46:25.881000+00:00</time>
      </trkpt>
      <trkpt lat="0" lon="0">
        <time>2020-12-06T09:46:25.887000+00:00</time>
      </trkpt>
      <trkpt lat="0" lon="0">
        <time>2020-12-06T09:46:25.890000+00:00</time>
      </trkpt>
      <trkpt lat="47.34557" lon="-1.30233">
        <ele>26</ele>
        <time>2020-12-06T09:46:26.856000+00:00</time>
      </trkpt>
      <trkpt lat="0" lon="0">
        <time>2020-12-06T09:46:26.864000+00:00</time>
      </trkpt>
      <trkpt lat="0" lon="0">
        <time>2020-12-06T09:46:26.875000+00:00</time>
      </trkpt>
      <trkpt lat="0" lon="0">
        <time>2020-12-06T09:46:26.878000+00:00</time>
      </trkpt>
      <trkpt lat="47.34558" lon="-1.30234">
        <ele>26</ele>
        <time>2020-12-06T09:46:27.806000+00:00</time>
      </trkpt>
      <trkpt lat="0" lon="0">
        <time>2020-12-06T09:46:27.820000+00:00</time>
      </trkpt>
      <trkpt lat="0" lon="0">
        <time>2020-12-06T09:46:27.823000+00:00</time>
      </trkpt>
      <trkpt lat="0" lon="0">
        <time>2020-12-06T09:46:27.828000+00:00</time>
      </trkpt>
      <trkpt lat="47.34559" lon="-1.30234">
        <ele>26</ele>
        <time>2020-12-06T09:46:28.839000+00:00</time>
      </trkpt>
      <trkpt lat="0" lon="0">
        <time>2020-12-06T09:46:28.848000+00:00</time>
      </trkpt>
      <trkpt lat="0" lon="0">
        <time>2020-12-06T09:46:28.852000+00:00</time>
      </trkpt>
      <trkpt lat="0" lon="0">
        <time>2020-12-06T09:46:28.864000+00:00</time>
      </trkpt>
      <trkpt lat="47.3456" lon="-1.30235">
        <ele>26</ele>
        <time>2020-12-06T09:46:29.843000+00:00</time>
      </trkpt>
      <trkpt lat="0" lon="0">
        <time>2020-12-06T09:46:29.850000+00:00</time>
      </trkpt>
      <trkpt lat="0" lon="0">
        <time>2020-12-06T09:46:29.853000+00:00</time>
      </trkpt>
      <trkpt lat="0" lon="0">
        <time>2020-12-06T09:46:29.857000+00:00</time>
      </trkpt>
      <trkpt lat="47.34561" lon="-1.30236">
        <ele>26</ele>
        <time>2020-12-06T09:46:30.829000+00:00</time>
      </trkpt>
      <trkpt lat="0" lon="0">
        <time>2020-12-06T09:46:30.845000+00:00</time>
      </trkpt>
      <trkpt lat="0" lon="0">
        <time>2020-12-06T09:46:30.850000+00:00</time>
      </trkpt>
      <trkpt lat="0" lon="0">
        <time>2020-12-06T09:46:30.852000+00:00</time>
      </trkpt>
      <trkpt lat="47.34562" lon="-1.30237">
        <ele>26</ele>
        <time>2020-12-06T09:46:31.829000+00:00</time>
      </trkpt>
      <trkpt lat="0" lon="0">
        <time>2020-12-06T09:46:31.833000+00:00</time>
      </trkpt>
      <trkpt lat="0" lon="0">
        <time>2020-12-06T09:46:31.845000+00:00</time>
      </trkpt>
      <trkpt lat="0" lon="0">
        <time>2020-12-06T09:46:31.848000+00:00</time>
      </trkpt>
      <trkpt lat="47.34563" lon="-1.30237">
        <ele>26</ele>
        <time>2020-12-06T09:46:32.827000+00:00</time>
      </trkpt>
      <trkpt lat="0" lon="0">
        <time>2020-12-06T09:46:32.831000+00:00</time>
      </trkpt>
      <trkpt lat="0" lon="0">
        <time>2020-12-06T09:46:32.835000+00:00</time>
      </trkpt>
      <trkpt lat="0" lon="0">
        <time>2020-12-06T09:46:32.838000+00:00</time>
      </trkpt>
      <trkpt lat="47.34563" lon="-1.30238">
        <ele>26</ele>
        <time>2020-12-06T09:46:33.859000+00:00</time>
      </trkpt>
      <trkpt lat="0" lon="0">
        <time>2020-12-06T09:46:33.862000+00:00</time>
      </trkpt>
      <trkpt lat="0" lon="0">
        <time>2020-12-06T09:46:33.869000+00:00</time>
      </trkpt>
      <trkpt lat="0" lon="0">
        <time>2020-12-06T09:46:33.884000+00:00</time>
      </trkpt>
      <trkpt lat="47.34564" lon="-1.30238">
        <ele>26</ele>
        <time>2020-12-06T09:46:34.812000+00:00</time>
      </trkpt>
      <trkpt lat="0" lon="0">
        <time>2020-12-06T09:46:34.821000+00:00</time>
      </trkpt>
      <trkpt lat="0" lon="0">
        <time>2020-12-06T09:46:34.833000+00:00</time>
      </trkpt>
      <trkpt lat="0" lon="0">
        <time>2020-12-06T09:46:34.837000+00:00</time>
      </trkpt>
      <trkpt lat="47.34564" lon="-1.30239">
        <ele>26</ele>
        <time>2020-12-06T09:46:35.776000+00:00</time>
      </trkpt>
      <trkpt lat="0" lon="0">
        <time>2020-12-06T09:46:35.777000+00:00</time>
      </trkpt>
      <trkpt lat="0" lon="0">
        <time>2020-12-06T09:46:35.785000+00:00</time>
      </trkpt>
      <trkpt lat="0" lon="0">
        <time>2020-12-06T09:46:35.786000+00:00</time>
      </trkpt>
      <trkpt lat="47.34564" lon="-1.3024">
        <ele>26</ele>
        <time>2020-12-06T09:46:36.825000+00:00</time>
      </trkpt>
      <trkpt lat="0" lon="0">
        <time>2020-12-06T09:46:36.829000+00:00</time>
      </trkpt>
      <trkpt lat="0" lon="0">
        <time>2020-12-06T09:46:36.836000+00:00</time>
      </trkpt>
      <trkpt lat="0" lon="0">
        <time>2020-12-06T09:46:36.838000+00:00</time>
      </trkpt>
      <trkpt lat="47.34565" lon="-1.3024">
        <ele>26</ele>
        <time>2020-12-06T09:46:37.836000+00:00</time>
      </trkpt>
      <trkpt lat="0" lon="0">
        <time>2020-12-06T09:46:37.847000+00:00</time>
      </trkpt>
      <trkpt lat="0" lon="0">
        <time>2020-12-06T09:46:37.854000+00:00</time>
      </trkpt>
      <trkpt lat="0" lon="0">
        <time>2020-12-06T09:46:37.855000+00:00</time>
      </trkpt>
      <trkpt lat="47.34565" lon="-1.30241">
        <ele>27</ele>
        <time>2020-12-06T09:46:38.829000+00:00</time>
      </trkpt>
      <trkpt lat="0" lon="0">
        <time>2020-12-06T09:46:38.833000+00:00</time>
      </trkpt>
      <trkpt lat="0" lon="0">
        <time>2020-12-06T09:46:38.838000+00:00</time>
      </trkpt>
      <trkpt lat="0" lon="0">
        <time>2020-12-06T09:46:38.849000+00:00</time>
      </trkpt>
      <trkpt lat="47.34563" lon="-1.30285">
        <ele>32</ele>
        <time>2020-12-06T09:46:39.827000+00:00</time>
      </trkpt>
      <trkpt lat="0" lon="0">
        <time>2020-12-06T09:46:39.828000+00:00</time>
      </trkpt>
      <trkpt lat="0" lon="0">
        <time>2020-12-06T09:46:39.829000+00:00</time>
      </trkpt>
      <trkpt lat="0" lon="0">
        <time>2020-12-06T09:46:39.832000+00:00</time>
      </trkpt>
      <trkpt lat="47.34562" lon="-1.30287">
        <ele>32</ele>
        <time>2020-12-06T09:46:40.883000+00:00</time>
      </trkpt>
      <trkpt lat="0" lon="0">
        <time>2020-12-06T09:46:40.887000+00:00</time>
      </trkpt>
      <trkpt lat="0" lon="0">
        <time>2020-12-06T09:46:40.893000+00:00</time>
      </trkpt>
      <trkpt lat="0" lon="0">
        <time>2020-12-06T09:46:40.894000+00:00</time>
      </trkpt>
      <trkpt lat="47.34562" lon="-1.30289">
        <ele>33</ele>
        <time>2020-12-06T09:46:41.898000+00:00</time>
      </trkpt>
      <trkpt lat="0" lon="0">
        <time>2020-12-06T09:46:41.905000+00:00</time>
      </trkpt>
      <trkpt lat="0" lon="0">
        <time>2020-12-06T09:46:41.909000+00:00</time>
      </trkpt>
      <trkpt lat="0" lon="0">
        <time>2020-12-06T09:46:41.911000+00:00</time>
      </trkpt>
      <trkpt lat="47.34561" lon="-1.30291">
        <ele>33</ele>
        <time>2020-12-06T09:46:42.891000+00:00</time>
      </trkpt>
      <trkpt lat="0" lon="0">
        <time>2020-12-06T09:46:42.900000+00:00</time>
      </trkpt>
      <trkpt lat="0" lon="0">
        <time>2020-12-06T09:46:42.907000+00:00</time>
      </trkpt>
      <trkpt lat="0" lon="0">
        <time>2020-12-06T09:46:42.909000+00:00</time>
      </trkpt>
      <trkpt lat="47.34561" lon="-1.30293">
        <ele>33</ele>
        <time>2020-12-06T09:46:43.882000+00:00</time>
      </trkpt>
      <trkpt lat="0" lon="0">
        <time>2020-12-06T09:46:43.892000+00:00</time>
      </trkpt>
      <trkpt lat="0" lon="0">
        <time>2020-12-06T09:46:43.900000+00:00</time>
      </trkpt>
      <trkpt lat="0" lon="0">
        <time>2020-12-06T09:46:43.901000+00:00</time>
      </trkpt>
      <trkpt lat="47.3456" lon="-1.30295">
        <ele>33</ele>
        <time>2020-12-06T09:46:44.895000+00:00</time>
      </trkpt>
      <trkpt lat="0" lon="0">
        <time>2020-12-06T09:46:44.899000+00:00</time>
      </trkpt>
      <trkpt lat="0" lon="0">
        <time>2020-12-06T09:46:44.904000+00:00</time>
      </trkpt>
      <trkpt lat="0" lon="0">
        <time>2020-12-06T09:46:44.906000+00:00</time>
      </trkpt>
      <trkpt lat="47.3456" lon="-1.30297">
        <ele>34</ele>
        <time>2020-12-06T09:46:45.902000+00:00</time>
      </trkpt>
      <trkpt lat="0" lon="0">
        <time>2020-12-06T09:46:45.905000+00:00</time>
      </trkpt>
      <trkpt lat="0" lon="0">
        <time>2020-12-06T09:46:45.910000+00:00</time>
      </trkpt>
      <trkpt lat="0" lon="0">
        <time>2020-12-06T09:46:45.911000+00:00</time>
      </trkpt>
      <trkpt lat="47.34559" lon="-1.30298">
        <ele>34</ele>
        <time>2020-12-06T09:46:46.907000+00:00</time>
      </trkpt>
      <trkpt lat="0" lon="0">
        <time>2020-12-06T09:46:46.919000+00:00</time>
      </trkpt>
      <trkpt lat="0" lon="0">
        <time>2020-12-06T09:46:46.922000+00:00</time>
      </trkpt>
      <trkpt lat="0" lon="0">
        <time>2020-12-06T09:46:46.924000+00:00</time>
      </trkpt>
      <trkpt lat="47.34559" lon="-1.303">
        <ele>34</ele>
        <time>2020-12-06T09:46:47.890000+00:00</time>
      </trkpt>
      <trkpt lat="0" lon="0">
        <time>2020-12-06T09:46:47.895000+00:00</time>
      </trkpt>
      <trkpt lat="0" lon="0">
        <time>2020-12-06T09:46:47.899000+00:00</time>
      </trkpt>
      <trkpt lat="0" lon="0">
        <time>2020-12-06T09:46:47.901000+00:00</time>
      </trkpt>
      <trkpt lat="47.34559" lon="-1.30302">
        <ele>34</ele>
        <time>2020-12-06T09:46:48.892000+00:00</time>
      </trkpt>
      <trkpt lat="0" lon="0">
        <time>2020-12-06T09:46:48.895000+00:00</time>
      </trkpt>
      <trkpt lat="0" lon="0">
        <time>2020-12-06T09:46:48.904000+00:00</time>
      </trkpt>
      <trkpt lat="0" lon="0">
        <time>2020-12-06T09:46:48.906000+00:00</time>
      </trkpt>
      <trkpt lat="47.34558" lon="-1.30304">
        <ele>35</ele>
        <time>2020-12-06T09:46:49.894000+00:00</time>
      </trkpt>
      <trkpt lat="0" lon="0">
        <time>2020-12-06T09:46:49.901000+00:00</time>
      </trkpt>
      <trkpt lat="0" lon="0">
        <time>2020-12-06T09:46:49.907000+00:00</time>
      </trkpt>
      <trkpt lat="0" lon="0">
        <time>2020-12-06T09:46:49.909000+00:00</time>
      </trkpt>
      <trkpt lat="47.34557" lon="-1.30306">
        <ele>35</ele>
        <time>2020-12-06T09:46:50.907000+00:00</time>
      </trkpt>
      <trkpt lat="0" lon="0">
        <time>2020-12-06T09:46:50.917000+00:00</time>
      </trkpt>
      <trkpt lat="0" lon="0">
        <time>2020-12-06T09:46:50.924000+00:00</time>
      </trkpt>
      <trkpt lat="0" lon="0">
        <time>2020-12-06T09:46:50.926000+00:00</time>
      </trkpt>
      <trkpt lat="47.34557" lon="-1.30308">
        <ele>35</ele>
        <time>2020-12-06T09:46:51.881000+00:00</time>
      </trkpt>
      <trkpt lat="0" lon="0">
        <time>2020-12-06T09:46:51.884000+00:00</time>
      </trkpt>
      <trkpt lat="0" lon="0">
        <time>2020-12-06T09:46:51.887000+00:00</time>
      </trkpt>
      <trkpt lat="0" lon="0">
        <time>2020-12-06T09:46:51.893000+00:00</time>
      </trkpt>
      <trkpt lat="47.34556" lon="-1.3031">
        <ele>35</ele>
        <time>2020-12-06T09:46:52.879000+00:00</time>
      </trkpt>
      <trkpt lat="0" lon="0">
        <time>2020-12-06T09:46:52.886000+00:00</time>
      </trkpt>
      <trkpt lat="0" lon="0">
        <time>2020-12-06T09:46:52.892000+00:00</time>
      </trkpt>
      <trkpt lat="0" lon="0">
        <time>2020-12-06T09:46:52.895000+00:00</time>
      </trkpt>
      <trkpt lat="47.34555" lon="-1.30312">
        <ele>36</ele>
        <time>2020-12-06T09:46:53.907000+00:00</time>
      </trkpt>
      <trkpt lat="0" lon="0">
        <time>2020-12-06T09:46:53.918000+00:00</time>
      </trkpt>
      <trkpt lat="0" lon="0">
        <time>2020-12-06T09:46:53.924000+00:00</time>
      </trkpt>
      <trkpt lat="0" lon="0">
        <time>2020-12-06T09:46:53.926000+00:00</time>
      </trkpt>
      <trkpt lat="47.34555" lon="-1.30315">
        <ele>36</ele>
        <time>2020-12-06T09:46:54.904000+00:00</time>
      </trkpt>
      <trkpt lat="0" lon="0">
        <time>2020-12-06T09:46:54.910000+00:00</time>
      </trkpt>
      <trkpt lat="0" lon="0">
        <time>2020-12-06T09:46:54.916000+00:00</time>
      </trkpt>
      <trkpt lat="0" lon="0">
        <time>2020-12-06T09:46:54.918000+00:00</time>
      </trkpt>
      <trkpt lat="47.34554" lon="-1.30317">
        <ele>36</ele>
        <time>2020-12-06T09:46:55.913000+00:00</time>
      </trkpt>
      <trkpt lat="0" lon="0">
        <time>2020-12-06T09:46:55.926000+00:00</time>
      </trkpt>
      <trkpt lat="0" lon="0">
        <time>2020-12-06T09:46:55.934000+00:00</time>
      </trkpt>
      <trkpt lat="0" lon="0">
        <time>2020-12-06T09:46:55.936000+00:00</time>
      </trkpt>
      <trkpt lat="47.34553" lon="-1.3032">
        <ele>37</ele>
        <time>2020-12-06T09:46:56.902000+00:00</time>
      </trkpt>
      <trkpt lat="0" lon="0">
        <time>2020-12-06T09:46:56.903000+00:00</time>
      </trkpt>
      <trkpt lat="0" lon="0">
        <time>2020-12-06T09:46:56.905000+00:00</time>
      </trkpt>
      <trkpt lat="0" lon="0">
        <time>2020-12-06T09:46:56.906000+00:00</time>
      </trkpt>
      <trkpt lat="47.34552" lon="-1.30323">
        <ele>37</ele>
        <time>2020-12-06T09:46:57.846000+00:00</time>
      </trkpt>
      <trkpt lat="0" lon="0">
        <time>2020-12-06T09:46:57.851000+00:00</time>
      </trkpt>
      <trkpt lat="0" lon="0">
        <time>2020-12-06T09:46:57.856000+00:00</time>
      </trkpt>
      <trkpt lat="0" lon="0">
        <time>2020-12-06T09:46:57.858000+00:00</time>
      </trkpt>
      <trkpt lat="47.34551" lon="-1.30326">
        <ele>38</ele>
        <time>2020-12-06T09:46:58.900000+00:00</time>
      </trkpt>
      <trkpt lat="0" lon="0">
        <time>2020-12-06T09:46:58.902000+00:00</time>
      </trkpt>
      <trkpt lat="0" lon="0">
        <time>2020-12-06T09:46:58.903000+00:00</time>
      </trkpt>
      <trkpt lat="0" lon="0">
        <time>2020-12-06T09:46:58.904000+00:00</time>
      </trkpt>
      <trkpt lat="47.34551" lon="-1.30329">
        <ele>38</ele>
        <time>2020-12-06T09:46:59.899000+00:00</time>
      </trkpt>
      <trkpt lat="0" lon="0">
        <time>2020-12-06T09:46:59.908000+00:00</time>
      </trkpt>
      <trkpt lat="0" lon="0">
        <time>2020-12-06T09:46:59.912000+00:00</time>
      </trkpt>
      <trkpt lat="0" lon="0">
        <time>2020-12-06T09:46:59.917000+00:00</time>
      </trkpt>
      <trkpt lat="47.3455" lon="-1.30332">
        <ele>38</ele>
        <time>2020-12-06T09:47:00.920000+00:00</time>
      </trkpt>
      <trkpt lat="0" lon="0">
        <time>2020-12-06T09:47:00.924000+00:00</time>
      </trkpt>
      <trkpt lat="0" lon="0">
        <time>2020-12-06T09:47:00.930000+00:00</time>
      </trkpt>
      <trkpt lat="0" lon="0">
        <time>2020-12-06T09:47:00.933000+00:00</time>
      </trkpt>
      <trkpt lat="47.34549" lon="-1.30335">
        <ele>39</ele>
        <time>2020-12-06T09:47:01.936000+00:00</time>
      </trkpt>
      <trkpt lat="0" lon="0">
        <time>2020-12-06T09:47:01.939000+00:00</time>
      </trkpt>
      <trkpt lat="0" lon="0">
        <time>2020-12-06T09:47:01.944000+00:00</time>
      </trkpt>
      <trkpt lat="0" lon="0">
        <time>2020-12-06T09:47:01.946000+00:00</time>
      </trkpt>
      <trkpt lat="47.34548" lon="-1.30338">
        <ele>39</ele>
        <time>2020-12-06T09:47:02.923000+00:00</time>
      </trkpt>
      <trkpt lat="0" lon="0">
        <time>2020-12-06T09:47:02.928000+00:00</time>
      </trkpt>
      <trkpt lat="0" lon="0">
        <time>2020-12-06T09:47:02.932000+00:00</time>
      </trkpt>
      <trkpt lat="0" lon="0">
        <time>2020-12-06T09:47:02.933000+00:00</time>
      </trkpt>
      <trkpt lat="47.34547" lon="-1.30341">
        <ele>39</ele>
        <time>2020-12-06T09:47:03.900000+00:00</time>
      </trkpt>
      <trkpt lat="0" lon="0">
        <time>2020-12-06T09:47:03.906000+00:00</time>
      </trkpt>
      <trkpt lat="0" lon="0">
        <time>2020-12-06T09:47:03.909000+00:00</time>
      </trkpt>
      <trkpt lat="0" lon="0">
        <time>2020-12-06T09:47:03.911000+00:00</time>
      </trkpt>
      <trkpt lat="47.34546" lon="-1.30344">
        <ele>39</ele>
        <time>2020-12-06T09:47:04.891000+00:00</time>
      </trkpt>
      <trkpt lat="0" lon="0">
        <time>2020-12-06T09:47:04.896000+00:00</time>
      </trkpt>
      <trkpt lat="0" lon="0">
        <time>2020-12-06T09:47:04.899000+00:00</time>
      </trkpt>
      <trkpt lat="0" lon="0">
        <time>2020-12-06T09:47:04.901000+00:00</time>
      </trkpt>
      <trkpt lat="47.34546" lon="-1.30347">
        <ele>39</ele>
        <time>2020-12-06T09:47:05.910000+00:00</time>
      </trkpt>
      <trkpt lat="0" lon="0">
        <time>2020-12-06T09:47:05.920000+00:00</time>
      </trkpt>
      <trkpt lat="0" lon="0">
        <time>2020-12-06T09:47:05.925000+00:00</time>
      </trkpt>
      <trkpt lat="0" lon="0">
        <time>2020-12-06T09:47:05.928000+00:00</time>
      </trkpt>
      <trkpt lat="47.34545" lon="-1.30349">
        <ele>39</ele>
        <time>2020-12-06T09:47:06.915000+00:00</time>
      </trkpt>
      <trkpt lat="0" lon="0">
        <time>2020-12-06T09:47:06.923000+00:00</time>
      </trkpt>
      <trkpt lat="0" lon="0">
        <time>2020-12-06T09:47:06.927000+00:00</time>
      </trkpt>
      <trkpt lat="0" lon="0">
        <time>2020-12-06T09:47:06.929000+00:00</time>
      </trkpt>
      <trkpt lat="47.34544" lon="-1.30352">
        <ele>39</ele>
        <time>2020-12-06T09:47:07.914000+00:00</time>
      </trkpt>
      <trkpt lat="0" lon="0">
        <time>2020-12-06T09:47:07.920000+00:00</time>
      </trkpt>
      <trkpt lat="0" lon="0">
        <time>2020-12-06T09:47:07.923000+00:00</time>
      </trkpt>
      <trkpt lat="0" lon="0">
        <time>2020-12-06T09:47:07.925000+00:00</time>
      </trkpt>
      <trkpt lat="47.34544" lon="-1.30355">
        <ele>40</ele>
        <time>2020-12-06T09:47:08.914000+00:00</time>
      </trkpt>
      <trkpt lat="0" lon="0">
        <time>2020-12-06T09:47:08.918000+00:00</time>
      </trkpt>
      <trkpt lat="0" lon="0">
        <time>2020-12-06T09:47:08.923000+00:00</time>
      </trkpt>
      <trkpt lat="0" lon="0">
        <time>2020-12-06T09:47:08.927000+00:00</time>
      </trkpt>
      <trkpt lat="47.34543" lon="-1.30358">
        <ele>40</ele>
        <time>2020-12-06T09:47:09.904000+00:00</time>
      </trkpt>
      <trkpt lat="0" lon="0">
        <time>2020-12-06T09:47:09.906000+00:00</time>
      </trkpt>
      <trkpt lat="0" lon="0">
        <time>2020-12-06T09:47:09.907000+00:00</time>
      </trkpt>
      <trkpt lat="0" lon="0">
        <time>2020-12-06T09:47:09.913000+00:00</time>
      </trkpt>
      <trkpt lat="47.34542" lon="-1.3036">
        <ele>40</ele>
        <time>2020-12-06T09:47:10.899000+00:00</time>
      </trkpt>
      <trkpt lat="0" lon="0">
        <time>2020-12-06T09:47:10.904000+00:00</time>
      </trkpt>
      <trkpt lat="0" lon="0">
        <time>2020-12-06T09:47:10.914000+00:00</time>
      </trkpt>
      <trkpt lat="0" lon="0">
        <time>2020-12-06T09:47:10.916000+00:00</time>
      </trkpt>
      <trkpt lat="47.34542" lon="-1.30363">
        <ele>40</ele>
        <time>2020-12-06T09:47:11.916000+00:00</time>
      </trkpt>
      <trkpt lat="0" lon="0">
        <time>2020-12-06T09:47:11.929000+00:00</time>
      </trkpt>
      <trkpt lat="0" lon="0">
        <time>2020-12-06T09:47:11.936000+00:00</time>
      </trkpt>
      <trkpt lat="0" lon="0">
        <time>2020-12-06T09:47:11.938000+00:00</time>
      </trkpt>
      <trkpt lat="47.34541" lon="-1.30365">
        <ele>40</ele>
        <time>2020-12-06T09:47:12.895000+00:00</time>
      </trkpt>
      <trkpt lat="0" lon="0">
        <time>2020-12-06T09:47:12.897000+00:00</time>
      </trkpt>
      <trkpt lat="0" lon="0">
        <time>2020-12-06T09:47:12.898000+00:00</time>
      </trkpt>
      <trkpt lat="0" lon="0">
        <time>2020-12-06T09:47:12.899000+00:00</time>
      </trkpt>
      <trkpt lat="47.3454" lon="-1.30368">
        <ele>40</ele>
        <time>2020-12-06T09:47:13.913000+00:00</time>
      </trkpt>
      <trkpt lat="0" lon="0">
        <time>2020-12-06T09:47:13.920000+00:00</time>
      </trkpt>
      <trkpt lat="0" lon="0">
        <time>2020-12-06T09:47:13.924000+00:00</time>
      </trkpt>
      <trkpt lat="0" lon="0">
        <time>2020-12-06T09:47:13.925000+00:00</time>
      </trkpt>
      <trkpt lat="47.34539" lon="-1.30371">
        <ele>40</ele>
        <time>2020-12-06T09:47:14.858000+00:00</time>
      </trkpt>
      <trkpt lat="0" lon="0">
        <time>2020-12-06T09:47:14.871000+00:00</time>
      </trkpt>
      <trkpt lat="0" lon="0">
        <time>2020-12-06T09:47:14.873000+00:00</time>
      </trkpt>
      <trkpt lat="0" lon="0">
        <time>2020-12-06T09:47:14.875000+00:00</time>
      </trkpt>
      <trkpt lat="47.34539" lon="-1.30373">
        <ele>40</ele>
        <time>2020-12-06T09:47:15.909000+00:00</time>
      </trkpt>
      <trkpt lat="0" lon="0">
        <time>2020-12-06T09:47:15.911000+00:00</time>
      </trkpt>
      <trkpt lat="0" lon="0">
        <time>2020-12-06T09:47:15.914000+00:00</time>
      </trkpt>
      <trkpt lat="0" lon="0">
        <time>2020-12-06T09:47:15.917000+00:00</time>
      </trkpt>
      <trkpt lat="47.34538" lon="-1.30376">
        <ele>41</ele>
        <time>2020-12-06T09:47:16.948000+00:00</time>
      </trkpt>
      <trkpt lat="0" lon="0">
        <time>2020-12-06T09:47:16.966000+00:00</time>
      </trkpt>
      <trkpt lat="0" lon="0">
        <time>2020-12-06T09:47:16.970000+00:00</time>
      </trkpt>
      <trkpt lat="0" lon="0">
        <time>2020-12-06T09:47:16.972000+00:00</time>
      </trkpt>
      <trkpt lat="47.34537" lon="-1.30379">
        <ele>41</ele>
        <time>2020-12-06T09:47:17.922000+00:00</time>
      </trkpt>
      <trkpt lat="0" lon="0">
        <time>2020-12-06T09:47:17.927000+00:00</time>
      </trkpt>
      <trkpt lat="0" lon="0">
        <time>2020-12-06T09:47:17.928000+00:00</time>
      </trkpt>
      <trkpt lat="0" lon="0">
        <time>2020-12-06T09:47:17.929000+00:00</time>
      </trkpt>
      <trkpt lat="47.34536" lon="-1.30382">
        <ele>41</ele>
        <time>2020-12-06T09:47:18.911000+00:00</time>
      </trkpt>
      <trkpt lat="0" lon="0">
        <time>2020-12-06T09:47:18.919000+00:00</time>
      </trkpt>
      <trkpt lat="0" lon="0">
        <time>2020-12-06T09:47:18.923000+00:00</time>
      </trkpt>
      <trkpt lat="0" lon="0">
        <time>2020-12-06T09:47:18.924000+00:00</time>
      </trkpt>
      <trkpt lat="47.34535" lon="-1.30385">
        <ele>41</ele>
        <time>2020-12-06T09:47:19.875000+00:00</time>
      </trkpt>
      <trkpt lat="0" lon="0">
        <time>2020-12-06T09:47:19.887000+00:00</time>
      </trkpt>
      <trkpt lat="0" lon="0">
        <time>2020-12-06T09:47:19.893000+00:00</time>
      </trkpt>
      <trkpt lat="0" lon="0">
        <time>2020-12-06T09:47:19.894000+00:00</time>
      </trkpt>
      <trkpt lat="47.34535" lon="-1.30388">
        <ele>41</ele>
        <time>2020-12-06T09:47:20.923000+00:00</time>
      </trkpt>
      <trkpt lat="0" lon="0">
        <time>2020-12-06T09:47:20.926000+00:00</time>
      </trkpt>
      <trkpt lat="0" lon="0">
        <time>2020-12-06T09:47:20.938000+00:00</time>
      </trkpt>
      <trkpt lat="0" lon="0">
        <time>2020-12-06T09:47:20.939000+00:00</time>
      </trkpt>
      <trkpt lat="47.34534" lon="-1.30391">
        <ele>41</ele>
        <time>2020-12-06T09:47:21.917000+00:00</time>
      </trkpt>
      <trkpt lat="0" lon="0">
        <time>2020-12-06T09:47:21.921000+00:00</time>
      </trkpt>
      <trkpt lat="0" lon="0">
        <time>2020-12-06T09:47:21.924000+00:00</time>
      </trkpt>
      <trkpt lat="0" lon="0">
        <time>2020-12-06T09:47:21.926000+00:00</time>
      </trkpt>
      <trkpt lat="47.34533" lon="-1.30395">
        <ele>41</ele>
        <time>2020-12-06T09:47:22.886000+00:00</time>
      </trkpt>
      <trkpt lat="0" lon="0">
        <time>2020-12-06T09:47:22.908000+00:00</time>
      </trkpt>
      <trkpt lat="0" lon="0">
        <time>2020-12-06T09:47:22.918000+00:00</time>
      </trkpt>
      <trkpt lat="0" lon="0">
        <time>2020-12-06T09:47:22.923000+00:00</time>
      </trkpt>
      <trkpt lat="47.34532" lon="-1.30398">
        <ele>42</ele>
        <time>2020-12-06T09:47:23.905000+00:00</time>
      </trkpt>
      <trkpt lat="0" lon="0">
        <time>2020-12-06T09:47:23.907000+00:00</time>
      </trkpt>
      <trkpt lat="0" lon="0">
        <time>2020-12-06T09:47:23.913000+00:00</time>
      </trkpt>
      <trkpt lat="0" lon="0">
        <time>2020-12-06T09:47:23.916000+00:00</time>
      </trkpt>
      <trkpt lat="47.34531" lon="-1.30402">
        <ele>42</ele>
        <time>2020-12-06T09:47:24.925000+00:00</time>
      </trkpt>
      <trkpt lat="0" lon="0">
        <time>2020-12-06T09:47:24.944000+00:00</time>
      </trkpt>
      <trkpt lat="0" lon="0">
        <time>2020-12-06T09:47:24.948000+00:00</time>
      </trkpt>
      <trkpt lat="0" lon="0">
        <time>2020-12-06T09:47:24.952000+00:00</time>
      </trkpt>
      <trkpt lat="47.3453" lon="-1.30406">
        <ele>42</ele>
        <time>2020-12-06T09:47:25.920000+00:00</time>
      </trkpt>
      <trkpt lat="0" lon="0">
        <time>2020-12-06T09:47:25.929000+00:00</time>
      </trkpt>
      <trkpt lat="0" lon="0">
        <time>2020-12-06T09:47:25.940000+00:00</time>
      </trkpt>
      <trkpt lat="0" lon="0">
        <time>2020-12-06T09:47:25.946000+00:00</time>
      </trkpt>
      <trkpt lat="47.3453" lon="-1.30409">
        <ele>42</ele>
        <time>2020-12-06T09:47:26.930000+00:00</time>
      </trkpt>
      <trkpt lat="0" lon="0">
        <time>2020-12-06T09:47:26.946000+00:00</time>
      </trkpt>
      <trkpt lat="0" lon="0">
        <time>2020-12-06T09:47:26.952000+00:00</time>
      </trkpt>
      <trkpt lat="0" lon="0">
        <time>2020-12-06T09:47:26.954000+00:00</time>
      </trkpt>
      <trkpt lat="47.34529" lon="-1.30413">
        <ele>42</ele>
        <time>2020-12-06T09:47:27.906000+00:00</time>
      </trkpt>
      <trkpt lat="0" lon="0">
        <time>2020-12-06T09:47:27.913000+00:00</time>
      </trkpt>
      <trkpt lat="0" lon="0">
        <time>2020-12-06T09:47:27.918000+00:00</time>
      </trkpt>
      <trkpt lat="0" lon="0">
        <time>2020-12-06T09:47:27.925000+00:00</time>
      </trkpt>
      <trkpt lat="47.34528" lon="-1.30417">
        <ele>43</ele>
        <time>2020-12-06T09:47:28.880000+00:00</time>
      </trkpt>
      <trkpt lat="0" lon="0">
        <time>2020-12-06T09:47:28.892000+00:00</time>
      </trkpt>
      <trkpt lat="0" lon="0">
        <time>2020-12-06T09:47:28.896000+00:00</time>
      </trkpt>
      <trkpt lat="0" lon="0">
        <time>2020-12-06T09:47:28.903000+00:00</time>
      </trkpt>
      <trkpt lat="47.34527" lon="-1.30421">
        <ele>43</ele>
        <time>2020-12-06T09:47:29.906000+00:00</time>
      </trkpt>
      <trkpt lat="0" lon="0">
        <time>2020-12-06T09:47:29.912000+00:00</time>
      </trkpt>
      <trkpt lat="0" lon="0">
        <time>2020-12-06T09:47:29.919000+00:00</time>
      </trkpt>
      <trkpt lat="0" lon="0">
        <time>2020-12-06T09:47:29.920000+00:00</time>
      </trkpt>
      <trkpt lat="47.34526" lon="-1.30425">
        <ele>43</ele>
        <time>2020-12-06T09:47:30.894000+00:00</time>
      </trkpt>
      <trkpt lat="0" lon="0">
        <time>2020-12-06T09:47:30.911000+00:00</time>
      </trkpt>
      <trkpt lat="0" lon="0">
        <time>2020-12-06T09:47:30.920000+00:00</time>
      </trkpt>
      <trkpt lat="0" lon="0">
        <time>2020-12-06T09:47:30.921000+00:00</time>
      </trkpt>
      <trkpt lat="47.34525" lon="-1.30429">
        <ele>43</ele>
        <time>2020-12-06T09:47:31.892000+00:00</time>
      </trkpt>
      <trkpt lat="0" lon="0">
        <time>2020-12-06T09:47:31.897000+00:00</time>
      </trkpt>
      <trkpt lat="0" lon="0">
        <time>2020-12-06T09:47:31.901000+00:00</time>
      </trkpt>
      <trkpt lat="0" lon="0">
        <time>2020-12-06T09:47:31.903000+00:00</time>
      </trkpt>
      <trkpt lat="47.34523" lon="-1.30432">
        <ele>43</ele>
        <time>2020-12-06T09:47:32.916000+00:00</time>
      </trkpt>
      <trkpt lat="0" lon="0">
        <time>2020-12-06T09:47:32.932000+00:00</time>
      </trkpt>
      <trkpt lat="0" lon="0">
        <time>2020-12-06T09:47:32.935000+00:00</time>
      </trkpt>
      <trkpt lat="0" lon="0">
        <time>2020-12-06T09:47:32.941000+00:00</time>
      </trkpt>
      <trkpt lat="47.34522" lon="-1.30436">
        <ele>43</ele>
        <time>2020-12-06T09:47:33.897000+00:00</time>
      </trkpt>
      <trkpt lat="0" lon="0">
        <time>2020-12-06T09:47:33.911000+00:00</time>
      </trkpt>
      <trkpt lat="0" lon="0">
        <time>2020-12-06T09:47:33.917000+00:00</time>
      </trkpt>
      <trkpt lat="0" lon="0">
        <time>2020-12-06T09:47:33.922000+00:00</time>
      </trkpt>
      <trkpt lat="47.34521" lon="-1.3044">
        <ele>43</ele>
        <time>2020-12-06T09:47:34.926000+00:00</time>
      </trkpt>
      <trkpt lat="0" lon="0">
        <time>2020-12-06T09:47:34.931000+00:00</time>
      </trkpt>
      <trkpt lat="0" lon="0">
        <time>2020-12-06T09:47:34.936000+00:00</time>
      </trkpt>
      <trkpt lat="0" lon="0">
        <time>2020-12-06T09:47:34.938000+00:00</time>
      </trkpt>
      <trkpt lat="47.3452" lon="-1.30443">
        <ele>43</ele>
        <time>2020-12-06T09:47:35.914000+00:00</time>
      </trkpt>
      <trkpt lat="0" lon="0">
        <time>2020-12-06T09:47:35.917000+00:00</time>
      </trkpt>
      <trkpt lat="0" lon="0">
        <time>2020-12-06T09:47:35.922000+00:00</time>
      </trkpt>
      <trkpt lat="0" lon="0">
        <time>2020-12-06T09:47:35.923000+00:00</time>
      </trkpt>
      <trkpt lat="47.3452" lon="-1.30447">
        <ele>43</ele>
        <time>2020-12-06T09:47:36.902000+00:00</time>
      </trkpt>
      <trkpt lat="0" lon="0">
        <time>2020-12-06T09:47:36.911000+00:00</time>
      </trkpt>
      <trkpt lat="0" lon="0">
        <time>2020-12-06T09:47:36.916000+00:00</time>
      </trkpt>
      <trkpt lat="0" lon="0">
        <time>2020-12-06T09:47:36.918000+00:00</time>
      </trkpt>
      <trkpt lat="47.34519" lon="-1.3045">
        <ele>43</ele>
        <time>2020-12-06T09:47:37.913000+00:00</time>
      </trkpt>
      <trkpt lat="0" lon="0">
        <time>2020-12-06T09:47:37.921000+00:00</time>
      </trkpt>
      <trkpt lat="0" lon="0">
        <time>2020-12-06T09:47:37.928000+00:00</time>
      </trkpt>
      <trkpt lat="0" lon="0">
        <time>2020-12-06T09:47:37.934000+00:00</time>
      </trkpt>
      <trkpt lat="47.34518" lon="-1.30454">
        <ele>44</ele>
        <time>2020-12-06T09:47:38.902000+00:00</time>
      </trkpt>
      <trkpt lat="0" lon="0">
        <time>2020-12-06T09:47:38.907000+00:00</time>
      </trkpt>
      <trkpt lat="0" lon="0">
        <time>2020-12-06T09:47:38.910000+00:00</time>
      </trkpt>
      <trkpt lat="0" lon="0">
        <time>2020-12-06T09:47:38.913000+00:00</time>
      </trkpt>
      <trkpt lat="47.34517" lon="-1.30458">
        <ele>44</ele>
        <time>2020-12-06T09:47:39.901000+00:00</time>
      </trkpt>
      <trkpt lat="0" lon="0">
        <time>2020-12-06T09:47:39.920000+00:00</time>
      </trkpt>
      <trkpt lat="0" lon="0">
        <time>2020-12-06T09:47:39.924000+00:00</time>
      </trkpt>
      <trkpt lat="0" lon="0">
        <time>2020-12-06T09:47:39.925000+00:00</time>
      </trkpt>
      <trkpt lat="47.34516" lon="-1.30462">
        <ele>44</ele>
        <time>2020-12-06T09:47:40.934000+00:00</time>
      </trkpt>
      <trkpt lat="0" lon="0">
        <time>2020-12-06T09:47:40.953000+00:00</time>
      </trkpt>
      <trkpt lat="0" lon="0">
        <time>2020-12-06T09:47:40.957000+00:00</time>
      </trkpt>
      <trkpt lat="0" lon="0">
        <time>2020-12-06T09:47:40.959000+00:00</time>
      </trkpt>
      <trkpt lat="47.34516" lon="-1.30465">
        <ele>44</ele>
        <time>2020-12-06T09:47:41.892000+00:00</time>
      </trkpt>
      <trkpt lat="0" lon="0">
        <time>2020-12-06T09:47:41.895000+00:00</time>
      </trkpt>
      <trkpt lat="0" lon="0">
        <time>2020-12-06T09:47:41.903000+00:00</time>
      </trkpt>
      <trkpt lat="0" lon="0">
        <time>2020-12-06T09:47:41.906000+00:00</time>
      </trkpt>
      <trkpt lat="47.34515" lon="-1.30469">
        <ele>44</ele>
        <time>2020-12-06T09:47:42.927000+00:00</time>
      </trkpt>
      <trkpt lat="0" lon="0">
        <time>2020-12-06T09:47:42.932000+00:00</time>
      </trkpt>
      <trkpt lat="0" lon="0">
        <time>2020-12-06T09:47:42.937000+00:00</time>
      </trkpt>
      <trkpt lat="0" lon="0">
        <time>2020-12-06T09:47:42.939000+00:00</time>
      </trkpt>
      <trkpt lat="47.34514" lon="-1.30473">
        <ele>44</ele>
        <time>2020-12-06T09:47:43.911000+00:00</time>
      </trkpt>
      <trkpt lat="0" lon="0">
        <time>2020-12-06T09:47:43.922000+00:00</time>
      </trkpt>
      <trkpt lat="0" lon="0">
        <time>2020-12-06T09:47:43.926000+00:00</time>
      </trkpt>
      <trkpt lat="0" lon="0">
        <time>2020-12-06T09:47:43.929000+00:00</time>
      </trkpt>
      <trkpt lat="47.34513" lon="-1.30476">
        <ele>44</ele>
        <time>2020-12-06T09:47:44.909000+00:00</time>
      </trkpt>
      <trkpt lat="0" lon="0">
        <time>2020-12-06T09:47:44.912000+00:00</time>
      </trkpt>
      <trkpt lat="0" lon="0">
        <time>2020-12-06T09:47:44.920000+00:00</time>
      </trkpt>
      <trkpt lat="0" lon="0">
        <time>2020-12-06T09:47:44.922000+00:00</time>
      </trkpt>
      <trkpt lat="47.34512" lon="-1.3048">
        <ele>44</ele>
        <time>2020-12-06T09:47:45.904000+00:00</time>
      </trkpt>
      <trkpt lat="0" lon="0">
        <time>2020-12-06T09:47:45.915000+00:00</time>
      </trkpt>
      <trkpt lat="0" lon="0">
        <time>2020-12-06T09:47:45.920000+00:00</time>
      </trkpt>
      <trkpt lat="0" lon="0">
        <time>2020-12-06T09:47:45.924000+00:00</time>
      </trkpt>
      <trkpt lat="47.34511" lon="-1.30483">
        <ele>44</ele>
        <time>2020-12-06T09:47:46.907000+00:00</time>
      </trkpt>
      <trkpt lat="0" lon="0">
        <time>2020-12-06T09:47:46.917000+00:00</time>
      </trkpt>
      <trkpt lat="0" lon="0">
        <time>2020-12-06T09:47:46.921000+00:00</time>
      </trkpt>
      <trkpt lat="0" lon="0">
        <time>2020-12-06T09:47:46.923000+00:00</time>
      </trkpt>
      <trkpt lat="47.3451" lon="-1.30486">
        <ele>44</ele>
        <time>2020-12-06T09:47:47.898000+00:00</time>
      </trkpt>
      <trkpt lat="0" lon="0">
        <time>2020-12-06T09:47:47.913000+00:00</time>
      </trkpt>
      <trkpt lat="0" lon="0">
        <time>2020-12-06T09:47:47.920000+00:00</time>
      </trkpt>
      <trkpt lat="0" lon="0">
        <time>2020-12-06T09:47:47.924000+00:00</time>
      </trkpt>
      <trkpt lat="47.34509" lon="-1.30488">
        <ele>44</ele>
        <time>2020-12-06T09:47:48.904000+00:00</time>
      </trkpt>
      <trkpt lat="0" lon="0">
        <time>2020-12-06T09:47:48.916000+00:00</time>
      </trkpt>
      <trkpt lat="0" lon="0">
        <time>2020-12-06T09:47:48.920000+00:00</time>
      </trkpt>
      <trkpt lat="0" lon="0">
        <time>2020-12-06T09:47:48.922000+00:00</time>
      </trkpt>
      <trkpt lat="47.34507" lon="-1.30491">
        <ele>44</ele>
        <time>2020-12-06T09:47:49.867000+00:00</time>
      </trkpt>
      <trkpt lat="0" lon="0">
        <time>2020-12-06T09:47:49.885000+00:00</time>
      </trkpt>
      <trkpt lat="0" lon="0">
        <time>2020-12-06T09:47:49.889000+00:00</time>
      </trkpt>
      <trkpt lat="0" lon="0">
        <time>2020-12-06T09:47:49.893000+00:00</time>
      </trkpt>
      <trkpt lat="47.34505" lon="-1.30492">
        <ele>44</ele>
        <time>2020-12-06T09:47:50.877000+00:00</time>
      </trkpt>
      <trkpt lat="0" lon="0">
        <time>2020-12-06T09:47:50.888000+00:00</time>
      </trkpt>
      <trkpt lat="0" lon="0">
        <time>2020-12-06T09:47:50.895000+00:00</time>
      </trkpt>
      <trkpt lat="0" lon="0">
        <time>2020-12-06T09:47:50.897000+00:00</time>
      </trkpt>
      <trkpt lat="47.34504" lon="-1.30494">
        <ele>44</ele>
        <time>2020-12-06T09:47:51.898000+00:00</time>
      </trkpt>
      <trkpt lat="0" lon="0">
        <time>2020-12-06T09:47:51.909000+00:00</time>
      </trkpt>
      <trkpt lat="0" lon="0">
        <time>2020-12-06T09:47:51.913000+00:00</time>
      </trkpt>
      <trkpt lat="0" lon="0">
        <time>2020-12-06T09:47:51.915000+00:00</time>
      </trkpt>
      <trkpt lat="47.34502" lon="-1.30494">
        <ele>44</ele>
        <time>2020-12-06T09:47:52.887000+00:00</time>
      </trkpt>
      <trkpt lat="0" lon="0">
        <time>2020-12-06T09:47:52.905000+00:00</time>
      </trkpt>
      <trkpt lat="0" lon="0">
        <time>2020-12-06T09:47:52.908000+00:00</time>
      </trkpt>
      <trkpt lat="0" lon="0">
        <time>2020-12-06T09:47:52.910000+00:00</time>
      </trkpt>
      <trkpt lat="47.345" lon="-1.30494">
        <ele>44</ele>
        <time>2020-12-06T09:47:53.901000+00:00</time>
      </trkpt>
      <trkpt lat="0" lon="0">
        <time>2020-12-06T09:47:53.918000+00:00</time>
      </trkpt>
      <trkpt lat="0" lon="0">
        <time>2020-12-06T09:47:53.931000+00:00</time>
      </trkpt>
      <trkpt lat="0" lon="0">
        <time>2020-12-06T09:47:53.933000+00:00</time>
      </trkpt>
      <trkpt lat="47.34498" lon="-1.30494">
        <ele>44</ele>
        <time>2020-12-06T09:47:54.906000+00:00</time>
      </trkpt>
      <trkpt lat="0" lon="0">
        <time>2020-12-06T09:47:54.918000+00:00</time>
      </trkpt>
      <trkpt lat="0" lon="0">
        <time>2020-12-06T09:47:54.924000+00:00</time>
      </trkpt>
      <trkpt lat="0" lon="0">
        <time>2020-12-06T09:47:54.926000+00:00</time>
      </trkpt>
      <trkpt lat="47.34496" lon="-1.30493">
        <ele>44</ele>
        <time>2020-12-06T09:47:55.909000+00:00</time>
      </trkpt>
      <trkpt lat="0" lon="0">
        <time>2020-12-06T09:47:55.912000+00:00</time>
      </trkpt>
      <trkpt lat="0" lon="0">
        <time>2020-12-06T09:47:55.923000+00:00</time>
      </trkpt>
      <trkpt lat="0" lon="0">
        <time>2020-12-06T09:47:55.924000+00:00</time>
      </trkpt>
      <trkpt lat="47.34494" lon="-1.30491">
        <ele>44</ele>
        <time>2020-12-06T09:47:56.901000+00:00</time>
      </trkpt>
      <trkpt lat="0" lon="0">
        <time>2020-12-06T09:47:56.905000+00:00</time>
      </trkpt>
      <trkpt lat="0" lon="0">
        <time>2020-12-06T09:47:56.908000+00:00</time>
      </trkpt>
      <trkpt lat="0" lon="0">
        <time>2020-12-06T09:47:56.912000+00:00</time>
      </trkpt>
      <trkpt lat="47.34492" lon="-1.3049">
        <ele>44</ele>
        <time>2020-12-06T09:47:57.948000+00:00</time>
      </trkpt>
      <trkpt lat="0" lon="0">
        <time>2020-12-06T09:47:57.959000+00:00</time>
      </trkpt>
      <trkpt lat="0" lon="0">
        <time>2020-12-06T09:47:57.965000+00:00</time>
      </trkpt>
      <trkpt lat="0" lon="0">
        <time>2020-12-06T09:47:57.967000+00:00</time>
      </trkpt>
      <trkpt lat="47.3449" lon="-1.3049">
        <ele>44</ele>
        <time>2020-12-06T09:47:58.892000+00:00</time>
      </trkpt>
      <trkpt lat="0" lon="0">
        <time>2020-12-06T09:47:58.897000+00:00</time>
      </trkpt>
      <trkpt lat="0" lon="0">
        <time>2020-12-06T09:47:58.901000+00:00</time>
      </trkpt>
      <trkpt lat="0" lon="0">
        <time>2020-12-06T09:47:58.902000+00:00</time>
      </trkpt>
      <trkpt lat="47.34488" lon="-1.30489">
        <ele>44</ele>
        <time>2020-12-06T09:47:59.860000+00:00</time>
      </trkpt>
      <trkpt lat="0" lon="0">
        <time>2020-12-06T09:47:59.871000+00:00</time>
      </trkpt>
      <trkpt lat="0" lon="0">
        <time>2020-12-06T09:47:59.874000+00:00</time>
      </trkpt>
      <trkpt lat="0" lon="0">
        <time>2020-12-06T09:47:59.875000+00:00</time>
      </trkpt>
      <trkpt lat="47.34486" lon="-1.3049">
        <ele>44</ele>
        <time>2020-12-06T09:48:00.868000+00:00</time>
      </trkpt>
      <trkpt lat="0" lon="0">
        <time>2020-12-06T09:48:00.871000+00:00</time>
      </trkpt>
      <trkpt lat="0" lon="0">
        <time>2020-12-06T09:48:00.878000+00:00</time>
      </trkpt>
      <trkpt lat="0" lon="0">
        <time>2020-12-06T09:48:00.881000+00:00</time>
      </trkpt>
      <trkpt lat="47.34484" lon="-1.30491">
        <ele>44</ele>
        <time>2020-12-06T09:48:01.880000+00:00</time>
      </trkpt>
      <trkpt lat="0" lon="0">
        <time>2020-12-06T09:48:01.886000+00:00</time>
      </trkpt>
      <trkpt lat="0" lon="0">
        <time>2020-12-06T09:48:01.890000+00:00</time>
      </trkpt>
      <trkpt lat="0" lon="0">
        <time>2020-12-06T09:48:01.892000+00:00</time>
      </trkpt>
      <trkpt lat="47.34482" lon="-1.30493">
        <ele>44</ele>
        <time>2020-12-06T09:48:02.860000+00:00</time>
      </trkpt>
      <trkpt lat="0" lon="0">
        <time>2020-12-06T09:48:02.863000+00:00</time>
      </trkpt>
      <trkpt lat="0" lon="0">
        <time>2020-12-06T09:48:02.874000+00:00</time>
      </trkpt>
      <trkpt lat="0" lon="0">
        <time>2020-12-06T09:48:02.879000+00:00</time>
      </trkpt>
      <trkpt lat="47.34481" lon="-1.30496">
        <ele>43</ele>
        <time>2020-12-06T09:48:03.888000+00:00</time>
      </trkpt>
      <trkpt lat="0" lon="0">
        <time>2020-12-06T09:48:03.904000+00:00</time>
      </trkpt>
      <trkpt lat="0" lon="0">
        <time>2020-12-06T09:48:03.915000+00:00</time>
      </trkpt>
      <trkpt lat="0" lon="0">
        <time>2020-12-06T09:48:03.917000+00:00</time>
      </trkpt>
      <trkpt lat="47.34479" lon="-1.30498">
        <ele>43</ele>
        <time>2020-12-06T09:48:04.888000+00:00</time>
      </trkpt>
      <trkpt lat="0" lon="0">
        <time>2020-12-06T09:48:04.900000+00:00</time>
      </trkpt>
      <trkpt lat="0" lon="0">
        <time>2020-12-06T09:48:04.912000+00:00</time>
      </trkpt>
      <trkpt lat="0" lon="0">
        <time>2020-12-06T09:48:04.914000+00:00</time>
      </trkpt>
      <trkpt lat="47.34478" lon="-1.30501">
        <ele>43</ele>
        <time>2020-12-06T09:48:05.913000+00:00</time>
      </trkpt>
      <trkpt lat="0" lon="0">
        <time>2020-12-06T09:48:05.919000+00:00</time>
      </trkpt>
      <trkpt lat="0" lon="0">
        <time>2020-12-06T09:48:05.928000+00:00</time>
      </trkpt>
      <trkpt lat="0" lon="0">
        <time>2020-12-06T09:48:05.931000+00:00</time>
      </trkpt>
      <trkpt lat="47.34476" lon="-1.30504">
        <ele>43</ele>
        <time>2020-12-06T09:48:06.902000+00:00</time>
      </trkpt>
      <trkpt lat="0" lon="0">
        <time>2020-12-06T09:48:06.906000+00:00</time>
      </trkpt>
      <trkpt lat="0" lon="0">
        <time>2020-12-06T09:48:06.911000+00:00</time>
      </trkpt>
      <trkpt lat="0" lon="0">
        <time>2020-12-06T09:48:06.914000+00:00</time>
      </trkpt>
      <trkpt lat="47.34475" lon="-1.30507">
        <ele>43</ele>
        <time>2020-12-06T09:48:07.913000+00:00</time>
      </trkpt>
      <trkpt lat="0" lon="0">
        <time>2020-12-06T09:48:07.917000+00:00</time>
      </trkpt>
      <trkpt lat="0" lon="0">
        <time>2020-12-06T09:48:07.924000+00:00</time>
      </trkpt>
      <trkpt lat="0" lon="0">
        <time>2020-12-06T09:48:07.926000+00:00</time>
      </trkpt>
      <trkpt lat="47.34473" lon="-1.3051">
        <ele>43</ele>
        <time>2020-12-06T09:48:08.895000+00:00</time>
      </trkpt>
      <trkpt lat="0" lon="0">
        <time>2020-12-06T09:48:08.904000+00:00</time>
      </trkpt>
      <trkpt lat="0" lon="0">
        <time>2020-12-06T09:48:08.907000+00:00</time>
      </trkpt>
      <trkpt lat="0" lon="0">
        <time>2020-12-06T09:48:08.911000+00:00</time>
      </trkpt>
      <trkpt lat="47.34472" lon="-1.30513">
        <ele>43</ele>
        <time>2020-12-06T09:48:09.900000+00:00</time>
      </trkpt>
      <trkpt lat="0" lon="0">
        <time>2020-12-06T09:48:09.913000+00:00</time>
      </trkpt>
      <trkpt lat="0" lon="0">
        <time>2020-12-06T09:48:09.916000+00:00</time>
      </trkpt>
      <trkpt lat="0" lon="0">
        <time>2020-12-06T09:48:09.918000+00:00</time>
      </trkpt>
      <trkpt lat="47.3447" lon="-1.30516">
        <ele>43</ele>
        <time>2020-12-06T09:48:10.896000+00:00</time>
      </trkpt>
      <trkpt lat="0" lon="0">
        <time>2020-12-06T09:48:10.899000+00:00</time>
      </trkpt>
      <trkpt lat="0" lon="0">
        <time>2020-12-06T09:48:10.902000+00:00</time>
      </trkpt>
      <trkpt lat="0" lon="0">
        <time>2020-12-06T09:48:10.910000+00:00</time>
      </trkpt>
      <trkpt lat="47.34469" lon="-1.3052">
        <ele>43</ele>
        <time>2020-12-06T09:48:11.902000+00:00</time>
      </trkpt>
      <trkpt lat="0" lon="0">
        <time>2020-12-06T09:48:11.914000+00:00</time>
      </trkpt>
      <trkpt lat="0" lon="0">
        <time>2020-12-06T09:48:11.917000+00:00</time>
      </trkpt>
      <trkpt lat="0" lon="0">
        <time>2020-12-06T09:48:11.924000+00:00</time>
      </trkpt>
      <trkpt lat="47.34467" lon="-1.30524">
        <ele>43</ele>
        <time>2020-12-06T09:48:12.925000+00:00</time>
      </trkpt>
      <trkpt lat="0" lon="0">
        <time>2020-12-06T09:48:12.945000+00:00</time>
      </trkpt>
      <trkpt lat="0" lon="0">
        <time>2020-12-06T09:48:12.952000+00:00</time>
      </trkpt>
      <trkpt lat="0" lon="0">
        <time>2020-12-06T09:48:12.954000+00:00</time>
      </trkpt>
      <trkpt lat="47.34466" lon="-1.30528">
        <ele>43</ele>
        <time>2020-12-06T09:48:13.907000+00:00</time>
      </trkpt>
      <trkpt lat="0" lon="0">
        <time>2020-12-06T09:48:13.918000+00:00</time>
      </trkpt>
      <trkpt lat="0" lon="0">
        <time>2020-12-06T09:48:13.927000+00:00</time>
      </trkpt>
      <trkpt lat="0" lon="0">
        <time>2020-12-06T09:48:13.931000+00:00</time>
      </trkpt>
      <trkpt lat="47.34465" lon="-1.30533">
        <ele>43</ele>
        <time>2020-12-06T09:48:14.883000+00:00</time>
      </trkpt>
      <trkpt lat="0" lon="0">
        <time>2020-12-06T09:48:14.890000+00:00</time>
      </trkpt>
      <trkpt lat="0" lon="0">
        <time>2020-12-06T09:48:14.894000+00:00</time>
      </trkpt>
      <trkpt lat="0" lon="0">
        <time>2020-12-06T09:48:14.895000+00:00</time>
      </trkpt>
      <trkpt lat="47.34464" lon="-1.30538">
        <ele>43</ele>
        <time>2020-12-06T09:48:15.896000+00:00</time>
      </trkpt>
      <trkpt lat="0" lon="0">
        <time>2020-12-06T09:48:15.911000+00:00</time>
      </trkpt>
      <trkpt lat="0" lon="0">
        <time>2020-12-06T09:48:15.918000+00:00</time>
      </trkpt>
      <trkpt lat="0" lon="0">
        <time>2020-12-06T09:48:15.920000+00:00</time>
      </trkpt>
      <trkpt lat="47.34463" lon="-1.30543">
        <ele>43</ele>
        <time>2020-12-06T09:48:16.900000+00:00</time>
      </trkpt>
      <trkpt lat="0" lon="0">
        <time>2020-12-06T09:48:16.904000+00:00</time>
      </trkpt>
      <trkpt lat="0" lon="0">
        <time>2020-12-06T09:48:16.908000+00:00</time>
      </trkpt>
      <trkpt lat="0" lon="0">
        <time>2020-12-06T09:48:16.914000+00:00</time>
      </trkpt>
      <trkpt lat="47.34462" lon="-1.30548">
        <ele>44</ele>
        <time>2020-12-06T09:48:17.911000+00:00</time>
      </trkpt>
      <trkpt lat="0" lon="0">
        <time>2020-12-06T09:48:17.921000+00:00</time>
      </trkpt>
      <trkpt lat="0" lon="0">
        <time>2020-12-06T09:48:17.929000+00:00</time>
      </trkpt>
      <trkpt lat="0" lon="0">
        <time>2020-12-06T09:48:17.940000+00:00</time>
      </trkpt>
      <trkpt lat="47.34462" lon="-1.30553">
        <ele>44</ele>
        <time>2020-12-06T09:48:18.926000+00:00</time>
      </trkpt>
      <trkpt lat="0" lon="0">
        <time>2020-12-06T09:48:18.947000+00:00</time>
      </trkpt>
      <trkpt lat="0" lon="0">
        <time>2020-12-06T09:48:18.958000+00:00</time>
      </trkpt>
      <trkpt lat="0" lon="0">
        <time>2020-12-06T09:48:18.963000+00:00</time>
      </trkpt>
      <trkpt lat="47.34461" lon="-1.30559">
        <ele>44</ele>
        <time>2020-12-06T09:48:19.896000+00:00</time>
      </trkpt>
      <trkpt lat="0" lon="0">
        <time>2020-12-06T09:48:19.899000+00:00</time>
      </trkpt>
      <trkpt lat="0" lon="0">
        <time>2020-12-06T09:48:19.904000+00:00</time>
      </trkpt>
      <trkpt lat="0" lon="0">
        <time>2020-12-06T09:48:19.906000+00:00</time>
      </trkpt>
      <trkpt lat="47.34461" lon="-1.30565">
        <ele>44</ele>
        <time>2020-12-06T09:48:20.882000+00:00</time>
      </trkpt>
      <trkpt lat="0" lon="0">
        <time>2020-12-06T09:48:20.885000+00:00</time>
      </trkpt>
      <trkpt lat="0" lon="0">
        <time>2020-12-06T09:48:20.893000+00:00</time>
      </trkpt>
      <trkpt lat="0" lon="0">
        <time>2020-12-06T09:48:20.898000+00:00</time>
      </trkpt>
      <trkpt lat="47.34461" lon="-1.30571">
        <ele>44</ele>
        <time>2020-12-06T09:48:21.864000+00:00</time>
      </trkpt>
      <trkpt lat="0" lon="0">
        <time>2020-12-06T09:48:21.880000+00:00</time>
      </trkpt>
      <trkpt lat="0" lon="0">
        <time>2020-12-06T09:48:21.887000+00:00</time>
      </trkpt>
      <trkpt lat="0" lon="0">
        <time>2020-12-06T09:48:21.893000+00:00</time>
      </trkpt>
      <trkpt lat="47.3446" lon="-1.30577">
        <ele>44</ele>
        <time>2020-12-06T09:48:22.885000+00:00</time>
      </trkpt>
      <trkpt lat="0" lon="0">
        <time>2020-12-06T09:48:22.890000+00:00</time>
      </trkpt>
      <trkpt lat="0" lon="0">
        <time>2020-12-06T09:48:22.894000+00:00</time>
      </trkpt>
      <trkpt lat="0" lon="0">
        <time>2020-12-06T09:48:22.896000+00:00</time>
      </trkpt>
      <trkpt lat="47.3446" lon="-1.30582">
        <ele>44</ele>
        <time>2020-12-06T09:48:23.896000+00:00</time>
      </trkpt>
      <trkpt lat="0" lon="0">
        <time>2020-12-06T09:48:23.906000+00:00</time>
      </trkpt>
      <trkpt lat="0" lon="0">
        <time>2020-12-06T09:48:23.913000+00:00</time>
      </trkpt>
      <trkpt lat="0" lon="0">
        <time>2020-12-06T09:48:23.915000+00:00</time>
      </trkpt>
      <trkpt lat="47.34459" lon="-1.30588">
        <ele>44</ele>
        <time>2020-12-06T09:48:24.913000+00:00</time>
      </trkpt>
      <trkpt lat="0" lon="0">
        <time>2020-12-06T09:48:24.918000+00:00</time>
      </trkpt>
      <trkpt lat="0" lon="0">
        <time>2020-12-06T09:48:24.922000+00:00</time>
      </trkpt>
      <trkpt lat="0" lon="0">
        <time>2020-12-06T09:48:24.924000+00:00</time>
      </trkpt>
      <trkpt lat="47.34459" lon="-1.30594">
        <ele>44</ele>
        <time>2020-12-06T09:48:25.904000+00:00</time>
      </trkpt>
      <trkpt lat="0" lon="0">
        <time>2020-12-06T09:48:25.907000+00:00</time>
      </trkpt>
      <trkpt lat="0" lon="0">
        <time>2020-12-06T09:48:25.922000+00:00</time>
      </trkpt>
      <trkpt lat="0" lon="0">
        <time>2020-12-06T09:48:25.923000+00:00</time>
      </trkpt>
      <trkpt lat="47.34458" lon="-1.30599">
        <ele>45</ele>
        <time>2020-12-06T09:48:26.929000+00:00</time>
      </trkpt>
      <trkpt lat="0" lon="0">
        <time>2020-12-06T09:48:26.938000+00:00</time>
      </trkpt>
      <trkpt lat="0" lon="0">
        <time>2020-12-06T09:48:26.941000+00:00</time>
      </trkpt>
      <trkpt lat="0" lon="0">
        <time>2020-12-06T09:48:26.943000+00:00</time>
      </trkpt>
      <trkpt lat="47.34458" lon="-1.30605">
        <ele>45</ele>
        <time>2020-12-06T09:48:27.907000+00:00</time>
      </trkpt>
      <trkpt lat="0" lon="0">
        <time>2020-12-06T09:48:27.915000+00:00</time>
      </trkpt>
      <trkpt lat="0" lon="0">
        <time>2020-12-06T09:48:27.919000+00:00</time>
      </trkpt>
      <trkpt lat="0" lon="0">
        <time>2020-12-06T09:48:27.922000+00:00</time>
      </trkpt>
      <trkpt lat="47.34457" lon="-1.3061">
        <ele>45</ele>
        <time>2020-12-06T09:48:28.942000+00:00</time>
      </trkpt>
      <trkpt lat="0" lon="0">
        <time>2020-12-06T09:48:28.944000+00:00</time>
      </trkpt>
      <trkpt lat="0" lon="0">
        <time>2020-12-06T09:48:28.952000+00:00</time>
      </trkpt>
      <trkpt lat="0" lon="0">
        <time>2020-12-06T09:48:28.956000+00:00</time>
      </trkpt>
      <trkpt lat="47.34457" lon="-1.30615">
        <ele>45</ele>
        <time>2020-12-06T09:48:29.923000+00:00</time>
      </trkpt>
      <trkpt lat="0" lon="0">
        <time>2020-12-06T09:48:29.929000+00:00</time>
      </trkpt>
      <trkpt lat="0" lon="0">
        <time>2020-12-06T09:48:29.937000+00:00</time>
      </trkpt>
      <trkpt lat="0" lon="0">
        <time>2020-12-06T09:48:29.939000+00:00</time>
      </trkpt>
      <trkpt lat="47.34456" lon="-1.3062">
        <ele>45</ele>
        <time>2020-12-06T09:48:30.907000+00:00</time>
      </trkpt>
      <trkpt lat="0" lon="0">
        <time>2020-12-06T09:48:30.928000+00:00</time>
      </trkpt>
      <trkpt lat="0" lon="0">
        <time>2020-12-06T09:48:30.933000+00:00</time>
      </trkpt>
      <trkpt lat="0" lon="0">
        <time>2020-12-06T09:48:30.937000+00:00</time>
      </trkpt>
      <trkpt lat="47.34455" lon="-1.30625">
        <ele>45</ele>
        <time>2020-12-06T09:48:31.928000+00:00</time>
      </trkpt>
      <trkpt lat="0" lon="0">
        <time>2020-12-06T09:48:31.941000+00:00</time>
      </trkpt>
      <trkpt lat="0" lon="0">
        <time>2020-12-06T09:48:31.947000+00:00</time>
      </trkpt>
      <trkpt lat="0" lon="0">
        <time>2020-12-06T09:48:31.949000+00:00</time>
      </trkpt>
      <trkpt lat="47.34455" lon="-1.3063">
        <ele>46</ele>
        <time>2020-12-06T09:48:32.900000+00:00</time>
      </trkpt>
      <trkpt lat="0" lon="0">
        <time>2020-12-06T09:48:32.912000+00:00</time>
      </trkpt>
      <trkpt lat="0" lon="0">
        <time>2020-12-06T09:48:32.915000+00:00</time>
      </trkpt>
      <trkpt lat="0" lon="0">
        <time>2020-12-06T09:48:32.920000+00:00</time>
      </trkpt>
      <trkpt lat="47.34454" lon="-1.30634">
        <ele>46</ele>
        <time>2020-12-06T09:48:33.864000+00:00</time>
      </trkpt>
      <trkpt lat="0" lon="0">
        <time>2020-12-06T09:48:33.867000+00:00</time>
      </trkpt>
      <trkpt lat="0" lon="0">
        <time>2020-12-06T09:48:33.871000+00:00</time>
      </trkpt>
      <trkpt lat="0" lon="0">
        <time>2020-12-06T09:48:33.873000+00:00</time>
      </trkpt>
      <trkpt lat="47.34453" lon="-1.30639">
        <ele>46</ele>
        <time>2020-12-06T09:48:34.914000+00:00</time>
      </trkpt>
      <trkpt lat="0" lon="0">
        <time>2020-12-06T09:48:34.924000+00:00</time>
      </trkpt>
      <trkpt lat="0" lon="0">
        <time>2020-12-06T09:48:34.928000+00:00</time>
      </trkpt>
      <trkpt lat="0" lon="0">
        <time>2020-12-06T09:48:34.930000+00:00</time>
      </trkpt>
      <trkpt lat="47.34453" lon="-1.30643">
        <ele>46</ele>
        <time>2020-12-06T09:48:35.889000+00:00</time>
      </trkpt>
      <trkpt lat="0" lon="0">
        <time>2020-12-06T09:48:35.893000+00:00</time>
      </trkpt>
      <trkpt lat="0" lon="0">
        <time>2020-12-06T09:48:35.902000+00:00</time>
      </trkpt>
      <trkpt lat="0" lon="0">
        <time>2020-12-06T09:48:35.904000+00:00</time>
      </trkpt>
      <trkpt lat="47.34452" lon="-1.30648">
        <ele>46</ele>
        <time>2020-12-06T09:48:36.876000+00:00</time>
      </trkpt>
      <trkpt lat="0" lon="0">
        <time>2020-12-06T09:48:36.880000+00:00</time>
      </trkpt>
      <trkpt lat="0" lon="0">
        <time>2020-12-06T09:48:36.888000+00:00</time>
      </trkpt>
      <trkpt lat="0" lon="0">
        <time>2020-12-06T09:48:36.890000+00:00</time>
      </trkpt>
      <trkpt lat="47.34451" lon="-1.30652">
        <ele>46</ele>
        <time>2020-12-06T09:48:37.866000+00:00</time>
      </trkpt>
      <trkpt lat="0" lon="0">
        <time>2020-12-06T09:48:37.867000+00:00</time>
      </trkpt>
      <trkpt lat="0" lon="0">
        <time>2020-12-06T09:48:37.872000+00:00</time>
      </trkpt>
      <trkpt lat="0" lon="0">
        <time>2020-12-06T09:48:37.875000+00:00</time>
      </trkpt>
      <trkpt lat="47.3445" lon="-1.30657">
        <ele>47</ele>
        <time>2020-12-06T09:48:38.878000+00:00</time>
      </trkpt>
      <trkpt lat="0" lon="0">
        <time>2020-12-06T09:48:38.884000+00:00</time>
      </trkpt>
      <trkpt lat="0" lon="0">
        <time>2020-12-06T09:48:38.887000+00:00</time>
      </trkpt>
      <trkpt lat="0" lon="0">
        <time>2020-12-06T09:48:38.889000+00:00</time>
      </trkpt>
      <trkpt lat="47.34449" lon="-1.30661">
        <ele>47</ele>
        <time>2020-12-06T09:48:39.904000+00:00</time>
      </trkpt>
      <trkpt lat="0" lon="0">
        <time>2020-12-06T09:48:39.918000+00:00</time>
      </trkpt>
      <trkpt lat="0" lon="0">
        <time>2020-12-06T09:48:39.922000+00:00</time>
      </trkpt>
      <trkpt lat="0" lon="0">
        <time>2020-12-06T09:48:39.924000+00:00</time>
      </trkpt>
      <trkpt lat="47.34448" lon="-1.30666">
        <ele>47</ele>
        <time>2020-12-06T09:48:40.922000+00:00</time>
      </trkpt>
      <trkpt lat="0" lon="0">
        <time>2020-12-06T09:48:40.927000+00:00</time>
      </trkpt>
      <trkpt lat="0" lon="0">
        <time>2020-12-06T09:48:40.931000+00:00</time>
      </trkpt>
      <trkpt lat="0" lon="0">
        <time>2020-12-06T09:48:40.933000+00:00</time>
      </trkpt>
      <trkpt lat="47.34447" lon="-1.3067">
        <ele>47</ele>
        <time>2020-12-06T09:48:41.918000+00:00</time>
      </trkpt>
      <trkpt lat="0" lon="0">
        <time>2020-12-06T09:48:41.925000+00:00</time>
      </trkpt>
      <trkpt lat="0" lon="0">
        <time>2020-12-06T09:48:41.936000+00:00</time>
      </trkpt>
      <trkpt lat="0" lon="0">
        <time>2020-12-06T09:48:41.938000+00:00</time>
      </trkpt>
      <trkpt lat="47.34446" lon="-1.30675">
        <ele>47</ele>
        <time>2020-12-06T09:48:42.908000+00:00</time>
      </trkpt>
      <trkpt lat="0" lon="0">
        <time>2020-12-06T09:48:42.918000+00:00</time>
      </trkpt>
      <trkpt lat="0" lon="0">
        <time>2020-12-06T09:48:42.921000+00:00</time>
      </trkpt>
      <trkpt lat="0" lon="0">
        <time>2020-12-06T09:48:42.926000+00:00</time>
      </trkpt>
      <trkpt lat="47.34445" lon="-1.30679">
        <ele>47</ele>
        <time>2020-12-06T09:48:43.860000+00:00</time>
      </trkpt>
      <trkpt lat="0" lon="0">
        <time>2020-12-06T09:48:43.864000+00:00</time>
      </trkpt>
      <trkpt lat="0" lon="0">
        <time>2020-12-06T09:48:43.875000+00:00</time>
      </trkpt>
      <trkpt lat="0" lon="0">
        <time>2020-12-06T09:48:43.877000+00:00</time>
      </trkpt>
      <trkpt lat="47.34444" lon="-1.30683">
        <ele>48</ele>
        <time>2020-12-06T09:48:44.884000+00:00</time>
      </trkpt>
      <trkpt lat="0" lon="0">
        <time>2020-12-06T09:48:44.888000+00:00</time>
      </trkpt>
      <trkpt lat="0" lon="0">
        <time>2020-12-06T09:48:44.898000+00:00</time>
      </trkpt>
      <trkpt lat="0" lon="0">
        <time>2020-12-06T09:48:44.901000+00:00</time>
      </trkpt>
      <trkpt lat="47.34442" lon="-1.30688">
        <ele>48</ele>
        <time>2020-12-06T09:48:45.873000+00:00</time>
      </trkpt>
      <trkpt lat="0" lon="0">
        <time>2020-12-06T09:48:45.876000+00:00</time>
      </trkpt>
      <trkpt lat="0" lon="0">
        <time>2020-12-06T09:48:45.882000+00:00</time>
      </trkpt>
      <trkpt lat="0" lon="0">
        <time>2020-12-06T09:48:45.885000+00:00</time>
      </trkpt>
      <trkpt lat="47.34441" lon="-1.30692">
        <ele>48</ele>
        <time>2020-12-06T09:48:46.905000+00:00</time>
      </trkpt>
      <trkpt lat="0" lon="0">
        <time>2020-12-06T09:48:46.916000+00:00</time>
      </trkpt>
      <trkpt lat="0" lon="0">
        <time>2020-12-06T09:48:46.924000+00:00</time>
      </trkpt>
      <trkpt lat="0" lon="0">
        <time>2020-12-06T09:48:46.925000+00:00</time>
      </trkpt>
      <trkpt lat="47.34439" lon="-1.30696">
        <ele>48</ele>
        <time>2020-12-06T09:48:47.908000+00:00</time>
      </trkpt>
      <trkpt lat="0" lon="0">
        <time>2020-12-06T09:48:47.911000+00:00</time>
      </trkpt>
      <trkpt lat="0" lon="0">
        <time>2020-12-06T09:48:47.922000+00:00</time>
      </trkpt>
      <trkpt lat="0" lon="0">
        <time>2020-12-06T09:48:47.925000+00:00</time>
      </trkpt>
      <trkpt lat="47.34438" lon="-1.30699">
        <ele>48</ele>
        <time>2020-12-06T09:48:48.900000+00:00</time>
      </trkpt>
      <trkpt lat="0" lon="0">
        <time>2020-12-06T09:48:48.903000+00:00</time>
      </trkpt>
      <trkpt lat="0" lon="0">
        <time>2020-12-06T09:48:48.911000+00:00</time>
      </trkpt>
      <trkpt lat="0" lon="0">
        <time>2020-12-06T09:48:48.919000+00:00</time>
      </trkpt>
      <trkpt lat="47.34436" lon="-1.30702">
        <ele>48</ele>
        <time>2020-12-06T09:48:49.868000+00:00</time>
      </trkpt>
      <trkpt lat="0" lon="0">
        <time>2020-12-06T09:48:49.871000+00:00</time>
      </trkpt>
      <trkpt lat="0" lon="0">
        <time>2020-12-06T09:48:49.873000+00:00</time>
      </trkpt>
      <trkpt lat="0" lon="0">
        <time>2020-12-06T09:48:49.874000+00:00</time>
      </trkpt>
      <trkpt lat="47.34433" lon="-1.30705">
        <ele>48</ele>
        <time>2020-12-06T09:48:50.906000+00:00</time>
      </trkpt>
      <trkpt lat="0" lon="0">
        <time>2020-12-06T09:48:50.909000+00:00</time>
      </trkpt>
      <trkpt lat="0" lon="0">
        <time>2020-12-06T09:48:50.916000+00:00</time>
      </trkpt>
      <trkpt lat="0" lon="0">
        <time>2020-12-06T09:48:50.918000+00:00</time>
      </trkpt>
      <trkpt lat="47.3443" lon="-1.30707">
        <ele>49</ele>
        <time>2020-12-06T09:48:51.898000+00:00</time>
      </trkpt>
      <trkpt lat="0" lon="0">
        <time>2020-12-06T09:48:51.905000+00:00</time>
      </trkpt>
      <trkpt lat="0" lon="0">
        <time>2020-12-06T09:48:51.909000+00:00</time>
      </trkpt>
      <trkpt lat="0" lon="0">
        <time>2020-12-06T09:48:51.914000+00:00</time>
      </trkpt>
      <trkpt lat="47.34428" lon="-1.30708">
        <ele>49</ele>
        <time>2020-12-06T09:48:52.836000+00:00</time>
      </trkpt>
      <trkpt lat="0" lon="0">
        <time>2020-12-06T09:48:52.844000+00:00</time>
      </trkpt>
      <trkpt lat="0" lon="0">
        <time>2020-12-06T09:48:52.854000+00:00</time>
      </trkpt>
      <trkpt lat="0" lon="0">
        <time>2020-12-06T09:48:52.858000+00:00</time>
      </trkpt>
      <trkpt lat="47.34424" lon="-1.30708">
        <ele>49</ele>
        <time>2020-12-06T09:48:53.823000+00:00</time>
      </trkpt>
      <trkpt lat="0" lon="0">
        <time>2020-12-06T09:48:53.834000+00:00</time>
      </trkpt>
      <trkpt lat="0" lon="0">
        <time>2020-12-06T09:48:53.843000+00:00</time>
      </trkpt>
      <trkpt lat="0" lon="0">
        <time>2020-12-06T09:48:53.853000+00:00</time>
      </trkpt>
      <trkpt lat="47.34421" lon="-1.30706">
        <ele>48</ele>
        <time>2020-12-06T09:48:54.837000+00:00</time>
      </trkpt>
      <trkpt lat="0" lon="0">
        <time>2020-12-06T09:48:54.855000+00:00</time>
      </trkpt>
      <trkpt lat="0" lon="0">
        <time>2020-12-06T09:48:54.858000+00:00</time>
      </trkpt>
      <trkpt lat="0" lon="0">
        <time>2020-12-06T09:48:54.859000+00:00</time>
      </trkpt>
      <trkpt lat="47.34418" lon="-1.30704">
        <ele>48</ele>
        <time>2020-12-06T09:48:55.888000+00:00</time>
      </trkpt>
      <trkpt lat="0" lon="0">
        <time>2020-12-06T09:48:55.898000+00:00</time>
      </trkpt>
      <trkpt lat="0" lon="0">
        <time>2020-12-06T09:48:55.909000+00:00</time>
      </trkpt>
      <trkpt lat="0" lon="0">
        <time>2020-12-06T09:48:55.913000+00:00</time>
      </trkpt>
      <trkpt lat="47.34414" lon="-1.30701">
        <ele>48</ele>
        <time>2020-12-06T09:48:56.913000+00:00</time>
      </trkpt>
      <trkpt lat="0" lon="0">
        <time>2020-12-06T09:48:56.927000+00:00</time>
      </trkpt>
      <trkpt lat="0" lon="0">
        <time>2020-12-06T09:48:56.933000+00:00</time>
      </trkpt>
      <trkpt lat="0" lon="0">
        <time>2020-12-06T09:48:56.936000+00:00</time>
      </trkpt>
      <trkpt lat="47.3441" lon="-1.30698">
        <ele>47</ele>
        <time>2020-12-06T09:48:57.904000+00:00</time>
      </trkpt>
      <trkpt lat="0" lon="0">
        <time>2020-12-06T09:48:57.925000+00:00</time>
      </trkpt>
      <trkpt lat="0" lon="0">
        <time>2020-12-06T09:48:57.929000+00:00</time>
      </trkpt>
      <trkpt lat="0" lon="0">
        <time>2020-12-06T09:48:57.931000+00:00</time>
      </trkpt>
      <trkpt lat="47.34406" lon="-1.30695">
        <ele>47</ele>
        <time>2020-12-06T09:48:58.839000+00:00</time>
      </trkpt>
      <trkpt lat="0" lon="0">
        <time>2020-12-06T09:48:58.840000+00:00</time>
      </trkpt>
      <trkpt lat="0" lon="0">
        <time>2020-12-06T09:48:58.841000+00:00</time>
      </trkpt>
      <trkpt lat="47.34402" lon="-1.30691">
        <ele>46</ele>
        <time>2020-12-06T09:48:59.878000+00:00</time>
      </trkpt>
      <trkpt lat="0" lon="0">
        <time>2020-12-06T09:48:59.888000+00:00</time>
      </trkpt>
      <trkpt lat="0" lon="0">
        <time>2020-12-06T09:48:59.891000+00:00</time>
      </trkpt>
      <trkpt lat="0" lon="0">
        <time>2020-12-06T09:48:59.893000+00:00</time>
      </trkpt>
      <trkpt lat="47.34398" lon="-1.30688">
        <ele>46</ele>
        <time>2020-12-06T09:49:00.857000+00:00</time>
      </trkpt>
      <trkpt lat="0" lon="0">
        <time>2020-12-06T09:49:00.871000+00:00</time>
      </trkpt>
      <trkpt lat="0" lon="0">
        <time>2020-12-06T09:49:00.873000+00:00</time>
      </trkpt>
      <trkpt lat="0" lon="0">
        <time>2020-12-06T09:49:00.876000+00:00</time>
      </trkpt>
      <trkpt lat="47.34393" lon="-1.30684">
        <ele>45</ele>
        <time>2020-12-06T09:49:01.903000+00:00</time>
      </trkpt>
      <trkpt lat="0" lon="0">
        <time>2020-12-06T09:49:01.910000+00:00</time>
      </trkpt>
      <trkpt lat="0" lon="0">
        <time>2020-12-06T09:49:01.922000+00:00</time>
      </trkpt>
      <trkpt lat="0" lon="0">
        <time>2020-12-06T09:49:01.924000+00:00</time>
      </trkpt>
      <trkpt lat="47.34389" lon="-1.30681">
        <ele>44</ele>
        <time>2020-12-06T09:49:02.892000+00:00</time>
      </trkpt>
      <trkpt lat="0" lon="0">
        <time>2020-12-06T09:49:02.910000+00:00</time>
      </trkpt>
      <trkpt lat="0" lon="0">
        <time>2020-12-06T09:49:02.912000+00:00</time>
      </trkpt>
      <trkpt lat="0" lon="0">
        <time>2020-12-06T09:49:02.913000+00:00</time>
      </trkpt>
      <trkpt lat="47.34384" lon="-1.30679">
        <ele>44</ele>
        <time>2020-12-06T09:49:03.897000+00:00</time>
      </trkpt>
      <trkpt lat="0" lon="0">
        <time>2020-12-06T09:49:03.912000+00:00</time>
      </trkpt>
      <trkpt lat="0" lon="0">
        <time>2020-12-06T09:49:03.916000+00:00</time>
      </trkpt>
      <trkpt lat="0" lon="0">
        <time>2020-12-06T09:49:03.919000+00:00</time>
      </trkpt>
      <trkpt lat="47.3438" lon="-1.30678">
        <ele>43</ele>
        <time>2020-12-06T09:49:04.932000+00:00</time>
      </trkpt>
      <trkpt lat="0" lon="0">
        <time>2020-12-06T09:49:04.938000+00:00</time>
      </trkpt>
      <trkpt lat="0" lon="0">
        <time>2020-12-06T09:49:04.943000+00:00</time>
      </trkpt>
      <trkpt lat="0" lon="0">
        <time>2020-12-06T09:49:04.944000+00:00</time>
      </trkpt>
      <trkpt lat="47.34377" lon="-1.30679">
        <ele>43</ele>
        <time>2020-12-06T09:49:05.879000+00:00</time>
      </trkpt>
      <trkpt lat="0" lon="0">
        <time>2020-12-06T09:49:05.896000+00:00</time>
      </trkpt>
      <trkpt lat="0" lon="0">
        <time>2020-12-06T09:49:05.902000+00:00</time>
      </trkpt>
      <trkpt lat="0" lon="0">
        <time>2020-12-06T09:49:05.906000+00:00</time>
      </trkpt>
      <trkpt lat="47.34374" lon="-1.30681">
        <ele>43</ele>
        <time>2020-12-06T09:49:06.879000+00:00</time>
      </trkpt>
      <trkpt lat="0" lon="0">
        <time>2020-12-06T09:49:06.890000+00:00</time>
      </trkpt>
      <trkpt lat="0" lon="0">
        <time>2020-12-06T09:49:06.894000+00:00</time>
      </trkpt>
      <trkpt lat="0" lon="0">
        <time>2020-12-06T09:49:06.896000+00:00</time>
      </trkpt>
      <trkpt lat="47.34371" lon="-1.30684">
        <ele>43</ele>
        <time>2020-12-06T09:49:07.891000+00:00</time>
      </trkpt>
      <trkpt lat="0" lon="0">
        <time>2020-12-06T09:49:07.903000+00:00</time>
      </trkpt>
      <trkpt lat="0" lon="0">
        <time>2020-12-06T09:49:07.910000+00:00</time>
      </trkpt>
      <trkpt lat="0" lon="0">
        <time>2020-12-06T09:49:07.921000+00:00</time>
      </trkpt>
      <trkpt lat="47.34369" lon="-1.30688">
        <ele>43</ele>
        <time>2020-12-06T09:49:08.908000+00:00</time>
      </trkpt>
      <trkpt lat="0" lon="0">
        <time>2020-12-06T09:49:08.925000+00:00</time>
      </trkpt>
      <trkpt lat="0" lon="0">
        <time>2020-12-06T09:49:08.931000+00:00</time>
      </trkpt>
      <trkpt lat="0" lon="0">
        <time>2020-12-06T09:49:08.934000+00:00</time>
      </trkpt>
      <trkpt lat="47.34368" lon="-1.30693">
        <ele>43</ele>
        <time>2020-12-06T09:49:09.905000+00:00</time>
      </trkpt>
      <trkpt lat="0" lon="0">
        <time>2020-12-06T09:49:09.912000+00:00</time>
      </trkpt>
      <trkpt lat="0" lon="0">
        <time>2020-12-06T09:49:09.913000+00:00</time>
      </trkpt>
      <trkpt lat="0" lon="0">
        <time>2020-12-06T09:49:09.915000+00:00</time>
      </trkpt>
      <trkpt lat="47.34367" lon="-1.30699">
        <ele>44</ele>
        <time>2020-12-06T09:49:10.888000+00:00</time>
      </trkpt>
      <trkpt lat="0" lon="0">
        <time>2020-12-06T09:49:10.899000+00:00</time>
      </trkpt>
      <trkpt lat="0" lon="0">
        <time>2020-12-06T09:49:10.908000+00:00</time>
      </trkpt>
      <trkpt lat="0" lon="0">
        <time>2020-12-06T09:49:10.910000+00:00</time>
      </trkpt>
      <trkpt lat="47.34366" lon="-1.30705">
        <ele>44</ele>
        <time>2020-12-06T09:49:11.910000+00:00</time>
      </trkpt>
      <trkpt lat="0" lon="0">
        <time>2020-12-06T09:49:11.917000+00:00</time>
      </trkpt>
      <trkpt lat="0" lon="0">
        <time>2020-12-06T09:49:11.921000+00:00</time>
      </trkpt>
      <trkpt lat="0" lon="0">
        <time>2020-12-06T09:49:11.923000+00:00</time>
      </trkpt>
      <trkpt lat="47.34365" lon="-1.30711">
        <ele>45</ele>
        <time>2020-12-06T09:49:12.867000+00:00</time>
      </trkpt>
      <trkpt lat="0" lon="0">
        <time>2020-12-06T09:49:12.873000+00:00</time>
      </trkpt>
      <trkpt lat="0" lon="0">
        <time>2020-12-06T09:49:12.875000+00:00</time>
      </trkpt>
      <trkpt lat="0" lon="0">
        <time>2020-12-06T09:49:12.885000+00:00</time>
      </trkpt>
      <trkpt lat="47.34364" lon="-1.30718">
        <ele>45</ele>
        <time>2020-12-06T09:49:13.907000+00:00</time>
      </trkpt>
      <trkpt lat="0" lon="0">
        <time>2020-12-06T09:49:13.917000+00:00</time>
      </trkpt>
      <trkpt lat="0" lon="0">
        <time>2020-12-06T09:49:13.934000+00:00</time>
      </trkpt>
      <trkpt lat="0" lon="0">
        <time>2020-12-06T09:49:13.935000+00:00</time>
      </trkpt>
      <trkpt lat="47.34364" lon="-1.30724">
        <ele>46</ele>
        <time>2020-12-06T09:49:14.916000+00:00</time>
      </trkpt>
      <trkpt lat="0" lon="0">
        <time>2020-12-06T09:49:14.921000+00:00</time>
      </trkpt>
      <trkpt lat="0" lon="0">
        <time>2020-12-06T09:49:14.926000+00:00</time>
      </trkpt>
      <trkpt lat="0" lon="0">
        <time>2020-12-06T09:49:14.928000+00:00</time>
      </trkpt>
      <trkpt lat="47.34363" lon="-1.30731">
        <ele>46</ele>
        <time>2020-12-06T09:49:15.903000+00:00</time>
      </trkpt>
      <trkpt lat="0" lon="0">
        <time>2020-12-06T09:49:15.907000+00:00</time>
      </trkpt>
      <trkpt lat="0" lon="0">
        <time>2020-12-06T09:49:15.916000+00:00</time>
      </trkpt>
      <trkpt lat="0" lon="0">
        <time>2020-12-06T09:49:15.919000+00:00</time>
      </trkpt>
      <trkpt lat="47.34362" lon="-1.30738">
        <ele>47</ele>
        <time>2020-12-06T09:49:16.892000+00:00</time>
      </trkpt>
      <trkpt lat="0" lon="0">
        <time>2020-12-06T09:49:16.898000+00:00</time>
      </trkpt>
      <trkpt lat="0" lon="0">
        <time>2020-12-06T09:49:16.906000+00:00</time>
      </trkpt>
      <trkpt lat="0" lon="0">
        <time>2020-12-06T09:49:16.908000+00:00</time>
      </trkpt>
      <trkpt lat="47.34361" lon="-1.30744">
        <ele>47</ele>
        <time>2020-12-06T09:49:17.890000+00:00</time>
      </trkpt>
      <trkpt lat="0" lon="0">
        <time>2020-12-06T09:49:17.899000+00:00</time>
      </trkpt>
      <trkpt lat="0" lon="0">
        <time>2020-12-06T09:49:17.903000+00:00</time>
      </trkpt>
      <trkpt lat="0" lon="0">
        <time>2020-12-06T09:49:17.907000+00:00</time>
      </trkpt>
      <trkpt lat="47.3436" lon="-1.30751">
        <ele>48</ele>
        <time>2020-12-06T09:49:18.913000+00:00</time>
      </trkpt>
      <trkpt lat="0" lon="0">
        <time>2020-12-06T09:49:18.918000+00:00</time>
      </trkpt>
      <trkpt lat="0" lon="0">
        <time>2020-12-06T09:49:18.925000+00:00</time>
      </trkpt>
      <trkpt lat="0" lon="0">
        <time>2020-12-06T09:49:18.927000+00:00</time>
      </trkpt>
      <trkpt lat="47.34359" lon="-1.30757">
        <ele>48</ele>
        <time>2020-12-06T09:49:19.880000+00:00</time>
      </trkpt>
      <trkpt lat="0" lon="0">
        <time>2020-12-06T09:49:19.885000+00:00</time>
      </trkpt>
      <trkpt lat="0" lon="0">
        <time>2020-12-06T09:49:19.890000+00:00</time>
      </trkpt>
      <trkpt lat="0" lon="0">
        <time>2020-12-06T09:49:19.892000+00:00</time>
      </trkpt>
      <trkpt lat="47.34357" lon="-1.30763">
        <ele>49</ele>
        <time>2020-12-06T09:49:20.900000+00:00</time>
      </trkpt>
      <trkpt lat="0" lon="0">
        <time>2020-12-06T09:49:20.913000+00:00</time>
      </trkpt>
      <trkpt lat="0" lon="0">
        <time>2020-12-06T09:49:20.917000+00:00</time>
      </trkpt>
      <trkpt lat="0" lon="0">
        <time>2020-12-06T09:49:20.925000+00:00</time>
      </trkpt>
      <trkpt lat="47.34356" lon="-1.30768">
        <ele>49</ele>
        <time>2020-12-06T09:49:21.900000+00:00</time>
      </trkpt>
      <trkpt lat="0" lon="0">
        <time>2020-12-06T09:49:21.904000+00:00</time>
      </trkpt>
      <trkpt lat="0" lon="0">
        <time>2020-12-06T09:49:21.911000+00:00</time>
      </trkpt>
      <trkpt lat="0" lon="0">
        <time>2020-12-06T09:49:21.918000+00:00</time>
      </trkpt>
      <trkpt lat="47.34355" lon="-1.30774">
        <ele>50</ele>
        <time>2020-12-06T09:49:22.944000+00:00</time>
      </trkpt>
      <trkpt lat="0" lon="0">
        <time>2020-12-06T09:49:22.950000+00:00</time>
      </trkpt>
      <trkpt lat="0" lon="0">
        <time>2020-12-06T09:49:22.955000+00:00</time>
      </trkpt>
      <trkpt lat="0" lon="0">
        <time>2020-12-06T09:49:22.961000+00:00</time>
      </trkpt>
      <trkpt lat="47.34354" lon="-1.30779">
        <ele>50</ele>
        <time>2020-12-06T09:49:23.987000+00:00</time>
      </trkpt>
      <trkpt lat="0" lon="0">
        <time>2020-12-06T09:49:24.006000+00:00</time>
      </trkpt>
      <trkpt lat="0" lon="0">
        <time>2020-12-06T09:49:24.010000+00:00</time>
      </trkpt>
      <trkpt lat="0" lon="0">
        <time>2020-12-06T09:49:24.012000+00:00</time>
      </trkpt>
      <trkpt lat="47.34353" lon="-1.30784">
        <ele>50</ele>
        <time>2020-12-06T09:49:24.930000+00:00</time>
      </trkpt>
      <trkpt lat="0" lon="0">
        <time>2020-12-06T09:49:24.939000+00:00</time>
      </trkpt>
      <trkpt lat="0" lon="0">
        <time>2020-12-06T09:49:24.943000+00:00</time>
      </trkpt>
      <trkpt lat="0" lon="0">
        <time>2020-12-06T09:49:24.946000+00:00</time>
      </trkpt>
      <trkpt lat="47.34352" lon="-1.30789">
        <ele>51</ele>
        <time>2020-12-06T09:49:25.901000+00:00</time>
      </trkpt>
      <trkpt lat="0" lon="0">
        <time>2020-12-06T09:49:25.907000+00:00</time>
      </trkpt>
      <trkpt lat="0" lon="0">
        <time>2020-12-06T09:49:25.909000+00:00</time>
      </trkpt>
      <trkpt lat="47.34351" lon="-1.30793">
        <ele>51</ele>
        <time>2020-12-06T09:49:26.912000+00:00</time>
      </trkpt>
      <trkpt lat="0" lon="0">
        <time>2020-12-06T09:49:26.922000+00:00</time>
      </trkpt>
      <trkpt lat="0" lon="0">
        <time>2020-12-06T09:49:26.926000+00:00</time>
      </trkpt>
      <trkpt lat="0" lon="0">
        <time>2020-12-06T09:49:26.929000+00:00</time>
      </trkpt>
      <trkpt lat="47.3435" lon="-1.30798">
        <ele>52</ele>
        <time>2020-12-06T09:49:27.969000+00:00</time>
      </trkpt>
      <trkpt lat="0" lon="0">
        <time>2020-12-06T09:49:27.977000+00:00</time>
      </trkpt>
      <trkpt lat="0" lon="0">
        <time>2020-12-06T09:49:27.986000+00:00</time>
      </trkpt>
      <trkpt lat="0" lon="0">
        <time>2020-12-06T09:49:27.988000+00:00</time>
      </trkpt>
      <trkpt lat="47.34349" lon="-1.30802">
        <ele>52</ele>
        <time>2020-12-06T09:49:28.942000+00:00</time>
      </trkpt>
      <trkpt lat="0" lon="0">
        <time>2020-12-06T09:49:28.956000+00:00</time>
      </trkpt>
      <trkpt lat="0" lon="0">
        <time>2020-12-06T09:49:28.960000+00:00</time>
      </trkpt>
      <trkpt lat="0" lon="0">
        <time>2020-12-06T09:49:28.964000+00:00</time>
      </trkpt>
      <trkpt lat="47.34348" lon="-1.30807">
        <ele>52</ele>
        <time>2020-12-06T09:49:29.886000+00:00</time>
      </trkpt>
      <trkpt lat="0" lon="0">
        <time>2020-12-06T09:49:29.889000+00:00</time>
      </trkpt>
      <trkpt lat="0" lon="0">
        <time>2020-12-06T09:49:29.899000+00:00</time>
      </trkpt>
      <trkpt lat="0" lon="0">
        <time>2020-12-06T09:49:29.902000+00:00</time>
      </trkpt>
      <trkpt lat="47.34347" lon="-1.30811">
        <ele>53</ele>
        <time>2020-12-06T09:49:30.840000+00:00</time>
      </trkpt>
      <trkpt lat="0" lon="0">
        <time>2020-12-06T09:49:30.848000+00:00</time>
      </trkpt>
      <trkpt lat="0" lon="0">
        <time>2020-12-06T09:49:30.850000+00:00</time>
      </trkpt>
      <trkpt lat="0" lon="0">
        <time>2020-12-06T09:49:30.851000+00:00</time>
      </trkpt>
      <trkpt lat="47.34346" lon="-1.30815">
        <ele>53</ele>
        <time>2020-12-06T09:49:31.885000+00:00</time>
      </trkpt>
      <trkpt lat="0" lon="0">
        <time>2020-12-06T09:49:31.888000+00:00</time>
      </trkpt>
      <trkpt lat="0" lon="0">
        <time>2020-12-06T09:49:31.890000+00:00</time>
      </trkpt>
      <trkpt lat="47.34345" lon="-1.30819">
        <ele>53</ele>
        <time>2020-12-06T09:49:32.885000+00:00</time>
      </trkpt>
      <trkpt lat="0" lon="0">
        <time>2020-12-06T09:49:32.899000+00:00</time>
      </trkpt>
      <trkpt lat="0" lon="0">
        <time>2020-12-06T09:49:32.902000+00:00</time>
      </trkpt>
      <trkpt lat="0" lon="0">
        <time>2020-12-06T09:49:32.906000+00:00</time>
      </trkpt>
      <trkpt lat="47.34343" lon="-1.30823">
        <ele>54</ele>
        <time>2020-12-06T09:49:33.956000+00:00</time>
      </trkpt>
      <trkpt lat="0" lon="0">
        <time>2020-12-06T09:49:33.971000+00:00</time>
      </trkpt>
      <trkpt lat="0" lon="0">
        <time>2020-12-06T09:49:33.978000+00:00</time>
      </trkpt>
      <trkpt lat="0" lon="0">
        <time>2020-12-06T09:49:33.980000+00:00</time>
      </trkpt>
      <trkpt lat="47.34342" lon="-1.30827">
        <ele>54</ele>
        <time>2020-12-06T09:49:34.922000+00:00</time>
      </trkpt>
      <trkpt lat="0" lon="0">
        <time>2020-12-06T09:49:34.925000+00:00</time>
      </trkpt>
      <trkpt lat="0" lon="0">
        <time>2020-12-06T09:49:34.930000+00:00</time>
      </trkpt>
      <trkpt lat="0" lon="0">
        <time>2020-12-06T09:49:34.932000+00:00</time>
      </trkpt>
      <trkpt lat="47.34341" lon="-1.30831">
        <ele>54</ele>
        <time>2020-12-06T09:49:35.839000+00:00</time>
      </trkpt>
      <trkpt lat="0" lon="0">
        <time>2020-12-06T09:49:35.840000+00:00</time>
      </trkpt>
      <trkpt lat="0" lon="0">
        <time>2020-12-06T09:49:35.842000+00:00</time>
      </trkpt>
      <trkpt lat="47.34339" lon="-1.30834">
        <ele>55</ele>
        <time>2020-12-06T09:49:36.908000+00:00</time>
      </trkpt>
      <trkpt lat="0" lon="0">
        <time>2020-12-06T09:49:36.914000+00:00</time>
      </trkpt>
      <trkpt lat="0" lon="0">
        <time>2020-12-06T09:49:36.919000+00:00</time>
      </trkpt>
      <trkpt lat="0" lon="0">
        <time>2020-12-06T09:49:36.921000+00:00</time>
      </trkpt>
      <trkpt lat="47.34337" lon="-1.30838">
        <ele>55</ele>
        <time>2020-12-06T09:49:37.950000+00:00</time>
      </trkpt>
      <trkpt lat="0" lon="0">
        <time>2020-12-06T09:49:37.959000+00:00</time>
      </trkpt>
      <trkpt lat="0" lon="0">
        <time>2020-12-06T09:49:37.962000+00:00</time>
      </trkpt>
      <trkpt lat="0" lon="0">
        <time>2020-12-06T09:49:37.965000+00:00</time>
      </trkpt>
      <trkpt lat="47.34335" lon="-1.30842">
        <ele>55</ele>
        <time>2020-12-06T09:49:38.902000+00:00</time>
      </trkpt>
      <trkpt lat="0" lon="0">
        <time>2020-12-06T09:49:38.905000+00:00</time>
      </trkpt>
      <trkpt lat="0" lon="0">
        <time>2020-12-06T09:49:38.914000+00:00</time>
      </trkpt>
      <trkpt lat="0" lon="0">
        <time>2020-12-06T09:49:38.916000+00:00</time>
      </trkpt>
      <trkpt lat="47.34333" lon="-1.30845">
        <ele>55</ele>
        <time>2020-12-06T09:49:39.963000+00:00</time>
      </trkpt>
      <trkpt lat="0" lon="0">
        <time>2020-12-06T09:49:39.980000+00:00</time>
      </trkpt>
      <trkpt lat="0" lon="0">
        <time>2020-12-06T09:49:39.987000+00:00</time>
      </trkpt>
      <trkpt lat="0" lon="0">
        <time>2020-12-06T09:49:39.992000+00:00</time>
      </trkpt>
      <trkpt lat="47.34332" lon="-1.30848">
        <ele>55</ele>
        <time>2020-12-06T09:49:40.949000+00:00</time>
      </trkpt>
      <trkpt lat="0" lon="0">
        <time>2020-12-06T09:49:40.952000+00:00</time>
      </trkpt>
      <trkpt lat="0" lon="0">
        <time>2020-12-06T09:49:40.958000+00:00</time>
      </trkpt>
      <trkpt lat="0" lon="0">
        <time>2020-12-06T09:49:40.959000+00:00</time>
      </trkpt>
      <trkpt lat="47.3433" lon="-1.30851">
        <ele>55</ele>
        <time>2020-12-06T09:49:41.982000+00:00</time>
      </trkpt>
      <trkpt lat="0" lon="0">
        <time>2020-12-06T09:49:41.991000+00:00</time>
      </trkpt>
      <trkpt lat="0" lon="0">
        <time>2020-12-06T09:49:41.998000+00:00</time>
      </trkpt>
      <trkpt lat="0" lon="0">
        <time>2020-12-06T09:49:42.007000+00:00</time>
      </trkpt>
      <trkpt lat="47.34328" lon="-1.30854">
        <ele>56</ele>
        <time>2020-12-06T09:49:42.934000+00:00</time>
      </trkpt>
      <trkpt lat="0" lon="0">
        <time>2020-12-06T09:49:42.949000+00:00</time>
      </trkpt>
      <trkpt lat="0" lon="0">
        <time>2020-12-06T09:49:42.955000+00:00</time>
      </trkpt>
      <trkpt lat="0" lon="0">
        <time>2020-12-06T09:49:42.961000+00:00</time>
      </trkpt>
      <trkpt lat="47.34326" lon="-1.30856">
        <ele>56</ele>
        <time>2020-12-06T09:49:43.847000+00:00</time>
      </trkpt>
      <trkpt lat="0" lon="0">
        <time>2020-12-06T09:49:43.848000+00:00</time>
      </trkpt>
      <trkpt lat="0" lon="0">
        <time>2020-12-06T09:49:43.849000+00:00</time>
      </trkpt>
      <trkpt lat="0" lon="0">
        <time>2020-12-06T09:49:43.850000+00:00</time>
      </trkpt>
      <trkpt lat="47.34323" lon="-1.30858">
        <ele>56</ele>
        <time>2020-12-06T09:49:44.910000+00:00</time>
      </trkpt>
      <trkpt lat="0" lon="0">
        <time>2020-12-06T09:49:44.914000+00:00</time>
      </trkpt>
      <trkpt lat="0" lon="0">
        <time>2020-12-06T09:49:44.923000+00:00</time>
      </trkpt>
      <trkpt lat="0" lon="0">
        <time>2020-12-06T09:49:44.933000+00:00</time>
      </trkpt>
      <trkpt lat="47.34321" lon="-1.30859">
        <ele>56</ele>
        <time>2020-12-06T09:49:45.891000+00:00</time>
      </trkpt>
      <trkpt lat="0" lon="0">
        <time>2020-12-06T09:49:45.908000+00:00</time>
      </trkpt>
      <trkpt lat="0" lon="0">
        <time>2020-12-06T09:49:45.917000+00:00</time>
      </trkpt>
      <trkpt lat="0" lon="0">
        <time>2020-12-06T09:49:45.920000+00:00</time>
      </trkpt>
      <trkpt lat="47.34318" lon="-1.3086">
        <ele>56</ele>
        <time>2020-12-06T09:49:46.928000+00:00</time>
      </trkpt>
      <trkpt lat="0" lon="0">
        <time>2020-12-06T09:49:46.938000+00:00</time>
      </trkpt>
      <trkpt lat="0" lon="0">
        <time>2020-12-06T09:49:46.945000+00:00</time>
      </trkpt>
      <trkpt lat="0" lon="0">
        <time>2020-12-06T09:49:46.951000+00:00</time>
      </trkpt>
      <trkpt lat="47.34316" lon="-1.30861">
        <ele>56</ele>
        <time>2020-12-06T09:49:47.931000+00:00</time>
      </trkpt>
      <trkpt lat="0" lon="0">
        <time>2020-12-06T09:49:47.938000+00:00</time>
      </trkpt>
      <trkpt lat="0" lon="0">
        <time>2020-12-06T09:49:47.941000+00:00</time>
      </trkpt>
      <trkpt lat="0" lon="0">
        <time>2020-12-06T09:49:47.943000+00:00</time>
      </trkpt>
      <trkpt lat="47.34313" lon="-1.30862">
        <ele>56</ele>
        <time>2020-12-06T09:49:48.930000+00:00</time>
      </trkpt>
      <trkpt lat="0" lon="0">
        <time>2020-12-06T09:49:48.942000+00:00</time>
      </trkpt>
      <trkpt lat="0" lon="0">
        <time>2020-12-06T09:49:48.951000+00:00</time>
      </trkpt>
      <trkpt lat="47.34311" lon="-1.30863">
        <ele>56</ele>
        <time>2020-12-06T09:49:49.957000+00:00</time>
      </trkpt>
      <trkpt lat="0" lon="0">
        <time>2020-12-06T09:49:49.970000+00:00</time>
      </trkpt>
      <trkpt lat="0" lon="0">
        <time>2020-12-06T09:49:49.980000+00:00</time>
      </trkpt>
      <trkpt lat="0" lon="0">
        <time>2020-12-06T09:49:49.983000+00:00</time>
      </trkpt>
      <trkpt lat="47.34309" lon="-1.30864">
        <ele>56</ele>
        <time>2020-12-06T09:49:50.926000+00:00</time>
      </trkpt>
      <trkpt lat="0" lon="0">
        <time>2020-12-06T09:49:50.940000+00:00</time>
      </trkpt>
      <trkpt lat="0" lon="0">
        <time>2020-12-06T09:49:50.942000+00:00</time>
      </trkpt>
      <trkpt lat="0" lon="0">
        <time>2020-12-06T09:49:50.943000+00:00</time>
      </trkpt>
      <trkpt lat="47.34307" lon="-1.30865">
        <ele>56</ele>
        <time>2020-12-06T09:49:51.898000+00:00</time>
      </trkpt>
      <trkpt lat="0" lon="0">
        <time>2020-12-06T09:49:51.906000+00:00</time>
      </trkpt>
      <trkpt lat="0" lon="0">
        <time>2020-12-06T09:49:51.909000+00:00</time>
      </trkpt>
      <trkpt lat="0" lon="0">
        <time>2020-12-06T09:49:51.911000+00:00</time>
      </trkpt>
      <trkpt lat="47.34304" lon="-1.30866">
        <ele>56</ele>
        <time>2020-12-06T09:49:52.951000+00:00</time>
      </trkpt>
      <trkpt lat="0" lon="0">
        <time>2020-12-06T09:49:52.952000+00:00</time>
      </trkpt>
      <trkpt lat="0" lon="0">
        <time>2020-12-06T09:49:52.954000+00:00</time>
      </trkpt>
      <trkpt lat="0" lon="0">
        <time>2020-12-06T09:49:52.955000+00:00</time>
      </trkpt>
      <trkpt lat="47.34302" lon="-1.30867">
        <ele>56</ele>
        <time>2020-12-06T09:49:53.922000+00:00</time>
      </trkpt>
      <trkpt lat="0" lon="0">
        <time>2020-12-06T09:49:53.923000+00:00</time>
      </trkpt>
      <trkpt lat="0" lon="0">
        <time>2020-12-06T09:49:53.924000+00:00</time>
      </trkpt>
      <trkpt lat="0" lon="0">
        <time>2020-12-06T09:49:53.925000+00:00</time>
      </trkpt>
      <trkpt lat="47.343" lon="-1.30869">
        <ele>56</ele>
        <time>2020-12-06T09:49:54.953000+00:00</time>
      </trkpt>
      <trkpt lat="0" lon="0">
        <time>2020-12-06T09:49:54.963000+00:00</time>
      </trkpt>
      <trkpt lat="0" lon="0">
        <time>2020-12-06T09:49:54.966000+00:00</time>
      </trkpt>
      <trkpt lat="0" lon="0">
        <time>2020-12-06T09:49:54.968000+00:00</time>
      </trkpt>
      <trkpt lat="47.34297" lon="-1.30871">
        <ele>56</ele>
        <time>2020-12-06T09:49:55.933000+00:00</time>
      </trkpt>
      <trkpt lat="0" lon="0">
        <time>2020-12-06T09:49:55.943000+00:00</time>
      </trkpt>
      <trkpt lat="0" lon="0">
        <time>2020-12-06T09:49:55.949000+00:00</time>
      </trkpt>
      <trkpt lat="0" lon="0">
        <time>2020-12-06T09:49:55.950000+00:00</time>
      </trkpt>
      <trkpt lat="47.34295" lon="-1.30874">
        <ele>56</ele>
        <time>2020-12-06T09:49:56.944000+00:00</time>
      </trkpt>
      <trkpt lat="0" lon="0">
        <time>2020-12-06T09:49:56.956000+00:00</time>
      </trkpt>
      <trkpt lat="0" lon="0">
        <time>2020-12-06T09:49:56.957000+00:00</time>
      </trkpt>
      <trkpt lat="0" lon="0">
        <time>2020-12-06T09:49:56.958000+00:00</time>
      </trkpt>
      <trkpt lat="47.34292" lon="-1.30877">
        <ele>56</ele>
        <time>2020-12-06T09:49:57.900000+00:00</time>
      </trkpt>
      <trkpt lat="0" lon="0">
        <time>2020-12-06T09:49:57.908000+00:00</time>
      </trkpt>
      <trkpt lat="0" lon="0">
        <time>2020-12-06T09:49:57.912000+00:00</time>
      </trkpt>
      <trkpt lat="0" lon="0">
        <time>2020-12-06T09:49:57.913000+00:00</time>
      </trkpt>
      <trkpt lat="47.34289" lon="-1.3088">
        <ele>56</ele>
        <time>2020-12-06T09:49:58.926000+00:00</time>
      </trkpt>
      <trkpt lat="0" lon="0">
        <time>2020-12-06T09:49:58.928000+00:00</time>
      </trkpt>
      <trkpt lat="0" lon="0">
        <time>2020-12-06T09:49:58.935000+00:00</time>
      </trkpt>
      <trkpt lat="0" lon="0">
        <time>2020-12-06T09:49:58.936000+00:00</time>
      </trkpt>
      <trkpt lat="47.34287" lon="-1.30883">
        <ele>56</ele>
        <time>2020-12-06T09:49:59.942000+00:00</time>
      </trkpt>
      <trkpt lat="0" lon="0">
        <time>2020-12-06T09:49:59.966000+00:00</time>
      </trkpt>
      <trkpt lat="0" lon="0">
        <time>2020-12-06T09:49:59.970000+00:00</time>
      </trkpt>
      <trkpt lat="0" lon="0">
        <time>2020-12-06T09:49:59.972000+00:00</time>
      </trkpt>
      <trkpt lat="47.34284" lon="-1.30886">
        <ele>56</ele>
        <time>2020-12-06T09:50:00.953000+00:00</time>
      </trkpt>
      <trkpt lat="0" lon="0">
        <time>2020-12-06T09:50:00.960000+00:00</time>
      </trkpt>
      <trkpt lat="0" lon="0">
        <time>2020-12-06T09:50:00.964000+00:00</time>
      </trkpt>
      <trkpt lat="0" lon="0">
        <time>2020-12-06T09:50:00.968000+00:00</time>
      </trkpt>
      <trkpt lat="47.34281" lon="-1.3089">
        <ele>56</ele>
        <time>2020-12-06T09:50:01.917000+00:00</time>
      </trkpt>
      <trkpt lat="0" lon="0">
        <time>2020-12-06T09:50:01.922000+00:00</time>
      </trkpt>
      <trkpt lat="0" lon="0">
        <time>2020-12-06T09:50:01.924000+00:00</time>
      </trkpt>
      <trkpt lat="0" lon="0">
        <time>2020-12-06T09:50:01.925000+00:00</time>
      </trkpt>
      <trkpt lat="47.34279" lon="-1.30894">
        <ele>57</ele>
        <time>2020-12-06T09:50:02.925000+00:00</time>
      </trkpt>
      <trkpt lat="0" lon="0">
        <time>2020-12-06T09:50:02.932000+00:00</time>
      </trkpt>
      <trkpt lat="0" lon="0">
        <time>2020-12-06T09:50:02.934000+00:00</time>
      </trkpt>
      <trkpt lat="0" lon="0">
        <time>2020-12-06T09:50:02.935000+00:00</time>
      </trkpt>
      <trkpt lat="47.34276" lon="-1.30898">
        <ele>57</ele>
        <time>2020-12-06T09:50:03.931000+00:00</time>
      </trkpt>
      <trkpt lat="0" lon="0">
        <time>2020-12-06T09:50:03.948000+00:00</time>
      </trkpt>
      <trkpt lat="0" lon="0">
        <time>2020-12-06T09:50:03.955000+00:00</time>
      </trkpt>
      <trkpt lat="0" lon="0">
        <time>2020-12-06T09:50:03.956000+00:00</time>
      </trkpt>
      <trkpt lat="47.34274" lon="-1.30901">
        <ele>57</ele>
        <time>2020-12-06T09:50:04.917000+00:00</time>
      </trkpt>
      <trkpt lat="0" lon="0">
        <time>2020-12-06T09:50:04.922000+00:00</time>
      </trkpt>
      <trkpt lat="0" lon="0">
        <time>2020-12-06T09:50:04.930000+00:00</time>
      </trkpt>
      <trkpt lat="0" lon="0">
        <time>2020-12-06T09:50:04.932000+00:00</time>
      </trkpt>
      <trkpt lat="47.34272" lon="-1.30905">
        <ele>57</ele>
        <time>2020-12-06T09:50:05.916000+00:00</time>
      </trkpt>
      <trkpt lat="0" lon="0">
        <time>2020-12-06T09:50:05.919000+00:00</time>
      </trkpt>
      <trkpt lat="0" lon="0">
        <time>2020-12-06T09:50:05.931000+00:00</time>
      </trkpt>
      <trkpt lat="0" lon="0">
        <time>2020-12-06T09:50:05.934000+00:00</time>
      </trkpt>
      <trkpt lat="47.34269" lon="-1.30909">
        <ele>57</ele>
        <time>2020-12-06T09:50:06.931000+00:00</time>
      </trkpt>
      <trkpt lat="0" lon="0">
        <time>2020-12-06T09:50:06.940000+00:00</time>
      </trkpt>
      <trkpt lat="0" lon="0">
        <time>2020-12-06T09:50:06.944000+00:00</time>
      </trkpt>
      <trkpt lat="0" lon="0">
        <time>2020-12-06T09:50:06.946000+00:00</time>
      </trkpt>
      <trkpt lat="47.34267" lon="-1.30912">
        <ele>58</ele>
        <time>2020-12-06T09:50:07.952000+00:00</time>
      </trkpt>
      <trkpt lat="0" lon="0">
        <time>2020-12-06T09:50:07.957000+00:00</time>
      </trkpt>
      <trkpt lat="0" lon="0">
        <time>2020-12-06T09:50:07.962000+00:00</time>
      </trkpt>
      <trkpt lat="0" lon="0">
        <time>2020-12-06T09:50:07.964000+00:00</time>
      </trkpt>
      <trkpt lat="47.34265" lon="-1.30916">
        <ele>58</ele>
        <time>2020-12-06T09:50:08.911000+00:00</time>
      </trkpt>
      <trkpt lat="0" lon="0">
        <time>2020-12-06T09:50:08.921000+00:00</time>
      </trkpt>
      <trkpt lat="0" lon="0">
        <time>2020-12-06T09:50:08.925000+00:00</time>
      </trkpt>
      <trkpt lat="0" lon="0">
        <time>2020-12-06T09:50:08.927000+00:00</time>
      </trkpt>
      <trkpt lat="47.34263" lon="-1.3092">
        <ele>58</ele>
        <time>2020-12-06T09:50:09.930000+00:00</time>
      </trkpt>
      <trkpt lat="0" lon="0">
        <time>2020-12-06T09:50:09.938000+00:00</time>
      </trkpt>
      <trkpt lat="0" lon="0">
        <time>2020-12-06T09:50:09.943000+00:00</time>
      </trkpt>
      <trkpt lat="0" lon="0">
        <time>2020-12-06T09:50:09.945000+00:00</time>
      </trkpt>
      <trkpt lat="47.3426" lon="-1.30924">
        <ele>58</ele>
        <time>2020-12-06T09:50:10.890000+00:00</time>
      </trkpt>
      <trkpt lat="0" lon="0">
        <time>2020-12-06T09:50:10.892000+00:00</time>
      </trkpt>
      <trkpt lat="0" lon="0">
        <time>2020-12-06T09:50:10.894000+00:00</time>
      </trkpt>
      <trkpt lat="0" lon="0">
        <time>2020-12-06T09:50:10.895000+00:00</time>
      </trkpt>
      <trkpt lat="47.34258" lon="-1.30928">
        <ele>58</ele>
        <time>2020-12-06T09:50:11.952000+00:00</time>
      </trkpt>
      <trkpt lat="0" lon="0">
        <time>2020-12-06T09:50:11.958000+00:00</time>
      </trkpt>
      <trkpt lat="0" lon="0">
        <time>2020-12-06T09:50:11.967000+00:00</time>
      </trkpt>
      <trkpt lat="0" lon="0">
        <time>2020-12-06T09:50:11.969000+00:00</time>
      </trkpt>
      <trkpt lat="47.34256" lon="-1.30931">
        <ele>59</ele>
        <time>2020-12-06T09:50:12.899000+00:00</time>
      </trkpt>
      <trkpt lat="0" lon="0">
        <time>2020-12-06T09:50:12.910000+00:00</time>
      </trkpt>
      <trkpt lat="0" lon="0">
        <time>2020-12-06T09:50:12.915000+00:00</time>
      </trkpt>
      <trkpt lat="0" lon="0">
        <time>2020-12-06T09:50:12.916000+00:00</time>
      </trkpt>
      <trkpt lat="47.34254" lon="-1.30935">
        <ele>59</ele>
        <time>2020-12-06T09:50:13.919000+00:00</time>
      </trkpt>
      <trkpt lat="0" lon="0">
        <time>2020-12-06T09:50:13.930000+00:00</time>
      </trkpt>
      <trkpt lat="0" lon="0">
        <time>2020-12-06T09:50:13.942000+00:00</time>
      </trkpt>
      <trkpt lat="0" lon="0">
        <time>2020-12-06T09:50:13.943000+00:00</time>
      </trkpt>
      <trkpt lat="47.34252" lon="-1.30939">
        <ele>59</ele>
        <time>2020-12-06T09:50:14.944000+00:00</time>
      </trkpt>
      <trkpt lat="0" lon="0">
        <time>2020-12-06T09:50:14.964000+00:00</time>
      </trkpt>
      <trkpt lat="0" lon="0">
        <time>2020-12-06T09:50:14.969000+00:00</time>
      </trkpt>
      <trkpt lat="0" lon="0">
        <time>2020-12-06T09:50:14.971000+00:00</time>
      </trkpt>
      <trkpt lat="47.3425" lon="-1.30943">
        <ele>59</ele>
        <time>2020-12-06T09:50:15.949000+00:00</time>
      </trkpt>
      <trkpt lat="0" lon="0">
        <time>2020-12-06T09:50:15.962000+00:00</time>
      </trkpt>
      <trkpt lat="0" lon="0">
        <time>2020-12-06T09:50:15.973000+00:00</time>
      </trkpt>
      <trkpt lat="0" lon="0">
        <time>2020-12-06T09:50:15.974000+00:00</time>
      </trkpt>
      <trkpt lat="47.34248" lon="-1.30947">
        <ele>60</ele>
        <time>2020-12-06T09:50:16.911000+00:00</time>
      </trkpt>
      <trkpt lat="0" lon="0">
        <time>2020-12-06T09:50:16.912000+00:00</time>
      </trkpt>
      <trkpt lat="0" lon="0">
        <time>2020-12-06T09:50:16.914000+00:00</time>
      </trkpt>
      <trkpt lat="0" lon="0">
        <time>2020-12-06T09:50:16.915000+00:00</time>
      </trkpt>
      <trkpt lat="47.34246" lon="-1.3095">
        <ele>60</ele>
        <time>2020-12-06T09:50:17.927000+00:00</time>
      </trkpt>
      <trkpt lat="0" lon="0">
        <time>2020-12-06T09:50:17.943000+00:00</time>
      </trkpt>
      <trkpt lat="0" lon="0">
        <time>2020-12-06T09:50:17.948000+00:00</time>
      </trkpt>
      <trkpt lat="0" lon="0">
        <time>2020-12-06T09:50:17.950000+00:00</time>
      </trkpt>
      <trkpt lat="47.34244" lon="-1.30954">
        <ele>60</ele>
        <time>2020-12-06T09:50:18.929000+00:00</time>
      </trkpt>
      <trkpt lat="0" lon="0">
        <time>2020-12-06T09:50:18.932000+00:00</time>
      </trkpt>
      <trkpt lat="0" lon="0">
        <time>2020-12-06T09:50:18.937000+00:00</time>
      </trkpt>
      <trkpt lat="0" lon="0">
        <time>2020-12-06T09:50:18.940000+00:00</time>
      </trkpt>
      <trkpt lat="47.34241" lon="-1.30957">
        <ele>60</ele>
        <time>2020-12-06T09:50:19.918000+00:00</time>
      </trkpt>
      <trkpt lat="0" lon="0">
        <time>2020-12-06T09:50:19.927000+00:00</time>
      </trkpt>
      <trkpt lat="0" lon="0">
        <time>2020-12-06T09:50:19.937000+00:00</time>
      </trkpt>
      <trkpt lat="0" lon="0">
        <time>2020-12-06T09:50:19.939000+00:00</time>
      </trkpt>
      <trkpt lat="47.34239" lon="-1.30961">
        <ele>60</ele>
        <time>2020-12-06T09:50:20.899000+00:00</time>
      </trkpt>
      <trkpt lat="0" lon="0">
        <time>2020-12-06T09:50:20.910000+00:00</time>
      </trkpt>
      <trkpt lat="0" lon="0">
        <time>2020-12-06T09:50:20.916000+00:00</time>
      </trkpt>
      <trkpt lat="0" lon="0">
        <time>2020-12-06T09:50:20.918000+00:00</time>
      </trkpt>
      <trkpt lat="47.34236" lon="-1.30964">
        <ele>61</ele>
        <time>2020-12-06T09:50:21.963000+00:00</time>
      </trkpt>
      <trkpt lat="0" lon="0">
        <time>2020-12-06T09:50:21.979000+00:00</time>
      </trkpt>
      <trkpt lat="0" lon="0">
        <time>2020-12-06T09:50:21.984000+00:00</time>
      </trkpt>
      <trkpt lat="0" lon="0">
        <time>2020-12-06T09:50:21.986000+00:00</time>
      </trkpt>
      <trkpt lat="47.34233" lon="-1.30967">
        <ele>61</ele>
        <time>2020-12-06T09:50:22.918000+00:00</time>
      </trkpt>
      <trkpt lat="0" lon="0">
        <time>2020-12-06T09:50:22.924000+00:00</time>
      </trkpt>
      <trkpt lat="0" lon="0">
        <time>2020-12-06T09:50:22.928000+00:00</time>
      </trkpt>
      <trkpt lat="0" lon="0">
        <time>2020-12-06T09:50:22.931000+00:00</time>
      </trkpt>
      <trkpt lat="47.3423" lon="-1.3097">
        <ele>61</ele>
        <time>2020-12-06T09:50:23.916000+00:00</time>
      </trkpt>
      <trkpt lat="0" lon="0">
        <time>2020-12-06T09:50:23.920000+00:00</time>
      </trkpt>
      <trkpt lat="0" lon="0">
        <time>2020-12-06T09:50:23.925000+00:00</time>
      </trkpt>
      <trkpt lat="0" lon="0">
        <time>2020-12-06T09:50:23.928000+00:00</time>
      </trkpt>
      <trkpt lat="47.34227" lon="-1.30972">
        <ele>61</ele>
        <time>2020-12-06T09:50:24.921000+00:00</time>
      </trkpt>
      <trkpt lat="0" lon="0">
        <time>2020-12-06T09:50:24.924000+00:00</time>
      </trkpt>
      <trkpt lat="0" lon="0">
        <time>2020-12-06T09:50:24.936000+00:00</time>
      </trkpt>
      <trkpt lat="0" lon="0">
        <time>2020-12-06T09:50:24.938000+00:00</time>
      </trkpt>
      <trkpt lat="47.34224" lon="-1.30975">
        <ele>61</ele>
        <time>2020-12-06T09:50:25.928000+00:00</time>
      </trkpt>
      <trkpt lat="0" lon="0">
        <time>2020-12-06T09:50:25.943000+00:00</time>
      </trkpt>
      <trkpt lat="0" lon="0">
        <time>2020-12-06T09:50:25.951000+00:00</time>
      </trkpt>
      <trkpt lat="0" lon="0">
        <time>2020-12-06T09:50:25.954000+00:00</time>
      </trkpt>
      <trkpt lat="47.34221" lon="-1.30977">
        <ele>61</ele>
        <time>2020-12-06T09:50:26.939000+00:00</time>
      </trkpt>
      <trkpt lat="0" lon="0">
        <time>2020-12-06T09:50:26.950000+00:00</time>
      </trkpt>
      <trkpt lat="0" lon="0">
        <time>2020-12-06T09:50:26.955000+00:00</time>
      </trkpt>
      <trkpt lat="0" lon="0">
        <time>2020-12-06T09:50:26.957000+00:00</time>
      </trkpt>
      <trkpt lat="47.34218" lon="-1.30979">
        <ele>61</ele>
        <time>2020-12-06T09:50:27.927000+00:00</time>
      </trkpt>
      <trkpt lat="0" lon="0">
        <time>2020-12-06T09:50:27.933000+00:00</time>
      </trkpt>
      <trkpt lat="0" lon="0">
        <time>2020-12-06T09:50:27.940000+00:00</time>
      </trkpt>
      <trkpt lat="0" lon="0">
        <time>2020-12-06T09:50:27.942000+00:00</time>
      </trkpt>
      <trkpt lat="47.34215" lon="-1.30982">
        <ele>62</ele>
        <time>2020-12-06T09:50:28.904000+00:00</time>
      </trkpt>
      <trkpt lat="0" lon="0">
        <time>2020-12-06T09:50:28.909000+00:00</time>
      </trkpt>
      <trkpt lat="0" lon="0">
        <time>2020-12-06T09:50:28.913000+00:00</time>
      </trkpt>
      <trkpt lat="0" lon="0">
        <time>2020-12-06T09:50:28.915000+00:00</time>
      </trkpt>
      <trkpt lat="47.34212" lon="-1.30984">
        <ele>62</ele>
        <time>2020-12-06T09:50:29.917000+00:00</time>
      </trkpt>
      <trkpt lat="0" lon="0">
        <time>2020-12-06T09:50:29.922000+00:00</time>
      </trkpt>
      <trkpt lat="0" lon="0">
        <time>2020-12-06T09:50:29.929000+00:00</time>
      </trkpt>
      <trkpt lat="0" lon="0">
        <time>2020-12-06T09:50:29.931000+00:00</time>
      </trkpt>
      <trkpt lat="47.34209" lon="-1.30986">
        <ele>62</ele>
        <time>2020-12-06T09:50:30.943000+00:00</time>
      </trkpt>
      <trkpt lat="0" lon="0">
        <time>2020-12-06T09:50:30.950000+00:00</time>
      </trkpt>
      <trkpt lat="0" lon="0">
        <time>2020-12-06T09:50:30.953000+00:00</time>
      </trkpt>
      <trkpt lat="0" lon="0">
        <time>2020-12-06T09:50:30.955000+00:00</time>
      </trkpt>
      <trkpt lat="47.34206" lon="-1.30988">
        <ele>62</ele>
        <time>2020-12-06T09:50:31.933000+00:00</time>
      </trkpt>
      <trkpt lat="0" lon="0">
        <time>2020-12-06T09:50:31.940000+00:00</time>
      </trkpt>
      <trkpt lat="0" lon="0">
        <time>2020-12-06T09:50:31.948000+00:00</time>
      </trkpt>
      <trkpt lat="0" lon="0">
        <time>2020-12-06T09:50:31.960000+00:00</time>
      </trkpt>
      <trkpt lat="47.34203" lon="-1.30991">
        <ele>62</ele>
        <time>2020-12-06T09:50:32.936000+00:00</time>
      </trkpt>
      <trkpt lat="0" lon="0">
        <time>2020-12-06T09:50:32.952000+00:00</time>
      </trkpt>
      <trkpt lat="0" lon="0">
        <time>2020-12-06T09:50:32.957000+00:00</time>
      </trkpt>
      <trkpt lat="0" lon="0">
        <time>2020-12-06T09:50:32.958000+00:00</time>
      </trkpt>
      <trkpt lat="47.34199" lon="-1.30993">
        <ele>62</ele>
        <time>2020-12-06T09:50:33.894000+00:00</time>
      </trkpt>
      <trkpt lat="0" lon="0">
        <time>2020-12-06T09:50:33.909000+00:00</time>
      </trkpt>
      <trkpt lat="0" lon="0">
        <time>2020-12-06T09:50:33.919000+00:00</time>
      </trkpt>
      <trkpt lat="0" lon="0">
        <time>2020-12-06T09:50:33.921000+00:00</time>
      </trkpt>
      <trkpt lat="47.34197" lon="-1.30995">
        <ele>62</ele>
        <time>2020-12-06T09:50:34.940000+00:00</time>
      </trkpt>
      <trkpt lat="0" lon="0">
        <time>2020-12-06T09:50:34.947000+00:00</time>
      </trkpt>
      <trkpt lat="0" lon="0">
        <time>2020-12-06T09:50:34.951000+00:00</time>
      </trkpt>
      <trkpt lat="0" lon="0">
        <time>2020-12-06T09:50:34.954000+00:00</time>
      </trkpt>
      <trkpt lat="47.34194" lon="-1.30998">
        <ele>63</ele>
        <time>2020-12-06T09:50:35.922000+00:00</time>
      </trkpt>
      <trkpt lat="0" lon="0">
        <time>2020-12-06T09:50:35.926000+00:00</time>
      </trkpt>
      <trkpt lat="0" lon="0">
        <time>2020-12-06T09:50:35.930000+00:00</time>
      </trkpt>
      <trkpt lat="0" lon="0">
        <time>2020-12-06T09:50:35.932000+00:00</time>
      </trkpt>
      <trkpt lat="47.34191" lon="-1.31">
        <ele>63</ele>
        <time>2020-12-06T09:50:36.927000+00:00</time>
      </trkpt>
      <trkpt lat="0" lon="0">
        <time>2020-12-06T09:50:36.940000+00:00</time>
      </trkpt>
      <trkpt lat="0" lon="0">
        <time>2020-12-06T09:50:36.945000+00:00</time>
      </trkpt>
      <trkpt lat="0" lon="0">
        <time>2020-12-06T09:50:36.947000+00:00</time>
      </trkpt>
      <trkpt lat="47.34188" lon="-1.31003">
        <ele>63</ele>
        <time>2020-12-06T09:50:37.976000+00:00</time>
      </trkpt>
      <trkpt lat="0" lon="0">
        <time>2020-12-06T09:50:37.995000+00:00</time>
      </trkpt>
      <trkpt lat="0" lon="0">
        <time>2020-12-06T09:50:38.003000+00:00</time>
      </trkpt>
      <trkpt lat="0" lon="0">
        <time>2020-12-06T09:50:38.007000+00:00</time>
      </trkpt>
      <trkpt lat="47.34185" lon="-1.31005">
        <ele>63</ele>
        <time>2020-12-06T09:50:38.931000+00:00</time>
      </trkpt>
      <trkpt lat="0" lon="0">
        <time>2020-12-06T09:50:38.944000+00:00</time>
      </trkpt>
      <trkpt lat="0" lon="0">
        <time>2020-12-06T09:50:38.950000+00:00</time>
      </trkpt>
      <trkpt lat="0" lon="0">
        <time>2020-12-06T09:50:38.951000+00:00</time>
      </trkpt>
      <trkpt lat="47.34182" lon="-1.31008">
        <ele>63</ele>
        <time>2020-12-06T09:50:39.948000+00:00</time>
      </trkpt>
      <trkpt lat="0" lon="0">
        <time>2020-12-06T09:50:39.952000+00:00</time>
      </trkpt>
      <trkpt lat="0" lon="0">
        <time>2020-12-06T09:50:39.956000+00:00</time>
      </trkpt>
      <trkpt lat="0" lon="0">
        <time>2020-12-06T09:50:39.958000+00:00</time>
      </trkpt>
      <trkpt lat="47.34179" lon="-1.31011">
        <ele>63</ele>
        <time>2020-12-06T09:50:40.968000+00:00</time>
      </trkpt>
      <trkpt lat="0" lon="0">
        <time>2020-12-06T09:50:40.971000+00:00</time>
      </trkpt>
      <trkpt lat="0" lon="0">
        <time>2020-12-06T09:50:40.975000+00:00</time>
      </trkpt>
      <trkpt lat="0" lon="0">
        <time>2020-12-06T09:50:40.976000+00:00</time>
      </trkpt>
      <trkpt lat="47.34175" lon="-1.31013">
        <ele>63</ele>
        <time>2020-12-06T09:50:41.924000+00:00</time>
      </trkpt>
      <trkpt lat="0" lon="0">
        <time>2020-12-06T09:50:41.931000+00:00</time>
      </trkpt>
      <trkpt lat="0" lon="0">
        <time>2020-12-06T09:50:41.935000+00:00</time>
      </trkpt>
      <trkpt lat="0" lon="0">
        <time>2020-12-06T09:50:41.936000+00:00</time>
      </trkpt>
      <trkpt lat="47.34172" lon="-1.31016">
        <ele>63</ele>
        <time>2020-12-06T09:50:42.914000+00:00</time>
      </trkpt>
      <trkpt lat="0" lon="0">
        <time>2020-12-06T09:50:42.921000+00:00</time>
      </trkpt>
      <trkpt lat="0" lon="0">
        <time>2020-12-06T09:50:42.924000+00:00</time>
      </trkpt>
      <trkpt lat="0" lon="0">
        <time>2020-12-06T09:50:42.927000+00:00</time>
      </trkpt>
      <trkpt lat="47.3417" lon="-1.31019">
        <ele>63</ele>
        <time>2020-12-06T09:50:43.909000+00:00</time>
      </trkpt>
      <trkpt lat="0" lon="0">
        <time>2020-12-06T09:50:43.912000+00:00</time>
      </trkpt>
      <trkpt lat="0" lon="0">
        <time>2020-12-06T09:50:43.920000+00:00</time>
      </trkpt>
      <trkpt lat="0" lon="0">
        <time>2020-12-06T09:50:43.922000+00:00</time>
      </trkpt>
      <trkpt lat="47.34167" lon="-1.31021">
        <ele>63</ele>
        <time>2020-12-06T09:50:44.935000+00:00</time>
      </trkpt>
      <trkpt lat="0" lon="0">
        <time>2020-12-06T09:50:44.938000+00:00</time>
      </trkpt>
      <trkpt lat="0" lon="0">
        <time>2020-12-06T09:50:44.951000+00:00</time>
      </trkpt>
      <trkpt lat="0" lon="0">
        <time>2020-12-06T09:50:44.957000+00:00</time>
      </trkpt>
      <trkpt lat="47.34164" lon="-1.31024">
        <ele>63</ele>
        <time>2020-12-06T09:50:45.923000+00:00</time>
      </trkpt>
      <trkpt lat="0" lon="0">
        <time>2020-12-06T09:50:45.934000+00:00</time>
      </trkpt>
      <trkpt lat="0" lon="0">
        <time>2020-12-06T09:50:45.941000+00:00</time>
      </trkpt>
      <trkpt lat="0" lon="0">
        <time>2020-12-06T09:50:45.943000+00:00</time>
      </trkpt>
      <trkpt lat="47.34161" lon="-1.31027">
        <ele>63</ele>
        <time>2020-12-06T09:50:46.938000+00:00</time>
      </trkpt>
      <trkpt lat="0" lon="0">
        <time>2020-12-06T09:50:46.948000+00:00</time>
      </trkpt>
      <trkpt lat="0" lon="0">
        <time>2020-12-06T09:50:46.952000+00:00</time>
      </trkpt>
      <trkpt lat="0" lon="0">
        <time>2020-12-06T09:50:46.955000+00:00</time>
      </trkpt>
      <trkpt lat="47.34158" lon="-1.31029">
        <ele>63</ele>
        <time>2020-12-06T09:50:47.938000+00:00</time>
      </trkpt>
      <trkpt lat="0" lon="0">
        <time>2020-12-06T09:50:47.943000+00:00</time>
      </trkpt>
      <trkpt lat="0" lon="0">
        <time>2020-12-06T09:50:47.947000+00:00</time>
      </trkpt>
      <trkpt lat="0" lon="0">
        <time>2020-12-06T09:50:47.949000+00:00</time>
      </trkpt>
      <trkpt lat="47.34155" lon="-1.31032">
        <ele>64</ele>
        <time>2020-12-06T09:50:48.943000+00:00</time>
      </trkpt>
      <trkpt lat="0" lon="0">
        <time>2020-12-06T09:50:48.952000+00:00</time>
      </trkpt>
      <trkpt lat="0" lon="0">
        <time>2020-12-06T09:50:48.958000+00:00</time>
      </trkpt>
      <trkpt lat="0" lon="0">
        <time>2020-12-06T09:50:48.961000+00:00</time>
      </trkpt>
      <trkpt lat="47.34152" lon="-1.31034">
        <ele>64</ele>
        <time>2020-12-06T09:50:49.936000+00:00</time>
      </trkpt>
      <trkpt lat="0" lon="0">
        <time>2020-12-06T09:50:49.955000+00:00</time>
      </trkpt>
      <trkpt lat="0" lon="0">
        <time>2020-12-06T09:50:49.969000+00:00</time>
      </trkpt>
      <trkpt lat="0" lon="0">
        <time>2020-12-06T09:50:49.974000+00:00</time>
      </trkpt>
      <trkpt lat="47.34149" lon="-1.31037">
        <ele>64</ele>
        <time>2020-12-06T09:50:50.935000+00:00</time>
      </trkpt>
      <trkpt lat="0" lon="0">
        <time>2020-12-06T09:50:50.943000+00:00</time>
      </trkpt>
      <trkpt lat="0" lon="0">
        <time>2020-12-06T09:50:50.947000+00:00</time>
      </trkpt>
      <trkpt lat="0" lon="0">
        <time>2020-12-06T09:50:50.949000+00:00</time>
      </trkpt>
      <trkpt lat="47.34146" lon="-1.31039">
        <ele>64</ele>
        <time>2020-12-06T09:50:51.957000+00:00</time>
      </trkpt>
      <trkpt lat="0" lon="0">
        <time>2020-12-06T09:50:51.966000+00:00</time>
      </trkpt>
      <trkpt lat="0" lon="0">
        <time>2020-12-06T09:50:51.980000+00:00</time>
      </trkpt>
      <trkpt lat="0" lon="0">
        <time>2020-12-06T09:50:51.987000+00:00</time>
      </trkpt>
      <trkpt lat="47.34142" lon="-1.31041">
        <ele>64</ele>
        <time>2020-12-06T09:50:52.954000+00:00</time>
      </trkpt>
      <trkpt lat="0" lon="0">
        <time>2020-12-06T09:50:52.961000+00:00</time>
      </trkpt>
      <trkpt lat="0" lon="0">
        <time>2020-12-06T09:50:52.964000+00:00</time>
      </trkpt>
      <trkpt lat="0" lon="0">
        <time>2020-12-06T09:50:52.969000+00:00</time>
      </trkpt>
      <trkpt lat="47.34139" lon="-1.31044">
        <ele>64</ele>
        <time>2020-12-06T09:50:53.942000+00:00</time>
      </trkpt>
      <trkpt lat="0" lon="0">
        <time>2020-12-06T09:50:53.951000+00:00</time>
      </trkpt>
      <trkpt lat="0" lon="0">
        <time>2020-12-06T09:50:53.954000+00:00</time>
      </trkpt>
      <trkpt lat="0" lon="0">
        <time>2020-12-06T09:50:53.961000+00:00</time>
      </trkpt>
      <trkpt lat="47.34137" lon="-1.31047">
        <ele>64</ele>
        <time>2020-12-06T09:50:54.934000+00:00</time>
      </trkpt>
      <trkpt lat="0" lon="0">
        <time>2020-12-06T09:50:54.954000+00:00</time>
      </trkpt>
      <trkpt lat="0" lon="0">
        <time>2020-12-06T09:50:54.962000+00:00</time>
      </trkpt>
      <trkpt lat="0" lon="0">
        <time>2020-12-06T09:50:54.967000+00:00</time>
      </trkpt>
      <trkpt lat="47.34134" lon="-1.3105">
        <ele>64</ele>
        <time>2020-12-06T09:50:55.908000+00:00</time>
      </trkpt>
      <trkpt lat="0" lon="0">
        <time>2020-12-06T09:50:55.917000+00:00</time>
      </trkpt>
      <trkpt lat="0" lon="0">
        <time>2020-12-06T09:50:55.922000+00:00</time>
      </trkpt>
      <trkpt lat="0" lon="0">
        <time>2020-12-06T09:50:55.924000+00:00</time>
      </trkpt>
      <trkpt lat="47.34131" lon="-1.31053">
        <ele>64</ele>
        <time>2020-12-06T09:50:56.912000+00:00</time>
      </trkpt>
      <trkpt lat="0" lon="0">
        <time>2020-12-06T09:50:56.915000+00:00</time>
      </trkpt>
      <trkpt lat="0" lon="0">
        <time>2020-12-06T09:50:56.917000+00:00</time>
      </trkpt>
      <trkpt lat="0" lon="0">
        <time>2020-12-06T09:50:56.920000+00:00</time>
      </trkpt>
      <trkpt lat="47.34129" lon="-1.31056">
        <ele>64</ele>
        <time>2020-12-06T09:50:57.934000+00:00</time>
      </trkpt>
      <trkpt lat="0" lon="0">
        <time>2020-12-06T09:50:57.938000+00:00</time>
      </trkpt>
      <trkpt lat="0" lon="0">
        <time>2020-12-06T09:50:57.942000+00:00</time>
      </trkpt>
      <trkpt lat="0" lon="0">
        <time>2020-12-06T09:50:57.944000+00:00</time>
      </trkpt>
      <trkpt lat="47.34126" lon="-1.31059">
        <ele>64</ele>
        <time>2020-12-06T09:50:58.924000+00:00</time>
      </trkpt>
      <trkpt lat="0" lon="0">
        <time>2020-12-06T09:50:58.928000+00:00</time>
      </trkpt>
      <trkpt lat="0" lon="0">
        <time>2020-12-06T09:50:58.943000+00:00</time>
      </trkpt>
      <trkpt lat="0" lon="0">
        <time>2020-12-06T09:50:58.946000+00:00</time>
      </trkpt>
      <trkpt lat="47.34124" lon="-1.31063">
        <ele>64</ele>
        <time>2020-12-06T09:50:59.935000+00:00</time>
      </trkpt>
      <trkpt lat="0" lon="0">
        <time>2020-12-06T09:50:59.939000+00:00</time>
      </trkpt>
      <trkpt lat="0" lon="0">
        <time>2020-12-06T09:50:59.948000+00:00</time>
      </trkpt>
      <trkpt lat="0" lon="0">
        <time>2020-12-06T09:50:59.950000+00:00</time>
      </trkpt>
      <trkpt lat="47.34122" lon="-1.31066">
        <ele>64</ele>
        <time>2020-12-06T09:51:00.887000+00:00</time>
      </trkpt>
      <trkpt lat="0" lon="0">
        <time>2020-12-06T09:51:00.897000+00:00</time>
      </trkpt>
      <trkpt lat="0" lon="0">
        <time>2020-12-06T09:51:00.901000+00:00</time>
      </trkpt>
      <trkpt lat="0" lon="0">
        <time>2020-12-06T09:51:00.909000+00:00</time>
      </trkpt>
      <trkpt lat="47.34119" lon="-1.3107">
        <ele>64</ele>
        <time>2020-12-06T09:51:01.947000+00:00</time>
      </trkpt>
      <trkpt lat="0" lon="0">
        <time>2020-12-06T09:51:01.965000+00:00</time>
      </trkpt>
      <trkpt lat="0" lon="0">
        <time>2020-12-06T09:51:01.971000+00:00</time>
      </trkpt>
      <trkpt lat="0" lon="0">
        <time>2020-12-06T09:51:01.981000+00:00</time>
      </trkpt>
      <trkpt lat="47.34117" lon="-1.31074">
        <ele>65</ele>
        <time>2020-12-06T09:51:02.956000+00:00</time>
      </trkpt>
      <trkpt lat="0" lon="0">
        <time>2020-12-06T09:51:02.970000+00:00</time>
      </trkpt>
      <trkpt lat="0" lon="0">
        <time>2020-12-06T09:51:02.974000+00:00</time>
      </trkpt>
      <trkpt lat="0" lon="0">
        <time>2020-12-06T09:51:02.976000+00:00</time>
      </trkpt>
      <trkpt lat="47.34115" lon="-1.31077">
        <ele>65</ele>
        <time>2020-12-06T09:51:03.926000+00:00</time>
      </trkpt>
      <trkpt lat="0" lon="0">
        <time>2020-12-06T09:51:03.941000+00:00</time>
      </trkpt>
      <trkpt lat="0" lon="0">
        <time>2020-12-06T09:51:03.954000+00:00</time>
      </trkpt>
      <trkpt lat="0" lon="0">
        <time>2020-12-06T09:51:03.958000+00:00</time>
      </trkpt>
      <trkpt lat="47.34113" lon="-1.31081">
        <ele>65</ele>
        <time>2020-12-06T09:51:04.934000+00:00</time>
      </trkpt>
      <trkpt lat="0" lon="0">
        <time>2020-12-06T09:51:04.945000+00:00</time>
      </trkpt>
      <trkpt lat="0" lon="0">
        <time>2020-12-06T09:51:04.949000+00:00</time>
      </trkpt>
      <trkpt lat="0" lon="0">
        <time>2020-12-06T09:51:04.952000+00:00</time>
      </trkpt>
      <trkpt lat="47.34111" lon="-1.31085">
        <ele>65</ele>
        <time>2020-12-06T09:51:05.947000+00:00</time>
      </trkpt>
      <trkpt lat="0" lon="0">
        <time>2020-12-06T09:51:05.958000+00:00</time>
      </trkpt>
      <trkpt lat="0" lon="0">
        <time>2020-12-06T09:51:05.963000+00:00</time>
      </trkpt>
      <trkpt lat="0" lon="0">
        <time>2020-12-06T09:51:05.967000+00:00</time>
      </trkpt>
      <trkpt lat="47.34109" lon="-1.31088">
        <ele>65</ele>
        <time>2020-12-06T09:51:06.929000+00:00</time>
      </trkpt>
      <trkpt lat="0" lon="0">
        <time>2020-12-06T09:51:06.933000+00:00</time>
      </trkpt>
      <trkpt lat="0" lon="0">
        <time>2020-12-06T09:51:06.941000+00:00</time>
      </trkpt>
      <trkpt lat="0" lon="0">
        <time>2020-12-06T09:51:06.946000+00:00</time>
      </trkpt>
      <trkpt lat="47.34107" lon="-1.31091">
        <ele>65</ele>
        <time>2020-12-06T09:51:07.948000+00:00</time>
      </trkpt>
      <trkpt lat="0" lon="0">
        <time>2020-12-06T09:51:07.959000+00:00</time>
      </trkpt>
      <trkpt lat="0" lon="0">
        <time>2020-12-06T09:51:07.968000+00:00</time>
      </trkpt>
      <trkpt lat="0" lon="0">
        <time>2020-12-06T09:51:07.971000+00:00</time>
      </trkpt>
      <trkpt lat="47.34105" lon="-1.31094">
        <ele>65</ele>
        <time>2020-12-06T09:51:08.932000+00:00</time>
      </trkpt>
      <trkpt lat="0" lon="0">
        <time>2020-12-06T09:51:08.936000+00:00</time>
      </trkpt>
      <trkpt lat="0" lon="0">
        <time>2020-12-06T09:51:08.945000+00:00</time>
      </trkpt>
      <trkpt lat="0" lon="0">
        <time>2020-12-06T09:51:08.946000+00:00</time>
      </trkpt>
      <trkpt lat="47.34102" lon="-1.31096">
        <ele>65</ele>
        <time>2020-12-06T09:51:09.932000+00:00</time>
      </trkpt>
      <trkpt lat="0" lon="0">
        <time>2020-12-06T09:51:09.939000+00:00</time>
      </trkpt>
      <trkpt lat="0" lon="0">
        <time>2020-12-06T09:51:09.943000+00:00</time>
      </trkpt>
      <trkpt lat="0" lon="0">
        <time>2020-12-06T09:51:09.946000+00:00</time>
      </trkpt>
      <trkpt lat="47.341" lon="-1.31097">
        <ele>65</ele>
        <time>2020-12-06T09:51:10.979000+00:00</time>
      </trkpt>
      <trkpt lat="0" lon="0">
        <time>2020-12-06T09:51:10.991000+00:00</time>
      </trkpt>
      <trkpt lat="0" lon="0">
        <time>2020-12-06T09:51:10.999000+00:00</time>
      </trkpt>
      <trkpt lat="0" lon="0">
        <time>2020-12-06T09:51:11.005000+00:00</time>
      </trkpt>
      <trkpt lat="47.34097" lon="-1.31098">
        <ele>65</ele>
        <time>2020-12-06T09:51:11.963000+00:00</time>
      </trkpt>
      <trkpt lat="0" lon="0">
        <time>2020-12-06T09:51:11.968000+00:00</time>
      </trkpt>
      <trkpt lat="0" lon="0">
        <time>2020-12-06T09:51:11.981000+00:00</time>
      </trkpt>
      <trkpt lat="0" lon="0">
        <time>2020-12-06T09:51:11.985000+00:00</time>
      </trkpt>
      <trkpt lat="47.34094" lon="-1.31099">
        <ele>65</ele>
        <time>2020-12-06T09:51:12.960000+00:00</time>
      </trkpt>
      <trkpt lat="0" lon="0">
        <time>2020-12-06T09:51:12.968000+00:00</time>
      </trkpt>
      <trkpt lat="0" lon="0">
        <time>2020-12-06T09:51:12.973000+00:00</time>
      </trkpt>
      <trkpt lat="0" lon="0">
        <time>2020-12-06T09:51:12.975000+00:00</time>
      </trkpt>
      <trkpt lat="47.3409" lon="-1.31099">
        <ele>65</ele>
        <time>2020-12-06T09:51:13.958000+00:00</time>
      </trkpt>
      <trkpt lat="0" lon="0">
        <time>2020-12-06T09:51:13.968000+00:00</time>
      </trkpt>
      <trkpt lat="0" lon="0">
        <time>2020-12-06T09:51:13.975000+00:00</time>
      </trkpt>
      <trkpt lat="0" lon="0">
        <time>2020-12-06T09:51:13.978000+00:00</time>
      </trkpt>
      <trkpt lat="47.34086" lon="-1.31099">
        <ele>65</ele>
        <time>2020-12-06T09:51:14.971000+00:00</time>
      </trkpt>
      <trkpt lat="0" lon="0">
        <time>2020-12-06T09:51:14.978000+00:00</time>
      </trkpt>
      <trkpt lat="0" lon="0">
        <time>2020-12-06T09:51:14.983000+00:00</time>
      </trkpt>
      <trkpt lat="0" lon="0">
        <time>2020-12-06T09:51:14.985000+00:00</time>
      </trkpt>
      <trkpt lat="47.34082" lon="-1.31099">
        <ele>65</ele>
        <time>2020-12-06T09:51:15.945000+00:00</time>
      </trkpt>
      <trkpt lat="0" lon="0">
        <time>2020-12-06T09:51:15.947000+00:00</time>
      </trkpt>
      <trkpt lat="0" lon="0">
        <time>2020-12-06T09:51:15.948000+00:00</time>
      </trkpt>
      <trkpt lat="0" lon="0">
        <time>2020-12-06T09:51:15.949000+00:00</time>
      </trkpt>
      <trkpt lat="47.34078" lon="-1.31099">
        <ele>65</ele>
        <time>2020-12-06T09:51:16.977000+00:00</time>
      </trkpt>
      <trkpt lat="0" lon="0">
        <time>2020-12-06T09:51:16.981000+00:00</time>
      </trkpt>
      <trkpt lat="0" lon="0">
        <time>2020-12-06T09:51:16.986000+00:00</time>
      </trkpt>
      <trkpt lat="0" lon="0">
        <time>2020-12-06T09:51:16.991000+00:00</time>
      </trkpt>
      <trkpt lat="47.34074" lon="-1.31099">
        <ele>64</ele>
        <time>2020-12-06T09:51:17.948000+00:00</time>
      </trkpt>
      <trkpt lat="0" lon="0">
        <time>2020-12-06T09:51:17.961000+00:00</time>
      </trkpt>
      <trkpt lat="0" lon="0">
        <time>2020-12-06T09:51:17.965000+00:00</time>
      </trkpt>
      <trkpt lat="0" lon="0">
        <time>2020-12-06T09:51:17.967000+00:00</time>
      </trkpt>
      <trkpt lat="47.34069" lon="-1.31099">
        <ele>64</ele>
        <time>2020-12-06T09:51:18.943000+00:00</time>
      </trkpt>
      <trkpt lat="0" lon="0">
        <time>2020-12-06T09:51:18.963000+00:00</time>
      </trkpt>
      <trkpt lat="0" lon="0">
        <time>2020-12-06T09:51:18.967000+00:00</time>
      </trkpt>
      <trkpt lat="0" lon="0">
        <time>2020-12-06T09:51:18.970000+00:00</time>
      </trkpt>
      <trkpt lat="47.34064" lon="-1.31099">
        <ele>64</ele>
        <time>2020-12-06T09:51:19.914000+00:00</time>
      </trkpt>
      <trkpt lat="0" lon="0">
        <time>2020-12-06T09:51:19.932000+00:00</time>
      </trkpt>
      <trkpt lat="0" lon="0">
        <time>2020-12-06T09:51:19.936000+00:00</time>
      </trkpt>
      <trkpt lat="0" lon="0">
        <time>2020-12-06T09:51:19.938000+00:00</time>
      </trkpt>
      <trkpt lat="47.34059" lon="-1.31099">
        <ele>64</ele>
        <time>2020-12-06T09:51:20.940000+00:00</time>
      </trkpt>
      <trkpt lat="0" lon="0">
        <time>2020-12-06T09:51:20.960000+00:00</time>
      </trkpt>
      <trkpt lat="0" lon="0">
        <time>2020-12-06T09:51:20.966000+00:00</time>
      </trkpt>
      <trkpt lat="0" lon="0">
        <time>2020-12-06T09:51:20.968000+00:00</time>
      </trkpt>
      <trkpt lat="47.34053" lon="-1.311">
        <ele>63</ele>
        <time>2020-12-06T09:51:21.972000+00:00</time>
      </trkpt>
      <trkpt lat="0" lon="0">
        <time>2020-12-06T09:51:21.987000+00:00</time>
      </trkpt>
      <trkpt lat="0" lon="0">
        <time>2020-12-06T09:51:21.991000+00:00</time>
      </trkpt>
      <trkpt lat="0" lon="0">
        <time>2020-12-06T09:51:21.999000+00:00</time>
      </trkpt>
      <trkpt lat="47.34048" lon="-1.31102">
        <ele>63</ele>
        <time>2020-12-06T09:51:22.923000+00:00</time>
      </trkpt>
      <trkpt lat="0" lon="0">
        <time>2020-12-06T09:51:22.932000+00:00</time>
      </trkpt>
      <trkpt lat="0" lon="0">
        <time>2020-12-06T09:51:22.937000+00:00</time>
      </trkpt>
      <trkpt lat="0" lon="0">
        <time>2020-12-06T09:51:22.942000+00:00</time>
      </trkpt>
      <trkpt lat="47.34042" lon="-1.31104">
        <ele>63</ele>
        <time>2020-12-06T09:51:23.947000+00:00</time>
      </trkpt>
      <trkpt lat="0" lon="0">
        <time>2020-12-06T09:51:23.958000+00:00</time>
      </trkpt>
      <trkpt lat="0" lon="0">
        <time>2020-12-06T09:51:23.965000+00:00</time>
      </trkpt>
      <trkpt lat="0" lon="0">
        <time>2020-12-06T09:51:23.967000+00:00</time>
      </trkpt>
      <trkpt lat="47.34036" lon="-1.31106">
        <ele>63</ele>
        <time>2020-12-06T09:51:24.939000+00:00</time>
      </trkpt>
      <trkpt lat="0" lon="0">
        <time>2020-12-06T09:51:24.960000+00:00</time>
      </trkpt>
      <trkpt lat="0" lon="0">
        <time>2020-12-06T09:51:24.967000+00:00</time>
      </trkpt>
      <trkpt lat="0" lon="0">
        <time>2020-12-06T09:51:24.972000+00:00</time>
      </trkpt>
      <trkpt lat="47.3403" lon="-1.31109">
        <ele>63</ele>
        <time>2020-12-06T09:51:25.925000+00:00</time>
      </trkpt>
      <trkpt lat="0" lon="0">
        <time>2020-12-06T09:51:25.938000+00:00</time>
      </trkpt>
      <trkpt lat="0" lon="0">
        <time>2020-12-06T09:51:25.944000+00:00</time>
      </trkpt>
      <trkpt lat="0" lon="0">
        <time>2020-12-06T09:51:25.951000+00:00</time>
      </trkpt>
      <trkpt lat="47.34024" lon="-1.31111">
        <ele>62</ele>
        <time>2020-12-06T09:51:26.928000+00:00</time>
      </trkpt>
      <trkpt lat="0" lon="0">
        <time>2020-12-06T09:51:26.939000+00:00</time>
      </trkpt>
      <trkpt lat="0" lon="0">
        <time>2020-12-06T09:51:26.942000+00:00</time>
      </trkpt>
      <trkpt lat="0" lon="0">
        <time>2020-12-06T09:51:26.944000+00:00</time>
      </trkpt>
      <trkpt lat="47.34019" lon="-1.31114">
        <ele>62</ele>
        <time>2020-12-06T09:51:27.954000+00:00</time>
      </trkpt>
      <trkpt lat="0" lon="0">
        <time>2020-12-06T09:51:27.971000+00:00</time>
      </trkpt>
      <trkpt lat="0" lon="0">
        <time>2020-12-06T09:51:27.974000+00:00</time>
      </trkpt>
      <trkpt lat="0" lon="0">
        <time>2020-12-06T09:51:27.980000+00:00</time>
      </trkpt>
      <trkpt lat="47.34013" lon="-1.31118">
        <ele>62</ele>
        <time>2020-12-06T09:51:28.975000+00:00</time>
      </trkpt>
      <trkpt lat="0" lon="0">
        <time>2020-12-06T09:51:28.981000+00:00</time>
      </trkpt>
      <trkpt lat="0" lon="0">
        <time>2020-12-06T09:51:28.990000+00:00</time>
      </trkpt>
      <trkpt lat="0" lon="0">
        <time>2020-12-06T09:51:28.992000+00:00</time>
      </trkpt>
      <trkpt lat="47.34007" lon="-1.31121">
        <ele>62</ele>
        <time>2020-12-06T09:51:29.923000+00:00</time>
      </trkpt>
      <trkpt lat="0" lon="0">
        <time>2020-12-06T09:51:29.937000+00:00</time>
      </trkpt>
      <trkpt lat="0" lon="0">
        <time>2020-12-06T09:51:29.942000+00:00</time>
      </trkpt>
      <trkpt lat="0" lon="0">
        <time>2020-12-06T09:51:29.943000+00:00</time>
      </trkpt>
      <trkpt lat="47.34002" lon="-1.31124">
        <ele>62</ele>
        <time>2020-12-06T09:51:30.933000+00:00</time>
      </trkpt>
      <trkpt lat="0" lon="0">
        <time>2020-12-06T09:51:30.943000+00:00</time>
      </trkpt>
      <trkpt lat="0" lon="0">
        <time>2020-12-06T09:51:30.946000+00:00</time>
      </trkpt>
      <trkpt lat="0" lon="0">
        <time>2020-12-06T09:51:30.948000+00:00</time>
      </trkpt>
      <trkpt lat="47.33997" lon="-1.31127">
        <ele>61</ele>
        <time>2020-12-06T09:51:31.905000+00:00</time>
      </trkpt>
      <trkpt lat="0" lon="0">
        <time>2020-12-06T09:51:31.911000+00:00</time>
      </trkpt>
      <trkpt lat="0" lon="0">
        <time>2020-12-06T09:51:31.915000+00:00</time>
      </trkpt>
      <trkpt lat="0" lon="0">
        <time>2020-12-06T09:51:31.916000+00:00</time>
      </trkpt>
      <trkpt lat="47.33992" lon="-1.31131">
        <ele>61</ele>
        <time>2020-12-06T09:51:32.964000+00:00</time>
      </trkpt>
      <trkpt lat="0" lon="0">
        <time>2020-12-06T09:51:32.971000+00:00</time>
      </trkpt>
      <trkpt lat="0" lon="0">
        <time>2020-12-06T09:51:32.980000+00:00</time>
      </trkpt>
      <trkpt lat="0" lon="0">
        <time>2020-12-06T09:51:32.988000+00:00</time>
      </trkpt>
      <trkpt lat="47.33987" lon="-1.31134">
        <ele>61</ele>
        <time>2020-12-06T09:51:33.932000+00:00</time>
      </trkpt>
      <trkpt lat="0" lon="0">
        <time>2020-12-06T09:51:33.937000+00:00</time>
      </trkpt>
      <trkpt lat="0" lon="0">
        <time>2020-12-06T09:51:33.940000+00:00</time>
      </trkpt>
      <trkpt lat="0" lon="0">
        <time>2020-12-06T09:51:33.943000+00:00</time>
      </trkpt>
      <trkpt lat="47.33982" lon="-1.31138">
        <ele>61</ele>
        <time>2020-12-06T09:51:34.908000+00:00</time>
      </trkpt>
      <trkpt lat="0" lon="0">
        <time>2020-12-06T09:51:34.915000+00:00</time>
      </trkpt>
      <trkpt lat="0" lon="0">
        <time>2020-12-06T09:51:34.917000+00:00</time>
      </trkpt>
      <trkpt lat="0" lon="0">
        <time>2020-12-06T09:51:34.918000+00:00</time>
      </trkpt>
      <trkpt lat="47.33977" lon="-1.31142">
        <ele>61</ele>
        <time>2020-12-06T09:51:35.941000+00:00</time>
      </trkpt>
      <trkpt lat="0" lon="0">
        <time>2020-12-06T09:51:35.951000+00:00</time>
      </trkpt>
      <trkpt lat="0" lon="0">
        <time>2020-12-06T09:51:35.958000+00:00</time>
      </trkpt>
      <trkpt lat="0" lon="0">
        <time>2020-12-06T09:51:35.961000+00:00</time>
      </trkpt>
      <trkpt lat="47.33972" lon="-1.31146">
        <ele>61</ele>
        <time>2020-12-06T09:51:36.927000+00:00</time>
      </trkpt>
      <trkpt lat="0" lon="0">
        <time>2020-12-06T09:51:36.939000+00:00</time>
      </trkpt>
      <trkpt lat="0" lon="0">
        <time>2020-12-06T09:51:36.942000+00:00</time>
      </trkpt>
      <trkpt lat="0" lon="0">
        <time>2020-12-06T09:51:36.951000+00:00</time>
      </trkpt>
      <trkpt lat="47.33967" lon="-1.3115">
        <ele>61</ele>
        <time>2020-12-06T09:51:37.916000+00:00</time>
      </trkpt>
      <trkpt lat="0" lon="0">
        <time>2020-12-06T09:51:37.929000+00:00</time>
      </trkpt>
      <trkpt lat="0" lon="0">
        <time>2020-12-06T09:51:37.937000+00:00</time>
      </trkpt>
      <trkpt lat="0" lon="0">
        <time>2020-12-06T09:51:37.938000+00:00</time>
      </trkpt>
      <trkpt lat="47.33962" lon="-1.31154">
        <ele>61</ele>
        <time>2020-12-06T09:51:38.906000+00:00</time>
      </trkpt>
      <trkpt lat="0" lon="0">
        <time>2020-12-06T09:51:38.910000+00:00</time>
      </trkpt>
      <trkpt lat="0" lon="0">
        <time>2020-12-06T09:51:38.918000+00:00</time>
      </trkpt>
      <trkpt lat="0" lon="0">
        <time>2020-12-06T09:51:38.922000+00:00</time>
      </trkpt>
      <trkpt lat="47.33957" lon="-1.31159">
        <ele>61</ele>
        <time>2020-12-06T09:51:39.942000+00:00</time>
      </trkpt>
      <trkpt lat="0" lon="0">
        <time>2020-12-06T09:51:39.948000+00:00</time>
      </trkpt>
      <trkpt lat="0" lon="0">
        <time>2020-12-06T09:51:39.957000+00:00</time>
      </trkpt>
      <trkpt lat="0" lon="0">
        <time>2020-12-06T09:51:39.960000+00:00</time>
      </trkpt>
      <trkpt lat="47.33952" lon="-1.31165">
        <ele>61</ele>
        <time>2020-12-06T09:51:40.982000+00:00</time>
      </trkpt>
      <trkpt lat="0" lon="0">
        <time>2020-12-06T09:51:40.999000+00:00</time>
      </trkpt>
      <trkpt lat="0" lon="0">
        <time>2020-12-06T09:51:41.004000+00:00</time>
      </trkpt>
      <trkpt lat="0" lon="0">
        <time>2020-12-06T09:51:41.005000+00:00</time>
      </trkpt>
      <trkpt lat="47.33947" lon="-1.31171">
        <ele>61</ele>
        <time>2020-12-06T09:51:41.927000+00:00</time>
      </trkpt>
      <trkpt lat="0" lon="0">
        <time>2020-12-06T09:51:41.934000+00:00</time>
      </trkpt>
      <trkpt lat="0" lon="0">
        <time>2020-12-06T09:51:41.936000+00:00</time>
      </trkpt>
      <trkpt lat="47.33943" lon="-1.31177">
        <ele>62</ele>
        <time>2020-12-06T09:51:42.984000+00:00</time>
      </trkpt>
      <trkpt lat="0" lon="0">
        <time>2020-12-06T09:51:42.992000+00:00</time>
      </trkpt>
      <trkpt lat="0" lon="0">
        <time>2020-12-06T09:51:42.998000+00:00</time>
      </trkpt>
      <trkpt lat="0" lon="0">
        <time>2020-12-06T09:51:42.999000+00:00</time>
      </trkpt>
      <trkpt lat="47.33939" lon="-1.31184">
        <ele>62</ele>
        <time>2020-12-06T09:51:43.950000+00:00</time>
      </trkpt>
      <trkpt lat="0" lon="0">
        <time>2020-12-06T09:51:43.952000+00:00</time>
      </trkpt>
      <trkpt lat="0" lon="0">
        <time>2020-12-06T09:51:43.955000+00:00</time>
      </trkpt>
      <trkpt lat="0" lon="0">
        <time>2020-12-06T09:51:43.956000+00:00</time>
      </trkpt>
      <trkpt lat="47.33935" lon="-1.31192">
        <ele>62</ele>
        <time>2020-12-06T09:51:44.953000+00:00</time>
      </trkpt>
      <trkpt lat="0" lon="0">
        <time>2020-12-06T09:51:44.969000+00:00</time>
      </trkpt>
      <trkpt lat="0" lon="0">
        <time>2020-12-06T09:51:44.975000+00:00</time>
      </trkpt>
      <trkpt lat="0" lon="0">
        <time>2020-12-06T09:51:44.976000+00:00</time>
      </trkpt>
      <trkpt lat="47.33931" lon="-1.312">
        <ele>63</ele>
        <time>2020-12-06T09:51:45.960000+00:00</time>
      </trkpt>
      <trkpt lat="0" lon="0">
        <time>2020-12-06T09:51:45.973000+00:00</time>
      </trkpt>
      <trkpt lat="0" lon="0">
        <time>2020-12-06T09:51:45.979000+00:00</time>
      </trkpt>
      <trkpt lat="0" lon="0">
        <time>2020-12-06T09:51:45.981000+00:00</time>
      </trkpt>
      <trkpt lat="47.33927" lon="-1.31208">
        <ele>63</ele>
        <time>2020-12-06T09:51:46.936000+00:00</time>
      </trkpt>
      <trkpt lat="0" lon="0">
        <time>2020-12-06T09:51:46.944000+00:00</time>
      </trkpt>
      <trkpt lat="0" lon="0">
        <time>2020-12-06T09:51:46.952000+00:00</time>
      </trkpt>
      <trkpt lat="0" lon="0">
        <time>2020-12-06T09:51:46.953000+00:00</time>
      </trkpt>
      <trkpt lat="47.33924" lon="-1.31216">
        <ele>63</ele>
        <time>2020-12-06T09:51:47.941000+00:00</time>
      </trkpt>
      <trkpt lat="0" lon="0">
        <time>2020-12-06T09:51:47.949000+00:00</time>
      </trkpt>
      <trkpt lat="0" lon="0">
        <time>2020-12-06T09:51:47.953000+00:00</time>
      </trkpt>
      <trkpt lat="0" lon="0">
        <time>2020-12-06T09:51:47.954000+00:00</time>
      </trkpt>
      <trkpt lat="47.3392" lon="-1.31224">
        <ele>64</ele>
        <time>2020-12-06T09:51:48.947000+00:00</time>
      </trkpt>
      <trkpt lat="0" lon="0">
        <time>2020-12-06T09:51:48.951000+00:00</time>
      </trkpt>
      <trkpt lat="0" lon="0">
        <time>2020-12-06T09:51:48.963000+00:00</time>
      </trkpt>
      <trkpt lat="0" lon="0">
        <time>2020-12-06T09:51:48.970000+00:00</time>
      </trkpt>
      <trkpt lat="47.33916" lon="-1.31232">
        <ele>64</ele>
        <time>2020-12-06T09:51:49.935000+00:00</time>
      </trkpt>
      <trkpt lat="0" lon="0">
        <time>2020-12-06T09:51:49.948000+00:00</time>
      </trkpt>
      <trkpt lat="0" lon="0">
        <time>2020-12-06T09:51:49.952000+00:00</time>
      </trkpt>
      <trkpt lat="0" lon="0">
        <time>2020-12-06T09:51:49.953000+00:00</time>
      </trkpt>
      <trkpt lat="47.33912" lon="-1.31239">
        <ele>65</ele>
        <time>2020-12-06T09:51:50.946000+00:00</time>
      </trkpt>
      <trkpt lat="0" lon="0">
        <time>2020-12-06T09:51:50.960000+00:00</time>
      </trkpt>
      <trkpt lat="0" lon="0">
        <time>2020-12-06T09:51:50.963000+00:00</time>
      </trkpt>
      <trkpt lat="0" lon="0">
        <time>2020-12-06T09:51:50.965000+00:00</time>
      </trkpt>
      <trkpt lat="47.33908" lon="-1.31247">
        <ele>65</ele>
        <time>2020-12-06T09:51:51.917000+00:00</time>
      </trkpt>
      <trkpt lat="0" lon="0">
        <time>2020-12-06T09:51:51.930000+00:00</time>
      </trkpt>
      <trkpt lat="0" lon="0">
        <time>2020-12-06T09:51:51.934000+00:00</time>
      </trkpt>
      <trkpt lat="0" lon="0">
        <time>2020-12-06T09:51:51.940000+00:00</time>
      </trkpt>
      <trkpt lat="47.33905" lon="-1.31254">
        <ele>65</ele>
        <time>2020-12-06T09:51:52.959000+00:00</time>
      </trkpt>
      <trkpt lat="0" lon="0">
        <time>2020-12-06T09:51:52.963000+00:00</time>
      </trkpt>
      <trkpt lat="0" lon="0">
        <time>2020-12-06T09:51:52.967000+00:00</time>
      </trkpt>
      <trkpt lat="0" lon="0">
        <time>2020-12-06T09:51:52.968000+00:00</time>
      </trkpt>
      <trkpt lat="47.33901" lon="-1.31261">
        <ele>65</ele>
        <time>2020-12-06T09:51:53.964000+00:00</time>
      </trkpt>
      <trkpt lat="0" lon="0">
        <time>2020-12-06T09:51:53.971000+00:00</time>
      </trkpt>
      <trkpt lat="0" lon="0">
        <time>2020-12-06T09:51:53.977000+00:00</time>
      </trkpt>
      <trkpt lat="0" lon="0">
        <time>2020-12-06T09:51:53.979000+00:00</time>
      </trkpt>
      <trkpt lat="47.33897" lon="-1.31268">
        <ele>65</ele>
        <time>2020-12-06T09:51:54.930000+00:00</time>
      </trkpt>
      <trkpt lat="0" lon="0">
        <time>2020-12-06T09:51:54.939000+00:00</time>
      </trkpt>
      <trkpt lat="0" lon="0">
        <time>2020-12-06T09:51:54.950000+00:00</time>
      </trkpt>
      <trkpt lat="0" lon="0">
        <time>2020-12-06T09:51:54.952000+00:00</time>
      </trkpt>
      <trkpt lat="47.33893" lon="-1.31275">
        <ele>66</ele>
        <time>2020-12-06T09:51:55.951000+00:00</time>
      </trkpt>
      <trkpt lat="0" lon="0">
        <time>2020-12-06T09:51:55.958000+00:00</time>
      </trkpt>
      <trkpt lat="0" lon="0">
        <time>2020-12-06T09:51:55.968000+00:00</time>
      </trkpt>
      <trkpt lat="0" lon="0">
        <time>2020-12-06T09:51:55.970000+00:00</time>
      </trkpt>
      <trkpt lat="47.33889" lon="-1.31281">
        <ele>66</ele>
        <time>2020-12-06T09:51:56.962000+00:00</time>
      </trkpt>
      <trkpt lat="0" lon="0">
        <time>2020-12-06T09:51:56.968000+00:00</time>
      </trkpt>
      <trkpt lat="0" lon="0">
        <time>2020-12-06T09:51:56.978000+00:00</time>
      </trkpt>
      <trkpt lat="0" lon="0">
        <time>2020-12-06T09:51:56.984000+00:00</time>
      </trkpt>
      <trkpt lat="47.33885" lon="-1.31288">
        <ele>66</ele>
        <time>2020-12-06T09:51:57.939000+00:00</time>
      </trkpt>
      <trkpt lat="0" lon="0">
        <time>2020-12-06T09:51:57.958000+00:00</time>
      </trkpt>
      <trkpt lat="0" lon="0">
        <time>2020-12-06T09:51:57.963000+00:00</time>
      </trkpt>
      <trkpt lat="0" lon="0">
        <time>2020-12-06T09:51:57.965000+00:00</time>
      </trkpt>
      <trkpt lat="47.33881" lon="-1.31294">
        <ele>66</ele>
        <time>2020-12-06T09:51:58.958000+00:00</time>
      </trkpt>
      <trkpt lat="0" lon="0">
        <time>2020-12-06T09:51:58.968000+00:00</time>
      </trkpt>
      <trkpt lat="0" lon="0">
        <time>2020-12-06T09:51:58.973000+00:00</time>
      </trkpt>
      <trkpt lat="0" lon="0">
        <time>2020-12-06T09:51:58.975000+00:00</time>
      </trkpt>
      <trkpt lat="47.33877" lon="-1.313">
        <ele>66</ele>
        <time>2020-12-06T09:51:59.964000+00:00</time>
      </trkpt>
      <trkpt lat="0" lon="0">
        <time>2020-12-06T09:51:59.982000+00:00</time>
      </trkpt>
      <trkpt lat="0" lon="0">
        <time>2020-12-06T09:51:59.985000+00:00</time>
      </trkpt>
      <trkpt lat="0" lon="0">
        <time>2020-12-06T09:51:59.989000+00:00</time>
      </trkpt>
      <trkpt lat="47.33873" lon="-1.31306">
        <ele>66</ele>
        <time>2020-12-06T09:52:00.962000+00:00</time>
      </trkpt>
      <trkpt lat="0" lon="0">
        <time>2020-12-06T09:52:00.975000+00:00</time>
      </trkpt>
      <trkpt lat="0" lon="0">
        <time>2020-12-06T09:52:00.979000+00:00</time>
      </trkpt>
      <trkpt lat="0" lon="0">
        <time>2020-12-06T09:52:00.980000+00:00</time>
      </trkpt>
      <trkpt lat="47.33869" lon="-1.31312">
        <ele>66</ele>
        <time>2020-12-06T09:52:01.918000+00:00</time>
      </trkpt>
      <trkpt lat="0" lon="0">
        <time>2020-12-06T09:52:01.922000+00:00</time>
      </trkpt>
      <trkpt lat="0" lon="0">
        <time>2020-12-06T09:52:01.926000+00:00</time>
      </trkpt>
      <trkpt lat="0" lon="0">
        <time>2020-12-06T09:52:01.928000+00:00</time>
      </trkpt>
      <trkpt lat="47.33865" lon="-1.31317">
        <ele>66</ele>
        <time>2020-12-06T09:52:02.935000+00:00</time>
      </trkpt>
      <trkpt lat="0" lon="0">
        <time>2020-12-06T09:52:02.940000+00:00</time>
      </trkpt>
      <trkpt lat="0" lon="0">
        <time>2020-12-06T09:52:02.944000+00:00</time>
      </trkpt>
      <trkpt lat="0" lon="0">
        <time>2020-12-06T09:52:02.946000+00:00</time>
      </trkpt>
      <trkpt lat="47.33862" lon="-1.31323">
        <ele>66</ele>
        <time>2020-12-06T09:52:03.937000+00:00</time>
      </trkpt>
      <trkpt lat="0" lon="0">
        <time>2020-12-06T09:52:03.946000+00:00</time>
      </trkpt>
      <trkpt lat="0" lon="0">
        <time>2020-12-06T09:52:03.949000+00:00</time>
      </trkpt>
      <trkpt lat="0" lon="0">
        <time>2020-12-06T09:52:03.952000+00:00</time>
      </trkpt>
      <trkpt lat="47.33858" lon="-1.31329">
        <ele>66</ele>
        <time>2020-12-06T09:52:04.954000+00:00</time>
      </trkpt>
      <trkpt lat="0" lon="0">
        <time>2020-12-06T09:52:04.958000+00:00</time>
      </trkpt>
      <trkpt lat="0" lon="0">
        <time>2020-12-06T09:52:04.966000+00:00</time>
      </trkpt>
      <trkpt lat="0" lon="0">
        <time>2020-12-06T09:52:04.968000+00:00</time>
      </trkpt>
      <trkpt lat="47.33854" lon="-1.31334">
        <ele>66</ele>
        <time>2020-12-06T09:52:05.952000+00:00</time>
      </trkpt>
      <trkpt lat="0" lon="0">
        <time>2020-12-06T09:52:05.967000+00:00</time>
      </trkpt>
      <trkpt lat="0" lon="0">
        <time>2020-12-06T09:52:05.979000+00:00</time>
      </trkpt>
      <trkpt lat="0" lon="0">
        <time>2020-12-06T09:52:05.982000+00:00</time>
      </trkpt>
      <trkpt lat="47.33851" lon="-1.3134">
        <ele>66</ele>
        <time>2020-12-06T09:52:07+00:00</time>
      </trkpt>
      <trkpt lat="0" lon="0">
        <time>2020-12-06T09:52:07.006000+00:00</time>
      </trkpt>
      <trkpt lat="0" lon="0">
        <time>2020-12-06T09:52:07.012000+00:00</time>
      </trkpt>
      <trkpt lat="0" lon="0">
        <time>2020-12-06T09:52:07.014000+00:00</time>
      </trkpt>
      <trkpt lat="47.33847" lon="-1.31346">
        <ele>67</ele>
        <time>2020-12-06T09:52:07.962000+00:00</time>
      </trkpt>
      <trkpt lat="0" lon="0">
        <time>2020-12-06T09:52:07.968000+00:00</time>
      </trkpt>
      <trkpt lat="0" lon="0">
        <time>2020-12-06T09:52:07.970000+00:00</time>
      </trkpt>
      <trkpt lat="0" lon="0">
        <time>2020-12-06T09:52:07.971000+00:00</time>
      </trkpt>
      <trkpt lat="47.33844" lon="-1.31351">
        <ele>67</ele>
        <time>2020-12-06T09:52:08.950000+00:00</time>
      </trkpt>
      <trkpt lat="0" lon="0">
        <time>2020-12-06T09:52:08.958000+00:00</time>
      </trkpt>
      <trkpt lat="0" lon="0">
        <time>2020-12-06T09:52:08.964000+00:00</time>
      </trkpt>
      <trkpt lat="0" lon="0">
        <time>2020-12-06T09:52:08.966000+00:00</time>
      </trkpt>
      <trkpt lat="47.33841" lon="-1.31358">
        <ele>67</ele>
        <time>2020-12-06T09:52:09.938000+00:00</time>
      </trkpt>
      <trkpt lat="0" lon="0">
        <time>2020-12-06T09:52:09.953000+00:00</time>
      </trkpt>
      <trkpt lat="0" lon="0">
        <time>2020-12-06T09:52:09.958000+00:00</time>
      </trkpt>
      <trkpt lat="0" lon="0">
        <time>2020-12-06T09:52:09.961000+00:00</time>
      </trkpt>
      <trkpt lat="47.33838" lon="-1.31364">
        <ele>68</ele>
        <time>2020-12-06T09:52:10.971000+00:00</time>
      </trkpt>
      <trkpt lat="0" lon="0">
        <time>2020-12-06T09:52:10.976000+00:00</time>
      </trkpt>
      <trkpt lat="0" lon="0">
        <time>2020-12-06T09:52:10.986000+00:00</time>
      </trkpt>
      <trkpt lat="0" lon="0">
        <time>2020-12-06T09:52:10.989000+00:00</time>
      </trkpt>
      <trkpt lat="47.33835" lon="-1.3137">
        <ele>68</ele>
        <time>2020-12-06T09:52:11.942000+00:00</time>
      </trkpt>
      <trkpt lat="0" lon="0">
        <time>2020-12-06T09:52:11.948000+00:00</time>
      </trkpt>
      <trkpt lat="0" lon="0">
        <time>2020-12-06T09:52:11.952000+00:00</time>
      </trkpt>
      <trkpt lat="0" lon="0">
        <time>2020-12-06T09:52:11.955000+00:00</time>
      </trkpt>
      <trkpt lat="47.33832" lon="-1.31377">
        <ele>69</ele>
        <time>2020-12-06T09:52:12.960000+00:00</time>
      </trkpt>
      <trkpt lat="0" lon="0">
        <time>2020-12-06T09:52:12.963000+00:00</time>
      </trkpt>
      <trkpt lat="0" lon="0">
        <time>2020-12-06T09:52:12.967000+00:00</time>
      </trkpt>
      <trkpt lat="0" lon="0">
        <time>2020-12-06T09:52:12.971000+00:00</time>
      </trkpt>
      <trkpt lat="47.33829" lon="-1.31384">
        <ele>69</ele>
        <time>2020-12-06T09:52:13.942000+00:00</time>
      </trkpt>
      <trkpt lat="0" lon="0">
        <time>2020-12-06T09:52:13.961000+00:00</time>
      </trkpt>
      <trkpt lat="0" lon="0">
        <time>2020-12-06T09:52:13.968000+00:00</time>
      </trkpt>
      <trkpt lat="0" lon="0">
        <time>2020-12-06T09:52:13.974000+00:00</time>
      </trkpt>
      <trkpt lat="47.33827" lon="-1.31391">
        <ele>70</ele>
        <time>2020-12-06T09:52:14.997000+00:00</time>
      </trkpt>
      <trkpt lat="0" lon="0">
        <time>2020-12-06T09:52:15.004000+00:00</time>
      </trkpt>
      <trkpt lat="0" lon="0">
        <time>2020-12-06T09:52:15.007000+00:00</time>
      </trkpt>
      <trkpt lat="0" lon="0">
        <time>2020-12-06T09:52:15.009000+00:00</time>
      </trkpt>
      <trkpt lat="47.33824" lon="-1.31398">
        <ele>70</ele>
        <time>2020-12-06T09:52:15.972000+00:00</time>
      </trkpt>
      <trkpt lat="0" lon="0">
        <time>2020-12-06T09:52:15.992000+00:00</time>
      </trkpt>
      <trkpt lat="0" lon="0">
        <time>2020-12-06T09:52:15.998000+00:00</time>
      </trkpt>
      <trkpt lat="0" lon="0">
        <time>2020-12-06T09:52:16.002000+00:00</time>
      </trkpt>
      <trkpt lat="47.33822" lon="-1.31405">
        <ele>70</ele>
        <time>2020-12-06T09:52:16.931000+00:00</time>
      </trkpt>
      <trkpt lat="0" lon="0">
        <time>2020-12-06T09:52:16.936000+00:00</time>
      </trkpt>
      <trkpt lat="0" lon="0">
        <time>2020-12-06T09:52:16.950000+00:00</time>
      </trkpt>
      <trkpt lat="0" lon="0">
        <time>2020-12-06T09:52:16.957000+00:00</time>
      </trkpt>
      <trkpt lat="47.3382" lon="-1.31412">
        <ele>71</ele>
        <time>2020-12-06T09:52:17.979000+00:00</time>
      </trkpt>
      <trkpt lat="0" lon="0">
        <time>2020-12-06T09:52:17.999000+00:00</time>
      </trkpt>
      <trkpt lat="0" lon="0">
        <time>2020-12-06T09:52:18.007000+00:00</time>
      </trkpt>
      <trkpt lat="0" lon="0">
        <time>2020-12-06T09:52:18.012000+00:00</time>
      </trkpt>
      <trkpt lat="47.33818" lon="-1.31418">
        <ele>71</ele>
        <time>2020-12-06T09:52:18.904000+00:00</time>
      </trkpt>
      <trkpt lat="0" lon="0">
        <time>2020-12-06T09:52:18.908000+00:00</time>
      </trkpt>
      <trkpt lat="0" lon="0">
        <time>2020-12-06T09:52:18.913000+00:00</time>
      </trkpt>
      <trkpt lat="0" lon="0">
        <time>2020-12-06T09:52:18.915000+00:00</time>
      </trkpt>
      <trkpt lat="47.33816" lon="-1.31425">
        <ele>71</ele>
        <time>2020-12-06T09:52:19.985000+00:00</time>
      </trkpt>
      <trkpt lat="0" lon="0">
        <time>2020-12-06T09:52:20.001000+00:00</time>
      </trkpt>
      <trkpt lat="0" lon="0">
        <time>2020-12-06T09:52:20.005000+00:00</time>
      </trkpt>
      <trkpt lat="0" lon="0">
        <time>2020-12-06T09:52:20.009000+00:00</time>
      </trkpt>
      <trkpt lat="47.33814" lon="-1.31431">
        <ele>71</ele>
        <time>2020-12-06T09:52:20.994000+00:00</time>
      </trkpt>
      <trkpt lat="0" lon="0">
        <time>2020-12-06T09:52:20.999000+00:00</time>
      </trkpt>
      <trkpt lat="0" lon="0">
        <time>2020-12-06T09:52:21.007000+00:00</time>
      </trkpt>
      <trkpt lat="0" lon="0">
        <time>2020-12-06T09:52:21.010000+00:00</time>
      </trkpt>
      <trkpt lat="47.33812" lon="-1.31437">
        <ele>71</ele>
        <time>2020-12-06T09:52:21.982000+00:00</time>
      </trkpt>
      <trkpt lat="0" lon="0">
        <time>2020-12-06T09:52:21.993000+00:00</time>
      </trkpt>
      <trkpt lat="0" lon="0">
        <time>2020-12-06T09:52:22+00:00</time>
      </trkpt>
      <trkpt lat="0" lon="0">
        <time>2020-12-06T09:52:22.002000+00:00</time>
      </trkpt>
      <trkpt lat="47.3381" lon="-1.31443">
        <ele>72</ele>
        <time>2020-12-06T09:52:22.942000+00:00</time>
      </trkpt>
      <trkpt lat="0" lon="0">
        <time>2020-12-06T09:52:22.953000+00:00</time>
      </trkpt>
      <trkpt lat="0" lon="0">
        <time>2020-12-06T09:52:22.956000+00:00</time>
      </trkpt>
      <trkpt lat="0" lon="0">
        <time>2020-12-06T09:52:22.958000+00:00</time>
      </trkpt>
      <trkpt lat="47.33809" lon="-1.31448">
        <ele>72</ele>
        <time>2020-12-06T09:52:23.908000+00:00</time>
      </trkpt>
      <trkpt lat="0" lon="0">
        <time>2020-12-06T09:52:23.911000+00:00</time>
      </trkpt>
      <trkpt lat="0" lon="0">
        <time>2020-12-06T09:52:23.914000+00:00</time>
      </trkpt>
      <trkpt lat="0" lon="0">
        <time>2020-12-06T09:52:23.916000+00:00</time>
      </trkpt>
      <trkpt lat="47.33807" lon="-1.31454">
        <ele>72</ele>
        <time>2020-12-06T09:52:24.968000+00:00</time>
      </trkpt>
      <trkpt lat="0" lon="0">
        <time>2020-12-06T09:52:24.973000+00:00</time>
      </trkpt>
      <trkpt lat="0" lon="0">
        <time>2020-12-06T09:52:24.975000+00:00</time>
      </trkpt>
      <trkpt lat="0" lon="0">
        <time>2020-12-06T09:52:24.978000+00:00</time>
      </trkpt>
      <trkpt lat="47.33806" lon="-1.3146">
        <ele>72</ele>
        <time>2020-12-06T09:52:25.962000+00:00</time>
      </trkpt>
      <trkpt lat="0" lon="0">
        <time>2020-12-06T09:52:25.968000+00:00</time>
      </trkpt>
      <trkpt lat="0" lon="0">
        <time>2020-12-06T09:52:25.972000+00:00</time>
      </trkpt>
      <trkpt lat="0" lon="0">
        <time>2020-12-06T09:52:25.980000+00:00</time>
      </trkpt>
      <trkpt lat="47.33804" lon="-1.31466">
        <ele>72</ele>
        <time>2020-12-06T09:52:26.966000+00:00</time>
      </trkpt>
      <trkpt lat="0" lon="0">
        <time>2020-12-06T09:52:26.981000+00:00</time>
      </trkpt>
      <trkpt lat="0" lon="0">
        <time>2020-12-06T09:52:26.984000+00:00</time>
      </trkpt>
      <trkpt lat="0" lon="0">
        <time>2020-12-06T09:52:26.986000+00:00</time>
      </trkpt>
      <trkpt lat="47.33802" lon="-1.31472">
        <ele>71</ele>
        <time>2020-12-06T09:52:27.961000+00:00</time>
      </trkpt>
      <trkpt lat="0" lon="0">
        <time>2020-12-06T09:52:27.968000+00:00</time>
      </trkpt>
      <trkpt lat="0" lon="0">
        <time>2020-12-06T09:52:27.974000+00:00</time>
      </trkpt>
      <trkpt lat="0" lon="0">
        <time>2020-12-06T09:52:27.977000+00:00</time>
      </trkpt>
      <trkpt lat="47.33801" lon="-1.31477">
        <ele>71</ele>
        <time>2020-12-06T09:52:28.917000+00:00</time>
      </trkpt>
      <trkpt lat="0" lon="0">
        <time>2020-12-06T09:52:28.932000+00:00</time>
      </trkpt>
      <trkpt lat="0" lon="0">
        <time>2020-12-06T09:52:28.940000+00:00</time>
      </trkpt>
      <trkpt lat="0" lon="0">
        <time>2020-12-06T09:52:28.947000+00:00</time>
      </trkpt>
      <trkpt lat="47.33799" lon="-1.31483">
        <ele>71</ele>
        <time>2020-12-06T09:52:29.942000+00:00</time>
      </trkpt>
      <trkpt lat="0" lon="0">
        <time>2020-12-06T09:52:29.955000+00:00</time>
      </trkpt>
      <trkpt lat="0" lon="0">
        <time>2020-12-06T09:52:29.961000+00:00</time>
      </trkpt>
      <trkpt lat="0" lon="0">
        <time>2020-12-06T09:52:29.965000+00:00</time>
      </trkpt>
      <trkpt lat="47.33797" lon="-1.31489">
        <ele>71</ele>
        <time>2020-12-06T09:52:30.928000+00:00</time>
      </trkpt>
      <trkpt lat="0" lon="0">
        <time>2020-12-06T09:52:30.936000+00:00</time>
      </trkpt>
      <trkpt lat="0" lon="0">
        <time>2020-12-06T09:52:30.940000+00:00</time>
      </trkpt>
      <trkpt lat="0" lon="0">
        <time>2020-12-06T09:52:30.943000+00:00</time>
      </trkpt>
      <trkpt lat="47.33796" lon="-1.31495">
        <ele>71</ele>
        <time>2020-12-06T09:52:31.946000+00:00</time>
      </trkpt>
      <trkpt lat="0" lon="0">
        <time>2020-12-06T09:52:31.952000+00:00</time>
      </trkpt>
      <trkpt lat="0" lon="0">
        <time>2020-12-06T09:52:31.960000+00:00</time>
      </trkpt>
      <trkpt lat="0" lon="0">
        <time>2020-12-06T09:52:31.963000+00:00</time>
      </trkpt>
      <trkpt lat="47.33794" lon="-1.31501">
        <ele>71</ele>
        <time>2020-12-06T09:52:32.967000+00:00</time>
      </trkpt>
      <trkpt lat="0" lon="0">
        <time>2020-12-06T09:52:32.970000+00:00</time>
      </trkpt>
      <trkpt lat="0" lon="0">
        <time>2020-12-06T09:52:32.974000+00:00</time>
      </trkpt>
      <trkpt lat="0" lon="0">
        <time>2020-12-06T09:52:32.976000+00:00</time>
      </trkpt>
      <trkpt lat="47.33792" lon="-1.31506">
        <ele>71</ele>
        <time>2020-12-06T09:52:33.952000+00:00</time>
      </trkpt>
      <trkpt lat="0" lon="0">
        <time>2020-12-06T09:52:33.958000+00:00</time>
      </trkpt>
      <trkpt lat="0" lon="0">
        <time>2020-12-06T09:52:33.967000+00:00</time>
      </trkpt>
      <trkpt lat="0" lon="0">
        <time>2020-12-06T09:52:33.974000+00:00</time>
      </trkpt>
      <trkpt lat="47.3379" lon="-1.31512">
        <ele>70</ele>
        <time>2020-12-06T09:52:34.920000+00:00</time>
      </trkpt>
      <trkpt lat="0" lon="0">
        <time>2020-12-06T09:52:34.936000+00:00</time>
      </trkpt>
      <trkpt lat="0" lon="0">
        <time>2020-12-06T09:52:34.940000+00:00</time>
      </trkpt>
      <trkpt lat="0" lon="0">
        <time>2020-12-06T09:52:34.941000+00:00</time>
      </trkpt>
      <trkpt lat="47.33788" lon="-1.31518">
        <ele>70</ele>
        <time>2020-12-06T09:52:35.932000+00:00</time>
      </trkpt>
      <trkpt lat="0" lon="0">
        <time>2020-12-06T09:52:35.943000+00:00</time>
      </trkpt>
      <trkpt lat="0" lon="0">
        <time>2020-12-06T09:52:35.950000+00:00</time>
      </trkpt>
      <trkpt lat="0" lon="0">
        <time>2020-12-06T09:52:35.956000+00:00</time>
      </trkpt>
      <trkpt lat="47.33786" lon="-1.31523">
        <ele>70</ele>
        <time>2020-12-06T09:52:36.927000+00:00</time>
      </trkpt>
      <trkpt lat="0" lon="0">
        <time>2020-12-06T09:52:36.940000+00:00</time>
      </trkpt>
      <trkpt lat="0" lon="0">
        <time>2020-12-06T09:52:36.954000+00:00</time>
      </trkpt>
      <trkpt lat="0" lon="0">
        <time>2020-12-06T09:52:36.960000+00:00</time>
      </trkpt>
      <trkpt lat="47.33784" lon="-1.31529">
        <ele>69</ele>
        <time>2020-12-06T09:52:37.935000+00:00</time>
      </trkpt>
      <trkpt lat="0" lon="0">
        <time>2020-12-06T09:52:37.939000+00:00</time>
      </trkpt>
      <trkpt lat="0" lon="0">
        <time>2020-12-06T09:52:37.951000+00:00</time>
      </trkpt>
      <trkpt lat="0" lon="0">
        <time>2020-12-06T09:52:37.952000+00:00</time>
      </trkpt>
      <trkpt lat="47.33782" lon="-1.31534">
        <ele>69</ele>
        <time>2020-12-06T09:52:38.941000+00:00</time>
      </trkpt>
      <trkpt lat="0" lon="0">
        <time>2020-12-06T09:52:38.944000+00:00</time>
      </trkpt>
      <trkpt lat="0" lon="0">
        <time>2020-12-06T09:52:38.955000+00:00</time>
      </trkpt>
      <trkpt lat="0" lon="0">
        <time>2020-12-06T09:52:38.957000+00:00</time>
      </trkpt>
      <trkpt lat="47.33781" lon="-1.3154">
        <ele>69</ele>
        <time>2020-12-06T09:52:39.985000+00:00</time>
      </trkpt>
      <trkpt lat="0" lon="0">
        <time>2020-12-06T09:52:40.003000+00:00</time>
      </trkpt>
      <trkpt lat="0" lon="0">
        <time>2020-12-06T09:52:40.008000+00:00</time>
      </trkpt>
      <trkpt lat="0" lon="0">
        <time>2020-12-06T09:52:40.010000+00:00</time>
      </trkpt>
      <trkpt lat="47.3378" lon="-1.31546">
        <ele>68</ele>
        <time>2020-12-06T09:52:40.960000+00:00</time>
      </trkpt>
      <trkpt lat="0" lon="0">
        <time>2020-12-06T09:52:40.965000+00:00</time>
      </trkpt>
      <trkpt lat="0" lon="0">
        <time>2020-12-06T09:52:40.968000+00:00</time>
      </trkpt>
      <trkpt lat="0" lon="0">
        <time>2020-12-06T09:52:40.970000+00:00</time>
      </trkpt>
      <trkpt lat="47.33779" lon="-1.31552">
        <ele>68</ele>
        <time>2020-12-06T09:52:41.958000+00:00</time>
      </trkpt>
      <trkpt lat="0" lon="0">
        <time>2020-12-06T09:52:41.966000+00:00</time>
      </trkpt>
      <trkpt lat="0" lon="0">
        <time>2020-12-06T09:52:41.968000+00:00</time>
      </trkpt>
      <trkpt lat="0" lon="0">
        <time>2020-12-06T09:52:41.969000+00:00</time>
      </trkpt>
      <trkpt lat="47.33778" lon="-1.31558">
        <ele>68</ele>
        <time>2020-12-06T09:52:42.975000+00:00</time>
      </trkpt>
      <trkpt lat="0" lon="0">
        <time>2020-12-06T09:52:42.983000+00:00</time>
      </trkpt>
      <trkpt lat="0" lon="0">
        <time>2020-12-06T09:52:42.987000+00:00</time>
      </trkpt>
      <trkpt lat="0" lon="0">
        <time>2020-12-06T09:52:42.989000+00:00</time>
      </trkpt>
      <trkpt lat="47.33779" lon="-1.31563">
        <ele>68</ele>
        <time>2020-12-06T09:52:43.946000+00:00</time>
      </trkpt>
      <trkpt lat="0" lon="0">
        <time>2020-12-06T09:52:43.954000+00:00</time>
      </trkpt>
      <trkpt lat="0" lon="0">
        <time>2020-12-06T09:52:43.963000+00:00</time>
      </trkpt>
      <trkpt lat="0" lon="0">
        <time>2020-12-06T09:52:43.966000+00:00</time>
      </trkpt>
      <trkpt lat="47.3378" lon="-1.31568">
        <ele>68</ele>
        <time>2020-12-06T09:52:44.935000+00:00</time>
      </trkpt>
      <trkpt lat="0" lon="0">
        <time>2020-12-06T09:52:44.943000+00:00</time>
      </trkpt>
      <trkpt lat="0" lon="0">
        <time>2020-12-06T09:52:44.951000+00:00</time>
      </trkpt>
      <trkpt lat="0" lon="0">
        <time>2020-12-06T09:52:44.953000+00:00</time>
      </trkpt>
      <trkpt lat="47.33781" lon="-1.31572">
        <ele>68</ele>
        <time>2020-12-06T09:52:45.935000+00:00</time>
      </trkpt>
      <trkpt lat="0" lon="0">
        <time>2020-12-06T09:52:45.947000+00:00</time>
      </trkpt>
      <trkpt lat="0" lon="0">
        <time>2020-12-06T09:52:45.954000+00:00</time>
      </trkpt>
      <trkpt lat="0" lon="0">
        <time>2020-12-06T09:52:45.959000+00:00</time>
      </trkpt>
      <trkpt lat="47.33783" lon="-1.31576">
        <ele>68</ele>
        <time>2020-12-06T09:52:46.951000+00:00</time>
      </trkpt>
      <trkpt lat="0" lon="0">
        <time>2020-12-06T09:52:46.955000+00:00</time>
      </trkpt>
      <trkpt lat="0" lon="0">
        <time>2020-12-06T09:52:46.966000+00:00</time>
      </trkpt>
      <trkpt lat="0" lon="0">
        <time>2020-12-06T09:52:46.968000+00:00</time>
      </trkpt>
      <trkpt lat="47.33786" lon="-1.31579">
        <ele>68</ele>
        <time>2020-12-06T09:52:47.938000+00:00</time>
      </trkpt>
      <trkpt lat="0" lon="0">
        <time>2020-12-06T09:52:47.963000+00:00</time>
      </trkpt>
      <trkpt lat="0" lon="0">
        <time>2020-12-06T09:52:47.964000+00:00</time>
      </trkpt>
      <trkpt lat="0" lon="0">
        <time>2020-12-06T09:52:47.965000+00:00</time>
      </trkpt>
      <trkpt lat="47.33788" lon="-1.31583">
        <ele>68</ele>
        <time>2020-12-06T09:52:48.943000+00:00</time>
      </trkpt>
      <trkpt lat="0" lon="0">
        <time>2020-12-06T09:52:48.955000+00:00</time>
      </trkpt>
      <trkpt lat="0" lon="0">
        <time>2020-12-06T09:52:48.960000+00:00</time>
      </trkpt>
      <trkpt lat="0" lon="0">
        <time>2020-12-06T09:52:48.963000+00:00</time>
      </trkpt>
      <trkpt lat="47.33791" lon="-1.31586">
        <ele>68</ele>
        <time>2020-12-06T09:52:49.961000+00:00</time>
      </trkpt>
      <trkpt lat="0" lon="0">
        <time>2020-12-06T09:52:49.965000+00:00</time>
      </trkpt>
      <trkpt lat="0" lon="0">
        <time>2020-12-06T09:52:49.975000+00:00</time>
      </trkpt>
      <trkpt lat="0" lon="0">
        <time>2020-12-06T09:52:49.979000+00:00</time>
      </trkpt>
      <trkpt lat="47.33794" lon="-1.31589">
        <ele>68</ele>
        <time>2020-12-06T09:52:50.986000+00:00</time>
      </trkpt>
      <trkpt lat="0" lon="0">
        <time>2020-12-06T09:52:50.991000+00:00</time>
      </trkpt>
      <trkpt lat="0" lon="0">
        <time>2020-12-06T09:52:51.004000+00:00</time>
      </trkpt>
      <trkpt lat="0" lon="0">
        <time>2020-12-06T09:52:51.006000+00:00</time>
      </trkpt>
      <trkpt lat="47.33797" lon="-1.31592">
        <ele>69</ele>
        <time>2020-12-06T09:52:51.969000+00:00</time>
      </trkpt>
      <trkpt lat="0" lon="0">
        <time>2020-12-06T09:52:51.973000+00:00</time>
      </trkpt>
      <trkpt lat="0" lon="0">
        <time>2020-12-06T09:52:51.981000+00:00</time>
      </trkpt>
      <trkpt lat="0" lon="0">
        <time>2020-12-06T09:52:51.984000+00:00</time>
      </trkpt>
      <trkpt lat="47.33799" lon="-1.31596">
        <ele>69</ele>
        <time>2020-12-06T09:52:52.962000+00:00</time>
      </trkpt>
      <trkpt lat="0" lon="0">
        <time>2020-12-06T09:52:52.971000+00:00</time>
      </trkpt>
      <trkpt lat="0" lon="0">
        <time>2020-12-06T09:52:52.975000+00:00</time>
      </trkpt>
      <trkpt lat="0" lon="0">
        <time>2020-12-06T09:52:52.977000+00:00</time>
      </trkpt>
      <trkpt lat="47.33802" lon="-1.31599">
        <ele>69</ele>
        <time>2020-12-06T09:52:53.920000+00:00</time>
      </trkpt>
      <trkpt lat="0" lon="0">
        <time>2020-12-06T09:52:53.922000+00:00</time>
      </trkpt>
      <trkpt lat="0" lon="0">
        <time>2020-12-06T09:52:53.923000+00:00</time>
      </trkpt>
      <trkpt lat="0" lon="0">
        <time>2020-12-06T09:52:53.924000+00:00</time>
      </trkpt>
      <trkpt lat="47.33805" lon="-1.31603">
        <ele>69</ele>
        <time>2020-12-06T09:52:54.929000+00:00</time>
      </trkpt>
      <trkpt lat="0" lon="0">
        <time>2020-12-06T09:52:54.946000+00:00</time>
      </trkpt>
      <trkpt lat="0" lon="0">
        <time>2020-12-06T09:52:54.950000+00:00</time>
      </trkpt>
      <trkpt lat="0" lon="0">
        <time>2020-12-06T09:52:54.953000+00:00</time>
      </trkpt>
      <trkpt lat="47.33808" lon="-1.31607">
        <ele>70</ele>
        <time>2020-12-06T09:52:55.956000+00:00</time>
      </trkpt>
      <trkpt lat="0" lon="0">
        <time>2020-12-06T09:52:55.971000+00:00</time>
      </trkpt>
      <trkpt lat="0" lon="0">
        <time>2020-12-06T09:52:55.977000+00:00</time>
      </trkpt>
      <trkpt lat="0" lon="0">
        <time>2020-12-06T09:52:55.979000+00:00</time>
      </trkpt>
      <trkpt lat="47.3381" lon="-1.3161">
        <ele>70</ele>
        <time>2020-12-06T09:52:56.931000+00:00</time>
      </trkpt>
      <trkpt lat="0" lon="0">
        <time>2020-12-06T09:52:56.941000+00:00</time>
      </trkpt>
      <trkpt lat="0" lon="0">
        <time>2020-12-06T09:52:56.951000+00:00</time>
      </trkpt>
      <trkpt lat="0" lon="0">
        <time>2020-12-06T09:52:56.953000+00:00</time>
      </trkpt>
      <trkpt lat="47.33812" lon="-1.31614">
        <ele>70</ele>
        <time>2020-12-06T09:52:57.943000+00:00</time>
      </trkpt>
      <trkpt lat="0" lon="0">
        <time>2020-12-06T09:52:57.951000+00:00</time>
      </trkpt>
      <trkpt lat="0" lon="0">
        <time>2020-12-06T09:52:57.956000+00:00</time>
      </trkpt>
      <trkpt lat="0" lon="0">
        <time>2020-12-06T09:52:57.962000+00:00</time>
      </trkpt>
      <trkpt lat="47.33815" lon="-1.31618">
        <ele>70</ele>
        <time>2020-12-06T09:52:58.941000+00:00</time>
      </trkpt>
      <trkpt lat="0" lon="0">
        <time>2020-12-06T09:52:58.945000+00:00</time>
      </trkpt>
      <trkpt lat="0" lon="0">
        <time>2020-12-06T09:52:58.949000+00:00</time>
      </trkpt>
      <trkpt lat="0" lon="0">
        <time>2020-12-06T09:52:58.951000+00:00</time>
      </trkpt>
      <trkpt lat="47.33817" lon="-1.31622">
        <ele>71</ele>
        <time>2020-12-06T09:52:59.918000+00:00</time>
      </trkpt>
      <trkpt lat="0" lon="0">
        <time>2020-12-06T09:52:59.921000+00:00</time>
      </trkpt>
      <trkpt lat="0" lon="0">
        <time>2020-12-06T09:52:59.927000+00:00</time>
      </trkpt>
      <trkpt lat="0" lon="0">
        <time>2020-12-06T09:52:59.929000+00:00</time>
      </trkpt>
      <trkpt lat="47.33819" lon="-1.31625">
        <ele>71</ele>
        <time>2020-12-06T09:53:00.898000+00:00</time>
      </trkpt>
      <trkpt lat="0" lon="0">
        <time>2020-12-06T09:53:00.914000+00:00</time>
      </trkpt>
      <trkpt lat="0" lon="0">
        <time>2020-12-06T09:53:00.917000+00:00</time>
      </trkpt>
      <trkpt lat="0" lon="0">
        <time>2020-12-06T09:53:00.919000+00:00</time>
      </trkpt>
      <trkpt lat="47.33821" lon="-1.31629">
        <ele>71</ele>
        <time>2020-12-06T09:53:01.947000+00:00</time>
      </trkpt>
      <trkpt lat="0" lon="0">
        <time>2020-12-06T09:53:01.967000+00:00</time>
      </trkpt>
      <trkpt lat="0" lon="0">
        <time>2020-12-06T09:53:01.971000+00:00</time>
      </trkpt>
      <trkpt lat="0" lon="0">
        <time>2020-12-06T09:53:01.974000+00:00</time>
      </trkpt>
      <trkpt lat="47.33823" lon="-1.31632">
        <ele>71</ele>
        <time>2020-12-06T09:53:02.944000+00:00</time>
      </trkpt>
      <trkpt lat="0" lon="0">
        <time>2020-12-06T09:53:02.948000+00:00</time>
      </trkpt>
      <trkpt lat="0" lon="0">
        <time>2020-12-06T09:53:02.954000+00:00</time>
      </trkpt>
      <trkpt lat="0" lon="0">
        <time>2020-12-06T09:53:02.957000+00:00</time>
      </trkpt>
      <trkpt lat="47.33825" lon="-1.31636">
        <ele>71</ele>
        <time>2020-12-06T09:53:03.940000+00:00</time>
      </trkpt>
      <trkpt lat="0" lon="0">
        <time>2020-12-06T09:53:03.952000+00:00</time>
      </trkpt>
      <trkpt lat="0" lon="0">
        <time>2020-12-06T09:53:03.957000+00:00</time>
      </trkpt>
      <trkpt lat="0" lon="0">
        <time>2020-12-06T09:53:03.959000+00:00</time>
      </trkpt>
      <trkpt lat="47.33826" lon="-1.3164">
        <ele>72</ele>
        <time>2020-12-06T09:53:04.914000+00:00</time>
      </trkpt>
      <trkpt lat="0" lon="0">
        <time>2020-12-06T09:53:04.917000+00:00</time>
      </trkpt>
      <trkpt lat="0" lon="0">
        <time>2020-12-06T09:53:04.924000+00:00</time>
      </trkpt>
      <trkpt lat="0" lon="0">
        <time>2020-12-06T09:53:04.926000+00:00</time>
      </trkpt>
      <trkpt lat="47.33828" lon="-1.31643">
        <ele>72</ele>
        <time>2020-12-06T09:53:05.934000+00:00</time>
      </trkpt>
      <trkpt lat="0" lon="0">
        <time>2020-12-06T09:53:05.939000+00:00</time>
      </trkpt>
      <trkpt lat="0" lon="0">
        <time>2020-12-06T09:53:05.946000+00:00</time>
      </trkpt>
      <trkpt lat="0" lon="0">
        <time>2020-12-06T09:53:05.947000+00:00</time>
      </trkpt>
      <trkpt lat="47.3383" lon="-1.31647">
        <ele>72</ele>
        <time>2020-12-06T09:53:06.939000+00:00</time>
      </trkpt>
      <trkpt lat="0" lon="0">
        <time>2020-12-06T09:53:06.952000+00:00</time>
      </trkpt>
      <trkpt lat="0" lon="0">
        <time>2020-12-06T09:53:06.962000+00:00</time>
      </trkpt>
      <trkpt lat="0" lon="0">
        <time>2020-12-06T09:53:06.966000+00:00</time>
      </trkpt>
      <trkpt lat="47.33831" lon="-1.3165">
        <ele>72</ele>
        <time>2020-12-06T09:53:07.949000+00:00</time>
      </trkpt>
      <trkpt lat="0" lon="0">
        <time>2020-12-06T09:53:07.959000+00:00</time>
      </trkpt>
      <trkpt lat="0" lon="0">
        <time>2020-12-06T09:53:07.964000+00:00</time>
      </trkpt>
      <trkpt lat="0" lon="0">
        <time>2020-12-06T09:53:07.966000+00:00</time>
      </trkpt>
      <trkpt lat="47.33833" lon="-1.31654">
        <ele>72</ele>
        <time>2020-12-06T09:53:08.955000+00:00</time>
      </trkpt>
      <trkpt lat="0" lon="0">
        <time>2020-12-06T09:53:08.970000+00:00</time>
      </trkpt>
      <trkpt lat="0" lon="0">
        <time>2020-12-06T09:53:08.973000+00:00</time>
      </trkpt>
      <trkpt lat="0" lon="0">
        <time>2020-12-06T09:53:08.974000+00:00</time>
      </trkpt>
      <trkpt lat="47.33834" lon="-1.31657">
        <ele>72</ele>
        <time>2020-12-06T09:53:09.950000+00:00</time>
      </trkpt>
      <trkpt lat="0" lon="0">
        <time>2020-12-06T09:53:09.975000+00:00</time>
      </trkpt>
      <trkpt lat="0" lon="0">
        <time>2020-12-06T09:53:09.978000+00:00</time>
      </trkpt>
      <trkpt lat="0" lon="0">
        <time>2020-12-06T09:53:09.980000+00:00</time>
      </trkpt>
      <trkpt lat="47.33836" lon="-1.31661">
        <ele>73</ele>
        <time>2020-12-06T09:53:10.932000+00:00</time>
      </trkpt>
      <trkpt lat="0" lon="0">
        <time>2020-12-06T09:53:10.936000+00:00</time>
      </trkpt>
      <trkpt lat="0" lon="0">
        <time>2020-12-06T09:53:10.940000+00:00</time>
      </trkpt>
      <trkpt lat="0" lon="0">
        <time>2020-12-06T09:53:10.942000+00:00</time>
      </trkpt>
      <trkpt lat="47.33837" lon="-1.31664">
        <ele>73</ele>
        <time>2020-12-06T09:53:11.936000+00:00</time>
      </trkpt>
      <trkpt lat="0" lon="0">
        <time>2020-12-06T09:53:11.938000+00:00</time>
      </trkpt>
      <trkpt lat="0" lon="0">
        <time>2020-12-06T09:53:11.941000+00:00</time>
      </trkpt>
      <trkpt lat="0" lon="0">
        <time>2020-12-06T09:53:11.942000+00:00</time>
      </trkpt>
      <trkpt lat="47.33839" lon="-1.31667">
        <ele>73</ele>
        <time>2020-12-06T09:53:12.961000+00:00</time>
      </trkpt>
      <trkpt lat="0" lon="0">
        <time>2020-12-06T09:53:12.974000+00:00</time>
      </trkpt>
      <trkpt lat="0" lon="0">
        <time>2020-12-06T09:53:12.982000+00:00</time>
      </trkpt>
      <trkpt lat="0" lon="0">
        <time>2020-12-06T09:53:12.986000+00:00</time>
      </trkpt>
      <trkpt lat="47.3384" lon="-1.31671">
        <ele>73</ele>
        <time>2020-12-06T09:53:13.914000+00:00</time>
      </trkpt>
      <trkpt lat="0" lon="0">
        <time>2020-12-06T09:53:13.930000+00:00</time>
      </trkpt>
      <trkpt lat="0" lon="0">
        <time>2020-12-06T09:53:13.933000+00:00</time>
      </trkpt>
      <trkpt lat="0" lon="0">
        <time>2020-12-06T09:53:13.936000+00:00</time>
      </trkpt>
      <trkpt lat="47.33842" lon="-1.31674">
        <ele>73</ele>
        <time>2020-12-06T09:53:14.966000+00:00</time>
      </trkpt>
      <trkpt lat="0" lon="0">
        <time>2020-12-06T09:53:14.973000+00:00</time>
      </trkpt>
      <trkpt lat="0" lon="0">
        <time>2020-12-06T09:53:14.981000+00:00</time>
      </trkpt>
      <trkpt lat="0" lon="0">
        <time>2020-12-06T09:53:14.983000+00:00</time>
      </trkpt>
      <trkpt lat="47.33843" lon="-1.31678">
        <ele>73</ele>
        <time>2020-12-06T09:53:15.964000+00:00</time>
      </trkpt>
      <trkpt lat="0" lon="0">
        <time>2020-12-06T09:53:15.968000+00:00</time>
      </trkpt>
      <trkpt lat="0" lon="0">
        <time>2020-12-06T09:53:15.976000+00:00</time>
      </trkpt>
      <trkpt lat="0" lon="0">
        <time>2020-12-06T09:53:15.982000+00:00</time>
      </trkpt>
      <trkpt lat="47.33845" lon="-1.31681">
        <ele>73</ele>
        <time>2020-12-06T09:53:16.939000+00:00</time>
      </trkpt>
      <trkpt lat="0" lon="0">
        <time>2020-12-06T09:53:16.950000+00:00</time>
      </trkpt>
      <trkpt lat="0" lon="0">
        <time>2020-12-06T09:53:16.960000+00:00</time>
      </trkpt>
      <trkpt lat="0" lon="0">
        <time>2020-12-06T09:53:16.963000+00:00</time>
      </trkpt>
      <trkpt lat="47.33847" lon="-1.31685">
        <ele>73</ele>
        <time>2020-12-06T09:53:17.909000+00:00</time>
      </trkpt>
      <trkpt lat="0" lon="0">
        <time>2020-12-06T09:53:17.914000+00:00</time>
      </trkpt>
      <trkpt lat="0" lon="0">
        <time>2020-12-06T09:53:17.920000+00:00</time>
      </trkpt>
      <trkpt lat="0" lon="0">
        <time>2020-12-06T09:53:17.922000+00:00</time>
      </trkpt>
      <trkpt lat="47.33848" lon="-1.31689">
        <ele>73</ele>
        <time>2020-12-06T09:53:18.927000+00:00</time>
      </trkpt>
      <trkpt lat="0" lon="0">
        <time>2020-12-06T09:53:18.932000+00:00</time>
      </trkpt>
      <trkpt lat="0" lon="0">
        <time>2020-12-06T09:53:18.936000+00:00</time>
      </trkpt>
      <trkpt lat="0" lon="0">
        <time>2020-12-06T09:53:18.944000+00:00</time>
      </trkpt>
      <trkpt lat="47.3385" lon="-1.31693">
        <ele>73</ele>
        <time>2020-12-06T09:53:19.932000+00:00</time>
      </trkpt>
      <trkpt lat="0" lon="0">
        <time>2020-12-06T09:53:19.944000+00:00</time>
      </trkpt>
      <trkpt lat="0" lon="0">
        <time>2020-12-06T09:53:19.950000+00:00</time>
      </trkpt>
      <trkpt lat="0" lon="0">
        <time>2020-12-06T09:53:19.952000+00:00</time>
      </trkpt>
      <trkpt lat="47.33852" lon="-1.31697">
        <ele>73</ele>
        <time>2020-12-06T09:53:20.935000+00:00</time>
      </trkpt>
      <trkpt lat="0" lon="0">
        <time>2020-12-06T09:53:20.946000+00:00</time>
      </trkpt>
      <trkpt lat="0" lon="0">
        <time>2020-12-06T09:53:20.948000+00:00</time>
      </trkpt>
      <trkpt lat="0" lon="0">
        <time>2020-12-06T09:53:20.949000+00:00</time>
      </trkpt>
      <trkpt lat="47.33854" lon="-1.31701">
        <ele>73</ele>
        <time>2020-12-06T09:53:21.899000+00:00</time>
      </trkpt>
      <trkpt lat="0" lon="0">
        <time>2020-12-06T09:53:21.919000+00:00</time>
      </trkpt>
      <trkpt lat="0" lon="0">
        <time>2020-12-06T09:53:21.922000+00:00</time>
      </trkpt>
      <trkpt lat="0" lon="0">
        <time>2020-12-06T09:53:21.924000+00:00</time>
      </trkpt>
      <trkpt lat="47.33856" lon="-1.31706">
        <ele>73</ele>
        <time>2020-12-06T09:53:22.936000+00:00</time>
      </trkpt>
      <trkpt lat="0" lon="0">
        <time>2020-12-06T09:53:22.944000+00:00</time>
      </trkpt>
      <trkpt lat="0" lon="0">
        <time>2020-12-06T09:53:22.946000+00:00</time>
      </trkpt>
      <trkpt lat="0" lon="0">
        <time>2020-12-06T09:53:22.947000+00:00</time>
      </trkpt>
      <trkpt lat="47.33858" lon="-1.3171">
        <ele>73</ele>
        <time>2020-12-06T09:53:23.934000+00:00</time>
      </trkpt>
      <trkpt lat="0" lon="0">
        <time>2020-12-06T09:53:23.947000+00:00</time>
      </trkpt>
      <trkpt lat="0" lon="0">
        <time>2020-12-06T09:53:23.956000+00:00</time>
      </trkpt>
      <trkpt lat="0" lon="0">
        <time>2020-12-06T09:53:23.959000+00:00</time>
      </trkpt>
      <trkpt lat="47.3386" lon="-1.31714">
        <ele>73</ele>
        <time>2020-12-06T09:53:24.956000+00:00</time>
      </trkpt>
      <trkpt lat="0" lon="0">
        <time>2020-12-06T09:53:24.960000+00:00</time>
      </trkpt>
      <trkpt lat="0" lon="0">
        <time>2020-12-06T09:53:24.968000+00:00</time>
      </trkpt>
      <trkpt lat="0" lon="0">
        <time>2020-12-06T09:53:24.970000+00:00</time>
      </trkpt>
      <trkpt lat="47.33862" lon="-1.31718">
        <ele>73</ele>
        <time>2020-12-06T09:53:25.910000+00:00</time>
      </trkpt>
      <trkpt lat="0" lon="0">
        <time>2020-12-06T09:53:25.919000+00:00</time>
      </trkpt>
      <trkpt lat="0" lon="0">
        <time>2020-12-06T09:53:25.923000+00:00</time>
      </trkpt>
      <trkpt lat="0" lon="0">
        <time>2020-12-06T09:53:25.924000+00:00</time>
      </trkpt>
      <trkpt lat="47.33864" lon="-1.31722">
        <ele>73</ele>
        <time>2020-12-06T09:53:26.944000+00:00</time>
      </trkpt>
      <trkpt lat="0" lon="0">
        <time>2020-12-06T09:53:26.959000+00:00</time>
      </trkpt>
      <trkpt lat="0" lon="0">
        <time>2020-12-06T09:53:26.962000+00:00</time>
      </trkpt>
      <trkpt lat="0" lon="0">
        <time>2020-12-06T09:53:26.963000+00:00</time>
      </trkpt>
      <trkpt lat="47.33865" lon="-1.31726">
        <ele>73</ele>
        <time>2020-12-06T09:53:27.958000+00:00</time>
      </trkpt>
      <trkpt lat="0" lon="0">
        <time>2020-12-06T09:53:27.965000+00:00</time>
      </trkpt>
      <trkpt lat="0" lon="0">
        <time>2020-12-06T09:53:27.978000+00:00</time>
      </trkpt>
      <trkpt lat="0" lon="0">
        <time>2020-12-06T09:53:27.982000+00:00</time>
      </trkpt>
      <trkpt lat="47.33867" lon="-1.3173">
        <ele>73</ele>
        <time>2020-12-06T09:53:28.927000+00:00</time>
      </trkpt>
      <trkpt lat="0" lon="0">
        <time>2020-12-06T09:53:28.938000+00:00</time>
      </trkpt>
      <trkpt lat="0" lon="0">
        <time>2020-12-06T09:53:28.949000+00:00</time>
      </trkpt>
      <trkpt lat="0" lon="0">
        <time>2020-12-06T09:53:28.951000+00:00</time>
      </trkpt>
      <trkpt lat="47.33869" lon="-1.31733">
        <ele>73</ele>
        <time>2020-12-06T09:53:29.961000+00:00</time>
      </trkpt>
      <trkpt lat="0" lon="0">
        <time>2020-12-06T09:53:29.972000+00:00</time>
      </trkpt>
      <trkpt lat="0" lon="0">
        <time>2020-12-06T09:53:29.976000+00:00</time>
      </trkpt>
      <trkpt lat="0" lon="0">
        <time>2020-12-06T09:53:29.978000+00:00</time>
      </trkpt>
      <trkpt lat="47.33871" lon="-1.31737">
        <ele>73</ele>
        <time>2020-12-06T09:53:30.946000+00:00</time>
      </trkpt>
      <trkpt lat="0" lon="0">
        <time>2020-12-06T09:53:30.963000+00:00</time>
      </trkpt>
      <trkpt lat="0" lon="0">
        <time>2020-12-06T09:53:30.971000+00:00</time>
      </trkpt>
      <trkpt lat="0" lon="0">
        <time>2020-12-06T09:53:30.975000+00:00</time>
      </trkpt>
      <trkpt lat="47.33873" lon="-1.31741">
        <ele>74</ele>
        <time>2020-12-06T09:53:31.933000+00:00</time>
      </trkpt>
      <trkpt lat="0" lon="0">
        <time>2020-12-06T09:53:31.941000+00:00</time>
      </trkpt>
      <trkpt lat="0" lon="0">
        <time>2020-12-06T09:53:31.947000+00:00</time>
      </trkpt>
      <trkpt lat="0" lon="0">
        <time>2020-12-06T09:53:31.949000+00:00</time>
      </trkpt>
      <trkpt lat="47.33875" lon="-1.31745">
        <ele>74</ele>
        <time>2020-12-06T09:53:32.945000+00:00</time>
      </trkpt>
      <trkpt lat="0" lon="0">
        <time>2020-12-06T09:53:32.949000+00:00</time>
      </trkpt>
      <trkpt lat="0" lon="0">
        <time>2020-12-06T09:53:32.956000+00:00</time>
      </trkpt>
      <trkpt lat="0" lon="0">
        <time>2020-12-06T09:53:32.959000+00:00</time>
      </trkpt>
      <trkpt lat="47.33877" lon="-1.31749">
        <ele>74</ele>
        <time>2020-12-06T09:53:33.861000+00:00</time>
      </trkpt>
      <trkpt lat="0" lon="0">
        <time>2020-12-06T09:53:33.864000+00:00</time>
      </trkpt>
      <trkpt lat="0" lon="0">
        <time>2020-12-06T09:53:33.874000+00:00</time>
      </trkpt>
      <trkpt lat="0" lon="0">
        <time>2020-12-06T09:53:33.877000+00:00</time>
      </trkpt>
      <trkpt lat="47.33879" lon="-1.31753">
        <ele>74</ele>
        <time>2020-12-06T09:53:34.937000+00:00</time>
      </trkpt>
      <trkpt lat="0" lon="0">
        <time>2020-12-06T09:53:34.940000+00:00</time>
      </trkpt>
      <trkpt lat="0" lon="0">
        <time>2020-12-06T09:53:34.944000+00:00</time>
      </trkpt>
      <trkpt lat="0" lon="0">
        <time>2020-12-06T09:53:34.948000+00:00</time>
      </trkpt>
      <trkpt lat="47.33881" lon="-1.31757">
        <ele>74</ele>
        <time>2020-12-06T09:53:35.948000+00:00</time>
      </trkpt>
      <trkpt lat="0" lon="0">
        <time>2020-12-06T09:53:35.969000+00:00</time>
      </trkpt>
      <trkpt lat="0" lon="0">
        <time>2020-12-06T09:53:35.980000+00:00</time>
      </trkpt>
      <trkpt lat="0" lon="0">
        <time>2020-12-06T09:53:35.983000+00:00</time>
      </trkpt>
      <trkpt lat="47.33882" lon="-1.31761">
        <ele>74</ele>
        <time>2020-12-06T09:53:36.941000+00:00</time>
      </trkpt>
      <trkpt lat="0" lon="0">
        <time>2020-12-06T09:53:36.953000+00:00</time>
      </trkpt>
      <trkpt lat="0" lon="0">
        <time>2020-12-06T09:53:36.957000+00:00</time>
      </trkpt>
      <trkpt lat="0" lon="0">
        <time>2020-12-06T09:53:36.960000+00:00</time>
      </trkpt>
      <trkpt lat="47.33884" lon="-1.31764">
        <ele>73</ele>
        <time>2020-12-06T09:53:37.907000+00:00</time>
      </trkpt>
      <trkpt lat="0" lon="0">
        <time>2020-12-06T09:53:37.919000+00:00</time>
      </trkpt>
      <trkpt lat="0" lon="0">
        <time>2020-12-06T09:53:37.923000+00:00</time>
      </trkpt>
      <trkpt lat="0" lon="0">
        <time>2020-12-06T09:53:37.925000+00:00</time>
      </trkpt>
      <trkpt lat="47.33886" lon="-1.31768">
        <ele>73</ele>
        <time>2020-12-06T09:53:38.954000+00:00</time>
      </trkpt>
      <trkpt lat="0" lon="0">
        <time>2020-12-06T09:53:38.969000+00:00</time>
      </trkpt>
      <trkpt lat="0" lon="0">
        <time>2020-12-06T09:53:38.978000+00:00</time>
      </trkpt>
      <trkpt lat="0" lon="0">
        <time>2020-12-06T09:53:38.985000+00:00</time>
      </trkpt>
      <trkpt lat="47.33888" lon="-1.31772">
        <ele>73</ele>
        <time>2020-12-06T09:53:39.946000+00:00</time>
      </trkpt>
      <trkpt lat="0" lon="0">
        <time>2020-12-06T09:53:39.960000+00:00</time>
      </trkpt>
      <trkpt lat="0" lon="0">
        <time>2020-12-06T09:53:39.972000+00:00</time>
      </trkpt>
      <trkpt lat="0" lon="0">
        <time>2020-12-06T09:53:39.979000+00:00</time>
      </trkpt>
      <trkpt lat="47.33889" lon="-1.31776">
        <ele>73</ele>
        <time>2020-12-06T09:53:40.970000+00:00</time>
      </trkpt>
      <trkpt lat="0" lon="0">
        <time>2020-12-06T09:53:40.976000+00:00</time>
      </trkpt>
      <trkpt lat="0" lon="0">
        <time>2020-12-06T09:53:40.979000+00:00</time>
      </trkpt>
      <trkpt lat="0" lon="0">
        <time>2020-12-06T09:53:40.981000+00:00</time>
      </trkpt>
      <trkpt lat="47.33891" lon="-1.31779">
        <ele>73</ele>
        <time>2020-12-06T09:53:41.951000+00:00</time>
      </trkpt>
      <trkpt lat="0" lon="0">
        <time>2020-12-06T09:53:41.964000+00:00</time>
      </trkpt>
      <trkpt lat="0" lon="0">
        <time>2020-12-06T09:53:41.974000+00:00</time>
      </trkpt>
      <trkpt lat="0" lon="0">
        <time>2020-12-06T09:53:41.977000+00:00</time>
      </trkpt>
      <trkpt lat="47.33893" lon="-1.31783">
        <ele>73</ele>
        <time>2020-12-06T09:53:42.952000+00:00</time>
      </trkpt>
      <trkpt lat="0" lon="0">
        <time>2020-12-06T09:53:42.966000+00:00</time>
      </trkpt>
      <trkpt lat="0" lon="0">
        <time>2020-12-06T09:53:42.974000+00:00</time>
      </trkpt>
      <trkpt lat="0" lon="0">
        <time>2020-12-06T09:53:42.982000+00:00</time>
      </trkpt>
      <trkpt lat="47.33895" lon="-1.31787">
        <ele>73</ele>
        <time>2020-12-06T09:53:43.977000+00:00</time>
      </trkpt>
      <trkpt lat="0" lon="0">
        <time>2020-12-06T09:53:43.986000+00:00</time>
      </trkpt>
      <trkpt lat="0" lon="0">
        <time>2020-12-06T09:53:43.990000+00:00</time>
      </trkpt>
      <trkpt lat="0" lon="0">
        <time>2020-12-06T09:53:43.992000+00:00</time>
      </trkpt>
      <trkpt lat="47.33897" lon="-1.31791">
        <ele>73</ele>
        <time>2020-12-06T09:53:44.979000+00:00</time>
      </trkpt>
      <trkpt lat="0" lon="0">
        <time>2020-12-06T09:53:44.986000+00:00</time>
      </trkpt>
      <trkpt lat="0" lon="0">
        <time>2020-12-06T09:53:44.989000+00:00</time>
      </trkpt>
      <trkpt lat="0" lon="0">
        <time>2020-12-06T09:53:44.990000+00:00</time>
      </trkpt>
      <trkpt lat="47.33898" lon="-1.31794">
        <ele>73</ele>
        <time>2020-12-06T09:53:45.962000+00:00</time>
      </trkpt>
      <trkpt lat="0" lon="0">
        <time>2020-12-06T09:53:45.972000+00:00</time>
      </trkpt>
      <trkpt lat="0" lon="0">
        <time>2020-12-06T09:53:45.981000+00:00</time>
      </trkpt>
      <trkpt lat="0" lon="0">
        <time>2020-12-06T09:53:45.983000+00:00</time>
      </trkpt>
      <trkpt lat="47.339" lon="-1.31798">
        <ele>73</ele>
        <time>2020-12-06T09:53:46.959000+00:00</time>
      </trkpt>
      <trkpt lat="0" lon="0">
        <time>2020-12-06T09:53:46.968000+00:00</time>
      </trkpt>
      <trkpt lat="0" lon="0">
        <time>2020-12-06T09:53:46.971000+00:00</time>
      </trkpt>
      <trkpt lat="0" lon="0">
        <time>2020-12-06T09:53:46.973000+00:00</time>
      </trkpt>
      <trkpt lat="47.33902" lon="-1.31802">
        <ele>73</ele>
        <time>2020-12-06T09:53:47.945000+00:00</time>
      </trkpt>
      <trkpt lat="0" lon="0">
        <time>2020-12-06T09:53:47.958000+00:00</time>
      </trkpt>
      <trkpt lat="0" lon="0">
        <time>2020-12-06T09:53:47.974000+00:00</time>
      </trkpt>
      <trkpt lat="0" lon="0">
        <time>2020-12-06T09:53:47.980000+00:00</time>
      </trkpt>
      <trkpt lat="47.33904" lon="-1.31806">
        <ele>73</ele>
        <time>2020-12-06T09:53:48.954000+00:00</time>
      </trkpt>
      <trkpt lat="0" lon="0">
        <time>2020-12-06T09:53:48.965000+00:00</time>
      </trkpt>
      <trkpt lat="0" lon="0">
        <time>2020-12-06T09:53:48.971000+00:00</time>
      </trkpt>
      <trkpt lat="0" lon="0">
        <time>2020-12-06T09:53:48.972000+00:00</time>
      </trkpt>
      <trkpt lat="47.33906" lon="-1.3181">
        <ele>73</ele>
        <time>2020-12-06T09:53:49.932000+00:00</time>
      </trkpt>
      <trkpt lat="0" lon="0">
        <time>2020-12-06T09:53:49.938000+00:00</time>
      </trkpt>
      <trkpt lat="0" lon="0">
        <time>2020-12-06T09:53:49.943000+00:00</time>
      </trkpt>
      <trkpt lat="0" lon="0">
        <time>2020-12-06T09:53:49.945000+00:00</time>
      </trkpt>
      <trkpt lat="47.33907" lon="-1.31814">
        <ele>73</ele>
        <time>2020-12-06T09:53:50.929000+00:00</time>
      </trkpt>
      <trkpt lat="0" lon="0">
        <time>2020-12-06T09:53:50.931000+00:00</time>
      </trkpt>
      <trkpt lat="0" lon="0">
        <time>2020-12-06T09:53:50.932000+00:00</time>
      </trkpt>
      <trkpt lat="0" lon="0">
        <time>2020-12-06T09:53:50.933000+00:00</time>
      </trkpt>
      <trkpt lat="47.33909" lon="-1.31818">
        <ele>73</ele>
        <time>2020-12-06T09:53:51.960000+00:00</time>
      </trkpt>
      <trkpt lat="0" lon="0">
        <time>2020-12-06T09:53:51.967000+00:00</time>
      </trkpt>
      <trkpt lat="0" lon="0">
        <time>2020-12-06T09:53:51.975000+00:00</time>
      </trkpt>
      <trkpt lat="0" lon="0">
        <time>2020-12-06T09:53:51.982000+00:00</time>
      </trkpt>
      <trkpt lat="47.33911" lon="-1.31822">
        <ele>73</ele>
        <time>2020-12-06T09:53:52.927000+00:00</time>
      </trkpt>
      <trkpt lat="0" lon="0">
        <time>2020-12-06T09:53:52.935000+00:00</time>
      </trkpt>
      <trkpt lat="0" lon="0">
        <time>2020-12-06T09:53:52.939000+00:00</time>
      </trkpt>
      <trkpt lat="0" lon="0">
        <time>2020-12-06T09:53:52.940000+00:00</time>
      </trkpt>
      <trkpt lat="47.33912" lon="-1.31826">
        <ele>73</ele>
        <time>2020-12-06T09:53:53.938000+00:00</time>
      </trkpt>
      <trkpt lat="0" lon="0">
        <time>2020-12-06T09:53:53.947000+00:00</time>
      </trkpt>
      <trkpt lat="0" lon="0">
        <time>2020-12-06T09:53:53.953000+00:00</time>
      </trkpt>
      <trkpt lat="0" lon="0">
        <time>2020-12-06T09:53:53.964000+00:00</time>
      </trkpt>
      <trkpt lat="47.33914" lon="-1.3183">
        <ele>73</ele>
        <time>2020-12-06T09:53:54.939000+00:00</time>
      </trkpt>
      <trkpt lat="0" lon="0">
        <time>2020-12-06T09:53:54.945000+00:00</time>
      </trkpt>
      <trkpt lat="0" lon="0">
        <time>2020-12-06T09:53:54.951000+00:00</time>
      </trkpt>
      <trkpt lat="0" lon="0">
        <time>2020-12-06T09:53:54.954000+00:00</time>
      </trkpt>
      <trkpt lat="47.33916" lon="-1.31834">
        <ele>73</ele>
        <time>2020-12-06T09:53:55.934000+00:00</time>
      </trkpt>
      <trkpt lat="0" lon="0">
        <time>2020-12-06T09:53:55.943000+00:00</time>
      </trkpt>
      <trkpt lat="0" lon="0">
        <time>2020-12-06T09:53:55.953000+00:00</time>
      </trkpt>
      <trkpt lat="0" lon="0">
        <time>2020-12-06T09:53:55.955000+00:00</time>
      </trkpt>
      <trkpt lat="47.33918" lon="-1.31838">
        <ele>73</ele>
        <time>2020-12-06T09:53:56.952000+00:00</time>
      </trkpt>
      <trkpt lat="0" lon="0">
        <time>2020-12-06T09:53:56.955000+00:00</time>
      </trkpt>
      <trkpt lat="0" lon="0">
        <time>2020-12-06T09:53:56.960000+00:00</time>
      </trkpt>
      <trkpt lat="47.3392" lon="-1.31842">
        <ele>73</ele>
        <time>2020-12-06T09:53:57.926000+00:00</time>
      </trkpt>
      <trkpt lat="0" lon="0">
        <time>2020-12-06T09:53:57.934000+00:00</time>
      </trkpt>
      <trkpt lat="0" lon="0">
        <time>2020-12-06T09:53:57.938000+00:00</time>
      </trkpt>
      <trkpt lat="0" lon="0">
        <time>2020-12-06T09:53:57.940000+00:00</time>
      </trkpt>
      <trkpt lat="47.33921" lon="-1.31847">
        <ele>73</ele>
        <time>2020-12-06T09:53:58.948000+00:00</time>
      </trkpt>
      <trkpt lat="0" lon="0">
        <time>2020-12-06T09:53:58.964000+00:00</time>
      </trkpt>
      <trkpt lat="0" lon="0">
        <time>2020-12-06T09:53:58.971000+00:00</time>
      </trkpt>
      <trkpt lat="0" lon="0">
        <time>2020-12-06T09:53:58.974000+00:00</time>
      </trkpt>
      <trkpt lat="47.33923" lon="-1.31851">
        <ele>73</ele>
        <time>2020-12-06T09:53:59.931000+00:00</time>
      </trkpt>
      <trkpt lat="0" lon="0">
        <time>2020-12-06T09:53:59.947000+00:00</time>
      </trkpt>
      <trkpt lat="0" lon="0">
        <time>2020-12-06T09:53:59.951000+00:00</time>
      </trkpt>
      <trkpt lat="0" lon="0">
        <time>2020-12-06T09:53:59.952000+00:00</time>
      </trkpt>
      <trkpt lat="47.33925" lon="-1.31855">
        <ele>73</ele>
        <time>2020-12-06T09:54:00.955000+00:00</time>
      </trkpt>
      <trkpt lat="0" lon="0">
        <time>2020-12-06T09:54:00.971000+00:00</time>
      </trkpt>
      <trkpt lat="0" lon="0">
        <time>2020-12-06T09:54:00.975000+00:00</time>
      </trkpt>
      <trkpt lat="0" lon="0">
        <time>2020-12-06T09:54:00.978000+00:00</time>
      </trkpt>
      <trkpt lat="47.33927" lon="-1.31859">
        <ele>73</ele>
        <time>2020-12-06T09:54:01.948000+00:00</time>
      </trkpt>
      <trkpt lat="0" lon="0">
        <time>2020-12-06T09:54:01.953000+00:00</time>
      </trkpt>
      <trkpt lat="0" lon="0">
        <time>2020-12-06T09:54:01.971000+00:00</time>
      </trkpt>
      <trkpt lat="0" lon="0">
        <time>2020-12-06T09:54:01.974000+00:00</time>
      </trkpt>
      <trkpt lat="47.33928" lon="-1.31863">
        <ele>73</ele>
        <time>2020-12-06T09:54:02.918000+00:00</time>
      </trkpt>
      <trkpt lat="0" lon="0">
        <time>2020-12-06T09:54:02.927000+00:00</time>
      </trkpt>
      <trkpt lat="0" lon="0">
        <time>2020-12-06T09:54:02.930000+00:00</time>
      </trkpt>
      <trkpt lat="0" lon="0">
        <time>2020-12-06T09:54:02.932000+00:00</time>
      </trkpt>
      <trkpt lat="47.3393" lon="-1.31866">
        <ele>73</ele>
        <time>2020-12-06T09:54:03.850000+00:00</time>
      </trkpt>
      <trkpt lat="0" lon="0">
        <time>2020-12-06T09:54:03.855000+00:00</time>
      </trkpt>
      <trkpt lat="0" lon="0">
        <time>2020-12-06T09:54:03.860000+00:00</time>
      </trkpt>
      <trkpt lat="0" lon="0">
        <time>2020-12-06T09:54:03.862000+00:00</time>
      </trkpt>
      <trkpt lat="47.33932" lon="-1.31869">
        <ele>73</ele>
        <time>2020-12-06T09:54:04.863000+00:00</time>
      </trkpt>
      <trkpt lat="0" lon="0">
        <time>2020-12-06T09:54:04.873000+00:00</time>
      </trkpt>
      <trkpt lat="0" lon="0">
        <time>2020-12-06T09:54:04.879000+00:00</time>
      </trkpt>
      <trkpt lat="0" lon="0">
        <time>2020-12-06T09:54:04.881000+00:00</time>
      </trkpt>
      <trkpt lat="47.33933" lon="-1.31873">
        <ele>73</ele>
        <time>2020-12-06T09:54:05.956000+00:00</time>
      </trkpt>
      <trkpt lat="0" lon="0">
        <time>2020-12-06T09:54:05.960000+00:00</time>
      </trkpt>
      <trkpt lat="0" lon="0">
        <time>2020-12-06T09:54:05.967000+00:00</time>
      </trkpt>
      <trkpt lat="0" lon="0">
        <time>2020-12-06T09:54:05.969000+00:00</time>
      </trkpt>
      <trkpt lat="47.33935" lon="-1.31876">
        <ele>73</ele>
        <time>2020-12-06T09:54:06.896000+00:00</time>
      </trkpt>
      <trkpt lat="0" lon="0">
        <time>2020-12-06T09:54:06.917000+00:00</time>
      </trkpt>
      <trkpt lat="0" lon="0">
        <time>2020-12-06T09:54:06.920000+00:00</time>
      </trkpt>
      <trkpt lat="0" lon="0">
        <time>2020-12-06T09:54:06.927000+00:00</time>
      </trkpt>
      <trkpt lat="47.33935" lon="-1.31879">
        <ele>73</ele>
        <time>2020-12-06T09:54:07.912000+00:00</time>
      </trkpt>
      <trkpt lat="0" lon="0">
        <time>2020-12-06T09:54:07.923000+00:00</time>
      </trkpt>
      <trkpt lat="0" lon="0">
        <time>2020-12-06T09:54:07.926000+00:00</time>
      </trkpt>
      <trkpt lat="0" lon="0">
        <time>2020-12-06T09:54:07.928000+00:00</time>
      </trkpt>
      <trkpt lat="47.33935" lon="-1.31882">
        <ele>73</ele>
        <time>2020-12-06T09:54:08.932000+00:00</time>
      </trkpt>
      <trkpt lat="0" lon="0">
        <time>2020-12-06T09:54:08.935000+00:00</time>
      </trkpt>
      <trkpt lat="0" lon="0">
        <time>2020-12-06T09:54:08.941000+00:00</time>
      </trkpt>
      <trkpt lat="0" lon="0">
        <time>2020-12-06T09:54:08.943000+00:00</time>
      </trkpt>
      <trkpt lat="47.33934" lon="-1.31885">
        <ele>73</ele>
        <time>2020-12-06T09:54:09.915000+00:00</time>
      </trkpt>
      <trkpt lat="0" lon="0">
        <time>2020-12-06T09:54:09.928000+00:00</time>
      </trkpt>
      <trkpt lat="0" lon="0">
        <time>2020-12-06T09:54:09.936000+00:00</time>
      </trkpt>
      <trkpt lat="0" lon="0">
        <time>2020-12-06T09:54:09.938000+00:00</time>
      </trkpt>
      <trkpt lat="47.33933" lon="-1.31889">
        <ele>73</ele>
        <time>2020-12-06T09:54:10.965000+00:00</time>
      </trkpt>
      <trkpt lat="0" lon="0">
        <time>2020-12-06T09:54:10.971000+00:00</time>
      </trkpt>
      <trkpt lat="0" lon="0">
        <time>2020-12-06T09:54:10.976000+00:00</time>
      </trkpt>
      <trkpt lat="0" lon="0">
        <time>2020-12-06T09:54:10.981000+00:00</time>
      </trkpt>
      <trkpt lat="47.33931" lon="-1.31892">
        <ele>73</ele>
        <time>2020-12-06T09:54:11.940000+00:00</time>
      </trkpt>
      <trkpt lat="0" lon="0">
        <time>2020-12-06T09:54:11.957000+00:00</time>
      </trkpt>
      <trkpt lat="0" lon="0">
        <time>2020-12-06T09:54:11.960000+00:00</time>
      </trkpt>
      <trkpt lat="0" lon="0">
        <time>2020-12-06T09:54:11.962000+00:00</time>
      </trkpt>
      <trkpt lat="47.33929" lon="-1.31896">
        <ele>73</ele>
        <time>2020-12-06T09:54:12.961000+00:00</time>
      </trkpt>
      <trkpt lat="0" lon="0">
        <time>2020-12-06T09:54:12.985000+00:00</time>
      </trkpt>
      <trkpt lat="0" lon="0">
        <time>2020-12-06T09:54:12.992000+00:00</time>
      </trkpt>
      <trkpt lat="0" lon="0">
        <time>2020-12-06T09:54:12.995000+00:00</time>
      </trkpt>
      <trkpt lat="47.33927" lon="-1.31901">
        <ele>73</ele>
        <time>2020-12-06T09:54:13.959000+00:00</time>
      </trkpt>
      <trkpt lat="0" lon="0">
        <time>2020-12-06T09:54:13.967000+00:00</time>
      </trkpt>
      <trkpt lat="0" lon="0">
        <time>2020-12-06T09:54:13.971000+00:00</time>
      </trkpt>
      <trkpt lat="0" lon="0">
        <time>2020-12-06T09:54:13.972000+00:00</time>
      </trkpt>
      <trkpt lat="47.33925" lon="-1.31905">
        <ele>73</ele>
        <time>2020-12-06T09:54:14.989000+00:00</time>
      </trkpt>
      <trkpt lat="0" lon="0">
        <time>2020-12-06T09:54:14.993000+00:00</time>
      </trkpt>
      <trkpt lat="0" lon="0">
        <time>2020-12-06T09:54:14.998000+00:00</time>
      </trkpt>
      <trkpt lat="0" lon="0">
        <time>2020-12-06T09:54:15+00:00</time>
      </trkpt>
      <trkpt lat="47.33922" lon="-1.3191">
        <ele>73</ele>
        <time>2020-12-06T09:54:15.939000+00:00</time>
      </trkpt>
      <trkpt lat="0" lon="0">
        <time>2020-12-06T09:54:15.949000+00:00</time>
      </trkpt>
      <trkpt lat="0" lon="0">
        <time>2020-12-06T09:54:15.954000+00:00</time>
      </trkpt>
      <trkpt lat="0" lon="0">
        <time>2020-12-06T09:54:15.955000+00:00</time>
      </trkpt>
      <trkpt lat="47.33919" lon="-1.31915">
        <ele>73</ele>
        <time>2020-12-06T09:54:16.950000+00:00</time>
      </trkpt>
      <trkpt lat="0" lon="0">
        <time>2020-12-06T09:54:16.965000+00:00</time>
      </trkpt>
      <trkpt lat="0" lon="0">
        <time>2020-12-06T09:54:16.971000+00:00</time>
      </trkpt>
      <trkpt lat="0" lon="0">
        <time>2020-12-06T09:54:16.976000+00:00</time>
      </trkpt>
      <trkpt lat="47.33916" lon="-1.31921">
        <ele>72</ele>
        <time>2020-12-06T09:54:17.881000+00:00</time>
      </trkpt>
      <trkpt lat="0" lon="0">
        <time>2020-12-06T09:54:17.894000+00:00</time>
      </trkpt>
      <trkpt lat="0" lon="0">
        <time>2020-12-06T09:54:17.898000+00:00</time>
      </trkpt>
      <trkpt lat="0" lon="0">
        <time>2020-12-06T09:54:17.900000+00:00</time>
      </trkpt>
      <trkpt lat="47.33913" lon="-1.31926">
        <ele>72</ele>
        <time>2020-12-06T09:54:18.936000+00:00</time>
      </trkpt>
      <trkpt lat="0" lon="0">
        <time>2020-12-06T09:54:18.945000+00:00</time>
      </trkpt>
      <trkpt lat="0" lon="0">
        <time>2020-12-06T09:54:18.951000+00:00</time>
      </trkpt>
      <trkpt lat="0" lon="0">
        <time>2020-12-06T09:54:18.958000+00:00</time>
      </trkpt>
      <trkpt lat="47.3391" lon="-1.31932">
        <ele>72</ele>
        <time>2020-12-06T09:54:19.940000+00:00</time>
      </trkpt>
      <trkpt lat="0" lon="0">
        <time>2020-12-06T09:54:19.947000+00:00</time>
      </trkpt>
      <trkpt lat="0" lon="0">
        <time>2020-12-06T09:54:19.952000+00:00</time>
      </trkpt>
      <trkpt lat="0" lon="0">
        <time>2020-12-06T09:54:19.953000+00:00</time>
      </trkpt>
      <trkpt lat="47.33907" lon="-1.31939">
        <ele>72</ele>
        <time>2020-12-06T09:54:20.955000+00:00</time>
      </trkpt>
      <trkpt lat="0" lon="0">
        <time>2020-12-06T09:54:20.958000+00:00</time>
      </trkpt>
      <trkpt lat="0" lon="0">
        <time>2020-12-06T09:54:20.971000+00:00</time>
      </trkpt>
      <trkpt lat="0" lon="0">
        <time>2020-12-06T09:54:20.973000+00:00</time>
      </trkpt>
      <trkpt lat="47.33904" lon="-1.31945">
        <ele>71</ele>
        <time>2020-12-06T09:54:21.987000+00:00</time>
      </trkpt>
      <trkpt lat="0" lon="0">
        <time>2020-12-06T09:54:22+00:00</time>
      </trkpt>
      <trkpt lat="0" lon="0">
        <time>2020-12-06T09:54:22.007000+00:00</time>
      </trkpt>
      <trkpt lat="0" lon="0">
        <time>2020-12-06T09:54:22.011000+00:00</time>
      </trkpt>
      <trkpt lat="47.33901" lon="-1.31952">
        <ele>71</ele>
        <time>2020-12-06T09:54:22.949000+00:00</time>
      </trkpt>
      <trkpt lat="0" lon="0">
        <time>2020-12-06T09:54:22.957000+00:00</time>
      </trkpt>
      <trkpt lat="0" lon="0">
        <time>2020-12-06T09:54:22.963000+00:00</time>
      </trkpt>
      <trkpt lat="0" lon="0">
        <time>2020-12-06T09:54:22.964000+00:00</time>
      </trkpt>
      <trkpt lat="47.33897" lon="-1.31958">
        <ele>71</ele>
        <time>2020-12-06T09:54:23.971000+00:00</time>
      </trkpt>
      <trkpt lat="0" lon="0">
        <time>2020-12-06T09:54:23.985000+00:00</time>
      </trkpt>
      <trkpt lat="0" lon="0">
        <time>2020-12-06T09:54:23.994000+00:00</time>
      </trkpt>
      <trkpt lat="0" lon="0">
        <time>2020-12-06T09:54:23.996000+00:00</time>
      </trkpt>
      <trkpt lat="47.33894" lon="-1.31964">
        <ele>70</ele>
        <time>2020-12-06T09:54:24.920000+00:00</time>
      </trkpt>
      <trkpt lat="0" lon="0">
        <time>2020-12-06T09:54:24.929000+00:00</time>
      </trkpt>
      <trkpt lat="0" lon="0">
        <time>2020-12-06T09:54:24.931000+00:00</time>
      </trkpt>
      <trkpt lat="0" lon="0">
        <time>2020-12-06T09:54:24.932000+00:00</time>
      </trkpt>
      <trkpt lat="47.33891" lon="-1.3197">
        <ele>70</ele>
        <time>2020-12-06T09:54:25.972000+00:00</time>
      </trkpt>
      <trkpt lat="0" lon="0">
        <time>2020-12-06T09:54:25.978000+00:00</time>
      </trkpt>
      <trkpt lat="0" lon="0">
        <time>2020-12-06T09:54:25.980000+00:00</time>
      </trkpt>
      <trkpt lat="0" lon="0">
        <time>2020-12-06T09:54:25.981000+00:00</time>
      </trkpt>
      <trkpt lat="47.33888" lon="-1.31976">
        <ele>70</ele>
        <time>2020-12-06T09:54:26.955000+00:00</time>
      </trkpt>
      <trkpt lat="0" lon="0">
        <time>2020-12-06T09:54:26.972000+00:00</time>
      </trkpt>
      <trkpt lat="0" lon="0">
        <time>2020-12-06T09:54:26.976000+00:00</time>
      </trkpt>
      <trkpt lat="0" lon="0">
        <time>2020-12-06T09:54:26.977000+00:00</time>
      </trkpt>
      <trkpt lat="47.33884" lon="-1.31981">
        <ele>69</ele>
        <time>2020-12-06T09:54:27.974000+00:00</time>
      </trkpt>
      <trkpt lat="0" lon="0">
        <time>2020-12-06T09:54:27.981000+00:00</time>
      </trkpt>
      <trkpt lat="0" lon="0">
        <time>2020-12-06T09:54:27.988000+00:00</time>
      </trkpt>
      <trkpt lat="0" lon="0">
        <time>2020-12-06T09:54:27.991000+00:00</time>
      </trkpt>
      <trkpt lat="47.3388" lon="-1.31986">
        <ele>69</ele>
        <time>2020-12-06T09:54:28.967000+00:00</time>
      </trkpt>
      <trkpt lat="0" lon="0">
        <time>2020-12-06T09:54:28.974000+00:00</time>
      </trkpt>
      <trkpt lat="0" lon="0">
        <time>2020-12-06T09:54:28.978000+00:00</time>
      </trkpt>
      <trkpt lat="0" lon="0">
        <time>2020-12-06T09:54:28.980000+00:00</time>
      </trkpt>
      <trkpt lat="47.33878" lon="-1.31991">
        <ele>69</ele>
        <time>2020-12-06T09:54:29.932000+00:00</time>
      </trkpt>
      <trkpt lat="0" lon="0">
        <time>2020-12-06T09:54:29.949000+00:00</time>
      </trkpt>
      <trkpt lat="0" lon="0">
        <time>2020-12-06T09:54:29.954000+00:00</time>
      </trkpt>
      <trkpt lat="0" lon="0">
        <time>2020-12-06T09:54:29.957000+00:00</time>
      </trkpt>
      <trkpt lat="47.33875" lon="-1.31996">
        <ele>69</ele>
        <time>2020-12-06T09:54:30.928000+00:00</time>
      </trkpt>
      <trkpt lat="0" lon="0">
        <time>2020-12-06T09:54:30.939000+00:00</time>
      </trkpt>
      <trkpt lat="0" lon="0">
        <time>2020-12-06T09:54:30.945000+00:00</time>
      </trkpt>
      <trkpt lat="0" lon="0">
        <time>2020-12-06T09:54:30.946000+00:00</time>
      </trkpt>
      <trkpt lat="47.33874" lon="-1.32001">
        <ele>68</ele>
        <time>2020-12-06T09:54:31.949000+00:00</time>
      </trkpt>
      <trkpt lat="0" lon="0">
        <time>2020-12-06T09:54:31.956000+00:00</time>
      </trkpt>
      <trkpt lat="0" lon="0">
        <time>2020-12-06T09:54:31.958000+00:00</time>
      </trkpt>
      <trkpt lat="47.33874" lon="-1.32006">
        <ele>68</ele>
        <time>2020-12-06T09:54:32.938000+00:00</time>
      </trkpt>
      <trkpt lat="0" lon="0">
        <time>2020-12-06T09:54:32.955000+00:00</time>
      </trkpt>
      <trkpt lat="0" lon="0">
        <time>2020-12-06T09:54:32.962000+00:00</time>
      </trkpt>
      <trkpt lat="0" lon="0">
        <time>2020-12-06T09:54:32.968000+00:00</time>
      </trkpt>
      <trkpt lat="47.33874" lon="-1.3201">
        <ele>68</ele>
        <time>2020-12-06T09:54:33.949000+00:00</time>
      </trkpt>
      <trkpt lat="0" lon="0">
        <time>2020-12-06T09:54:33.963000+00:00</time>
      </trkpt>
      <trkpt lat="0" lon="0">
        <time>2020-12-06T09:54:33.967000+00:00</time>
      </trkpt>
      <trkpt lat="0" lon="0">
        <time>2020-12-06T09:54:33.973000+00:00</time>
      </trkpt>
      <trkpt lat="47.33874" lon="-1.32015">
        <ele>68</ele>
        <time>2020-12-06T09:54:34.972000+00:00</time>
      </trkpt>
      <trkpt lat="0" lon="0">
        <time>2020-12-06T09:54:34.978000+00:00</time>
      </trkpt>
      <trkpt lat="0" lon="0">
        <time>2020-12-06T09:54:34.983000+00:00</time>
      </trkpt>
      <trkpt lat="0" lon="0">
        <time>2020-12-06T09:54:34.984000+00:00</time>
      </trkpt>
      <trkpt lat="47.33876" lon="-1.32021">
        <ele>68</ele>
        <time>2020-12-06T09:54:35.942000+00:00</time>
      </trkpt>
      <trkpt lat="0" lon="0">
        <time>2020-12-06T09:54:35.946000+00:00</time>
      </trkpt>
      <trkpt lat="0" lon="0">
        <time>2020-12-06T09:54:35.953000+00:00</time>
      </trkpt>
      <trkpt lat="0" lon="0">
        <time>2020-12-06T09:54:35.956000+00:00</time>
      </trkpt>
      <trkpt lat="47.33877" lon="-1.32027">
        <ele>68</ele>
        <time>2020-12-06T09:54:36.949000+00:00</time>
      </trkpt>
      <trkpt lat="0" lon="0">
        <time>2020-12-06T09:54:36.960000+00:00</time>
      </trkpt>
      <trkpt lat="0" lon="0">
        <time>2020-12-06T09:54:36.964000+00:00</time>
      </trkpt>
      <trkpt lat="0" lon="0">
        <time>2020-12-06T09:54:36.966000+00:00</time>
      </trkpt>
      <trkpt lat="47.33879" lon="-1.32032">
        <ele>68</ele>
        <time>2020-12-06T09:54:37.904000+00:00</time>
      </trkpt>
      <trkpt lat="0" lon="0">
        <time>2020-12-06T09:54:37.908000+00:00</time>
      </trkpt>
      <trkpt lat="0" lon="0">
        <time>2020-12-06T09:54:37.913000+00:00</time>
      </trkpt>
      <trkpt lat="0" lon="0">
        <time>2020-12-06T09:54:37.914000+00:00</time>
      </trkpt>
      <trkpt lat="47.33881" lon="-1.32038">
        <ele>67</ele>
        <time>2020-12-06T09:54:38.984000+00:00</time>
      </trkpt>
      <trkpt lat="0" lon="0">
        <time>2020-12-06T09:54:39+00:00</time>
      </trkpt>
      <trkpt lat="0" lon="0">
        <time>2020-12-06T09:54:39.023000+00:00</time>
      </trkpt>
      <trkpt lat="0" lon="0">
        <time>2020-12-06T09:54:39.027000+00:00</time>
      </trkpt>
      <trkpt lat="47.33883" lon="-1.32045">
        <ele>67</ele>
        <time>2020-12-06T09:54:39.985000+00:00</time>
      </trkpt>
      <trkpt lat="0" lon="0">
        <time>2020-12-06T09:54:39.995000+00:00</time>
      </trkpt>
      <trkpt lat="0" lon="0">
        <time>2020-12-06T09:54:40+00:00</time>
      </trkpt>
      <trkpt lat="0" lon="0">
        <time>2020-12-06T09:54:40.002000+00:00</time>
      </trkpt>
      <trkpt lat="47.33885" lon="-1.32051">
        <ele>67</ele>
        <time>2020-12-06T09:54:40.982000+00:00</time>
      </trkpt>
      <trkpt lat="0" lon="0">
        <time>2020-12-06T09:54:40.986000+00:00</time>
      </trkpt>
      <trkpt lat="0" lon="0">
        <time>2020-12-06T09:54:40.990000+00:00</time>
      </trkpt>
      <trkpt lat="0" lon="0">
        <time>2020-12-06T09:54:40.992000+00:00</time>
      </trkpt>
      <trkpt lat="47.33888" lon="-1.32058">
        <ele>67</ele>
        <time>2020-12-06T09:54:41.936000+00:00</time>
      </trkpt>
      <trkpt lat="0" lon="0">
        <time>2020-12-06T09:54:41.940000+00:00</time>
      </trkpt>
      <trkpt lat="0" lon="0">
        <time>2020-12-06T09:54:41.944000+00:00</time>
      </trkpt>
      <trkpt lat="0" lon="0">
        <time>2020-12-06T09:54:41.946000+00:00</time>
      </trkpt>
      <trkpt lat="47.33891" lon="-1.32064">
        <ele>67</ele>
        <time>2020-12-06T09:54:42.949000+00:00</time>
      </trkpt>
      <trkpt lat="0" lon="0">
        <time>2020-12-06T09:54:42.966000+00:00</time>
      </trkpt>
      <trkpt lat="0" lon="0">
        <time>2020-12-06T09:54:42.971000+00:00</time>
      </trkpt>
      <trkpt lat="0" lon="0">
        <time>2020-12-06T09:54:42.973000+00:00</time>
      </trkpt>
      <trkpt lat="47.33894" lon="-1.32071">
        <ele>67</ele>
        <time>2020-12-06T09:54:43.936000+00:00</time>
      </trkpt>
      <trkpt lat="0" lon="0">
        <time>2020-12-06T09:54:43.939000+00:00</time>
      </trkpt>
      <trkpt lat="0" lon="0">
        <time>2020-12-06T09:54:43.946000+00:00</time>
      </trkpt>
      <trkpt lat="47.33897" lon="-1.32078">
        <ele>67</ele>
        <time>2020-12-06T09:54:44.953000+00:00</time>
      </trkpt>
      <trkpt lat="0" lon="0">
        <time>2020-12-06T09:54:44.961000+00:00</time>
      </trkpt>
      <trkpt lat="0" lon="0">
        <time>2020-12-06T09:54:44.966000+00:00</time>
      </trkpt>
      <trkpt lat="0" lon="0">
        <time>2020-12-06T09:54:44.978000+00:00</time>
      </trkpt>
      <trkpt lat="47.33901" lon="-1.32084">
        <ele>67</ele>
        <time>2020-12-06T09:54:45.979000+00:00</time>
      </trkpt>
      <trkpt lat="0" lon="0">
        <time>2020-12-06T09:54:45.982000+00:00</time>
      </trkpt>
      <trkpt lat="0" lon="0">
        <time>2020-12-06T09:54:45.985000+00:00</time>
      </trkpt>
      <trkpt lat="0" lon="0">
        <time>2020-12-06T09:54:45.988000+00:00</time>
      </trkpt>
      <trkpt lat="47.33904" lon="-1.32091">
        <ele>67</ele>
        <time>2020-12-06T09:54:46.948000+00:00</time>
      </trkpt>
      <trkpt lat="0" lon="0">
        <time>2020-12-06T09:54:46.952000+00:00</time>
      </trkpt>
      <trkpt lat="0" lon="0">
        <time>2020-12-06T09:54:46.957000+00:00</time>
      </trkpt>
      <trkpt lat="0" lon="0">
        <time>2020-12-06T09:54:46.959000+00:00</time>
      </trkpt>
      <trkpt lat="47.33907" lon="-1.32097">
        <ele>68</ele>
        <time>2020-12-06T09:54:47.951000+00:00</time>
      </trkpt>
      <trkpt lat="0" lon="0">
        <time>2020-12-06T09:54:47.964000+00:00</time>
      </trkpt>
      <trkpt lat="0" lon="0">
        <time>2020-12-06T09:54:47.973000+00:00</time>
      </trkpt>
      <trkpt lat="0" lon="0">
        <time>2020-12-06T09:54:47.976000+00:00</time>
      </trkpt>
      <trkpt lat="47.33911" lon="-1.32104">
        <ele>68</ele>
        <time>2020-12-06T09:54:48.942000+00:00</time>
      </trkpt>
      <trkpt lat="0" lon="0">
        <time>2020-12-06T09:54:48.948000+00:00</time>
      </trkpt>
      <trkpt lat="0" lon="0">
        <time>2020-12-06T09:54:48.951000+00:00</time>
      </trkpt>
      <trkpt lat="0" lon="0">
        <time>2020-12-06T09:54:48.953000+00:00</time>
      </trkpt>
      <trkpt lat="47.33914" lon="-1.3211">
        <ele>68</ele>
        <time>2020-12-06T09:54:49.967000+00:00</time>
      </trkpt>
      <trkpt lat="0" lon="0">
        <time>2020-12-06T09:54:49.970000+00:00</time>
      </trkpt>
      <trkpt lat="0" lon="0">
        <time>2020-12-06T09:54:49.977000+00:00</time>
      </trkpt>
      <trkpt lat="0" lon="0">
        <time>2020-12-06T09:54:49.979000+00:00</time>
      </trkpt>
      <trkpt lat="47.33918" lon="-1.32116">
        <ele>68</ele>
        <time>2020-12-06T09:54:50.971000+00:00</time>
      </trkpt>
      <trkpt lat="0" lon="0">
        <time>2020-12-06T09:54:50.983000+00:00</time>
      </trkpt>
      <trkpt lat="0" lon="0">
        <time>2020-12-06T09:54:50.989000+00:00</time>
      </trkpt>
      <trkpt lat="0" lon="0">
        <time>2020-12-06T09:54:50.991000+00:00</time>
      </trkpt>
      <trkpt lat="47.33922" lon="-1.32122">
        <ele>68</ele>
        <time>2020-12-06T09:54:51.936000+00:00</time>
      </trkpt>
      <trkpt lat="0" lon="0">
        <time>2020-12-06T09:54:51.944000+00:00</time>
      </trkpt>
      <trkpt lat="0" lon="0">
        <time>2020-12-06T09:54:51.952000+00:00</time>
      </trkpt>
      <trkpt lat="0" lon="0">
        <time>2020-12-06T09:54:51.954000+00:00</time>
      </trkpt>
      <trkpt lat="47.33925" lon="-1.32127">
        <ele>68</ele>
        <time>2020-12-06T09:54:52.937000+00:00</time>
      </trkpt>
      <trkpt lat="0" lon="0">
        <time>2020-12-06T09:54:52.949000+00:00</time>
      </trkpt>
      <trkpt lat="0" lon="0">
        <time>2020-12-06T09:54:52.954000+00:00</time>
      </trkpt>
      <trkpt lat="0" lon="0">
        <time>2020-12-06T09:54:52.956000+00:00</time>
      </trkpt>
      <trkpt lat="47.33929" lon="-1.32133">
        <ele>68</ele>
        <time>2020-12-06T09:54:53.959000+00:00</time>
      </trkpt>
      <trkpt lat="0" lon="0">
        <time>2020-12-06T09:54:53.967000+00:00</time>
      </trkpt>
      <trkpt lat="0" lon="0">
        <time>2020-12-06T09:54:53.971000+00:00</time>
      </trkpt>
      <trkpt lat="0" lon="0">
        <time>2020-12-06T09:54:53.972000+00:00</time>
      </trkpt>
      <trkpt lat="47.33932" lon="-1.32139">
        <ele>68</ele>
        <time>2020-12-06T09:54:54.954000+00:00</time>
      </trkpt>
      <trkpt lat="0" lon="0">
        <time>2020-12-06T09:54:54.960000+00:00</time>
      </trkpt>
      <trkpt lat="0" lon="0">
        <time>2020-12-06T09:54:54.978000+00:00</time>
      </trkpt>
      <trkpt lat="0" lon="0">
        <time>2020-12-06T09:54:54.984000+00:00</time>
      </trkpt>
      <trkpt lat="47.33936" lon="-1.32144">
        <ele>68</ele>
        <time>2020-12-06T09:54:55.973000+00:00</time>
      </trkpt>
      <trkpt lat="0" lon="0">
        <time>2020-12-06T09:54:55.985000+00:00</time>
      </trkpt>
      <trkpt lat="0" lon="0">
        <time>2020-12-06T09:54:55.990000+00:00</time>
      </trkpt>
      <trkpt lat="0" lon="0">
        <time>2020-12-06T09:54:55.991000+00:00</time>
      </trkpt>
      <trkpt lat="47.33939" lon="-1.3215">
        <ele>67</ele>
        <time>2020-12-06T09:54:56.952000+00:00</time>
      </trkpt>
      <trkpt lat="0" lon="0">
        <time>2020-12-06T09:54:56.965000+00:00</time>
      </trkpt>
      <trkpt lat="0" lon="0">
        <time>2020-12-06T09:54:56.968000+00:00</time>
      </trkpt>
      <trkpt lat="0" lon="0">
        <time>2020-12-06T09:54:56.973000+00:00</time>
      </trkpt>
      <trkpt lat="47.33943" lon="-1.32155">
        <ele>67</ele>
        <time>2020-12-06T09:54:57.942000+00:00</time>
      </trkpt>
      <trkpt lat="0" lon="0">
        <time>2020-12-06T09:54:57.960000+00:00</time>
      </trkpt>
      <trkpt lat="0" lon="0">
        <time>2020-12-06T09:54:57.967000+00:00</time>
      </trkpt>
      <trkpt lat="0" lon="0">
        <time>2020-12-06T09:54:57.970000+00:00</time>
      </trkpt>
      <trkpt lat="47.33946" lon="-1.3216">
        <ele>67</ele>
        <time>2020-12-06T09:54:58.965000+00:00</time>
      </trkpt>
      <trkpt lat="0" lon="0">
        <time>2020-12-06T09:54:58.969000+00:00</time>
      </trkpt>
      <trkpt lat="0" lon="0">
        <time>2020-12-06T09:54:58.975000+00:00</time>
      </trkpt>
      <trkpt lat="0" lon="0">
        <time>2020-12-06T09:54:58.983000+00:00</time>
      </trkpt>
      <trkpt lat="47.3395" lon="-1.32165">
        <ele>67</ele>
        <time>2020-12-06T09:54:59.963000+00:00</time>
      </trkpt>
      <trkpt lat="0" lon="0">
        <time>2020-12-06T09:54:59.982000+00:00</time>
      </trkpt>
      <trkpt lat="0" lon="0">
        <time>2020-12-06T09:54:59.986000+00:00</time>
      </trkpt>
      <trkpt lat="0" lon="0">
        <time>2020-12-06T09:54:59.987000+00:00</time>
      </trkpt>
      <trkpt lat="47.33954" lon="-1.3217">
        <ele>67</ele>
        <time>2020-12-06T09:55:00.937000+00:00</time>
      </trkpt>
      <trkpt lat="0" lon="0">
        <time>2020-12-06T09:55:00.949000+00:00</time>
      </trkpt>
      <trkpt lat="0" lon="0">
        <time>2020-12-06T09:55:00.955000+00:00</time>
      </trkpt>
      <trkpt lat="0" lon="0">
        <time>2020-12-06T09:55:00.957000+00:00</time>
      </trkpt>
      <trkpt lat="47.33957" lon="-1.32175">
        <ele>67</ele>
        <time>2020-12-06T09:55:01.949000+00:00</time>
      </trkpt>
      <trkpt lat="0" lon="0">
        <time>2020-12-06T09:55:01.960000+00:00</time>
      </trkpt>
      <trkpt lat="0" lon="0">
        <time>2020-12-06T09:55:01.965000+00:00</time>
      </trkpt>
      <trkpt lat="0" lon="0">
        <time>2020-12-06T09:55:01.968000+00:00</time>
      </trkpt>
      <trkpt lat="47.33961" lon="-1.32181">
        <ele>67</ele>
        <time>2020-12-06T09:55:02.944000+00:00</time>
      </trkpt>
      <trkpt lat="0" lon="0">
        <time>2020-12-06T09:55:02.950000+00:00</time>
      </trkpt>
      <trkpt lat="0" lon="0">
        <time>2020-12-06T09:55:02.956000+00:00</time>
      </trkpt>
      <trkpt lat="0" lon="0">
        <time>2020-12-06T09:55:02.957000+00:00</time>
      </trkpt>
      <trkpt lat="47.33964" lon="-1.32187">
        <ele>68</ele>
        <time>2020-12-06T09:55:03.926000+00:00</time>
      </trkpt>
      <trkpt lat="0" lon="0">
        <time>2020-12-06T09:55:03.930000+00:00</time>
      </trkpt>
      <trkpt lat="0" lon="0">
        <time>2020-12-06T09:55:03.933000+00:00</time>
      </trkpt>
      <trkpt lat="0" lon="0">
        <time>2020-12-06T09:55:03.936000+00:00</time>
      </trkpt>
      <trkpt lat="47.33966" lon="-1.32194">
        <ele>68</ele>
        <time>2020-12-06T09:55:04.928000+00:00</time>
      </trkpt>
      <trkpt lat="0" lon="0">
        <time>2020-12-06T09:55:04.949000+00:00</time>
      </trkpt>
      <trkpt lat="0" lon="0">
        <time>2020-12-06T09:55:04.959000+00:00</time>
      </trkpt>
      <trkpt lat="0" lon="0">
        <time>2020-12-06T09:55:04.964000+00:00</time>
      </trkpt>
      <trkpt lat="47.33968" lon="-1.32202">
        <ele>68</ele>
        <time>2020-12-06T09:55:05.983000+00:00</time>
      </trkpt>
      <trkpt lat="0" lon="0">
        <time>2020-12-06T09:55:06.002000+00:00</time>
      </trkpt>
      <trkpt lat="0" lon="0">
        <time>2020-12-06T09:55:06.005000+00:00</time>
      </trkpt>
      <trkpt lat="0" lon="0">
        <time>2020-12-06T09:55:06.007000+00:00</time>
      </trkpt>
      <trkpt lat="47.3397" lon="-1.3221">
        <ele>68</ele>
        <time>2020-12-06T09:55:06.974000+00:00</time>
      </trkpt>
      <trkpt lat="0" lon="0">
        <time>2020-12-06T09:55:06.982000+00:00</time>
      </trkpt>
      <trkpt lat="0" lon="0">
        <time>2020-12-06T09:55:06.983000+00:00</time>
      </trkpt>
      <trkpt lat="47.33972" lon="-1.32218">
        <ele>68</ele>
        <time>2020-12-06T09:55:07.958000+00:00</time>
      </trkpt>
      <trkpt lat="0" lon="0">
        <time>2020-12-06T09:55:07.963000+00:00</time>
      </trkpt>
      <trkpt lat="0" lon="0">
        <time>2020-12-06T09:55:07.973000+00:00</time>
      </trkpt>
      <trkpt lat="0" lon="0">
        <time>2020-12-06T09:55:07.977000+00:00</time>
      </trkpt>
      <trkpt lat="47.33975" lon="-1.32226">
        <ele>68</ele>
        <time>2020-12-06T09:55:08.948000+00:00</time>
      </trkpt>
      <trkpt lat="0" lon="0">
        <time>2020-12-06T09:55:08.961000+00:00</time>
      </trkpt>
      <trkpt lat="0" lon="0">
        <time>2020-12-06T09:55:08.971000+00:00</time>
      </trkpt>
      <trkpt lat="0" lon="0">
        <time>2020-12-06T09:55:08.983000+00:00</time>
      </trkpt>
      <trkpt lat="47.33978" lon="-1.32234">
        <ele>68</ele>
        <time>2020-12-06T09:55:09.998000+00:00</time>
      </trkpt>
      <trkpt lat="0" lon="0">
        <time>2020-12-06T09:55:10.007000+00:00</time>
      </trkpt>
      <trkpt lat="0" lon="0">
        <time>2020-12-06T09:55:10.013000+00:00</time>
      </trkpt>
      <trkpt lat="0" lon="0">
        <time>2020-12-06T09:55:10.018000+00:00</time>
      </trkpt>
      <trkpt lat="47.33981" lon="-1.32242">
        <ele>68</ele>
        <time>2020-12-06T09:55:10.994000+00:00</time>
      </trkpt>
      <trkpt lat="0" lon="0">
        <time>2020-12-06T09:55:11.009000+00:00</time>
      </trkpt>
      <trkpt lat="0" lon="0">
        <time>2020-12-06T09:55:11.012000+00:00</time>
      </trkpt>
      <trkpt lat="0" lon="0">
        <time>2020-12-06T09:55:11.015000+00:00</time>
      </trkpt>
      <trkpt lat="47.33985" lon="-1.32249">
        <ele>68</ele>
        <time>2020-12-06T09:55:11.969000+00:00</time>
      </trkpt>
      <trkpt lat="0" lon="0">
        <time>2020-12-06T09:55:11.988000+00:00</time>
      </trkpt>
      <trkpt lat="0" lon="0">
        <time>2020-12-06T09:55:11.996000+00:00</time>
      </trkpt>
      <trkpt lat="0" lon="0">
        <time>2020-12-06T09:55:12+00:00</time>
      </trkpt>
      <trkpt lat="47.33992" lon="-1.32263">
        <ele>69</ele>
        <time>2020-12-06T09:55:13.870000+00:00</time>
      </trkpt>
      <trkpt lat="0" lon="0">
        <time>2020-12-06T09:55:13.877000+00:00</time>
      </trkpt>
      <trkpt lat="0" lon="0">
        <time>2020-12-06T09:55:13.885000+00:00</time>
      </trkpt>
      <trkpt lat="0" lon="0">
        <time>2020-12-06T09:55:13.888000+00:00</time>
      </trkpt>
      <trkpt lat="47.33996" lon="-1.32269">
        <ele>69</ele>
        <time>2020-12-06T09:55:14.969000+00:00</time>
      </trkpt>
      <trkpt lat="0" lon="0">
        <time>2020-12-06T09:55:14.981000+00:00</time>
      </trkpt>
      <trkpt lat="0" lon="0">
        <time>2020-12-06T09:55:14.985000+00:00</time>
      </trkpt>
      <trkpt lat="0" lon="0">
        <time>2020-12-06T09:55:14.986000+00:00</time>
      </trkpt>
      <trkpt lat="47.34" lon="-1.32275">
        <ele>69</ele>
        <time>2020-12-06T09:55:15.965000+00:00</time>
      </trkpt>
      <trkpt lat="0" lon="0">
        <time>2020-12-06T09:55:15.969000+00:00</time>
      </trkpt>
      <trkpt lat="0" lon="0">
        <time>2020-12-06T09:55:15.980000+00:00</time>
      </trkpt>
      <trkpt lat="0" lon="0">
        <time>2020-12-06T09:55:15.982000+00:00</time>
      </trkpt>
      <trkpt lat="47.34004" lon="-1.32281">
        <ele>70</ele>
        <time>2020-12-06T09:55:16.969000+00:00</time>
      </trkpt>
      <trkpt lat="0" lon="0">
        <time>2020-12-06T09:55:16.972000+00:00</time>
      </trkpt>
      <trkpt lat="0" lon="0">
        <time>2020-12-06T09:55:16.978000+00:00</time>
      </trkpt>
      <trkpt lat="0" lon="0">
        <time>2020-12-06T09:55:16.981000+00:00</time>
      </trkpt>
      <trkpt lat="47.34008" lon="-1.32288">
        <ele>70</ele>
        <time>2020-12-06T09:55:17.966000+00:00</time>
      </trkpt>
      <trkpt lat="0" lon="0">
        <time>2020-12-06T09:55:17.978000+00:00</time>
      </trkpt>
      <trkpt lat="0" lon="0">
        <time>2020-12-06T09:55:17.981000+00:00</time>
      </trkpt>
      <trkpt lat="0" lon="0">
        <time>2020-12-06T09:55:17.983000+00:00</time>
      </trkpt>
      <trkpt lat="47.34012" lon="-1.32294">
        <ele>70</ele>
        <time>2020-12-06T09:55:18.959000+00:00</time>
      </trkpt>
      <trkpt lat="0" lon="0">
        <time>2020-12-06T09:55:18.969000+00:00</time>
      </trkpt>
      <trkpt lat="0" lon="0">
        <time>2020-12-06T09:55:18.973000+00:00</time>
      </trkpt>
      <trkpt lat="0" lon="0">
        <time>2020-12-06T09:55:18.975000+00:00</time>
      </trkpt>
      <trkpt lat="47.34016" lon="-1.32301">
        <ele>70</ele>
        <time>2020-12-06T09:55:19.975000+00:00</time>
      </trkpt>
      <trkpt lat="0" lon="0">
        <time>2020-12-06T09:55:19.994000+00:00</time>
      </trkpt>
      <trkpt lat="0" lon="0">
        <time>2020-12-06T09:55:19.999000+00:00</time>
      </trkpt>
      <trkpt lat="0" lon="0">
        <time>2020-12-06T09:55:20.001000+00:00</time>
      </trkpt>
      <trkpt lat="47.3402" lon="-1.32308">
        <ele>71</ele>
        <time>2020-12-06T09:55:20.969000+00:00</time>
      </trkpt>
      <trkpt lat="0" lon="0">
        <time>2020-12-06T09:55:20.972000+00:00</time>
      </trkpt>
      <trkpt lat="0" lon="0">
        <time>2020-12-06T09:55:20.987000+00:00</time>
      </trkpt>
      <trkpt lat="0" lon="0">
        <time>2020-12-06T09:55:20.989000+00:00</time>
      </trkpt>
      <trkpt lat="47.34023" lon="-1.32315">
        <ele>71</ele>
        <time>2020-12-06T09:55:21.908000+00:00</time>
      </trkpt>
      <trkpt lat="0" lon="0">
        <time>2020-12-06T09:55:21.922000+00:00</time>
      </trkpt>
      <trkpt lat="0" lon="0">
        <time>2020-12-06T09:55:21.926000+00:00</time>
      </trkpt>
      <trkpt lat="0" lon="0">
        <time>2020-12-06T09:55:21.934000+00:00</time>
      </trkpt>
      <trkpt lat="47.34025" lon="-1.32323">
        <ele>71</ele>
        <time>2020-12-06T09:55:22.989000+00:00</time>
      </trkpt>
      <trkpt lat="0" lon="0">
        <time>2020-12-06T09:55:22.999000+00:00</time>
      </trkpt>
      <trkpt lat="0" lon="0">
        <time>2020-12-06T09:55:23.004000+00:00</time>
      </trkpt>
      <trkpt lat="0" lon="0">
        <time>2020-12-06T09:55:23.006000+00:00</time>
      </trkpt>
      <trkpt lat="47.34027" lon="-1.32331">
        <ele>71</ele>
        <time>2020-12-06T09:55:23.968000+00:00</time>
      </trkpt>
      <trkpt lat="0" lon="0">
        <time>2020-12-06T09:55:23.980000+00:00</time>
      </trkpt>
      <trkpt lat="0" lon="0">
        <time>2020-12-06T09:55:23.982000+00:00</time>
      </trkpt>
      <trkpt lat="0" lon="0">
        <time>2020-12-06T09:55:23.983000+00:00</time>
      </trkpt>
      <trkpt lat="47.34028" lon="-1.3234">
        <ele>71</ele>
        <time>2020-12-06T09:55:24.952000+00:00</time>
      </trkpt>
      <trkpt lat="0" lon="0">
        <time>2020-12-06T09:55:24.954000+00:00</time>
      </trkpt>
      <trkpt lat="0" lon="0">
        <time>2020-12-06T09:55:24.961000+00:00</time>
      </trkpt>
      <trkpt lat="0" lon="0">
        <time>2020-12-06T09:55:24.963000+00:00</time>
      </trkpt>
      <trkpt lat="47.34028" lon="-1.32349">
        <ele>71</ele>
        <time>2020-12-06T09:55:25.936000+00:00</time>
      </trkpt>
      <trkpt lat="0" lon="0">
        <time>2020-12-06T09:55:25.947000+00:00</time>
      </trkpt>
      <trkpt lat="0" lon="0">
        <time>2020-12-06T09:55:25.952000+00:00</time>
      </trkpt>
      <trkpt lat="0" lon="0">
        <time>2020-12-06T09:55:25.955000+00:00</time>
      </trkpt>
      <trkpt lat="47.34027" lon="-1.32359">
        <ele>70</ele>
        <time>2020-12-06T09:55:26.964000+00:00</time>
      </trkpt>
      <trkpt lat="0" lon="0">
        <time>2020-12-06T09:55:26.983000+00:00</time>
      </trkpt>
      <trkpt lat="0" lon="0">
        <time>2020-12-06T09:55:26.992000+00:00</time>
      </trkpt>
      <trkpt lat="0" lon="0">
        <time>2020-12-06T09:55:26.995000+00:00</time>
      </trkpt>
      <trkpt lat="47.34027" lon="-1.32369">
        <ele>70</ele>
        <time>2020-12-06T09:55:27.947000+00:00</time>
      </trkpt>
      <trkpt lat="0" lon="0">
        <time>2020-12-06T09:55:27.964000+00:00</time>
      </trkpt>
      <trkpt lat="0" lon="0">
        <time>2020-12-06T09:55:27.970000+00:00</time>
      </trkpt>
      <trkpt lat="0" lon="0">
        <time>2020-12-06T09:55:27.973000+00:00</time>
      </trkpt>
      <trkpt lat="47.34027" lon="-1.32379">
        <ele>70</ele>
        <time>2020-12-06T09:55:28.926000+00:00</time>
      </trkpt>
      <trkpt lat="0" lon="0">
        <time>2020-12-06T09:55:28.932000+00:00</time>
      </trkpt>
      <trkpt lat="0" lon="0">
        <time>2020-12-06T09:55:28.937000+00:00</time>
      </trkpt>
      <trkpt lat="0" lon="0">
        <time>2020-12-06T09:55:28.939000+00:00</time>
      </trkpt>
      <trkpt lat="47.34028" lon="-1.32388">
        <ele>70</ele>
        <time>2020-12-06T09:55:29.900000+00:00</time>
      </trkpt>
      <trkpt lat="0" lon="0">
        <time>2020-12-06T09:55:29.910000+00:00</time>
      </trkpt>
      <trkpt lat="0" lon="0">
        <time>2020-12-06T09:55:29.916000+00:00</time>
      </trkpt>
      <trkpt lat="0" lon="0">
        <time>2020-12-06T09:55:29.922000+00:00</time>
      </trkpt>
      <trkpt lat="47.34029" lon="-1.32396">
        <ele>70</ele>
        <time>2020-12-06T09:55:30.879000+00:00</time>
      </trkpt>
      <trkpt lat="0" lon="0">
        <time>2020-12-06T09:55:30.894000+00:00</time>
      </trkpt>
      <trkpt lat="0" lon="0">
        <time>2020-12-06T09:55:30.901000+00:00</time>
      </trkpt>
      <trkpt lat="0" lon="0">
        <time>2020-12-06T09:55:30.904000+00:00</time>
      </trkpt>
      <trkpt lat="47.34031" lon="-1.32404">
        <ele>69</ele>
        <time>2020-12-06T09:55:31.941000+00:00</time>
      </trkpt>
      <trkpt lat="0" lon="0">
        <time>2020-12-06T09:55:31.945000+00:00</time>
      </trkpt>
      <trkpt lat="0" lon="0">
        <time>2020-12-06T09:55:31.949000+00:00</time>
      </trkpt>
      <trkpt lat="0" lon="0">
        <time>2020-12-06T09:55:31.952000+00:00</time>
      </trkpt>
      <trkpt lat="47.34034" lon="-1.32411">
        <ele>69</ele>
        <time>2020-12-06T09:55:32.966000+00:00</time>
      </trkpt>
      <trkpt lat="0" lon="0">
        <time>2020-12-06T09:55:32.977000+00:00</time>
      </trkpt>
      <trkpt lat="0" lon="0">
        <time>2020-12-06T09:55:32.981000+00:00</time>
      </trkpt>
      <trkpt lat="0" lon="0">
        <time>2020-12-06T09:55:32.984000+00:00</time>
      </trkpt>
      <trkpt lat="47.34037" lon="-1.32418">
        <ele>69</ele>
        <time>2020-12-06T09:55:33.999000+00:00</time>
      </trkpt>
      <trkpt lat="0" lon="0">
        <time>2020-12-06T09:55:34.009000+00:00</time>
      </trkpt>
      <trkpt lat="0" lon="0">
        <time>2020-12-06T09:55:34.019000+00:00</time>
      </trkpt>
      <trkpt lat="0" lon="0">
        <time>2020-12-06T09:55:34.021000+00:00</time>
      </trkpt>
      <trkpt lat="47.34041" lon="-1.32423">
        <ele>69</ele>
        <time>2020-12-06T09:55:34.984000+00:00</time>
      </trkpt>
      <trkpt lat="0" lon="0">
        <time>2020-12-06T09:55:34.993000+00:00</time>
      </trkpt>
      <trkpt lat="0" lon="0">
        <time>2020-12-06T09:55:35+00:00</time>
      </trkpt>
      <trkpt lat="0" lon="0">
        <time>2020-12-06T09:55:35.006000+00:00</time>
      </trkpt>
      <trkpt lat="47.34045" lon="-1.32428">
        <ele>69</ele>
        <time>2020-12-06T09:55:35.827000+00:00</time>
      </trkpt>
      <trkpt lat="0" lon="0">
        <time>2020-12-06T09:55:35.828000+00:00</time>
      </trkpt>
      <trkpt lat="0" lon="0">
        <time>2020-12-06T09:55:35.832000+00:00</time>
      </trkpt>
      <trkpt lat="47.34049" lon="-1.32432">
        <ele>69</ele>
        <time>2020-12-06T09:55:36.950000+00:00</time>
      </trkpt>
      <trkpt lat="0" lon="0">
        <time>2020-12-06T09:55:36.956000+00:00</time>
      </trkpt>
      <trkpt lat="0" lon="0">
        <time>2020-12-06T09:55:36.960000+00:00</time>
      </trkpt>
      <trkpt lat="0" lon="0">
        <time>2020-12-06T09:55:36.963000+00:00</time>
      </trkpt>
      <trkpt lat="47.34053" lon="-1.32436">
        <ele>69</ele>
        <time>2020-12-06T09:55:37.927000+00:00</time>
      </trkpt>
      <trkpt lat="0" lon="0">
        <time>2020-12-06T09:55:37.939000+00:00</time>
      </trkpt>
      <trkpt lat="0" lon="0">
        <time>2020-12-06T09:55:37.944000+00:00</time>
      </trkpt>
      <trkpt lat="0" lon="0">
        <time>2020-12-06T09:55:37.946000+00:00</time>
      </trkpt>
      <trkpt lat="47.34057" lon="-1.32439">
        <ele>69</ele>
        <time>2020-12-06T09:55:38.944000+00:00</time>
      </trkpt>
      <trkpt lat="0" lon="0">
        <time>2020-12-06T09:55:38.951000+00:00</time>
      </trkpt>
      <trkpt lat="0" lon="0">
        <time>2020-12-06T09:55:38.955000+00:00</time>
      </trkpt>
      <trkpt lat="0" lon="0">
        <time>2020-12-06T09:55:38.963000+00:00</time>
      </trkpt>
      <trkpt lat="47.34061" lon="-1.32443">
        <ele>69</ele>
        <time>2020-12-06T09:55:39.978000+00:00</time>
      </trkpt>
      <trkpt lat="0" lon="0">
        <time>2020-12-06T09:55:39.991000+00:00</time>
      </trkpt>
      <trkpt lat="0" lon="0">
        <time>2020-12-06T09:55:39.998000+00:00</time>
      </trkpt>
      <trkpt lat="0" lon="0">
        <time>2020-12-06T09:55:40.003000+00:00</time>
      </trkpt>
      <trkpt lat="47.34065" lon="-1.32445">
        <ele>68</ele>
        <time>2020-12-06T09:55:40.933000+00:00</time>
      </trkpt>
      <trkpt lat="0" lon="0">
        <time>2020-12-06T09:55:40.935000+00:00</time>
      </trkpt>
      <trkpt lat="0" lon="0">
        <time>2020-12-06T09:55:40.937000+00:00</time>
      </trkpt>
      <trkpt lat="47.34069" lon="-1.32448">
        <ele>68</ele>
        <time>2020-12-06T09:55:41.875000+00:00</time>
      </trkpt>
      <trkpt lat="0" lon="0">
        <time>2020-12-06T09:55:41.882000+00:00</time>
      </trkpt>
      <trkpt lat="0" lon="0">
        <time>2020-12-06T09:55:41.899000+00:00</time>
      </trkpt>
      <trkpt lat="0" lon="0">
        <time>2020-12-06T09:55:41.901000+00:00</time>
      </trkpt>
      <trkpt lat="47.34072" lon="-1.32451">
        <ele>68</ele>
        <time>2020-12-06T09:55:42.970000+00:00</time>
      </trkpt>
      <trkpt lat="0" lon="0">
        <time>2020-12-06T09:55:42.985000+00:00</time>
      </trkpt>
      <trkpt lat="0" lon="0">
        <time>2020-12-06T09:55:42.993000+00:00</time>
      </trkpt>
      <trkpt lat="0" lon="0">
        <time>2020-12-06T09:55:42.995000+00:00</time>
      </trkpt>
      <trkpt lat="47.34076" lon="-1.32454">
        <ele>68</ele>
        <time>2020-12-06T09:55:43.951000+00:00</time>
      </trkpt>
      <trkpt lat="0" lon="0">
        <time>2020-12-06T09:55:43.959000+00:00</time>
      </trkpt>
      <trkpt lat="0" lon="0">
        <time>2020-12-06T09:55:43.965000+00:00</time>
      </trkpt>
      <trkpt lat="0" lon="0">
        <time>2020-12-06T09:55:43.967000+00:00</time>
      </trkpt>
      <trkpt lat="47.3408" lon="-1.32457">
        <ele>68</ele>
        <time>2020-12-06T09:55:44.898000+00:00</time>
      </trkpt>
      <trkpt lat="0" lon="0">
        <time>2020-12-06T09:55:44.899000+00:00</time>
      </trkpt>
      <trkpt lat="0" lon="0">
        <time>2020-12-06T09:55:44.900000+00:00</time>
      </trkpt>
      <trkpt lat="0" lon="0">
        <time>2020-12-06T09:55:44.901000+00:00</time>
      </trkpt>
      <trkpt lat="47.34083" lon="-1.32461">
        <ele>69</ele>
        <time>2020-12-06T09:55:45.901000+00:00</time>
      </trkpt>
      <trkpt lat="0" lon="0">
        <time>2020-12-06T09:55:45.905000+00:00</time>
      </trkpt>
      <trkpt lat="0" lon="0">
        <time>2020-12-06T09:55:45.911000+00:00</time>
      </trkpt>
      <trkpt lat="0" lon="0">
        <time>2020-12-06T09:55:45.913000+00:00</time>
      </trkpt>
      <trkpt lat="47.34086" lon="-1.32464">
        <ele>68</ele>
        <time>2020-12-06T09:55:46.949000+00:00</time>
      </trkpt>
      <trkpt lat="0" lon="0">
        <time>2020-12-06T09:55:46.961000+00:00</time>
      </trkpt>
      <trkpt lat="0" lon="0">
        <time>2020-12-06T09:55:46.967000+00:00</time>
      </trkpt>
      <trkpt lat="0" lon="0">
        <time>2020-12-06T09:55:46.970000+00:00</time>
      </trkpt>
      <trkpt lat="47.34092" lon="-1.32471">
        <ele>68</ele>
        <time>2020-12-06T09:55:48.858000+00:00</time>
      </trkpt>
      <trkpt lat="0" lon="0">
        <time>2020-12-06T09:55:48.860000+00:00</time>
      </trkpt>
      <trkpt lat="0" lon="0">
        <time>2020-12-06T09:55:48.869000+00:00</time>
      </trkpt>
      <trkpt lat="0" lon="0">
        <time>2020-12-06T09:55:48.872000+00:00</time>
      </trkpt>
      <trkpt lat="47.34094" lon="-1.32473">
        <ele>68</ele>
        <time>2020-12-06T09:55:49.922000+00:00</time>
      </trkpt>
      <trkpt lat="0" lon="0">
        <time>2020-12-06T09:55:49.924000+00:00</time>
      </trkpt>
      <trkpt lat="0" lon="0">
        <time>2020-12-06T09:55:49.927000+00:00</time>
      </trkpt>
      <trkpt lat="0" lon="0">
        <time>2020-12-06T09:55:49.928000+00:00</time>
      </trkpt>
      <trkpt lat="47.34096" lon="-1.32475">
        <ele>68</ele>
        <time>2020-12-06T09:55:50.937000+00:00</time>
      </trkpt>
      <trkpt lat="0" lon="0">
        <time>2020-12-06T09:55:50.940000+00:00</time>
      </trkpt>
      <trkpt lat="0" lon="0">
        <time>2020-12-06T09:55:50.948000+00:00</time>
      </trkpt>
      <trkpt lat="0" lon="0">
        <time>2020-12-06T09:55:50.952000+00:00</time>
      </trkpt>
      <trkpt lat="47.34099" lon="-1.32477">
        <ele>68</ele>
        <time>2020-12-06T09:55:51.942000+00:00</time>
      </trkpt>
      <trkpt lat="0" lon="0">
        <time>2020-12-06T09:55:51.951000+00:00</time>
      </trkpt>
      <trkpt lat="0" lon="0">
        <time>2020-12-06T09:55:51.955000+00:00</time>
      </trkpt>
      <trkpt lat="0" lon="0">
        <time>2020-12-06T09:55:51.962000+00:00</time>
      </trkpt>
      <trkpt lat="47.34101" lon="-1.32479">
        <ele>68</ele>
        <time>2020-12-06T09:55:52.965000+00:00</time>
      </trkpt>
      <trkpt lat="0" lon="0">
        <time>2020-12-06T09:55:52.975000+00:00</time>
      </trkpt>
      <trkpt lat="0" lon="0">
        <time>2020-12-06T09:55:52.986000+00:00</time>
      </trkpt>
      <trkpt lat="0" lon="0">
        <time>2020-12-06T09:55:52.988000+00:00</time>
      </trkpt>
      <trkpt lat="47.34102" lon="-1.32481">
        <ele>68</ele>
        <time>2020-12-06T09:55:53.953000+00:00</time>
      </trkpt>
      <trkpt lat="0" lon="0">
        <time>2020-12-06T09:55:53.962000+00:00</time>
      </trkpt>
      <trkpt lat="0" lon="0">
        <time>2020-12-06T09:55:53.970000+00:00</time>
      </trkpt>
      <trkpt lat="0" lon="0">
        <time>2020-12-06T09:55:53.971000+00:00</time>
      </trkpt>
      <trkpt lat="47.34104" lon="-1.32484">
        <ele>67</ele>
        <time>2020-12-06T09:55:54.937000+00:00</time>
      </trkpt>
      <trkpt lat="0" lon="0">
        <time>2020-12-06T09:55:54.939000+00:00</time>
      </trkpt>
      <trkpt lat="0" lon="0">
        <time>2020-12-06T09:55:54.941000+00:00</time>
      </trkpt>
      <trkpt lat="0" lon="0">
        <time>2020-12-06T09:55:54.942000+00:00</time>
      </trkpt>
      <trkpt lat="47.34106" lon="-1.32486">
        <ele>67</ele>
        <time>2020-12-06T09:55:55.873000+00:00</time>
      </trkpt>
      <trkpt lat="0" lon="0">
        <time>2020-12-06T09:55:55.876000+00:00</time>
      </trkpt>
      <trkpt lat="0" lon="0">
        <time>2020-12-06T09:55:55.877000+00:00</time>
      </trkpt>
      <trkpt lat="0" lon="0">
        <time>2020-12-06T09:55:55.878000+00:00</time>
      </trkpt>
      <trkpt lat="47.34107" lon="-1.32489">
        <ele>67</ele>
        <time>2020-12-06T09:55:56.969000+00:00</time>
      </trkpt>
      <trkpt lat="0" lon="0">
        <time>2020-12-06T09:55:56.979000+00:00</time>
      </trkpt>
      <trkpt lat="0" lon="0">
        <time>2020-12-06T09:55:56.980000+00:00</time>
      </trkpt>
      <trkpt lat="0" lon="0">
        <time>2020-12-06T09:55:56.981000+00:00</time>
      </trkpt>
      <trkpt lat="47.34109" lon="-1.32492">
        <ele>67</ele>
        <time>2020-12-06T09:55:57.968000+00:00</time>
      </trkpt>
      <trkpt lat="0" lon="0">
        <time>2020-12-06T09:55:57.979000+00:00</time>
      </trkpt>
      <trkpt lat="0" lon="0">
        <time>2020-12-06T09:55:57.988000+00:00</time>
      </trkpt>
      <trkpt lat="0" lon="0">
        <time>2020-12-06T09:55:57.990000+00:00</time>
      </trkpt>
      <trkpt lat="47.34111" lon="-1.32495">
        <ele>67</ele>
        <time>2020-12-06T09:55:58.966000+00:00</time>
      </trkpt>
      <trkpt lat="0" lon="0">
        <time>2020-12-06T09:55:58.985000+00:00</time>
      </trkpt>
      <trkpt lat="0" lon="0">
        <time>2020-12-06T09:55:58.990000+00:00</time>
      </trkpt>
      <trkpt lat="0" lon="0">
        <time>2020-12-06T09:55:58.992000+00:00</time>
      </trkpt>
      <trkpt lat="47.34113" lon="-1.32499">
        <ele>67</ele>
        <time>2020-12-06T09:55:59.917000+00:00</time>
      </trkpt>
      <trkpt lat="0" lon="0">
        <time>2020-12-06T09:55:59.933000+00:00</time>
      </trkpt>
      <trkpt lat="0" lon="0">
        <time>2020-12-06T09:55:59.937000+00:00</time>
      </trkpt>
      <trkpt lat="0" lon="0">
        <time>2020-12-06T09:55:59.938000+00:00</time>
      </trkpt>
      <trkpt lat="47.34116" lon="-1.32502">
        <ele>66</ele>
        <time>2020-12-06T09:56:00.922000+00:00</time>
      </trkpt>
      <trkpt lat="0" lon="0">
        <time>2020-12-06T09:56:00.934000+00:00</time>
      </trkpt>
      <trkpt lat="0" lon="0">
        <time>2020-12-06T09:56:00.937000+00:00</time>
      </trkpt>
      <trkpt lat="0" lon="0">
        <time>2020-12-06T09:56:00.942000+00:00</time>
      </trkpt>
      <trkpt lat="47.34119" lon="-1.32506">
        <ele>66</ele>
        <time>2020-12-06T09:56:01.943000+00:00</time>
      </trkpt>
      <trkpt lat="0" lon="0">
        <time>2020-12-06T09:56:01.947000+00:00</time>
      </trkpt>
      <trkpt lat="0" lon="0">
        <time>2020-12-06T09:56:01.959000+00:00</time>
      </trkpt>
      <trkpt lat="0" lon="0">
        <time>2020-12-06T09:56:01.961000+00:00</time>
      </trkpt>
      <trkpt lat="47.34122" lon="-1.3251">
        <ele>65</ele>
        <time>2020-12-06T09:56:02.998000+00:00</time>
      </trkpt>
      <trkpt lat="0" lon="0">
        <time>2020-12-06T09:56:03.006000+00:00</time>
      </trkpt>
      <trkpt lat="0" lon="0">
        <time>2020-12-06T09:56:03.011000+00:00</time>
      </trkpt>
      <trkpt lat="0" lon="0">
        <time>2020-12-06T09:56:03.013000+00:00</time>
      </trkpt>
      <trkpt lat="47.34125" lon="-1.32514">
        <ele>65</ele>
        <time>2020-12-06T09:56:03.962000+00:00</time>
      </trkpt>
      <trkpt lat="0" lon="0">
        <time>2020-12-06T09:56:03.968000+00:00</time>
      </trkpt>
      <trkpt lat="0" lon="0">
        <time>2020-12-06T09:56:03.985000+00:00</time>
      </trkpt>
      <trkpt lat="0" lon="0">
        <time>2020-12-06T09:56:03.990000+00:00</time>
      </trkpt>
      <trkpt lat="47.34128" lon="-1.32518">
        <ele>64</ele>
        <time>2020-12-06T09:56:04.972000+00:00</time>
      </trkpt>
      <trkpt lat="0" lon="0">
        <time>2020-12-06T09:56:04.990000+00:00</time>
      </trkpt>
      <trkpt lat="0" lon="0">
        <time>2020-12-06T09:56:04.995000+00:00</time>
      </trkpt>
      <trkpt lat="0" lon="0">
        <time>2020-12-06T09:56:04.997000+00:00</time>
      </trkpt>
      <trkpt lat="47.34132" lon="-1.32523">
        <ele>64</ele>
        <time>2020-12-06T09:56:05.980000+00:00</time>
      </trkpt>
      <trkpt lat="0" lon="0">
        <time>2020-12-06T09:56:05.986000+00:00</time>
      </trkpt>
      <trkpt lat="0" lon="0">
        <time>2020-12-06T09:56:05.997000+00:00</time>
      </trkpt>
      <trkpt lat="0" lon="0">
        <time>2020-12-06T09:56:06.007000+00:00</time>
      </trkpt>
      <trkpt lat="47.34136" lon="-1.32527">
        <ele>63</ele>
        <time>2020-12-06T09:56:06.958000+00:00</time>
      </trkpt>
      <trkpt lat="0" lon="0">
        <time>2020-12-06T09:56:06.972000+00:00</time>
      </trkpt>
      <trkpt lat="0" lon="0">
        <time>2020-12-06T09:56:06.980000+00:00</time>
      </trkpt>
      <trkpt lat="0" lon="0">
        <time>2020-12-06T09:56:06.987000+00:00</time>
      </trkpt>
      <trkpt lat="47.3414" lon="-1.32532">
        <ele>62</ele>
        <time>2020-12-06T09:56:07.915000+00:00</time>
      </trkpt>
      <trkpt lat="0" lon="0">
        <time>2020-12-06T09:56:07.931000+00:00</time>
      </trkpt>
      <trkpt lat="0" lon="0">
        <time>2020-12-06T09:56:07.940000+00:00</time>
      </trkpt>
      <trkpt lat="0" lon="0">
        <time>2020-12-06T09:56:07.942000+00:00</time>
      </trkpt>
      <trkpt lat="47.34145" lon="-1.32537">
        <ele>61</ele>
        <time>2020-12-06T09:56:08.932000+00:00</time>
      </trkpt>
      <trkpt lat="0" lon="0">
        <time>2020-12-06T09:56:08.942000+00:00</time>
      </trkpt>
      <trkpt lat="0" lon="0">
        <time>2020-12-06T09:56:08.946000+00:00</time>
      </trkpt>
      <trkpt lat="0" lon="0">
        <time>2020-12-06T09:56:08.947000+00:00</time>
      </trkpt>
      <trkpt lat="47.34149" lon="-1.32541">
        <ele>61</ele>
        <time>2020-12-06T09:56:09.933000+00:00</time>
      </trkpt>
      <trkpt lat="0" lon="0">
        <time>2020-12-06T09:56:09.944000+00:00</time>
      </trkpt>
      <trkpt lat="0" lon="0">
        <time>2020-12-06T09:56:09.956000+00:00</time>
      </trkpt>
      <trkpt lat="0" lon="0">
        <time>2020-12-06T09:56:09.958000+00:00</time>
      </trkpt>
      <trkpt lat="47.34153" lon="-1.32546">
        <ele>60</ele>
        <time>2020-12-06T09:56:10.965000+00:00</time>
      </trkpt>
      <trkpt lat="0" lon="0">
        <time>2020-12-06T09:56:10.971000+00:00</time>
      </trkpt>
      <trkpt lat="0" lon="0">
        <time>2020-12-06T09:56:10.977000+00:00</time>
      </trkpt>
      <trkpt lat="0" lon="0">
        <time>2020-12-06T09:56:10.981000+00:00</time>
      </trkpt>
      <trkpt lat="47.34156" lon="-1.3255">
        <ele>59</ele>
        <time>2020-12-06T09:56:11.947000+00:00</time>
      </trkpt>
      <trkpt lat="0" lon="0">
        <time>2020-12-06T09:56:11.962000+00:00</time>
      </trkpt>
      <trkpt lat="0" lon="0">
        <time>2020-12-06T09:56:11.966000+00:00</time>
      </trkpt>
      <trkpt lat="0" lon="0">
        <time>2020-12-06T09:56:11.973000+00:00</time>
      </trkpt>
      <trkpt lat="47.3416" lon="-1.32555">
        <ele>58</ele>
        <time>2020-12-06T09:56:12.962000+00:00</time>
      </trkpt>
      <trkpt lat="0" lon="0">
        <time>2020-12-06T09:56:12.975000+00:00</time>
      </trkpt>
      <trkpt lat="0" lon="0">
        <time>2020-12-06T09:56:12.979000+00:00</time>
      </trkpt>
      <trkpt lat="0" lon="0">
        <time>2020-12-06T09:56:12.982000+00:00</time>
      </trkpt>
      <trkpt lat="47.34164" lon="-1.3256">
        <ele>57</ele>
        <time>2020-12-06T09:56:13.930000+00:00</time>
      </trkpt>
      <trkpt lat="0" lon="0">
        <time>2020-12-06T09:56:13.938000+00:00</time>
      </trkpt>
      <trkpt lat="0" lon="0">
        <time>2020-12-06T09:56:13.944000+00:00</time>
      </trkpt>
      <trkpt lat="0" lon="0">
        <time>2020-12-06T09:56:13.945000+00:00</time>
      </trkpt>
      <trkpt lat="47.34168" lon="-1.32565">
        <ele>56</ele>
        <time>2020-12-06T09:56:14.987000+00:00</time>
      </trkpt>
      <trkpt lat="0" lon="0">
        <time>2020-12-06T09:56:14.994000+00:00</time>
      </trkpt>
      <trkpt lat="0" lon="0">
        <time>2020-12-06T09:56:15.001000+00:00</time>
      </trkpt>
      <trkpt lat="0" lon="0">
        <time>2020-12-06T09:56:15.004000+00:00</time>
      </trkpt>
      <trkpt lat="47.34172" lon="-1.32569">
        <ele>56</ele>
        <time>2020-12-06T09:56:15.972000+00:00</time>
      </trkpt>
      <trkpt lat="0" lon="0">
        <time>2020-12-06T09:56:15.984000+00:00</time>
      </trkpt>
      <trkpt lat="0" lon="0">
        <time>2020-12-06T09:56:15.994000+00:00</time>
      </trkpt>
      <trkpt lat="0" lon="0">
        <time>2020-12-06T09:56:16.001000+00:00</time>
      </trkpt>
      <trkpt lat="47.34175" lon="-1.32573">
        <ele>55</ele>
        <time>2020-12-06T09:56:16.994000+00:00</time>
      </trkpt>
      <trkpt lat="0" lon="0">
        <time>2020-12-06T09:56:17.003000+00:00</time>
      </trkpt>
      <trkpt lat="0" lon="0">
        <time>2020-12-06T09:56:17.004000+00:00</time>
      </trkpt>
      <trkpt lat="0" lon="0">
        <time>2020-12-06T09:56:17.006000+00:00</time>
      </trkpt>
      <trkpt lat="47.34179" lon="-1.32577">
        <ele>55</ele>
        <time>2020-12-06T09:56:17.977000+00:00</time>
      </trkpt>
      <trkpt lat="0" lon="0">
        <time>2020-12-06T09:56:17.985000+00:00</time>
      </trkpt>
      <trkpt lat="0" lon="0">
        <time>2020-12-06T09:56:17.988000+00:00</time>
      </trkpt>
      <trkpt lat="0" lon="0">
        <time>2020-12-06T09:56:17.996000+00:00</time>
      </trkpt>
      <trkpt lat="47.34182" lon="-1.32581">
        <ele>55</ele>
        <time>2020-12-06T09:56:18.950000+00:00</time>
      </trkpt>
      <trkpt lat="0" lon="0">
        <time>2020-12-06T09:56:18.963000+00:00</time>
      </trkpt>
      <trkpt lat="0" lon="0">
        <time>2020-12-06T09:56:18.972000+00:00</time>
      </trkpt>
      <trkpt lat="0" lon="0">
        <time>2020-12-06T09:56:18.975000+00:00</time>
      </trkpt>
      <trkpt lat="47.34184" lon="-1.32584">
        <ele>54</ele>
        <time>2020-12-06T09:56:19.971000+00:00</time>
      </trkpt>
      <trkpt lat="0" lon="0">
        <time>2020-12-06T09:56:19.978000+00:00</time>
      </trkpt>
      <trkpt lat="0" lon="0">
        <time>2020-12-06T09:56:19.979000+00:00</time>
      </trkpt>
      <trkpt lat="0" lon="0">
        <time>2020-12-06T09:56:19.980000+00:00</time>
      </trkpt>
      <trkpt lat="47.34187" lon="-1.32588">
        <ele>54</ele>
        <time>2020-12-06T09:56:20.933000+00:00</time>
      </trkpt>
      <trkpt lat="0" lon="0">
        <time>2020-12-06T09:56:20.938000+00:00</time>
      </trkpt>
      <trkpt lat="0" lon="0">
        <time>2020-12-06T09:56:20.946000+00:00</time>
      </trkpt>
      <trkpt lat="0" lon="0">
        <time>2020-12-06T09:56:20.949000+00:00</time>
      </trkpt>
      <trkpt lat="47.34189" lon="-1.32592">
        <ele>54</ele>
        <time>2020-12-06T09:56:21.926000+00:00</time>
      </trkpt>
      <trkpt lat="0" lon="0">
        <time>2020-12-06T09:56:21.937000+00:00</time>
      </trkpt>
      <trkpt lat="0" lon="0">
        <time>2020-12-06T09:56:21.939000+00:00</time>
      </trkpt>
      <trkpt lat="0" lon="0">
        <time>2020-12-06T09:56:21.940000+00:00</time>
      </trkpt>
      <trkpt lat="47.34191" lon="-1.32595">
        <ele>54</ele>
        <time>2020-12-06T09:56:22.911000+00:00</time>
      </trkpt>
      <trkpt lat="0" lon="0">
        <time>2020-12-06T09:56:22.920000+00:00</time>
      </trkpt>
      <trkpt lat="0" lon="0">
        <time>2020-12-06T09:56:22.926000+00:00</time>
      </trkpt>
      <trkpt lat="0" lon="0">
        <time>2020-12-06T09:56:22.930000+00:00</time>
      </trkpt>
      <trkpt lat="47.34194" lon="-1.32599">
        <ele>53</ele>
        <time>2020-12-06T09:56:23.908000+00:00</time>
      </trkpt>
      <trkpt lat="0" lon="0">
        <time>2020-12-06T09:56:23.927000+00:00</time>
      </trkpt>
      <trkpt lat="0" lon="0">
        <time>2020-12-06T09:56:23.930000+00:00</time>
      </trkpt>
      <trkpt lat="0" lon="0">
        <time>2020-12-06T09:56:23.931000+00:00</time>
      </trkpt>
      <trkpt lat="47.34196" lon="-1.32603">
        <ele>53</ele>
        <time>2020-12-06T09:56:25.001000+00:00</time>
      </trkpt>
      <trkpt lat="0" lon="0">
        <time>2020-12-06T09:56:25.010000+00:00</time>
      </trkpt>
      <trkpt lat="0" lon="0">
        <time>2020-12-06T09:56:25.015000+00:00</time>
      </trkpt>
      <trkpt lat="0" lon="0">
        <time>2020-12-06T09:56:25.017000+00:00</time>
      </trkpt>
      <trkpt lat="47.34198" lon="-1.32606">
        <ele>53</ele>
        <time>2020-12-06T09:56:25.934000+00:00</time>
      </trkpt>
      <trkpt lat="0" lon="0">
        <time>2020-12-06T09:56:25.940000+00:00</time>
      </trkpt>
      <trkpt lat="0" lon="0">
        <time>2020-12-06T09:56:25.945000+00:00</time>
      </trkpt>
      <trkpt lat="0" lon="0">
        <time>2020-12-06T09:56:25.946000+00:00</time>
      </trkpt>
      <trkpt lat="47.342" lon="-1.32609">
        <ele>53</ele>
        <time>2020-12-06T09:56:26.956000+00:00</time>
      </trkpt>
      <trkpt lat="0" lon="0">
        <time>2020-12-06T09:56:26.968000+00:00</time>
      </trkpt>
      <trkpt lat="0" lon="0">
        <time>2020-12-06T09:56:26.975000+00:00</time>
      </trkpt>
      <trkpt lat="0" lon="0">
        <time>2020-12-06T09:56:26.977000+00:00</time>
      </trkpt>
      <trkpt lat="47.34201" lon="-1.32612">
        <ele>53</ele>
        <time>2020-12-06T09:56:27.956000+00:00</time>
      </trkpt>
      <trkpt lat="0" lon="0">
        <time>2020-12-06T09:56:27.966000+00:00</time>
      </trkpt>
      <trkpt lat="0" lon="0">
        <time>2020-12-06T09:56:27.973000+00:00</time>
      </trkpt>
      <trkpt lat="0" lon="0">
        <time>2020-12-06T09:56:27.980000+00:00</time>
      </trkpt>
      <trkpt lat="47.34202" lon="-1.32614">
        <ele>52</ele>
        <time>2020-12-06T09:56:28.933000+00:00</time>
      </trkpt>
      <trkpt lat="0" lon="0">
        <time>2020-12-06T09:56:28.942000+00:00</time>
      </trkpt>
      <trkpt lat="0" lon="0">
        <time>2020-12-06T09:56:28.946000+00:00</time>
      </trkpt>
      <trkpt lat="0" lon="0">
        <time>2020-12-06T09:56:28.951000+00:00</time>
      </trkpt>
      <trkpt lat="47.34203" lon="-1.32617">
        <ele>52</ele>
        <time>2020-12-06T09:56:29.974000+00:00</time>
      </trkpt>
      <trkpt lat="0" lon="0">
        <time>2020-12-06T09:56:29.982000+00:00</time>
      </trkpt>
      <trkpt lat="0" lon="0">
        <time>2020-12-06T09:56:29.985000+00:00</time>
      </trkpt>
      <trkpt lat="0" lon="0">
        <time>2020-12-06T09:56:29.987000+00:00</time>
      </trkpt>
      <trkpt lat="47.34204" lon="-1.3262">
        <ele>52</ele>
        <time>2020-12-06T09:56:30.945000+00:00</time>
      </trkpt>
      <trkpt lat="0" lon="0">
        <time>2020-12-06T09:56:30.949000+00:00</time>
      </trkpt>
      <trkpt lat="0" lon="0">
        <time>2020-12-06T09:56:30.952000+00:00</time>
      </trkpt>
      <trkpt lat="0" lon="0">
        <time>2020-12-06T09:56:30.961000+00:00</time>
      </trkpt>
      <trkpt lat="47.34205" lon="-1.32623">
        <ele>52</ele>
        <time>2020-12-06T09:56:31.978000+00:00</time>
      </trkpt>
      <trkpt lat="0" lon="0">
        <time>2020-12-06T09:56:32+00:00</time>
      </trkpt>
      <trkpt lat="0" lon="0">
        <time>2020-12-06T09:56:32.012000+00:00</time>
      </trkpt>
      <trkpt lat="0" lon="0">
        <time>2020-12-06T09:56:32.014000+00:00</time>
      </trkpt>
      <trkpt lat="47.34205" lon="-1.32626">
        <ele>52</ele>
        <time>2020-12-06T09:56:32.948000+00:00</time>
      </trkpt>
      <trkpt lat="0" lon="0">
        <time>2020-12-06T09:56:32.964000+00:00</time>
      </trkpt>
      <trkpt lat="0" lon="0">
        <time>2020-12-06T09:56:32.971000+00:00</time>
      </trkpt>
      <trkpt lat="0" lon="0">
        <time>2020-12-06T09:56:32.972000+00:00</time>
      </trkpt>
      <trkpt lat="47.34205" lon="-1.32629">
        <ele>51</ele>
        <time>2020-12-06T09:56:33.948000+00:00</time>
      </trkpt>
      <trkpt lat="0" lon="0">
        <time>2020-12-06T09:56:33.969000+00:00</time>
      </trkpt>
      <trkpt lat="0" lon="0">
        <time>2020-12-06T09:56:33.974000+00:00</time>
      </trkpt>
      <trkpt lat="0" lon="0">
        <time>2020-12-06T09:56:33.981000+00:00</time>
      </trkpt>
      <trkpt lat="47.34205" lon="-1.32633">
        <ele>51</ele>
        <time>2020-12-06T09:56:34.948000+00:00</time>
      </trkpt>
      <trkpt lat="0" lon="0">
        <time>2020-12-06T09:56:34.951000+00:00</time>
      </trkpt>
      <trkpt lat="0" lon="0">
        <time>2020-12-06T09:56:34.956000+00:00</time>
      </trkpt>
      <trkpt lat="0" lon="0">
        <time>2020-12-06T09:56:34.965000+00:00</time>
      </trkpt>
      <trkpt lat="47.34204" lon="-1.32636">
        <ele>51</ele>
        <time>2020-12-06T09:56:35.935000+00:00</time>
      </trkpt>
      <trkpt lat="0" lon="0">
        <time>2020-12-06T09:56:35.938000+00:00</time>
      </trkpt>
      <trkpt lat="0" lon="0">
        <time>2020-12-06T09:56:35.940000+00:00</time>
      </trkpt>
      <trkpt lat="0" lon="0">
        <time>2020-12-06T09:56:35.941000+00:00</time>
      </trkpt>
      <trkpt lat="47.34204" lon="-1.3264">
        <ele>51</ele>
        <time>2020-12-06T09:56:36.932000+00:00</time>
      </trkpt>
      <trkpt lat="0" lon="0">
        <time>2020-12-06T09:56:36.942000+00:00</time>
      </trkpt>
      <trkpt lat="0" lon="0">
        <time>2020-12-06T09:56:36.947000+00:00</time>
      </trkpt>
      <trkpt lat="0" lon="0">
        <time>2020-12-06T09:56:36.950000+00:00</time>
      </trkpt>
      <trkpt lat="47.34203" lon="-1.32644">
        <ele>51</ele>
        <time>2020-12-06T09:56:37.897000+00:00</time>
      </trkpt>
      <trkpt lat="0" lon="0">
        <time>2020-12-06T09:56:37.914000+00:00</time>
      </trkpt>
      <trkpt lat="0" lon="0">
        <time>2020-12-06T09:56:37.923000+00:00</time>
      </trkpt>
      <trkpt lat="0" lon="0">
        <time>2020-12-06T09:56:37.928000+00:00</time>
      </trkpt>
      <trkpt lat="47.34202" lon="-1.32648">
        <ele>50</ele>
        <time>2020-12-06T09:56:38.832000+00:00</time>
      </trkpt>
      <trkpt lat="0" lon="0">
        <time>2020-12-06T09:56:38.839000+00:00</time>
      </trkpt>
      <trkpt lat="0" lon="0">
        <time>2020-12-06T09:56:38.849000+00:00</time>
      </trkpt>
      <trkpt lat="0" lon="0">
        <time>2020-12-06T09:56:38.852000+00:00</time>
      </trkpt>
      <trkpt lat="47.342" lon="-1.32651">
        <ele>50</ele>
        <time>2020-12-06T09:56:39.891000+00:00</time>
      </trkpt>
      <trkpt lat="0" lon="0">
        <time>2020-12-06T09:56:39.898000+00:00</time>
      </trkpt>
      <trkpt lat="0" lon="0">
        <time>2020-12-06T09:56:39.906000+00:00</time>
      </trkpt>
      <trkpt lat="0" lon="0">
        <time>2020-12-06T09:56:39.917000+00:00</time>
      </trkpt>
      <trkpt lat="47.34199" lon="-1.32655">
        <ele>50</ele>
        <time>2020-12-06T09:56:40.902000+00:00</time>
      </trkpt>
      <trkpt lat="0" lon="0">
        <time>2020-12-06T09:56:40.905000+00:00</time>
      </trkpt>
      <trkpt lat="0" lon="0">
        <time>2020-12-06T09:56:40.908000+00:00</time>
      </trkpt>
      <trkpt lat="0" lon="0">
        <time>2020-12-06T09:56:40.911000+00:00</time>
      </trkpt>
      <trkpt lat="47.34197" lon="-1.32659">
        <ele>50</ele>
        <time>2020-12-06T09:56:41.929000+00:00</time>
      </trkpt>
      <trkpt lat="0" lon="0">
        <time>2020-12-06T09:56:41.944000+00:00</time>
      </trkpt>
      <trkpt lat="0" lon="0">
        <time>2020-12-06T09:56:41.953000+00:00</time>
      </trkpt>
      <trkpt lat="0" lon="0">
        <time>2020-12-06T09:56:41.955000+00:00</time>
      </trkpt>
      <trkpt lat="47.34195" lon="-1.32664">
        <ele>50</ele>
        <time>2020-12-06T09:56:42.896000+00:00</time>
      </trkpt>
      <trkpt lat="0" lon="0">
        <time>2020-12-06T09:56:42.915000+00:00</time>
      </trkpt>
      <trkpt lat="0" lon="0">
        <time>2020-12-06T09:56:42.920000+00:00</time>
      </trkpt>
      <trkpt lat="0" lon="0">
        <time>2020-12-06T09:56:42.921000+00:00</time>
      </trkpt>
      <trkpt lat="47.34193" lon="-1.32668">
        <ele>50</ele>
        <time>2020-12-06T09:56:43.900000+00:00</time>
      </trkpt>
      <trkpt lat="0" lon="0">
        <time>2020-12-06T09:56:43.911000+00:00</time>
      </trkpt>
      <trkpt lat="0" lon="0">
        <time>2020-12-06T09:56:43.916000+00:00</time>
      </trkpt>
      <trkpt lat="0" lon="0">
        <time>2020-12-06T09:56:43.919000+00:00</time>
      </trkpt>
      <trkpt lat="47.34191" lon="-1.32673">
        <ele>50</ele>
        <time>2020-12-06T09:56:44.932000+00:00</time>
      </trkpt>
      <trkpt lat="0" lon="0">
        <time>2020-12-06T09:56:44.951000+00:00</time>
      </trkpt>
      <trkpt lat="0" lon="0">
        <time>2020-12-06T09:56:44.955000+00:00</time>
      </trkpt>
      <trkpt lat="0" lon="0">
        <time>2020-12-06T09:56:44.957000+00:00</time>
      </trkpt>
      <trkpt lat="47.34188" lon="-1.32678">
        <ele>49</ele>
        <time>2020-12-06T09:56:45.912000+00:00</time>
      </trkpt>
      <trkpt lat="0" lon="0">
        <time>2020-12-06T09:56:45.935000+00:00</time>
      </trkpt>
      <trkpt lat="0" lon="0">
        <time>2020-12-06T09:56:45.944000+00:00</time>
      </trkpt>
      <trkpt lat="0" lon="0">
        <time>2020-12-06T09:56:45.951000+00:00</time>
      </trkpt>
      <trkpt lat="47.34185" lon="-1.32683">
        <ele>49</ele>
        <time>2020-12-06T09:56:46.866000+00:00</time>
      </trkpt>
      <trkpt lat="0" lon="0">
        <time>2020-12-06T09:56:46.870000+00:00</time>
      </trkpt>
      <trkpt lat="0" lon="0">
        <time>2020-12-06T09:56:46.879000+00:00</time>
      </trkpt>
      <trkpt lat="0" lon="0">
        <time>2020-12-06T09:56:46.894000+00:00</time>
      </trkpt>
      <trkpt lat="47.34182" lon="-1.32688">
        <ele>49</ele>
        <time>2020-12-06T09:56:47.932000+00:00</time>
      </trkpt>
      <trkpt lat="0" lon="0">
        <time>2020-12-06T09:56:47.941000+00:00</time>
      </trkpt>
      <trkpt lat="0" lon="0">
        <time>2020-12-06T09:56:47.946000+00:00</time>
      </trkpt>
      <trkpt lat="0" lon="0">
        <time>2020-12-06T09:56:47.948000+00:00</time>
      </trkpt>
      <trkpt lat="47.34179" lon="-1.32693">
        <ele>48</ele>
        <time>2020-12-06T09:56:48.905000+00:00</time>
      </trkpt>
      <trkpt lat="0" lon="0">
        <time>2020-12-06T09:56:48.908000+00:00</time>
      </trkpt>
      <trkpt lat="0" lon="0">
        <time>2020-12-06T09:56:48.913000+00:00</time>
      </trkpt>
      <trkpt lat="0" lon="0">
        <time>2020-12-06T09:56:48.917000+00:00</time>
      </trkpt>
      <trkpt lat="47.34177" lon="-1.32698">
        <ele>48</ele>
        <time>2020-12-06T09:56:49.847000+00:00</time>
      </trkpt>
      <trkpt lat="0" lon="0">
        <time>2020-12-06T09:56:49.855000+00:00</time>
      </trkpt>
      <trkpt lat="0" lon="0">
        <time>2020-12-06T09:56:49.869000+00:00</time>
      </trkpt>
      <trkpt lat="0" lon="0">
        <time>2020-12-06T09:56:49.871000+00:00</time>
      </trkpt>
      <trkpt lat="47.34174" lon="-1.32702">
        <ele>48</ele>
        <time>2020-12-06T09:56:50.879000+00:00</time>
      </trkpt>
      <trkpt lat="0" lon="0">
        <time>2020-12-06T09:56:50.886000+00:00</time>
      </trkpt>
      <trkpt lat="0" lon="0">
        <time>2020-12-06T09:56:50.891000+00:00</time>
      </trkpt>
      <trkpt lat="0" lon="0">
        <time>2020-12-06T09:56:50.893000+00:00</time>
      </trkpt>
      <trkpt lat="47.34171" lon="-1.32705">
        <ele>47</ele>
        <time>2020-12-06T09:56:51.889000+00:00</time>
      </trkpt>
      <trkpt lat="0" lon="0">
        <time>2020-12-06T09:56:51.903000+00:00</time>
      </trkpt>
      <trkpt lat="0" lon="0">
        <time>2020-12-06T09:56:51.907000+00:00</time>
      </trkpt>
      <trkpt lat="0" lon="0">
        <time>2020-12-06T09:56:51.909000+00:00</time>
      </trkpt>
      <trkpt lat="47.34168" lon="-1.32708">
        <ele>47</ele>
        <time>2020-12-06T09:56:52.872000+00:00</time>
      </trkpt>
      <trkpt lat="0" lon="0">
        <time>2020-12-06T09:56:52.895000+00:00</time>
      </trkpt>
      <trkpt lat="0" lon="0">
        <time>2020-12-06T09:56:52.898000+00:00</time>
      </trkpt>
      <trkpt lat="0" lon="0">
        <time>2020-12-06T09:56:52.900000+00:00</time>
      </trkpt>
      <trkpt lat="47.34165" lon="-1.3271">
        <ele>47</ele>
        <time>2020-12-06T09:56:53.926000+00:00</time>
      </trkpt>
      <trkpt lat="0" lon="0">
        <time>2020-12-06T09:56:53.935000+00:00</time>
      </trkpt>
      <trkpt lat="0" lon="0">
        <time>2020-12-06T09:56:53.942000+00:00</time>
      </trkpt>
      <trkpt lat="0" lon="0">
        <time>2020-12-06T09:56:53.944000+00:00</time>
      </trkpt>
      <trkpt lat="47.34163" lon="-1.32712">
        <ele>47</ele>
        <time>2020-12-06T09:56:54.875000+00:00</time>
      </trkpt>
      <trkpt lat="0" lon="0">
        <time>2020-12-06T09:56:54.884000+00:00</time>
      </trkpt>
      <trkpt lat="0" lon="0">
        <time>2020-12-06T09:56:54.887000+00:00</time>
      </trkpt>
      <trkpt lat="0" lon="0">
        <time>2020-12-06T09:56:54.889000+00:00</time>
      </trkpt>
      <trkpt lat="47.3416" lon="-1.32715">
        <ele>47</ele>
        <time>2020-12-06T09:56:55.865000+00:00</time>
      </trkpt>
      <trkpt lat="0" lon="0">
        <time>2020-12-06T09:56:55.875000+00:00</time>
      </trkpt>
      <trkpt lat="0" lon="0">
        <time>2020-12-06T09:56:55.884000+00:00</time>
      </trkpt>
      <trkpt lat="0" lon="0">
        <time>2020-12-06T09:56:55.886000+00:00</time>
      </trkpt>
      <trkpt lat="47.34158" lon="-1.32718">
        <ele>47</ele>
        <time>2020-12-06T09:56:56.915000+00:00</time>
      </trkpt>
      <trkpt lat="0" lon="0">
        <time>2020-12-06T09:56:56.931000+00:00</time>
      </trkpt>
      <trkpt lat="0" lon="0">
        <time>2020-12-06T09:56:56.936000+00:00</time>
      </trkpt>
      <trkpt lat="0" lon="0">
        <time>2020-12-06T09:56:56.938000+00:00</time>
      </trkpt>
      <trkpt lat="47.34155" lon="-1.32721">
        <ele>47</ele>
        <time>2020-12-06T09:56:57.881000+00:00</time>
      </trkpt>
      <trkpt lat="0" lon="0">
        <time>2020-12-06T09:56:57.895000+00:00</time>
      </trkpt>
      <trkpt lat="0" lon="0">
        <time>2020-12-06T09:56:57.900000+00:00</time>
      </trkpt>
      <trkpt lat="0" lon="0">
        <time>2020-12-06T09:56:57.903000+00:00</time>
      </trkpt>
      <trkpt lat="47.34153" lon="-1.32724">
        <ele>47</ele>
        <time>2020-12-06T09:56:58.899000+00:00</time>
      </trkpt>
      <trkpt lat="0" lon="0">
        <time>2020-12-06T09:56:58.904000+00:00</time>
      </trkpt>
      <trkpt lat="0" lon="0">
        <time>2020-12-06T09:56:58.920000+00:00</time>
      </trkpt>
      <trkpt lat="0" lon="0">
        <time>2020-12-06T09:56:58.922000+00:00</time>
      </trkpt>
      <trkpt lat="47.3415" lon="-1.32727">
        <ele>47</ele>
        <time>2020-12-06T09:56:59.863000+00:00</time>
      </trkpt>
      <trkpt lat="0" lon="0">
        <time>2020-12-06T09:56:59.874000+00:00</time>
      </trkpt>
      <trkpt lat="0" lon="0">
        <time>2020-12-06T09:56:59.881000+00:00</time>
      </trkpt>
      <trkpt lat="0" lon="0">
        <time>2020-12-06T09:56:59.883000+00:00</time>
      </trkpt>
      <trkpt lat="47.34148" lon="-1.32731">
        <ele>47</ele>
        <time>2020-12-06T09:57:00.913000+00:00</time>
      </trkpt>
      <trkpt lat="0" lon="0">
        <time>2020-12-06T09:57:00.916000+00:00</time>
      </trkpt>
      <trkpt lat="0" lon="0">
        <time>2020-12-06T09:57:00.926000+00:00</time>
      </trkpt>
      <trkpt lat="0" lon="0">
        <time>2020-12-06T09:57:00.931000+00:00</time>
      </trkpt>
      <trkpt lat="47.34146" lon="-1.32735">
        <ele>46</ele>
        <time>2020-12-06T09:57:01.912000+00:00</time>
      </trkpt>
      <trkpt lat="0" lon="0">
        <time>2020-12-06T09:57:01.924000+00:00</time>
      </trkpt>
      <trkpt lat="0" lon="0">
        <time>2020-12-06T09:57:01.929000+00:00</time>
      </trkpt>
      <trkpt lat="0" lon="0">
        <time>2020-12-06T09:57:01.932000+00:00</time>
      </trkpt>
      <trkpt lat="47.34144" lon="-1.32739">
        <ele>46</ele>
        <time>2020-12-06T09:57:02.915000+00:00</time>
      </trkpt>
      <trkpt lat="0" lon="0">
        <time>2020-12-06T09:57:02.922000+00:00</time>
      </trkpt>
      <trkpt lat="0" lon="0">
        <time>2020-12-06T09:57:02.932000+00:00</time>
      </trkpt>
      <trkpt lat="0" lon="0">
        <time>2020-12-06T09:57:02.933000+00:00</time>
      </trkpt>
      <trkpt lat="47.34142" lon="-1.32743">
        <ele>46</ele>
        <time>2020-12-06T09:57:03.935000+00:00</time>
      </trkpt>
      <trkpt lat="0" lon="0">
        <time>2020-12-06T09:57:03.949000+00:00</time>
      </trkpt>
      <trkpt lat="0" lon="0">
        <time>2020-12-06T09:57:03.953000+00:00</time>
      </trkpt>
      <trkpt lat="0" lon="0">
        <time>2020-12-06T09:57:03.954000+00:00</time>
      </trkpt>
      <trkpt lat="47.34139" lon="-1.32747">
        <ele>46</ele>
        <time>2020-12-06T09:57:04.926000+00:00</time>
      </trkpt>
      <trkpt lat="0" lon="0">
        <time>2020-12-06T09:57:04.930000+00:00</time>
      </trkpt>
      <trkpt lat="0" lon="0">
        <time>2020-12-06T09:57:04.934000+00:00</time>
      </trkpt>
      <trkpt lat="0" lon="0">
        <time>2020-12-06T09:57:04.936000+00:00</time>
      </trkpt>
      <trkpt lat="47.34137" lon="-1.32751">
        <ele>46</ele>
        <time>2020-12-06T09:57:05.912000+00:00</time>
      </trkpt>
      <trkpt lat="0" lon="0">
        <time>2020-12-06T09:57:05.916000+00:00</time>
      </trkpt>
      <trkpt lat="0" lon="0">
        <time>2020-12-06T09:57:05.924000+00:00</time>
      </trkpt>
      <trkpt lat="0" lon="0">
        <time>2020-12-06T09:57:05.926000+00:00</time>
      </trkpt>
      <trkpt lat="47.34135" lon="-1.32755">
        <ele>46</ele>
        <time>2020-12-06T09:57:06.923000+00:00</time>
      </trkpt>
      <trkpt lat="0" lon="0">
        <time>2020-12-06T09:57:06.934000+00:00</time>
      </trkpt>
      <trkpt lat="0" lon="0">
        <time>2020-12-06T09:57:06.946000+00:00</time>
      </trkpt>
      <trkpt lat="0" lon="0">
        <time>2020-12-06T09:57:06.949000+00:00</time>
      </trkpt>
      <trkpt lat="47.34132" lon="-1.32759">
        <ele>46</ele>
        <time>2020-12-06T09:57:07.920000+00:00</time>
      </trkpt>
      <trkpt lat="0" lon="0">
        <time>2020-12-06T09:57:07.924000+00:00</time>
      </trkpt>
      <trkpt lat="0" lon="0">
        <time>2020-12-06T09:57:07.928000+00:00</time>
      </trkpt>
      <trkpt lat="0" lon="0">
        <time>2020-12-06T09:57:07.934000+00:00</time>
      </trkpt>
      <trkpt lat="47.3413" lon="-1.32764">
        <ele>46</ele>
        <time>2020-12-06T09:57:08.893000+00:00</time>
      </trkpt>
      <trkpt lat="0" lon="0">
        <time>2020-12-06T09:57:08.896000+00:00</time>
      </trkpt>
      <trkpt lat="0" lon="0">
        <time>2020-12-06T09:57:08.900000+00:00</time>
      </trkpt>
      <trkpt lat="0" lon="0">
        <time>2020-12-06T09:57:08.901000+00:00</time>
      </trkpt>
      <trkpt lat="47.34127" lon="-1.32769">
        <ele>46</ele>
        <time>2020-12-06T09:57:09.948000+00:00</time>
      </trkpt>
      <trkpt lat="0" lon="0">
        <time>2020-12-06T09:57:09.957000+00:00</time>
      </trkpt>
      <trkpt lat="0" lon="0">
        <time>2020-12-06T09:57:09.961000+00:00</time>
      </trkpt>
      <trkpt lat="0" lon="0">
        <time>2020-12-06T09:57:09.965000+00:00</time>
      </trkpt>
      <trkpt lat="47.34125" lon="-1.32774">
        <ele>46</ele>
        <time>2020-12-06T09:57:10.916000+00:00</time>
      </trkpt>
      <trkpt lat="0" lon="0">
        <time>2020-12-06T09:57:10.930000+00:00</time>
      </trkpt>
      <trkpt lat="0" lon="0">
        <time>2020-12-06T09:57:10.932000+00:00</time>
      </trkpt>
      <trkpt lat="0" lon="0">
        <time>2020-12-06T09:57:10.933000+00:00</time>
      </trkpt>
      <trkpt lat="47.34122" lon="-1.32779">
        <ele>46</ele>
        <time>2020-12-06T09:57:11.920000+00:00</time>
      </trkpt>
      <trkpt lat="0" lon="0">
        <time>2020-12-06T09:57:11.932000+00:00</time>
      </trkpt>
      <trkpt lat="0" lon="0">
        <time>2020-12-06T09:57:11.935000+00:00</time>
      </trkpt>
      <trkpt lat="0" lon="0">
        <time>2020-12-06T09:57:11.937000+00:00</time>
      </trkpt>
      <trkpt lat="47.34119" lon="-1.32785">
        <ele>46</ele>
        <time>2020-12-06T09:57:12.969000+00:00</time>
      </trkpt>
      <trkpt lat="0" lon="0">
        <time>2020-12-06T09:57:12.977000+00:00</time>
      </trkpt>
      <trkpt lat="0" lon="0">
        <time>2020-12-06T09:57:12.983000+00:00</time>
      </trkpt>
      <trkpt lat="0" lon="0">
        <time>2020-12-06T09:57:12.997000+00:00</time>
      </trkpt>
      <trkpt lat="47.34115" lon="-1.3279">
        <ele>45</ele>
        <time>2020-12-06T09:57:13.929000+00:00</time>
      </trkpt>
      <trkpt lat="0" lon="0">
        <time>2020-12-06T09:57:13.942000+00:00</time>
      </trkpt>
      <trkpt lat="0" lon="0">
        <time>2020-12-06T09:57:13.945000+00:00</time>
      </trkpt>
      <trkpt lat="0" lon="0">
        <time>2020-12-06T09:57:13.947000+00:00</time>
      </trkpt>
      <trkpt lat="47.34113" lon="-1.32796">
        <ele>45</ele>
        <time>2020-12-06T09:57:14.916000+00:00</time>
      </trkpt>
      <trkpt lat="0" lon="0">
        <time>2020-12-06T09:57:14.933000+00:00</time>
      </trkpt>
      <trkpt lat="0" lon="0">
        <time>2020-12-06T09:57:14.937000+00:00</time>
      </trkpt>
      <trkpt lat="0" lon="0">
        <time>2020-12-06T09:57:14.939000+00:00</time>
      </trkpt>
      <trkpt lat="47.3411" lon="-1.328">
        <ele>45</ele>
        <time>2020-12-06T09:57:15.916000+00:00</time>
      </trkpt>
      <trkpt lat="0" lon="0">
        <time>2020-12-06T09:57:15.931000+00:00</time>
      </trkpt>
      <trkpt lat="0" lon="0">
        <time>2020-12-06T09:57:15.936000+00:00</time>
      </trkpt>
      <trkpt lat="0" lon="0">
        <time>2020-12-06T09:57:15.941000+00:00</time>
      </trkpt>
      <trkpt lat="47.34107" lon="-1.32805">
        <ele>45</ele>
        <time>2020-12-06T09:57:16.935000+00:00</time>
      </trkpt>
      <trkpt lat="0" lon="0">
        <time>2020-12-06T09:57:16.950000+00:00</time>
      </trkpt>
      <trkpt lat="0" lon="0">
        <time>2020-12-06T09:57:16.958000+00:00</time>
      </trkpt>
      <trkpt lat="0" lon="0">
        <time>2020-12-06T09:57:16.960000+00:00</time>
      </trkpt>
      <trkpt lat="47.34104" lon="-1.32809">
        <ele>45</ele>
        <time>2020-12-06T09:57:17.934000+00:00</time>
      </trkpt>
      <trkpt lat="0" lon="0">
        <time>2020-12-06T09:57:17.940000+00:00</time>
      </trkpt>
      <trkpt lat="0" lon="0">
        <time>2020-12-06T09:57:17.943000+00:00</time>
      </trkpt>
      <trkpt lat="0" lon="0">
        <time>2020-12-06T09:57:17.945000+00:00</time>
      </trkpt>
      <trkpt lat="47.34102" lon="-1.32812">
        <ele>45</ele>
        <time>2020-12-06T09:57:18.897000+00:00</time>
      </trkpt>
      <trkpt lat="0" lon="0">
        <time>2020-12-06T09:57:18.912000+00:00</time>
      </trkpt>
      <trkpt lat="0" lon="0">
        <time>2020-12-06T09:57:18.917000+00:00</time>
      </trkpt>
      <trkpt lat="0" lon="0">
        <time>2020-12-06T09:57:18.925000+00:00</time>
      </trkpt>
      <trkpt lat="47.34099" lon="-1.32816">
        <ele>44</ele>
        <time>2020-12-06T09:57:19.919000+00:00</time>
      </trkpt>
      <trkpt lat="0" lon="0">
        <time>2020-12-06T09:57:19.929000+00:00</time>
      </trkpt>
      <trkpt lat="0" lon="0">
        <time>2020-12-06T09:57:19.935000+00:00</time>
      </trkpt>
      <trkpt lat="0" lon="0">
        <time>2020-12-06T09:57:19.943000+00:00</time>
      </trkpt>
      <trkpt lat="47.34097" lon="-1.32819">
        <ele>44</ele>
        <time>2020-12-06T09:57:20.948000+00:00</time>
      </trkpt>
      <trkpt lat="0" lon="0">
        <time>2020-12-06T09:57:20.951000+00:00</time>
      </trkpt>
      <trkpt lat="0" lon="0">
        <time>2020-12-06T09:57:20.954000+00:00</time>
      </trkpt>
      <trkpt lat="0" lon="0">
        <time>2020-12-06T09:57:20.956000+00:00</time>
      </trkpt>
      <trkpt lat="47.34094" lon="-1.32822">
        <ele>44</ele>
        <time>2020-12-06T09:57:21.838000+00:00</time>
      </trkpt>
      <trkpt lat="0" lon="0">
        <time>2020-12-06T09:57:21.841000+00:00</time>
      </trkpt>
      <trkpt lat="0" lon="0">
        <time>2020-12-06T09:57:21.844000+00:00</time>
      </trkpt>
      <trkpt lat="0" lon="0">
        <time>2020-12-06T09:57:21.845000+00:00</time>
      </trkpt>
      <trkpt lat="47.34091" lon="-1.32825">
        <ele>44</ele>
        <time>2020-12-06T09:57:22.832000+00:00</time>
      </trkpt>
      <trkpt lat="0" lon="0">
        <time>2020-12-06T09:57:22.842000+00:00</time>
      </trkpt>
      <trkpt lat="0" lon="0">
        <time>2020-12-06T09:57:22.845000+00:00</time>
      </trkpt>
      <trkpt lat="0" lon="0">
        <time>2020-12-06T09:57:22.846000+00:00</time>
      </trkpt>
      <trkpt lat="47.34088" lon="-1.32828">
        <ele>44</ele>
        <time>2020-12-06T09:57:23.947000+00:00</time>
      </trkpt>
      <trkpt lat="0" lon="0">
        <time>2020-12-06T09:57:23.964000+00:00</time>
      </trkpt>
      <trkpt lat="0" lon="0">
        <time>2020-12-06T09:57:23.968000+00:00</time>
      </trkpt>
      <trkpt lat="0" lon="0">
        <time>2020-12-06T09:57:23.972000+00:00</time>
      </trkpt>
      <trkpt lat="47.34085" lon="-1.32831">
        <ele>44</ele>
        <time>2020-12-06T09:57:24.862000+00:00</time>
      </trkpt>
      <trkpt lat="0" lon="0">
        <time>2020-12-06T09:57:24.873000+00:00</time>
      </trkpt>
      <trkpt lat="0" lon="0">
        <time>2020-12-06T09:57:24.878000+00:00</time>
      </trkpt>
      <trkpt lat="0" lon="0">
        <time>2020-12-06T09:57:24.880000+00:00</time>
      </trkpt>
      <trkpt lat="47.34082" lon="-1.32834">
        <ele>44</ele>
        <time>2020-12-06T09:57:25.932000+00:00</time>
      </trkpt>
      <trkpt lat="0" lon="0">
        <time>2020-12-06T09:57:25.942000+00:00</time>
      </trkpt>
      <trkpt lat="0" lon="0">
        <time>2020-12-06T09:57:25.946000+00:00</time>
      </trkpt>
      <trkpt lat="0" lon="0">
        <time>2020-12-06T09:57:25.948000+00:00</time>
      </trkpt>
      <trkpt lat="47.34079" lon="-1.32837">
        <ele>44</ele>
        <time>2020-12-06T09:57:26.909000+00:00</time>
      </trkpt>
      <trkpt lat="0" lon="0">
        <time>2020-12-06T09:57:26.916000+00:00</time>
      </trkpt>
      <trkpt lat="0" lon="0">
        <time>2020-12-06T09:57:26.922000+00:00</time>
      </trkpt>
      <trkpt lat="0" lon="0">
        <time>2020-12-06T09:57:26.924000+00:00</time>
      </trkpt>
      <trkpt lat="47.34076" lon="-1.3284">
        <ele>44</ele>
        <time>2020-12-06T09:57:27.948000+00:00</time>
      </trkpt>
      <trkpt lat="0" lon="0">
        <time>2020-12-06T09:57:27.954000+00:00</time>
      </trkpt>
      <trkpt lat="0" lon="0">
        <time>2020-12-06T09:57:27.963000+00:00</time>
      </trkpt>
      <trkpt lat="0" lon="0">
        <time>2020-12-06T09:57:27.966000+00:00</time>
      </trkpt>
      <trkpt lat="47.34073" lon="-1.32843">
        <ele>44</ele>
        <time>2020-12-06T09:57:28.923000+00:00</time>
      </trkpt>
      <trkpt lat="0" lon="0">
        <time>2020-12-06T09:57:28.926000+00:00</time>
      </trkpt>
      <trkpt lat="0" lon="0">
        <time>2020-12-06T09:57:28.930000+00:00</time>
      </trkpt>
      <trkpt lat="0" lon="0">
        <time>2020-12-06T09:57:28.932000+00:00</time>
      </trkpt>
      <trkpt lat="47.3407" lon="-1.32846">
        <ele>44</ele>
        <time>2020-12-06T09:57:29.914000+00:00</time>
      </trkpt>
      <trkpt lat="0" lon="0">
        <time>2020-12-06T09:57:29.920000+00:00</time>
      </trkpt>
      <trkpt lat="0" lon="0">
        <time>2020-12-06T09:57:29.922000+00:00</time>
      </trkpt>
      <trkpt lat="0" lon="0">
        <time>2020-12-06T09:57:29.923000+00:00</time>
      </trkpt>
      <trkpt lat="47.34067" lon="-1.3285">
        <ele>44</ele>
        <time>2020-12-06T09:57:30.919000+00:00</time>
      </trkpt>
      <trkpt lat="0" lon="0">
        <time>2020-12-06T09:57:30.924000+00:00</time>
      </trkpt>
      <trkpt lat="0" lon="0">
        <time>2020-12-06T09:57:30.928000+00:00</time>
      </trkpt>
      <trkpt lat="0" lon="0">
        <time>2020-12-06T09:57:30.933000+00:00</time>
      </trkpt>
      <trkpt lat="47.34064" lon="-1.32854">
        <ele>44</ele>
        <time>2020-12-06T09:57:31.908000+00:00</time>
      </trkpt>
      <trkpt lat="0" lon="0">
        <time>2020-12-06T09:57:31.922000+00:00</time>
      </trkpt>
      <trkpt lat="0" lon="0">
        <time>2020-12-06T09:57:31.927000+00:00</time>
      </trkpt>
      <trkpt lat="0" lon="0">
        <time>2020-12-06T09:57:31.930000+00:00</time>
      </trkpt>
      <trkpt lat="47.34061" lon="-1.32857">
        <ele>44</ele>
        <time>2020-12-06T09:57:32.887000+00:00</time>
      </trkpt>
      <trkpt lat="0" lon="0">
        <time>2020-12-06T09:57:32.898000+00:00</time>
      </trkpt>
      <trkpt lat="0" lon="0">
        <time>2020-12-06T09:57:32.901000+00:00</time>
      </trkpt>
      <trkpt lat="0" lon="0">
        <time>2020-12-06T09:57:32.904000+00:00</time>
      </trkpt>
      <trkpt lat="47.34057" lon="-1.32862">
        <ele>44</ele>
        <time>2020-12-06T09:57:33.933000+00:00</time>
      </trkpt>
      <trkpt lat="0" lon="0">
        <time>2020-12-06T09:57:33.940000+00:00</time>
      </trkpt>
      <trkpt lat="0" lon="0">
        <time>2020-12-06T09:57:33.949000+00:00</time>
      </trkpt>
      <trkpt lat="0" lon="0">
        <time>2020-12-06T09:57:33.956000+00:00</time>
      </trkpt>
      <trkpt lat="47.34054" lon="-1.32866">
        <ele>44</ele>
        <time>2020-12-06T09:57:34.933000+00:00</time>
      </trkpt>
      <trkpt lat="0" lon="0">
        <time>2020-12-06T09:57:34.951000+00:00</time>
      </trkpt>
      <trkpt lat="0" lon="0">
        <time>2020-12-06T09:57:34.957000+00:00</time>
      </trkpt>
      <trkpt lat="0" lon="0">
        <time>2020-12-06T09:57:34.959000+00:00</time>
      </trkpt>
      <trkpt lat="47.3405" lon="-1.32871">
        <ele>44</ele>
        <time>2020-12-06T09:57:35.924000+00:00</time>
      </trkpt>
      <trkpt lat="0" lon="0">
        <time>2020-12-06T09:57:35.933000+00:00</time>
      </trkpt>
      <trkpt lat="0" lon="0">
        <time>2020-12-06T09:57:35.940000+00:00</time>
      </trkpt>
      <trkpt lat="0" lon="0">
        <time>2020-12-06T09:57:35.943000+00:00</time>
      </trkpt>
      <trkpt lat="47.34046" lon="-1.32876">
        <ele>44</ele>
        <time>2020-12-06T09:57:36.953000+00:00</time>
      </trkpt>
      <trkpt lat="0" lon="0">
        <time>2020-12-06T09:57:36.963000+00:00</time>
      </trkpt>
      <trkpt lat="0" lon="0">
        <time>2020-12-06T09:57:36.974000+00:00</time>
      </trkpt>
      <trkpt lat="0" lon="0">
        <time>2020-12-06T09:57:36.977000+00:00</time>
      </trkpt>
      <trkpt lat="47.34042" lon="-1.32881">
        <ele>44</ele>
        <time>2020-12-06T09:57:37.925000+00:00</time>
      </trkpt>
      <trkpt lat="0" lon="0">
        <time>2020-12-06T09:57:37.936000+00:00</time>
      </trkpt>
      <trkpt lat="0" lon="0">
        <time>2020-12-06T09:57:37.940000+00:00</time>
      </trkpt>
      <trkpt lat="0" lon="0">
        <time>2020-12-06T09:57:37.942000+00:00</time>
      </trkpt>
      <trkpt lat="47.34037" lon="-1.32885">
        <ele>44</ele>
        <time>2020-12-06T09:57:38.949000+00:00</time>
      </trkpt>
      <trkpt lat="0" lon="0">
        <time>2020-12-06T09:57:38.950000+00:00</time>
      </trkpt>
      <trkpt lat="0" lon="0">
        <time>2020-12-06T09:57:38.953000+00:00</time>
      </trkpt>
      <trkpt lat="0" lon="0">
        <time>2020-12-06T09:57:38.954000+00:00</time>
      </trkpt>
      <trkpt lat="47.34033" lon="-1.3289">
        <ele>43</ele>
        <time>2020-12-06T09:57:39.948000+00:00</time>
      </trkpt>
      <trkpt lat="0" lon="0">
        <time>2020-12-06T09:57:39.953000+00:00</time>
      </trkpt>
      <trkpt lat="0" lon="0">
        <time>2020-12-06T09:57:39.959000+00:00</time>
      </trkpt>
      <trkpt lat="0" lon="0">
        <time>2020-12-06T09:57:39.961000+00:00</time>
      </trkpt>
      <trkpt lat="47.34028" lon="-1.32895">
        <ele>43</ele>
        <time>2020-12-06T09:57:40.922000+00:00</time>
      </trkpt>
      <trkpt lat="0" lon="0">
        <time>2020-12-06T09:57:40.937000+00:00</time>
      </trkpt>
      <trkpt lat="0" lon="0">
        <time>2020-12-06T09:57:40.941000+00:00</time>
      </trkpt>
      <trkpt lat="0" lon="0">
        <time>2020-12-06T09:57:40.944000+00:00</time>
      </trkpt>
      <trkpt lat="47.34024" lon="-1.329">
        <ele>43</ele>
        <time>2020-12-06T09:57:41.966000+00:00</time>
      </trkpt>
      <trkpt lat="0" lon="0">
        <time>2020-12-06T09:57:41.985000+00:00</time>
      </trkpt>
      <trkpt lat="0" lon="0">
        <time>2020-12-06T09:57:41.994000+00:00</time>
      </trkpt>
      <trkpt lat="0" lon="0">
        <time>2020-12-06T09:57:42.001000+00:00</time>
      </trkpt>
      <trkpt lat="47.3402" lon="-1.32905">
        <ele>43</ele>
        <time>2020-12-06T09:57:42.931000+00:00</time>
      </trkpt>
      <trkpt lat="0" lon="0">
        <time>2020-12-06T09:57:42.936000+00:00</time>
      </trkpt>
      <trkpt lat="0" lon="0">
        <time>2020-12-06T09:57:42.939000+00:00</time>
      </trkpt>
      <trkpt lat="0" lon="0">
        <time>2020-12-06T09:57:42.942000+00:00</time>
      </trkpt>
      <trkpt lat="47.34015" lon="-1.32908">
        <ele>43</ele>
        <time>2020-12-06T09:57:43.851000+00:00</time>
      </trkpt>
      <trkpt lat="0" lon="0">
        <time>2020-12-06T09:57:43.853000+00:00</time>
      </trkpt>
      <trkpt lat="0" lon="0">
        <time>2020-12-06T09:57:43.855000+00:00</time>
      </trkpt>
      <trkpt lat="47.34012" lon="-1.32911">
        <ele>42</ele>
        <time>2020-12-06T09:57:44.899000+00:00</time>
      </trkpt>
      <trkpt lat="0" lon="0">
        <time>2020-12-06T09:57:44.904000+00:00</time>
      </trkpt>
      <trkpt lat="0" lon="0">
        <time>2020-12-06T09:57:44.909000+00:00</time>
      </trkpt>
      <trkpt lat="0" lon="0">
        <time>2020-12-06T09:57:44.911000+00:00</time>
      </trkpt>
      <trkpt lat="47.34008" lon="-1.32914">
        <ele>42</ele>
        <time>2020-12-06T09:57:45.940000+00:00</time>
      </trkpt>
      <trkpt lat="0" lon="0">
        <time>2020-12-06T09:57:45.948000+00:00</time>
      </trkpt>
      <trkpt lat="0" lon="0">
        <time>2020-12-06T09:57:45.952000+00:00</time>
      </trkpt>
      <trkpt lat="0" lon="0">
        <time>2020-12-06T09:57:45.954000+00:00</time>
      </trkpt>
      <trkpt lat="47.34005" lon="-1.32917">
        <ele>42</ele>
        <time>2020-12-06T09:57:46.911000+00:00</time>
      </trkpt>
      <trkpt lat="0" lon="0">
        <time>2020-12-06T09:57:46.924000+00:00</time>
      </trkpt>
      <trkpt lat="0" lon="0">
        <time>2020-12-06T09:57:46.930000+00:00</time>
      </trkpt>
      <trkpt lat="0" lon="0">
        <time>2020-12-06T09:57:46.933000+00:00</time>
      </trkpt>
      <trkpt lat="47.34002" lon="-1.32919">
        <ele>42</ele>
        <time>2020-12-06T09:57:47.893000+00:00</time>
      </trkpt>
      <trkpt lat="0" lon="0">
        <time>2020-12-06T09:57:47.901000+00:00</time>
      </trkpt>
      <trkpt lat="0" lon="0">
        <time>2020-12-06T09:57:47.906000+00:00</time>
      </trkpt>
      <trkpt lat="0" lon="0">
        <time>2020-12-06T09:57:47.907000+00:00</time>
      </trkpt>
      <trkpt lat="47.34" lon="-1.32922">
        <ele>42</ele>
        <time>2020-12-06T09:57:48.883000+00:00</time>
      </trkpt>
      <trkpt lat="0" lon="0">
        <time>2020-12-06T09:57:48.891000+00:00</time>
      </trkpt>
      <trkpt lat="0" lon="0">
        <time>2020-12-06T09:57:48.894000+00:00</time>
      </trkpt>
      <trkpt lat="0" lon="0">
        <time>2020-12-06T09:57:48.897000+00:00</time>
      </trkpt>
      <trkpt lat="47.33997" lon="-1.32924">
        <ele>41</ele>
        <time>2020-12-06T09:57:49.872000+00:00</time>
      </trkpt>
      <trkpt lat="0" lon="0">
        <time>2020-12-06T09:57:49.875000+00:00</time>
      </trkpt>
      <trkpt lat="0" lon="0">
        <time>2020-12-06T09:57:49.891000+00:00</time>
      </trkpt>
      <trkpt lat="0" lon="0">
        <time>2020-12-06T09:57:49.899000+00:00</time>
      </trkpt>
      <trkpt lat="47.33995" lon="-1.32926">
        <ele>41</ele>
        <time>2020-12-06T09:57:50.879000+00:00</time>
      </trkpt>
      <trkpt lat="0" lon="0">
        <time>2020-12-06T09:57:50.889000+00:00</time>
      </trkpt>
      <trkpt lat="0" lon="0">
        <time>2020-12-06T09:57:50.892000+00:00</time>
      </trkpt>
      <trkpt lat="0" lon="0">
        <time>2020-12-06T09:57:50.894000+00:00</time>
      </trkpt>
      <trkpt lat="47.33993" lon="-1.32929">
        <ele>40</ele>
        <time>2020-12-06T09:57:51.882000+00:00</time>
      </trkpt>
      <trkpt lat="0" lon="0">
        <time>2020-12-06T09:57:51.886000+00:00</time>
      </trkpt>
      <trkpt lat="0" lon="0">
        <time>2020-12-06T09:57:51.894000+00:00</time>
      </trkpt>
      <trkpt lat="0" lon="0">
        <time>2020-12-06T09:57:51.901000+00:00</time>
      </trkpt>
      <trkpt lat="47.33992" lon="-1.32931">
        <ele>40</ele>
        <time>2020-12-06T09:57:52.898000+00:00</time>
      </trkpt>
      <trkpt lat="0" lon="0">
        <time>2020-12-06T09:57:52.912000+00:00</time>
      </trkpt>
      <trkpt lat="0" lon="0">
        <time>2020-12-06T09:57:52.920000+00:00</time>
      </trkpt>
      <trkpt lat="0" lon="0">
        <time>2020-12-06T09:57:52.923000+00:00</time>
      </trkpt>
      <trkpt lat="47.3399" lon="-1.32933">
        <ele>40</ele>
        <time>2020-12-06T09:57:53.864000+00:00</time>
      </trkpt>
      <trkpt lat="0" lon="0">
        <time>2020-12-06T09:57:53.874000+00:00</time>
      </trkpt>
      <trkpt lat="0" lon="0">
        <time>2020-12-06T09:57:53.879000+00:00</time>
      </trkpt>
      <trkpt lat="47.33988" lon="-1.32936">
        <ele>39</ele>
        <time>2020-12-06T09:57:54.891000+00:00</time>
      </trkpt>
      <trkpt lat="0" lon="0">
        <time>2020-12-06T09:57:54.905000+00:00</time>
      </trkpt>
      <trkpt lat="0" lon="0">
        <time>2020-12-06T09:57:54.914000+00:00</time>
      </trkpt>
      <trkpt lat="0" lon="0">
        <time>2020-12-06T09:57:54.916000+00:00</time>
      </trkpt>
      <trkpt lat="47.33987" lon="-1.32939">
        <ele>39</ele>
        <time>2020-12-06T09:57:55.908000+00:00</time>
      </trkpt>
      <trkpt lat="0" lon="0">
        <time>2020-12-06T09:57:55.911000+00:00</time>
      </trkpt>
      <trkpt lat="0" lon="0">
        <time>2020-12-06T09:57:55.927000+00:00</time>
      </trkpt>
      <trkpt lat="0" lon="0">
        <time>2020-12-06T09:57:55.929000+00:00</time>
      </trkpt>
      <trkpt lat="47.33985" lon="-1.32942">
        <ele>38</ele>
        <time>2020-12-06T09:57:56.918000+00:00</time>
      </trkpt>
      <trkpt lat="0" lon="0">
        <time>2020-12-06T09:57:56.921000+00:00</time>
      </trkpt>
      <trkpt lat="0" lon="0">
        <time>2020-12-06T09:57:56.933000+00:00</time>
      </trkpt>
      <trkpt lat="0" lon="0">
        <time>2020-12-06T09:57:56.935000+00:00</time>
      </trkpt>
      <trkpt lat="47.33982" lon="-1.32945">
        <ele>38</ele>
        <time>2020-12-06T09:57:57.929000+00:00</time>
      </trkpt>
      <trkpt lat="0" lon="0">
        <time>2020-12-06T09:57:57.933000+00:00</time>
      </trkpt>
      <trkpt lat="0" lon="0">
        <time>2020-12-06T09:57:57.945000+00:00</time>
      </trkpt>
      <trkpt lat="0" lon="0">
        <time>2020-12-06T09:57:57.947000+00:00</time>
      </trkpt>
      <trkpt lat="47.3398" lon="-1.32948">
        <ele>37</ele>
        <time>2020-12-06T09:57:58.909000+00:00</time>
      </trkpt>
      <trkpt lat="0" lon="0">
        <time>2020-12-06T09:57:58.911000+00:00</time>
      </trkpt>
      <trkpt lat="0" lon="0">
        <time>2020-12-06T09:57:58.912000+00:00</time>
      </trkpt>
      <trkpt lat="0" lon="0">
        <time>2020-12-06T09:57:58.913000+00:00</time>
      </trkpt>
      <trkpt lat="47.33977" lon="-1.32951">
        <ele>37</ele>
        <time>2020-12-06T09:57:59.869000+00:00</time>
      </trkpt>
      <trkpt lat="0" lon="0">
        <time>2020-12-06T09:57:59.872000+00:00</time>
      </trkpt>
      <trkpt lat="0" lon="0">
        <time>2020-12-06T09:57:59.878000+00:00</time>
      </trkpt>
      <trkpt lat="0" lon="0">
        <time>2020-12-06T09:57:59.880000+00:00</time>
      </trkpt>
      <trkpt lat="47.33974" lon="-1.32955">
        <ele>36</ele>
        <time>2020-12-06T09:58:00.917000+00:00</time>
      </trkpt>
      <trkpt lat="0" lon="0">
        <time>2020-12-06T09:58:00.933000+00:00</time>
      </trkpt>
      <trkpt lat="0" lon="0">
        <time>2020-12-06T09:58:00.937000+00:00</time>
      </trkpt>
      <trkpt lat="0" lon="0">
        <time>2020-12-06T09:58:00.938000+00:00</time>
      </trkpt>
      <trkpt lat="47.33971" lon="-1.32958">
        <ele>35</ele>
        <time>2020-12-06T09:58:01.954000+00:00</time>
      </trkpt>
      <trkpt lat="0" lon="0">
        <time>2020-12-06T09:58:01.963000+00:00</time>
      </trkpt>
      <trkpt lat="0" lon="0">
        <time>2020-12-06T09:58:01.967000+00:00</time>
      </trkpt>
      <trkpt lat="0" lon="0">
        <time>2020-12-06T09:58:01.969000+00:00</time>
      </trkpt>
      <trkpt lat="47.33968" lon="-1.32962">
        <ele>35</ele>
        <time>2020-12-06T09:58:02.898000+00:00</time>
      </trkpt>
      <trkpt lat="0" lon="0">
        <time>2020-12-06T09:58:02.907000+00:00</time>
      </trkpt>
      <trkpt lat="0" lon="0">
        <time>2020-12-06T09:58:02.911000+00:00</time>
      </trkpt>
      <trkpt lat="0" lon="0">
        <time>2020-12-06T09:58:02.913000+00:00</time>
      </trkpt>
      <trkpt lat="47.33966" lon="-1.32965">
        <ele>34</ele>
        <time>2020-12-06T09:58:03.961000+00:00</time>
      </trkpt>
      <trkpt lat="0" lon="0">
        <time>2020-12-06T09:58:03.969000+00:00</time>
      </trkpt>
      <trkpt lat="0" lon="0">
        <time>2020-12-06T09:58:03.972000+00:00</time>
      </trkpt>
      <trkpt lat="0" lon="0">
        <time>2020-12-06T09:58:03.975000+00:00</time>
      </trkpt>
      <trkpt lat="47.33963" lon="-1.32969">
        <ele>34</ele>
        <time>2020-12-06T09:58:04.930000+00:00</time>
      </trkpt>
      <trkpt lat="0" lon="0">
        <time>2020-12-06T09:58:04.939000+00:00</time>
      </trkpt>
      <trkpt lat="0" lon="0">
        <time>2020-12-06T09:58:04.943000+00:00</time>
      </trkpt>
      <trkpt lat="0" lon="0">
        <time>2020-12-06T09:58:04.944000+00:00</time>
      </trkpt>
      <trkpt lat="47.3396" lon="-1.32973">
        <ele>34</ele>
        <time>2020-12-06T09:58:05.964000+00:00</time>
      </trkpt>
      <trkpt lat="0" lon="0">
        <time>2020-12-06T09:58:05.980000+00:00</time>
      </trkpt>
      <trkpt lat="0" lon="0">
        <time>2020-12-06T09:58:05.989000+00:00</time>
      </trkpt>
      <trkpt lat="0" lon="0">
        <time>2020-12-06T09:58:05.993000+00:00</time>
      </trkpt>
      <trkpt lat="47.33957" lon="-1.32977">
        <ele>33</ele>
        <time>2020-12-06T09:58:06.951000+00:00</time>
      </trkpt>
      <trkpt lat="0" lon="0">
        <time>2020-12-06T09:58:06.959000+00:00</time>
      </trkpt>
      <trkpt lat="0" lon="0">
        <time>2020-12-06T09:58:06.963000+00:00</time>
      </trkpt>
      <trkpt lat="0" lon="0">
        <time>2020-12-06T09:58:06.965000+00:00</time>
      </trkpt>
      <trkpt lat="47.33954" lon="-1.32981">
        <ele>32</ele>
        <time>2020-12-06T09:58:07.950000+00:00</time>
      </trkpt>
      <trkpt lat="0" lon="0">
        <time>2020-12-06T09:58:07.967000+00:00</time>
      </trkpt>
      <trkpt lat="0" lon="0">
        <time>2020-12-06T09:58:07.972000+00:00</time>
      </trkpt>
      <trkpt lat="0" lon="0">
        <time>2020-12-06T09:58:07.976000+00:00</time>
      </trkpt>
      <trkpt lat="47.33951" lon="-1.32986">
        <ele>32</ele>
        <time>2020-12-06T09:58:08.861000+00:00</time>
      </trkpt>
      <trkpt lat="0" lon="0">
        <time>2020-12-06T09:58:08.864000+00:00</time>
      </trkpt>
      <trkpt lat="0" lon="0">
        <time>2020-12-06T09:58:08.868000+00:00</time>
      </trkpt>
      <trkpt lat="0" lon="0">
        <time>2020-12-06T09:58:08.871000+00:00</time>
      </trkpt>
      <trkpt lat="47.33948" lon="-1.3299">
        <ele>31</ele>
        <time>2020-12-06T09:58:09.904000+00:00</time>
      </trkpt>
      <trkpt lat="0" lon="0">
        <time>2020-12-06T09:58:09.918000+00:00</time>
      </trkpt>
      <trkpt lat="0" lon="0">
        <time>2020-12-06T09:58:09.923000+00:00</time>
      </trkpt>
      <trkpt lat="0" lon="0">
        <time>2020-12-06T09:58:09.930000+00:00</time>
      </trkpt>
      <trkpt lat="47.33945" lon="-1.32995">
        <ele>31</ele>
        <time>2020-12-06T09:58:10.968000+00:00</time>
      </trkpt>
      <trkpt lat="0" lon="0">
        <time>2020-12-06T09:58:10.977000+00:00</time>
      </trkpt>
      <trkpt lat="0" lon="0">
        <time>2020-12-06T09:58:10.979000+00:00</time>
      </trkpt>
      <trkpt lat="47.33942" lon="-1.33">
        <ele>31</ele>
        <time>2020-12-06T09:58:11.961000+00:00</time>
      </trkpt>
      <trkpt lat="0" lon="0">
        <time>2020-12-06T09:58:11.975000+00:00</time>
      </trkpt>
      <trkpt lat="0" lon="0">
        <time>2020-12-06T09:58:11.981000+00:00</time>
      </trkpt>
      <trkpt lat="0" lon="0">
        <time>2020-12-06T09:58:11.983000+00:00</time>
      </trkpt>
      <trkpt lat="47.33939" lon="-1.33004">
        <ele>31</ele>
        <time>2020-12-06T09:58:12.903000+00:00</time>
      </trkpt>
      <trkpt lat="0" lon="0">
        <time>2020-12-06T09:58:12.910000+00:00</time>
      </trkpt>
      <trkpt lat="0" lon="0">
        <time>2020-12-06T09:58:12.916000+00:00</time>
      </trkpt>
      <trkpt lat="0" lon="0">
        <time>2020-12-06T09:58:12.919000+00:00</time>
      </trkpt>
      <trkpt lat="47.33937" lon="-1.33009">
        <ele>31</ele>
        <time>2020-12-06T09:58:13.918000+00:00</time>
      </trkpt>
      <trkpt lat="0" lon="0">
        <time>2020-12-06T09:58:13.928000+00:00</time>
      </trkpt>
      <trkpt lat="0" lon="0">
        <time>2020-12-06T09:58:13.936000+00:00</time>
      </trkpt>
      <trkpt lat="0" lon="0">
        <time>2020-12-06T09:58:13.938000+00:00</time>
      </trkpt>
      <trkpt lat="47.33934" lon="-1.33013">
        <ele>32</ele>
        <time>2020-12-06T09:58:14.918000+00:00</time>
      </trkpt>
      <trkpt lat="0" lon="0">
        <time>2020-12-06T09:58:14.926000+00:00</time>
      </trkpt>
      <trkpt lat="0" lon="0">
        <time>2020-12-06T09:58:14.929000+00:00</time>
      </trkpt>
      <trkpt lat="0" lon="0">
        <time>2020-12-06T09:58:14.931000+00:00</time>
      </trkpt>
      <trkpt lat="47.33931" lon="-1.33017">
        <ele>32</ele>
        <time>2020-12-06T09:58:15.915000+00:00</time>
      </trkpt>
      <trkpt lat="0" lon="0">
        <time>2020-12-06T09:58:15.917000+00:00</time>
      </trkpt>
      <trkpt lat="0" lon="0">
        <time>2020-12-06T09:58:15.919000+00:00</time>
      </trkpt>
      <trkpt lat="47.33928" lon="-1.33021">
        <ele>33</ele>
        <time>2020-12-06T09:58:16.873000+00:00</time>
      </trkpt>
      <trkpt lat="0" lon="0">
        <time>2020-12-06T09:58:16.885000+00:00</time>
      </trkpt>
      <trkpt lat="0" lon="0">
        <time>2020-12-06T09:58:16.892000+00:00</time>
      </trkpt>
      <trkpt lat="0" lon="0">
        <time>2020-12-06T09:58:16.896000+00:00</time>
      </trkpt>
      <trkpt lat="47.33925" lon="-1.33025">
        <ele>33</ele>
        <time>2020-12-06T09:58:17.925000+00:00</time>
      </trkpt>
      <trkpt lat="0" lon="0">
        <time>2020-12-06T09:58:17.929000+00:00</time>
      </trkpt>
      <trkpt lat="0" lon="0">
        <time>2020-12-06T09:58:17.940000+00:00</time>
      </trkpt>
      <trkpt lat="0" lon="0">
        <time>2020-12-06T09:58:17.945000+00:00</time>
      </trkpt>
      <trkpt lat="47.33923" lon="-1.33028">
        <ele>34</ele>
        <time>2020-12-06T09:58:18.864000+00:00</time>
      </trkpt>
      <trkpt lat="0" lon="0">
        <time>2020-12-06T09:58:18.866000+00:00</time>
      </trkpt>
      <trkpt lat="0" lon="0">
        <time>2020-12-06T09:58:18.878000+00:00</time>
      </trkpt>
      <trkpt lat="0" lon="0">
        <time>2020-12-06T09:58:18.879000+00:00</time>
      </trkpt>
      <trkpt lat="47.33921" lon="-1.33032">
        <ele>34</ele>
        <time>2020-12-06T09:58:19.883000+00:00</time>
      </trkpt>
      <trkpt lat="0" lon="0">
        <time>2020-12-06T09:58:19.890000+00:00</time>
      </trkpt>
      <trkpt lat="0" lon="0">
        <time>2020-12-06T09:58:19.894000+00:00</time>
      </trkpt>
      <trkpt lat="0" lon="0">
        <time>2020-12-06T09:58:19.895000+00:00</time>
      </trkpt>
      <trkpt lat="47.33919" lon="-1.33035">
        <ele>35</ele>
        <time>2020-12-06T09:58:20.873000+00:00</time>
      </trkpt>
      <trkpt lat="0" lon="0">
        <time>2020-12-06T09:58:20.889000+00:00</time>
      </trkpt>
      <trkpt lat="0" lon="0">
        <time>2020-12-06T09:58:20.904000+00:00</time>
      </trkpt>
      <trkpt lat="0" lon="0">
        <time>2020-12-06T09:58:20.906000+00:00</time>
      </trkpt>
      <trkpt lat="47.33918" lon="-1.33037">
        <ele>35</ele>
        <time>2020-12-06T09:58:21.896000+00:00</time>
      </trkpt>
      <trkpt lat="0" lon="0">
        <time>2020-12-06T09:58:21.910000+00:00</time>
      </trkpt>
      <trkpt lat="0" lon="0">
        <time>2020-12-06T09:58:21.913000+00:00</time>
      </trkpt>
      <trkpt lat="0" lon="0">
        <time>2020-12-06T09:58:21.918000+00:00</time>
      </trkpt>
      <trkpt lat="47.33916" lon="-1.3304">
        <ele>35</ele>
        <time>2020-12-06T09:58:22.880000+00:00</time>
      </trkpt>
      <trkpt lat="0" lon="0">
        <time>2020-12-06T09:58:22.892000+00:00</time>
      </trkpt>
      <trkpt lat="0" lon="0">
        <time>2020-12-06T09:58:22.898000+00:00</time>
      </trkpt>
      <trkpt lat="0" lon="0">
        <time>2020-12-06T09:58:22.902000+00:00</time>
      </trkpt>
      <trkpt lat="47.33914" lon="-1.33043">
        <ele>36</ele>
        <time>2020-12-06T09:58:23.868000+00:00</time>
      </trkpt>
      <trkpt lat="0" lon="0">
        <time>2020-12-06T09:58:23.885000+00:00</time>
      </trkpt>
      <trkpt lat="0" lon="0">
        <time>2020-12-06T09:58:23.891000+00:00</time>
      </trkpt>
      <trkpt lat="0" lon="0">
        <time>2020-12-06T09:58:23.894000+00:00</time>
      </trkpt>
      <trkpt lat="47.33913" lon="-1.33045">
        <ele>36</ele>
        <time>2020-12-06T09:58:24.882000+00:00</time>
      </trkpt>
      <trkpt lat="0" lon="0">
        <time>2020-12-06T09:58:24.890000+00:00</time>
      </trkpt>
      <trkpt lat="0" lon="0">
        <time>2020-12-06T09:58:24.900000+00:00</time>
      </trkpt>
      <trkpt lat="0" lon="0">
        <time>2020-12-06T09:58:24.903000+00:00</time>
      </trkpt>
      <trkpt lat="47.33912" lon="-1.33048">
        <ele>37</ele>
        <time>2020-12-06T09:58:25.874000+00:00</time>
      </trkpt>
      <trkpt lat="0" lon="0">
        <time>2020-12-06T09:58:25.885000+00:00</time>
      </trkpt>
      <trkpt lat="0" lon="0">
        <time>2020-12-06T09:58:25.888000+00:00</time>
      </trkpt>
      <trkpt lat="0" lon="0">
        <time>2020-12-06T09:58:25.891000+00:00</time>
      </trkpt>
      <trkpt lat="47.33911" lon="-1.33051">
        <ele>37</ele>
        <time>2020-12-06T09:58:26.859000+00:00</time>
      </trkpt>
      <trkpt lat="0" lon="0">
        <time>2020-12-06T09:58:26.872000+00:00</time>
      </trkpt>
      <trkpt lat="0" lon="0">
        <time>2020-12-06T09:58:26.879000+00:00</time>
      </trkpt>
      <trkpt lat="0" lon="0">
        <time>2020-12-06T09:58:26.881000+00:00</time>
      </trkpt>
      <trkpt lat="47.3391" lon="-1.33054">
        <ele>38</ele>
        <time>2020-12-06T09:58:27.864000+00:00</time>
      </trkpt>
      <trkpt lat="0" lon="0">
        <time>2020-12-06T09:58:27.874000+00:00</time>
      </trkpt>
      <trkpt lat="0" lon="0">
        <time>2020-12-06T09:58:27.876000+00:00</time>
      </trkpt>
      <trkpt lat="0" lon="0">
        <time>2020-12-06T09:58:27.878000+00:00</time>
      </trkpt>
      <trkpt lat="47.3391" lon="-1.33057">
        <ele>38</ele>
        <time>2020-12-06T09:58:28.888000+00:00</time>
      </trkpt>
      <trkpt lat="0" lon="0">
        <time>2020-12-06T09:58:28.899000+00:00</time>
      </trkpt>
      <trkpt lat="0" lon="0">
        <time>2020-12-06T09:58:28.903000+00:00</time>
      </trkpt>
      <trkpt lat="0" lon="0">
        <time>2020-12-06T09:58:28.906000+00:00</time>
      </trkpt>
      <trkpt lat="47.33909" lon="-1.3306">
        <ele>39</ele>
        <time>2020-12-06T09:58:29.876000+00:00</time>
      </trkpt>
      <trkpt lat="0" lon="0">
        <time>2020-12-06T09:58:29.891000+00:00</time>
      </trkpt>
      <trkpt lat="0" lon="0">
        <time>2020-12-06T09:58:29.895000+00:00</time>
      </trkpt>
      <trkpt lat="0" lon="0">
        <time>2020-12-06T09:58:29.897000+00:00</time>
      </trkpt>
      <trkpt lat="47.33909" lon="-1.33063">
        <ele>39</ele>
        <time>2020-12-06T09:58:30.873000+00:00</time>
      </trkpt>
      <trkpt lat="0" lon="0">
        <time>2020-12-06T09:58:30.891000+00:00</time>
      </trkpt>
      <trkpt lat="0" lon="0">
        <time>2020-12-06T09:58:30.895000+00:00</time>
      </trkpt>
      <trkpt lat="0" lon="0">
        <time>2020-12-06T09:58:30.897000+00:00</time>
      </trkpt>
      <trkpt lat="47.33909" lon="-1.33066">
        <ele>39</ele>
        <time>2020-12-06T09:58:31.890000+00:00</time>
      </trkpt>
      <trkpt lat="0" lon="0">
        <time>2020-12-06T09:58:31.898000+00:00</time>
      </trkpt>
      <trkpt lat="0" lon="0">
        <time>2020-12-06T09:58:31.907000+00:00</time>
      </trkpt>
      <trkpt lat="0" lon="0">
        <time>2020-12-06T09:58:31.909000+00:00</time>
      </trkpt>
      <trkpt lat="47.33909" lon="-1.33069">
        <ele>40</ele>
        <time>2020-12-06T09:58:32.852000+00:00</time>
      </trkpt>
      <trkpt lat="0" lon="0">
        <time>2020-12-06T09:58:32.854000+00:00</time>
      </trkpt>
      <trkpt lat="0" lon="0">
        <time>2020-12-06T09:58:32.857000+00:00</time>
      </trkpt>
      <trkpt lat="0" lon="0">
        <time>2020-12-06T09:58:32.858000+00:00</time>
      </trkpt>
      <trkpt lat="47.33908" lon="-1.33072">
        <ele>40</ele>
        <time>2020-12-06T09:58:33.878000+00:00</time>
      </trkpt>
      <trkpt lat="0" lon="0">
        <time>2020-12-06T09:58:33.883000+00:00</time>
      </trkpt>
      <trkpt lat="0" lon="0">
        <time>2020-12-06T09:58:33.892000+00:00</time>
      </trkpt>
      <trkpt lat="0" lon="0">
        <time>2020-12-06T09:58:33.894000+00:00</time>
      </trkpt>
      <trkpt lat="47.33908" lon="-1.33075">
        <ele>40</ele>
        <time>2020-12-06T09:58:34.860000+00:00</time>
      </trkpt>
      <trkpt lat="0" lon="0">
        <time>2020-12-06T09:58:34.863000+00:00</time>
      </trkpt>
      <trkpt lat="0" lon="0">
        <time>2020-12-06T09:58:34.872000+00:00</time>
      </trkpt>
      <trkpt lat="0" lon="0">
        <time>2020-12-06T09:58:34.874000+00:00</time>
      </trkpt>
      <trkpt lat="47.33908" lon="-1.33077">
        <ele>41</ele>
        <time>2020-12-06T09:58:35.852000+00:00</time>
      </trkpt>
      <trkpt lat="0" lon="0">
        <time>2020-12-06T09:58:35.857000+00:00</time>
      </trkpt>
      <trkpt lat="0" lon="0">
        <time>2020-12-06T09:58:35.859000+00:00</time>
      </trkpt>
      <trkpt lat="47.33908" lon="-1.3308">
        <ele>41</ele>
        <time>2020-12-06T09:58:36.874000+00:00</time>
      </trkpt>
      <trkpt lat="0" lon="0">
        <time>2020-12-06T09:58:36.877000+00:00</time>
      </trkpt>
      <trkpt lat="0" lon="0">
        <time>2020-12-06T09:58:36.882000+00:00</time>
      </trkpt>
      <trkpt lat="0" lon="0">
        <time>2020-12-06T09:58:36.885000+00:00</time>
      </trkpt>
      <trkpt lat="47.33908" lon="-1.33083">
        <ele>42</ele>
        <time>2020-12-06T09:58:37.836000+00:00</time>
      </trkpt>
      <trkpt lat="0" lon="0">
        <time>2020-12-06T09:58:37.842000+00:00</time>
      </trkpt>
      <trkpt lat="0" lon="0">
        <time>2020-12-06T09:58:37.853000+00:00</time>
      </trkpt>
      <trkpt lat="0" lon="0">
        <time>2020-12-06T09:58:37.856000+00:00</time>
      </trkpt>
      <trkpt lat="47.33908" lon="-1.33086">
        <ele>42</ele>
        <time>2020-12-06T09:58:38.864000+00:00</time>
      </trkpt>
      <trkpt lat="0" lon="0">
        <time>2020-12-06T09:58:38.876000+00:00</time>
      </trkpt>
      <trkpt lat="0" lon="0">
        <time>2020-12-06T09:58:38.882000+00:00</time>
      </trkpt>
      <trkpt lat="0" lon="0">
        <time>2020-12-06T09:58:38.883000+00:00</time>
      </trkpt>
      <trkpt lat="47.33907" lon="-1.33088">
        <ele>42</ele>
        <time>2020-12-06T09:58:39.884000+00:00</time>
      </trkpt>
      <trkpt lat="0" lon="0">
        <time>2020-12-06T09:58:39.889000+00:00</time>
      </trkpt>
      <trkpt lat="0" lon="0">
        <time>2020-12-06T09:58:39.902000+00:00</time>
      </trkpt>
      <trkpt lat="0" lon="0">
        <time>2020-12-06T09:58:39.904000+00:00</time>
      </trkpt>
      <trkpt lat="47.33907" lon="-1.3309">
        <ele>42</ele>
        <time>2020-12-06T09:58:40.898000+00:00</time>
      </trkpt>
      <trkpt lat="0" lon="0">
        <time>2020-12-06T09:58:40.907000+00:00</time>
      </trkpt>
      <trkpt lat="0" lon="0">
        <time>2020-12-06T09:58:40.915000+00:00</time>
      </trkpt>
      <trkpt lat="0" lon="0">
        <time>2020-12-06T09:58:40.923000+00:00</time>
      </trkpt>
      <trkpt lat="47.33907" lon="-1.33092">
        <ele>42</ele>
        <time>2020-12-06T09:58:41.893000+00:00</time>
      </trkpt>
      <trkpt lat="0" lon="0">
        <time>2020-12-06T09:58:41.896000+00:00</time>
      </trkpt>
      <trkpt lat="0" lon="0">
        <time>2020-12-06T09:58:41.897000+00:00</time>
      </trkpt>
      <trkpt lat="0" lon="0">
        <time>2020-12-06T09:58:41.898000+00:00</time>
      </trkpt>
      <trkpt lat="47.33907" lon="-1.33093">
        <ele>43</ele>
        <time>2020-12-06T09:58:42.830000+00:00</time>
      </trkpt>
      <trkpt lat="0" lon="0">
        <time>2020-12-06T09:58:42.843000+00:00</time>
      </trkpt>
      <trkpt lat="0" lon="0">
        <time>2020-12-06T09:58:42.849000+00:00</time>
      </trkpt>
      <trkpt lat="0" lon="0">
        <time>2020-12-06T09:58:42.854000+00:00</time>
      </trkpt>
      <trkpt lat="47.33907" lon="-1.33095">
        <ele>43</ele>
        <time>2020-12-06T09:58:43.877000+00:00</time>
      </trkpt>
      <trkpt lat="0" lon="0">
        <time>2020-12-06T09:58:43.880000+00:00</time>
      </trkpt>
      <trkpt lat="0" lon="0">
        <time>2020-12-06T09:58:43.885000+00:00</time>
      </trkpt>
      <trkpt lat="0" lon="0">
        <time>2020-12-06T09:58:43.886000+00:00</time>
      </trkpt>
      <trkpt lat="47.33907" lon="-1.33096">
        <ele>43</ele>
        <time>2020-12-06T09:58:44.854000+00:00</time>
      </trkpt>
      <trkpt lat="0" lon="0">
        <time>2020-12-06T09:58:44.862000+00:00</time>
      </trkpt>
      <trkpt lat="0" lon="0">
        <time>2020-12-06T09:58:44.865000+00:00</time>
      </trkpt>
      <trkpt lat="0" lon="0">
        <time>2020-12-06T09:58:44.872000+00:00</time>
      </trkpt>
      <trkpt lat="47.33907" lon="-1.33098">
        <ele>43</ele>
        <time>2020-12-06T09:58:45.914000+00:00</time>
      </trkpt>
      <trkpt lat="0" lon="0">
        <time>2020-12-06T09:58:45.925000+00:00</time>
      </trkpt>
      <trkpt lat="0" lon="0">
        <time>2020-12-06T09:58:45.932000+00:00</time>
      </trkpt>
      <trkpt lat="0" lon="0">
        <time>2020-12-06T09:58:45.934000+00:00</time>
      </trkpt>
      <trkpt lat="47.33907" lon="-1.33099">
        <ele>43</ele>
        <time>2020-12-06T09:58:46.920000+00:00</time>
      </trkpt>
      <trkpt lat="0" lon="0">
        <time>2020-12-06T09:58:46.923000+00:00</time>
      </trkpt>
      <trkpt lat="0" lon="0">
        <time>2020-12-06T09:58:46.928000+00:00</time>
      </trkpt>
      <trkpt lat="0" lon="0">
        <time>2020-12-06T09:58:46.930000+00:00</time>
      </trkpt>
      <trkpt lat="47.33907" lon="-1.331">
        <ele>43</ele>
        <time>2020-12-06T09:58:47.868000+00:00</time>
      </trkpt>
      <trkpt lat="0" lon="0">
        <time>2020-12-06T09:58:47.878000+00:00</time>
      </trkpt>
      <trkpt lat="0" lon="0">
        <time>2020-12-06T09:58:47.882000+00:00</time>
      </trkpt>
      <trkpt lat="0" lon="0">
        <time>2020-12-06T09:58:47.884000+00:00</time>
      </trkpt>
      <trkpt lat="47.33907" lon="-1.331">
        <ele>43</ele>
        <time>2020-12-06T09:58:48.893000+00:00</time>
      </trkpt>
      <trkpt lat="0" lon="0">
        <time>2020-12-06T09:58:48.895000+00:00</time>
      </trkpt>
      <trkpt lat="0" lon="0">
        <time>2020-12-06T09:58:48.900000+00:00</time>
      </trkpt>
      <trkpt lat="0" lon="0">
        <time>2020-12-06T09:58:48.901000+00:00</time>
      </trkpt>
      <trkpt lat="47.33906" lon="-1.33101">
        <ele>43</ele>
        <time>2020-12-06T09:58:49.889000+00:00</time>
      </trkpt>
      <trkpt lat="0" lon="0">
        <time>2020-12-06T09:58:49.894000+00:00</time>
      </trkpt>
      <trkpt lat="0" lon="0">
        <time>2020-12-06T09:58:49.901000+00:00</time>
      </trkpt>
      <trkpt lat="0" lon="0">
        <time>2020-12-06T09:58:49.903000+00:00</time>
      </trkpt>
      <trkpt lat="47.33906" lon="-1.33102">
        <ele>43</ele>
        <time>2020-12-06T09:58:50.822000+00:00</time>
      </trkpt>
      <trkpt lat="0" lon="0">
        <time>2020-12-06T09:58:50.829000+00:00</time>
      </trkpt>
      <trkpt lat="0" lon="0">
        <time>2020-12-06T09:58:50.832000+00:00</time>
      </trkpt>
      <trkpt lat="0" lon="0">
        <time>2020-12-06T09:58:50.833000+00:00</time>
      </trkpt>
      <trkpt lat="47.33906" lon="-1.33103">
        <ele>44</ele>
        <time>2020-12-06T09:58:51.901000+00:00</time>
      </trkpt>
      <trkpt lat="0" lon="0">
        <time>2020-12-06T09:58:51.905000+00:00</time>
      </trkpt>
      <trkpt lat="0" lon="0">
        <time>2020-12-06T09:58:51.908000+00:00</time>
      </trkpt>
      <trkpt lat="0" lon="0">
        <time>2020-12-06T09:58:51.912000+00:00</time>
      </trkpt>
      <trkpt lat="47.33906" lon="-1.33105">
        <ele>44</ele>
        <time>2020-12-06T09:58:52.888000+00:00</time>
      </trkpt>
      <trkpt lat="0" lon="0">
        <time>2020-12-06T09:58:52.902000+00:00</time>
      </trkpt>
      <trkpt lat="0" lon="0">
        <time>2020-12-06T09:58:52.905000+00:00</time>
      </trkpt>
      <trkpt lat="0" lon="0">
        <time>2020-12-06T09:58:52.908000+00:00</time>
      </trkpt>
      <trkpt lat="47.33906" lon="-1.33107">
        <ele>44</ele>
        <time>2020-12-06T09:58:53.877000+00:00</time>
      </trkpt>
      <trkpt lat="0" lon="0">
        <time>2020-12-06T09:58:53.889000+00:00</time>
      </trkpt>
      <trkpt lat="0" lon="0">
        <time>2020-12-06T09:58:53.892000+00:00</time>
      </trkpt>
      <trkpt lat="0" lon="0">
        <time>2020-12-06T09:58:53.898000+00:00</time>
      </trkpt>
      <trkpt lat="47.33906" lon="-1.33109">
        <ele>44</ele>
        <time>2020-12-06T09:58:54.863000+00:00</time>
      </trkpt>
      <trkpt lat="0" lon="0">
        <time>2020-12-06T09:58:54.866000+00:00</time>
      </trkpt>
      <trkpt lat="0" lon="0">
        <time>2020-12-06T09:58:54.870000+00:00</time>
      </trkpt>
      <trkpt lat="0" lon="0">
        <time>2020-12-06T09:58:54.871000+00:00</time>
      </trkpt>
      <trkpt lat="47.33905" lon="-1.33112">
        <ele>44</ele>
        <time>2020-12-06T09:58:55.856000+00:00</time>
      </trkpt>
      <trkpt lat="0" lon="0">
        <time>2020-12-06T09:58:55.861000+00:00</time>
      </trkpt>
      <trkpt lat="0" lon="0">
        <time>2020-12-06T09:58:55.866000+00:00</time>
      </trkpt>
      <trkpt lat="0" lon="0">
        <time>2020-12-06T09:58:55.868000+00:00</time>
      </trkpt>
      <trkpt lat="47.33905" lon="-1.33114">
        <ele>45</ele>
        <time>2020-12-06T09:58:56.899000+00:00</time>
      </trkpt>
      <trkpt lat="0" lon="0">
        <time>2020-12-06T09:58:56.911000+00:00</time>
      </trkpt>
      <trkpt lat="0" lon="0">
        <time>2020-12-06T09:58:56.913000+00:00</time>
      </trkpt>
      <trkpt lat="0" lon="0">
        <time>2020-12-06T09:58:56.915000+00:00</time>
      </trkpt>
      <trkpt lat="47.33905" lon="-1.33116">
        <ele>45</ele>
        <time>2020-12-06T09:58:57.876000+00:00</time>
      </trkpt>
      <trkpt lat="0" lon="0">
        <time>2020-12-06T09:58:57.878000+00:00</time>
      </trkpt>
      <trkpt lat="0" lon="0">
        <time>2020-12-06T09:58:57.880000+00:00</time>
      </trkpt>
      <trkpt lat="0" lon="0">
        <time>2020-12-06T09:58:57.881000+00:00</time>
      </trkpt>
      <trkpt lat="47.33904" lon="-1.33118">
        <ele>45</ele>
        <time>2020-12-06T09:58:58.887000+00:00</time>
      </trkpt>
      <trkpt lat="0" lon="0">
        <time>2020-12-06T09:58:58.893000+00:00</time>
      </trkpt>
      <trkpt lat="0" lon="0">
        <time>2020-12-06T09:58:58.900000+00:00</time>
      </trkpt>
      <trkpt lat="0" lon="0">
        <time>2020-12-06T09:58:58.903000+00:00</time>
      </trkpt>
      <trkpt lat="47.33904" lon="-1.33121">
        <ele>45</ele>
        <time>2020-12-06T09:58:59.810000+00:00</time>
      </trkpt>
      <trkpt lat="0" lon="0">
        <time>2020-12-06T09:58:59.814000+00:00</time>
      </trkpt>
      <trkpt lat="0" lon="0">
        <time>2020-12-06T09:58:59.816000+00:00</time>
      </trkpt>
      <trkpt lat="0" lon="0">
        <time>2020-12-06T09:58:59.817000+00:00</time>
      </trkpt>
      <trkpt lat="47.33903" lon="-1.33123">
        <ele>46</ele>
        <time>2020-12-06T09:59:00.867000+00:00</time>
      </trkpt>
      <trkpt lat="0" lon="0">
        <time>2020-12-06T09:59:00.873000+00:00</time>
      </trkpt>
      <trkpt lat="0" lon="0">
        <time>2020-12-06T09:59:00.875000+00:00</time>
      </trkpt>
      <trkpt lat="0" lon="0">
        <time>2020-12-06T09:59:00.876000+00:00</time>
      </trkpt>
      <trkpt lat="47.33903" lon="-1.33124">
        <ele>46</ele>
        <time>2020-12-06T09:59:01.896000+00:00</time>
      </trkpt>
      <trkpt lat="0" lon="0">
        <time>2020-12-06T09:59:01.900000+00:00</time>
      </trkpt>
      <trkpt lat="0" lon="0">
        <time>2020-12-06T09:59:01.903000+00:00</time>
      </trkpt>
      <trkpt lat="0" lon="0">
        <time>2020-12-06T09:59:01.913000+00:00</time>
      </trkpt>
      <trkpt lat="47.33902" lon="-1.33127">
        <ele>46</ele>
        <time>2020-12-06T09:59:02.864000+00:00</time>
      </trkpt>
      <trkpt lat="0" lon="0">
        <time>2020-12-06T09:59:02.867000+00:00</time>
      </trkpt>
      <trkpt lat="0" lon="0">
        <time>2020-12-06T09:59:02.871000+00:00</time>
      </trkpt>
      <trkpt lat="0" lon="0">
        <time>2020-12-06T09:59:02.873000+00:00</time>
      </trkpt>
      <trkpt lat="47.33902" lon="-1.33129">
        <ele>46</ele>
        <time>2020-12-06T09:59:03.846000+00:00</time>
      </trkpt>
      <trkpt lat="0" lon="0">
        <time>2020-12-06T09:59:03.855000+00:00</time>
      </trkpt>
      <trkpt lat="0" lon="0">
        <time>2020-12-06T09:59:03.858000+00:00</time>
      </trkpt>
      <trkpt lat="0" lon="0">
        <time>2020-12-06T09:59:03.860000+00:00</time>
      </trkpt>
      <trkpt lat="47.33901" lon="-1.33131">
        <ele>47</ele>
        <time>2020-12-06T09:59:04.862000+00:00</time>
      </trkpt>
      <trkpt lat="0" lon="0">
        <time>2020-12-06T09:59:04.865000+00:00</time>
      </trkpt>
      <trkpt lat="0" lon="0">
        <time>2020-12-06T09:59:04.868000+00:00</time>
      </trkpt>
      <trkpt lat="0" lon="0">
        <time>2020-12-06T09:59:04.872000+00:00</time>
      </trkpt>
      <trkpt lat="47.33901" lon="-1.33134">
        <ele>47</ele>
        <time>2020-12-06T09:59:05.857000+00:00</time>
      </trkpt>
      <trkpt lat="0" lon="0">
        <time>2020-12-06T09:59:05.866000+00:00</time>
      </trkpt>
      <trkpt lat="0" lon="0">
        <time>2020-12-06T09:59:05.873000+00:00</time>
      </trkpt>
      <trkpt lat="0" lon="0">
        <time>2020-12-06T09:59:05.874000+00:00</time>
      </trkpt>
      <trkpt lat="47.339" lon="-1.33136">
        <ele>47</ele>
        <time>2020-12-06T09:59:06.846000+00:00</time>
      </trkpt>
      <trkpt lat="0" lon="0">
        <time>2020-12-06T09:59:06.848000+00:00</time>
      </trkpt>
      <trkpt lat="0" lon="0">
        <time>2020-12-06T09:59:06.851000+00:00</time>
      </trkpt>
      <trkpt lat="0" lon="0">
        <time>2020-12-06T09:59:06.852000+00:00</time>
      </trkpt>
      <trkpt lat="47.339" lon="-1.33137">
        <ele>47</ele>
        <time>2020-12-06T09:59:07.866000+00:00</time>
      </trkpt>
      <trkpt lat="0" lon="0">
        <time>2020-12-06T09:59:07.885000+00:00</time>
      </trkpt>
      <trkpt lat="0" lon="0">
        <time>2020-12-06T09:59:07.888000+00:00</time>
      </trkpt>
      <trkpt lat="0" lon="0">
        <time>2020-12-06T09:59:07.890000+00:00</time>
      </trkpt>
      <trkpt lat="47.33899" lon="-1.3314">
        <ele>47</ele>
        <time>2020-12-06T09:59:08.862000+00:00</time>
      </trkpt>
      <trkpt lat="0" lon="0">
        <time>2020-12-06T09:59:08.872000+00:00</time>
      </trkpt>
      <trkpt lat="0" lon="0">
        <time>2020-12-06T09:59:08.876000+00:00</time>
      </trkpt>
      <trkpt lat="0" lon="0">
        <time>2020-12-06T09:59:08.878000+00:00</time>
      </trkpt>
      <trkpt lat="47.33898" lon="-1.33142">
        <ele>48</ele>
        <time>2020-12-06T09:59:09.860000+00:00</time>
      </trkpt>
      <trkpt lat="0" lon="0">
        <time>2020-12-06T09:59:09.867000+00:00</time>
      </trkpt>
      <trkpt lat="0" lon="0">
        <time>2020-12-06T09:59:09.869000+00:00</time>
      </trkpt>
      <trkpt lat="0" lon="0">
        <time>2020-12-06T09:59:09.870000+00:00</time>
      </trkpt>
      <trkpt lat="47.33897" lon="-1.33145">
        <ele>48</ele>
        <time>2020-12-06T09:59:10.839000+00:00</time>
      </trkpt>
      <trkpt lat="0" lon="0">
        <time>2020-12-06T09:59:10.842000+00:00</time>
      </trkpt>
      <trkpt lat="0" lon="0">
        <time>2020-12-06T09:59:10.845000+00:00</time>
      </trkpt>
      <trkpt lat="0" lon="0">
        <time>2020-12-06T09:59:10.847000+00:00</time>
      </trkpt>
      <trkpt lat="47.33896" lon="-1.33147">
        <ele>48</ele>
        <time>2020-12-06T09:59:11.856000+00:00</time>
      </trkpt>
      <trkpt lat="0" lon="0">
        <time>2020-12-06T09:59:11.877000+00:00</time>
      </trkpt>
      <trkpt lat="0" lon="0">
        <time>2020-12-06T09:59:11.879000+00:00</time>
      </trkpt>
      <trkpt lat="0" lon="0">
        <time>2020-12-06T09:59:11.880000+00:00</time>
      </trkpt>
      <trkpt lat="47.33896" lon="-1.33149">
        <ele>48</ele>
        <time>2020-12-06T09:59:12.855000+00:00</time>
      </trkpt>
      <trkpt lat="0" lon="0">
        <time>2020-12-06T09:59:12.859000+00:00</time>
      </trkpt>
      <trkpt lat="0" lon="0">
        <time>2020-12-06T09:59:12.865000+00:00</time>
      </trkpt>
      <trkpt lat="0" lon="0">
        <time>2020-12-06T09:59:12.866000+00:00</time>
      </trkpt>
      <trkpt lat="47.33895" lon="-1.3315">
        <ele>49</ele>
        <time>2020-12-06T09:59:13.810000+00:00</time>
      </trkpt>
      <trkpt lat="0" lon="0">
        <time>2020-12-06T09:59:13.814000+00:00</time>
      </trkpt>
      <trkpt lat="0" lon="0">
        <time>2020-12-06T09:59:13.819000+00:00</time>
      </trkpt>
      <trkpt lat="0" lon="0">
        <time>2020-12-06T09:59:13.820000+00:00</time>
      </trkpt>
      <trkpt lat="47.33894" lon="-1.33152">
        <ele>49</ele>
        <time>2020-12-06T09:59:14.858000+00:00</time>
      </trkpt>
      <trkpt lat="0" lon="0">
        <time>2020-12-06T09:59:14.862000+00:00</time>
      </trkpt>
      <trkpt lat="0" lon="0">
        <time>2020-12-06T09:59:14.863000+00:00</time>
      </trkpt>
      <trkpt lat="47.33893" lon="-1.33153">
        <ele>49</ele>
        <time>2020-12-06T09:59:15.805000+00:00</time>
      </trkpt>
      <trkpt lat="0" lon="0">
        <time>2020-12-06T09:59:15.806000+00:00</time>
      </trkpt>
      <trkpt lat="0" lon="0">
        <time>2020-12-06T09:59:15.809000+00:00</time>
      </trkpt>
      <trkpt lat="47.33893" lon="-1.33155">
        <ele>49</ele>
        <time>2020-12-06T09:59:16.818000+00:00</time>
      </trkpt>
      <trkpt lat="0" lon="0">
        <time>2020-12-06T09:59:16.819000+00:00</time>
      </trkpt>
      <trkpt lat="0" lon="0">
        <time>2020-12-06T09:59:16.821000+00:00</time>
      </trkpt>
      <trkpt lat="0" lon="0">
        <time>2020-12-06T09:59:16.822000+00:00</time>
      </trkpt>
      <trkpt lat="47.33892" lon="-1.33157">
        <ele>49</ele>
        <time>2020-12-06T09:59:17.801000+00:00</time>
      </trkpt>
      <trkpt lat="0" lon="0">
        <time>2020-12-06T09:59:17.802000+00:00</time>
      </trkpt>
      <trkpt lat="0" lon="0">
        <time>2020-12-06T09:59:17.804000+00:00</time>
      </trkpt>
      <trkpt lat="0" lon="0">
        <time>2020-12-06T09:59:17.805000+00:00</time>
      </trkpt>
      <trkpt lat="47.33891" lon="-1.33158">
        <ele>50</ele>
        <time>2020-12-06T09:59:18.821000+00:00</time>
      </trkpt>
      <trkpt lat="0" lon="0">
        <time>2020-12-06T09:59:18.825000+00:00</time>
      </trkpt>
      <trkpt lat="0" lon="0">
        <time>2020-12-06T09:59:18.833000+00:00</time>
      </trkpt>
      <trkpt lat="0" lon="0">
        <time>2020-12-06T09:59:18.835000+00:00</time>
      </trkpt>
      <trkpt lat="47.33891" lon="-1.33159">
        <ele>50</ele>
        <time>2020-12-06T09:59:19.857000+00:00</time>
      </trkpt>
      <trkpt lat="0" lon="0">
        <time>2020-12-06T09:59:19.862000+00:00</time>
      </trkpt>
      <trkpt lat="0" lon="0">
        <time>2020-12-06T09:59:19.870000+00:00</time>
      </trkpt>
      <trkpt lat="0" lon="0">
        <time>2020-12-06T09:59:19.871000+00:00</time>
      </trkpt>
      <trkpt lat="47.3389" lon="-1.3316">
        <ele>50</ele>
        <time>2020-12-06T09:59:20.853000+00:00</time>
      </trkpt>
      <trkpt lat="0" lon="0">
        <time>2020-12-06T09:59:20.857000+00:00</time>
      </trkpt>
      <trkpt lat="0" lon="0">
        <time>2020-12-06T09:59:20.861000+00:00</time>
      </trkpt>
      <trkpt lat="0" lon="0">
        <time>2020-12-06T09:59:20.862000+00:00</time>
      </trkpt>
      <trkpt lat="47.33889" lon="-1.33162">
        <ele>50</ele>
        <time>2020-12-06T09:59:21.841000+00:00</time>
      </trkpt>
      <trkpt lat="0" lon="0">
        <time>2020-12-06T09:59:21.851000+00:00</time>
      </trkpt>
      <trkpt lat="0" lon="0">
        <time>2020-12-06T09:59:21.858000+00:00</time>
      </trkpt>
      <trkpt lat="0" lon="0">
        <time>2020-12-06T09:59:21.861000+00:00</time>
      </trkpt>
      <trkpt lat="47.33888" lon="-1.33163">
        <ele>50</ele>
        <time>2020-12-06T09:59:22.832000+00:00</time>
      </trkpt>
      <trkpt lat="0" lon="0">
        <time>2020-12-06T09:59:22.840000+00:00</time>
      </trkpt>
      <trkpt lat="0" lon="0">
        <time>2020-12-06T09:59:22.843000+00:00</time>
      </trkpt>
      <trkpt lat="0" lon="0">
        <time>2020-12-06T09:59:22.845000+00:00</time>
      </trkpt>
      <trkpt lat="47.33888" lon="-1.33165">
        <ele>50</ele>
        <time>2020-12-06T09:59:23.836000+00:00</time>
      </trkpt>
      <trkpt lat="0" lon="0">
        <time>2020-12-06T09:59:23.837000+00:00</time>
      </trkpt>
      <trkpt lat="0" lon="0">
        <time>2020-12-06T09:59:23.839000+00:00</time>
      </trkpt>
      <trkpt lat="47.33887" lon="-1.33167">
        <ele>51</ele>
        <time>2020-12-06T09:59:24.820000+00:00</time>
      </trkpt>
      <trkpt lat="0" lon="0">
        <time>2020-12-06T09:59:24.828000+00:00</time>
      </trkpt>
      <trkpt lat="0" lon="0">
        <time>2020-12-06T09:59:24.834000+00:00</time>
      </trkpt>
      <trkpt lat="0" lon="0">
        <time>2020-12-06T09:59:24.835000+00:00</time>
      </trkpt>
      <trkpt lat="47.33887" lon="-1.33168">
        <ele>51</ele>
        <time>2020-12-06T09:59:25.848000+00:00</time>
      </trkpt>
      <trkpt lat="0" lon="0">
        <time>2020-12-06T09:59:25.851000+00:00</time>
      </trkpt>
      <trkpt lat="0" lon="0">
        <time>2020-12-06T09:59:25.856000+00:00</time>
      </trkpt>
      <trkpt lat="0" lon="0">
        <time>2020-12-06T09:59:25.857000+00:00</time>
      </trkpt>
      <trkpt lat="47.33886" lon="-1.3317">
        <ele>51</ele>
        <time>2020-12-06T09:59:26.850000+00:00</time>
      </trkpt>
      <trkpt lat="0" lon="0">
        <time>2020-12-06T09:59:26.860000+00:00</time>
      </trkpt>
      <trkpt lat="0" lon="0">
        <time>2020-12-06T09:59:26.867000+00:00</time>
      </trkpt>
      <trkpt lat="0" lon="0">
        <time>2020-12-06T09:59:26.871000+00:00</time>
      </trkpt>
      <trkpt lat="47.33885" lon="-1.33172">
        <ele>51</ele>
        <time>2020-12-06T09:59:27.866000+00:00</time>
      </trkpt>
      <trkpt lat="0" lon="0">
        <time>2020-12-06T09:59:27.871000+00:00</time>
      </trkpt>
      <trkpt lat="0" lon="0">
        <time>2020-12-06T09:59:27.873000+00:00</time>
      </trkpt>
      <trkpt lat="47.33885" lon="-1.33174">
        <ele>51</ele>
        <time>2020-12-06T09:59:28.843000+00:00</time>
      </trkpt>
      <trkpt lat="0" lon="0">
        <time>2020-12-06T09:59:28.844000+00:00</time>
      </trkpt>
      <trkpt lat="0" lon="0">
        <time>2020-12-06T09:59:28.845000+00:00</time>
      </trkpt>
      <trkpt lat="47.33884" lon="-1.33177">
        <ele>52</ele>
        <time>2020-12-06T09:59:29.841000+00:00</time>
      </trkpt>
      <trkpt lat="0" lon="0">
        <time>2020-12-06T09:59:29.842000+00:00</time>
      </trkpt>
      <trkpt lat="0" lon="0">
        <time>2020-12-06T09:59:29.845000+00:00</time>
      </trkpt>
      <trkpt lat="0" lon="0">
        <time>2020-12-06T09:59:29.846000+00:00</time>
      </trkpt>
      <trkpt lat="47.33884" lon="-1.33179">
        <ele>52</ele>
        <time>2020-12-06T09:59:30.862000+00:00</time>
      </trkpt>
      <trkpt lat="0" lon="0">
        <time>2020-12-06T09:59:30.866000+00:00</time>
      </trkpt>
      <trkpt lat="0" lon="0">
        <time>2020-12-06T09:59:30.872000+00:00</time>
      </trkpt>
      <trkpt lat="0" lon="0">
        <time>2020-12-06T09:59:30.877000+00:00</time>
      </trkpt>
      <trkpt lat="47.33884" lon="-1.3318">
        <ele>52</ele>
        <time>2020-12-06T09:59:31.871000+00:00</time>
      </trkpt>
      <trkpt lat="0" lon="0">
        <time>2020-12-06T09:59:31.877000+00:00</time>
      </trkpt>
      <trkpt lat="0" lon="0">
        <time>2020-12-06T09:59:31.881000+00:00</time>
      </trkpt>
      <trkpt lat="0" lon="0">
        <time>2020-12-06T09:59:31.882000+00:00</time>
      </trkpt>
      <trkpt lat="47.33884" lon="-1.33182">
        <ele>52</ele>
        <time>2020-12-06T09:59:32.842000+00:00</time>
      </trkpt>
      <trkpt lat="0" lon="0">
        <time>2020-12-06T09:59:32.848000+00:00</time>
      </trkpt>
      <trkpt lat="0" lon="0">
        <time>2020-12-06T09:59:32.850000+00:00</time>
      </trkpt>
      <trkpt lat="47.33883" lon="-1.33184">
        <ele>52</ele>
        <time>2020-12-06T09:59:33.850000+00:00</time>
      </trkpt>
      <trkpt lat="0" lon="0">
        <time>2020-12-06T09:59:33.867000+00:00</time>
      </trkpt>
      <trkpt lat="0" lon="0">
        <time>2020-12-06T09:59:33.869000+00:00</time>
      </trkpt>
      <trkpt lat="0" lon="0">
        <time>2020-12-06T09:59:33.871000+00:00</time>
      </trkpt>
      <trkpt lat="47.33883" lon="-1.33186">
        <ele>53</ele>
        <time>2020-12-06T09:59:34.842000+00:00</time>
      </trkpt>
      <trkpt lat="0" lon="0">
        <time>2020-12-06T09:59:34.849000+00:00</time>
      </trkpt>
      <trkpt lat="0" lon="0">
        <time>2020-12-06T09:59:34.853000+00:00</time>
      </trkpt>
      <trkpt lat="0" lon="0">
        <time>2020-12-06T09:59:34.855000+00:00</time>
      </trkpt>
      <trkpt lat="47.33882" lon="-1.33188">
        <ele>53</ele>
        <time>2020-12-06T09:59:35.883000+00:00</time>
      </trkpt>
      <trkpt lat="0" lon="0">
        <time>2020-12-06T09:59:35.887000+00:00</time>
      </trkpt>
      <trkpt lat="0" lon="0">
        <time>2020-12-06T09:59:35.892000+00:00</time>
      </trkpt>
      <trkpt lat="0" lon="0">
        <time>2020-12-06T09:59:35.894000+00:00</time>
      </trkpt>
      <trkpt lat="47.33881" lon="-1.33189">
        <ele>53</ele>
        <time>2020-12-06T09:59:36.854000+00:00</time>
      </trkpt>
      <trkpt lat="0" lon="0">
        <time>2020-12-06T09:59:36.869000+00:00</time>
      </trkpt>
      <trkpt lat="0" lon="0">
        <time>2020-12-06T09:59:36.872000+00:00</time>
      </trkpt>
      <trkpt lat="0" lon="0">
        <time>2020-12-06T09:59:36.874000+00:00</time>
      </trkpt>
      <trkpt lat="47.33881" lon="-1.3319">
        <ele>53</ele>
        <time>2020-12-06T09:59:37.850000+00:00</time>
      </trkpt>
      <trkpt lat="0" lon="0">
        <time>2020-12-06T09:59:37.856000+00:00</time>
      </trkpt>
      <trkpt lat="0" lon="0">
        <time>2020-12-06T09:59:37.863000+00:00</time>
      </trkpt>
      <trkpt lat="0" lon="0">
        <time>2020-12-06T09:59:37.867000+00:00</time>
      </trkpt>
      <trkpt lat="47.33881" lon="-1.33192">
        <ele>53</ele>
        <time>2020-12-06T09:59:38.847000+00:00</time>
      </trkpt>
      <trkpt lat="0" lon="0">
        <time>2020-12-06T09:59:38.853000+00:00</time>
      </trkpt>
      <trkpt lat="0" lon="0">
        <time>2020-12-06T09:59:38.857000+00:00</time>
      </trkpt>
      <trkpt lat="0" lon="0">
        <time>2020-12-06T09:59:38.859000+00:00</time>
      </trkpt>
      <trkpt lat="47.3388" lon="-1.33194">
        <ele>53</ele>
        <time>2020-12-06T09:59:39.883000+00:00</time>
      </trkpt>
      <trkpt lat="0" lon="0">
        <time>2020-12-06T09:59:39.899000+00:00</time>
      </trkpt>
      <trkpt lat="0" lon="0">
        <time>2020-12-06T09:59:39.900000+00:00</time>
      </trkpt>
      <trkpt lat="0" lon="0">
        <time>2020-12-06T09:59:39.906000+00:00</time>
      </trkpt>
      <trkpt lat="47.33879" lon="-1.33196">
        <ele>54</ele>
        <time>2020-12-06T09:59:40.860000+00:00</time>
      </trkpt>
      <trkpt lat="0" lon="0">
        <time>2020-12-06T09:59:40.863000+00:00</time>
      </trkpt>
      <trkpt lat="0" lon="0">
        <time>2020-12-06T09:59:40.865000+00:00</time>
      </trkpt>
      <trkpt lat="0" lon="0">
        <time>2020-12-06T09:59:40.866000+00:00</time>
      </trkpt>
      <trkpt lat="47.33879" lon="-1.33198">
        <ele>54</ele>
        <time>2020-12-06T09:59:41.869000+00:00</time>
      </trkpt>
      <trkpt lat="0" lon="0">
        <time>2020-12-06T09:59:41.873000+00:00</time>
      </trkpt>
      <trkpt lat="0" lon="0">
        <time>2020-12-06T09:59:41.885000+00:00</time>
      </trkpt>
      <trkpt lat="0" lon="0">
        <time>2020-12-06T09:59:41.887000+00:00</time>
      </trkpt>
      <trkpt lat="47.33878" lon="-1.332">
        <ele>54</ele>
        <time>2020-12-06T09:59:42.857000+00:00</time>
      </trkpt>
      <trkpt lat="0" lon="0">
        <time>2020-12-06T09:59:42.860000+00:00</time>
      </trkpt>
      <trkpt lat="0" lon="0">
        <time>2020-12-06T09:59:42.869000+00:00</time>
      </trkpt>
      <trkpt lat="0" lon="0">
        <time>2020-12-06T09:59:42.876000+00:00</time>
      </trkpt>
      <trkpt lat="47.33878" lon="-1.33201">
        <ele>54</ele>
        <time>2020-12-06T09:59:43.845000+00:00</time>
      </trkpt>
      <trkpt lat="0" lon="0">
        <time>2020-12-06T09:59:43.856000+00:00</time>
      </trkpt>
      <trkpt lat="0" lon="0">
        <time>2020-12-06T09:59:43.858000+00:00</time>
      </trkpt>
      <trkpt lat="0" lon="0">
        <time>2020-12-06T09:59:43.862000+00:00</time>
      </trkpt>
      <trkpt lat="47.33877" lon="-1.33203">
        <ele>54</ele>
        <time>2020-12-06T09:59:44.833000+00:00</time>
      </trkpt>
      <trkpt lat="0" lon="0">
        <time>2020-12-06T09:59:44.834000+00:00</time>
      </trkpt>
      <trkpt lat="0" lon="0">
        <time>2020-12-06T09:59:44.835000+00:00</time>
      </trkpt>
      <trkpt lat="0" lon="0">
        <time>2020-12-06T09:59:44.837000+00:00</time>
      </trkpt>
      <trkpt lat="47.33877" lon="-1.33205">
        <ele>54</ele>
        <time>2020-12-06T09:59:45.847000+00:00</time>
      </trkpt>
      <trkpt lat="0" lon="0">
        <time>2020-12-06T09:59:45.852000+00:00</time>
      </trkpt>
      <trkpt lat="0" lon="0">
        <time>2020-12-06T09:59:45.857000+00:00</time>
      </trkpt>
      <trkpt lat="0" lon="0">
        <time>2020-12-06T09:59:45.861000+00:00</time>
      </trkpt>
      <trkpt lat="47.33876" lon="-1.33208">
        <ele>55</ele>
        <time>2020-12-06T09:59:46.843000+00:00</time>
      </trkpt>
      <trkpt lat="0" lon="0">
        <time>2020-12-06T09:59:46.846000+00:00</time>
      </trkpt>
      <trkpt lat="0" lon="0">
        <time>2020-12-06T09:59:46.850000+00:00</time>
      </trkpt>
      <trkpt lat="47.33875" lon="-1.3321">
        <ele>55</ele>
        <time>2020-12-06T09:59:47.868000+00:00</time>
      </trkpt>
      <trkpt lat="0" lon="0">
        <time>2020-12-06T09:59:47.874000+00:00</time>
      </trkpt>
      <trkpt lat="0" lon="0">
        <time>2020-12-06T09:59:47.879000+00:00</time>
      </trkpt>
      <trkpt lat="47.33875" lon="-1.33212">
        <ele>55</ele>
        <time>2020-12-06T09:59:48.822000+00:00</time>
      </trkpt>
      <trkpt lat="0" lon="0">
        <time>2020-12-06T09:59:48.825000+00:00</time>
      </trkpt>
      <trkpt lat="0" lon="0">
        <time>2020-12-06T09:59:48.831000+00:00</time>
      </trkpt>
      <trkpt lat="0" lon="0">
        <time>2020-12-06T09:59:48.834000+00:00</time>
      </trkpt>
      <trkpt lat="47.33875" lon="-1.33213">
        <ele>55</ele>
        <time>2020-12-06T09:59:49.860000+00:00</time>
      </trkpt>
      <trkpt lat="0" lon="0">
        <time>2020-12-06T09:59:49.862000+00:00</time>
      </trkpt>
      <trkpt lat="0" lon="0">
        <time>2020-12-06T09:59:49.863000+00:00</time>
      </trkpt>
      <trkpt lat="0" lon="0">
        <time>2020-12-06T09:59:49.864000+00:00</time>
      </trkpt>
      <trkpt lat="47.33874" lon="-1.33215">
        <ele>55</ele>
        <time>2020-12-06T09:59:50.852000+00:00</time>
      </trkpt>
      <trkpt lat="0" lon="0">
        <time>2020-12-06T09:59:50.863000+00:00</time>
      </trkpt>
      <trkpt lat="0" lon="0">
        <time>2020-12-06T09:59:50.867000+00:00</time>
      </trkpt>
      <trkpt lat="0" lon="0">
        <time>2020-12-06T09:59:50.870000+00:00</time>
      </trkpt>
      <trkpt lat="47.33873" lon="-1.33218">
        <ele>56</ele>
        <time>2020-12-06T09:59:51.842000+00:00</time>
      </trkpt>
      <trkpt lat="0" lon="0">
        <time>2020-12-06T09:59:51.850000+00:00</time>
      </trkpt>
      <trkpt lat="0" lon="0">
        <time>2020-12-06T09:59:51.852000+00:00</time>
      </trkpt>
      <trkpt lat="0" lon="0">
        <time>2020-12-06T09:59:51.853000+00:00</time>
      </trkpt>
      <trkpt lat="47.33872" lon="-1.3322">
        <ele>56</ele>
        <time>2020-12-06T09:59:52.853000+00:00</time>
      </trkpt>
      <trkpt lat="0" lon="0">
        <time>2020-12-06T09:59:52.858000+00:00</time>
      </trkpt>
      <trkpt lat="0" lon="0">
        <time>2020-12-06T09:59:52.862000+00:00</time>
      </trkpt>
      <trkpt lat="0" lon="0">
        <time>2020-12-06T09:59:52.863000+00:00</time>
      </trkpt>
      <trkpt lat="47.33871" lon="-1.33222">
        <ele>56</ele>
        <time>2020-12-06T09:59:53.866000+00:00</time>
      </trkpt>
      <trkpt lat="0" lon="0">
        <time>2020-12-06T09:59:53.891000+00:00</time>
      </trkpt>
      <trkpt lat="0" lon="0">
        <time>2020-12-06T09:59:53.895000+00:00</time>
      </trkpt>
      <trkpt lat="0" lon="0">
        <time>2020-12-06T09:59:53.897000+00:00</time>
      </trkpt>
      <trkpt lat="47.3387" lon="-1.33224">
        <ele>56</ele>
        <time>2020-12-06T09:59:54.826000+00:00</time>
      </trkpt>
      <trkpt lat="0" lon="0">
        <time>2020-12-06T09:59:54.834000+00:00</time>
      </trkpt>
      <trkpt lat="0" lon="0">
        <time>2020-12-06T09:59:54.835000+00:00</time>
      </trkpt>
      <trkpt lat="0" lon="0">
        <time>2020-12-06T09:59:54.836000+00:00</time>
      </trkpt>
      <trkpt lat="47.3387" lon="-1.33226">
        <ele>56</ele>
        <time>2020-12-06T09:59:55.848000+00:00</time>
      </trkpt>
      <trkpt lat="0" lon="0">
        <time>2020-12-06T09:59:55.853000+00:00</time>
      </trkpt>
      <trkpt lat="0" lon="0">
        <time>2020-12-06T09:59:55.859000+00:00</time>
      </trkpt>
      <trkpt lat="0" lon="0">
        <time>2020-12-06T09:59:55.861000+00:00</time>
      </trkpt>
      <trkpt lat="47.33869" lon="-1.33228">
        <ele>57</ele>
        <time>2020-12-06T09:59:56.866000+00:00</time>
      </trkpt>
      <trkpt lat="0" lon="0">
        <time>2020-12-06T09:59:56.871000+00:00</time>
      </trkpt>
      <trkpt lat="0" lon="0">
        <time>2020-12-06T09:59:56.873000+00:00</time>
      </trkpt>
      <trkpt lat="0" lon="0">
        <time>2020-12-06T09:59:56.874000+00:00</time>
      </trkpt>
      <trkpt lat="47.33868" lon="-1.33229">
        <ele>57</ele>
        <time>2020-12-06T09:59:57.865000+00:00</time>
      </trkpt>
      <trkpt lat="0" lon="0">
        <time>2020-12-06T09:59:57.867000+00:00</time>
      </trkpt>
      <trkpt lat="0" lon="0">
        <time>2020-12-06T09:59:57.874000+00:00</time>
      </trkpt>
      <trkpt lat="0" lon="0">
        <time>2020-12-06T09:59:57.883000+00:00</time>
      </trkpt>
      <trkpt lat="47.33868" lon="-1.33231">
        <ele>57</ele>
        <time>2020-12-06T09:59:58.847000+00:00</time>
      </trkpt>
      <trkpt lat="0" lon="0">
        <time>2020-12-06T09:59:58.848000+00:00</time>
      </trkpt>
      <trkpt lat="0" lon="0">
        <time>2020-12-06T09:59:58.850000+00:00</time>
      </trkpt>
      <trkpt lat="0" lon="0">
        <time>2020-12-06T09:59:58.851000+00:00</time>
      </trkpt>
      <trkpt lat="47.33867" lon="-1.33232">
        <ele>57</ele>
        <time>2020-12-06T09:59:59.842000+00:00</time>
      </trkpt>
      <trkpt lat="0" lon="0">
        <time>2020-12-06T09:59:59.846000+00:00</time>
      </trkpt>
      <trkpt lat="0" lon="0">
        <time>2020-12-06T09:59:59.847000+00:00</time>
      </trkpt>
      <trkpt lat="0" lon="0">
        <time>2020-12-06T09:59:59.848000+00:00</time>
      </trkpt>
      <trkpt lat="47.33866" lon="-1.33234">
        <ele>57</ele>
        <time>2020-12-06T10:00:00.855000+00:00</time>
      </trkpt>
      <trkpt lat="0" lon="0">
        <time>2020-12-06T10:00:00.861000+00:00</time>
      </trkpt>
      <trkpt lat="0" lon="0">
        <time>2020-12-06T10:00:00.862000+00:00</time>
      </trkpt>
      <trkpt lat="0" lon="0">
        <time>2020-12-06T10:00:00.863000+00:00</time>
      </trkpt>
      <trkpt lat="47.33865" lon="-1.33236">
        <ele>57</ele>
        <time>2020-12-06T10:00:01.852000+00:00</time>
      </trkpt>
      <trkpt lat="0" lon="0">
        <time>2020-12-06T10:00:01.865000+00:00</time>
      </trkpt>
      <trkpt lat="0" lon="0">
        <time>2020-12-06T10:00:01.869000+00:00</time>
      </trkpt>
      <trkpt lat="0" lon="0">
        <time>2020-12-06T10:00:01.870000+00:00</time>
      </trkpt>
      <trkpt lat="47.33864" lon="-1.33238">
        <ele>58</ele>
        <time>2020-12-06T10:00:02.860000+00:00</time>
      </trkpt>
      <trkpt lat="0" lon="0">
        <time>2020-12-06T10:00:02.862000+00:00</time>
      </trkpt>
      <trkpt lat="0" lon="0">
        <time>2020-12-06T10:00:02.866000+00:00</time>
      </trkpt>
      <trkpt lat="0" lon="0">
        <time>2020-12-06T10:00:02.867000+00:00</time>
      </trkpt>
      <trkpt lat="47.33863" lon="-1.3324">
        <ele>58</ele>
        <time>2020-12-06T10:00:03.842000+00:00</time>
      </trkpt>
      <trkpt lat="0" lon="0">
        <time>2020-12-06T10:00:03.843000+00:00</time>
      </trkpt>
      <trkpt lat="0" lon="0">
        <time>2020-12-06T10:00:03.844000+00:00</time>
      </trkpt>
      <trkpt lat="0" lon="0">
        <time>2020-12-06T10:00:03.845000+00:00</time>
      </trkpt>
      <trkpt lat="47.33863" lon="-1.33242">
        <ele>58</ele>
        <time>2020-12-06T10:00:04.872000+00:00</time>
      </trkpt>
      <trkpt lat="0" lon="0">
        <time>2020-12-06T10:00:04.881000+00:00</time>
      </trkpt>
      <trkpt lat="0" lon="0">
        <time>2020-12-06T10:00:04.886000+00:00</time>
      </trkpt>
      <trkpt lat="0" lon="0">
        <time>2020-12-06T10:00:04.889000+00:00</time>
      </trkpt>
      <trkpt lat="47.33862" lon="-1.33244">
        <ele>58</ele>
        <time>2020-12-06T10:00:05.869000+00:00</time>
      </trkpt>
      <trkpt lat="0" lon="0">
        <time>2020-12-06T10:00:05.887000+00:00</time>
      </trkpt>
      <trkpt lat="0" lon="0">
        <time>2020-12-06T10:00:05.892000+00:00</time>
      </trkpt>
      <trkpt lat="0" lon="0">
        <time>2020-12-06T10:00:05.893000+00:00</time>
      </trkpt>
      <trkpt lat="47.33861" lon="-1.33246">
        <ele>58</ele>
        <time>2020-12-06T10:00:06.862000+00:00</time>
      </trkpt>
      <trkpt lat="0" lon="0">
        <time>2020-12-06T10:00:06.864000+00:00</time>
      </trkpt>
      <trkpt lat="0" lon="0">
        <time>2020-12-06T10:00:06.870000+00:00</time>
      </trkpt>
      <trkpt lat="0" lon="0">
        <time>2020-12-06T10:00:06.877000+00:00</time>
      </trkpt>
      <trkpt lat="47.3386" lon="-1.33248">
        <ele>58</ele>
        <time>2020-12-06T10:00:07.877000+00:00</time>
      </trkpt>
      <trkpt lat="0" lon="0">
        <time>2020-12-06T10:00:07.896000+00:00</time>
      </trkpt>
      <trkpt lat="0" lon="0">
        <time>2020-12-06T10:00:07.901000+00:00</time>
      </trkpt>
      <trkpt lat="0" lon="0">
        <time>2020-12-06T10:00:07.904000+00:00</time>
      </trkpt>
      <trkpt lat="47.3386" lon="-1.3325">
        <ele>59</ele>
        <time>2020-12-06T10:00:08.864000+00:00</time>
      </trkpt>
      <trkpt lat="0" lon="0">
        <time>2020-12-06T10:00:08.875000+00:00</time>
      </trkpt>
      <trkpt lat="0" lon="0">
        <time>2020-12-06T10:00:08.877000+00:00</time>
      </trkpt>
      <trkpt lat="0" lon="0">
        <time>2020-12-06T10:00:08.878000+00:00</time>
      </trkpt>
      <trkpt lat="47.33859" lon="-1.33251">
        <ele>59</ele>
        <time>2020-12-06T10:00:09.855000+00:00</time>
      </trkpt>
      <trkpt lat="0" lon="0">
        <time>2020-12-06T10:00:09.858000+00:00</time>
      </trkpt>
      <trkpt lat="0" lon="0">
        <time>2020-12-06T10:00:09.861000+00:00</time>
      </trkpt>
      <trkpt lat="0" lon="0">
        <time>2020-12-06T10:00:09.864000+00:00</time>
      </trkpt>
      <trkpt lat="47.33858" lon="-1.33253">
        <ele>59</ele>
        <time>2020-12-06T10:00:10.863000+00:00</time>
      </trkpt>
      <trkpt lat="0" lon="0">
        <time>2020-12-06T10:00:10.866000+00:00</time>
      </trkpt>
      <trkpt lat="0" lon="0">
        <time>2020-12-06T10:00:10.875000+00:00</time>
      </trkpt>
      <trkpt lat="0" lon="0">
        <time>2020-12-06T10:00:10.876000+00:00</time>
      </trkpt>
      <trkpt lat="47.33858" lon="-1.33254">
        <ele>59</ele>
        <time>2020-12-06T10:00:11.854000+00:00</time>
      </trkpt>
      <trkpt lat="0" lon="0">
        <time>2020-12-06T10:00:11.857000+00:00</time>
      </trkpt>
      <trkpt lat="0" lon="0">
        <time>2020-12-06T10:00:11.869000+00:00</time>
      </trkpt>
      <trkpt lat="0" lon="0">
        <time>2020-12-06T10:00:11.871000+00:00</time>
      </trkpt>
      <trkpt lat="47.33858" lon="-1.33256">
        <ele>59</ele>
        <time>2020-12-06T10:00:12.846000+00:00</time>
      </trkpt>
      <trkpt lat="0" lon="0">
        <time>2020-12-06T10:00:12.856000+00:00</time>
      </trkpt>
      <trkpt lat="0" lon="0">
        <time>2020-12-06T10:00:12.859000+00:00</time>
      </trkpt>
      <trkpt lat="0" lon="0">
        <time>2020-12-06T10:00:12.862000+00:00</time>
      </trkpt>
      <trkpt lat="47.33857" lon="-1.33258">
        <ele>59</ele>
        <time>2020-12-06T10:00:13.862000+00:00</time>
      </trkpt>
      <trkpt lat="0" lon="0">
        <time>2020-12-06T10:00:13.869000+00:00</time>
      </trkpt>
      <trkpt lat="0" lon="0">
        <time>2020-12-06T10:00:13.871000+00:00</time>
      </trkpt>
      <trkpt lat="0" lon="0">
        <time>2020-12-06T10:00:13.872000+00:00</time>
      </trkpt>
      <trkpt lat="47.33857" lon="-1.33259">
        <ele>59</ele>
        <time>2020-12-06T10:00:14.880000+00:00</time>
      </trkpt>
      <trkpt lat="0" lon="0">
        <time>2020-12-06T10:00:14.892000+00:00</time>
      </trkpt>
      <trkpt lat="0" lon="0">
        <time>2020-12-06T10:00:14.895000+00:00</time>
      </trkpt>
      <trkpt lat="0" lon="0">
        <time>2020-12-06T10:00:14.896000+00:00</time>
      </trkpt>
      <trkpt lat="47.33856" lon="-1.33261">
        <ele>59</ele>
        <time>2020-12-06T10:00:15.857000+00:00</time>
      </trkpt>
      <trkpt lat="0" lon="0">
        <time>2020-12-06T10:00:15.860000+00:00</time>
      </trkpt>
      <trkpt lat="0" lon="0">
        <time>2020-12-06T10:00:15.862000+00:00</time>
      </trkpt>
      <trkpt lat="0" lon="0">
        <time>2020-12-06T10:00:15.867000+00:00</time>
      </trkpt>
      <trkpt lat="47.33855" lon="-1.33262">
        <ele>59</ele>
        <time>2020-12-06T10:00:16.868000+00:00</time>
      </trkpt>
      <trkpt lat="0" lon="0">
        <time>2020-12-06T10:00:16.874000+00:00</time>
      </trkpt>
      <trkpt lat="0" lon="0">
        <time>2020-12-06T10:00:16.881000+00:00</time>
      </trkpt>
      <trkpt lat="0" lon="0">
        <time>2020-12-06T10:00:16.883000+00:00</time>
      </trkpt>
      <trkpt lat="47.33855" lon="-1.33263">
        <ele>59</ele>
        <time>2020-12-06T10:00:17.862000+00:00</time>
      </trkpt>
      <trkpt lat="0" lon="0">
        <time>2020-12-06T10:00:17.873000+00:00</time>
      </trkpt>
      <trkpt lat="0" lon="0">
        <time>2020-12-06T10:00:17.875000+00:00</time>
      </trkpt>
      <trkpt lat="0" lon="0">
        <time>2020-12-06T10:00:17.877000+00:00</time>
      </trkpt>
      <trkpt lat="47.33854" lon="-1.33265">
        <ele>59</ele>
        <time>2020-12-06T10:00:18.852000+00:00</time>
      </trkpt>
      <trkpt lat="0" lon="0">
        <time>2020-12-06T10:00:18.862000+00:00</time>
      </trkpt>
      <trkpt lat="0" lon="0">
        <time>2020-12-06T10:00:18.872000+00:00</time>
      </trkpt>
      <trkpt lat="0" lon="0">
        <time>2020-12-06T10:00:18.877000+00:00</time>
      </trkpt>
      <trkpt lat="47.33853" lon="-1.33266">
        <ele>59</ele>
        <time>2020-12-06T10:00:19.862000+00:00</time>
      </trkpt>
      <trkpt lat="0" lon="0">
        <time>2020-12-06T10:00:19.864000+00:00</time>
      </trkpt>
      <trkpt lat="0" lon="0">
        <time>2020-12-06T10:00:19.865000+00:00</time>
      </trkpt>
      <trkpt lat="0" lon="0">
        <time>2020-12-06T10:00:19.866000+00:00</time>
      </trkpt>
      <trkpt lat="47.33853" lon="-1.33268">
        <ele>59</ele>
        <time>2020-12-06T10:00:20.855000+00:00</time>
      </trkpt>
      <trkpt lat="0" lon="0">
        <time>2020-12-06T10:00:20.858000+00:00</time>
      </trkpt>
      <trkpt lat="0" lon="0">
        <time>2020-12-06T10:00:20.861000+00:00</time>
      </trkpt>
      <trkpt lat="0" lon="0">
        <time>2020-12-06T10:00:20.864000+00:00</time>
      </trkpt>
      <trkpt lat="47.33852" lon="-1.3327">
        <ele>60</ele>
        <time>2020-12-06T10:00:21.864000+00:00</time>
      </trkpt>
      <trkpt lat="0" lon="0">
        <time>2020-12-06T10:00:21.874000+00:00</time>
      </trkpt>
      <trkpt lat="0" lon="0">
        <time>2020-12-06T10:00:21.887000+00:00</time>
      </trkpt>
      <trkpt lat="0" lon="0">
        <time>2020-12-06T10:00:21.888000+00:00</time>
      </trkpt>
      <trkpt lat="47.33851" lon="-1.33272">
        <ele>60</ele>
        <time>2020-12-06T10:00:22.850000+00:00</time>
      </trkpt>
      <trkpt lat="0" lon="0">
        <time>2020-12-06T10:00:22.852000+00:00</time>
      </trkpt>
      <trkpt lat="0" lon="0">
        <time>2020-12-06T10:00:22.858000+00:00</time>
      </trkpt>
      <trkpt lat="0" lon="0">
        <time>2020-12-06T10:00:22.863000+00:00</time>
      </trkpt>
      <trkpt lat="47.3385" lon="-1.33274">
        <ele>60</ele>
        <time>2020-12-06T10:00:23.875000+00:00</time>
      </trkpt>
      <trkpt lat="0" lon="0">
        <time>2020-12-06T10:00:23.877000+00:00</time>
      </trkpt>
      <trkpt lat="0" lon="0">
        <time>2020-12-06T10:00:23.880000+00:00</time>
      </trkpt>
      <trkpt lat="0" lon="0">
        <time>2020-12-06T10:00:23.881000+00:00</time>
      </trkpt>
      <trkpt lat="47.33849" lon="-1.33276">
        <ele>60</ele>
        <time>2020-12-06T10:00:24.849000+00:00</time>
      </trkpt>
      <trkpt lat="0" lon="0">
        <time>2020-12-06T10:00:24.858000+00:00</time>
      </trkpt>
      <trkpt lat="0" lon="0">
        <time>2020-12-06T10:00:24.866000+00:00</time>
      </trkpt>
      <trkpt lat="0" lon="0">
        <time>2020-12-06T10:00:24.871000+00:00</time>
      </trkpt>
      <trkpt lat="47.33848" lon="-1.33277">
        <ele>60</ele>
        <time>2020-12-06T10:00:25.878000+00:00</time>
      </trkpt>
      <trkpt lat="0" lon="0">
        <time>2020-12-06T10:00:25.883000+00:00</time>
      </trkpt>
      <trkpt lat="0" lon="0">
        <time>2020-12-06T10:00:25.885000+00:00</time>
      </trkpt>
      <trkpt lat="0" lon="0">
        <time>2020-12-06T10:00:25.886000+00:00</time>
      </trkpt>
      <trkpt lat="47.33848" lon="-1.33279">
        <ele>60</ele>
        <time>2020-12-06T10:00:26.850000+00:00</time>
      </trkpt>
      <trkpt lat="0" lon="0">
        <time>2020-12-06T10:00:26.852000+00:00</time>
      </trkpt>
      <trkpt lat="0" lon="0">
        <time>2020-12-06T10:00:26.863000+00:00</time>
      </trkpt>
      <trkpt lat="0" lon="0">
        <time>2020-12-06T10:00:26.865000+00:00</time>
      </trkpt>
      <trkpt lat="47.33847" lon="-1.3328">
        <ele>60</ele>
        <time>2020-12-06T10:00:27.872000+00:00</time>
      </trkpt>
      <trkpt lat="0" lon="0">
        <time>2020-12-06T10:00:27.884000+00:00</time>
      </trkpt>
      <trkpt lat="0" lon="0">
        <time>2020-12-06T10:00:27.890000+00:00</time>
      </trkpt>
      <trkpt lat="0" lon="0">
        <time>2020-12-06T10:00:27.891000+00:00</time>
      </trkpt>
      <trkpt lat="47.33846" lon="-1.33282">
        <ele>60</ele>
        <time>2020-12-06T10:00:28.859000+00:00</time>
      </trkpt>
      <trkpt lat="0" lon="0">
        <time>2020-12-06T10:00:28.864000+00:00</time>
      </trkpt>
      <trkpt lat="0" lon="0">
        <time>2020-12-06T10:00:28.867000+00:00</time>
      </trkpt>
      <trkpt lat="0" lon="0">
        <time>2020-12-06T10:00:28.868000+00:00</time>
      </trkpt>
      <trkpt lat="47.33845" lon="-1.33284">
        <ele>60</ele>
        <time>2020-12-06T10:00:29.864000+00:00</time>
      </trkpt>
      <trkpt lat="0" lon="0">
        <time>2020-12-06T10:00:29.874000+00:00</time>
      </trkpt>
      <trkpt lat="0" lon="0">
        <time>2020-12-06T10:00:29.879000+00:00</time>
      </trkpt>
      <trkpt lat="0" lon="0">
        <time>2020-12-06T10:00:29.881000+00:00</time>
      </trkpt>
      <trkpt lat="47.33845" lon="-1.33286">
        <ele>60</ele>
        <time>2020-12-06T10:00:30.883000+00:00</time>
      </trkpt>
      <trkpt lat="0" lon="0">
        <time>2020-12-06T10:00:30.914000+00:00</time>
      </trkpt>
      <trkpt lat="0" lon="0">
        <time>2020-12-06T10:00:30.916000+00:00</time>
      </trkpt>
      <trkpt lat="0" lon="0">
        <time>2020-12-06T10:00:30.917000+00:00</time>
      </trkpt>
      <trkpt lat="47.33844" lon="-1.33288">
        <ele>60</ele>
        <time>2020-12-06T10:00:31.855000+00:00</time>
      </trkpt>
      <trkpt lat="0" lon="0">
        <time>2020-12-06T10:00:31.863000+00:00</time>
      </trkpt>
      <trkpt lat="0" lon="0">
        <time>2020-12-06T10:00:31.865000+00:00</time>
      </trkpt>
      <trkpt lat="0" lon="0">
        <time>2020-12-06T10:00:31.866000+00:00</time>
      </trkpt>
      <trkpt lat="47.33843" lon="-1.3329">
        <ele>60</ele>
        <time>2020-12-06T10:00:32.868000+00:00</time>
      </trkpt>
      <trkpt lat="0" lon="0">
        <time>2020-12-06T10:00:32.871000+00:00</time>
      </trkpt>
      <trkpt lat="0" lon="0">
        <time>2020-12-06T10:00:32.872000+00:00</time>
      </trkpt>
      <trkpt lat="0" lon="0">
        <time>2020-12-06T10:00:32.873000+00:00</time>
      </trkpt>
      <trkpt lat="47.33842" lon="-1.33292">
        <ele>60</ele>
        <time>2020-12-06T10:00:33.871000+00:00</time>
      </trkpt>
      <trkpt lat="0" lon="0">
        <time>2020-12-06T10:00:33.880000+00:00</time>
      </trkpt>
      <trkpt lat="0" lon="0">
        <time>2020-12-06T10:00:33.886000+00:00</time>
      </trkpt>
      <trkpt lat="0" lon="0">
        <time>2020-12-06T10:00:33.891000+00:00</time>
      </trkpt>
      <trkpt lat="47.33841" lon="-1.33294">
        <ele>60</ele>
        <time>2020-12-06T10:00:34.866000+00:00</time>
      </trkpt>
      <trkpt lat="0" lon="0">
        <time>2020-12-06T10:00:34.869000+00:00</time>
      </trkpt>
      <trkpt lat="0" lon="0">
        <time>2020-12-06T10:00:34.883000+00:00</time>
      </trkpt>
      <trkpt lat="0" lon="0">
        <time>2020-12-06T10:00:34.887000+00:00</time>
      </trkpt>
      <trkpt lat="47.3384" lon="-1.33296">
        <ele>61</ele>
        <time>2020-12-06T10:00:35.867000+00:00</time>
      </trkpt>
      <trkpt lat="0" lon="0">
        <time>2020-12-06T10:00:35.878000+00:00</time>
      </trkpt>
      <trkpt lat="0" lon="0">
        <time>2020-12-06T10:00:35.884000+00:00</time>
      </trkpt>
      <trkpt lat="0" lon="0">
        <time>2020-12-06T10:00:35.890000+00:00</time>
      </trkpt>
      <trkpt lat="47.33839" lon="-1.33298">
        <ele>61</ele>
        <time>2020-12-06T10:00:36.885000+00:00</time>
      </trkpt>
      <trkpt lat="0" lon="0">
        <time>2020-12-06T10:00:36.889000+00:00</time>
      </trkpt>
      <trkpt lat="0" lon="0">
        <time>2020-12-06T10:00:36.890000+00:00</time>
      </trkpt>
      <trkpt lat="0" lon="0">
        <time>2020-12-06T10:00:36.891000+00:00</time>
      </trkpt>
      <trkpt lat="47.33839" lon="-1.33301">
        <ele>61</ele>
        <time>2020-12-06T10:00:37.864000+00:00</time>
      </trkpt>
      <trkpt lat="0" lon="0">
        <time>2020-12-06T10:00:37.870000+00:00</time>
      </trkpt>
      <trkpt lat="0" lon="0">
        <time>2020-12-06T10:00:37.875000+00:00</time>
      </trkpt>
      <trkpt lat="0" lon="0">
        <time>2020-12-06T10:00:37.877000+00:00</time>
      </trkpt>
      <trkpt lat="47.33838" lon="-1.33303">
        <ele>61</ele>
        <time>2020-12-06T10:00:38.863000+00:00</time>
      </trkpt>
      <trkpt lat="0" lon="0">
        <time>2020-12-06T10:00:38.866000+00:00</time>
      </trkpt>
      <trkpt lat="0" lon="0">
        <time>2020-12-06T10:00:38.867000+00:00</time>
      </trkpt>
      <trkpt lat="0" lon="0">
        <time>2020-12-06T10:00:38.870000+00:00</time>
      </trkpt>
      <trkpt lat="47.33837" lon="-1.33305">
        <ele>61</ele>
        <time>2020-12-06T10:00:39.899000+00:00</time>
      </trkpt>
      <trkpt lat="0" lon="0">
        <time>2020-12-06T10:00:39.910000+00:00</time>
      </trkpt>
      <trkpt lat="0" lon="0">
        <time>2020-12-06T10:00:39.918000+00:00</time>
      </trkpt>
      <trkpt lat="0" lon="0">
        <time>2020-12-06T10:00:39.919000+00:00</time>
      </trkpt>
      <trkpt lat="47.33837" lon="-1.33308">
        <ele>61</ele>
        <time>2020-12-06T10:00:40.855000+00:00</time>
      </trkpt>
      <trkpt lat="0" lon="0">
        <time>2020-12-06T10:00:40.873000+00:00</time>
      </trkpt>
      <trkpt lat="0" lon="0">
        <time>2020-12-06T10:00:40.875000+00:00</time>
      </trkpt>
      <trkpt lat="0" lon="0">
        <time>2020-12-06T10:00:40.876000+00:00</time>
      </trkpt>
      <trkpt lat="47.33836" lon="-1.3331">
        <ele>61</ele>
        <time>2020-12-06T10:00:41.879000+00:00</time>
      </trkpt>
      <trkpt lat="0" lon="0">
        <time>2020-12-06T10:00:41.892000+00:00</time>
      </trkpt>
      <trkpt lat="0" lon="0">
        <time>2020-12-06T10:00:41.895000+00:00</time>
      </trkpt>
      <trkpt lat="0" lon="0">
        <time>2020-12-06T10:00:41.897000+00:00</time>
      </trkpt>
      <trkpt lat="47.33835" lon="-1.33312">
        <ele>61</ele>
        <time>2020-12-06T10:00:42.870000+00:00</time>
      </trkpt>
      <trkpt lat="0" lon="0">
        <time>2020-12-06T10:00:42.874000+00:00</time>
      </trkpt>
      <trkpt lat="0" lon="0">
        <time>2020-12-06T10:00:42.880000+00:00</time>
      </trkpt>
      <trkpt lat="47.33835" lon="-1.33315">
        <ele>61</ele>
        <time>2020-12-06T10:00:43.864000+00:00</time>
      </trkpt>
      <trkpt lat="0" lon="0">
        <time>2020-12-06T10:00:43.867000+00:00</time>
      </trkpt>
      <trkpt lat="0" lon="0">
        <time>2020-12-06T10:00:43.868000+00:00</time>
      </trkpt>
      <trkpt lat="0" lon="0">
        <time>2020-12-06T10:00:43.869000+00:00</time>
      </trkpt>
      <trkpt lat="47.33834" lon="-1.33317">
        <ele>61</ele>
        <time>2020-12-06T10:00:44.847000+00:00</time>
      </trkpt>
      <trkpt lat="0" lon="0">
        <time>2020-12-06T10:00:44.849000+00:00</time>
      </trkpt>
      <trkpt lat="0" lon="0">
        <time>2020-12-06T10:00:44.855000+00:00</time>
      </trkpt>
      <trkpt lat="47.33833" lon="-1.33319">
        <ele>61</ele>
        <time>2020-12-06T10:00:45.886000+00:00</time>
      </trkpt>
      <trkpt lat="0" lon="0">
        <time>2020-12-06T10:00:45.889000+00:00</time>
      </trkpt>
      <trkpt lat="0" lon="0">
        <time>2020-12-06T10:00:45.892000+00:00</time>
      </trkpt>
      <trkpt lat="0" lon="0">
        <time>2020-12-06T10:00:45.897000+00:00</time>
      </trkpt>
      <trkpt lat="47.33833" lon="-1.33321">
        <ele>61</ele>
        <time>2020-12-06T10:00:46.885000+00:00</time>
      </trkpt>
      <trkpt lat="0" lon="0">
        <time>2020-12-06T10:00:46.898000+00:00</time>
      </trkpt>
      <trkpt lat="0" lon="0">
        <time>2020-12-06T10:00:46.903000+00:00</time>
      </trkpt>
      <trkpt lat="0" lon="0">
        <time>2020-12-06T10:00:46.904000+00:00</time>
      </trkpt>
      <trkpt lat="47.33832" lon="-1.33323">
        <ele>61</ele>
        <time>2020-12-06T10:00:47.871000+00:00</time>
      </trkpt>
      <trkpt lat="0" lon="0">
        <time>2020-12-06T10:00:47.885000+00:00</time>
      </trkpt>
      <trkpt lat="0" lon="0">
        <time>2020-12-06T10:00:47.888000+00:00</time>
      </trkpt>
      <trkpt lat="0" lon="0">
        <time>2020-12-06T10:00:47.890000+00:00</time>
      </trkpt>
      <trkpt lat="47.33831" lon="-1.33325">
        <ele>61</ele>
        <time>2020-12-06T10:00:48.874000+00:00</time>
      </trkpt>
      <trkpt lat="0" lon="0">
        <time>2020-12-06T10:00:48.884000+00:00</time>
      </trkpt>
      <trkpt lat="0" lon="0">
        <time>2020-12-06T10:00:48.892000+00:00</time>
      </trkpt>
      <trkpt lat="0" lon="0">
        <time>2020-12-06T10:00:48.895000+00:00</time>
      </trkpt>
      <trkpt lat="47.3383" lon="-1.33327">
        <ele>61</ele>
        <time>2020-12-06T10:00:49.861000+00:00</time>
      </trkpt>
      <trkpt lat="0" lon="0">
        <time>2020-12-06T10:00:49.869000+00:00</time>
      </trkpt>
      <trkpt lat="0" lon="0">
        <time>2020-12-06T10:00:49.873000+00:00</time>
      </trkpt>
      <trkpt lat="0" lon="0">
        <time>2020-12-06T10:00:49.875000+00:00</time>
      </trkpt>
      <trkpt lat="47.3383" lon="-1.3333">
        <ele>62</ele>
        <time>2020-12-06T10:00:50.864000+00:00</time>
      </trkpt>
      <trkpt lat="0" lon="0">
        <time>2020-12-06T10:00:50.867000+00:00</time>
      </trkpt>
      <trkpt lat="0" lon="0">
        <time>2020-12-06T10:00:50.876000+00:00</time>
      </trkpt>
      <trkpt lat="0" lon="0">
        <time>2020-12-06T10:00:50.877000+00:00</time>
      </trkpt>
      <trkpt lat="47.33829" lon="-1.33332">
        <ele>62</ele>
        <time>2020-12-06T10:00:51.891000+00:00</time>
      </trkpt>
      <trkpt lat="0" lon="0">
        <time>2020-12-06T10:00:51.898000+00:00</time>
      </trkpt>
      <trkpt lat="0" lon="0">
        <time>2020-12-06T10:00:51.903000+00:00</time>
      </trkpt>
      <trkpt lat="0" lon="0">
        <time>2020-12-06T10:00:51.910000+00:00</time>
      </trkpt>
      <trkpt lat="47.33828" lon="-1.33334">
        <ele>62</ele>
        <time>2020-12-06T10:00:52.871000+00:00</time>
      </trkpt>
      <trkpt lat="0" lon="0">
        <time>2020-12-06T10:00:52.873000+00:00</time>
      </trkpt>
      <trkpt lat="0" lon="0">
        <time>2020-12-06T10:00:52.875000+00:00</time>
      </trkpt>
      <trkpt lat="0" lon="0">
        <time>2020-12-06T10:00:52.876000+00:00</time>
      </trkpt>
      <trkpt lat="47.33827" lon="-1.33336">
        <ele>62</ele>
        <time>2020-12-06T10:00:53.856000+00:00</time>
      </trkpt>
      <trkpt lat="0" lon="0">
        <time>2020-12-06T10:00:53.859000+00:00</time>
      </trkpt>
      <trkpt lat="0" lon="0">
        <time>2020-12-06T10:00:53.869000+00:00</time>
      </trkpt>
      <trkpt lat="0" lon="0">
        <time>2020-12-06T10:00:53.871000+00:00</time>
      </trkpt>
      <trkpt lat="47.33827" lon="-1.33339">
        <ele>62</ele>
        <time>2020-12-06T10:00:54.887000+00:00</time>
      </trkpt>
      <trkpt lat="0" lon="0">
        <time>2020-12-06T10:00:54.896000+00:00</time>
      </trkpt>
      <trkpt lat="0" lon="0">
        <time>2020-12-06T10:00:54.900000+00:00</time>
      </trkpt>
      <trkpt lat="0" lon="0">
        <time>2020-12-06T10:00:54.904000+00:00</time>
      </trkpt>
      <trkpt lat="47.33826" lon="-1.33341">
        <ele>62</ele>
        <time>2020-12-06T10:00:55.858000+00:00</time>
      </trkpt>
      <trkpt lat="0" lon="0">
        <time>2020-12-06T10:00:55.860000+00:00</time>
      </trkpt>
      <trkpt lat="0" lon="0">
        <time>2020-12-06T10:00:55.872000+00:00</time>
      </trkpt>
      <trkpt lat="0" lon="0">
        <time>2020-12-06T10:00:55.873000+00:00</time>
      </trkpt>
      <trkpt lat="47.33825" lon="-1.33344">
        <ele>62</ele>
        <time>2020-12-06T10:00:56.875000+00:00</time>
      </trkpt>
      <trkpt lat="0" lon="0">
        <time>2020-12-06T10:00:56.878000+00:00</time>
      </trkpt>
      <trkpt lat="0" lon="0">
        <time>2020-12-06T10:00:56.882000+00:00</time>
      </trkpt>
      <trkpt lat="0" lon="0">
        <time>2020-12-06T10:00:56.883000+00:00</time>
      </trkpt>
      <trkpt lat="47.33825" lon="-1.33347">
        <ele>62</ele>
        <time>2020-12-06T10:00:57.862000+00:00</time>
      </trkpt>
      <trkpt lat="0" lon="0">
        <time>2020-12-06T10:00:57.864000+00:00</time>
      </trkpt>
      <trkpt lat="0" lon="0">
        <time>2020-12-06T10:00:57.870000+00:00</time>
      </trkpt>
      <trkpt lat="0" lon="0">
        <time>2020-12-06T10:00:57.874000+00:00</time>
      </trkpt>
      <trkpt lat="47.33824" lon="-1.33349">
        <ele>62</ele>
        <time>2020-12-06T10:00:58.927000+00:00</time>
      </trkpt>
      <trkpt lat="0" lon="0">
        <time>2020-12-06T10:00:58.940000+00:00</time>
      </trkpt>
      <trkpt lat="0" lon="0">
        <time>2020-12-06T10:00:58.947000+00:00</time>
      </trkpt>
      <trkpt lat="0" lon="0">
        <time>2020-12-06T10:00:58.950000+00:00</time>
      </trkpt>
      <trkpt lat="47.33824" lon="-1.33352">
        <ele>62</ele>
        <time>2020-12-06T10:00:59.862000+00:00</time>
      </trkpt>
      <trkpt lat="0" lon="0">
        <time>2020-12-06T10:00:59.870000+00:00</time>
      </trkpt>
      <trkpt lat="0" lon="0">
        <time>2020-12-06T10:00:59.880000+00:00</time>
      </trkpt>
      <trkpt lat="0" lon="0">
        <time>2020-12-06T10:00:59.881000+00:00</time>
      </trkpt>
      <trkpt lat="47.33823" lon="-1.33355">
        <ele>62</ele>
        <time>2020-12-06T10:01:00.867000+00:00</time>
      </trkpt>
      <trkpt lat="0" lon="0">
        <time>2020-12-06T10:01:00.875000+00:00</time>
      </trkpt>
      <trkpt lat="0" lon="0">
        <time>2020-12-06T10:01:00.883000+00:00</time>
      </trkpt>
      <trkpt lat="0" lon="0">
        <time>2020-12-06T10:01:00.884000+00:00</time>
      </trkpt>
      <trkpt lat="47.33823" lon="-1.33357">
        <ele>62</ele>
        <time>2020-12-06T10:01:01.835000+00:00</time>
      </trkpt>
      <trkpt lat="0" lon="0">
        <time>2020-12-06T10:01:01.848000+00:00</time>
      </trkpt>
      <trkpt lat="0" lon="0">
        <time>2020-12-06T10:01:01.852000+00:00</time>
      </trkpt>
      <trkpt lat="0" lon="0">
        <time>2020-12-06T10:01:01.857000+00:00</time>
      </trkpt>
      <trkpt lat="47.33823" lon="-1.3336">
        <ele>62</ele>
        <time>2020-12-06T10:01:02.883000+00:00</time>
      </trkpt>
      <trkpt lat="0" lon="0">
        <time>2020-12-06T10:01:02.895000+00:00</time>
      </trkpt>
      <trkpt lat="0" lon="0">
        <time>2020-12-06T10:01:02.898000+00:00</time>
      </trkpt>
      <trkpt lat="0" lon="0">
        <time>2020-12-06T10:01:02.899000+00:00</time>
      </trkpt>
      <trkpt lat="47.33823" lon="-1.33363">
        <ele>62</ele>
        <time>2020-12-06T10:01:03.920000+00:00</time>
      </trkpt>
      <trkpt lat="0" lon="0">
        <time>2020-12-06T10:01:03.922000+00:00</time>
      </trkpt>
      <trkpt lat="0" lon="0">
        <time>2020-12-06T10:01:03.923000+00:00</time>
      </trkpt>
      <trkpt lat="0" lon="0">
        <time>2020-12-06T10:01:03.924000+00:00</time>
      </trkpt>
      <trkpt lat="47.33822" lon="-1.33365">
        <ele>63</ele>
        <time>2020-12-06T10:01:04.888000+00:00</time>
      </trkpt>
      <trkpt lat="0" lon="0">
        <time>2020-12-06T10:01:04.895000+00:00</time>
      </trkpt>
      <trkpt lat="0" lon="0">
        <time>2020-12-06T10:01:04.904000+00:00</time>
      </trkpt>
      <trkpt lat="0" lon="0">
        <time>2020-12-06T10:01:04.908000+00:00</time>
      </trkpt>
      <trkpt lat="47.33822" lon="-1.33368">
        <ele>63</ele>
        <time>2020-12-06T10:01:05.852000+00:00</time>
      </trkpt>
      <trkpt lat="0" lon="0">
        <time>2020-12-06T10:01:05.868000+00:00</time>
      </trkpt>
      <trkpt lat="0" lon="0">
        <time>2020-12-06T10:01:05.875000+00:00</time>
      </trkpt>
      <trkpt lat="0" lon="0">
        <time>2020-12-06T10:01:05.876000+00:00</time>
      </trkpt>
      <trkpt lat="47.33821" lon="-1.3337">
        <ele>63</ele>
        <time>2020-12-06T10:01:06.873000+00:00</time>
      </trkpt>
      <trkpt lat="0" lon="0">
        <time>2020-12-06T10:01:06.883000+00:00</time>
      </trkpt>
      <trkpt lat="0" lon="0">
        <time>2020-12-06T10:01:06.887000+00:00</time>
      </trkpt>
      <trkpt lat="0" lon="0">
        <time>2020-12-06T10:01:06.889000+00:00</time>
      </trkpt>
      <trkpt lat="47.3382" lon="-1.33372">
        <ele>63</ele>
        <time>2020-12-06T10:01:07.851000+00:00</time>
      </trkpt>
      <trkpt lat="0" lon="0">
        <time>2020-12-06T10:01:07.858000+00:00</time>
      </trkpt>
      <trkpt lat="0" lon="0">
        <time>2020-12-06T10:01:07.867000+00:00</time>
      </trkpt>
      <trkpt lat="0" lon="0">
        <time>2020-12-06T10:01:07.868000+00:00</time>
      </trkpt>
      <trkpt lat="47.33819" lon="-1.33375">
        <ele>63</ele>
        <time>2020-12-06T10:01:08.878000+00:00</time>
      </trkpt>
      <trkpt lat="0" lon="0">
        <time>2020-12-06T10:01:08.887000+00:00</time>
      </trkpt>
      <trkpt lat="0" lon="0">
        <time>2020-12-06T10:01:08.897000+00:00</time>
      </trkpt>
      <trkpt lat="0" lon="0">
        <time>2020-12-06T10:01:08.900000+00:00</time>
      </trkpt>
      <trkpt lat="47.33818" lon="-1.33377">
        <ele>63</ele>
        <time>2020-12-06T10:01:09.871000+00:00</time>
      </trkpt>
      <trkpt lat="0" lon="0">
        <time>2020-12-06T10:01:09.884000+00:00</time>
      </trkpt>
      <trkpt lat="0" lon="0">
        <time>2020-12-06T10:01:09.894000+00:00</time>
      </trkpt>
      <trkpt lat="0" lon="0">
        <time>2020-12-06T10:01:09.898000+00:00</time>
      </trkpt>
      <trkpt lat="47.33817" lon="-1.3338">
        <ele>63</ele>
        <time>2020-12-06T10:01:10.873000+00:00</time>
      </trkpt>
      <trkpt lat="0" lon="0">
        <time>2020-12-06T10:01:10.883000+00:00</time>
      </trkpt>
      <trkpt lat="0" lon="0">
        <time>2020-12-06T10:01:10.886000+00:00</time>
      </trkpt>
      <trkpt lat="0" lon="0">
        <time>2020-12-06T10:01:10.888000+00:00</time>
      </trkpt>
      <trkpt lat="47.33816" lon="-1.33382">
        <ele>63</ele>
        <time>2020-12-06T10:01:11.895000+00:00</time>
      </trkpt>
      <trkpt lat="0" lon="0">
        <time>2020-12-06T10:01:11.898000+00:00</time>
      </trkpt>
      <trkpt lat="0" lon="0">
        <time>2020-12-06T10:01:11.909000+00:00</time>
      </trkpt>
      <trkpt lat="0" lon="0">
        <time>2020-12-06T10:01:11.911000+00:00</time>
      </trkpt>
      <trkpt lat="47.33815" lon="-1.33385">
        <ele>63</ele>
        <time>2020-12-06T10:01:12.864000+00:00</time>
      </trkpt>
      <trkpt lat="0" lon="0">
        <time>2020-12-06T10:01:12.872000+00:00</time>
      </trkpt>
      <trkpt lat="0" lon="0">
        <time>2020-12-06T10:01:12.873000+00:00</time>
      </trkpt>
      <trkpt lat="0" lon="0">
        <time>2020-12-06T10:01:12.875000+00:00</time>
      </trkpt>
      <trkpt lat="47.33814" lon="-1.33387">
        <ele>63</ele>
        <time>2020-12-06T10:01:13.844000+00:00</time>
      </trkpt>
      <trkpt lat="0" lon="0">
        <time>2020-12-06T10:01:13.848000+00:00</time>
      </trkpt>
      <trkpt lat="0" lon="0">
        <time>2020-12-06T10:01:13.850000+00:00</time>
      </trkpt>
      <trkpt lat="0" lon="0">
        <time>2020-12-06T10:01:13.851000+00:00</time>
      </trkpt>
      <trkpt lat="47.33813" lon="-1.3339">
        <ele>63</ele>
        <time>2020-12-06T10:01:14.843000+00:00</time>
      </trkpt>
      <trkpt lat="0" lon="0">
        <time>2020-12-06T10:01:14.848000+00:00</time>
      </trkpt>
      <trkpt lat="0" lon="0">
        <time>2020-12-06T10:01:14.854000+00:00</time>
      </trkpt>
      <trkpt lat="0" lon="0">
        <time>2020-12-06T10:01:14.860000+00:00</time>
      </trkpt>
      <trkpt lat="47.33812" lon="-1.33392">
        <ele>63</ele>
        <time>2020-12-06T10:01:15.848000+00:00</time>
      </trkpt>
      <trkpt lat="0" lon="0">
        <time>2020-12-06T10:01:15.853000+00:00</time>
      </trkpt>
      <trkpt lat="0" lon="0">
        <time>2020-12-06T10:01:15.856000+00:00</time>
      </trkpt>
      <trkpt lat="0" lon="0">
        <time>2020-12-06T10:01:15.859000+00:00</time>
      </trkpt>
      <trkpt lat="47.33811" lon="-1.33394">
        <ele>64</ele>
        <time>2020-12-06T10:01:16.894000+00:00</time>
      </trkpt>
      <trkpt lat="0" lon="0">
        <time>2020-12-06T10:01:16.902000+00:00</time>
      </trkpt>
      <trkpt lat="0" lon="0">
        <time>2020-12-06T10:01:16.912000+00:00</time>
      </trkpt>
      <trkpt lat="0" lon="0">
        <time>2020-12-06T10:01:16.917000+00:00</time>
      </trkpt>
      <trkpt lat="47.33809" lon="-1.33396">
        <ele>64</ele>
        <time>2020-12-06T10:01:17.897000+00:00</time>
      </trkpt>
      <trkpt lat="0" lon="0">
        <time>2020-12-06T10:01:17.903000+00:00</time>
      </trkpt>
      <trkpt lat="0" lon="0">
        <time>2020-12-06T10:01:17.915000+00:00</time>
      </trkpt>
      <trkpt lat="0" lon="0">
        <time>2020-12-06T10:01:17.917000+00:00</time>
      </trkpt>
      <trkpt lat="47.33808" lon="-1.33398">
        <ele>64</ele>
        <time>2020-12-06T10:01:18.859000+00:00</time>
      </trkpt>
      <trkpt lat="0" lon="0">
        <time>2020-12-06T10:01:18.869000+00:00</time>
      </trkpt>
      <trkpt lat="0" lon="0">
        <time>2020-12-06T10:01:18.872000+00:00</time>
      </trkpt>
      <trkpt lat="0" lon="0">
        <time>2020-12-06T10:01:18.877000+00:00</time>
      </trkpt>
      <trkpt lat="47.33807" lon="-1.334">
        <ele>64</ele>
        <time>2020-12-06T10:01:19.890000+00:00</time>
      </trkpt>
      <trkpt lat="0" lon="0">
        <time>2020-12-06T10:01:19.910000+00:00</time>
      </trkpt>
      <trkpt lat="0" lon="0">
        <time>2020-12-06T10:01:19.915000+00:00</time>
      </trkpt>
      <trkpt lat="0" lon="0">
        <time>2020-12-06T10:01:19.916000+00:00</time>
      </trkpt>
      <trkpt lat="47.33806" lon="-1.33402">
        <ele>64</ele>
        <time>2020-12-06T10:01:20.864000+00:00</time>
      </trkpt>
      <trkpt lat="0" lon="0">
        <time>2020-12-06T10:01:20.876000+00:00</time>
      </trkpt>
      <trkpt lat="0" lon="0">
        <time>2020-12-06T10:01:20.878000+00:00</time>
      </trkpt>
      <trkpt lat="0" lon="0">
        <time>2020-12-06T10:01:20.879000+00:00</time>
      </trkpt>
      <trkpt lat="47.33805" lon="-1.33404">
        <ele>64</ele>
        <time>2020-12-06T10:01:21.894000+00:00</time>
      </trkpt>
      <trkpt lat="0" lon="0">
        <time>2020-12-06T10:01:21.899000+00:00</time>
      </trkpt>
      <trkpt lat="0" lon="0">
        <time>2020-12-06T10:01:21.905000+00:00</time>
      </trkpt>
      <trkpt lat="0" lon="0">
        <time>2020-12-06T10:01:21.907000+00:00</time>
      </trkpt>
      <trkpt lat="47.33804" lon="-1.33406">
        <ele>64</ele>
        <time>2020-12-06T10:01:22.880000+00:00</time>
      </trkpt>
      <trkpt lat="0" lon="0">
        <time>2020-12-06T10:01:22.885000+00:00</time>
      </trkpt>
      <trkpt lat="0" lon="0">
        <time>2020-12-06T10:01:22.897000+00:00</time>
      </trkpt>
      <trkpt lat="0" lon="0">
        <time>2020-12-06T10:01:22.898000+00:00</time>
      </trkpt>
      <trkpt lat="47.33803" lon="-1.33408">
        <ele>64</ele>
        <time>2020-12-06T10:01:23.870000+00:00</time>
      </trkpt>
      <trkpt lat="0" lon="0">
        <time>2020-12-06T10:01:23.872000+00:00</time>
      </trkpt>
      <trkpt lat="0" lon="0">
        <time>2020-12-06T10:01:23.873000+00:00</time>
      </trkpt>
      <trkpt lat="0" lon="0">
        <time>2020-12-06T10:01:23.874000+00:00</time>
      </trkpt>
      <trkpt lat="47.33802" lon="-1.33411">
        <ele>64</ele>
        <time>2020-12-06T10:01:24.861000+00:00</time>
      </trkpt>
      <trkpt lat="0" lon="0">
        <time>2020-12-06T10:01:24.864000+00:00</time>
      </trkpt>
      <trkpt lat="0" lon="0">
        <time>2020-12-06T10:01:24.869000+00:00</time>
      </trkpt>
      <trkpt lat="0" lon="0">
        <time>2020-12-06T10:01:24.871000+00:00</time>
      </trkpt>
      <trkpt lat="47.33801" lon="-1.33413">
        <ele>64</ele>
        <time>2020-12-06T10:01:25.874000+00:00</time>
      </trkpt>
      <trkpt lat="0" lon="0">
        <time>2020-12-06T10:01:25.901000+00:00</time>
      </trkpt>
      <trkpt lat="0" lon="0">
        <time>2020-12-06T10:01:25.910000+00:00</time>
      </trkpt>
      <trkpt lat="0" lon="0">
        <time>2020-12-06T10:01:25.913000+00:00</time>
      </trkpt>
      <trkpt lat="47.338" lon="-1.33414">
        <ele>64</ele>
        <time>2020-12-06T10:01:26.870000+00:00</time>
      </trkpt>
      <trkpt lat="0" lon="0">
        <time>2020-12-06T10:01:26.889000+00:00</time>
      </trkpt>
      <trkpt lat="0" lon="0">
        <time>2020-12-06T10:01:26.892000+00:00</time>
      </trkpt>
      <trkpt lat="0" lon="0">
        <time>2020-12-06T10:01:26.897000+00:00</time>
      </trkpt>
      <trkpt lat="47.33799" lon="-1.33416">
        <ele>64</ele>
        <time>2020-12-06T10:01:27.870000+00:00</time>
      </trkpt>
      <trkpt lat="0" lon="0">
        <time>2020-12-06T10:01:27.883000+00:00</time>
      </trkpt>
      <trkpt lat="0" lon="0">
        <time>2020-12-06T10:01:27.884000+00:00</time>
      </trkpt>
      <trkpt lat="0" lon="0">
        <time>2020-12-06T10:01:27.885000+00:00</time>
      </trkpt>
      <trkpt lat="47.33798" lon="-1.33418">
        <ele>64</ele>
        <time>2020-12-06T10:01:28.868000+00:00</time>
      </trkpt>
      <trkpt lat="0" lon="0">
        <time>2020-12-06T10:01:28.880000+00:00</time>
      </trkpt>
      <trkpt lat="0" lon="0">
        <time>2020-12-06T10:01:28.891000+00:00</time>
      </trkpt>
      <trkpt lat="0" lon="0">
        <time>2020-12-06T10:01:28.892000+00:00</time>
      </trkpt>
      <trkpt lat="47.33797" lon="-1.3342">
        <ele>65</ele>
        <time>2020-12-06T10:01:29.851000+00:00</time>
      </trkpt>
      <trkpt lat="0" lon="0">
        <time>2020-12-06T10:01:29.861000+00:00</time>
      </trkpt>
      <trkpt lat="0" lon="0">
        <time>2020-12-06T10:01:29.864000+00:00</time>
      </trkpt>
      <trkpt lat="0" lon="0">
        <time>2020-12-06T10:01:29.867000+00:00</time>
      </trkpt>
      <trkpt lat="47.33796" lon="-1.33423">
        <ele>65</ele>
        <time>2020-12-06T10:01:30.916000+00:00</time>
      </trkpt>
      <trkpt lat="0" lon="0">
        <time>2020-12-06T10:01:30.937000+00:00</time>
      </trkpt>
      <trkpt lat="0" lon="0">
        <time>2020-12-06T10:01:30.943000+00:00</time>
      </trkpt>
      <trkpt lat="0" lon="0">
        <time>2020-12-06T10:01:30.944000+00:00</time>
      </trkpt>
      <trkpt lat="47.33795" lon="-1.33425">
        <ele>65</ele>
        <time>2020-12-06T10:01:31.894000+00:00</time>
      </trkpt>
      <trkpt lat="0" lon="0">
        <time>2020-12-06T10:01:31.907000+00:00</time>
      </trkpt>
      <trkpt lat="0" lon="0">
        <time>2020-12-06T10:01:31.910000+00:00</time>
      </trkpt>
      <trkpt lat="0" lon="0">
        <time>2020-12-06T10:01:31.914000+00:00</time>
      </trkpt>
      <trkpt lat="47.33794" lon="-1.33427">
        <ele>65</ele>
        <time>2020-12-06T10:01:32.874000+00:00</time>
      </trkpt>
      <trkpt lat="0" lon="0">
        <time>2020-12-06T10:01:32.891000+00:00</time>
      </trkpt>
      <trkpt lat="0" lon="0">
        <time>2020-12-06T10:01:32.899000+00:00</time>
      </trkpt>
      <trkpt lat="0" lon="0">
        <time>2020-12-06T10:01:32.902000+00:00</time>
      </trkpt>
      <trkpt lat="47.33794" lon="-1.3343">
        <ele>65</ele>
        <time>2020-12-06T10:01:33.887000+00:00</time>
      </trkpt>
      <trkpt lat="0" lon="0">
        <time>2020-12-06T10:01:33.899000+00:00</time>
      </trkpt>
      <trkpt lat="0" lon="0">
        <time>2020-12-06T10:01:33.902000+00:00</time>
      </trkpt>
      <trkpt lat="0" lon="0">
        <time>2020-12-06T10:01:33.907000+00:00</time>
      </trkpt>
      <trkpt lat="47.33793" lon="-1.33432">
        <ele>65</ele>
        <time>2020-12-06T10:01:34.884000+00:00</time>
      </trkpt>
      <trkpt lat="0" lon="0">
        <time>2020-12-06T10:01:34.892000+00:00</time>
      </trkpt>
      <trkpt lat="0" lon="0">
        <time>2020-12-06T10:01:34.895000+00:00</time>
      </trkpt>
      <trkpt lat="0" lon="0">
        <time>2020-12-06T10:01:34.896000+00:00</time>
      </trkpt>
      <trkpt lat="47.33792" lon="-1.33434">
        <ele>65</ele>
        <time>2020-12-06T10:01:35.867000+00:00</time>
      </trkpt>
      <trkpt lat="0" lon="0">
        <time>2020-12-06T10:01:35.872000+00:00</time>
      </trkpt>
      <trkpt lat="0" lon="0">
        <time>2020-12-06T10:01:35.879000+00:00</time>
      </trkpt>
      <trkpt lat="0" lon="0">
        <time>2020-12-06T10:01:35.881000+00:00</time>
      </trkpt>
      <trkpt lat="47.33791" lon="-1.33436">
        <ele>65</ele>
        <time>2020-12-06T10:01:36.856000+00:00</time>
      </trkpt>
      <trkpt lat="0" lon="0">
        <time>2020-12-06T10:01:36.866000+00:00</time>
      </trkpt>
      <trkpt lat="0" lon="0">
        <time>2020-12-06T10:01:36.871000+00:00</time>
      </trkpt>
      <trkpt lat="0" lon="0">
        <time>2020-12-06T10:01:36.875000+00:00</time>
      </trkpt>
      <trkpt lat="47.3379" lon="-1.33439">
        <ele>65</ele>
        <time>2020-12-06T10:01:37.867000+00:00</time>
      </trkpt>
      <trkpt lat="0" lon="0">
        <time>2020-12-06T10:01:37.876000+00:00</time>
      </trkpt>
      <trkpt lat="0" lon="0">
        <time>2020-12-06T10:01:37.879000+00:00</time>
      </trkpt>
      <trkpt lat="0" lon="0">
        <time>2020-12-06T10:01:37.881000+00:00</time>
      </trkpt>
      <trkpt lat="47.33789" lon="-1.33441">
        <ele>66</ele>
        <time>2020-12-06T10:01:38.866000+00:00</time>
      </trkpt>
      <trkpt lat="0" lon="0">
        <time>2020-12-06T10:01:38.871000+00:00</time>
      </trkpt>
      <trkpt lat="0" lon="0">
        <time>2020-12-06T10:01:38.876000+00:00</time>
      </trkpt>
      <trkpt lat="0" lon="0">
        <time>2020-12-06T10:01:38.880000+00:00</time>
      </trkpt>
      <trkpt lat="47.33788" lon="-1.33443">
        <ele>66</ele>
        <time>2020-12-06T10:01:39.895000+00:00</time>
      </trkpt>
      <trkpt lat="0" lon="0">
        <time>2020-12-06T10:01:39.912000+00:00</time>
      </trkpt>
      <trkpt lat="0" lon="0">
        <time>2020-12-06T10:01:39.913000+00:00</time>
      </trkpt>
      <trkpt lat="0" lon="0">
        <time>2020-12-06T10:01:39.914000+00:00</time>
      </trkpt>
      <trkpt lat="47.33787" lon="-1.33445">
        <ele>66</ele>
        <time>2020-12-06T10:01:40.872000+00:00</time>
      </trkpt>
      <trkpt lat="0" lon="0">
        <time>2020-12-06T10:01:40.898000+00:00</time>
      </trkpt>
      <trkpt lat="0" lon="0">
        <time>2020-12-06T10:01:40.900000+00:00</time>
      </trkpt>
      <trkpt lat="47.33787" lon="-1.33447">
        <ele>66</ele>
        <time>2020-12-06T10:01:41.891000+00:00</time>
      </trkpt>
      <trkpt lat="0" lon="0">
        <time>2020-12-06T10:01:41.903000+00:00</time>
      </trkpt>
      <trkpt lat="0" lon="0">
        <time>2020-12-06T10:01:41.912000+00:00</time>
      </trkpt>
      <trkpt lat="0" lon="0">
        <time>2020-12-06T10:01:41.920000+00:00</time>
      </trkpt>
      <trkpt lat="47.33786" lon="-1.33449">
        <ele>66</ele>
        <time>2020-12-06T10:01:42.872000+00:00</time>
      </trkpt>
      <trkpt lat="0" lon="0">
        <time>2020-12-06T10:01:42.875000+00:00</time>
      </trkpt>
      <trkpt lat="0" lon="0">
        <time>2020-12-06T10:01:42.880000+00:00</time>
      </trkpt>
      <trkpt lat="0" lon="0">
        <time>2020-12-06T10:01:42.883000+00:00</time>
      </trkpt>
      <trkpt lat="47.33785" lon="-1.33452">
        <ele>66</ele>
        <time>2020-12-06T10:01:43.880000+00:00</time>
      </trkpt>
      <trkpt lat="0" lon="0">
        <time>2020-12-06T10:01:43.883000+00:00</time>
      </trkpt>
      <trkpt lat="0" lon="0">
        <time>2020-12-06T10:01:43.887000+00:00</time>
      </trkpt>
      <trkpt lat="0" lon="0">
        <time>2020-12-06T10:01:43.889000+00:00</time>
      </trkpt>
      <trkpt lat="47.33783" lon="-1.33454">
        <ele>66</ele>
        <time>2020-12-06T10:01:44.879000+00:00</time>
      </trkpt>
      <trkpt lat="0" lon="0">
        <time>2020-12-06T10:01:44.894000+00:00</time>
      </trkpt>
      <trkpt lat="0" lon="0">
        <time>2020-12-06T10:01:44.910000+00:00</time>
      </trkpt>
      <trkpt lat="0" lon="0">
        <time>2020-12-06T10:01:44.911000+00:00</time>
      </trkpt>
      <trkpt lat="47.33782" lon="-1.33457">
        <ele>66</ele>
        <time>2020-12-06T10:01:45.887000+00:00</time>
      </trkpt>
      <trkpt lat="0" lon="0">
        <time>2020-12-06T10:01:45.902000+00:00</time>
      </trkpt>
      <trkpt lat="0" lon="0">
        <time>2020-12-06T10:01:45.907000+00:00</time>
      </trkpt>
      <trkpt lat="0" lon="0">
        <time>2020-12-06T10:01:45.910000+00:00</time>
      </trkpt>
      <trkpt lat="47.33781" lon="-1.33459">
        <ele>66</ele>
        <time>2020-12-06T10:01:46.896000+00:00</time>
      </trkpt>
      <trkpt lat="0" lon="0">
        <time>2020-12-06T10:01:46.899000+00:00</time>
      </trkpt>
      <trkpt lat="0" lon="0">
        <time>2020-12-06T10:01:46.909000+00:00</time>
      </trkpt>
      <trkpt lat="0" lon="0">
        <time>2020-12-06T10:01:46.912000+00:00</time>
      </trkpt>
      <trkpt lat="47.33779" lon="-1.33462">
        <ele>67</ele>
        <time>2020-12-06T10:01:47.870000+00:00</time>
      </trkpt>
      <trkpt lat="0" lon="0">
        <time>2020-12-06T10:01:47.877000+00:00</time>
      </trkpt>
      <trkpt lat="0" lon="0">
        <time>2020-12-06T10:01:47.884000+00:00</time>
      </trkpt>
      <trkpt lat="0" lon="0">
        <time>2020-12-06T10:01:47.886000+00:00</time>
      </trkpt>
      <trkpt lat="47.33778" lon="-1.33465">
        <ele>67</ele>
        <time>2020-12-06T10:01:48.880000+00:00</time>
      </trkpt>
      <trkpt lat="0" lon="0">
        <time>2020-12-06T10:01:48.887000+00:00</time>
      </trkpt>
      <trkpt lat="0" lon="0">
        <time>2020-12-06T10:01:48.900000+00:00</time>
      </trkpt>
      <trkpt lat="0" lon="0">
        <time>2020-12-06T10:01:48.906000+00:00</time>
      </trkpt>
      <trkpt lat="47.33776" lon="-1.33468">
        <ele>67</ele>
        <time>2020-12-06T10:01:49.902000+00:00</time>
      </trkpt>
      <trkpt lat="0" lon="0">
        <time>2020-12-06T10:01:49.909000+00:00</time>
      </trkpt>
      <trkpt lat="0" lon="0">
        <time>2020-12-06T10:01:49.913000+00:00</time>
      </trkpt>
      <trkpt lat="0" lon="0">
        <time>2020-12-06T10:01:49.915000+00:00</time>
      </trkpt>
      <trkpt lat="47.33774" lon="-1.33471">
        <ele>67</ele>
        <time>2020-12-06T10:01:50.890000+00:00</time>
      </trkpt>
      <trkpt lat="0" lon="0">
        <time>2020-12-06T10:01:50.901000+00:00</time>
      </trkpt>
      <trkpt lat="0" lon="0">
        <time>2020-12-06T10:01:50.909000+00:00</time>
      </trkpt>
      <trkpt lat="0" lon="0">
        <time>2020-12-06T10:01:50.914000+00:00</time>
      </trkpt>
      <trkpt lat="47.33772" lon="-1.33475">
        <ele>67</ele>
        <time>2020-12-06T10:01:51.932000+00:00</time>
      </trkpt>
      <trkpt lat="0" lon="0">
        <time>2020-12-06T10:01:51.938000+00:00</time>
      </trkpt>
      <trkpt lat="0" lon="0">
        <time>2020-12-06T10:01:51.946000+00:00</time>
      </trkpt>
      <trkpt lat="0" lon="0">
        <time>2020-12-06T10:01:51.947000+00:00</time>
      </trkpt>
      <trkpt lat="47.33771" lon="-1.33478">
        <ele>67</ele>
        <time>2020-12-06T10:01:52.864000+00:00</time>
      </trkpt>
      <trkpt lat="0" lon="0">
        <time>2020-12-06T10:01:52.878000+00:00</time>
      </trkpt>
      <trkpt lat="0" lon="0">
        <time>2020-12-06T10:01:52.883000+00:00</time>
      </trkpt>
      <trkpt lat="0" lon="0">
        <time>2020-12-06T10:01:52.884000+00:00</time>
      </trkpt>
      <trkpt lat="47.33769" lon="-1.33482">
        <ele>68</ele>
        <time>2020-12-06T10:01:53.868000+00:00</time>
      </trkpt>
      <trkpt lat="0" lon="0">
        <time>2020-12-06T10:01:53.870000+00:00</time>
      </trkpt>
      <trkpt lat="0" lon="0">
        <time>2020-12-06T10:01:53.880000+00:00</time>
      </trkpt>
      <trkpt lat="0" lon="0">
        <time>2020-12-06T10:01:53.881000+00:00</time>
      </trkpt>
      <trkpt lat="47.33767" lon="-1.33485">
        <ele>68</ele>
        <time>2020-12-06T10:01:54.898000+00:00</time>
      </trkpt>
      <trkpt lat="0" lon="0">
        <time>2020-12-06T10:01:54.912000+00:00</time>
      </trkpt>
      <trkpt lat="0" lon="0">
        <time>2020-12-06T10:01:54.919000+00:00</time>
      </trkpt>
      <trkpt lat="0" lon="0">
        <time>2020-12-06T10:01:54.922000+00:00</time>
      </trkpt>
      <trkpt lat="47.33765" lon="-1.33489">
        <ele>68</ele>
        <time>2020-12-06T10:01:55.876000+00:00</time>
      </trkpt>
      <trkpt lat="0" lon="0">
        <time>2020-12-06T10:01:55.882000+00:00</time>
      </trkpt>
      <trkpt lat="0" lon="0">
        <time>2020-12-06T10:01:55.883000+00:00</time>
      </trkpt>
      <trkpt lat="0" lon="0">
        <time>2020-12-06T10:01:55.884000+00:00</time>
      </trkpt>
      <trkpt lat="47.33764" lon="-1.33492">
        <ele>68</ele>
        <time>2020-12-06T10:01:56.919000+00:00</time>
      </trkpt>
      <trkpt lat="0" lon="0">
        <time>2020-12-06T10:01:56.927000+00:00</time>
      </trkpt>
      <trkpt lat="0" lon="0">
        <time>2020-12-06T10:01:56.934000+00:00</time>
      </trkpt>
      <trkpt lat="0" lon="0">
        <time>2020-12-06T10:01:56.936000+00:00</time>
      </trkpt>
      <trkpt lat="47.33762" lon="-1.33495">
        <ele>68</ele>
        <time>2020-12-06T10:01:57.873000+00:00</time>
      </trkpt>
      <trkpt lat="0" lon="0">
        <time>2020-12-06T10:01:57.883000+00:00</time>
      </trkpt>
      <trkpt lat="0" lon="0">
        <time>2020-12-06T10:01:57.892000+00:00</time>
      </trkpt>
      <trkpt lat="0" lon="0">
        <time>2020-12-06T10:01:57.894000+00:00</time>
      </trkpt>
      <trkpt lat="47.33761" lon="-1.33498">
        <ele>68</ele>
        <time>2020-12-06T10:01:58.879000+00:00</time>
      </trkpt>
      <trkpt lat="0" lon="0">
        <time>2020-12-06T10:01:58.890000+00:00</time>
      </trkpt>
      <trkpt lat="0" lon="0">
        <time>2020-12-06T10:01:58.892000+00:00</time>
      </trkpt>
      <trkpt lat="0" lon="0">
        <time>2020-12-06T10:01:58.893000+00:00</time>
      </trkpt>
      <trkpt lat="47.33759" lon="-1.33501">
        <ele>68</ele>
        <time>2020-12-06T10:01:59.899000+00:00</time>
      </trkpt>
      <trkpt lat="0" lon="0">
        <time>2020-12-06T10:01:59.904000+00:00</time>
      </trkpt>
      <trkpt lat="0" lon="0">
        <time>2020-12-06T10:01:59.909000+00:00</time>
      </trkpt>
      <trkpt lat="0" lon="0">
        <time>2020-12-06T10:01:59.914000+00:00</time>
      </trkpt>
      <trkpt lat="47.33757" lon="-1.33504">
        <ele>69</ele>
        <time>2020-12-06T10:02:00.883000+00:00</time>
      </trkpt>
      <trkpt lat="0" lon="0">
        <time>2020-12-06T10:02:00.887000+00:00</time>
      </trkpt>
      <trkpt lat="0" lon="0">
        <time>2020-12-06T10:02:00.896000+00:00</time>
      </trkpt>
      <trkpt lat="0" lon="0">
        <time>2020-12-06T10:02:00.898000+00:00</time>
      </trkpt>
      <trkpt lat="47.33756" lon="-1.33507">
        <ele>69</ele>
        <time>2020-12-06T10:02:01.898000+00:00</time>
      </trkpt>
      <trkpt lat="0" lon="0">
        <time>2020-12-06T10:02:01.911000+00:00</time>
      </trkpt>
      <trkpt lat="0" lon="0">
        <time>2020-12-06T10:02:01.914000+00:00</time>
      </trkpt>
      <trkpt lat="0" lon="0">
        <time>2020-12-06T10:02:01.916000+00:00</time>
      </trkpt>
      <trkpt lat="47.33754" lon="-1.33509">
        <ele>69</ele>
        <time>2020-12-06T10:02:02.919000+00:00</time>
      </trkpt>
      <trkpt lat="0" lon="0">
        <time>2020-12-06T10:02:02.929000+00:00</time>
      </trkpt>
      <trkpt lat="0" lon="0">
        <time>2020-12-06T10:02:02.932000+00:00</time>
      </trkpt>
      <trkpt lat="0" lon="0">
        <time>2020-12-06T10:02:02.934000+00:00</time>
      </trkpt>
      <trkpt lat="47.33752" lon="-1.33512">
        <ele>69</ele>
        <time>2020-12-06T10:02:03.879000+00:00</time>
      </trkpt>
      <trkpt lat="0" lon="0">
        <time>2020-12-06T10:02:03.897000+00:00</time>
      </trkpt>
      <trkpt lat="0" lon="0">
        <time>2020-12-06T10:02:03.908000+00:00</time>
      </trkpt>
      <trkpt lat="0" lon="0">
        <time>2020-12-06T10:02:03.917000+00:00</time>
      </trkpt>
      <trkpt lat="47.3375" lon="-1.33514">
        <ele>69</ele>
        <time>2020-12-06T10:02:04.894000+00:00</time>
      </trkpt>
      <trkpt lat="0" lon="0">
        <time>2020-12-06T10:02:04.898000+00:00</time>
      </trkpt>
      <trkpt lat="0" lon="0">
        <time>2020-12-06T10:02:04.901000+00:00</time>
      </trkpt>
      <trkpt lat="0" lon="0">
        <time>2020-12-06T10:02:04.909000+00:00</time>
      </trkpt>
      <trkpt lat="47.33748" lon="-1.33516">
        <ele>69</ele>
        <time>2020-12-06T10:02:05.880000+00:00</time>
      </trkpt>
      <trkpt lat="0" lon="0">
        <time>2020-12-06T10:02:05.882000+00:00</time>
      </trkpt>
      <trkpt lat="0" lon="0">
        <time>2020-12-06T10:02:05.884000+00:00</time>
      </trkpt>
      <trkpt lat="47.33746" lon="-1.33518">
        <ele>69</ele>
        <time>2020-12-06T10:02:06.926000+00:00</time>
      </trkpt>
      <trkpt lat="0" lon="0">
        <time>2020-12-06T10:02:06.930000+00:00</time>
      </trkpt>
      <trkpt lat="0" lon="0">
        <time>2020-12-06T10:02:06.931000+00:00</time>
      </trkpt>
      <trkpt lat="0" lon="0">
        <time>2020-12-06T10:02:06.932000+00:00</time>
      </trkpt>
      <trkpt lat="47.33744" lon="-1.3352">
        <ele>69</ele>
        <time>2020-12-06T10:02:07.848000+00:00</time>
      </trkpt>
      <trkpt lat="0" lon="0">
        <time>2020-12-06T10:02:07.856000+00:00</time>
      </trkpt>
      <trkpt lat="0" lon="0">
        <time>2020-12-06T10:02:07.858000+00:00</time>
      </trkpt>
      <trkpt lat="0" lon="0">
        <time>2020-12-06T10:02:07.860000+00:00</time>
      </trkpt>
      <trkpt lat="47.33742" lon="-1.33522">
        <ele>69</ele>
        <time>2020-12-06T10:02:08.904000+00:00</time>
      </trkpt>
      <trkpt lat="0" lon="0">
        <time>2020-12-06T10:02:08.908000+00:00</time>
      </trkpt>
      <trkpt lat="0" lon="0">
        <time>2020-12-06T10:02:08.911000+00:00</time>
      </trkpt>
      <trkpt lat="0" lon="0">
        <time>2020-12-06T10:02:08.912000+00:00</time>
      </trkpt>
      <trkpt lat="47.33739" lon="-1.33524">
        <ele>70</ele>
        <time>2020-12-06T10:02:09.890000+00:00</time>
      </trkpt>
      <trkpt lat="0" lon="0">
        <time>2020-12-06T10:02:09.903000+00:00</time>
      </trkpt>
      <trkpt lat="0" lon="0">
        <time>2020-12-06T10:02:09.907000+00:00</time>
      </trkpt>
      <trkpt lat="0" lon="0">
        <time>2020-12-06T10:02:09.908000+00:00</time>
      </trkpt>
      <trkpt lat="47.33737" lon="-1.33526">
        <ele>70</ele>
        <time>2020-12-06T10:02:10.874000+00:00</time>
      </trkpt>
      <trkpt lat="0" lon="0">
        <time>2020-12-06T10:02:10.886000+00:00</time>
      </trkpt>
      <trkpt lat="0" lon="0">
        <time>2020-12-06T10:02:10.890000+00:00</time>
      </trkpt>
      <trkpt lat="0" lon="0">
        <time>2020-12-06T10:02:10.893000+00:00</time>
      </trkpt>
      <trkpt lat="47.33735" lon="-1.33528">
        <ele>70</ele>
        <time>2020-12-06T10:02:11.918000+00:00</time>
      </trkpt>
      <trkpt lat="0" lon="0">
        <time>2020-12-06T10:02:11.932000+00:00</time>
      </trkpt>
      <trkpt lat="0" lon="0">
        <time>2020-12-06T10:02:11.936000+00:00</time>
      </trkpt>
      <trkpt lat="0" lon="0">
        <time>2020-12-06T10:02:11.939000+00:00</time>
      </trkpt>
      <trkpt lat="47.33733" lon="-1.3353">
        <ele>70</ele>
        <time>2020-12-06T10:02:12.908000+00:00</time>
      </trkpt>
      <trkpt lat="0" lon="0">
        <time>2020-12-06T10:02:12.916000+00:00</time>
      </trkpt>
      <trkpt lat="0" lon="0">
        <time>2020-12-06T10:02:12.923000+00:00</time>
      </trkpt>
      <trkpt lat="0" lon="0">
        <time>2020-12-06T10:02:12.927000+00:00</time>
      </trkpt>
      <trkpt lat="47.3373" lon="-1.33532">
        <ele>70</ele>
        <time>2020-12-06T10:02:13.895000+00:00</time>
      </trkpt>
      <trkpt lat="0" lon="0">
        <time>2020-12-06T10:02:13.912000+00:00</time>
      </trkpt>
      <trkpt lat="0" lon="0">
        <time>2020-12-06T10:02:13.916000+00:00</time>
      </trkpt>
      <trkpt lat="0" lon="0">
        <time>2020-12-06T10:02:13.917000+00:00</time>
      </trkpt>
      <trkpt lat="47.33728" lon="-1.33534">
        <ele>70</ele>
        <time>2020-12-06T10:02:14.868000+00:00</time>
      </trkpt>
      <trkpt lat="0" lon="0">
        <time>2020-12-06T10:02:14.880000+00:00</time>
      </trkpt>
      <trkpt lat="0" lon="0">
        <time>2020-12-06T10:02:14.883000+00:00</time>
      </trkpt>
      <trkpt lat="0" lon="0">
        <time>2020-12-06T10:02:14.886000+00:00</time>
      </trkpt>
      <trkpt lat="47.33726" lon="-1.33536">
        <ele>70</ele>
        <time>2020-12-06T10:02:15.911000+00:00</time>
      </trkpt>
      <trkpt lat="0" lon="0">
        <time>2020-12-06T10:02:15.924000+00:00</time>
      </trkpt>
      <trkpt lat="0" lon="0">
        <time>2020-12-06T10:02:15.927000+00:00</time>
      </trkpt>
      <trkpt lat="0" lon="0">
        <time>2020-12-06T10:02:15.929000+00:00</time>
      </trkpt>
      <trkpt lat="47.33723" lon="-1.33538">
        <ele>70</ele>
        <time>2020-12-06T10:02:16.905000+00:00</time>
      </trkpt>
      <trkpt lat="0" lon="0">
        <time>2020-12-06T10:02:16.908000+00:00</time>
      </trkpt>
      <trkpt lat="0" lon="0">
        <time>2020-12-06T10:02:16.913000+00:00</time>
      </trkpt>
      <trkpt lat="0" lon="0">
        <time>2020-12-06T10:02:16.914000+00:00</time>
      </trkpt>
      <trkpt lat="47.33721" lon="-1.3354">
        <ele>70</ele>
        <time>2020-12-06T10:02:17.901000+00:00</time>
      </trkpt>
      <trkpt lat="0" lon="0">
        <time>2020-12-06T10:02:17.913000+00:00</time>
      </trkpt>
      <trkpt lat="0" lon="0">
        <time>2020-12-06T10:02:17.915000+00:00</time>
      </trkpt>
      <trkpt lat="0" lon="0">
        <time>2020-12-06T10:02:17.917000+00:00</time>
      </trkpt>
      <trkpt lat="47.33718" lon="-1.33542">
        <ele>70</ele>
        <time>2020-12-06T10:02:18.932000+00:00</time>
      </trkpt>
      <trkpt lat="0" lon="0">
        <time>2020-12-06T10:02:18.939000+00:00</time>
      </trkpt>
      <trkpt lat="0" lon="0">
        <time>2020-12-06T10:02:18.941000+00:00</time>
      </trkpt>
      <trkpt lat="0" lon="0">
        <time>2020-12-06T10:02:18.942000+00:00</time>
      </trkpt>
      <trkpt lat="47.33715" lon="-1.33544">
        <ele>70</ele>
        <time>2020-12-06T10:02:19.924000+00:00</time>
      </trkpt>
      <trkpt lat="0" lon="0">
        <time>2020-12-06T10:02:19.931000+00:00</time>
      </trkpt>
      <trkpt lat="0" lon="0">
        <time>2020-12-06T10:02:19.936000+00:00</time>
      </trkpt>
      <trkpt lat="0" lon="0">
        <time>2020-12-06T10:02:19.940000+00:00</time>
      </trkpt>
      <trkpt lat="47.33712" lon="-1.33546">
        <ele>71</ele>
        <time>2020-12-06T10:02:20.933000+00:00</time>
      </trkpt>
      <trkpt lat="0" lon="0">
        <time>2020-12-06T10:02:20.940000+00:00</time>
      </trkpt>
      <trkpt lat="0" lon="0">
        <time>2020-12-06T10:02:20.944000+00:00</time>
      </trkpt>
      <trkpt lat="0" lon="0">
        <time>2020-12-06T10:02:20.947000+00:00</time>
      </trkpt>
      <trkpt lat="47.33709" lon="-1.33548">
        <ele>71</ele>
        <time>2020-12-06T10:02:21.953000+00:00</time>
      </trkpt>
      <trkpt lat="0" lon="0">
        <time>2020-12-06T10:02:21.961000+00:00</time>
      </trkpt>
      <trkpt lat="0" lon="0">
        <time>2020-12-06T10:02:21.966000+00:00</time>
      </trkpt>
      <trkpt lat="0" lon="0">
        <time>2020-12-06T10:02:21.971000+00:00</time>
      </trkpt>
      <trkpt lat="47.33707" lon="-1.3355">
        <ele>71</ele>
        <time>2020-12-06T10:02:22.923000+00:00</time>
      </trkpt>
      <trkpt lat="0" lon="0">
        <time>2020-12-06T10:02:22.934000+00:00</time>
      </trkpt>
      <trkpt lat="0" lon="0">
        <time>2020-12-06T10:02:22.935000+00:00</time>
      </trkpt>
      <trkpt lat="0" lon="0">
        <time>2020-12-06T10:02:22.936000+00:00</time>
      </trkpt>
      <trkpt lat="47.33704" lon="-1.33553">
        <ele>71</ele>
        <time>2020-12-06T10:02:23.919000+00:00</time>
      </trkpt>
      <trkpt lat="0" lon="0">
        <time>2020-12-06T10:02:23.926000+00:00</time>
      </trkpt>
      <trkpt lat="0" lon="0">
        <time>2020-12-06T10:02:23.939000+00:00</time>
      </trkpt>
      <trkpt lat="0" lon="0">
        <time>2020-12-06T10:02:23.941000+00:00</time>
      </trkpt>
      <trkpt lat="47.33701" lon="-1.33555">
        <ele>71</ele>
        <time>2020-12-06T10:02:24.918000+00:00</time>
      </trkpt>
      <trkpt lat="0" lon="0">
        <time>2020-12-06T10:02:24.925000+00:00</time>
      </trkpt>
      <trkpt lat="0" lon="0">
        <time>2020-12-06T10:02:24.928000+00:00</time>
      </trkpt>
      <trkpt lat="0" lon="0">
        <time>2020-12-06T10:02:24.931000+00:00</time>
      </trkpt>
      <trkpt lat="47.33698" lon="-1.33557">
        <ele>71</ele>
        <time>2020-12-06T10:02:25.931000+00:00</time>
      </trkpt>
      <trkpt lat="0" lon="0">
        <time>2020-12-06T10:02:25.938000+00:00</time>
      </trkpt>
      <trkpt lat="0" lon="0">
        <time>2020-12-06T10:02:25.944000+00:00</time>
      </trkpt>
      <trkpt lat="0" lon="0">
        <time>2020-12-06T10:02:25.946000+00:00</time>
      </trkpt>
      <trkpt lat="47.33695" lon="-1.33559">
        <ele>71</ele>
        <time>2020-12-06T10:02:26.915000+00:00</time>
      </trkpt>
      <trkpt lat="0" lon="0">
        <time>2020-12-06T10:02:26.921000+00:00</time>
      </trkpt>
      <trkpt lat="0" lon="0">
        <time>2020-12-06T10:02:26.928000+00:00</time>
      </trkpt>
      <trkpt lat="0" lon="0">
        <time>2020-12-06T10:02:26.931000+00:00</time>
      </trkpt>
      <trkpt lat="47.33692" lon="-1.33562">
        <ele>71</ele>
        <time>2020-12-06T10:02:27.895000+00:00</time>
      </trkpt>
      <trkpt lat="0" lon="0">
        <time>2020-12-06T10:02:27.898000+00:00</time>
      </trkpt>
      <trkpt lat="0" lon="0">
        <time>2020-12-06T10:02:27.907000+00:00</time>
      </trkpt>
      <trkpt lat="0" lon="0">
        <time>2020-12-06T10:02:27.909000+00:00</time>
      </trkpt>
      <trkpt lat="47.33689" lon="-1.33565">
        <ele>71</ele>
        <time>2020-12-06T10:02:28.962000+00:00</time>
      </trkpt>
      <trkpt lat="0" lon="0">
        <time>2020-12-06T10:02:28.964000+00:00</time>
      </trkpt>
      <trkpt lat="0" lon="0">
        <time>2020-12-06T10:02:28.966000+00:00</time>
      </trkpt>
      <trkpt lat="0" lon="0">
        <time>2020-12-06T10:02:28.967000+00:00</time>
      </trkpt>
      <trkpt lat="47.33686" lon="-1.33568">
        <ele>71</ele>
        <time>2020-12-06T10:02:29.945000+00:00</time>
      </trkpt>
      <trkpt lat="0" lon="0">
        <time>2020-12-06T10:02:29.959000+00:00</time>
      </trkpt>
      <trkpt lat="0" lon="0">
        <time>2020-12-06T10:02:29.964000+00:00</time>
      </trkpt>
      <trkpt lat="0" lon="0">
        <time>2020-12-06T10:02:29.967000+00:00</time>
      </trkpt>
      <trkpt lat="47.33683" lon="-1.33571">
        <ele>71</ele>
        <time>2020-12-06T10:02:30.881000+00:00</time>
      </trkpt>
      <trkpt lat="0" lon="0">
        <time>2020-12-06T10:02:30.884000+00:00</time>
      </trkpt>
      <trkpt lat="0" lon="0">
        <time>2020-12-06T10:02:30.886000+00:00</time>
      </trkpt>
      <trkpt lat="47.3368" lon="-1.33574">
        <ele>71</ele>
        <time>2020-12-06T10:02:31.945000+00:00</time>
      </trkpt>
      <trkpt lat="0" lon="0">
        <time>2020-12-06T10:02:31.949000+00:00</time>
      </trkpt>
      <trkpt lat="0" lon="0">
        <time>2020-12-06T10:02:31.960000+00:00</time>
      </trkpt>
      <trkpt lat="0" lon="0">
        <time>2020-12-06T10:02:31.962000+00:00</time>
      </trkpt>
      <trkpt lat="47.33677" lon="-1.33577">
        <ele>71</ele>
        <time>2020-12-06T10:02:32.899000+00:00</time>
      </trkpt>
      <trkpt lat="0" lon="0">
        <time>2020-12-06T10:02:32.902000+00:00</time>
      </trkpt>
      <trkpt lat="0" lon="0">
        <time>2020-12-06T10:02:32.905000+00:00</time>
      </trkpt>
      <trkpt lat="0" lon="0">
        <time>2020-12-06T10:02:32.911000+00:00</time>
      </trkpt>
      <trkpt lat="47.33674" lon="-1.33581">
        <ele>71</ele>
        <time>2020-12-06T10:02:33.859000+00:00</time>
      </trkpt>
      <trkpt lat="0" lon="0">
        <time>2020-12-06T10:02:33.862000+00:00</time>
      </trkpt>
      <trkpt lat="0" lon="0">
        <time>2020-12-06T10:02:33.865000+00:00</time>
      </trkpt>
      <trkpt lat="0" lon="0">
        <time>2020-12-06T10:02:33.868000+00:00</time>
      </trkpt>
      <trkpt lat="47.33671" lon="-1.33584">
        <ele>72</ele>
        <time>2020-12-06T10:02:34.866000+00:00</time>
      </trkpt>
      <trkpt lat="0" lon="0">
        <time>2020-12-06T10:02:34.877000+00:00</time>
      </trkpt>
      <trkpt lat="0" lon="0">
        <time>2020-12-06T10:02:34.884000+00:00</time>
      </trkpt>
      <trkpt lat="0" lon="0">
        <time>2020-12-06T10:02:34.885000+00:00</time>
      </trkpt>
      <trkpt lat="47.33668" lon="-1.33588">
        <ele>72</ele>
        <time>2020-12-06T10:02:35.990000+00:00</time>
      </trkpt>
      <trkpt lat="0" lon="0">
        <time>2020-12-06T10:02:36.002000+00:00</time>
      </trkpt>
      <trkpt lat="0" lon="0">
        <time>2020-12-06T10:02:36.008000+00:00</time>
      </trkpt>
      <trkpt lat="0" lon="0">
        <time>2020-12-06T10:02:36.011000+00:00</time>
      </trkpt>
      <trkpt lat="47.33666" lon="-1.33592">
        <ele>72</ele>
        <time>2020-12-06T10:02:36.983000+00:00</time>
      </trkpt>
      <trkpt lat="0" lon="0">
        <time>2020-12-06T10:02:36.997000+00:00</time>
      </trkpt>
      <trkpt lat="0" lon="0">
        <time>2020-12-06T10:02:37.001000+00:00</time>
      </trkpt>
      <trkpt lat="0" lon="0">
        <time>2020-12-06T10:02:37.003000+00:00</time>
      </trkpt>
      <trkpt lat="47.33663" lon="-1.33596">
        <ele>72</ele>
        <time>2020-12-06T10:02:37.963000+00:00</time>
      </trkpt>
      <trkpt lat="0" lon="0">
        <time>2020-12-06T10:02:37.980000+00:00</time>
      </trkpt>
      <trkpt lat="0" lon="0">
        <time>2020-12-06T10:02:37.984000+00:00</time>
      </trkpt>
      <trkpt lat="0" lon="0">
        <time>2020-12-06T10:02:37.986000+00:00</time>
      </trkpt>
      <trkpt lat="47.3366" lon="-1.33601">
        <ele>71</ele>
        <time>2020-12-06T10:02:38.978000+00:00</time>
      </trkpt>
      <trkpt lat="0" lon="0">
        <time>2020-12-06T10:02:38.996000+00:00</time>
      </trkpt>
      <trkpt lat="0" lon="0">
        <time>2020-12-06T10:02:39+00:00</time>
      </trkpt>
      <trkpt lat="0" lon="0">
        <time>2020-12-06T10:02:39.002000+00:00</time>
      </trkpt>
      <trkpt lat="47.33657" lon="-1.33605">
        <ele>71</ele>
        <time>2020-12-06T10:02:39.962000+00:00</time>
      </trkpt>
      <trkpt lat="0" lon="0">
        <time>2020-12-06T10:02:39.964000+00:00</time>
      </trkpt>
      <trkpt lat="0" lon="0">
        <time>2020-12-06T10:02:39.965000+00:00</time>
      </trkpt>
      <trkpt lat="0" lon="0">
        <time>2020-12-06T10:02:39.966000+00:00</time>
      </trkpt>
      <trkpt lat="47.33655" lon="-1.3361">
        <ele>71</ele>
        <time>2020-12-06T10:02:40.983000+00:00</time>
      </trkpt>
      <trkpt lat="0" lon="0">
        <time>2020-12-06T10:02:40.991000+00:00</time>
      </trkpt>
      <trkpt lat="0" lon="0">
        <time>2020-12-06T10:02:40.995000+00:00</time>
      </trkpt>
      <trkpt lat="0" lon="0">
        <time>2020-12-06T10:02:40.997000+00:00</time>
      </trkpt>
      <trkpt lat="47.33652" lon="-1.33615">
        <ele>71</ele>
        <time>2020-12-06T10:02:41.964000+00:00</time>
      </trkpt>
      <trkpt lat="0" lon="0">
        <time>2020-12-06T10:02:41.979000+00:00</time>
      </trkpt>
      <trkpt lat="0" lon="0">
        <time>2020-12-06T10:02:41.980000+00:00</time>
      </trkpt>
      <trkpt lat="0" lon="0">
        <time>2020-12-06T10:02:41.981000+00:00</time>
      </trkpt>
      <trkpt lat="47.33649" lon="-1.3362">
        <ele>71</ele>
        <time>2020-12-06T10:02:42.940000+00:00</time>
      </trkpt>
      <trkpt lat="0" lon="0">
        <time>2020-12-06T10:02:42.953000+00:00</time>
      </trkpt>
      <trkpt lat="0" lon="0">
        <time>2020-12-06T10:02:42.956000+00:00</time>
      </trkpt>
      <trkpt lat="0" lon="0">
        <time>2020-12-06T10:02:42.966000+00:00</time>
      </trkpt>
      <trkpt lat="47.33646" lon="-1.33625">
        <ele>71</ele>
        <time>2020-12-06T10:02:43.866000+00:00</time>
      </trkpt>
      <trkpt lat="0" lon="0">
        <time>2020-12-06T10:02:43.871000+00:00</time>
      </trkpt>
      <trkpt lat="0" lon="0">
        <time>2020-12-06T10:02:43.873000+00:00</time>
      </trkpt>
      <trkpt lat="0" lon="0">
        <time>2020-12-06T10:02:43.874000+00:00</time>
      </trkpt>
      <trkpt lat="47.33644" lon="-1.33631">
        <ele>71</ele>
        <time>2020-12-06T10:02:44.901000+00:00</time>
      </trkpt>
      <trkpt lat="0" lon="0">
        <time>2020-12-06T10:02:44.904000+00:00</time>
      </trkpt>
      <trkpt lat="0" lon="0">
        <time>2020-12-06T10:02:44.910000+00:00</time>
      </trkpt>
      <trkpt lat="0" lon="0">
        <time>2020-12-06T10:02:44.912000+00:00</time>
      </trkpt>
      <trkpt lat="47.33641" lon="-1.33636">
        <ele>71</ele>
        <time>2020-12-06T10:02:46.011000+00:00</time>
      </trkpt>
      <trkpt lat="0" lon="0">
        <time>2020-12-06T10:02:46.013000+00:00</time>
      </trkpt>
      <trkpt lat="0" lon="0">
        <time>2020-12-06T10:02:46.018000+00:00</time>
      </trkpt>
      <trkpt lat="0" lon="0">
        <time>2020-12-06T10:02:46.020000+00:00</time>
      </trkpt>
      <trkpt lat="47.33638" lon="-1.33641">
        <ele>71</ele>
        <time>2020-12-06T10:02:46.948000+00:00</time>
      </trkpt>
      <trkpt lat="0" lon="0">
        <time>2020-12-06T10:02:46.951000+00:00</time>
      </trkpt>
      <trkpt lat="0" lon="0">
        <time>2020-12-06T10:02:46.956000+00:00</time>
      </trkpt>
      <trkpt lat="0" lon="0">
        <time>2020-12-06T10:02:46.958000+00:00</time>
      </trkpt>
      <trkpt lat="47.33635" lon="-1.33646">
        <ele>71</ele>
        <time>2020-12-06T10:02:47.964000+00:00</time>
      </trkpt>
      <trkpt lat="0" lon="0">
        <time>2020-12-06T10:02:47.968000+00:00</time>
      </trkpt>
      <trkpt lat="0" lon="0">
        <time>2020-12-06T10:02:47.971000+00:00</time>
      </trkpt>
      <trkpt lat="0" lon="0">
        <time>2020-12-06T10:02:47.975000+00:00</time>
      </trkpt>
      <trkpt lat="47.33633" lon="-1.33651">
        <ele>71</ele>
        <time>2020-12-06T10:02:48.959000+00:00</time>
      </trkpt>
      <trkpt lat="0" lon="0">
        <time>2020-12-06T10:02:48.972000+00:00</time>
      </trkpt>
      <trkpt lat="0" lon="0">
        <time>2020-12-06T10:02:48.977000+00:00</time>
      </trkpt>
      <trkpt lat="0" lon="0">
        <time>2020-12-06T10:02:48.981000+00:00</time>
      </trkpt>
      <trkpt lat="47.3363" lon="-1.33656">
        <ele>71</ele>
        <time>2020-12-06T10:02:49.945000+00:00</time>
      </trkpt>
      <trkpt lat="0" lon="0">
        <time>2020-12-06T10:02:49.956000+00:00</time>
      </trkpt>
      <trkpt lat="0" lon="0">
        <time>2020-12-06T10:02:49.961000+00:00</time>
      </trkpt>
      <trkpt lat="0" lon="0">
        <time>2020-12-06T10:02:49.966000+00:00</time>
      </trkpt>
      <trkpt lat="47.33627" lon="-1.33662">
        <ele>71</ele>
        <time>2020-12-06T10:02:50.984000+00:00</time>
      </trkpt>
      <trkpt lat="0" lon="0">
        <time>2020-12-06T10:02:50.988000+00:00</time>
      </trkpt>
      <trkpt lat="0" lon="0">
        <time>2020-12-06T10:02:50.992000+00:00</time>
      </trkpt>
      <trkpt lat="0" lon="0">
        <time>2020-12-06T10:02:50.994000+00:00</time>
      </trkpt>
      <trkpt lat="47.33624" lon="-1.33667">
        <ele>70</ele>
        <time>2020-12-06T10:02:51.993000+00:00</time>
      </trkpt>
      <trkpt lat="0" lon="0">
        <time>2020-12-06T10:02:51.995000+00:00</time>
      </trkpt>
      <trkpt lat="0" lon="0">
        <time>2020-12-06T10:02:51.997000+00:00</time>
      </trkpt>
      <trkpt lat="0" lon="0">
        <time>2020-12-06T10:02:52.003000+00:00</time>
      </trkpt>
      <trkpt lat="47.3362" lon="-1.33672">
        <ele>70</ele>
        <time>2020-12-06T10:02:52.990000+00:00</time>
      </trkpt>
      <trkpt lat="0" lon="0">
        <time>2020-12-06T10:02:52.996000+00:00</time>
      </trkpt>
      <trkpt lat="0" lon="0">
        <time>2020-12-06T10:02:52.997000+00:00</time>
      </trkpt>
      <trkpt lat="47.33617" lon="-1.33677">
        <ele>70</ele>
        <time>2020-12-06T10:02:53.954000+00:00</time>
      </trkpt>
      <trkpt lat="0" lon="0">
        <time>2020-12-06T10:02:53.970000+00:00</time>
      </trkpt>
      <trkpt lat="0" lon="0">
        <time>2020-12-06T10:02:53.975000+00:00</time>
      </trkpt>
      <trkpt lat="0" lon="0">
        <time>2020-12-06T10:02:53.979000+00:00</time>
      </trkpt>
      <trkpt lat="47.33614" lon="-1.33683">
        <ele>70</ele>
        <time>2020-12-06T10:02:54.896000+00:00</time>
      </trkpt>
      <trkpt lat="0" lon="0">
        <time>2020-12-06T10:02:54.905000+00:00</time>
      </trkpt>
      <trkpt lat="0" lon="0">
        <time>2020-12-06T10:02:54.912000+00:00</time>
      </trkpt>
      <trkpt lat="0" lon="0">
        <time>2020-12-06T10:02:54.914000+00:00</time>
      </trkpt>
      <trkpt lat="47.33612" lon="-1.33688">
        <ele>70</ele>
        <time>2020-12-06T10:02:55.836000+00:00</time>
      </trkpt>
      <trkpt lat="0" lon="0">
        <time>2020-12-06T10:02:55.847000+00:00</time>
      </trkpt>
      <trkpt lat="0" lon="0">
        <time>2020-12-06T10:02:55.850000+00:00</time>
      </trkpt>
      <trkpt lat="0" lon="0">
        <time>2020-12-06T10:02:55.852000+00:00</time>
      </trkpt>
      <trkpt lat="47.33609" lon="-1.33693">
        <ele>70</ele>
        <time>2020-12-06T10:02:56.875000+00:00</time>
      </trkpt>
      <trkpt lat="0" lon="0">
        <time>2020-12-06T10:02:56.884000+00:00</time>
      </trkpt>
      <trkpt lat="0" lon="0">
        <time>2020-12-06T10:02:56.889000+00:00</time>
      </trkpt>
      <trkpt lat="0" lon="0">
        <time>2020-12-06T10:02:56.890000+00:00</time>
      </trkpt>
      <trkpt lat="47.33607" lon="-1.33698">
        <ele>70</ele>
        <time>2020-12-06T10:02:57.911000+00:00</time>
      </trkpt>
      <trkpt lat="0" lon="0">
        <time>2020-12-06T10:02:57.914000+00:00</time>
      </trkpt>
      <trkpt lat="0" lon="0">
        <time>2020-12-06T10:02:57.920000+00:00</time>
      </trkpt>
      <trkpt lat="0" lon="0">
        <time>2020-12-06T10:02:57.921000+00:00</time>
      </trkpt>
      <trkpt lat="47.33605" lon="-1.33703">
        <ele>70</ele>
        <time>2020-12-06T10:02:58.948000+00:00</time>
      </trkpt>
      <trkpt lat="0" lon="0">
        <time>2020-12-06T10:02:58.951000+00:00</time>
      </trkpt>
      <trkpt lat="0" lon="0">
        <time>2020-12-06T10:02:58.954000+00:00</time>
      </trkpt>
      <trkpt lat="0" lon="0">
        <time>2020-12-06T10:02:58.956000+00:00</time>
      </trkpt>
      <trkpt lat="47.33603" lon="-1.33708">
        <ele>70</ele>
        <time>2020-12-06T10:02:59.926000+00:00</time>
      </trkpt>
      <trkpt lat="0" lon="0">
        <time>2020-12-06T10:02:59.943000+00:00</time>
      </trkpt>
      <trkpt lat="0" lon="0">
        <time>2020-12-06T10:02:59.952000+00:00</time>
      </trkpt>
      <trkpt lat="0" lon="0">
        <time>2020-12-06T10:02:59.954000+00:00</time>
      </trkpt>
      <trkpt lat="47.336" lon="-1.33713">
        <ele>70</ele>
        <time>2020-12-06T10:03:00.918000+00:00</time>
      </trkpt>
      <trkpt lat="0" lon="0">
        <time>2020-12-06T10:03:00.923000+00:00</time>
      </trkpt>
      <trkpt lat="0" lon="0">
        <time>2020-12-06T10:03:00.932000+00:00</time>
      </trkpt>
      <trkpt lat="0" lon="0">
        <time>2020-12-06T10:03:00.934000+00:00</time>
      </trkpt>
      <trkpt lat="47.33598" lon="-1.33718">
        <ele>70</ele>
        <time>2020-12-06T10:03:01.920000+00:00</time>
      </trkpt>
      <trkpt lat="0" lon="0">
        <time>2020-12-06T10:03:01.939000+00:00</time>
      </trkpt>
      <trkpt lat="0" lon="0">
        <time>2020-12-06T10:03:01.948000+00:00</time>
      </trkpt>
      <trkpt lat="0" lon="0">
        <time>2020-12-06T10:03:01.950000+00:00</time>
      </trkpt>
      <trkpt lat="47.33595" lon="-1.33723">
        <ele>70</ele>
        <time>2020-12-06T10:03:02.899000+00:00</time>
      </trkpt>
      <trkpt lat="0" lon="0">
        <time>2020-12-06T10:03:02.917000+00:00</time>
      </trkpt>
      <trkpt lat="0" lon="0">
        <time>2020-12-06T10:03:02.924000+00:00</time>
      </trkpt>
      <trkpt lat="0" lon="0">
        <time>2020-12-06T10:03:02.926000+00:00</time>
      </trkpt>
      <trkpt lat="47.33592" lon="-1.33728">
        <ele>70</ele>
        <time>2020-12-06T10:03:03.932000+00:00</time>
      </trkpt>
      <trkpt lat="0" lon="0">
        <time>2020-12-06T10:03:03.938000+00:00</time>
      </trkpt>
      <trkpt lat="0" lon="0">
        <time>2020-12-06T10:03:03.942000+00:00</time>
      </trkpt>
      <trkpt lat="0" lon="0">
        <time>2020-12-06T10:03:03.944000+00:00</time>
      </trkpt>
      <trkpt lat="47.33588" lon="-1.33733">
        <ele>70</ele>
        <time>2020-12-06T10:03:04.925000+00:00</time>
      </trkpt>
      <trkpt lat="0" lon="0">
        <time>2020-12-06T10:03:04.928000+00:00</time>
      </trkpt>
      <trkpt lat="0" lon="0">
        <time>2020-12-06T10:03:04.942000+00:00</time>
      </trkpt>
      <trkpt lat="0" lon="0">
        <time>2020-12-06T10:03:04.954000+00:00</time>
      </trkpt>
      <trkpt lat="47.33584" lon="-1.33738">
        <ele>70</ele>
        <time>2020-12-06T10:03:05.936000+00:00</time>
      </trkpt>
      <trkpt lat="0" lon="0">
        <time>2020-12-06T10:03:05.942000+00:00</time>
      </trkpt>
      <trkpt lat="0" lon="0">
        <time>2020-12-06T10:03:05.949000+00:00</time>
      </trkpt>
      <trkpt lat="0" lon="0">
        <time>2020-12-06T10:03:05.951000+00:00</time>
      </trkpt>
      <trkpt lat="47.33581" lon="-1.33742">
        <ele>70</ele>
        <time>2020-12-06T10:03:06.925000+00:00</time>
      </trkpt>
      <trkpt lat="0" lon="0">
        <time>2020-12-06T10:03:06.937000+00:00</time>
      </trkpt>
      <trkpt lat="0" lon="0">
        <time>2020-12-06T10:03:06.939000+00:00</time>
      </trkpt>
      <trkpt lat="0" lon="0">
        <time>2020-12-06T10:03:06.940000+00:00</time>
      </trkpt>
      <trkpt lat="47.33577" lon="-1.33747">
        <ele>70</ele>
        <time>2020-12-06T10:03:07.887000+00:00</time>
      </trkpt>
      <trkpt lat="0" lon="0">
        <time>2020-12-06T10:03:07.905000+00:00</time>
      </trkpt>
      <trkpt lat="0" lon="0">
        <time>2020-12-06T10:03:07.917000+00:00</time>
      </trkpt>
      <trkpt lat="0" lon="0">
        <time>2020-12-06T10:03:07.919000+00:00</time>
      </trkpt>
      <trkpt lat="47.33572" lon="-1.33752">
        <ele>70</ele>
        <time>2020-12-06T10:03:08.953000+00:00</time>
      </trkpt>
      <trkpt lat="0" lon="0">
        <time>2020-12-06T10:03:08.956000+00:00</time>
      </trkpt>
      <trkpt lat="0" lon="0">
        <time>2020-12-06T10:03:08.960000+00:00</time>
      </trkpt>
      <trkpt lat="0" lon="0">
        <time>2020-12-06T10:03:08.962000+00:00</time>
      </trkpt>
      <trkpt lat="47.33568" lon="-1.33756">
        <ele>70</ele>
        <time>2020-12-06T10:03:09.974000+00:00</time>
      </trkpt>
      <trkpt lat="0" lon="0">
        <time>2020-12-06T10:03:09.976000+00:00</time>
      </trkpt>
      <trkpt lat="0" lon="0">
        <time>2020-12-06T10:03:09.979000+00:00</time>
      </trkpt>
      <trkpt lat="0" lon="0">
        <time>2020-12-06T10:03:09.986000+00:00</time>
      </trkpt>
      <trkpt lat="47.33564" lon="-1.33761">
        <ele>69</ele>
        <time>2020-12-06T10:03:10.928000+00:00</time>
      </trkpt>
      <trkpt lat="0" lon="0">
        <time>2020-12-06T10:03:10.932000+00:00</time>
      </trkpt>
      <trkpt lat="0" lon="0">
        <time>2020-12-06T10:03:10.940000+00:00</time>
      </trkpt>
      <trkpt lat="0" lon="0">
        <time>2020-12-06T10:03:10.944000+00:00</time>
      </trkpt>
      <trkpt lat="47.33559" lon="-1.33766">
        <ele>69</ele>
        <time>2020-12-06T10:03:11.958000+00:00</time>
      </trkpt>
      <trkpt lat="0" lon="0">
        <time>2020-12-06T10:03:11.966000+00:00</time>
      </trkpt>
      <trkpt lat="0" lon="0">
        <time>2020-12-06T10:03:11.971000+00:00</time>
      </trkpt>
      <trkpt lat="0" lon="0">
        <time>2020-12-06T10:03:11.974000+00:00</time>
      </trkpt>
      <trkpt lat="47.33554" lon="-1.33771">
        <ele>69</ele>
        <time>2020-12-06T10:03:12.958000+00:00</time>
      </trkpt>
      <trkpt lat="0" lon="0">
        <time>2020-12-06T10:03:12.965000+00:00</time>
      </trkpt>
      <trkpt lat="0" lon="0">
        <time>2020-12-06T10:03:12.968000+00:00</time>
      </trkpt>
      <trkpt lat="0" lon="0">
        <time>2020-12-06T10:03:12.972000+00:00</time>
      </trkpt>
      <trkpt lat="47.33549" lon="-1.33776">
        <ele>68</ele>
        <time>2020-12-06T10:03:13.893000+00:00</time>
      </trkpt>
      <trkpt lat="0" lon="0">
        <time>2020-12-06T10:03:13.896000+00:00</time>
      </trkpt>
      <trkpt lat="0" lon="0">
        <time>2020-12-06T10:03:13.897000+00:00</time>
      </trkpt>
      <trkpt lat="0" lon="0">
        <time>2020-12-06T10:03:13.898000+00:00</time>
      </trkpt>
      <trkpt lat="47.33545" lon="-1.33781">
        <ele>68</ele>
        <time>2020-12-06T10:03:14.933000+00:00</time>
      </trkpt>
      <trkpt lat="0" lon="0">
        <time>2020-12-06T10:03:14.942000+00:00</time>
      </trkpt>
      <trkpt lat="0" lon="0">
        <time>2020-12-06T10:03:14.946000+00:00</time>
      </trkpt>
      <trkpt lat="0" lon="0">
        <time>2020-12-06T10:03:14.947000+00:00</time>
      </trkpt>
      <trkpt lat="47.3354" lon="-1.33786">
        <ele>68</ele>
        <time>2020-12-06T10:03:15.950000+00:00</time>
      </trkpt>
      <trkpt lat="0" lon="0">
        <time>2020-12-06T10:03:15.955000+00:00</time>
      </trkpt>
      <trkpt lat="0" lon="0">
        <time>2020-12-06T10:03:15.964000+00:00</time>
      </trkpt>
      <trkpt lat="0" lon="0">
        <time>2020-12-06T10:03:15.967000+00:00</time>
      </trkpt>
      <trkpt lat="47.33535" lon="-1.33791">
        <ele>68</ele>
        <time>2020-12-06T10:03:16.983000+00:00</time>
      </trkpt>
      <trkpt lat="0" lon="0">
        <time>2020-12-06T10:03:16.986000+00:00</time>
      </trkpt>
      <trkpt lat="0" lon="0">
        <time>2020-12-06T10:03:16.990000+00:00</time>
      </trkpt>
      <trkpt lat="0" lon="0">
        <time>2020-12-06T10:03:16.992000+00:00</time>
      </trkpt>
      <trkpt lat="47.33529" lon="-1.33797">
        <ele>67</ele>
        <time>2020-12-06T10:03:17.946000+00:00</time>
      </trkpt>
      <trkpt lat="0" lon="0">
        <time>2020-12-06T10:03:17.963000+00:00</time>
      </trkpt>
      <trkpt lat="0" lon="0">
        <time>2020-12-06T10:03:17.966000+00:00</time>
      </trkpt>
      <trkpt lat="0" lon="0">
        <time>2020-12-06T10:03:17.967000+00:00</time>
      </trkpt>
      <trkpt lat="47.33524" lon="-1.33803">
        <ele>67</ele>
        <time>2020-12-06T10:03:18.947000+00:00</time>
      </trkpt>
      <trkpt lat="0" lon="0">
        <time>2020-12-06T10:03:18.963000+00:00</time>
      </trkpt>
      <trkpt lat="0" lon="0">
        <time>2020-12-06T10:03:18.968000+00:00</time>
      </trkpt>
      <trkpt lat="0" lon="0">
        <time>2020-12-06T10:03:18.970000+00:00</time>
      </trkpt>
      <trkpt lat="47.33519" lon="-1.3381">
        <ele>67</ele>
        <time>2020-12-06T10:03:19.954000+00:00</time>
      </trkpt>
      <trkpt lat="0" lon="0">
        <time>2020-12-06T10:03:19.964000+00:00</time>
      </trkpt>
      <trkpt lat="0" lon="0">
        <time>2020-12-06T10:03:19.968000+00:00</time>
      </trkpt>
      <trkpt lat="0" lon="0">
        <time>2020-12-06T10:03:19.969000+00:00</time>
      </trkpt>
      <trkpt lat="47.33514" lon="-1.33817">
        <ele>67</ele>
        <time>2020-12-06T10:03:20.973000+00:00</time>
      </trkpt>
      <trkpt lat="0" lon="0">
        <time>2020-12-06T10:03:20.975000+00:00</time>
      </trkpt>
      <trkpt lat="0" lon="0">
        <time>2020-12-06T10:03:20.978000+00:00</time>
      </trkpt>
      <trkpt lat="0" lon="0">
        <time>2020-12-06T10:03:20.979000+00:00</time>
      </trkpt>
      <trkpt lat="47.33509" lon="-1.33824">
        <ele>67</ele>
        <time>2020-12-06T10:03:21.960000+00:00</time>
      </trkpt>
      <trkpt lat="0" lon="0">
        <time>2020-12-06T10:03:21.964000+00:00</time>
      </trkpt>
      <trkpt lat="0" lon="0">
        <time>2020-12-06T10:03:21.968000+00:00</time>
      </trkpt>
      <trkpt lat="0" lon="0">
        <time>2020-12-06T10:03:21.973000+00:00</time>
      </trkpt>
      <trkpt lat="47.33504" lon="-1.33832">
        <ele>67</ele>
        <time>2020-12-06T10:03:23.027000+00:00</time>
      </trkpt>
      <trkpt lat="0" lon="0">
        <time>2020-12-06T10:03:23.031000+00:00</time>
      </trkpt>
      <trkpt lat="0" lon="0">
        <time>2020-12-06T10:03:23.035000+00:00</time>
      </trkpt>
      <trkpt lat="0" lon="0">
        <time>2020-12-06T10:03:23.037000+00:00</time>
      </trkpt>
      <trkpt lat="47.33499" lon="-1.3384">
        <ele>67</ele>
        <time>2020-12-06T10:03:23.983000+00:00</time>
      </trkpt>
      <trkpt lat="0" lon="0">
        <time>2020-12-06T10:03:23.987000+00:00</time>
      </trkpt>
      <trkpt lat="0" lon="0">
        <time>2020-12-06T10:03:23.996000+00:00</time>
      </trkpt>
      <trkpt lat="0" lon="0">
        <time>2020-12-06T10:03:23.999000+00:00</time>
      </trkpt>
      <trkpt lat="47.33494" lon="-1.33849">
        <ele>67</ele>
        <time>2020-12-06T10:03:24.954000+00:00</time>
      </trkpt>
      <trkpt lat="0" lon="0">
        <time>2020-12-06T10:03:24.962000+00:00</time>
      </trkpt>
      <trkpt lat="0" lon="0">
        <time>2020-12-06T10:03:24.969000+00:00</time>
      </trkpt>
      <trkpt lat="0" lon="0">
        <time>2020-12-06T10:03:24.970000+00:00</time>
      </trkpt>
      <trkpt lat="47.33489" lon="-1.33857">
        <ele>67</ele>
        <time>2020-12-06T10:03:25.909000+00:00</time>
      </trkpt>
      <trkpt lat="0" lon="0">
        <time>2020-12-06T10:03:25.924000+00:00</time>
      </trkpt>
      <trkpt lat="0" lon="0">
        <time>2020-12-06T10:03:25.928000+00:00</time>
      </trkpt>
      <trkpt lat="0" lon="0">
        <time>2020-12-06T10:03:25.931000+00:00</time>
      </trkpt>
      <trkpt lat="47.33483" lon="-1.33866">
        <ele>67</ele>
        <time>2020-12-06T10:03:26.960000+00:00</time>
      </trkpt>
      <trkpt lat="0" lon="0">
        <time>2020-12-06T10:03:26.969000+00:00</time>
      </trkpt>
      <trkpt lat="0" lon="0">
        <time>2020-12-06T10:03:26.975000+00:00</time>
      </trkpt>
      <trkpt lat="0" lon="0">
        <time>2020-12-06T10:03:26.977000+00:00</time>
      </trkpt>
      <trkpt lat="47.33477" lon="-1.33874">
        <ele>67</ele>
        <time>2020-12-06T10:03:27.973000+00:00</time>
      </trkpt>
      <trkpt lat="0" lon="0">
        <time>2020-12-06T10:03:27.979000+00:00</time>
      </trkpt>
      <trkpt lat="0" lon="0">
        <time>2020-12-06T10:03:27.988000+00:00</time>
      </trkpt>
      <trkpt lat="0" lon="0">
        <time>2020-12-06T10:03:27.990000+00:00</time>
      </trkpt>
      <trkpt lat="47.33471" lon="-1.33882">
        <ele>66</ele>
        <time>2020-12-06T10:03:28.939000+00:00</time>
      </trkpt>
      <trkpt lat="0" lon="0">
        <time>2020-12-06T10:03:28.949000+00:00</time>
      </trkpt>
      <trkpt lat="0" lon="0">
        <time>2020-12-06T10:03:28.952000+00:00</time>
      </trkpt>
      <trkpt lat="0" lon="0">
        <time>2020-12-06T10:03:28.954000+00:00</time>
      </trkpt>
      <trkpt lat="47.33465" lon="-1.33889">
        <ele>66</ele>
        <time>2020-12-06T10:03:29.944000+00:00</time>
      </trkpt>
      <trkpt lat="0" lon="0">
        <time>2020-12-06T10:03:29.968000+00:00</time>
      </trkpt>
      <trkpt lat="0" lon="0">
        <time>2020-12-06T10:03:29.977000+00:00</time>
      </trkpt>
      <trkpt lat="0" lon="0">
        <time>2020-12-06T10:03:29.984000+00:00</time>
      </trkpt>
      <trkpt lat="47.33459" lon="-1.33896">
        <ele>66</ele>
        <time>2020-12-06T10:03:30.889000+00:00</time>
      </trkpt>
      <trkpt lat="0" lon="0">
        <time>2020-12-06T10:03:30.893000+00:00</time>
      </trkpt>
      <trkpt lat="0" lon="0">
        <time>2020-12-06T10:03:30.902000+00:00</time>
      </trkpt>
      <trkpt lat="0" lon="0">
        <time>2020-12-06T10:03:30.904000+00:00</time>
      </trkpt>
      <trkpt lat="47.33452" lon="-1.33902">
        <ele>66</ele>
        <time>2020-12-06T10:03:31.937000+00:00</time>
      </trkpt>
      <trkpt lat="0" lon="0">
        <time>2020-12-06T10:03:31.941000+00:00</time>
      </trkpt>
      <trkpt lat="0" lon="0">
        <time>2020-12-06T10:03:31.945000+00:00</time>
      </trkpt>
      <trkpt lat="0" lon="0">
        <time>2020-12-06T10:03:31.947000+00:00</time>
      </trkpt>
      <trkpt lat="47.33446" lon="-1.33907">
        <ele>66</ele>
        <time>2020-12-06T10:03:32.912000+00:00</time>
      </trkpt>
      <trkpt lat="0" lon="0">
        <time>2020-12-06T10:03:32.921000+00:00</time>
      </trkpt>
      <trkpt lat="0" lon="0">
        <time>2020-12-06T10:03:32.926000+00:00</time>
      </trkpt>
      <trkpt lat="0" lon="0">
        <time>2020-12-06T10:03:32.938000+00:00</time>
      </trkpt>
      <trkpt lat="47.33439" lon="-1.33912">
        <ele>66</ele>
        <time>2020-12-06T10:03:33.972000+00:00</time>
      </trkpt>
      <trkpt lat="0" lon="0">
        <time>2020-12-06T10:03:33.986000+00:00</time>
      </trkpt>
      <trkpt lat="0" lon="0">
        <time>2020-12-06T10:03:33.989000+00:00</time>
      </trkpt>
      <trkpt lat="0" lon="0">
        <time>2020-12-06T10:03:33.991000+00:00</time>
      </trkpt>
      <trkpt lat="47.33433" lon="-1.33916">
        <ele>66</ele>
        <time>2020-12-06T10:03:34.980000+00:00</time>
      </trkpt>
      <trkpt lat="0" lon="0">
        <time>2020-12-06T10:03:34.985000+00:00</time>
      </trkpt>
      <trkpt lat="0" lon="0">
        <time>2020-12-06T10:03:34.990000+00:00</time>
      </trkpt>
      <trkpt lat="0" lon="0">
        <time>2020-12-06T10:03:34.991000+00:00</time>
      </trkpt>
      <trkpt lat="47.33426" lon="-1.33919">
        <ele>66</ele>
        <time>2020-12-06T10:03:35.980000+00:00</time>
      </trkpt>
      <trkpt lat="0" lon="0">
        <time>2020-12-06T10:03:35.983000+00:00</time>
      </trkpt>
      <trkpt lat="0" lon="0">
        <time>2020-12-06T10:03:35.996000+00:00</time>
      </trkpt>
      <trkpt lat="0" lon="0">
        <time>2020-12-06T10:03:36.002000+00:00</time>
      </trkpt>
      <trkpt lat="47.3342" lon="-1.33921">
        <ele>66</ele>
        <time>2020-12-06T10:03:36.918000+00:00</time>
      </trkpt>
      <trkpt lat="0" lon="0">
        <time>2020-12-06T10:03:36.928000+00:00</time>
      </trkpt>
      <trkpt lat="0" lon="0">
        <time>2020-12-06T10:03:36.940000+00:00</time>
      </trkpt>
      <trkpt lat="0" lon="0">
        <time>2020-12-06T10:03:36.942000+00:00</time>
      </trkpt>
      <trkpt lat="47.33413" lon="-1.33924">
        <ele>65</ele>
        <time>2020-12-06T10:03:37.948000+00:00</time>
      </trkpt>
      <trkpt lat="0" lon="0">
        <time>2020-12-06T10:03:37.963000+00:00</time>
      </trkpt>
      <trkpt lat="0" lon="0">
        <time>2020-12-06T10:03:37.982000+00:00</time>
      </trkpt>
      <trkpt lat="0" lon="0">
        <time>2020-12-06T10:03:37.983000+00:00</time>
      </trkpt>
      <trkpt lat="47.33407" lon="-1.33926">
        <ele>63</ele>
        <time>2020-12-06T10:03:38.948000+00:00</time>
      </trkpt>
      <trkpt lat="0" lon="0">
        <time>2020-12-06T10:03:38.956000+00:00</time>
      </trkpt>
      <trkpt lat="0" lon="0">
        <time>2020-12-06T10:03:38.961000+00:00</time>
      </trkpt>
      <trkpt lat="0" lon="0">
        <time>2020-12-06T10:03:38.963000+00:00</time>
      </trkpt>
      <trkpt lat="47.33401" lon="-1.33928">
        <ele>61</ele>
        <time>2020-12-06T10:03:39.973000+00:00</time>
      </trkpt>
      <trkpt lat="0" lon="0">
        <time>2020-12-06T10:03:39.978000+00:00</time>
      </trkpt>
      <trkpt lat="0" lon="0">
        <time>2020-12-06T10:03:39.983000+00:00</time>
      </trkpt>
      <trkpt lat="0" lon="0">
        <time>2020-12-06T10:03:39.987000+00:00</time>
      </trkpt>
      <trkpt lat="47.33395" lon="-1.3393">
        <ele>59</ele>
        <time>2020-12-06T10:03:40.915000+00:00</time>
      </trkpt>
      <trkpt lat="0" lon="0">
        <time>2020-12-06T10:03:40.921000+00:00</time>
      </trkpt>
      <trkpt lat="0" lon="0">
        <time>2020-12-06T10:03:40.924000+00:00</time>
      </trkpt>
      <trkpt lat="0" lon="0">
        <time>2020-12-06T10:03:40.931000+00:00</time>
      </trkpt>
      <trkpt lat="47.33388" lon="-1.33931">
        <ele>57</ele>
        <time>2020-12-06T10:03:41.971000+00:00</time>
      </trkpt>
      <trkpt lat="0" lon="0">
        <time>2020-12-06T10:03:41.985000+00:00</time>
      </trkpt>
      <trkpt lat="0" lon="0">
        <time>2020-12-06T10:03:41.991000+00:00</time>
      </trkpt>
      <trkpt lat="0" lon="0">
        <time>2020-12-06T10:03:41.992000+00:00</time>
      </trkpt>
      <trkpt lat="47.33382" lon="-1.33933">
        <ele>55</ele>
        <time>2020-12-06T10:03:42.943000+00:00</time>
      </trkpt>
      <trkpt lat="0" lon="0">
        <time>2020-12-06T10:03:42.956000+00:00</time>
      </trkpt>
      <trkpt lat="0" lon="0">
        <time>2020-12-06T10:03:42.960000+00:00</time>
      </trkpt>
      <trkpt lat="0" lon="0">
        <time>2020-12-06T10:03:42.961000+00:00</time>
      </trkpt>
      <trkpt lat="47.33377" lon="-1.33934">
        <ele>53</ele>
        <time>2020-12-06T10:03:43.972000+00:00</time>
      </trkpt>
      <trkpt lat="0" lon="0">
        <time>2020-12-06T10:03:43.978000+00:00</time>
      </trkpt>
      <trkpt lat="0" lon="0">
        <time>2020-12-06T10:03:43.987000+00:00</time>
      </trkpt>
      <trkpt lat="0" lon="0">
        <time>2020-12-06T10:03:43.990000+00:00</time>
      </trkpt>
      <trkpt lat="47.33371" lon="-1.33935">
        <ele>51</ele>
        <time>2020-12-06T10:03:44.903000+00:00</time>
      </trkpt>
      <trkpt lat="0" lon="0">
        <time>2020-12-06T10:03:44.904000+00:00</time>
      </trkpt>
      <trkpt lat="0" lon="0">
        <time>2020-12-06T10:03:44.909000+00:00</time>
      </trkpt>
      <trkpt lat="0" lon="0">
        <time>2020-12-06T10:03:44.910000+00:00</time>
      </trkpt>
      <trkpt lat="47.33366" lon="-1.33935">
        <ele>49</ele>
        <time>2020-12-06T10:03:45.924000+00:00</time>
      </trkpt>
      <trkpt lat="0" lon="0">
        <time>2020-12-06T10:03:45.935000+00:00</time>
      </trkpt>
      <trkpt lat="0" lon="0">
        <time>2020-12-06T10:03:45.939000+00:00</time>
      </trkpt>
      <trkpt lat="0" lon="0">
        <time>2020-12-06T10:03:45.941000+00:00</time>
      </trkpt>
      <trkpt lat="47.3336" lon="-1.33936">
        <ele>47</ele>
        <time>2020-12-06T10:03:46.904000+00:00</time>
      </trkpt>
      <trkpt lat="0" lon="0">
        <time>2020-12-06T10:03:46.915000+00:00</time>
      </trkpt>
      <trkpt lat="0" lon="0">
        <time>2020-12-06T10:03:46.916000+00:00</time>
      </trkpt>
      <trkpt lat="0" lon="0">
        <time>2020-12-06T10:03:46.917000+00:00</time>
      </trkpt>
      <trkpt lat="47.33355" lon="-1.33937">
        <ele>46</ele>
        <time>2020-12-06T10:03:47.968000+00:00</time>
      </trkpt>
      <trkpt lat="0" lon="0">
        <time>2020-12-06T10:03:47.982000+00:00</time>
      </trkpt>
      <trkpt lat="0" lon="0">
        <time>2020-12-06T10:03:47.989000+00:00</time>
      </trkpt>
      <trkpt lat="0" lon="0">
        <time>2020-12-06T10:03:47.990000+00:00</time>
      </trkpt>
      <trkpt lat="47.3335" lon="-1.33938">
        <ele>44</ele>
        <time>2020-12-06T10:03:48.963000+00:00</time>
      </trkpt>
      <trkpt lat="0" lon="0">
        <time>2020-12-06T10:03:48.970000+00:00</time>
      </trkpt>
      <trkpt lat="0" lon="0">
        <time>2020-12-06T10:03:48.975000+00:00</time>
      </trkpt>
      <trkpt lat="0" lon="0">
        <time>2020-12-06T10:03:48.979000+00:00</time>
      </trkpt>
      <trkpt lat="47.33346" lon="-1.33939">
        <ele>42</ele>
        <time>2020-12-06T10:03:49.927000+00:00</time>
      </trkpt>
      <trkpt lat="0" lon="0">
        <time>2020-12-06T10:03:49.938000+00:00</time>
      </trkpt>
      <trkpt lat="0" lon="0">
        <time>2020-12-06T10:03:49.943000+00:00</time>
      </trkpt>
      <trkpt lat="0" lon="0">
        <time>2020-12-06T10:03:49.945000+00:00</time>
      </trkpt>
      <trkpt lat="47.33341" lon="-1.3394">
        <ele>41</ele>
        <time>2020-12-06T10:03:50.944000+00:00</time>
      </trkpt>
      <trkpt lat="0" lon="0">
        <time>2020-12-06T10:03:50.952000+00:00</time>
      </trkpt>
      <trkpt lat="0" lon="0">
        <time>2020-12-06T10:03:50.954000+00:00</time>
      </trkpt>
      <trkpt lat="0" lon="0">
        <time>2020-12-06T10:03:50.955000+00:00</time>
      </trkpt>
      <trkpt lat="47.33337" lon="-1.33941">
        <ele>40</ele>
        <time>2020-12-06T10:03:51.930000+00:00</time>
      </trkpt>
      <trkpt lat="0" lon="0">
        <time>2020-12-06T10:03:51.933000+00:00</time>
      </trkpt>
      <trkpt lat="0" lon="0">
        <time>2020-12-06T10:03:51.938000+00:00</time>
      </trkpt>
      <trkpt lat="0" lon="0">
        <time>2020-12-06T10:03:51.940000+00:00</time>
      </trkpt>
      <trkpt lat="47.33332" lon="-1.33943">
        <ele>38</ele>
        <time>2020-12-06T10:03:52.923000+00:00</time>
      </trkpt>
      <trkpt lat="0" lon="0">
        <time>2020-12-06T10:03:52.934000+00:00</time>
      </trkpt>
      <trkpt lat="0" lon="0">
        <time>2020-12-06T10:03:52.939000+00:00</time>
      </trkpt>
      <trkpt lat="0" lon="0">
        <time>2020-12-06T10:03:52.943000+00:00</time>
      </trkpt>
      <trkpt lat="47.33328" lon="-1.33944">
        <ele>37</ele>
        <time>2020-12-06T10:03:53.945000+00:00</time>
      </trkpt>
      <trkpt lat="0" lon="0">
        <time>2020-12-06T10:03:53.959000+00:00</time>
      </trkpt>
      <trkpt lat="0" lon="0">
        <time>2020-12-06T10:03:53.964000+00:00</time>
      </trkpt>
      <trkpt lat="0" lon="0">
        <time>2020-12-06T10:03:53.968000+00:00</time>
      </trkpt>
      <trkpt lat="47.33324" lon="-1.33945">
        <ele>37</ele>
        <time>2020-12-06T10:03:54.916000+00:00</time>
      </trkpt>
      <trkpt lat="0" lon="0">
        <time>2020-12-06T10:03:54.928000+00:00</time>
      </trkpt>
      <trkpt lat="0" lon="0">
        <time>2020-12-06T10:03:54.941000+00:00</time>
      </trkpt>
      <trkpt lat="0" lon="0">
        <time>2020-12-06T10:03:54.946000+00:00</time>
      </trkpt>
      <trkpt lat="47.3332" lon="-1.33946">
        <ele>36</ele>
        <time>2020-12-06T10:03:55.957000+00:00</time>
      </trkpt>
      <trkpt lat="0" lon="0">
        <time>2020-12-06T10:03:55.965000+00:00</time>
      </trkpt>
      <trkpt lat="0" lon="0">
        <time>2020-12-06T10:03:55.972000+00:00</time>
      </trkpt>
      <trkpt lat="0" lon="0">
        <time>2020-12-06T10:03:55.975000+00:00</time>
      </trkpt>
      <trkpt lat="47.33316" lon="-1.33948">
        <ele>35</ele>
        <time>2020-12-06T10:03:56.971000+00:00</time>
      </trkpt>
      <trkpt lat="0" lon="0">
        <time>2020-12-06T10:03:56.975000+00:00</time>
      </trkpt>
      <trkpt lat="0" lon="0">
        <time>2020-12-06T10:03:56.980000+00:00</time>
      </trkpt>
      <trkpt lat="0" lon="0">
        <time>2020-12-06T10:03:56.984000+00:00</time>
      </trkpt>
      <trkpt lat="47.33312" lon="-1.33949">
        <ele>34</ele>
        <time>2020-12-06T10:03:57.920000+00:00</time>
      </trkpt>
      <trkpt lat="0" lon="0">
        <time>2020-12-06T10:03:57.934000+00:00</time>
      </trkpt>
      <trkpt lat="0" lon="0">
        <time>2020-12-06T10:03:57.935000+00:00</time>
      </trkpt>
      <trkpt lat="0" lon="0">
        <time>2020-12-06T10:03:57.937000+00:00</time>
      </trkpt>
      <trkpt lat="47.33308" lon="-1.33951">
        <ele>34</ele>
        <time>2020-12-06T10:03:58.927000+00:00</time>
      </trkpt>
      <trkpt lat="0" lon="0">
        <time>2020-12-06T10:03:58.935000+00:00</time>
      </trkpt>
      <trkpt lat="0" lon="0">
        <time>2020-12-06T10:03:58.937000+00:00</time>
      </trkpt>
      <trkpt lat="0" lon="0">
        <time>2020-12-06T10:03:58.942000+00:00</time>
      </trkpt>
      <trkpt lat="47.33304" lon="-1.33952">
        <ele>33</ele>
        <time>2020-12-06T10:03:59.901000+00:00</time>
      </trkpt>
      <trkpt lat="0" lon="0">
        <time>2020-12-06T10:03:59.904000+00:00</time>
      </trkpt>
      <trkpt lat="0" lon="0">
        <time>2020-12-06T10:03:59.911000+00:00</time>
      </trkpt>
      <trkpt lat="0" lon="0">
        <time>2020-12-06T10:03:59.912000+00:00</time>
      </trkpt>
      <trkpt lat="47.33301" lon="-1.33954">
        <ele>32</ele>
        <time>2020-12-06T10:04:00.944000+00:00</time>
      </trkpt>
      <trkpt lat="0" lon="0">
        <time>2020-12-06T10:04:00.947000+00:00</time>
      </trkpt>
      <trkpt lat="0" lon="0">
        <time>2020-12-06T10:04:00.951000+00:00</time>
      </trkpt>
      <trkpt lat="0" lon="0">
        <time>2020-12-06T10:04:00.952000+00:00</time>
      </trkpt>
      <trkpt lat="47.33297" lon="-1.33956">
        <ele>31</ele>
        <time>2020-12-06T10:04:01.969000+00:00</time>
      </trkpt>
      <trkpt lat="0" lon="0">
        <time>2020-12-06T10:04:01.974000+00:00</time>
      </trkpt>
      <trkpt lat="0" lon="0">
        <time>2020-12-06T10:04:01.979000+00:00</time>
      </trkpt>
      <trkpt lat="0" lon="0">
        <time>2020-12-06T10:04:01.982000+00:00</time>
      </trkpt>
      <trkpt lat="47.33293" lon="-1.33958">
        <ele>31</ele>
        <time>2020-12-06T10:04:02.947000+00:00</time>
      </trkpt>
      <trkpt lat="0" lon="0">
        <time>2020-12-06T10:04:02.948000+00:00</time>
      </trkpt>
      <trkpt lat="0" lon="0">
        <time>2020-12-06T10:04:02.950000+00:00</time>
      </trkpt>
      <trkpt lat="0" lon="0">
        <time>2020-12-06T10:04:02.951000+00:00</time>
      </trkpt>
      <trkpt lat="47.33289" lon="-1.3396">
        <ele>30</ele>
        <time>2020-12-06T10:04:03.960000+00:00</time>
      </trkpt>
      <trkpt lat="0" lon="0">
        <time>2020-12-06T10:04:03.967000+00:00</time>
      </trkpt>
      <trkpt lat="0" lon="0">
        <time>2020-12-06T10:04:03.971000+00:00</time>
      </trkpt>
      <trkpt lat="0" lon="0">
        <time>2020-12-06T10:04:03.973000+00:00</time>
      </trkpt>
      <trkpt lat="47.33286" lon="-1.33962">
        <ele>29</ele>
        <time>2020-12-06T10:04:04.917000+00:00</time>
      </trkpt>
      <trkpt lat="0" lon="0">
        <time>2020-12-06T10:04:04.927000+00:00</time>
      </trkpt>
      <trkpt lat="0" lon="0">
        <time>2020-12-06T10:04:04.929000+00:00</time>
      </trkpt>
      <trkpt lat="0" lon="0">
        <time>2020-12-06T10:04:04.930000+00:00</time>
      </trkpt>
      <trkpt lat="47.33283" lon="-1.33965">
        <ele>29</ele>
        <time>2020-12-06T10:04:05.948000+00:00</time>
      </trkpt>
      <trkpt lat="0" lon="0">
        <time>2020-12-06T10:04:05.951000+00:00</time>
      </trkpt>
      <trkpt lat="0" lon="0">
        <time>2020-12-06T10:04:05.955000+00:00</time>
      </trkpt>
      <trkpt lat="0" lon="0">
        <time>2020-12-06T10:04:05.957000+00:00</time>
      </trkpt>
      <trkpt lat="47.33279" lon="-1.33968">
        <ele>28</ele>
        <time>2020-12-06T10:04:06.954000+00:00</time>
      </trkpt>
      <trkpt lat="0" lon="0">
        <time>2020-12-06T10:04:06.969000+00:00</time>
      </trkpt>
      <trkpt lat="0" lon="0">
        <time>2020-12-06T10:04:06.973000+00:00</time>
      </trkpt>
      <trkpt lat="0" lon="0">
        <time>2020-12-06T10:04:06.974000+00:00</time>
      </trkpt>
      <trkpt lat="47.33277" lon="-1.33972">
        <ele>28</ele>
        <time>2020-12-06T10:04:07.944000+00:00</time>
      </trkpt>
      <trkpt lat="0" lon="0">
        <time>2020-12-06T10:04:07.953000+00:00</time>
      </trkpt>
      <trkpt lat="0" lon="0">
        <time>2020-12-06T10:04:07.957000+00:00</time>
      </trkpt>
      <trkpt lat="0" lon="0">
        <time>2020-12-06T10:04:07.959000+00:00</time>
      </trkpt>
      <trkpt lat="47.33274" lon="-1.33976">
        <ele>28</ele>
        <time>2020-12-06T10:04:08.950000+00:00</time>
      </trkpt>
      <trkpt lat="0" lon="0">
        <time>2020-12-06T10:04:08.954000+00:00</time>
      </trkpt>
      <trkpt lat="0" lon="0">
        <time>2020-12-06T10:04:08.968000+00:00</time>
      </trkpt>
      <trkpt lat="0" lon="0">
        <time>2020-12-06T10:04:08.973000+00:00</time>
      </trkpt>
      <trkpt lat="47.33271" lon="-1.3398">
        <ele>28</ele>
        <time>2020-12-06T10:04:09.917000+00:00</time>
      </trkpt>
      <trkpt lat="0" lon="0">
        <time>2020-12-06T10:04:09.920000+00:00</time>
      </trkpt>
      <trkpt lat="0" lon="0">
        <time>2020-12-06T10:04:09.927000+00:00</time>
      </trkpt>
      <trkpt lat="0" lon="0">
        <time>2020-12-06T10:04:09.928000+00:00</time>
      </trkpt>
      <trkpt lat="47.33269" lon="-1.33985">
        <ele>27</ele>
        <time>2020-12-06T10:04:10.930000+00:00</time>
      </trkpt>
      <trkpt lat="0" lon="0">
        <time>2020-12-06T10:04:10.940000+00:00</time>
      </trkpt>
      <trkpt lat="0" lon="0">
        <time>2020-12-06T10:04:10.943000+00:00</time>
      </trkpt>
      <trkpt lat="0" lon="0">
        <time>2020-12-06T10:04:10.945000+00:00</time>
      </trkpt>
      <trkpt lat="47.33267" lon="-1.3399">
        <ele>27</ele>
        <time>2020-12-06T10:04:11.907000+00:00</time>
      </trkpt>
      <trkpt lat="0" lon="0">
        <time>2020-12-06T10:04:11.914000+00:00</time>
      </trkpt>
      <trkpt lat="0" lon="0">
        <time>2020-12-06T10:04:11.922000+00:00</time>
      </trkpt>
      <trkpt lat="0" lon="0">
        <time>2020-12-06T10:04:11.924000+00:00</time>
      </trkpt>
      <trkpt lat="47.33264" lon="-1.33995">
        <ele>27</ele>
        <time>2020-12-06T10:04:12.943000+00:00</time>
      </trkpt>
      <trkpt lat="0" lon="0">
        <time>2020-12-06T10:04:12.948000+00:00</time>
      </trkpt>
      <trkpt lat="0" lon="0">
        <time>2020-12-06T10:04:12.963000+00:00</time>
      </trkpt>
      <trkpt lat="0" lon="0">
        <time>2020-12-06T10:04:12.969000+00:00</time>
      </trkpt>
      <trkpt lat="47.33262" lon="-1.34001">
        <ele>27</ele>
        <time>2020-12-06T10:04:13.906000+00:00</time>
      </trkpt>
      <trkpt lat="0" lon="0">
        <time>2020-12-06T10:04:13.914000+00:00</time>
      </trkpt>
      <trkpt lat="0" lon="0">
        <time>2020-12-06T10:04:13.925000+00:00</time>
      </trkpt>
      <trkpt lat="0" lon="0">
        <time>2020-12-06T10:04:13.928000+00:00</time>
      </trkpt>
      <trkpt lat="47.3326" lon="-1.34006">
        <ele>27</ele>
        <time>2020-12-06T10:04:14.932000+00:00</time>
      </trkpt>
      <trkpt lat="0" lon="0">
        <time>2020-12-06T10:04:14.937000+00:00</time>
      </trkpt>
      <trkpt lat="0" lon="0">
        <time>2020-12-06T10:04:14.940000+00:00</time>
      </trkpt>
      <trkpt lat="0" lon="0">
        <time>2020-12-06T10:04:14.944000+00:00</time>
      </trkpt>
      <trkpt lat="47.33258" lon="-1.34011">
        <ele>27</ele>
        <time>2020-12-06T10:04:15.975000+00:00</time>
      </trkpt>
      <trkpt lat="0" lon="0">
        <time>2020-12-06T10:04:15.989000+00:00</time>
      </trkpt>
      <trkpt lat="0" lon="0">
        <time>2020-12-06T10:04:15.993000+00:00</time>
      </trkpt>
      <trkpt lat="0" lon="0">
        <time>2020-12-06T10:04:15.999000+00:00</time>
      </trkpt>
      <trkpt lat="47.33256" lon="-1.34017">
        <ele>28</ele>
        <time>2020-12-06T10:04:16.971000+00:00</time>
      </trkpt>
      <trkpt lat="0" lon="0">
        <time>2020-12-06T10:04:16.978000+00:00</time>
      </trkpt>
      <trkpt lat="0" lon="0">
        <time>2020-12-06T10:04:16.981000+00:00</time>
      </trkpt>
      <trkpt lat="0" lon="0">
        <time>2020-12-06T10:04:16.983000+00:00</time>
      </trkpt>
      <trkpt lat="47.33254" lon="-1.34022">
        <ele>28</ele>
        <time>2020-12-06T10:04:17.921000+00:00</time>
      </trkpt>
      <trkpt lat="0" lon="0">
        <time>2020-12-06T10:04:17.925000+00:00</time>
      </trkpt>
      <trkpt lat="0" lon="0">
        <time>2020-12-06T10:04:17.936000+00:00</time>
      </trkpt>
      <trkpt lat="0" lon="0">
        <time>2020-12-06T10:04:17.939000+00:00</time>
      </trkpt>
      <trkpt lat="47.33252" lon="-1.34028">
        <ele>28</ele>
        <time>2020-12-06T10:04:18.969000+00:00</time>
      </trkpt>
      <trkpt lat="0" lon="0">
        <time>2020-12-06T10:04:18.974000+00:00</time>
      </trkpt>
      <trkpt lat="0" lon="0">
        <time>2020-12-06T10:04:18.981000+00:00</time>
      </trkpt>
      <trkpt lat="0" lon="0">
        <time>2020-12-06T10:04:18.984000+00:00</time>
      </trkpt>
      <trkpt lat="47.33249" lon="-1.34033">
        <ele>28</ele>
        <time>2020-12-06T10:04:19.927000+00:00</time>
      </trkpt>
      <trkpt lat="0" lon="0">
        <time>2020-12-06T10:04:19.934000+00:00</time>
      </trkpt>
      <trkpt lat="0" lon="0">
        <time>2020-12-06T10:04:19.937000+00:00</time>
      </trkpt>
      <trkpt lat="0" lon="0">
        <time>2020-12-06T10:04:19.939000+00:00</time>
      </trkpt>
      <trkpt lat="47.33247" lon="-1.34038">
        <ele>28</ele>
        <time>2020-12-06T10:04:20.940000+00:00</time>
      </trkpt>
      <trkpt lat="0" lon="0">
        <time>2020-12-06T10:04:20.950000+00:00</time>
      </trkpt>
      <trkpt lat="0" lon="0">
        <time>2020-12-06T10:04:20.956000+00:00</time>
      </trkpt>
      <trkpt lat="0" lon="0">
        <time>2020-12-06T10:04:20.960000+00:00</time>
      </trkpt>
      <trkpt lat="47.33244" lon="-1.34043">
        <ele>28</ele>
        <time>2020-12-06T10:04:21.961000+00:00</time>
      </trkpt>
      <trkpt lat="0" lon="0">
        <time>2020-12-06T10:04:21.974000+00:00</time>
      </trkpt>
      <trkpt lat="0" lon="0">
        <time>2020-12-06T10:04:21.981000+00:00</time>
      </trkpt>
      <trkpt lat="0" lon="0">
        <time>2020-12-06T10:04:21.983000+00:00</time>
      </trkpt>
      <trkpt lat="47.33242" lon="-1.34049">
        <ele>29</ele>
        <time>2020-12-06T10:04:22.984000+00:00</time>
      </trkpt>
      <trkpt lat="0" lon="0">
        <time>2020-12-06T10:04:22.991000+00:00</time>
      </trkpt>
      <trkpt lat="0" lon="0">
        <time>2020-12-06T10:04:22.995000+00:00</time>
      </trkpt>
      <trkpt lat="0" lon="0">
        <time>2020-12-06T10:04:23.001000+00:00</time>
      </trkpt>
      <trkpt lat="47.33239" lon="-1.34054">
        <ele>29</ele>
        <time>2020-12-06T10:04:23.946000+00:00</time>
      </trkpt>
      <trkpt lat="0" lon="0">
        <time>2020-12-06T10:04:23.957000+00:00</time>
      </trkpt>
      <trkpt lat="0" lon="0">
        <time>2020-12-06T10:04:23.966000+00:00</time>
      </trkpt>
      <trkpt lat="0" lon="0">
        <time>2020-12-06T10:04:23.968000+00:00</time>
      </trkpt>
      <trkpt lat="47.33236" lon="-1.34059">
        <ele>29</ele>
        <time>2020-12-06T10:04:24.948000+00:00</time>
      </trkpt>
      <trkpt lat="0" lon="0">
        <time>2020-12-06T10:04:24.952000+00:00</time>
      </trkpt>
      <trkpt lat="0" lon="0">
        <time>2020-12-06T10:04:24.963000+00:00</time>
      </trkpt>
      <trkpt lat="0" lon="0">
        <time>2020-12-06T10:04:24.969000+00:00</time>
      </trkpt>
      <trkpt lat="47.33233" lon="-1.34065">
        <ele>29</ele>
        <time>2020-12-06T10:04:25.900000+00:00</time>
      </trkpt>
      <trkpt lat="0" lon="0">
        <time>2020-12-06T10:04:25.908000+00:00</time>
      </trkpt>
      <trkpt lat="0" lon="0">
        <time>2020-12-06T10:04:25.911000+00:00</time>
      </trkpt>
      <trkpt lat="0" lon="0">
        <time>2020-12-06T10:04:25.912000+00:00</time>
      </trkpt>
      <trkpt lat="47.33231" lon="-1.3407">
        <ele>29</ele>
        <time>2020-12-06T10:04:26.927000+00:00</time>
      </trkpt>
      <trkpt lat="0" lon="0">
        <time>2020-12-06T10:04:26.929000+00:00</time>
      </trkpt>
      <trkpt lat="0" lon="0">
        <time>2020-12-06T10:04:26.931000+00:00</time>
      </trkpt>
      <trkpt lat="0" lon="0">
        <time>2020-12-06T10:04:26.937000+00:00</time>
      </trkpt>
      <trkpt lat="47.33228" lon="-1.34075">
        <ele>29</ele>
        <time>2020-12-06T10:04:27.936000+00:00</time>
      </trkpt>
      <trkpt lat="0" lon="0">
        <time>2020-12-06T10:04:27.952000+00:00</time>
      </trkpt>
      <trkpt lat="0" lon="0">
        <time>2020-12-06T10:04:27.958000+00:00</time>
      </trkpt>
      <trkpt lat="0" lon="0">
        <time>2020-12-06T10:04:27.961000+00:00</time>
      </trkpt>
      <trkpt lat="47.33225" lon="-1.3408">
        <ele>28</ele>
        <time>2020-12-06T10:04:28.940000+00:00</time>
      </trkpt>
      <trkpt lat="0" lon="0">
        <time>2020-12-06T10:04:28.943000+00:00</time>
      </trkpt>
      <trkpt lat="0" lon="0">
        <time>2020-12-06T10:04:28.951000+00:00</time>
      </trkpt>
      <trkpt lat="0" lon="0">
        <time>2020-12-06T10:04:28.953000+00:00</time>
      </trkpt>
      <trkpt lat="47.33222" lon="-1.34086">
        <ele>28</ele>
        <time>2020-12-06T10:04:29.958000+00:00</time>
      </trkpt>
      <trkpt lat="0" lon="0">
        <time>2020-12-06T10:04:29.972000+00:00</time>
      </trkpt>
      <trkpt lat="0" lon="0">
        <time>2020-12-06T10:04:29.978000+00:00</time>
      </trkpt>
      <trkpt lat="0" lon="0">
        <time>2020-12-06T10:04:29.989000+00:00</time>
      </trkpt>
      <trkpt lat="47.33218" lon="-1.34091">
        <ele>29</ele>
        <time>2020-12-06T10:04:30.948000+00:00</time>
      </trkpt>
      <trkpt lat="0" lon="0">
        <time>2020-12-06T10:04:30.960000+00:00</time>
      </trkpt>
      <trkpt lat="0" lon="0">
        <time>2020-12-06T10:04:30.964000+00:00</time>
      </trkpt>
      <trkpt lat="0" lon="0">
        <time>2020-12-06T10:04:30.966000+00:00</time>
      </trkpt>
      <trkpt lat="47.33215" lon="-1.34096">
        <ele>30</ele>
        <time>2020-12-06T10:04:31.906000+00:00</time>
      </trkpt>
      <trkpt lat="0" lon="0">
        <time>2020-12-06T10:04:31.913000+00:00</time>
      </trkpt>
      <trkpt lat="0" lon="0">
        <time>2020-12-06T10:04:31.922000+00:00</time>
      </trkpt>
      <trkpt lat="0" lon="0">
        <time>2020-12-06T10:04:31.930000+00:00</time>
      </trkpt>
      <trkpt lat="47.33212" lon="-1.34101">
        <ele>31</ele>
        <time>2020-12-06T10:04:32.948000+00:00</time>
      </trkpt>
      <trkpt lat="0" lon="0">
        <time>2020-12-06T10:04:32.967000+00:00</time>
      </trkpt>
      <trkpt lat="0" lon="0">
        <time>2020-12-06T10:04:32.974000+00:00</time>
      </trkpt>
      <trkpt lat="0" lon="0">
        <time>2020-12-06T10:04:32.976000+00:00</time>
      </trkpt>
      <trkpt lat="47.33209" lon="-1.34107">
        <ele>32</ele>
        <time>2020-12-06T10:04:33.934000+00:00</time>
      </trkpt>
      <trkpt lat="0" lon="0">
        <time>2020-12-06T10:04:33.948000+00:00</time>
      </trkpt>
      <trkpt lat="0" lon="0">
        <time>2020-12-06T10:04:33.958000+00:00</time>
      </trkpt>
      <trkpt lat="0" lon="0">
        <time>2020-12-06T10:04:33.960000+00:00</time>
      </trkpt>
      <trkpt lat="47.33206" lon="-1.34112">
        <ele>33</ele>
        <time>2020-12-06T10:04:34.952000+00:00</time>
      </trkpt>
      <trkpt lat="0" lon="0">
        <time>2020-12-06T10:04:34.958000+00:00</time>
      </trkpt>
      <trkpt lat="0" lon="0">
        <time>2020-12-06T10:04:34.977000+00:00</time>
      </trkpt>
      <trkpt lat="0" lon="0">
        <time>2020-12-06T10:04:34.986000+00:00</time>
      </trkpt>
      <trkpt lat="47.33203" lon="-1.34117">
        <ele>35</ele>
        <time>2020-12-06T10:04:35.946000+00:00</time>
      </trkpt>
      <trkpt lat="0" lon="0">
        <time>2020-12-06T10:04:35.963000+00:00</time>
      </trkpt>
      <trkpt lat="0" lon="0">
        <time>2020-12-06T10:04:35.967000+00:00</time>
      </trkpt>
      <trkpt lat="0" lon="0">
        <time>2020-12-06T10:04:35.969000+00:00</time>
      </trkpt>
      <trkpt lat="47.33199" lon="-1.34123">
        <ele>36</ele>
        <time>2020-12-06T10:04:36.939000+00:00</time>
      </trkpt>
      <trkpt lat="0" lon="0">
        <time>2020-12-06T10:04:36.950000+00:00</time>
      </trkpt>
      <trkpt lat="0" lon="0">
        <time>2020-12-06T10:04:36.958000+00:00</time>
      </trkpt>
      <trkpt lat="0" lon="0">
        <time>2020-12-06T10:04:36.960000+00:00</time>
      </trkpt>
      <trkpt lat="47.33193" lon="-1.34134">
        <ele>39</ele>
        <time>2020-12-06T10:04:38.920000+00:00</time>
      </trkpt>
      <trkpt lat="0" lon="0">
        <time>2020-12-06T10:04:38.939000+00:00</time>
      </trkpt>
      <trkpt lat="0" lon="0">
        <time>2020-12-06T10:04:38.945000+00:00</time>
      </trkpt>
      <trkpt lat="0" lon="0">
        <time>2020-12-06T10:04:38.946000+00:00</time>
      </trkpt>
      <trkpt lat="47.33189" lon="-1.3414">
        <ele>40</ele>
        <time>2020-12-06T10:04:39.951000+00:00</time>
      </trkpt>
      <trkpt lat="0" lon="0">
        <time>2020-12-06T10:04:39.963000+00:00</time>
      </trkpt>
      <trkpt lat="0" lon="0">
        <time>2020-12-06T10:04:39.966000+00:00</time>
      </trkpt>
      <trkpt lat="0" lon="0">
        <time>2020-12-06T10:04:39.968000+00:00</time>
      </trkpt>
      <trkpt lat="47.33186" lon="-1.34146">
        <ele>42</ele>
        <time>2020-12-06T10:04:40.907000+00:00</time>
      </trkpt>
      <trkpt lat="0" lon="0">
        <time>2020-12-06T10:04:40.920000+00:00</time>
      </trkpt>
      <trkpt lat="0" lon="0">
        <time>2020-12-06T10:04:40.924000+00:00</time>
      </trkpt>
      <trkpt lat="0" lon="0">
        <time>2020-12-06T10:04:40.927000+00:00</time>
      </trkpt>
      <trkpt lat="47.33182" lon="-1.34152">
        <ele>44</ele>
        <time>2020-12-06T10:04:41.946000+00:00</time>
      </trkpt>
      <trkpt lat="0" lon="0">
        <time>2020-12-06T10:04:41.962000+00:00</time>
      </trkpt>
      <trkpt lat="0" lon="0">
        <time>2020-12-06T10:04:41.970000+00:00</time>
      </trkpt>
      <trkpt lat="0" lon="0">
        <time>2020-12-06T10:04:41.978000+00:00</time>
      </trkpt>
      <trkpt lat="47.33179" lon="-1.34158">
        <ele>46</ele>
        <time>2020-12-06T10:04:42.993000+00:00</time>
      </trkpt>
      <trkpt lat="0" lon="0">
        <time>2020-12-06T10:04:42.997000+00:00</time>
      </trkpt>
      <trkpt lat="0" lon="0">
        <time>2020-12-06T10:04:43.009000+00:00</time>
      </trkpt>
      <trkpt lat="0" lon="0">
        <time>2020-12-06T10:04:43.011000+00:00</time>
      </trkpt>
      <trkpt lat="47.33175" lon="-1.34165">
        <ele>48</ele>
        <time>2020-12-06T10:04:43.946000+00:00</time>
      </trkpt>
      <trkpt lat="0" lon="0">
        <time>2020-12-06T10:04:43.955000+00:00</time>
      </trkpt>
      <trkpt lat="0" lon="0">
        <time>2020-12-06T10:04:43.962000+00:00</time>
      </trkpt>
      <trkpt lat="0" lon="0">
        <time>2020-12-06T10:04:43.964000+00:00</time>
      </trkpt>
      <trkpt lat="47.33171" lon="-1.34172">
        <ele>49</ele>
        <time>2020-12-06T10:04:44.961000+00:00</time>
      </trkpt>
      <trkpt lat="0" lon="0">
        <time>2020-12-06T10:04:44.973000+00:00</time>
      </trkpt>
      <trkpt lat="0" lon="0">
        <time>2020-12-06T10:04:44.979000+00:00</time>
      </trkpt>
      <trkpt lat="0" lon="0">
        <time>2020-12-06T10:04:44.981000+00:00</time>
      </trkpt>
      <trkpt lat="47.33167" lon="-1.34178">
        <ele>50</ele>
        <time>2020-12-06T10:04:45.912000+00:00</time>
      </trkpt>
      <trkpt lat="0" lon="0">
        <time>2020-12-06T10:04:45.921000+00:00</time>
      </trkpt>
      <trkpt lat="0" lon="0">
        <time>2020-12-06T10:04:45.923000+00:00</time>
      </trkpt>
      <trkpt lat="0" lon="0">
        <time>2020-12-06T10:04:45.924000+00:00</time>
      </trkpt>
      <trkpt lat="47.33163" lon="-1.34185">
        <ele>53</ele>
        <time>2020-12-06T10:04:46.921000+00:00</time>
      </trkpt>
      <trkpt lat="0" lon="0">
        <time>2020-12-06T10:04:46.924000+00:00</time>
      </trkpt>
      <trkpt lat="0" lon="0">
        <time>2020-12-06T10:04:46.931000+00:00</time>
      </trkpt>
      <trkpt lat="0" lon="0">
        <time>2020-12-06T10:04:46.932000+00:00</time>
      </trkpt>
      <trkpt lat="47.33159" lon="-1.34192">
        <ele>55</ele>
        <time>2020-12-06T10:04:47.941000+00:00</time>
      </trkpt>
      <trkpt lat="0" lon="0">
        <time>2020-12-06T10:04:47.944000+00:00</time>
      </trkpt>
      <trkpt lat="0" lon="0">
        <time>2020-12-06T10:04:47.948000+00:00</time>
      </trkpt>
      <trkpt lat="0" lon="0">
        <time>2020-12-06T10:04:47.950000+00:00</time>
      </trkpt>
      <trkpt lat="47.33155" lon="-1.34199">
        <ele>57</ele>
        <time>2020-12-06T10:04:48.930000+00:00</time>
      </trkpt>
      <trkpt lat="0" lon="0">
        <time>2020-12-06T10:04:48.941000+00:00</time>
      </trkpt>
      <trkpt lat="0" lon="0">
        <time>2020-12-06T10:04:48.944000+00:00</time>
      </trkpt>
      <trkpt lat="0" lon="0">
        <time>2020-12-06T10:04:48.946000+00:00</time>
      </trkpt>
      <trkpt lat="47.33151" lon="-1.34206">
        <ele>59</ele>
        <time>2020-12-06T10:04:49.968000+00:00</time>
      </trkpt>
      <trkpt lat="0" lon="0">
        <time>2020-12-06T10:04:49.981000+00:00</time>
      </trkpt>
      <trkpt lat="0" lon="0">
        <time>2020-12-06T10:04:49.989000+00:00</time>
      </trkpt>
      <trkpt lat="0" lon="0">
        <time>2020-12-06T10:04:49.996000+00:00</time>
      </trkpt>
      <trkpt lat="47.33147" lon="-1.34213">
        <ele>60</ele>
        <time>2020-12-06T10:04:51.001000+00:00</time>
      </trkpt>
      <trkpt lat="0" lon="0">
        <time>2020-12-06T10:04:51.012000+00:00</time>
      </trkpt>
      <trkpt lat="0" lon="0">
        <time>2020-12-06T10:04:51.016000+00:00</time>
      </trkpt>
      <trkpt lat="0" lon="0">
        <time>2020-12-06T10:04:51.018000+00:00</time>
      </trkpt>
      <trkpt lat="47.33142" lon="-1.3422">
        <ele>62</ele>
        <time>2020-12-06T10:04:51.990000+00:00</time>
      </trkpt>
      <trkpt lat="0" lon="0">
        <time>2020-12-06T10:04:52.003000+00:00</time>
      </trkpt>
      <trkpt lat="0" lon="0">
        <time>2020-12-06T10:04:52.008000+00:00</time>
      </trkpt>
      <trkpt lat="0" lon="0">
        <time>2020-12-06T10:04:52.010000+00:00</time>
      </trkpt>
      <trkpt lat="47.33138" lon="-1.34227">
        <ele>64</ele>
        <time>2020-12-06T10:04:52.948000+00:00</time>
      </trkpt>
      <trkpt lat="0" lon="0">
        <time>2020-12-06T10:04:52.956000+00:00</time>
      </trkpt>
      <trkpt lat="0" lon="0">
        <time>2020-12-06T10:04:52.969000+00:00</time>
      </trkpt>
      <trkpt lat="0" lon="0">
        <time>2020-12-06T10:04:52.972000+00:00</time>
      </trkpt>
      <trkpt lat="47.33133" lon="-1.34234">
        <ele>65</ele>
        <time>2020-12-06T10:04:53.968000+00:00</time>
      </trkpt>
      <trkpt lat="0" lon="0">
        <time>2020-12-06T10:04:53.970000+00:00</time>
      </trkpt>
      <trkpt lat="0" lon="0">
        <time>2020-12-06T10:04:53.976000+00:00</time>
      </trkpt>
      <trkpt lat="0" lon="0">
        <time>2020-12-06T10:04:53.977000+00:00</time>
      </trkpt>
      <trkpt lat="47.33129" lon="-1.34242">
        <ele>67</ele>
        <time>2020-12-06T10:04:54.938000+00:00</time>
      </trkpt>
      <trkpt lat="0" lon="0">
        <time>2020-12-06T10:04:54.950000+00:00</time>
      </trkpt>
      <trkpt lat="0" lon="0">
        <time>2020-12-06T10:04:54.959000+00:00</time>
      </trkpt>
      <trkpt lat="0" lon="0">
        <time>2020-12-06T10:04:54.961000+00:00</time>
      </trkpt>
      <trkpt lat="47.33126" lon="-1.34249">
        <ele>68</ele>
        <time>2020-12-06T10:04:55.975000+00:00</time>
      </trkpt>
      <trkpt lat="0" lon="0">
        <time>2020-12-06T10:04:55.985000+00:00</time>
      </trkpt>
      <trkpt lat="0" lon="0">
        <time>2020-12-06T10:04:55.989000+00:00</time>
      </trkpt>
      <trkpt lat="0" lon="0">
        <time>2020-12-06T10:04:55.990000+00:00</time>
      </trkpt>
      <trkpt lat="47.33123" lon="-1.34257">
        <ele>68</ele>
        <time>2020-12-06T10:04:57.027000+00:00</time>
      </trkpt>
      <trkpt lat="0" lon="0">
        <time>2020-12-06T10:04:57.038000+00:00</time>
      </trkpt>
      <trkpt lat="0" lon="0">
        <time>2020-12-06T10:04:57.043000+00:00</time>
      </trkpt>
      <trkpt lat="0" lon="0">
        <time>2020-12-06T10:04:57.046000+00:00</time>
      </trkpt>
      <trkpt lat="47.33122" lon="-1.34264">
        <ele>68</ele>
        <time>2020-12-06T10:04:57.941000+00:00</time>
      </trkpt>
      <trkpt lat="0" lon="0">
        <time>2020-12-06T10:04:57.944000+00:00</time>
      </trkpt>
      <trkpt lat="0" lon="0">
        <time>2020-12-06T10:04:57.951000+00:00</time>
      </trkpt>
      <trkpt lat="0" lon="0">
        <time>2020-12-06T10:04:57.956000+00:00</time>
      </trkpt>
      <trkpt lat="47.33122" lon="-1.34271">
        <ele>68</ele>
        <time>2020-12-06T10:04:58.903000+00:00</time>
      </trkpt>
      <trkpt lat="0" lon="0">
        <time>2020-12-06T10:04:58.924000+00:00</time>
      </trkpt>
      <trkpt lat="0" lon="0">
        <time>2020-12-06T10:04:58.927000+00:00</time>
      </trkpt>
      <trkpt lat="0" lon="0">
        <time>2020-12-06T10:04:58.931000+00:00</time>
      </trkpt>
      <trkpt lat="47.33124" lon="-1.34277">
        <ele>68</ele>
        <time>2020-12-06T10:04:59.928000+00:00</time>
      </trkpt>
      <trkpt lat="0" lon="0">
        <time>2020-12-06T10:04:59.938000+00:00</time>
      </trkpt>
      <trkpt lat="0" lon="0">
        <time>2020-12-06T10:04:59.945000+00:00</time>
      </trkpt>
      <trkpt lat="0" lon="0">
        <time>2020-12-06T10:04:59.947000+00:00</time>
      </trkpt>
      <trkpt lat="47.33126" lon="-1.34281">
        <ele>68</ele>
        <time>2020-12-06T10:05:00.932000+00:00</time>
      </trkpt>
      <trkpt lat="0" lon="0">
        <time>2020-12-06T10:05:00.940000+00:00</time>
      </trkpt>
      <trkpt lat="0" lon="0">
        <time>2020-12-06T10:05:00.944000+00:00</time>
      </trkpt>
      <trkpt lat="0" lon="0">
        <time>2020-12-06T10:05:00.952000+00:00</time>
      </trkpt>
      <trkpt lat="47.3313" lon="-1.34286">
        <ele>68</ele>
        <time>2020-12-06T10:05:01.919000+00:00</time>
      </trkpt>
      <trkpt lat="0" lon="0">
        <time>2020-12-06T10:05:01.941000+00:00</time>
      </trkpt>
      <trkpt lat="0" lon="0">
        <time>2020-12-06T10:05:01.948000+00:00</time>
      </trkpt>
      <trkpt lat="0" lon="0">
        <time>2020-12-06T10:05:01.952000+00:00</time>
      </trkpt>
      <trkpt lat="47.33134" lon="-1.34289">
        <ele>68</ele>
        <time>2020-12-06T10:05:02.908000+00:00</time>
      </trkpt>
      <trkpt lat="0" lon="0">
        <time>2020-12-06T10:05:02.912000+00:00</time>
      </trkpt>
      <trkpt lat="0" lon="0">
        <time>2020-12-06T10:05:02.924000+00:00</time>
      </trkpt>
      <trkpt lat="0" lon="0">
        <time>2020-12-06T10:05:02.926000+00:00</time>
      </trkpt>
      <trkpt lat="47.33138" lon="-1.34293">
        <ele>68</ele>
        <time>2020-12-06T10:05:03.933000+00:00</time>
      </trkpt>
      <trkpt lat="0" lon="0">
        <time>2020-12-06T10:05:03.946000+00:00</time>
      </trkpt>
      <trkpt lat="0" lon="0">
        <time>2020-12-06T10:05:03.950000+00:00</time>
      </trkpt>
      <trkpt lat="0" lon="0">
        <time>2020-12-06T10:05:03.952000+00:00</time>
      </trkpt>
      <trkpt lat="47.33143" lon="-1.34296">
        <ele>69</ele>
        <time>2020-12-06T10:05:04.909000+00:00</time>
      </trkpt>
      <trkpt lat="0" lon="0">
        <time>2020-12-06T10:05:04.922000+00:00</time>
      </trkpt>
      <trkpt lat="0" lon="0">
        <time>2020-12-06T10:05:04.924000+00:00</time>
      </trkpt>
      <trkpt lat="0" lon="0">
        <time>2020-12-06T10:05:04.929000+00:00</time>
      </trkpt>
      <trkpt lat="47.33147" lon="-1.343">
        <ele>69</ele>
        <time>2020-12-06T10:05:05.968000+00:00</time>
      </trkpt>
      <trkpt lat="0" lon="0">
        <time>2020-12-06T10:05:05.974000+00:00</time>
      </trkpt>
      <trkpt lat="0" lon="0">
        <time>2020-12-06T10:05:05.978000+00:00</time>
      </trkpt>
      <trkpt lat="0" lon="0">
        <time>2020-12-06T10:05:05.988000+00:00</time>
      </trkpt>
      <trkpt lat="47.33152" lon="-1.34304">
        <ele>69</ele>
        <time>2020-12-06T10:05:06.932000+00:00</time>
      </trkpt>
      <trkpt lat="0" lon="0">
        <time>2020-12-06T10:05:06.945000+00:00</time>
      </trkpt>
      <trkpt lat="0" lon="0">
        <time>2020-12-06T10:05:06.955000+00:00</time>
      </trkpt>
      <trkpt lat="0" lon="0">
        <time>2020-12-06T10:05:06.958000+00:00</time>
      </trkpt>
      <trkpt lat="47.33155" lon="-1.34309">
        <ele>69</ele>
        <time>2020-12-06T10:05:07.910000+00:00</time>
      </trkpt>
      <trkpt lat="0" lon="0">
        <time>2020-12-06T10:05:07.913000+00:00</time>
      </trkpt>
      <trkpt lat="0" lon="0">
        <time>2020-12-06T10:05:07.917000+00:00</time>
      </trkpt>
      <trkpt lat="0" lon="0">
        <time>2020-12-06T10:05:07.918000+00:00</time>
      </trkpt>
      <trkpt lat="47.33157" lon="-1.34314">
        <ele>69</ele>
        <time>2020-12-06T10:05:08.914000+00:00</time>
      </trkpt>
      <trkpt lat="0" lon="0">
        <time>2020-12-06T10:05:08.920000+00:00</time>
      </trkpt>
      <trkpt lat="0" lon="0">
        <time>2020-12-06T10:05:08.938000+00:00</time>
      </trkpt>
      <trkpt lat="0" lon="0">
        <time>2020-12-06T10:05:08.940000+00:00</time>
      </trkpt>
      <trkpt lat="47.33157" lon="-1.34319">
        <ele>69</ele>
        <time>2020-12-06T10:05:09.901000+00:00</time>
      </trkpt>
      <trkpt lat="0" lon="0">
        <time>2020-12-06T10:05:09.919000+00:00</time>
      </trkpt>
      <trkpt lat="0" lon="0">
        <time>2020-12-06T10:05:09.930000+00:00</time>
      </trkpt>
      <trkpt lat="0" lon="0">
        <time>2020-12-06T10:05:09.934000+00:00</time>
      </trkpt>
      <trkpt lat="47.33157" lon="-1.34324">
        <ele>69</ele>
        <time>2020-12-06T10:05:10.968000+00:00</time>
      </trkpt>
      <trkpt lat="0" lon="0">
        <time>2020-12-06T10:05:10.970000+00:00</time>
      </trkpt>
      <trkpt lat="0" lon="0">
        <time>2020-12-06T10:05:10.971000+00:00</time>
      </trkpt>
      <trkpt lat="0" lon="0">
        <time>2020-12-06T10:05:10.972000+00:00</time>
      </trkpt>
      <trkpt lat="47.33156" lon="-1.34329">
        <ele>69</ele>
        <time>2020-12-06T10:05:11.978000+00:00</time>
      </trkpt>
      <trkpt lat="0" lon="0">
        <time>2020-12-06T10:05:11.993000+00:00</time>
      </trkpt>
      <trkpt lat="0" lon="0">
        <time>2020-12-06T10:05:11.997000+00:00</time>
      </trkpt>
      <trkpt lat="0" lon="0">
        <time>2020-12-06T10:05:11.999000+00:00</time>
      </trkpt>
      <trkpt lat="47.33153" lon="-1.34336">
        <ele>69</ele>
        <time>2020-12-06T10:05:12.987000+00:00</time>
      </trkpt>
      <trkpt lat="0" lon="0">
        <time>2020-12-06T10:05:13.003000+00:00</time>
      </trkpt>
      <trkpt lat="0" lon="0">
        <time>2020-12-06T10:05:13.013000+00:00</time>
      </trkpt>
      <trkpt lat="0" lon="0">
        <time>2020-12-06T10:05:13.015000+00:00</time>
      </trkpt>
      <trkpt lat="47.33151" lon="-1.34342">
        <ele>69</ele>
        <time>2020-12-06T10:05:13.966000+00:00</time>
      </trkpt>
      <trkpt lat="0" lon="0">
        <time>2020-12-06T10:05:13.978000+00:00</time>
      </trkpt>
      <trkpt lat="0" lon="0">
        <time>2020-12-06T10:05:13.983000+00:00</time>
      </trkpt>
      <trkpt lat="0" lon="0">
        <time>2020-12-06T10:05:13.992000+00:00</time>
      </trkpt>
      <trkpt lat="47.33147" lon="-1.34349">
        <ele>69</ele>
        <time>2020-12-06T10:05:14.941000+00:00</time>
      </trkpt>
      <trkpt lat="0" lon="0">
        <time>2020-12-06T10:05:14.949000+00:00</time>
      </trkpt>
      <trkpt lat="0" lon="0">
        <time>2020-12-06T10:05:14.951000+00:00</time>
      </trkpt>
      <trkpt lat="0" lon="0">
        <time>2020-12-06T10:05:14.952000+00:00</time>
      </trkpt>
      <trkpt lat="47.33143" lon="-1.34356">
        <ele>69</ele>
        <time>2020-12-06T10:05:16.006000+00:00</time>
      </trkpt>
      <trkpt lat="0" lon="0">
        <time>2020-12-06T10:05:16.022000+00:00</time>
      </trkpt>
      <trkpt lat="0" lon="0">
        <time>2020-12-06T10:05:16.026000+00:00</time>
      </trkpt>
      <trkpt lat="0" lon="0">
        <time>2020-12-06T10:05:16.029000+00:00</time>
      </trkpt>
      <trkpt lat="47.33139" lon="-1.34364">
        <ele>69</ele>
        <time>2020-12-06T10:05:16.947000+00:00</time>
      </trkpt>
      <trkpt lat="0" lon="0">
        <time>2020-12-06T10:05:16.948000+00:00</time>
      </trkpt>
      <trkpt lat="0" lon="0">
        <time>2020-12-06T10:05:16.949000+00:00</time>
      </trkpt>
      <trkpt lat="0" lon="0">
        <time>2020-12-06T10:05:16.950000+00:00</time>
      </trkpt>
      <trkpt lat="47.33134" lon="-1.34371">
        <ele>69</ele>
        <time>2020-12-06T10:05:17.890000+00:00</time>
      </trkpt>
      <trkpt lat="0" lon="0">
        <time>2020-12-06T10:05:17.905000+00:00</time>
      </trkpt>
      <trkpt lat="0" lon="0">
        <time>2020-12-06T10:05:17.908000+00:00</time>
      </trkpt>
      <trkpt lat="0" lon="0">
        <time>2020-12-06T10:05:17.910000+00:00</time>
      </trkpt>
      <trkpt lat="47.33129" lon="-1.34378">
        <ele>69</ele>
        <time>2020-12-06T10:05:18.886000+00:00</time>
      </trkpt>
      <trkpt lat="0" lon="0">
        <time>2020-12-06T10:05:18.897000+00:00</time>
      </trkpt>
      <trkpt lat="0" lon="0">
        <time>2020-12-06T10:05:18.900000+00:00</time>
      </trkpt>
      <trkpt lat="0" lon="0">
        <time>2020-12-06T10:05:18.902000+00:00</time>
      </trkpt>
      <trkpt lat="47.33124" lon="-1.34386">
        <ele>69</ele>
        <time>2020-12-06T10:05:19.886000+00:00</time>
      </trkpt>
      <trkpt lat="0" lon="0">
        <time>2020-12-06T10:05:19.894000+00:00</time>
      </trkpt>
      <trkpt lat="0" lon="0">
        <time>2020-12-06T10:05:19.912000+00:00</time>
      </trkpt>
      <trkpt lat="0" lon="0">
        <time>2020-12-06T10:05:19.913000+00:00</time>
      </trkpt>
      <trkpt lat="47.33119" lon="-1.34394">
        <ele>69</ele>
        <time>2020-12-06T10:05:20.952000+00:00</time>
      </trkpt>
      <trkpt lat="0" lon="0">
        <time>2020-12-06T10:05:20.960000+00:00</time>
      </trkpt>
      <trkpt lat="0" lon="0">
        <time>2020-12-06T10:05:20.964000+00:00</time>
      </trkpt>
      <trkpt lat="0" lon="0">
        <time>2020-12-06T10:05:20.966000+00:00</time>
      </trkpt>
      <trkpt lat="47.33114" lon="-1.34401">
        <ele>69</ele>
        <time>2020-12-06T10:05:21.959000+00:00</time>
      </trkpt>
      <trkpt lat="0" lon="0">
        <time>2020-12-06T10:05:21.968000+00:00</time>
      </trkpt>
      <trkpt lat="0" lon="0">
        <time>2020-12-06T10:05:21.972000+00:00</time>
      </trkpt>
      <trkpt lat="0" lon="0">
        <time>2020-12-06T10:05:21.974000+00:00</time>
      </trkpt>
      <trkpt lat="47.33109" lon="-1.34408">
        <ele>69</ele>
        <time>2020-12-06T10:05:22.913000+00:00</time>
      </trkpt>
      <trkpt lat="0" lon="0">
        <time>2020-12-06T10:05:22.915000+00:00</time>
      </trkpt>
      <trkpt lat="0" lon="0">
        <time>2020-12-06T10:05:22.920000+00:00</time>
      </trkpt>
      <trkpt lat="47.33104" lon="-1.34415">
        <ele>69</ele>
        <time>2020-12-06T10:05:23.970000+00:00</time>
      </trkpt>
      <trkpt lat="0" lon="0">
        <time>2020-12-06T10:05:23.977000+00:00</time>
      </trkpt>
      <trkpt lat="0" lon="0">
        <time>2020-12-06T10:05:23.981000+00:00</time>
      </trkpt>
      <trkpt lat="0" lon="0">
        <time>2020-12-06T10:05:23.983000+00:00</time>
      </trkpt>
      <trkpt lat="47.33099" lon="-1.34422">
        <ele>70</ele>
        <time>2020-12-06T10:05:24.950000+00:00</time>
      </trkpt>
      <trkpt lat="0" lon="0">
        <time>2020-12-06T10:05:24.956000+00:00</time>
      </trkpt>
      <trkpt lat="0" lon="0">
        <time>2020-12-06T10:05:24.966000+00:00</time>
      </trkpt>
      <trkpt lat="0" lon="0">
        <time>2020-12-06T10:05:24.968000+00:00</time>
      </trkpt>
      <trkpt lat="47.33094" lon="-1.34428">
        <ele>70</ele>
        <time>2020-12-06T10:05:25.933000+00:00</time>
      </trkpt>
      <trkpt lat="0" lon="0">
        <time>2020-12-06T10:05:25.936000+00:00</time>
      </trkpt>
      <trkpt lat="0" lon="0">
        <time>2020-12-06T10:05:25.945000+00:00</time>
      </trkpt>
      <trkpt lat="0" lon="0">
        <time>2020-12-06T10:05:25.947000+00:00</time>
      </trkpt>
      <trkpt lat="47.3309" lon="-1.34434">
        <ele>70</ele>
        <time>2020-12-06T10:05:26.958000+00:00</time>
      </trkpt>
      <trkpt lat="0" lon="0">
        <time>2020-12-06T10:05:26.975000+00:00</time>
      </trkpt>
      <trkpt lat="0" lon="0">
        <time>2020-12-06T10:05:26.982000+00:00</time>
      </trkpt>
      <trkpt lat="0" lon="0">
        <time>2020-12-06T10:05:26.984000+00:00</time>
      </trkpt>
      <trkpt lat="47.33086" lon="-1.3444">
        <ele>70</ele>
        <time>2020-12-06T10:05:27.963000+00:00</time>
      </trkpt>
      <trkpt lat="0" lon="0">
        <time>2020-12-06T10:05:27.967000+00:00</time>
      </trkpt>
      <trkpt lat="0" lon="0">
        <time>2020-12-06T10:05:27.974000+00:00</time>
      </trkpt>
      <trkpt lat="0" lon="0">
        <time>2020-12-06T10:05:27.984000+00:00</time>
      </trkpt>
      <trkpt lat="47.33082" lon="-1.34446">
        <ele>71</ele>
        <time>2020-12-06T10:05:28.970000+00:00</time>
      </trkpt>
      <trkpt lat="0" lon="0">
        <time>2020-12-06T10:05:28.974000+00:00</time>
      </trkpt>
      <trkpt lat="0" lon="0">
        <time>2020-12-06T10:05:28.979000+00:00</time>
      </trkpt>
      <trkpt lat="0" lon="0">
        <time>2020-12-06T10:05:28.981000+00:00</time>
      </trkpt>
      <trkpt lat="47.33078" lon="-1.34451">
        <ele>71</ele>
        <time>2020-12-06T10:05:29.955000+00:00</time>
      </trkpt>
      <trkpt lat="0" lon="0">
        <time>2020-12-06T10:05:29.967000+00:00</time>
      </trkpt>
      <trkpt lat="0" lon="0">
        <time>2020-12-06T10:05:29.971000+00:00</time>
      </trkpt>
      <trkpt lat="0" lon="0">
        <time>2020-12-06T10:05:29.973000+00:00</time>
      </trkpt>
      <trkpt lat="47.33075" lon="-1.34457">
        <ele>71</ele>
        <time>2020-12-06T10:05:30.952000+00:00</time>
      </trkpt>
      <trkpt lat="0" lon="0">
        <time>2020-12-06T10:05:30.968000+00:00</time>
      </trkpt>
      <trkpt lat="0" lon="0">
        <time>2020-12-06T10:05:30.977000+00:00</time>
      </trkpt>
      <trkpt lat="0" lon="0">
        <time>2020-12-06T10:05:30.979000+00:00</time>
      </trkpt>
      <trkpt lat="47.33071" lon="-1.34462">
        <ele>72</ele>
        <time>2020-12-06T10:05:31.940000+00:00</time>
      </trkpt>
      <trkpt lat="0" lon="0">
        <time>2020-12-06T10:05:31.951000+00:00</time>
      </trkpt>
      <trkpt lat="0" lon="0">
        <time>2020-12-06T10:05:31.957000+00:00</time>
      </trkpt>
      <trkpt lat="0" lon="0">
        <time>2020-12-06T10:05:31.960000+00:00</time>
      </trkpt>
      <trkpt lat="47.33068" lon="-1.34467">
        <ele>72</ele>
        <time>2020-12-06T10:05:32.930000+00:00</time>
      </trkpt>
      <trkpt lat="0" lon="0">
        <time>2020-12-06T10:05:32.946000+00:00</time>
      </trkpt>
      <trkpt lat="0" lon="0">
        <time>2020-12-06T10:05:32.951000+00:00</time>
      </trkpt>
      <trkpt lat="0" lon="0">
        <time>2020-12-06T10:05:32.954000+00:00</time>
      </trkpt>
      <trkpt lat="47.33065" lon="-1.34472">
        <ele>72</ele>
        <time>2020-12-06T10:05:33.969000+00:00</time>
      </trkpt>
      <trkpt lat="0" lon="0">
        <time>2020-12-06T10:05:33.975000+00:00</time>
      </trkpt>
      <trkpt lat="0" lon="0">
        <time>2020-12-06T10:05:33.977000+00:00</time>
      </trkpt>
      <trkpt lat="0" lon="0">
        <time>2020-12-06T10:05:33.978000+00:00</time>
      </trkpt>
      <trkpt lat="47.33062" lon="-1.34477">
        <ele>72</ele>
        <time>2020-12-06T10:05:34.911000+00:00</time>
      </trkpt>
      <trkpt lat="0" lon="0">
        <time>2020-12-06T10:05:34.917000+00:00</time>
      </trkpt>
      <trkpt lat="0" lon="0">
        <time>2020-12-06T10:05:34.923000+00:00</time>
      </trkpt>
      <trkpt lat="0" lon="0">
        <time>2020-12-06T10:05:34.925000+00:00</time>
      </trkpt>
      <trkpt lat="47.33059" lon="-1.34481">
        <ele>73</ele>
        <time>2020-12-06T10:05:35.937000+00:00</time>
      </trkpt>
      <trkpt lat="0" lon="0">
        <time>2020-12-06T10:05:35.949000+00:00</time>
      </trkpt>
      <trkpt lat="0" lon="0">
        <time>2020-12-06T10:05:35.953000+00:00</time>
      </trkpt>
      <trkpt lat="0" lon="0">
        <time>2020-12-06T10:05:35.955000+00:00</time>
      </trkpt>
      <trkpt lat="47.33056" lon="-1.34486">
        <ele>73</ele>
        <time>2020-12-06T10:05:36.957000+00:00</time>
      </trkpt>
      <trkpt lat="0" lon="0">
        <time>2020-12-06T10:05:36.963000+00:00</time>
      </trkpt>
      <trkpt lat="0" lon="0">
        <time>2020-12-06T10:05:36.967000+00:00</time>
      </trkpt>
      <trkpt lat="0" lon="0">
        <time>2020-12-06T10:05:36.973000+00:00</time>
      </trkpt>
      <trkpt lat="47.33053" lon="-1.34491">
        <ele>73</ele>
        <time>2020-12-06T10:05:37.933000+00:00</time>
      </trkpt>
      <trkpt lat="0" lon="0">
        <time>2020-12-06T10:05:37.937000+00:00</time>
      </trkpt>
      <trkpt lat="0" lon="0">
        <time>2020-12-06T10:05:37.943000+00:00</time>
      </trkpt>
      <trkpt lat="0" lon="0">
        <time>2020-12-06T10:05:37.945000+00:00</time>
      </trkpt>
      <trkpt lat="47.3305" lon="-1.34496">
        <ele>74</ele>
        <time>2020-12-06T10:05:38.955000+00:00</time>
      </trkpt>
      <trkpt lat="0" lon="0">
        <time>2020-12-06T10:05:38.974000+00:00</time>
      </trkpt>
      <trkpt lat="0" lon="0">
        <time>2020-12-06T10:05:38.982000+00:00</time>
      </trkpt>
      <trkpt lat="0" lon="0">
        <time>2020-12-06T10:05:38.984000+00:00</time>
      </trkpt>
      <trkpt lat="47.33047" lon="-1.34501">
        <ele>74</ele>
        <time>2020-12-06T10:05:39.933000+00:00</time>
      </trkpt>
      <trkpt lat="0" lon="0">
        <time>2020-12-06T10:05:39.941000+00:00</time>
      </trkpt>
      <trkpt lat="0" lon="0">
        <time>2020-12-06T10:05:39.949000+00:00</time>
      </trkpt>
      <trkpt lat="0" lon="0">
        <time>2020-12-06T10:05:39.951000+00:00</time>
      </trkpt>
      <trkpt lat="47.33045" lon="-1.34505">
        <ele>74</ele>
        <time>2020-12-06T10:05:40.917000+00:00</time>
      </trkpt>
      <trkpt lat="0" lon="0">
        <time>2020-12-06T10:05:40.923000+00:00</time>
      </trkpt>
      <trkpt lat="0" lon="0">
        <time>2020-12-06T10:05:40.930000+00:00</time>
      </trkpt>
      <trkpt lat="0" lon="0">
        <time>2020-12-06T10:05:40.932000+00:00</time>
      </trkpt>
      <trkpt lat="47.33042" lon="-1.3451">
        <ele>74</ele>
        <time>2020-12-06T10:05:41.953000+00:00</time>
      </trkpt>
      <trkpt lat="0" lon="0">
        <time>2020-12-06T10:05:41.962000+00:00</time>
      </trkpt>
      <trkpt lat="0" lon="0">
        <time>2020-12-06T10:05:41.968000+00:00</time>
      </trkpt>
      <trkpt lat="0" lon="0">
        <time>2020-12-06T10:05:41.969000+00:00</time>
      </trkpt>
      <trkpt lat="47.33039" lon="-1.34515">
        <ele>75</ele>
        <time>2020-12-06T10:05:42.974000+00:00</time>
      </trkpt>
      <trkpt lat="0" lon="0">
        <time>2020-12-06T10:05:42.994000+00:00</time>
      </trkpt>
      <trkpt lat="0" lon="0">
        <time>2020-12-06T10:05:43.003000+00:00</time>
      </trkpt>
      <trkpt lat="0" lon="0">
        <time>2020-12-06T10:05:43.006000+00:00</time>
      </trkpt>
      <trkpt lat="47.33036" lon="-1.34519">
        <ele>75</ele>
        <time>2020-12-06T10:05:43.889000+00:00</time>
      </trkpt>
      <trkpt lat="0" lon="0">
        <time>2020-12-06T10:05:43.912000+00:00</time>
      </trkpt>
      <trkpt lat="0" lon="0">
        <time>2020-12-06T10:05:43.916000+00:00</time>
      </trkpt>
      <trkpt lat="0" lon="0">
        <time>2020-12-06T10:05:43.920000+00:00</time>
      </trkpt>
      <trkpt lat="47.33034" lon="-1.34524">
        <ele>75</ele>
        <time>2020-12-06T10:05:44.950000+00:00</time>
      </trkpt>
      <trkpt lat="0" lon="0">
        <time>2020-12-06T10:05:44.957000+00:00</time>
      </trkpt>
      <trkpt lat="0" lon="0">
        <time>2020-12-06T10:05:44.972000+00:00</time>
      </trkpt>
      <trkpt lat="0" lon="0">
        <time>2020-12-06T10:05:44.973000+00:00</time>
      </trkpt>
      <trkpt lat="47.33032" lon="-1.34529">
        <ele>75</ele>
        <time>2020-12-06T10:05:45.947000+00:00</time>
      </trkpt>
      <trkpt lat="0" lon="0">
        <time>2020-12-06T10:05:45.954000+00:00</time>
      </trkpt>
      <trkpt lat="0" lon="0">
        <time>2020-12-06T10:05:45.959000+00:00</time>
      </trkpt>
      <trkpt lat="0" lon="0">
        <time>2020-12-06T10:05:45.961000+00:00</time>
      </trkpt>
      <trkpt lat="47.33029" lon="-1.34533">
        <ele>76</ele>
        <time>2020-12-06T10:05:46.950000+00:00</time>
      </trkpt>
      <trkpt lat="0" lon="0">
        <time>2020-12-06T10:05:46.960000+00:00</time>
      </trkpt>
      <trkpt lat="0" lon="0">
        <time>2020-12-06T10:05:46.965000+00:00</time>
      </trkpt>
      <trkpt lat="0" lon="0">
        <time>2020-12-06T10:05:46.967000+00:00</time>
      </trkpt>
      <trkpt lat="47.33027" lon="-1.34538">
        <ele>76</ele>
        <time>2020-12-06T10:05:47.968000+00:00</time>
      </trkpt>
      <trkpt lat="0" lon="0">
        <time>2020-12-06T10:05:47.974000+00:00</time>
      </trkpt>
      <trkpt lat="0" lon="0">
        <time>2020-12-06T10:05:47.979000+00:00</time>
      </trkpt>
      <trkpt lat="0" lon="0">
        <time>2020-12-06T10:05:47.983000+00:00</time>
      </trkpt>
      <trkpt lat="47.33025" lon="-1.34542">
        <ele>76</ele>
        <time>2020-12-06T10:05:48.979000+00:00</time>
      </trkpt>
      <trkpt lat="0" lon="0">
        <time>2020-12-06T10:05:48.983000+00:00</time>
      </trkpt>
      <trkpt lat="0" lon="0">
        <time>2020-12-06T10:05:48.990000+00:00</time>
      </trkpt>
      <trkpt lat="0" lon="0">
        <time>2020-12-06T10:05:48.992000+00:00</time>
      </trkpt>
      <trkpt lat="47.33023" lon="-1.34546">
        <ele>77</ele>
        <time>2020-12-06T10:05:49.997000+00:00</time>
      </trkpt>
      <trkpt lat="0" lon="0">
        <time>2020-12-06T10:05:50.012000+00:00</time>
      </trkpt>
      <trkpt lat="0" lon="0">
        <time>2020-12-06T10:05:50.018000+00:00</time>
      </trkpt>
      <trkpt lat="0" lon="0">
        <time>2020-12-06T10:05:50.020000+00:00</time>
      </trkpt>
      <trkpt lat="47.33021" lon="-1.3455">
        <ele>77</ele>
        <time>2020-12-06T10:05:50.971000+00:00</time>
      </trkpt>
      <trkpt lat="0" lon="0">
        <time>2020-12-06T10:05:50.975000+00:00</time>
      </trkpt>
      <trkpt lat="0" lon="0">
        <time>2020-12-06T10:05:50.979000+00:00</time>
      </trkpt>
      <trkpt lat="0" lon="0">
        <time>2020-12-06T10:05:50.981000+00:00</time>
      </trkpt>
      <trkpt lat="47.3302" lon="-1.34555">
        <ele>77</ele>
        <time>2020-12-06T10:05:51.971000+00:00</time>
      </trkpt>
      <trkpt lat="0" lon="0">
        <time>2020-12-06T10:05:51.978000+00:00</time>
      </trkpt>
      <trkpt lat="0" lon="0">
        <time>2020-12-06T10:05:51.980000+00:00</time>
      </trkpt>
      <trkpt lat="0" lon="0">
        <time>2020-12-06T10:05:51.982000+00:00</time>
      </trkpt>
      <trkpt lat="47.33018" lon="-1.34559">
        <ele>77</ele>
        <time>2020-12-06T10:05:52.976000+00:00</time>
      </trkpt>
      <trkpt lat="0" lon="0">
        <time>2020-12-06T10:05:52.982000+00:00</time>
      </trkpt>
      <trkpt lat="0" lon="0">
        <time>2020-12-06T10:05:52.986000+00:00</time>
      </trkpt>
      <trkpt lat="0" lon="0">
        <time>2020-12-06T10:05:52.987000+00:00</time>
      </trkpt>
      <trkpt lat="47.33016" lon="-1.34563">
        <ele>78</ele>
        <time>2020-12-06T10:05:53.954000+00:00</time>
      </trkpt>
      <trkpt lat="0" lon="0">
        <time>2020-12-06T10:05:53.967000+00:00</time>
      </trkpt>
      <trkpt lat="0" lon="0">
        <time>2020-12-06T10:05:53.974000+00:00</time>
      </trkpt>
      <trkpt lat="0" lon="0">
        <time>2020-12-06T10:05:53.976000+00:00</time>
      </trkpt>
      <trkpt lat="47.33014" lon="-1.34567">
        <ele>78</ele>
        <time>2020-12-06T10:05:54.924000+00:00</time>
      </trkpt>
      <trkpt lat="0" lon="0">
        <time>2020-12-06T10:05:54.937000+00:00</time>
      </trkpt>
      <trkpt lat="0" lon="0">
        <time>2020-12-06T10:05:54.941000+00:00</time>
      </trkpt>
      <trkpt lat="0" lon="0">
        <time>2020-12-06T10:05:54.944000+00:00</time>
      </trkpt>
      <trkpt lat="47.33013" lon="-1.34572">
        <ele>78</ele>
        <time>2020-12-06T10:05:55.950000+00:00</time>
      </trkpt>
      <trkpt lat="0" lon="0">
        <time>2020-12-06T10:05:55.958000+00:00</time>
      </trkpt>
      <trkpt lat="0" lon="0">
        <time>2020-12-06T10:05:55.962000+00:00</time>
      </trkpt>
      <trkpt lat="0" lon="0">
        <time>2020-12-06T10:05:55.969000+00:00</time>
      </trkpt>
      <trkpt lat="47.33011" lon="-1.34576">
        <ele>79</ele>
        <time>2020-12-06T10:05:56.948000+00:00</time>
      </trkpt>
      <trkpt lat="0" lon="0">
        <time>2020-12-06T10:05:56.970000+00:00</time>
      </trkpt>
      <trkpt lat="0" lon="0">
        <time>2020-12-06T10:05:56.974000+00:00</time>
      </trkpt>
      <trkpt lat="0" lon="0">
        <time>2020-12-06T10:05:56.976000+00:00</time>
      </trkpt>
      <trkpt lat="47.33009" lon="-1.3458">
        <ele>79</ele>
        <time>2020-12-06T10:05:57.930000+00:00</time>
      </trkpt>
      <trkpt lat="0" lon="0">
        <time>2020-12-06T10:05:57.945000+00:00</time>
      </trkpt>
      <trkpt lat="0" lon="0">
        <time>2020-12-06T10:05:57.957000+00:00</time>
      </trkpt>
      <trkpt lat="0" lon="0">
        <time>2020-12-06T10:05:57.966000+00:00</time>
      </trkpt>
      <trkpt lat="47.33008" lon="-1.34584">
        <ele>79</ele>
        <time>2020-12-06T10:05:58.971000+00:00</time>
      </trkpt>
      <trkpt lat="0" lon="0">
        <time>2020-12-06T10:05:58.979000+00:00</time>
      </trkpt>
      <trkpt lat="0" lon="0">
        <time>2020-12-06T10:05:58.984000+00:00</time>
      </trkpt>
      <trkpt lat="0" lon="0">
        <time>2020-12-06T10:05:58.992000+00:00</time>
      </trkpt>
      <trkpt lat="47.33006" lon="-1.34588">
        <ele>79</ele>
        <time>2020-12-06T10:05:59.977000+00:00</time>
      </trkpt>
      <trkpt lat="0" lon="0">
        <time>2020-12-06T10:05:59.988000+00:00</time>
      </trkpt>
      <trkpt lat="0" lon="0">
        <time>2020-12-06T10:05:59.994000+00:00</time>
      </trkpt>
      <trkpt lat="0" lon="0">
        <time>2020-12-06T10:05:59.996000+00:00</time>
      </trkpt>
      <trkpt lat="47.33004" lon="-1.34592">
        <ele>79</ele>
        <time>2020-12-06T10:06:00.919000+00:00</time>
      </trkpt>
      <trkpt lat="0" lon="0">
        <time>2020-12-06T10:06:00.939000+00:00</time>
      </trkpt>
      <trkpt lat="0" lon="0">
        <time>2020-12-06T10:06:00.943000+00:00</time>
      </trkpt>
      <trkpt lat="0" lon="0">
        <time>2020-12-06T10:06:00.944000+00:00</time>
      </trkpt>
      <trkpt lat="47.33002" lon="-1.34596">
        <ele>79</ele>
        <time>2020-12-06T10:06:01.915000+00:00</time>
      </trkpt>
      <trkpt lat="0" lon="0">
        <time>2020-12-06T10:06:01.932000+00:00</time>
      </trkpt>
      <trkpt lat="0" lon="0">
        <time>2020-12-06T10:06:01.938000+00:00</time>
      </trkpt>
      <trkpt lat="0" lon="0">
        <time>2020-12-06T10:06:01.941000+00:00</time>
      </trkpt>
      <trkpt lat="47.33" lon="-1.34601">
        <ele>79</ele>
        <time>2020-12-06T10:06:02.943000+00:00</time>
      </trkpt>
      <trkpt lat="0" lon="0">
        <time>2020-12-06T10:06:02.952000+00:00</time>
      </trkpt>
      <trkpt lat="0" lon="0">
        <time>2020-12-06T10:06:02.960000+00:00</time>
      </trkpt>
      <trkpt lat="0" lon="0">
        <time>2020-12-06T10:06:02.962000+00:00</time>
      </trkpt>
      <trkpt lat="47.32998" lon="-1.34605">
        <ele>79</ele>
        <time>2020-12-06T10:06:03.933000+00:00</time>
      </trkpt>
      <trkpt lat="0" lon="0">
        <time>2020-12-06T10:06:03.945000+00:00</time>
      </trkpt>
      <trkpt lat="0" lon="0">
        <time>2020-12-06T10:06:03.949000+00:00</time>
      </trkpt>
      <trkpt lat="0" lon="0">
        <time>2020-12-06T10:06:03.951000+00:00</time>
      </trkpt>
      <trkpt lat="47.32996" lon="-1.34609">
        <ele>79</ele>
        <time>2020-12-06T10:06:04.946000+00:00</time>
      </trkpt>
      <trkpt lat="0" lon="0">
        <time>2020-12-06T10:06:04.954000+00:00</time>
      </trkpt>
      <trkpt lat="0" lon="0">
        <time>2020-12-06T10:06:04.957000+00:00</time>
      </trkpt>
      <trkpt lat="0" lon="0">
        <time>2020-12-06T10:06:04.966000+00:00</time>
      </trkpt>
      <trkpt lat="47.32994" lon="-1.34613">
        <ele>79</ele>
        <time>2020-12-06T10:06:05.924000+00:00</time>
      </trkpt>
      <trkpt lat="0" lon="0">
        <time>2020-12-06T10:06:05.936000+00:00</time>
      </trkpt>
      <trkpt lat="0" lon="0">
        <time>2020-12-06T10:06:05.940000+00:00</time>
      </trkpt>
      <trkpt lat="0" lon="0">
        <time>2020-12-06T10:06:05.945000+00:00</time>
      </trkpt>
      <trkpt lat="47.32992" lon="-1.34617">
        <ele>79</ele>
        <time>2020-12-06T10:06:06.981000+00:00</time>
      </trkpt>
      <trkpt lat="0" lon="0">
        <time>2020-12-06T10:06:06.987000+00:00</time>
      </trkpt>
      <trkpt lat="0" lon="0">
        <time>2020-12-06T10:06:06.990000+00:00</time>
      </trkpt>
      <trkpt lat="0" lon="0">
        <time>2020-12-06T10:06:06.992000+00:00</time>
      </trkpt>
      <trkpt lat="47.3299" lon="-1.34621">
        <ele>79</ele>
        <time>2020-12-06T10:06:07.958000+00:00</time>
      </trkpt>
      <trkpt lat="0" lon="0">
        <time>2020-12-06T10:06:07.976000+00:00</time>
      </trkpt>
      <trkpt lat="0" lon="0">
        <time>2020-12-06T10:06:07.981000+00:00</time>
      </trkpt>
      <trkpt lat="0" lon="0">
        <time>2020-12-06T10:06:07.983000+00:00</time>
      </trkpt>
      <trkpt lat="47.32988" lon="-1.34625">
        <ele>79</ele>
        <time>2020-12-06T10:06:08.912000+00:00</time>
      </trkpt>
      <trkpt lat="0" lon="0">
        <time>2020-12-06T10:06:08.919000+00:00</time>
      </trkpt>
      <trkpt lat="0" lon="0">
        <time>2020-12-06T10:06:08.921000+00:00</time>
      </trkpt>
      <trkpt lat="0" lon="0">
        <time>2020-12-06T10:06:08.922000+00:00</time>
      </trkpt>
      <trkpt lat="47.32986" lon="-1.34629">
        <ele>79</ele>
        <time>2020-12-06T10:06:09.942000+00:00</time>
      </trkpt>
      <trkpt lat="0" lon="0">
        <time>2020-12-06T10:06:09.951000+00:00</time>
      </trkpt>
      <trkpt lat="0" lon="0">
        <time>2020-12-06T10:06:09.959000+00:00</time>
      </trkpt>
      <trkpt lat="0" lon="0">
        <time>2020-12-06T10:06:09.961000+00:00</time>
      </trkpt>
      <trkpt lat="47.32984" lon="-1.34632">
        <ele>79</ele>
        <time>2020-12-06T10:06:10.957000+00:00</time>
      </trkpt>
      <trkpt lat="0" lon="0">
        <time>2020-12-06T10:06:10.963000+00:00</time>
      </trkpt>
      <trkpt lat="0" lon="0">
        <time>2020-12-06T10:06:10.969000+00:00</time>
      </trkpt>
      <trkpt lat="0" lon="0">
        <time>2020-12-06T10:06:10.971000+00:00</time>
      </trkpt>
      <trkpt lat="47.32982" lon="-1.34636">
        <ele>79</ele>
        <time>2020-12-06T10:06:11.938000+00:00</time>
      </trkpt>
      <trkpt lat="0" lon="0">
        <time>2020-12-06T10:06:11.950000+00:00</time>
      </trkpt>
      <trkpt lat="0" lon="0">
        <time>2020-12-06T10:06:11.952000+00:00</time>
      </trkpt>
      <trkpt lat="0" lon="0">
        <time>2020-12-06T10:06:11.953000+00:00</time>
      </trkpt>
      <trkpt lat="47.32979" lon="-1.3464">
        <ele>79</ele>
        <time>2020-12-06T10:06:12.941000+00:00</time>
      </trkpt>
      <trkpt lat="0" lon="0">
        <time>2020-12-06T10:06:12.954000+00:00</time>
      </trkpt>
      <trkpt lat="0" lon="0">
        <time>2020-12-06T10:06:12.966000+00:00</time>
      </trkpt>
      <trkpt lat="0" lon="0">
        <time>2020-12-06T10:06:12.972000+00:00</time>
      </trkpt>
      <trkpt lat="47.32977" lon="-1.34644">
        <ele>79</ele>
        <time>2020-12-06T10:06:13.962000+00:00</time>
      </trkpt>
      <trkpt lat="0" lon="0">
        <time>2020-12-06T10:06:13.975000+00:00</time>
      </trkpt>
      <trkpt lat="0" lon="0">
        <time>2020-12-06T10:06:13.982000+00:00</time>
      </trkpt>
      <trkpt lat="0" lon="0">
        <time>2020-12-06T10:06:13.984000+00:00</time>
      </trkpt>
      <trkpt lat="47.32975" lon="-1.34647">
        <ele>79</ele>
        <time>2020-12-06T10:06:14.881000+00:00</time>
      </trkpt>
      <trkpt lat="0" lon="0">
        <time>2020-12-06T10:06:14.884000+00:00</time>
      </trkpt>
      <trkpt lat="0" lon="0">
        <time>2020-12-06T10:06:14.888000+00:00</time>
      </trkpt>
      <trkpt lat="0" lon="0">
        <time>2020-12-06T10:06:14.890000+00:00</time>
      </trkpt>
      <trkpt lat="47.32974" lon="-1.34651">
        <ele>79</ele>
        <time>2020-12-06T10:06:15.948000+00:00</time>
      </trkpt>
      <trkpt lat="0" lon="0">
        <time>2020-12-06T10:06:15.953000+00:00</time>
      </trkpt>
      <trkpt lat="0" lon="0">
        <time>2020-12-06T10:06:15.957000+00:00</time>
      </trkpt>
      <trkpt lat="0" lon="0">
        <time>2020-12-06T10:06:15.958000+00:00</time>
      </trkpt>
      <trkpt lat="47.32973" lon="-1.34654">
        <ele>79</ele>
        <time>2020-12-06T10:06:16.962000+00:00</time>
      </trkpt>
      <trkpt lat="0" lon="0">
        <time>2020-12-06T10:06:16.967000+00:00</time>
      </trkpt>
      <trkpt lat="0" lon="0">
        <time>2020-12-06T10:06:16.972000+00:00</time>
      </trkpt>
      <trkpt lat="0" lon="0">
        <time>2020-12-06T10:06:16.974000+00:00</time>
      </trkpt>
      <trkpt lat="47.32973" lon="-1.34657">
        <ele>79</ele>
        <time>2020-12-06T10:06:17.900000+00:00</time>
      </trkpt>
      <trkpt lat="0" lon="0">
        <time>2020-12-06T10:06:17.908000+00:00</time>
      </trkpt>
      <trkpt lat="0" lon="0">
        <time>2020-12-06T10:06:17.912000+00:00</time>
      </trkpt>
      <trkpt lat="0" lon="0">
        <time>2020-12-06T10:06:17.918000+00:00</time>
      </trkpt>
      <trkpt lat="47.32972" lon="-1.34659">
        <ele>79</ele>
        <time>2020-12-06T10:06:18.920000+00:00</time>
      </trkpt>
      <trkpt lat="0" lon="0">
        <time>2020-12-06T10:06:18.928000+00:00</time>
      </trkpt>
      <trkpt lat="0" lon="0">
        <time>2020-12-06T10:06:18.934000+00:00</time>
      </trkpt>
      <trkpt lat="0" lon="0">
        <time>2020-12-06T10:06:18.940000+00:00</time>
      </trkpt>
      <trkpt lat="47.32972" lon="-1.34662">
        <ele>79</ele>
        <time>2020-12-06T10:06:19.912000+00:00</time>
      </trkpt>
      <trkpt lat="0" lon="0">
        <time>2020-12-06T10:06:19.917000+00:00</time>
      </trkpt>
      <trkpt lat="0" lon="0">
        <time>2020-12-06T10:06:19.921000+00:00</time>
      </trkpt>
      <trkpt lat="0" lon="0">
        <time>2020-12-06T10:06:19.922000+00:00</time>
      </trkpt>
      <trkpt lat="47.32973" lon="-1.34665">
        <ele>79</ele>
        <time>2020-12-06T10:06:20.964000+00:00</time>
      </trkpt>
      <trkpt lat="0" lon="0">
        <time>2020-12-06T10:06:20.976000+00:00</time>
      </trkpt>
      <trkpt lat="0" lon="0">
        <time>2020-12-06T10:06:20.981000+00:00</time>
      </trkpt>
      <trkpt lat="0" lon="0">
        <time>2020-12-06T10:06:20.989000+00:00</time>
      </trkpt>
      <trkpt lat="47.32974" lon="-1.34668">
        <ele>78</ele>
        <time>2020-12-06T10:06:21.976000+00:00</time>
      </trkpt>
      <trkpt lat="0" lon="0">
        <time>2020-12-06T10:06:21.985000+00:00</time>
      </trkpt>
      <trkpt lat="0" lon="0">
        <time>2020-12-06T10:06:21.992000+00:00</time>
      </trkpt>
      <trkpt lat="0" lon="0">
        <time>2020-12-06T10:06:22+00:00</time>
      </trkpt>
      <trkpt lat="47.32975" lon="-1.34672">
        <ele>78</ele>
        <time>2020-12-06T10:06:22.953000+00:00</time>
      </trkpt>
      <trkpt lat="0" lon="0">
        <time>2020-12-06T10:06:22.959000+00:00</time>
      </trkpt>
      <trkpt lat="0" lon="0">
        <time>2020-12-06T10:06:22.964000+00:00</time>
      </trkpt>
      <trkpt lat="0" lon="0">
        <time>2020-12-06T10:06:22.966000+00:00</time>
      </trkpt>
      <trkpt lat="47.32977" lon="-1.34675">
        <ele>78</ele>
        <time>2020-12-06T10:06:23.967000+00:00</time>
      </trkpt>
      <trkpt lat="0" lon="0">
        <time>2020-12-06T10:06:23.976000+00:00</time>
      </trkpt>
      <trkpt lat="0" lon="0">
        <time>2020-12-06T10:06:23.979000+00:00</time>
      </trkpt>
      <trkpt lat="0" lon="0">
        <time>2020-12-06T10:06:23.982000+00:00</time>
      </trkpt>
      <trkpt lat="47.32978" lon="-1.34679">
        <ele>78</ele>
        <time>2020-12-06T10:06:24.923000+00:00</time>
      </trkpt>
      <trkpt lat="0" lon="0">
        <time>2020-12-06T10:06:24.930000+00:00</time>
      </trkpt>
      <trkpt lat="0" lon="0">
        <time>2020-12-06T10:06:24.934000+00:00</time>
      </trkpt>
      <trkpt lat="0" lon="0">
        <time>2020-12-06T10:06:24.936000+00:00</time>
      </trkpt>
      <trkpt lat="47.3298" lon="-1.34683">
        <ele>78</ele>
        <time>2020-12-06T10:06:25.982000+00:00</time>
      </trkpt>
      <trkpt lat="0" lon="0">
        <time>2020-12-06T10:06:26.003000+00:00</time>
      </trkpt>
      <trkpt lat="0" lon="0">
        <time>2020-12-06T10:06:26.010000+00:00</time>
      </trkpt>
      <trkpt lat="0" lon="0">
        <time>2020-12-06T10:06:26.012000+00:00</time>
      </trkpt>
      <trkpt lat="47.32982" lon="-1.34687">
        <ele>78</ele>
        <time>2020-12-06T10:06:26.956000+00:00</time>
      </trkpt>
      <trkpt lat="0" lon="0">
        <time>2020-12-06T10:06:26.971000+00:00</time>
      </trkpt>
      <trkpt lat="0" lon="0">
        <time>2020-12-06T10:06:26.981000+00:00</time>
      </trkpt>
      <trkpt lat="0" lon="0">
        <time>2020-12-06T10:06:26.985000+00:00</time>
      </trkpt>
      <trkpt lat="47.32985" lon="-1.34691">
        <ele>78</ele>
        <time>2020-12-06T10:06:28.032000+00:00</time>
      </trkpt>
      <trkpt lat="0" lon="0">
        <time>2020-12-06T10:06:28.044000+00:00</time>
      </trkpt>
      <trkpt lat="0" lon="0">
        <time>2020-12-06T10:06:28.055000+00:00</time>
      </trkpt>
      <trkpt lat="0" lon="0">
        <time>2020-12-06T10:06:28.060000+00:00</time>
      </trkpt>
      <trkpt lat="47.32987" lon="-1.34695">
        <ele>78</ele>
        <time>2020-12-06T10:06:28.945000+00:00</time>
      </trkpt>
      <trkpt lat="0" lon="0">
        <time>2020-12-06T10:06:28.955000+00:00</time>
      </trkpt>
      <trkpt lat="0" lon="0">
        <time>2020-12-06T10:06:28.972000+00:00</time>
      </trkpt>
      <trkpt lat="0" lon="0">
        <time>2020-12-06T10:06:28.974000+00:00</time>
      </trkpt>
      <trkpt lat="47.3299" lon="-1.347">
        <ele>78</ele>
        <time>2020-12-06T10:06:29.970000+00:00</time>
      </trkpt>
      <trkpt lat="0" lon="0">
        <time>2020-12-06T10:06:29.976000+00:00</time>
      </trkpt>
      <trkpt lat="0" lon="0">
        <time>2020-12-06T10:06:29.985000+00:00</time>
      </trkpt>
      <trkpt lat="0" lon="0">
        <time>2020-12-06T10:06:29.987000+00:00</time>
      </trkpt>
      <trkpt lat="47.32992" lon="-1.34704">
        <ele>78</ele>
        <time>2020-12-06T10:06:30.957000+00:00</time>
      </trkpt>
      <trkpt lat="0" lon="0">
        <time>2020-12-06T10:06:30.960000+00:00</time>
      </trkpt>
      <trkpt lat="0" lon="0">
        <time>2020-12-06T10:06:30.963000+00:00</time>
      </trkpt>
      <trkpt lat="0" lon="0">
        <time>2020-12-06T10:06:30.964000+00:00</time>
      </trkpt>
      <trkpt lat="47.32995" lon="-1.34709">
        <ele>78</ele>
        <time>2020-12-06T10:06:31.980000+00:00</time>
      </trkpt>
      <trkpt lat="0" lon="0">
        <time>2020-12-06T10:06:31.993000+00:00</time>
      </trkpt>
      <trkpt lat="0" lon="0">
        <time>2020-12-06T10:06:31.997000+00:00</time>
      </trkpt>
      <trkpt lat="0" lon="0">
        <time>2020-12-06T10:06:31.999000+00:00</time>
      </trkpt>
      <trkpt lat="47.32998" lon="-1.34714">
        <ele>78</ele>
        <time>2020-12-06T10:06:32.959000+00:00</time>
      </trkpt>
      <trkpt lat="0" lon="0">
        <time>2020-12-06T10:06:32.964000+00:00</time>
      </trkpt>
      <trkpt lat="0" lon="0">
        <time>2020-12-06T10:06:32.968000+00:00</time>
      </trkpt>
      <trkpt lat="0" lon="0">
        <time>2020-12-06T10:06:32.970000+00:00</time>
      </trkpt>
      <trkpt lat="47.33001" lon="-1.3472">
        <ele>78</ele>
        <time>2020-12-06T10:06:33.955000+00:00</time>
      </trkpt>
      <trkpt lat="0" lon="0">
        <time>2020-12-06T10:06:33.965000+00:00</time>
      </trkpt>
      <trkpt lat="0" lon="0">
        <time>2020-12-06T10:06:33.969000+00:00</time>
      </trkpt>
      <trkpt lat="0" lon="0">
        <time>2020-12-06T10:06:33.975000+00:00</time>
      </trkpt>
      <trkpt lat="47.33004" lon="-1.34725">
        <ele>78</ele>
        <time>2020-12-06T10:06:34.959000+00:00</time>
      </trkpt>
      <trkpt lat="0" lon="0">
        <time>2020-12-06T10:06:34.966000+00:00</time>
      </trkpt>
      <trkpt lat="0" lon="0">
        <time>2020-12-06T10:06:34.974000+00:00</time>
      </trkpt>
      <trkpt lat="0" lon="0">
        <time>2020-12-06T10:06:34.978000+00:00</time>
      </trkpt>
      <trkpt lat="47.33007" lon="-1.3473">
        <ele>78</ele>
        <time>2020-12-06T10:06:35.956000+00:00</time>
      </trkpt>
      <trkpt lat="0" lon="0">
        <time>2020-12-06T10:06:35.971000+00:00</time>
      </trkpt>
      <trkpt lat="0" lon="0">
        <time>2020-12-06T10:06:35.980000+00:00</time>
      </trkpt>
      <trkpt lat="0" lon="0">
        <time>2020-12-06T10:06:35.986000+00:00</time>
      </trkpt>
      <trkpt lat="47.3301" lon="-1.34735">
        <ele>78</ele>
        <time>2020-12-06T10:06:36.978000+00:00</time>
      </trkpt>
      <trkpt lat="0" lon="0">
        <time>2020-12-06T10:06:36.985000+00:00</time>
      </trkpt>
      <trkpt lat="0" lon="0">
        <time>2020-12-06T10:06:36.989000+00:00</time>
      </trkpt>
      <trkpt lat="0" lon="0">
        <time>2020-12-06T10:06:36.990000+00:00</time>
      </trkpt>
      <trkpt lat="47.33013" lon="-1.34741">
        <ele>78</ele>
        <time>2020-12-06T10:06:37.962000+00:00</time>
      </trkpt>
      <trkpt lat="0" lon="0">
        <time>2020-12-06T10:06:37.968000+00:00</time>
      </trkpt>
      <trkpt lat="0" lon="0">
        <time>2020-12-06T10:06:37.974000+00:00</time>
      </trkpt>
      <trkpt lat="0" lon="0">
        <time>2020-12-06T10:06:37.978000+00:00</time>
      </trkpt>
      <trkpt lat="47.33016" lon="-1.34746">
        <ele>78</ele>
        <time>2020-12-06T10:06:38.958000+00:00</time>
      </trkpt>
      <trkpt lat="0" lon="0">
        <time>2020-12-06T10:06:38.968000+00:00</time>
      </trkpt>
      <trkpt lat="0" lon="0">
        <time>2020-12-06T10:06:38.978000+00:00</time>
      </trkpt>
      <trkpt lat="0" lon="0">
        <time>2020-12-06T10:06:38.980000+00:00</time>
      </trkpt>
      <trkpt lat="47.33018" lon="-1.34751">
        <ele>78</ele>
        <time>2020-12-06T10:06:39.946000+00:00</time>
      </trkpt>
      <trkpt lat="0" lon="0">
        <time>2020-12-06T10:06:39.952000+00:00</time>
      </trkpt>
      <trkpt lat="0" lon="0">
        <time>2020-12-06T10:06:39.959000+00:00</time>
      </trkpt>
      <trkpt lat="0" lon="0">
        <time>2020-12-06T10:06:39.963000+00:00</time>
      </trkpt>
      <trkpt lat="47.33021" lon="-1.34756">
        <ele>78</ele>
        <time>2020-12-06T10:06:40.947000+00:00</time>
      </trkpt>
      <trkpt lat="0" lon="0">
        <time>2020-12-06T10:06:40.951000+00:00</time>
      </trkpt>
      <trkpt lat="0" lon="0">
        <time>2020-12-06T10:06:40.960000+00:00</time>
      </trkpt>
      <trkpt lat="0" lon="0">
        <time>2020-12-06T10:06:40.962000+00:00</time>
      </trkpt>
      <trkpt lat="47.33024" lon="-1.34761">
        <ele>79</ele>
        <time>2020-12-06T10:06:41.988000+00:00</time>
      </trkpt>
      <trkpt lat="0" lon="0">
        <time>2020-12-06T10:06:42.004000+00:00</time>
      </trkpt>
      <trkpt lat="0" lon="0">
        <time>2020-12-06T10:06:42.007000+00:00</time>
      </trkpt>
      <trkpt lat="0" lon="0">
        <time>2020-12-06T10:06:42.010000+00:00</time>
      </trkpt>
      <trkpt lat="47.33026" lon="-1.34765">
        <ele>79</ele>
        <time>2020-12-06T10:06:42.975000+00:00</time>
      </trkpt>
      <trkpt lat="0" lon="0">
        <time>2020-12-06T10:06:42.980000+00:00</time>
      </trkpt>
      <trkpt lat="0" lon="0">
        <time>2020-12-06T10:06:42.986000+00:00</time>
      </trkpt>
      <trkpt lat="0" lon="0">
        <time>2020-12-06T10:06:42.987000+00:00</time>
      </trkpt>
      <trkpt lat="47.33029" lon="-1.3477">
        <ele>79</ele>
        <time>2020-12-06T10:06:43.961000+00:00</time>
      </trkpt>
      <trkpt lat="0" lon="0">
        <time>2020-12-06T10:06:43.966000+00:00</time>
      </trkpt>
      <trkpt lat="0" lon="0">
        <time>2020-12-06T10:06:43.970000+00:00</time>
      </trkpt>
      <trkpt lat="0" lon="0">
        <time>2020-12-06T10:06:43.975000+00:00</time>
      </trkpt>
      <trkpt lat="47.33031" lon="-1.34775">
        <ele>79</ele>
        <time>2020-12-06T10:06:44.962000+00:00</time>
      </trkpt>
      <trkpt lat="0" lon="0">
        <time>2020-12-06T10:06:44.971000+00:00</time>
      </trkpt>
      <trkpt lat="0" lon="0">
        <time>2020-12-06T10:06:44.979000+00:00</time>
      </trkpt>
      <trkpt lat="0" lon="0">
        <time>2020-12-06T10:06:44.981000+00:00</time>
      </trkpt>
      <trkpt lat="47.33034" lon="-1.34779">
        <ele>79</ele>
        <time>2020-12-06T10:06:45.926000+00:00</time>
      </trkpt>
      <trkpt lat="0" lon="0">
        <time>2020-12-06T10:06:45.939000+00:00</time>
      </trkpt>
      <trkpt lat="0" lon="0">
        <time>2020-12-06T10:06:45.945000+00:00</time>
      </trkpt>
      <trkpt lat="0" lon="0">
        <time>2020-12-06T10:06:45.948000+00:00</time>
      </trkpt>
      <trkpt lat="47.33036" lon="-1.34784">
        <ele>79</ele>
        <time>2020-12-06T10:06:46.960000+00:00</time>
      </trkpt>
      <trkpt lat="0" lon="0">
        <time>2020-12-06T10:06:46.963000+00:00</time>
      </trkpt>
      <trkpt lat="0" lon="0">
        <time>2020-12-06T10:06:46.973000+00:00</time>
      </trkpt>
      <trkpt lat="0" lon="0">
        <time>2020-12-06T10:06:46.974000+00:00</time>
      </trkpt>
      <trkpt lat="47.33039" lon="-1.34789">
        <ele>79</ele>
        <time>2020-12-06T10:06:47.979000+00:00</time>
      </trkpt>
      <trkpt lat="0" lon="0">
        <time>2020-12-06T10:06:47.994000+00:00</time>
      </trkpt>
      <trkpt lat="0" lon="0">
        <time>2020-12-06T10:06:48.002000+00:00</time>
      </trkpt>
      <trkpt lat="0" lon="0">
        <time>2020-12-06T10:06:48.006000+00:00</time>
      </trkpt>
      <trkpt lat="47.33042" lon="-1.34794">
        <ele>79</ele>
        <time>2020-12-06T10:06:48.950000+00:00</time>
      </trkpt>
      <trkpt lat="0" lon="0">
        <time>2020-12-06T10:06:48.952000+00:00</time>
      </trkpt>
      <trkpt lat="0" lon="0">
        <time>2020-12-06T10:06:48.955000+00:00</time>
      </trkpt>
      <trkpt lat="0" lon="0">
        <time>2020-12-06T10:06:48.956000+00:00</time>
      </trkpt>
      <trkpt lat="47.33045" lon="-1.348">
        <ele>79</ele>
        <time>2020-12-06T10:06:49.958000+00:00</time>
      </trkpt>
      <trkpt lat="0" lon="0">
        <time>2020-12-06T10:06:49.971000+00:00</time>
      </trkpt>
      <trkpt lat="0" lon="0">
        <time>2020-12-06T10:06:49.982000+00:00</time>
      </trkpt>
      <trkpt lat="0" lon="0">
        <time>2020-12-06T10:06:49.984000+00:00</time>
      </trkpt>
      <trkpt lat="47.33048" lon="-1.34805">
        <ele>79</ele>
        <time>2020-12-06T10:06:50.941000+00:00</time>
      </trkpt>
      <trkpt lat="0" lon="0">
        <time>2020-12-06T10:06:50.955000+00:00</time>
      </trkpt>
      <trkpt lat="0" lon="0">
        <time>2020-12-06T10:06:50.959000+00:00</time>
      </trkpt>
      <trkpt lat="0" lon="0">
        <time>2020-12-06T10:06:50.961000+00:00</time>
      </trkpt>
      <trkpt lat="47.33051" lon="-1.34811">
        <ele>79</ele>
        <time>2020-12-06T10:06:51.943000+00:00</time>
      </trkpt>
      <trkpt lat="0" lon="0">
        <time>2020-12-06T10:06:51.957000+00:00</time>
      </trkpt>
      <trkpt lat="0" lon="0">
        <time>2020-12-06T10:06:51.967000+00:00</time>
      </trkpt>
      <trkpt lat="0" lon="0">
        <time>2020-12-06T10:06:51.969000+00:00</time>
      </trkpt>
      <trkpt lat="47.33054" lon="-1.34817">
        <ele>79</ele>
        <time>2020-12-06T10:06:52.983000+00:00</time>
      </trkpt>
      <trkpt lat="0" lon="0">
        <time>2020-12-06T10:06:52.990000+00:00</time>
      </trkpt>
      <trkpt lat="0" lon="0">
        <time>2020-12-06T10:06:52.998000+00:00</time>
      </trkpt>
      <trkpt lat="0" lon="0">
        <time>2020-12-06T10:06:53.006000+00:00</time>
      </trkpt>
      <trkpt lat="47.33056" lon="-1.34823">
        <ele>78</ele>
        <time>2020-12-06T10:06:53.974000+00:00</time>
      </trkpt>
      <trkpt lat="0" lon="0">
        <time>2020-12-06T10:06:53.977000+00:00</time>
      </trkpt>
      <trkpt lat="0" lon="0">
        <time>2020-12-06T10:06:53.983000+00:00</time>
      </trkpt>
      <trkpt lat="0" lon="0">
        <time>2020-12-06T10:06:53.985000+00:00</time>
      </trkpt>
      <trkpt lat="47.33059" lon="-1.34829">
        <ele>78</ele>
        <time>2020-12-06T10:06:54.909000+00:00</time>
      </trkpt>
      <trkpt lat="0" lon="0">
        <time>2020-12-06T10:06:54.919000+00:00</time>
      </trkpt>
      <trkpt lat="0" lon="0">
        <time>2020-12-06T10:06:54.924000+00:00</time>
      </trkpt>
      <trkpt lat="0" lon="0">
        <time>2020-12-06T10:06:54.937000+00:00</time>
      </trkpt>
      <trkpt lat="47.33062" lon="-1.34835">
        <ele>78</ele>
        <time>2020-12-06T10:06:55.935000+00:00</time>
      </trkpt>
      <trkpt lat="0" lon="0">
        <time>2020-12-06T10:06:55.938000+00:00</time>
      </trkpt>
      <trkpt lat="0" lon="0">
        <time>2020-12-06T10:06:55.943000+00:00</time>
      </trkpt>
      <trkpt lat="0" lon="0">
        <time>2020-12-06T10:06:55.945000+00:00</time>
      </trkpt>
      <trkpt lat="47.33064" lon="-1.3484">
        <ele>78</ele>
        <time>2020-12-06T10:06:56.906000+00:00</time>
      </trkpt>
      <trkpt lat="0" lon="0">
        <time>2020-12-06T10:06:56.908000+00:00</time>
      </trkpt>
      <trkpt lat="0" lon="0">
        <time>2020-12-06T10:06:56.914000+00:00</time>
      </trkpt>
      <trkpt lat="0" lon="0">
        <time>2020-12-06T10:06:56.919000+00:00</time>
      </trkpt>
      <trkpt lat="47.33067" lon="-1.34846">
        <ele>78</ele>
        <time>2020-12-06T10:06:57.993000+00:00</time>
      </trkpt>
      <trkpt lat="0" lon="0">
        <time>2020-12-06T10:06:57.997000+00:00</time>
      </trkpt>
      <trkpt lat="0" lon="0">
        <time>2020-12-06T10:06:58.006000+00:00</time>
      </trkpt>
      <trkpt lat="0" lon="0">
        <time>2020-12-06T10:06:58.009000+00:00</time>
      </trkpt>
      <trkpt lat="47.33069" lon="-1.34852">
        <ele>78</ele>
        <time>2020-12-06T10:06:58.970000+00:00</time>
      </trkpt>
      <trkpt lat="0" lon="0">
        <time>2020-12-06T10:06:58.978000+00:00</time>
      </trkpt>
      <trkpt lat="0" lon="0">
        <time>2020-12-06T10:06:58.981000+00:00</time>
      </trkpt>
      <trkpt lat="0" lon="0">
        <time>2020-12-06T10:06:58.983000+00:00</time>
      </trkpt>
      <trkpt lat="47.33072" lon="-1.34858">
        <ele>78</ele>
        <time>2020-12-06T10:06:59.955000+00:00</time>
      </trkpt>
      <trkpt lat="0" lon="0">
        <time>2020-12-06T10:06:59.963000+00:00</time>
      </trkpt>
      <trkpt lat="0" lon="0">
        <time>2020-12-06T10:06:59.966000+00:00</time>
      </trkpt>
      <trkpt lat="0" lon="0">
        <time>2020-12-06T10:06:59.968000+00:00</time>
      </trkpt>
      <trkpt lat="47.33074" lon="-1.34863">
        <ele>78</ele>
        <time>2020-12-06T10:07:00.936000+00:00</time>
      </trkpt>
      <trkpt lat="0" lon="0">
        <time>2020-12-06T10:07:00.944000+00:00</time>
      </trkpt>
      <trkpt lat="0" lon="0">
        <time>2020-12-06T10:07:00.948000+00:00</time>
      </trkpt>
      <trkpt lat="0" lon="0">
        <time>2020-12-06T10:07:00.950000+00:00</time>
      </trkpt>
      <trkpt lat="47.33077" lon="-1.34868">
        <ele>78</ele>
        <time>2020-12-06T10:07:01.955000+00:00</time>
      </trkpt>
      <trkpt lat="0" lon="0">
        <time>2020-12-06T10:07:01.971000+00:00</time>
      </trkpt>
      <trkpt lat="0" lon="0">
        <time>2020-12-06T10:07:01.978000+00:00</time>
      </trkpt>
      <trkpt lat="0" lon="0">
        <time>2020-12-06T10:07:01.980000+00:00</time>
      </trkpt>
      <trkpt lat="47.33079" lon="-1.34873">
        <ele>78</ele>
        <time>2020-12-06T10:07:02.963000+00:00</time>
      </trkpt>
      <trkpt lat="0" lon="0">
        <time>2020-12-06T10:07:02.971000+00:00</time>
      </trkpt>
      <trkpt lat="0" lon="0">
        <time>2020-12-06T10:07:02.982000+00:00</time>
      </trkpt>
      <trkpt lat="0" lon="0">
        <time>2020-12-06T10:07:02.989000+00:00</time>
      </trkpt>
      <trkpt lat="47.33081" lon="-1.34878">
        <ele>77</ele>
        <time>2020-12-06T10:07:03.962000+00:00</time>
      </trkpt>
      <trkpt lat="0" lon="0">
        <time>2020-12-06T10:07:03.973000+00:00</time>
      </trkpt>
      <trkpt lat="0" lon="0">
        <time>2020-12-06T10:07:03.986000+00:00</time>
      </trkpt>
      <trkpt lat="0" lon="0">
        <time>2020-12-06T10:07:03.988000+00:00</time>
      </trkpt>
      <trkpt lat="47.33084" lon="-1.34883">
        <ele>77</ele>
        <time>2020-12-06T10:07:04.963000+00:00</time>
      </trkpt>
      <trkpt lat="0" lon="0">
        <time>2020-12-06T10:07:04.973000+00:00</time>
      </trkpt>
      <trkpt lat="0" lon="0">
        <time>2020-12-06T10:07:04.978000+00:00</time>
      </trkpt>
      <trkpt lat="0" lon="0">
        <time>2020-12-06T10:07:04.980000+00:00</time>
      </trkpt>
      <trkpt lat="47.33086" lon="-1.34887">
        <ele>77</ele>
        <time>2020-12-06T10:07:05.927000+00:00</time>
      </trkpt>
      <trkpt lat="0" lon="0">
        <time>2020-12-06T10:07:05.941000+00:00</time>
      </trkpt>
      <trkpt lat="0" lon="0">
        <time>2020-12-06T10:07:05.946000+00:00</time>
      </trkpt>
      <trkpt lat="0" lon="0">
        <time>2020-12-06T10:07:05.948000+00:00</time>
      </trkpt>
      <trkpt lat="47.33088" lon="-1.34892">
        <ele>77</ele>
        <time>2020-12-06T10:07:06.974000+00:00</time>
      </trkpt>
      <trkpt lat="0" lon="0">
        <time>2020-12-06T10:07:06.988000+00:00</time>
      </trkpt>
      <trkpt lat="0" lon="0">
        <time>2020-12-06T10:07:06.993000+00:00</time>
      </trkpt>
      <trkpt lat="0" lon="0">
        <time>2020-12-06T10:07:06.996000+00:00</time>
      </trkpt>
      <trkpt lat="47.33091" lon="-1.34897">
        <ele>77</ele>
        <time>2020-12-06T10:07:07.964000+00:00</time>
      </trkpt>
      <trkpt lat="0" lon="0">
        <time>2020-12-06T10:07:07.968000+00:00</time>
      </trkpt>
      <trkpt lat="0" lon="0">
        <time>2020-12-06T10:07:07.979000+00:00</time>
      </trkpt>
      <trkpt lat="0" lon="0">
        <time>2020-12-06T10:07:07.980000+00:00</time>
      </trkpt>
      <trkpt lat="47.33094" lon="-1.34903">
        <ele>77</ele>
        <time>2020-12-06T10:07:08.984000+00:00</time>
      </trkpt>
      <trkpt lat="0" lon="0">
        <time>2020-12-06T10:07:08.992000+00:00</time>
      </trkpt>
      <trkpt lat="0" lon="0">
        <time>2020-12-06T10:07:09+00:00</time>
      </trkpt>
      <trkpt lat="0" lon="0">
        <time>2020-12-06T10:07:09.003000+00:00</time>
      </trkpt>
      <trkpt lat="47.33097" lon="-1.34909">
        <ele>77</ele>
        <time>2020-12-06T10:07:09.974000+00:00</time>
      </trkpt>
      <trkpt lat="0" lon="0">
        <time>2020-12-06T10:07:09.982000+00:00</time>
      </trkpt>
      <trkpt lat="0" lon="0">
        <time>2020-12-06T10:07:09.992000+00:00</time>
      </trkpt>
      <trkpt lat="0" lon="0">
        <time>2020-12-06T10:07:09.995000+00:00</time>
      </trkpt>
      <trkpt lat="47.33101" lon="-1.34915">
        <ele>77</ele>
        <time>2020-12-06T10:07:10.940000+00:00</time>
      </trkpt>
      <trkpt lat="0" lon="0">
        <time>2020-12-06T10:07:10.952000+00:00</time>
      </trkpt>
      <trkpt lat="0" lon="0">
        <time>2020-12-06T10:07:10.956000+00:00</time>
      </trkpt>
      <trkpt lat="0" lon="0">
        <time>2020-12-06T10:07:10.958000+00:00</time>
      </trkpt>
      <trkpt lat="47.33104" lon="-1.34921">
        <ele>77</ele>
        <time>2020-12-06T10:07:11.937000+00:00</time>
      </trkpt>
      <trkpt lat="0" lon="0">
        <time>2020-12-06T10:07:11.942000+00:00</time>
      </trkpt>
      <trkpt lat="0" lon="0">
        <time>2020-12-06T10:07:11.946000+00:00</time>
      </trkpt>
      <trkpt lat="0" lon="0">
        <time>2020-12-06T10:07:11.949000+00:00</time>
      </trkpt>
      <trkpt lat="47.33108" lon="-1.34927">
        <ele>77</ele>
        <time>2020-12-06T10:07:12.962000+00:00</time>
      </trkpt>
      <trkpt lat="0" lon="0">
        <time>2020-12-06T10:07:12.974000+00:00</time>
      </trkpt>
      <trkpt lat="0" lon="0">
        <time>2020-12-06T10:07:12.980000+00:00</time>
      </trkpt>
      <trkpt lat="0" lon="0">
        <time>2020-12-06T10:07:12.983000+00:00</time>
      </trkpt>
      <trkpt lat="47.33111" lon="-1.34933">
        <ele>77</ele>
        <time>2020-12-06T10:07:14.001000+00:00</time>
      </trkpt>
      <trkpt lat="0" lon="0">
        <time>2020-12-06T10:07:14.006000+00:00</time>
      </trkpt>
      <trkpt lat="0" lon="0">
        <time>2020-12-06T10:07:14.013000+00:00</time>
      </trkpt>
      <trkpt lat="0" lon="0">
        <time>2020-12-06T10:07:14.016000+00:00</time>
      </trkpt>
      <trkpt lat="47.33115" lon="-1.34939">
        <ele>77</ele>
        <time>2020-12-06T10:07:14.960000+00:00</time>
      </trkpt>
      <trkpt lat="0" lon="0">
        <time>2020-12-06T10:07:14.967000+00:00</time>
      </trkpt>
      <trkpt lat="0" lon="0">
        <time>2020-12-06T10:07:14.972000+00:00</time>
      </trkpt>
      <trkpt lat="0" lon="0">
        <time>2020-12-06T10:07:14.975000+00:00</time>
      </trkpt>
      <trkpt lat="47.33119" lon="-1.34945">
        <ele>77</ele>
        <time>2020-12-06T10:07:15.957000+00:00</time>
      </trkpt>
      <trkpt lat="0" lon="0">
        <time>2020-12-06T10:07:15.960000+00:00</time>
      </trkpt>
      <trkpt lat="0" lon="0">
        <time>2020-12-06T10:07:15.982000+00:00</time>
      </trkpt>
      <trkpt lat="0" lon="0">
        <time>2020-12-06T10:07:15.985000+00:00</time>
      </trkpt>
      <trkpt lat="47.33122" lon="-1.3495">
        <ele>77</ele>
        <time>2020-12-06T10:07:16.990000+00:00</time>
      </trkpt>
      <trkpt lat="0" lon="0">
        <time>2020-12-06T10:07:17.015000+00:00</time>
      </trkpt>
      <trkpt lat="0" lon="0">
        <time>2020-12-06T10:07:17.018000+00:00</time>
      </trkpt>
      <trkpt lat="0" lon="0">
        <time>2020-12-06T10:07:17.020000+00:00</time>
      </trkpt>
      <trkpt lat="47.33126" lon="-1.34955">
        <ele>77</ele>
        <time>2020-12-06T10:07:17.963000+00:00</time>
      </trkpt>
      <trkpt lat="0" lon="0">
        <time>2020-12-06T10:07:17.974000+00:00</time>
      </trkpt>
      <trkpt lat="0" lon="0">
        <time>2020-12-06T10:07:17.978000+00:00</time>
      </trkpt>
      <trkpt lat="0" lon="0">
        <time>2020-12-06T10:07:17.979000+00:00</time>
      </trkpt>
      <trkpt lat="47.3313" lon="-1.34961">
        <ele>77</ele>
        <time>2020-12-06T10:07:18.952000+00:00</time>
      </trkpt>
      <trkpt lat="0" lon="0">
        <time>2020-12-06T10:07:18.962000+00:00</time>
      </trkpt>
      <trkpt lat="0" lon="0">
        <time>2020-12-06T10:07:18.966000+00:00</time>
      </trkpt>
      <trkpt lat="0" lon="0">
        <time>2020-12-06T10:07:18.968000+00:00</time>
      </trkpt>
      <trkpt lat="47.33134" lon="-1.34966">
        <ele>77</ele>
        <time>2020-12-06T10:07:19.950000+00:00</time>
      </trkpt>
      <trkpt lat="0" lon="0">
        <time>2020-12-06T10:07:19.957000+00:00</time>
      </trkpt>
      <trkpt lat="0" lon="0">
        <time>2020-12-06T10:07:19.966000+00:00</time>
      </trkpt>
      <trkpt lat="0" lon="0">
        <time>2020-12-06T10:07:19.968000+00:00</time>
      </trkpt>
      <trkpt lat="47.33138" lon="-1.34971">
        <ele>77</ele>
        <time>2020-12-06T10:07:20.965000+00:00</time>
      </trkpt>
      <trkpt lat="0" lon="0">
        <time>2020-12-06T10:07:20.970000+00:00</time>
      </trkpt>
      <trkpt lat="0" lon="0">
        <time>2020-12-06T10:07:20.978000+00:00</time>
      </trkpt>
      <trkpt lat="0" lon="0">
        <time>2020-12-06T10:07:20.980000+00:00</time>
      </trkpt>
      <trkpt lat="47.33142" lon="-1.34977">
        <ele>77</ele>
        <time>2020-12-06T10:07:21.955000+00:00</time>
      </trkpt>
      <trkpt lat="0" lon="0">
        <time>2020-12-06T10:07:21.963000+00:00</time>
      </trkpt>
      <trkpt lat="0" lon="0">
        <time>2020-12-06T10:07:21.969000+00:00</time>
      </trkpt>
      <trkpt lat="0" lon="0">
        <time>2020-12-06T10:07:21.971000+00:00</time>
      </trkpt>
      <trkpt lat="47.33146" lon="-1.34982">
        <ele>77</ele>
        <time>2020-12-06T10:07:22.971000+00:00</time>
      </trkpt>
      <trkpt lat="0" lon="0">
        <time>2020-12-06T10:07:22.973000+00:00</time>
      </trkpt>
      <trkpt lat="0" lon="0">
        <time>2020-12-06T10:07:22.976000+00:00</time>
      </trkpt>
      <trkpt lat="0" lon="0">
        <time>2020-12-06T10:07:22.977000+00:00</time>
      </trkpt>
      <trkpt lat="47.33151" lon="-1.34987">
        <ele>77</ele>
        <time>2020-12-06T10:07:23.954000+00:00</time>
      </trkpt>
      <trkpt lat="0" lon="0">
        <time>2020-12-06T10:07:23.960000+00:00</time>
      </trkpt>
      <trkpt lat="0" lon="0">
        <time>2020-12-06T10:07:23.966000+00:00</time>
      </trkpt>
      <trkpt lat="0" lon="0">
        <time>2020-12-06T10:07:23.969000+00:00</time>
      </trkpt>
      <trkpt lat="47.33155" lon="-1.34992">
        <ele>77</ele>
        <time>2020-12-06T10:07:24.968000+00:00</time>
      </trkpt>
      <trkpt lat="0" lon="0">
        <time>2020-12-06T10:07:24.990000+00:00</time>
      </trkpt>
      <trkpt lat="0" lon="0">
        <time>2020-12-06T10:07:24.993000+00:00</time>
      </trkpt>
      <trkpt lat="0" lon="0">
        <time>2020-12-06T10:07:24.995000+00:00</time>
      </trkpt>
      <trkpt lat="47.33159" lon="-1.34997">
        <ele>77</ele>
        <time>2020-12-06T10:07:25.934000+00:00</time>
      </trkpt>
      <trkpt lat="0" lon="0">
        <time>2020-12-06T10:07:25.940000+00:00</time>
      </trkpt>
      <trkpt lat="0" lon="0">
        <time>2020-12-06T10:07:25.947000+00:00</time>
      </trkpt>
      <trkpt lat="0" lon="0">
        <time>2020-12-06T10:07:25.950000+00:00</time>
      </trkpt>
      <trkpt lat="47.33162" lon="-1.35002">
        <ele>77</ele>
        <time>2020-12-06T10:07:26.989000+00:00</time>
      </trkpt>
      <trkpt lat="0" lon="0">
        <time>2020-12-06T10:07:27.002000+00:00</time>
      </trkpt>
      <trkpt lat="0" lon="0">
        <time>2020-12-06T10:07:27.006000+00:00</time>
      </trkpt>
      <trkpt lat="0" lon="0">
        <time>2020-12-06T10:07:27.010000+00:00</time>
      </trkpt>
      <trkpt lat="47.33166" lon="-1.35007">
        <ele>77</ele>
        <time>2020-12-06T10:07:27.979000+00:00</time>
      </trkpt>
      <trkpt lat="0" lon="0">
        <time>2020-12-06T10:07:27.990000+00:00</time>
      </trkpt>
      <trkpt lat="0" lon="0">
        <time>2020-12-06T10:07:27.995000+00:00</time>
      </trkpt>
      <trkpt lat="0" lon="0">
        <time>2020-12-06T10:07:28.002000+00:00</time>
      </trkpt>
      <trkpt lat="47.3317" lon="-1.35012">
        <ele>77</ele>
        <time>2020-12-06T10:07:28.945000+00:00</time>
      </trkpt>
      <trkpt lat="0" lon="0">
        <time>2020-12-06T10:07:28.950000+00:00</time>
      </trkpt>
      <trkpt lat="0" lon="0">
        <time>2020-12-06T10:07:28.959000+00:00</time>
      </trkpt>
      <trkpt lat="0" lon="0">
        <time>2020-12-06T10:07:28.961000+00:00</time>
      </trkpt>
      <trkpt lat="47.33174" lon="-1.35017">
        <ele>77</ele>
        <time>2020-12-06T10:07:29.970000+00:00</time>
      </trkpt>
      <trkpt lat="0" lon="0">
        <time>2020-12-06T10:07:29.975000+00:00</time>
      </trkpt>
      <trkpt lat="0" lon="0">
        <time>2020-12-06T10:07:29.979000+00:00</time>
      </trkpt>
      <trkpt lat="0" lon="0">
        <time>2020-12-06T10:07:29.981000+00:00</time>
      </trkpt>
      <trkpt lat="47.33178" lon="-1.35022">
        <ele>77</ele>
        <time>2020-12-06T10:07:30.996000+00:00</time>
      </trkpt>
      <trkpt lat="0" lon="0">
        <time>2020-12-06T10:07:31.004000+00:00</time>
      </trkpt>
      <trkpt lat="0" lon="0">
        <time>2020-12-06T10:07:31.012000+00:00</time>
      </trkpt>
      <trkpt lat="0" lon="0">
        <time>2020-12-06T10:07:31.014000+00:00</time>
      </trkpt>
      <trkpt lat="47.33182" lon="-1.35027">
        <ele>77</ele>
        <time>2020-12-06T10:07:31.948000+00:00</time>
      </trkpt>
      <trkpt lat="0" lon="0">
        <time>2020-12-06T10:07:31.955000+00:00</time>
      </trkpt>
      <trkpt lat="0" lon="0">
        <time>2020-12-06T10:07:31.958000+00:00</time>
      </trkpt>
      <trkpt lat="0" lon="0">
        <time>2020-12-06T10:07:31.960000+00:00</time>
      </trkpt>
      <trkpt lat="47.33185" lon="-1.35031">
        <ele>77</ele>
        <time>2020-12-06T10:07:32.963000+00:00</time>
      </trkpt>
      <trkpt lat="0" lon="0">
        <time>2020-12-06T10:07:32.972000+00:00</time>
      </trkpt>
      <trkpt lat="0" lon="0">
        <time>2020-12-06T10:07:32.976000+00:00</time>
      </trkpt>
      <trkpt lat="0" lon="0">
        <time>2020-12-06T10:07:32.983000+00:00</time>
      </trkpt>
      <trkpt lat="47.33189" lon="-1.35036">
        <ele>77</ele>
        <time>2020-12-06T10:07:33.936000+00:00</time>
      </trkpt>
      <trkpt lat="0" lon="0">
        <time>2020-12-06T10:07:33.950000+00:00</time>
      </trkpt>
      <trkpt lat="0" lon="0">
        <time>2020-12-06T10:07:33.964000+00:00</time>
      </trkpt>
      <trkpt lat="0" lon="0">
        <time>2020-12-06T10:07:33.970000+00:00</time>
      </trkpt>
      <trkpt lat="47.33192" lon="-1.3504">
        <ele>77</ele>
        <time>2020-12-06T10:07:34.959000+00:00</time>
      </trkpt>
      <trkpt lat="0" lon="0">
        <time>2020-12-06T10:07:34.965000+00:00</time>
      </trkpt>
      <trkpt lat="0" lon="0">
        <time>2020-12-06T10:07:34.967000+00:00</time>
      </trkpt>
      <trkpt lat="0" lon="0">
        <time>2020-12-06T10:07:34.968000+00:00</time>
      </trkpt>
      <trkpt lat="47.33195" lon="-1.35045">
        <ele>77</ele>
        <time>2020-12-06T10:07:35.974000+00:00</time>
      </trkpt>
      <trkpt lat="0" lon="0">
        <time>2020-12-06T10:07:35.994000+00:00</time>
      </trkpt>
      <trkpt lat="0" lon="0">
        <time>2020-12-06T10:07:35.999000+00:00</time>
      </trkpt>
      <trkpt lat="0" lon="0">
        <time>2020-12-06T10:07:36.001000+00:00</time>
      </trkpt>
      <trkpt lat="47.33197" lon="-1.35049">
        <ele>77</ele>
        <time>2020-12-06T10:07:36.952000+00:00</time>
      </trkpt>
      <trkpt lat="0" lon="0">
        <time>2020-12-06T10:07:36.957000+00:00</time>
      </trkpt>
      <trkpt lat="0" lon="0">
        <time>2020-12-06T10:07:36.975000+00:00</time>
      </trkpt>
      <trkpt lat="0" lon="0">
        <time>2020-12-06T10:07:36.976000+00:00</time>
      </trkpt>
      <trkpt lat="47.33198" lon="-1.35053">
        <ele>77</ele>
        <time>2020-12-06T10:07:37.963000+00:00</time>
      </trkpt>
      <trkpt lat="0" lon="0">
        <time>2020-12-06T10:07:37.966000+00:00</time>
      </trkpt>
      <trkpt lat="0" lon="0">
        <time>2020-12-06T10:07:37.970000+00:00</time>
      </trkpt>
      <trkpt lat="0" lon="0">
        <time>2020-12-06T10:07:37.973000+00:00</time>
      </trkpt>
      <trkpt lat="47.33198" lon="-1.35057">
        <ele>77</ele>
        <time>2020-12-06T10:07:38.957000+00:00</time>
      </trkpt>
      <trkpt lat="0" lon="0">
        <time>2020-12-06T10:07:38.970000+00:00</time>
      </trkpt>
      <trkpt lat="0" lon="0">
        <time>2020-12-06T10:07:38.984000+00:00</time>
      </trkpt>
      <trkpt lat="0" lon="0">
        <time>2020-12-06T10:07:38.986000+00:00</time>
      </trkpt>
      <trkpt lat="47.33196" lon="-1.35061">
        <ele>77</ele>
        <time>2020-12-06T10:07:39.938000+00:00</time>
      </trkpt>
      <trkpt lat="0" lon="0">
        <time>2020-12-06T10:07:39.944000+00:00</time>
      </trkpt>
      <trkpt lat="0" lon="0">
        <time>2020-12-06T10:07:39.950000+00:00</time>
      </trkpt>
      <trkpt lat="0" lon="0">
        <time>2020-12-06T10:07:39.960000+00:00</time>
      </trkpt>
      <trkpt lat="47.33194" lon="-1.35064">
        <ele>78</ele>
        <time>2020-12-06T10:07:40.930000+00:00</time>
      </trkpt>
      <trkpt lat="0" lon="0">
        <time>2020-12-06T10:07:40.939000+00:00</time>
      </trkpt>
      <trkpt lat="0" lon="0">
        <time>2020-12-06T10:07:40.947000+00:00</time>
      </trkpt>
      <trkpt lat="0" lon="0">
        <time>2020-12-06T10:07:40.953000+00:00</time>
      </trkpt>
      <trkpt lat="47.33191" lon="-1.35068">
        <ele>78</ele>
        <time>2020-12-06T10:07:41.988000+00:00</time>
      </trkpt>
      <trkpt lat="0" lon="0">
        <time>2020-12-06T10:07:42.006000+00:00</time>
      </trkpt>
      <trkpt lat="0" lon="0">
        <time>2020-12-06T10:07:42.009000+00:00</time>
      </trkpt>
      <trkpt lat="0" lon="0">
        <time>2020-12-06T10:07:42.012000+00:00</time>
      </trkpt>
      <trkpt lat="47.33188" lon="-1.35071">
        <ele>78</ele>
        <time>2020-12-06T10:07:42.948000+00:00</time>
      </trkpt>
      <trkpt lat="0" lon="0">
        <time>2020-12-06T10:07:42.964000+00:00</time>
      </trkpt>
      <trkpt lat="0" lon="0">
        <time>2020-12-06T10:07:42.974000+00:00</time>
      </trkpt>
      <trkpt lat="0" lon="0">
        <time>2020-12-06T10:07:42.979000+00:00</time>
      </trkpt>
      <trkpt lat="47.33183" lon="-1.35074">
        <ele>78</ele>
        <time>2020-12-06T10:07:43.959000+00:00</time>
      </trkpt>
      <trkpt lat="0" lon="0">
        <time>2020-12-06T10:07:43.963000+00:00</time>
      </trkpt>
      <trkpt lat="0" lon="0">
        <time>2020-12-06T10:07:43.969000+00:00</time>
      </trkpt>
      <trkpt lat="0" lon="0">
        <time>2020-12-06T10:07:43.971000+00:00</time>
      </trkpt>
      <trkpt lat="47.33178" lon="-1.35077">
        <ele>78</ele>
        <time>2020-12-06T10:07:44.945000+00:00</time>
      </trkpt>
      <trkpt lat="0" lon="0">
        <time>2020-12-06T10:07:44.956000+00:00</time>
      </trkpt>
      <trkpt lat="0" lon="0">
        <time>2020-12-06T10:07:44.962000+00:00</time>
      </trkpt>
      <trkpt lat="0" lon="0">
        <time>2020-12-06T10:07:44.964000+00:00</time>
      </trkpt>
      <trkpt lat="47.33174" lon="-1.3508">
        <ele>78</ele>
        <time>2020-12-06T10:07:45.968000+00:00</time>
      </trkpt>
      <trkpt lat="0" lon="0">
        <time>2020-12-06T10:07:45.973000+00:00</time>
      </trkpt>
      <trkpt lat="0" lon="0">
        <time>2020-12-06T10:07:45.982000+00:00</time>
      </trkpt>
      <trkpt lat="0" lon="0">
        <time>2020-12-06T10:07:45.986000+00:00</time>
      </trkpt>
      <trkpt lat="47.33168" lon="-1.35084">
        <ele>78</ele>
        <time>2020-12-06T10:07:46.930000+00:00</time>
      </trkpt>
      <trkpt lat="0" lon="0">
        <time>2020-12-06T10:07:46.937000+00:00</time>
      </trkpt>
      <trkpt lat="0" lon="0">
        <time>2020-12-06T10:07:46.942000+00:00</time>
      </trkpt>
      <trkpt lat="0" lon="0">
        <time>2020-12-06T10:07:46.944000+00:00</time>
      </trkpt>
      <trkpt lat="47.33163" lon="-1.35087">
        <ele>78</ele>
        <time>2020-12-06T10:07:47.975000+00:00</time>
      </trkpt>
      <trkpt lat="0" lon="0">
        <time>2020-12-06T10:07:47.988000+00:00</time>
      </trkpt>
      <trkpt lat="0" lon="0">
        <time>2020-12-06T10:07:47.992000+00:00</time>
      </trkpt>
      <trkpt lat="0" lon="0">
        <time>2020-12-06T10:07:47.994000+00:00</time>
      </trkpt>
      <trkpt lat="47.33158" lon="-1.3509">
        <ele>78</ele>
        <time>2020-12-06T10:07:48.949000+00:00</time>
      </trkpt>
      <trkpt lat="0" lon="0">
        <time>2020-12-06T10:07:48.955000+00:00</time>
      </trkpt>
      <trkpt lat="0" lon="0">
        <time>2020-12-06T10:07:48.958000+00:00</time>
      </trkpt>
      <trkpt lat="0" lon="0">
        <time>2020-12-06T10:07:48.960000+00:00</time>
      </trkpt>
      <trkpt lat="47.33153" lon="-1.35093">
        <ele>78</ele>
        <time>2020-12-06T10:07:49.939000+00:00</time>
      </trkpt>
      <trkpt lat="0" lon="0">
        <time>2020-12-06T10:07:49.943000+00:00</time>
      </trkpt>
      <trkpt lat="0" lon="0">
        <time>2020-12-06T10:07:49.948000+00:00</time>
      </trkpt>
      <trkpt lat="0" lon="0">
        <time>2020-12-06T10:07:49.952000+00:00</time>
      </trkpt>
      <trkpt lat="47.33148" lon="-1.35097">
        <ele>78</ele>
        <time>2020-12-06T10:07:50.956000+00:00</time>
      </trkpt>
      <trkpt lat="0" lon="0">
        <time>2020-12-06T10:07:50.961000+00:00</time>
      </trkpt>
      <trkpt lat="0" lon="0">
        <time>2020-12-06T10:07:50.965000+00:00</time>
      </trkpt>
      <trkpt lat="0" lon="0">
        <time>2020-12-06T10:07:50.970000+00:00</time>
      </trkpt>
      <trkpt lat="47.33143" lon="-1.351">
        <ele>78</ele>
        <time>2020-12-06T10:07:51.973000+00:00</time>
      </trkpt>
      <trkpt lat="0" lon="0">
        <time>2020-12-06T10:07:51.981000+00:00</time>
      </trkpt>
      <trkpt lat="0" lon="0">
        <time>2020-12-06T10:07:51.986000+00:00</time>
      </trkpt>
      <trkpt lat="0" lon="0">
        <time>2020-12-06T10:07:51.988000+00:00</time>
      </trkpt>
      <trkpt lat="47.33138" lon="-1.35109">
        <ele>78</ele>
        <time>2020-12-06T10:07:53.943000+00:00</time>
      </trkpt>
      <trkpt lat="0" lon="0">
        <time>2020-12-06T10:07:53.952000+00:00</time>
      </trkpt>
      <trkpt lat="0" lon="0">
        <time>2020-12-06T10:07:53.955000+00:00</time>
      </trkpt>
      <trkpt lat="0" lon="0">
        <time>2020-12-06T10:07:53.958000+00:00</time>
      </trkpt>
      <trkpt lat="47.33136" lon="-1.35114">
        <ele>78</ele>
        <time>2020-12-06T10:07:54.934000+00:00</time>
      </trkpt>
      <trkpt lat="0" lon="0">
        <time>2020-12-06T10:07:54.945000+00:00</time>
      </trkpt>
      <trkpt lat="0" lon="0">
        <time>2020-12-06T10:07:54.954000+00:00</time>
      </trkpt>
      <trkpt lat="0" lon="0">
        <time>2020-12-06T10:07:54.956000+00:00</time>
      </trkpt>
      <trkpt lat="47.33136" lon="-1.3512">
        <ele>78</ele>
        <time>2020-12-06T10:07:55.944000+00:00</time>
      </trkpt>
      <trkpt lat="0" lon="0">
        <time>2020-12-06T10:07:55.957000+00:00</time>
      </trkpt>
      <trkpt lat="0" lon="0">
        <time>2020-12-06T10:07:55.962000+00:00</time>
      </trkpt>
      <trkpt lat="0" lon="0">
        <time>2020-12-06T10:07:55.964000+00:00</time>
      </trkpt>
      <trkpt lat="47.33136" lon="-1.35125">
        <ele>78</ele>
        <time>2020-12-06T10:07:56.916000+00:00</time>
      </trkpt>
      <trkpt lat="0" lon="0">
        <time>2020-12-06T10:07:56.928000+00:00</time>
      </trkpt>
      <trkpt lat="0" lon="0">
        <time>2020-12-06T10:07:56.932000+00:00</time>
      </trkpt>
      <trkpt lat="0" lon="0">
        <time>2020-12-06T10:07:56.934000+00:00</time>
      </trkpt>
      <trkpt lat="47.33136" lon="-1.35131">
        <ele>78</ele>
        <time>2020-12-06T10:07:57.943000+00:00</time>
      </trkpt>
      <trkpt lat="0" lon="0">
        <time>2020-12-06T10:07:57.953000+00:00</time>
      </trkpt>
      <trkpt lat="0" lon="0">
        <time>2020-12-06T10:07:57.962000+00:00</time>
      </trkpt>
      <trkpt lat="0" lon="0">
        <time>2020-12-06T10:07:57.964000+00:00</time>
      </trkpt>
      <trkpt lat="47.33138" lon="-1.35137">
        <ele>78</ele>
        <time>2020-12-06T10:07:58.956000+00:00</time>
      </trkpt>
      <trkpt lat="0" lon="0">
        <time>2020-12-06T10:07:58.963000+00:00</time>
      </trkpt>
      <trkpt lat="0" lon="0">
        <time>2020-12-06T10:07:58.965000+00:00</time>
      </trkpt>
      <trkpt lat="0" lon="0">
        <time>2020-12-06T10:07:58.966000+00:00</time>
      </trkpt>
      <trkpt lat="47.33139" lon="-1.35143">
        <ele>78</ele>
        <time>2020-12-06T10:07:59.919000+00:00</time>
      </trkpt>
      <trkpt lat="0" lon="0">
        <time>2020-12-06T10:07:59.935000+00:00</time>
      </trkpt>
      <trkpt lat="0" lon="0">
        <time>2020-12-06T10:07:59.939000+00:00</time>
      </trkpt>
      <trkpt lat="0" lon="0">
        <time>2020-12-06T10:07:59.941000+00:00</time>
      </trkpt>
      <trkpt lat="47.33141" lon="-1.35149">
        <ele>79</ele>
        <time>2020-12-06T10:08:00.957000+00:00</time>
      </trkpt>
      <trkpt lat="0" lon="0">
        <time>2020-12-06T10:08:00.980000+00:00</time>
      </trkpt>
      <trkpt lat="0" lon="0">
        <time>2020-12-06T10:08:00.992000+00:00</time>
      </trkpt>
      <trkpt lat="0" lon="0">
        <time>2020-12-06T10:08:00.995000+00:00</time>
      </trkpt>
      <trkpt lat="47.33143" lon="-1.35155">
        <ele>79</ele>
        <time>2020-12-06T10:08:02.001000+00:00</time>
      </trkpt>
      <trkpt lat="0" lon="0">
        <time>2020-12-06T10:08:02.004000+00:00</time>
      </trkpt>
      <trkpt lat="0" lon="0">
        <time>2020-12-06T10:08:02.009000+00:00</time>
      </trkpt>
      <trkpt lat="0" lon="0">
        <time>2020-12-06T10:08:02.011000+00:00</time>
      </trkpt>
      <trkpt lat="47.33145" lon="-1.35162">
        <ele>79</ele>
        <time>2020-12-06T10:08:02.892000+00:00</time>
      </trkpt>
      <trkpt lat="0" lon="0">
        <time>2020-12-06T10:08:02.906000+00:00</time>
      </trkpt>
      <trkpt lat="0" lon="0">
        <time>2020-12-06T10:08:02.911000+00:00</time>
      </trkpt>
      <trkpt lat="0" lon="0">
        <time>2020-12-06T10:08:02.913000+00:00</time>
      </trkpt>
      <trkpt lat="47.33148" lon="-1.35168">
        <ele>79</ele>
        <time>2020-12-06T10:08:03.983000+00:00</time>
      </trkpt>
      <trkpt lat="0" lon="0">
        <time>2020-12-06T10:08:03.991000+00:00</time>
      </trkpt>
      <trkpt lat="0" lon="0">
        <time>2020-12-06T10:08:03.995000+00:00</time>
      </trkpt>
      <trkpt lat="0" lon="0">
        <time>2020-12-06T10:08:03.997000+00:00</time>
      </trkpt>
      <trkpt lat="47.3315" lon="-1.35174">
        <ele>79</ele>
        <time>2020-12-06T10:08:04.970000+00:00</time>
      </trkpt>
      <trkpt lat="0" lon="0">
        <time>2020-12-06T10:08:04.980000+00:00</time>
      </trkpt>
      <trkpt lat="0" lon="0">
        <time>2020-12-06T10:08:04.983000+00:00</time>
      </trkpt>
      <trkpt lat="0" lon="0">
        <time>2020-12-06T10:08:04.986000+00:00</time>
      </trkpt>
      <trkpt lat="47.33153" lon="-1.3518">
        <ele>79</ele>
        <time>2020-12-06T10:08:05.944000+00:00</time>
      </trkpt>
      <trkpt lat="0" lon="0">
        <time>2020-12-06T10:08:05.954000+00:00</time>
      </trkpt>
      <trkpt lat="0" lon="0">
        <time>2020-12-06T10:08:05.967000+00:00</time>
      </trkpt>
      <trkpt lat="0" lon="0">
        <time>2020-12-06T10:08:05.972000+00:00</time>
      </trkpt>
      <trkpt lat="47.33156" lon="-1.35187">
        <ele>80</ele>
        <time>2020-12-06T10:08:06.930000+00:00</time>
      </trkpt>
      <trkpt lat="0" lon="0">
        <time>2020-12-06T10:08:06.943000+00:00</time>
      </trkpt>
      <trkpt lat="0" lon="0">
        <time>2020-12-06T10:08:06.947000+00:00</time>
      </trkpt>
      <trkpt lat="0" lon="0">
        <time>2020-12-06T10:08:06.949000+00:00</time>
      </trkpt>
      <trkpt lat="47.33159" lon="-1.35193">
        <ele>80</ele>
        <time>2020-12-06T10:08:07.994000+00:00</time>
      </trkpt>
      <trkpt lat="0" lon="0">
        <time>2020-12-06T10:08:08.009000+00:00</time>
      </trkpt>
      <trkpt lat="0" lon="0">
        <time>2020-12-06T10:08:08.017000+00:00</time>
      </trkpt>
      <trkpt lat="0" lon="0">
        <time>2020-12-06T10:08:08.019000+00:00</time>
      </trkpt>
      <trkpt lat="47.33162" lon="-1.35199">
        <ele>80</ele>
        <time>2020-12-06T10:08:08.958000+00:00</time>
      </trkpt>
      <trkpt lat="0" lon="0">
        <time>2020-12-06T10:08:08.960000+00:00</time>
      </trkpt>
      <trkpt lat="0" lon="0">
        <time>2020-12-06T10:08:08.961000+00:00</time>
      </trkpt>
      <trkpt lat="0" lon="0">
        <time>2020-12-06T10:08:08.962000+00:00</time>
      </trkpt>
      <trkpt lat="47.33164" lon="-1.35205">
        <ele>80</ele>
        <time>2020-12-06T10:08:09.992000+00:00</time>
      </trkpt>
      <trkpt lat="0" lon="0">
        <time>2020-12-06T10:08:10.003000+00:00</time>
      </trkpt>
      <trkpt lat="0" lon="0">
        <time>2020-12-06T10:08:10.008000+00:00</time>
      </trkpt>
      <trkpt lat="0" lon="0">
        <time>2020-12-06T10:08:10.011000+00:00</time>
      </trkpt>
      <trkpt lat="47.33167" lon="-1.35211">
        <ele>81</ele>
        <time>2020-12-06T10:08:10.945000+00:00</time>
      </trkpt>
      <trkpt lat="0" lon="0">
        <time>2020-12-06T10:08:10.953000+00:00</time>
      </trkpt>
      <trkpt lat="0" lon="0">
        <time>2020-12-06T10:08:10.956000+00:00</time>
      </trkpt>
      <trkpt lat="0" lon="0">
        <time>2020-12-06T10:08:10.963000+00:00</time>
      </trkpt>
      <trkpt lat="47.33169" lon="-1.35217">
        <ele>81</ele>
        <time>2020-12-06T10:08:11.957000+00:00</time>
      </trkpt>
      <trkpt lat="0" lon="0">
        <time>2020-12-06T10:08:11.971000+00:00</time>
      </trkpt>
      <trkpt lat="0" lon="0">
        <time>2020-12-06T10:08:11.978000+00:00</time>
      </trkpt>
      <trkpt lat="0" lon="0">
        <time>2020-12-06T10:08:11.979000+00:00</time>
      </trkpt>
      <trkpt lat="47.33172" lon="-1.35223">
        <ele>81</ele>
        <time>2020-12-06T10:08:12.957000+00:00</time>
      </trkpt>
      <trkpt lat="0" lon="0">
        <time>2020-12-06T10:08:12.965000+00:00</time>
      </trkpt>
      <trkpt lat="0" lon="0">
        <time>2020-12-06T10:08:12.970000+00:00</time>
      </trkpt>
      <trkpt lat="0" lon="0">
        <time>2020-12-06T10:08:12.972000+00:00</time>
      </trkpt>
      <trkpt lat="47.33174" lon="-1.35229">
        <ele>81</ele>
        <time>2020-12-06T10:08:13.959000+00:00</time>
      </trkpt>
      <trkpt lat="0" lon="0">
        <time>2020-12-06T10:08:13.972000+00:00</time>
      </trkpt>
      <trkpt lat="0" lon="0">
        <time>2020-12-06T10:08:13.981000+00:00</time>
      </trkpt>
      <trkpt lat="0" lon="0">
        <time>2020-12-06T10:08:13.984000+00:00</time>
      </trkpt>
      <trkpt lat="47.33176" lon="-1.35234">
        <ele>82</ele>
        <time>2020-12-06T10:08:14.988000+00:00</time>
      </trkpt>
      <trkpt lat="0" lon="0">
        <time>2020-12-06T10:08:14.996000+00:00</time>
      </trkpt>
      <trkpt lat="0" lon="0">
        <time>2020-12-06T10:08:15.003000+00:00</time>
      </trkpt>
      <trkpt lat="0" lon="0">
        <time>2020-12-06T10:08:15.005000+00:00</time>
      </trkpt>
      <trkpt lat="47.33178" lon="-1.3524">
        <ele>82</ele>
        <time>2020-12-06T10:08:15.974000+00:00</time>
      </trkpt>
      <trkpt lat="0" lon="0">
        <time>2020-12-06T10:08:15.984000+00:00</time>
      </trkpt>
      <trkpt lat="0" lon="0">
        <time>2020-12-06T10:08:15.985000+00:00</time>
      </trkpt>
      <trkpt lat="0" lon="0">
        <time>2020-12-06T10:08:15.986000+00:00</time>
      </trkpt>
      <trkpt lat="47.3318" lon="-1.35246">
        <ele>82</ele>
        <time>2020-12-06T10:08:16.943000+00:00</time>
      </trkpt>
      <trkpt lat="0" lon="0">
        <time>2020-12-06T10:08:16.955000+00:00</time>
      </trkpt>
      <trkpt lat="0" lon="0">
        <time>2020-12-06T10:08:16.957000+00:00</time>
      </trkpt>
      <trkpt lat="0" lon="0">
        <time>2020-12-06T10:08:16.958000+00:00</time>
      </trkpt>
      <trkpt lat="47.33182" lon="-1.35252">
        <ele>82</ele>
        <time>2020-12-06T10:08:17.940000+00:00</time>
      </trkpt>
      <trkpt lat="0" lon="0">
        <time>2020-12-06T10:08:17.945000+00:00</time>
      </trkpt>
      <trkpt lat="0" lon="0">
        <time>2020-12-06T10:08:17.949000+00:00</time>
      </trkpt>
      <trkpt lat="0" lon="0">
        <time>2020-12-06T10:08:17.951000+00:00</time>
      </trkpt>
      <trkpt lat="47.33184" lon="-1.35257">
        <ele>82</ele>
        <time>2020-12-06T10:08:18.960000+00:00</time>
      </trkpt>
      <trkpt lat="0" lon="0">
        <time>2020-12-06T10:08:18.970000+00:00</time>
      </trkpt>
      <trkpt lat="0" lon="0">
        <time>2020-12-06T10:08:18.972000+00:00</time>
      </trkpt>
      <trkpt lat="0" lon="0">
        <time>2020-12-06T10:08:18.973000+00:00</time>
      </trkpt>
      <trkpt lat="47.33185" lon="-1.35263">
        <ele>83</ele>
        <time>2020-12-06T10:08:19.961000+00:00</time>
      </trkpt>
      <trkpt lat="0" lon="0">
        <time>2020-12-06T10:08:19.968000+00:00</time>
      </trkpt>
      <trkpt lat="0" lon="0">
        <time>2020-12-06T10:08:19.971000+00:00</time>
      </trkpt>
      <trkpt lat="0" lon="0">
        <time>2020-12-06T10:08:19.973000+00:00</time>
      </trkpt>
      <trkpt lat="47.33187" lon="-1.35268">
        <ele>83</ele>
        <time>2020-12-06T10:08:20.975000+00:00</time>
      </trkpt>
      <trkpt lat="0" lon="0">
        <time>2020-12-06T10:08:20.983000+00:00</time>
      </trkpt>
      <trkpt lat="0" lon="0">
        <time>2020-12-06T10:08:20.989000+00:00</time>
      </trkpt>
      <trkpt lat="0" lon="0">
        <time>2020-12-06T10:08:20.991000+00:00</time>
      </trkpt>
      <trkpt lat="47.33188" lon="-1.35273">
        <ele>83</ele>
        <time>2020-12-06T10:08:21.976000+00:00</time>
      </trkpt>
      <trkpt lat="0" lon="0">
        <time>2020-12-06T10:08:21.987000+00:00</time>
      </trkpt>
      <trkpt lat="0" lon="0">
        <time>2020-12-06T10:08:21.994000+00:00</time>
      </trkpt>
      <trkpt lat="0" lon="0">
        <time>2020-12-06T10:08:21.995000+00:00</time>
      </trkpt>
      <trkpt lat="47.3319" lon="-1.35279">
        <ele>83</ele>
        <time>2020-12-06T10:08:22.973000+00:00</time>
      </trkpt>
      <trkpt lat="0" lon="0">
        <time>2020-12-06T10:08:22.986000+00:00</time>
      </trkpt>
      <trkpt lat="0" lon="0">
        <time>2020-12-06T10:08:22.994000+00:00</time>
      </trkpt>
      <trkpt lat="0" lon="0">
        <time>2020-12-06T10:08:22.996000+00:00</time>
      </trkpt>
      <trkpt lat="47.33191" lon="-1.35284">
        <ele>83</ele>
        <time>2020-12-06T10:08:23.965000+00:00</time>
      </trkpt>
      <trkpt lat="0" lon="0">
        <time>2020-12-06T10:08:23.975000+00:00</time>
      </trkpt>
      <trkpt lat="0" lon="0">
        <time>2020-12-06T10:08:23.990000+00:00</time>
      </trkpt>
      <trkpt lat="0" lon="0">
        <time>2020-12-06T10:08:23.992000+00:00</time>
      </trkpt>
      <trkpt lat="47.33193" lon="-1.3529">
        <ele>83</ele>
        <time>2020-12-06T10:08:24.978000+00:00</time>
      </trkpt>
      <trkpt lat="0" lon="0">
        <time>2020-12-06T10:08:24.997000+00:00</time>
      </trkpt>
      <trkpt lat="0" lon="0">
        <time>2020-12-06T10:08:25.004000+00:00</time>
      </trkpt>
      <trkpt lat="0" lon="0">
        <time>2020-12-06T10:08:25.006000+00:00</time>
      </trkpt>
      <trkpt lat="47.33195" lon="-1.35295">
        <ele>83</ele>
        <time>2020-12-06T10:08:25.950000+00:00</time>
      </trkpt>
      <trkpt lat="0" lon="0">
        <time>2020-12-06T10:08:25.960000+00:00</time>
      </trkpt>
      <trkpt lat="0" lon="0">
        <time>2020-12-06T10:08:25.977000+00:00</time>
      </trkpt>
      <trkpt lat="0" lon="0">
        <time>2020-12-06T10:08:25.984000+00:00</time>
      </trkpt>
      <trkpt lat="47.33198" lon="-1.35301">
        <ele>83</ele>
        <time>2020-12-06T10:08:26.879000+00:00</time>
      </trkpt>
      <trkpt lat="0" lon="0">
        <time>2020-12-06T10:08:26.886000+00:00</time>
      </trkpt>
      <trkpt lat="0" lon="0">
        <time>2020-12-06T10:08:26.888000+00:00</time>
      </trkpt>
      <trkpt lat="0" lon="0">
        <time>2020-12-06T10:08:26.890000+00:00</time>
      </trkpt>
      <trkpt lat="47.332" lon="-1.35306">
        <ele>83</ele>
        <time>2020-12-06T10:08:28.025000+00:00</time>
      </trkpt>
      <trkpt lat="0" lon="0">
        <time>2020-12-06T10:08:28.029000+00:00</time>
      </trkpt>
      <trkpt lat="0" lon="0">
        <time>2020-12-06T10:08:28.035000+00:00</time>
      </trkpt>
      <trkpt lat="0" lon="0">
        <time>2020-12-06T10:08:28.037000+00:00</time>
      </trkpt>
      <trkpt lat="47.33202" lon="-1.35312">
        <ele>84</ele>
        <time>2020-12-06T10:08:28.940000+00:00</time>
      </trkpt>
      <trkpt lat="0" lon="0">
        <time>2020-12-06T10:08:28.964000+00:00</time>
      </trkpt>
      <trkpt lat="0" lon="0">
        <time>2020-12-06T10:08:28.974000+00:00</time>
      </trkpt>
      <trkpt lat="0" lon="0">
        <time>2020-12-06T10:08:28.977000+00:00</time>
      </trkpt>
      <trkpt lat="47.33204" lon="-1.35318">
        <ele>84</ele>
        <time>2020-12-06T10:08:29.943000+00:00</time>
      </trkpt>
      <trkpt lat="0" lon="0">
        <time>2020-12-06T10:08:29.950000+00:00</time>
      </trkpt>
      <trkpt lat="0" lon="0">
        <time>2020-12-06T10:08:29.954000+00:00</time>
      </trkpt>
      <trkpt lat="0" lon="0">
        <time>2020-12-06T10:08:29.956000+00:00</time>
      </trkpt>
      <trkpt lat="47.33206" lon="-1.35324">
        <ele>84</ele>
        <time>2020-12-06T10:08:30.960000+00:00</time>
      </trkpt>
      <trkpt lat="0" lon="0">
        <time>2020-12-06T10:08:30.968000+00:00</time>
      </trkpt>
      <trkpt lat="0" lon="0">
        <time>2020-12-06T10:08:30.974000+00:00</time>
      </trkpt>
      <trkpt lat="0" lon="0">
        <time>2020-12-06T10:08:30.978000+00:00</time>
      </trkpt>
      <trkpt lat="47.33208" lon="-1.3533">
        <ele>84</ele>
        <time>2020-12-06T10:08:31.977000+00:00</time>
      </trkpt>
      <trkpt lat="0" lon="0">
        <time>2020-12-06T10:08:31.989000+00:00</time>
      </trkpt>
      <trkpt lat="0" lon="0">
        <time>2020-12-06T10:08:31.993000+00:00</time>
      </trkpt>
      <trkpt lat="0" lon="0">
        <time>2020-12-06T10:08:31.995000+00:00</time>
      </trkpt>
      <trkpt lat="47.3321" lon="-1.35336">
        <ele>84</ele>
        <time>2020-12-06T10:08:32.964000+00:00</time>
      </trkpt>
      <trkpt lat="0" lon="0">
        <time>2020-12-06T10:08:32.968000+00:00</time>
      </trkpt>
      <trkpt lat="0" lon="0">
        <time>2020-12-06T10:08:32.976000+00:00</time>
      </trkpt>
      <trkpt lat="0" lon="0">
        <time>2020-12-06T10:08:32.982000+00:00</time>
      </trkpt>
      <trkpt lat="47.33212" lon="-1.35342">
        <ele>84</ele>
        <time>2020-12-06T10:08:33.980000+00:00</time>
      </trkpt>
      <trkpt lat="0" lon="0">
        <time>2020-12-06T10:08:33.987000+00:00</time>
      </trkpt>
      <trkpt lat="0" lon="0">
        <time>2020-12-06T10:08:33.989000+00:00</time>
      </trkpt>
      <trkpt lat="0" lon="0">
        <time>2020-12-06T10:08:33.990000+00:00</time>
      </trkpt>
      <trkpt lat="47.33216" lon="-1.35354">
        <ele>84</ele>
        <time>2020-12-06T10:08:35.970000+00:00</time>
      </trkpt>
      <trkpt lat="0" lon="0">
        <time>2020-12-06T10:08:35.975000+00:00</time>
      </trkpt>
      <trkpt lat="0" lon="0">
        <time>2020-12-06T10:08:35.977000+00:00</time>
      </trkpt>
      <trkpt lat="0" lon="0">
        <time>2020-12-06T10:08:35.978000+00:00</time>
      </trkpt>
      <trkpt lat="47.33218" lon="-1.3536">
        <ele>84</ele>
        <time>2020-12-06T10:08:36.962000+00:00</time>
      </trkpt>
      <trkpt lat="0" lon="0">
        <time>2020-12-06T10:08:36.966000+00:00</time>
      </trkpt>
      <trkpt lat="0" lon="0">
        <time>2020-12-06T10:08:36.969000+00:00</time>
      </trkpt>
      <trkpt lat="0" lon="0">
        <time>2020-12-06T10:08:36.971000+00:00</time>
      </trkpt>
      <trkpt lat="47.3322" lon="-1.35366">
        <ele>84</ele>
        <time>2020-12-06T10:08:37.957000+00:00</time>
      </trkpt>
      <trkpt lat="0" lon="0">
        <time>2020-12-06T10:08:37.977000+00:00</time>
      </trkpt>
      <trkpt lat="0" lon="0">
        <time>2020-12-06T10:08:37.983000+00:00</time>
      </trkpt>
      <trkpt lat="0" lon="0">
        <time>2020-12-06T10:08:37.988000+00:00</time>
      </trkpt>
      <trkpt lat="47.33222" lon="-1.35371">
        <ele>84</ele>
        <time>2020-12-06T10:08:38.971000+00:00</time>
      </trkpt>
      <trkpt lat="0" lon="0">
        <time>2020-12-06T10:08:38.985000+00:00</time>
      </trkpt>
      <trkpt lat="0" lon="0">
        <time>2020-12-06T10:08:38.989000+00:00</time>
      </trkpt>
      <trkpt lat="0" lon="0">
        <time>2020-12-06T10:08:38.998000+00:00</time>
      </trkpt>
      <trkpt lat="47.33224" lon="-1.35377">
        <ele>84</ele>
        <time>2020-12-06T10:08:39.959000+00:00</time>
      </trkpt>
      <trkpt lat="0" lon="0">
        <time>2020-12-06T10:08:39.974000+00:00</time>
      </trkpt>
      <trkpt lat="0" lon="0">
        <time>2020-12-06T10:08:39.979000+00:00</time>
      </trkpt>
      <trkpt lat="0" lon="0">
        <time>2020-12-06T10:08:39.981000+00:00</time>
      </trkpt>
      <trkpt lat="47.33226" lon="-1.35383">
        <ele>84</ele>
        <time>2020-12-06T10:08:40.970000+00:00</time>
      </trkpt>
      <trkpt lat="0" lon="0">
        <time>2020-12-06T10:08:40.976000+00:00</time>
      </trkpt>
      <trkpt lat="0" lon="0">
        <time>2020-12-06T10:08:40.984000+00:00</time>
      </trkpt>
      <trkpt lat="0" lon="0">
        <time>2020-12-06T10:08:40.986000+00:00</time>
      </trkpt>
      <trkpt lat="47.33228" lon="-1.35388">
        <ele>84</ele>
        <time>2020-12-06T10:08:41.972000+00:00</time>
      </trkpt>
      <trkpt lat="0" lon="0">
        <time>2020-12-06T10:08:41.984000+00:00</time>
      </trkpt>
      <trkpt lat="0" lon="0">
        <time>2020-12-06T10:08:41.988000+00:00</time>
      </trkpt>
      <trkpt lat="0" lon="0">
        <time>2020-12-06T10:08:41.990000+00:00</time>
      </trkpt>
      <trkpt lat="47.33229" lon="-1.35393">
        <ele>84</ele>
        <time>2020-12-06T10:08:42.952000+00:00</time>
      </trkpt>
      <trkpt lat="0" lon="0">
        <time>2020-12-06T10:08:42.960000+00:00</time>
      </trkpt>
      <trkpt lat="0" lon="0">
        <time>2020-12-06T10:08:42.970000+00:00</time>
      </trkpt>
      <trkpt lat="0" lon="0">
        <time>2020-12-06T10:08:42.971000+00:00</time>
      </trkpt>
      <trkpt lat="47.33231" lon="-1.35398">
        <ele>84</ele>
        <time>2020-12-06T10:08:43.972000+00:00</time>
      </trkpt>
      <trkpt lat="0" lon="0">
        <time>2020-12-06T10:08:43.976000+00:00</time>
      </trkpt>
      <trkpt lat="0" lon="0">
        <time>2020-12-06T10:08:43.985000+00:00</time>
      </trkpt>
      <trkpt lat="0" lon="0">
        <time>2020-12-06T10:08:43.988000+00:00</time>
      </trkpt>
      <trkpt lat="47.33233" lon="-1.35403">
        <ele>84</ele>
        <time>2020-12-06T10:08:44.967000+00:00</time>
      </trkpt>
      <trkpt lat="0" lon="0">
        <time>2020-12-06T10:08:44.980000+00:00</time>
      </trkpt>
      <trkpt lat="0" lon="0">
        <time>2020-12-06T10:08:44.986000+00:00</time>
      </trkpt>
      <trkpt lat="0" lon="0">
        <time>2020-12-06T10:08:44.988000+00:00</time>
      </trkpt>
      <trkpt lat="47.33235" lon="-1.35408">
        <ele>84</ele>
        <time>2020-12-06T10:08:45.972000+00:00</time>
      </trkpt>
      <trkpt lat="0" lon="0">
        <time>2020-12-06T10:08:45.983000+00:00</time>
      </trkpt>
      <trkpt lat="0" lon="0">
        <time>2020-12-06T10:08:45.985000+00:00</time>
      </trkpt>
      <trkpt lat="0" lon="0">
        <time>2020-12-06T10:08:45.986000+00:00</time>
      </trkpt>
      <trkpt lat="47.33236" lon="-1.35414">
        <ele>84</ele>
        <time>2020-12-06T10:08:46.961000+00:00</time>
      </trkpt>
      <trkpt lat="0" lon="0">
        <time>2020-12-06T10:08:46.968000+00:00</time>
      </trkpt>
      <trkpt lat="0" lon="0">
        <time>2020-12-06T10:08:46.970000+00:00</time>
      </trkpt>
      <trkpt lat="0" lon="0">
        <time>2020-12-06T10:08:46.971000+00:00</time>
      </trkpt>
      <trkpt lat="47.33238" lon="-1.35419">
        <ele>83</ele>
        <time>2020-12-06T10:08:48.002000+00:00</time>
      </trkpt>
      <trkpt lat="0" lon="0">
        <time>2020-12-06T10:08:48.026000+00:00</time>
      </trkpt>
      <trkpt lat="0" lon="0">
        <time>2020-12-06T10:08:48.030000+00:00</time>
      </trkpt>
      <trkpt lat="0" lon="0">
        <time>2020-12-06T10:08:48.032000+00:00</time>
      </trkpt>
      <trkpt lat="47.3324" lon="-1.35424">
        <ele>83</ele>
        <time>2020-12-06T10:08:49.010000+00:00</time>
      </trkpt>
      <trkpt lat="0" lon="0">
        <time>2020-12-06T10:08:49.013000+00:00</time>
      </trkpt>
      <trkpt lat="0" lon="0">
        <time>2020-12-06T10:08:49.019000+00:00</time>
      </trkpt>
      <trkpt lat="0" lon="0">
        <time>2020-12-06T10:08:49.020000+00:00</time>
      </trkpt>
      <trkpt lat="47.33242" lon="-1.3543">
        <ele>83</ele>
        <time>2020-12-06T10:08:49.951000+00:00</time>
      </trkpt>
      <trkpt lat="0" lon="0">
        <time>2020-12-06T10:08:49.963000+00:00</time>
      </trkpt>
      <trkpt lat="0" lon="0">
        <time>2020-12-06T10:08:49.968000+00:00</time>
      </trkpt>
      <trkpt lat="0" lon="0">
        <time>2020-12-06T10:08:49.971000+00:00</time>
      </trkpt>
      <trkpt lat="47.33244" lon="-1.35435">
        <ele>83</ele>
        <time>2020-12-06T10:08:50.979000+00:00</time>
      </trkpt>
      <trkpt lat="0" lon="0">
        <time>2020-12-06T10:08:50.988000+00:00</time>
      </trkpt>
      <trkpt lat="0" lon="0">
        <time>2020-12-06T10:08:50.994000+00:00</time>
      </trkpt>
      <trkpt lat="0" lon="0">
        <time>2020-12-06T10:08:50.996000+00:00</time>
      </trkpt>
      <trkpt lat="47.33245" lon="-1.35441">
        <ele>83</ele>
        <time>2020-12-06T10:08:51.959000+00:00</time>
      </trkpt>
      <trkpt lat="0" lon="0">
        <time>2020-12-06T10:08:51.968000+00:00</time>
      </trkpt>
      <trkpt lat="0" lon="0">
        <time>2020-12-06T10:08:51.972000+00:00</time>
      </trkpt>
      <trkpt lat="0" lon="0">
        <time>2020-12-06T10:08:51.974000+00:00</time>
      </trkpt>
      <trkpt lat="47.33248" lon="-1.35447">
        <ele>83</ele>
        <time>2020-12-06T10:08:52.957000+00:00</time>
      </trkpt>
      <trkpt lat="0" lon="0">
        <time>2020-12-06T10:08:52.967000+00:00</time>
      </trkpt>
      <trkpt lat="0" lon="0">
        <time>2020-12-06T10:08:52.971000+00:00</time>
      </trkpt>
      <trkpt lat="0" lon="0">
        <time>2020-12-06T10:08:52.973000+00:00</time>
      </trkpt>
      <trkpt lat="47.3325" lon="-1.35453">
        <ele>83</ele>
        <time>2020-12-06T10:08:53.955000+00:00</time>
      </trkpt>
      <trkpt lat="0" lon="0">
        <time>2020-12-06T10:08:53.961000+00:00</time>
      </trkpt>
      <trkpt lat="0" lon="0">
        <time>2020-12-06T10:08:53.964000+00:00</time>
      </trkpt>
      <trkpt lat="0" lon="0">
        <time>2020-12-06T10:08:53.966000+00:00</time>
      </trkpt>
      <trkpt lat="47.33252" lon="-1.3546">
        <ele>82</ele>
        <time>2020-12-06T10:08:54.942000+00:00</time>
      </trkpt>
      <trkpt lat="0" lon="0">
        <time>2020-12-06T10:08:54.962000+00:00</time>
      </trkpt>
      <trkpt lat="0" lon="0">
        <time>2020-12-06T10:08:54.965000+00:00</time>
      </trkpt>
      <trkpt lat="0" lon="0">
        <time>2020-12-06T10:08:54.967000+00:00</time>
      </trkpt>
      <trkpt lat="47.33255" lon="-1.35467">
        <ele>82</ele>
        <time>2020-12-06T10:08:55.950000+00:00</time>
      </trkpt>
      <trkpt lat="0" lon="0">
        <time>2020-12-06T10:08:55.968000+00:00</time>
      </trkpt>
      <trkpt lat="0" lon="0">
        <time>2020-12-06T10:08:55.975000+00:00</time>
      </trkpt>
      <trkpt lat="0" lon="0">
        <time>2020-12-06T10:08:55.977000+00:00</time>
      </trkpt>
      <trkpt lat="47.33257" lon="-1.35474">
        <ele>82</ele>
        <time>2020-12-06T10:08:56.967000+00:00</time>
      </trkpt>
      <trkpt lat="0" lon="0">
        <time>2020-12-06T10:08:56.974000+00:00</time>
      </trkpt>
      <trkpt lat="0" lon="0">
        <time>2020-12-06T10:08:56.975000+00:00</time>
      </trkpt>
      <trkpt lat="0" lon="0">
        <time>2020-12-06T10:08:56.977000+00:00</time>
      </trkpt>
      <trkpt lat="47.33259" lon="-1.35482">
        <ele>82</ele>
        <time>2020-12-06T10:08:57.994000+00:00</time>
      </trkpt>
      <trkpt lat="0" lon="0">
        <time>2020-12-06T10:08:58.003000+00:00</time>
      </trkpt>
      <trkpt lat="0" lon="0">
        <time>2020-12-06T10:08:58.007000+00:00</time>
      </trkpt>
      <trkpt lat="0" lon="0">
        <time>2020-12-06T10:08:58.010000+00:00</time>
      </trkpt>
      <trkpt lat="47.33262" lon="-1.35489">
        <ele>82</ele>
        <time>2020-12-06T10:08:58.963000+00:00</time>
      </trkpt>
      <trkpt lat="0" lon="0">
        <time>2020-12-06T10:08:58.970000+00:00</time>
      </trkpt>
      <trkpt lat="0" lon="0">
        <time>2020-12-06T10:08:58.974000+00:00</time>
      </trkpt>
      <trkpt lat="0" lon="0">
        <time>2020-12-06T10:08:58.986000+00:00</time>
      </trkpt>
      <trkpt lat="47.33265" lon="-1.35497">
        <ele>81</ele>
        <time>2020-12-06T10:08:59.950000+00:00</time>
      </trkpt>
      <trkpt lat="0" lon="0">
        <time>2020-12-06T10:08:59.960000+00:00</time>
      </trkpt>
      <trkpt lat="0" lon="0">
        <time>2020-12-06T10:08:59.965000+00:00</time>
      </trkpt>
      <trkpt lat="0" lon="0">
        <time>2020-12-06T10:08:59.967000+00:00</time>
      </trkpt>
      <trkpt lat="47.33269" lon="-1.35504">
        <ele>81</ele>
        <time>2020-12-06T10:09:00.952000+00:00</time>
      </trkpt>
      <trkpt lat="0" lon="0">
        <time>2020-12-06T10:09:00.961000+00:00</time>
      </trkpt>
      <trkpt lat="0" lon="0">
        <time>2020-12-06T10:09:00.968000+00:00</time>
      </trkpt>
      <trkpt lat="0" lon="0">
        <time>2020-12-06T10:09:00.969000+00:00</time>
      </trkpt>
      <trkpt lat="47.33272" lon="-1.3551">
        <ele>81</ele>
        <time>2020-12-06T10:09:01.985000+00:00</time>
      </trkpt>
      <trkpt lat="0" lon="0">
        <time>2020-12-06T10:09:01.997000+00:00</time>
      </trkpt>
      <trkpt lat="0" lon="0">
        <time>2020-12-06T10:09:02.001000+00:00</time>
      </trkpt>
      <trkpt lat="0" lon="0">
        <time>2020-12-06T10:09:02.004000+00:00</time>
      </trkpt>
      <trkpt lat="47.33276" lon="-1.35517">
        <ele>81</ele>
        <time>2020-12-06T10:09:02.949000+00:00</time>
      </trkpt>
      <trkpt lat="0" lon="0">
        <time>2020-12-06T10:09:02.954000+00:00</time>
      </trkpt>
      <trkpt lat="0" lon="0">
        <time>2020-12-06T10:09:02.956000+00:00</time>
      </trkpt>
      <trkpt lat="0" lon="0">
        <time>2020-12-06T10:09:02.957000+00:00</time>
      </trkpt>
      <trkpt lat="47.33279" lon="-1.35523">
        <ele>81</ele>
        <time>2020-12-06T10:09:03.972000+00:00</time>
      </trkpt>
      <trkpt lat="0" lon="0">
        <time>2020-12-06T10:09:03.983000+00:00</time>
      </trkpt>
      <trkpt lat="0" lon="0">
        <time>2020-12-06T10:09:03.991000+00:00</time>
      </trkpt>
      <trkpt lat="0" lon="0">
        <time>2020-12-06T10:09:03.993000+00:00</time>
      </trkpt>
      <trkpt lat="47.33283" lon="-1.35529">
        <ele>81</ele>
        <time>2020-12-06T10:09:04.972000+00:00</time>
      </trkpt>
      <trkpt lat="0" lon="0">
        <time>2020-12-06T10:09:04.985000+00:00</time>
      </trkpt>
      <trkpt lat="0" lon="0">
        <time>2020-12-06T10:09:04.988000+00:00</time>
      </trkpt>
      <trkpt lat="0" lon="0">
        <time>2020-12-06T10:09:04.990000+00:00</time>
      </trkpt>
      <trkpt lat="47.33286" lon="-1.35535">
        <ele>80</ele>
        <time>2020-12-06T10:09:05.950000+00:00</time>
      </trkpt>
      <trkpt lat="0" lon="0">
        <time>2020-12-06T10:09:05.962000+00:00</time>
      </trkpt>
      <trkpt lat="0" lon="0">
        <time>2020-12-06T10:09:05.966000+00:00</time>
      </trkpt>
      <trkpt lat="0" lon="0">
        <time>2020-12-06T10:09:05.970000+00:00</time>
      </trkpt>
      <trkpt lat="47.33289" lon="-1.35542">
        <ele>80</ele>
        <time>2020-12-06T10:09:06.962000+00:00</time>
      </trkpt>
      <trkpt lat="0" lon="0">
        <time>2020-12-06T10:09:06.975000+00:00</time>
      </trkpt>
      <trkpt lat="0" lon="0">
        <time>2020-12-06T10:09:06.979000+00:00</time>
      </trkpt>
      <trkpt lat="0" lon="0">
        <time>2020-12-06T10:09:06.982000+00:00</time>
      </trkpt>
      <trkpt lat="47.33292" lon="-1.35548">
        <ele>80</ele>
        <time>2020-12-06T10:09:07.946000+00:00</time>
      </trkpt>
      <trkpt lat="0" lon="0">
        <time>2020-12-06T10:09:07.963000+00:00</time>
      </trkpt>
      <trkpt lat="0" lon="0">
        <time>2020-12-06T10:09:07.966000+00:00</time>
      </trkpt>
      <trkpt lat="0" lon="0">
        <time>2020-12-06T10:09:07.969000+00:00</time>
      </trkpt>
      <trkpt lat="47.33296" lon="-1.35554">
        <ele>80</ele>
        <time>2020-12-06T10:09:08.944000+00:00</time>
      </trkpt>
      <trkpt lat="0" lon="0">
        <time>2020-12-06T10:09:08.956000+00:00</time>
      </trkpt>
      <trkpt lat="0" lon="0">
        <time>2020-12-06T10:09:08.960000+00:00</time>
      </trkpt>
      <trkpt lat="0" lon="0">
        <time>2020-12-06T10:09:08.961000+00:00</time>
      </trkpt>
      <trkpt lat="47.33299" lon="-1.3556">
        <ele>80</ele>
        <time>2020-12-06T10:09:09.998000+00:00</time>
      </trkpt>
      <trkpt lat="0" lon="0">
        <time>2020-12-06T10:09:10.009000+00:00</time>
      </trkpt>
      <trkpt lat="0" lon="0">
        <time>2020-12-06T10:09:10.012000+00:00</time>
      </trkpt>
      <trkpt lat="0" lon="0">
        <time>2020-12-06T10:09:10.022000+00:00</time>
      </trkpt>
      <trkpt lat="47.33302" lon="-1.35566">
        <ele>80</ele>
        <time>2020-12-06T10:09:10.985000+00:00</time>
      </trkpt>
      <trkpt lat="0" lon="0">
        <time>2020-12-06T10:09:10.992000+00:00</time>
      </trkpt>
      <trkpt lat="0" lon="0">
        <time>2020-12-06T10:09:10.996000+00:00</time>
      </trkpt>
      <trkpt lat="0" lon="0">
        <time>2020-12-06T10:09:10.999000+00:00</time>
      </trkpt>
      <trkpt lat="47.33305" lon="-1.35573">
        <ele>80</ele>
        <time>2020-12-06T10:09:11.996000+00:00</time>
      </trkpt>
      <trkpt lat="0" lon="0">
        <time>2020-12-06T10:09:12.007000+00:00</time>
      </trkpt>
      <trkpt lat="0" lon="0">
        <time>2020-12-06T10:09:12.011000+00:00</time>
      </trkpt>
      <trkpt lat="0" lon="0">
        <time>2020-12-06T10:09:12.013000+00:00</time>
      </trkpt>
      <trkpt lat="47.33308" lon="-1.35579">
        <ele>80</ele>
        <time>2020-12-06T10:09:12.973000+00:00</time>
      </trkpt>
      <trkpt lat="0" lon="0">
        <time>2020-12-06T10:09:12.990000+00:00</time>
      </trkpt>
      <trkpt lat="0" lon="0">
        <time>2020-12-06T10:09:12.998000+00:00</time>
      </trkpt>
      <trkpt lat="0" lon="0">
        <time>2020-12-06T10:09:13+00:00</time>
      </trkpt>
      <trkpt lat="47.3331" lon="-1.35585">
        <ele>79</ele>
        <time>2020-12-06T10:09:13.937000+00:00</time>
      </trkpt>
      <trkpt lat="0" lon="0">
        <time>2020-12-06T10:09:13.939000+00:00</time>
      </trkpt>
      <trkpt lat="0" lon="0">
        <time>2020-12-06T10:09:13.941000+00:00</time>
      </trkpt>
      <trkpt lat="0" lon="0">
        <time>2020-12-06T10:09:13.942000+00:00</time>
      </trkpt>
      <trkpt lat="47.33313" lon="-1.35591">
        <ele>79</ele>
        <time>2020-12-06T10:09:14.948000+00:00</time>
      </trkpt>
      <trkpt lat="0" lon="0">
        <time>2020-12-06T10:09:14.969000+00:00</time>
      </trkpt>
      <trkpt lat="0" lon="0">
        <time>2020-12-06T10:09:14.978000+00:00</time>
      </trkpt>
      <trkpt lat="0" lon="0">
        <time>2020-12-06T10:09:14.980000+00:00</time>
      </trkpt>
      <trkpt lat="47.33315" lon="-1.35598">
        <ele>79</ele>
        <time>2020-12-06T10:09:15.962000+00:00</time>
      </trkpt>
      <trkpt lat="0" lon="0">
        <time>2020-12-06T10:09:15.974000+00:00</time>
      </trkpt>
      <trkpt lat="0" lon="0">
        <time>2020-12-06T10:09:15.981000+00:00</time>
      </trkpt>
      <trkpt lat="0" lon="0">
        <time>2020-12-06T10:09:15.983000+00:00</time>
      </trkpt>
      <trkpt lat="47.3332" lon="-1.3561">
        <ele>79</ele>
        <time>2020-12-06T10:09:17.904000+00:00</time>
      </trkpt>
      <trkpt lat="0" lon="0">
        <time>2020-12-06T10:09:17.915000+00:00</time>
      </trkpt>
      <trkpt lat="0" lon="0">
        <time>2020-12-06T10:09:17.923000+00:00</time>
      </trkpt>
      <trkpt lat="0" lon="0">
        <time>2020-12-06T10:09:17.925000+00:00</time>
      </trkpt>
      <trkpt lat="47.33322" lon="-1.35616">
        <ele>79</ele>
        <time>2020-12-06T10:09:18.948000+00:00</time>
      </trkpt>
      <trkpt lat="0" lon="0">
        <time>2020-12-06T10:09:18.964000+00:00</time>
      </trkpt>
      <trkpt lat="0" lon="0">
        <time>2020-12-06T10:09:18.968000+00:00</time>
      </trkpt>
      <trkpt lat="0" lon="0">
        <time>2020-12-06T10:09:18.970000+00:00</time>
      </trkpt>
      <trkpt lat="47.33324" lon="-1.35622">
        <ele>79</ele>
        <time>2020-12-06T10:09:19.926000+00:00</time>
      </trkpt>
      <trkpt lat="0" lon="0">
        <time>2020-12-06T10:09:19.933000+00:00</time>
      </trkpt>
      <trkpt lat="0" lon="0">
        <time>2020-12-06T10:09:19.944000+00:00</time>
      </trkpt>
      <trkpt lat="0" lon="0">
        <time>2020-12-06T10:09:19.947000+00:00</time>
      </trkpt>
      <trkpt lat="47.33325" lon="-1.35628">
        <ele>78</ele>
        <time>2020-12-06T10:09:20.946000+00:00</time>
      </trkpt>
      <trkpt lat="0" lon="0">
        <time>2020-12-06T10:09:20.949000+00:00</time>
      </trkpt>
      <trkpt lat="0" lon="0">
        <time>2020-12-06T10:09:20.956000+00:00</time>
      </trkpt>
      <trkpt lat="0" lon="0">
        <time>2020-12-06T10:09:20.959000+00:00</time>
      </trkpt>
      <trkpt lat="47.33327" lon="-1.35633">
        <ele>78</ele>
        <time>2020-12-06T10:09:21.990000+00:00</time>
      </trkpt>
      <trkpt lat="0" lon="0">
        <time>2020-12-06T10:09:22.004000+00:00</time>
      </trkpt>
      <trkpt lat="0" lon="0">
        <time>2020-12-06T10:09:22.022000+00:00</time>
      </trkpt>
      <trkpt lat="0" lon="0">
        <time>2020-12-06T10:09:22.028000+00:00</time>
      </trkpt>
      <trkpt lat="47.33327" lon="-1.35638">
        <ele>78</ele>
        <time>2020-12-06T10:09:22.964000+00:00</time>
      </trkpt>
      <trkpt lat="0" lon="0">
        <time>2020-12-06T10:09:22.978000+00:00</time>
      </trkpt>
      <trkpt lat="0" lon="0">
        <time>2020-12-06T10:09:22.981000+00:00</time>
      </trkpt>
      <trkpt lat="0" lon="0">
        <time>2020-12-06T10:09:22.983000+00:00</time>
      </trkpt>
      <trkpt lat="47.33327" lon="-1.35643">
        <ele>78</ele>
        <time>2020-12-06T10:09:23.863000+00:00</time>
      </trkpt>
      <trkpt lat="0" lon="0">
        <time>2020-12-06T10:09:23.876000+00:00</time>
      </trkpt>
      <trkpt lat="0" lon="0">
        <time>2020-12-06T10:09:23.882000+00:00</time>
      </trkpt>
      <trkpt lat="0" lon="0">
        <time>2020-12-06T10:09:23.884000+00:00</time>
      </trkpt>
      <trkpt lat="47.33327" lon="-1.35647">
        <ele>78</ele>
        <time>2020-12-06T10:09:24.899000+00:00</time>
      </trkpt>
      <trkpt lat="0" lon="0">
        <time>2020-12-06T10:09:24.907000+00:00</time>
      </trkpt>
      <trkpt lat="0" lon="0">
        <time>2020-12-06T10:09:24.914000+00:00</time>
      </trkpt>
      <trkpt lat="0" lon="0">
        <time>2020-12-06T10:09:24.916000+00:00</time>
      </trkpt>
      <trkpt lat="47.33326" lon="-1.3565">
        <ele>78</ele>
        <time>2020-12-06T10:09:25.942000+00:00</time>
      </trkpt>
      <trkpt lat="0" lon="0">
        <time>2020-12-06T10:09:25.947000+00:00</time>
      </trkpt>
      <trkpt lat="0" lon="0">
        <time>2020-12-06T10:09:25.951000+00:00</time>
      </trkpt>
      <trkpt lat="0" lon="0">
        <time>2020-12-06T10:09:25.963000+00:00</time>
      </trkpt>
      <trkpt lat="47.33325" lon="-1.35652">
        <ele>78</ele>
        <time>2020-12-06T10:09:26.913000+00:00</time>
      </trkpt>
      <trkpt lat="0" lon="0">
        <time>2020-12-06T10:09:26.918000+00:00</time>
      </trkpt>
      <trkpt lat="0" lon="0">
        <time>2020-12-06T10:09:26.927000+00:00</time>
      </trkpt>
      <trkpt lat="0" lon="0">
        <time>2020-12-06T10:09:26.933000+00:00</time>
      </trkpt>
      <trkpt lat="47.33324" lon="-1.35652">
        <ele>78</ele>
        <time>2020-12-06T10:09:27.921000+00:00</time>
      </trkpt>
      <trkpt lat="0" lon="0">
        <time>2020-12-06T10:09:27.933000+00:00</time>
      </trkpt>
      <trkpt lat="0" lon="0">
        <time>2020-12-06T10:09:27.935000+00:00</time>
      </trkpt>
      <trkpt lat="0" lon="0">
        <time>2020-12-06T10:09:27.936000+00:00</time>
      </trkpt>
      <trkpt lat="47.33322" lon="-1.35652">
        <ele>78</ele>
        <time>2020-12-06T10:09:28.910000+00:00</time>
      </trkpt>
      <trkpt lat="0" lon="0">
        <time>2020-12-06T10:09:28.913000+00:00</time>
      </trkpt>
      <trkpt lat="0" lon="0">
        <time>2020-12-06T10:09:28.918000+00:00</time>
      </trkpt>
      <trkpt lat="0" lon="0">
        <time>2020-12-06T10:09:28.923000+00:00</time>
      </trkpt>
      <trkpt lat="47.33319" lon="-1.35651">
        <ele>78</ele>
        <time>2020-12-06T10:09:29.925000+00:00</time>
      </trkpt>
      <trkpt lat="0" lon="0">
        <time>2020-12-06T10:09:29.928000+00:00</time>
      </trkpt>
      <trkpt lat="0" lon="0">
        <time>2020-12-06T10:09:29.932000+00:00</time>
      </trkpt>
      <trkpt lat="0" lon="0">
        <time>2020-12-06T10:09:29.935000+00:00</time>
      </trkpt>
      <trkpt lat="47.33317" lon="-1.3565">
        <ele>78</ele>
        <time>2020-12-06T10:09:30.917000+00:00</time>
      </trkpt>
      <trkpt lat="0" lon="0">
        <time>2020-12-06T10:09:30.919000+00:00</time>
      </trkpt>
      <trkpt lat="0" lon="0">
        <time>2020-12-06T10:09:30.920000+00:00</time>
      </trkpt>
      <trkpt lat="0" lon="0">
        <time>2020-12-06T10:09:30.921000+00:00</time>
      </trkpt>
      <trkpt lat="47.33313" lon="-1.35648">
        <ele>78</ele>
        <time>2020-12-06T10:09:31.950000+00:00</time>
      </trkpt>
      <trkpt lat="0" lon="0">
        <time>2020-12-06T10:09:31.963000+00:00</time>
      </trkpt>
      <trkpt lat="0" lon="0">
        <time>2020-12-06T10:09:31.966000+00:00</time>
      </trkpt>
      <trkpt lat="0" lon="0">
        <time>2020-12-06T10:09:31.968000+00:00</time>
      </trkpt>
      <trkpt lat="47.3331" lon="-1.35647">
        <ele>78</ele>
        <time>2020-12-06T10:09:32.864000+00:00</time>
      </trkpt>
      <trkpt lat="0" lon="0">
        <time>2020-12-06T10:09:32.869000+00:00</time>
      </trkpt>
      <trkpt lat="0" lon="0">
        <time>2020-12-06T10:09:32.872000+00:00</time>
      </trkpt>
      <trkpt lat="0" lon="0">
        <time>2020-12-06T10:09:32.874000+00:00</time>
      </trkpt>
      <trkpt lat="47.33306" lon="-1.35645">
        <ele>78</ele>
        <time>2020-12-06T10:09:33.898000+00:00</time>
      </trkpt>
      <trkpt lat="0" lon="0">
        <time>2020-12-06T10:09:33.901000+00:00</time>
      </trkpt>
      <trkpt lat="0" lon="0">
        <time>2020-12-06T10:09:33.909000+00:00</time>
      </trkpt>
      <trkpt lat="0" lon="0">
        <time>2020-12-06T10:09:33.910000+00:00</time>
      </trkpt>
      <trkpt lat="47.33301" lon="-1.35643">
        <ele>78</ele>
        <time>2020-12-06T10:09:34.926000+00:00</time>
      </trkpt>
      <trkpt lat="0" lon="0">
        <time>2020-12-06T10:09:34.946000+00:00</time>
      </trkpt>
      <trkpt lat="0" lon="0">
        <time>2020-12-06T10:09:34.952000+00:00</time>
      </trkpt>
      <trkpt lat="0" lon="0">
        <time>2020-12-06T10:09:34.954000+00:00</time>
      </trkpt>
      <trkpt lat="47.33297" lon="-1.3564">
        <ele>78</ele>
        <time>2020-12-06T10:09:35.944000+00:00</time>
      </trkpt>
      <trkpt lat="0" lon="0">
        <time>2020-12-06T10:09:35.948000+00:00</time>
      </trkpt>
      <trkpt lat="0" lon="0">
        <time>2020-12-06T10:09:35.953000+00:00</time>
      </trkpt>
      <trkpt lat="0" lon="0">
        <time>2020-12-06T10:09:35.967000+00:00</time>
      </trkpt>
      <trkpt lat="47.33292" lon="-1.35639">
        <ele>78</ele>
        <time>2020-12-06T10:09:36.954000+00:00</time>
      </trkpt>
      <trkpt lat="0" lon="0">
        <time>2020-12-06T10:09:36.971000+00:00</time>
      </trkpt>
      <trkpt lat="0" lon="0">
        <time>2020-12-06T10:09:36.975000+00:00</time>
      </trkpt>
      <trkpt lat="0" lon="0">
        <time>2020-12-06T10:09:36.977000+00:00</time>
      </trkpt>
      <trkpt lat="47.33286" lon="-1.35637">
        <ele>78</ele>
        <time>2020-12-06T10:09:37.941000+00:00</time>
      </trkpt>
      <trkpt lat="0" lon="0">
        <time>2020-12-06T10:09:37.951000+00:00</time>
      </trkpt>
      <trkpt lat="0" lon="0">
        <time>2020-12-06T10:09:37.956000+00:00</time>
      </trkpt>
      <trkpt lat="0" lon="0">
        <time>2020-12-06T10:09:37.959000+00:00</time>
      </trkpt>
      <trkpt lat="47.33281" lon="-1.35635">
        <ele>78</ele>
        <time>2020-12-06T10:09:38.972000+00:00</time>
      </trkpt>
      <trkpt lat="0" lon="0">
        <time>2020-12-06T10:09:38.982000+00:00</time>
      </trkpt>
      <trkpt lat="0" lon="0">
        <time>2020-12-06T10:09:38.991000+00:00</time>
      </trkpt>
      <trkpt lat="0" lon="0">
        <time>2020-12-06T10:09:38.993000+00:00</time>
      </trkpt>
      <trkpt lat="47.33276" lon="-1.35634">
        <ele>78</ele>
        <time>2020-12-06T10:09:39.973000+00:00</time>
      </trkpt>
      <trkpt lat="0" lon="0">
        <time>2020-12-06T10:09:39.977000+00:00</time>
      </trkpt>
      <trkpt lat="0" lon="0">
        <time>2020-12-06T10:09:39.988000+00:00</time>
      </trkpt>
      <trkpt lat="0" lon="0">
        <time>2020-12-06T10:09:39.990000+00:00</time>
      </trkpt>
      <trkpt lat="47.33272" lon="-1.35633">
        <ele>78</ele>
        <time>2020-12-06T10:09:40.958000+00:00</time>
      </trkpt>
      <trkpt lat="0" lon="0">
        <time>2020-12-06T10:09:40.971000+00:00</time>
      </trkpt>
      <trkpt lat="0" lon="0">
        <time>2020-12-06T10:09:40.975000+00:00</time>
      </trkpt>
      <trkpt lat="0" lon="0">
        <time>2020-12-06T10:09:40.978000+00:00</time>
      </trkpt>
      <trkpt lat="47.33267" lon="-1.35633">
        <ele>78</ele>
        <time>2020-12-06T10:09:41.987000+00:00</time>
      </trkpt>
      <trkpt lat="0" lon="0">
        <time>2020-12-06T10:09:42.006000+00:00</time>
      </trkpt>
      <trkpt lat="0" lon="0">
        <time>2020-12-06T10:09:42.010000+00:00</time>
      </trkpt>
      <trkpt lat="0" lon="0">
        <time>2020-12-06T10:09:42.013000+00:00</time>
      </trkpt>
      <trkpt lat="47.33262" lon="-1.35632">
        <ele>78</ele>
        <time>2020-12-06T10:09:42.970000+00:00</time>
      </trkpt>
      <trkpt lat="0" lon="0">
        <time>2020-12-06T10:09:42.979000+00:00</time>
      </trkpt>
      <trkpt lat="0" lon="0">
        <time>2020-12-06T10:09:42.983000+00:00</time>
      </trkpt>
      <trkpt lat="0" lon="0">
        <time>2020-12-06T10:09:42.986000+00:00</time>
      </trkpt>
      <trkpt lat="47.33257" lon="-1.35632">
        <ele>78</ele>
        <time>2020-12-06T10:09:43.967000+00:00</time>
      </trkpt>
      <trkpt lat="0" lon="0">
        <time>2020-12-06T10:09:43.988000+00:00</time>
      </trkpt>
      <trkpt lat="0" lon="0">
        <time>2020-12-06T10:09:43.991000+00:00</time>
      </trkpt>
      <trkpt lat="0" lon="0">
        <time>2020-12-06T10:09:43.994000+00:00</time>
      </trkpt>
      <trkpt lat="47.33253" lon="-1.35632">
        <ele>78</ele>
        <time>2020-12-06T10:09:44.974000+00:00</time>
      </trkpt>
      <trkpt lat="0" lon="0">
        <time>2020-12-06T10:09:44.981000+00:00</time>
      </trkpt>
      <trkpt lat="0" lon="0">
        <time>2020-12-06T10:09:44.988000+00:00</time>
      </trkpt>
      <trkpt lat="0" lon="0">
        <time>2020-12-06T10:09:44.997000+00:00</time>
      </trkpt>
      <trkpt lat="47.33248" lon="-1.35632">
        <ele>78</ele>
        <time>2020-12-06T10:09:45.932000+00:00</time>
      </trkpt>
      <trkpt lat="0" lon="0">
        <time>2020-12-06T10:09:45.938000+00:00</time>
      </trkpt>
      <trkpt lat="0" lon="0">
        <time>2020-12-06T10:09:45.946000+00:00</time>
      </trkpt>
      <trkpt lat="0" lon="0">
        <time>2020-12-06T10:09:45.949000+00:00</time>
      </trkpt>
      <trkpt lat="47.33244" lon="-1.35632">
        <ele>78</ele>
        <time>2020-12-06T10:09:46.941000+00:00</time>
      </trkpt>
      <trkpt lat="0" lon="0">
        <time>2020-12-06T10:09:46.947000+00:00</time>
      </trkpt>
      <trkpt lat="0" lon="0">
        <time>2020-12-06T10:09:46.958000+00:00</time>
      </trkpt>
      <trkpt lat="0" lon="0">
        <time>2020-12-06T10:09:46.965000+00:00</time>
      </trkpt>
      <trkpt lat="47.3324" lon="-1.35633">
        <ele>78</ele>
        <time>2020-12-06T10:09:47.931000+00:00</time>
      </trkpt>
      <trkpt lat="0" lon="0">
        <time>2020-12-06T10:09:47.950000+00:00</time>
      </trkpt>
      <trkpt lat="0" lon="0">
        <time>2020-12-06T10:09:47.953000+00:00</time>
      </trkpt>
      <trkpt lat="0" lon="0">
        <time>2020-12-06T10:09:47.959000+00:00</time>
      </trkpt>
      <trkpt lat="47.33236" lon="-1.35633">
        <ele>78</ele>
        <time>2020-12-06T10:09:48.959000+00:00</time>
      </trkpt>
      <trkpt lat="0" lon="0">
        <time>2020-12-06T10:09:48.969000+00:00</time>
      </trkpt>
      <trkpt lat="0" lon="0">
        <time>2020-12-06T10:09:48.979000+00:00</time>
      </trkpt>
      <trkpt lat="0" lon="0">
        <time>2020-12-06T10:09:48.988000+00:00</time>
      </trkpt>
      <trkpt lat="47.33232" lon="-1.35634">
        <ele>78</ele>
        <time>2020-12-06T10:09:49.968000+00:00</time>
      </trkpt>
      <trkpt lat="0" lon="0">
        <time>2020-12-06T10:09:49.973000+00:00</time>
      </trkpt>
      <trkpt lat="0" lon="0">
        <time>2020-12-06T10:09:49.977000+00:00</time>
      </trkpt>
      <trkpt lat="0" lon="0">
        <time>2020-12-06T10:09:49.980000+00:00</time>
      </trkpt>
      <trkpt lat="47.33229" lon="-1.35634">
        <ele>78</ele>
        <time>2020-12-06T10:09:50.976000+00:00</time>
      </trkpt>
      <trkpt lat="0" lon="0">
        <time>2020-12-06T10:09:50.993000+00:00</time>
      </trkpt>
      <trkpt lat="0" lon="0">
        <time>2020-12-06T10:09:50.997000+00:00</time>
      </trkpt>
      <trkpt lat="0" lon="0">
        <time>2020-12-06T10:09:51+00:00</time>
      </trkpt>
      <trkpt lat="47.33225" lon="-1.35635">
        <ele>78</ele>
        <time>2020-12-06T10:09:51.993000+00:00</time>
      </trkpt>
      <trkpt lat="0" lon="0">
        <time>2020-12-06T10:09:51.999000+00:00</time>
      </trkpt>
      <trkpt lat="0" lon="0">
        <time>2020-12-06T10:09:52.004000+00:00</time>
      </trkpt>
      <trkpt lat="0" lon="0">
        <time>2020-12-06T10:09:52.007000+00:00</time>
      </trkpt>
      <trkpt lat="47.33222" lon="-1.35635">
        <ele>78</ele>
        <time>2020-12-06T10:09:52.966000+00:00</time>
      </trkpt>
      <trkpt lat="0" lon="0">
        <time>2020-12-06T10:09:52.976000+00:00</time>
      </trkpt>
      <trkpt lat="0" lon="0">
        <time>2020-12-06T10:09:52.981000+00:00</time>
      </trkpt>
      <trkpt lat="0" lon="0">
        <time>2020-12-06T10:09:52.984000+00:00</time>
      </trkpt>
      <trkpt lat="47.33218" lon="-1.35635">
        <ele>78</ele>
        <time>2020-12-06T10:09:53.967000+00:00</time>
      </trkpt>
      <trkpt lat="0" lon="0">
        <time>2020-12-06T10:09:53.977000+00:00</time>
      </trkpt>
      <trkpt lat="0" lon="0">
        <time>2020-12-06T10:09:53.982000+00:00</time>
      </trkpt>
      <trkpt lat="0" lon="0">
        <time>2020-12-06T10:09:53.984000+00:00</time>
      </trkpt>
      <trkpt lat="47.33215" lon="-1.35636">
        <ele>79</ele>
        <time>2020-12-06T10:09:54.984000+00:00</time>
      </trkpt>
      <trkpt lat="0" lon="0">
        <time>2020-12-06T10:09:54.990000+00:00</time>
      </trkpt>
      <trkpt lat="0" lon="0">
        <time>2020-12-06T10:09:55.002000+00:00</time>
      </trkpt>
      <trkpt lat="0" lon="0">
        <time>2020-12-06T10:09:55.004000+00:00</time>
      </trkpt>
      <trkpt lat="47.33211" lon="-1.35637">
        <ele>79</ele>
        <time>2020-12-06T10:09:55.994000+00:00</time>
      </trkpt>
      <trkpt lat="0" lon="0">
        <time>2020-12-06T10:09:56.006000+00:00</time>
      </trkpt>
      <trkpt lat="0" lon="0">
        <time>2020-12-06T10:09:56.010000+00:00</time>
      </trkpt>
      <trkpt lat="0" lon="0">
        <time>2020-12-06T10:09:56.012000+00:00</time>
      </trkpt>
      <trkpt lat="47.33207" lon="-1.35638">
        <ele>79</ele>
        <time>2020-12-06T10:09:56.924000+00:00</time>
      </trkpt>
      <trkpt lat="0" lon="0">
        <time>2020-12-06T10:09:56.946000+00:00</time>
      </trkpt>
      <trkpt lat="0" lon="0">
        <time>2020-12-06T10:09:56.951000+00:00</time>
      </trkpt>
      <trkpt lat="0" lon="0">
        <time>2020-12-06T10:09:56.953000+00:00</time>
      </trkpt>
      <trkpt lat="47.33203" lon="-1.35639">
        <ele>79</ele>
        <time>2020-12-06T10:09:57.988000+00:00</time>
      </trkpt>
      <trkpt lat="0" lon="0">
        <time>2020-12-06T10:09:57.992000+00:00</time>
      </trkpt>
      <trkpt lat="0" lon="0">
        <time>2020-12-06T10:09:58+00:00</time>
      </trkpt>
      <trkpt lat="0" lon="0">
        <time>2020-12-06T10:09:58.007000+00:00</time>
      </trkpt>
      <trkpt lat="47.33195" lon="-1.35642">
        <ele>79</ele>
        <time>2020-12-06T10:09:59.941000+00:00</time>
      </trkpt>
      <trkpt lat="0" lon="0">
        <time>2020-12-06T10:09:59.956000+00:00</time>
      </trkpt>
      <trkpt lat="0" lon="0">
        <time>2020-12-06T10:09:59.963000+00:00</time>
      </trkpt>
      <trkpt lat="0" lon="0">
        <time>2020-12-06T10:09:59.966000+00:00</time>
      </trkpt>
      <trkpt lat="47.33191" lon="-1.35644">
        <ele>79</ele>
        <time>2020-12-06T10:10:00.957000+00:00</time>
      </trkpt>
      <trkpt lat="0" lon="0">
        <time>2020-12-06T10:10:00.963000+00:00</time>
      </trkpt>
      <trkpt lat="0" lon="0">
        <time>2020-12-06T10:10:00.971000+00:00</time>
      </trkpt>
      <trkpt lat="0" lon="0">
        <time>2020-12-06T10:10:00.978000+00:00</time>
      </trkpt>
      <trkpt lat="47.33186" lon="-1.35646">
        <ele>79</ele>
        <time>2020-12-06T10:10:01.972000+00:00</time>
      </trkpt>
      <trkpt lat="0" lon="0">
        <time>2020-12-06T10:10:01.981000+00:00</time>
      </trkpt>
      <trkpt lat="0" lon="0">
        <time>2020-12-06T10:10:01.987000+00:00</time>
      </trkpt>
      <trkpt lat="0" lon="0">
        <time>2020-12-06T10:10:01.989000+00:00</time>
      </trkpt>
      <trkpt lat="47.33181" lon="-1.35649">
        <ele>79</ele>
        <time>2020-12-06T10:10:02.963000+00:00</time>
      </trkpt>
      <trkpt lat="0" lon="0">
        <time>2020-12-06T10:10:02.974000+00:00</time>
      </trkpt>
      <trkpt lat="0" lon="0">
        <time>2020-12-06T10:10:02.978000+00:00</time>
      </trkpt>
      <trkpt lat="0" lon="0">
        <time>2020-12-06T10:10:02.980000+00:00</time>
      </trkpt>
      <trkpt lat="47.33176" lon="-1.35652">
        <ele>79</ele>
        <time>2020-12-06T10:10:03.865000+00:00</time>
      </trkpt>
      <trkpt lat="0" lon="0">
        <time>2020-12-06T10:10:03.868000+00:00</time>
      </trkpt>
      <trkpt lat="0" lon="0">
        <time>2020-12-06T10:10:03.872000+00:00</time>
      </trkpt>
      <trkpt lat="0" lon="0">
        <time>2020-12-06T10:10:03.873000+00:00</time>
      </trkpt>
      <trkpt lat="47.33172" lon="-1.35655">
        <ele>79</ele>
        <time>2020-12-06T10:10:04.966000+00:00</time>
      </trkpt>
      <trkpt lat="0" lon="0">
        <time>2020-12-06T10:10:04.972000+00:00</time>
      </trkpt>
      <trkpt lat="0" lon="0">
        <time>2020-12-06T10:10:04.978000+00:00</time>
      </trkpt>
      <trkpt lat="0" lon="0">
        <time>2020-12-06T10:10:04.980000+00:00</time>
      </trkpt>
      <trkpt lat="47.33167" lon="-1.35659">
        <ele>79</ele>
        <time>2020-12-06T10:10:05.930000+00:00</time>
      </trkpt>
      <trkpt lat="0" lon="0">
        <time>2020-12-06T10:10:05.933000+00:00</time>
      </trkpt>
      <trkpt lat="0" lon="0">
        <time>2020-12-06T10:10:05.936000+00:00</time>
      </trkpt>
      <trkpt lat="0" lon="0">
        <time>2020-12-06T10:10:05.942000+00:00</time>
      </trkpt>
      <trkpt lat="47.33162" lon="-1.35662">
        <ele>79</ele>
        <time>2020-12-06T10:10:06.876000+00:00</time>
      </trkpt>
      <trkpt lat="0" lon="0">
        <time>2020-12-06T10:10:06.881000+00:00</time>
      </trkpt>
      <trkpt lat="0" lon="0">
        <time>2020-12-06T10:10:06.885000+00:00</time>
      </trkpt>
      <trkpt lat="0" lon="0">
        <time>2020-12-06T10:10:06.887000+00:00</time>
      </trkpt>
      <trkpt lat="47.33158" lon="-1.35665">
        <ele>79</ele>
        <time>2020-12-06T10:10:07.911000+00:00</time>
      </trkpt>
      <trkpt lat="0" lon="0">
        <time>2020-12-06T10:10:07.924000+00:00</time>
      </trkpt>
      <trkpt lat="0" lon="0">
        <time>2020-12-06T10:10:07.928000+00:00</time>
      </trkpt>
      <trkpt lat="0" lon="0">
        <time>2020-12-06T10:10:07.930000+00:00</time>
      </trkpt>
      <trkpt lat="47.33154" lon="-1.35667">
        <ele>78</ele>
        <time>2020-12-06T10:10:09.001000+00:00</time>
      </trkpt>
      <trkpt lat="0" lon="0">
        <time>2020-12-06T10:10:09.004000+00:00</time>
      </trkpt>
      <trkpt lat="0" lon="0">
        <time>2020-12-06T10:10:09.008000+00:00</time>
      </trkpt>
      <trkpt lat="0" lon="0">
        <time>2020-12-06T10:10:09.010000+00:00</time>
      </trkpt>
      <trkpt lat="47.3315" lon="-1.3567">
        <ele>78</ele>
        <time>2020-12-06T10:10:09.960000+00:00</time>
      </trkpt>
      <trkpt lat="0" lon="0">
        <time>2020-12-06T10:10:09.969000+00:00</time>
      </trkpt>
      <trkpt lat="0" lon="0">
        <time>2020-12-06T10:10:09.980000+00:00</time>
      </trkpt>
      <trkpt lat="0" lon="0">
        <time>2020-12-06T10:10:09.981000+00:00</time>
      </trkpt>
      <trkpt lat="47.33145" lon="-1.35673">
        <ele>78</ele>
        <time>2020-12-06T10:10:10.878000+00:00</time>
      </trkpt>
      <trkpt lat="0" lon="0">
        <time>2020-12-06T10:10:10.880000+00:00</time>
      </trkpt>
      <trkpt lat="0" lon="0">
        <time>2020-12-06T10:10:10.898000+00:00</time>
      </trkpt>
      <trkpt lat="0" lon="0">
        <time>2020-12-06T10:10:10.901000+00:00</time>
      </trkpt>
      <trkpt lat="47.33141" lon="-1.35675">
        <ele>78</ele>
        <time>2020-12-06T10:10:11.895000+00:00</time>
      </trkpt>
      <trkpt lat="0" lon="0">
        <time>2020-12-06T10:10:11.909000+00:00</time>
      </trkpt>
      <trkpt lat="0" lon="0">
        <time>2020-12-06T10:10:11.912000+00:00</time>
      </trkpt>
      <trkpt lat="0" lon="0">
        <time>2020-12-06T10:10:11.914000+00:00</time>
      </trkpt>
      <trkpt lat="47.33137" lon="-1.35678">
        <ele>78</ele>
        <time>2020-12-06T10:10:12.886000+00:00</time>
      </trkpt>
      <trkpt lat="0" lon="0">
        <time>2020-12-06T10:10:12.894000+00:00</time>
      </trkpt>
      <trkpt lat="0" lon="0">
        <time>2020-12-06T10:10:12.906000+00:00</time>
      </trkpt>
      <trkpt lat="0" lon="0">
        <time>2020-12-06T10:10:12.907000+00:00</time>
      </trkpt>
      <trkpt lat="47.33132" lon="-1.3568">
        <ele>78</ele>
        <time>2020-12-06T10:10:13.953000+00:00</time>
      </trkpt>
      <trkpt lat="0" lon="0">
        <time>2020-12-06T10:10:13.956000+00:00</time>
      </trkpt>
      <trkpt lat="0" lon="0">
        <time>2020-12-06T10:10:13.967000+00:00</time>
      </trkpt>
      <trkpt lat="0" lon="0">
        <time>2020-12-06T10:10:13.970000+00:00</time>
      </trkpt>
      <trkpt lat="47.33128" lon="-1.35682">
        <ele>78</ele>
        <time>2020-12-06T10:10:14.960000+00:00</time>
      </trkpt>
      <trkpt lat="0" lon="0">
        <time>2020-12-06T10:10:14.963000+00:00</time>
      </trkpt>
      <trkpt lat="0" lon="0">
        <time>2020-12-06T10:10:14.972000+00:00</time>
      </trkpt>
      <trkpt lat="0" lon="0">
        <time>2020-12-06T10:10:14.974000+00:00</time>
      </trkpt>
      <trkpt lat="47.33123" lon="-1.35684">
        <ele>78</ele>
        <time>2020-12-06T10:10:15.941000+00:00</time>
      </trkpt>
      <trkpt lat="0" lon="0">
        <time>2020-12-06T10:10:15.944000+00:00</time>
      </trkpt>
      <trkpt lat="0" lon="0">
        <time>2020-12-06T10:10:15.952000+00:00</time>
      </trkpt>
      <trkpt lat="0" lon="0">
        <time>2020-12-06T10:10:15.956000+00:00</time>
      </trkpt>
      <trkpt lat="47.33119" lon="-1.35685">
        <ele>78</ele>
        <time>2020-12-06T10:10:16.934000+00:00</time>
      </trkpt>
      <trkpt lat="0" lon="0">
        <time>2020-12-06T10:10:16.941000+00:00</time>
      </trkpt>
      <trkpt lat="0" lon="0">
        <time>2020-12-06T10:10:16.942000+00:00</time>
      </trkpt>
      <trkpt lat="0" lon="0">
        <time>2020-12-06T10:10:16.944000+00:00</time>
      </trkpt>
      <trkpt lat="47.33115" lon="-1.35687">
        <ele>78</ele>
        <time>2020-12-06T10:10:17.940000+00:00</time>
      </trkpt>
      <trkpt lat="0" lon="0">
        <time>2020-12-06T10:10:17.949000+00:00</time>
      </trkpt>
      <trkpt lat="0" lon="0">
        <time>2020-12-06T10:10:17.953000+00:00</time>
      </trkpt>
      <trkpt lat="0" lon="0">
        <time>2020-12-06T10:10:17.954000+00:00</time>
      </trkpt>
      <trkpt lat="47.33111" lon="-1.35688">
        <ele>78</ele>
        <time>2020-12-06T10:10:18.950000+00:00</time>
      </trkpt>
      <trkpt lat="0" lon="0">
        <time>2020-12-06T10:10:18.960000+00:00</time>
      </trkpt>
      <trkpt lat="0" lon="0">
        <time>2020-12-06T10:10:18.963000+00:00</time>
      </trkpt>
      <trkpt lat="0" lon="0">
        <time>2020-12-06T10:10:18.965000+00:00</time>
      </trkpt>
      <trkpt lat="47.33106" lon="-1.35689">
        <ele>78</ele>
        <time>2020-12-06T10:10:19.914000+00:00</time>
      </trkpt>
      <trkpt lat="0" lon="0">
        <time>2020-12-06T10:10:19.919000+00:00</time>
      </trkpt>
      <trkpt lat="0" lon="0">
        <time>2020-12-06T10:10:19.923000+00:00</time>
      </trkpt>
      <trkpt lat="0" lon="0">
        <time>2020-12-06T10:10:19.934000+00:00</time>
      </trkpt>
      <trkpt lat="47.33101" lon="-1.35691">
        <ele>78</ele>
        <time>2020-12-06T10:10:20.951000+00:00</time>
      </trkpt>
      <trkpt lat="0" lon="0">
        <time>2020-12-06T10:10:20.958000+00:00</time>
      </trkpt>
      <trkpt lat="0" lon="0">
        <time>2020-12-06T10:10:20.967000+00:00</time>
      </trkpt>
      <trkpt lat="0" lon="0">
        <time>2020-12-06T10:10:20.970000+00:00</time>
      </trkpt>
      <trkpt lat="47.33096" lon="-1.35693">
        <ele>78</ele>
        <time>2020-12-06T10:10:21.907000+00:00</time>
      </trkpt>
      <trkpt lat="0" lon="0">
        <time>2020-12-06T10:10:21.916000+00:00</time>
      </trkpt>
      <trkpt lat="0" lon="0">
        <time>2020-12-06T10:10:21.917000+00:00</time>
      </trkpt>
      <trkpt lat="0" lon="0">
        <time>2020-12-06T10:10:21.919000+00:00</time>
      </trkpt>
      <trkpt lat="47.33091" lon="-1.35695">
        <ele>78</ele>
        <time>2020-12-06T10:10:22.938000+00:00</time>
      </trkpt>
      <trkpt lat="0" lon="0">
        <time>2020-12-06T10:10:22.947000+00:00</time>
      </trkpt>
      <trkpt lat="0" lon="0">
        <time>2020-12-06T10:10:22.951000+00:00</time>
      </trkpt>
      <trkpt lat="0" lon="0">
        <time>2020-12-06T10:10:22.953000+00:00</time>
      </trkpt>
      <trkpt lat="47.33086" lon="-1.35697">
        <ele>78</ele>
        <time>2020-12-06T10:10:23.949000+00:00</time>
      </trkpt>
      <trkpt lat="0" lon="0">
        <time>2020-12-06T10:10:23.955000+00:00</time>
      </trkpt>
      <trkpt lat="0" lon="0">
        <time>2020-12-06T10:10:23.959000+00:00</time>
      </trkpt>
      <trkpt lat="0" lon="0">
        <time>2020-12-06T10:10:23.962000+00:00</time>
      </trkpt>
      <trkpt lat="47.3308" lon="-1.35698">
        <ele>78</ele>
        <time>2020-12-06T10:10:24.921000+00:00</time>
      </trkpt>
      <trkpt lat="0" lon="0">
        <time>2020-12-06T10:10:24.936000+00:00</time>
      </trkpt>
      <trkpt lat="0" lon="0">
        <time>2020-12-06T10:10:24.938000+00:00</time>
      </trkpt>
      <trkpt lat="47.33075" lon="-1.357">
        <ele>78</ele>
        <time>2020-12-06T10:10:25.964000+00:00</time>
      </trkpt>
      <trkpt lat="0" lon="0">
        <time>2020-12-06T10:10:25.978000+00:00</time>
      </trkpt>
      <trkpt lat="0" lon="0">
        <time>2020-12-06T10:10:25.983000+00:00</time>
      </trkpt>
      <trkpt lat="0" lon="0">
        <time>2020-12-06T10:10:25.984000+00:00</time>
      </trkpt>
      <trkpt lat="47.33069" lon="-1.35701">
        <ele>78</ele>
        <time>2020-12-06T10:10:26.915000+00:00</time>
      </trkpt>
      <trkpt lat="0" lon="0">
        <time>2020-12-06T10:10:26.929000+00:00</time>
      </trkpt>
      <trkpt lat="0" lon="0">
        <time>2020-12-06T10:10:26.933000+00:00</time>
      </trkpt>
      <trkpt lat="0" lon="0">
        <time>2020-12-06T10:10:26.935000+00:00</time>
      </trkpt>
      <trkpt lat="47.33064" lon="-1.35703">
        <ele>78</ele>
        <time>2020-12-06T10:10:27.967000+00:00</time>
      </trkpt>
      <trkpt lat="0" lon="0">
        <time>2020-12-06T10:10:27.973000+00:00</time>
      </trkpt>
      <trkpt lat="0" lon="0">
        <time>2020-12-06T10:10:27.984000+00:00</time>
      </trkpt>
      <trkpt lat="0" lon="0">
        <time>2020-12-06T10:10:27.987000+00:00</time>
      </trkpt>
      <trkpt lat="47.33059" lon="-1.35704">
        <ele>78</ele>
        <time>2020-12-06T10:10:28.956000+00:00</time>
      </trkpt>
      <trkpt lat="0" lon="0">
        <time>2020-12-06T10:10:28.965000+00:00</time>
      </trkpt>
      <trkpt lat="0" lon="0">
        <time>2020-12-06T10:10:28.971000+00:00</time>
      </trkpt>
      <trkpt lat="0" lon="0">
        <time>2020-12-06T10:10:28.973000+00:00</time>
      </trkpt>
      <trkpt lat="47.33053" lon="-1.35705">
        <ele>78</ele>
        <time>2020-12-06T10:10:29.923000+00:00</time>
      </trkpt>
      <trkpt lat="0" lon="0">
        <time>2020-12-06T10:10:29.938000+00:00</time>
      </trkpt>
      <trkpt lat="0" lon="0">
        <time>2020-12-06T10:10:29.942000+00:00</time>
      </trkpt>
      <trkpt lat="0" lon="0">
        <time>2020-12-06T10:10:29.947000+00:00</time>
      </trkpt>
      <trkpt lat="47.33048" lon="-1.35705">
        <ele>78</ele>
        <time>2020-12-06T10:10:30.939000+00:00</time>
      </trkpt>
      <trkpt lat="0" lon="0">
        <time>2020-12-06T10:10:30.959000+00:00</time>
      </trkpt>
      <trkpt lat="0" lon="0">
        <time>2020-12-06T10:10:30.967000+00:00</time>
      </trkpt>
      <trkpt lat="0" lon="0">
        <time>2020-12-06T10:10:30.968000+00:00</time>
      </trkpt>
      <trkpt lat="47.33043" lon="-1.35706">
        <ele>79</ele>
        <time>2020-12-06T10:10:31.883000+00:00</time>
      </trkpt>
      <trkpt lat="0" lon="0">
        <time>2020-12-06T10:10:31.895000+00:00</time>
      </trkpt>
      <trkpt lat="0" lon="0">
        <time>2020-12-06T10:10:31.901000+00:00</time>
      </trkpt>
      <trkpt lat="0" lon="0">
        <time>2020-12-06T10:10:31.903000+00:00</time>
      </trkpt>
      <trkpt lat="47.33037" lon="-1.35706">
        <ele>79</ele>
        <time>2020-12-06T10:10:32.937000+00:00</time>
      </trkpt>
      <trkpt lat="0" lon="0">
        <time>2020-12-06T10:10:32.956000+00:00</time>
      </trkpt>
      <trkpt lat="0" lon="0">
        <time>2020-12-06T10:10:32.960000+00:00</time>
      </trkpt>
      <trkpt lat="0" lon="0">
        <time>2020-12-06T10:10:32.962000+00:00</time>
      </trkpt>
      <trkpt lat="47.33032" lon="-1.35707">
        <ele>79</ele>
        <time>2020-12-06T10:10:33.943000+00:00</time>
      </trkpt>
      <trkpt lat="0" lon="0">
        <time>2020-12-06T10:10:33.958000+00:00</time>
      </trkpt>
      <trkpt lat="0" lon="0">
        <time>2020-12-06T10:10:33.963000+00:00</time>
      </trkpt>
      <trkpt lat="0" lon="0">
        <time>2020-12-06T10:10:33.966000+00:00</time>
      </trkpt>
      <trkpt lat="47.33027" lon="-1.35707">
        <ele>79</ele>
        <time>2020-12-06T10:10:34.966000+00:00</time>
      </trkpt>
      <trkpt lat="0" lon="0">
        <time>2020-12-06T10:10:34.978000+00:00</time>
      </trkpt>
      <trkpt lat="0" lon="0">
        <time>2020-12-06T10:10:34.983000+00:00</time>
      </trkpt>
      <trkpt lat="0" lon="0">
        <time>2020-12-06T10:10:34.987000+00:00</time>
      </trkpt>
      <trkpt lat="47.33022" lon="-1.35707">
        <ele>79</ele>
        <time>2020-12-06T10:10:35.938000+00:00</time>
      </trkpt>
      <trkpt lat="0" lon="0">
        <time>2020-12-06T10:10:35.944000+00:00</time>
      </trkpt>
      <trkpt lat="0" lon="0">
        <time>2020-12-06T10:10:35.948000+00:00</time>
      </trkpt>
      <trkpt lat="0" lon="0">
        <time>2020-12-06T10:10:35.951000+00:00</time>
      </trkpt>
      <trkpt lat="47.33017" lon="-1.35708">
        <ele>79</ele>
        <time>2020-12-06T10:10:36.973000+00:00</time>
      </trkpt>
      <trkpt lat="0" lon="0">
        <time>2020-12-06T10:10:36.987000+00:00</time>
      </trkpt>
      <trkpt lat="0" lon="0">
        <time>2020-12-06T10:10:36.996000+00:00</time>
      </trkpt>
      <trkpt lat="0" lon="0">
        <time>2020-12-06T10:10:37.003000+00:00</time>
      </trkpt>
      <trkpt lat="47.33012" lon="-1.3571">
        <ele>79</ele>
        <time>2020-12-06T10:10:37.971000+00:00</time>
      </trkpt>
      <trkpt lat="0" lon="0">
        <time>2020-12-06T10:10:37.980000+00:00</time>
      </trkpt>
      <trkpt lat="0" lon="0">
        <time>2020-12-06T10:10:37.985000+00:00</time>
      </trkpt>
      <trkpt lat="0" lon="0">
        <time>2020-12-06T10:10:37.988000+00:00</time>
      </trkpt>
      <trkpt lat="47.33008" lon="-1.35712">
        <ele>79</ele>
        <time>2020-12-06T10:10:38.949000+00:00</time>
      </trkpt>
      <trkpt lat="0" lon="0">
        <time>2020-12-06T10:10:38.961000+00:00</time>
      </trkpt>
      <trkpt lat="0" lon="0">
        <time>2020-12-06T10:10:38.965000+00:00</time>
      </trkpt>
      <trkpt lat="0" lon="0">
        <time>2020-12-06T10:10:38.967000+00:00</time>
      </trkpt>
      <trkpt lat="47.33004" lon="-1.35714">
        <ele>79</ele>
        <time>2020-12-06T10:10:39.932000+00:00</time>
      </trkpt>
      <trkpt lat="0" lon="0">
        <time>2020-12-06T10:10:39.939000+00:00</time>
      </trkpt>
      <trkpt lat="0" lon="0">
        <time>2020-12-06T10:10:39.941000+00:00</time>
      </trkpt>
      <trkpt lat="0" lon="0">
        <time>2020-12-06T10:10:39.942000+00:00</time>
      </trkpt>
      <trkpt lat="47.32999" lon="-1.35718">
        <ele>79</ele>
        <time>2020-12-06T10:10:40.884000+00:00</time>
      </trkpt>
      <trkpt lat="0" lon="0">
        <time>2020-12-06T10:10:40.887000+00:00</time>
      </trkpt>
      <trkpt lat="0" lon="0">
        <time>2020-12-06T10:10:40.890000+00:00</time>
      </trkpt>
      <trkpt lat="0" lon="0">
        <time>2020-12-06T10:10:40.891000+00:00</time>
      </trkpt>
      <trkpt lat="47.32996" lon="-1.35722">
        <ele>79</ele>
        <time>2020-12-06T10:10:41.946000+00:00</time>
      </trkpt>
      <trkpt lat="0" lon="0">
        <time>2020-12-06T10:10:41.952000+00:00</time>
      </trkpt>
      <trkpt lat="0" lon="0">
        <time>2020-12-06T10:10:41.960000+00:00</time>
      </trkpt>
      <trkpt lat="0" lon="0">
        <time>2020-12-06T10:10:41.962000+00:00</time>
      </trkpt>
      <trkpt lat="47.32992" lon="-1.35728">
        <ele>79</ele>
        <time>2020-12-06T10:10:42.904000+00:00</time>
      </trkpt>
      <trkpt lat="0" lon="0">
        <time>2020-12-06T10:10:42.911000+00:00</time>
      </trkpt>
      <trkpt lat="0" lon="0">
        <time>2020-12-06T10:10:42.915000+00:00</time>
      </trkpt>
      <trkpt lat="0" lon="0">
        <time>2020-12-06T10:10:42.917000+00:00</time>
      </trkpt>
      <trkpt lat="47.3299" lon="-1.35735">
        <ele>79</ele>
        <time>2020-12-06T10:10:43.892000+00:00</time>
      </trkpt>
      <trkpt lat="0" lon="0">
        <time>2020-12-06T10:10:43.895000+00:00</time>
      </trkpt>
      <trkpt lat="0" lon="0">
        <time>2020-12-06T10:10:43.906000+00:00</time>
      </trkpt>
      <trkpt lat="0" lon="0">
        <time>2020-12-06T10:10:43.918000+00:00</time>
      </trkpt>
      <trkpt lat="47.32988" lon="-1.35742">
        <ele>79</ele>
        <time>2020-12-06T10:10:44.924000+00:00</time>
      </trkpt>
      <trkpt lat="0" lon="0">
        <time>2020-12-06T10:10:44.942000+00:00</time>
      </trkpt>
      <trkpt lat="0" lon="0">
        <time>2020-12-06T10:10:44.948000+00:00</time>
      </trkpt>
      <trkpt lat="0" lon="0">
        <time>2020-12-06T10:10:44.952000+00:00</time>
      </trkpt>
      <trkpt lat="47.32987" lon="-1.35748">
        <ele>79</ele>
        <time>2020-12-06T10:10:45.895000+00:00</time>
      </trkpt>
      <trkpt lat="0" lon="0">
        <time>2020-12-06T10:10:45.904000+00:00</time>
      </trkpt>
      <trkpt lat="0" lon="0">
        <time>2020-12-06T10:10:45.905000+00:00</time>
      </trkpt>
      <trkpt lat="0" lon="0">
        <time>2020-12-06T10:10:45.906000+00:00</time>
      </trkpt>
      <trkpt lat="47.32985" lon="-1.35753">
        <ele>78</ele>
        <time>2020-12-06T10:10:46.897000+00:00</time>
      </trkpt>
      <trkpt lat="0" lon="0">
        <time>2020-12-06T10:10:46.917000+00:00</time>
      </trkpt>
      <trkpt lat="0" lon="0">
        <time>2020-12-06T10:10:46.920000+00:00</time>
      </trkpt>
      <trkpt lat="0" lon="0">
        <time>2020-12-06T10:10:46.921000+00:00</time>
      </trkpt>
      <trkpt lat="47.32984" lon="-1.35757">
        <ele>78</ele>
        <time>2020-12-06T10:10:47.936000+00:00</time>
      </trkpt>
      <trkpt lat="0" lon="0">
        <time>2020-12-06T10:10:47.951000+00:00</time>
      </trkpt>
      <trkpt lat="0" lon="0">
        <time>2020-12-06T10:10:47.958000+00:00</time>
      </trkpt>
      <trkpt lat="0" lon="0">
        <time>2020-12-06T10:10:47.963000+00:00</time>
      </trkpt>
      <trkpt lat="47.32984" lon="-1.35759">
        <ele>78</ele>
        <time>2020-12-06T10:10:48.901000+00:00</time>
      </trkpt>
      <trkpt lat="0" lon="0">
        <time>2020-12-06T10:10:48.904000+00:00</time>
      </trkpt>
      <trkpt lat="0" lon="0">
        <time>2020-12-06T10:10:48.908000+00:00</time>
      </trkpt>
      <trkpt lat="0" lon="0">
        <time>2020-12-06T10:10:48.913000+00:00</time>
      </trkpt>
      <trkpt lat="47.32983" lon="-1.35759">
        <ele>78</ele>
        <time>2020-12-06T10:10:49.903000+00:00</time>
      </trkpt>
      <trkpt lat="0" lon="0">
        <time>2020-12-06T10:10:49.908000+00:00</time>
      </trkpt>
      <trkpt lat="0" lon="0">
        <time>2020-12-06T10:10:49.912000+00:00</time>
      </trkpt>
      <trkpt lat="0" lon="0">
        <time>2020-12-06T10:10:49.920000+00:00</time>
      </trkpt>
      <trkpt lat="47.32984" lon="-1.35758">
        <ele>78</ele>
        <time>2020-12-06T10:10:50.918000+00:00</time>
      </trkpt>
      <trkpt lat="0" lon="0">
        <time>2020-12-06T10:10:50.923000+00:00</time>
      </trkpt>
      <trkpt lat="0" lon="0">
        <time>2020-12-06T10:10:50.928000+00:00</time>
      </trkpt>
      <trkpt lat="0" lon="0">
        <time>2020-12-06T10:10:50.930000+00:00</time>
      </trkpt>
      <trkpt lat="47.32985" lon="-1.35757">
        <ele>78</ele>
        <time>2020-12-06T10:10:51.922000+00:00</time>
      </trkpt>
      <trkpt lat="0" lon="0">
        <time>2020-12-06T10:10:51.928000+00:00</time>
      </trkpt>
      <trkpt lat="0" lon="0">
        <time>2020-12-06T10:10:51.930000+00:00</time>
      </trkpt>
      <trkpt lat="0" lon="0">
        <time>2020-12-06T10:10:51.931000+00:00</time>
      </trkpt>
      <trkpt lat="47.32986" lon="-1.35756">
        <ele>78</ele>
        <time>2020-12-06T10:10:52.926000+00:00</time>
      </trkpt>
      <trkpt lat="0" lon="0">
        <time>2020-12-06T10:10:52.931000+00:00</time>
      </trkpt>
      <trkpt lat="0" lon="0">
        <time>2020-12-06T10:10:52.935000+00:00</time>
      </trkpt>
      <trkpt lat="0" lon="0">
        <time>2020-12-06T10:10:52.937000+00:00</time>
      </trkpt>
      <trkpt lat="47.32988" lon="-1.35756">
        <ele>78</ele>
        <time>2020-12-06T10:10:53.905000+00:00</time>
      </trkpt>
      <trkpt lat="0" lon="0">
        <time>2020-12-06T10:10:53.915000+00:00</time>
      </trkpt>
      <trkpt lat="0" lon="0">
        <time>2020-12-06T10:10:53.920000+00:00</time>
      </trkpt>
      <trkpt lat="0" lon="0">
        <time>2020-12-06T10:10:53.929000+00:00</time>
      </trkpt>
      <trkpt lat="47.32989" lon="-1.35755">
        <ele>78</ele>
        <time>2020-12-06T10:10:54.907000+00:00</time>
      </trkpt>
      <trkpt lat="0" lon="0">
        <time>2020-12-06T10:10:54.918000+00:00</time>
      </trkpt>
      <trkpt lat="0" lon="0">
        <time>2020-12-06T10:10:54.926000+00:00</time>
      </trkpt>
      <trkpt lat="0" lon="0">
        <time>2020-12-06T10:10:54.930000+00:00</time>
      </trkpt>
      <trkpt lat="47.32991" lon="-1.35754">
        <ele>78</ele>
        <time>2020-12-06T10:10:55.915000+00:00</time>
      </trkpt>
      <trkpt lat="0" lon="0">
        <time>2020-12-06T10:10:55.919000+00:00</time>
      </trkpt>
      <trkpt lat="0" lon="0">
        <time>2020-12-06T10:10:55.925000+00:00</time>
      </trkpt>
      <trkpt lat="0" lon="0">
        <time>2020-12-06T10:10:55.928000+00:00</time>
      </trkpt>
      <trkpt lat="47.32992" lon="-1.35753">
        <ele>78</ele>
        <time>2020-12-06T10:10:56.927000+00:00</time>
      </trkpt>
      <trkpt lat="0" lon="0">
        <time>2020-12-06T10:10:56.930000+00:00</time>
      </trkpt>
      <trkpt lat="0" lon="0">
        <time>2020-12-06T10:10:56.939000+00:00</time>
      </trkpt>
      <trkpt lat="0" lon="0">
        <time>2020-12-06T10:10:56.941000+00:00</time>
      </trkpt>
      <trkpt lat="47.32993" lon="-1.35753">
        <ele>78</ele>
        <time>2020-12-06T10:10:57.897000+00:00</time>
      </trkpt>
      <trkpt lat="0" lon="0">
        <time>2020-12-06T10:10:57.902000+00:00</time>
      </trkpt>
      <trkpt lat="0" lon="0">
        <time>2020-12-06T10:10:57.904000+00:00</time>
      </trkpt>
      <trkpt lat="0" lon="0">
        <time>2020-12-06T10:10:57.920000+00:00</time>
      </trkpt>
      <trkpt lat="47.32991" lon="-1.35789">
        <ele>78</ele>
        <time>2020-12-06T10:10:58.852000+00:00</time>
      </trkpt>
      <trkpt lat="0" lon="0">
        <time>2020-12-06T10:10:58.853000+00:00</time>
      </trkpt>
      <trkpt lat="0" lon="0">
        <time>2020-12-06T10:10:58.854000+00:00</time>
      </trkpt>
      <trkpt lat="0" lon="0">
        <time>2020-12-06T10:10:58.855000+00:00</time>
      </trkpt>
      <trkpt lat="47.3299" lon="-1.35797">
        <ele>78</ele>
        <time>2020-12-06T10:10:59.893000+00:00</time>
      </trkpt>
      <trkpt lat="0" lon="0">
        <time>2020-12-06T10:10:59.896000+00:00</time>
      </trkpt>
      <trkpt lat="0" lon="0">
        <time>2020-12-06T10:10:59.912000+00:00</time>
      </trkpt>
      <trkpt lat="0" lon="0">
        <time>2020-12-06T10:10:59.918000+00:00</time>
      </trkpt>
      <trkpt lat="47.32989" lon="-1.35805">
        <ele>78</ele>
        <time>2020-12-06T10:11:00.921000+00:00</time>
      </trkpt>
      <trkpt lat="0" lon="0">
        <time>2020-12-06T10:11:00.929000+00:00</time>
      </trkpt>
      <trkpt lat="0" lon="0">
        <time>2020-12-06T10:11:00.944000+00:00</time>
      </trkpt>
      <trkpt lat="0" lon="0">
        <time>2020-12-06T10:11:00.947000+00:00</time>
      </trkpt>
      <trkpt lat="47.32988" lon="-1.35814">
        <ele>78</ele>
        <time>2020-12-06T10:11:01.821000+00:00</time>
      </trkpt>
      <trkpt lat="0" lon="0">
        <time>2020-12-06T10:11:01.829000+00:00</time>
      </trkpt>
      <trkpt lat="0" lon="0">
        <time>2020-12-06T10:11:01.837000+00:00</time>
      </trkpt>
      <trkpt lat="0" lon="0">
        <time>2020-12-06T10:11:01.841000+00:00</time>
      </trkpt>
      <trkpt lat="47.32986" lon="-1.35823">
        <ele>77</ele>
        <time>2020-12-06T10:11:02.904000+00:00</time>
      </trkpt>
      <trkpt lat="0" lon="0">
        <time>2020-12-06T10:11:02.911000+00:00</time>
      </trkpt>
      <trkpt lat="0" lon="0">
        <time>2020-12-06T10:11:02.914000+00:00</time>
      </trkpt>
      <trkpt lat="0" lon="0">
        <time>2020-12-06T10:11:02.916000+00:00</time>
      </trkpt>
      <trkpt lat="47.32985" lon="-1.35832">
        <ele>77</ele>
        <time>2020-12-06T10:11:03.820000+00:00</time>
      </trkpt>
      <trkpt lat="0" lon="0">
        <time>2020-12-06T10:11:03.829000+00:00</time>
      </trkpt>
      <trkpt lat="0" lon="0">
        <time>2020-12-06T10:11:03.834000+00:00</time>
      </trkpt>
      <trkpt lat="0" lon="0">
        <time>2020-12-06T10:11:03.836000+00:00</time>
      </trkpt>
      <trkpt lat="47.32984" lon="-1.35841">
        <ele>77</ele>
        <time>2020-12-06T10:11:04.858000+00:00</time>
      </trkpt>
      <trkpt lat="0" lon="0">
        <time>2020-12-06T10:11:04.866000+00:00</time>
      </trkpt>
      <trkpt lat="0" lon="0">
        <time>2020-12-06T10:11:04.871000+00:00</time>
      </trkpt>
      <trkpt lat="0" lon="0">
        <time>2020-12-06T10:11:04.873000+00:00</time>
      </trkpt>
      <trkpt lat="47.32983" lon="-1.3585">
        <ele>77</ele>
        <time>2020-12-06T10:11:05.834000+00:00</time>
      </trkpt>
      <trkpt lat="0" lon="0">
        <time>2020-12-06T10:11:05.847000+00:00</time>
      </trkpt>
      <trkpt lat="0" lon="0">
        <time>2020-12-06T10:11:05.854000+00:00</time>
      </trkpt>
      <trkpt lat="0" lon="0">
        <time>2020-12-06T10:11:05.856000+00:00</time>
      </trkpt>
      <trkpt lat="47.32982" lon="-1.3586">
        <ele>77</ele>
        <time>2020-12-06T10:11:06.823000+00:00</time>
      </trkpt>
      <trkpt lat="0" lon="0">
        <time>2020-12-06T10:11:06.835000+00:00</time>
      </trkpt>
      <trkpt lat="0" lon="0">
        <time>2020-12-06T10:11:06.840000+00:00</time>
      </trkpt>
      <trkpt lat="0" lon="0">
        <time>2020-12-06T10:11:06.841000+00:00</time>
      </trkpt>
      <trkpt lat="47.32982" lon="-1.3587">
        <ele>76</ele>
        <time>2020-12-06T10:11:07.828000+00:00</time>
      </trkpt>
      <trkpt lat="0" lon="0">
        <time>2020-12-06T10:11:07.838000+00:00</time>
      </trkpt>
      <trkpt lat="0" lon="0">
        <time>2020-12-06T10:11:07.842000+00:00</time>
      </trkpt>
      <trkpt lat="0" lon="0">
        <time>2020-12-06T10:11:07.844000+00:00</time>
      </trkpt>
      <trkpt lat="47.32982" lon="-1.35881">
        <ele>76</ele>
        <time>2020-12-06T10:11:08.819000+00:00</time>
      </trkpt>
      <trkpt lat="0" lon="0">
        <time>2020-12-06T10:11:08.831000+00:00</time>
      </trkpt>
      <trkpt lat="0" lon="0">
        <time>2020-12-06T10:11:08.835000+00:00</time>
      </trkpt>
      <trkpt lat="0" lon="0">
        <time>2020-12-06T10:11:08.837000+00:00</time>
      </trkpt>
      <trkpt lat="47.32982" lon="-1.35891">
        <ele>76</ele>
        <time>2020-12-06T10:11:09.894000+00:00</time>
      </trkpt>
      <trkpt lat="0" lon="0">
        <time>2020-12-06T10:11:09.899000+00:00</time>
      </trkpt>
      <trkpt lat="0" lon="0">
        <time>2020-12-06T10:11:09.910000+00:00</time>
      </trkpt>
      <trkpt lat="0" lon="0">
        <time>2020-12-06T10:11:09.913000+00:00</time>
      </trkpt>
      <trkpt lat="47.32984" lon="-1.35901">
        <ele>76</ele>
        <time>2020-12-06T10:11:10.908000+00:00</time>
      </trkpt>
      <trkpt lat="0" lon="0">
        <time>2020-12-06T10:11:10.916000+00:00</time>
      </trkpt>
      <trkpt lat="0" lon="0">
        <time>2020-12-06T10:11:10.929000+00:00</time>
      </trkpt>
      <trkpt lat="0" lon="0">
        <time>2020-12-06T10:11:10.930000+00:00</time>
      </trkpt>
      <trkpt lat="47.32986" lon="-1.35911">
        <ele>75</ele>
        <time>2020-12-06T10:11:11.925000+00:00</time>
      </trkpt>
      <trkpt lat="0" lon="0">
        <time>2020-12-06T10:11:11.933000+00:00</time>
      </trkpt>
      <trkpt lat="0" lon="0">
        <time>2020-12-06T10:11:11.946000+00:00</time>
      </trkpt>
      <trkpt lat="0" lon="0">
        <time>2020-12-06T10:11:11.948000+00:00</time>
      </trkpt>
      <trkpt lat="47.32988" lon="-1.35921">
        <ele>75</ele>
        <time>2020-12-06T10:11:12.866000+00:00</time>
      </trkpt>
      <trkpt lat="0" lon="0">
        <time>2020-12-06T10:11:12.877000+00:00</time>
      </trkpt>
      <trkpt lat="0" lon="0">
        <time>2020-12-06T10:11:12.886000+00:00</time>
      </trkpt>
      <trkpt lat="0" lon="0">
        <time>2020-12-06T10:11:12.888000+00:00</time>
      </trkpt>
      <trkpt lat="47.32992" lon="-1.35931">
        <ele>75</ele>
        <time>2020-12-06T10:11:13.844000+00:00</time>
      </trkpt>
      <trkpt lat="0" lon="0">
        <time>2020-12-06T10:11:13.846000+00:00</time>
      </trkpt>
      <trkpt lat="0" lon="0">
        <time>2020-12-06T10:11:13.847000+00:00</time>
      </trkpt>
      <trkpt lat="0" lon="0">
        <time>2020-12-06T10:11:13.848000+00:00</time>
      </trkpt>
      <trkpt lat="47.32995" lon="-1.35941">
        <ele>75</ele>
        <time>2020-12-06T10:11:14.869000+00:00</time>
      </trkpt>
      <trkpt lat="0" lon="0">
        <time>2020-12-06T10:11:14.876000+00:00</time>
      </trkpt>
      <trkpt lat="0" lon="0">
        <time>2020-12-06T10:11:14.879000+00:00</time>
      </trkpt>
      <trkpt lat="0" lon="0">
        <time>2020-12-06T10:11:14.882000+00:00</time>
      </trkpt>
      <trkpt lat="47.32999" lon="-1.3595">
        <ele>74</ele>
        <time>2020-12-06T10:11:15.808000+00:00</time>
      </trkpt>
      <trkpt lat="0" lon="0">
        <time>2020-12-06T10:11:15.811000+00:00</time>
      </trkpt>
      <trkpt lat="0" lon="0">
        <time>2020-12-06T10:11:15.821000+00:00</time>
      </trkpt>
      <trkpt lat="0" lon="0">
        <time>2020-12-06T10:11:15.827000+00:00</time>
      </trkpt>
      <trkpt lat="47.33003" lon="-1.3596">
        <ele>74</ele>
        <time>2020-12-06T10:11:16.873000+00:00</time>
      </trkpt>
      <trkpt lat="0" lon="0">
        <time>2020-12-06T10:11:16.881000+00:00</time>
      </trkpt>
      <trkpt lat="0" lon="0">
        <time>2020-12-06T10:11:16.892000+00:00</time>
      </trkpt>
      <trkpt lat="0" lon="0">
        <time>2020-12-06T10:11:16.895000+00:00</time>
      </trkpt>
      <trkpt lat="47.33008" lon="-1.35969">
        <ele>74</ele>
        <time>2020-12-06T10:11:17.857000+00:00</time>
      </trkpt>
      <trkpt lat="0" lon="0">
        <time>2020-12-06T10:11:17.860000+00:00</time>
      </trkpt>
      <trkpt lat="0" lon="0">
        <time>2020-12-06T10:11:17.861000+00:00</time>
      </trkpt>
      <trkpt lat="0" lon="0">
        <time>2020-12-06T10:11:17.867000+00:00</time>
      </trkpt>
      <trkpt lat="47.33012" lon="-1.35979">
        <ele>73</ele>
        <time>2020-12-06T10:11:18.884000+00:00</time>
      </trkpt>
      <trkpt lat="0" lon="0">
        <time>2020-12-06T10:11:18.905000+00:00</time>
      </trkpt>
      <trkpt lat="0" lon="0">
        <time>2020-12-06T10:11:18.911000+00:00</time>
      </trkpt>
      <trkpt lat="0" lon="0">
        <time>2020-12-06T10:11:18.916000+00:00</time>
      </trkpt>
      <trkpt lat="47.33017" lon="-1.35989">
        <ele>73</ele>
        <time>2020-12-06T10:11:19.867000+00:00</time>
      </trkpt>
      <trkpt lat="0" lon="0">
        <time>2020-12-06T10:11:19.877000+00:00</time>
      </trkpt>
      <trkpt lat="0" lon="0">
        <time>2020-12-06T10:11:19.883000+00:00</time>
      </trkpt>
      <trkpt lat="0" lon="0">
        <time>2020-12-06T10:11:19.886000+00:00</time>
      </trkpt>
      <trkpt lat="47.33022" lon="-1.35999">
        <ele>72</ele>
        <time>2020-12-06T10:11:20.873000+00:00</time>
      </trkpt>
      <trkpt lat="0" lon="0">
        <time>2020-12-06T10:11:20.875000+00:00</time>
      </trkpt>
      <trkpt lat="0" lon="0">
        <time>2020-12-06T10:11:20.877000+00:00</time>
      </trkpt>
      <trkpt lat="0" lon="0">
        <time>2020-12-06T10:11:20.878000+00:00</time>
      </trkpt>
      <trkpt lat="47.33027" lon="-1.36009">
        <ele>72</ele>
        <time>2020-12-06T10:11:21.862000+00:00</time>
      </trkpt>
      <trkpt lat="0" lon="0">
        <time>2020-12-06T10:11:21.887000+00:00</time>
      </trkpt>
      <trkpt lat="0" lon="0">
        <time>2020-12-06T10:11:21.892000+00:00</time>
      </trkpt>
      <trkpt lat="0" lon="0">
        <time>2020-12-06T10:11:21.894000+00:00</time>
      </trkpt>
      <trkpt lat="47.33032" lon="-1.36019">
        <ele>71</ele>
        <time>2020-12-06T10:11:22.873000+00:00</time>
      </trkpt>
      <trkpt lat="0" lon="0">
        <time>2020-12-06T10:11:22.883000+00:00</time>
      </trkpt>
      <trkpt lat="0" lon="0">
        <time>2020-12-06T10:11:22.894000+00:00</time>
      </trkpt>
      <trkpt lat="0" lon="0">
        <time>2020-12-06T10:11:22.896000+00:00</time>
      </trkpt>
      <trkpt lat="47.33037" lon="-1.3603">
        <ele>71</ele>
        <time>2020-12-06T10:11:23.889000+00:00</time>
      </trkpt>
      <trkpt lat="0" lon="0">
        <time>2020-12-06T10:11:23.896000+00:00</time>
      </trkpt>
      <trkpt lat="0" lon="0">
        <time>2020-12-06T10:11:23.901000+00:00</time>
      </trkpt>
      <trkpt lat="0" lon="0">
        <time>2020-12-06T10:11:23.903000+00:00</time>
      </trkpt>
      <trkpt lat="47.33042" lon="-1.36041">
        <ele>71</ele>
        <time>2020-12-06T10:11:24.885000+00:00</time>
      </trkpt>
      <trkpt lat="0" lon="0">
        <time>2020-12-06T10:11:24.897000+00:00</time>
      </trkpt>
      <trkpt lat="0" lon="0">
        <time>2020-12-06T10:11:24.904000+00:00</time>
      </trkpt>
      <trkpt lat="0" lon="0">
        <time>2020-12-06T10:11:24.907000+00:00</time>
      </trkpt>
      <trkpt lat="47.33047" lon="-1.36052">
        <ele>70</ele>
        <time>2020-12-06T10:11:25.866000+00:00</time>
      </trkpt>
      <trkpt lat="0" lon="0">
        <time>2020-12-06T10:11:25.871000+00:00</time>
      </trkpt>
      <trkpt lat="0" lon="0">
        <time>2020-12-06T10:11:25.881000+00:00</time>
      </trkpt>
      <trkpt lat="0" lon="0">
        <time>2020-12-06T10:11:25.883000+00:00</time>
      </trkpt>
      <trkpt lat="47.33052" lon="-1.36064">
        <ele>70</ele>
        <time>2020-12-06T10:11:26.879000+00:00</time>
      </trkpt>
      <trkpt lat="0" lon="0">
        <time>2020-12-06T10:11:26.895000+00:00</time>
      </trkpt>
      <trkpt lat="0" lon="0">
        <time>2020-12-06T10:11:26.900000+00:00</time>
      </trkpt>
      <trkpt lat="0" lon="0">
        <time>2020-12-06T10:11:26.905000+00:00</time>
      </trkpt>
      <trkpt lat="47.33056" lon="-1.36076">
        <ele>69</ele>
        <time>2020-12-06T10:11:27.860000+00:00</time>
      </trkpt>
      <trkpt lat="0" lon="0">
        <time>2020-12-06T10:11:27.864000+00:00</time>
      </trkpt>
      <trkpt lat="0" lon="0">
        <time>2020-12-06T10:11:27.867000+00:00</time>
      </trkpt>
      <trkpt lat="0" lon="0">
        <time>2020-12-06T10:11:27.869000+00:00</time>
      </trkpt>
      <trkpt lat="47.33061" lon="-1.36088">
        <ele>68</ele>
        <time>2020-12-06T10:11:28.818000+00:00</time>
      </trkpt>
      <trkpt lat="0" lon="0">
        <time>2020-12-06T10:11:28.822000+00:00</time>
      </trkpt>
      <trkpt lat="0" lon="0">
        <time>2020-12-06T10:11:28.831000+00:00</time>
      </trkpt>
      <trkpt lat="0" lon="0">
        <time>2020-12-06T10:11:28.832000+00:00</time>
      </trkpt>
      <trkpt lat="47.33066" lon="-1.361">
        <ele>68</ele>
        <time>2020-12-06T10:11:29.872000+00:00</time>
      </trkpt>
      <trkpt lat="0" lon="0">
        <time>2020-12-06T10:11:29.890000+00:00</time>
      </trkpt>
      <trkpt lat="0" lon="0">
        <time>2020-12-06T10:11:29.894000+00:00</time>
      </trkpt>
      <trkpt lat="0" lon="0">
        <time>2020-12-06T10:11:29.897000+00:00</time>
      </trkpt>
      <trkpt lat="47.33071" lon="-1.36113">
        <ele>67</ele>
        <time>2020-12-06T10:11:30.866000+00:00</time>
      </trkpt>
      <trkpt lat="0" lon="0">
        <time>2020-12-06T10:11:30.886000+00:00</time>
      </trkpt>
      <trkpt lat="0" lon="0">
        <time>2020-12-06T10:11:30.893000+00:00</time>
      </trkpt>
      <trkpt lat="0" lon="0">
        <time>2020-12-06T10:11:30.895000+00:00</time>
      </trkpt>
      <trkpt lat="47.33076" lon="-1.36126">
        <ele>66</ele>
        <time>2020-12-06T10:11:31.916000+00:00</time>
      </trkpt>
      <trkpt lat="0" lon="0">
        <time>2020-12-06T10:11:31.937000+00:00</time>
      </trkpt>
      <trkpt lat="0" lon="0">
        <time>2020-12-06T10:11:31.943000+00:00</time>
      </trkpt>
      <trkpt lat="0" lon="0">
        <time>2020-12-06T10:11:31.945000+00:00</time>
      </trkpt>
      <trkpt lat="47.33081" lon="-1.36138">
        <ele>65</ele>
        <time>2020-12-06T10:11:32.894000+00:00</time>
      </trkpt>
      <trkpt lat="0" lon="0">
        <time>2020-12-06T10:11:32.898000+00:00</time>
      </trkpt>
      <trkpt lat="0" lon="0">
        <time>2020-12-06T10:11:32.902000+00:00</time>
      </trkpt>
      <trkpt lat="0" lon="0">
        <time>2020-12-06T10:11:32.906000+00:00</time>
      </trkpt>
      <trkpt lat="47.33087" lon="-1.3615">
        <ele>65</ele>
        <time>2020-12-06T10:11:33.910000+00:00</time>
      </trkpt>
      <trkpt lat="0" lon="0">
        <time>2020-12-06T10:11:33.917000+00:00</time>
      </trkpt>
      <trkpt lat="0" lon="0">
        <time>2020-12-06T10:11:33.922000+00:00</time>
      </trkpt>
      <trkpt lat="0" lon="0">
        <time>2020-12-06T10:11:33.925000+00:00</time>
      </trkpt>
      <trkpt lat="47.33092" lon="-1.36161">
        <ele>64</ele>
        <time>2020-12-06T10:11:34.888000+00:00</time>
      </trkpt>
      <trkpt lat="0" lon="0">
        <time>2020-12-06T10:11:34.894000+00:00</time>
      </trkpt>
      <trkpt lat="0" lon="0">
        <time>2020-12-06T10:11:34.898000+00:00</time>
      </trkpt>
      <trkpt lat="0" lon="0">
        <time>2020-12-06T10:11:34.899000+00:00</time>
      </trkpt>
      <trkpt lat="47.33097" lon="-1.36172">
        <ele>64</ele>
        <time>2020-12-06T10:11:35.914000+00:00</time>
      </trkpt>
      <trkpt lat="0" lon="0">
        <time>2020-12-06T10:11:35.925000+00:00</time>
      </trkpt>
      <trkpt lat="0" lon="0">
        <time>2020-12-06T10:11:35.937000+00:00</time>
      </trkpt>
      <trkpt lat="0" lon="0">
        <time>2020-12-06T10:11:35.939000+00:00</time>
      </trkpt>
      <trkpt lat="47.33102" lon="-1.3618">
        <ele>64</ele>
        <time>2020-12-06T10:11:36.883000+00:00</time>
      </trkpt>
      <trkpt lat="0" lon="0">
        <time>2020-12-06T10:11:36.903000+00:00</time>
      </trkpt>
      <trkpt lat="0" lon="0">
        <time>2020-12-06T10:11:36.911000+00:00</time>
      </trkpt>
      <trkpt lat="0" lon="0">
        <time>2020-12-06T10:11:36.913000+00:00</time>
      </trkpt>
      <trkpt lat="47.33106" lon="-1.36188">
        <ele>64</ele>
        <time>2020-12-06T10:11:37.936000+00:00</time>
      </trkpt>
      <trkpt lat="0" lon="0">
        <time>2020-12-06T10:11:37.943000+00:00</time>
      </trkpt>
      <trkpt lat="0" lon="0">
        <time>2020-12-06T10:11:37.952000+00:00</time>
      </trkpt>
      <trkpt lat="0" lon="0">
        <time>2020-12-06T10:11:37.960000+00:00</time>
      </trkpt>
      <trkpt lat="47.33109" lon="-1.36193">
        <ele>64</ele>
        <time>2020-12-06T10:11:38.877000+00:00</time>
      </trkpt>
      <trkpt lat="0" lon="0">
        <time>2020-12-06T10:11:38.881000+00:00</time>
      </trkpt>
      <trkpt lat="0" lon="0">
        <time>2020-12-06T10:11:38.885000+00:00</time>
      </trkpt>
      <trkpt lat="0" lon="0">
        <time>2020-12-06T10:11:38.887000+00:00</time>
      </trkpt>
      <trkpt lat="47.3311" lon="-1.36197">
        <ele>64</ele>
        <time>2020-12-06T10:11:39.865000+00:00</time>
      </trkpt>
      <trkpt lat="0" lon="0">
        <time>2020-12-06T10:11:39.872000+00:00</time>
      </trkpt>
      <trkpt lat="0" lon="0">
        <time>2020-12-06T10:11:39.877000+00:00</time>
      </trkpt>
      <trkpt lat="0" lon="0">
        <time>2020-12-06T10:11:39.886000+00:00</time>
      </trkpt>
      <trkpt lat="47.3311" lon="-1.36199">
        <ele>64</ele>
        <time>2020-12-06T10:11:40.772000+00:00</time>
      </trkpt>
      <trkpt lat="0" lon="0">
        <time>2020-12-06T10:11:40.774000+00:00</time>
      </trkpt>
      <trkpt lat="0" lon="0">
        <time>2020-12-06T10:11:40.782000+00:00</time>
      </trkpt>
      <trkpt lat="0" lon="0">
        <time>2020-12-06T10:11:40.784000+00:00</time>
      </trkpt>
      <trkpt lat="47.33109" lon="-1.36199">
        <ele>64</ele>
        <time>2020-12-06T10:11:41.836000+00:00</time>
      </trkpt>
      <trkpt lat="0" lon="0">
        <time>2020-12-06T10:11:41.840000+00:00</time>
      </trkpt>
      <trkpt lat="0" lon="0">
        <time>2020-12-06T10:11:41.844000+00:00</time>
      </trkpt>
      <trkpt lat="0" lon="0">
        <time>2020-12-06T10:11:41.846000+00:00</time>
      </trkpt>
      <trkpt lat="47.33107" lon="-1.36197">
        <ele>64</ele>
        <time>2020-12-06T10:11:42.796000+00:00</time>
      </trkpt>
      <trkpt lat="0" lon="0">
        <time>2020-12-06T10:11:42.804000+00:00</time>
      </trkpt>
      <trkpt lat="0" lon="0">
        <time>2020-12-06T10:11:42.816000+00:00</time>
      </trkpt>
      <trkpt lat="0" lon="0">
        <time>2020-12-06T10:11:42.821000+00:00</time>
      </trkpt>
      <trkpt lat="47.33105" lon="-1.36194">
        <ele>64</ele>
        <time>2020-12-06T10:11:43.828000+00:00</time>
      </trkpt>
      <trkpt lat="0" lon="0">
        <time>2020-12-06T10:11:43.837000+00:00</time>
      </trkpt>
      <trkpt lat="0" lon="0">
        <time>2020-12-06T10:11:43.840000+00:00</time>
      </trkpt>
      <trkpt lat="0" lon="0">
        <time>2020-12-06T10:11:43.843000+00:00</time>
      </trkpt>
      <trkpt lat="47.33102" lon="-1.3619">
        <ele>64</ele>
        <time>2020-12-06T10:11:44.844000+00:00</time>
      </trkpt>
      <trkpt lat="0" lon="0">
        <time>2020-12-06T10:11:44.848000+00:00</time>
      </trkpt>
      <trkpt lat="0" lon="0">
        <time>2020-12-06T10:11:44.861000+00:00</time>
      </trkpt>
      <trkpt lat="0" lon="0">
        <time>2020-12-06T10:11:44.864000+00:00</time>
      </trkpt>
      <trkpt lat="47.33098" lon="-1.36185">
        <ele>64</ele>
        <time>2020-12-06T10:11:45.872000+00:00</time>
      </trkpt>
      <trkpt lat="0" lon="0">
        <time>2020-12-06T10:11:45.884000+00:00</time>
      </trkpt>
      <trkpt lat="0" lon="0">
        <time>2020-12-06T10:11:45.889000+00:00</time>
      </trkpt>
      <trkpt lat="0" lon="0">
        <time>2020-12-06T10:11:45.892000+00:00</time>
      </trkpt>
      <trkpt lat="47.33095" lon="-1.36182">
        <ele>64</ele>
        <time>2020-12-06T10:11:46.859000+00:00</time>
      </trkpt>
      <trkpt lat="0" lon="0">
        <time>2020-12-06T10:11:46.882000+00:00</time>
      </trkpt>
      <trkpt lat="0" lon="0">
        <time>2020-12-06T10:11:46.893000+00:00</time>
      </trkpt>
      <trkpt lat="0" lon="0">
        <time>2020-12-06T10:11:46.895000+00:00</time>
      </trkpt>
      <trkpt lat="47.33091" lon="-1.36178">
        <ele>64</ele>
        <time>2020-12-06T10:11:47.811000+00:00</time>
      </trkpt>
      <trkpt lat="0" lon="0">
        <time>2020-12-06T10:11:47.819000+00:00</time>
      </trkpt>
      <trkpt lat="0" lon="0">
        <time>2020-12-06T10:11:47.822000+00:00</time>
      </trkpt>
      <trkpt lat="0" lon="0">
        <time>2020-12-06T10:11:47.824000+00:00</time>
      </trkpt>
      <trkpt lat="47.33087" lon="-1.36176">
        <ele>64</ele>
        <time>2020-12-06T10:11:48.763000+00:00</time>
      </trkpt>
      <trkpt lat="0" lon="0">
        <time>2020-12-06T10:11:48.764000+00:00</time>
      </trkpt>
      <trkpt lat="0" lon="0">
        <time>2020-12-06T10:11:48.766000+00:00</time>
      </trkpt>
      <trkpt lat="47.33083" lon="-1.36175">
        <ele>64</ele>
        <time>2020-12-06T10:11:49.822000+00:00</time>
      </trkpt>
      <trkpt lat="0" lon="0">
        <time>2020-12-06T10:11:49.831000+00:00</time>
      </trkpt>
      <trkpt lat="0" lon="0">
        <time>2020-12-06T10:11:49.839000+00:00</time>
      </trkpt>
      <trkpt lat="0" lon="0">
        <time>2020-12-06T10:11:49.842000+00:00</time>
      </trkpt>
      <trkpt lat="47.33079" lon="-1.36174">
        <ele>63</ele>
        <time>2020-12-06T10:11:50.775000+00:00</time>
      </trkpt>
      <trkpt lat="0" lon="0">
        <time>2020-12-06T10:11:50.777000+00:00</time>
      </trkpt>
      <trkpt lat="0" lon="0">
        <time>2020-12-06T10:11:50.778000+00:00</time>
      </trkpt>
      <trkpt lat="47.33074" lon="-1.36174">
        <ele>63</ele>
        <time>2020-12-06T10:11:51.842000+00:00</time>
      </trkpt>
      <trkpt lat="0" lon="0">
        <time>2020-12-06T10:11:51.851000+00:00</time>
      </trkpt>
      <trkpt lat="0" lon="0">
        <time>2020-12-06T10:11:51.855000+00:00</time>
      </trkpt>
      <trkpt lat="0" lon="0">
        <time>2020-12-06T10:11:51.865000+00:00</time>
      </trkpt>
      <trkpt lat="47.3307" lon="-1.36174">
        <ele>63</ele>
        <time>2020-12-06T10:11:52.842000+00:00</time>
      </trkpt>
      <trkpt lat="0" lon="0">
        <time>2020-12-06T10:11:52.848000+00:00</time>
      </trkpt>
      <trkpt lat="0" lon="0">
        <time>2020-12-06T10:11:52.864000+00:00</time>
      </trkpt>
      <trkpt lat="0" lon="0">
        <time>2020-12-06T10:11:52.870000+00:00</time>
      </trkpt>
      <trkpt lat="47.33065" lon="-1.36175">
        <ele>63</ele>
        <time>2020-12-06T10:11:53.826000+00:00</time>
      </trkpt>
      <trkpt lat="0" lon="0">
        <time>2020-12-06T10:11:53.838000+00:00</time>
      </trkpt>
      <trkpt lat="0" lon="0">
        <time>2020-12-06T10:11:53.841000+00:00</time>
      </trkpt>
      <trkpt lat="0" lon="0">
        <time>2020-12-06T10:11:53.842000+00:00</time>
      </trkpt>
      <trkpt lat="47.33061" lon="-1.36177">
        <ele>63</ele>
        <time>2020-12-06T10:11:54.803000+00:00</time>
      </trkpt>
      <trkpt lat="0" lon="0">
        <time>2020-12-06T10:11:54.812000+00:00</time>
      </trkpt>
      <trkpt lat="0" lon="0">
        <time>2020-12-06T10:11:54.816000+00:00</time>
      </trkpt>
      <trkpt lat="0" lon="0">
        <time>2020-12-06T10:11:54.818000+00:00</time>
      </trkpt>
      <trkpt lat="47.33056" lon="-1.36179">
        <ele>63</ele>
        <time>2020-12-06T10:11:55.794000+00:00</time>
      </trkpt>
      <trkpt lat="0" lon="0">
        <time>2020-12-06T10:11:55.800000+00:00</time>
      </trkpt>
      <trkpt lat="0" lon="0">
        <time>2020-12-06T10:11:55.804000+00:00</time>
      </trkpt>
      <trkpt lat="0" lon="0">
        <time>2020-12-06T10:11:55.807000+00:00</time>
      </trkpt>
      <trkpt lat="47.3305" lon="-1.36181">
        <ele>63</ele>
        <time>2020-12-06T10:11:56.785000+00:00</time>
      </trkpt>
      <trkpt lat="0" lon="0">
        <time>2020-12-06T10:11:56.789000+00:00</time>
      </trkpt>
      <trkpt lat="0" lon="0">
        <time>2020-12-06T10:11:56.793000+00:00</time>
      </trkpt>
      <trkpt lat="0" lon="0">
        <time>2020-12-06T10:11:56.795000+00:00</time>
      </trkpt>
      <trkpt lat="47.33044" lon="-1.36183">
        <ele>63</ele>
        <time>2020-12-06T10:11:57.861000+00:00</time>
      </trkpt>
      <trkpt lat="0" lon="0">
        <time>2020-12-06T10:11:57.874000+00:00</time>
      </trkpt>
      <trkpt lat="0" lon="0">
        <time>2020-12-06T10:11:57.882000+00:00</time>
      </trkpt>
      <trkpt lat="0" lon="0">
        <time>2020-12-06T10:11:57.884000+00:00</time>
      </trkpt>
      <trkpt lat="47.33037" lon="-1.36185">
        <ele>63</ele>
        <time>2020-12-06T10:11:58.836000+00:00</time>
      </trkpt>
      <trkpt lat="0" lon="0">
        <time>2020-12-06T10:11:58.847000+00:00</time>
      </trkpt>
      <trkpt lat="0" lon="0">
        <time>2020-12-06T10:11:58.850000+00:00</time>
      </trkpt>
      <trkpt lat="0" lon="0">
        <time>2020-12-06T10:11:58.854000+00:00</time>
      </trkpt>
      <trkpt lat="47.33031" lon="-1.36188">
        <ele>63</ele>
        <time>2020-12-06T10:11:59.834000+00:00</time>
      </trkpt>
      <trkpt lat="0" lon="0">
        <time>2020-12-06T10:11:59.850000+00:00</time>
      </trkpt>
      <trkpt lat="0" lon="0">
        <time>2020-12-06T10:11:59.852000+00:00</time>
      </trkpt>
      <trkpt lat="0" lon="0">
        <time>2020-12-06T10:11:59.861000+00:00</time>
      </trkpt>
      <trkpt lat="47.33025" lon="-1.3619">
        <ele>63</ele>
        <time>2020-12-06T10:12:00.844000+00:00</time>
      </trkpt>
      <trkpt lat="0" lon="0">
        <time>2020-12-06T10:12:00.861000+00:00</time>
      </trkpt>
      <trkpt lat="0" lon="0">
        <time>2020-12-06T10:12:00.866000+00:00</time>
      </trkpt>
      <trkpt lat="0" lon="0">
        <time>2020-12-06T10:12:00.868000+00:00</time>
      </trkpt>
      <trkpt lat="47.33018" lon="-1.36193">
        <ele>63</ele>
        <time>2020-12-06T10:12:01.819000+00:00</time>
      </trkpt>
      <trkpt lat="0" lon="0">
        <time>2020-12-06T10:12:01.822000+00:00</time>
      </trkpt>
      <trkpt lat="0" lon="0">
        <time>2020-12-06T10:12:01.837000+00:00</time>
      </trkpt>
      <trkpt lat="0" lon="0">
        <time>2020-12-06T10:12:01.839000+00:00</time>
      </trkpt>
      <trkpt lat="47.33012" lon="-1.36197">
        <ele>62</ele>
        <time>2020-12-06T10:12:02.839000+00:00</time>
      </trkpt>
      <trkpt lat="0" lon="0">
        <time>2020-12-06T10:12:02.852000+00:00</time>
      </trkpt>
      <trkpt lat="0" lon="0">
        <time>2020-12-06T10:12:02.858000+00:00</time>
      </trkpt>
      <trkpt lat="0" lon="0">
        <time>2020-12-06T10:12:02.861000+00:00</time>
      </trkpt>
      <trkpt lat="47.33005" lon="-1.362">
        <ele>62</ele>
        <time>2020-12-06T10:12:03.855000+00:00</time>
      </trkpt>
      <trkpt lat="0" lon="0">
        <time>2020-12-06T10:12:03.860000+00:00</time>
      </trkpt>
      <trkpt lat="0" lon="0">
        <time>2020-12-06T10:12:03.866000+00:00</time>
      </trkpt>
      <trkpt lat="0" lon="0">
        <time>2020-12-06T10:12:03.868000+00:00</time>
      </trkpt>
      <trkpt lat="47.32998" lon="-1.36204">
        <ele>62</ele>
        <time>2020-12-06T10:12:04.862000+00:00</time>
      </trkpt>
      <trkpt lat="0" lon="0">
        <time>2020-12-06T10:12:04.868000+00:00</time>
      </trkpt>
      <trkpt lat="0" lon="0">
        <time>2020-12-06T10:12:04.890000+00:00</time>
      </trkpt>
      <trkpt lat="0" lon="0">
        <time>2020-12-06T10:12:04.892000+00:00</time>
      </trkpt>
      <trkpt lat="47.32992" lon="-1.36207">
        <ele>61</ele>
        <time>2020-12-06T10:12:05.853000+00:00</time>
      </trkpt>
      <trkpt lat="0" lon="0">
        <time>2020-12-06T10:12:05.859000+00:00</time>
      </trkpt>
      <trkpt lat="0" lon="0">
        <time>2020-12-06T10:12:05.872000+00:00</time>
      </trkpt>
      <trkpt lat="0" lon="0">
        <time>2020-12-06T10:12:05.877000+00:00</time>
      </trkpt>
      <trkpt lat="47.32985" lon="-1.36211">
        <ele>61</ele>
        <time>2020-12-06T10:12:06.819000+00:00</time>
      </trkpt>
      <trkpt lat="0" lon="0">
        <time>2020-12-06T10:12:06.822000+00:00</time>
      </trkpt>
      <trkpt lat="0" lon="0">
        <time>2020-12-06T10:12:06.829000+00:00</time>
      </trkpt>
      <trkpt lat="0" lon="0">
        <time>2020-12-06T10:12:06.831000+00:00</time>
      </trkpt>
      <trkpt lat="47.32978" lon="-1.36215">
        <ele>60</ele>
        <time>2020-12-06T10:12:07.841000+00:00</time>
      </trkpt>
      <trkpt lat="0" lon="0">
        <time>2020-12-06T10:12:07.849000+00:00</time>
      </trkpt>
      <trkpt lat="0" lon="0">
        <time>2020-12-06T10:12:07.858000+00:00</time>
      </trkpt>
      <trkpt lat="0" lon="0">
        <time>2020-12-06T10:12:07.860000+00:00</time>
      </trkpt>
      <trkpt lat="47.32972" lon="-1.36219">
        <ele>59</ele>
        <time>2020-12-06T10:12:08.831000+00:00</time>
      </trkpt>
      <trkpt lat="0" lon="0">
        <time>2020-12-06T10:12:08.838000+00:00</time>
      </trkpt>
      <trkpt lat="0" lon="0">
        <time>2020-12-06T10:12:08.842000+00:00</time>
      </trkpt>
      <trkpt lat="0" lon="0">
        <time>2020-12-06T10:12:08.845000+00:00</time>
      </trkpt>
      <trkpt lat="47.32966" lon="-1.36223">
        <ele>59</ele>
        <time>2020-12-06T10:12:09.862000+00:00</time>
      </trkpt>
      <trkpt lat="0" lon="0">
        <time>2020-12-06T10:12:09.868000+00:00</time>
      </trkpt>
      <trkpt lat="0" lon="0">
        <time>2020-12-06T10:12:09.873000+00:00</time>
      </trkpt>
      <trkpt lat="0" lon="0">
        <time>2020-12-06T10:12:09.877000+00:00</time>
      </trkpt>
      <trkpt lat="47.32961" lon="-1.36228">
        <ele>58</ele>
        <time>2020-12-06T10:12:10.831000+00:00</time>
      </trkpt>
      <trkpt lat="0" lon="0">
        <time>2020-12-06T10:12:10.834000+00:00</time>
      </trkpt>
      <trkpt lat="0" lon="0">
        <time>2020-12-06T10:12:10.842000+00:00</time>
      </trkpt>
      <trkpt lat="0" lon="0">
        <time>2020-12-06T10:12:10.852000+00:00</time>
      </trkpt>
      <trkpt lat="47.32956" lon="-1.36232">
        <ele>58</ele>
        <time>2020-12-06T10:12:11.873000+00:00</time>
      </trkpt>
      <trkpt lat="0" lon="0">
        <time>2020-12-06T10:12:11.875000+00:00</time>
      </trkpt>
      <trkpt lat="0" lon="0">
        <time>2020-12-06T10:12:11.877000+00:00</time>
      </trkpt>
      <trkpt lat="0" lon="0">
        <time>2020-12-06T10:12:11.879000+00:00</time>
      </trkpt>
      <trkpt lat="47.32952" lon="-1.36235">
        <ele>57</ele>
        <time>2020-12-06T10:12:12.830000+00:00</time>
      </trkpt>
      <trkpt lat="0" lon="0">
        <time>2020-12-06T10:12:12.833000+00:00</time>
      </trkpt>
      <trkpt lat="0" lon="0">
        <time>2020-12-06T10:12:12.837000+00:00</time>
      </trkpt>
      <trkpt lat="0" lon="0">
        <time>2020-12-06T10:12:12.839000+00:00</time>
      </trkpt>
      <trkpt lat="47.32947" lon="-1.36239">
        <ele>57</ele>
        <time>2020-12-06T10:12:13.838000+00:00</time>
      </trkpt>
      <trkpt lat="0" lon="0">
        <time>2020-12-06T10:12:13.856000+00:00</time>
      </trkpt>
      <trkpt lat="0" lon="0">
        <time>2020-12-06T10:12:13.861000+00:00</time>
      </trkpt>
      <trkpt lat="0" lon="0">
        <time>2020-12-06T10:12:13.863000+00:00</time>
      </trkpt>
      <trkpt lat="47.32942" lon="-1.36243">
        <ele>56</ele>
        <time>2020-12-06T10:12:14.805000+00:00</time>
      </trkpt>
      <trkpt lat="0" lon="0">
        <time>2020-12-06T10:12:14.814000+00:00</time>
      </trkpt>
      <trkpt lat="0" lon="0">
        <time>2020-12-06T10:12:14.818000+00:00</time>
      </trkpt>
      <trkpt lat="0" lon="0">
        <time>2020-12-06T10:12:14.820000+00:00</time>
      </trkpt>
      <trkpt lat="47.32937" lon="-1.36247">
        <ele>56</ele>
        <time>2020-12-06T10:12:15.856000+00:00</time>
      </trkpt>
      <trkpt lat="0" lon="0">
        <time>2020-12-06T10:12:15.871000+00:00</time>
      </trkpt>
      <trkpt lat="0" lon="0">
        <time>2020-12-06T10:12:15.875000+00:00</time>
      </trkpt>
      <trkpt lat="0" lon="0">
        <time>2020-12-06T10:12:15.879000+00:00</time>
      </trkpt>
      <trkpt lat="47.32932" lon="-1.36251">
        <ele>55</ele>
        <time>2020-12-06T10:12:16.855000+00:00</time>
      </trkpt>
      <trkpt lat="0" lon="0">
        <time>2020-12-06T10:12:16.864000+00:00</time>
      </trkpt>
      <trkpt lat="0" lon="0">
        <time>2020-12-06T10:12:16.872000+00:00</time>
      </trkpt>
      <trkpt lat="0" lon="0">
        <time>2020-12-06T10:12:16.878000+00:00</time>
      </trkpt>
      <trkpt lat="47.32927" lon="-1.36254">
        <ele>55</ele>
        <time>2020-12-06T10:12:17.855000+00:00</time>
      </trkpt>
      <trkpt lat="0" lon="0">
        <time>2020-12-06T10:12:17.869000+00:00</time>
      </trkpt>
      <trkpt lat="0" lon="0">
        <time>2020-12-06T10:12:17.872000+00:00</time>
      </trkpt>
      <trkpt lat="0" lon="0">
        <time>2020-12-06T10:12:17.874000+00:00</time>
      </trkpt>
      <trkpt lat="47.32921" lon="-1.36258">
        <ele>55</ele>
        <time>2020-12-06T10:12:18.843000+00:00</time>
      </trkpt>
      <trkpt lat="0" lon="0">
        <time>2020-12-06T10:12:18.854000+00:00</time>
      </trkpt>
      <trkpt lat="0" lon="0">
        <time>2020-12-06T10:12:18.856000+00:00</time>
      </trkpt>
      <trkpt lat="0" lon="0">
        <time>2020-12-06T10:12:18.857000+00:00</time>
      </trkpt>
      <trkpt lat="47.32916" lon="-1.36261">
        <ele>54</ele>
        <time>2020-12-06T10:12:19.859000+00:00</time>
      </trkpt>
      <trkpt lat="0" lon="0">
        <time>2020-12-06T10:12:19.889000+00:00</time>
      </trkpt>
      <trkpt lat="0" lon="0">
        <time>2020-12-06T10:12:19.893000+00:00</time>
      </trkpt>
      <trkpt lat="0" lon="0">
        <time>2020-12-06T10:12:19.894000+00:00</time>
      </trkpt>
      <trkpt lat="47.3291" lon="-1.36265">
        <ele>54</ele>
        <time>2020-12-06T10:12:20.830000+00:00</time>
      </trkpt>
      <trkpt lat="0" lon="0">
        <time>2020-12-06T10:12:20.840000+00:00</time>
      </trkpt>
      <trkpt lat="0" lon="0">
        <time>2020-12-06T10:12:20.845000+00:00</time>
      </trkpt>
      <trkpt lat="0" lon="0">
        <time>2020-12-06T10:12:20.849000+00:00</time>
      </trkpt>
      <trkpt lat="47.32905" lon="-1.36269">
        <ele>54</ele>
        <time>2020-12-06T10:12:21.825000+00:00</time>
      </trkpt>
      <trkpt lat="0" lon="0">
        <time>2020-12-06T10:12:21.840000+00:00</time>
      </trkpt>
      <trkpt lat="0" lon="0">
        <time>2020-12-06T10:12:21.844000+00:00</time>
      </trkpt>
      <trkpt lat="0" lon="0">
        <time>2020-12-06T10:12:21.846000+00:00</time>
      </trkpt>
      <trkpt lat="47.32899" lon="-1.36273">
        <ele>53</ele>
        <time>2020-12-06T10:12:22.846000+00:00</time>
      </trkpt>
      <trkpt lat="0" lon="0">
        <time>2020-12-06T10:12:22.863000+00:00</time>
      </trkpt>
      <trkpt lat="0" lon="0">
        <time>2020-12-06T10:12:22.870000+00:00</time>
      </trkpt>
      <trkpt lat="0" lon="0">
        <time>2020-12-06T10:12:22.874000+00:00</time>
      </trkpt>
      <trkpt lat="47.32893" lon="-1.36277">
        <ele>53</ele>
        <time>2020-12-06T10:12:23.843000+00:00</time>
      </trkpt>
      <trkpt lat="0" lon="0">
        <time>2020-12-06T10:12:23.859000+00:00</time>
      </trkpt>
      <trkpt lat="0" lon="0">
        <time>2020-12-06T10:12:23.862000+00:00</time>
      </trkpt>
      <trkpt lat="0" lon="0">
        <time>2020-12-06T10:12:23.863000+00:00</time>
      </trkpt>
      <trkpt lat="47.32887" lon="-1.3628">
        <ele>53</ele>
        <time>2020-12-06T10:12:24.834000+00:00</time>
      </trkpt>
      <trkpt lat="0" lon="0">
        <time>2020-12-06T10:12:24.857000+00:00</time>
      </trkpt>
      <trkpt lat="0" lon="0">
        <time>2020-12-06T10:12:24.860000+00:00</time>
      </trkpt>
      <trkpt lat="0" lon="0">
        <time>2020-12-06T10:12:24.862000+00:00</time>
      </trkpt>
      <trkpt lat="47.32881" lon="-1.36284">
        <ele>52</ele>
        <time>2020-12-06T10:12:25.844000+00:00</time>
      </trkpt>
      <trkpt lat="0" lon="0">
        <time>2020-12-06T10:12:25.853000+00:00</time>
      </trkpt>
      <trkpt lat="0" lon="0">
        <time>2020-12-06T10:12:25.857000+00:00</time>
      </trkpt>
      <trkpt lat="0" lon="0">
        <time>2020-12-06T10:12:25.861000+00:00</time>
      </trkpt>
      <trkpt lat="47.32875" lon="-1.36288">
        <ele>52</ele>
        <time>2020-12-06T10:12:26.819000+00:00</time>
      </trkpt>
      <trkpt lat="0" lon="0">
        <time>2020-12-06T10:12:26.825000+00:00</time>
      </trkpt>
      <trkpt lat="0" lon="0">
        <time>2020-12-06T10:12:26.833000+00:00</time>
      </trkpt>
      <trkpt lat="0" lon="0">
        <time>2020-12-06T10:12:26.835000+00:00</time>
      </trkpt>
      <trkpt lat="47.32869" lon="-1.36291">
        <ele>52</ele>
        <time>2020-12-06T10:12:27.818000+00:00</time>
      </trkpt>
      <trkpt lat="0" lon="0">
        <time>2020-12-06T10:12:27.828000+00:00</time>
      </trkpt>
      <trkpt lat="0" lon="0">
        <time>2020-12-06T10:12:27.837000+00:00</time>
      </trkpt>
      <trkpt lat="0" lon="0">
        <time>2020-12-06T10:12:27.838000+00:00</time>
      </trkpt>
      <trkpt lat="47.32863" lon="-1.36295">
        <ele>52</ele>
        <time>2020-12-06T10:12:28.842000+00:00</time>
      </trkpt>
      <trkpt lat="0" lon="0">
        <time>2020-12-06T10:12:28.864000+00:00</time>
      </trkpt>
      <trkpt lat="0" lon="0">
        <time>2020-12-06T10:12:28.874000+00:00</time>
      </trkpt>
      <trkpt lat="0" lon="0">
        <time>2020-12-06T10:12:28.879000+00:00</time>
      </trkpt>
      <trkpt lat="47.32857" lon="-1.36298">
        <ele>52</ele>
        <time>2020-12-06T10:12:29.821000+00:00</time>
      </trkpt>
      <trkpt lat="0" lon="0">
        <time>2020-12-06T10:12:29.825000+00:00</time>
      </trkpt>
      <trkpt lat="0" lon="0">
        <time>2020-12-06T10:12:29.828000+00:00</time>
      </trkpt>
      <trkpt lat="0" lon="0">
        <time>2020-12-06T10:12:29.832000+00:00</time>
      </trkpt>
      <trkpt lat="47.32851" lon="-1.36301">
        <ele>52</ele>
        <time>2020-12-06T10:12:30.842000+00:00</time>
      </trkpt>
      <trkpt lat="0" lon="0">
        <time>2020-12-06T10:12:30.852000+00:00</time>
      </trkpt>
      <trkpt lat="0" lon="0">
        <time>2020-12-06T10:12:30.859000+00:00</time>
      </trkpt>
      <trkpt lat="0" lon="0">
        <time>2020-12-06T10:12:30.863000+00:00</time>
      </trkpt>
      <trkpt lat="47.32846" lon="-1.36305">
        <ele>52</ele>
        <time>2020-12-06T10:12:31.825000+00:00</time>
      </trkpt>
      <trkpt lat="0" lon="0">
        <time>2020-12-06T10:12:31.838000+00:00</time>
      </trkpt>
      <trkpt lat="0" lon="0">
        <time>2020-12-06T10:12:31.843000+00:00</time>
      </trkpt>
      <trkpt lat="0" lon="0">
        <time>2020-12-06T10:12:31.844000+00:00</time>
      </trkpt>
      <trkpt lat="47.32841" lon="-1.36308">
        <ele>52</ele>
        <time>2020-12-06T10:12:32.843000+00:00</time>
      </trkpt>
      <trkpt lat="0" lon="0">
        <time>2020-12-06T10:12:32.850000+00:00</time>
      </trkpt>
      <trkpt lat="0" lon="0">
        <time>2020-12-06T10:12:32.855000+00:00</time>
      </trkpt>
      <trkpt lat="0" lon="0">
        <time>2020-12-06T10:12:32.857000+00:00</time>
      </trkpt>
      <trkpt lat="47.32837" lon="-1.36311">
        <ele>53</ele>
        <time>2020-12-06T10:12:33.831000+00:00</time>
      </trkpt>
      <trkpt lat="0" lon="0">
        <time>2020-12-06T10:12:33.832000+00:00</time>
      </trkpt>
      <trkpt lat="0" lon="0">
        <time>2020-12-06T10:12:33.834000+00:00</time>
      </trkpt>
      <trkpt lat="0" lon="0">
        <time>2020-12-06T10:12:33.835000+00:00</time>
      </trkpt>
      <trkpt lat="47.32834" lon="-1.36314">
        <ele>53</ele>
        <time>2020-12-06T10:12:34.837000+00:00</time>
      </trkpt>
      <trkpt lat="0" lon="0">
        <time>2020-12-06T10:12:34.839000+00:00</time>
      </trkpt>
      <trkpt lat="0" lon="0">
        <time>2020-12-06T10:12:34.857000+00:00</time>
      </trkpt>
      <trkpt lat="0" lon="0">
        <time>2020-12-06T10:12:34.860000+00:00</time>
      </trkpt>
      <trkpt lat="47.32832" lon="-1.36318">
        <ele>53</ele>
        <time>2020-12-06T10:12:35.827000+00:00</time>
      </trkpt>
      <trkpt lat="0" lon="0">
        <time>2020-12-06T10:12:35.841000+00:00</time>
      </trkpt>
      <trkpt lat="0" lon="0">
        <time>2020-12-06T10:12:35.845000+00:00</time>
      </trkpt>
      <trkpt lat="0" lon="0">
        <time>2020-12-06T10:12:35.847000+00:00</time>
      </trkpt>
      <trkpt lat="47.32831" lon="-1.36321">
        <ele>54</ele>
        <time>2020-12-06T10:12:36.822000+00:00</time>
      </trkpt>
      <trkpt lat="0" lon="0">
        <time>2020-12-06T10:12:36.832000+00:00</time>
      </trkpt>
      <trkpt lat="0" lon="0">
        <time>2020-12-06T10:12:36.835000+00:00</time>
      </trkpt>
      <trkpt lat="0" lon="0">
        <time>2020-12-06T10:12:36.837000+00:00</time>
      </trkpt>
      <trkpt lat="47.3283" lon="-1.36326">
        <ele>54</ele>
        <time>2020-12-06T10:12:37.796000+00:00</time>
      </trkpt>
      <trkpt lat="0" lon="0">
        <time>2020-12-06T10:12:37.807000+00:00</time>
      </trkpt>
      <trkpt lat="0" lon="0">
        <time>2020-12-06T10:12:37.811000+00:00</time>
      </trkpt>
      <trkpt lat="0" lon="0">
        <time>2020-12-06T10:12:37.813000+00:00</time>
      </trkpt>
      <trkpt lat="47.3283" lon="-1.36331">
        <ele>55</ele>
        <time>2020-12-06T10:12:38.830000+00:00</time>
      </trkpt>
      <trkpt lat="0" lon="0">
        <time>2020-12-06T10:12:38.834000+00:00</time>
      </trkpt>
      <trkpt lat="0" lon="0">
        <time>2020-12-06T10:12:38.838000+00:00</time>
      </trkpt>
      <trkpt lat="0" lon="0">
        <time>2020-12-06T10:12:38.840000+00:00</time>
      </trkpt>
      <trkpt lat="47.32831" lon="-1.36336">
        <ele>55</ele>
        <time>2020-12-06T10:12:39.816000+00:00</time>
      </trkpt>
      <trkpt lat="0" lon="0">
        <time>2020-12-06T10:12:39.834000+00:00</time>
      </trkpt>
      <trkpt lat="0" lon="0">
        <time>2020-12-06T10:12:39.838000+00:00</time>
      </trkpt>
      <trkpt lat="0" lon="0">
        <time>2020-12-06T10:12:39.839000+00:00</time>
      </trkpt>
      <trkpt lat="47.32831" lon="-1.36341">
        <ele>55</ele>
        <time>2020-12-06T10:12:40.845000+00:00</time>
      </trkpt>
      <trkpt lat="0" lon="0">
        <time>2020-12-06T10:12:40.859000+00:00</time>
      </trkpt>
      <trkpt lat="0" lon="0">
        <time>2020-12-06T10:12:40.865000+00:00</time>
      </trkpt>
      <trkpt lat="0" lon="0">
        <time>2020-12-06T10:12:40.870000+00:00</time>
      </trkpt>
      <trkpt lat="47.32832" lon="-1.36346">
        <ele>56</ele>
        <time>2020-12-06T10:12:41.782000+00:00</time>
      </trkpt>
      <trkpt lat="0" lon="0">
        <time>2020-12-06T10:12:41.795000+00:00</time>
      </trkpt>
      <trkpt lat="0" lon="0">
        <time>2020-12-06T10:12:41.798000+00:00</time>
      </trkpt>
      <trkpt lat="0" lon="0">
        <time>2020-12-06T10:12:41.805000+00:00</time>
      </trkpt>
      <trkpt lat="47.32833" lon="-1.36352">
        <ele>56</ele>
        <time>2020-12-06T10:12:42.830000+00:00</time>
      </trkpt>
      <trkpt lat="0" lon="0">
        <time>2020-12-06T10:12:42.850000+00:00</time>
      </trkpt>
      <trkpt lat="0" lon="0">
        <time>2020-12-06T10:12:42.862000+00:00</time>
      </trkpt>
      <trkpt lat="0" lon="0">
        <time>2020-12-06T10:12:42.864000+00:00</time>
      </trkpt>
      <trkpt lat="47.32834" lon="-1.36358">
        <ele>56</ele>
        <time>2020-12-06T10:12:43.816000+00:00</time>
      </trkpt>
      <trkpt lat="0" lon="0">
        <time>2020-12-06T10:12:43.828000+00:00</time>
      </trkpt>
      <trkpt lat="0" lon="0">
        <time>2020-12-06T10:12:43.841000+00:00</time>
      </trkpt>
      <trkpt lat="0" lon="0">
        <time>2020-12-06T10:12:43.843000+00:00</time>
      </trkpt>
      <trkpt lat="47.32835" lon="-1.36363">
        <ele>57</ele>
        <time>2020-12-06T10:12:44.807000+00:00</time>
      </trkpt>
      <trkpt lat="0" lon="0">
        <time>2020-12-06T10:12:44.818000+00:00</time>
      </trkpt>
      <trkpt lat="0" lon="0">
        <time>2020-12-06T10:12:44.830000+00:00</time>
      </trkpt>
      <trkpt lat="0" lon="0">
        <time>2020-12-06T10:12:44.831000+00:00</time>
      </trkpt>
      <trkpt lat="47.32836" lon="-1.36369">
        <ele>57</ele>
        <time>2020-12-06T10:12:45.814000+00:00</time>
      </trkpt>
      <trkpt lat="0" lon="0">
        <time>2020-12-06T10:12:45.827000+00:00</time>
      </trkpt>
      <trkpt lat="0" lon="0">
        <time>2020-12-06T10:12:45.830000+00:00</time>
      </trkpt>
      <trkpt lat="0" lon="0">
        <time>2020-12-06T10:12:45.831000+00:00</time>
      </trkpt>
      <trkpt lat="47.32837" lon="-1.36375">
        <ele>57</ele>
        <time>2020-12-06T10:12:46.838000+00:00</time>
      </trkpt>
      <trkpt lat="0" lon="0">
        <time>2020-12-06T10:12:46.854000+00:00</time>
      </trkpt>
      <trkpt lat="0" lon="0">
        <time>2020-12-06T10:12:46.858000+00:00</time>
      </trkpt>
      <trkpt lat="0" lon="0">
        <time>2020-12-06T10:12:46.866000+00:00</time>
      </trkpt>
      <trkpt lat="47.32838" lon="-1.36381">
        <ele>58</ele>
        <time>2020-12-06T10:12:47.858000+00:00</time>
      </trkpt>
      <trkpt lat="0" lon="0">
        <time>2020-12-06T10:12:47.873000+00:00</time>
      </trkpt>
      <trkpt lat="0" lon="0">
        <time>2020-12-06T10:12:47.879000+00:00</time>
      </trkpt>
      <trkpt lat="0" lon="0">
        <time>2020-12-06T10:12:47.882000+00:00</time>
      </trkpt>
      <trkpt lat="47.3284" lon="-1.36387">
        <ele>58</ele>
        <time>2020-12-06T10:12:48.828000+00:00</time>
      </trkpt>
      <trkpt lat="0" lon="0">
        <time>2020-12-06T10:12:48.833000+00:00</time>
      </trkpt>
      <trkpt lat="0" lon="0">
        <time>2020-12-06T10:12:48.836000+00:00</time>
      </trkpt>
      <trkpt lat="0" lon="0">
        <time>2020-12-06T10:12:48.838000+00:00</time>
      </trkpt>
      <trkpt lat="47.32841" lon="-1.36393">
        <ele>59</ele>
        <time>2020-12-06T10:12:49.794000+00:00</time>
      </trkpt>
      <trkpt lat="0" lon="0">
        <time>2020-12-06T10:12:49.809000+00:00</time>
      </trkpt>
      <trkpt lat="0" lon="0">
        <time>2020-12-06T10:12:49.813000+00:00</time>
      </trkpt>
      <trkpt lat="0" lon="0">
        <time>2020-12-06T10:12:49.817000+00:00</time>
      </trkpt>
      <trkpt lat="47.32842" lon="-1.36399">
        <ele>59</ele>
        <time>2020-12-06T10:12:50.819000+00:00</time>
      </trkpt>
      <trkpt lat="0" lon="0">
        <time>2020-12-06T10:12:50.827000+00:00</time>
      </trkpt>
      <trkpt lat="0" lon="0">
        <time>2020-12-06T10:12:50.834000+00:00</time>
      </trkpt>
      <trkpt lat="0" lon="0">
        <time>2020-12-06T10:12:50.836000+00:00</time>
      </trkpt>
      <trkpt lat="47.32843" lon="-1.36405">
        <ele>59</ele>
        <time>2020-12-06T10:12:51.794000+00:00</time>
      </trkpt>
      <trkpt lat="0" lon="0">
        <time>2020-12-06T10:12:51.801000+00:00</time>
      </trkpt>
      <trkpt lat="0" lon="0">
        <time>2020-12-06T10:12:51.813000+00:00</time>
      </trkpt>
      <trkpt lat="0" lon="0">
        <time>2020-12-06T10:12:51.815000+00:00</time>
      </trkpt>
      <trkpt lat="47.32844" lon="-1.3641">
        <ele>60</ele>
        <time>2020-12-06T10:12:52.819000+00:00</time>
      </trkpt>
      <trkpt lat="0" lon="0">
        <time>2020-12-06T10:12:52.831000+00:00</time>
      </trkpt>
      <trkpt lat="0" lon="0">
        <time>2020-12-06T10:12:52.835000+00:00</time>
      </trkpt>
      <trkpt lat="0" lon="0">
        <time>2020-12-06T10:12:52.836000+00:00</time>
      </trkpt>
      <trkpt lat="47.32845" lon="-1.36415">
        <ele>60</ele>
        <time>2020-12-06T10:12:53.846000+00:00</time>
      </trkpt>
      <trkpt lat="0" lon="0">
        <time>2020-12-06T10:12:53.852000+00:00</time>
      </trkpt>
      <trkpt lat="0" lon="0">
        <time>2020-12-06T10:12:53.856000+00:00</time>
      </trkpt>
      <trkpt lat="0" lon="0">
        <time>2020-12-06T10:12:53.859000+00:00</time>
      </trkpt>
      <trkpt lat="47.32846" lon="-1.36421">
        <ele>60</ele>
        <time>2020-12-06T10:12:54.825000+00:00</time>
      </trkpt>
      <trkpt lat="0" lon="0">
        <time>2020-12-06T10:12:54.831000+00:00</time>
      </trkpt>
      <trkpt lat="0" lon="0">
        <time>2020-12-06T10:12:54.834000+00:00</time>
      </trkpt>
      <trkpt lat="0" lon="0">
        <time>2020-12-06T10:12:54.836000+00:00</time>
      </trkpt>
      <trkpt lat="47.32848" lon="-1.36426">
        <ele>60</ele>
        <time>2020-12-06T10:12:55.838000+00:00</time>
      </trkpt>
      <trkpt lat="0" lon="0">
        <time>2020-12-06T10:12:55.857000+00:00</time>
      </trkpt>
      <trkpt lat="0" lon="0">
        <time>2020-12-06T10:12:55.861000+00:00</time>
      </trkpt>
      <trkpt lat="0" lon="0">
        <time>2020-12-06T10:12:55.866000+00:00</time>
      </trkpt>
      <trkpt lat="47.3285" lon="-1.36432">
        <ele>61</ele>
        <time>2020-12-06T10:12:56.811000+00:00</time>
      </trkpt>
      <trkpt lat="0" lon="0">
        <time>2020-12-06T10:12:56.817000+00:00</time>
      </trkpt>
      <trkpt lat="0" lon="0">
        <time>2020-12-06T10:12:56.825000+00:00</time>
      </trkpt>
      <trkpt lat="0" lon="0">
        <time>2020-12-06T10:12:56.827000+00:00</time>
      </trkpt>
      <trkpt lat="47.32851" lon="-1.36439">
        <ele>61</ele>
        <time>2020-12-06T10:12:57.814000+00:00</time>
      </trkpt>
      <trkpt lat="0" lon="0">
        <time>2020-12-06T10:12:57.825000+00:00</time>
      </trkpt>
      <trkpt lat="0" lon="0">
        <time>2020-12-06T10:12:57.830000+00:00</time>
      </trkpt>
      <trkpt lat="0" lon="0">
        <time>2020-12-06T10:12:57.832000+00:00</time>
      </trkpt>
      <trkpt lat="47.32853" lon="-1.36445">
        <ele>61</ele>
        <time>2020-12-06T10:12:58.826000+00:00</time>
      </trkpt>
      <trkpt lat="0" lon="0">
        <time>2020-12-06T10:12:58.838000+00:00</time>
      </trkpt>
      <trkpt lat="0" lon="0">
        <time>2020-12-06T10:12:58.842000+00:00</time>
      </trkpt>
      <trkpt lat="0" lon="0">
        <time>2020-12-06T10:12:58.847000+00:00</time>
      </trkpt>
      <trkpt lat="47.32855" lon="-1.36452">
        <ele>62</ele>
        <time>2020-12-06T10:12:59.807000+00:00</time>
      </trkpt>
      <trkpt lat="0" lon="0">
        <time>2020-12-06T10:12:59.814000+00:00</time>
      </trkpt>
      <trkpt lat="0" lon="0">
        <time>2020-12-06T10:12:59.826000+00:00</time>
      </trkpt>
      <trkpt lat="0" lon="0">
        <time>2020-12-06T10:12:59.830000+00:00</time>
      </trkpt>
      <trkpt lat="47.32857" lon="-1.36459">
        <ele>62</ele>
        <time>2020-12-06T10:13:00.825000+00:00</time>
      </trkpt>
      <trkpt lat="0" lon="0">
        <time>2020-12-06T10:13:00.834000+00:00</time>
      </trkpt>
      <trkpt lat="0" lon="0">
        <time>2020-12-06T10:13:00.841000+00:00</time>
      </trkpt>
      <trkpt lat="0" lon="0">
        <time>2020-12-06T10:13:00.843000+00:00</time>
      </trkpt>
      <trkpt lat="47.32859" lon="-1.36466">
        <ele>62</ele>
        <time>2020-12-06T10:13:01.814000+00:00</time>
      </trkpt>
      <trkpt lat="0" lon="0">
        <time>2020-12-06T10:13:01.823000+00:00</time>
      </trkpt>
      <trkpt lat="0" lon="0">
        <time>2020-12-06T10:13:01.827000+00:00</time>
      </trkpt>
      <trkpt lat="0" lon="0">
        <time>2020-12-06T10:13:01.829000+00:00</time>
      </trkpt>
      <trkpt lat="47.32861" lon="-1.36472">
        <ele>62</ele>
        <time>2020-12-06T10:13:02.815000+00:00</time>
      </trkpt>
      <trkpt lat="0" lon="0">
        <time>2020-12-06T10:13:02.833000+00:00</time>
      </trkpt>
      <trkpt lat="0" lon="0">
        <time>2020-12-06T10:13:02.837000+00:00</time>
      </trkpt>
      <trkpt lat="0" lon="0">
        <time>2020-12-06T10:13:02.839000+00:00</time>
      </trkpt>
      <trkpt lat="47.32863" lon="-1.36478">
        <ele>63</ele>
        <time>2020-12-06T10:13:03.837000+00:00</time>
      </trkpt>
      <trkpt lat="0" lon="0">
        <time>2020-12-06T10:13:03.856000+00:00</time>
      </trkpt>
      <trkpt lat="0" lon="0">
        <time>2020-12-06T10:13:03.859000+00:00</time>
      </trkpt>
      <trkpt lat="0" lon="0">
        <time>2020-12-06T10:13:03.865000+00:00</time>
      </trkpt>
      <trkpt lat="47.32866" lon="-1.36484">
        <ele>63</ele>
        <time>2020-12-06T10:13:04.870000+00:00</time>
      </trkpt>
      <trkpt lat="0" lon="0">
        <time>2020-12-06T10:13:04.881000+00:00</time>
      </trkpt>
      <trkpt lat="0" lon="0">
        <time>2020-12-06T10:13:04.888000+00:00</time>
      </trkpt>
      <trkpt lat="0" lon="0">
        <time>2020-12-06T10:13:04.894000+00:00</time>
      </trkpt>
      <trkpt lat="47.32868" lon="-1.3649">
        <ele>63</ele>
        <time>2020-12-06T10:13:05.836000+00:00</time>
      </trkpt>
      <trkpt lat="0" lon="0">
        <time>2020-12-06T10:13:05.848000+00:00</time>
      </trkpt>
      <trkpt lat="0" lon="0">
        <time>2020-12-06T10:13:05.855000+00:00</time>
      </trkpt>
      <trkpt lat="0" lon="0">
        <time>2020-12-06T10:13:05.857000+00:00</time>
      </trkpt>
      <trkpt lat="47.3287" lon="-1.36497">
        <ele>63</ele>
        <time>2020-12-06T10:13:06.859000+00:00</time>
      </trkpt>
      <trkpt lat="0" lon="0">
        <time>2020-12-06T10:13:06.863000+00:00</time>
      </trkpt>
      <trkpt lat="0" lon="0">
        <time>2020-12-06T10:13:06.866000+00:00</time>
      </trkpt>
      <trkpt lat="0" lon="0">
        <time>2020-12-06T10:13:06.868000+00:00</time>
      </trkpt>
      <trkpt lat="47.32873" lon="-1.36503">
        <ele>63</ele>
        <time>2020-12-06T10:13:07.826000+00:00</time>
      </trkpt>
      <trkpt lat="0" lon="0">
        <time>2020-12-06T10:13:07.839000+00:00</time>
      </trkpt>
      <trkpt lat="0" lon="0">
        <time>2020-12-06T10:13:07.851000+00:00</time>
      </trkpt>
      <trkpt lat="0" lon="0">
        <time>2020-12-06T10:13:07.853000+00:00</time>
      </trkpt>
      <trkpt lat="47.32875" lon="-1.36509">
        <ele>63</ele>
        <time>2020-12-06T10:13:08.826000+00:00</time>
      </trkpt>
      <trkpt lat="0" lon="0">
        <time>2020-12-06T10:13:08.845000+00:00</time>
      </trkpt>
      <trkpt lat="0" lon="0">
        <time>2020-12-06T10:13:08.854000+00:00</time>
      </trkpt>
      <trkpt lat="0" lon="0">
        <time>2020-12-06T10:13:08.857000+00:00</time>
      </trkpt>
      <trkpt lat="47.32878" lon="-1.36515">
        <ele>64</ele>
        <time>2020-12-06T10:13:09.816000+00:00</time>
      </trkpt>
      <trkpt lat="0" lon="0">
        <time>2020-12-06T10:13:09.824000+00:00</time>
      </trkpt>
      <trkpt lat="0" lon="0">
        <time>2020-12-06T10:13:09.833000+00:00</time>
      </trkpt>
      <trkpt lat="0" lon="0">
        <time>2020-12-06T10:13:09.839000+00:00</time>
      </trkpt>
      <trkpt lat="47.32881" lon="-1.36521">
        <ele>64</ele>
        <time>2020-12-06T10:13:10.840000+00:00</time>
      </trkpt>
      <trkpt lat="0" lon="0">
        <time>2020-12-06T10:13:10.847000+00:00</time>
      </trkpt>
      <trkpt lat="0" lon="0">
        <time>2020-12-06T10:13:10.850000+00:00</time>
      </trkpt>
      <trkpt lat="0" lon="0">
        <time>2020-12-06T10:13:10.852000+00:00</time>
      </trkpt>
      <trkpt lat="47.32884" lon="-1.36527">
        <ele>64</ele>
        <time>2020-12-06T10:13:11.825000+00:00</time>
      </trkpt>
      <trkpt lat="0" lon="0">
        <time>2020-12-06T10:13:11.829000+00:00</time>
      </trkpt>
      <trkpt lat="0" lon="0">
        <time>2020-12-06T10:13:11.848000+00:00</time>
      </trkpt>
      <trkpt lat="0" lon="0">
        <time>2020-12-06T10:13:11.850000+00:00</time>
      </trkpt>
      <trkpt lat="47.32887" lon="-1.36533">
        <ele>64</ele>
        <time>2020-12-06T10:13:12.830000+00:00</time>
      </trkpt>
      <trkpt lat="0" lon="0">
        <time>2020-12-06T10:13:12.837000+00:00</time>
      </trkpt>
      <trkpt lat="0" lon="0">
        <time>2020-12-06T10:13:12.839000+00:00</time>
      </trkpt>
      <trkpt lat="0" lon="0">
        <time>2020-12-06T10:13:12.840000+00:00</time>
      </trkpt>
      <trkpt lat="47.32891" lon="-1.36537">
        <ele>64</ele>
        <time>2020-12-06T10:13:13.829000+00:00</time>
      </trkpt>
      <trkpt lat="0" lon="0">
        <time>2020-12-06T10:13:13.836000+00:00</time>
      </trkpt>
      <trkpt lat="0" lon="0">
        <time>2020-12-06T10:13:13.845000+00:00</time>
      </trkpt>
      <trkpt lat="0" lon="0">
        <time>2020-12-06T10:13:13.846000+00:00</time>
      </trkpt>
      <trkpt lat="47.32895" lon="-1.36542">
        <ele>64</ele>
        <time>2020-12-06T10:13:14.815000+00:00</time>
      </trkpt>
      <trkpt lat="0" lon="0">
        <time>2020-12-06T10:13:14.818000+00:00</time>
      </trkpt>
      <trkpt lat="0" lon="0">
        <time>2020-12-06T10:13:14.823000+00:00</time>
      </trkpt>
      <trkpt lat="0" lon="0">
        <time>2020-12-06T10:13:14.825000+00:00</time>
      </trkpt>
      <trkpt lat="47.32898" lon="-1.36547">
        <ele>64</ele>
        <time>2020-12-06T10:13:15.790000+00:00</time>
      </trkpt>
      <trkpt lat="0" lon="0">
        <time>2020-12-06T10:13:15.799000+00:00</time>
      </trkpt>
      <trkpt lat="0" lon="0">
        <time>2020-12-06T10:13:15.814000+00:00</time>
      </trkpt>
      <trkpt lat="0" lon="0">
        <time>2020-12-06T10:13:15.815000+00:00</time>
      </trkpt>
      <trkpt lat="47.32902" lon="-1.36551">
        <ele>64</ele>
        <time>2020-12-06T10:13:16.823000+00:00</time>
      </trkpt>
      <trkpt lat="0" lon="0">
        <time>2020-12-06T10:13:16.826000+00:00</time>
      </trkpt>
      <trkpt lat="0" lon="0">
        <time>2020-12-06T10:13:16.835000+00:00</time>
      </trkpt>
      <trkpt lat="0" lon="0">
        <time>2020-12-06T10:13:16.837000+00:00</time>
      </trkpt>
      <trkpt lat="47.32905" lon="-1.36555">
        <ele>64</ele>
        <time>2020-12-06T10:13:17.821000+00:00</time>
      </trkpt>
      <trkpt lat="0" lon="0">
        <time>2020-12-06T10:13:17.832000+00:00</time>
      </trkpt>
      <trkpt lat="0" lon="0">
        <time>2020-12-06T10:13:17.836000+00:00</time>
      </trkpt>
      <trkpt lat="0" lon="0">
        <time>2020-12-06T10:13:17.841000+00:00</time>
      </trkpt>
      <trkpt lat="47.32908" lon="-1.36558">
        <ele>64</ele>
        <time>2020-12-06T10:13:18.829000+00:00</time>
      </trkpt>
      <trkpt lat="0" lon="0">
        <time>2020-12-06T10:13:18.842000+00:00</time>
      </trkpt>
      <trkpt lat="0" lon="0">
        <time>2020-12-06T10:13:18.845000+00:00</time>
      </trkpt>
      <trkpt lat="0" lon="0">
        <time>2020-12-06T10:13:18.847000+00:00</time>
      </trkpt>
      <trkpt lat="47.32912" lon="-1.3656">
        <ele>64</ele>
        <time>2020-12-06T10:13:19.810000+00:00</time>
      </trkpt>
      <trkpt lat="0" lon="0">
        <time>2020-12-06T10:13:19.818000+00:00</time>
      </trkpt>
      <trkpt lat="0" lon="0">
        <time>2020-12-06T10:13:19.821000+00:00</time>
      </trkpt>
      <trkpt lat="0" lon="0">
        <time>2020-12-06T10:13:19.823000+00:00</time>
      </trkpt>
      <trkpt lat="47.32915" lon="-1.36563">
        <ele>63</ele>
        <time>2020-12-06T10:13:20.798000+00:00</time>
      </trkpt>
      <trkpt lat="0" lon="0">
        <time>2020-12-06T10:13:20.805000+00:00</time>
      </trkpt>
      <trkpt lat="0" lon="0">
        <time>2020-12-06T10:13:20.813000+00:00</time>
      </trkpt>
      <trkpt lat="0" lon="0">
        <time>2020-12-06T10:13:20.818000+00:00</time>
      </trkpt>
      <trkpt lat="47.32917" lon="-1.36564">
        <ele>63</ele>
        <time>2020-12-06T10:13:21.836000+00:00</time>
      </trkpt>
      <trkpt lat="0" lon="0">
        <time>2020-12-06T10:13:21.839000+00:00</time>
      </trkpt>
      <trkpt lat="0" lon="0">
        <time>2020-12-06T10:13:21.844000+00:00</time>
      </trkpt>
      <trkpt lat="0" lon="0">
        <time>2020-12-06T10:13:21.846000+00:00</time>
      </trkpt>
      <trkpt lat="47.3292" lon="-1.36566">
        <ele>63</ele>
        <time>2020-12-06T10:13:22.821000+00:00</time>
      </trkpt>
      <trkpt lat="0" lon="0">
        <time>2020-12-06T10:13:22.835000+00:00</time>
      </trkpt>
      <trkpt lat="0" lon="0">
        <time>2020-12-06T10:13:22.842000+00:00</time>
      </trkpt>
      <trkpt lat="0" lon="0">
        <time>2020-12-06T10:13:22.845000+00:00</time>
      </trkpt>
      <trkpt lat="47.32922" lon="-1.36567">
        <ele>63</ele>
        <time>2020-12-06T10:13:23.845000+00:00</time>
      </trkpt>
      <trkpt lat="0" lon="0">
        <time>2020-12-06T10:13:23.854000+00:00</time>
      </trkpt>
      <trkpt lat="0" lon="0">
        <time>2020-12-06T10:13:23.865000+00:00</time>
      </trkpt>
      <trkpt lat="0" lon="0">
        <time>2020-12-06T10:13:23.868000+00:00</time>
      </trkpt>
      <trkpt lat="47.32925" lon="-1.36568">
        <ele>63</ele>
        <time>2020-12-06T10:13:24.808000+00:00</time>
      </trkpt>
      <trkpt lat="0" lon="0">
        <time>2020-12-06T10:13:24.817000+00:00</time>
      </trkpt>
      <trkpt lat="0" lon="0">
        <time>2020-12-06T10:13:24.829000+00:00</time>
      </trkpt>
      <trkpt lat="0" lon="0">
        <time>2020-12-06T10:13:24.831000+00:00</time>
      </trkpt>
      <trkpt lat="47.32927" lon="-1.36569">
        <ele>63</ele>
        <time>2020-12-06T10:13:25.838000+00:00</time>
      </trkpt>
      <trkpt lat="0" lon="0">
        <time>2020-12-06T10:13:25.842000+00:00</time>
      </trkpt>
      <trkpt lat="0" lon="0">
        <time>2020-12-06T10:13:25.851000+00:00</time>
      </trkpt>
      <trkpt lat="0" lon="0">
        <time>2020-12-06T10:13:25.852000+00:00</time>
      </trkpt>
      <trkpt lat="47.32929" lon="-1.3657">
        <ele>63</ele>
        <time>2020-12-06T10:13:26.820000+00:00</time>
      </trkpt>
      <trkpt lat="0" lon="0">
        <time>2020-12-06T10:13:26.823000+00:00</time>
      </trkpt>
      <trkpt lat="0" lon="0">
        <time>2020-12-06T10:13:26.827000+00:00</time>
      </trkpt>
      <trkpt lat="0" lon="0">
        <time>2020-12-06T10:13:26.828000+00:00</time>
      </trkpt>
      <trkpt lat="47.32931" lon="-1.36571">
        <ele>63</ele>
        <time>2020-12-06T10:13:27.812000+00:00</time>
      </trkpt>
      <trkpt lat="0" lon="0">
        <time>2020-12-06T10:13:27.827000+00:00</time>
      </trkpt>
      <trkpt lat="0" lon="0">
        <time>2020-12-06T10:13:27.830000+00:00</time>
      </trkpt>
      <trkpt lat="0" lon="0">
        <time>2020-12-06T10:13:27.832000+00:00</time>
      </trkpt>
      <trkpt lat="47.32933" lon="-1.36572">
        <ele>62</ele>
        <time>2020-12-06T10:13:28.823000+00:00</time>
      </trkpt>
      <trkpt lat="0" lon="0">
        <time>2020-12-06T10:13:28.827000+00:00</time>
      </trkpt>
      <trkpt lat="0" lon="0">
        <time>2020-12-06T10:13:28.842000+00:00</time>
      </trkpt>
      <trkpt lat="0" lon="0">
        <time>2020-12-06T10:13:28.843000+00:00</time>
      </trkpt>
      <trkpt lat="47.32935" lon="-1.36574">
        <ele>62</ele>
        <time>2020-12-06T10:13:29.813000+00:00</time>
      </trkpt>
      <trkpt lat="0" lon="0">
        <time>2020-12-06T10:13:29.830000+00:00</time>
      </trkpt>
      <trkpt lat="0" lon="0">
        <time>2020-12-06T10:13:29.833000+00:00</time>
      </trkpt>
      <trkpt lat="0" lon="0">
        <time>2020-12-06T10:13:29.835000+00:00</time>
      </trkpt>
      <trkpt lat="47.32937" lon="-1.36576">
        <ele>62</ele>
        <time>2020-12-06T10:13:30.794000+00:00</time>
      </trkpt>
      <trkpt lat="0" lon="0">
        <time>2020-12-06T10:13:30.797000+00:00</time>
      </trkpt>
      <trkpt lat="0" lon="0">
        <time>2020-12-06T10:13:30.808000+00:00</time>
      </trkpt>
      <trkpt lat="0" lon="0">
        <time>2020-12-06T10:13:30.810000+00:00</time>
      </trkpt>
      <trkpt lat="47.32939" lon="-1.36579">
        <ele>62</ele>
        <time>2020-12-06T10:13:31.825000+00:00</time>
      </trkpt>
      <trkpt lat="0" lon="0">
        <time>2020-12-06T10:13:31.830000+00:00</time>
      </trkpt>
      <trkpt lat="0" lon="0">
        <time>2020-12-06T10:13:31.833000+00:00</time>
      </trkpt>
      <trkpt lat="0" lon="0">
        <time>2020-12-06T10:13:31.834000+00:00</time>
      </trkpt>
      <trkpt lat="47.32941" lon="-1.36582">
        <ele>62</ele>
        <time>2020-12-06T10:13:32.843000+00:00</time>
      </trkpt>
      <trkpt lat="0" lon="0">
        <time>2020-12-06T10:13:32.852000+00:00</time>
      </trkpt>
      <trkpt lat="0" lon="0">
        <time>2020-12-06T10:13:32.860000+00:00</time>
      </trkpt>
      <trkpt lat="0" lon="0">
        <time>2020-12-06T10:13:32.869000+00:00</time>
      </trkpt>
      <trkpt lat="47.32943" lon="-1.36586">
        <ele>62</ele>
        <time>2020-12-06T10:13:33.805000+00:00</time>
      </trkpt>
      <trkpt lat="0" lon="0">
        <time>2020-12-06T10:13:33.814000+00:00</time>
      </trkpt>
      <trkpt lat="0" lon="0">
        <time>2020-12-06T10:13:33.819000+00:00</time>
      </trkpt>
      <trkpt lat="0" lon="0">
        <time>2020-12-06T10:13:33.822000+00:00</time>
      </trkpt>
      <trkpt lat="47.32945" lon="-1.3659">
        <ele>62</ele>
        <time>2020-12-06T10:13:34.820000+00:00</time>
      </trkpt>
      <trkpt lat="0" lon="0">
        <time>2020-12-06T10:13:34.834000+00:00</time>
      </trkpt>
      <trkpt lat="0" lon="0">
        <time>2020-12-06T10:13:34.837000+00:00</time>
      </trkpt>
      <trkpt lat="0" lon="0">
        <time>2020-12-06T10:13:34.841000+00:00</time>
      </trkpt>
      <trkpt lat="47.32947" lon="-1.36595">
        <ele>62</ele>
        <time>2020-12-06T10:13:35.829000+00:00</time>
      </trkpt>
      <trkpt lat="0" lon="0">
        <time>2020-12-06T10:13:35.840000+00:00</time>
      </trkpt>
      <trkpt lat="0" lon="0">
        <time>2020-12-06T10:13:35.843000+00:00</time>
      </trkpt>
      <trkpt lat="0" lon="0">
        <time>2020-12-06T10:13:35.845000+00:00</time>
      </trkpt>
      <trkpt lat="47.32949" lon="-1.36599">
        <ele>62</ele>
        <time>2020-12-06T10:13:36.826000+00:00</time>
      </trkpt>
      <trkpt lat="0" lon="0">
        <time>2020-12-06T10:13:36.843000+00:00</time>
      </trkpt>
      <trkpt lat="0" lon="0">
        <time>2020-12-06T10:13:36.847000+00:00</time>
      </trkpt>
      <trkpt lat="0" lon="0">
        <time>2020-12-06T10:13:36.850000+00:00</time>
      </trkpt>
      <trkpt lat="47.32951" lon="-1.36604">
        <ele>62</ele>
        <time>2020-12-06T10:13:37.828000+00:00</time>
      </trkpt>
      <trkpt lat="0" lon="0">
        <time>2020-12-06T10:13:37.837000+00:00</time>
      </trkpt>
      <trkpt lat="0" lon="0">
        <time>2020-12-06T10:13:37.840000+00:00</time>
      </trkpt>
      <trkpt lat="0" lon="0">
        <time>2020-12-06T10:13:37.847000+00:00</time>
      </trkpt>
      <trkpt lat="47.32954" lon="-1.36609">
        <ele>62</ele>
        <time>2020-12-06T10:13:38.839000+00:00</time>
      </trkpt>
      <trkpt lat="0" lon="0">
        <time>2020-12-06T10:13:38.842000+00:00</time>
      </trkpt>
      <trkpt lat="0" lon="0">
        <time>2020-12-06T10:13:38.845000+00:00</time>
      </trkpt>
      <trkpt lat="0" lon="0">
        <time>2020-12-06T10:13:38.847000+00:00</time>
      </trkpt>
      <trkpt lat="47.32956" lon="-1.36614">
        <ele>62</ele>
        <time>2020-12-06T10:13:39.818000+00:00</time>
      </trkpt>
      <trkpt lat="0" lon="0">
        <time>2020-12-06T10:13:39.826000+00:00</time>
      </trkpt>
      <trkpt lat="0" lon="0">
        <time>2020-12-06T10:13:39.829000+00:00</time>
      </trkpt>
      <trkpt lat="0" lon="0">
        <time>2020-12-06T10:13:39.838000+00:00</time>
      </trkpt>
      <trkpt lat="47.32958" lon="-1.36618">
        <ele>62</ele>
        <time>2020-12-06T10:13:40.775000+00:00</time>
      </trkpt>
      <trkpt lat="0" lon="0">
        <time>2020-12-06T10:13:40.785000+00:00</time>
      </trkpt>
      <trkpt lat="0" lon="0">
        <time>2020-12-06T10:13:40.786000+00:00</time>
      </trkpt>
      <trkpt lat="0" lon="0">
        <time>2020-12-06T10:13:40.787000+00:00</time>
      </trkpt>
      <trkpt lat="47.3296" lon="-1.36623">
        <ele>62</ele>
        <time>2020-12-06T10:13:41.813000+00:00</time>
      </trkpt>
      <trkpt lat="0" lon="0">
        <time>2020-12-06T10:13:41.816000+00:00</time>
      </trkpt>
      <trkpt lat="0" lon="0">
        <time>2020-12-06T10:13:41.827000+00:00</time>
      </trkpt>
      <trkpt lat="0" lon="0">
        <time>2020-12-06T10:13:41.830000+00:00</time>
      </trkpt>
      <trkpt lat="47.32962" lon="-1.36628">
        <ele>63</ele>
        <time>2020-12-06T10:13:42.834000+00:00</time>
      </trkpt>
      <trkpt lat="0" lon="0">
        <time>2020-12-06T10:13:42.842000+00:00</time>
      </trkpt>
      <trkpt lat="0" lon="0">
        <time>2020-12-06T10:13:42.855000+00:00</time>
      </trkpt>
      <trkpt lat="0" lon="0">
        <time>2020-12-06T10:13:42.858000+00:00</time>
      </trkpt>
      <trkpt lat="47.32965" lon="-1.36632">
        <ele>63</ele>
        <time>2020-12-06T10:13:43.788000+00:00</time>
      </trkpt>
      <trkpt lat="0" lon="0">
        <time>2020-12-06T10:13:43.790000+00:00</time>
      </trkpt>
      <trkpt lat="0" lon="0">
        <time>2020-12-06T10:13:43.791000+00:00</time>
      </trkpt>
      <trkpt lat="47.32967" lon="-1.36637">
        <ele>63</ele>
        <time>2020-12-06T10:13:44.772000+00:00</time>
      </trkpt>
      <trkpt lat="0" lon="0">
        <time>2020-12-06T10:13:44.773000+00:00</time>
      </trkpt>
      <trkpt lat="0" lon="0">
        <time>2020-12-06T10:13:44.775000+00:00</time>
      </trkpt>
      <trkpt lat="47.32969" lon="-1.36641">
        <ele>63</ele>
        <time>2020-12-06T10:13:45.786000+00:00</time>
      </trkpt>
      <trkpt lat="0" lon="0">
        <time>2020-12-06T10:13:45.792000+00:00</time>
      </trkpt>
      <trkpt lat="0" lon="0">
        <time>2020-12-06T10:13:45.794000+00:00</time>
      </trkpt>
      <trkpt lat="0" lon="0">
        <time>2020-12-06T10:13:45.797000+00:00</time>
      </trkpt>
      <trkpt lat="47.32971" lon="-1.36646">
        <ele>63</ele>
        <time>2020-12-06T10:13:46.762000+00:00</time>
      </trkpt>
      <trkpt lat="0" lon="0">
        <time>2020-12-06T10:13:46.771000+00:00</time>
      </trkpt>
      <trkpt lat="0" lon="0">
        <time>2020-12-06T10:13:46.772000+00:00</time>
      </trkpt>
      <trkpt lat="0" lon="0">
        <time>2020-12-06T10:13:46.773000+00:00</time>
      </trkpt>
      <trkpt lat="47.32973" lon="-1.3665">
        <ele>63</ele>
        <time>2020-12-06T10:13:47.771000+00:00</time>
      </trkpt>
      <trkpt lat="0" lon="0">
        <time>2020-12-06T10:13:47.773000+00:00</time>
      </trkpt>
      <trkpt lat="0" lon="0">
        <time>2020-12-06T10:13:47.774000+00:00</time>
      </trkpt>
      <trkpt lat="0" lon="0">
        <time>2020-12-06T10:13:47.775000+00:00</time>
      </trkpt>
      <trkpt lat="47.32975" lon="-1.36654">
        <ele>63</ele>
        <time>2020-12-06T10:13:48.775000+00:00</time>
      </trkpt>
      <trkpt lat="0" lon="0">
        <time>2020-12-06T10:13:48.782000+00:00</time>
      </trkpt>
      <trkpt lat="0" lon="0">
        <time>2020-12-06T10:13:48.789000+00:00</time>
      </trkpt>
      <trkpt lat="0" lon="0">
        <time>2020-12-06T10:13:48.791000+00:00</time>
      </trkpt>
      <trkpt lat="47.32977" lon="-1.36658">
        <ele>63</ele>
        <time>2020-12-06T10:13:49.807000+00:00</time>
      </trkpt>
      <trkpt lat="0" lon="0">
        <time>2020-12-06T10:13:49.812000+00:00</time>
      </trkpt>
      <trkpt lat="0" lon="0">
        <time>2020-12-06T10:13:49.818000+00:00</time>
      </trkpt>
      <trkpt lat="0" lon="0">
        <time>2020-12-06T10:13:49.820000+00:00</time>
      </trkpt>
      <trkpt lat="47.32979" lon="-1.36662">
        <ele>63</ele>
        <time>2020-12-06T10:13:50.852000+00:00</time>
      </trkpt>
      <trkpt lat="0" lon="0">
        <time>2020-12-06T10:13:50.871000+00:00</time>
      </trkpt>
      <trkpt lat="0" lon="0">
        <time>2020-12-06T10:13:50.879000+00:00</time>
      </trkpt>
      <trkpt lat="0" lon="0">
        <time>2020-12-06T10:13:50.882000+00:00</time>
      </trkpt>
      <trkpt lat="47.32981" lon="-1.36667">
        <ele>63</ele>
        <time>2020-12-06T10:13:51.837000+00:00</time>
      </trkpt>
      <trkpt lat="0" lon="0">
        <time>2020-12-06T10:13:51.841000+00:00</time>
      </trkpt>
      <trkpt lat="0" lon="0">
        <time>2020-12-06T10:13:51.849000+00:00</time>
      </trkpt>
      <trkpt lat="0" lon="0">
        <time>2020-12-06T10:13:51.850000+00:00</time>
      </trkpt>
      <trkpt lat="47.32983" lon="-1.36671">
        <ele>63</ele>
        <time>2020-12-06T10:13:52.824000+00:00</time>
      </trkpt>
      <trkpt lat="0" lon="0">
        <time>2020-12-06T10:13:52.831000+00:00</time>
      </trkpt>
      <trkpt lat="0" lon="0">
        <time>2020-12-06T10:13:52.844000+00:00</time>
      </trkpt>
      <trkpt lat="0" lon="0">
        <time>2020-12-06T10:13:52.846000+00:00</time>
      </trkpt>
      <trkpt lat="47.32985" lon="-1.36675">
        <ele>63</ele>
        <time>2020-12-06T10:13:53.788000+00:00</time>
      </trkpt>
      <trkpt lat="0" lon="0">
        <time>2020-12-06T10:13:53.797000+00:00</time>
      </trkpt>
      <trkpt lat="0" lon="0">
        <time>2020-12-06T10:13:53.801000+00:00</time>
      </trkpt>
      <trkpt lat="0" lon="0">
        <time>2020-12-06T10:13:53.803000+00:00</time>
      </trkpt>
      <trkpt lat="47.32987" lon="-1.36679">
        <ele>63</ele>
        <time>2020-12-06T10:13:54.831000+00:00</time>
      </trkpt>
      <trkpt lat="0" lon="0">
        <time>2020-12-06T10:13:54.848000+00:00</time>
      </trkpt>
      <trkpt lat="0" lon="0">
        <time>2020-12-06T10:13:54.860000+00:00</time>
      </trkpt>
      <trkpt lat="0" lon="0">
        <time>2020-12-06T10:13:54.862000+00:00</time>
      </trkpt>
      <trkpt lat="47.32989" lon="-1.36684">
        <ele>63</ele>
        <time>2020-12-06T10:13:55.777000+00:00</time>
      </trkpt>
      <trkpt lat="0" lon="0">
        <time>2020-12-06T10:13:55.782000+00:00</time>
      </trkpt>
      <trkpt lat="0" lon="0">
        <time>2020-12-06T10:13:55.785000+00:00</time>
      </trkpt>
      <trkpt lat="47.32991" lon="-1.36688">
        <ele>63</ele>
        <time>2020-12-06T10:13:56.827000+00:00</time>
      </trkpt>
      <trkpt lat="0" lon="0">
        <time>2020-12-06T10:13:56.833000+00:00</time>
      </trkpt>
      <trkpt lat="0" lon="0">
        <time>2020-12-06T10:13:56.847000+00:00</time>
      </trkpt>
      <trkpt lat="0" lon="0">
        <time>2020-12-06T10:13:56.849000+00:00</time>
      </trkpt>
      <trkpt lat="47.32993" lon="-1.36692">
        <ele>63</ele>
        <time>2020-12-06T10:13:57.820000+00:00</time>
      </trkpt>
      <trkpt lat="0" lon="0">
        <time>2020-12-06T10:13:57.829000+00:00</time>
      </trkpt>
      <trkpt lat="0" lon="0">
        <time>2020-12-06T10:13:57.833000+00:00</time>
      </trkpt>
      <trkpt lat="0" lon="0">
        <time>2020-12-06T10:13:57.836000+00:00</time>
      </trkpt>
      <trkpt lat="47.32995" lon="-1.36696">
        <ele>63</ele>
        <time>2020-12-06T10:13:58.783000+00:00</time>
      </trkpt>
      <trkpt lat="0" lon="0">
        <time>2020-12-06T10:13:58.786000+00:00</time>
      </trkpt>
      <trkpt lat="0" lon="0">
        <time>2020-12-06T10:13:58.797000+00:00</time>
      </trkpt>
      <trkpt lat="0" lon="0">
        <time>2020-12-06T10:13:58.798000+00:00</time>
      </trkpt>
      <trkpt lat="47.32998" lon="-1.367">
        <ele>63</ele>
        <time>2020-12-06T10:13:59.791000+00:00</time>
      </trkpt>
      <trkpt lat="0" lon="0">
        <time>2020-12-06T10:13:59.809000+00:00</time>
      </trkpt>
      <trkpt lat="0" lon="0">
        <time>2020-12-06T10:13:59.822000+00:00</time>
      </trkpt>
      <trkpt lat="0" lon="0">
        <time>2020-12-06T10:13:59.828000+00:00</time>
      </trkpt>
      <trkpt lat="47.33" lon="-1.36704">
        <ele>62</ele>
        <time>2020-12-06T10:14:00.801000+00:00</time>
      </trkpt>
      <trkpt lat="0" lon="0">
        <time>2020-12-06T10:14:00.805000+00:00</time>
      </trkpt>
      <trkpt lat="0" lon="0">
        <time>2020-12-06T10:14:00.807000+00:00</time>
      </trkpt>
      <trkpt lat="0" lon="0">
        <time>2020-12-06T10:14:00.811000+00:00</time>
      </trkpt>
      <trkpt lat="47.33003" lon="-1.36708">
        <ele>62</ele>
        <time>2020-12-06T10:14:01.810000+00:00</time>
      </trkpt>
      <trkpt lat="0" lon="0">
        <time>2020-12-06T10:14:01.819000+00:00</time>
      </trkpt>
      <trkpt lat="0" lon="0">
        <time>2020-12-06T10:14:01.825000+00:00</time>
      </trkpt>
      <trkpt lat="0" lon="0">
        <time>2020-12-06T10:14:01.829000+00:00</time>
      </trkpt>
      <trkpt lat="47.33006" lon="-1.36711">
        <ele>62</ele>
        <time>2020-12-06T10:14:02.835000+00:00</time>
      </trkpt>
      <trkpt lat="0" lon="0">
        <time>2020-12-06T10:14:02.839000+00:00</time>
      </trkpt>
      <trkpt lat="0" lon="0">
        <time>2020-12-06T10:14:02.846000+00:00</time>
      </trkpt>
      <trkpt lat="0" lon="0">
        <time>2020-12-06T10:14:02.848000+00:00</time>
      </trkpt>
      <trkpt lat="47.33008" lon="-1.36715">
        <ele>62</ele>
        <time>2020-12-06T10:14:03.810000+00:00</time>
      </trkpt>
      <trkpt lat="0" lon="0">
        <time>2020-12-06T10:14:03.813000+00:00</time>
      </trkpt>
      <trkpt lat="0" lon="0">
        <time>2020-12-06T10:14:03.824000+00:00</time>
      </trkpt>
      <trkpt lat="0" lon="0">
        <time>2020-12-06T10:14:03.828000+00:00</time>
      </trkpt>
      <trkpt lat="47.33011" lon="-1.36718">
        <ele>62</ele>
        <time>2020-12-06T10:14:04.843000+00:00</time>
      </trkpt>
      <trkpt lat="0" lon="0">
        <time>2020-12-06T10:14:04.853000+00:00</time>
      </trkpt>
      <trkpt lat="0" lon="0">
        <time>2020-12-06T10:14:04.857000+00:00</time>
      </trkpt>
      <trkpt lat="0" lon="0">
        <time>2020-12-06T10:14:04.858000+00:00</time>
      </trkpt>
      <trkpt lat="47.33014" lon="-1.36722">
        <ele>62</ele>
        <time>2020-12-06T10:14:05.829000+00:00</time>
      </trkpt>
      <trkpt lat="0" lon="0">
        <time>2020-12-06T10:14:05.840000+00:00</time>
      </trkpt>
      <trkpt lat="0" lon="0">
        <time>2020-12-06T10:14:05.844000+00:00</time>
      </trkpt>
      <trkpt lat="0" lon="0">
        <time>2020-12-06T10:14:05.846000+00:00</time>
      </trkpt>
      <trkpt lat="47.33018" lon="-1.36725">
        <ele>62</ele>
        <time>2020-12-06T10:14:06.829000+00:00</time>
      </trkpt>
      <trkpt lat="0" lon="0">
        <time>2020-12-06T10:14:06.833000+00:00</time>
      </trkpt>
      <trkpt lat="0" lon="0">
        <time>2020-12-06T10:14:06.838000+00:00</time>
      </trkpt>
      <trkpt lat="0" lon="0">
        <time>2020-12-06T10:14:06.840000+00:00</time>
      </trkpt>
      <trkpt lat="47.33021" lon="-1.36729">
        <ele>62</ele>
        <time>2020-12-06T10:14:07.830000+00:00</time>
      </trkpt>
      <trkpt lat="0" lon="0">
        <time>2020-12-06T10:14:07.845000+00:00</time>
      </trkpt>
      <trkpt lat="0" lon="0">
        <time>2020-12-06T10:14:07.853000+00:00</time>
      </trkpt>
      <trkpt lat="0" lon="0">
        <time>2020-12-06T10:14:07.856000+00:00</time>
      </trkpt>
      <trkpt lat="47.33025" lon="-1.36732">
        <ele>62</ele>
        <time>2020-12-06T10:14:08.846000+00:00</time>
      </trkpt>
      <trkpt lat="0" lon="0">
        <time>2020-12-06T10:14:08.853000+00:00</time>
      </trkpt>
      <trkpt lat="0" lon="0">
        <time>2020-12-06T10:14:08.863000+00:00</time>
      </trkpt>
      <trkpt lat="0" lon="0">
        <time>2020-12-06T10:14:08.865000+00:00</time>
      </trkpt>
      <trkpt lat="47.33028" lon="-1.36735">
        <ele>61</ele>
        <time>2020-12-06T10:14:09.829000+00:00</time>
      </trkpt>
      <trkpt lat="0" lon="0">
        <time>2020-12-06T10:14:09.832000+00:00</time>
      </trkpt>
      <trkpt lat="0" lon="0">
        <time>2020-12-06T10:14:09.847000+00:00</time>
      </trkpt>
      <trkpt lat="0" lon="0">
        <time>2020-12-06T10:14:09.848000+00:00</time>
      </trkpt>
      <trkpt lat="47.33032" lon="-1.36738">
        <ele>61</ele>
        <time>2020-12-06T10:14:10.767000+00:00</time>
      </trkpt>
      <trkpt lat="0" lon="0">
        <time>2020-12-06T10:14:10.768000+00:00</time>
      </trkpt>
      <trkpt lat="0" lon="0">
        <time>2020-12-06T10:14:10.769000+00:00</time>
      </trkpt>
      <trkpt lat="47.33036" lon="-1.36741">
        <ele>61</ele>
        <time>2020-12-06T10:14:11.857000+00:00</time>
      </trkpt>
      <trkpt lat="0" lon="0">
        <time>2020-12-06T10:14:11.870000+00:00</time>
      </trkpt>
      <trkpt lat="0" lon="0">
        <time>2020-12-06T10:14:11.878000+00:00</time>
      </trkpt>
      <trkpt lat="0" lon="0">
        <time>2020-12-06T10:14:11.887000+00:00</time>
      </trkpt>
      <trkpt lat="47.3304" lon="-1.36743">
        <ele>61</ele>
        <time>2020-12-06T10:14:12.843000+00:00</time>
      </trkpt>
      <trkpt lat="0" lon="0">
        <time>2020-12-06T10:14:12.855000+00:00</time>
      </trkpt>
      <trkpt lat="0" lon="0">
        <time>2020-12-06T10:14:12.863000+00:00</time>
      </trkpt>
      <trkpt lat="0" lon="0">
        <time>2020-12-06T10:14:12.865000+00:00</time>
      </trkpt>
      <trkpt lat="47.33044" lon="-1.36746">
        <ele>61</ele>
        <time>2020-12-06T10:14:13.786000+00:00</time>
      </trkpt>
      <trkpt lat="0" lon="0">
        <time>2020-12-06T10:14:13.790000+00:00</time>
      </trkpt>
      <trkpt lat="0" lon="0">
        <time>2020-12-06T10:14:13.791000+00:00</time>
      </trkpt>
      <trkpt lat="0" lon="0">
        <time>2020-12-06T10:14:13.792000+00:00</time>
      </trkpt>
      <trkpt lat="47.33047" lon="-1.36749">
        <ele>61</ele>
        <time>2020-12-06T10:14:14.780000+00:00</time>
      </trkpt>
      <trkpt lat="0" lon="0">
        <time>2020-12-06T10:14:14.783000+00:00</time>
      </trkpt>
      <trkpt lat="0" lon="0">
        <time>2020-12-06T10:14:14.791000+00:00</time>
      </trkpt>
      <trkpt lat="0" lon="0">
        <time>2020-12-06T10:14:14.794000+00:00</time>
      </trkpt>
      <trkpt lat="47.3305" lon="-1.36752">
        <ele>61</ele>
        <time>2020-12-06T10:14:15.795000+00:00</time>
      </trkpt>
      <trkpt lat="0" lon="0">
        <time>2020-12-06T10:14:15.814000+00:00</time>
      </trkpt>
      <trkpt lat="0" lon="0">
        <time>2020-12-06T10:14:15.824000+00:00</time>
      </trkpt>
      <trkpt lat="0" lon="0">
        <time>2020-12-06T10:14:15.826000+00:00</time>
      </trkpt>
      <trkpt lat="47.33054" lon="-1.36754">
        <ele>61</ele>
        <time>2020-12-06T10:14:16.802000+00:00</time>
      </trkpt>
      <trkpt lat="0" lon="0">
        <time>2020-12-06T10:14:16.806000+00:00</time>
      </trkpt>
      <trkpt lat="0" lon="0">
        <time>2020-12-06T10:14:16.809000+00:00</time>
      </trkpt>
      <trkpt lat="0" lon="0">
        <time>2020-12-06T10:14:16.813000+00:00</time>
      </trkpt>
      <trkpt lat="47.33057" lon="-1.36758">
        <ele>61</ele>
        <time>2020-12-06T10:14:17.804000+00:00</time>
      </trkpt>
      <trkpt lat="0" lon="0">
        <time>2020-12-06T10:14:17.809000+00:00</time>
      </trkpt>
      <trkpt lat="0" lon="0">
        <time>2020-12-06T10:14:17.818000+00:00</time>
      </trkpt>
      <trkpt lat="0" lon="0">
        <time>2020-12-06T10:14:17.820000+00:00</time>
      </trkpt>
      <trkpt lat="47.3306" lon="-1.36761">
        <ele>61</ele>
        <time>2020-12-06T10:14:19.048000+00:00</time>
      </trkpt>
      <trkpt lat="0" lon="0">
        <time>2020-12-06T10:14:19.053000+00:00</time>
      </trkpt>
      <trkpt lat="0" lon="0">
        <time>2020-12-06T10:14:19.056000+00:00</time>
      </trkpt>
      <trkpt lat="0" lon="0">
        <time>2020-12-06T10:14:19.058000+00:00</time>
      </trkpt>
      <trkpt lat="47.33063" lon="-1.36763">
        <ele>61</ele>
        <time>2020-12-06T10:14:19.827000+00:00</time>
      </trkpt>
      <trkpt lat="0" lon="0">
        <time>2020-12-06T10:14:19.835000+00:00</time>
      </trkpt>
      <trkpt lat="0" lon="0">
        <time>2020-12-06T10:14:19.844000+00:00</time>
      </trkpt>
      <trkpt lat="0" lon="0">
        <time>2020-12-06T10:14:19.846000+00:00</time>
      </trkpt>
      <trkpt lat="47.33066" lon="-1.36766">
        <ele>61</ele>
        <time>2020-12-06T10:14:20.833000+00:00</time>
      </trkpt>
      <trkpt lat="0" lon="0">
        <time>2020-12-06T10:14:20.836000+00:00</time>
      </trkpt>
      <trkpt lat="0" lon="0">
        <time>2020-12-06T10:14:20.843000+00:00</time>
      </trkpt>
      <trkpt lat="0" lon="0">
        <time>2020-12-06T10:14:20.845000+00:00</time>
      </trkpt>
      <trkpt lat="47.33069" lon="-1.36768">
        <ele>61</ele>
        <time>2020-12-06T10:14:21.803000+00:00</time>
      </trkpt>
      <trkpt lat="0" lon="0">
        <time>2020-12-06T10:14:21.807000+00:00</time>
      </trkpt>
      <trkpt lat="0" lon="0">
        <time>2020-12-06T10:14:21.811000+00:00</time>
      </trkpt>
      <trkpt lat="0" lon="0">
        <time>2020-12-06T10:14:21.813000+00:00</time>
      </trkpt>
      <trkpt lat="47.33072" lon="-1.3677">
        <ele>61</ele>
        <time>2020-12-06T10:14:22.844000+00:00</time>
      </trkpt>
      <trkpt lat="0" lon="0">
        <time>2020-12-06T10:14:22.847000+00:00</time>
      </trkpt>
      <trkpt lat="0" lon="0">
        <time>2020-12-06T10:14:22.853000+00:00</time>
      </trkpt>
      <trkpt lat="0" lon="0">
        <time>2020-12-06T10:14:22.855000+00:00</time>
      </trkpt>
      <trkpt lat="47.33074" lon="-1.36772">
        <ele>61</ele>
        <time>2020-12-06T10:14:23.866000+00:00</time>
      </trkpt>
      <trkpt lat="0" lon="0">
        <time>2020-12-06T10:14:23.881000+00:00</time>
      </trkpt>
      <trkpt lat="0" lon="0">
        <time>2020-12-06T10:14:23.884000+00:00</time>
      </trkpt>
      <trkpt lat="0" lon="0">
        <time>2020-12-06T10:14:23.885000+00:00</time>
      </trkpt>
      <trkpt lat="47.33077" lon="-1.36774">
        <ele>61</ele>
        <time>2020-12-06T10:14:24.840000+00:00</time>
      </trkpt>
      <trkpt lat="0" lon="0">
        <time>2020-12-06T10:14:24.849000+00:00</time>
      </trkpt>
      <trkpt lat="0" lon="0">
        <time>2020-12-06T10:14:24.856000+00:00</time>
      </trkpt>
      <trkpt lat="0" lon="0">
        <time>2020-12-06T10:14:24.860000+00:00</time>
      </trkpt>
      <trkpt lat="47.3308" lon="-1.36776">
        <ele>61</ele>
        <time>2020-12-06T10:14:25.822000+00:00</time>
      </trkpt>
      <trkpt lat="0" lon="0">
        <time>2020-12-06T10:14:25.841000+00:00</time>
      </trkpt>
      <trkpt lat="0" lon="0">
        <time>2020-12-06T10:14:25.845000+00:00</time>
      </trkpt>
      <trkpt lat="0" lon="0">
        <time>2020-12-06T10:14:25.847000+00:00</time>
      </trkpt>
      <trkpt lat="47.33083" lon="-1.36778">
        <ele>61</ele>
        <time>2020-12-06T10:14:26.803000+00:00</time>
      </trkpt>
      <trkpt lat="0" lon="0">
        <time>2020-12-06T10:14:26.808000+00:00</time>
      </trkpt>
      <trkpt lat="0" lon="0">
        <time>2020-12-06T10:14:26.812000+00:00</time>
      </trkpt>
      <trkpt lat="0" lon="0">
        <time>2020-12-06T10:14:26.814000+00:00</time>
      </trkpt>
      <trkpt lat="47.33085" lon="-1.36779">
        <ele>61</ele>
        <time>2020-12-06T10:14:27.809000+00:00</time>
      </trkpt>
      <trkpt lat="0" lon="0">
        <time>2020-12-06T10:14:27.817000+00:00</time>
      </trkpt>
      <trkpt lat="0" lon="0">
        <time>2020-12-06T10:14:27.829000+00:00</time>
      </trkpt>
      <trkpt lat="0" lon="0">
        <time>2020-12-06T10:14:27.831000+00:00</time>
      </trkpt>
      <trkpt lat="47.33088" lon="-1.36781">
        <ele>61</ele>
        <time>2020-12-06T10:14:28.786000+00:00</time>
      </trkpt>
      <trkpt lat="0" lon="0">
        <time>2020-12-06T10:14:28.794000+00:00</time>
      </trkpt>
      <trkpt lat="0" lon="0">
        <time>2020-12-06T10:14:28.798000+00:00</time>
      </trkpt>
      <trkpt lat="0" lon="0">
        <time>2020-12-06T10:14:28.800000+00:00</time>
      </trkpt>
      <trkpt lat="47.3309" lon="-1.36783">
        <ele>61</ele>
        <time>2020-12-06T10:14:29.818000+00:00</time>
      </trkpt>
      <trkpt lat="0" lon="0">
        <time>2020-12-06T10:14:29.821000+00:00</time>
      </trkpt>
      <trkpt lat="0" lon="0">
        <time>2020-12-06T10:14:29.843000+00:00</time>
      </trkpt>
      <trkpt lat="0" lon="0">
        <time>2020-12-06T10:14:29.845000+00:00</time>
      </trkpt>
      <trkpt lat="47.33093" lon="-1.36785">
        <ele>61</ele>
        <time>2020-12-06T10:14:30.830000+00:00</time>
      </trkpt>
      <trkpt lat="0" lon="0">
        <time>2020-12-06T10:14:30.838000+00:00</time>
      </trkpt>
      <trkpt lat="0" lon="0">
        <time>2020-12-06T10:14:30.841000+00:00</time>
      </trkpt>
      <trkpt lat="0" lon="0">
        <time>2020-12-06T10:14:30.845000+00:00</time>
      </trkpt>
      <trkpt lat="47.33095" lon="-1.36787">
        <ele>62</ele>
        <time>2020-12-06T10:14:31.818000+00:00</time>
      </trkpt>
      <trkpt lat="0" lon="0">
        <time>2020-12-06T10:14:31.825000+00:00</time>
      </trkpt>
      <trkpt lat="0" lon="0">
        <time>2020-12-06T10:14:31.836000+00:00</time>
      </trkpt>
      <trkpt lat="0" lon="0">
        <time>2020-12-06T10:14:31.838000+00:00</time>
      </trkpt>
      <trkpt lat="47.33098" lon="-1.36789">
        <ele>62</ele>
        <time>2020-12-06T10:14:32.819000+00:00</time>
      </trkpt>
      <trkpt lat="0" lon="0">
        <time>2020-12-06T10:14:32.822000+00:00</time>
      </trkpt>
      <trkpt lat="0" lon="0">
        <time>2020-12-06T10:14:32.825000+00:00</time>
      </trkpt>
      <trkpt lat="0" lon="0">
        <time>2020-12-06T10:14:32.826000+00:00</time>
      </trkpt>
      <trkpt lat="47.331" lon="-1.36792">
        <ele>62</ele>
        <time>2020-12-06T10:14:33.816000+00:00</time>
      </trkpt>
      <trkpt lat="0" lon="0">
        <time>2020-12-06T10:14:33.825000+00:00</time>
      </trkpt>
      <trkpt lat="0" lon="0">
        <time>2020-12-06T10:14:33.828000+00:00</time>
      </trkpt>
      <trkpt lat="0" lon="0">
        <time>2020-12-06T10:14:33.830000+00:00</time>
      </trkpt>
      <trkpt lat="47.33103" lon="-1.36794">
        <ele>62</ele>
        <time>2020-12-06T10:14:34.793000+00:00</time>
      </trkpt>
      <trkpt lat="0" lon="0">
        <time>2020-12-06T10:14:34.803000+00:00</time>
      </trkpt>
      <trkpt lat="0" lon="0">
        <time>2020-12-06T10:14:34.807000+00:00</time>
      </trkpt>
      <trkpt lat="0" lon="0">
        <time>2020-12-06T10:14:34.809000+00:00</time>
      </trkpt>
      <trkpt lat="47.33105" lon="-1.36797">
        <ele>62</ele>
        <time>2020-12-06T10:14:35.806000+00:00</time>
      </trkpt>
      <trkpt lat="0" lon="0">
        <time>2020-12-06T10:14:35.820000+00:00</time>
      </trkpt>
      <trkpt lat="0" lon="0">
        <time>2020-12-06T10:14:35.825000+00:00</time>
      </trkpt>
      <trkpt lat="0" lon="0">
        <time>2020-12-06T10:14:35.828000+00:00</time>
      </trkpt>
      <trkpt lat="47.33107" lon="-1.368">
        <ele>63</ele>
        <time>2020-12-06T10:14:36.826000+00:00</time>
      </trkpt>
      <trkpt lat="0" lon="0">
        <time>2020-12-06T10:14:36.831000+00:00</time>
      </trkpt>
      <trkpt lat="0" lon="0">
        <time>2020-12-06T10:14:36.839000+00:00</time>
      </trkpt>
      <trkpt lat="0" lon="0">
        <time>2020-12-06T10:14:36.844000+00:00</time>
      </trkpt>
      <trkpt lat="47.3311" lon="-1.36803">
        <ele>63</ele>
        <time>2020-12-06T10:14:37.836000+00:00</time>
      </trkpt>
      <trkpt lat="0" lon="0">
        <time>2020-12-06T10:14:37.854000+00:00</time>
      </trkpt>
      <trkpt lat="0" lon="0">
        <time>2020-12-06T10:14:37.859000+00:00</time>
      </trkpt>
      <trkpt lat="0" lon="0">
        <time>2020-12-06T10:14:37.861000+00:00</time>
      </trkpt>
      <trkpt lat="47.33112" lon="-1.36806">
        <ele>63</ele>
        <time>2020-12-06T10:14:38.826000+00:00</time>
      </trkpt>
      <trkpt lat="0" lon="0">
        <time>2020-12-06T10:14:38.845000+00:00</time>
      </trkpt>
      <trkpt lat="0" lon="0">
        <time>2020-12-06T10:14:38.858000+00:00</time>
      </trkpt>
      <trkpt lat="0" lon="0">
        <time>2020-12-06T10:14:38.859000+00:00</time>
      </trkpt>
      <trkpt lat="47.33114" lon="-1.36809">
        <ele>63</ele>
        <time>2020-12-06T10:14:39.807000+00:00</time>
      </trkpt>
      <trkpt lat="0" lon="0">
        <time>2020-12-06T10:14:39.834000+00:00</time>
      </trkpt>
      <trkpt lat="0" lon="0">
        <time>2020-12-06T10:14:39.842000+00:00</time>
      </trkpt>
      <trkpt lat="0" lon="0">
        <time>2020-12-06T10:14:39.846000+00:00</time>
      </trkpt>
      <trkpt lat="47.33117" lon="-1.36812">
        <ele>63</ele>
        <time>2020-12-06T10:14:40.848000+00:00</time>
      </trkpt>
      <trkpt lat="0" lon="0">
        <time>2020-12-06T10:14:40.861000+00:00</time>
      </trkpt>
      <trkpt lat="0" lon="0">
        <time>2020-12-06T10:14:40.864000+00:00</time>
      </trkpt>
      <trkpt lat="0" lon="0">
        <time>2020-12-06T10:14:40.868000+00:00</time>
      </trkpt>
      <trkpt lat="47.33119" lon="-1.36816">
        <ele>63</ele>
        <time>2020-12-06T10:14:41.815000+00:00</time>
      </trkpt>
      <trkpt lat="0" lon="0">
        <time>2020-12-06T10:14:41.821000+00:00</time>
      </trkpt>
      <trkpt lat="0" lon="0">
        <time>2020-12-06T10:14:41.829000+00:00</time>
      </trkpt>
      <trkpt lat="0" lon="0">
        <time>2020-12-06T10:14:41.831000+00:00</time>
      </trkpt>
      <trkpt lat="47.33122" lon="-1.36819">
        <ele>63</ele>
        <time>2020-12-06T10:14:42.802000+00:00</time>
      </trkpt>
      <trkpt lat="0" lon="0">
        <time>2020-12-06T10:14:42.806000+00:00</time>
      </trkpt>
      <trkpt lat="0" lon="0">
        <time>2020-12-06T10:14:42.808000+00:00</time>
      </trkpt>
      <trkpt lat="0" lon="0">
        <time>2020-12-06T10:14:42.811000+00:00</time>
      </trkpt>
      <trkpt lat="47.33124" lon="-1.36822">
        <ele>64</ele>
        <time>2020-12-06T10:14:43.821000+00:00</time>
      </trkpt>
      <trkpt lat="0" lon="0">
        <time>2020-12-06T10:14:43.825000+00:00</time>
      </trkpt>
      <trkpt lat="0" lon="0">
        <time>2020-12-06T10:14:43.833000+00:00</time>
      </trkpt>
      <trkpt lat="0" lon="0">
        <time>2020-12-06T10:14:43.835000+00:00</time>
      </trkpt>
      <trkpt lat="47.33127" lon="-1.36826">
        <ele>64</ele>
        <time>2020-12-06T10:14:44.820000+00:00</time>
      </trkpt>
      <trkpt lat="0" lon="0">
        <time>2020-12-06T10:14:44.830000+00:00</time>
      </trkpt>
      <trkpt lat="0" lon="0">
        <time>2020-12-06T10:14:44.833000+00:00</time>
      </trkpt>
      <trkpt lat="0" lon="0">
        <time>2020-12-06T10:14:44.835000+00:00</time>
      </trkpt>
      <trkpt lat="47.33129" lon="-1.36829">
        <ele>64</ele>
        <time>2020-12-06T10:14:45.845000+00:00</time>
      </trkpt>
      <trkpt lat="0" lon="0">
        <time>2020-12-06T10:14:45.848000+00:00</time>
      </trkpt>
      <trkpt lat="0" lon="0">
        <time>2020-12-06T10:14:45.857000+00:00</time>
      </trkpt>
      <trkpt lat="0" lon="0">
        <time>2020-12-06T10:14:45.862000+00:00</time>
      </trkpt>
      <trkpt lat="47.33131" lon="-1.36833">
        <ele>64</ele>
        <time>2020-12-06T10:14:46.838000+00:00</time>
      </trkpt>
      <trkpt lat="0" lon="0">
        <time>2020-12-06T10:14:46.845000+00:00</time>
      </trkpt>
      <trkpt lat="0" lon="0">
        <time>2020-12-06T10:14:46.854000+00:00</time>
      </trkpt>
      <trkpt lat="0" lon="0">
        <time>2020-12-06T10:14:46.857000+00:00</time>
      </trkpt>
      <trkpt lat="47.33133" lon="-1.36837">
        <ele>64</ele>
        <time>2020-12-06T10:14:47.795000+00:00</time>
      </trkpt>
      <trkpt lat="0" lon="0">
        <time>2020-12-06T10:14:47.810000+00:00</time>
      </trkpt>
      <trkpt lat="0" lon="0">
        <time>2020-12-06T10:14:47.817000+00:00</time>
      </trkpt>
      <trkpt lat="0" lon="0">
        <time>2020-12-06T10:14:47.818000+00:00</time>
      </trkpt>
      <trkpt lat="47.33136" lon="-1.36841">
        <ele>64</ele>
        <time>2020-12-06T10:14:48.809000+00:00</time>
      </trkpt>
      <trkpt lat="0" lon="0">
        <time>2020-12-06T10:14:48.822000+00:00</time>
      </trkpt>
      <trkpt lat="0" lon="0">
        <time>2020-12-06T10:14:48.836000+00:00</time>
      </trkpt>
      <trkpt lat="0" lon="0">
        <time>2020-12-06T10:14:48.838000+00:00</time>
      </trkpt>
      <trkpt lat="47.33138" lon="-1.36845">
        <ele>64</ele>
        <time>2020-12-06T10:14:49.812000+00:00</time>
      </trkpt>
      <trkpt lat="0" lon="0">
        <time>2020-12-06T10:14:49.813000+00:00</time>
      </trkpt>
      <trkpt lat="0" lon="0">
        <time>2020-12-06T10:14:49.814000+00:00</time>
      </trkpt>
      <trkpt lat="47.3314" lon="-1.36848">
        <ele>64</ele>
        <time>2020-12-06T10:14:50.791000+00:00</time>
      </trkpt>
      <trkpt lat="0" lon="0">
        <time>2020-12-06T10:14:50.794000+00:00</time>
      </trkpt>
      <trkpt lat="0" lon="0">
        <time>2020-12-06T10:14:50.798000+00:00</time>
      </trkpt>
      <trkpt lat="0" lon="0">
        <time>2020-12-06T10:14:50.801000+00:00</time>
      </trkpt>
      <trkpt lat="47.33142" lon="-1.36851">
        <ele>65</ele>
        <time>2020-12-06T10:14:51.830000+00:00</time>
      </trkpt>
      <trkpt lat="0" lon="0">
        <time>2020-12-06T10:14:51.839000+00:00</time>
      </trkpt>
      <trkpt lat="0" lon="0">
        <time>2020-12-06T10:14:51.849000+00:00</time>
      </trkpt>
      <trkpt lat="0" lon="0">
        <time>2020-12-06T10:14:51.851000+00:00</time>
      </trkpt>
      <trkpt lat="47.33143" lon="-1.36855">
        <ele>65</ele>
        <time>2020-12-06T10:14:52.865000+00:00</time>
      </trkpt>
      <trkpt lat="0" lon="0">
        <time>2020-12-06T10:14:52.873000+00:00</time>
      </trkpt>
      <trkpt lat="0" lon="0">
        <time>2020-12-06T10:14:52.878000+00:00</time>
      </trkpt>
      <trkpt lat="0" lon="0">
        <time>2020-12-06T10:14:52.880000+00:00</time>
      </trkpt>
      <trkpt lat="47.33145" lon="-1.36858">
        <ele>65</ele>
        <time>2020-12-06T10:14:53.828000+00:00</time>
      </trkpt>
      <trkpt lat="0" lon="0">
        <time>2020-12-06T10:14:53.836000+00:00</time>
      </trkpt>
      <trkpt lat="0" lon="0">
        <time>2020-12-06T10:14:53.839000+00:00</time>
      </trkpt>
      <trkpt lat="0" lon="0">
        <time>2020-12-06T10:14:53.841000+00:00</time>
      </trkpt>
      <trkpt lat="47.33147" lon="-1.36861">
        <ele>65</ele>
        <time>2020-12-06T10:14:54.851000+00:00</time>
      </trkpt>
      <trkpt lat="0" lon="0">
        <time>2020-12-06T10:14:54.861000+00:00</time>
      </trkpt>
      <trkpt lat="0" lon="0">
        <time>2020-12-06T10:14:54.868000+00:00</time>
      </trkpt>
      <trkpt lat="0" lon="0">
        <time>2020-12-06T10:14:54.871000+00:00</time>
      </trkpt>
      <trkpt lat="47.33149" lon="-1.36865">
        <ele>65</ele>
        <time>2020-12-06T10:14:55.837000+00:00</time>
      </trkpt>
      <trkpt lat="0" lon="0">
        <time>2020-12-06T10:14:55.860000+00:00</time>
      </trkpt>
      <trkpt lat="0" lon="0">
        <time>2020-12-06T10:14:55.866000+00:00</time>
      </trkpt>
      <trkpt lat="0" lon="0">
        <time>2020-12-06T10:14:55.872000+00:00</time>
      </trkpt>
      <trkpt lat="47.33152" lon="-1.36868">
        <ele>65</ele>
        <time>2020-12-06T10:14:56.838000+00:00</time>
      </trkpt>
      <trkpt lat="0" lon="0">
        <time>2020-12-06T10:14:56.854000+00:00</time>
      </trkpt>
      <trkpt lat="0" lon="0">
        <time>2020-12-06T10:14:56.858000+00:00</time>
      </trkpt>
      <trkpt lat="0" lon="0">
        <time>2020-12-06T10:14:56.860000+00:00</time>
      </trkpt>
      <trkpt lat="47.33154" lon="-1.36871">
        <ele>65</ele>
        <time>2020-12-06T10:14:57.834000+00:00</time>
      </trkpt>
      <trkpt lat="0" lon="0">
        <time>2020-12-06T10:14:57.852000+00:00</time>
      </trkpt>
      <trkpt lat="0" lon="0">
        <time>2020-12-06T10:14:57.856000+00:00</time>
      </trkpt>
      <trkpt lat="0" lon="0">
        <time>2020-12-06T10:14:57.860000+00:00</time>
      </trkpt>
      <trkpt lat="47.33156" lon="-1.36874">
        <ele>65</ele>
        <time>2020-12-06T10:14:58.836000+00:00</time>
      </trkpt>
      <trkpt lat="0" lon="0">
        <time>2020-12-06T10:14:58.852000+00:00</time>
      </trkpt>
      <trkpt lat="0" lon="0">
        <time>2020-12-06T10:14:58.856000+00:00</time>
      </trkpt>
      <trkpt lat="0" lon="0">
        <time>2020-12-06T10:14:58.863000+00:00</time>
      </trkpt>
      <trkpt lat="47.33159" lon="-1.36877">
        <ele>65</ele>
        <time>2020-12-06T10:14:59.822000+00:00</time>
      </trkpt>
      <trkpt lat="0" lon="0">
        <time>2020-12-06T10:14:59.830000+00:00</time>
      </trkpt>
      <trkpt lat="0" lon="0">
        <time>2020-12-06T10:14:59.831000+00:00</time>
      </trkpt>
      <trkpt lat="0" lon="0">
        <time>2020-12-06T10:14:59.832000+00:00</time>
      </trkpt>
      <trkpt lat="47.33161" lon="-1.36879">
        <ele>66</ele>
        <time>2020-12-06T10:15:00.820000+00:00</time>
      </trkpt>
      <trkpt lat="0" lon="0">
        <time>2020-12-06T10:15:00.824000+00:00</time>
      </trkpt>
      <trkpt lat="0" lon="0">
        <time>2020-12-06T10:15:00.827000+00:00</time>
      </trkpt>
      <trkpt lat="0" lon="0">
        <time>2020-12-06T10:15:00.829000+00:00</time>
      </trkpt>
      <trkpt lat="47.33162" lon="-1.36882">
        <ele>66</ele>
        <time>2020-12-06T10:15:01.826000+00:00</time>
      </trkpt>
      <trkpt lat="0" lon="0">
        <time>2020-12-06T10:15:01.831000+00:00</time>
      </trkpt>
      <trkpt lat="0" lon="0">
        <time>2020-12-06T10:15:01.844000+00:00</time>
      </trkpt>
      <trkpt lat="0" lon="0">
        <time>2020-12-06T10:15:01.845000+00:00</time>
      </trkpt>
      <trkpt lat="47.33164" lon="-1.36884">
        <ele>66</ele>
        <time>2020-12-06T10:15:02.815000+00:00</time>
      </trkpt>
      <trkpt lat="0" lon="0">
        <time>2020-12-06T10:15:02.819000+00:00</time>
      </trkpt>
      <trkpt lat="0" lon="0">
        <time>2020-12-06T10:15:02.826000+00:00</time>
      </trkpt>
      <trkpt lat="0" lon="0">
        <time>2020-12-06T10:15:02.828000+00:00</time>
      </trkpt>
      <trkpt lat="47.33166" lon="-1.36887">
        <ele>66</ele>
        <time>2020-12-06T10:15:03.814000+00:00</time>
      </trkpt>
      <trkpt lat="0" lon="0">
        <time>2020-12-06T10:15:03.822000+00:00</time>
      </trkpt>
      <trkpt lat="0" lon="0">
        <time>2020-12-06T10:15:03.829000+00:00</time>
      </trkpt>
      <trkpt lat="0" lon="0">
        <time>2020-12-06T10:15:03.831000+00:00</time>
      </trkpt>
      <trkpt lat="47.33167" lon="-1.3689">
        <ele>66</ele>
        <time>2020-12-06T10:15:04.809000+00:00</time>
      </trkpt>
      <trkpt lat="0" lon="0">
        <time>2020-12-06T10:15:04.822000+00:00</time>
      </trkpt>
      <trkpt lat="0" lon="0">
        <time>2020-12-06T10:15:04.827000+00:00</time>
      </trkpt>
      <trkpt lat="0" lon="0">
        <time>2020-12-06T10:15:04.829000+00:00</time>
      </trkpt>
      <trkpt lat="47.33168" lon="-1.36893">
        <ele>66</ele>
        <time>2020-12-06T10:15:05.832000+00:00</time>
      </trkpt>
      <trkpt lat="0" lon="0">
        <time>2020-12-06T10:15:05.833000+00:00</time>
      </trkpt>
      <trkpt lat="0" lon="0">
        <time>2020-12-06T10:15:05.835000+00:00</time>
      </trkpt>
      <trkpt lat="0" lon="0">
        <time>2020-12-06T10:15:05.837000+00:00</time>
      </trkpt>
      <trkpt lat="47.33169" lon="-1.36896">
        <ele>66</ele>
        <time>2020-12-06T10:15:06.810000+00:00</time>
      </trkpt>
      <trkpt lat="0" lon="0">
        <time>2020-12-06T10:15:06.837000+00:00</time>
      </trkpt>
      <trkpt lat="0" lon="0">
        <time>2020-12-06T10:15:06.845000+00:00</time>
      </trkpt>
      <trkpt lat="0" lon="0">
        <time>2020-12-06T10:15:06.851000+00:00</time>
      </trkpt>
      <trkpt lat="47.3317" lon="-1.36898">
        <ele>66</ele>
        <time>2020-12-06T10:15:07.779000+00:00</time>
      </trkpt>
      <trkpt lat="0" lon="0">
        <time>2020-12-06T10:15:07.787000+00:00</time>
      </trkpt>
      <trkpt lat="0" lon="0">
        <time>2020-12-06T10:15:07.788000+00:00</time>
      </trkpt>
      <trkpt lat="0" lon="0">
        <time>2020-12-06T10:15:07.792000+00:00</time>
      </trkpt>
      <trkpt lat="47.3317" lon="-1.369">
        <ele>66</ele>
        <time>2020-12-06T10:15:08.774000+00:00</time>
      </trkpt>
      <trkpt lat="0" lon="0">
        <time>2020-12-06T10:15:08.783000+00:00</time>
      </trkpt>
      <trkpt lat="0" lon="0">
        <time>2020-12-06T10:15:08.785000+00:00</time>
      </trkpt>
      <trkpt lat="0" lon="0">
        <time>2020-12-06T10:15:08.786000+00:00</time>
      </trkpt>
      <trkpt lat="47.3317" lon="-1.36901">
        <ele>66</ele>
        <time>2020-12-06T10:15:09.775000+00:00</time>
      </trkpt>
      <trkpt lat="0" lon="0">
        <time>2020-12-06T10:15:09.777000+00:00</time>
      </trkpt>
      <trkpt lat="0" lon="0">
        <time>2020-12-06T10:15:09.779000+00:00</time>
      </trkpt>
      <trkpt lat="0" lon="0">
        <time>2020-12-06T10:15:09.784000+00:00</time>
      </trkpt>
      <trkpt lat="47.3317" lon="-1.36903">
        <ele>66</ele>
        <time>2020-12-06T10:15:10.796000+00:00</time>
      </trkpt>
      <trkpt lat="0" lon="0">
        <time>2020-12-06T10:15:10.814000+00:00</time>
      </trkpt>
      <trkpt lat="0" lon="0">
        <time>2020-12-06T10:15:10.817000+00:00</time>
      </trkpt>
      <trkpt lat="0" lon="0">
        <time>2020-12-06T10:15:10.819000+00:00</time>
      </trkpt>
      <trkpt lat="47.3317" lon="-1.36903">
        <ele>67</ele>
        <time>2020-12-06T10:15:11.802000+00:00</time>
      </trkpt>
      <trkpt lat="0" lon="0">
        <time>2020-12-06T10:15:11.809000+00:00</time>
      </trkpt>
      <trkpt lat="0" lon="0">
        <time>2020-12-06T10:15:11.814000+00:00</time>
      </trkpt>
      <trkpt lat="0" lon="0">
        <time>2020-12-06T10:15:11.816000+00:00</time>
      </trkpt>
      <trkpt lat="47.3317" lon="-1.36904">
        <ele>67</ele>
        <time>2020-12-06T10:15:12.797000+00:00</time>
      </trkpt>
      <trkpt lat="0" lon="0">
        <time>2020-12-06T10:15:12.800000+00:00</time>
      </trkpt>
      <trkpt lat="0" lon="0">
        <time>2020-12-06T10:15:12.806000+00:00</time>
      </trkpt>
      <trkpt lat="0" lon="0">
        <time>2020-12-06T10:15:12.810000+00:00</time>
      </trkpt>
      <trkpt lat="47.3317" lon="-1.36904">
        <ele>67</ele>
        <time>2020-12-06T10:15:13.804000+00:00</time>
      </trkpt>
      <trkpt lat="0" lon="0">
        <time>2020-12-06T10:15:13.807000+00:00</time>
      </trkpt>
      <trkpt lat="0" lon="0">
        <time>2020-12-06T10:15:13.818000+00:00</time>
      </trkpt>
      <trkpt lat="0" lon="0">
        <time>2020-12-06T10:15:13.822000+00:00</time>
      </trkpt>
      <trkpt lat="47.3317" lon="-1.36904">
        <ele>67</ele>
        <time>2020-12-06T10:15:14.829000+00:00</time>
      </trkpt>
      <trkpt lat="0" lon="0">
        <time>2020-12-06T10:15:14.844000+00:00</time>
      </trkpt>
      <trkpt lat="0" lon="0">
        <time>2020-12-06T10:15:14.850000+00:00</time>
      </trkpt>
      <trkpt lat="0" lon="0">
        <time>2020-12-06T10:15:14.853000+00:00</time>
      </trkpt>
      <trkpt lat="47.3317" lon="-1.36904">
        <ele>67</ele>
        <time>2020-12-06T10:15:15.813000+00:00</time>
      </trkpt>
      <trkpt lat="0" lon="0">
        <time>2020-12-06T10:15:15.816000+00:00</time>
      </trkpt>
      <trkpt lat="0" lon="0">
        <time>2020-12-06T10:15:15.829000+00:00</time>
      </trkpt>
      <trkpt lat="0" lon="0">
        <time>2020-12-06T10:15:15.834000+00:00</time>
      </trkpt>
      <trkpt lat="47.3317" lon="-1.36903">
        <ele>66</ele>
        <time>2020-12-06T10:15:16.813000+00:00</time>
      </trkpt>
      <trkpt lat="0" lon="0">
        <time>2020-12-06T10:15:16.816000+00:00</time>
      </trkpt>
      <trkpt lat="0" lon="0">
        <time>2020-12-06T10:15:16.819000+00:00</time>
      </trkpt>
      <trkpt lat="0" lon="0">
        <time>2020-12-06T10:15:16.821000+00:00</time>
      </trkpt>
      <trkpt lat="47.33171" lon="-1.36902">
        <ele>66</ele>
        <time>2020-12-06T10:15:17.807000+00:00</time>
      </trkpt>
      <trkpt lat="0" lon="0">
        <time>2020-12-06T10:15:17.810000+00:00</time>
      </trkpt>
      <trkpt lat="0" lon="0">
        <time>2020-12-06T10:15:17.829000+00:00</time>
      </trkpt>
      <trkpt lat="0" lon="0">
        <time>2020-12-06T10:15:17.831000+00:00</time>
      </trkpt>
      <trkpt lat="47.33171" lon="-1.36901">
        <ele>66</ele>
        <time>2020-12-06T10:15:18.808000+00:00</time>
      </trkpt>
      <trkpt lat="0" lon="0">
        <time>2020-12-06T10:15:18.811000+00:00</time>
      </trkpt>
      <trkpt lat="0" lon="0">
        <time>2020-12-06T10:15:18.820000+00:00</time>
      </trkpt>
      <trkpt lat="0" lon="0">
        <time>2020-12-06T10:15:18.834000+00:00</time>
      </trkpt>
      <trkpt lat="47.33181" lon="-1.36908">
        <ele>66</ele>
        <time>2020-12-06T10:15:19.807000+00:00</time>
      </trkpt>
      <trkpt lat="0" lon="0">
        <time>2020-12-06T10:15:19.814000+00:00</time>
      </trkpt>
      <trkpt lat="0" lon="0">
        <time>2020-12-06T10:15:19.817000+00:00</time>
      </trkpt>
      <trkpt lat="0" lon="0">
        <time>2020-12-06T10:15:19.819000+00:00</time>
      </trkpt>
      <trkpt lat="47.33182" lon="-1.36911">
        <ele>66</ele>
        <time>2020-12-06T10:15:20.858000+00:00</time>
      </trkpt>
      <trkpt lat="0" lon="0">
        <time>2020-12-06T10:15:20.863000+00:00</time>
      </trkpt>
      <trkpt lat="0" lon="0">
        <time>2020-12-06T10:15:20.868000+00:00</time>
      </trkpt>
      <trkpt lat="0" lon="0">
        <time>2020-12-06T10:15:20.870000+00:00</time>
      </trkpt>
      <trkpt lat="47.33184" lon="-1.36914">
        <ele>66</ele>
        <time>2020-12-06T10:15:21.864000+00:00</time>
      </trkpt>
      <trkpt lat="0" lon="0">
        <time>2020-12-06T10:15:21.887000+00:00</time>
      </trkpt>
      <trkpt lat="0" lon="0">
        <time>2020-12-06T10:15:21.889000+00:00</time>
      </trkpt>
      <trkpt lat="0" lon="0">
        <time>2020-12-06T10:15:21.891000+00:00</time>
      </trkpt>
      <trkpt lat="47.33185" lon="-1.36917">
        <ele>66</ele>
        <time>2020-12-06T10:15:22.831000+00:00</time>
      </trkpt>
      <trkpt lat="0" lon="0">
        <time>2020-12-06T10:15:22.849000+00:00</time>
      </trkpt>
      <trkpt lat="0" lon="0">
        <time>2020-12-06T10:15:22.858000+00:00</time>
      </trkpt>
      <trkpt lat="0" lon="0">
        <time>2020-12-06T10:15:22.861000+00:00</time>
      </trkpt>
      <trkpt lat="47.33187" lon="-1.3692">
        <ele>66</ele>
        <time>2020-12-06T10:15:23.896000+00:00</time>
      </trkpt>
      <trkpt lat="0" lon="0">
        <time>2020-12-06T10:15:23.903000+00:00</time>
      </trkpt>
      <trkpt lat="0" lon="0">
        <time>2020-12-06T10:15:23.909000+00:00</time>
      </trkpt>
      <trkpt lat="0" lon="0">
        <time>2020-12-06T10:15:23.911000+00:00</time>
      </trkpt>
      <trkpt lat="47.33188" lon="-1.36922">
        <ele>66</ele>
        <time>2020-12-06T10:15:24.863000+00:00</time>
      </trkpt>
      <trkpt lat="0" lon="0">
        <time>2020-12-06T10:15:24.877000+00:00</time>
      </trkpt>
      <trkpt lat="0" lon="0">
        <time>2020-12-06T10:15:24.880000+00:00</time>
      </trkpt>
      <trkpt lat="0" lon="0">
        <time>2020-12-06T10:15:24.882000+00:00</time>
      </trkpt>
      <trkpt lat="47.33189" lon="-1.36924">
        <ele>66</ele>
        <time>2020-12-06T10:15:25.855000+00:00</time>
      </trkpt>
      <trkpt lat="0" lon="0">
        <time>2020-12-06T10:15:25.862000+00:00</time>
      </trkpt>
      <trkpt lat="0" lon="0">
        <time>2020-12-06T10:15:25.864000+00:00</time>
      </trkpt>
      <trkpt lat="0" lon="0">
        <time>2020-12-06T10:15:25.871000+00:00</time>
      </trkpt>
      <trkpt lat="47.33189" lon="-1.36925">
        <ele>66</ele>
        <time>2020-12-06T10:15:26.919000+00:00</time>
      </trkpt>
      <trkpt lat="0" lon="0">
        <time>2020-12-06T10:15:26.922000+00:00</time>
      </trkpt>
      <trkpt lat="0" lon="0">
        <time>2020-12-06T10:15:26.927000+00:00</time>
      </trkpt>
      <trkpt lat="0" lon="0">
        <time>2020-12-06T10:15:26.928000+00:00</time>
      </trkpt>
      <trkpt lat="47.3319" lon="-1.36926">
        <ele>66</ele>
        <time>2020-12-06T10:15:27.878000+00:00</time>
      </trkpt>
      <trkpt lat="0" lon="0">
        <time>2020-12-06T10:15:27.886000+00:00</time>
      </trkpt>
      <trkpt lat="0" lon="0">
        <time>2020-12-06T10:15:27.888000+00:00</time>
      </trkpt>
      <trkpt lat="0" lon="0">
        <time>2020-12-06T10:15:27.889000+00:00</time>
      </trkpt>
      <trkpt lat="47.3319" lon="-1.36927">
        <ele>66</ele>
        <time>2020-12-06T10:15:28.853000+00:00</time>
      </trkpt>
      <trkpt lat="0" lon="0">
        <time>2020-12-06T10:15:28.867000+00:00</time>
      </trkpt>
      <trkpt lat="0" lon="0">
        <time>2020-12-06T10:15:28.871000+00:00</time>
      </trkpt>
      <trkpt lat="0" lon="0">
        <time>2020-12-06T10:15:28.874000+00:00</time>
      </trkpt>
      <trkpt lat="47.3319" lon="-1.36927">
        <ele>66</ele>
        <time>2020-12-06T10:15:29.852000+00:00</time>
      </trkpt>
      <trkpt lat="0" lon="0">
        <time>2020-12-06T10:15:29.865000+00:00</time>
      </trkpt>
      <trkpt lat="0" lon="0">
        <time>2020-12-06T10:15:29.869000+00:00</time>
      </trkpt>
      <trkpt lat="0" lon="0">
        <time>2020-12-06T10:15:29.872000+00:00</time>
      </trkpt>
      <trkpt lat="47.3319" lon="-1.36928">
        <ele>66</ele>
        <time>2020-12-06T10:15:30.866000+00:00</time>
      </trkpt>
      <trkpt lat="0" lon="0">
        <time>2020-12-06T10:15:30.870000+00:00</time>
      </trkpt>
      <trkpt lat="0" lon="0">
        <time>2020-12-06T10:15:30.878000+00:00</time>
      </trkpt>
      <trkpt lat="0" lon="0">
        <time>2020-12-06T10:15:30.885000+00:00</time>
      </trkpt>
      <trkpt lat="47.3319" lon="-1.36928">
        <ele>66</ele>
        <time>2020-12-06T10:15:31.839000+00:00</time>
      </trkpt>
      <trkpt lat="0" lon="0">
        <time>2020-12-06T10:15:31.849000+00:00</time>
      </trkpt>
      <trkpt lat="0" lon="0">
        <time>2020-12-06T10:15:31.853000+00:00</time>
      </trkpt>
      <trkpt lat="0" lon="0">
        <time>2020-12-06T10:15:31.855000+00:00</time>
      </trkpt>
      <trkpt lat="47.3319" lon="-1.36928">
        <ele>66</ele>
        <time>2020-12-06T10:15:32.853000+00:00</time>
      </trkpt>
      <trkpt lat="0" lon="0">
        <time>2020-12-06T10:15:32.871000+00:00</time>
      </trkpt>
      <trkpt lat="0" lon="0">
        <time>2020-12-06T10:15:32.875000+00:00</time>
      </trkpt>
      <trkpt lat="0" lon="0">
        <time>2020-12-06T10:15:32.879000+00:00</time>
      </trkpt>
      <trkpt lat="47.3319" lon="-1.36927">
        <ele>66</ele>
        <time>2020-12-06T10:15:33.875000+00:00</time>
      </trkpt>
      <trkpt lat="0" lon="0">
        <time>2020-12-06T10:15:33.879000+00:00</time>
      </trkpt>
      <trkpt lat="0" lon="0">
        <time>2020-12-06T10:15:33.888000+00:00</time>
      </trkpt>
      <trkpt lat="0" lon="0">
        <time>2020-12-06T10:15:33.891000+00:00</time>
      </trkpt>
      <trkpt lat="47.3319" lon="-1.36927">
        <ele>66</ele>
        <time>2020-12-06T10:15:34.868000+00:00</time>
      </trkpt>
      <trkpt lat="0" lon="0">
        <time>2020-12-06T10:15:34.872000+00:00</time>
      </trkpt>
      <trkpt lat="0" lon="0">
        <time>2020-12-06T10:15:34.881000+00:00</time>
      </trkpt>
      <trkpt lat="0" lon="0">
        <time>2020-12-06T10:15:34.899000+00:00</time>
      </trkpt>
      <trkpt lat="47.33214" lon="-1.36945">
        <ele>65</ele>
        <time>2020-12-06T10:15:35.838000+00:00</time>
      </trkpt>
      <trkpt lat="0" lon="0">
        <time>2020-12-06T10:15:35.850000+00:00</time>
      </trkpt>
      <trkpt lat="0" lon="0">
        <time>2020-12-06T10:15:35.851000+00:00</time>
      </trkpt>
      <trkpt lat="0" lon="0">
        <time>2020-12-06T10:15:35.852000+00:00</time>
      </trkpt>
      <trkpt lat="47.33215" lon="-1.36947">
        <ele>65</ele>
        <time>2020-12-06T10:15:36.872000+00:00</time>
      </trkpt>
      <trkpt lat="0" lon="0">
        <time>2020-12-06T10:15:36.874000+00:00</time>
      </trkpt>
      <trkpt lat="0" lon="0">
        <time>2020-12-06T10:15:36.875000+00:00</time>
      </trkpt>
      <trkpt lat="0" lon="0">
        <time>2020-12-06T10:15:36.877000+00:00</time>
      </trkpt>
      <trkpt lat="47.33216" lon="-1.36949">
        <ele>65</ele>
        <time>2020-12-06T10:15:37.885000+00:00</time>
      </trkpt>
      <trkpt lat="0" lon="0">
        <time>2020-12-06T10:15:37.893000+00:00</time>
      </trkpt>
      <trkpt lat="0" lon="0">
        <time>2020-12-06T10:15:37.897000+00:00</time>
      </trkpt>
      <trkpt lat="0" lon="0">
        <time>2020-12-06T10:15:37.901000+00:00</time>
      </trkpt>
      <trkpt lat="47.33217" lon="-1.36951">
        <ele>65</ele>
        <time>2020-12-06T10:15:38.907000+00:00</time>
      </trkpt>
      <trkpt lat="0" lon="0">
        <time>2020-12-06T10:15:38.912000+00:00</time>
      </trkpt>
      <trkpt lat="0" lon="0">
        <time>2020-12-06T10:15:38.917000+00:00</time>
      </trkpt>
      <trkpt lat="0" lon="0">
        <time>2020-12-06T10:15:38.920000+00:00</time>
      </trkpt>
      <trkpt lat="47.33218" lon="-1.36953">
        <ele>65</ele>
        <time>2020-12-06T10:15:39.872000+00:00</time>
      </trkpt>
      <trkpt lat="0" lon="0">
        <time>2020-12-06T10:15:39.879000+00:00</time>
      </trkpt>
      <trkpt lat="0" lon="0">
        <time>2020-12-06T10:15:39.887000+00:00</time>
      </trkpt>
      <trkpt lat="0" lon="0">
        <time>2020-12-06T10:15:39.892000+00:00</time>
      </trkpt>
      <trkpt lat="47.33219" lon="-1.36956">
        <ele>65</ele>
        <time>2020-12-06T10:15:40.883000+00:00</time>
      </trkpt>
      <trkpt lat="0" lon="0">
        <time>2020-12-06T10:15:40.889000+00:00</time>
      </trkpt>
      <trkpt lat="0" lon="0">
        <time>2020-12-06T10:15:40.903000+00:00</time>
      </trkpt>
      <trkpt lat="0" lon="0">
        <time>2020-12-06T10:15:40.907000+00:00</time>
      </trkpt>
      <trkpt lat="47.3322" lon="-1.36959">
        <ele>65</ele>
        <time>2020-12-06T10:15:41.853000+00:00</time>
      </trkpt>
      <trkpt lat="0" lon="0">
        <time>2020-12-06T10:15:41.855000+00:00</time>
      </trkpt>
      <trkpt lat="0" lon="0">
        <time>2020-12-06T10:15:41.856000+00:00</time>
      </trkpt>
      <trkpt lat="0" lon="0">
        <time>2020-12-06T10:15:41.868000+00:00</time>
      </trkpt>
      <trkpt lat="47.33221" lon="-1.36962">
        <ele>65</ele>
        <time>2020-12-06T10:15:42.804000+00:00</time>
      </trkpt>
      <trkpt lat="0" lon="0">
        <time>2020-12-06T10:15:42.807000+00:00</time>
      </trkpt>
      <trkpt lat="0" lon="0">
        <time>2020-12-06T10:15:42.813000+00:00</time>
      </trkpt>
      <trkpt lat="0" lon="0">
        <time>2020-12-06T10:15:42.814000+00:00</time>
      </trkpt>
      <trkpt lat="47.33223" lon="-1.36966">
        <ele>65</ele>
        <time>2020-12-06T10:15:43.855000+00:00</time>
      </trkpt>
      <trkpt lat="0" lon="0">
        <time>2020-12-06T10:15:43.862000+00:00</time>
      </trkpt>
      <trkpt lat="0" lon="0">
        <time>2020-12-06T10:15:43.866000+00:00</time>
      </trkpt>
      <trkpt lat="0" lon="0">
        <time>2020-12-06T10:15:43.868000+00:00</time>
      </trkpt>
      <trkpt lat="47.33225" lon="-1.3697">
        <ele>65</ele>
        <time>2020-12-06T10:15:44.858000+00:00</time>
      </trkpt>
      <trkpt lat="0" lon="0">
        <time>2020-12-06T10:15:44.861000+00:00</time>
      </trkpt>
      <trkpt lat="0" lon="0">
        <time>2020-12-06T10:15:44.865000+00:00</time>
      </trkpt>
      <trkpt lat="0" lon="0">
        <time>2020-12-06T10:15:44.866000+00:00</time>
      </trkpt>
      <trkpt lat="47.33227" lon="-1.36973">
        <ele>65</ele>
        <time>2020-12-06T10:15:45.884000+00:00</time>
      </trkpt>
      <trkpt lat="0" lon="0">
        <time>2020-12-06T10:15:45.891000+00:00</time>
      </trkpt>
      <trkpt lat="0" lon="0">
        <time>2020-12-06T10:15:45.895000+00:00</time>
      </trkpt>
      <trkpt lat="0" lon="0">
        <time>2020-12-06T10:15:45.898000+00:00</time>
      </trkpt>
      <trkpt lat="47.3323" lon="-1.36977">
        <ele>65</ele>
        <time>2020-12-06T10:15:46.837000+00:00</time>
      </trkpt>
      <trkpt lat="0" lon="0">
        <time>2020-12-06T10:15:46.840000+00:00</time>
      </trkpt>
      <trkpt lat="0" lon="0">
        <time>2020-12-06T10:15:46.842000+00:00</time>
      </trkpt>
      <trkpt lat="0" lon="0">
        <time>2020-12-06T10:15:46.843000+00:00</time>
      </trkpt>
      <trkpt lat="47.33232" lon="-1.3698">
        <ele>64</ele>
        <time>2020-12-06T10:15:47.837000+00:00</time>
      </trkpt>
      <trkpt lat="0" lon="0">
        <time>2020-12-06T10:15:47.839000+00:00</time>
      </trkpt>
      <trkpt lat="0" lon="0">
        <time>2020-12-06T10:15:47.844000+00:00</time>
      </trkpt>
      <trkpt lat="0" lon="0">
        <time>2020-12-06T10:15:47.845000+00:00</time>
      </trkpt>
      <trkpt lat="47.33235" lon="-1.36984">
        <ele>64</ele>
        <time>2020-12-06T10:15:48.883000+00:00</time>
      </trkpt>
      <trkpt lat="0" lon="0">
        <time>2020-12-06T10:15:48.895000+00:00</time>
      </trkpt>
      <trkpt lat="0" lon="0">
        <time>2020-12-06T10:15:48.906000+00:00</time>
      </trkpt>
      <trkpt lat="0" lon="0">
        <time>2020-12-06T10:15:48.913000+00:00</time>
      </trkpt>
      <trkpt lat="47.33238" lon="-1.36987">
        <ele>64</ele>
        <time>2020-12-06T10:15:49.877000+00:00</time>
      </trkpt>
      <trkpt lat="0" lon="0">
        <time>2020-12-06T10:15:49.890000+00:00</time>
      </trkpt>
      <trkpt lat="0" lon="0">
        <time>2020-12-06T10:15:49.897000+00:00</time>
      </trkpt>
      <trkpt lat="0" lon="0">
        <time>2020-12-06T10:15:49.905000+00:00</time>
      </trkpt>
      <trkpt lat="47.3324" lon="-1.36991">
        <ele>64</ele>
        <time>2020-12-06T10:15:50.877000+00:00</time>
      </trkpt>
      <trkpt lat="0" lon="0">
        <time>2020-12-06T10:15:50.889000+00:00</time>
      </trkpt>
      <trkpt lat="0" lon="0">
        <time>2020-12-06T10:15:50.898000+00:00</time>
      </trkpt>
      <trkpt lat="0" lon="0">
        <time>2020-12-06T10:15:50.908000+00:00</time>
      </trkpt>
      <trkpt lat="47.33243" lon="-1.36995">
        <ele>64</ele>
        <time>2020-12-06T10:15:51.864000+00:00</time>
      </trkpt>
      <trkpt lat="0" lon="0">
        <time>2020-12-06T10:15:51.868000+00:00</time>
      </trkpt>
      <trkpt lat="0" lon="0">
        <time>2020-12-06T10:15:51.871000+00:00</time>
      </trkpt>
      <trkpt lat="0" lon="0">
        <time>2020-12-06T10:15:51.873000+00:00</time>
      </trkpt>
      <trkpt lat="47.33246" lon="-1.36998">
        <ele>64</ele>
        <time>2020-12-06T10:15:52.831000+00:00</time>
      </trkpt>
      <trkpt lat="0" lon="0">
        <time>2020-12-06T10:15:52.838000+00:00</time>
      </trkpt>
      <trkpt lat="0" lon="0">
        <time>2020-12-06T10:15:52.841000+00:00</time>
      </trkpt>
      <trkpt lat="0" lon="0">
        <time>2020-12-06T10:15:52.843000+00:00</time>
      </trkpt>
      <trkpt lat="47.33248" lon="-1.37002">
        <ele>64</ele>
        <time>2020-12-06T10:15:53.857000+00:00</time>
      </trkpt>
      <trkpt lat="0" lon="0">
        <time>2020-12-06T10:15:53.860000+00:00</time>
      </trkpt>
      <trkpt lat="0" lon="0">
        <time>2020-12-06T10:15:53.879000+00:00</time>
      </trkpt>
      <trkpt lat="0" lon="0">
        <time>2020-12-06T10:15:53.882000+00:00</time>
      </trkpt>
      <trkpt lat="47.33251" lon="-1.37006">
        <ele>64</ele>
        <time>2020-12-06T10:15:54.797000+00:00</time>
      </trkpt>
      <trkpt lat="0" lon="0">
        <time>2020-12-06T10:15:54.798000+00:00</time>
      </trkpt>
      <trkpt lat="0" lon="0">
        <time>2020-12-06T10:15:54.799000+00:00</time>
      </trkpt>
      <trkpt lat="0" lon="0">
        <time>2020-12-06T10:15:54.800000+00:00</time>
      </trkpt>
      <trkpt lat="47.33253" lon="-1.3701">
        <ele>64</ele>
        <time>2020-12-06T10:15:55.832000+00:00</time>
      </trkpt>
      <trkpt lat="0" lon="0">
        <time>2020-12-06T10:15:55.835000+00:00</time>
      </trkpt>
      <trkpt lat="0" lon="0">
        <time>2020-12-06T10:15:55.839000+00:00</time>
      </trkpt>
      <trkpt lat="0" lon="0">
        <time>2020-12-06T10:15:55.851000+00:00</time>
      </trkpt>
      <trkpt lat="47.33255" lon="-1.37013">
        <ele>64</ele>
        <time>2020-12-06T10:15:56.840000+00:00</time>
      </trkpt>
      <trkpt lat="0" lon="0">
        <time>2020-12-06T10:15:56.848000+00:00</time>
      </trkpt>
      <trkpt lat="0" lon="0">
        <time>2020-12-06T10:15:56.851000+00:00</time>
      </trkpt>
      <trkpt lat="0" lon="0">
        <time>2020-12-06T10:15:56.853000+00:00</time>
      </trkpt>
      <trkpt lat="47.33257" lon="-1.37017">
        <ele>64</ele>
        <time>2020-12-06T10:15:57.873000+00:00</time>
      </trkpt>
      <trkpt lat="0" lon="0">
        <time>2020-12-06T10:15:57.880000+00:00</time>
      </trkpt>
      <trkpt lat="0" lon="0">
        <time>2020-12-06T10:15:57.884000+00:00</time>
      </trkpt>
      <trkpt lat="0" lon="0">
        <time>2020-12-06T10:15:57.886000+00:00</time>
      </trkpt>
      <trkpt lat="47.33259" lon="-1.3702">
        <ele>64</ele>
        <time>2020-12-06T10:15:58.875000+00:00</time>
      </trkpt>
      <trkpt lat="0" lon="0">
        <time>2020-12-06T10:15:58.878000+00:00</time>
      </trkpt>
      <trkpt lat="0" lon="0">
        <time>2020-12-06T10:15:58.883000+00:00</time>
      </trkpt>
      <trkpt lat="0" lon="0">
        <time>2020-12-06T10:15:58.885000+00:00</time>
      </trkpt>
      <trkpt lat="47.33261" lon="-1.37024">
        <ele>64</ele>
        <time>2020-12-06T10:15:59.836000+00:00</time>
      </trkpt>
      <trkpt lat="0" lon="0">
        <time>2020-12-06T10:15:59.838000+00:00</time>
      </trkpt>
      <trkpt lat="0" lon="0">
        <time>2020-12-06T10:15:59.840000+00:00</time>
      </trkpt>
      <trkpt lat="0" lon="0">
        <time>2020-12-06T10:15:59.845000+00:00</time>
      </trkpt>
      <trkpt lat="47.33263" lon="-1.37027">
        <ele>65</ele>
        <time>2020-12-06T10:16:00.831000+00:00</time>
      </trkpt>
      <trkpt lat="0" lon="0">
        <time>2020-12-06T10:16:00.834000+00:00</time>
      </trkpt>
      <trkpt lat="0" lon="0">
        <time>2020-12-06T10:16:00.842000+00:00</time>
      </trkpt>
      <trkpt lat="0" lon="0">
        <time>2020-12-06T10:16:00.844000+00:00</time>
      </trkpt>
      <trkpt lat="47.33264" lon="-1.3703">
        <ele>65</ele>
        <time>2020-12-06T10:16:01.870000+00:00</time>
      </trkpt>
      <trkpt lat="0" lon="0">
        <time>2020-12-06T10:16:01.877000+00:00</time>
      </trkpt>
      <trkpt lat="0" lon="0">
        <time>2020-12-06T10:16:01.889000+00:00</time>
      </trkpt>
      <trkpt lat="0" lon="0">
        <time>2020-12-06T10:16:01.894000+00:00</time>
      </trkpt>
      <trkpt lat="47.33266" lon="-1.37034">
        <ele>65</ele>
        <time>2020-12-06T10:16:02.887000+00:00</time>
      </trkpt>
      <trkpt lat="0" lon="0">
        <time>2020-12-06T10:16:02.896000+00:00</time>
      </trkpt>
      <trkpt lat="0" lon="0">
        <time>2020-12-06T10:16:02.902000+00:00</time>
      </trkpt>
      <trkpt lat="0" lon="0">
        <time>2020-12-06T10:16:02.907000+00:00</time>
      </trkpt>
      <trkpt lat="47.33268" lon="-1.37037">
        <ele>65</ele>
        <time>2020-12-06T10:16:03.858000+00:00</time>
      </trkpt>
      <trkpt lat="0" lon="0">
        <time>2020-12-06T10:16:03.870000+00:00</time>
      </trkpt>
      <trkpt lat="0" lon="0">
        <time>2020-12-06T10:16:03.878000+00:00</time>
      </trkpt>
      <trkpt lat="0" lon="0">
        <time>2020-12-06T10:16:03.880000+00:00</time>
      </trkpt>
      <trkpt lat="47.3327" lon="-1.3704">
        <ele>65</ele>
        <time>2020-12-06T10:16:04.881000+00:00</time>
      </trkpt>
      <trkpt lat="0" lon="0">
        <time>2020-12-06T10:16:04.888000+00:00</time>
      </trkpt>
      <trkpt lat="0" lon="0">
        <time>2020-12-06T10:16:04.892000+00:00</time>
      </trkpt>
      <trkpt lat="0" lon="0">
        <time>2020-12-06T10:16:04.894000+00:00</time>
      </trkpt>
      <trkpt lat="47.33272" lon="-1.37043">
        <ele>65</ele>
        <time>2020-12-06T10:16:05.863000+00:00</time>
      </trkpt>
      <trkpt lat="0" lon="0">
        <time>2020-12-06T10:16:05.866000+00:00</time>
      </trkpt>
      <trkpt lat="0" lon="0">
        <time>2020-12-06T10:16:05.871000+00:00</time>
      </trkpt>
      <trkpt lat="0" lon="0">
        <time>2020-12-06T10:16:05.874000+00:00</time>
      </trkpt>
      <trkpt lat="47.33273" lon="-1.37046">
        <ele>65</ele>
        <time>2020-12-06T10:16:06.823000+00:00</time>
      </trkpt>
      <trkpt lat="0" lon="0">
        <time>2020-12-06T10:16:06.826000+00:00</time>
      </trkpt>
      <trkpt lat="0" lon="0">
        <time>2020-12-06T10:16:06.832000+00:00</time>
      </trkpt>
      <trkpt lat="0" lon="0">
        <time>2020-12-06T10:16:06.833000+00:00</time>
      </trkpt>
      <trkpt lat="47.33275" lon="-1.37049">
        <ele>65</ele>
        <time>2020-12-06T10:16:07.878000+00:00</time>
      </trkpt>
      <trkpt lat="0" lon="0">
        <time>2020-12-06T10:16:07.882000+00:00</time>
      </trkpt>
      <trkpt lat="0" lon="0">
        <time>2020-12-06T10:16:07.887000+00:00</time>
      </trkpt>
      <trkpt lat="0" lon="0">
        <time>2020-12-06T10:16:07.889000+00:00</time>
      </trkpt>
      <trkpt lat="47.33276" lon="-1.37052">
        <ele>66</ele>
        <time>2020-12-06T10:16:08.827000+00:00</time>
      </trkpt>
      <trkpt lat="0" lon="0">
        <time>2020-12-06T10:16:08.836000+00:00</time>
      </trkpt>
      <trkpt lat="0" lon="0">
        <time>2020-12-06T10:16:08.839000+00:00</time>
      </trkpt>
      <trkpt lat="0" lon="0">
        <time>2020-12-06T10:16:08.841000+00:00</time>
      </trkpt>
      <trkpt lat="47.33278" lon="-1.37054">
        <ele>66</ele>
        <time>2020-12-06T10:16:09.884000+00:00</time>
      </trkpt>
      <trkpt lat="0" lon="0">
        <time>2020-12-06T10:16:09.892000+00:00</time>
      </trkpt>
      <trkpt lat="0" lon="0">
        <time>2020-12-06T10:16:09.896000+00:00</time>
      </trkpt>
      <trkpt lat="0" lon="0">
        <time>2020-12-06T10:16:09.901000+00:00</time>
      </trkpt>
      <trkpt lat="47.33279" lon="-1.37057">
        <ele>66</ele>
        <time>2020-12-06T10:16:10.830000+00:00</time>
      </trkpt>
      <trkpt lat="0" lon="0">
        <time>2020-12-06T10:16:10.835000+00:00</time>
      </trkpt>
      <trkpt lat="0" lon="0">
        <time>2020-12-06T10:16:10.837000+00:00</time>
      </trkpt>
      <trkpt lat="0" lon="0">
        <time>2020-12-06T10:16:10.838000+00:00</time>
      </trkpt>
      <trkpt lat="47.3328" lon="-1.37059">
        <ele>66</ele>
        <time>2020-12-06T10:16:11.850000+00:00</time>
      </trkpt>
      <trkpt lat="0" lon="0">
        <time>2020-12-06T10:16:11.862000+00:00</time>
      </trkpt>
      <trkpt lat="0" lon="0">
        <time>2020-12-06T10:16:11.873000+00:00</time>
      </trkpt>
      <trkpt lat="0" lon="0">
        <time>2020-12-06T10:16:11.880000+00:00</time>
      </trkpt>
      <trkpt lat="47.33281" lon="-1.37062">
        <ele>66</ele>
        <time>2020-12-06T10:16:12.900000+00:00</time>
      </trkpt>
      <trkpt lat="0" lon="0">
        <time>2020-12-06T10:16:12.912000+00:00</time>
      </trkpt>
      <trkpt lat="0" lon="0">
        <time>2020-12-06T10:16:12.920000+00:00</time>
      </trkpt>
      <trkpt lat="0" lon="0">
        <time>2020-12-06T10:16:12.922000+00:00</time>
      </trkpt>
      <trkpt lat="47.33281" lon="-1.37065">
        <ele>66</ele>
        <time>2020-12-06T10:16:13.864000+00:00</time>
      </trkpt>
      <trkpt lat="0" lon="0">
        <time>2020-12-06T10:16:13.887000+00:00</time>
      </trkpt>
      <trkpt lat="0" lon="0">
        <time>2020-12-06T10:16:13.896000+00:00</time>
      </trkpt>
      <trkpt lat="0" lon="0">
        <time>2020-12-06T10:16:13.902000+00:00</time>
      </trkpt>
      <trkpt lat="47.33282" lon="-1.37068">
        <ele>66</ele>
        <time>2020-12-06T10:16:14.875000+00:00</time>
      </trkpt>
      <trkpt lat="0" lon="0">
        <time>2020-12-06T10:16:14.884000+00:00</time>
      </trkpt>
      <trkpt lat="0" lon="0">
        <time>2020-12-06T10:16:14.888000+00:00</time>
      </trkpt>
      <trkpt lat="0" lon="0">
        <time>2020-12-06T10:16:14.890000+00:00</time>
      </trkpt>
      <trkpt lat="47.33282" lon="-1.37071">
        <ele>66</ele>
        <time>2020-12-06T10:16:15.853000+00:00</time>
      </trkpt>
      <trkpt lat="0" lon="0">
        <time>2020-12-06T10:16:15.865000+00:00</time>
      </trkpt>
      <trkpt lat="0" lon="0">
        <time>2020-12-06T10:16:15.870000+00:00</time>
      </trkpt>
      <trkpt lat="0" lon="0">
        <time>2020-12-06T10:16:15.872000+00:00</time>
      </trkpt>
      <trkpt lat="47.33282" lon="-1.37073">
        <ele>67</ele>
        <time>2020-12-06T10:16:16.867000+00:00</time>
      </trkpt>
      <trkpt lat="0" lon="0">
        <time>2020-12-06T10:16:16.878000+00:00</time>
      </trkpt>
      <trkpt lat="0" lon="0">
        <time>2020-12-06T10:16:16.882000+00:00</time>
      </trkpt>
      <trkpt lat="0" lon="0">
        <time>2020-12-06T10:16:16.884000+00:00</time>
      </trkpt>
      <trkpt lat="47.33283" lon="-1.37076">
        <ele>67</ele>
        <time>2020-12-06T10:16:17.927000+00:00</time>
      </trkpt>
      <trkpt lat="0" lon="0">
        <time>2020-12-06T10:16:17.935000+00:00</time>
      </trkpt>
      <trkpt lat="0" lon="0">
        <time>2020-12-06T10:16:17.950000+00:00</time>
      </trkpt>
      <trkpt lat="0" lon="0">
        <time>2020-12-06T10:16:17.956000+00:00</time>
      </trkpt>
      <trkpt lat="47.33283" lon="-1.3708">
        <ele>67</ele>
        <time>2020-12-06T10:16:18.887000+00:00</time>
      </trkpt>
      <trkpt lat="0" lon="0">
        <time>2020-12-06T10:16:18.893000+00:00</time>
      </trkpt>
      <trkpt lat="0" lon="0">
        <time>2020-12-06T10:16:18.897000+00:00</time>
      </trkpt>
      <trkpt lat="0" lon="0">
        <time>2020-12-06T10:16:18.900000+00:00</time>
      </trkpt>
      <trkpt lat="47.33283" lon="-1.37083">
        <ele>67</ele>
        <time>2020-12-06T10:16:19.884000+00:00</time>
      </trkpt>
      <trkpt lat="0" lon="0">
        <time>2020-12-06T10:16:19.890000+00:00</time>
      </trkpt>
      <trkpt lat="0" lon="0">
        <time>2020-12-06T10:16:19.896000+00:00</time>
      </trkpt>
      <trkpt lat="0" lon="0">
        <time>2020-12-06T10:16:19.899000+00:00</time>
      </trkpt>
      <trkpt lat="47.33284" lon="-1.37086">
        <ele>67</ele>
        <time>2020-12-06T10:16:20.885000+00:00</time>
      </trkpt>
      <trkpt lat="0" lon="0">
        <time>2020-12-06T10:16:20.889000+00:00</time>
      </trkpt>
      <trkpt lat="0" lon="0">
        <time>2020-12-06T10:16:20.895000+00:00</time>
      </trkpt>
      <trkpt lat="0" lon="0">
        <time>2020-12-06T10:16:20.898000+00:00</time>
      </trkpt>
      <trkpt lat="47.33284" lon="-1.37089">
        <ele>67</ele>
        <time>2020-12-06T10:16:21.847000+00:00</time>
      </trkpt>
      <trkpt lat="0" lon="0">
        <time>2020-12-06T10:16:21.850000+00:00</time>
      </trkpt>
      <trkpt lat="0" lon="0">
        <time>2020-12-06T10:16:21.857000+00:00</time>
      </trkpt>
      <trkpt lat="0" lon="0">
        <time>2020-12-06T10:16:21.860000+00:00</time>
      </trkpt>
      <trkpt lat="47.33285" lon="-1.37092">
        <ele>67</ele>
        <time>2020-12-06T10:16:22.883000+00:00</time>
      </trkpt>
      <trkpt lat="0" lon="0">
        <time>2020-12-06T10:16:22.890000+00:00</time>
      </trkpt>
      <trkpt lat="0" lon="0">
        <time>2020-12-06T10:16:22.903000+00:00</time>
      </trkpt>
      <trkpt lat="0" lon="0">
        <time>2020-12-06T10:16:22.909000+00:00</time>
      </trkpt>
      <trkpt lat="47.33286" lon="-1.37095">
        <ele>67</ele>
        <time>2020-12-06T10:16:23.866000+00:00</time>
      </trkpt>
      <trkpt lat="0" lon="0">
        <time>2020-12-06T10:16:23.881000+00:00</time>
      </trkpt>
      <trkpt lat="0" lon="0">
        <time>2020-12-06T10:16:23.885000+00:00</time>
      </trkpt>
      <trkpt lat="0" lon="0">
        <time>2020-12-06T10:16:23.887000+00:00</time>
      </trkpt>
      <trkpt lat="47.33288" lon="-1.37097">
        <ele>67</ele>
        <time>2020-12-06T10:16:24.865000+00:00</time>
      </trkpt>
      <trkpt lat="0" lon="0">
        <time>2020-12-06T10:16:24.874000+00:00</time>
      </trkpt>
      <trkpt lat="0" lon="0">
        <time>2020-12-06T10:16:24.884000+00:00</time>
      </trkpt>
      <trkpt lat="0" lon="0">
        <time>2020-12-06T10:16:24.887000+00:00</time>
      </trkpt>
      <trkpt lat="47.33289" lon="-1.37099">
        <ele>67</ele>
        <time>2020-12-06T10:16:25.879000+00:00</time>
      </trkpt>
      <trkpt lat="0" lon="0">
        <time>2020-12-06T10:16:25.899000+00:00</time>
      </trkpt>
      <trkpt lat="0" lon="0">
        <time>2020-12-06T10:16:25.910000+00:00</time>
      </trkpt>
      <trkpt lat="0" lon="0">
        <time>2020-12-06T10:16:25.911000+00:00</time>
      </trkpt>
      <trkpt lat="47.33291" lon="-1.37101">
        <ele>67</ele>
        <time>2020-12-06T10:16:26.839000+00:00</time>
      </trkpt>
      <trkpt lat="0" lon="0">
        <time>2020-12-06T10:16:26.842000+00:00</time>
      </trkpt>
      <trkpt lat="0" lon="0">
        <time>2020-12-06T10:16:26.846000+00:00</time>
      </trkpt>
      <trkpt lat="0" lon="0">
        <time>2020-12-06T10:16:26.847000+00:00</time>
      </trkpt>
      <trkpt lat="47.33293" lon="-1.37103">
        <ele>67</ele>
        <time>2020-12-06T10:16:27.879000+00:00</time>
      </trkpt>
      <trkpt lat="0" lon="0">
        <time>2020-12-06T10:16:27.882000+00:00</time>
      </trkpt>
      <trkpt lat="0" lon="0">
        <time>2020-12-06T10:16:27.887000+00:00</time>
      </trkpt>
      <trkpt lat="0" lon="0">
        <time>2020-12-06T10:16:27.897000+00:00</time>
      </trkpt>
      <trkpt lat="47.33295" lon="-1.37104">
        <ele>67</ele>
        <time>2020-12-06T10:16:28.846000+00:00</time>
      </trkpt>
      <trkpt lat="0" lon="0">
        <time>2020-12-06T10:16:28.852000+00:00</time>
      </trkpt>
      <trkpt lat="0" lon="0">
        <time>2020-12-06T10:16:28.855000+00:00</time>
      </trkpt>
      <trkpt lat="0" lon="0">
        <time>2020-12-06T10:16:28.857000+00:00</time>
      </trkpt>
      <trkpt lat="47.33297" lon="-1.37106">
        <ele>67</ele>
        <time>2020-12-06T10:16:29.913000+00:00</time>
      </trkpt>
      <trkpt lat="0" lon="0">
        <time>2020-12-06T10:16:29.928000+00:00</time>
      </trkpt>
      <trkpt lat="0" lon="0">
        <time>2020-12-06T10:16:29.933000+00:00</time>
      </trkpt>
      <trkpt lat="0" lon="0">
        <time>2020-12-06T10:16:29.935000+00:00</time>
      </trkpt>
      <trkpt lat="47.33299" lon="-1.37108">
        <ele>67</ele>
        <time>2020-12-06T10:16:30.881000+00:00</time>
      </trkpt>
      <trkpt lat="0" lon="0">
        <time>2020-12-06T10:16:30.890000+00:00</time>
      </trkpt>
      <trkpt lat="0" lon="0">
        <time>2020-12-06T10:16:30.898000+00:00</time>
      </trkpt>
      <trkpt lat="0" lon="0">
        <time>2020-12-06T10:16:30.899000+00:00</time>
      </trkpt>
      <trkpt lat="47.33301" lon="-1.3711">
        <ele>67</ele>
        <time>2020-12-06T10:16:31.878000+00:00</time>
      </trkpt>
      <trkpt lat="0" lon="0">
        <time>2020-12-06T10:16:31.884000+00:00</time>
      </trkpt>
      <trkpt lat="0" lon="0">
        <time>2020-12-06T10:16:31.887000+00:00</time>
      </trkpt>
      <trkpt lat="0" lon="0">
        <time>2020-12-06T10:16:31.889000+00:00</time>
      </trkpt>
      <trkpt lat="47.33302" lon="-1.37112">
        <ele>67</ele>
        <time>2020-12-06T10:16:32.861000+00:00</time>
      </trkpt>
      <trkpt lat="0" lon="0">
        <time>2020-12-06T10:16:32.870000+00:00</time>
      </trkpt>
      <trkpt lat="0" lon="0">
        <time>2020-12-06T10:16:32.874000+00:00</time>
      </trkpt>
      <trkpt lat="0" lon="0">
        <time>2020-12-06T10:16:32.876000+00:00</time>
      </trkpt>
      <trkpt lat="47.33303" lon="-1.37115">
        <ele>67</ele>
        <time>2020-12-06T10:16:33.869000+00:00</time>
      </trkpt>
      <trkpt lat="0" lon="0">
        <time>2020-12-06T10:16:33.873000+00:00</time>
      </trkpt>
      <trkpt lat="0" lon="0">
        <time>2020-12-06T10:16:33.885000+00:00</time>
      </trkpt>
      <trkpt lat="0" lon="0">
        <time>2020-12-06T10:16:33.887000+00:00</time>
      </trkpt>
      <trkpt lat="47.33303" lon="-1.37118">
        <ele>67</ele>
        <time>2020-12-06T10:16:34.877000+00:00</time>
      </trkpt>
      <trkpt lat="0" lon="0">
        <time>2020-12-06T10:16:34.894000+00:00</time>
      </trkpt>
      <trkpt lat="0" lon="0">
        <time>2020-12-06T10:16:34.902000+00:00</time>
      </trkpt>
      <trkpt lat="0" lon="0">
        <time>2020-12-06T10:16:34.905000+00:00</time>
      </trkpt>
      <trkpt lat="47.33304" lon="-1.3712">
        <ele>67</ele>
        <time>2020-12-06T10:16:35.873000+00:00</time>
      </trkpt>
      <trkpt lat="0" lon="0">
        <time>2020-12-06T10:16:35.883000+00:00</time>
      </trkpt>
      <trkpt lat="0" lon="0">
        <time>2020-12-06T10:16:35.891000+00:00</time>
      </trkpt>
      <trkpt lat="0" lon="0">
        <time>2020-12-06T10:16:35.895000+00:00</time>
      </trkpt>
      <trkpt lat="47.33305" lon="-1.37123">
        <ele>67</ele>
        <time>2020-12-06T10:16:36.892000+00:00</time>
      </trkpt>
      <trkpt lat="0" lon="0">
        <time>2020-12-06T10:16:36.901000+00:00</time>
      </trkpt>
      <trkpt lat="0" lon="0">
        <time>2020-12-06T10:16:36.904000+00:00</time>
      </trkpt>
      <trkpt lat="0" lon="0">
        <time>2020-12-06T10:16:36.906000+00:00</time>
      </trkpt>
      <trkpt lat="47.33305" lon="-1.37125">
        <ele>67</ele>
        <time>2020-12-06T10:16:37.877000+00:00</time>
      </trkpt>
      <trkpt lat="0" lon="0">
        <time>2020-12-06T10:16:37.882000+00:00</time>
      </trkpt>
      <trkpt lat="0" lon="0">
        <time>2020-12-06T10:16:37.885000+00:00</time>
      </trkpt>
      <trkpt lat="47.33306" lon="-1.37128">
        <ele>67</ele>
        <time>2020-12-06T10:16:38.875000+00:00</time>
      </trkpt>
      <trkpt lat="0" lon="0">
        <time>2020-12-06T10:16:38.891000+00:00</time>
      </trkpt>
      <trkpt lat="0" lon="0">
        <time>2020-12-06T10:16:38.896000+00:00</time>
      </trkpt>
      <trkpt lat="0" lon="0">
        <time>2020-12-06T10:16:38.898000+00:00</time>
      </trkpt>
      <trkpt lat="47.33306" lon="-1.37131">
        <ele>67</ele>
        <time>2020-12-06T10:16:39.874000+00:00</time>
      </trkpt>
      <trkpt lat="0" lon="0">
        <time>2020-12-06T10:16:39.887000+00:00</time>
      </trkpt>
      <trkpt lat="0" lon="0">
        <time>2020-12-06T10:16:39.892000+00:00</time>
      </trkpt>
      <trkpt lat="0" lon="0">
        <time>2020-12-06T10:16:39.894000+00:00</time>
      </trkpt>
      <trkpt lat="47.33307" lon="-1.37134">
        <ele>67</ele>
        <time>2020-12-06T10:16:40.904000+00:00</time>
      </trkpt>
      <trkpt lat="0" lon="0">
        <time>2020-12-06T10:16:40.914000+00:00</time>
      </trkpt>
      <trkpt lat="0" lon="0">
        <time>2020-12-06T10:16:40.922000+00:00</time>
      </trkpt>
      <trkpt lat="0" lon="0">
        <time>2020-12-06T10:16:40.926000+00:00</time>
      </trkpt>
      <trkpt lat="47.33308" lon="-1.37137">
        <ele>67</ele>
        <time>2020-12-06T10:16:41.863000+00:00</time>
      </trkpt>
      <trkpt lat="0" lon="0">
        <time>2020-12-06T10:16:41.871000+00:00</time>
      </trkpt>
      <trkpt lat="0" lon="0">
        <time>2020-12-06T10:16:41.874000+00:00</time>
      </trkpt>
      <trkpt lat="0" lon="0">
        <time>2020-12-06T10:16:41.880000+00:00</time>
      </trkpt>
      <trkpt lat="47.33308" lon="-1.3714">
        <ele>67</ele>
        <time>2020-12-06T10:16:42.869000+00:00</time>
      </trkpt>
      <trkpt lat="0" lon="0">
        <time>2020-12-06T10:16:42.881000+00:00</time>
      </trkpt>
      <trkpt lat="0" lon="0">
        <time>2020-12-06T10:16:42.886000+00:00</time>
      </trkpt>
      <trkpt lat="0" lon="0">
        <time>2020-12-06T10:16:42.888000+00:00</time>
      </trkpt>
      <trkpt lat="47.33309" lon="-1.37144">
        <ele>67</ele>
        <time>2020-12-06T10:16:43.881000+00:00</time>
      </trkpt>
      <trkpt lat="0" lon="0">
        <time>2020-12-06T10:16:43.888000+00:00</time>
      </trkpt>
      <trkpt lat="0" lon="0">
        <time>2020-12-06T10:16:43.900000+00:00</time>
      </trkpt>
      <trkpt lat="0" lon="0">
        <time>2020-12-06T10:16:43.904000+00:00</time>
      </trkpt>
      <trkpt lat="47.33311" lon="-1.37148">
        <ele>67</ele>
        <time>2020-12-06T10:16:44.828000+00:00</time>
      </trkpt>
      <trkpt lat="0" lon="0">
        <time>2020-12-06T10:16:44.839000+00:00</time>
      </trkpt>
      <trkpt lat="0" lon="0">
        <time>2020-12-06T10:16:44.845000+00:00</time>
      </trkpt>
      <trkpt lat="0" lon="0">
        <time>2020-12-06T10:16:44.847000+00:00</time>
      </trkpt>
      <trkpt lat="47.33312" lon="-1.37153">
        <ele>67</ele>
        <time>2020-12-06T10:16:45.877000+00:00</time>
      </trkpt>
      <trkpt lat="0" lon="0">
        <time>2020-12-06T10:16:45.894000+00:00</time>
      </trkpt>
      <trkpt lat="0" lon="0">
        <time>2020-12-06T10:16:45.899000+00:00</time>
      </trkpt>
      <trkpt lat="0" lon="0">
        <time>2020-12-06T10:16:45.901000+00:00</time>
      </trkpt>
      <trkpt lat="47.33314" lon="-1.37157">
        <ele>67</ele>
        <time>2020-12-06T10:16:46.854000+00:00</time>
      </trkpt>
      <trkpt lat="0" lon="0">
        <time>2020-12-06T10:16:46.866000+00:00</time>
      </trkpt>
      <trkpt lat="0" lon="0">
        <time>2020-12-06T10:16:46.879000+00:00</time>
      </trkpt>
      <trkpt lat="0" lon="0">
        <time>2020-12-06T10:16:46.881000+00:00</time>
      </trkpt>
      <trkpt lat="47.33315" lon="-1.37162">
        <ele>67</ele>
        <time>2020-12-06T10:16:47.866000+00:00</time>
      </trkpt>
      <trkpt lat="0" lon="0">
        <time>2020-12-06T10:16:47.876000+00:00</time>
      </trkpt>
      <trkpt lat="0" lon="0">
        <time>2020-12-06T10:16:47.884000+00:00</time>
      </trkpt>
      <trkpt lat="0" lon="0">
        <time>2020-12-06T10:16:47.886000+00:00</time>
      </trkpt>
      <trkpt lat="47.33317" lon="-1.37166">
        <ele>67</ele>
        <time>2020-12-06T10:16:48.906000+00:00</time>
      </trkpt>
      <trkpt lat="0" lon="0">
        <time>2020-12-06T10:16:48.917000+00:00</time>
      </trkpt>
      <trkpt lat="0" lon="0">
        <time>2020-12-06T10:16:48.923000+00:00</time>
      </trkpt>
      <trkpt lat="0" lon="0">
        <time>2020-12-06T10:16:48.926000+00:00</time>
      </trkpt>
      <trkpt lat="47.33319" lon="-1.3717">
        <ele>67</ele>
        <time>2020-12-06T10:16:49.905000+00:00</time>
      </trkpt>
      <trkpt lat="0" lon="0">
        <time>2020-12-06T10:16:49.907000+00:00</time>
      </trkpt>
      <trkpt lat="0" lon="0">
        <time>2020-12-06T10:16:49.910000+00:00</time>
      </trkpt>
      <trkpt lat="0" lon="0">
        <time>2020-12-06T10:16:49.914000+00:00</time>
      </trkpt>
      <trkpt lat="47.33321" lon="-1.37175">
        <ele>67</ele>
        <time>2020-12-06T10:16:50.883000+00:00</time>
      </trkpt>
      <trkpt lat="0" lon="0">
        <time>2020-12-06T10:16:50.895000+00:00</time>
      </trkpt>
      <trkpt lat="0" lon="0">
        <time>2020-12-06T10:16:50.902000+00:00</time>
      </trkpt>
      <trkpt lat="0" lon="0">
        <time>2020-12-06T10:16:50.906000+00:00</time>
      </trkpt>
      <trkpt lat="47.33323" lon="-1.37179">
        <ele>66</ele>
        <time>2020-12-06T10:16:51.881000+00:00</time>
      </trkpt>
      <trkpt lat="0" lon="0">
        <time>2020-12-06T10:16:51.893000+00:00</time>
      </trkpt>
      <trkpt lat="0" lon="0">
        <time>2020-12-06T10:16:51.901000+00:00</time>
      </trkpt>
      <trkpt lat="0" lon="0">
        <time>2020-12-06T10:16:51.910000+00:00</time>
      </trkpt>
      <trkpt lat="47.33325" lon="-1.37184">
        <ele>66</ele>
        <time>2020-12-06T10:16:52.876000+00:00</time>
      </trkpt>
      <trkpt lat="0" lon="0">
        <time>2020-12-06T10:16:52.882000+00:00</time>
      </trkpt>
      <trkpt lat="0" lon="0">
        <time>2020-12-06T10:16:52.885000+00:00</time>
      </trkpt>
      <trkpt lat="0" lon="0">
        <time>2020-12-06T10:16:52.886000+00:00</time>
      </trkpt>
      <trkpt lat="47.33327" lon="-1.37189">
        <ele>66</ele>
        <time>2020-12-06T10:16:53.867000+00:00</time>
      </trkpt>
      <trkpt lat="0" lon="0">
        <time>2020-12-06T10:16:53.877000+00:00</time>
      </trkpt>
      <trkpt lat="0" lon="0">
        <time>2020-12-06T10:16:53.885000+00:00</time>
      </trkpt>
      <trkpt lat="0" lon="0">
        <time>2020-12-06T10:16:53.888000+00:00</time>
      </trkpt>
      <trkpt lat="47.33328" lon="-1.37194">
        <ele>66</ele>
        <time>2020-12-06T10:16:54.847000+00:00</time>
      </trkpt>
      <trkpt lat="0" lon="0">
        <time>2020-12-06T10:16:54.849000+00:00</time>
      </trkpt>
      <trkpt lat="0" lon="0">
        <time>2020-12-06T10:16:54.850000+00:00</time>
      </trkpt>
      <trkpt lat="0" lon="0">
        <time>2020-12-06T10:16:54.851000+00:00</time>
      </trkpt>
      <trkpt lat="47.3333" lon="-1.37199">
        <ele>66</ele>
        <time>2020-12-06T10:16:55.871000+00:00</time>
      </trkpt>
      <trkpt lat="0" lon="0">
        <time>2020-12-06T10:16:55.889000+00:00</time>
      </trkpt>
      <trkpt lat="0" lon="0">
        <time>2020-12-06T10:16:55.892000+00:00</time>
      </trkpt>
      <trkpt lat="0" lon="0">
        <time>2020-12-06T10:16:55.894000+00:00</time>
      </trkpt>
      <trkpt lat="47.33332" lon="-1.37204">
        <ele>66</ele>
        <time>2020-12-06T10:16:56.861000+00:00</time>
      </trkpt>
      <trkpt lat="0" lon="0">
        <time>2020-12-06T10:16:56.865000+00:00</time>
      </trkpt>
      <trkpt lat="0" lon="0">
        <time>2020-12-06T10:16:56.874000+00:00</time>
      </trkpt>
      <trkpt lat="0" lon="0">
        <time>2020-12-06T10:16:56.876000+00:00</time>
      </trkpt>
      <trkpt lat="47.33333" lon="-1.37209">
        <ele>66</ele>
        <time>2020-12-06T10:16:57.864000+00:00</time>
      </trkpt>
      <trkpt lat="0" lon="0">
        <time>2020-12-06T10:16:57.868000+00:00</time>
      </trkpt>
      <trkpt lat="0" lon="0">
        <time>2020-12-06T10:16:57.878000+00:00</time>
      </trkpt>
      <trkpt lat="0" lon="0">
        <time>2020-12-06T10:16:57.880000+00:00</time>
      </trkpt>
      <trkpt lat="47.33335" lon="-1.37214">
        <ele>66</ele>
        <time>2020-12-06T10:16:58.794000+00:00</time>
      </trkpt>
      <trkpt lat="0" lon="0">
        <time>2020-12-06T10:16:58.795000+00:00</time>
      </trkpt>
      <trkpt lat="0" lon="0">
        <time>2020-12-06T10:16:58.797000+00:00</time>
      </trkpt>
      <trkpt lat="0" lon="0">
        <time>2020-12-06T10:16:58.802000+00:00</time>
      </trkpt>
      <trkpt lat="47.33336" lon="-1.37218">
        <ele>66</ele>
        <time>2020-12-06T10:16:59.866000+00:00</time>
      </trkpt>
      <trkpt lat="0" lon="0">
        <time>2020-12-06T10:16:59.870000+00:00</time>
      </trkpt>
      <trkpt lat="0" lon="0">
        <time>2020-12-06T10:16:59.882000+00:00</time>
      </trkpt>
      <trkpt lat="0" lon="0">
        <time>2020-12-06T10:16:59.886000+00:00</time>
      </trkpt>
      <trkpt lat="47.33336" lon="-1.37223">
        <ele>66</ele>
        <time>2020-12-06T10:17:00.859000+00:00</time>
      </trkpt>
      <trkpt lat="0" lon="0">
        <time>2020-12-06T10:17:00.871000+00:00</time>
      </trkpt>
      <trkpt lat="0" lon="0">
        <time>2020-12-06T10:17:00.879000+00:00</time>
      </trkpt>
      <trkpt lat="0" lon="0">
        <time>2020-12-06T10:17:00.885000+00:00</time>
      </trkpt>
      <trkpt lat="47.33337" lon="-1.37227">
        <ele>66</ele>
        <time>2020-12-06T10:17:01.866000+00:00</time>
      </trkpt>
      <trkpt lat="0" lon="0">
        <time>2020-12-06T10:17:01.872000+00:00</time>
      </trkpt>
      <trkpt lat="0" lon="0">
        <time>2020-12-06T10:17:01.877000+00:00</time>
      </trkpt>
      <trkpt lat="0" lon="0">
        <time>2020-12-06T10:17:01.880000+00:00</time>
      </trkpt>
      <trkpt lat="47.33338" lon="-1.37231">
        <ele>66</ele>
        <time>2020-12-06T10:17:02.857000+00:00</time>
      </trkpt>
      <trkpt lat="0" lon="0">
        <time>2020-12-06T10:17:02.868000+00:00</time>
      </trkpt>
      <trkpt lat="0" lon="0">
        <time>2020-12-06T10:17:02.872000+00:00</time>
      </trkpt>
      <trkpt lat="0" lon="0">
        <time>2020-12-06T10:17:02.874000+00:00</time>
      </trkpt>
      <trkpt lat="47.33339" lon="-1.37235">
        <ele>66</ele>
        <time>2020-12-06T10:17:03.854000+00:00</time>
      </trkpt>
      <trkpt lat="0" lon="0">
        <time>2020-12-06T10:17:03.857000+00:00</time>
      </trkpt>
      <trkpt lat="0" lon="0">
        <time>2020-12-06T10:17:03.862000+00:00</time>
      </trkpt>
      <trkpt lat="0" lon="0">
        <time>2020-12-06T10:17:03.866000+00:00</time>
      </trkpt>
      <trkpt lat="47.33339" lon="-1.37238">
        <ele>66</ele>
        <time>2020-12-06T10:17:04.870000+00:00</time>
      </trkpt>
      <trkpt lat="0" lon="0">
        <time>2020-12-06T10:17:04.874000+00:00</time>
      </trkpt>
      <trkpt lat="0" lon="0">
        <time>2020-12-06T10:17:04.877000+00:00</time>
      </trkpt>
      <trkpt lat="0" lon="0">
        <time>2020-12-06T10:17:04.879000+00:00</time>
      </trkpt>
      <trkpt lat="47.3334" lon="-1.37242">
        <ele>66</ele>
        <time>2020-12-06T10:17:05.870000+00:00</time>
      </trkpt>
      <trkpt lat="0" lon="0">
        <time>2020-12-06T10:17:05.881000+00:00</time>
      </trkpt>
      <trkpt lat="0" lon="0">
        <time>2020-12-06T10:17:05.895000+00:00</time>
      </trkpt>
      <trkpt lat="0" lon="0">
        <time>2020-12-06T10:17:05.898000+00:00</time>
      </trkpt>
      <trkpt lat="47.33341" lon="-1.37245">
        <ele>65</ele>
        <time>2020-12-06T10:17:06.891000+00:00</time>
      </trkpt>
      <trkpt lat="0" lon="0">
        <time>2020-12-06T10:17:06.905000+00:00</time>
      </trkpt>
      <trkpt lat="0" lon="0">
        <time>2020-12-06T10:17:06.908000+00:00</time>
      </trkpt>
      <trkpt lat="0" lon="0">
        <time>2020-12-06T10:17:06.910000+00:00</time>
      </trkpt>
      <trkpt lat="47.33342" lon="-1.37249">
        <ele>65</ele>
        <time>2020-12-06T10:17:07.857000+00:00</time>
      </trkpt>
      <trkpt lat="0" lon="0">
        <time>2020-12-06T10:17:07.870000+00:00</time>
      </trkpt>
      <trkpt lat="0" lon="0">
        <time>2020-12-06T10:17:07.875000+00:00</time>
      </trkpt>
      <trkpt lat="0" lon="0">
        <time>2020-12-06T10:17:07.877000+00:00</time>
      </trkpt>
      <trkpt lat="47.33344" lon="-1.37253">
        <ele>66</ele>
        <time>2020-12-06T10:17:08.886000+00:00</time>
      </trkpt>
      <trkpt lat="0" lon="0">
        <time>2020-12-06T10:17:08.897000+00:00</time>
      </trkpt>
      <trkpt lat="0" lon="0">
        <time>2020-12-06T10:17:08.901000+00:00</time>
      </trkpt>
      <trkpt lat="0" lon="0">
        <time>2020-12-06T10:17:08.903000+00:00</time>
      </trkpt>
      <trkpt lat="47.33345" lon="-1.37258">
        <ele>66</ele>
        <time>2020-12-06T10:17:09.825000+00:00</time>
      </trkpt>
      <trkpt lat="0" lon="0">
        <time>2020-12-06T10:17:09.834000+00:00</time>
      </trkpt>
      <trkpt lat="0" lon="0">
        <time>2020-12-06T10:17:09.837000+00:00</time>
      </trkpt>
      <trkpt lat="0" lon="0">
        <time>2020-12-06T10:17:09.838000+00:00</time>
      </trkpt>
      <trkpt lat="47.33347" lon="-1.37262">
        <ele>66</ele>
        <time>2020-12-06T10:17:10.822000+00:00</time>
      </trkpt>
      <trkpt lat="0" lon="0">
        <time>2020-12-06T10:17:10.828000+00:00</time>
      </trkpt>
      <trkpt lat="0" lon="0">
        <time>2020-12-06T10:17:10.831000+00:00</time>
      </trkpt>
      <trkpt lat="0" lon="0">
        <time>2020-12-06T10:17:10.834000+00:00</time>
      </trkpt>
      <trkpt lat="47.33348" lon="-1.37267">
        <ele>66</ele>
        <time>2020-12-06T10:17:11.840000+00:00</time>
      </trkpt>
      <trkpt lat="0" lon="0">
        <time>2020-12-06T10:17:11.843000+00:00</time>
      </trkpt>
      <trkpt lat="0" lon="0">
        <time>2020-12-06T10:17:11.847000+00:00</time>
      </trkpt>
      <trkpt lat="0" lon="0">
        <time>2020-12-06T10:17:11.853000+00:00</time>
      </trkpt>
      <trkpt lat="47.33349" lon="-1.37272">
        <ele>66</ele>
        <time>2020-12-06T10:17:12.858000+00:00</time>
      </trkpt>
      <trkpt lat="0" lon="0">
        <time>2020-12-06T10:17:12.869000+00:00</time>
      </trkpt>
      <trkpt lat="0" lon="0">
        <time>2020-12-06T10:17:12.875000+00:00</time>
      </trkpt>
      <trkpt lat="0" lon="0">
        <time>2020-12-06T10:17:12.877000+00:00</time>
      </trkpt>
      <trkpt lat="47.33351" lon="-1.37276">
        <ele>66</ele>
        <time>2020-12-06T10:17:13.860000+00:00</time>
      </trkpt>
      <trkpt lat="0" lon="0">
        <time>2020-12-06T10:17:13.863000+00:00</time>
      </trkpt>
      <trkpt lat="0" lon="0">
        <time>2020-12-06T10:17:13.873000+00:00</time>
      </trkpt>
      <trkpt lat="0" lon="0">
        <time>2020-12-06T10:17:13.877000+00:00</time>
      </trkpt>
      <trkpt lat="47.33352" lon="-1.3728">
        <ele>67</ele>
        <time>2020-12-06T10:17:14.827000+00:00</time>
      </trkpt>
      <trkpt lat="0" lon="0">
        <time>2020-12-06T10:17:14.834000+00:00</time>
      </trkpt>
      <trkpt lat="0" lon="0">
        <time>2020-12-06T10:17:14.841000+00:00</time>
      </trkpt>
      <trkpt lat="0" lon="0">
        <time>2020-12-06T10:17:14.844000+00:00</time>
      </trkpt>
      <trkpt lat="47.33354" lon="-1.37285">
        <ele>67</ele>
        <time>2020-12-06T10:17:15.803000+00:00</time>
      </trkpt>
      <trkpt lat="0" lon="0">
        <time>2020-12-06T10:17:15.812000+00:00</time>
      </trkpt>
      <trkpt lat="0" lon="0">
        <time>2020-12-06T10:17:15.815000+00:00</time>
      </trkpt>
      <trkpt lat="0" lon="0">
        <time>2020-12-06T10:17:15.819000+00:00</time>
      </trkpt>
      <trkpt lat="47.33355" lon="-1.37288">
        <ele>67</ele>
        <time>2020-12-06T10:17:16.807000+00:00</time>
      </trkpt>
      <trkpt lat="0" lon="0">
        <time>2020-12-06T10:17:16.809000+00:00</time>
      </trkpt>
      <trkpt lat="0" lon="0">
        <time>2020-12-06T10:17:16.812000+00:00</time>
      </trkpt>
      <trkpt lat="0" lon="0">
        <time>2020-12-06T10:17:16.813000+00:00</time>
      </trkpt>
      <trkpt lat="47.33356" lon="-1.37292">
        <ele>67</ele>
        <time>2020-12-06T10:17:17.862000+00:00</time>
      </trkpt>
      <trkpt lat="0" lon="0">
        <time>2020-12-06T10:17:17.871000+00:00</time>
      </trkpt>
      <trkpt lat="0" lon="0">
        <time>2020-12-06T10:17:17.875000+00:00</time>
      </trkpt>
      <trkpt lat="0" lon="0">
        <time>2020-12-06T10:17:17.877000+00:00</time>
      </trkpt>
      <trkpt lat="47.33357" lon="-1.37296">
        <ele>67</ele>
        <time>2020-12-06T10:17:18.842000+00:00</time>
      </trkpt>
      <trkpt lat="0" lon="0">
        <time>2020-12-06T10:17:18.850000+00:00</time>
      </trkpt>
      <trkpt lat="0" lon="0">
        <time>2020-12-06T10:17:18.860000+00:00</time>
      </trkpt>
      <trkpt lat="0" lon="0">
        <time>2020-12-06T10:17:18.863000+00:00</time>
      </trkpt>
      <trkpt lat="47.33358" lon="-1.373">
        <ele>67</ele>
        <time>2020-12-06T10:17:19.854000+00:00</time>
      </trkpt>
      <trkpt lat="0" lon="0">
        <time>2020-12-06T10:17:19.864000+00:00</time>
      </trkpt>
      <trkpt lat="0" lon="0">
        <time>2020-12-06T10:17:19.870000+00:00</time>
      </trkpt>
      <trkpt lat="0" lon="0">
        <time>2020-12-06T10:17:19.872000+00:00</time>
      </trkpt>
      <trkpt lat="47.3336" lon="-1.37304">
        <ele>68</ele>
        <time>2020-12-06T10:17:20.851000+00:00</time>
      </trkpt>
      <trkpt lat="0" lon="0">
        <time>2020-12-06T10:17:20.854000+00:00</time>
      </trkpt>
      <trkpt lat="0" lon="0">
        <time>2020-12-06T10:17:20.861000+00:00</time>
      </trkpt>
      <trkpt lat="0" lon="0">
        <time>2020-12-06T10:17:20.866000+00:00</time>
      </trkpt>
      <trkpt lat="47.33361" lon="-1.37308">
        <ele>68</ele>
        <time>2020-12-06T10:17:21.829000+00:00</time>
      </trkpt>
      <trkpt lat="0" lon="0">
        <time>2020-12-06T10:17:21.831000+00:00</time>
      </trkpt>
      <trkpt lat="0" lon="0">
        <time>2020-12-06T10:17:21.840000+00:00</time>
      </trkpt>
      <trkpt lat="0" lon="0">
        <time>2020-12-06T10:17:21.841000+00:00</time>
      </trkpt>
      <trkpt lat="47.33362" lon="-1.37313">
        <ele>68</ele>
        <time>2020-12-06T10:17:22.834000+00:00</time>
      </trkpt>
      <trkpt lat="0" lon="0">
        <time>2020-12-06T10:17:22.842000+00:00</time>
      </trkpt>
      <trkpt lat="0" lon="0">
        <time>2020-12-06T10:17:22.851000+00:00</time>
      </trkpt>
      <trkpt lat="0" lon="0">
        <time>2020-12-06T10:17:22.853000+00:00</time>
      </trkpt>
      <trkpt lat="47.33364" lon="-1.37316">
        <ele>68</ele>
        <time>2020-12-06T10:17:23.882000+00:00</time>
      </trkpt>
      <trkpt lat="0" lon="0">
        <time>2020-12-06T10:17:23.887000+00:00</time>
      </trkpt>
      <trkpt lat="0" lon="0">
        <time>2020-12-06T10:17:23.890000+00:00</time>
      </trkpt>
      <trkpt lat="0" lon="0">
        <time>2020-12-06T10:17:23.892000+00:00</time>
      </trkpt>
      <trkpt lat="47.33365" lon="-1.3732">
        <ele>68</ele>
        <time>2020-12-06T10:17:24.822000+00:00</time>
      </trkpt>
      <trkpt lat="0" lon="0">
        <time>2020-12-06T10:17:24.824000+00:00</time>
      </trkpt>
      <trkpt lat="0" lon="0">
        <time>2020-12-06T10:17:24.826000+00:00</time>
      </trkpt>
      <trkpt lat="0" lon="0">
        <time>2020-12-06T10:17:24.827000+00:00</time>
      </trkpt>
      <trkpt lat="47.33366" lon="-1.37324">
        <ele>68</ele>
        <time>2020-12-06T10:17:25.844000+00:00</time>
      </trkpt>
      <trkpt lat="0" lon="0">
        <time>2020-12-06T10:17:25.850000+00:00</time>
      </trkpt>
      <trkpt lat="0" lon="0">
        <time>2020-12-06T10:17:25.853000+00:00</time>
      </trkpt>
      <trkpt lat="0" lon="0">
        <time>2020-12-06T10:17:25.855000+00:00</time>
      </trkpt>
      <trkpt lat="47.33367" lon="-1.37327">
        <ele>69</ele>
        <time>2020-12-06T10:17:26.789000+00:00</time>
      </trkpt>
      <trkpt lat="0" lon="0">
        <time>2020-12-06T10:17:26.791000+00:00</time>
      </trkpt>
      <trkpt lat="0" lon="0">
        <time>2020-12-06T10:17:26.795000+00:00</time>
      </trkpt>
      <trkpt lat="0" lon="0">
        <time>2020-12-06T10:17:26.796000+00:00</time>
      </trkpt>
      <trkpt lat="47.33367" lon="-1.37331">
        <ele>69</ele>
        <time>2020-12-06T10:17:27.784000+00:00</time>
      </trkpt>
      <trkpt lat="0" lon="0">
        <time>2020-12-06T10:17:27.785000+00:00</time>
      </trkpt>
      <trkpt lat="0" lon="0">
        <time>2020-12-06T10:17:27.786000+00:00</time>
      </trkpt>
      <trkpt lat="0" lon="0">
        <time>2020-12-06T10:17:27.787000+00:00</time>
      </trkpt>
      <trkpt lat="47.33368" lon="-1.37334">
        <ele>69</ele>
        <time>2020-12-06T10:17:28.846000+00:00</time>
      </trkpt>
      <trkpt lat="0" lon="0">
        <time>2020-12-06T10:17:28.849000+00:00</time>
      </trkpt>
      <trkpt lat="0" lon="0">
        <time>2020-12-06T10:17:28.852000+00:00</time>
      </trkpt>
      <trkpt lat="0" lon="0">
        <time>2020-12-06T10:17:28.857000+00:00</time>
      </trkpt>
      <trkpt lat="47.33369" lon="-1.37337">
        <ele>69</ele>
        <time>2020-12-06T10:17:29.872000+00:00</time>
      </trkpt>
      <trkpt lat="0" lon="0">
        <time>2020-12-06T10:17:29.875000+00:00</time>
      </trkpt>
      <trkpt lat="0" lon="0">
        <time>2020-12-06T10:17:29.885000+00:00</time>
      </trkpt>
      <trkpt lat="0" lon="0">
        <time>2020-12-06T10:17:29.886000+00:00</time>
      </trkpt>
      <trkpt lat="47.3337" lon="-1.3734">
        <ele>69</ele>
        <time>2020-12-06T10:17:30.862000+00:00</time>
      </trkpt>
      <trkpt lat="0" lon="0">
        <time>2020-12-06T10:17:30.869000+00:00</time>
      </trkpt>
      <trkpt lat="0" lon="0">
        <time>2020-12-06T10:17:30.876000+00:00</time>
      </trkpt>
      <trkpt lat="0" lon="0">
        <time>2020-12-06T10:17:30.888000+00:00</time>
      </trkpt>
      <trkpt lat="47.3337" lon="-1.37343">
        <ele>69</ele>
        <time>2020-12-06T10:17:31.861000+00:00</time>
      </trkpt>
      <trkpt lat="0" lon="0">
        <time>2020-12-06T10:17:31.875000+00:00</time>
      </trkpt>
      <trkpt lat="0" lon="0">
        <time>2020-12-06T10:17:31.883000+00:00</time>
      </trkpt>
      <trkpt lat="0" lon="0">
        <time>2020-12-06T10:17:31.886000+00:00</time>
      </trkpt>
      <trkpt lat="47.33371" lon="-1.37345">
        <ele>69</ele>
        <time>2020-12-06T10:17:32.890000+00:00</time>
      </trkpt>
      <trkpt lat="0" lon="0">
        <time>2020-12-06T10:17:32.902000+00:00</time>
      </trkpt>
      <trkpt lat="0" lon="0">
        <time>2020-12-06T10:17:32.912000+00:00</time>
      </trkpt>
      <trkpt lat="0" lon="0">
        <time>2020-12-06T10:17:32.914000+00:00</time>
      </trkpt>
      <trkpt lat="47.33371" lon="-1.37348">
        <ele>69</ele>
        <time>2020-12-06T10:17:33.895000+00:00</time>
      </trkpt>
      <trkpt lat="0" lon="0">
        <time>2020-12-06T10:17:33.900000+00:00</time>
      </trkpt>
      <trkpt lat="0" lon="0">
        <time>2020-12-06T10:17:33.914000+00:00</time>
      </trkpt>
      <trkpt lat="0" lon="0">
        <time>2020-12-06T10:17:33.917000+00:00</time>
      </trkpt>
      <trkpt lat="47.33371" lon="-1.3735">
        <ele>69</ele>
        <time>2020-12-06T10:17:34.899000+00:00</time>
      </trkpt>
      <trkpt lat="0" lon="0">
        <time>2020-12-06T10:17:34.909000+00:00</time>
      </trkpt>
      <trkpt lat="0" lon="0">
        <time>2020-12-06T10:17:34.913000+00:00</time>
      </trkpt>
      <trkpt lat="0" lon="0">
        <time>2020-12-06T10:17:34.916000+00:00</time>
      </trkpt>
      <trkpt lat="47.33372" lon="-1.37353">
        <ele>69</ele>
        <time>2020-12-06T10:17:35.826000+00:00</time>
      </trkpt>
      <trkpt lat="0" lon="0">
        <time>2020-12-06T10:17:35.834000+00:00</time>
      </trkpt>
      <trkpt lat="0" lon="0">
        <time>2020-12-06T10:17:35.842000+00:00</time>
      </trkpt>
      <trkpt lat="0" lon="0">
        <time>2020-12-06T10:17:35.843000+00:00</time>
      </trkpt>
      <trkpt lat="47.33372" lon="-1.37355">
        <ele>69</ele>
        <time>2020-12-06T10:17:36.822000+00:00</time>
      </trkpt>
      <trkpt lat="0" lon="0">
        <time>2020-12-06T10:17:36.828000+00:00</time>
      </trkpt>
      <trkpt lat="0" lon="0">
        <time>2020-12-06T10:17:36.830000+00:00</time>
      </trkpt>
      <trkpt lat="47.33372" lon="-1.37357">
        <ele>69</ele>
        <time>2020-12-06T10:17:37.887000+00:00</time>
      </trkpt>
      <trkpt lat="0" lon="0">
        <time>2020-12-06T10:17:37.890000+00:00</time>
      </trkpt>
      <trkpt lat="0" lon="0">
        <time>2020-12-06T10:17:37.898000+00:00</time>
      </trkpt>
      <trkpt lat="0" lon="0">
        <time>2020-12-06T10:17:37.901000+00:00</time>
      </trkpt>
      <trkpt lat="47.33373" lon="-1.3736">
        <ele>69</ele>
        <time>2020-12-06T10:17:38.889000+00:00</time>
      </trkpt>
      <trkpt lat="0" lon="0">
        <time>2020-12-06T10:17:38.899000+00:00</time>
      </trkpt>
      <trkpt lat="0" lon="0">
        <time>2020-12-06T10:17:38.903000+00:00</time>
      </trkpt>
      <trkpt lat="0" lon="0">
        <time>2020-12-06T10:17:38.909000+00:00</time>
      </trkpt>
      <trkpt lat="47.33374" lon="-1.37362">
        <ele>69</ele>
        <time>2020-12-06T10:17:39.860000+00:00</time>
      </trkpt>
      <trkpt lat="0" lon="0">
        <time>2020-12-06T10:17:39.866000+00:00</time>
      </trkpt>
      <trkpt lat="0" lon="0">
        <time>2020-12-06T10:17:39.875000+00:00</time>
      </trkpt>
      <trkpt lat="0" lon="0">
        <time>2020-12-06T10:17:39.878000+00:00</time>
      </trkpt>
      <trkpt lat="47.33375" lon="-1.37364">
        <ele>69</ele>
        <time>2020-12-06T10:17:40.865000+00:00</time>
      </trkpt>
      <trkpt lat="0" lon="0">
        <time>2020-12-06T10:17:40.880000+00:00</time>
      </trkpt>
      <trkpt lat="0" lon="0">
        <time>2020-12-06T10:17:40.887000+00:00</time>
      </trkpt>
      <trkpt lat="0" lon="0">
        <time>2020-12-06T10:17:40.893000+00:00</time>
      </trkpt>
      <trkpt lat="47.33375" lon="-1.37366">
        <ele>69</ele>
        <time>2020-12-06T10:17:41.852000+00:00</time>
      </trkpt>
      <trkpt lat="0" lon="0">
        <time>2020-12-06T10:17:41.855000+00:00</time>
      </trkpt>
      <trkpt lat="0" lon="0">
        <time>2020-12-06T10:17:41.864000+00:00</time>
      </trkpt>
      <trkpt lat="0" lon="0">
        <time>2020-12-06T10:17:41.866000+00:00</time>
      </trkpt>
      <trkpt lat="47.33376" lon="-1.37368">
        <ele>69</ele>
        <time>2020-12-06T10:17:42.862000+00:00</time>
      </trkpt>
      <trkpt lat="0" lon="0">
        <time>2020-12-06T10:17:42.883000+00:00</time>
      </trkpt>
      <trkpt lat="0" lon="0">
        <time>2020-12-06T10:17:42.891000+00:00</time>
      </trkpt>
      <trkpt lat="0" lon="0">
        <time>2020-12-06T10:17:42.896000+00:00</time>
      </trkpt>
      <trkpt lat="47.33377" lon="-1.3737">
        <ele>69</ele>
        <time>2020-12-06T10:17:43.894000+00:00</time>
      </trkpt>
      <trkpt lat="0" lon="0">
        <time>2020-12-06T10:17:43.903000+00:00</time>
      </trkpt>
      <trkpt lat="0" lon="0">
        <time>2020-12-06T10:17:43.908000+00:00</time>
      </trkpt>
      <trkpt lat="0" lon="0">
        <time>2020-12-06T10:17:43.920000+00:00</time>
      </trkpt>
      <trkpt lat="47.33378" lon="-1.37373">
        <ele>69</ele>
        <time>2020-12-06T10:17:44.893000+00:00</time>
      </trkpt>
      <trkpt lat="0" lon="0">
        <time>2020-12-06T10:17:44.913000+00:00</time>
      </trkpt>
      <trkpt lat="0" lon="0">
        <time>2020-12-06T10:17:44.919000+00:00</time>
      </trkpt>
      <trkpt lat="0" lon="0">
        <time>2020-12-06T10:17:44.921000+00:00</time>
      </trkpt>
      <trkpt lat="47.33379" lon="-1.37375">
        <ele>69</ele>
        <time>2020-12-06T10:17:45.837000+00:00</time>
      </trkpt>
      <trkpt lat="0" lon="0">
        <time>2020-12-06T10:17:45.842000+00:00</time>
      </trkpt>
      <trkpt lat="0" lon="0">
        <time>2020-12-06T10:17:45.849000+00:00</time>
      </trkpt>
      <trkpt lat="0" lon="0">
        <time>2020-12-06T10:17:45.851000+00:00</time>
      </trkpt>
      <trkpt lat="47.3338" lon="-1.37378">
        <ele>69</ele>
        <time>2020-12-06T10:17:46.881000+00:00</time>
      </trkpt>
      <trkpt lat="0" lon="0">
        <time>2020-12-06T10:17:46.888000+00:00</time>
      </trkpt>
      <trkpt lat="0" lon="0">
        <time>2020-12-06T10:17:46.899000+00:00</time>
      </trkpt>
      <trkpt lat="0" lon="0">
        <time>2020-12-06T10:17:46.907000+00:00</time>
      </trkpt>
      <trkpt lat="47.33382" lon="-1.3738">
        <ele>69</ele>
        <time>2020-12-06T10:17:47.860000+00:00</time>
      </trkpt>
      <trkpt lat="0" lon="0">
        <time>2020-12-06T10:17:47.873000+00:00</time>
      </trkpt>
      <trkpt lat="0" lon="0">
        <time>2020-12-06T10:17:47.879000+00:00</time>
      </trkpt>
      <trkpt lat="0" lon="0">
        <time>2020-12-06T10:17:47.882000+00:00</time>
      </trkpt>
      <trkpt lat="47.33383" lon="-1.37383">
        <ele>69</ele>
        <time>2020-12-06T10:17:48.897000+00:00</time>
      </trkpt>
      <trkpt lat="0" lon="0">
        <time>2020-12-06T10:17:48.901000+00:00</time>
      </trkpt>
      <trkpt lat="0" lon="0">
        <time>2020-12-06T10:17:48.907000+00:00</time>
      </trkpt>
      <trkpt lat="0" lon="0">
        <time>2020-12-06T10:17:48.909000+00:00</time>
      </trkpt>
      <trkpt lat="47.33384" lon="-1.37386">
        <ele>69</ele>
        <time>2020-12-06T10:17:49.888000+00:00</time>
      </trkpt>
      <trkpt lat="0" lon="0">
        <time>2020-12-06T10:17:49.905000+00:00</time>
      </trkpt>
      <trkpt lat="0" lon="0">
        <time>2020-12-06T10:17:49.912000+00:00</time>
      </trkpt>
      <trkpt lat="0" lon="0">
        <time>2020-12-06T10:17:49.914000+00:00</time>
      </trkpt>
      <trkpt lat="47.33385" lon="-1.37389">
        <ele>69</ele>
        <time>2020-12-06T10:17:50.882000+00:00</time>
      </trkpt>
      <trkpt lat="0" lon="0">
        <time>2020-12-06T10:17:50.895000+00:00</time>
      </trkpt>
      <trkpt lat="0" lon="0">
        <time>2020-12-06T10:17:50.900000+00:00</time>
      </trkpt>
      <trkpt lat="0" lon="0">
        <time>2020-12-06T10:17:50.902000+00:00</time>
      </trkpt>
      <trkpt lat="47.33387" lon="-1.37391">
        <ele>69</ele>
        <time>2020-12-06T10:17:51.897000+00:00</time>
      </trkpt>
      <trkpt lat="0" lon="0">
        <time>2020-12-06T10:17:51.902000+00:00</time>
      </trkpt>
      <trkpt lat="0" lon="0">
        <time>2020-12-06T10:17:51.909000+00:00</time>
      </trkpt>
      <trkpt lat="0" lon="0">
        <time>2020-12-06T10:17:51.914000+00:00</time>
      </trkpt>
      <trkpt lat="47.33388" lon="-1.37394">
        <ele>69</ele>
        <time>2020-12-06T10:17:52.869000+00:00</time>
      </trkpt>
      <trkpt lat="0" lon="0">
        <time>2020-12-06T10:17:52.887000+00:00</time>
      </trkpt>
      <trkpt lat="0" lon="0">
        <time>2020-12-06T10:17:52.891000+00:00</time>
      </trkpt>
      <trkpt lat="0" lon="0">
        <time>2020-12-06T10:17:52.892000+00:00</time>
      </trkpt>
      <trkpt lat="47.3339" lon="-1.37396">
        <ele>69</ele>
        <time>2020-12-06T10:17:53.863000+00:00</time>
      </trkpt>
      <trkpt lat="0" lon="0">
        <time>2020-12-06T10:17:53.870000+00:00</time>
      </trkpt>
      <trkpt lat="0" lon="0">
        <time>2020-12-06T10:17:53.872000+00:00</time>
      </trkpt>
      <trkpt lat="0" lon="0">
        <time>2020-12-06T10:17:53.874000+00:00</time>
      </trkpt>
      <trkpt lat="47.33391" lon="-1.37398">
        <ele>69</ele>
        <time>2020-12-06T10:17:54.882000+00:00</time>
      </trkpt>
      <trkpt lat="0" lon="0">
        <time>2020-12-06T10:17:54.885000+00:00</time>
      </trkpt>
      <trkpt lat="0" lon="0">
        <time>2020-12-06T10:17:54.894000+00:00</time>
      </trkpt>
      <trkpt lat="0" lon="0">
        <time>2020-12-06T10:17:54.896000+00:00</time>
      </trkpt>
      <trkpt lat="47.33393" lon="-1.37401">
        <ele>69</ele>
        <time>2020-12-06T10:17:55.842000+00:00</time>
      </trkpt>
      <trkpt lat="0" lon="0">
        <time>2020-12-06T10:17:55.852000+00:00</time>
      </trkpt>
      <trkpt lat="0" lon="0">
        <time>2020-12-06T10:17:55.860000+00:00</time>
      </trkpt>
      <trkpt lat="0" lon="0">
        <time>2020-12-06T10:17:55.862000+00:00</time>
      </trkpt>
      <trkpt lat="47.33395" lon="-1.37403">
        <ele>69</ele>
        <time>2020-12-06T10:17:56.887000+00:00</time>
      </trkpt>
      <trkpt lat="0" lon="0">
        <time>2020-12-06T10:17:56.892000+00:00</time>
      </trkpt>
      <trkpt lat="0" lon="0">
        <time>2020-12-06T10:17:56.899000+00:00</time>
      </trkpt>
      <trkpt lat="0" lon="0">
        <time>2020-12-06T10:17:56.902000+00:00</time>
      </trkpt>
      <trkpt lat="47.33396" lon="-1.37406">
        <ele>69</ele>
        <time>2020-12-06T10:17:57.868000+00:00</time>
      </trkpt>
      <trkpt lat="0" lon="0">
        <time>2020-12-06T10:17:57.871000+00:00</time>
      </trkpt>
      <trkpt lat="0" lon="0">
        <time>2020-12-06T10:17:57.875000+00:00</time>
      </trkpt>
      <trkpt lat="0" lon="0">
        <time>2020-12-06T10:17:57.878000+00:00</time>
      </trkpt>
      <trkpt lat="47.33398" lon="-1.37408">
        <ele>69</ele>
        <time>2020-12-06T10:17:58.885000+00:00</time>
      </trkpt>
      <trkpt lat="0" lon="0">
        <time>2020-12-06T10:17:58.894000+00:00</time>
      </trkpt>
      <trkpt lat="0" lon="0">
        <time>2020-12-06T10:17:58.902000+00:00</time>
      </trkpt>
      <trkpt lat="0" lon="0">
        <time>2020-12-06T10:17:58.904000+00:00</time>
      </trkpt>
      <trkpt lat="47.334" lon="-1.3741">
        <ele>69</ele>
        <time>2020-12-06T10:17:59.880000+00:00</time>
      </trkpt>
      <trkpt lat="0" lon="0">
        <time>2020-12-06T10:17:59.886000+00:00</time>
      </trkpt>
      <trkpt lat="0" lon="0">
        <time>2020-12-06T10:17:59.891000+00:00</time>
      </trkpt>
      <trkpt lat="0" lon="0">
        <time>2020-12-06T10:17:59.893000+00:00</time>
      </trkpt>
      <trkpt lat="47.33401" lon="-1.37413">
        <ele>69</ele>
        <time>2020-12-06T10:18:00.907000+00:00</time>
      </trkpt>
      <trkpt lat="0" lon="0">
        <time>2020-12-06T10:18:00.923000+00:00</time>
      </trkpt>
      <trkpt lat="0" lon="0">
        <time>2020-12-06T10:18:00.936000+00:00</time>
      </trkpt>
      <trkpt lat="0" lon="0">
        <time>2020-12-06T10:18:00.940000+00:00</time>
      </trkpt>
      <trkpt lat="47.33403" lon="-1.37415">
        <ele>70</ele>
        <time>2020-12-06T10:18:01.854000+00:00</time>
      </trkpt>
      <trkpt lat="0" lon="0">
        <time>2020-12-06T10:18:01.860000+00:00</time>
      </trkpt>
      <trkpt lat="0" lon="0">
        <time>2020-12-06T10:18:01.865000+00:00</time>
      </trkpt>
      <trkpt lat="0" lon="0">
        <time>2020-12-06T10:18:01.868000+00:00</time>
      </trkpt>
      <trkpt lat="47.33405" lon="-1.37417">
        <ele>70</ele>
        <time>2020-12-06T10:18:02.875000+00:00</time>
      </trkpt>
      <trkpt lat="0" lon="0">
        <time>2020-12-06T10:18:02.888000+00:00</time>
      </trkpt>
      <trkpt lat="0" lon="0">
        <time>2020-12-06T10:18:02.892000+00:00</time>
      </trkpt>
      <trkpt lat="0" lon="0">
        <time>2020-12-06T10:18:02.894000+00:00</time>
      </trkpt>
      <trkpt lat="47.33406" lon="-1.37419">
        <ele>70</ele>
        <time>2020-12-06T10:18:03.871000+00:00</time>
      </trkpt>
      <trkpt lat="0" lon="0">
        <time>2020-12-06T10:18:03.874000+00:00</time>
      </trkpt>
      <trkpt lat="0" lon="0">
        <time>2020-12-06T10:18:03.889000+00:00</time>
      </trkpt>
      <trkpt lat="0" lon="0">
        <time>2020-12-06T10:18:03.891000+00:00</time>
      </trkpt>
      <trkpt lat="47.33408" lon="-1.37422">
        <ele>70</ele>
        <time>2020-12-06T10:18:04.859000+00:00</time>
      </trkpt>
      <trkpt lat="0" lon="0">
        <time>2020-12-06T10:18:04.866000+00:00</time>
      </trkpt>
      <trkpt lat="0" lon="0">
        <time>2020-12-06T10:18:04.875000+00:00</time>
      </trkpt>
      <trkpt lat="0" lon="0">
        <time>2020-12-06T10:18:04.880000+00:00</time>
      </trkpt>
      <trkpt lat="47.3341" lon="-1.37424">
        <ele>70</ele>
        <time>2020-12-06T10:18:05.847000+00:00</time>
      </trkpt>
      <trkpt lat="0" lon="0">
        <time>2020-12-06T10:18:05.853000+00:00</time>
      </trkpt>
      <trkpt lat="0" lon="0">
        <time>2020-12-06T10:18:05.858000+00:00</time>
      </trkpt>
      <trkpt lat="47.33412" lon="-1.37426">
        <ele>70</ele>
        <time>2020-12-06T10:18:06.861000+00:00</time>
      </trkpt>
      <trkpt lat="0" lon="0">
        <time>2020-12-06T10:18:06.868000+00:00</time>
      </trkpt>
      <trkpt lat="0" lon="0">
        <time>2020-12-06T10:18:06.875000+00:00</time>
      </trkpt>
      <trkpt lat="0" lon="0">
        <time>2020-12-06T10:18:06.884000+00:00</time>
      </trkpt>
      <trkpt lat="47.33414" lon="-1.37428">
        <ele>70</ele>
        <time>2020-12-06T10:18:07.895000+00:00</time>
      </trkpt>
      <trkpt lat="0" lon="0">
        <time>2020-12-06T10:18:07.914000+00:00</time>
      </trkpt>
      <trkpt lat="0" lon="0">
        <time>2020-12-06T10:18:07.920000+00:00</time>
      </trkpt>
      <trkpt lat="0" lon="0">
        <time>2020-12-06T10:18:07.922000+00:00</time>
      </trkpt>
      <trkpt lat="47.33415" lon="-1.3743">
        <ele>70</ele>
        <time>2020-12-06T10:18:08.891000+00:00</time>
      </trkpt>
      <trkpt lat="0" lon="0">
        <time>2020-12-06T10:18:08.907000+00:00</time>
      </trkpt>
      <trkpt lat="0" lon="0">
        <time>2020-12-06T10:18:08.914000+00:00</time>
      </trkpt>
      <trkpt lat="0" lon="0">
        <time>2020-12-06T10:18:08.917000+00:00</time>
      </trkpt>
      <trkpt lat="47.33417" lon="-1.37432">
        <ele>69</ele>
        <time>2020-12-06T10:18:09.883000+00:00</time>
      </trkpt>
      <trkpt lat="0" lon="0">
        <time>2020-12-06T10:18:09.898000+00:00</time>
      </trkpt>
      <trkpt lat="0" lon="0">
        <time>2020-12-06T10:18:09.904000+00:00</time>
      </trkpt>
      <trkpt lat="0" lon="0">
        <time>2020-12-06T10:18:09.909000+00:00</time>
      </trkpt>
      <trkpt lat="47.33419" lon="-1.37434">
        <ele>69</ele>
        <time>2020-12-06T10:18:10.897000+00:00</time>
      </trkpt>
      <trkpt lat="0" lon="0">
        <time>2020-12-06T10:18:10.904000+00:00</time>
      </trkpt>
      <trkpt lat="0" lon="0">
        <time>2020-12-06T10:18:10.919000+00:00</time>
      </trkpt>
      <trkpt lat="0" lon="0">
        <time>2020-12-06T10:18:10.925000+00:00</time>
      </trkpt>
      <trkpt lat="47.33421" lon="-1.37437">
        <ele>69</ele>
        <time>2020-12-06T10:18:11.876000+00:00</time>
      </trkpt>
      <trkpt lat="0" lon="0">
        <time>2020-12-06T10:18:11.886000+00:00</time>
      </trkpt>
      <trkpt lat="0" lon="0">
        <time>2020-12-06T10:18:11.887000+00:00</time>
      </trkpt>
      <trkpt lat="0" lon="0">
        <time>2020-12-06T10:18:11.890000+00:00</time>
      </trkpt>
      <trkpt lat="47.33422" lon="-1.37439">
        <ele>69</ele>
        <time>2020-12-06T10:18:12.870000+00:00</time>
      </trkpt>
      <trkpt lat="0" lon="0">
        <time>2020-12-06T10:18:12.883000+00:00</time>
      </trkpt>
      <trkpt lat="0" lon="0">
        <time>2020-12-06T10:18:12.890000+00:00</time>
      </trkpt>
      <trkpt lat="0" lon="0">
        <time>2020-12-06T10:18:12.893000+00:00</time>
      </trkpt>
      <trkpt lat="47.33423" lon="-1.37443">
        <ele>69</ele>
        <time>2020-12-06T10:18:13.873000+00:00</time>
      </trkpt>
      <trkpt lat="0" lon="0">
        <time>2020-12-06T10:18:13.877000+00:00</time>
      </trkpt>
      <trkpt lat="0" lon="0">
        <time>2020-12-06T10:18:13.880000+00:00</time>
      </trkpt>
      <trkpt lat="0" lon="0">
        <time>2020-12-06T10:18:13.882000+00:00</time>
      </trkpt>
      <trkpt lat="47.33424" lon="-1.37446">
        <ele>69</ele>
        <time>2020-12-06T10:18:14.928000+00:00</time>
      </trkpt>
      <trkpt lat="0" lon="0">
        <time>2020-12-06T10:18:14.931000+00:00</time>
      </trkpt>
      <trkpt lat="0" lon="0">
        <time>2020-12-06T10:18:14.937000+00:00</time>
      </trkpt>
      <trkpt lat="0" lon="0">
        <time>2020-12-06T10:18:14.940000+00:00</time>
      </trkpt>
      <trkpt lat="47.33425" lon="-1.3745">
        <ele>69</ele>
        <time>2020-12-06T10:18:15.866000+00:00</time>
      </trkpt>
      <trkpt lat="0" lon="0">
        <time>2020-12-06T10:18:15.870000+00:00</time>
      </trkpt>
      <trkpt lat="0" lon="0">
        <time>2020-12-06T10:18:15.877000+00:00</time>
      </trkpt>
      <trkpt lat="0" lon="0">
        <time>2020-12-06T10:18:15.879000+00:00</time>
      </trkpt>
      <trkpt lat="47.33426" lon="-1.37454">
        <ele>69</ele>
        <time>2020-12-06T10:18:16.870000+00:00</time>
      </trkpt>
      <trkpt lat="0" lon="0">
        <time>2020-12-06T10:18:16.881000+00:00</time>
      </trkpt>
      <trkpt lat="0" lon="0">
        <time>2020-12-06T10:18:16.885000+00:00</time>
      </trkpt>
      <trkpt lat="0" lon="0">
        <time>2020-12-06T10:18:16.886000+00:00</time>
      </trkpt>
      <trkpt lat="47.33426" lon="-1.37458">
        <ele>69</ele>
        <time>2020-12-06T10:18:17.864000+00:00</time>
      </trkpt>
      <trkpt lat="0" lon="0">
        <time>2020-12-06T10:18:17.881000+00:00</time>
      </trkpt>
      <trkpt lat="0" lon="0">
        <time>2020-12-06T10:18:17.888000+00:00</time>
      </trkpt>
      <trkpt lat="0" lon="0">
        <time>2020-12-06T10:18:17.890000+00:00</time>
      </trkpt>
      <trkpt lat="47.33426" lon="-1.37463">
        <ele>69</ele>
        <time>2020-12-06T10:18:18.919000+00:00</time>
      </trkpt>
      <trkpt lat="0" lon="0">
        <time>2020-12-06T10:18:18.924000+00:00</time>
      </trkpt>
      <trkpt lat="0" lon="0">
        <time>2020-12-06T10:18:18.926000+00:00</time>
      </trkpt>
      <trkpt lat="0" lon="0">
        <time>2020-12-06T10:18:18.927000+00:00</time>
      </trkpt>
      <trkpt lat="47.33425" lon="-1.37467">
        <ele>69</ele>
        <time>2020-12-06T10:18:19.834000+00:00</time>
      </trkpt>
      <trkpt lat="0" lon="0">
        <time>2020-12-06T10:18:19.840000+00:00</time>
      </trkpt>
      <trkpt lat="0" lon="0">
        <time>2020-12-06T10:18:19.843000+00:00</time>
      </trkpt>
      <trkpt lat="0" lon="0">
        <time>2020-12-06T10:18:19.847000+00:00</time>
      </trkpt>
      <trkpt lat="47.33424" lon="-1.37472">
        <ele>69</ele>
        <time>2020-12-06T10:18:20.835000+00:00</time>
      </trkpt>
      <trkpt lat="0" lon="0">
        <time>2020-12-06T10:18:20.843000+00:00</time>
      </trkpt>
      <trkpt lat="0" lon="0">
        <time>2020-12-06T10:18:20.848000+00:00</time>
      </trkpt>
      <trkpt lat="0" lon="0">
        <time>2020-12-06T10:18:20.849000+00:00</time>
      </trkpt>
      <trkpt lat="47.33423" lon="-1.37476">
        <ele>69</ele>
        <time>2020-12-06T10:18:21.869000+00:00</time>
      </trkpt>
      <trkpt lat="0" lon="0">
        <time>2020-12-06T10:18:21.874000+00:00</time>
      </trkpt>
      <trkpt lat="0" lon="0">
        <time>2020-12-06T10:18:21.882000+00:00</time>
      </trkpt>
      <trkpt lat="0" lon="0">
        <time>2020-12-06T10:18:21.888000+00:00</time>
      </trkpt>
      <trkpt lat="47.33422" lon="-1.3748">
        <ele>69</ele>
        <time>2020-12-06T10:18:22.858000+00:00</time>
      </trkpt>
      <trkpt lat="0" lon="0">
        <time>2020-12-06T10:18:22.866000+00:00</time>
      </trkpt>
      <trkpt lat="0" lon="0">
        <time>2020-12-06T10:18:22.876000+00:00</time>
      </trkpt>
      <trkpt lat="0" lon="0">
        <time>2020-12-06T10:18:22.877000+00:00</time>
      </trkpt>
      <trkpt lat="47.33421" lon="-1.37485">
        <ele>69</ele>
        <time>2020-12-06T10:18:23.842000+00:00</time>
      </trkpt>
      <trkpt lat="0" lon="0">
        <time>2020-12-06T10:18:23.852000+00:00</time>
      </trkpt>
      <trkpt lat="0" lon="0">
        <time>2020-12-06T10:18:23.858000+00:00</time>
      </trkpt>
      <trkpt lat="0" lon="0">
        <time>2020-12-06T10:18:23.859000+00:00</time>
      </trkpt>
      <trkpt lat="47.33419" lon="-1.37489">
        <ele>69</ele>
        <time>2020-12-06T10:18:24.824000+00:00</time>
      </trkpt>
      <trkpt lat="0" lon="0">
        <time>2020-12-06T10:18:24.853000+00:00</time>
      </trkpt>
      <trkpt lat="0" lon="0">
        <time>2020-12-06T10:18:24.856000+00:00</time>
      </trkpt>
      <trkpt lat="0" lon="0">
        <time>2020-12-06T10:18:24.857000+00:00</time>
      </trkpt>
      <trkpt lat="47.33417" lon="-1.37493">
        <ele>69</ele>
        <time>2020-12-06T10:18:25.914000+00:00</time>
      </trkpt>
      <trkpt lat="0" lon="0">
        <time>2020-12-06T10:18:25.925000+00:00</time>
      </trkpt>
      <trkpt lat="0" lon="0">
        <time>2020-12-06T10:18:25.937000+00:00</time>
      </trkpt>
      <trkpt lat="0" lon="0">
        <time>2020-12-06T10:18:25.938000+00:00</time>
      </trkpt>
      <trkpt lat="47.33416" lon="-1.37497">
        <ele>70</ele>
        <time>2020-12-06T10:18:26.888000+00:00</time>
      </trkpt>
      <trkpt lat="0" lon="0">
        <time>2020-12-06T10:18:26.900000+00:00</time>
      </trkpt>
      <trkpt lat="0" lon="0">
        <time>2020-12-06T10:18:26.912000+00:00</time>
      </trkpt>
      <trkpt lat="0" lon="0">
        <time>2020-12-06T10:18:26.913000+00:00</time>
      </trkpt>
      <trkpt lat="47.33414" lon="-1.37501">
        <ele>70</ele>
        <time>2020-12-06T10:18:27.907000+00:00</time>
      </trkpt>
      <trkpt lat="0" lon="0">
        <time>2020-12-06T10:18:27.913000+00:00</time>
      </trkpt>
      <trkpt lat="0" lon="0">
        <time>2020-12-06T10:18:27.920000+00:00</time>
      </trkpt>
      <trkpt lat="0" lon="0">
        <time>2020-12-06T10:18:27.923000+00:00</time>
      </trkpt>
      <trkpt lat="47.33412" lon="-1.37506">
        <ele>70</ele>
        <time>2020-12-06T10:18:28.888000+00:00</time>
      </trkpt>
      <trkpt lat="0" lon="0">
        <time>2020-12-06T10:18:28.899000+00:00</time>
      </trkpt>
      <trkpt lat="0" lon="0">
        <time>2020-12-06T10:18:28.902000+00:00</time>
      </trkpt>
      <trkpt lat="0" lon="0">
        <time>2020-12-06T10:18:28.908000+00:00</time>
      </trkpt>
      <trkpt lat="47.33411" lon="-1.3751">
        <ele>70</ele>
        <time>2020-12-06T10:18:29.894000+00:00</time>
      </trkpt>
      <trkpt lat="0" lon="0">
        <time>2020-12-06T10:18:29.898000+00:00</time>
      </trkpt>
      <trkpt lat="0" lon="0">
        <time>2020-12-06T10:18:29.908000+00:00</time>
      </trkpt>
      <trkpt lat="0" lon="0">
        <time>2020-12-06T10:18:29.912000+00:00</time>
      </trkpt>
      <trkpt lat="47.33409" lon="-1.37514">
        <ele>70</ele>
        <time>2020-12-06T10:18:30.886000+00:00</time>
      </trkpt>
      <trkpt lat="0" lon="0">
        <time>2020-12-06T10:18:30.897000+00:00</time>
      </trkpt>
      <trkpt lat="0" lon="0">
        <time>2020-12-06T10:18:30.903000+00:00</time>
      </trkpt>
      <trkpt lat="0" lon="0">
        <time>2020-12-06T10:18:30.905000+00:00</time>
      </trkpt>
      <trkpt lat="47.33407" lon="-1.37518">
        <ele>70</ele>
        <time>2020-12-06T10:18:31.843000+00:00</time>
      </trkpt>
      <trkpt lat="0" lon="0">
        <time>2020-12-06T10:18:31.851000+00:00</time>
      </trkpt>
      <trkpt lat="0" lon="0">
        <time>2020-12-06T10:18:31.855000+00:00</time>
      </trkpt>
      <trkpt lat="0" lon="0">
        <time>2020-12-06T10:18:31.857000+00:00</time>
      </trkpt>
      <trkpt lat="47.33406" lon="-1.37522">
        <ele>70</ele>
        <time>2020-12-06T10:18:32.828000+00:00</time>
      </trkpt>
      <trkpt lat="0" lon="0">
        <time>2020-12-06T10:18:32.829000+00:00</time>
      </trkpt>
      <trkpt lat="0" lon="0">
        <time>2020-12-06T10:18:32.830000+00:00</time>
      </trkpt>
      <trkpt lat="0" lon="0">
        <time>2020-12-06T10:18:32.831000+00:00</time>
      </trkpt>
      <trkpt lat="47.33404" lon="-1.37526">
        <ele>70</ele>
        <time>2020-12-06T10:18:33.880000+00:00</time>
      </trkpt>
      <trkpt lat="0" lon="0">
        <time>2020-12-06T10:18:33.883000+00:00</time>
      </trkpt>
      <trkpt lat="0" lon="0">
        <time>2020-12-06T10:18:33.891000+00:00</time>
      </trkpt>
      <trkpt lat="0" lon="0">
        <time>2020-12-06T10:18:33.893000+00:00</time>
      </trkpt>
      <trkpt lat="47.33402" lon="-1.37529">
        <ele>70</ele>
        <time>2020-12-06T10:18:34.892000+00:00</time>
      </trkpt>
      <trkpt lat="0" lon="0">
        <time>2020-12-06T10:18:34.902000+00:00</time>
      </trkpt>
      <trkpt lat="0" lon="0">
        <time>2020-12-06T10:18:34.905000+00:00</time>
      </trkpt>
      <trkpt lat="0" lon="0">
        <time>2020-12-06T10:18:34.913000+00:00</time>
      </trkpt>
      <trkpt lat="47.33401" lon="-1.37533">
        <ele>70</ele>
        <time>2020-12-06T10:18:35.899000+00:00</time>
      </trkpt>
      <trkpt lat="0" lon="0">
        <time>2020-12-06T10:18:35.903000+00:00</time>
      </trkpt>
      <trkpt lat="0" lon="0">
        <time>2020-12-06T10:18:35.918000+00:00</time>
      </trkpt>
      <trkpt lat="0" lon="0">
        <time>2020-12-06T10:18:35.920000+00:00</time>
      </trkpt>
      <trkpt lat="47.334" lon="-1.37536">
        <ele>70</ele>
        <time>2020-12-06T10:18:36.885000+00:00</time>
      </trkpt>
      <trkpt lat="0" lon="0">
        <time>2020-12-06T10:18:36.894000+00:00</time>
      </trkpt>
      <trkpt lat="0" lon="0">
        <time>2020-12-06T10:18:36.901000+00:00</time>
      </trkpt>
      <trkpt lat="0" lon="0">
        <time>2020-12-06T10:18:36.905000+00:00</time>
      </trkpt>
      <trkpt lat="47.33398" lon="-1.3754">
        <ele>70</ele>
        <time>2020-12-06T10:18:37.889000+00:00</time>
      </trkpt>
      <trkpt lat="0" lon="0">
        <time>2020-12-06T10:18:37.900000+00:00</time>
      </trkpt>
      <trkpt lat="0" lon="0">
        <time>2020-12-06T10:18:37.909000+00:00</time>
      </trkpt>
      <trkpt lat="0" lon="0">
        <time>2020-12-06T10:18:37.916000+00:00</time>
      </trkpt>
      <trkpt lat="47.33397" lon="-1.37543">
        <ele>70</ele>
        <time>2020-12-06T10:18:38.887000+00:00</time>
      </trkpt>
      <trkpt lat="0" lon="0">
        <time>2020-12-06T10:18:38.900000+00:00</time>
      </trkpt>
      <trkpt lat="0" lon="0">
        <time>2020-12-06T10:18:38.909000+00:00</time>
      </trkpt>
      <trkpt lat="0" lon="0">
        <time>2020-12-06T10:18:38.913000+00:00</time>
      </trkpt>
      <trkpt lat="47.33395" lon="-1.37547">
        <ele>70</ele>
        <time>2020-12-06T10:18:39.830000+00:00</time>
      </trkpt>
      <trkpt lat="0" lon="0">
        <time>2020-12-06T10:18:39.843000+00:00</time>
      </trkpt>
      <trkpt lat="0" lon="0">
        <time>2020-12-06T10:18:39.847000+00:00</time>
      </trkpt>
      <trkpt lat="0" lon="0">
        <time>2020-12-06T10:18:39.849000+00:00</time>
      </trkpt>
      <trkpt lat="47.33394" lon="-1.3755">
        <ele>70</ele>
        <time>2020-12-06T10:18:40.918000+00:00</time>
      </trkpt>
      <trkpt lat="0" lon="0">
        <time>2020-12-06T10:18:40.929000+00:00</time>
      </trkpt>
      <trkpt lat="0" lon="0">
        <time>2020-12-06T10:18:40.939000+00:00</time>
      </trkpt>
      <trkpt lat="0" lon="0">
        <time>2020-12-06T10:18:40.942000+00:00</time>
      </trkpt>
      <trkpt lat="47.33392" lon="-1.37553">
        <ele>70</ele>
        <time>2020-12-06T10:18:41.858000+00:00</time>
      </trkpt>
      <trkpt lat="0" lon="0">
        <time>2020-12-06T10:18:41.866000+00:00</time>
      </trkpt>
      <trkpt lat="0" lon="0">
        <time>2020-12-06T10:18:41.869000+00:00</time>
      </trkpt>
      <trkpt lat="0" lon="0">
        <time>2020-12-06T10:18:41.874000+00:00</time>
      </trkpt>
      <trkpt lat="47.33391" lon="-1.37556">
        <ele>70</ele>
        <time>2020-12-06T10:18:42.936000+00:00</time>
      </trkpt>
      <trkpt lat="0" lon="0">
        <time>2020-12-06T10:18:42.946000+00:00</time>
      </trkpt>
      <trkpt lat="0" lon="0">
        <time>2020-12-06T10:18:42.950000+00:00</time>
      </trkpt>
      <trkpt lat="0" lon="0">
        <time>2020-12-06T10:18:42.961000+00:00</time>
      </trkpt>
      <trkpt lat="47.33389" lon="-1.37559">
        <ele>70</ele>
        <time>2020-12-06T10:18:43.893000+00:00</time>
      </trkpt>
      <trkpt lat="0" lon="0">
        <time>2020-12-06T10:18:43.899000+00:00</time>
      </trkpt>
      <trkpt lat="0" lon="0">
        <time>2020-12-06T10:18:43.904000+00:00</time>
      </trkpt>
      <trkpt lat="0" lon="0">
        <time>2020-12-06T10:18:43.906000+00:00</time>
      </trkpt>
      <trkpt lat="47.33388" lon="-1.37562">
        <ele>70</ele>
        <time>2020-12-06T10:18:44.885000+00:00</time>
      </trkpt>
      <trkpt lat="0" lon="0">
        <time>2020-12-06T10:18:44.892000+00:00</time>
      </trkpt>
      <trkpt lat="0" lon="0">
        <time>2020-12-06T10:18:44.895000+00:00</time>
      </trkpt>
      <trkpt lat="0" lon="0">
        <time>2020-12-06T10:18:44.898000+00:00</time>
      </trkpt>
      <trkpt lat="47.33386" lon="-1.37565">
        <ele>70</ele>
        <time>2020-12-06T10:18:45.928000+00:00</time>
      </trkpt>
      <trkpt lat="0" lon="0">
        <time>2020-12-06T10:18:45.931000+00:00</time>
      </trkpt>
      <trkpt lat="0" lon="0">
        <time>2020-12-06T10:18:45.933000+00:00</time>
      </trkpt>
      <trkpt lat="0" lon="0">
        <time>2020-12-06T10:18:45.935000+00:00</time>
      </trkpt>
      <trkpt lat="47.33385" lon="-1.37568">
        <ele>70</ele>
        <time>2020-12-06T10:18:46.899000+00:00</time>
      </trkpt>
      <trkpt lat="0" lon="0">
        <time>2020-12-06T10:18:46.915000+00:00</time>
      </trkpt>
      <trkpt lat="0" lon="0">
        <time>2020-12-06T10:18:46.918000+00:00</time>
      </trkpt>
      <trkpt lat="0" lon="0">
        <time>2020-12-06T10:18:46.920000+00:00</time>
      </trkpt>
      <trkpt lat="47.33384" lon="-1.37571">
        <ele>70</ele>
        <time>2020-12-06T10:18:47.876000+00:00</time>
      </trkpt>
      <trkpt lat="0" lon="0">
        <time>2020-12-06T10:18:47.883000+00:00</time>
      </trkpt>
      <trkpt lat="0" lon="0">
        <time>2020-12-06T10:18:47.887000+00:00</time>
      </trkpt>
      <trkpt lat="0" lon="0">
        <time>2020-12-06T10:18:47.894000+00:00</time>
      </trkpt>
      <trkpt lat="47.33382" lon="-1.37574">
        <ele>70</ele>
        <time>2020-12-06T10:18:48.901000+00:00</time>
      </trkpt>
      <trkpt lat="0" lon="0">
        <time>2020-12-06T10:18:48.917000+00:00</time>
      </trkpt>
      <trkpt lat="0" lon="0">
        <time>2020-12-06T10:18:48.923000+00:00</time>
      </trkpt>
      <trkpt lat="0" lon="0">
        <time>2020-12-06T10:18:48.926000+00:00</time>
      </trkpt>
      <trkpt lat="47.33381" lon="-1.37577">
        <ele>70</ele>
        <time>2020-12-06T10:18:49.925000+00:00</time>
      </trkpt>
      <trkpt lat="0" lon="0">
        <time>2020-12-06T10:18:49.927000+00:00</time>
      </trkpt>
      <trkpt lat="0" lon="0">
        <time>2020-12-06T10:18:49.937000+00:00</time>
      </trkpt>
      <trkpt lat="0" lon="0">
        <time>2020-12-06T10:18:49.942000+00:00</time>
      </trkpt>
      <trkpt lat="47.33379" lon="-1.3758">
        <ele>71</ele>
        <time>2020-12-06T10:18:50.900000+00:00</time>
      </trkpt>
      <trkpt lat="0" lon="0">
        <time>2020-12-06T10:18:50.910000+00:00</time>
      </trkpt>
      <trkpt lat="0" lon="0">
        <time>2020-12-06T10:18:50.913000+00:00</time>
      </trkpt>
      <trkpt lat="0" lon="0">
        <time>2020-12-06T10:18:50.916000+00:00</time>
      </trkpt>
      <trkpt lat="47.33378" lon="-1.37583">
        <ele>71</ele>
        <time>2020-12-06T10:18:51.905000+00:00</time>
      </trkpt>
      <trkpt lat="0" lon="0">
        <time>2020-12-06T10:18:51.911000+00:00</time>
      </trkpt>
      <trkpt lat="0" lon="0">
        <time>2020-12-06T10:18:51.913000+00:00</time>
      </trkpt>
      <trkpt lat="0" lon="0">
        <time>2020-12-06T10:18:51.914000+00:00</time>
      </trkpt>
      <trkpt lat="47.33376" lon="-1.37587">
        <ele>71</ele>
        <time>2020-12-06T10:18:52.907000+00:00</time>
      </trkpt>
      <trkpt lat="0" lon="0">
        <time>2020-12-06T10:18:52.911000+00:00</time>
      </trkpt>
      <trkpt lat="0" lon="0">
        <time>2020-12-06T10:18:52.923000+00:00</time>
      </trkpt>
      <trkpt lat="0" lon="0">
        <time>2020-12-06T10:18:52.925000+00:00</time>
      </trkpt>
      <trkpt lat="47.33375" lon="-1.3759">
        <ele>71</ele>
        <time>2020-12-06T10:18:53.876000+00:00</time>
      </trkpt>
      <trkpt lat="0" lon="0">
        <time>2020-12-06T10:18:53.881000+00:00</time>
      </trkpt>
      <trkpt lat="0" lon="0">
        <time>2020-12-06T10:18:53.887000+00:00</time>
      </trkpt>
      <trkpt lat="0" lon="0">
        <time>2020-12-06T10:18:53.889000+00:00</time>
      </trkpt>
      <trkpt lat="47.33373" lon="-1.37593">
        <ele>71</ele>
        <time>2020-12-06T10:18:54.864000+00:00</time>
      </trkpt>
      <trkpt lat="0" lon="0">
        <time>2020-12-06T10:18:54.876000+00:00</time>
      </trkpt>
      <trkpt lat="0" lon="0">
        <time>2020-12-06T10:18:54.883000+00:00</time>
      </trkpt>
      <trkpt lat="0" lon="0">
        <time>2020-12-06T10:18:54.886000+00:00</time>
      </trkpt>
      <trkpt lat="47.33372" lon="-1.37597">
        <ele>71</ele>
        <time>2020-12-06T10:18:55.864000+00:00</time>
      </trkpt>
      <trkpt lat="0" lon="0">
        <time>2020-12-06T10:18:55.871000+00:00</time>
      </trkpt>
      <trkpt lat="0" lon="0">
        <time>2020-12-06T10:18:55.879000+00:00</time>
      </trkpt>
      <trkpt lat="0" lon="0">
        <time>2020-12-06T10:18:55.883000+00:00</time>
      </trkpt>
      <trkpt lat="47.33371" lon="-1.37601">
        <ele>71</ele>
        <time>2020-12-06T10:18:56.874000+00:00</time>
      </trkpt>
      <trkpt lat="0" lon="0">
        <time>2020-12-06T10:18:56.887000+00:00</time>
      </trkpt>
      <trkpt lat="0" lon="0">
        <time>2020-12-06T10:18:56.894000+00:00</time>
      </trkpt>
      <trkpt lat="0" lon="0">
        <time>2020-12-06T10:18:56.896000+00:00</time>
      </trkpt>
      <trkpt lat="47.33369" lon="-1.37605">
        <ele>71</ele>
        <time>2020-12-06T10:18:57.878000+00:00</time>
      </trkpt>
      <trkpt lat="0" lon="0">
        <time>2020-12-06T10:18:57.881000+00:00</time>
      </trkpt>
      <trkpt lat="0" lon="0">
        <time>2020-12-06T10:18:57.887000+00:00</time>
      </trkpt>
      <trkpt lat="0" lon="0">
        <time>2020-12-06T10:18:57.890000+00:00</time>
      </trkpt>
      <trkpt lat="47.33368" lon="-1.37608">
        <ele>71</ele>
        <time>2020-12-06T10:18:58.881000+00:00</time>
      </trkpt>
      <trkpt lat="0" lon="0">
        <time>2020-12-06T10:18:58.887000+00:00</time>
      </trkpt>
      <trkpt lat="0" lon="0">
        <time>2020-12-06T10:18:58.900000+00:00</time>
      </trkpt>
      <trkpt lat="0" lon="0">
        <time>2020-12-06T10:18:58.902000+00:00</time>
      </trkpt>
      <trkpt lat="47.33366" lon="-1.37612">
        <ele>71</ele>
        <time>2020-12-06T10:18:59.878000+00:00</time>
      </trkpt>
      <trkpt lat="0" lon="0">
        <time>2020-12-06T10:18:59.884000+00:00</time>
      </trkpt>
      <trkpt lat="0" lon="0">
        <time>2020-12-06T10:18:59.889000+00:00</time>
      </trkpt>
      <trkpt lat="0" lon="0">
        <time>2020-12-06T10:18:59.897000+00:00</time>
      </trkpt>
      <trkpt lat="47.33364" lon="-1.37616">
        <ele>71</ele>
        <time>2020-12-06T10:19:00.874000+00:00</time>
      </trkpt>
      <trkpt lat="0" lon="0">
        <time>2020-12-06T10:19:00.878000+00:00</time>
      </trkpt>
      <trkpt lat="0" lon="0">
        <time>2020-12-06T10:19:00.882000+00:00</time>
      </trkpt>
      <trkpt lat="0" lon="0">
        <time>2020-12-06T10:19:00.883000+00:00</time>
      </trkpt>
      <trkpt lat="47.33363" lon="-1.3762">
        <ele>71</ele>
        <time>2020-12-06T10:19:01.882000+00:00</time>
      </trkpt>
      <trkpt lat="0" lon="0">
        <time>2020-12-06T10:19:01.888000+00:00</time>
      </trkpt>
      <trkpt lat="0" lon="0">
        <time>2020-12-06T10:19:01.900000+00:00</time>
      </trkpt>
      <trkpt lat="0" lon="0">
        <time>2020-12-06T10:19:01.902000+00:00</time>
      </trkpt>
      <trkpt lat="47.33361" lon="-1.37625">
        <ele>71</ele>
        <time>2020-12-06T10:19:02.871000+00:00</time>
      </trkpt>
      <trkpt lat="0" lon="0">
        <time>2020-12-06T10:19:02.875000+00:00</time>
      </trkpt>
      <trkpt lat="0" lon="0">
        <time>2020-12-06T10:19:02.881000+00:00</time>
      </trkpt>
      <trkpt lat="0" lon="0">
        <time>2020-12-06T10:19:02.894000+00:00</time>
      </trkpt>
      <trkpt lat="47.3336" lon="-1.37629">
        <ele>71</ele>
        <time>2020-12-06T10:19:03.873000+00:00</time>
      </trkpt>
      <trkpt lat="0" lon="0">
        <time>2020-12-06T10:19:03.878000+00:00</time>
      </trkpt>
      <trkpt lat="0" lon="0">
        <time>2020-12-06T10:19:03.883000+00:00</time>
      </trkpt>
      <trkpt lat="0" lon="0">
        <time>2020-12-06T10:19:03.888000+00:00</time>
      </trkpt>
      <trkpt lat="47.33358" lon="-1.37634">
        <ele>71</ele>
        <time>2020-12-06T10:19:04.876000+00:00</time>
      </trkpt>
      <trkpt lat="0" lon="0">
        <time>2020-12-06T10:19:04.881000+00:00</time>
      </trkpt>
      <trkpt lat="0" lon="0">
        <time>2020-12-06T10:19:04.884000+00:00</time>
      </trkpt>
      <trkpt lat="0" lon="0">
        <time>2020-12-06T10:19:04.886000+00:00</time>
      </trkpt>
      <trkpt lat="47.33356" lon="-1.37638">
        <ele>71</ele>
        <time>2020-12-06T10:19:05.850000+00:00</time>
      </trkpt>
      <trkpt lat="0" lon="0">
        <time>2020-12-06T10:19:05.863000+00:00</time>
      </trkpt>
      <trkpt lat="0" lon="0">
        <time>2020-12-06T10:19:05.866000+00:00</time>
      </trkpt>
      <trkpt lat="0" lon="0">
        <time>2020-12-06T10:19:05.868000+00:00</time>
      </trkpt>
      <trkpt lat="47.33355" lon="-1.37643">
        <ele>71</ele>
        <time>2020-12-06T10:19:06.891000+00:00</time>
      </trkpt>
      <trkpt lat="0" lon="0">
        <time>2020-12-06T10:19:06.905000+00:00</time>
      </trkpt>
      <trkpt lat="0" lon="0">
        <time>2020-12-06T10:19:06.909000+00:00</time>
      </trkpt>
      <trkpt lat="0" lon="0">
        <time>2020-12-06T10:19:06.910000+00:00</time>
      </trkpt>
      <trkpt lat="47.33353" lon="-1.37649">
        <ele>71</ele>
        <time>2020-12-06T10:19:07.884000+00:00</time>
      </trkpt>
      <trkpt lat="0" lon="0">
        <time>2020-12-06T10:19:07.888000+00:00</time>
      </trkpt>
      <trkpt lat="0" lon="0">
        <time>2020-12-06T10:19:07.898000+00:00</time>
      </trkpt>
      <trkpt lat="0" lon="0">
        <time>2020-12-06T10:19:07.900000+00:00</time>
      </trkpt>
      <trkpt lat="47.33352" lon="-1.37654">
        <ele>71</ele>
        <time>2020-12-06T10:19:08.885000+00:00</time>
      </trkpt>
      <trkpt lat="0" lon="0">
        <time>2020-12-06T10:19:08.894000+00:00</time>
      </trkpt>
      <trkpt lat="0" lon="0">
        <time>2020-12-06T10:19:08.901000+00:00</time>
      </trkpt>
      <trkpt lat="0" lon="0">
        <time>2020-12-06T10:19:08.903000+00:00</time>
      </trkpt>
      <trkpt lat="47.3335" lon="-1.3766">
        <ele>71</ele>
        <time>2020-12-06T10:19:09.890000+00:00</time>
      </trkpt>
      <trkpt lat="0" lon="0">
        <time>2020-12-06T10:19:09.902000+00:00</time>
      </trkpt>
      <trkpt lat="0" lon="0">
        <time>2020-12-06T10:19:09.906000+00:00</time>
      </trkpt>
      <trkpt lat="0" lon="0">
        <time>2020-12-06T10:19:09.909000+00:00</time>
      </trkpt>
      <trkpt lat="47.33348" lon="-1.37666">
        <ele>71</ele>
        <time>2020-12-06T10:19:10.888000+00:00</time>
      </trkpt>
      <trkpt lat="0" lon="0">
        <time>2020-12-06T10:19:10.898000+00:00</time>
      </trkpt>
      <trkpt lat="0" lon="0">
        <time>2020-12-06T10:19:10.904000+00:00</time>
      </trkpt>
      <trkpt lat="0" lon="0">
        <time>2020-12-06T10:19:10.906000+00:00</time>
      </trkpt>
      <trkpt lat="47.33347" lon="-1.37672">
        <ele>71</ele>
        <time>2020-12-06T10:19:11.905000+00:00</time>
      </trkpt>
      <trkpt lat="0" lon="0">
        <time>2020-12-06T10:19:11.912000+00:00</time>
      </trkpt>
      <trkpt lat="0" lon="0">
        <time>2020-12-06T10:19:11.916000+00:00</time>
      </trkpt>
      <trkpt lat="0" lon="0">
        <time>2020-12-06T10:19:11.919000+00:00</time>
      </trkpt>
      <trkpt lat="47.33345" lon="-1.37677">
        <ele>71</ele>
        <time>2020-12-06T10:19:12.891000+00:00</time>
      </trkpt>
      <trkpt lat="0" lon="0">
        <time>2020-12-06T10:19:12.902000+00:00</time>
      </trkpt>
      <trkpt lat="0" lon="0">
        <time>2020-12-06T10:19:12.907000+00:00</time>
      </trkpt>
      <trkpt lat="0" lon="0">
        <time>2020-12-06T10:19:12.911000+00:00</time>
      </trkpt>
      <trkpt lat="47.33343" lon="-1.37683">
        <ele>71</ele>
        <time>2020-12-06T10:19:13.866000+00:00</time>
      </trkpt>
      <trkpt lat="0" lon="0">
        <time>2020-12-06T10:19:13.875000+00:00</time>
      </trkpt>
      <trkpt lat="0" lon="0">
        <time>2020-12-06T10:19:13.878000+00:00</time>
      </trkpt>
      <trkpt lat="0" lon="0">
        <time>2020-12-06T10:19:13.880000+00:00</time>
      </trkpt>
      <trkpt lat="47.33341" lon="-1.37689">
        <ele>71</ele>
        <time>2020-12-06T10:19:14.900000+00:00</time>
      </trkpt>
      <trkpt lat="0" lon="0">
        <time>2020-12-06T10:19:14.906000+00:00</time>
      </trkpt>
      <trkpt lat="0" lon="0">
        <time>2020-12-06T10:19:14.910000+00:00</time>
      </trkpt>
      <trkpt lat="0" lon="0">
        <time>2020-12-06T10:19:14.912000+00:00</time>
      </trkpt>
      <trkpt lat="47.3334" lon="-1.37695">
        <ele>71</ele>
        <time>2020-12-06T10:19:15.897000+00:00</time>
      </trkpt>
      <trkpt lat="0" lon="0">
        <time>2020-12-06T10:19:15.901000+00:00</time>
      </trkpt>
      <trkpt lat="0" lon="0">
        <time>2020-12-06T10:19:15.904000+00:00</time>
      </trkpt>
      <trkpt lat="0" lon="0">
        <time>2020-12-06T10:19:15.906000+00:00</time>
      </trkpt>
      <trkpt lat="47.33338" lon="-1.37701">
        <ele>71</ele>
        <time>2020-12-06T10:19:16.914000+00:00</time>
      </trkpt>
      <trkpt lat="0" lon="0">
        <time>2020-12-06T10:19:16.929000+00:00</time>
      </trkpt>
      <trkpt lat="0" lon="0">
        <time>2020-12-06T10:19:16.930000+00:00</time>
      </trkpt>
      <trkpt lat="0" lon="0">
        <time>2020-12-06T10:19:16.931000+00:00</time>
      </trkpt>
      <trkpt lat="47.33337" lon="-1.37707">
        <ele>71</ele>
        <time>2020-12-06T10:19:17.876000+00:00</time>
      </trkpt>
      <trkpt lat="0" lon="0">
        <time>2020-12-06T10:19:17.902000+00:00</time>
      </trkpt>
      <trkpt lat="0" lon="0">
        <time>2020-12-06T10:19:17.910000+00:00</time>
      </trkpt>
      <trkpt lat="0" lon="0">
        <time>2020-12-06T10:19:17.912000+00:00</time>
      </trkpt>
      <trkpt lat="47.33336" lon="-1.37713">
        <ele>72</ele>
        <time>2020-12-06T10:19:18.882000+00:00</time>
      </trkpt>
      <trkpt lat="0" lon="0">
        <time>2020-12-06T10:19:18.887000+00:00</time>
      </trkpt>
      <trkpt lat="0" lon="0">
        <time>2020-12-06T10:19:18.900000+00:00</time>
      </trkpt>
      <trkpt lat="0" lon="0">
        <time>2020-12-06T10:19:18.903000+00:00</time>
      </trkpt>
      <trkpt lat="47.33334" lon="-1.37719">
        <ele>72</ele>
        <time>2020-12-06T10:19:19.901000+00:00</time>
      </trkpt>
      <trkpt lat="0" lon="0">
        <time>2020-12-06T10:19:19.923000+00:00</time>
      </trkpt>
      <trkpt lat="0" lon="0">
        <time>2020-12-06T10:19:19.931000+00:00</time>
      </trkpt>
      <trkpt lat="0" lon="0">
        <time>2020-12-06T10:19:19.934000+00:00</time>
      </trkpt>
      <trkpt lat="47.33333" lon="-1.37725">
        <ele>72</ele>
        <time>2020-12-06T10:19:20.908000+00:00</time>
      </trkpt>
      <trkpt lat="0" lon="0">
        <time>2020-12-06T10:19:20.922000+00:00</time>
      </trkpt>
      <trkpt lat="0" lon="0">
        <time>2020-12-06T10:19:20.926000+00:00</time>
      </trkpt>
      <trkpt lat="0" lon="0">
        <time>2020-12-06T10:19:20.929000+00:00</time>
      </trkpt>
      <trkpt lat="47.33332" lon="-1.37731">
        <ele>72</ele>
        <time>2020-12-06T10:19:21.913000+00:00</time>
      </trkpt>
      <trkpt lat="0" lon="0">
        <time>2020-12-06T10:19:21.921000+00:00</time>
      </trkpt>
      <trkpt lat="0" lon="0">
        <time>2020-12-06T10:19:21.925000+00:00</time>
      </trkpt>
      <trkpt lat="0" lon="0">
        <time>2020-12-06T10:19:21.929000+00:00</time>
      </trkpt>
      <trkpt lat="47.33331" lon="-1.37737">
        <ele>72</ele>
        <time>2020-12-06T10:19:22.916000+00:00</time>
      </trkpt>
      <trkpt lat="0" lon="0">
        <time>2020-12-06T10:19:22.930000+00:00</time>
      </trkpt>
      <trkpt lat="0" lon="0">
        <time>2020-12-06T10:19:22.936000+00:00</time>
      </trkpt>
      <trkpt lat="0" lon="0">
        <time>2020-12-06T10:19:22.941000+00:00</time>
      </trkpt>
      <trkpt lat="47.3333" lon="-1.37742">
        <ele>72</ele>
        <time>2020-12-06T10:19:23.919000+00:00</time>
      </trkpt>
      <trkpt lat="0" lon="0">
        <time>2020-12-06T10:19:23.930000+00:00</time>
      </trkpt>
      <trkpt lat="0" lon="0">
        <time>2020-12-06T10:19:23.934000+00:00</time>
      </trkpt>
      <trkpt lat="0" lon="0">
        <time>2020-12-06T10:19:23.936000+00:00</time>
      </trkpt>
      <trkpt lat="47.33329" lon="-1.37748">
        <ele>73</ele>
        <time>2020-12-06T10:19:24.915000+00:00</time>
      </trkpt>
      <trkpt lat="0" lon="0">
        <time>2020-12-06T10:19:24.927000+00:00</time>
      </trkpt>
      <trkpt lat="0" lon="0">
        <time>2020-12-06T10:19:24.935000+00:00</time>
      </trkpt>
      <trkpt lat="0" lon="0">
        <time>2020-12-06T10:19:24.937000+00:00</time>
      </trkpt>
      <trkpt lat="47.33328" lon="-1.37754">
        <ele>73</ele>
        <time>2020-12-06T10:19:25.858000+00:00</time>
      </trkpt>
      <trkpt lat="0" lon="0">
        <time>2020-12-06T10:19:25.870000+00:00</time>
      </trkpt>
      <trkpt lat="0" lon="0">
        <time>2020-12-06T10:19:25.875000+00:00</time>
      </trkpt>
      <trkpt lat="0" lon="0">
        <time>2020-12-06T10:19:25.876000+00:00</time>
      </trkpt>
      <trkpt lat="47.33327" lon="-1.37759">
        <ele>73</ele>
        <time>2020-12-06T10:19:26.907000+00:00</time>
      </trkpt>
      <trkpt lat="0" lon="0">
        <time>2020-12-06T10:19:26.916000+00:00</time>
      </trkpt>
      <trkpt lat="0" lon="0">
        <time>2020-12-06T10:19:26.922000+00:00</time>
      </trkpt>
      <trkpt lat="0" lon="0">
        <time>2020-12-06T10:19:26.924000+00:00</time>
      </trkpt>
      <trkpt lat="47.33325" lon="-1.37765">
        <ele>73</ele>
        <time>2020-12-06T10:19:27.883000+00:00</time>
      </trkpt>
      <trkpt lat="0" lon="0">
        <time>2020-12-06T10:19:27.890000+00:00</time>
      </trkpt>
      <trkpt lat="0" lon="0">
        <time>2020-12-06T10:19:27.894000+00:00</time>
      </trkpt>
      <trkpt lat="0" lon="0">
        <time>2020-12-06T10:19:27.897000+00:00</time>
      </trkpt>
      <trkpt lat="47.33324" lon="-1.3777">
        <ele>73</ele>
        <time>2020-12-06T10:19:28.902000+00:00</time>
      </trkpt>
      <trkpt lat="0" lon="0">
        <time>2020-12-06T10:19:28.914000+00:00</time>
      </trkpt>
      <trkpt lat="0" lon="0">
        <time>2020-12-06T10:19:28.921000+00:00</time>
      </trkpt>
      <trkpt lat="0" lon="0">
        <time>2020-12-06T10:19:28.924000+00:00</time>
      </trkpt>
      <trkpt lat="47.33323" lon="-1.37776">
        <ele>73</ele>
        <time>2020-12-06T10:19:29.886000+00:00</time>
      </trkpt>
      <trkpt lat="0" lon="0">
        <time>2020-12-06T10:19:29.895000+00:00</time>
      </trkpt>
      <trkpt lat="0" lon="0">
        <time>2020-12-06T10:19:29.899000+00:00</time>
      </trkpt>
      <trkpt lat="0" lon="0">
        <time>2020-12-06T10:19:29.906000+00:00</time>
      </trkpt>
      <trkpt lat="47.33321" lon="-1.37782">
        <ele>74</ele>
        <time>2020-12-06T10:19:30.908000+00:00</time>
      </trkpt>
      <trkpt lat="0" lon="0">
        <time>2020-12-06T10:19:30.918000+00:00</time>
      </trkpt>
      <trkpt lat="0" lon="0">
        <time>2020-12-06T10:19:30.922000+00:00</time>
      </trkpt>
      <trkpt lat="0" lon="0">
        <time>2020-12-06T10:19:30.925000+00:00</time>
      </trkpt>
      <trkpt lat="47.33319" lon="-1.37787">
        <ele>74</ele>
        <time>2020-12-06T10:19:31.899000+00:00</time>
      </trkpt>
      <trkpt lat="0" lon="0">
        <time>2020-12-06T10:19:31.915000+00:00</time>
      </trkpt>
      <trkpt lat="0" lon="0">
        <time>2020-12-06T10:19:31.919000+00:00</time>
      </trkpt>
      <trkpt lat="0" lon="0">
        <time>2020-12-06T10:19:31.923000+00:00</time>
      </trkpt>
      <trkpt lat="47.33318" lon="-1.37793">
        <ele>74</ele>
        <time>2020-12-06T10:19:32.919000+00:00</time>
      </trkpt>
      <trkpt lat="0" lon="0">
        <time>2020-12-06T10:19:32.922000+00:00</time>
      </trkpt>
      <trkpt lat="0" lon="0">
        <time>2020-12-06T10:19:32.938000+00:00</time>
      </trkpt>
      <trkpt lat="0" lon="0">
        <time>2020-12-06T10:19:32.939000+00:00</time>
      </trkpt>
      <trkpt lat="47.33315" lon="-1.37798">
        <ele>74</ele>
        <time>2020-12-06T10:19:33.899000+00:00</time>
      </trkpt>
      <trkpt lat="0" lon="0">
        <time>2020-12-06T10:19:33.903000+00:00</time>
      </trkpt>
      <trkpt lat="0" lon="0">
        <time>2020-12-06T10:19:33.907000+00:00</time>
      </trkpt>
      <trkpt lat="0" lon="0">
        <time>2020-12-06T10:19:33.909000+00:00</time>
      </trkpt>
      <trkpt lat="47.33313" lon="-1.37803">
        <ele>74</ele>
        <time>2020-12-06T10:19:34.887000+00:00</time>
      </trkpt>
      <trkpt lat="0" lon="0">
        <time>2020-12-06T10:19:34.896000+00:00</time>
      </trkpt>
      <trkpt lat="0" lon="0">
        <time>2020-12-06T10:19:34.909000+00:00</time>
      </trkpt>
      <trkpt lat="0" lon="0">
        <time>2020-12-06T10:19:34.918000+00:00</time>
      </trkpt>
      <trkpt lat="47.33311" lon="-1.37808">
        <ele>74</ele>
        <time>2020-12-06T10:19:35.892000+00:00</time>
      </trkpt>
      <trkpt lat="0" lon="0">
        <time>2020-12-06T10:19:35.903000+00:00</time>
      </trkpt>
      <trkpt lat="0" lon="0">
        <time>2020-12-06T10:19:35.911000+00:00</time>
      </trkpt>
      <trkpt lat="0" lon="0">
        <time>2020-12-06T10:19:35.916000+00:00</time>
      </trkpt>
      <trkpt lat="47.3331" lon="-1.37813">
        <ele>74</ele>
        <time>2020-12-06T10:19:36.857000+00:00</time>
      </trkpt>
      <trkpt lat="0" lon="0">
        <time>2020-12-06T10:19:36.862000+00:00</time>
      </trkpt>
      <trkpt lat="0" lon="0">
        <time>2020-12-06T10:19:36.865000+00:00</time>
      </trkpt>
      <trkpt lat="0" lon="0">
        <time>2020-12-06T10:19:36.867000+00:00</time>
      </trkpt>
      <trkpt lat="47.33309" lon="-1.37818">
        <ele>75</ele>
        <time>2020-12-06T10:19:37.885000+00:00</time>
      </trkpt>
      <trkpt lat="0" lon="0">
        <time>2020-12-06T10:19:37.892000+00:00</time>
      </trkpt>
      <trkpt lat="0" lon="0">
        <time>2020-12-06T10:19:37.896000+00:00</time>
      </trkpt>
      <trkpt lat="0" lon="0">
        <time>2020-12-06T10:19:37.898000+00:00</time>
      </trkpt>
      <trkpt lat="47.33308" lon="-1.37824">
        <ele>75</ele>
        <time>2020-12-06T10:19:38.870000+00:00</time>
      </trkpt>
      <trkpt lat="0" lon="0">
        <time>2020-12-06T10:19:38.881000+00:00</time>
      </trkpt>
      <trkpt lat="0" lon="0">
        <time>2020-12-06T10:19:38.893000+00:00</time>
      </trkpt>
      <trkpt lat="0" lon="0">
        <time>2020-12-06T10:19:38.898000+00:00</time>
      </trkpt>
      <trkpt lat="47.33308" lon="-1.37829">
        <ele>75</ele>
        <time>2020-12-06T10:19:39.859000+00:00</time>
      </trkpt>
      <trkpt lat="0" lon="0">
        <time>2020-12-06T10:19:39.864000+00:00</time>
      </trkpt>
      <trkpt lat="0" lon="0">
        <time>2020-12-06T10:19:39.873000+00:00</time>
      </trkpt>
      <trkpt lat="0" lon="0">
        <time>2020-12-06T10:19:39.877000+00:00</time>
      </trkpt>
      <trkpt lat="47.33307" lon="-1.37834">
        <ele>75</ele>
        <time>2020-12-06T10:19:40.915000+00:00</time>
      </trkpt>
      <trkpt lat="0" lon="0">
        <time>2020-12-06T10:19:40.919000+00:00</time>
      </trkpt>
      <trkpt lat="0" lon="0">
        <time>2020-12-06T10:19:40.927000+00:00</time>
      </trkpt>
      <trkpt lat="0" lon="0">
        <time>2020-12-06T10:19:40.934000+00:00</time>
      </trkpt>
      <trkpt lat="47.33306" lon="-1.37839">
        <ele>75</ele>
        <time>2020-12-06T10:19:41.886000+00:00</time>
      </trkpt>
      <trkpt lat="0" lon="0">
        <time>2020-12-06T10:19:41.893000+00:00</time>
      </trkpt>
      <trkpt lat="0" lon="0">
        <time>2020-12-06T10:19:41.898000+00:00</time>
      </trkpt>
      <trkpt lat="0" lon="0">
        <time>2020-12-06T10:19:41.902000+00:00</time>
      </trkpt>
      <trkpt lat="47.33306" lon="-1.37844">
        <ele>75</ele>
        <time>2020-12-06T10:19:42.862000+00:00</time>
      </trkpt>
      <trkpt lat="0" lon="0">
        <time>2020-12-06T10:19:42.866000+00:00</time>
      </trkpt>
      <trkpt lat="0" lon="0">
        <time>2020-12-06T10:19:42.871000+00:00</time>
      </trkpt>
      <trkpt lat="0" lon="0">
        <time>2020-12-06T10:19:42.873000+00:00</time>
      </trkpt>
      <trkpt lat="47.33305" lon="-1.37849">
        <ele>75</ele>
        <time>2020-12-06T10:19:43.877000+00:00</time>
      </trkpt>
      <trkpt lat="0" lon="0">
        <time>2020-12-06T10:19:43.884000+00:00</time>
      </trkpt>
      <trkpt lat="0" lon="0">
        <time>2020-12-06T10:19:43.888000+00:00</time>
      </trkpt>
      <trkpt lat="0" lon="0">
        <time>2020-12-06T10:19:43.890000+00:00</time>
      </trkpt>
      <trkpt lat="47.33303" lon="-1.37854">
        <ele>75</ele>
        <time>2020-12-06T10:19:44.873000+00:00</time>
      </trkpt>
      <trkpt lat="0" lon="0">
        <time>2020-12-06T10:19:44.894000+00:00</time>
      </trkpt>
      <trkpt lat="0" lon="0">
        <time>2020-12-06T10:19:44.898000+00:00</time>
      </trkpt>
      <trkpt lat="0" lon="0">
        <time>2020-12-06T10:19:44.900000+00:00</time>
      </trkpt>
      <trkpt lat="47.33302" lon="-1.37859">
        <ele>75</ele>
        <time>2020-12-06T10:19:45.891000+00:00</time>
      </trkpt>
      <trkpt lat="0" lon="0">
        <time>2020-12-06T10:19:45.895000+00:00</time>
      </trkpt>
      <trkpt lat="0" lon="0">
        <time>2020-12-06T10:19:45.908000+00:00</time>
      </trkpt>
      <trkpt lat="47.333" lon="-1.37864">
        <ele>75</ele>
        <time>2020-12-06T10:19:46.912000+00:00</time>
      </trkpt>
      <trkpt lat="0" lon="0">
        <time>2020-12-06T10:19:46.923000+00:00</time>
      </trkpt>
      <trkpt lat="0" lon="0">
        <time>2020-12-06T10:19:46.930000+00:00</time>
      </trkpt>
      <trkpt lat="0" lon="0">
        <time>2020-12-06T10:19:46.931000+00:00</time>
      </trkpt>
      <trkpt lat="47.33299" lon="-1.37868">
        <ele>75</ele>
        <time>2020-12-06T10:19:47.889000+00:00</time>
      </trkpt>
      <trkpt lat="0" lon="0">
        <time>2020-12-06T10:19:47.894000+00:00</time>
      </trkpt>
      <trkpt lat="0" lon="0">
        <time>2020-12-06T10:19:47.907000+00:00</time>
      </trkpt>
      <trkpt lat="0" lon="0">
        <time>2020-12-06T10:19:47.910000+00:00</time>
      </trkpt>
      <trkpt lat="47.33297" lon="-1.37872">
        <ele>75</ele>
        <time>2020-12-06T10:19:48.856000+00:00</time>
      </trkpt>
      <trkpt lat="0" lon="0">
        <time>2020-12-06T10:19:48.862000+00:00</time>
      </trkpt>
      <trkpt lat="0" lon="0">
        <time>2020-12-06T10:19:48.868000+00:00</time>
      </trkpt>
      <trkpt lat="0" lon="0">
        <time>2020-12-06T10:19:48.871000+00:00</time>
      </trkpt>
      <trkpt lat="47.33295" lon="-1.37876">
        <ele>76</ele>
        <time>2020-12-06T10:19:49.867000+00:00</time>
      </trkpt>
      <trkpt lat="0" lon="0">
        <time>2020-12-06T10:19:49.879000+00:00</time>
      </trkpt>
      <trkpt lat="0" lon="0">
        <time>2020-12-06T10:19:49.889000+00:00</time>
      </trkpt>
      <trkpt lat="0" lon="0">
        <time>2020-12-06T10:19:49.891000+00:00</time>
      </trkpt>
      <trkpt lat="47.33294" lon="-1.37881">
        <ele>76</ele>
        <time>2020-12-06T10:19:50.897000+00:00</time>
      </trkpt>
      <trkpt lat="0" lon="0">
        <time>2020-12-06T10:19:50.917000+00:00</time>
      </trkpt>
      <trkpt lat="0" lon="0">
        <time>2020-12-06T10:19:50.920000+00:00</time>
      </trkpt>
      <trkpt lat="0" lon="0">
        <time>2020-12-06T10:19:50.922000+00:00</time>
      </trkpt>
      <trkpt lat="47.33292" lon="-1.37885">
        <ele>76</ele>
        <time>2020-12-06T10:19:51.898000+00:00</time>
      </trkpt>
      <trkpt lat="0" lon="0">
        <time>2020-12-06T10:19:51.909000+00:00</time>
      </trkpt>
      <trkpt lat="0" lon="0">
        <time>2020-12-06T10:19:51.913000+00:00</time>
      </trkpt>
      <trkpt lat="0" lon="0">
        <time>2020-12-06T10:19:51.915000+00:00</time>
      </trkpt>
      <trkpt lat="47.3329" lon="-1.37889">
        <ele>76</ele>
        <time>2020-12-06T10:19:52.901000+00:00</time>
      </trkpt>
      <trkpt lat="0" lon="0">
        <time>2020-12-06T10:19:52.910000+00:00</time>
      </trkpt>
      <trkpt lat="0" lon="0">
        <time>2020-12-06T10:19:52.913000+00:00</time>
      </trkpt>
      <trkpt lat="0" lon="0">
        <time>2020-12-06T10:19:52.914000+00:00</time>
      </trkpt>
      <trkpt lat="47.33288" lon="-1.37894">
        <ele>76</ele>
        <time>2020-12-06T10:19:53.902000+00:00</time>
      </trkpt>
      <trkpt lat="0" lon="0">
        <time>2020-12-06T10:19:53.909000+00:00</time>
      </trkpt>
      <trkpt lat="0" lon="0">
        <time>2020-12-06T10:19:53.910000+00:00</time>
      </trkpt>
      <trkpt lat="0" lon="0">
        <time>2020-12-06T10:19:53.911000+00:00</time>
      </trkpt>
      <trkpt lat="47.33286" lon="-1.37898">
        <ele>76</ele>
        <time>2020-12-06T10:19:54.867000+00:00</time>
      </trkpt>
      <trkpt lat="0" lon="0">
        <time>2020-12-06T10:19:54.870000+00:00</time>
      </trkpt>
      <trkpt lat="0" lon="0">
        <time>2020-12-06T10:19:54.875000+00:00</time>
      </trkpt>
      <trkpt lat="0" lon="0">
        <time>2020-12-06T10:19:54.876000+00:00</time>
      </trkpt>
      <trkpt lat="47.33284" lon="-1.37902">
        <ele>76</ele>
        <time>2020-12-06T10:19:55.881000+00:00</time>
      </trkpt>
      <trkpt lat="0" lon="0">
        <time>2020-12-06T10:19:55.892000+00:00</time>
      </trkpt>
      <trkpt lat="0" lon="0">
        <time>2020-12-06T10:19:55.896000+00:00</time>
      </trkpt>
      <trkpt lat="0" lon="0">
        <time>2020-12-06T10:19:55.898000+00:00</time>
      </trkpt>
      <trkpt lat="47.33282" lon="-1.37907">
        <ele>76</ele>
        <time>2020-12-06T10:19:56.893000+00:00</time>
      </trkpt>
      <trkpt lat="0" lon="0">
        <time>2020-12-06T10:19:56.917000+00:00</time>
      </trkpt>
      <trkpt lat="0" lon="0">
        <time>2020-12-06T10:19:56.922000+00:00</time>
      </trkpt>
      <trkpt lat="0" lon="0">
        <time>2020-12-06T10:19:56.924000+00:00</time>
      </trkpt>
      <trkpt lat="47.33281" lon="-1.37911">
        <ele>76</ele>
        <time>2020-12-06T10:19:57.894000+00:00</time>
      </trkpt>
      <trkpt lat="0" lon="0">
        <time>2020-12-06T10:19:57.901000+00:00</time>
      </trkpt>
      <trkpt lat="0" lon="0">
        <time>2020-12-06T10:19:57.904000+00:00</time>
      </trkpt>
      <trkpt lat="0" lon="0">
        <time>2020-12-06T10:19:57.911000+00:00</time>
      </trkpt>
      <trkpt lat="47.33279" lon="-1.37916">
        <ele>76</ele>
        <time>2020-12-06T10:19:58.895000+00:00</time>
      </trkpt>
      <trkpt lat="0" lon="0">
        <time>2020-12-06T10:19:58.902000+00:00</time>
      </trkpt>
      <trkpt lat="0" lon="0">
        <time>2020-12-06T10:19:58.906000+00:00</time>
      </trkpt>
      <trkpt lat="0" lon="0">
        <time>2020-12-06T10:19:58.909000+00:00</time>
      </trkpt>
      <trkpt lat="47.33277" lon="-1.3792">
        <ele>76</ele>
        <time>2020-12-06T10:19:59.896000+00:00</time>
      </trkpt>
      <trkpt lat="0" lon="0">
        <time>2020-12-06T10:19:59.902000+00:00</time>
      </trkpt>
      <trkpt lat="0" lon="0">
        <time>2020-12-06T10:19:59.904000+00:00</time>
      </trkpt>
      <trkpt lat="47.33276" lon="-1.37925">
        <ele>76</ele>
        <time>2020-12-06T10:20:00.931000+00:00</time>
      </trkpt>
      <trkpt lat="0" lon="0">
        <time>2020-12-06T10:20:00.942000+00:00</time>
      </trkpt>
      <trkpt lat="0" lon="0">
        <time>2020-12-06T10:20:00.945000+00:00</time>
      </trkpt>
      <trkpt lat="0" lon="0">
        <time>2020-12-06T10:20:00.947000+00:00</time>
      </trkpt>
      <trkpt lat="47.33274" lon="-1.37929">
        <ele>76</ele>
        <time>2020-12-06T10:20:01.940000+00:00</time>
      </trkpt>
      <trkpt lat="0" lon="0">
        <time>2020-12-06T10:20:01.949000+00:00</time>
      </trkpt>
      <trkpt lat="0" lon="0">
        <time>2020-12-06T10:20:01.953000+00:00</time>
      </trkpt>
      <trkpt lat="0" lon="0">
        <time>2020-12-06T10:20:01.955000+00:00</time>
      </trkpt>
      <trkpt lat="47.33272" lon="-1.37934">
        <ele>76</ele>
        <time>2020-12-06T10:20:02.942000+00:00</time>
      </trkpt>
      <trkpt lat="0" lon="0">
        <time>2020-12-06T10:20:02.956000+00:00</time>
      </trkpt>
      <trkpt lat="0" lon="0">
        <time>2020-12-06T10:20:02.960000+00:00</time>
      </trkpt>
      <trkpt lat="0" lon="0">
        <time>2020-12-06T10:20:02.961000+00:00</time>
      </trkpt>
      <trkpt lat="47.3327" lon="-1.37938">
        <ele>76</ele>
        <time>2020-12-06T10:20:03.888000+00:00</time>
      </trkpt>
      <trkpt lat="0" lon="0">
        <time>2020-12-06T10:20:03.891000+00:00</time>
      </trkpt>
      <trkpt lat="0" lon="0">
        <time>2020-12-06T10:20:03.899000+00:00</time>
      </trkpt>
      <trkpt lat="0" lon="0">
        <time>2020-12-06T10:20:03.904000+00:00</time>
      </trkpt>
      <trkpt lat="47.33268" lon="-1.37942">
        <ele>76</ele>
        <time>2020-12-06T10:20:04.872000+00:00</time>
      </trkpt>
      <trkpt lat="0" lon="0">
        <time>2020-12-06T10:20:04.878000+00:00</time>
      </trkpt>
      <trkpt lat="0" lon="0">
        <time>2020-12-06T10:20:04.880000+00:00</time>
      </trkpt>
      <trkpt lat="0" lon="0">
        <time>2020-12-06T10:20:04.881000+00:00</time>
      </trkpt>
      <trkpt lat="47.33267" lon="-1.37947">
        <ele>76</ele>
        <time>2020-12-06T10:20:05.949000+00:00</time>
      </trkpt>
      <trkpt lat="0" lon="0">
        <time>2020-12-06T10:20:05.953000+00:00</time>
      </trkpt>
      <trkpt lat="0" lon="0">
        <time>2020-12-06T10:20:05.955000+00:00</time>
      </trkpt>
      <trkpt lat="0" lon="0">
        <time>2020-12-06T10:20:05.957000+00:00</time>
      </trkpt>
      <trkpt lat="47.33265" lon="-1.37951">
        <ele>76</ele>
        <time>2020-12-06T10:20:06.954000+00:00</time>
      </trkpt>
      <trkpt lat="0" lon="0">
        <time>2020-12-06T10:20:06.962000+00:00</time>
      </trkpt>
      <trkpt lat="0" lon="0">
        <time>2020-12-06T10:20:06.971000+00:00</time>
      </trkpt>
      <trkpt lat="0" lon="0">
        <time>2020-12-06T10:20:06.974000+00:00</time>
      </trkpt>
      <trkpt lat="47.33263" lon="-1.37955">
        <ele>76</ele>
        <time>2020-12-06T10:20:07.949000+00:00</time>
      </trkpt>
      <trkpt lat="0" lon="0">
        <time>2020-12-06T10:20:07.955000+00:00</time>
      </trkpt>
      <trkpt lat="0" lon="0">
        <time>2020-12-06T10:20:07.957000+00:00</time>
      </trkpt>
      <trkpt lat="0" lon="0">
        <time>2020-12-06T10:20:07.959000+00:00</time>
      </trkpt>
      <trkpt lat="47.33261" lon="-1.3796">
        <ele>76</ele>
        <time>2020-12-06T10:20:08.870000+00:00</time>
      </trkpt>
      <trkpt lat="0" lon="0">
        <time>2020-12-06T10:20:08.881000+00:00</time>
      </trkpt>
      <trkpt lat="0" lon="0">
        <time>2020-12-06T10:20:08.895000+00:00</time>
      </trkpt>
      <trkpt lat="0" lon="0">
        <time>2020-12-06T10:20:08.898000+00:00</time>
      </trkpt>
      <trkpt lat="47.33259" lon="-1.37965">
        <ele>76</ele>
        <time>2020-12-06T10:20:09.839000+00:00</time>
      </trkpt>
      <trkpt lat="0" lon="0">
        <time>2020-12-06T10:20:09.846000+00:00</time>
      </trkpt>
      <trkpt lat="0" lon="0">
        <time>2020-12-06T10:20:09.852000+00:00</time>
      </trkpt>
      <trkpt lat="0" lon="0">
        <time>2020-12-06T10:20:09.855000+00:00</time>
      </trkpt>
      <trkpt lat="47.33257" lon="-1.3797">
        <ele>76</ele>
        <time>2020-12-06T10:20:10.855000+00:00</time>
      </trkpt>
      <trkpt lat="0" lon="0">
        <time>2020-12-06T10:20:10.867000+00:00</time>
      </trkpt>
      <trkpt lat="0" lon="0">
        <time>2020-12-06T10:20:10.872000+00:00</time>
      </trkpt>
      <trkpt lat="0" lon="0">
        <time>2020-12-06T10:20:10.873000+00:00</time>
      </trkpt>
      <trkpt lat="47.33255" lon="-1.37976">
        <ele>76</ele>
        <time>2020-12-06T10:20:11.874000+00:00</time>
      </trkpt>
      <trkpt lat="0" lon="0">
        <time>2020-12-06T10:20:11.885000+00:00</time>
      </trkpt>
      <trkpt lat="0" lon="0">
        <time>2020-12-06T10:20:11.891000+00:00</time>
      </trkpt>
      <trkpt lat="0" lon="0">
        <time>2020-12-06T10:20:11.893000+00:00</time>
      </trkpt>
      <trkpt lat="47.33253" lon="-1.37981">
        <ele>76</ele>
        <time>2020-12-06T10:20:12.927000+00:00</time>
      </trkpt>
      <trkpt lat="0" lon="0">
        <time>2020-12-06T10:20:12.934000+00:00</time>
      </trkpt>
      <trkpt lat="0" lon="0">
        <time>2020-12-06T10:20:12.937000+00:00</time>
      </trkpt>
      <trkpt lat="0" lon="0">
        <time>2020-12-06T10:20:12.939000+00:00</time>
      </trkpt>
      <trkpt lat="47.33251" lon="-1.37987">
        <ele>76</ele>
        <time>2020-12-06T10:20:13.889000+00:00</time>
      </trkpt>
      <trkpt lat="0" lon="0">
        <time>2020-12-06T10:20:13.911000+00:00</time>
      </trkpt>
      <trkpt lat="0" lon="0">
        <time>2020-12-06T10:20:13.919000+00:00</time>
      </trkpt>
      <trkpt lat="0" lon="0">
        <time>2020-12-06T10:20:13.925000+00:00</time>
      </trkpt>
      <trkpt lat="47.33249" lon="-1.37993">
        <ele>76</ele>
        <time>2020-12-06T10:20:14.904000+00:00</time>
      </trkpt>
      <trkpt lat="0" lon="0">
        <time>2020-12-06T10:20:14.916000+00:00</time>
      </trkpt>
      <trkpt lat="0" lon="0">
        <time>2020-12-06T10:20:14.919000+00:00</time>
      </trkpt>
      <trkpt lat="0" lon="0">
        <time>2020-12-06T10:20:14.921000+00:00</time>
      </trkpt>
      <trkpt lat="47.33247" lon="-1.37999">
        <ele>76</ele>
        <time>2020-12-06T10:20:15.929000+00:00</time>
      </trkpt>
      <trkpt lat="0" lon="0">
        <time>2020-12-06T10:20:15.932000+00:00</time>
      </trkpt>
      <trkpt lat="0" lon="0">
        <time>2020-12-06T10:20:15.955000+00:00</time>
      </trkpt>
      <trkpt lat="0" lon="0">
        <time>2020-12-06T10:20:15.958000+00:00</time>
      </trkpt>
      <trkpt lat="47.33245" lon="-1.38005">
        <ele>76</ele>
        <time>2020-12-06T10:20:16.927000+00:00</time>
      </trkpt>
      <trkpt lat="0" lon="0">
        <time>2020-12-06T10:20:16.935000+00:00</time>
      </trkpt>
      <trkpt lat="0" lon="0">
        <time>2020-12-06T10:20:16.940000+00:00</time>
      </trkpt>
      <trkpt lat="0" lon="0">
        <time>2020-12-06T10:20:16.942000+00:00</time>
      </trkpt>
      <trkpt lat="47.33242" lon="-1.3801">
        <ele>76</ele>
        <time>2020-12-06T10:20:17.933000+00:00</time>
      </trkpt>
      <trkpt lat="0" lon="0">
        <time>2020-12-06T10:20:17.942000+00:00</time>
      </trkpt>
      <trkpt lat="0" lon="0">
        <time>2020-12-06T10:20:17.947000+00:00</time>
      </trkpt>
      <trkpt lat="0" lon="0">
        <time>2020-12-06T10:20:17.950000+00:00</time>
      </trkpt>
      <trkpt lat="47.3324" lon="-1.38016">
        <ele>76</ele>
        <time>2020-12-06T10:20:18.924000+00:00</time>
      </trkpt>
      <trkpt lat="0" lon="0">
        <time>2020-12-06T10:20:18.936000+00:00</time>
      </trkpt>
      <trkpt lat="0" lon="0">
        <time>2020-12-06T10:20:18.939000+00:00</time>
      </trkpt>
      <trkpt lat="0" lon="0">
        <time>2020-12-06T10:20:18.944000+00:00</time>
      </trkpt>
      <trkpt lat="47.33239" lon="-1.38022">
        <ele>76</ele>
        <time>2020-12-06T10:20:19.938000+00:00</time>
      </trkpt>
      <trkpt lat="0" lon="0">
        <time>2020-12-06T10:20:19.957000+00:00</time>
      </trkpt>
      <trkpt lat="0" lon="0">
        <time>2020-12-06T10:20:19.961000+00:00</time>
      </trkpt>
      <trkpt lat="0" lon="0">
        <time>2020-12-06T10:20:19.964000+00:00</time>
      </trkpt>
      <trkpt lat="47.33237" lon="-1.38028">
        <ele>76</ele>
        <time>2020-12-06T10:20:20.898000+00:00</time>
      </trkpt>
      <trkpt lat="0" lon="0">
        <time>2020-12-06T10:20:20.914000+00:00</time>
      </trkpt>
      <trkpt lat="0" lon="0">
        <time>2020-12-06T10:20:20.917000+00:00</time>
      </trkpt>
      <trkpt lat="0" lon="0">
        <time>2020-12-06T10:20:20.919000+00:00</time>
      </trkpt>
      <trkpt lat="47.33236" lon="-1.38034">
        <ele>76</ele>
        <time>2020-12-06T10:20:21.888000+00:00</time>
      </trkpt>
      <trkpt lat="0" lon="0">
        <time>2020-12-06T10:20:21.897000+00:00</time>
      </trkpt>
      <trkpt lat="0" lon="0">
        <time>2020-12-06T10:20:21.898000+00:00</time>
      </trkpt>
      <trkpt lat="0" lon="0">
        <time>2020-12-06T10:20:21.899000+00:00</time>
      </trkpt>
      <trkpt lat="47.33237" lon="-1.3804">
        <ele>76</ele>
        <time>2020-12-06T10:20:22.898000+00:00</time>
      </trkpt>
      <trkpt lat="0" lon="0">
        <time>2020-12-06T10:20:22.901000+00:00</time>
      </trkpt>
      <trkpt lat="0" lon="0">
        <time>2020-12-06T10:20:22.906000+00:00</time>
      </trkpt>
      <trkpt lat="0" lon="0">
        <time>2020-12-06T10:20:22.908000+00:00</time>
      </trkpt>
      <trkpt lat="47.33238" lon="-1.38046">
        <ele>76</ele>
        <time>2020-12-06T10:20:23.915000+00:00</time>
      </trkpt>
      <trkpt lat="0" lon="0">
        <time>2020-12-06T10:20:23.925000+00:00</time>
      </trkpt>
      <trkpt lat="0" lon="0">
        <time>2020-12-06T10:20:23.929000+00:00</time>
      </trkpt>
      <trkpt lat="0" lon="0">
        <time>2020-12-06T10:20:23.931000+00:00</time>
      </trkpt>
      <trkpt lat="47.3324" lon="-1.38051">
        <ele>76</ele>
        <time>2020-12-06T10:20:24.927000+00:00</time>
      </trkpt>
      <trkpt lat="0" lon="0">
        <time>2020-12-06T10:20:24.937000+00:00</time>
      </trkpt>
      <trkpt lat="0" lon="0">
        <time>2020-12-06T10:20:24.946000+00:00</time>
      </trkpt>
      <trkpt lat="0" lon="0">
        <time>2020-12-06T10:20:24.950000+00:00</time>
      </trkpt>
      <trkpt lat="47.33242" lon="-1.38057">
        <ele>76</ele>
        <time>2020-12-06T10:20:25.903000+00:00</time>
      </trkpt>
      <trkpt lat="0" lon="0">
        <time>2020-12-06T10:20:25.910000+00:00</time>
      </trkpt>
      <trkpt lat="0" lon="0">
        <time>2020-12-06T10:20:25.914000+00:00</time>
      </trkpt>
      <trkpt lat="0" lon="0">
        <time>2020-12-06T10:20:25.916000+00:00</time>
      </trkpt>
      <trkpt lat="47.33244" lon="-1.38062">
        <ele>76</ele>
        <time>2020-12-06T10:20:26.943000+00:00</time>
      </trkpt>
      <trkpt lat="0" lon="0">
        <time>2020-12-06T10:20:26.959000+00:00</time>
      </trkpt>
      <trkpt lat="0" lon="0">
        <time>2020-12-06T10:20:26.966000+00:00</time>
      </trkpt>
      <trkpt lat="0" lon="0">
        <time>2020-12-06T10:20:26.976000+00:00</time>
      </trkpt>
      <trkpt lat="47.33246" lon="-1.38068">
        <ele>76</ele>
        <time>2020-12-06T10:20:27.952000+00:00</time>
      </trkpt>
      <trkpt lat="0" lon="0">
        <time>2020-12-06T10:20:27.963000+00:00</time>
      </trkpt>
      <trkpt lat="0" lon="0">
        <time>2020-12-06T10:20:27.966000+00:00</time>
      </trkpt>
      <trkpt lat="0" lon="0">
        <time>2020-12-06T10:20:27.971000+00:00</time>
      </trkpt>
      <trkpt lat="47.33249" lon="-1.38074">
        <ele>76</ele>
        <time>2020-12-06T10:20:28.939000+00:00</time>
      </trkpt>
      <trkpt lat="0" lon="0">
        <time>2020-12-06T10:20:28.952000+00:00</time>
      </trkpt>
      <trkpt lat="0" lon="0">
        <time>2020-12-06T10:20:28.964000+00:00</time>
      </trkpt>
      <trkpt lat="0" lon="0">
        <time>2020-12-06T10:20:28.966000+00:00</time>
      </trkpt>
      <trkpt lat="47.33251" lon="-1.3808">
        <ele>76</ele>
        <time>2020-12-06T10:20:29.926000+00:00</time>
      </trkpt>
      <trkpt lat="0" lon="0">
        <time>2020-12-06T10:20:29.932000+00:00</time>
      </trkpt>
      <trkpt lat="0" lon="0">
        <time>2020-12-06T10:20:29.939000+00:00</time>
      </trkpt>
      <trkpt lat="0" lon="0">
        <time>2020-12-06T10:20:29.946000+00:00</time>
      </trkpt>
      <trkpt lat="47.33253" lon="-1.38086">
        <ele>77</ele>
        <time>2020-12-06T10:20:30.926000+00:00</time>
      </trkpt>
      <trkpt lat="0" lon="0">
        <time>2020-12-06T10:20:30.943000+00:00</time>
      </trkpt>
      <trkpt lat="0" lon="0">
        <time>2020-12-06T10:20:30.948000+00:00</time>
      </trkpt>
      <trkpt lat="0" lon="0">
        <time>2020-12-06T10:20:30.957000+00:00</time>
      </trkpt>
      <trkpt lat="47.33255" lon="-1.38092">
        <ele>77</ele>
        <time>2020-12-06T10:20:31.926000+00:00</time>
      </trkpt>
      <trkpt lat="0" lon="0">
        <time>2020-12-06T10:20:31.939000+00:00</time>
      </trkpt>
      <trkpt lat="0" lon="0">
        <time>2020-12-06T10:20:31.942000+00:00</time>
      </trkpt>
      <trkpt lat="0" lon="0">
        <time>2020-12-06T10:20:31.945000+00:00</time>
      </trkpt>
      <trkpt lat="47.33257" lon="-1.38099">
        <ele>77</ele>
        <time>2020-12-06T10:20:32.926000+00:00</time>
      </trkpt>
      <trkpt lat="0" lon="0">
        <time>2020-12-06T10:20:32.930000+00:00</time>
      </trkpt>
      <trkpt lat="0" lon="0">
        <time>2020-12-06T10:20:32.938000+00:00</time>
      </trkpt>
      <trkpt lat="0" lon="0">
        <time>2020-12-06T10:20:32.940000+00:00</time>
      </trkpt>
      <trkpt lat="47.33258" lon="-1.38106">
        <ele>77</ele>
        <time>2020-12-06T10:20:33.920000+00:00</time>
      </trkpt>
      <trkpt lat="0" lon="0">
        <time>2020-12-06T10:20:33.930000+00:00</time>
      </trkpt>
      <trkpt lat="0" lon="0">
        <time>2020-12-06T10:20:33.932000+00:00</time>
      </trkpt>
      <trkpt lat="0" lon="0">
        <time>2020-12-06T10:20:33.933000+00:00</time>
      </trkpt>
      <trkpt lat="47.33259" lon="-1.38112">
        <ele>77</ele>
        <time>2020-12-06T10:20:34.920000+00:00</time>
      </trkpt>
      <trkpt lat="0" lon="0">
        <time>2020-12-06T10:20:34.925000+00:00</time>
      </trkpt>
      <trkpt lat="0" lon="0">
        <time>2020-12-06T10:20:34.929000+00:00</time>
      </trkpt>
      <trkpt lat="0" lon="0">
        <time>2020-12-06T10:20:34.932000+00:00</time>
      </trkpt>
      <trkpt lat="47.3326" lon="-1.38119">
        <ele>77</ele>
        <time>2020-12-06T10:20:35.906000+00:00</time>
      </trkpt>
      <trkpt lat="0" lon="0">
        <time>2020-12-06T10:20:35.918000+00:00</time>
      </trkpt>
      <trkpt lat="0" lon="0">
        <time>2020-12-06T10:20:35.925000+00:00</time>
      </trkpt>
      <trkpt lat="0" lon="0">
        <time>2020-12-06T10:20:35.930000+00:00</time>
      </trkpt>
      <trkpt lat="47.33261" lon="-1.38126">
        <ele>77</ele>
        <time>2020-12-06T10:20:36.941000+00:00</time>
      </trkpt>
      <trkpt lat="0" lon="0">
        <time>2020-12-06T10:20:36.953000+00:00</time>
      </trkpt>
      <trkpt lat="0" lon="0">
        <time>2020-12-06T10:20:36.961000+00:00</time>
      </trkpt>
      <trkpt lat="0" lon="0">
        <time>2020-12-06T10:20:36.966000+00:00</time>
      </trkpt>
      <trkpt lat="47.33262" lon="-1.38132">
        <ele>77</ele>
        <time>2020-12-06T10:20:37.952000+00:00</time>
      </trkpt>
      <trkpt lat="0" lon="0">
        <time>2020-12-06T10:20:37.961000+00:00</time>
      </trkpt>
      <trkpt lat="0" lon="0">
        <time>2020-12-06T10:20:37.965000+00:00</time>
      </trkpt>
      <trkpt lat="0" lon="0">
        <time>2020-12-06T10:20:37.967000+00:00</time>
      </trkpt>
      <trkpt lat="47.33262" lon="-1.38139">
        <ele>77</ele>
        <time>2020-12-06T10:20:38.938000+00:00</time>
      </trkpt>
      <trkpt lat="0" lon="0">
        <time>2020-12-06T10:20:38.944000+00:00</time>
      </trkpt>
      <trkpt lat="0" lon="0">
        <time>2020-12-06T10:20:38.946000+00:00</time>
      </trkpt>
      <trkpt lat="47.3326" lon="-1.38145">
        <ele>77</ele>
        <time>2020-12-06T10:20:39.898000+00:00</time>
      </trkpt>
      <trkpt lat="0" lon="0">
        <time>2020-12-06T10:20:39.904000+00:00</time>
      </trkpt>
      <trkpt lat="0" lon="0">
        <time>2020-12-06T10:20:39.909000+00:00</time>
      </trkpt>
      <trkpt lat="0" lon="0">
        <time>2020-12-06T10:20:39.911000+00:00</time>
      </trkpt>
      <trkpt lat="47.33259" lon="-1.3815">
        <ele>77</ele>
        <time>2020-12-06T10:20:40.913000+00:00</time>
      </trkpt>
      <trkpt lat="0" lon="0">
        <time>2020-12-06T10:20:40.926000+00:00</time>
      </trkpt>
      <trkpt lat="0" lon="0">
        <time>2020-12-06T10:20:40.929000+00:00</time>
      </trkpt>
      <trkpt lat="0" lon="0">
        <time>2020-12-06T10:20:40.931000+00:00</time>
      </trkpt>
      <trkpt lat="47.33256" lon="-1.38154">
        <ele>77</ele>
        <time>2020-12-06T10:20:41.926000+00:00</time>
      </trkpt>
      <trkpt lat="0" lon="0">
        <time>2020-12-06T10:20:41.943000+00:00</time>
      </trkpt>
      <trkpt lat="0" lon="0">
        <time>2020-12-06T10:20:41.947000+00:00</time>
      </trkpt>
      <trkpt lat="0" lon="0">
        <time>2020-12-06T10:20:41.949000+00:00</time>
      </trkpt>
      <trkpt lat="47.33252" lon="-1.38157">
        <ele>77</ele>
        <time>2020-12-06T10:20:42.933000+00:00</time>
      </trkpt>
      <trkpt lat="0" lon="0">
        <time>2020-12-06T10:20:42.941000+00:00</time>
      </trkpt>
      <trkpt lat="0" lon="0">
        <time>2020-12-06T10:20:42.951000+00:00</time>
      </trkpt>
      <trkpt lat="0" lon="0">
        <time>2020-12-06T10:20:42.958000+00:00</time>
      </trkpt>
      <trkpt lat="47.33248" lon="-1.38159">
        <ele>77</ele>
        <time>2020-12-06T10:20:43.936000+00:00</time>
      </trkpt>
      <trkpt lat="0" lon="0">
        <time>2020-12-06T10:20:43.947000+00:00</time>
      </trkpt>
      <trkpt lat="0" lon="0">
        <time>2020-12-06T10:20:43.956000+00:00</time>
      </trkpt>
      <trkpt lat="0" lon="0">
        <time>2020-12-06T10:20:43.958000+00:00</time>
      </trkpt>
      <trkpt lat="47.33243" lon="-1.38159">
        <ele>77</ele>
        <time>2020-12-06T10:20:44.961000+00:00</time>
      </trkpt>
      <trkpt lat="0" lon="0">
        <time>2020-12-06T10:20:44.963000+00:00</time>
      </trkpt>
      <trkpt lat="0" lon="0">
        <time>2020-12-06T10:20:44.965000+00:00</time>
      </trkpt>
      <trkpt lat="47.33238" lon="-1.38159">
        <ele>78</ele>
        <time>2020-12-06T10:20:45.967000+00:00</time>
      </trkpt>
      <trkpt lat="0" lon="0">
        <time>2020-12-06T10:20:45.977000+00:00</time>
      </trkpt>
      <trkpt lat="0" lon="0">
        <time>2020-12-06T10:20:45.986000+00:00</time>
      </trkpt>
      <trkpt lat="0" lon="0">
        <time>2020-12-06T10:20:45.993000+00:00</time>
      </trkpt>
      <trkpt lat="47.33233" lon="-1.38159">
        <ele>78</ele>
        <time>2020-12-06T10:20:46.954000+00:00</time>
      </trkpt>
      <trkpt lat="0" lon="0">
        <time>2020-12-06T10:20:46.958000+00:00</time>
      </trkpt>
      <trkpt lat="0" lon="0">
        <time>2020-12-06T10:20:46.962000+00:00</time>
      </trkpt>
      <trkpt lat="0" lon="0">
        <time>2020-12-06T10:20:46.964000+00:00</time>
      </trkpt>
      <trkpt lat="47.33228" lon="-1.38159">
        <ele>78</ele>
        <time>2020-12-06T10:20:47.938000+00:00</time>
      </trkpt>
      <trkpt lat="0" lon="0">
        <time>2020-12-06T10:20:47.946000+00:00</time>
      </trkpt>
      <trkpt lat="0" lon="0">
        <time>2020-12-06T10:20:47.949000+00:00</time>
      </trkpt>
      <trkpt lat="0" lon="0">
        <time>2020-12-06T10:20:47.952000+00:00</time>
      </trkpt>
      <trkpt lat="47.33222" lon="-1.38158">
        <ele>78</ele>
        <time>2020-12-06T10:20:48.961000+00:00</time>
      </trkpt>
      <trkpt lat="0" lon="0">
        <time>2020-12-06T10:20:48.976000+00:00</time>
      </trkpt>
      <trkpt lat="0" lon="0">
        <time>2020-12-06T10:20:48.982000+00:00</time>
      </trkpt>
      <trkpt lat="0" lon="0">
        <time>2020-12-06T10:20:48.984000+00:00</time>
      </trkpt>
      <trkpt lat="47.33216" lon="-1.38157">
        <ele>78</ele>
        <time>2020-12-06T10:20:49.932000+00:00</time>
      </trkpt>
      <trkpt lat="0" lon="0">
        <time>2020-12-06T10:20:49.953000+00:00</time>
      </trkpt>
      <trkpt lat="0" lon="0">
        <time>2020-12-06T10:20:49.960000+00:00</time>
      </trkpt>
      <trkpt lat="0" lon="0">
        <time>2020-12-06T10:20:49.964000+00:00</time>
      </trkpt>
      <trkpt lat="47.3321" lon="-1.38156">
        <ele>78</ele>
        <time>2020-12-06T10:20:50.928000+00:00</time>
      </trkpt>
      <trkpt lat="0" lon="0">
        <time>2020-12-06T10:20:50.941000+00:00</time>
      </trkpt>
      <trkpt lat="0" lon="0">
        <time>2020-12-06T10:20:50.943000+00:00</time>
      </trkpt>
      <trkpt lat="0" lon="0">
        <time>2020-12-06T10:20:50.944000+00:00</time>
      </trkpt>
      <trkpt lat="47.33204" lon="-1.38156">
        <ele>78</ele>
        <time>2020-12-06T10:20:51.948000+00:00</time>
      </trkpt>
      <trkpt lat="0" lon="0">
        <time>2020-12-06T10:20:51.964000+00:00</time>
      </trkpt>
      <trkpt lat="0" lon="0">
        <time>2020-12-06T10:20:51.970000+00:00</time>
      </trkpt>
      <trkpt lat="0" lon="0">
        <time>2020-12-06T10:20:51.975000+00:00</time>
      </trkpt>
      <trkpt lat="47.33199" lon="-1.38155">
        <ele>78</ele>
        <time>2020-12-06T10:20:52.975000+00:00</time>
      </trkpt>
      <trkpt lat="0" lon="0">
        <time>2020-12-06T10:20:52.986000+00:00</time>
      </trkpt>
      <trkpt lat="0" lon="0">
        <time>2020-12-06T10:20:52.991000+00:00</time>
      </trkpt>
      <trkpt lat="0" lon="0">
        <time>2020-12-06T10:20:52.995000+00:00</time>
      </trkpt>
      <trkpt lat="47.33193" lon="-1.38155">
        <ele>78</ele>
        <time>2020-12-06T10:20:53.939000+00:00</time>
      </trkpt>
      <trkpt lat="0" lon="0">
        <time>2020-12-06T10:20:53.958000+00:00</time>
      </trkpt>
      <trkpt lat="0" lon="0">
        <time>2020-12-06T10:20:53.973000+00:00</time>
      </trkpt>
      <trkpt lat="0" lon="0">
        <time>2020-12-06T10:20:53.976000+00:00</time>
      </trkpt>
      <trkpt lat="47.33187" lon="-1.38155">
        <ele>78</ele>
        <time>2020-12-06T10:20:54.948000+00:00</time>
      </trkpt>
      <trkpt lat="0" lon="0">
        <time>2020-12-06T10:20:54.958000+00:00</time>
      </trkpt>
      <trkpt lat="0" lon="0">
        <time>2020-12-06T10:20:54.965000+00:00</time>
      </trkpt>
      <trkpt lat="0" lon="0">
        <time>2020-12-06T10:20:54.968000+00:00</time>
      </trkpt>
      <trkpt lat="47.33181" lon="-1.38155">
        <ele>78</ele>
        <time>2020-12-06T10:20:55.936000+00:00</time>
      </trkpt>
      <trkpt lat="0" lon="0">
        <time>2020-12-06T10:20:55.949000+00:00</time>
      </trkpt>
      <trkpt lat="0" lon="0">
        <time>2020-12-06T10:20:55.953000+00:00</time>
      </trkpt>
      <trkpt lat="0" lon="0">
        <time>2020-12-06T10:20:55.955000+00:00</time>
      </trkpt>
      <trkpt lat="47.33175" lon="-1.38155">
        <ele>78</ele>
        <time>2020-12-06T10:20:56.905000+00:00</time>
      </trkpt>
      <trkpt lat="0" lon="0">
        <time>2020-12-06T10:20:56.910000+00:00</time>
      </trkpt>
      <trkpt lat="0" lon="0">
        <time>2020-12-06T10:20:56.921000+00:00</time>
      </trkpt>
      <trkpt lat="47.33169" lon="-1.38155">
        <ele>78</ele>
        <time>2020-12-06T10:20:57.943000+00:00</time>
      </trkpt>
      <trkpt lat="0" lon="0">
        <time>2020-12-06T10:20:57.962000+00:00</time>
      </trkpt>
      <trkpt lat="0" lon="0">
        <time>2020-12-06T10:20:57.967000+00:00</time>
      </trkpt>
      <trkpt lat="0" lon="0">
        <time>2020-12-06T10:20:57.970000+00:00</time>
      </trkpt>
      <trkpt lat="47.33164" lon="-1.38155">
        <ele>78</ele>
        <time>2020-12-06T10:20:58.914000+00:00</time>
      </trkpt>
      <trkpt lat="0" lon="0">
        <time>2020-12-06T10:20:58.923000+00:00</time>
      </trkpt>
      <trkpt lat="0" lon="0">
        <time>2020-12-06T10:20:58.928000+00:00</time>
      </trkpt>
      <trkpt lat="0" lon="0">
        <time>2020-12-06T10:20:58.933000+00:00</time>
      </trkpt>
      <trkpt lat="47.33158" lon="-1.38155">
        <ele>78</ele>
        <time>2020-12-06T10:20:59.945000+00:00</time>
      </trkpt>
      <trkpt lat="0" lon="0">
        <time>2020-12-06T10:20:59.950000+00:00</time>
      </trkpt>
      <trkpt lat="0" lon="0">
        <time>2020-12-06T10:20:59.960000+00:00</time>
      </trkpt>
      <trkpt lat="0" lon="0">
        <time>2020-12-06T10:20:59.962000+00:00</time>
      </trkpt>
      <trkpt lat="47.33153" lon="-1.38156">
        <ele>78</ele>
        <time>2020-12-06T10:21:00.916000+00:00</time>
      </trkpt>
      <trkpt lat="0" lon="0">
        <time>2020-12-06T10:21:00.925000+00:00</time>
      </trkpt>
      <trkpt lat="0" lon="0">
        <time>2020-12-06T10:21:00.934000+00:00</time>
      </trkpt>
      <trkpt lat="0" lon="0">
        <time>2020-12-06T10:21:00.938000+00:00</time>
      </trkpt>
      <trkpt lat="47.33148" lon="-1.38156">
        <ele>78</ele>
        <time>2020-12-06T10:21:01.936000+00:00</time>
      </trkpt>
      <trkpt lat="0" lon="0">
        <time>2020-12-06T10:21:01.946000+00:00</time>
      </trkpt>
      <trkpt lat="0" lon="0">
        <time>2020-12-06T10:21:01.949000+00:00</time>
      </trkpt>
      <trkpt lat="0" lon="0">
        <time>2020-12-06T10:21:01.950000+00:00</time>
      </trkpt>
      <trkpt lat="47.33142" lon="-1.38157">
        <ele>78</ele>
        <time>2020-12-06T10:21:02.927000+00:00</time>
      </trkpt>
      <trkpt lat="0" lon="0">
        <time>2020-12-06T10:21:02.937000+00:00</time>
      </trkpt>
      <trkpt lat="0" lon="0">
        <time>2020-12-06T10:21:02.955000+00:00</time>
      </trkpt>
      <trkpt lat="0" lon="0">
        <time>2020-12-06T10:21:02.956000+00:00</time>
      </trkpt>
      <trkpt lat="47.33138" lon="-1.38158">
        <ele>78</ele>
        <time>2020-12-06T10:21:03.949000+00:00</time>
      </trkpt>
      <trkpt lat="0" lon="0">
        <time>2020-12-06T10:21:03.968000+00:00</time>
      </trkpt>
      <trkpt lat="0" lon="0">
        <time>2020-12-06T10:21:03.971000+00:00</time>
      </trkpt>
      <trkpt lat="0" lon="0">
        <time>2020-12-06T10:21:03.978000+00:00</time>
      </trkpt>
      <trkpt lat="47.33134" lon="-1.38161">
        <ele>78</ele>
        <time>2020-12-06T10:21:04.913000+00:00</time>
      </trkpt>
      <trkpt lat="0" lon="0">
        <time>2020-12-06T10:21:04.916000+00:00</time>
      </trkpt>
      <trkpt lat="0" lon="0">
        <time>2020-12-06T10:21:04.922000+00:00</time>
      </trkpt>
      <trkpt lat="0" lon="0">
        <time>2020-12-06T10:21:04.925000+00:00</time>
      </trkpt>
      <trkpt lat="47.33131" lon="-1.38165">
        <ele>78</ele>
        <time>2020-12-06T10:21:05.934000+00:00</time>
      </trkpt>
      <trkpt lat="0" lon="0">
        <time>2020-12-06T10:21:05.948000+00:00</time>
      </trkpt>
      <trkpt lat="0" lon="0">
        <time>2020-12-06T10:21:05.956000+00:00</time>
      </trkpt>
      <trkpt lat="0" lon="0">
        <time>2020-12-06T10:21:05.959000+00:00</time>
      </trkpt>
      <trkpt lat="47.3313" lon="-1.38169">
        <ele>78</ele>
        <time>2020-12-06T10:21:06.921000+00:00</time>
      </trkpt>
      <trkpt lat="0" lon="0">
        <time>2020-12-06T10:21:06.932000+00:00</time>
      </trkpt>
      <trkpt lat="0" lon="0">
        <time>2020-12-06T10:21:06.936000+00:00</time>
      </trkpt>
      <trkpt lat="0" lon="0">
        <time>2020-12-06T10:21:06.941000+00:00</time>
      </trkpt>
      <trkpt lat="47.3313" lon="-1.38174">
        <ele>78</ele>
        <time>2020-12-06T10:21:07.843000+00:00</time>
      </trkpt>
      <trkpt lat="0" lon="0">
        <time>2020-12-06T10:21:07.848000+00:00</time>
      </trkpt>
      <trkpt lat="0" lon="0">
        <time>2020-12-06T10:21:07.851000+00:00</time>
      </trkpt>
      <trkpt lat="0" lon="0">
        <time>2020-12-06T10:21:07.852000+00:00</time>
      </trkpt>
      <trkpt lat="47.33131" lon="-1.3818">
        <ele>78</ele>
        <time>2020-12-06T10:21:08.977000+00:00</time>
      </trkpt>
      <trkpt lat="0" lon="0">
        <time>2020-12-06T10:21:08.989000+00:00</time>
      </trkpt>
      <trkpt lat="0" lon="0">
        <time>2020-12-06T10:21:08.992000+00:00</time>
      </trkpt>
      <trkpt lat="0" lon="0">
        <time>2020-12-06T10:21:08.994000+00:00</time>
      </trkpt>
      <trkpt lat="47.33133" lon="-1.38186">
        <ele>78</ele>
        <time>2020-12-06T10:21:09.932000+00:00</time>
      </trkpt>
      <trkpt lat="0" lon="0">
        <time>2020-12-06T10:21:09.953000+00:00</time>
      </trkpt>
      <trkpt lat="0" lon="0">
        <time>2020-12-06T10:21:09.963000+00:00</time>
      </trkpt>
      <trkpt lat="0" lon="0">
        <time>2020-12-06T10:21:09.971000+00:00</time>
      </trkpt>
      <trkpt lat="47.33136" lon="-1.38192">
        <ele>78</ele>
        <time>2020-12-06T10:21:10.966000+00:00</time>
      </trkpt>
      <trkpt lat="0" lon="0">
        <time>2020-12-06T10:21:10.971000+00:00</time>
      </trkpt>
      <trkpt lat="0" lon="0">
        <time>2020-12-06T10:21:10.980000+00:00</time>
      </trkpt>
      <trkpt lat="0" lon="0">
        <time>2020-12-06T10:21:10.983000+00:00</time>
      </trkpt>
      <trkpt lat="47.33139" lon="-1.38199">
        <ele>78</ele>
        <time>2020-12-06T10:21:11.971000+00:00</time>
      </trkpt>
      <trkpt lat="0" lon="0">
        <time>2020-12-06T10:21:11.979000+00:00</time>
      </trkpt>
      <trkpt lat="0" lon="0">
        <time>2020-12-06T10:21:11.983000+00:00</time>
      </trkpt>
      <trkpt lat="0" lon="0">
        <time>2020-12-06T10:21:11.987000+00:00</time>
      </trkpt>
      <trkpt lat="47.33143" lon="-1.38206">
        <ele>78</ele>
        <time>2020-12-06T10:21:12.923000+00:00</time>
      </trkpt>
      <trkpt lat="0" lon="0">
        <time>2020-12-06T10:21:12.928000+00:00</time>
      </trkpt>
      <trkpt lat="0" lon="0">
        <time>2020-12-06T10:21:12.931000+00:00</time>
      </trkpt>
      <trkpt lat="0" lon="0">
        <time>2020-12-06T10:21:12.935000+00:00</time>
      </trkpt>
      <trkpt lat="47.33147" lon="-1.38214">
        <ele>78</ele>
        <time>2020-12-06T10:21:13.948000+00:00</time>
      </trkpt>
      <trkpt lat="0" lon="0">
        <time>2020-12-06T10:21:13.959000+00:00</time>
      </trkpt>
      <trkpt lat="0" lon="0">
        <time>2020-12-06T10:21:13.970000+00:00</time>
      </trkpt>
      <trkpt lat="0" lon="0">
        <time>2020-12-06T10:21:13.979000+00:00</time>
      </trkpt>
      <trkpt lat="47.33151" lon="-1.38221">
        <ele>78</ele>
        <time>2020-12-06T10:21:14.930000+00:00</time>
      </trkpt>
      <trkpt lat="0" lon="0">
        <time>2020-12-06T10:21:14.936000+00:00</time>
      </trkpt>
      <trkpt lat="0" lon="0">
        <time>2020-12-06T10:21:14.941000+00:00</time>
      </trkpt>
      <trkpt lat="0" lon="0">
        <time>2020-12-06T10:21:14.943000+00:00</time>
      </trkpt>
      <trkpt lat="47.33156" lon="-1.38229">
        <ele>78</ele>
        <time>2020-12-06T10:21:15.955000+00:00</time>
      </trkpt>
      <trkpt lat="0" lon="0">
        <time>2020-12-06T10:21:15.976000+00:00</time>
      </trkpt>
      <trkpt lat="0" lon="0">
        <time>2020-12-06T10:21:15.986000+00:00</time>
      </trkpt>
      <trkpt lat="0" lon="0">
        <time>2020-12-06T10:21:15.993000+00:00</time>
      </trkpt>
      <trkpt lat="47.3316" lon="-1.38236">
        <ele>78</ele>
        <time>2020-12-06T10:21:16.935000+00:00</time>
      </trkpt>
      <trkpt lat="0" lon="0">
        <time>2020-12-06T10:21:16.948000+00:00</time>
      </trkpt>
      <trkpt lat="0" lon="0">
        <time>2020-12-06T10:21:16.954000+00:00</time>
      </trkpt>
      <trkpt lat="0" lon="0">
        <time>2020-12-06T10:21:16.955000+00:00</time>
      </trkpt>
      <trkpt lat="47.33165" lon="-1.38244">
        <ele>78</ele>
        <time>2020-12-06T10:21:17.944000+00:00</time>
      </trkpt>
      <trkpt lat="0" lon="0">
        <time>2020-12-06T10:21:17.953000+00:00</time>
      </trkpt>
      <trkpt lat="0" lon="0">
        <time>2020-12-06T10:21:17.958000+00:00</time>
      </trkpt>
      <trkpt lat="0" lon="0">
        <time>2020-12-06T10:21:17.959000+00:00</time>
      </trkpt>
      <trkpt lat="47.33169" lon="-1.38251">
        <ele>77</ele>
        <time>2020-12-06T10:21:18.910000+00:00</time>
      </trkpt>
      <trkpt lat="0" lon="0">
        <time>2020-12-06T10:21:18.927000+00:00</time>
      </trkpt>
      <trkpt lat="0" lon="0">
        <time>2020-12-06T10:21:18.930000+00:00</time>
      </trkpt>
      <trkpt lat="0" lon="0">
        <time>2020-12-06T10:21:18.932000+00:00</time>
      </trkpt>
      <trkpt lat="47.33174" lon="-1.38259">
        <ele>77</ele>
        <time>2020-12-06T10:21:19.945000+00:00</time>
      </trkpt>
      <trkpt lat="0" lon="0">
        <time>2020-12-06T10:21:19.960000+00:00</time>
      </trkpt>
      <trkpt lat="0" lon="0">
        <time>2020-12-06T10:21:19.970000+00:00</time>
      </trkpt>
      <trkpt lat="0" lon="0">
        <time>2020-12-06T10:21:19.974000+00:00</time>
      </trkpt>
      <trkpt lat="47.33178" lon="-1.38266">
        <ele>77</ele>
        <time>2020-12-06T10:21:20.918000+00:00</time>
      </trkpt>
      <trkpt lat="0" lon="0">
        <time>2020-12-06T10:21:20.924000+00:00</time>
      </trkpt>
      <trkpt lat="0" lon="0">
        <time>2020-12-06T10:21:20.928000+00:00</time>
      </trkpt>
      <trkpt lat="0" lon="0">
        <time>2020-12-06T10:21:20.931000+00:00</time>
      </trkpt>
      <trkpt lat="47.33182" lon="-1.38273">
        <ele>77</ele>
        <time>2020-12-06T10:21:21.934000+00:00</time>
      </trkpt>
      <trkpt lat="0" lon="0">
        <time>2020-12-06T10:21:21.941000+00:00</time>
      </trkpt>
      <trkpt lat="0" lon="0">
        <time>2020-12-06T10:21:21.946000+00:00</time>
      </trkpt>
      <trkpt lat="0" lon="0">
        <time>2020-12-06T10:21:21.949000+00:00</time>
      </trkpt>
      <trkpt lat="47.33187" lon="-1.3828">
        <ele>77</ele>
        <time>2020-12-06T10:21:22.918000+00:00</time>
      </trkpt>
      <trkpt lat="0" lon="0">
        <time>2020-12-06T10:21:22.936000+00:00</time>
      </trkpt>
      <trkpt lat="0" lon="0">
        <time>2020-12-06T10:21:22.943000+00:00</time>
      </trkpt>
      <trkpt lat="0" lon="0">
        <time>2020-12-06T10:21:22.945000+00:00</time>
      </trkpt>
      <trkpt lat="47.33191" lon="-1.38287">
        <ele>77</ele>
        <time>2020-12-06T10:21:23.945000+00:00</time>
      </trkpt>
      <trkpt lat="0" lon="0">
        <time>2020-12-06T10:21:23.964000+00:00</time>
      </trkpt>
      <trkpt lat="0" lon="0">
        <time>2020-12-06T10:21:23.970000+00:00</time>
      </trkpt>
      <trkpt lat="0" lon="0">
        <time>2020-12-06T10:21:23.972000+00:00</time>
      </trkpt>
      <trkpt lat="47.33195" lon="-1.38293">
        <ele>76</ele>
        <time>2020-12-06T10:21:24.951000+00:00</time>
      </trkpt>
      <trkpt lat="0" lon="0">
        <time>2020-12-06T10:21:24.958000+00:00</time>
      </trkpt>
      <trkpt lat="0" lon="0">
        <time>2020-12-06T10:21:24.966000+00:00</time>
      </trkpt>
      <trkpt lat="0" lon="0">
        <time>2020-12-06T10:21:24.976000+00:00</time>
      </trkpt>
      <trkpt lat="47.33199" lon="-1.383">
        <ele>76</ele>
        <time>2020-12-06T10:21:25.920000+00:00</time>
      </trkpt>
      <trkpt lat="0" lon="0">
        <time>2020-12-06T10:21:25.923000+00:00</time>
      </trkpt>
      <trkpt lat="0" lon="0">
        <time>2020-12-06T10:21:25.927000+00:00</time>
      </trkpt>
      <trkpt lat="0" lon="0">
        <time>2020-12-06T10:21:25.930000+00:00</time>
      </trkpt>
      <trkpt lat="47.33203" lon="-1.38306">
        <ele>76</ele>
        <time>2020-12-06T10:21:26.912000+00:00</time>
      </trkpt>
      <trkpt lat="0" lon="0">
        <time>2020-12-06T10:21:26.918000+00:00</time>
      </trkpt>
      <trkpt lat="0" lon="0">
        <time>2020-12-06T10:21:26.923000+00:00</time>
      </trkpt>
      <trkpt lat="0" lon="0">
        <time>2020-12-06T10:21:26.931000+00:00</time>
      </trkpt>
      <trkpt lat="47.33207" lon="-1.38312">
        <ele>76</ele>
        <time>2020-12-06T10:21:27.925000+00:00</time>
      </trkpt>
      <trkpt lat="0" lon="0">
        <time>2020-12-06T10:21:27.939000+00:00</time>
      </trkpt>
      <trkpt lat="0" lon="0">
        <time>2020-12-06T10:21:27.943000+00:00</time>
      </trkpt>
      <trkpt lat="0" lon="0">
        <time>2020-12-06T10:21:27.945000+00:00</time>
      </trkpt>
      <trkpt lat="47.33211" lon="-1.38319">
        <ele>76</ele>
        <time>2020-12-06T10:21:28.931000+00:00</time>
      </trkpt>
      <trkpt lat="0" lon="0">
        <time>2020-12-06T10:21:28.938000+00:00</time>
      </trkpt>
      <trkpt lat="0" lon="0">
        <time>2020-12-06T10:21:28.942000+00:00</time>
      </trkpt>
      <trkpt lat="0" lon="0">
        <time>2020-12-06T10:21:28.944000+00:00</time>
      </trkpt>
      <trkpt lat="47.33214" lon="-1.38325">
        <ele>76</ele>
        <time>2020-12-06T10:21:29.922000+00:00</time>
      </trkpt>
      <trkpt lat="0" lon="0">
        <time>2020-12-06T10:21:29.925000+00:00</time>
      </trkpt>
      <trkpt lat="0" lon="0">
        <time>2020-12-06T10:21:29.934000+00:00</time>
      </trkpt>
      <trkpt lat="0" lon="0">
        <time>2020-12-06T10:21:29.940000+00:00</time>
      </trkpt>
      <trkpt lat="47.33218" lon="-1.38332">
        <ele>76</ele>
        <time>2020-12-06T10:21:30.924000+00:00</time>
      </trkpt>
      <trkpt lat="0" lon="0">
        <time>2020-12-06T10:21:30.930000+00:00</time>
      </trkpt>
      <trkpt lat="0" lon="0">
        <time>2020-12-06T10:21:30.934000+00:00</time>
      </trkpt>
      <trkpt lat="0" lon="0">
        <time>2020-12-06T10:21:30.939000+00:00</time>
      </trkpt>
      <trkpt lat="47.33222" lon="-1.38338">
        <ele>76</ele>
        <time>2020-12-06T10:21:31.932000+00:00</time>
      </trkpt>
      <trkpt lat="0" lon="0">
        <time>2020-12-06T10:21:31.945000+00:00</time>
      </trkpt>
      <trkpt lat="0" lon="0">
        <time>2020-12-06T10:21:31.950000+00:00</time>
      </trkpt>
      <trkpt lat="0" lon="0">
        <time>2020-12-06T10:21:31.955000+00:00</time>
      </trkpt>
      <trkpt lat="47.33225" lon="-1.38345">
        <ele>76</ele>
        <time>2020-12-06T10:21:32.921000+00:00</time>
      </trkpt>
      <trkpt lat="0" lon="0">
        <time>2020-12-06T10:21:32.925000+00:00</time>
      </trkpt>
      <trkpt lat="0" lon="0">
        <time>2020-12-06T10:21:32.934000+00:00</time>
      </trkpt>
      <trkpt lat="0" lon="0">
        <time>2020-12-06T10:21:32.935000+00:00</time>
      </trkpt>
      <trkpt lat="47.33228" lon="-1.38351">
        <ele>76</ele>
        <time>2020-12-06T10:21:33.917000+00:00</time>
      </trkpt>
      <trkpt lat="0" lon="0">
        <time>2020-12-06T10:21:33.936000+00:00</time>
      </trkpt>
      <trkpt lat="0" lon="0">
        <time>2020-12-06T10:21:33.944000+00:00</time>
      </trkpt>
      <trkpt lat="0" lon="0">
        <time>2020-12-06T10:21:33.946000+00:00</time>
      </trkpt>
      <trkpt lat="47.33231" lon="-1.38358">
        <ele>76</ele>
        <time>2020-12-06T10:21:34.954000+00:00</time>
      </trkpt>
      <trkpt lat="0" lon="0">
        <time>2020-12-06T10:21:34.967000+00:00</time>
      </trkpt>
      <trkpt lat="0" lon="0">
        <time>2020-12-06T10:21:34.973000+00:00</time>
      </trkpt>
      <trkpt lat="0" lon="0">
        <time>2020-12-06T10:21:34.974000+00:00</time>
      </trkpt>
      <trkpt lat="47.33234" lon="-1.38364">
        <ele>76</ele>
        <time>2020-12-06T10:21:35.950000+00:00</time>
      </trkpt>
      <trkpt lat="0" lon="0">
        <time>2020-12-06T10:21:35.956000+00:00</time>
      </trkpt>
      <trkpt lat="0" lon="0">
        <time>2020-12-06T10:21:35.969000+00:00</time>
      </trkpt>
      <trkpt lat="0" lon="0">
        <time>2020-12-06T10:21:35.973000+00:00</time>
      </trkpt>
      <trkpt lat="47.33237" lon="-1.38371">
        <ele>76</ele>
        <time>2020-12-06T10:21:36.943000+00:00</time>
      </trkpt>
      <trkpt lat="0" lon="0">
        <time>2020-12-06T10:21:36.949000+00:00</time>
      </trkpt>
      <trkpt lat="0" lon="0">
        <time>2020-12-06T10:21:36.955000+00:00</time>
      </trkpt>
      <trkpt lat="0" lon="0">
        <time>2020-12-06T10:21:36.961000+00:00</time>
      </trkpt>
      <trkpt lat="47.3324" lon="-1.38378">
        <ele>76</ele>
        <time>2020-12-06T10:21:37.923000+00:00</time>
      </trkpt>
      <trkpt lat="0" lon="0">
        <time>2020-12-06T10:21:37.941000+00:00</time>
      </trkpt>
      <trkpt lat="0" lon="0">
        <time>2020-12-06T10:21:37.950000+00:00</time>
      </trkpt>
      <trkpt lat="0" lon="0">
        <time>2020-12-06T10:21:37.952000+00:00</time>
      </trkpt>
      <trkpt lat="47.33242" lon="-1.38385">
        <ele>76</ele>
        <time>2020-12-06T10:21:38.923000+00:00</time>
      </trkpt>
      <trkpt lat="0" lon="0">
        <time>2020-12-06T10:21:38.928000+00:00</time>
      </trkpt>
      <trkpt lat="0" lon="0">
        <time>2020-12-06T10:21:38.931000+00:00</time>
      </trkpt>
      <trkpt lat="0" lon="0">
        <time>2020-12-06T10:21:38.939000+00:00</time>
      </trkpt>
      <trkpt lat="47.33245" lon="-1.38392">
        <ele>76</ele>
        <time>2020-12-06T10:21:39.955000+00:00</time>
      </trkpt>
      <trkpt lat="0" lon="0">
        <time>2020-12-06T10:21:39.971000+00:00</time>
      </trkpt>
      <trkpt lat="0" lon="0">
        <time>2020-12-06T10:21:39.983000+00:00</time>
      </trkpt>
      <trkpt lat="0" lon="0">
        <time>2020-12-06T10:21:39.986000+00:00</time>
      </trkpt>
      <trkpt lat="47.33247" lon="-1.38399">
        <ele>76</ele>
        <time>2020-12-06T10:21:40.926000+00:00</time>
      </trkpt>
      <trkpt lat="0" lon="0">
        <time>2020-12-06T10:21:40.941000+00:00</time>
      </trkpt>
      <trkpt lat="0" lon="0">
        <time>2020-12-06T10:21:40.948000+00:00</time>
      </trkpt>
      <trkpt lat="0" lon="0">
        <time>2020-12-06T10:21:40.950000+00:00</time>
      </trkpt>
      <trkpt lat="47.33249" lon="-1.38407">
        <ele>76</ele>
        <time>2020-12-06T10:21:41.938000+00:00</time>
      </trkpt>
      <trkpt lat="0" lon="0">
        <time>2020-12-06T10:21:41.945000+00:00</time>
      </trkpt>
      <trkpt lat="0" lon="0">
        <time>2020-12-06T10:21:41.952000+00:00</time>
      </trkpt>
      <trkpt lat="0" lon="0">
        <time>2020-12-06T10:21:41.960000+00:00</time>
      </trkpt>
      <trkpt lat="47.33251" lon="-1.38414">
        <ele>76</ele>
        <time>2020-12-06T10:21:42.921000+00:00</time>
      </trkpt>
      <trkpt lat="0" lon="0">
        <time>2020-12-06T10:21:42.926000+00:00</time>
      </trkpt>
      <trkpt lat="0" lon="0">
        <time>2020-12-06T10:21:42.930000+00:00</time>
      </trkpt>
      <trkpt lat="0" lon="0">
        <time>2020-12-06T10:21:42.932000+00:00</time>
      </trkpt>
      <trkpt lat="47.33252" lon="-1.38422">
        <ele>75</ele>
        <time>2020-12-06T10:21:43.910000+00:00</time>
      </trkpt>
      <trkpt lat="0" lon="0">
        <time>2020-12-06T10:21:43.914000+00:00</time>
      </trkpt>
      <trkpt lat="0" lon="0">
        <time>2020-12-06T10:21:43.927000+00:00</time>
      </trkpt>
      <trkpt lat="0" lon="0">
        <time>2020-12-06T10:21:43.929000+00:00</time>
      </trkpt>
      <trkpt lat="47.33253" lon="-1.3843">
        <ele>75</ele>
        <time>2020-12-06T10:21:44.920000+00:00</time>
      </trkpt>
      <trkpt lat="0" lon="0">
        <time>2020-12-06T10:21:44.927000+00:00</time>
      </trkpt>
      <trkpt lat="0" lon="0">
        <time>2020-12-06T10:21:44.942000+00:00</time>
      </trkpt>
      <trkpt lat="0" lon="0">
        <time>2020-12-06T10:21:44.944000+00:00</time>
      </trkpt>
      <trkpt lat="47.33254" lon="-1.38438">
        <ele>75</ele>
        <time>2020-12-06T10:21:45.926000+00:00</time>
      </trkpt>
      <trkpt lat="0" lon="0">
        <time>2020-12-06T10:21:45.942000+00:00</time>
      </trkpt>
      <trkpt lat="0" lon="0">
        <time>2020-12-06T10:21:45.948000+00:00</time>
      </trkpt>
      <trkpt lat="0" lon="0">
        <time>2020-12-06T10:21:45.952000+00:00</time>
      </trkpt>
      <trkpt lat="47.33255" lon="-1.38446">
        <ele>75</ele>
        <time>2020-12-06T10:21:46.899000+00:00</time>
      </trkpt>
      <trkpt lat="0" lon="0">
        <time>2020-12-06T10:21:46.909000+00:00</time>
      </trkpt>
      <trkpt lat="0" lon="0">
        <time>2020-12-06T10:21:46.918000+00:00</time>
      </trkpt>
      <trkpt lat="0" lon="0">
        <time>2020-12-06T10:21:46.921000+00:00</time>
      </trkpt>
      <trkpt lat="47.33255" lon="-1.38454">
        <ele>75</ele>
        <time>2020-12-06T10:21:47.923000+00:00</time>
      </trkpt>
      <trkpt lat="0" lon="0">
        <time>2020-12-06T10:21:47.933000+00:00</time>
      </trkpt>
      <trkpt lat="0" lon="0">
        <time>2020-12-06T10:21:47.935000+00:00</time>
      </trkpt>
      <trkpt lat="47.33255" lon="-1.38462">
        <ele>74</ele>
        <time>2020-12-06T10:21:48.907000+00:00</time>
      </trkpt>
      <trkpt lat="0" lon="0">
        <time>2020-12-06T10:21:48.910000+00:00</time>
      </trkpt>
      <trkpt lat="0" lon="0">
        <time>2020-12-06T10:21:48.926000+00:00</time>
      </trkpt>
      <trkpt lat="0" lon="0">
        <time>2020-12-06T10:21:48.927000+00:00</time>
      </trkpt>
      <trkpt lat="47.33256" lon="-1.3847">
        <ele>74</ele>
        <time>2020-12-06T10:21:49.909000+00:00</time>
      </trkpt>
      <trkpt lat="0" lon="0">
        <time>2020-12-06T10:21:49.915000+00:00</time>
      </trkpt>
      <trkpt lat="0" lon="0">
        <time>2020-12-06T10:21:49.918000+00:00</time>
      </trkpt>
      <trkpt lat="0" lon="0">
        <time>2020-12-06T10:21:49.920000+00:00</time>
      </trkpt>
      <trkpt lat="47.33256" lon="-1.38478">
        <ele>74</ele>
        <time>2020-12-06T10:21:50.915000+00:00</time>
      </trkpt>
      <trkpt lat="0" lon="0">
        <time>2020-12-06T10:21:50.920000+00:00</time>
      </trkpt>
      <trkpt lat="0" lon="0">
        <time>2020-12-06T10:21:50.929000+00:00</time>
      </trkpt>
      <trkpt lat="0" lon="0">
        <time>2020-12-06T10:21:50.931000+00:00</time>
      </trkpt>
      <trkpt lat="47.33257" lon="-1.38486">
        <ele>74</ele>
        <time>2020-12-06T10:21:51.866000+00:00</time>
      </trkpt>
      <trkpt lat="0" lon="0">
        <time>2020-12-06T10:21:51.890000+00:00</time>
      </trkpt>
      <trkpt lat="0" lon="0">
        <time>2020-12-06T10:21:51.898000+00:00</time>
      </trkpt>
      <trkpt lat="0" lon="0">
        <time>2020-12-06T10:21:51.903000+00:00</time>
      </trkpt>
      <trkpt lat="47.33258" lon="-1.38494">
        <ele>74</ele>
        <time>2020-12-06T10:21:52.908000+00:00</time>
      </trkpt>
      <trkpt lat="0" lon="0">
        <time>2020-12-06T10:21:52.911000+00:00</time>
      </trkpt>
      <trkpt lat="0" lon="0">
        <time>2020-12-06T10:21:52.920000+00:00</time>
      </trkpt>
      <trkpt lat="0" lon="0">
        <time>2020-12-06T10:21:52.928000+00:00</time>
      </trkpt>
      <trkpt lat="47.3326" lon="-1.38501">
        <ele>74</ele>
        <time>2020-12-06T10:21:53.958000+00:00</time>
      </trkpt>
      <trkpt lat="0" lon="0">
        <time>2020-12-06T10:21:53.977000+00:00</time>
      </trkpt>
      <trkpt lat="0" lon="0">
        <time>2020-12-06T10:21:53.987000+00:00</time>
      </trkpt>
      <trkpt lat="0" lon="0">
        <time>2020-12-06T10:21:53.991000+00:00</time>
      </trkpt>
      <trkpt lat="47.33262" lon="-1.38508">
        <ele>74</ele>
        <time>2020-12-06T10:21:54.843000+00:00</time>
      </trkpt>
      <trkpt lat="0" lon="0">
        <time>2020-12-06T10:21:54.862000+00:00</time>
      </trkpt>
      <trkpt lat="0" lon="0">
        <time>2020-12-06T10:21:54.867000+00:00</time>
      </trkpt>
      <trkpt lat="0" lon="0">
        <time>2020-12-06T10:21:54.870000+00:00</time>
      </trkpt>
      <trkpt lat="47.33264" lon="-1.38515">
        <ele>74</ele>
        <time>2020-12-06T10:21:55.910000+00:00</time>
      </trkpt>
      <trkpt lat="0" lon="0">
        <time>2020-12-06T10:21:55.916000+00:00</time>
      </trkpt>
      <trkpt lat="0" lon="0">
        <time>2020-12-06T10:21:55.925000+00:00</time>
      </trkpt>
      <trkpt lat="0" lon="0">
        <time>2020-12-06T10:21:55.927000+00:00</time>
      </trkpt>
      <trkpt lat="47.33266" lon="-1.38522">
        <ele>74</ele>
        <time>2020-12-06T10:21:56.942000+00:00</time>
      </trkpt>
      <trkpt lat="0" lon="0">
        <time>2020-12-06T10:21:56.947000+00:00</time>
      </trkpt>
      <trkpt lat="0" lon="0">
        <time>2020-12-06T10:21:56.952000+00:00</time>
      </trkpt>
      <trkpt lat="0" lon="0">
        <time>2020-12-06T10:21:56.954000+00:00</time>
      </trkpt>
      <trkpt lat="47.33268" lon="-1.38529">
        <ele>74</ele>
        <time>2020-12-06T10:21:57.916000+00:00</time>
      </trkpt>
      <trkpt lat="0" lon="0">
        <time>2020-12-06T10:21:57.925000+00:00</time>
      </trkpt>
      <trkpt lat="0" lon="0">
        <time>2020-12-06T10:21:57.930000+00:00</time>
      </trkpt>
      <trkpt lat="0" lon="0">
        <time>2020-12-06T10:21:57.934000+00:00</time>
      </trkpt>
      <trkpt lat="47.3327" lon="-1.38536">
        <ele>74</ele>
        <time>2020-12-06T10:21:58.937000+00:00</time>
      </trkpt>
      <trkpt lat="0" lon="0">
        <time>2020-12-06T10:21:58.957000+00:00</time>
      </trkpt>
      <trkpt lat="0" lon="0">
        <time>2020-12-06T10:21:58.963000+00:00</time>
      </trkpt>
      <trkpt lat="0" lon="0">
        <time>2020-12-06T10:21:58.964000+00:00</time>
      </trkpt>
      <trkpt lat="47.33272" lon="-1.38543">
        <ele>74</ele>
        <time>2020-12-06T10:21:59.953000+00:00</time>
      </trkpt>
      <trkpt lat="0" lon="0">
        <time>2020-12-06T10:21:59.958000+00:00</time>
      </trkpt>
      <trkpt lat="0" lon="0">
        <time>2020-12-06T10:21:59.976000+00:00</time>
      </trkpt>
      <trkpt lat="0" lon="0">
        <time>2020-12-06T10:21:59.982000+00:00</time>
      </trkpt>
      <trkpt lat="47.33274" lon="-1.38551">
        <ele>74</ele>
        <time>2020-12-06T10:22:00.934000+00:00</time>
      </trkpt>
      <trkpt lat="0" lon="0">
        <time>2020-12-06T10:22:00.946000+00:00</time>
      </trkpt>
      <trkpt lat="0" lon="0">
        <time>2020-12-06T10:22:00.954000+00:00</time>
      </trkpt>
      <trkpt lat="0" lon="0">
        <time>2020-12-06T10:22:00.957000+00:00</time>
      </trkpt>
      <trkpt lat="47.33276" lon="-1.38558">
        <ele>74</ele>
        <time>2020-12-06T10:22:01.952000+00:00</time>
      </trkpt>
      <trkpt lat="0" lon="0">
        <time>2020-12-06T10:22:01.957000+00:00</time>
      </trkpt>
      <trkpt lat="0" lon="0">
        <time>2020-12-06T10:22:01.961000+00:00</time>
      </trkpt>
      <trkpt lat="0" lon="0">
        <time>2020-12-06T10:22:01.963000+00:00</time>
      </trkpt>
      <trkpt lat="47.33277" lon="-1.38566">
        <ele>74</ele>
        <time>2020-12-06T10:22:02.913000+00:00</time>
      </trkpt>
      <trkpt lat="0" lon="0">
        <time>2020-12-06T10:22:02.923000+00:00</time>
      </trkpt>
      <trkpt lat="0" lon="0">
        <time>2020-12-06T10:22:02.926000+00:00</time>
      </trkpt>
      <trkpt lat="0" lon="0">
        <time>2020-12-06T10:22:02.927000+00:00</time>
      </trkpt>
      <trkpt lat="47.33278" lon="-1.38573">
        <ele>74</ele>
        <time>2020-12-06T10:22:03.897000+00:00</time>
      </trkpt>
      <trkpt lat="0" lon="0">
        <time>2020-12-06T10:22:03.910000+00:00</time>
      </trkpt>
      <trkpt lat="0" lon="0">
        <time>2020-12-06T10:22:03.914000+00:00</time>
      </trkpt>
      <trkpt lat="0" lon="0">
        <time>2020-12-06T10:22:03.918000+00:00</time>
      </trkpt>
      <trkpt lat="47.33279" lon="-1.38581">
        <ele>74</ele>
        <time>2020-12-06T10:22:04.918000+00:00</time>
      </trkpt>
      <trkpt lat="0" lon="0">
        <time>2020-12-06T10:22:04.926000+00:00</time>
      </trkpt>
      <trkpt lat="0" lon="0">
        <time>2020-12-06T10:22:04.932000+00:00</time>
      </trkpt>
      <trkpt lat="0" lon="0">
        <time>2020-12-06T10:22:04.934000+00:00</time>
      </trkpt>
      <trkpt lat="47.3328" lon="-1.38589">
        <ele>73</ele>
        <time>2020-12-06T10:22:05.902000+00:00</time>
      </trkpt>
      <trkpt lat="0" lon="0">
        <time>2020-12-06T10:22:05.911000+00:00</time>
      </trkpt>
      <trkpt lat="0" lon="0">
        <time>2020-12-06T10:22:05.915000+00:00</time>
      </trkpt>
      <trkpt lat="0" lon="0">
        <time>2020-12-06T10:22:05.920000+00:00</time>
      </trkpt>
      <trkpt lat="47.33281" lon="-1.38597">
        <ele>73</ele>
        <time>2020-12-06T10:22:06.938000+00:00</time>
      </trkpt>
      <trkpt lat="0" lon="0">
        <time>2020-12-06T10:22:06.946000+00:00</time>
      </trkpt>
      <trkpt lat="0" lon="0">
        <time>2020-12-06T10:22:06.950000+00:00</time>
      </trkpt>
      <trkpt lat="0" lon="0">
        <time>2020-12-06T10:22:06.952000+00:00</time>
      </trkpt>
      <trkpt lat="47.33282" lon="-1.38605">
        <ele>73</ele>
        <time>2020-12-06T10:22:07.913000+00:00</time>
      </trkpt>
      <trkpt lat="0" lon="0">
        <time>2020-12-06T10:22:07.921000+00:00</time>
      </trkpt>
      <trkpt lat="0" lon="0">
        <time>2020-12-06T10:22:07.925000+00:00</time>
      </trkpt>
      <trkpt lat="0" lon="0">
        <time>2020-12-06T10:22:07.928000+00:00</time>
      </trkpt>
      <trkpt lat="47.33283" lon="-1.38613">
        <ele>73</ele>
        <time>2020-12-06T10:22:08.902000+00:00</time>
      </trkpt>
      <trkpt lat="0" lon="0">
        <time>2020-12-06T10:22:08.906000+00:00</time>
      </trkpt>
      <trkpt lat="0" lon="0">
        <time>2020-12-06T10:22:08.911000+00:00</time>
      </trkpt>
      <trkpt lat="0" lon="0">
        <time>2020-12-06T10:22:08.913000+00:00</time>
      </trkpt>
      <trkpt lat="47.33284" lon="-1.38621">
        <ele>73</ele>
        <time>2020-12-06T10:22:09.914000+00:00</time>
      </trkpt>
      <trkpt lat="0" lon="0">
        <time>2020-12-06T10:22:09.925000+00:00</time>
      </trkpt>
      <trkpt lat="0" lon="0">
        <time>2020-12-06T10:22:09.931000+00:00</time>
      </trkpt>
      <trkpt lat="0" lon="0">
        <time>2020-12-06T10:22:09.934000+00:00</time>
      </trkpt>
      <trkpt lat="47.33285" lon="-1.38629">
        <ele>73</ele>
        <time>2020-12-06T10:22:10.943000+00:00</time>
      </trkpt>
      <trkpt lat="0" lon="0">
        <time>2020-12-06T10:22:10.949000+00:00</time>
      </trkpt>
      <trkpt lat="0" lon="0">
        <time>2020-12-06T10:22:10.954000+00:00</time>
      </trkpt>
      <trkpt lat="0" lon="0">
        <time>2020-12-06T10:22:10.958000+00:00</time>
      </trkpt>
      <trkpt lat="47.33286" lon="-1.38637">
        <ele>73</ele>
        <time>2020-12-06T10:22:11.914000+00:00</time>
      </trkpt>
      <trkpt lat="0" lon="0">
        <time>2020-12-06T10:22:11.921000+00:00</time>
      </trkpt>
      <trkpt lat="0" lon="0">
        <time>2020-12-06T10:22:11.925000+00:00</time>
      </trkpt>
      <trkpt lat="0" lon="0">
        <time>2020-12-06T10:22:11.926000+00:00</time>
      </trkpt>
      <trkpt lat="47.33287" lon="-1.38646">
        <ele>73</ele>
        <time>2020-12-06T10:22:12.899000+00:00</time>
      </trkpt>
      <trkpt lat="0" lon="0">
        <time>2020-12-06T10:22:12.907000+00:00</time>
      </trkpt>
      <trkpt lat="0" lon="0">
        <time>2020-12-06T10:22:12.908000+00:00</time>
      </trkpt>
      <trkpt lat="0" lon="0">
        <time>2020-12-06T10:22:12.909000+00:00</time>
      </trkpt>
      <trkpt lat="47.33288" lon="-1.38654">
        <ele>73</ele>
        <time>2020-12-06T10:22:13.906000+00:00</time>
      </trkpt>
      <trkpt lat="0" lon="0">
        <time>2020-12-06T10:22:13.911000+00:00</time>
      </trkpt>
      <trkpt lat="0" lon="0">
        <time>2020-12-06T10:22:13.925000+00:00</time>
      </trkpt>
      <trkpt lat="0" lon="0">
        <time>2020-12-06T10:22:13.927000+00:00</time>
      </trkpt>
      <trkpt lat="47.33289" lon="-1.38662">
        <ele>73</ele>
        <time>2020-12-06T10:22:14.943000+00:00</time>
      </trkpt>
      <trkpt lat="0" lon="0">
        <time>2020-12-06T10:22:14.960000+00:00</time>
      </trkpt>
      <trkpt lat="0" lon="0">
        <time>2020-12-06T10:22:14.967000+00:00</time>
      </trkpt>
      <trkpt lat="0" lon="0">
        <time>2020-12-06T10:22:14.973000+00:00</time>
      </trkpt>
      <trkpt lat="47.3329" lon="-1.38671">
        <ele>73</ele>
        <time>2020-12-06T10:22:15.942000+00:00</time>
      </trkpt>
      <trkpt lat="0" lon="0">
        <time>2020-12-06T10:22:15.956000+00:00</time>
      </trkpt>
      <trkpt lat="0" lon="0">
        <time>2020-12-06T10:22:15.963000+00:00</time>
      </trkpt>
      <trkpt lat="0" lon="0">
        <time>2020-12-06T10:22:15.966000+00:00</time>
      </trkpt>
      <trkpt lat="47.33292" lon="-1.3868">
        <ele>73</ele>
        <time>2020-12-06T10:22:16.917000+00:00</time>
      </trkpt>
      <trkpt lat="0" lon="0">
        <time>2020-12-06T10:22:16.925000+00:00</time>
      </trkpt>
      <trkpt lat="0" lon="0">
        <time>2020-12-06T10:22:16.928000+00:00</time>
      </trkpt>
      <trkpt lat="0" lon="0">
        <time>2020-12-06T10:22:16.930000+00:00</time>
      </trkpt>
      <trkpt lat="47.33293" lon="-1.38688">
        <ele>73</ele>
        <time>2020-12-06T10:22:17.921000+00:00</time>
      </trkpt>
      <trkpt lat="0" lon="0">
        <time>2020-12-06T10:22:17.929000+00:00</time>
      </trkpt>
      <trkpt lat="0" lon="0">
        <time>2020-12-06T10:22:17.938000+00:00</time>
      </trkpt>
      <trkpt lat="0" lon="0">
        <time>2020-12-06T10:22:17.939000+00:00</time>
      </trkpt>
      <trkpt lat="47.33294" lon="-1.38697">
        <ele>73</ele>
        <time>2020-12-06T10:22:18.911000+00:00</time>
      </trkpt>
      <trkpt lat="0" lon="0">
        <time>2020-12-06T10:22:18.917000+00:00</time>
      </trkpt>
      <trkpt lat="0" lon="0">
        <time>2020-12-06T10:22:18.919000+00:00</time>
      </trkpt>
      <trkpt lat="0" lon="0">
        <time>2020-12-06T10:22:18.920000+00:00</time>
      </trkpt>
      <trkpt lat="47.33295" lon="-1.38706">
        <ele>73</ele>
        <time>2020-12-06T10:22:19.925000+00:00</time>
      </trkpt>
      <trkpt lat="0" lon="0">
        <time>2020-12-06T10:22:19.946000+00:00</time>
      </trkpt>
      <trkpt lat="0" lon="0">
        <time>2020-12-06T10:22:19.954000+00:00</time>
      </trkpt>
      <trkpt lat="0" lon="0">
        <time>2020-12-06T10:22:19.957000+00:00</time>
      </trkpt>
      <trkpt lat="47.33296" lon="-1.38715">
        <ele>73</ele>
        <time>2020-12-06T10:22:20.924000+00:00</time>
      </trkpt>
      <trkpt lat="0" lon="0">
        <time>2020-12-06T10:22:20.942000+00:00</time>
      </trkpt>
      <trkpt lat="0" lon="0">
        <time>2020-12-06T10:22:20.948000+00:00</time>
      </trkpt>
      <trkpt lat="0" lon="0">
        <time>2020-12-06T10:22:20.951000+00:00</time>
      </trkpt>
      <trkpt lat="47.33296" lon="-1.38724">
        <ele>73</ele>
        <time>2020-12-06T10:22:21.910000+00:00</time>
      </trkpt>
      <trkpt lat="0" lon="0">
        <time>2020-12-06T10:22:21.914000+00:00</time>
      </trkpt>
      <trkpt lat="0" lon="0">
        <time>2020-12-06T10:22:21.918000+00:00</time>
      </trkpt>
      <trkpt lat="0" lon="0">
        <time>2020-12-06T10:22:21.935000+00:00</time>
      </trkpt>
      <trkpt lat="47.33297" lon="-1.38734">
        <ele>73</ele>
        <time>2020-12-06T10:22:22.890000+00:00</time>
      </trkpt>
      <trkpt lat="0" lon="0">
        <time>2020-12-06T10:22:22.896000+00:00</time>
      </trkpt>
      <trkpt lat="0" lon="0">
        <time>2020-12-06T10:22:22.913000+00:00</time>
      </trkpt>
      <trkpt lat="0" lon="0">
        <time>2020-12-06T10:22:22.915000+00:00</time>
      </trkpt>
      <trkpt lat="47.33297" lon="-1.38743">
        <ele>73</ele>
        <time>2020-12-06T10:22:23.915000+00:00</time>
      </trkpt>
      <trkpt lat="0" lon="0">
        <time>2020-12-06T10:22:23.920000+00:00</time>
      </trkpt>
      <trkpt lat="0" lon="0">
        <time>2020-12-06T10:22:23.921000+00:00</time>
      </trkpt>
      <trkpt lat="0" lon="0">
        <time>2020-12-06T10:22:23.922000+00:00</time>
      </trkpt>
      <trkpt lat="47.33298" lon="-1.38753">
        <ele>73</ele>
        <time>2020-12-06T10:22:24.919000+00:00</time>
      </trkpt>
      <trkpt lat="0" lon="0">
        <time>2020-12-06T10:22:24.926000+00:00</time>
      </trkpt>
      <trkpt lat="0" lon="0">
        <time>2020-12-06T10:22:24.928000+00:00</time>
      </trkpt>
      <trkpt lat="0" lon="0">
        <time>2020-12-06T10:22:24.929000+00:00</time>
      </trkpt>
      <trkpt lat="47.33298" lon="-1.38763">
        <ele>73</ele>
        <time>2020-12-06T10:22:25.937000+00:00</time>
      </trkpt>
      <trkpt lat="0" lon="0">
        <time>2020-12-06T10:22:25.955000+00:00</time>
      </trkpt>
      <trkpt lat="0" lon="0">
        <time>2020-12-06T10:22:25.967000+00:00</time>
      </trkpt>
      <trkpt lat="0" lon="0">
        <time>2020-12-06T10:22:25.970000+00:00</time>
      </trkpt>
      <trkpt lat="47.33299" lon="-1.38774">
        <ele>73</ele>
        <time>2020-12-06T10:22:26.922000+00:00</time>
      </trkpt>
      <trkpt lat="0" lon="0">
        <time>2020-12-06T10:22:26.929000+00:00</time>
      </trkpt>
      <trkpt lat="0" lon="0">
        <time>2020-12-06T10:22:26.937000+00:00</time>
      </trkpt>
      <trkpt lat="0" lon="0">
        <time>2020-12-06T10:22:26.942000+00:00</time>
      </trkpt>
      <trkpt lat="47.33299" lon="-1.38784">
        <ele>72</ele>
        <time>2020-12-06T10:22:27.937000+00:00</time>
      </trkpt>
      <trkpt lat="0" lon="0">
        <time>2020-12-06T10:22:27.948000+00:00</time>
      </trkpt>
      <trkpt lat="0" lon="0">
        <time>2020-12-06T10:22:27.952000+00:00</time>
      </trkpt>
      <trkpt lat="0" lon="0">
        <time>2020-12-06T10:22:27.954000+00:00</time>
      </trkpt>
      <trkpt lat="47.333" lon="-1.38795">
        <ele>72</ele>
        <time>2020-12-06T10:22:28.943000+00:00</time>
      </trkpt>
      <trkpt lat="0" lon="0">
        <time>2020-12-06T10:22:28.946000+00:00</time>
      </trkpt>
      <trkpt lat="0" lon="0">
        <time>2020-12-06T10:22:28.954000+00:00</time>
      </trkpt>
      <trkpt lat="0" lon="0">
        <time>2020-12-06T10:22:28.955000+00:00</time>
      </trkpt>
      <trkpt lat="47.33301" lon="-1.38805">
        <ele>72</ele>
        <time>2020-12-06T10:22:29.929000+00:00</time>
      </trkpt>
      <trkpt lat="0" lon="0">
        <time>2020-12-06T10:22:29.936000+00:00</time>
      </trkpt>
      <trkpt lat="0" lon="0">
        <time>2020-12-06T10:22:29.938000+00:00</time>
      </trkpt>
      <trkpt lat="0" lon="0">
        <time>2020-12-06T10:22:29.939000+00:00</time>
      </trkpt>
      <trkpt lat="47.33302" lon="-1.38816">
        <ele>72</ele>
        <time>2020-12-06T10:22:30.904000+00:00</time>
      </trkpt>
      <trkpt lat="0" lon="0">
        <time>2020-12-06T10:22:30.907000+00:00</time>
      </trkpt>
      <trkpt lat="0" lon="0">
        <time>2020-12-06T10:22:30.916000+00:00</time>
      </trkpt>
      <trkpt lat="0" lon="0">
        <time>2020-12-06T10:22:30.919000+00:00</time>
      </trkpt>
      <trkpt lat="47.33303" lon="-1.38826">
        <ele>72</ele>
        <time>2020-12-06T10:22:31.946000+00:00</time>
      </trkpt>
      <trkpt lat="0" lon="0">
        <time>2020-12-06T10:22:31.954000+00:00</time>
      </trkpt>
      <trkpt lat="0" lon="0">
        <time>2020-12-06T10:22:31.967000+00:00</time>
      </trkpt>
      <trkpt lat="0" lon="0">
        <time>2020-12-06T10:22:31.973000+00:00</time>
      </trkpt>
      <trkpt lat="47.33304" lon="-1.38836">
        <ele>71</ele>
        <time>2020-12-06T10:22:32.927000+00:00</time>
      </trkpt>
      <trkpt lat="0" lon="0">
        <time>2020-12-06T10:22:32.935000+00:00</time>
      </trkpt>
      <trkpt lat="0" lon="0">
        <time>2020-12-06T10:22:32.937000+00:00</time>
      </trkpt>
      <trkpt lat="0" lon="0">
        <time>2020-12-06T10:22:32.938000+00:00</time>
      </trkpt>
      <trkpt lat="47.33306" lon="-1.38847">
        <ele>71</ele>
        <time>2020-12-06T10:22:33.921000+00:00</time>
      </trkpt>
      <trkpt lat="0" lon="0">
        <time>2020-12-06T10:22:33.935000+00:00</time>
      </trkpt>
      <trkpt lat="0" lon="0">
        <time>2020-12-06T10:22:33.938000+00:00</time>
      </trkpt>
      <trkpt lat="0" lon="0">
        <time>2020-12-06T10:22:33.940000+00:00</time>
      </trkpt>
      <trkpt lat="47.33308" lon="-1.38857">
        <ele>71</ele>
        <time>2020-12-06T10:22:34.939000+00:00</time>
      </trkpt>
      <trkpt lat="0" lon="0">
        <time>2020-12-06T10:22:34.945000+00:00</time>
      </trkpt>
      <trkpt lat="0" lon="0">
        <time>2020-12-06T10:22:34.949000+00:00</time>
      </trkpt>
      <trkpt lat="0" lon="0">
        <time>2020-12-06T10:22:34.951000+00:00</time>
      </trkpt>
      <trkpt lat="47.3331" lon="-1.38866">
        <ele>71</ele>
        <time>2020-12-06T10:22:35.940000+00:00</time>
      </trkpt>
      <trkpt lat="0" lon="0">
        <time>2020-12-06T10:22:35.942000+00:00</time>
      </trkpt>
      <trkpt lat="0" lon="0">
        <time>2020-12-06T10:22:35.944000+00:00</time>
      </trkpt>
      <trkpt lat="0" lon="0">
        <time>2020-12-06T10:22:35.946000+00:00</time>
      </trkpt>
      <trkpt lat="47.33311" lon="-1.38876">
        <ele>70</ele>
        <time>2020-12-06T10:22:36.838000+00:00</time>
      </trkpt>
      <trkpt lat="0" lon="0">
        <time>2020-12-06T10:22:36.840000+00:00</time>
      </trkpt>
      <trkpt lat="0" lon="0">
        <time>2020-12-06T10:22:36.841000+00:00</time>
      </trkpt>
      <trkpt lat="0" lon="0">
        <time>2020-12-06T10:22:36.842000+00:00</time>
      </trkpt>
      <trkpt lat="47.33313" lon="-1.38885">
        <ele>70</ele>
        <time>2020-12-06T10:22:37.989000+00:00</time>
      </trkpt>
      <trkpt lat="0" lon="0">
        <time>2020-12-06T10:22:37.998000+00:00</time>
      </trkpt>
      <trkpt lat="0" lon="0">
        <time>2020-12-06T10:22:38.003000+00:00</time>
      </trkpt>
      <trkpt lat="0" lon="0">
        <time>2020-12-06T10:22:38.005000+00:00</time>
      </trkpt>
      <trkpt lat="47.33315" lon="-1.38894">
        <ele>70</ele>
        <time>2020-12-06T10:22:38.947000+00:00</time>
      </trkpt>
      <trkpt lat="0" lon="0">
        <time>2020-12-06T10:22:38.959000+00:00</time>
      </trkpt>
      <trkpt lat="0" lon="0">
        <time>2020-12-06T10:22:38.962000+00:00</time>
      </trkpt>
      <trkpt lat="0" lon="0">
        <time>2020-12-06T10:22:38.965000+00:00</time>
      </trkpt>
      <trkpt lat="47.33317" lon="-1.38902">
        <ele>70</ele>
        <time>2020-12-06T10:22:39.946000+00:00</time>
      </trkpt>
      <trkpt lat="0" lon="0">
        <time>2020-12-06T10:22:39.958000+00:00</time>
      </trkpt>
      <trkpt lat="0" lon="0">
        <time>2020-12-06T10:22:39.962000+00:00</time>
      </trkpt>
      <trkpt lat="0" lon="0">
        <time>2020-12-06T10:22:39.964000+00:00</time>
      </trkpt>
      <trkpt lat="47.33318" lon="-1.3891">
        <ele>70</ele>
        <time>2020-12-06T10:22:40.957000+00:00</time>
      </trkpt>
      <trkpt lat="0" lon="0">
        <time>2020-12-06T10:22:40.961000+00:00</time>
      </trkpt>
      <trkpt lat="0" lon="0">
        <time>2020-12-06T10:22:40.966000+00:00</time>
      </trkpt>
      <trkpt lat="0" lon="0">
        <time>2020-12-06T10:22:40.968000+00:00</time>
      </trkpt>
      <trkpt lat="47.33319" lon="-1.38918">
        <ele>70</ele>
        <time>2020-12-06T10:22:41.921000+00:00</time>
      </trkpt>
      <trkpt lat="0" lon="0">
        <time>2020-12-06T10:22:41.928000+00:00</time>
      </trkpt>
      <trkpt lat="0" lon="0">
        <time>2020-12-06T10:22:41.931000+00:00</time>
      </trkpt>
      <trkpt lat="0" lon="0">
        <time>2020-12-06T10:22:41.935000+00:00</time>
      </trkpt>
      <trkpt lat="47.33319" lon="-1.38924">
        <ele>70</ele>
        <time>2020-12-06T10:22:42.942000+00:00</time>
      </trkpt>
      <trkpt lat="0" lon="0">
        <time>2020-12-06T10:22:42.952000+00:00</time>
      </trkpt>
      <trkpt lat="0" lon="0">
        <time>2020-12-06T10:22:42.955000+00:00</time>
      </trkpt>
      <trkpt lat="0" lon="0">
        <time>2020-12-06T10:22:42.957000+00:00</time>
      </trkpt>
      <trkpt lat="47.33318" lon="-1.3893">
        <ele>70</ele>
        <time>2020-12-06T10:22:43.922000+00:00</time>
      </trkpt>
      <trkpt lat="0" lon="0">
        <time>2020-12-06T10:22:43.933000+00:00</time>
      </trkpt>
      <trkpt lat="0" lon="0">
        <time>2020-12-06T10:22:43.937000+00:00</time>
      </trkpt>
      <trkpt lat="0" lon="0">
        <time>2020-12-06T10:22:43.939000+00:00</time>
      </trkpt>
      <trkpt lat="47.33315" lon="-1.38934">
        <ele>70</ele>
        <time>2020-12-06T10:22:44.914000+00:00</time>
      </trkpt>
      <trkpt lat="0" lon="0">
        <time>2020-12-06T10:22:44.918000+00:00</time>
      </trkpt>
      <trkpt lat="0" lon="0">
        <time>2020-12-06T10:22:44.924000+00:00</time>
      </trkpt>
      <trkpt lat="0" lon="0">
        <time>2020-12-06T10:22:44.926000+00:00</time>
      </trkpt>
      <trkpt lat="47.33312" lon="-1.38937">
        <ele>70</ele>
        <time>2020-12-06T10:22:45.965000+00:00</time>
      </trkpt>
      <trkpt lat="0" lon="0">
        <time>2020-12-06T10:22:45.981000+00:00</time>
      </trkpt>
      <trkpt lat="0" lon="0">
        <time>2020-12-06T10:22:45.987000+00:00</time>
      </trkpt>
      <trkpt lat="0" lon="0">
        <time>2020-12-06T10:22:45.993000+00:00</time>
      </trkpt>
      <trkpt lat="47.33308" lon="-1.38937">
        <ele>70</ele>
        <time>2020-12-06T10:22:46.921000+00:00</time>
      </trkpt>
      <trkpt lat="0" lon="0">
        <time>2020-12-06T10:22:46.930000+00:00</time>
      </trkpt>
      <trkpt lat="0" lon="0">
        <time>2020-12-06T10:22:46.937000+00:00</time>
      </trkpt>
      <trkpt lat="0" lon="0">
        <time>2020-12-06T10:22:46.938000+00:00</time>
      </trkpt>
      <trkpt lat="47.33302" lon="-1.38937">
        <ele>70</ele>
        <time>2020-12-06T10:22:47.915000+00:00</time>
      </trkpt>
      <trkpt lat="0" lon="0">
        <time>2020-12-06T10:22:47.929000+00:00</time>
      </trkpt>
      <trkpt lat="0" lon="0">
        <time>2020-12-06T10:22:47.932000+00:00</time>
      </trkpt>
      <trkpt lat="0" lon="0">
        <time>2020-12-06T10:22:47.934000+00:00</time>
      </trkpt>
      <trkpt lat="47.33297" lon="-1.38935">
        <ele>70</ele>
        <time>2020-12-06T10:22:48.945000+00:00</time>
      </trkpt>
      <trkpt lat="0" lon="0">
        <time>2020-12-06T10:22:48.955000+00:00</time>
      </trkpt>
      <trkpt lat="0" lon="0">
        <time>2020-12-06T10:22:48.961000+00:00</time>
      </trkpt>
      <trkpt lat="0" lon="0">
        <time>2020-12-06T10:22:48.962000+00:00</time>
      </trkpt>
      <trkpt lat="47.33291" lon="-1.38932">
        <ele>70</ele>
        <time>2020-12-06T10:22:49.894000+00:00</time>
      </trkpt>
      <trkpt lat="0" lon="0">
        <time>2020-12-06T10:22:49.906000+00:00</time>
      </trkpt>
      <trkpt lat="0" lon="0">
        <time>2020-12-06T10:22:49.911000+00:00</time>
      </trkpt>
      <trkpt lat="0" lon="0">
        <time>2020-12-06T10:22:49.913000+00:00</time>
      </trkpt>
      <trkpt lat="47.33284" lon="-1.38928">
        <ele>70</ele>
        <time>2020-12-06T10:22:50.934000+00:00</time>
      </trkpt>
      <trkpt lat="0" lon="0">
        <time>2020-12-06T10:22:50.946000+00:00</time>
      </trkpt>
      <trkpt lat="0" lon="0">
        <time>2020-12-06T10:22:50.950000+00:00</time>
      </trkpt>
      <trkpt lat="0" lon="0">
        <time>2020-12-06T10:22:50.952000+00:00</time>
      </trkpt>
      <trkpt lat="47.33277" lon="-1.38925">
        <ele>70</ele>
        <time>2020-12-06T10:22:51.899000+00:00</time>
      </trkpt>
      <trkpt lat="0" lon="0">
        <time>2020-12-06T10:22:51.910000+00:00</time>
      </trkpt>
      <trkpt lat="0" lon="0">
        <time>2020-12-06T10:22:51.914000+00:00</time>
      </trkpt>
      <trkpt lat="0" lon="0">
        <time>2020-12-06T10:22:51.915000+00:00</time>
      </trkpt>
      <trkpt lat="47.33269" lon="-1.38921">
        <ele>70</ele>
        <time>2020-12-06T10:22:52.910000+00:00</time>
      </trkpt>
      <trkpt lat="0" lon="0">
        <time>2020-12-06T10:22:52.914000+00:00</time>
      </trkpt>
      <trkpt lat="0" lon="0">
        <time>2020-12-06T10:22:52.917000+00:00</time>
      </trkpt>
      <trkpt lat="0" lon="0">
        <time>2020-12-06T10:22:52.918000+00:00</time>
      </trkpt>
      <trkpt lat="47.33261" lon="-1.38917">
        <ele>70</ele>
        <time>2020-12-06T10:22:53.952000+00:00</time>
      </trkpt>
      <trkpt lat="0" lon="0">
        <time>2020-12-06T10:22:53.964000+00:00</time>
      </trkpt>
      <trkpt lat="0" lon="0">
        <time>2020-12-06T10:22:53.974000+00:00</time>
      </trkpt>
      <trkpt lat="0" lon="0">
        <time>2020-12-06T10:22:53.978000+00:00</time>
      </trkpt>
      <trkpt lat="47.33253" lon="-1.38913">
        <ele>70</ele>
        <time>2020-12-06T10:22:54.875000+00:00</time>
      </trkpt>
      <trkpt lat="0" lon="0">
        <time>2020-12-06T10:22:54.884000+00:00</time>
      </trkpt>
      <trkpt lat="0" lon="0">
        <time>2020-12-06T10:22:54.885000+00:00</time>
      </trkpt>
      <trkpt lat="0" lon="0">
        <time>2020-12-06T10:22:54.886000+00:00</time>
      </trkpt>
      <trkpt lat="47.33245" lon="-1.38909">
        <ele>70</ele>
        <time>2020-12-06T10:22:55.917000+00:00</time>
      </trkpt>
      <trkpt lat="0" lon="0">
        <time>2020-12-06T10:22:55.929000+00:00</time>
      </trkpt>
      <trkpt lat="0" lon="0">
        <time>2020-12-06T10:22:55.937000+00:00</time>
      </trkpt>
      <trkpt lat="0" lon="0">
        <time>2020-12-06T10:22:55.940000+00:00</time>
      </trkpt>
      <trkpt lat="47.33237" lon="-1.38906">
        <ele>70</ele>
        <time>2020-12-06T10:22:56.923000+00:00</time>
      </trkpt>
      <trkpt lat="0" lon="0">
        <time>2020-12-06T10:22:56.941000+00:00</time>
      </trkpt>
      <trkpt lat="0" lon="0">
        <time>2020-12-06T10:22:56.948000+00:00</time>
      </trkpt>
      <trkpt lat="0" lon="0">
        <time>2020-12-06T10:22:56.950000+00:00</time>
      </trkpt>
      <trkpt lat="47.33228" lon="-1.38902">
        <ele>70</ele>
        <time>2020-12-06T10:22:57.898000+00:00</time>
      </trkpt>
      <trkpt lat="0" lon="0">
        <time>2020-12-06T10:22:57.904000+00:00</time>
      </trkpt>
      <trkpt lat="0" lon="0">
        <time>2020-12-06T10:22:57.909000+00:00</time>
      </trkpt>
      <trkpt lat="0" lon="0">
        <time>2020-12-06T10:22:57.912000+00:00</time>
      </trkpt>
      <trkpt lat="47.3322" lon="-1.38898">
        <ele>71</ele>
        <time>2020-12-06T10:22:58.841000+00:00</time>
      </trkpt>
      <trkpt lat="0" lon="0">
        <time>2020-12-06T10:22:58.843000+00:00</time>
      </trkpt>
      <trkpt lat="0" lon="0">
        <time>2020-12-06T10:22:58.856000+00:00</time>
      </trkpt>
      <trkpt lat="0" lon="0">
        <time>2020-12-06T10:22:58.858000+00:00</time>
      </trkpt>
      <trkpt lat="47.33211" lon="-1.38895">
        <ele>71</ele>
        <time>2020-12-06T10:22:59.904000+00:00</time>
      </trkpt>
      <trkpt lat="0" lon="0">
        <time>2020-12-06T10:22:59.909000+00:00</time>
      </trkpt>
      <trkpt lat="0" lon="0">
        <time>2020-12-06T10:22:59.922000+00:00</time>
      </trkpt>
      <trkpt lat="0" lon="0">
        <time>2020-12-06T10:22:59.926000+00:00</time>
      </trkpt>
      <trkpt lat="47.33203" lon="-1.38892">
        <ele>71</ele>
        <time>2020-12-06T10:23:00.840000+00:00</time>
      </trkpt>
      <trkpt lat="0" lon="0">
        <time>2020-12-06T10:23:00.844000+00:00</time>
      </trkpt>
      <trkpt lat="0" lon="0">
        <time>2020-12-06T10:23:00.847000+00:00</time>
      </trkpt>
      <trkpt lat="0" lon="0">
        <time>2020-12-06T10:23:00.849000+00:00</time>
      </trkpt>
      <trkpt lat="47.33195" lon="-1.38889">
        <ele>71</ele>
        <time>2020-12-06T10:23:01.940000+00:00</time>
      </trkpt>
      <trkpt lat="0" lon="0">
        <time>2020-12-06T10:23:01.945000+00:00</time>
      </trkpt>
      <trkpt lat="0" lon="0">
        <time>2020-12-06T10:23:01.951000+00:00</time>
      </trkpt>
      <trkpt lat="0" lon="0">
        <time>2020-12-06T10:23:01.954000+00:00</time>
      </trkpt>
      <trkpt lat="47.33187" lon="-1.38886">
        <ele>71</ele>
        <time>2020-12-06T10:23:02.913000+00:00</time>
      </trkpt>
      <trkpt lat="0" lon="0">
        <time>2020-12-06T10:23:02.915000+00:00</time>
      </trkpt>
      <trkpt lat="0" lon="0">
        <time>2020-12-06T10:23:02.926000+00:00</time>
      </trkpt>
      <trkpt lat="0" lon="0">
        <time>2020-12-06T10:23:02.932000+00:00</time>
      </trkpt>
      <trkpt lat="47.3318" lon="-1.38884">
        <ele>71</ele>
        <time>2020-12-06T10:23:03.941000+00:00</time>
      </trkpt>
      <trkpt lat="0" lon="0">
        <time>2020-12-06T10:23:03.956000+00:00</time>
      </trkpt>
      <trkpt lat="0" lon="0">
        <time>2020-12-06T10:23:03.961000+00:00</time>
      </trkpt>
      <trkpt lat="0" lon="0">
        <time>2020-12-06T10:23:03.963000+00:00</time>
      </trkpt>
      <trkpt lat="47.33166" lon="-1.3888">
        <ele>72</ele>
        <time>2020-12-06T10:23:05.918000+00:00</time>
      </trkpt>
      <trkpt lat="0" lon="0">
        <time>2020-12-06T10:23:05.923000+00:00</time>
      </trkpt>
      <trkpt lat="0" lon="0">
        <time>2020-12-06T10:23:05.931000+00:00</time>
      </trkpt>
      <trkpt lat="0" lon="0">
        <time>2020-12-06T10:23:05.935000+00:00</time>
      </trkpt>
      <trkpt lat="47.33159" lon="-1.38878">
        <ele>72</ele>
        <time>2020-12-06T10:23:06.900000+00:00</time>
      </trkpt>
      <trkpt lat="0" lon="0">
        <time>2020-12-06T10:23:06.903000+00:00</time>
      </trkpt>
      <trkpt lat="0" lon="0">
        <time>2020-12-06T10:23:06.911000+00:00</time>
      </trkpt>
      <trkpt lat="0" lon="0">
        <time>2020-12-06T10:23:06.913000+00:00</time>
      </trkpt>
      <trkpt lat="47.33153" lon="-1.38876">
        <ele>72</ele>
        <time>2020-12-06T10:23:07.904000+00:00</time>
      </trkpt>
      <trkpt lat="0" lon="0">
        <time>2020-12-06T10:23:07.910000+00:00</time>
      </trkpt>
      <trkpt lat="0" lon="0">
        <time>2020-12-06T10:23:07.917000+00:00</time>
      </trkpt>
      <trkpt lat="0" lon="0">
        <time>2020-12-06T10:23:07.920000+00:00</time>
      </trkpt>
      <trkpt lat="47.33148" lon="-1.38873">
        <ele>72</ele>
        <time>2020-12-06T10:23:08.941000+00:00</time>
      </trkpt>
      <trkpt lat="0" lon="0">
        <time>2020-12-06T10:23:08.947000+00:00</time>
      </trkpt>
      <trkpt lat="0" lon="0">
        <time>2020-12-06T10:23:08.958000+00:00</time>
      </trkpt>
      <trkpt lat="0" lon="0">
        <time>2020-12-06T10:23:08.966000+00:00</time>
      </trkpt>
      <trkpt lat="47.33142" lon="-1.3887">
        <ele>72</ele>
        <time>2020-12-06T10:23:09.894000+00:00</time>
      </trkpt>
      <trkpt lat="0" lon="0">
        <time>2020-12-06T10:23:09.899000+00:00</time>
      </trkpt>
      <trkpt lat="0" lon="0">
        <time>2020-12-06T10:23:09.902000+00:00</time>
      </trkpt>
      <trkpt lat="0" lon="0">
        <time>2020-12-06T10:23:09.905000+00:00</time>
      </trkpt>
      <trkpt lat="47.33137" lon="-1.38867">
        <ele>72</ele>
        <time>2020-12-06T10:23:10.926000+00:00</time>
      </trkpt>
      <trkpt lat="0" lon="0">
        <time>2020-12-06T10:23:10.932000+00:00</time>
      </trkpt>
      <trkpt lat="0" lon="0">
        <time>2020-12-06T10:23:10.937000+00:00</time>
      </trkpt>
      <trkpt lat="0" lon="0">
        <time>2020-12-06T10:23:10.939000+00:00</time>
      </trkpt>
      <trkpt lat="47.33131" lon="-1.38864">
        <ele>73</ele>
        <time>2020-12-06T10:23:11.940000+00:00</time>
      </trkpt>
      <trkpt lat="0" lon="0">
        <time>2020-12-06T10:23:11.948000+00:00</time>
      </trkpt>
      <trkpt lat="0" lon="0">
        <time>2020-12-06T10:23:11.965000+00:00</time>
      </trkpt>
      <trkpt lat="0" lon="0">
        <time>2020-12-06T10:23:11.966000+00:00</time>
      </trkpt>
      <trkpt lat="47.33126" lon="-1.38862">
        <ele>73</ele>
        <time>2020-12-06T10:23:12.959000+00:00</time>
      </trkpt>
      <trkpt lat="0" lon="0">
        <time>2020-12-06T10:23:12.976000+00:00</time>
      </trkpt>
      <trkpt lat="0" lon="0">
        <time>2020-12-06T10:23:12.983000+00:00</time>
      </trkpt>
      <trkpt lat="0" lon="0">
        <time>2020-12-06T10:23:12.987000+00:00</time>
      </trkpt>
      <trkpt lat="47.33121" lon="-1.38859">
        <ele>73</ele>
        <time>2020-12-06T10:23:13.972000+00:00</time>
      </trkpt>
      <trkpt lat="0" lon="0">
        <time>2020-12-06T10:23:13.989000+00:00</time>
      </trkpt>
      <trkpt lat="0" lon="0">
        <time>2020-12-06T10:23:13.995000+00:00</time>
      </trkpt>
      <trkpt lat="0" lon="0">
        <time>2020-12-06T10:23:13.997000+00:00</time>
      </trkpt>
      <trkpt lat="47.33115" lon="-1.38857">
        <ele>73</ele>
        <time>2020-12-06T10:23:14.943000+00:00</time>
      </trkpt>
      <trkpt lat="0" lon="0">
        <time>2020-12-06T10:23:14.956000+00:00</time>
      </trkpt>
      <trkpt lat="0" lon="0">
        <time>2020-12-06T10:23:14.961000+00:00</time>
      </trkpt>
      <trkpt lat="0" lon="0">
        <time>2020-12-06T10:23:14.969000+00:00</time>
      </trkpt>
      <trkpt lat="47.3311" lon="-1.38855">
        <ele>73</ele>
        <time>2020-12-06T10:23:15.948000+00:00</time>
      </trkpt>
      <trkpt lat="0" lon="0">
        <time>2020-12-06T10:23:15.952000+00:00</time>
      </trkpt>
      <trkpt lat="0" lon="0">
        <time>2020-12-06T10:23:15.960000+00:00</time>
      </trkpt>
      <trkpt lat="0" lon="0">
        <time>2020-12-06T10:23:15.962000+00:00</time>
      </trkpt>
      <trkpt lat="47.33105" lon="-1.38853">
        <ele>74</ele>
        <time>2020-12-06T10:23:16.940000+00:00</time>
      </trkpt>
      <trkpt lat="0" lon="0">
        <time>2020-12-06T10:23:16.943000+00:00</time>
      </trkpt>
      <trkpt lat="0" lon="0">
        <time>2020-12-06T10:23:16.950000+00:00</time>
      </trkpt>
      <trkpt lat="0" lon="0">
        <time>2020-12-06T10:23:16.951000+00:00</time>
      </trkpt>
      <trkpt lat="47.33101" lon="-1.38851">
        <ele>74</ele>
        <time>2020-12-06T10:23:17.967000+00:00</time>
      </trkpt>
      <trkpt lat="0" lon="0">
        <time>2020-12-06T10:23:17.971000+00:00</time>
      </trkpt>
      <trkpt lat="0" lon="0">
        <time>2020-12-06T10:23:17.981000+00:00</time>
      </trkpt>
      <trkpt lat="0" lon="0">
        <time>2020-12-06T10:23:17.987000+00:00</time>
      </trkpt>
      <trkpt lat="47.33096" lon="-1.38849">
        <ele>74</ele>
        <time>2020-12-06T10:23:18.856000+00:00</time>
      </trkpt>
      <trkpt lat="0" lon="0">
        <time>2020-12-06T10:23:18.859000+00:00</time>
      </trkpt>
      <trkpt lat="0" lon="0">
        <time>2020-12-06T10:23:18.866000+00:00</time>
      </trkpt>
      <trkpt lat="0" lon="0">
        <time>2020-12-06T10:23:18.871000+00:00</time>
      </trkpt>
      <trkpt lat="47.33091" lon="-1.38848">
        <ele>74</ele>
        <time>2020-12-06T10:23:19.936000+00:00</time>
      </trkpt>
      <trkpt lat="0" lon="0">
        <time>2020-12-06T10:23:19.951000+00:00</time>
      </trkpt>
      <trkpt lat="0" lon="0">
        <time>2020-12-06T10:23:19.955000+00:00</time>
      </trkpt>
      <trkpt lat="0" lon="0">
        <time>2020-12-06T10:23:19.957000+00:00</time>
      </trkpt>
      <trkpt lat="47.33087" lon="-1.38846">
        <ele>74</ele>
        <time>2020-12-06T10:23:20.941000+00:00</time>
      </trkpt>
      <trkpt lat="0" lon="0">
        <time>2020-12-06T10:23:20.955000+00:00</time>
      </trkpt>
      <trkpt lat="0" lon="0">
        <time>2020-12-06T10:23:20.961000+00:00</time>
      </trkpt>
      <trkpt lat="0" lon="0">
        <time>2020-12-06T10:23:20.963000+00:00</time>
      </trkpt>
      <trkpt lat="47.33082" lon="-1.38845">
        <ele>74</ele>
        <time>2020-12-06T10:23:21.925000+00:00</time>
      </trkpt>
      <trkpt lat="0" lon="0">
        <time>2020-12-06T10:23:21.927000+00:00</time>
      </trkpt>
      <trkpt lat="0" lon="0">
        <time>2020-12-06T10:23:21.932000+00:00</time>
      </trkpt>
      <trkpt lat="0" lon="0">
        <time>2020-12-06T10:23:21.933000+00:00</time>
      </trkpt>
      <trkpt lat="47.33078" lon="-1.38843">
        <ele>74</ele>
        <time>2020-12-06T10:23:22.945000+00:00</time>
      </trkpt>
      <trkpt lat="0" lon="0">
        <time>2020-12-06T10:23:22.957000+00:00</time>
      </trkpt>
      <trkpt lat="0" lon="0">
        <time>2020-12-06T10:23:22.961000+00:00</time>
      </trkpt>
      <trkpt lat="0" lon="0">
        <time>2020-12-06T10:23:22.964000+00:00</time>
      </trkpt>
      <trkpt lat="47.33074" lon="-1.38841">
        <ele>75</ele>
        <time>2020-12-06T10:23:23.944000+00:00</time>
      </trkpt>
      <trkpt lat="0" lon="0">
        <time>2020-12-06T10:23:23.956000+00:00</time>
      </trkpt>
      <trkpt lat="0" lon="0">
        <time>2020-12-06T10:23:23.958000+00:00</time>
      </trkpt>
      <trkpt lat="0" lon="0">
        <time>2020-12-06T10:23:23.959000+00:00</time>
      </trkpt>
      <trkpt lat="47.3307" lon="-1.38839">
        <ele>75</ele>
        <time>2020-12-06T10:23:24.938000+00:00</time>
      </trkpt>
      <trkpt lat="0" lon="0">
        <time>2020-12-06T10:23:24.956000+00:00</time>
      </trkpt>
      <trkpt lat="0" lon="0">
        <time>2020-12-06T10:23:24.960000+00:00</time>
      </trkpt>
      <trkpt lat="0" lon="0">
        <time>2020-12-06T10:23:24.966000+00:00</time>
      </trkpt>
      <trkpt lat="47.33066" lon="-1.38837">
        <ele>75</ele>
        <time>2020-12-06T10:23:25.935000+00:00</time>
      </trkpt>
      <trkpt lat="0" lon="0">
        <time>2020-12-06T10:23:25.943000+00:00</time>
      </trkpt>
      <trkpt lat="0" lon="0">
        <time>2020-12-06T10:23:25.947000+00:00</time>
      </trkpt>
      <trkpt lat="0" lon="0">
        <time>2020-12-06T10:23:25.950000+00:00</time>
      </trkpt>
      <trkpt lat="47.33062" lon="-1.38834">
        <ele>75</ele>
        <time>2020-12-06T10:23:26.939000+00:00</time>
      </trkpt>
      <trkpt lat="0" lon="0">
        <time>2020-12-06T10:23:26.952000+00:00</time>
      </trkpt>
      <trkpt lat="0" lon="0">
        <time>2020-12-06T10:23:26.955000+00:00</time>
      </trkpt>
      <trkpt lat="0" lon="0">
        <time>2020-12-06T10:23:26.959000+00:00</time>
      </trkpt>
      <trkpt lat="47.33058" lon="-1.38833">
        <ele>75</ele>
        <time>2020-12-06T10:23:27.888000+00:00</time>
      </trkpt>
      <trkpt lat="0" lon="0">
        <time>2020-12-06T10:23:27.893000+00:00</time>
      </trkpt>
      <trkpt lat="0" lon="0">
        <time>2020-12-06T10:23:27.895000+00:00</time>
      </trkpt>
      <trkpt lat="0" lon="0">
        <time>2020-12-06T10:23:27.897000+00:00</time>
      </trkpt>
      <trkpt lat="47.33054" lon="-1.38831">
        <ele>75</ele>
        <time>2020-12-06T10:23:28.917000+00:00</time>
      </trkpt>
      <trkpt lat="0" lon="0">
        <time>2020-12-06T10:23:28.934000+00:00</time>
      </trkpt>
      <trkpt lat="0" lon="0">
        <time>2020-12-06T10:23:28.938000+00:00</time>
      </trkpt>
      <trkpt lat="0" lon="0">
        <time>2020-12-06T10:23:28.940000+00:00</time>
      </trkpt>
      <trkpt lat="47.33049" lon="-1.38829">
        <ele>75</ele>
        <time>2020-12-06T10:23:29.914000+00:00</time>
      </trkpt>
      <trkpt lat="0" lon="0">
        <time>2020-12-06T10:23:29.917000+00:00</time>
      </trkpt>
      <trkpt lat="0" lon="0">
        <time>2020-12-06T10:23:29.925000+00:00</time>
      </trkpt>
      <trkpt lat="0" lon="0">
        <time>2020-12-06T10:23:29.926000+00:00</time>
      </trkpt>
      <trkpt lat="47.33045" lon="-1.38827">
        <ele>75</ele>
        <time>2020-12-06T10:23:30.933000+00:00</time>
      </trkpt>
      <trkpt lat="0" lon="0">
        <time>2020-12-06T10:23:30.941000+00:00</time>
      </trkpt>
      <trkpt lat="0" lon="0">
        <time>2020-12-06T10:23:30.945000+00:00</time>
      </trkpt>
      <trkpt lat="0" lon="0">
        <time>2020-12-06T10:23:30.947000+00:00</time>
      </trkpt>
      <trkpt lat="47.33041" lon="-1.38825">
        <ele>75</ele>
        <time>2020-12-06T10:23:31.934000+00:00</time>
      </trkpt>
      <trkpt lat="0" lon="0">
        <time>2020-12-06T10:23:31.950000+00:00</time>
      </trkpt>
      <trkpt lat="0" lon="0">
        <time>2020-12-06T10:23:31.954000+00:00</time>
      </trkpt>
      <trkpt lat="0" lon="0">
        <time>2020-12-06T10:23:31.955000+00:00</time>
      </trkpt>
      <trkpt lat="47.33037" lon="-1.38823">
        <ele>75</ele>
        <time>2020-12-06T10:23:32.963000+00:00</time>
      </trkpt>
      <trkpt lat="0" lon="0">
        <time>2020-12-06T10:23:32.983000+00:00</time>
      </trkpt>
      <trkpt lat="0" lon="0">
        <time>2020-12-06T10:23:32.987000+00:00</time>
      </trkpt>
      <trkpt lat="0" lon="0">
        <time>2020-12-06T10:23:32.989000+00:00</time>
      </trkpt>
      <trkpt lat="47.33033" lon="-1.38821">
        <ele>75</ele>
        <time>2020-12-06T10:23:33.952000+00:00</time>
      </trkpt>
      <trkpt lat="0" lon="0">
        <time>2020-12-06T10:23:33.962000+00:00</time>
      </trkpt>
      <trkpt lat="0" lon="0">
        <time>2020-12-06T10:23:33.963000+00:00</time>
      </trkpt>
      <trkpt lat="0" lon="0">
        <time>2020-12-06T10:23:33.964000+00:00</time>
      </trkpt>
      <trkpt lat="47.33029" lon="-1.38819">
        <ele>75</ele>
        <time>2020-12-06T10:23:34.921000+00:00</time>
      </trkpt>
      <trkpt lat="0" lon="0">
        <time>2020-12-06T10:23:34.930000+00:00</time>
      </trkpt>
      <trkpt lat="0" lon="0">
        <time>2020-12-06T10:23:34.934000+00:00</time>
      </trkpt>
      <trkpt lat="0" lon="0">
        <time>2020-12-06T10:23:34.938000+00:00</time>
      </trkpt>
      <trkpt lat="47.33025" lon="-1.38818">
        <ele>75</ele>
        <time>2020-12-06T10:23:35.934000+00:00</time>
      </trkpt>
      <trkpt lat="0" lon="0">
        <time>2020-12-06T10:23:35.947000+00:00</time>
      </trkpt>
      <trkpt lat="0" lon="0">
        <time>2020-12-06T10:23:35.951000+00:00</time>
      </trkpt>
      <trkpt lat="0" lon="0">
        <time>2020-12-06T10:23:35.953000+00:00</time>
      </trkpt>
      <trkpt lat="47.33021" lon="-1.38816">
        <ele>75</ele>
        <time>2020-12-06T10:23:36.909000+00:00</time>
      </trkpt>
      <trkpt lat="0" lon="0">
        <time>2020-12-06T10:23:36.924000+00:00</time>
      </trkpt>
      <trkpt lat="0" lon="0">
        <time>2020-12-06T10:23:36.935000+00:00</time>
      </trkpt>
      <trkpt lat="0" lon="0">
        <time>2020-12-06T10:23:36.938000+00:00</time>
      </trkpt>
      <trkpt lat="47.33017" lon="-1.38815">
        <ele>75</ele>
        <time>2020-12-06T10:23:37.959000+00:00</time>
      </trkpt>
      <trkpt lat="0" lon="0">
        <time>2020-12-06T10:23:37.966000+00:00</time>
      </trkpt>
      <trkpt lat="0" lon="0">
        <time>2020-12-06T10:23:37.974000+00:00</time>
      </trkpt>
      <trkpt lat="0" lon="0">
        <time>2020-12-06T10:23:37.978000+00:00</time>
      </trkpt>
      <trkpt lat="47.33013" lon="-1.38813">
        <ele>75</ele>
        <time>2020-12-06T10:23:38.979000+00:00</time>
      </trkpt>
      <trkpt lat="0" lon="0">
        <time>2020-12-06T10:23:38.989000+00:00</time>
      </trkpt>
      <trkpt lat="0" lon="0">
        <time>2020-12-06T10:23:38.999000+00:00</time>
      </trkpt>
      <trkpt lat="0" lon="0">
        <time>2020-12-06T10:23:39.009000+00:00</time>
      </trkpt>
      <trkpt lat="47.33009" lon="-1.38811">
        <ele>75</ele>
        <time>2020-12-06T10:23:39.963000+00:00</time>
      </trkpt>
      <trkpt lat="0" lon="0">
        <time>2020-12-06T10:23:39.971000+00:00</time>
      </trkpt>
      <trkpt lat="0" lon="0">
        <time>2020-12-06T10:23:39.972000+00:00</time>
      </trkpt>
      <trkpt lat="0" lon="0">
        <time>2020-12-06T10:23:39.973000+00:00</time>
      </trkpt>
      <trkpt lat="47.33004" lon="-1.3881">
        <ele>75</ele>
        <time>2020-12-06T10:23:40.960000+00:00</time>
      </trkpt>
      <trkpt lat="0" lon="0">
        <time>2020-12-06T10:23:40.964000+00:00</time>
      </trkpt>
      <trkpt lat="0" lon="0">
        <time>2020-12-06T10:23:40.972000+00:00</time>
      </trkpt>
      <trkpt lat="0" lon="0">
        <time>2020-12-06T10:23:40.974000+00:00</time>
      </trkpt>
      <trkpt lat="47.33" lon="-1.38808">
        <ele>76</ele>
        <time>2020-12-06T10:23:41.967000+00:00</time>
      </trkpt>
      <trkpt lat="0" lon="0">
        <time>2020-12-06T10:23:41.977000+00:00</time>
      </trkpt>
      <trkpt lat="0" lon="0">
        <time>2020-12-06T10:23:41.980000+00:00</time>
      </trkpt>
      <trkpt lat="0" lon="0">
        <time>2020-12-06T10:23:41.982000+00:00</time>
      </trkpt>
      <trkpt lat="47.32996" lon="-1.38807">
        <ele>75</ele>
        <time>2020-12-06T10:23:42.943000+00:00</time>
      </trkpt>
      <trkpt lat="0" lon="0">
        <time>2020-12-06T10:23:42.953000+00:00</time>
      </trkpt>
      <trkpt lat="0" lon="0">
        <time>2020-12-06T10:23:42.958000+00:00</time>
      </trkpt>
      <trkpt lat="0" lon="0">
        <time>2020-12-06T10:23:42.959000+00:00</time>
      </trkpt>
      <trkpt lat="47.32991" lon="-1.38805">
        <ele>75</ele>
        <time>2020-12-06T10:23:43.962000+00:00</time>
      </trkpt>
      <trkpt lat="0" lon="0">
        <time>2020-12-06T10:23:43.971000+00:00</time>
      </trkpt>
      <trkpt lat="0" lon="0">
        <time>2020-12-06T10:23:43.979000+00:00</time>
      </trkpt>
      <trkpt lat="0" lon="0">
        <time>2020-12-06T10:23:43.981000+00:00</time>
      </trkpt>
      <trkpt lat="47.32987" lon="-1.38804">
        <ele>75</ele>
        <time>2020-12-06T10:23:44.963000+00:00</time>
      </trkpt>
      <trkpt lat="0" lon="0">
        <time>2020-12-06T10:23:44.968000+00:00</time>
      </trkpt>
      <trkpt lat="0" lon="0">
        <time>2020-12-06T10:23:44.975000+00:00</time>
      </trkpt>
      <trkpt lat="0" lon="0">
        <time>2020-12-06T10:23:44.983000+00:00</time>
      </trkpt>
      <trkpt lat="47.32983" lon="-1.38802">
        <ele>75</ele>
        <time>2020-12-06T10:23:45.986000+00:00</time>
      </trkpt>
      <trkpt lat="0" lon="0">
        <time>2020-12-06T10:23:45.998000+00:00</time>
      </trkpt>
      <trkpt lat="0" lon="0">
        <time>2020-12-06T10:23:46.006000+00:00</time>
      </trkpt>
      <trkpt lat="0" lon="0">
        <time>2020-12-06T10:23:46.007000+00:00</time>
      </trkpt>
      <trkpt lat="47.32979" lon="-1.38801">
        <ele>75</ele>
        <time>2020-12-06T10:23:46.982000+00:00</time>
      </trkpt>
      <trkpt lat="0" lon="0">
        <time>2020-12-06T10:23:46.997000+00:00</time>
      </trkpt>
      <trkpt lat="0" lon="0">
        <time>2020-12-06T10:23:47.004000+00:00</time>
      </trkpt>
      <trkpt lat="0" lon="0">
        <time>2020-12-06T10:23:47.009000+00:00</time>
      </trkpt>
      <trkpt lat="47.32975" lon="-1.388">
        <ele>75</ele>
        <time>2020-12-06T10:23:47.965000+00:00</time>
      </trkpt>
      <trkpt lat="0" lon="0">
        <time>2020-12-06T10:23:47.973000+00:00</time>
      </trkpt>
      <trkpt lat="0" lon="0">
        <time>2020-12-06T10:23:47.982000+00:00</time>
      </trkpt>
      <trkpt lat="0" lon="0">
        <time>2020-12-06T10:23:47.984000+00:00</time>
      </trkpt>
      <trkpt lat="47.3297" lon="-1.38798">
        <ele>75</ele>
        <time>2020-12-06T10:23:48.983000+00:00</time>
      </trkpt>
      <trkpt lat="0" lon="0">
        <time>2020-12-06T10:23:48.986000+00:00</time>
      </trkpt>
      <trkpt lat="0" lon="0">
        <time>2020-12-06T10:23:48.990000+00:00</time>
      </trkpt>
      <trkpt lat="0" lon="0">
        <time>2020-12-06T10:23:48.992000+00:00</time>
      </trkpt>
      <trkpt lat="47.32966" lon="-1.38798">
        <ele>75</ele>
        <time>2020-12-06T10:23:49.941000+00:00</time>
      </trkpt>
      <trkpt lat="0" lon="0">
        <time>2020-12-06T10:23:49.957000+00:00</time>
      </trkpt>
      <trkpt lat="0" lon="0">
        <time>2020-12-06T10:23:49.967000+00:00</time>
      </trkpt>
      <trkpt lat="0" lon="0">
        <time>2020-12-06T10:23:49.973000+00:00</time>
      </trkpt>
      <trkpt lat="47.32961" lon="-1.38798">
        <ele>75</ele>
        <time>2020-12-06T10:23:50.930000+00:00</time>
      </trkpt>
      <trkpt lat="0" lon="0">
        <time>2020-12-06T10:23:50.932000+00:00</time>
      </trkpt>
      <trkpt lat="0" lon="0">
        <time>2020-12-06T10:23:50.934000+00:00</time>
      </trkpt>
      <trkpt lat="0" lon="0">
        <time>2020-12-06T10:23:50.935000+00:00</time>
      </trkpt>
      <trkpt lat="47.32956" lon="-1.38799">
        <ele>75</ele>
        <time>2020-12-06T10:23:51.944000+00:00</time>
      </trkpt>
      <trkpt lat="0" lon="0">
        <time>2020-12-06T10:23:51.949000+00:00</time>
      </trkpt>
      <trkpt lat="0" lon="0">
        <time>2020-12-06T10:23:51.956000+00:00</time>
      </trkpt>
      <trkpt lat="0" lon="0">
        <time>2020-12-06T10:23:51.958000+00:00</time>
      </trkpt>
      <trkpt lat="47.32952" lon="-1.388">
        <ele>75</ele>
        <time>2020-12-06T10:23:52.957000+00:00</time>
      </trkpt>
      <trkpt lat="0" lon="0">
        <time>2020-12-06T10:23:52.960000+00:00</time>
      </trkpt>
      <trkpt lat="0" lon="0">
        <time>2020-12-06T10:23:52.984000+00:00</time>
      </trkpt>
      <trkpt lat="0" lon="0">
        <time>2020-12-06T10:23:52.991000+00:00</time>
      </trkpt>
      <trkpt lat="47.32947" lon="-1.38801">
        <ele>74</ele>
        <time>2020-12-06T10:23:53.964000+00:00</time>
      </trkpt>
      <trkpt lat="0" lon="0">
        <time>2020-12-06T10:23:53.983000+00:00</time>
      </trkpt>
      <trkpt lat="0" lon="0">
        <time>2020-12-06T10:23:53.987000+00:00</time>
      </trkpt>
      <trkpt lat="0" lon="0">
        <time>2020-12-06T10:23:53.989000+00:00</time>
      </trkpt>
      <trkpt lat="47.32943" lon="-1.38803">
        <ele>74</ele>
        <time>2020-12-06T10:23:54.930000+00:00</time>
      </trkpt>
      <trkpt lat="0" lon="0">
        <time>2020-12-06T10:23:54.944000+00:00</time>
      </trkpt>
      <trkpt lat="0" lon="0">
        <time>2020-12-06T10:23:54.949000+00:00</time>
      </trkpt>
      <trkpt lat="0" lon="0">
        <time>2020-12-06T10:23:54.950000+00:00</time>
      </trkpt>
      <trkpt lat="47.32938" lon="-1.38804">
        <ele>74</ele>
        <time>2020-12-06T10:23:55.939000+00:00</time>
      </trkpt>
      <trkpt lat="0" lon="0">
        <time>2020-12-06T10:23:55.943000+00:00</time>
      </trkpt>
      <trkpt lat="0" lon="0">
        <time>2020-12-06T10:23:55.954000+00:00</time>
      </trkpt>
      <trkpt lat="0" lon="0">
        <time>2020-12-06T10:23:55.956000+00:00</time>
      </trkpt>
      <trkpt lat="47.32933" lon="-1.38805">
        <ele>74</ele>
        <time>2020-12-06T10:23:56.941000+00:00</time>
      </trkpt>
      <trkpt lat="0" lon="0">
        <time>2020-12-06T10:23:56.951000+00:00</time>
      </trkpt>
      <trkpt lat="0" lon="0">
        <time>2020-12-06T10:23:56.953000+00:00</time>
      </trkpt>
      <trkpt lat="0" lon="0">
        <time>2020-12-06T10:23:56.954000+00:00</time>
      </trkpt>
      <trkpt lat="47.32929" lon="-1.38806">
        <ele>74</ele>
        <time>2020-12-06T10:23:57.968000+00:00</time>
      </trkpt>
      <trkpt lat="0" lon="0">
        <time>2020-12-06T10:23:57.972000+00:00</time>
      </trkpt>
      <trkpt lat="0" lon="0">
        <time>2020-12-06T10:23:57.985000+00:00</time>
      </trkpt>
      <trkpt lat="0" lon="0">
        <time>2020-12-06T10:23:57.987000+00:00</time>
      </trkpt>
      <trkpt lat="47.32924" lon="-1.38808">
        <ele>74</ele>
        <time>2020-12-06T10:23:58.938000+00:00</time>
      </trkpt>
      <trkpt lat="0" lon="0">
        <time>2020-12-06T10:23:58.942000+00:00</time>
      </trkpt>
      <trkpt lat="0" lon="0">
        <time>2020-12-06T10:23:58.951000+00:00</time>
      </trkpt>
      <trkpt lat="0" lon="0">
        <time>2020-12-06T10:23:58.953000+00:00</time>
      </trkpt>
      <trkpt lat="47.32919" lon="-1.38809">
        <ele>74</ele>
        <time>2020-12-06T10:23:59.864000+00:00</time>
      </trkpt>
      <trkpt lat="0" lon="0">
        <time>2020-12-06T10:23:59.871000+00:00</time>
      </trkpt>
      <trkpt lat="0" lon="0">
        <time>2020-12-06T10:23:59.873000+00:00</time>
      </trkpt>
      <trkpt lat="0" lon="0">
        <time>2020-12-06T10:23:59.874000+00:00</time>
      </trkpt>
      <trkpt lat="47.32915" lon="-1.3881">
        <ele>74</ele>
        <time>2020-12-06T10:24:00.872000+00:00</time>
      </trkpt>
      <trkpt lat="0" lon="0">
        <time>2020-12-06T10:24:00.878000+00:00</time>
      </trkpt>
      <trkpt lat="0" lon="0">
        <time>2020-12-06T10:24:00.881000+00:00</time>
      </trkpt>
      <trkpt lat="0" lon="0">
        <time>2020-12-06T10:24:00.884000+00:00</time>
      </trkpt>
      <trkpt lat="47.32911" lon="-1.38812">
        <ele>74</ele>
        <time>2020-12-06T10:24:01.946000+00:00</time>
      </trkpt>
      <trkpt lat="0" lon="0">
        <time>2020-12-06T10:24:01.958000+00:00</time>
      </trkpt>
      <trkpt lat="0" lon="0">
        <time>2020-12-06T10:24:01.964000+00:00</time>
      </trkpt>
      <trkpt lat="0" lon="0">
        <time>2020-12-06T10:24:01.966000+00:00</time>
      </trkpt>
      <trkpt lat="47.32906" lon="-1.38813">
        <ele>74</ele>
        <time>2020-12-06T10:24:02.951000+00:00</time>
      </trkpt>
      <trkpt lat="0" lon="0">
        <time>2020-12-06T10:24:02.967000+00:00</time>
      </trkpt>
      <trkpt lat="0" lon="0">
        <time>2020-12-06T10:24:02.974000+00:00</time>
      </trkpt>
      <trkpt lat="0" lon="0">
        <time>2020-12-06T10:24:02.979000+00:00</time>
      </trkpt>
      <trkpt lat="47.32902" lon="-1.38815">
        <ele>74</ele>
        <time>2020-12-06T10:24:03.975000+00:00</time>
      </trkpt>
      <trkpt lat="0" lon="0">
        <time>2020-12-06T10:24:03.982000+00:00</time>
      </trkpt>
      <trkpt lat="0" lon="0">
        <time>2020-12-06T10:24:03.996000+00:00</time>
      </trkpt>
      <trkpt lat="0" lon="0">
        <time>2020-12-06T10:24:03.999000+00:00</time>
      </trkpt>
      <trkpt lat="47.32898" lon="-1.38816">
        <ele>74</ele>
        <time>2020-12-06T10:24:04.929000+00:00</time>
      </trkpt>
      <trkpt lat="0" lon="0">
        <time>2020-12-06T10:24:04.939000+00:00</time>
      </trkpt>
      <trkpt lat="0" lon="0">
        <time>2020-12-06T10:24:04.947000+00:00</time>
      </trkpt>
      <trkpt lat="0" lon="0">
        <time>2020-12-06T10:24:04.950000+00:00</time>
      </trkpt>
      <trkpt lat="47.32894" lon="-1.38817">
        <ele>74</ele>
        <time>2020-12-06T10:24:05.941000+00:00</time>
      </trkpt>
      <trkpt lat="0" lon="0">
        <time>2020-12-06T10:24:05.946000+00:00</time>
      </trkpt>
      <trkpt lat="0" lon="0">
        <time>2020-12-06T10:24:05.952000+00:00</time>
      </trkpt>
      <trkpt lat="0" lon="0">
        <time>2020-12-06T10:24:05.954000+00:00</time>
      </trkpt>
      <trkpt lat="47.32891" lon="-1.38818">
        <ele>74</ele>
        <time>2020-12-06T10:24:06.936000+00:00</time>
      </trkpt>
      <trkpt lat="0" lon="0">
        <time>2020-12-06T10:24:06.946000+00:00</time>
      </trkpt>
      <trkpt lat="0" lon="0">
        <time>2020-12-06T10:24:06.949000+00:00</time>
      </trkpt>
      <trkpt lat="0" lon="0">
        <time>2020-12-06T10:24:06.952000+00:00</time>
      </trkpt>
      <trkpt lat="47.32887" lon="-1.3882">
        <ele>74</ele>
        <time>2020-12-06T10:24:07.932000+00:00</time>
      </trkpt>
      <trkpt lat="0" lon="0">
        <time>2020-12-06T10:24:07.935000+00:00</time>
      </trkpt>
      <trkpt lat="0" lon="0">
        <time>2020-12-06T10:24:07.943000+00:00</time>
      </trkpt>
      <trkpt lat="0" lon="0">
        <time>2020-12-06T10:24:07.944000+00:00</time>
      </trkpt>
      <trkpt lat="47.32884" lon="-1.38821">
        <ele>74</ele>
        <time>2020-12-06T10:24:08.926000+00:00</time>
      </trkpt>
      <trkpt lat="0" lon="0">
        <time>2020-12-06T10:24:08.933000+00:00</time>
      </trkpt>
      <trkpt lat="0" lon="0">
        <time>2020-12-06T10:24:08.942000+00:00</time>
      </trkpt>
      <trkpt lat="0" lon="0">
        <time>2020-12-06T10:24:08.944000+00:00</time>
      </trkpt>
      <trkpt lat="47.32881" lon="-1.38823">
        <ele>74</ele>
        <time>2020-12-06T10:24:09.959000+00:00</time>
      </trkpt>
      <trkpt lat="0" lon="0">
        <time>2020-12-06T10:24:09.966000+00:00</time>
      </trkpt>
      <trkpt lat="0" lon="0">
        <time>2020-12-06T10:24:09.975000+00:00</time>
      </trkpt>
      <trkpt lat="0" lon="0">
        <time>2020-12-06T10:24:09.977000+00:00</time>
      </trkpt>
      <trkpt lat="47.32878" lon="-1.38824">
        <ele>74</ele>
        <time>2020-12-06T10:24:10.958000+00:00</time>
      </trkpt>
      <trkpt lat="0" lon="0">
        <time>2020-12-06T10:24:10.964000+00:00</time>
      </trkpt>
      <trkpt lat="0" lon="0">
        <time>2020-12-06T10:24:10.969000+00:00</time>
      </trkpt>
      <trkpt lat="0" lon="0">
        <time>2020-12-06T10:24:10.972000+00:00</time>
      </trkpt>
      <trkpt lat="47.32875" lon="-1.38826">
        <ele>74</ele>
        <time>2020-12-06T10:24:11.932000+00:00</time>
      </trkpt>
      <trkpt lat="0" lon="0">
        <time>2020-12-06T10:24:11.935000+00:00</time>
      </trkpt>
      <trkpt lat="0" lon="0">
        <time>2020-12-06T10:24:11.942000+00:00</time>
      </trkpt>
      <trkpt lat="0" lon="0">
        <time>2020-12-06T10:24:11.944000+00:00</time>
      </trkpt>
      <trkpt lat="47.32872" lon="-1.38829">
        <ele>74</ele>
        <time>2020-12-06T10:24:12.917000+00:00</time>
      </trkpt>
      <trkpt lat="0" lon="0">
        <time>2020-12-06T10:24:12.925000+00:00</time>
      </trkpt>
      <trkpt lat="0" lon="0">
        <time>2020-12-06T10:24:12.932000+00:00</time>
      </trkpt>
      <trkpt lat="0" lon="0">
        <time>2020-12-06T10:24:12.936000+00:00</time>
      </trkpt>
      <trkpt lat="47.3287" lon="-1.38832">
        <ele>74</ele>
        <time>2020-12-06T10:24:13.915000+00:00</time>
      </trkpt>
      <trkpt lat="0" lon="0">
        <time>2020-12-06T10:24:13.939000+00:00</time>
      </trkpt>
      <trkpt lat="0" lon="0">
        <time>2020-12-06T10:24:13.944000+00:00</time>
      </trkpt>
      <trkpt lat="0" lon="0">
        <time>2020-12-06T10:24:13.949000+00:00</time>
      </trkpt>
      <trkpt lat="47.32868" lon="-1.38837">
        <ele>73</ele>
        <time>2020-12-06T10:24:14.906000+00:00</time>
      </trkpt>
      <trkpt lat="0" lon="0">
        <time>2020-12-06T10:24:14.910000+00:00</time>
      </trkpt>
      <trkpt lat="0" lon="0">
        <time>2020-12-06T10:24:14.923000+00:00</time>
      </trkpt>
      <trkpt lat="0" lon="0">
        <time>2020-12-06T10:24:14.927000+00:00</time>
      </trkpt>
      <trkpt lat="47.32867" lon="-1.38842">
        <ele>73</ele>
        <time>2020-12-06T10:24:15.950000+00:00</time>
      </trkpt>
      <trkpt lat="0" lon="0">
        <time>2020-12-06T10:24:15.967000+00:00</time>
      </trkpt>
      <trkpt lat="0" lon="0">
        <time>2020-12-06T10:24:15.975000+00:00</time>
      </trkpt>
      <trkpt lat="0" lon="0">
        <time>2020-12-06T10:24:15.977000+00:00</time>
      </trkpt>
      <trkpt lat="47.32866" lon="-1.38848">
        <ele>73</ele>
        <time>2020-12-06T10:24:16.939000+00:00</time>
      </trkpt>
      <trkpt lat="0" lon="0">
        <time>2020-12-06T10:24:16.949000+00:00</time>
      </trkpt>
      <trkpt lat="0" lon="0">
        <time>2020-12-06T10:24:16.954000+00:00</time>
      </trkpt>
      <trkpt lat="0" lon="0">
        <time>2020-12-06T10:24:16.956000+00:00</time>
      </trkpt>
      <trkpt lat="47.32864" lon="-1.38855">
        <ele>73</ele>
        <time>2020-12-06T10:24:17.970000+00:00</time>
      </trkpt>
      <trkpt lat="0" lon="0">
        <time>2020-12-06T10:24:17.976000+00:00</time>
      </trkpt>
      <trkpt lat="0" lon="0">
        <time>2020-12-06T10:24:17.988000+00:00</time>
      </trkpt>
      <trkpt lat="0" lon="0">
        <time>2020-12-06T10:24:17.990000+00:00</time>
      </trkpt>
      <trkpt lat="47.32863" lon="-1.38861">
        <ele>73</ele>
        <time>2020-12-06T10:24:18.950000+00:00</time>
      </trkpt>
      <trkpt lat="0" lon="0">
        <time>2020-12-06T10:24:18.963000+00:00</time>
      </trkpt>
      <trkpt lat="0" lon="0">
        <time>2020-12-06T10:24:18.967000+00:00</time>
      </trkpt>
      <trkpt lat="0" lon="0">
        <time>2020-12-06T10:24:18.970000+00:00</time>
      </trkpt>
      <trkpt lat="47.32861" lon="-1.38868">
        <ele>73</ele>
        <time>2020-12-06T10:24:19.919000+00:00</time>
      </trkpt>
      <trkpt lat="0" lon="0">
        <time>2020-12-06T10:24:19.931000+00:00</time>
      </trkpt>
      <trkpt lat="0" lon="0">
        <time>2020-12-06T10:24:19.938000+00:00</time>
      </trkpt>
      <trkpt lat="0" lon="0">
        <time>2020-12-06T10:24:19.941000+00:00</time>
      </trkpt>
      <trkpt lat="47.3286" lon="-1.38875">
        <ele>73</ele>
        <time>2020-12-06T10:24:20.876000+00:00</time>
      </trkpt>
      <trkpt lat="0" lon="0">
        <time>2020-12-06T10:24:20.893000+00:00</time>
      </trkpt>
      <trkpt lat="0" lon="0">
        <time>2020-12-06T10:24:20.899000+00:00</time>
      </trkpt>
      <trkpt lat="0" lon="0">
        <time>2020-12-06T10:24:20.902000+00:00</time>
      </trkpt>
      <trkpt lat="47.32857" lon="-1.38881">
        <ele>73</ele>
        <time>2020-12-06T10:24:21.951000+00:00</time>
      </trkpt>
      <trkpt lat="0" lon="0">
        <time>2020-12-06T10:24:21.956000+00:00</time>
      </trkpt>
      <trkpt lat="0" lon="0">
        <time>2020-12-06T10:24:21.964000+00:00</time>
      </trkpt>
      <trkpt lat="0" lon="0">
        <time>2020-12-06T10:24:21.965000+00:00</time>
      </trkpt>
      <trkpt lat="47.32855" lon="-1.38887">
        <ele>73</ele>
        <time>2020-12-06T10:24:22.926000+00:00</time>
      </trkpt>
      <trkpt lat="0" lon="0">
        <time>2020-12-06T10:24:22.930000+00:00</time>
      </trkpt>
      <trkpt lat="0" lon="0">
        <time>2020-12-06T10:24:22.935000+00:00</time>
      </trkpt>
      <trkpt lat="0" lon="0">
        <time>2020-12-06T10:24:22.938000+00:00</time>
      </trkpt>
      <trkpt lat="47.32852" lon="-1.38892">
        <ele>73</ele>
        <time>2020-12-06T10:24:23.974000+00:00</time>
      </trkpt>
      <trkpt lat="0" lon="0">
        <time>2020-12-06T10:24:23.986000+00:00</time>
      </trkpt>
      <trkpt lat="0" lon="0">
        <time>2020-12-06T10:24:23.997000+00:00</time>
      </trkpt>
      <trkpt lat="0" lon="0">
        <time>2020-12-06T10:24:23.999000+00:00</time>
      </trkpt>
      <trkpt lat="47.32849" lon="-1.38898">
        <ele>73</ele>
        <time>2020-12-06T10:24:24.955000+00:00</time>
      </trkpt>
      <trkpt lat="0" lon="0">
        <time>2020-12-06T10:24:24.966000+00:00</time>
      </trkpt>
      <trkpt lat="0" lon="0">
        <time>2020-12-06T10:24:24.972000+00:00</time>
      </trkpt>
      <trkpt lat="0" lon="0">
        <time>2020-12-06T10:24:24.974000+00:00</time>
      </trkpt>
      <trkpt lat="47.32846" lon="-1.38903">
        <ele>73</ele>
        <time>2020-12-06T10:24:25.932000+00:00</time>
      </trkpt>
      <trkpt lat="0" lon="0">
        <time>2020-12-06T10:24:25.935000+00:00</time>
      </trkpt>
      <trkpt lat="0" lon="0">
        <time>2020-12-06T10:24:25.940000+00:00</time>
      </trkpt>
      <trkpt lat="0" lon="0">
        <time>2020-12-06T10:24:25.949000+00:00</time>
      </trkpt>
      <trkpt lat="47.32843" lon="-1.38908">
        <ele>73</ele>
        <time>2020-12-06T10:24:26.927000+00:00</time>
      </trkpt>
      <trkpt lat="0" lon="0">
        <time>2020-12-06T10:24:26.951000+00:00</time>
      </trkpt>
      <trkpt lat="0" lon="0">
        <time>2020-12-06T10:24:26.958000+00:00</time>
      </trkpt>
      <trkpt lat="0" lon="0">
        <time>2020-12-06T10:24:26.959000+00:00</time>
      </trkpt>
      <trkpt lat="47.32837" lon="-1.38917">
        <ele>73</ele>
        <time>2020-12-06T10:24:28.940000+00:00</time>
      </trkpt>
      <trkpt lat="0" lon="0">
        <time>2020-12-06T10:24:28.946000+00:00</time>
      </trkpt>
      <trkpt lat="0" lon="0">
        <time>2020-12-06T10:24:28.952000+00:00</time>
      </trkpt>
      <trkpt lat="0" lon="0">
        <time>2020-12-06T10:24:28.955000+00:00</time>
      </trkpt>
      <trkpt lat="47.32834" lon="-1.38922">
        <ele>73</ele>
        <time>2020-12-06T10:24:29.958000+00:00</time>
      </trkpt>
      <trkpt lat="0" lon="0">
        <time>2020-12-06T10:24:29.970000+00:00</time>
      </trkpt>
      <trkpt lat="0" lon="0">
        <time>2020-12-06T10:24:29.974000+00:00</time>
      </trkpt>
      <trkpt lat="0" lon="0">
        <time>2020-12-06T10:24:29.976000+00:00</time>
      </trkpt>
      <trkpt lat="47.32831" lon="-1.38926">
        <ele>73</ele>
        <time>2020-12-06T10:24:30.936000+00:00</time>
      </trkpt>
      <trkpt lat="0" lon="0">
        <time>2020-12-06T10:24:30.951000+00:00</time>
      </trkpt>
      <trkpt lat="0" lon="0">
        <time>2020-12-06T10:24:30.957000+00:00</time>
      </trkpt>
      <trkpt lat="0" lon="0">
        <time>2020-12-06T10:24:30.960000+00:00</time>
      </trkpt>
      <trkpt lat="47.32827" lon="-1.3893">
        <ele>72</ele>
        <time>2020-12-06T10:24:31.950000+00:00</time>
      </trkpt>
      <trkpt lat="0" lon="0">
        <time>2020-12-06T10:24:31.968000+00:00</time>
      </trkpt>
      <trkpt lat="0" lon="0">
        <time>2020-12-06T10:24:31.974000+00:00</time>
      </trkpt>
      <trkpt lat="0" lon="0">
        <time>2020-12-06T10:24:31.976000+00:00</time>
      </trkpt>
      <trkpt lat="47.32824" lon="-1.38935">
        <ele>72</ele>
        <time>2020-12-06T10:24:32.935000+00:00</time>
      </trkpt>
      <trkpt lat="0" lon="0">
        <time>2020-12-06T10:24:32.948000+00:00</time>
      </trkpt>
      <trkpt lat="0" lon="0">
        <time>2020-12-06T10:24:32.957000+00:00</time>
      </trkpt>
      <trkpt lat="0" lon="0">
        <time>2020-12-06T10:24:32.960000+00:00</time>
      </trkpt>
      <trkpt lat="47.32821" lon="-1.38939">
        <ele>72</ele>
        <time>2020-12-06T10:24:33.925000+00:00</time>
      </trkpt>
      <trkpt lat="0" lon="0">
        <time>2020-12-06T10:24:33.937000+00:00</time>
      </trkpt>
      <trkpt lat="0" lon="0">
        <time>2020-12-06T10:24:33.945000+00:00</time>
      </trkpt>
      <trkpt lat="0" lon="0">
        <time>2020-12-06T10:24:33.950000+00:00</time>
      </trkpt>
      <trkpt lat="47.32817" lon="-1.38943">
        <ele>72</ele>
        <time>2020-12-06T10:24:34.895000+00:00</time>
      </trkpt>
      <trkpt lat="0" lon="0">
        <time>2020-12-06T10:24:34.899000+00:00</time>
      </trkpt>
      <trkpt lat="0" lon="0">
        <time>2020-12-06T10:24:34.908000+00:00</time>
      </trkpt>
      <trkpt lat="0" lon="0">
        <time>2020-12-06T10:24:34.909000+00:00</time>
      </trkpt>
      <trkpt lat="47.32814" lon="-1.38948">
        <ele>72</ele>
        <time>2020-12-06T10:24:35.909000+00:00</time>
      </trkpt>
      <trkpt lat="0" lon="0">
        <time>2020-12-06T10:24:35.928000+00:00</time>
      </trkpt>
      <trkpt lat="0" lon="0">
        <time>2020-12-06T10:24:35.931000+00:00</time>
      </trkpt>
      <trkpt lat="0" lon="0">
        <time>2020-12-06T10:24:35.933000+00:00</time>
      </trkpt>
      <trkpt lat="47.32811" lon="-1.38952">
        <ele>72</ele>
        <time>2020-12-06T10:24:36.922000+00:00</time>
      </trkpt>
      <trkpt lat="0" lon="0">
        <time>2020-12-06T10:24:36.928000+00:00</time>
      </trkpt>
      <trkpt lat="0" lon="0">
        <time>2020-12-06T10:24:36.930000+00:00</time>
      </trkpt>
      <trkpt lat="0" lon="0">
        <time>2020-12-06T10:24:36.931000+00:00</time>
      </trkpt>
      <trkpt lat="47.32807" lon="-1.38956">
        <ele>72</ele>
        <time>2020-12-06T10:24:37.890000+00:00</time>
      </trkpt>
      <trkpt lat="0" lon="0">
        <time>2020-12-06T10:24:37.905000+00:00</time>
      </trkpt>
      <trkpt lat="0" lon="0">
        <time>2020-12-06T10:24:37.921000+00:00</time>
      </trkpt>
      <trkpt lat="0" lon="0">
        <time>2020-12-06T10:24:37.926000+00:00</time>
      </trkpt>
      <trkpt lat="47.32804" lon="-1.3896">
        <ele>72</ele>
        <time>2020-12-06T10:24:38.858000+00:00</time>
      </trkpt>
      <trkpt lat="0" lon="0">
        <time>2020-12-06T10:24:38.860000+00:00</time>
      </trkpt>
      <trkpt lat="0" lon="0">
        <time>2020-12-06T10:24:38.862000+00:00</time>
      </trkpt>
      <trkpt lat="0" lon="0">
        <time>2020-12-06T10:24:38.863000+00:00</time>
      </trkpt>
      <trkpt lat="47.32801" lon="-1.38964">
        <ele>72</ele>
        <time>2020-12-06T10:24:39.951000+00:00</time>
      </trkpt>
      <trkpt lat="0" lon="0">
        <time>2020-12-06T10:24:39.959000+00:00</time>
      </trkpt>
      <trkpt lat="0" lon="0">
        <time>2020-12-06T10:24:39.969000+00:00</time>
      </trkpt>
      <trkpt lat="0" lon="0">
        <time>2020-12-06T10:24:39.973000+00:00</time>
      </trkpt>
      <trkpt lat="47.32798" lon="-1.38968">
        <ele>72</ele>
        <time>2020-12-06T10:24:40.945000+00:00</time>
      </trkpt>
      <trkpt lat="0" lon="0">
        <time>2020-12-06T10:24:40.950000+00:00</time>
      </trkpt>
      <trkpt lat="0" lon="0">
        <time>2020-12-06T10:24:40.954000+00:00</time>
      </trkpt>
      <trkpt lat="0" lon="0">
        <time>2020-12-06T10:24:40.957000+00:00</time>
      </trkpt>
      <trkpt lat="47.32794" lon="-1.38972">
        <ele>72</ele>
        <time>2020-12-06T10:24:41.955000+00:00</time>
      </trkpt>
      <trkpt lat="0" lon="0">
        <time>2020-12-06T10:24:41.967000+00:00</time>
      </trkpt>
      <trkpt lat="0" lon="0">
        <time>2020-12-06T10:24:41.971000+00:00</time>
      </trkpt>
      <trkpt lat="0" lon="0">
        <time>2020-12-06T10:24:41.973000+00:00</time>
      </trkpt>
      <trkpt lat="47.32791" lon="-1.38977">
        <ele>72</ele>
        <time>2020-12-06T10:24:42.897000+00:00</time>
      </trkpt>
      <trkpt lat="0" lon="0">
        <time>2020-12-06T10:24:42.904000+00:00</time>
      </trkpt>
      <trkpt lat="0" lon="0">
        <time>2020-12-06T10:24:42.906000+00:00</time>
      </trkpt>
      <trkpt lat="0" lon="0">
        <time>2020-12-06T10:24:42.909000+00:00</time>
      </trkpt>
      <trkpt lat="47.32787" lon="-1.38981">
        <ele>72</ele>
        <time>2020-12-06T10:24:43.915000+00:00</time>
      </trkpt>
      <trkpt lat="0" lon="0">
        <time>2020-12-06T10:24:43.933000+00:00</time>
      </trkpt>
      <trkpt lat="0" lon="0">
        <time>2020-12-06T10:24:43.938000+00:00</time>
      </trkpt>
      <trkpt lat="0" lon="0">
        <time>2020-12-06T10:24:43.943000+00:00</time>
      </trkpt>
      <trkpt lat="47.32784" lon="-1.38985">
        <ele>72</ele>
        <time>2020-12-06T10:24:44.934000+00:00</time>
      </trkpt>
      <trkpt lat="0" lon="0">
        <time>2020-12-06T10:24:44.954000+00:00</time>
      </trkpt>
      <trkpt lat="0" lon="0">
        <time>2020-12-06T10:24:44.961000+00:00</time>
      </trkpt>
      <trkpt lat="0" lon="0">
        <time>2020-12-06T10:24:44.964000+00:00</time>
      </trkpt>
      <trkpt lat="47.3278" lon="-1.3899">
        <ele>72</ele>
        <time>2020-12-06T10:24:45.960000+00:00</time>
      </trkpt>
      <trkpt lat="0" lon="0">
        <time>2020-12-06T10:24:45.986000+00:00</time>
      </trkpt>
      <trkpt lat="0" lon="0">
        <time>2020-12-06T10:24:45.989000+00:00</time>
      </trkpt>
      <trkpt lat="0" lon="0">
        <time>2020-12-06T10:24:45.990000+00:00</time>
      </trkpt>
      <trkpt lat="47.32777" lon="-1.38994">
        <ele>72</ele>
        <time>2020-12-06T10:24:46.919000+00:00</time>
      </trkpt>
      <trkpt lat="0" lon="0">
        <time>2020-12-06T10:24:46.923000+00:00</time>
      </trkpt>
      <trkpt lat="0" lon="0">
        <time>2020-12-06T10:24:46.938000+00:00</time>
      </trkpt>
      <trkpt lat="0" lon="0">
        <time>2020-12-06T10:24:46.946000+00:00</time>
      </trkpt>
      <trkpt lat="47.32774" lon="-1.38999">
        <ele>72</ele>
        <time>2020-12-06T10:24:47.924000+00:00</time>
      </trkpt>
      <trkpt lat="0" lon="0">
        <time>2020-12-06T10:24:47.927000+00:00</time>
      </trkpt>
      <trkpt lat="0" lon="0">
        <time>2020-12-06T10:24:47.934000+00:00</time>
      </trkpt>
      <trkpt lat="0" lon="0">
        <time>2020-12-06T10:24:47.937000+00:00</time>
      </trkpt>
      <trkpt lat="47.32771" lon="-1.39003">
        <ele>72</ele>
        <time>2020-12-06T10:24:48.911000+00:00</time>
      </trkpt>
      <trkpt lat="0" lon="0">
        <time>2020-12-06T10:24:48.912000+00:00</time>
      </trkpt>
      <trkpt lat="0" lon="0">
        <time>2020-12-06T10:24:48.914000+00:00</time>
      </trkpt>
      <trkpt lat="47.32768" lon="-1.39008">
        <ele>72</ele>
        <time>2020-12-06T10:24:49.931000+00:00</time>
      </trkpt>
      <trkpt lat="0" lon="0">
        <time>2020-12-06T10:24:49.938000+00:00</time>
      </trkpt>
      <trkpt lat="0" lon="0">
        <time>2020-12-06T10:24:49.942000+00:00</time>
      </trkpt>
      <trkpt lat="0" lon="0">
        <time>2020-12-06T10:24:49.944000+00:00</time>
      </trkpt>
      <trkpt lat="47.32764" lon="-1.39013">
        <ele>72</ele>
        <time>2020-12-06T10:24:50.928000+00:00</time>
      </trkpt>
      <trkpt lat="0" lon="0">
        <time>2020-12-06T10:24:50.933000+00:00</time>
      </trkpt>
      <trkpt lat="0" lon="0">
        <time>2020-12-06T10:24:50.944000+00:00</time>
      </trkpt>
      <trkpt lat="0" lon="0">
        <time>2020-12-06T10:24:50.947000+00:00</time>
      </trkpt>
      <trkpt lat="47.32761" lon="-1.39017">
        <ele>71</ele>
        <time>2020-12-06T10:24:51.895000+00:00</time>
      </trkpt>
      <trkpt lat="0" lon="0">
        <time>2020-12-06T10:24:51.907000+00:00</time>
      </trkpt>
      <trkpt lat="0" lon="0">
        <time>2020-12-06T10:24:51.917000+00:00</time>
      </trkpt>
      <trkpt lat="0" lon="0">
        <time>2020-12-06T10:24:51.918000+00:00</time>
      </trkpt>
      <trkpt lat="47.32758" lon="-1.39022">
        <ele>71</ele>
        <time>2020-12-06T10:24:52.917000+00:00</time>
      </trkpt>
      <trkpt lat="0" lon="0">
        <time>2020-12-06T10:24:52.920000+00:00</time>
      </trkpt>
      <trkpt lat="0" lon="0">
        <time>2020-12-06T10:24:52.926000+00:00</time>
      </trkpt>
      <trkpt lat="0" lon="0">
        <time>2020-12-06T10:24:52.928000+00:00</time>
      </trkpt>
      <trkpt lat="47.32755" lon="-1.39026">
        <ele>71</ele>
        <time>2020-12-06T10:24:53.917000+00:00</time>
      </trkpt>
      <trkpt lat="0" lon="0">
        <time>2020-12-06T10:24:53.926000+00:00</time>
      </trkpt>
      <trkpt lat="0" lon="0">
        <time>2020-12-06T10:24:53.938000+00:00</time>
      </trkpt>
      <trkpt lat="0" lon="0">
        <time>2020-12-06T10:24:53.940000+00:00</time>
      </trkpt>
      <trkpt lat="47.32752" lon="-1.39031">
        <ele>71</ele>
        <time>2020-12-06T10:24:54.903000+00:00</time>
      </trkpt>
      <trkpt lat="0" lon="0">
        <time>2020-12-06T10:24:54.908000+00:00</time>
      </trkpt>
      <trkpt lat="0" lon="0">
        <time>2020-12-06T10:24:54.910000+00:00</time>
      </trkpt>
      <trkpt lat="0" lon="0">
        <time>2020-12-06T10:24:54.911000+00:00</time>
      </trkpt>
      <trkpt lat="47.32748" lon="-1.39035">
        <ele>71</ele>
        <time>2020-12-06T10:24:55.954000+00:00</time>
      </trkpt>
      <trkpt lat="0" lon="0">
        <time>2020-12-06T10:24:55.961000+00:00</time>
      </trkpt>
      <trkpt lat="0" lon="0">
        <time>2020-12-06T10:24:55.965000+00:00</time>
      </trkpt>
      <trkpt lat="0" lon="0">
        <time>2020-12-06T10:24:55.969000+00:00</time>
      </trkpt>
      <trkpt lat="47.32745" lon="-1.3904">
        <ele>71</ele>
        <time>2020-12-06T10:24:56.945000+00:00</time>
      </trkpt>
      <trkpt lat="0" lon="0">
        <time>2020-12-06T10:24:56.951000+00:00</time>
      </trkpt>
      <trkpt lat="0" lon="0">
        <time>2020-12-06T10:24:56.957000+00:00</time>
      </trkpt>
      <trkpt lat="0" lon="0">
        <time>2020-12-06T10:24:56.959000+00:00</time>
      </trkpt>
      <trkpt lat="47.32742" lon="-1.39044">
        <ele>71</ele>
        <time>2020-12-06T10:24:57.958000+00:00</time>
      </trkpt>
      <trkpt lat="0" lon="0">
        <time>2020-12-06T10:24:57.973000+00:00</time>
      </trkpt>
      <trkpt lat="0" lon="0">
        <time>2020-12-06T10:24:57.983000+00:00</time>
      </trkpt>
      <trkpt lat="0" lon="0">
        <time>2020-12-06T10:24:57.986000+00:00</time>
      </trkpt>
      <trkpt lat="47.32738" lon="-1.39049">
        <ele>71</ele>
        <time>2020-12-06T10:24:58.931000+00:00</time>
      </trkpt>
      <trkpt lat="0" lon="0">
        <time>2020-12-06T10:24:58.942000+00:00</time>
      </trkpt>
      <trkpt lat="0" lon="0">
        <time>2020-12-06T10:24:58.947000+00:00</time>
      </trkpt>
      <trkpt lat="0" lon="0">
        <time>2020-12-06T10:24:58.949000+00:00</time>
      </trkpt>
      <trkpt lat="47.32735" lon="-1.39054">
        <ele>71</ele>
        <time>2020-12-06T10:24:59.913000+00:00</time>
      </trkpt>
      <trkpt lat="0" lon="0">
        <time>2020-12-06T10:24:59.931000+00:00</time>
      </trkpt>
      <trkpt lat="0" lon="0">
        <time>2020-12-06T10:24:59.935000+00:00</time>
      </trkpt>
      <trkpt lat="0" lon="0">
        <time>2020-12-06T10:24:59.938000+00:00</time>
      </trkpt>
      <trkpt lat="47.32732" lon="-1.39058">
        <ele>71</ele>
        <time>2020-12-06T10:25:00.938000+00:00</time>
      </trkpt>
      <trkpt lat="0" lon="0">
        <time>2020-12-06T10:25:00.954000+00:00</time>
      </trkpt>
      <trkpt lat="0" lon="0">
        <time>2020-12-06T10:25:00.967000+00:00</time>
      </trkpt>
      <trkpt lat="0" lon="0">
        <time>2020-12-06T10:25:00.971000+00:00</time>
      </trkpt>
      <trkpt lat="47.32728" lon="-1.39063">
        <ele>71</ele>
        <time>2020-12-06T10:25:01.910000+00:00</time>
      </trkpt>
      <trkpt lat="0" lon="0">
        <time>2020-12-06T10:25:01.913000+00:00</time>
      </trkpt>
      <trkpt lat="0" lon="0">
        <time>2020-12-06T10:25:01.920000+00:00</time>
      </trkpt>
      <trkpt lat="0" lon="0">
        <time>2020-12-06T10:25:01.925000+00:00</time>
      </trkpt>
      <trkpt lat="47.32725" lon="-1.39067">
        <ele>71</ele>
        <time>2020-12-06T10:25:02.910000+00:00</time>
      </trkpt>
      <trkpt lat="0" lon="0">
        <time>2020-12-06T10:25:02.914000+00:00</time>
      </trkpt>
      <trkpt lat="0" lon="0">
        <time>2020-12-06T10:25:02.915000+00:00</time>
      </trkpt>
      <trkpt lat="0" lon="0">
        <time>2020-12-06T10:25:02.916000+00:00</time>
      </trkpt>
      <trkpt lat="47.32722" lon="-1.39072">
        <ele>71</ele>
        <time>2020-12-06T10:25:03.926000+00:00</time>
      </trkpt>
      <trkpt lat="0" lon="0">
        <time>2020-12-06T10:25:03.936000+00:00</time>
      </trkpt>
      <trkpt lat="0" lon="0">
        <time>2020-12-06T10:25:03.947000+00:00</time>
      </trkpt>
      <trkpt lat="0" lon="0">
        <time>2020-12-06T10:25:03.949000+00:00</time>
      </trkpt>
      <trkpt lat="47.32719" lon="-1.39076">
        <ele>71</ele>
        <time>2020-12-06T10:25:04.899000+00:00</time>
      </trkpt>
      <trkpt lat="0" lon="0">
        <time>2020-12-06T10:25:04.907000+00:00</time>
      </trkpt>
      <trkpt lat="0" lon="0">
        <time>2020-12-06T10:25:04.911000+00:00</time>
      </trkpt>
      <trkpt lat="0" lon="0">
        <time>2020-12-06T10:25:04.912000+00:00</time>
      </trkpt>
      <trkpt lat="47.32715" lon="-1.39081">
        <ele>71</ele>
        <time>2020-12-06T10:25:05.909000+00:00</time>
      </trkpt>
      <trkpt lat="0" lon="0">
        <time>2020-12-06T10:25:05.912000+00:00</time>
      </trkpt>
      <trkpt lat="0" lon="0">
        <time>2020-12-06T10:25:05.923000+00:00</time>
      </trkpt>
      <trkpt lat="0" lon="0">
        <time>2020-12-06T10:25:05.924000+00:00</time>
      </trkpt>
      <trkpt lat="47.32712" lon="-1.39086">
        <ele>71</ele>
        <time>2020-12-06T10:25:06.858000+00:00</time>
      </trkpt>
      <trkpt lat="0" lon="0">
        <time>2020-12-06T10:25:06.863000+00:00</time>
      </trkpt>
      <trkpt lat="0" lon="0">
        <time>2020-12-06T10:25:06.867000+00:00</time>
      </trkpt>
      <trkpt lat="0" lon="0">
        <time>2020-12-06T10:25:06.881000+00:00</time>
      </trkpt>
      <trkpt lat="47.32708" lon="-1.39091">
        <ele>71</ele>
        <time>2020-12-06T10:25:07.890000+00:00</time>
      </trkpt>
      <trkpt lat="0" lon="0">
        <time>2020-12-06T10:25:07.899000+00:00</time>
      </trkpt>
      <trkpt lat="0" lon="0">
        <time>2020-12-06T10:25:07.909000+00:00</time>
      </trkpt>
      <trkpt lat="0" lon="0">
        <time>2020-12-06T10:25:07.911000+00:00</time>
      </trkpt>
      <trkpt lat="47.32705" lon="-1.39096">
        <ele>71</ele>
        <time>2020-12-06T10:25:08.932000+00:00</time>
      </trkpt>
      <trkpt lat="0" lon="0">
        <time>2020-12-06T10:25:08.943000+00:00</time>
      </trkpt>
      <trkpt lat="0" lon="0">
        <time>2020-12-06T10:25:08.947000+00:00</time>
      </trkpt>
      <trkpt lat="0" lon="0">
        <time>2020-12-06T10:25:08.949000+00:00</time>
      </trkpt>
      <trkpt lat="47.32701" lon="-1.39101">
        <ele>71</ele>
        <time>2020-12-06T10:25:09.913000+00:00</time>
      </trkpt>
      <trkpt lat="0" lon="0">
        <time>2020-12-06T10:25:09.926000+00:00</time>
      </trkpt>
      <trkpt lat="0" lon="0">
        <time>2020-12-06T10:25:09.929000+00:00</time>
      </trkpt>
      <trkpt lat="0" lon="0">
        <time>2020-12-06T10:25:09.931000+00:00</time>
      </trkpt>
      <trkpt lat="47.32698" lon="-1.39106">
        <ele>71</ele>
        <time>2020-12-06T10:25:10.916000+00:00</time>
      </trkpt>
      <trkpt lat="0" lon="0">
        <time>2020-12-06T10:25:10.931000+00:00</time>
      </trkpt>
      <trkpt lat="0" lon="0">
        <time>2020-12-06T10:25:10.934000+00:00</time>
      </trkpt>
      <trkpt lat="0" lon="0">
        <time>2020-12-06T10:25:10.936000+00:00</time>
      </trkpt>
      <trkpt lat="47.32695" lon="-1.39111">
        <ele>71</ele>
        <time>2020-12-06T10:25:11.893000+00:00</time>
      </trkpt>
      <trkpt lat="0" lon="0">
        <time>2020-12-06T10:25:11.907000+00:00</time>
      </trkpt>
      <trkpt lat="0" lon="0">
        <time>2020-12-06T10:25:11.915000+00:00</time>
      </trkpt>
      <trkpt lat="0" lon="0">
        <time>2020-12-06T10:25:11.922000+00:00</time>
      </trkpt>
      <trkpt lat="47.32691" lon="-1.39116">
        <ele>71</ele>
        <time>2020-12-06T10:25:12.861000+00:00</time>
      </trkpt>
      <trkpt lat="0" lon="0">
        <time>2020-12-06T10:25:12.867000+00:00</time>
      </trkpt>
      <trkpt lat="0" lon="0">
        <time>2020-12-06T10:25:12.870000+00:00</time>
      </trkpt>
      <trkpt lat="0" lon="0">
        <time>2020-12-06T10:25:12.872000+00:00</time>
      </trkpt>
      <trkpt lat="47.32688" lon="-1.39121">
        <ele>71</ele>
        <time>2020-12-06T10:25:13.859000+00:00</time>
      </trkpt>
      <trkpt lat="0" lon="0">
        <time>2020-12-06T10:25:13.881000+00:00</time>
      </trkpt>
      <trkpt lat="0" lon="0">
        <time>2020-12-06T10:25:13.885000+00:00</time>
      </trkpt>
      <trkpt lat="0" lon="0">
        <time>2020-12-06T10:25:13.886000+00:00</time>
      </trkpt>
      <trkpt lat="47.32684" lon="-1.39126">
        <ele>71</ele>
        <time>2020-12-06T10:25:14.871000+00:00</time>
      </trkpt>
      <trkpt lat="0" lon="0">
        <time>2020-12-06T10:25:14.897000+00:00</time>
      </trkpt>
      <trkpt lat="0" lon="0">
        <time>2020-12-06T10:25:14.899000+00:00</time>
      </trkpt>
      <trkpt lat="0" lon="0">
        <time>2020-12-06T10:25:14.901000+00:00</time>
      </trkpt>
      <trkpt lat="47.3268" lon="-1.39131">
        <ele>71</ele>
        <time>2020-12-06T10:25:15.842000+00:00</time>
      </trkpt>
      <trkpt lat="0" lon="0">
        <time>2020-12-06T10:25:15.846000+00:00</time>
      </trkpt>
      <trkpt lat="0" lon="0">
        <time>2020-12-06T10:25:15.852000+00:00</time>
      </trkpt>
      <trkpt lat="0" lon="0">
        <time>2020-12-06T10:25:15.859000+00:00</time>
      </trkpt>
      <trkpt lat="47.32677" lon="-1.39136">
        <ele>71</ele>
        <time>2020-12-06T10:25:16.931000+00:00</time>
      </trkpt>
      <trkpt lat="0" lon="0">
        <time>2020-12-06T10:25:16.937000+00:00</time>
      </trkpt>
      <trkpt lat="0" lon="0">
        <time>2020-12-06T10:25:16.942000+00:00</time>
      </trkpt>
      <trkpt lat="0" lon="0">
        <time>2020-12-06T10:25:16.944000+00:00</time>
      </trkpt>
      <trkpt lat="47.32673" lon="-1.39141">
        <ele>71</ele>
        <time>2020-12-06T10:25:17.901000+00:00</time>
      </trkpt>
      <trkpt lat="0" lon="0">
        <time>2020-12-06T10:25:17.907000+00:00</time>
      </trkpt>
      <trkpt lat="0" lon="0">
        <time>2020-12-06T10:25:17.911000+00:00</time>
      </trkpt>
      <trkpt lat="0" lon="0">
        <time>2020-12-06T10:25:17.915000+00:00</time>
      </trkpt>
      <trkpt lat="47.32669" lon="-1.39146">
        <ele>71</ele>
        <time>2020-12-06T10:25:18.889000+00:00</time>
      </trkpt>
      <trkpt lat="0" lon="0">
        <time>2020-12-06T10:25:18.894000+00:00</time>
      </trkpt>
      <trkpt lat="0" lon="0">
        <time>2020-12-06T10:25:18.902000+00:00</time>
      </trkpt>
      <trkpt lat="0" lon="0">
        <time>2020-12-06T10:25:18.905000+00:00</time>
      </trkpt>
      <trkpt lat="47.32665" lon="-1.39151">
        <ele>71</ele>
        <time>2020-12-06T10:25:19.871000+00:00</time>
      </trkpt>
      <trkpt lat="0" lon="0">
        <time>2020-12-06T10:25:19.880000+00:00</time>
      </trkpt>
      <trkpt lat="0" lon="0">
        <time>2020-12-06T10:25:19.884000+00:00</time>
      </trkpt>
      <trkpt lat="0" lon="0">
        <time>2020-12-06T10:25:19.885000+00:00</time>
      </trkpt>
      <trkpt lat="47.32661" lon="-1.39157">
        <ele>71</ele>
        <time>2020-12-06T10:25:20.849000+00:00</time>
      </trkpt>
      <trkpt lat="0" lon="0">
        <time>2020-12-06T10:25:20.854000+00:00</time>
      </trkpt>
      <trkpt lat="0" lon="0">
        <time>2020-12-06T10:25:20.863000+00:00</time>
      </trkpt>
      <trkpt lat="0" lon="0">
        <time>2020-12-06T10:25:20.868000+00:00</time>
      </trkpt>
      <trkpt lat="47.32658" lon="-1.39162">
        <ele>71</ele>
        <time>2020-12-06T10:25:21.914000+00:00</time>
      </trkpt>
      <trkpt lat="0" lon="0">
        <time>2020-12-06T10:25:21.917000+00:00</time>
      </trkpt>
      <trkpt lat="0" lon="0">
        <time>2020-12-06T10:25:21.923000+00:00</time>
      </trkpt>
      <trkpt lat="0" lon="0">
        <time>2020-12-06T10:25:21.925000+00:00</time>
      </trkpt>
      <trkpt lat="47.32654" lon="-1.39167">
        <ele>71</ele>
        <time>2020-12-06T10:25:22.927000+00:00</time>
      </trkpt>
      <trkpt lat="0" lon="0">
        <time>2020-12-06T10:25:22.930000+00:00</time>
      </trkpt>
      <trkpt lat="0" lon="0">
        <time>2020-12-06T10:25:22.932000+00:00</time>
      </trkpt>
      <trkpt lat="47.3265" lon="-1.39172">
        <ele>71</ele>
        <time>2020-12-06T10:25:23.946000+00:00</time>
      </trkpt>
      <trkpt lat="0" lon="0">
        <time>2020-12-06T10:25:23.955000+00:00</time>
      </trkpt>
      <trkpt lat="0" lon="0">
        <time>2020-12-06T10:25:23.959000+00:00</time>
      </trkpt>
      <trkpt lat="0" lon="0">
        <time>2020-12-06T10:25:23.962000+00:00</time>
      </trkpt>
      <trkpt lat="47.32647" lon="-1.39178">
        <ele>71</ele>
        <time>2020-12-06T10:25:24.926000+00:00</time>
      </trkpt>
      <trkpt lat="0" lon="0">
        <time>2020-12-06T10:25:24.932000+00:00</time>
      </trkpt>
      <trkpt lat="0" lon="0">
        <time>2020-12-06T10:25:24.937000+00:00</time>
      </trkpt>
      <trkpt lat="0" lon="0">
        <time>2020-12-06T10:25:24.938000+00:00</time>
      </trkpt>
      <trkpt lat="47.32643" lon="-1.39183">
        <ele>71</ele>
        <time>2020-12-06T10:25:25.950000+00:00</time>
      </trkpt>
      <trkpt lat="0" lon="0">
        <time>2020-12-06T10:25:25.958000+00:00</time>
      </trkpt>
      <trkpt lat="0" lon="0">
        <time>2020-12-06T10:25:25.963000+00:00</time>
      </trkpt>
      <trkpt lat="0" lon="0">
        <time>2020-12-06T10:25:25.964000+00:00</time>
      </trkpt>
      <trkpt lat="47.3264" lon="-1.39188">
        <ele>71</ele>
        <time>2020-12-06T10:25:26.894000+00:00</time>
      </trkpt>
      <trkpt lat="0" lon="0">
        <time>2020-12-06T10:25:26.913000+00:00</time>
      </trkpt>
      <trkpt lat="0" lon="0">
        <time>2020-12-06T10:25:26.921000+00:00</time>
      </trkpt>
      <trkpt lat="0" lon="0">
        <time>2020-12-06T10:25:26.923000+00:00</time>
      </trkpt>
      <trkpt lat="47.32636" lon="-1.39193">
        <ele>71</ele>
        <time>2020-12-06T10:25:27.872000+00:00</time>
      </trkpt>
      <trkpt lat="0" lon="0">
        <time>2020-12-06T10:25:27.879000+00:00</time>
      </trkpt>
      <trkpt lat="0" lon="0">
        <time>2020-12-06T10:25:27.889000+00:00</time>
      </trkpt>
      <trkpt lat="0" lon="0">
        <time>2020-12-06T10:25:27.897000+00:00</time>
      </trkpt>
      <trkpt lat="47.32633" lon="-1.39197">
        <ele>71</ele>
        <time>2020-12-06T10:25:28.903000+00:00</time>
      </trkpt>
      <trkpt lat="0" lon="0">
        <time>2020-12-06T10:25:28.906000+00:00</time>
      </trkpt>
      <trkpt lat="0" lon="0">
        <time>2020-12-06T10:25:28.912000+00:00</time>
      </trkpt>
      <trkpt lat="0" lon="0">
        <time>2020-12-06T10:25:28.914000+00:00</time>
      </trkpt>
      <trkpt lat="47.3263" lon="-1.39202">
        <ele>71</ele>
        <time>2020-12-06T10:25:29.893000+00:00</time>
      </trkpt>
      <trkpt lat="0" lon="0">
        <time>2020-12-06T10:25:29.898000+00:00</time>
      </trkpt>
      <trkpt lat="0" lon="0">
        <time>2020-12-06T10:25:29.902000+00:00</time>
      </trkpt>
      <trkpt lat="0" lon="0">
        <time>2020-12-06T10:25:29.904000+00:00</time>
      </trkpt>
      <trkpt lat="47.32627" lon="-1.39207">
        <ele>71</ele>
        <time>2020-12-06T10:25:30.876000+00:00</time>
      </trkpt>
      <trkpt lat="0" lon="0">
        <time>2020-12-06T10:25:30.891000+00:00</time>
      </trkpt>
      <trkpt lat="0" lon="0">
        <time>2020-12-06T10:25:30.894000+00:00</time>
      </trkpt>
      <trkpt lat="0" lon="0">
        <time>2020-12-06T10:25:30.899000+00:00</time>
      </trkpt>
      <trkpt lat="47.32624" lon="-1.39213">
        <ele>71</ele>
        <time>2020-12-06T10:25:31.882000+00:00</time>
      </trkpt>
      <trkpt lat="0" lon="0">
        <time>2020-12-06T10:25:31.890000+00:00</time>
      </trkpt>
      <trkpt lat="0" lon="0">
        <time>2020-12-06T10:25:31.902000+00:00</time>
      </trkpt>
      <trkpt lat="0" lon="0">
        <time>2020-12-06T10:25:31.904000+00:00</time>
      </trkpt>
      <trkpt lat="47.32621" lon="-1.39218">
        <ele>71</ele>
        <time>2020-12-06T10:25:32.900000+00:00</time>
      </trkpt>
      <trkpt lat="0" lon="0">
        <time>2020-12-06T10:25:32.910000+00:00</time>
      </trkpt>
      <trkpt lat="0" lon="0">
        <time>2020-12-06T10:25:32.920000+00:00</time>
      </trkpt>
      <trkpt lat="0" lon="0">
        <time>2020-12-06T10:25:32.922000+00:00</time>
      </trkpt>
      <trkpt lat="47.32619" lon="-1.39224">
        <ele>71</ele>
        <time>2020-12-06T10:25:33.863000+00:00</time>
      </trkpt>
      <trkpt lat="0" lon="0">
        <time>2020-12-06T10:25:33.873000+00:00</time>
      </trkpt>
      <trkpt lat="0" lon="0">
        <time>2020-12-06T10:25:33.875000+00:00</time>
      </trkpt>
      <trkpt lat="0" lon="0">
        <time>2020-12-06T10:25:33.876000+00:00</time>
      </trkpt>
      <trkpt lat="47.32616" lon="-1.39229">
        <ele>71</ele>
        <time>2020-12-06T10:25:34.889000+00:00</time>
      </trkpt>
      <trkpt lat="0" lon="0">
        <time>2020-12-06T10:25:34.902000+00:00</time>
      </trkpt>
      <trkpt lat="0" lon="0">
        <time>2020-12-06T10:25:34.905000+00:00</time>
      </trkpt>
      <trkpt lat="0" lon="0">
        <time>2020-12-06T10:25:34.907000+00:00</time>
      </trkpt>
      <trkpt lat="47.32614" lon="-1.39235">
        <ele>71</ele>
        <time>2020-12-06T10:25:35.915000+00:00</time>
      </trkpt>
      <trkpt lat="0" lon="0">
        <time>2020-12-06T10:25:35.935000+00:00</time>
      </trkpt>
      <trkpt lat="0" lon="0">
        <time>2020-12-06T10:25:35.942000+00:00</time>
      </trkpt>
      <trkpt lat="0" lon="0">
        <time>2020-12-06T10:25:35.943000+00:00</time>
      </trkpt>
      <trkpt lat="47.32611" lon="-1.39241">
        <ele>71</ele>
        <time>2020-12-06T10:25:36.899000+00:00</time>
      </trkpt>
      <trkpt lat="0" lon="0">
        <time>2020-12-06T10:25:36.905000+00:00</time>
      </trkpt>
      <trkpt lat="0" lon="0">
        <time>2020-12-06T10:25:36.907000+00:00</time>
      </trkpt>
      <trkpt lat="0" lon="0">
        <time>2020-12-06T10:25:36.908000+00:00</time>
      </trkpt>
      <trkpt lat="47.32609" lon="-1.39248">
        <ele>71</ele>
        <time>2020-12-06T10:25:37.895000+00:00</time>
      </trkpt>
      <trkpt lat="0" lon="0">
        <time>2020-12-06T10:25:37.899000+00:00</time>
      </trkpt>
      <trkpt lat="0" lon="0">
        <time>2020-12-06T10:25:37.912000+00:00</time>
      </trkpt>
      <trkpt lat="0" lon="0">
        <time>2020-12-06T10:25:37.917000+00:00</time>
      </trkpt>
      <trkpt lat="47.32607" lon="-1.39254">
        <ele>70</ele>
        <time>2020-12-06T10:25:38.890000+00:00</time>
      </trkpt>
      <trkpt lat="0" lon="0">
        <time>2020-12-06T10:25:38.893000+00:00</time>
      </trkpt>
      <trkpt lat="0" lon="0">
        <time>2020-12-06T10:25:38.897000+00:00</time>
      </trkpt>
      <trkpt lat="0" lon="0">
        <time>2020-12-06T10:25:38.899000+00:00</time>
      </trkpt>
      <trkpt lat="47.32605" lon="-1.39261">
        <ele>70</ele>
        <time>2020-12-06T10:25:39.924000+00:00</time>
      </trkpt>
      <trkpt lat="0" lon="0">
        <time>2020-12-06T10:25:39.929000+00:00</time>
      </trkpt>
      <trkpt lat="0" lon="0">
        <time>2020-12-06T10:25:39.932000+00:00</time>
      </trkpt>
      <trkpt lat="0" lon="0">
        <time>2020-12-06T10:25:39.934000+00:00</time>
      </trkpt>
      <trkpt lat="47.32602" lon="-1.39268">
        <ele>70</ele>
        <time>2020-12-06T10:25:40.958000+00:00</time>
      </trkpt>
      <trkpt lat="0" lon="0">
        <time>2020-12-06T10:25:40.973000+00:00</time>
      </trkpt>
      <trkpt lat="0" lon="0">
        <time>2020-12-06T10:25:40.981000+00:00</time>
      </trkpt>
      <trkpt lat="0" lon="0">
        <time>2020-12-06T10:25:40.983000+00:00</time>
      </trkpt>
      <trkpt lat="47.326" lon="-1.39275">
        <ele>70</ele>
        <time>2020-12-06T10:25:41.909000+00:00</time>
      </trkpt>
      <trkpt lat="0" lon="0">
        <time>2020-12-06T10:25:41.914000+00:00</time>
      </trkpt>
      <trkpt lat="0" lon="0">
        <time>2020-12-06T10:25:41.921000+00:00</time>
      </trkpt>
      <trkpt lat="0" lon="0">
        <time>2020-12-06T10:25:41.923000+00:00</time>
      </trkpt>
      <trkpt lat="47.32599" lon="-1.39281">
        <ele>70</ele>
        <time>2020-12-06T10:25:42.931000+00:00</time>
      </trkpt>
      <trkpt lat="0" lon="0">
        <time>2020-12-06T10:25:42.945000+00:00</time>
      </trkpt>
      <trkpt lat="0" lon="0">
        <time>2020-12-06T10:25:42.953000+00:00</time>
      </trkpt>
      <trkpt lat="0" lon="0">
        <time>2020-12-06T10:25:42.954000+00:00</time>
      </trkpt>
      <trkpt lat="47.32597" lon="-1.39288">
        <ele>70</ele>
        <time>2020-12-06T10:25:43.934000+00:00</time>
      </trkpt>
      <trkpt lat="0" lon="0">
        <time>2020-12-06T10:25:43.940000+00:00</time>
      </trkpt>
      <trkpt lat="0" lon="0">
        <time>2020-12-06T10:25:43.943000+00:00</time>
      </trkpt>
      <trkpt lat="0" lon="0">
        <time>2020-12-06T10:25:43.947000+00:00</time>
      </trkpt>
      <trkpt lat="47.32595" lon="-1.39295">
        <ele>70</ele>
        <time>2020-12-06T10:25:44.949000+00:00</time>
      </trkpt>
      <trkpt lat="0" lon="0">
        <time>2020-12-06T10:25:44.966000+00:00</time>
      </trkpt>
      <trkpt lat="0" lon="0">
        <time>2020-12-06T10:25:44.974000+00:00</time>
      </trkpt>
      <trkpt lat="0" lon="0">
        <time>2020-12-06T10:25:44.978000+00:00</time>
      </trkpt>
      <trkpt lat="47.32593" lon="-1.39302">
        <ele>70</ele>
        <time>2020-12-06T10:25:45.925000+00:00</time>
      </trkpt>
      <trkpt lat="0" lon="0">
        <time>2020-12-06T10:25:45.927000+00:00</time>
      </trkpt>
      <trkpt lat="0" lon="0">
        <time>2020-12-06T10:25:45.929000+00:00</time>
      </trkpt>
      <trkpt lat="0" lon="0">
        <time>2020-12-06T10:25:45.930000+00:00</time>
      </trkpt>
      <trkpt lat="47.32592" lon="-1.39308">
        <ele>70</ele>
        <time>2020-12-06T10:25:46.958000+00:00</time>
      </trkpt>
      <trkpt lat="0" lon="0">
        <time>2020-12-06T10:25:46.974000+00:00</time>
      </trkpt>
      <trkpt lat="0" lon="0">
        <time>2020-12-06T10:25:46.984000+00:00</time>
      </trkpt>
      <trkpt lat="0" lon="0">
        <time>2020-12-06T10:25:46.989000+00:00</time>
      </trkpt>
      <trkpt lat="47.3259" lon="-1.39314">
        <ele>70</ele>
        <time>2020-12-06T10:25:47.899000+00:00</time>
      </trkpt>
      <trkpt lat="0" lon="0">
        <time>2020-12-06T10:25:47.912000+00:00</time>
      </trkpt>
      <trkpt lat="0" lon="0">
        <time>2020-12-06T10:25:47.913000+00:00</time>
      </trkpt>
      <trkpt lat="0" lon="0">
        <time>2020-12-06T10:25:47.915000+00:00</time>
      </trkpt>
      <trkpt lat="47.32588" lon="-1.3932">
        <ele>70</ele>
        <time>2020-12-06T10:25:48.922000+00:00</time>
      </trkpt>
      <trkpt lat="0" lon="0">
        <time>2020-12-06T10:25:48.930000+00:00</time>
      </trkpt>
      <trkpt lat="0" lon="0">
        <time>2020-12-06T10:25:48.937000+00:00</time>
      </trkpt>
      <trkpt lat="0" lon="0">
        <time>2020-12-06T10:25:48.941000+00:00</time>
      </trkpt>
      <trkpt lat="47.32586" lon="-1.39325">
        <ele>70</ele>
        <time>2020-12-06T10:25:49.927000+00:00</time>
      </trkpt>
      <trkpt lat="0" lon="0">
        <time>2020-12-06T10:25:49.939000+00:00</time>
      </trkpt>
      <trkpt lat="0" lon="0">
        <time>2020-12-06T10:25:49.942000+00:00</time>
      </trkpt>
      <trkpt lat="0" lon="0">
        <time>2020-12-06T10:25:49.944000+00:00</time>
      </trkpt>
      <trkpt lat="47.32583" lon="-1.39329">
        <ele>70</ele>
        <time>2020-12-06T10:25:50.931000+00:00</time>
      </trkpt>
      <trkpt lat="0" lon="0">
        <time>2020-12-06T10:25:50.940000+00:00</time>
      </trkpt>
      <trkpt lat="0" lon="0">
        <time>2020-12-06T10:25:50.946000+00:00</time>
      </trkpt>
      <trkpt lat="0" lon="0">
        <time>2020-12-06T10:25:50.952000+00:00</time>
      </trkpt>
      <trkpt lat="47.3258" lon="-1.39333">
        <ele>69</ele>
        <time>2020-12-06T10:25:51.896000+00:00</time>
      </trkpt>
      <trkpt lat="0" lon="0">
        <time>2020-12-06T10:25:51.899000+00:00</time>
      </trkpt>
      <trkpt lat="0" lon="0">
        <time>2020-12-06T10:25:51.919000+00:00</time>
      </trkpt>
      <trkpt lat="0" lon="0">
        <time>2020-12-06T10:25:51.922000+00:00</time>
      </trkpt>
      <trkpt lat="47.32577" lon="-1.39337">
        <ele>69</ele>
        <time>2020-12-06T10:25:52.887000+00:00</time>
      </trkpt>
      <trkpt lat="0" lon="0">
        <time>2020-12-06T10:25:52.898000+00:00</time>
      </trkpt>
      <trkpt lat="0" lon="0">
        <time>2020-12-06T10:25:52.901000+00:00</time>
      </trkpt>
      <trkpt lat="0" lon="0">
        <time>2020-12-06T10:25:52.905000+00:00</time>
      </trkpt>
      <trkpt lat="47.32573" lon="-1.39339">
        <ele>69</ele>
        <time>2020-12-06T10:25:53.865000+00:00</time>
      </trkpt>
      <trkpt lat="0" lon="0">
        <time>2020-12-06T10:25:53.883000+00:00</time>
      </trkpt>
      <trkpt lat="0" lon="0">
        <time>2020-12-06T10:25:53.889000+00:00</time>
      </trkpt>
      <trkpt lat="0" lon="0">
        <time>2020-12-06T10:25:53.891000+00:00</time>
      </trkpt>
      <trkpt lat="47.32569" lon="-1.39341">
        <ele>69</ele>
        <time>2020-12-06T10:25:54.845000+00:00</time>
      </trkpt>
      <trkpt lat="0" lon="0">
        <time>2020-12-06T10:25:54.851000+00:00</time>
      </trkpt>
      <trkpt lat="0" lon="0">
        <time>2020-12-06T10:25:54.860000+00:00</time>
      </trkpt>
      <trkpt lat="0" lon="0">
        <time>2020-12-06T10:25:54.863000+00:00</time>
      </trkpt>
      <trkpt lat="47.32563" lon="-1.39342">
        <ele>69</ele>
        <time>2020-12-06T10:25:55.873000+00:00</time>
      </trkpt>
      <trkpt lat="0" lon="0">
        <time>2020-12-06T10:25:55.878000+00:00</time>
      </trkpt>
      <trkpt lat="0" lon="0">
        <time>2020-12-06T10:25:55.894000+00:00</time>
      </trkpt>
      <trkpt lat="0" lon="0">
        <time>2020-12-06T10:25:55.896000+00:00</time>
      </trkpt>
      <trkpt lat="47.32558" lon="-1.39342">
        <ele>69</ele>
        <time>2020-12-06T10:25:56.905000+00:00</time>
      </trkpt>
      <trkpt lat="0" lon="0">
        <time>2020-12-06T10:25:56.911000+00:00</time>
      </trkpt>
      <trkpt lat="0" lon="0">
        <time>2020-12-06T10:25:56.913000+00:00</time>
      </trkpt>
      <trkpt lat="0" lon="0">
        <time>2020-12-06T10:25:56.914000+00:00</time>
      </trkpt>
      <trkpt lat="47.32552" lon="-1.39342">
        <ele>69</ele>
        <time>2020-12-06T10:25:57.880000+00:00</time>
      </trkpt>
      <trkpt lat="0" lon="0">
        <time>2020-12-06T10:25:57.885000+00:00</time>
      </trkpt>
      <trkpt lat="0" lon="0">
        <time>2020-12-06T10:25:57.894000+00:00</time>
      </trkpt>
      <trkpt lat="0" lon="0">
        <time>2020-12-06T10:25:57.897000+00:00</time>
      </trkpt>
      <trkpt lat="47.32546" lon="-1.39342">
        <ele>69</ele>
        <time>2020-12-06T10:25:58.898000+00:00</time>
      </trkpt>
      <trkpt lat="0" lon="0">
        <time>2020-12-06T10:25:58.923000+00:00</time>
      </trkpt>
      <trkpt lat="0" lon="0">
        <time>2020-12-06T10:25:58.928000+00:00</time>
      </trkpt>
      <trkpt lat="0" lon="0">
        <time>2020-12-06T10:25:58.930000+00:00</time>
      </trkpt>
      <trkpt lat="47.3254" lon="-1.39342">
        <ele>69</ele>
        <time>2020-12-06T10:25:59.865000+00:00</time>
      </trkpt>
      <trkpt lat="0" lon="0">
        <time>2020-12-06T10:25:59.870000+00:00</time>
      </trkpt>
      <trkpt lat="0" lon="0">
        <time>2020-12-06T10:25:59.874000+00:00</time>
      </trkpt>
      <trkpt lat="0" lon="0">
        <time>2020-12-06T10:25:59.877000+00:00</time>
      </trkpt>
      <trkpt lat="47.32533" lon="-1.39343">
        <ele>69</ele>
        <time>2020-12-06T10:26:00.892000+00:00</time>
      </trkpt>
      <trkpt lat="0" lon="0">
        <time>2020-12-06T10:26:00.895000+00:00</time>
      </trkpt>
      <trkpt lat="0" lon="0">
        <time>2020-12-06T10:26:00.906000+00:00</time>
      </trkpt>
      <trkpt lat="0" lon="0">
        <time>2020-12-06T10:26:00.910000+00:00</time>
      </trkpt>
      <trkpt lat="47.32526" lon="-1.39344">
        <ele>69</ele>
        <time>2020-12-06T10:26:01.890000+00:00</time>
      </trkpt>
      <trkpt lat="0" lon="0">
        <time>2020-12-06T10:26:01.897000+00:00</time>
      </trkpt>
      <trkpt lat="0" lon="0">
        <time>2020-12-06T10:26:01.901000+00:00</time>
      </trkpt>
      <trkpt lat="0" lon="0">
        <time>2020-12-06T10:26:01.903000+00:00</time>
      </trkpt>
      <trkpt lat="47.3252" lon="-1.39345">
        <ele>69</ele>
        <time>2020-12-06T10:26:02.856000+00:00</time>
      </trkpt>
      <trkpt lat="0" lon="0">
        <time>2020-12-06T10:26:02.863000+00:00</time>
      </trkpt>
      <trkpt lat="0" lon="0">
        <time>2020-12-06T10:26:02.866000+00:00</time>
      </trkpt>
      <trkpt lat="0" lon="0">
        <time>2020-12-06T10:26:02.867000+00:00</time>
      </trkpt>
      <trkpt lat="47.32513" lon="-1.39347">
        <ele>68</ele>
        <time>2020-12-06T10:26:03.893000+00:00</time>
      </trkpt>
      <trkpt lat="0" lon="0">
        <time>2020-12-06T10:26:03.901000+00:00</time>
      </trkpt>
      <trkpt lat="0" lon="0">
        <time>2020-12-06T10:26:03.906000+00:00</time>
      </trkpt>
      <trkpt lat="0" lon="0">
        <time>2020-12-06T10:26:03.908000+00:00</time>
      </trkpt>
      <trkpt lat="47.32506" lon="-1.39349">
        <ele>68</ele>
        <time>2020-12-06T10:26:04.862000+00:00</time>
      </trkpt>
      <trkpt lat="0" lon="0">
        <time>2020-12-06T10:26:04.870000+00:00</time>
      </trkpt>
      <trkpt lat="0" lon="0">
        <time>2020-12-06T10:26:04.874000+00:00</time>
      </trkpt>
      <trkpt lat="0" lon="0">
        <time>2020-12-06T10:26:04.877000+00:00</time>
      </trkpt>
      <trkpt lat="47.32499" lon="-1.39352">
        <ele>68</ele>
        <time>2020-12-06T10:26:05.857000+00:00</time>
      </trkpt>
      <trkpt lat="0" lon="0">
        <time>2020-12-06T10:26:05.869000+00:00</time>
      </trkpt>
      <trkpt lat="0" lon="0">
        <time>2020-12-06T10:26:05.873000+00:00</time>
      </trkpt>
      <trkpt lat="0" lon="0">
        <time>2020-12-06T10:26:05.874000+00:00</time>
      </trkpt>
      <trkpt lat="47.32493" lon="-1.39355">
        <ele>68</ele>
        <time>2020-12-06T10:26:06.884000+00:00</time>
      </trkpt>
      <trkpt lat="0" lon="0">
        <time>2020-12-06T10:26:06.896000+00:00</time>
      </trkpt>
      <trkpt lat="0" lon="0">
        <time>2020-12-06T10:26:06.909000+00:00</time>
      </trkpt>
      <trkpt lat="0" lon="0">
        <time>2020-12-06T10:26:06.913000+00:00</time>
      </trkpt>
      <trkpt lat="47.32486" lon="-1.39359">
        <ele>68</ele>
        <time>2020-12-06T10:26:07.959000+00:00</time>
      </trkpt>
      <trkpt lat="0" lon="0">
        <time>2020-12-06T10:26:07.973000+00:00</time>
      </trkpt>
      <trkpt lat="0" lon="0">
        <time>2020-12-06T10:26:07.980000+00:00</time>
      </trkpt>
      <trkpt lat="0" lon="0">
        <time>2020-12-06T10:26:07.982000+00:00</time>
      </trkpt>
      <trkpt lat="47.32479" lon="-1.39363">
        <ele>68</ele>
        <time>2020-12-06T10:26:08.868000+00:00</time>
      </trkpt>
      <trkpt lat="0" lon="0">
        <time>2020-12-06T10:26:08.872000+00:00</time>
      </trkpt>
      <trkpt lat="0" lon="0">
        <time>2020-12-06T10:26:08.882000+00:00</time>
      </trkpt>
      <trkpt lat="0" lon="0">
        <time>2020-12-06T10:26:08.888000+00:00</time>
      </trkpt>
      <trkpt lat="47.32471" lon="-1.39366">
        <ele>68</ele>
        <time>2020-12-06T10:26:09.859000+00:00</time>
      </trkpt>
      <trkpt lat="0" lon="0">
        <time>2020-12-06T10:26:09.862000+00:00</time>
      </trkpt>
      <trkpt lat="0" lon="0">
        <time>2020-12-06T10:26:09.867000+00:00</time>
      </trkpt>
      <trkpt lat="0" lon="0">
        <time>2020-12-06T10:26:09.868000+00:00</time>
      </trkpt>
      <trkpt lat="47.32464" lon="-1.3937">
        <ele>68</ele>
        <time>2020-12-06T10:26:10.892000+00:00</time>
      </trkpt>
      <trkpt lat="0" lon="0">
        <time>2020-12-06T10:26:10.901000+00:00</time>
      </trkpt>
      <trkpt lat="0" lon="0">
        <time>2020-12-06T10:26:10.907000+00:00</time>
      </trkpt>
      <trkpt lat="0" lon="0">
        <time>2020-12-06T10:26:10.913000+00:00</time>
      </trkpt>
      <trkpt lat="47.32458" lon="-1.39374">
        <ele>68</ele>
        <time>2020-12-06T10:26:11.905000+00:00</time>
      </trkpt>
      <trkpt lat="0" lon="0">
        <time>2020-12-06T10:26:11.920000+00:00</time>
      </trkpt>
      <trkpt lat="0" lon="0">
        <time>2020-12-06T10:26:11.926000+00:00</time>
      </trkpt>
      <trkpt lat="0" lon="0">
        <time>2020-12-06T10:26:11.928000+00:00</time>
      </trkpt>
      <trkpt lat="47.32451" lon="-1.39379">
        <ele>68</ele>
        <time>2020-12-06T10:26:12.919000+00:00</time>
      </trkpt>
      <trkpt lat="0" lon="0">
        <time>2020-12-06T10:26:12.926000+00:00</time>
      </trkpt>
      <trkpt lat="0" lon="0">
        <time>2020-12-06T10:26:12.929000+00:00</time>
      </trkpt>
      <trkpt lat="0" lon="0">
        <time>2020-12-06T10:26:12.931000+00:00</time>
      </trkpt>
      <trkpt lat="47.32446" lon="-1.39384">
        <ele>68</ele>
        <time>2020-12-06T10:26:13.858000+00:00</time>
      </trkpt>
      <trkpt lat="0" lon="0">
        <time>2020-12-06T10:26:13.868000+00:00</time>
      </trkpt>
      <trkpt lat="0" lon="0">
        <time>2020-12-06T10:26:13.875000+00:00</time>
      </trkpt>
      <trkpt lat="0" lon="0">
        <time>2020-12-06T10:26:13.878000+00:00</time>
      </trkpt>
      <trkpt lat="47.3244" lon="-1.3939">
        <ele>68</ele>
        <time>2020-12-06T10:26:14.859000+00:00</time>
      </trkpt>
      <trkpt lat="0" lon="0">
        <time>2020-12-06T10:26:14.866000+00:00</time>
      </trkpt>
      <trkpt lat="0" lon="0">
        <time>2020-12-06T10:26:14.871000+00:00</time>
      </trkpt>
      <trkpt lat="0" lon="0">
        <time>2020-12-06T10:26:14.873000+00:00</time>
      </trkpt>
      <trkpt lat="47.32436" lon="-1.39397">
        <ele>68</ele>
        <time>2020-12-06T10:26:15.898000+00:00</time>
      </trkpt>
      <trkpt lat="0" lon="0">
        <time>2020-12-06T10:26:15.903000+00:00</time>
      </trkpt>
      <trkpt lat="0" lon="0">
        <time>2020-12-06T10:26:15.905000+00:00</time>
      </trkpt>
      <trkpt lat="0" lon="0">
        <time>2020-12-06T10:26:15.906000+00:00</time>
      </trkpt>
      <trkpt lat="47.32432" lon="-1.39404">
        <ele>68</ele>
        <time>2020-12-06T10:26:16.946000+00:00</time>
      </trkpt>
      <trkpt lat="0" lon="0">
        <time>2020-12-06T10:26:16.956000+00:00</time>
      </trkpt>
      <trkpt lat="0" lon="0">
        <time>2020-12-06T10:26:16.961000+00:00</time>
      </trkpt>
      <trkpt lat="0" lon="0">
        <time>2020-12-06T10:26:16.962000+00:00</time>
      </trkpt>
      <trkpt lat="47.32429" lon="-1.39412">
        <ele>68</ele>
        <time>2020-12-06T10:26:17.893000+00:00</time>
      </trkpt>
      <trkpt lat="0" lon="0">
        <time>2020-12-06T10:26:17.904000+00:00</time>
      </trkpt>
      <trkpt lat="0" lon="0">
        <time>2020-12-06T10:26:17.911000+00:00</time>
      </trkpt>
      <trkpt lat="0" lon="0">
        <time>2020-12-06T10:26:17.913000+00:00</time>
      </trkpt>
      <trkpt lat="47.32425" lon="-1.3942">
        <ele>68</ele>
        <time>2020-12-06T10:26:18.887000+00:00</time>
      </trkpt>
      <trkpt lat="0" lon="0">
        <time>2020-12-06T10:26:18.893000+00:00</time>
      </trkpt>
      <trkpt lat="0" lon="0">
        <time>2020-12-06T10:26:18.894000+00:00</time>
      </trkpt>
      <trkpt lat="0" lon="0">
        <time>2020-12-06T10:26:18.895000+00:00</time>
      </trkpt>
      <trkpt lat="47.32423" lon="-1.39428">
        <ele>68</ele>
        <time>2020-12-06T10:26:19.894000+00:00</time>
      </trkpt>
      <trkpt lat="0" lon="0">
        <time>2020-12-06T10:26:19.907000+00:00</time>
      </trkpt>
      <trkpt lat="0" lon="0">
        <time>2020-12-06T10:26:19.910000+00:00</time>
      </trkpt>
      <trkpt lat="0" lon="0">
        <time>2020-12-06T10:26:19.912000+00:00</time>
      </trkpt>
      <trkpt lat="47.3242" lon="-1.39436">
        <ele>68</ele>
        <time>2020-12-06T10:26:20.915000+00:00</time>
      </trkpt>
      <trkpt lat="0" lon="0">
        <time>2020-12-06T10:26:20.919000+00:00</time>
      </trkpt>
      <trkpt lat="0" lon="0">
        <time>2020-12-06T10:26:20.923000+00:00</time>
      </trkpt>
      <trkpt lat="0" lon="0">
        <time>2020-12-06T10:26:20.925000+00:00</time>
      </trkpt>
      <trkpt lat="47.32418" lon="-1.39443">
        <ele>68</ele>
        <time>2020-12-06T10:26:21.901000+00:00</time>
      </trkpt>
      <trkpt lat="0" lon="0">
        <time>2020-12-06T10:26:21.903000+00:00</time>
      </trkpt>
      <trkpt lat="0" lon="0">
        <time>2020-12-06T10:26:21.905000+00:00</time>
      </trkpt>
      <trkpt lat="47.32416" lon="-1.39451">
        <ele>68</ele>
        <time>2020-12-06T10:26:22.908000+00:00</time>
      </trkpt>
      <trkpt lat="0" lon="0">
        <time>2020-12-06T10:26:22.918000+00:00</time>
      </trkpt>
      <trkpt lat="0" lon="0">
        <time>2020-12-06T10:26:22.923000+00:00</time>
      </trkpt>
      <trkpt lat="0" lon="0">
        <time>2020-12-06T10:26:22.929000+00:00</time>
      </trkpt>
      <trkpt lat="47.32413" lon="-1.39458">
        <ele>68</ele>
        <time>2020-12-06T10:26:23.890000+00:00</time>
      </trkpt>
      <trkpt lat="0" lon="0">
        <time>2020-12-06T10:26:23.906000+00:00</time>
      </trkpt>
      <trkpt lat="0" lon="0">
        <time>2020-12-06T10:26:23.912000+00:00</time>
      </trkpt>
      <trkpt lat="0" lon="0">
        <time>2020-12-06T10:26:23.914000+00:00</time>
      </trkpt>
      <trkpt lat="47.32411" lon="-1.39465">
        <ele>68</ele>
        <time>2020-12-06T10:26:24.819000+00:00</time>
      </trkpt>
      <trkpt lat="0" lon="0">
        <time>2020-12-06T10:26:24.821000+00:00</time>
      </trkpt>
      <trkpt lat="0" lon="0">
        <time>2020-12-06T10:26:24.827000+00:00</time>
      </trkpt>
      <trkpt lat="0" lon="0">
        <time>2020-12-06T10:26:24.829000+00:00</time>
      </trkpt>
      <trkpt lat="47.32409" lon="-1.39471">
        <ele>68</ele>
        <time>2020-12-06T10:26:25.911000+00:00</time>
      </trkpt>
      <trkpt lat="0" lon="0">
        <time>2020-12-06T10:26:25.919000+00:00</time>
      </trkpt>
      <trkpt lat="0" lon="0">
        <time>2020-12-06T10:26:25.924000+00:00</time>
      </trkpt>
      <trkpt lat="0" lon="0">
        <time>2020-12-06T10:26:25.927000+00:00</time>
      </trkpt>
      <trkpt lat="47.32406" lon="-1.39478">
        <ele>68</ele>
        <time>2020-12-06T10:26:26.919000+00:00</time>
      </trkpt>
      <trkpt lat="0" lon="0">
        <time>2020-12-06T10:26:26.932000+00:00</time>
      </trkpt>
      <trkpt lat="0" lon="0">
        <time>2020-12-06T10:26:26.940000+00:00</time>
      </trkpt>
      <trkpt lat="0" lon="0">
        <time>2020-12-06T10:26:26.942000+00:00</time>
      </trkpt>
      <trkpt lat="47.32404" lon="-1.39484">
        <ele>68</ele>
        <time>2020-12-06T10:26:27.895000+00:00</time>
      </trkpt>
      <trkpt lat="0" lon="0">
        <time>2020-12-06T10:26:27.914000+00:00</time>
      </trkpt>
      <trkpt lat="0" lon="0">
        <time>2020-12-06T10:26:27.918000+00:00</time>
      </trkpt>
      <trkpt lat="0" lon="0">
        <time>2020-12-06T10:26:27.920000+00:00</time>
      </trkpt>
      <trkpt lat="47.32402" lon="-1.3949">
        <ele>68</ele>
        <time>2020-12-06T10:26:28.876000+00:00</time>
      </trkpt>
      <trkpt lat="0" lon="0">
        <time>2020-12-06T10:26:28.881000+00:00</time>
      </trkpt>
      <trkpt lat="0" lon="0">
        <time>2020-12-06T10:26:28.893000+00:00</time>
      </trkpt>
      <trkpt lat="0" lon="0">
        <time>2020-12-06T10:26:28.902000+00:00</time>
      </trkpt>
      <trkpt lat="47.32399" lon="-1.39496">
        <ele>68</ele>
        <time>2020-12-06T10:26:29.903000+00:00</time>
      </trkpt>
      <trkpt lat="0" lon="0">
        <time>2020-12-06T10:26:29.918000+00:00</time>
      </trkpt>
      <trkpt lat="0" lon="0">
        <time>2020-12-06T10:26:29.924000+00:00</time>
      </trkpt>
      <trkpt lat="0" lon="0">
        <time>2020-12-06T10:26:29.925000+00:00</time>
      </trkpt>
      <trkpt lat="47.32397" lon="-1.39501">
        <ele>68</ele>
        <time>2020-12-06T10:26:30.897000+00:00</time>
      </trkpt>
      <trkpt lat="0" lon="0">
        <time>2020-12-06T10:26:30.919000+00:00</time>
      </trkpt>
      <trkpt lat="0" lon="0">
        <time>2020-12-06T10:26:30.927000+00:00</time>
      </trkpt>
      <trkpt lat="0" lon="0">
        <time>2020-12-06T10:26:30.928000+00:00</time>
      </trkpt>
      <trkpt lat="47.32394" lon="-1.39506">
        <ele>68</ele>
        <time>2020-12-06T10:26:31.895000+00:00</time>
      </trkpt>
      <trkpt lat="0" lon="0">
        <time>2020-12-06T10:26:31.913000+00:00</time>
      </trkpt>
      <trkpt lat="0" lon="0">
        <time>2020-12-06T10:26:31.916000+00:00</time>
      </trkpt>
      <trkpt lat="0" lon="0">
        <time>2020-12-06T10:26:31.919000+00:00</time>
      </trkpt>
      <trkpt lat="47.32392" lon="-1.3951">
        <ele>68</ele>
        <time>2020-12-06T10:26:32.909000+00:00</time>
      </trkpt>
      <trkpt lat="0" lon="0">
        <time>2020-12-06T10:26:32.925000+00:00</time>
      </trkpt>
      <trkpt lat="0" lon="0">
        <time>2020-12-06T10:26:32.928000+00:00</time>
      </trkpt>
      <trkpt lat="0" lon="0">
        <time>2020-12-06T10:26:32.933000+00:00</time>
      </trkpt>
      <trkpt lat="47.3239" lon="-1.39513">
        <ele>68</ele>
        <time>2020-12-06T10:26:33.895000+00:00</time>
      </trkpt>
      <trkpt lat="0" lon="0">
        <time>2020-12-06T10:26:33.914000+00:00</time>
      </trkpt>
      <trkpt lat="0" lon="0">
        <time>2020-12-06T10:26:33.917000+00:00</time>
      </trkpt>
      <trkpt lat="0" lon="0">
        <time>2020-12-06T10:26:33.919000+00:00</time>
      </trkpt>
      <trkpt lat="47.32387" lon="-1.39516">
        <ele>68</ele>
        <time>2020-12-06T10:26:34.889000+00:00</time>
      </trkpt>
      <trkpt lat="0" lon="0">
        <time>2020-12-06T10:26:34.899000+00:00</time>
      </trkpt>
      <trkpt lat="0" lon="0">
        <time>2020-12-06T10:26:34.902000+00:00</time>
      </trkpt>
      <trkpt lat="0" lon="0">
        <time>2020-12-06T10:26:34.905000+00:00</time>
      </trkpt>
      <trkpt lat="47.32385" lon="-1.39517">
        <ele>68</ele>
        <time>2020-12-06T10:26:35.909000+00:00</time>
      </trkpt>
      <trkpt lat="0" lon="0">
        <time>2020-12-06T10:26:35.912000+00:00</time>
      </trkpt>
      <trkpt lat="0" lon="0">
        <time>2020-12-06T10:26:35.916000+00:00</time>
      </trkpt>
      <trkpt lat="0" lon="0">
        <time>2020-12-06T10:26:35.921000+00:00</time>
      </trkpt>
      <trkpt lat="47.32383" lon="-1.39518">
        <ele>68</ele>
        <time>2020-12-06T10:26:36.911000+00:00</time>
      </trkpt>
      <trkpt lat="0" lon="0">
        <time>2020-12-06T10:26:36.914000+00:00</time>
      </trkpt>
      <trkpt lat="0" lon="0">
        <time>2020-12-06T10:26:36.921000+00:00</time>
      </trkpt>
      <trkpt lat="0" lon="0">
        <time>2020-12-06T10:26:36.923000+00:00</time>
      </trkpt>
      <trkpt lat="47.32381" lon="-1.3952">
        <ele>68</ele>
        <time>2020-12-06T10:26:37.901000+00:00</time>
      </trkpt>
      <trkpt lat="0" lon="0">
        <time>2020-12-06T10:26:37.908000+00:00</time>
      </trkpt>
      <trkpt lat="0" lon="0">
        <time>2020-12-06T10:26:37.911000+00:00</time>
      </trkpt>
      <trkpt lat="0" lon="0">
        <time>2020-12-06T10:26:37.915000+00:00</time>
      </trkpt>
      <trkpt lat="47.32378" lon="-1.39521">
        <ele>68</ele>
        <time>2020-12-06T10:26:38.900000+00:00</time>
      </trkpt>
      <trkpt lat="0" lon="0">
        <time>2020-12-06T10:26:38.909000+00:00</time>
      </trkpt>
      <trkpt lat="0" lon="0">
        <time>2020-12-06T10:26:38.914000+00:00</time>
      </trkpt>
      <trkpt lat="0" lon="0">
        <time>2020-12-06T10:26:38.917000+00:00</time>
      </trkpt>
      <trkpt lat="47.32375" lon="-1.39522">
        <ele>68</ele>
        <time>2020-12-06T10:26:39.895000+00:00</time>
      </trkpt>
      <trkpt lat="0" lon="0">
        <time>2020-12-06T10:26:39.898000+00:00</time>
      </trkpt>
      <trkpt lat="0" lon="0">
        <time>2020-12-06T10:26:39.910000+00:00</time>
      </trkpt>
      <trkpt lat="0" lon="0">
        <time>2020-12-06T10:26:39.915000+00:00</time>
      </trkpt>
      <trkpt lat="47.32372" lon="-1.39523">
        <ele>68</ele>
        <time>2020-12-06T10:26:40.900000+00:00</time>
      </trkpt>
      <trkpt lat="0" lon="0">
        <time>2020-12-06T10:26:40.905000+00:00</time>
      </trkpt>
      <trkpt lat="0" lon="0">
        <time>2020-12-06T10:26:40.910000+00:00</time>
      </trkpt>
      <trkpt lat="0" lon="0">
        <time>2020-12-06T10:26:40.911000+00:00</time>
      </trkpt>
      <trkpt lat="47.32369" lon="-1.39524">
        <ele>68</ele>
        <time>2020-12-06T10:26:41.901000+00:00</time>
      </trkpt>
      <trkpt lat="0" lon="0">
        <time>2020-12-06T10:26:41.910000+00:00</time>
      </trkpt>
      <trkpt lat="0" lon="0">
        <time>2020-12-06T10:26:41.914000+00:00</time>
      </trkpt>
      <trkpt lat="0" lon="0">
        <time>2020-12-06T10:26:41.916000+00:00</time>
      </trkpt>
      <trkpt lat="47.32366" lon="-1.39526">
        <ele>68</ele>
        <time>2020-12-06T10:26:42.904000+00:00</time>
      </trkpt>
      <trkpt lat="0" lon="0">
        <time>2020-12-06T10:26:42.907000+00:00</time>
      </trkpt>
      <trkpt lat="0" lon="0">
        <time>2020-12-06T10:26:42.914000+00:00</time>
      </trkpt>
      <trkpt lat="0" lon="0">
        <time>2020-12-06T10:26:42.919000+00:00</time>
      </trkpt>
      <trkpt lat="47.32362" lon="-1.39528">
        <ele>68</ele>
        <time>2020-12-06T10:26:43.907000+00:00</time>
      </trkpt>
      <trkpt lat="0" lon="0">
        <time>2020-12-06T10:26:43.908000+00:00</time>
      </trkpt>
      <trkpt lat="0" lon="0">
        <time>2020-12-06T10:26:43.909000+00:00</time>
      </trkpt>
      <trkpt lat="0" lon="0">
        <time>2020-12-06T10:26:43.911000+00:00</time>
      </trkpt>
      <trkpt lat="47.32358" lon="-1.39531">
        <ele>68</ele>
        <time>2020-12-06T10:26:44.896000+00:00</time>
      </trkpt>
      <trkpt lat="0" lon="0">
        <time>2020-12-06T10:26:44.904000+00:00</time>
      </trkpt>
      <trkpt lat="0" lon="0">
        <time>2020-12-06T10:26:44.911000+00:00</time>
      </trkpt>
      <trkpt lat="0" lon="0">
        <time>2020-12-06T10:26:44.912000+00:00</time>
      </trkpt>
      <trkpt lat="47.32354" lon="-1.39534">
        <ele>68</ele>
        <time>2020-12-06T10:26:45.899000+00:00</time>
      </trkpt>
      <trkpt lat="0" lon="0">
        <time>2020-12-06T10:26:45.926000+00:00</time>
      </trkpt>
      <trkpt lat="0" lon="0">
        <time>2020-12-06T10:26:45.930000+00:00</time>
      </trkpt>
      <trkpt lat="0" lon="0">
        <time>2020-12-06T10:26:45.931000+00:00</time>
      </trkpt>
      <trkpt lat="47.3235" lon="-1.39538">
        <ele>68</ele>
        <time>2020-12-06T10:26:46.897000+00:00</time>
      </trkpt>
      <trkpt lat="0" lon="0">
        <time>2020-12-06T10:26:46.908000+00:00</time>
      </trkpt>
      <trkpt lat="0" lon="0">
        <time>2020-12-06T10:26:46.911000+00:00</time>
      </trkpt>
      <trkpt lat="0" lon="0">
        <time>2020-12-06T10:26:46.914000+00:00</time>
      </trkpt>
      <trkpt lat="47.32345" lon="-1.39542">
        <ele>68</ele>
        <time>2020-12-06T10:26:47.888000+00:00</time>
      </trkpt>
      <trkpt lat="0" lon="0">
        <time>2020-12-06T10:26:47.902000+00:00</time>
      </trkpt>
      <trkpt lat="0" lon="0">
        <time>2020-12-06T10:26:47.908000+00:00</time>
      </trkpt>
      <trkpt lat="0" lon="0">
        <time>2020-12-06T10:26:47.910000+00:00</time>
      </trkpt>
      <trkpt lat="47.32341" lon="-1.39547">
        <ele>68</ele>
        <time>2020-12-06T10:26:48.915000+00:00</time>
      </trkpt>
      <trkpt lat="0" lon="0">
        <time>2020-12-06T10:26:48.926000+00:00</time>
      </trkpt>
      <trkpt lat="0" lon="0">
        <time>2020-12-06T10:26:48.936000+00:00</time>
      </trkpt>
      <trkpt lat="0" lon="0">
        <time>2020-12-06T10:26:48.942000+00:00</time>
      </trkpt>
      <trkpt lat="47.32337" lon="-1.39551">
        <ele>68</ele>
        <time>2020-12-06T10:26:49.911000+00:00</time>
      </trkpt>
      <trkpt lat="0" lon="0">
        <time>2020-12-06T10:26:49.915000+00:00</time>
      </trkpt>
      <trkpt lat="0" lon="0">
        <time>2020-12-06T10:26:49.934000+00:00</time>
      </trkpt>
      <trkpt lat="0" lon="0">
        <time>2020-12-06T10:26:49.937000+00:00</time>
      </trkpt>
      <trkpt lat="47.32333" lon="-1.39556">
        <ele>67</ele>
        <time>2020-12-06T10:26:50.893000+00:00</time>
      </trkpt>
      <trkpt lat="0" lon="0">
        <time>2020-12-06T10:26:50.896000+00:00</time>
      </trkpt>
      <trkpt lat="0" lon="0">
        <time>2020-12-06T10:26:50.902000+00:00</time>
      </trkpt>
      <trkpt lat="0" lon="0">
        <time>2020-12-06T10:26:50.904000+00:00</time>
      </trkpt>
      <trkpt lat="47.32329" lon="-1.3956">
        <ele>67</ele>
        <time>2020-12-06T10:26:51.853000+00:00</time>
      </trkpt>
      <trkpt lat="0" lon="0">
        <time>2020-12-06T10:26:51.868000+00:00</time>
      </trkpt>
      <trkpt lat="0" lon="0">
        <time>2020-12-06T10:26:51.876000+00:00</time>
      </trkpt>
      <trkpt lat="0" lon="0">
        <time>2020-12-06T10:26:51.881000+00:00</time>
      </trkpt>
      <trkpt lat="47.32326" lon="-1.39565">
        <ele>67</ele>
        <time>2020-12-06T10:26:52.903000+00:00</time>
      </trkpt>
      <trkpt lat="0" lon="0">
        <time>2020-12-06T10:26:52.916000+00:00</time>
      </trkpt>
      <trkpt lat="0" lon="0">
        <time>2020-12-06T10:26:52.924000+00:00</time>
      </trkpt>
      <trkpt lat="0" lon="0">
        <time>2020-12-06T10:26:52.925000+00:00</time>
      </trkpt>
      <trkpt lat="47.32322" lon="-1.39569">
        <ele>67</ele>
        <time>2020-12-06T10:26:53.908000+00:00</time>
      </trkpt>
      <trkpt lat="0" lon="0">
        <time>2020-12-06T10:26:53.917000+00:00</time>
      </trkpt>
      <trkpt lat="0" lon="0">
        <time>2020-12-06T10:26:53.926000+00:00</time>
      </trkpt>
      <trkpt lat="0" lon="0">
        <time>2020-12-06T10:26:53.929000+00:00</time>
      </trkpt>
      <trkpt lat="47.3232" lon="-1.39573">
        <ele>67</ele>
        <time>2020-12-06T10:26:54.902000+00:00</time>
      </trkpt>
      <trkpt lat="0" lon="0">
        <time>2020-12-06T10:26:54.908000+00:00</time>
      </trkpt>
      <trkpt lat="0" lon="0">
        <time>2020-12-06T10:26:54.912000+00:00</time>
      </trkpt>
      <trkpt lat="0" lon="0">
        <time>2020-12-06T10:26:54.914000+00:00</time>
      </trkpt>
      <trkpt lat="47.32317" lon="-1.39578">
        <ele>67</ele>
        <time>2020-12-06T10:26:55.903000+00:00</time>
      </trkpt>
      <trkpt lat="0" lon="0">
        <time>2020-12-06T10:26:55.910000+00:00</time>
      </trkpt>
      <trkpt lat="0" lon="0">
        <time>2020-12-06T10:26:55.913000+00:00</time>
      </trkpt>
      <trkpt lat="0" lon="0">
        <time>2020-12-06T10:26:55.915000+00:00</time>
      </trkpt>
      <trkpt lat="47.32316" lon="-1.39582">
        <ele>67</ele>
        <time>2020-12-06T10:26:56.852000+00:00</time>
      </trkpt>
      <trkpt lat="0" lon="0">
        <time>2020-12-06T10:26:56.857000+00:00</time>
      </trkpt>
      <trkpt lat="0" lon="0">
        <time>2020-12-06T10:26:56.862000+00:00</time>
      </trkpt>
      <trkpt lat="0" lon="0">
        <time>2020-12-06T10:26:56.863000+00:00</time>
      </trkpt>
      <trkpt lat="47.32314" lon="-1.39586">
        <ele>67</ele>
        <time>2020-12-06T10:26:57.873000+00:00</time>
      </trkpt>
      <trkpt lat="0" lon="0">
        <time>2020-12-06T10:26:57.877000+00:00</time>
      </trkpt>
      <trkpt lat="0" lon="0">
        <time>2020-12-06T10:26:57.888000+00:00</time>
      </trkpt>
      <trkpt lat="0" lon="0">
        <time>2020-12-06T10:26:57.890000+00:00</time>
      </trkpt>
      <trkpt lat="47.32314" lon="-1.3959">
        <ele>67</ele>
        <time>2020-12-06T10:26:58.896000+00:00</time>
      </trkpt>
      <trkpt lat="0" lon="0">
        <time>2020-12-06T10:26:58.905000+00:00</time>
      </trkpt>
      <trkpt lat="0" lon="0">
        <time>2020-12-06T10:26:58.909000+00:00</time>
      </trkpt>
      <trkpt lat="0" lon="0">
        <time>2020-12-06T10:26:58.911000+00:00</time>
      </trkpt>
      <trkpt lat="47.32313" lon="-1.39594">
        <ele>67</ele>
        <time>2020-12-06T10:26:59.886000+00:00</time>
      </trkpt>
      <trkpt lat="0" lon="0">
        <time>2020-12-06T10:26:59.903000+00:00</time>
      </trkpt>
      <trkpt lat="0" lon="0">
        <time>2020-12-06T10:26:59.911000+00:00</time>
      </trkpt>
      <trkpt lat="0" lon="0">
        <time>2020-12-06T10:26:59.914000+00:00</time>
      </trkpt>
      <trkpt lat="47.32314" lon="-1.39598">
        <ele>67</ele>
        <time>2020-12-06T10:27:00.853000+00:00</time>
      </trkpt>
      <trkpt lat="0" lon="0">
        <time>2020-12-06T10:27:00.857000+00:00</time>
      </trkpt>
      <trkpt lat="0" lon="0">
        <time>2020-12-06T10:27:00.864000+00:00</time>
      </trkpt>
      <trkpt lat="0" lon="0">
        <time>2020-12-06T10:27:00.865000+00:00</time>
      </trkpt>
      <trkpt lat="47.32314" lon="-1.39602">
        <ele>67</ele>
        <time>2020-12-06T10:27:01.871000+00:00</time>
      </trkpt>
      <trkpt lat="0" lon="0">
        <time>2020-12-06T10:27:01.874000+00:00</time>
      </trkpt>
      <trkpt lat="0" lon="0">
        <time>2020-12-06T10:27:01.883000+00:00</time>
      </trkpt>
      <trkpt lat="0" lon="0">
        <time>2020-12-06T10:27:01.885000+00:00</time>
      </trkpt>
      <trkpt lat="47.32315" lon="-1.39607">
        <ele>67</ele>
        <time>2020-12-06T10:27:02.908000+00:00</time>
      </trkpt>
      <trkpt lat="0" lon="0">
        <time>2020-12-06T10:27:02.912000+00:00</time>
      </trkpt>
      <trkpt lat="0" lon="0">
        <time>2020-12-06T10:27:02.916000+00:00</time>
      </trkpt>
      <trkpt lat="0" lon="0">
        <time>2020-12-06T10:27:02.918000+00:00</time>
      </trkpt>
      <trkpt lat="47.32315" lon="-1.39612">
        <ele>67</ele>
        <time>2020-12-06T10:27:03.903000+00:00</time>
      </trkpt>
      <trkpt lat="0" lon="0">
        <time>2020-12-06T10:27:03.914000+00:00</time>
      </trkpt>
      <trkpt lat="0" lon="0">
        <time>2020-12-06T10:27:03.917000+00:00</time>
      </trkpt>
      <trkpt lat="0" lon="0">
        <time>2020-12-06T10:27:03.919000+00:00</time>
      </trkpt>
      <trkpt lat="47.32316" lon="-1.39617">
        <ele>66</ele>
        <time>2020-12-06T10:27:04.884000+00:00</time>
      </trkpt>
      <trkpt lat="0" lon="0">
        <time>2020-12-06T10:27:04.895000+00:00</time>
      </trkpt>
      <trkpt lat="0" lon="0">
        <time>2020-12-06T10:27:04.899000+00:00</time>
      </trkpt>
      <trkpt lat="0" lon="0">
        <time>2020-12-06T10:27:04.900000+00:00</time>
      </trkpt>
      <trkpt lat="47.32317" lon="-1.39623">
        <ele>66</ele>
        <time>2020-12-06T10:27:05.867000+00:00</time>
      </trkpt>
      <trkpt lat="0" lon="0">
        <time>2020-12-06T10:27:05.877000+00:00</time>
      </trkpt>
      <trkpt lat="0" lon="0">
        <time>2020-12-06T10:27:05.881000+00:00</time>
      </trkpt>
      <trkpt lat="0" lon="0">
        <time>2020-12-06T10:27:05.882000+00:00</time>
      </trkpt>
      <trkpt lat="47.32318" lon="-1.39628">
        <ele>66</ele>
        <time>2020-12-06T10:27:06.841000+00:00</time>
      </trkpt>
      <trkpt lat="0" lon="0">
        <time>2020-12-06T10:27:06.844000+00:00</time>
      </trkpt>
      <trkpt lat="0" lon="0">
        <time>2020-12-06T10:27:06.846000+00:00</time>
      </trkpt>
      <trkpt lat="0" lon="0">
        <time>2020-12-06T10:27:06.847000+00:00</time>
      </trkpt>
      <trkpt lat="47.32319" lon="-1.39633">
        <ele>66</ele>
        <time>2020-12-06T10:27:07.842000+00:00</time>
      </trkpt>
      <trkpt lat="0" lon="0">
        <time>2020-12-06T10:27:07.847000+00:00</time>
      </trkpt>
      <trkpt lat="0" lon="0">
        <time>2020-12-06T10:27:07.855000+00:00</time>
      </trkpt>
      <trkpt lat="0" lon="0">
        <time>2020-12-06T10:27:07.859000+00:00</time>
      </trkpt>
      <trkpt lat="47.32321" lon="-1.39637">
        <ele>66</ele>
        <time>2020-12-06T10:27:08.826000+00:00</time>
      </trkpt>
      <trkpt lat="0" lon="0">
        <time>2020-12-06T10:27:08.830000+00:00</time>
      </trkpt>
      <trkpt lat="0" lon="0">
        <time>2020-12-06T10:27:08.833000+00:00</time>
      </trkpt>
      <trkpt lat="0" lon="0">
        <time>2020-12-06T10:27:08.834000+00:00</time>
      </trkpt>
      <trkpt lat="47.32321" lon="-1.39642">
        <ele>66</ele>
        <time>2020-12-06T10:27:09.885000+00:00</time>
      </trkpt>
      <trkpt lat="0" lon="0">
        <time>2020-12-06T10:27:09.889000+00:00</time>
      </trkpt>
      <trkpt lat="0" lon="0">
        <time>2020-12-06T10:27:09.902000+00:00</time>
      </trkpt>
      <trkpt lat="0" lon="0">
        <time>2020-12-06T10:27:09.903000+00:00</time>
      </trkpt>
      <trkpt lat="47.32322" lon="-1.39647">
        <ele>66</ele>
        <time>2020-12-06T10:27:10.869000+00:00</time>
      </trkpt>
      <trkpt lat="0" lon="0">
        <time>2020-12-06T10:27:10.874000+00:00</time>
      </trkpt>
      <trkpt lat="0" lon="0">
        <time>2020-12-06T10:27:10.877000+00:00</time>
      </trkpt>
      <trkpt lat="0" lon="0">
        <time>2020-12-06T10:27:10.878000+00:00</time>
      </trkpt>
      <trkpt lat="47.32322" lon="-1.39651">
        <ele>66</ele>
        <time>2020-12-06T10:27:11.843000+00:00</time>
      </trkpt>
      <trkpt lat="0" lon="0">
        <time>2020-12-06T10:27:11.847000+00:00</time>
      </trkpt>
      <trkpt lat="0" lon="0">
        <time>2020-12-06T10:27:11.850000+00:00</time>
      </trkpt>
      <trkpt lat="0" lon="0">
        <time>2020-12-06T10:27:11.851000+00:00</time>
      </trkpt>
      <trkpt lat="47.32322" lon="-1.39656">
        <ele>66</ele>
        <time>2020-12-06T10:27:12.905000+00:00</time>
      </trkpt>
      <trkpt lat="0" lon="0">
        <time>2020-12-06T10:27:12.908000+00:00</time>
      </trkpt>
      <trkpt lat="0" lon="0">
        <time>2020-12-06T10:27:12.915000+00:00</time>
      </trkpt>
      <trkpt lat="0" lon="0">
        <time>2020-12-06T10:27:12.916000+00:00</time>
      </trkpt>
      <trkpt lat="47.32322" lon="-1.39661">
        <ele>66</ele>
        <time>2020-12-06T10:27:13.877000+00:00</time>
      </trkpt>
      <trkpt lat="0" lon="0">
        <time>2020-12-06T10:27:13.885000+00:00</time>
      </trkpt>
      <trkpt lat="0" lon="0">
        <time>2020-12-06T10:27:13.888000+00:00</time>
      </trkpt>
      <trkpt lat="0" lon="0">
        <time>2020-12-06T10:27:13.890000+00:00</time>
      </trkpt>
      <trkpt lat="47.32322" lon="-1.39666">
        <ele>66</ele>
        <time>2020-12-06T10:27:14.895000+00:00</time>
      </trkpt>
      <trkpt lat="0" lon="0">
        <time>2020-12-06T10:27:14.898000+00:00</time>
      </trkpt>
      <trkpt lat="0" lon="0">
        <time>2020-12-06T10:27:14.903000+00:00</time>
      </trkpt>
      <trkpt lat="0" lon="0">
        <time>2020-12-06T10:27:14.904000+00:00</time>
      </trkpt>
      <trkpt lat="47.32322" lon="-1.39671">
        <ele>65</ele>
        <time>2020-12-06T10:27:15.871000+00:00</time>
      </trkpt>
      <trkpt lat="0" lon="0">
        <time>2020-12-06T10:27:15.882000+00:00</time>
      </trkpt>
      <trkpt lat="0" lon="0">
        <time>2020-12-06T10:27:15.883000+00:00</time>
      </trkpt>
      <trkpt lat="0" lon="0">
        <time>2020-12-06T10:27:15.884000+00:00</time>
      </trkpt>
      <trkpt lat="47.32321" lon="-1.39676">
        <ele>65</ele>
        <time>2020-12-06T10:27:16.887000+00:00</time>
      </trkpt>
      <trkpt lat="0" lon="0">
        <time>2020-12-06T10:27:16.889000+00:00</time>
      </trkpt>
      <trkpt lat="0" lon="0">
        <time>2020-12-06T10:27:16.891000+00:00</time>
      </trkpt>
      <trkpt lat="0" lon="0">
        <time>2020-12-06T10:27:16.892000+00:00</time>
      </trkpt>
      <trkpt lat="47.3232" lon="-1.39682">
        <ele>65</ele>
        <time>2020-12-06T10:27:17.917000+00:00</time>
      </trkpt>
      <trkpt lat="0" lon="0">
        <time>2020-12-06T10:27:17.919000+00:00</time>
      </trkpt>
      <trkpt lat="0" lon="0">
        <time>2020-12-06T10:27:17.921000+00:00</time>
      </trkpt>
      <trkpt lat="0" lon="0">
        <time>2020-12-06T10:27:17.922000+00:00</time>
      </trkpt>
      <trkpt lat="47.3232" lon="-1.39688">
        <ele>65</ele>
        <time>2020-12-06T10:27:18.891000+00:00</time>
      </trkpt>
      <trkpt lat="0" lon="0">
        <time>2020-12-06T10:27:18.894000+00:00</time>
      </trkpt>
      <trkpt lat="0" lon="0">
        <time>2020-12-06T10:27:18.895000+00:00</time>
      </trkpt>
      <trkpt lat="0" lon="0">
        <time>2020-12-06T10:27:18.896000+00:00</time>
      </trkpt>
      <trkpt lat="47.32319" lon="-1.39695">
        <ele>64</ele>
        <time>2020-12-06T10:27:19.899000+00:00</time>
      </trkpt>
      <trkpt lat="0" lon="0">
        <time>2020-12-06T10:27:19.901000+00:00</time>
      </trkpt>
      <trkpt lat="0" lon="0">
        <time>2020-12-06T10:27:19.905000+00:00</time>
      </trkpt>
      <trkpt lat="0" lon="0">
        <time>2020-12-06T10:27:19.907000+00:00</time>
      </trkpt>
      <trkpt lat="47.32318" lon="-1.39701">
        <ele>64</ele>
        <time>2020-12-06T10:27:20.882000+00:00</time>
      </trkpt>
      <trkpt lat="0" lon="0">
        <time>2020-12-06T10:27:20.887000+00:00</time>
      </trkpt>
      <trkpt lat="0" lon="0">
        <time>2020-12-06T10:27:20.893000+00:00</time>
      </trkpt>
      <trkpt lat="0" lon="0">
        <time>2020-12-06T10:27:20.894000+00:00</time>
      </trkpt>
      <trkpt lat="47.32317" lon="-1.39707">
        <ele>64</ele>
        <time>2020-12-06T10:27:21.920000+00:00</time>
      </trkpt>
      <trkpt lat="0" lon="0">
        <time>2020-12-06T10:27:21.923000+00:00</time>
      </trkpt>
      <trkpt lat="0" lon="0">
        <time>2020-12-06T10:27:21.928000+00:00</time>
      </trkpt>
      <trkpt lat="0" lon="0">
        <time>2020-12-06T10:27:21.930000+00:00</time>
      </trkpt>
      <trkpt lat="47.32317" lon="-1.39714">
        <ele>63</ele>
        <time>2020-12-06T10:27:22.903000+00:00</time>
      </trkpt>
      <trkpt lat="0" lon="0">
        <time>2020-12-06T10:27:22.909000+00:00</time>
      </trkpt>
      <trkpt lat="0" lon="0">
        <time>2020-12-06T10:27:22.914000+00:00</time>
      </trkpt>
      <trkpt lat="0" lon="0">
        <time>2020-12-06T10:27:22.916000+00:00</time>
      </trkpt>
      <trkpt lat="47.32316" lon="-1.3972">
        <ele>63</ele>
        <time>2020-12-06T10:27:23.876000+00:00</time>
      </trkpt>
      <trkpt lat="0" lon="0">
        <time>2020-12-06T10:27:23.878000+00:00</time>
      </trkpt>
      <trkpt lat="0" lon="0">
        <time>2020-12-06T10:27:23.881000+00:00</time>
      </trkpt>
      <trkpt lat="0" lon="0">
        <time>2020-12-06T10:27:23.882000+00:00</time>
      </trkpt>
      <trkpt lat="47.32316" lon="-1.39727">
        <ele>63</ele>
        <time>2020-12-06T10:27:24.786000+00:00</time>
      </trkpt>
      <trkpt lat="0" lon="0">
        <time>2020-12-06T10:27:24.788000+00:00</time>
      </trkpt>
      <trkpt lat="0" lon="0">
        <time>2020-12-06T10:27:24.793000+00:00</time>
      </trkpt>
      <trkpt lat="47.32316" lon="-1.39733">
        <ele>63</ele>
        <time>2020-12-06T10:27:25.791000+00:00</time>
      </trkpt>
      <trkpt lat="0" lon="0">
        <time>2020-12-06T10:27:25.792000+00:00</time>
      </trkpt>
      <trkpt lat="0" lon="0">
        <time>2020-12-06T10:27:25.793000+00:00</time>
      </trkpt>
      <trkpt lat="47.32317" lon="-1.39739">
        <ele>62</ele>
        <time>2020-12-06T10:27:26.857000+00:00</time>
      </trkpt>
      <trkpt lat="0" lon="0">
        <time>2020-12-06T10:27:26.860000+00:00</time>
      </trkpt>
      <trkpt lat="0" lon="0">
        <time>2020-12-06T10:27:26.875000+00:00</time>
      </trkpt>
      <trkpt lat="0" lon="0">
        <time>2020-12-06T10:27:26.878000+00:00</time>
      </trkpt>
      <trkpt lat="47.32318" lon="-1.39745">
        <ele>62</ele>
        <time>2020-12-06T10:27:27.862000+00:00</time>
      </trkpt>
      <trkpt lat="0" lon="0">
        <time>2020-12-06T10:27:27.873000+00:00</time>
      </trkpt>
      <trkpt lat="0" lon="0">
        <time>2020-12-06T10:27:27.876000+00:00</time>
      </trkpt>
      <trkpt lat="0" lon="0">
        <time>2020-12-06T10:27:27.880000+00:00</time>
      </trkpt>
      <trkpt lat="47.32319" lon="-1.3975">
        <ele>62</ele>
        <time>2020-12-06T10:27:28.877000+00:00</time>
      </trkpt>
      <trkpt lat="0" lon="0">
        <time>2020-12-06T10:27:28.880000+00:00</time>
      </trkpt>
      <trkpt lat="0" lon="0">
        <time>2020-12-06T10:27:28.891000+00:00</time>
      </trkpt>
      <trkpt lat="0" lon="0">
        <time>2020-12-06T10:27:28.895000+00:00</time>
      </trkpt>
      <trkpt lat="47.3232" lon="-1.39756">
        <ele>61</ele>
        <time>2020-12-06T10:27:29.842000+00:00</time>
      </trkpt>
      <trkpt lat="0" lon="0">
        <time>2020-12-06T10:27:29.851000+00:00</time>
      </trkpt>
      <trkpt lat="0" lon="0">
        <time>2020-12-06T10:27:29.853000+00:00</time>
      </trkpt>
      <trkpt lat="47.32321" lon="-1.39761">
        <ele>60</ele>
        <time>2020-12-06T10:27:30.871000+00:00</time>
      </trkpt>
      <trkpt lat="0" lon="0">
        <time>2020-12-06T10:27:30.874000+00:00</time>
      </trkpt>
      <trkpt lat="0" lon="0">
        <time>2020-12-06T10:27:30.886000+00:00</time>
      </trkpt>
      <trkpt lat="0" lon="0">
        <time>2020-12-06T10:27:30.887000+00:00</time>
      </trkpt>
      <trkpt lat="47.32323" lon="-1.39765">
        <ele>60</ele>
        <time>2020-12-06T10:27:31.854000+00:00</time>
      </trkpt>
      <trkpt lat="0" lon="0">
        <time>2020-12-06T10:27:31.861000+00:00</time>
      </trkpt>
      <trkpt lat="0" lon="0">
        <time>2020-12-06T10:27:31.863000+00:00</time>
      </trkpt>
      <trkpt lat="0" lon="0">
        <time>2020-12-06T10:27:31.869000+00:00</time>
      </trkpt>
      <trkpt lat="47.32324" lon="-1.3977">
        <ele>59</ele>
        <time>2020-12-06T10:27:32.877000+00:00</time>
      </trkpt>
      <trkpt lat="0" lon="0">
        <time>2020-12-06T10:27:32.880000+00:00</time>
      </trkpt>
      <trkpt lat="0" lon="0">
        <time>2020-12-06T10:27:32.887000+00:00</time>
      </trkpt>
      <trkpt lat="0" lon="0">
        <time>2020-12-06T10:27:32.893000+00:00</time>
      </trkpt>
      <trkpt lat="47.32325" lon="-1.39774">
        <ele>59</ele>
        <time>2020-12-06T10:27:33.864000+00:00</time>
      </trkpt>
      <trkpt lat="0" lon="0">
        <time>2020-12-06T10:27:33.866000+00:00</time>
      </trkpt>
      <trkpt lat="0" lon="0">
        <time>2020-12-06T10:27:33.867000+00:00</time>
      </trkpt>
      <trkpt lat="0" lon="0">
        <time>2020-12-06T10:27:33.869000+00:00</time>
      </trkpt>
      <trkpt lat="47.32326" lon="-1.39778">
        <ele>59</ele>
        <time>2020-12-06T10:27:34.893000+00:00</time>
      </trkpt>
      <trkpt lat="0" lon="0">
        <time>2020-12-06T10:27:34.896000+00:00</time>
      </trkpt>
      <trkpt lat="0" lon="0">
        <time>2020-12-06T10:27:34.907000+00:00</time>
      </trkpt>
      <trkpt lat="0" lon="0">
        <time>2020-12-06T10:27:34.909000+00:00</time>
      </trkpt>
      <trkpt lat="47.32328" lon="-1.39781">
        <ele>58</ele>
        <time>2020-12-06T10:27:35.911000+00:00</time>
      </trkpt>
      <trkpt lat="0" lon="0">
        <time>2020-12-06T10:27:35.914000+00:00</time>
      </trkpt>
      <trkpt lat="0" lon="0">
        <time>2020-12-06T10:27:35.925000+00:00</time>
      </trkpt>
      <trkpt lat="0" lon="0">
        <time>2020-12-06T10:27:35.926000+00:00</time>
      </trkpt>
      <trkpt lat="47.32329" lon="-1.39784">
        <ele>58</ele>
        <time>2020-12-06T10:27:36.864000+00:00</time>
      </trkpt>
      <trkpt lat="0" lon="0">
        <time>2020-12-06T10:27:36.866000+00:00</time>
      </trkpt>
      <trkpt lat="0" lon="0">
        <time>2020-12-06T10:27:36.871000+00:00</time>
      </trkpt>
      <trkpt lat="0" lon="0">
        <time>2020-12-06T10:27:36.872000+00:00</time>
      </trkpt>
      <trkpt lat="47.3233" lon="-1.39787">
        <ele>58</ele>
        <time>2020-12-06T10:27:37.886000+00:00</time>
      </trkpt>
      <trkpt lat="0" lon="0">
        <time>2020-12-06T10:27:37.888000+00:00</time>
      </trkpt>
      <trkpt lat="0" lon="0">
        <time>2020-12-06T10:27:37.890000+00:00</time>
      </trkpt>
      <trkpt lat="0" lon="0">
        <time>2020-12-06T10:27:37.891000+00:00</time>
      </trkpt>
      <trkpt lat="47.32331" lon="-1.3979">
        <ele>57</ele>
        <time>2020-12-06T10:27:38.878000+00:00</time>
      </trkpt>
      <trkpt lat="0" lon="0">
        <time>2020-12-06T10:27:38.882000+00:00</time>
      </trkpt>
      <trkpt lat="0" lon="0">
        <time>2020-12-06T10:27:38.886000+00:00</time>
      </trkpt>
      <trkpt lat="0" lon="0">
        <time>2020-12-06T10:27:38.887000+00:00</time>
      </trkpt>
      <trkpt lat="47.32332" lon="-1.39793">
        <ele>57</ele>
        <time>2020-12-06T10:27:39.864000+00:00</time>
      </trkpt>
      <trkpt lat="0" lon="0">
        <time>2020-12-06T10:27:39.884000+00:00</time>
      </trkpt>
      <trkpt lat="0" lon="0">
        <time>2020-12-06T10:27:39.891000+00:00</time>
      </trkpt>
      <trkpt lat="0" lon="0">
        <time>2020-12-06T10:27:39.895000+00:00</time>
      </trkpt>
      <trkpt lat="47.32333" lon="-1.39796">
        <ele>57</ele>
        <time>2020-12-06T10:27:40.854000+00:00</time>
      </trkpt>
      <trkpt lat="0" lon="0">
        <time>2020-12-06T10:27:40.855000+00:00</time>
      </trkpt>
      <trkpt lat="0" lon="0">
        <time>2020-12-06T10:27:40.857000+00:00</time>
      </trkpt>
      <trkpt lat="47.32334" lon="-1.39798">
        <ele>56</ele>
        <time>2020-12-06T10:27:41.860000+00:00</time>
      </trkpt>
      <trkpt lat="0" lon="0">
        <time>2020-12-06T10:27:41.864000+00:00</time>
      </trkpt>
      <trkpt lat="0" lon="0">
        <time>2020-12-06T10:27:41.865000+00:00</time>
      </trkpt>
      <trkpt lat="0" lon="0">
        <time>2020-12-06T10:27:41.866000+00:00</time>
      </trkpt>
      <trkpt lat="47.32334" lon="-1.39801">
        <ele>56</ele>
        <time>2020-12-06T10:27:42.865000+00:00</time>
      </trkpt>
      <trkpt lat="0" lon="0">
        <time>2020-12-06T10:27:42.874000+00:00</time>
      </trkpt>
      <trkpt lat="0" lon="0">
        <time>2020-12-06T10:27:42.880000+00:00</time>
      </trkpt>
      <trkpt lat="0" lon="0">
        <time>2020-12-06T10:27:42.882000+00:00</time>
      </trkpt>
      <trkpt lat="47.32335" lon="-1.39805">
        <ele>56</ele>
        <time>2020-12-06T10:27:43.887000+00:00</time>
      </trkpt>
      <trkpt lat="0" lon="0">
        <time>2020-12-06T10:27:43.895000+00:00</time>
      </trkpt>
      <trkpt lat="0" lon="0">
        <time>2020-12-06T10:27:43.898000+00:00</time>
      </trkpt>
      <trkpt lat="0" lon="0">
        <time>2020-12-06T10:27:43.899000+00:00</time>
      </trkpt>
      <trkpt lat="47.32336" lon="-1.39809">
        <ele>56</ele>
        <time>2020-12-06T10:27:44.873000+00:00</time>
      </trkpt>
      <trkpt lat="0" lon="0">
        <time>2020-12-06T10:27:44.878000+00:00</time>
      </trkpt>
      <trkpt lat="0" lon="0">
        <time>2020-12-06T10:27:44.882000+00:00</time>
      </trkpt>
      <trkpt lat="0" lon="0">
        <time>2020-12-06T10:27:44.883000+00:00</time>
      </trkpt>
      <trkpt lat="47.32337" lon="-1.39813">
        <ele>55</ele>
        <time>2020-12-06T10:27:45.860000+00:00</time>
      </trkpt>
      <trkpt lat="0" lon="0">
        <time>2020-12-06T10:27:45.863000+00:00</time>
      </trkpt>
      <trkpt lat="0" lon="0">
        <time>2020-12-06T10:27:45.865000+00:00</time>
      </trkpt>
      <trkpt lat="0" lon="0">
        <time>2020-12-06T10:27:45.866000+00:00</time>
      </trkpt>
      <trkpt lat="47.32338" lon="-1.39817">
        <ele>55</ele>
        <time>2020-12-06T10:27:46.881000+00:00</time>
      </trkpt>
      <trkpt lat="0" lon="0">
        <time>2020-12-06T10:27:46.885000+00:00</time>
      </trkpt>
      <trkpt lat="0" lon="0">
        <time>2020-12-06T10:27:46.888000+00:00</time>
      </trkpt>
      <trkpt lat="0" lon="0">
        <time>2020-12-06T10:27:46.890000+00:00</time>
      </trkpt>
      <trkpt lat="47.32339" lon="-1.39822">
        <ele>55</ele>
        <time>2020-12-06T10:27:47.881000+00:00</time>
      </trkpt>
      <trkpt lat="0" lon="0">
        <time>2020-12-06T10:27:47.884000+00:00</time>
      </trkpt>
      <trkpt lat="0" lon="0">
        <time>2020-12-06T10:27:47.888000+00:00</time>
      </trkpt>
      <trkpt lat="0" lon="0">
        <time>2020-12-06T10:27:47.890000+00:00</time>
      </trkpt>
      <trkpt lat="47.3234" lon="-1.39826">
        <ele>54</ele>
        <time>2020-12-06T10:27:48.883000+00:00</time>
      </trkpt>
      <trkpt lat="0" lon="0">
        <time>2020-12-06T10:27:48.893000+00:00</time>
      </trkpt>
      <trkpt lat="0" lon="0">
        <time>2020-12-06T10:27:48.895000+00:00</time>
      </trkpt>
      <trkpt lat="0" lon="0">
        <time>2020-12-06T10:27:48.898000+00:00</time>
      </trkpt>
      <trkpt lat="47.32341" lon="-1.39831">
        <ele>54</ele>
        <time>2020-12-06T10:27:49.879000+00:00</time>
      </trkpt>
      <trkpt lat="0" lon="0">
        <time>2020-12-06T10:27:49.897000+00:00</time>
      </trkpt>
      <trkpt lat="0" lon="0">
        <time>2020-12-06T10:27:49.901000+00:00</time>
      </trkpt>
      <trkpt lat="0" lon="0">
        <time>2020-12-06T10:27:49.902000+00:00</time>
      </trkpt>
      <trkpt lat="47.32342" lon="-1.39836">
        <ele>54</ele>
        <time>2020-12-06T10:27:50.879000+00:00</time>
      </trkpt>
      <trkpt lat="0" lon="0">
        <time>2020-12-06T10:27:50.881000+00:00</time>
      </trkpt>
      <trkpt lat="0" lon="0">
        <time>2020-12-06T10:27:50.888000+00:00</time>
      </trkpt>
      <trkpt lat="0" lon="0">
        <time>2020-12-06T10:27:50.891000+00:00</time>
      </trkpt>
      <trkpt lat="47.32344" lon="-1.39841">
        <ele>54</ele>
        <time>2020-12-06T10:27:51.891000+00:00</time>
      </trkpt>
      <trkpt lat="0" lon="0">
        <time>2020-12-06T10:27:51.900000+00:00</time>
      </trkpt>
      <trkpt lat="0" lon="0">
        <time>2020-12-06T10:27:51.904000+00:00</time>
      </trkpt>
      <trkpt lat="0" lon="0">
        <time>2020-12-06T10:27:51.906000+00:00</time>
      </trkpt>
      <trkpt lat="47.32345" lon="-1.39846">
        <ele>54</ele>
        <time>2020-12-06T10:27:52.883000+00:00</time>
      </trkpt>
      <trkpt lat="0" lon="0">
        <time>2020-12-06T10:27:52.886000+00:00</time>
      </trkpt>
      <trkpt lat="0" lon="0">
        <time>2020-12-06T10:27:52.888000+00:00</time>
      </trkpt>
      <trkpt lat="0" lon="0">
        <time>2020-12-06T10:27:52.890000+00:00</time>
      </trkpt>
      <trkpt lat="47.32346" lon="-1.39852">
        <ele>54</ele>
        <time>2020-12-06T10:27:53.880000+00:00</time>
      </trkpt>
      <trkpt lat="0" lon="0">
        <time>2020-12-06T10:27:53.886000+00:00</time>
      </trkpt>
      <trkpt lat="0" lon="0">
        <time>2020-12-06T10:27:53.889000+00:00</time>
      </trkpt>
      <trkpt lat="0" lon="0">
        <time>2020-12-06T10:27:53.895000+00:00</time>
      </trkpt>
      <trkpt lat="47.32347" lon="-1.39857">
        <ele>54</ele>
        <time>2020-12-06T10:27:54.892000+00:00</time>
      </trkpt>
      <trkpt lat="0" lon="0">
        <time>2020-12-06T10:27:54.898000+00:00</time>
      </trkpt>
      <trkpt lat="0" lon="0">
        <time>2020-12-06T10:27:54.902000+00:00</time>
      </trkpt>
      <trkpt lat="0" lon="0">
        <time>2020-12-06T10:27:54.904000+00:00</time>
      </trkpt>
      <trkpt lat="47.32349" lon="-1.39861">
        <ele>54</ele>
        <time>2020-12-06T10:27:55.884000+00:00</time>
      </trkpt>
      <trkpt lat="0" lon="0">
        <time>2020-12-06T10:27:55.890000+00:00</time>
      </trkpt>
      <trkpt lat="0" lon="0">
        <time>2020-12-06T10:27:55.894000+00:00</time>
      </trkpt>
      <trkpt lat="0" lon="0">
        <time>2020-12-06T10:27:55.898000+00:00</time>
      </trkpt>
      <trkpt lat="47.3235" lon="-1.39866">
        <ele>54</ele>
        <time>2020-12-06T10:27:56.860000+00:00</time>
      </trkpt>
      <trkpt lat="0" lon="0">
        <time>2020-12-06T10:27:56.863000+00:00</time>
      </trkpt>
      <trkpt lat="0" lon="0">
        <time>2020-12-06T10:27:56.879000+00:00</time>
      </trkpt>
      <trkpt lat="0" lon="0">
        <time>2020-12-06T10:27:56.886000+00:00</time>
      </trkpt>
      <trkpt lat="47.32351" lon="-1.39871">
        <ele>54</ele>
        <time>2020-12-06T10:27:57.885000+00:00</time>
      </trkpt>
      <trkpt lat="0" lon="0">
        <time>2020-12-06T10:27:57.900000+00:00</time>
      </trkpt>
      <trkpt lat="0" lon="0">
        <time>2020-12-06T10:27:57.902000+00:00</time>
      </trkpt>
      <trkpt lat="0" lon="0">
        <time>2020-12-06T10:27:57.903000+00:00</time>
      </trkpt>
      <trkpt lat="47.32352" lon="-1.39875">
        <ele>54</ele>
        <time>2020-12-06T10:27:58.876000+00:00</time>
      </trkpt>
      <trkpt lat="0" lon="0">
        <time>2020-12-06T10:27:58.881000+00:00</time>
      </trkpt>
      <trkpt lat="0" lon="0">
        <time>2020-12-06T10:27:58.882000+00:00</time>
      </trkpt>
      <trkpt lat="0" lon="0">
        <time>2020-12-06T10:27:58.883000+00:00</time>
      </trkpt>
      <trkpt lat="47.32353" lon="-1.3988">
        <ele>54</ele>
        <time>2020-12-06T10:27:59.871000+00:00</time>
      </trkpt>
      <trkpt lat="0" lon="0">
        <time>2020-12-06T10:27:59.880000+00:00</time>
      </trkpt>
      <trkpt lat="0" lon="0">
        <time>2020-12-06T10:27:59.884000+00:00</time>
      </trkpt>
      <trkpt lat="0" lon="0">
        <time>2020-12-06T10:27:59.886000+00:00</time>
      </trkpt>
      <trkpt lat="47.32354" lon="-1.39884">
        <ele>54</ele>
        <time>2020-12-06T10:28:00.874000+00:00</time>
      </trkpt>
      <trkpt lat="0" lon="0">
        <time>2020-12-06T10:28:00.888000+00:00</time>
      </trkpt>
      <trkpt lat="0" lon="0">
        <time>2020-12-06T10:28:00.897000+00:00</time>
      </trkpt>
      <trkpt lat="0" lon="0">
        <time>2020-12-06T10:28:00.899000+00:00</time>
      </trkpt>
      <trkpt lat="47.32354" lon="-1.39889">
        <ele>54</ele>
        <time>2020-12-06T10:28:01.876000+00:00</time>
      </trkpt>
      <trkpt lat="0" lon="0">
        <time>2020-12-06T10:28:01.878000+00:00</time>
      </trkpt>
      <trkpt lat="0" lon="0">
        <time>2020-12-06T10:28:01.879000+00:00</time>
      </trkpt>
      <trkpt lat="0" lon="0">
        <time>2020-12-06T10:28:01.881000+00:00</time>
      </trkpt>
      <trkpt lat="47.32355" lon="-1.39893">
        <ele>54</ele>
        <time>2020-12-06T10:28:02.881000+00:00</time>
      </trkpt>
      <trkpt lat="0" lon="0">
        <time>2020-12-06T10:28:02.888000+00:00</time>
      </trkpt>
      <trkpt lat="0" lon="0">
        <time>2020-12-06T10:28:02.891000+00:00</time>
      </trkpt>
      <trkpt lat="0" lon="0">
        <time>2020-12-06T10:28:02.893000+00:00</time>
      </trkpt>
      <trkpt lat="47.32356" lon="-1.39897">
        <ele>54</ele>
        <time>2020-12-06T10:28:03.879000+00:00</time>
      </trkpt>
      <trkpt lat="0" lon="0">
        <time>2020-12-06T10:28:03.886000+00:00</time>
      </trkpt>
      <trkpt lat="0" lon="0">
        <time>2020-12-06T10:28:03.889000+00:00</time>
      </trkpt>
      <trkpt lat="0" lon="0">
        <time>2020-12-06T10:28:03.891000+00:00</time>
      </trkpt>
      <trkpt lat="47.32356" lon="-1.39901">
        <ele>55</ele>
        <time>2020-12-06T10:28:04.905000+00:00</time>
      </trkpt>
      <trkpt lat="0" lon="0">
        <time>2020-12-06T10:28:04.925000+00:00</time>
      </trkpt>
      <trkpt lat="0" lon="0">
        <time>2020-12-06T10:28:04.927000+00:00</time>
      </trkpt>
      <trkpt lat="0" lon="0">
        <time>2020-12-06T10:28:04.928000+00:00</time>
      </trkpt>
      <trkpt lat="47.32357" lon="-1.39904">
        <ele>55</ele>
        <time>2020-12-06T10:28:05.846000+00:00</time>
      </trkpt>
      <trkpt lat="0" lon="0">
        <time>2020-12-06T10:28:05.849000+00:00</time>
      </trkpt>
      <trkpt lat="0" lon="0">
        <time>2020-12-06T10:28:05.856000+00:00</time>
      </trkpt>
      <trkpt lat="0" lon="0">
        <time>2020-12-06T10:28:05.858000+00:00</time>
      </trkpt>
      <trkpt lat="47.32357" lon="-1.39908">
        <ele>55</ele>
        <time>2020-12-06T10:28:06.884000+00:00</time>
      </trkpt>
      <trkpt lat="0" lon="0">
        <time>2020-12-06T10:28:06.899000+00:00</time>
      </trkpt>
      <trkpt lat="0" lon="0">
        <time>2020-12-06T10:28:06.909000+00:00</time>
      </trkpt>
      <trkpt lat="0" lon="0">
        <time>2020-12-06T10:28:06.911000+00:00</time>
      </trkpt>
      <trkpt lat="47.32358" lon="-1.39912">
        <ele>55</ele>
        <time>2020-12-06T10:28:07.862000+00:00</time>
      </trkpt>
      <trkpt lat="0" lon="0">
        <time>2020-12-06T10:28:07.867000+00:00</time>
      </trkpt>
      <trkpt lat="0" lon="0">
        <time>2020-12-06T10:28:07.872000+00:00</time>
      </trkpt>
      <trkpt lat="0" lon="0">
        <time>2020-12-06T10:28:07.873000+00:00</time>
      </trkpt>
      <trkpt lat="47.32358" lon="-1.39915">
        <ele>55</ele>
        <time>2020-12-06T10:28:08.862000+00:00</time>
      </trkpt>
      <trkpt lat="0" lon="0">
        <time>2020-12-06T10:28:08.869000+00:00</time>
      </trkpt>
      <trkpt lat="0" lon="0">
        <time>2020-12-06T10:28:08.872000+00:00</time>
      </trkpt>
      <trkpt lat="0" lon="0">
        <time>2020-12-06T10:28:08.874000+00:00</time>
      </trkpt>
      <trkpt lat="47.32359" lon="-1.39918">
        <ele>55</ele>
        <time>2020-12-06T10:28:09.927000+00:00</time>
      </trkpt>
      <trkpt lat="0" lon="0">
        <time>2020-12-06T10:28:09.931000+00:00</time>
      </trkpt>
      <trkpt lat="0" lon="0">
        <time>2020-12-06T10:28:09.932000+00:00</time>
      </trkpt>
      <trkpt lat="0" lon="0">
        <time>2020-12-06T10:28:09.933000+00:00</time>
      </trkpt>
      <trkpt lat="47.32359" lon="-1.39921">
        <ele>55</ele>
        <time>2020-12-06T10:28:10.894000+00:00</time>
      </trkpt>
      <trkpt lat="0" lon="0">
        <time>2020-12-06T10:28:10.900000+00:00</time>
      </trkpt>
      <trkpt lat="0" lon="0">
        <time>2020-12-06T10:28:10.903000+00:00</time>
      </trkpt>
      <trkpt lat="0" lon="0">
        <time>2020-12-06T10:28:10.906000+00:00</time>
      </trkpt>
      <trkpt lat="47.3236" lon="-1.39924">
        <ele>56</ele>
        <time>2020-12-06T10:28:11.873000+00:00</time>
      </trkpt>
      <trkpt lat="0" lon="0">
        <time>2020-12-06T10:28:11.876000+00:00</time>
      </trkpt>
      <trkpt lat="0" lon="0">
        <time>2020-12-06T10:28:11.877000+00:00</time>
      </trkpt>
      <trkpt lat="0" lon="0">
        <time>2020-12-06T10:28:11.878000+00:00</time>
      </trkpt>
      <trkpt lat="47.3236" lon="-1.39927">
        <ele>56</ele>
        <time>2020-12-06T10:28:12.869000+00:00</time>
      </trkpt>
      <trkpt lat="0" lon="0">
        <time>2020-12-06T10:28:12.873000+00:00</time>
      </trkpt>
      <trkpt lat="0" lon="0">
        <time>2020-12-06T10:28:12.876000+00:00</time>
      </trkpt>
      <trkpt lat="0" lon="0">
        <time>2020-12-06T10:28:12.878000+00:00</time>
      </trkpt>
      <trkpt lat="47.32361" lon="-1.3993">
        <ele>56</ele>
        <time>2020-12-06T10:28:13.898000+00:00</time>
      </trkpt>
      <trkpt lat="0" lon="0">
        <time>2020-12-06T10:28:13.901000+00:00</time>
      </trkpt>
      <trkpt lat="0" lon="0">
        <time>2020-12-06T10:28:13.907000+00:00</time>
      </trkpt>
      <trkpt lat="0" lon="0">
        <time>2020-12-06T10:28:13.911000+00:00</time>
      </trkpt>
      <trkpt lat="47.32361" lon="-1.39933">
        <ele>56</ele>
        <time>2020-12-06T10:28:14.900000+00:00</time>
      </trkpt>
      <trkpt lat="0" lon="0">
        <time>2020-12-06T10:28:14.902000+00:00</time>
      </trkpt>
      <trkpt lat="0" lon="0">
        <time>2020-12-06T10:28:14.903000+00:00</time>
      </trkpt>
      <trkpt lat="0" lon="0">
        <time>2020-12-06T10:28:14.904000+00:00</time>
      </trkpt>
      <trkpt lat="47.32361" lon="-1.39936">
        <ele>57</ele>
        <time>2020-12-06T10:28:15.870000+00:00</time>
      </trkpt>
      <trkpt lat="0" lon="0">
        <time>2020-12-06T10:28:15.883000+00:00</time>
      </trkpt>
      <trkpt lat="0" lon="0">
        <time>2020-12-06T10:28:15.885000+00:00</time>
      </trkpt>
      <trkpt lat="0" lon="0">
        <time>2020-12-06T10:28:15.886000+00:00</time>
      </trkpt>
      <trkpt lat="47.32362" lon="-1.39939">
        <ele>57</ele>
        <time>2020-12-06T10:28:16.899000+00:00</time>
      </trkpt>
      <trkpt lat="0" lon="0">
        <time>2020-12-06T10:28:16.910000+00:00</time>
      </trkpt>
      <trkpt lat="0" lon="0">
        <time>2020-12-06T10:28:16.917000+00:00</time>
      </trkpt>
      <trkpt lat="0" lon="0">
        <time>2020-12-06T10:28:16.924000+00:00</time>
      </trkpt>
      <trkpt lat="47.32362" lon="-1.39942">
        <ele>57</ele>
        <time>2020-12-06T10:28:17.876000+00:00</time>
      </trkpt>
      <trkpt lat="0" lon="0">
        <time>2020-12-06T10:28:17.879000+00:00</time>
      </trkpt>
      <trkpt lat="0" lon="0">
        <time>2020-12-06T10:28:17.894000+00:00</time>
      </trkpt>
      <trkpt lat="0" lon="0">
        <time>2020-12-06T10:28:17.895000+00:00</time>
      </trkpt>
      <trkpt lat="47.32363" lon="-1.39945">
        <ele>57</ele>
        <time>2020-12-06T10:28:18.898000+00:00</time>
      </trkpt>
      <trkpt lat="0" lon="0">
        <time>2020-12-06T10:28:18.906000+00:00</time>
      </trkpt>
      <trkpt lat="0" lon="0">
        <time>2020-12-06T10:28:18.909000+00:00</time>
      </trkpt>
      <trkpt lat="0" lon="0">
        <time>2020-12-06T10:28:18.912000+00:00</time>
      </trkpt>
      <trkpt lat="47.32363" lon="-1.39948">
        <ele>58</ele>
        <time>2020-12-06T10:28:19.888000+00:00</time>
      </trkpt>
      <trkpt lat="0" lon="0">
        <time>2020-12-06T10:28:19.899000+00:00</time>
      </trkpt>
      <trkpt lat="0" lon="0">
        <time>2020-12-06T10:28:19.905000+00:00</time>
      </trkpt>
      <trkpt lat="0" lon="0">
        <time>2020-12-06T10:28:19.906000+00:00</time>
      </trkpt>
      <trkpt lat="47.32363" lon="-1.3995">
        <ele>58</ele>
        <time>2020-12-06T10:28:20.867000+00:00</time>
      </trkpt>
      <trkpt lat="0" lon="0">
        <time>2020-12-06T10:28:20.874000+00:00</time>
      </trkpt>
      <trkpt lat="0" lon="0">
        <time>2020-12-06T10:28:20.876000+00:00</time>
      </trkpt>
      <trkpt lat="0" lon="0">
        <time>2020-12-06T10:28:20.882000+00:00</time>
      </trkpt>
      <trkpt lat="47.32363" lon="-1.39953">
        <ele>58</ele>
        <time>2020-12-06T10:28:21.867000+00:00</time>
      </trkpt>
      <trkpt lat="0" lon="0">
        <time>2020-12-06T10:28:21.872000+00:00</time>
      </trkpt>
      <trkpt lat="0" lon="0">
        <time>2020-12-06T10:28:21.875000+00:00</time>
      </trkpt>
      <trkpt lat="0" lon="0">
        <time>2020-12-06T10:28:21.877000+00:00</time>
      </trkpt>
      <trkpt lat="47.32364" lon="-1.39957">
        <ele>58</ele>
        <time>2020-12-06T10:28:22.908000+00:00</time>
      </trkpt>
      <trkpt lat="0" lon="0">
        <time>2020-12-06T10:28:22.921000+00:00</time>
      </trkpt>
      <trkpt lat="0" lon="0">
        <time>2020-12-06T10:28:22.926000+00:00</time>
      </trkpt>
      <trkpt lat="0" lon="0">
        <time>2020-12-06T10:28:22.933000+00:00</time>
      </trkpt>
      <trkpt lat="47.32364" lon="-1.39959">
        <ele>59</ele>
        <time>2020-12-06T10:28:23.903000+00:00</time>
      </trkpt>
      <trkpt lat="0" lon="0">
        <time>2020-12-06T10:28:23.926000+00:00</time>
      </trkpt>
      <trkpt lat="0" lon="0">
        <time>2020-12-06T10:28:23.931000+00:00</time>
      </trkpt>
      <trkpt lat="0" lon="0">
        <time>2020-12-06T10:28:23.932000+00:00</time>
      </trkpt>
      <trkpt lat="47.32364" lon="-1.39962">
        <ele>59</ele>
        <time>2020-12-06T10:28:24.867000+00:00</time>
      </trkpt>
      <trkpt lat="0" lon="0">
        <time>2020-12-06T10:28:24.870000+00:00</time>
      </trkpt>
      <trkpt lat="0" lon="0">
        <time>2020-12-06T10:28:24.874000+00:00</time>
      </trkpt>
      <trkpt lat="0" lon="0">
        <time>2020-12-06T10:28:24.875000+00:00</time>
      </trkpt>
      <trkpt lat="47.32364" lon="-1.39965">
        <ele>59</ele>
        <time>2020-12-06T10:28:25.896000+00:00</time>
      </trkpt>
      <trkpt lat="0" lon="0">
        <time>2020-12-06T10:28:25.905000+00:00</time>
      </trkpt>
      <trkpt lat="0" lon="0">
        <time>2020-12-06T10:28:25.912000+00:00</time>
      </trkpt>
      <trkpt lat="0" lon="0">
        <time>2020-12-06T10:28:25.914000+00:00</time>
      </trkpt>
      <trkpt lat="47.32364" lon="-1.39968">
        <ele>59</ele>
        <time>2020-12-06T10:28:26.914000+00:00</time>
      </trkpt>
      <trkpt lat="0" lon="0">
        <time>2020-12-06T10:28:26.917000+00:00</time>
      </trkpt>
      <trkpt lat="0" lon="0">
        <time>2020-12-06T10:28:26.930000+00:00</time>
      </trkpt>
      <trkpt lat="0" lon="0">
        <time>2020-12-06T10:28:26.932000+00:00</time>
      </trkpt>
      <trkpt lat="47.32364" lon="-1.39971">
        <ele>59</ele>
        <time>2020-12-06T10:28:27.864000+00:00</time>
      </trkpt>
      <trkpt lat="0" lon="0">
        <time>2020-12-06T10:28:27.869000+00:00</time>
      </trkpt>
      <trkpt lat="0" lon="0">
        <time>2020-12-06T10:28:27.871000+00:00</time>
      </trkpt>
      <trkpt lat="0" lon="0">
        <time>2020-12-06T10:28:27.872000+00:00</time>
      </trkpt>
      <trkpt lat="47.32365" lon="-1.39973">
        <ele>60</ele>
        <time>2020-12-06T10:28:28.906000+00:00</time>
      </trkpt>
      <trkpt lat="0" lon="0">
        <time>2020-12-06T10:28:28.915000+00:00</time>
      </trkpt>
      <trkpt lat="0" lon="0">
        <time>2020-12-06T10:28:28.918000+00:00</time>
      </trkpt>
      <trkpt lat="0" lon="0">
        <time>2020-12-06T10:28:28.921000+00:00</time>
      </trkpt>
      <trkpt lat="47.32365" lon="-1.39976">
        <ele>60</ele>
        <time>2020-12-06T10:28:29.879000+00:00</time>
      </trkpt>
      <trkpt lat="0" lon="0">
        <time>2020-12-06T10:28:29.887000+00:00</time>
      </trkpt>
      <trkpt lat="0" lon="0">
        <time>2020-12-06T10:28:29.892000+00:00</time>
      </trkpt>
      <trkpt lat="0" lon="0">
        <time>2020-12-06T10:28:29.893000+00:00</time>
      </trkpt>
      <trkpt lat="47.32366" lon="-1.39979">
        <ele>60</ele>
        <time>2020-12-06T10:28:30.911000+00:00</time>
      </trkpt>
      <trkpt lat="0" lon="0">
        <time>2020-12-06T10:28:30.914000+00:00</time>
      </trkpt>
      <trkpt lat="0" lon="0">
        <time>2020-12-06T10:28:30.934000+00:00</time>
      </trkpt>
      <trkpt lat="0" lon="0">
        <time>2020-12-06T10:28:30.936000+00:00</time>
      </trkpt>
      <trkpt lat="47.32366" lon="-1.39982">
        <ele>60</ele>
        <time>2020-12-06T10:28:31.893000+00:00</time>
      </trkpt>
      <trkpt lat="0" lon="0">
        <time>2020-12-06T10:28:31.900000+00:00</time>
      </trkpt>
      <trkpt lat="0" lon="0">
        <time>2020-12-06T10:28:31.906000+00:00</time>
      </trkpt>
      <trkpt lat="0" lon="0">
        <time>2020-12-06T10:28:31.907000+00:00</time>
      </trkpt>
      <trkpt lat="47.32367" lon="-1.39984">
        <ele>61</ele>
        <time>2020-12-06T10:28:32.868000+00:00</time>
      </trkpt>
      <trkpt lat="0" lon="0">
        <time>2020-12-06T10:28:32.889000+00:00</time>
      </trkpt>
      <trkpt lat="0" lon="0">
        <time>2020-12-06T10:28:32.896000+00:00</time>
      </trkpt>
      <trkpt lat="0" lon="0">
        <time>2020-12-06T10:28:32.898000+00:00</time>
      </trkpt>
      <trkpt lat="47.32367" lon="-1.39987">
        <ele>61</ele>
        <time>2020-12-06T10:28:33.877000+00:00</time>
      </trkpt>
      <trkpt lat="0" lon="0">
        <time>2020-12-06T10:28:33.882000+00:00</time>
      </trkpt>
      <trkpt lat="0" lon="0">
        <time>2020-12-06T10:28:33.888000+00:00</time>
      </trkpt>
      <trkpt lat="0" lon="0">
        <time>2020-12-06T10:28:33.890000+00:00</time>
      </trkpt>
      <trkpt lat="47.32368" lon="-1.39989">
        <ele>61</ele>
        <time>2020-12-06T10:28:34.884000+00:00</time>
      </trkpt>
      <trkpt lat="0" lon="0">
        <time>2020-12-06T10:28:34.895000+00:00</time>
      </trkpt>
      <trkpt lat="0" lon="0">
        <time>2020-12-06T10:28:34.905000+00:00</time>
      </trkpt>
      <trkpt lat="0" lon="0">
        <time>2020-12-06T10:28:34.910000+00:00</time>
      </trkpt>
      <trkpt lat="47.32369" lon="-1.39991">
        <ele>61</ele>
        <time>2020-12-06T10:28:35.827000+00:00</time>
      </trkpt>
      <trkpt lat="0" lon="0">
        <time>2020-12-06T10:28:35.835000+00:00</time>
      </trkpt>
      <trkpt lat="0" lon="0">
        <time>2020-12-06T10:28:35.852000+00:00</time>
      </trkpt>
      <trkpt lat="0" lon="0">
        <time>2020-12-06T10:28:35.854000+00:00</time>
      </trkpt>
      <trkpt lat="47.32369" lon="-1.39994">
        <ele>61</ele>
        <time>2020-12-06T10:28:36.857000+00:00</time>
      </trkpt>
      <trkpt lat="0" lon="0">
        <time>2020-12-06T10:28:36.872000+00:00</time>
      </trkpt>
      <trkpt lat="0" lon="0">
        <time>2020-12-06T10:28:36.877000+00:00</time>
      </trkpt>
      <trkpt lat="0" lon="0">
        <time>2020-12-06T10:28:36.879000+00:00</time>
      </trkpt>
      <trkpt lat="47.3237" lon="-1.39996">
        <ele>62</ele>
        <time>2020-12-06T10:28:37.872000+00:00</time>
      </trkpt>
      <trkpt lat="0" lon="0">
        <time>2020-12-06T10:28:37.886000+00:00</time>
      </trkpt>
      <trkpt lat="0" lon="0">
        <time>2020-12-06T10:28:37.888000+00:00</time>
      </trkpt>
      <trkpt lat="0" lon="0">
        <time>2020-12-06T10:28:37.889000+00:00</time>
      </trkpt>
      <trkpt lat="47.3237" lon="-1.39999">
        <ele>62</ele>
        <time>2020-12-06T10:28:38.907000+00:00</time>
      </trkpt>
      <trkpt lat="0" lon="0">
        <time>2020-12-06T10:28:38.914000+00:00</time>
      </trkpt>
      <trkpt lat="0" lon="0">
        <time>2020-12-06T10:28:38.916000+00:00</time>
      </trkpt>
      <trkpt lat="0" lon="0">
        <time>2020-12-06T10:28:38.917000+00:00</time>
      </trkpt>
      <trkpt lat="47.32371" lon="-1.40002">
        <ele>62</ele>
        <time>2020-12-06T10:28:39.910000+00:00</time>
      </trkpt>
      <trkpt lat="0" lon="0">
        <time>2020-12-06T10:28:39.917000+00:00</time>
      </trkpt>
      <trkpt lat="0" lon="0">
        <time>2020-12-06T10:28:39.925000+00:00</time>
      </trkpt>
      <trkpt lat="0" lon="0">
        <time>2020-12-06T10:28:39.928000+00:00</time>
      </trkpt>
      <trkpt lat="47.32371" lon="-1.40004">
        <ele>62</ele>
        <time>2020-12-06T10:28:40.887000+00:00</time>
      </trkpt>
      <trkpt lat="0" lon="0">
        <time>2020-12-06T10:28:40.899000+00:00</time>
      </trkpt>
      <trkpt lat="0" lon="0">
        <time>2020-12-06T10:28:40.903000+00:00</time>
      </trkpt>
      <trkpt lat="0" lon="0">
        <time>2020-12-06T10:28:40.906000+00:00</time>
      </trkpt>
      <trkpt lat="47.32371" lon="-1.40007">
        <ele>62</ele>
        <time>2020-12-06T10:28:41.893000+00:00</time>
      </trkpt>
      <trkpt lat="0" lon="0">
        <time>2020-12-06T10:28:41.905000+00:00</time>
      </trkpt>
      <trkpt lat="0" lon="0">
        <time>2020-12-06T10:28:41.911000+00:00</time>
      </trkpt>
      <trkpt lat="0" lon="0">
        <time>2020-12-06T10:28:41.918000+00:00</time>
      </trkpt>
      <trkpt lat="47.32371" lon="-1.4001">
        <ele>62</ele>
        <time>2020-12-06T10:28:42.855000+00:00</time>
      </trkpt>
      <trkpt lat="0" lon="0">
        <time>2020-12-06T10:28:42.869000+00:00</time>
      </trkpt>
      <trkpt lat="0" lon="0">
        <time>2020-12-06T10:28:42.881000+00:00</time>
      </trkpt>
      <trkpt lat="0" lon="0">
        <time>2020-12-06T10:28:42.882000+00:00</time>
      </trkpt>
      <trkpt lat="47.32372" lon="-1.40013">
        <ele>63</ele>
        <time>2020-12-06T10:28:43.862000+00:00</time>
      </trkpt>
      <trkpt lat="0" lon="0">
        <time>2020-12-06T10:28:43.886000+00:00</time>
      </trkpt>
      <trkpt lat="0" lon="0">
        <time>2020-12-06T10:28:43.888000+00:00</time>
      </trkpt>
      <trkpt lat="0" lon="0">
        <time>2020-12-06T10:28:43.889000+00:00</time>
      </trkpt>
      <trkpt lat="47.32373" lon="-1.40015">
        <ele>63</ele>
        <time>2020-12-06T10:28:44.886000+00:00</time>
      </trkpt>
      <trkpt lat="0" lon="0">
        <time>2020-12-06T10:28:44.896000+00:00</time>
      </trkpt>
      <trkpt lat="0" lon="0">
        <time>2020-12-06T10:28:44.906000+00:00</time>
      </trkpt>
      <trkpt lat="0" lon="0">
        <time>2020-12-06T10:28:44.908000+00:00</time>
      </trkpt>
      <trkpt lat="47.32373" lon="-1.40018">
        <ele>63</ele>
        <time>2020-12-06T10:28:45.874000+00:00</time>
      </trkpt>
      <trkpt lat="0" lon="0">
        <time>2020-12-06T10:28:45.886000+00:00</time>
      </trkpt>
      <trkpt lat="0" lon="0">
        <time>2020-12-06T10:28:45.888000+00:00</time>
      </trkpt>
      <trkpt lat="0" lon="0">
        <time>2020-12-06T10:28:45.889000+00:00</time>
      </trkpt>
      <trkpt lat="47.32373" lon="-1.40021">
        <ele>63</ele>
        <time>2020-12-06T10:28:46.896000+00:00</time>
      </trkpt>
      <trkpt lat="0" lon="0">
        <time>2020-12-06T10:28:46.906000+00:00</time>
      </trkpt>
      <trkpt lat="0" lon="0">
        <time>2020-12-06T10:28:46.909000+00:00</time>
      </trkpt>
      <trkpt lat="0" lon="0">
        <time>2020-12-06T10:28:46.913000+00:00</time>
      </trkpt>
      <trkpt lat="47.32374" lon="-1.40023">
        <ele>63</ele>
        <time>2020-12-06T10:28:47.869000+00:00</time>
      </trkpt>
      <trkpt lat="0" lon="0">
        <time>2020-12-06T10:28:47.879000+00:00</time>
      </trkpt>
      <trkpt lat="0" lon="0">
        <time>2020-12-06T10:28:47.883000+00:00</time>
      </trkpt>
      <trkpt lat="0" lon="0">
        <time>2020-12-06T10:28:47.890000+00:00</time>
      </trkpt>
      <trkpt lat="47.32374" lon="-1.40026">
        <ele>63</ele>
        <time>2020-12-06T10:28:48.893000+00:00</time>
      </trkpt>
      <trkpt lat="0" lon="0">
        <time>2020-12-06T10:28:48.917000+00:00</time>
      </trkpt>
      <trkpt lat="0" lon="0">
        <time>2020-12-06T10:28:48.921000+00:00</time>
      </trkpt>
      <trkpt lat="0" lon="0">
        <time>2020-12-06T10:28:48.922000+00:00</time>
      </trkpt>
      <trkpt lat="47.32374" lon="-1.40028">
        <ele>63</ele>
        <time>2020-12-06T10:28:49.891000+00:00</time>
      </trkpt>
      <trkpt lat="0" lon="0">
        <time>2020-12-06T10:28:49.895000+00:00</time>
      </trkpt>
      <trkpt lat="0" lon="0">
        <time>2020-12-06T10:28:49.901000+00:00</time>
      </trkpt>
      <trkpt lat="0" lon="0">
        <time>2020-12-06T10:28:49.917000+00:00</time>
      </trkpt>
      <trkpt lat="47.32374" lon="-1.4003">
        <ele>64</ele>
        <time>2020-12-06T10:28:50.919000+00:00</time>
      </trkpt>
      <trkpt lat="0" lon="0">
        <time>2020-12-06T10:28:50.929000+00:00</time>
      </trkpt>
      <trkpt lat="0" lon="0">
        <time>2020-12-06T10:28:50.932000+00:00</time>
      </trkpt>
      <trkpt lat="0" lon="0">
        <time>2020-12-06T10:28:50.934000+00:00</time>
      </trkpt>
      <trkpt lat="47.32375" lon="-1.40033">
        <ele>64</ele>
        <time>2020-12-06T10:28:51.937000+00:00</time>
      </trkpt>
      <trkpt lat="0" lon="0">
        <time>2020-12-06T10:28:51.951000+00:00</time>
      </trkpt>
      <trkpt lat="0" lon="0">
        <time>2020-12-06T10:28:51.956000+00:00</time>
      </trkpt>
      <trkpt lat="0" lon="0">
        <time>2020-12-06T10:28:51.958000+00:00</time>
      </trkpt>
      <trkpt lat="47.32375" lon="-1.40035">
        <ele>64</ele>
        <time>2020-12-06T10:28:52.900000+00:00</time>
      </trkpt>
      <trkpt lat="0" lon="0">
        <time>2020-12-06T10:28:52.915000+00:00</time>
      </trkpt>
      <trkpt lat="0" lon="0">
        <time>2020-12-06T10:28:52.928000+00:00</time>
      </trkpt>
      <trkpt lat="0" lon="0">
        <time>2020-12-06T10:28:52.931000+00:00</time>
      </trkpt>
      <trkpt lat="47.32375" lon="-1.40037">
        <ele>64</ele>
        <time>2020-12-06T10:28:53.887000+00:00</time>
      </trkpt>
      <trkpt lat="0" lon="0">
        <time>2020-12-06T10:28:53.890000+00:00</time>
      </trkpt>
      <trkpt lat="0" lon="0">
        <time>2020-12-06T10:28:53.893000+00:00</time>
      </trkpt>
      <trkpt lat="0" lon="0">
        <time>2020-12-06T10:28:53.895000+00:00</time>
      </trkpt>
      <trkpt lat="47.32375" lon="-1.4004">
        <ele>64</ele>
        <time>2020-12-06T10:28:54.866000+00:00</time>
      </trkpt>
      <trkpt lat="0" lon="0">
        <time>2020-12-06T10:28:54.873000+00:00</time>
      </trkpt>
      <trkpt lat="0" lon="0">
        <time>2020-12-06T10:28:54.875000+00:00</time>
      </trkpt>
      <trkpt lat="0" lon="0">
        <time>2020-12-06T10:28:54.876000+00:00</time>
      </trkpt>
      <trkpt lat="47.32375" lon="-1.40042">
        <ele>64</ele>
        <time>2020-12-06T10:28:55.919000+00:00</time>
      </trkpt>
      <trkpt lat="0" lon="0">
        <time>2020-12-06T10:28:55.923000+00:00</time>
      </trkpt>
      <trkpt lat="0" lon="0">
        <time>2020-12-06T10:28:55.927000+00:00</time>
      </trkpt>
      <trkpt lat="0" lon="0">
        <time>2020-12-06T10:28:55.929000+00:00</time>
      </trkpt>
      <trkpt lat="47.32375" lon="-1.40044">
        <ele>64</ele>
        <time>2020-12-06T10:28:56.915000+00:00</time>
      </trkpt>
      <trkpt lat="0" lon="0">
        <time>2020-12-06T10:28:56.925000+00:00</time>
      </trkpt>
      <trkpt lat="0" lon="0">
        <time>2020-12-06T10:28:56.931000+00:00</time>
      </trkpt>
      <trkpt lat="0" lon="0">
        <time>2020-12-06T10:28:56.932000+00:00</time>
      </trkpt>
      <trkpt lat="47.32375" lon="-1.40047">
        <ele>65</ele>
        <time>2020-12-06T10:28:57.854000+00:00</time>
      </trkpt>
      <trkpt lat="0" lon="0">
        <time>2020-12-06T10:28:57.857000+00:00</time>
      </trkpt>
      <trkpt lat="0" lon="0">
        <time>2020-12-06T10:28:57.861000+00:00</time>
      </trkpt>
      <trkpt lat="0" lon="0">
        <time>2020-12-06T10:28:57.862000+00:00</time>
      </trkpt>
      <trkpt lat="47.32375" lon="-1.40049">
        <ele>65</ele>
        <time>2020-12-06T10:28:58.926000+00:00</time>
      </trkpt>
      <trkpt lat="0" lon="0">
        <time>2020-12-06T10:28:58.937000+00:00</time>
      </trkpt>
      <trkpt lat="0" lon="0">
        <time>2020-12-06T10:28:58.942000+00:00</time>
      </trkpt>
      <trkpt lat="0" lon="0">
        <time>2020-12-06T10:28:58.946000+00:00</time>
      </trkpt>
      <trkpt lat="47.32375" lon="-1.40052">
        <ele>65</ele>
        <time>2020-12-06T10:28:59.829000+00:00</time>
      </trkpt>
      <trkpt lat="0" lon="0">
        <time>2020-12-06T10:28:59.840000+00:00</time>
      </trkpt>
      <trkpt lat="0" lon="0">
        <time>2020-12-06T10:28:59.850000+00:00</time>
      </trkpt>
      <trkpt lat="0" lon="0">
        <time>2020-12-06T10:28:59.851000+00:00</time>
      </trkpt>
      <trkpt lat="47.32375" lon="-1.40054">
        <ele>65</ele>
        <time>2020-12-06T10:29:00.816000+00:00</time>
      </trkpt>
      <trkpt lat="0" lon="0">
        <time>2020-12-06T10:29:00.819000+00:00</time>
      </trkpt>
      <trkpt lat="0" lon="0">
        <time>2020-12-06T10:29:00.827000+00:00</time>
      </trkpt>
      <trkpt lat="0" lon="0">
        <time>2020-12-06T10:29:00.829000+00:00</time>
      </trkpt>
      <trkpt lat="47.32375" lon="-1.40057">
        <ele>65</ele>
        <time>2020-12-06T10:29:01.851000+00:00</time>
      </trkpt>
      <trkpt lat="0" lon="0">
        <time>2020-12-06T10:29:01.864000+00:00</time>
      </trkpt>
      <trkpt lat="0" lon="0">
        <time>2020-12-06T10:29:01.867000+00:00</time>
      </trkpt>
      <trkpt lat="0" lon="0">
        <time>2020-12-06T10:29:01.869000+00:00</time>
      </trkpt>
      <trkpt lat="47.32375" lon="-1.40059">
        <ele>65</ele>
        <time>2020-12-06T10:29:02.820000+00:00</time>
      </trkpt>
      <trkpt lat="0" lon="0">
        <time>2020-12-06T10:29:02.825000+00:00</time>
      </trkpt>
      <trkpt lat="0" lon="0">
        <time>2020-12-06T10:29:02.826000+00:00</time>
      </trkpt>
      <trkpt lat="0" lon="0">
        <time>2020-12-06T10:29:02.827000+00:00</time>
      </trkpt>
      <trkpt lat="47.32375" lon="-1.40061">
        <ele>65</ele>
        <time>2020-12-06T10:29:03.828000+00:00</time>
      </trkpt>
      <trkpt lat="0" lon="0">
        <time>2020-12-06T10:29:03.841000+00:00</time>
      </trkpt>
      <trkpt lat="0" lon="0">
        <time>2020-12-06T10:29:03.848000+00:00</time>
      </trkpt>
      <trkpt lat="0" lon="0">
        <time>2020-12-06T10:29:03.855000+00:00</time>
      </trkpt>
      <trkpt lat="47.32375" lon="-1.40062">
        <ele>65</ele>
        <time>2020-12-06T10:29:04.810000+00:00</time>
      </trkpt>
      <trkpt lat="0" lon="0">
        <time>2020-12-06T10:29:04.813000+00:00</time>
      </trkpt>
      <trkpt lat="0" lon="0">
        <time>2020-12-06T10:29:04.815000+00:00</time>
      </trkpt>
      <trkpt lat="0" lon="0">
        <time>2020-12-06T10:29:04.823000+00:00</time>
      </trkpt>
      <trkpt lat="47.32375" lon="-1.40064">
        <ele>65</ele>
        <time>2020-12-06T10:29:05.898000+00:00</time>
      </trkpt>
      <trkpt lat="0" lon="0">
        <time>2020-12-06T10:29:05.905000+00:00</time>
      </trkpt>
      <trkpt lat="0" lon="0">
        <time>2020-12-06T10:29:05.907000+00:00</time>
      </trkpt>
      <trkpt lat="0" lon="0">
        <time>2020-12-06T10:29:05.913000+00:00</time>
      </trkpt>
      <trkpt lat="47.32374" lon="-1.40067">
        <ele>66</ele>
        <time>2020-12-06T10:29:06.882000+00:00</time>
      </trkpt>
      <trkpt lat="0" lon="0">
        <time>2020-12-06T10:29:06.884000+00:00</time>
      </trkpt>
      <trkpt lat="0" lon="0">
        <time>2020-12-06T10:29:06.886000+00:00</time>
      </trkpt>
      <trkpt lat="47.32374" lon="-1.40069">
        <ele>66</ele>
        <time>2020-12-06T10:29:07.818000+00:00</time>
      </trkpt>
      <trkpt lat="0" lon="0">
        <time>2020-12-06T10:29:07.819000+00:00</time>
      </trkpt>
      <trkpt lat="0" lon="0">
        <time>2020-12-06T10:29:07.821000+00:00</time>
      </trkpt>
      <trkpt lat="47.32374" lon="-1.40071">
        <ele>66</ele>
        <time>2020-12-06T10:29:08.883000+00:00</time>
      </trkpt>
      <trkpt lat="0" lon="0">
        <time>2020-12-06T10:29:08.895000+00:00</time>
      </trkpt>
      <trkpt lat="0" lon="0">
        <time>2020-12-06T10:29:08.898000+00:00</time>
      </trkpt>
      <trkpt lat="0" lon="0">
        <time>2020-12-06T10:29:08.908000+00:00</time>
      </trkpt>
      <trkpt lat="47.32374" lon="-1.40073">
        <ele>66</ele>
        <time>2020-12-06T10:29:09.864000+00:00</time>
      </trkpt>
      <trkpt lat="0" lon="0">
        <time>2020-12-06T10:29:09.869000+00:00</time>
      </trkpt>
      <trkpt lat="0" lon="0">
        <time>2020-12-06T10:29:09.873000+00:00</time>
      </trkpt>
      <trkpt lat="0" lon="0">
        <time>2020-12-06T10:29:09.875000+00:00</time>
      </trkpt>
      <trkpt lat="47.32374" lon="-1.40074">
        <ele>66</ele>
        <time>2020-12-06T10:29:10.912000+00:00</time>
      </trkpt>
      <trkpt lat="0" lon="0">
        <time>2020-12-06T10:29:10.918000+00:00</time>
      </trkpt>
      <trkpt lat="0" lon="0">
        <time>2020-12-06T10:29:10.922000+00:00</time>
      </trkpt>
      <trkpt lat="0" lon="0">
        <time>2020-12-06T10:29:10.926000+00:00</time>
      </trkpt>
      <trkpt lat="47.32374" lon="-1.40076">
        <ele>66</ele>
        <time>2020-12-06T10:29:11.902000+00:00</time>
      </trkpt>
      <trkpt lat="0" lon="0">
        <time>2020-12-06T10:29:11.909000+00:00</time>
      </trkpt>
      <trkpt lat="0" lon="0">
        <time>2020-12-06T10:29:11.919000+00:00</time>
      </trkpt>
      <trkpt lat="0" lon="0">
        <time>2020-12-06T10:29:11.929000+00:00</time>
      </trkpt>
      <trkpt lat="47.32374" lon="-1.40078">
        <ele>66</ele>
        <time>2020-12-06T10:29:12.893000+00:00</time>
      </trkpt>
      <trkpt lat="0" lon="0">
        <time>2020-12-06T10:29:12.898000+00:00</time>
      </trkpt>
      <trkpt lat="0" lon="0">
        <time>2020-12-06T10:29:12.906000+00:00</time>
      </trkpt>
      <trkpt lat="0" lon="0">
        <time>2020-12-06T10:29:12.908000+00:00</time>
      </trkpt>
      <trkpt lat="47.32374" lon="-1.4008">
        <ele>66</ele>
        <time>2020-12-06T10:29:13.876000+00:00</time>
      </trkpt>
      <trkpt lat="0" lon="0">
        <time>2020-12-06T10:29:13.885000+00:00</time>
      </trkpt>
      <trkpt lat="0" lon="0">
        <time>2020-12-06T10:29:13.890000+00:00</time>
      </trkpt>
      <trkpt lat="0" lon="0">
        <time>2020-12-06T10:29:13.892000+00:00</time>
      </trkpt>
      <trkpt lat="47.32374" lon="-1.40082">
        <ele>66</ele>
        <time>2020-12-06T10:29:14.886000+00:00</time>
      </trkpt>
      <trkpt lat="0" lon="0">
        <time>2020-12-06T10:29:14.898000+00:00</time>
      </trkpt>
      <trkpt lat="0" lon="0">
        <time>2020-12-06T10:29:14.903000+00:00</time>
      </trkpt>
      <trkpt lat="0" lon="0">
        <time>2020-12-06T10:29:14.910000+00:00</time>
      </trkpt>
      <trkpt lat="47.32374" lon="-1.40084">
        <ele>67</ele>
        <time>2020-12-06T10:29:15.903000+00:00</time>
      </trkpt>
      <trkpt lat="0" lon="0">
        <time>2020-12-06T10:29:15.922000+00:00</time>
      </trkpt>
      <trkpt lat="0" lon="0">
        <time>2020-12-06T10:29:15.926000+00:00</time>
      </trkpt>
      <trkpt lat="0" lon="0">
        <time>2020-12-06T10:29:15.928000+00:00</time>
      </trkpt>
      <trkpt lat="47.32374" lon="-1.40086">
        <ele>67</ele>
        <time>2020-12-06T10:29:16.905000+00:00</time>
      </trkpt>
      <trkpt lat="0" lon="0">
        <time>2020-12-06T10:29:16.913000+00:00</time>
      </trkpt>
      <trkpt lat="0" lon="0">
        <time>2020-12-06T10:29:16.934000+00:00</time>
      </trkpt>
      <trkpt lat="0" lon="0">
        <time>2020-12-06T10:29:16.937000+00:00</time>
      </trkpt>
      <trkpt lat="47.32374" lon="-1.40087">
        <ele>67</ele>
        <time>2020-12-06T10:29:17.898000+00:00</time>
      </trkpt>
      <trkpt lat="0" lon="0">
        <time>2020-12-06T10:29:17.905000+00:00</time>
      </trkpt>
      <trkpt lat="0" lon="0">
        <time>2020-12-06T10:29:17.909000+00:00</time>
      </trkpt>
      <trkpt lat="0" lon="0">
        <time>2020-12-06T10:29:17.910000+00:00</time>
      </trkpt>
      <trkpt lat="47.32374" lon="-1.40089">
        <ele>67</ele>
        <time>2020-12-06T10:29:18.905000+00:00</time>
      </trkpt>
      <trkpt lat="0" lon="0">
        <time>2020-12-06T10:29:18.908000+00:00</time>
      </trkpt>
      <trkpt lat="0" lon="0">
        <time>2020-12-06T10:29:18.915000+00:00</time>
      </trkpt>
      <trkpt lat="0" lon="0">
        <time>2020-12-06T10:29:18.918000+00:00</time>
      </trkpt>
      <trkpt lat="47.32374" lon="-1.40091">
        <ele>67</ele>
        <time>2020-12-06T10:29:19.906000+00:00</time>
      </trkpt>
      <trkpt lat="0" lon="0">
        <time>2020-12-06T10:29:19.917000+00:00</time>
      </trkpt>
      <trkpt lat="0" lon="0">
        <time>2020-12-06T10:29:19.925000+00:00</time>
      </trkpt>
      <trkpt lat="0" lon="0">
        <time>2020-12-06T10:29:19.927000+00:00</time>
      </trkpt>
      <trkpt lat="47.32374" lon="-1.40093">
        <ele>67</ele>
        <time>2020-12-06T10:29:20.908000+00:00</time>
      </trkpt>
      <trkpt lat="0" lon="0">
        <time>2020-12-06T10:29:20.922000+00:00</time>
      </trkpt>
      <trkpt lat="0" lon="0">
        <time>2020-12-06T10:29:20.928000+00:00</time>
      </trkpt>
      <trkpt lat="0" lon="0">
        <time>2020-12-06T10:29:20.931000+00:00</time>
      </trkpt>
      <trkpt lat="47.32373" lon="-1.40095">
        <ele>67</ele>
        <time>2020-12-06T10:29:21.927000+00:00</time>
      </trkpt>
      <trkpt lat="0" lon="0">
        <time>2020-12-06T10:29:21.942000+00:00</time>
      </trkpt>
      <trkpt lat="0" lon="0">
        <time>2020-12-06T10:29:21.946000+00:00</time>
      </trkpt>
      <trkpt lat="0" lon="0">
        <time>2020-12-06T10:29:21.947000+00:00</time>
      </trkpt>
      <trkpt lat="47.32373" lon="-1.40097">
        <ele>67</ele>
        <time>2020-12-06T10:29:22.931000+00:00</time>
      </trkpt>
      <trkpt lat="0" lon="0">
        <time>2020-12-06T10:29:22.937000+00:00</time>
      </trkpt>
      <trkpt lat="0" lon="0">
        <time>2020-12-06T10:29:22.955000+00:00</time>
      </trkpt>
      <trkpt lat="0" lon="0">
        <time>2020-12-06T10:29:22.960000+00:00</time>
      </trkpt>
      <trkpt lat="47.32373" lon="-1.40099">
        <ele>67</ele>
        <time>2020-12-06T10:29:23.947000+00:00</time>
      </trkpt>
      <trkpt lat="0" lon="0">
        <time>2020-12-06T10:29:23.955000+00:00</time>
      </trkpt>
      <trkpt lat="0" lon="0">
        <time>2020-12-06T10:29:23.957000+00:00</time>
      </trkpt>
      <trkpt lat="0" lon="0">
        <time>2020-12-06T10:29:23.958000+00:00</time>
      </trkpt>
      <trkpt lat="47.32373" lon="-1.40101">
        <ele>67</ele>
        <time>2020-12-06T10:29:24.982000+00:00</time>
      </trkpt>
      <trkpt lat="0" lon="0">
        <time>2020-12-06T10:29:24.988000+00:00</time>
      </trkpt>
      <trkpt lat="0" lon="0">
        <time>2020-12-06T10:29:24.995000+00:00</time>
      </trkpt>
      <trkpt lat="0" lon="0">
        <time>2020-12-06T10:29:24.996000+00:00</time>
      </trkpt>
      <trkpt lat="47.32372" lon="-1.40104">
        <ele>67</ele>
        <time>2020-12-06T10:29:25.921000+00:00</time>
      </trkpt>
      <trkpt lat="0" lon="0">
        <time>2020-12-06T10:29:25.925000+00:00</time>
      </trkpt>
      <trkpt lat="0" lon="0">
        <time>2020-12-06T10:29:25.927000+00:00</time>
      </trkpt>
      <trkpt lat="0" lon="0">
        <time>2020-12-06T10:29:25.930000+00:00</time>
      </trkpt>
      <trkpt lat="47.32372" lon="-1.40106">
        <ele>67</ele>
        <time>2020-12-06T10:29:26.918000+00:00</time>
      </trkpt>
      <trkpt lat="0" lon="0">
        <time>2020-12-06T10:29:26.920000+00:00</time>
      </trkpt>
      <trkpt lat="0" lon="0">
        <time>2020-12-06T10:29:26.921000+00:00</time>
      </trkpt>
      <trkpt lat="0" lon="0">
        <time>2020-12-06T10:29:26.922000+00:00</time>
      </trkpt>
      <trkpt lat="47.32371" lon="-1.40109">
        <ele>67</ele>
        <time>2020-12-06T10:29:27.898000+00:00</time>
      </trkpt>
      <trkpt lat="0" lon="0">
        <time>2020-12-06T10:29:27.907000+00:00</time>
      </trkpt>
      <trkpt lat="0" lon="0">
        <time>2020-12-06T10:29:27.913000+00:00</time>
      </trkpt>
      <trkpt lat="0" lon="0">
        <time>2020-12-06T10:29:27.915000+00:00</time>
      </trkpt>
      <trkpt lat="47.32371" lon="-1.40111">
        <ele>67</ele>
        <time>2020-12-06T10:29:28.898000+00:00</time>
      </trkpt>
      <trkpt lat="0" lon="0">
        <time>2020-12-06T10:29:28.909000+00:00</time>
      </trkpt>
      <trkpt lat="0" lon="0">
        <time>2020-12-06T10:29:28.916000+00:00</time>
      </trkpt>
      <trkpt lat="0" lon="0">
        <time>2020-12-06T10:29:28.920000+00:00</time>
      </trkpt>
      <trkpt lat="47.3237" lon="-1.40114">
        <ele>67</ele>
        <time>2020-12-06T10:29:29.897000+00:00</time>
      </trkpt>
      <trkpt lat="0" lon="0">
        <time>2020-12-06T10:29:29.900000+00:00</time>
      </trkpt>
      <trkpt lat="0" lon="0">
        <time>2020-12-06T10:29:29.903000+00:00</time>
      </trkpt>
      <trkpt lat="0" lon="0">
        <time>2020-12-06T10:29:29.904000+00:00</time>
      </trkpt>
      <trkpt lat="47.3237" lon="-1.40116">
        <ele>67</ele>
        <time>2020-12-06T10:29:30.955000+00:00</time>
      </trkpt>
      <trkpt lat="0" lon="0">
        <time>2020-12-06T10:29:30.962000+00:00</time>
      </trkpt>
      <trkpt lat="0" lon="0">
        <time>2020-12-06T10:29:30.967000+00:00</time>
      </trkpt>
      <trkpt lat="0" lon="0">
        <time>2020-12-06T10:29:30.969000+00:00</time>
      </trkpt>
      <trkpt lat="47.32369" lon="-1.40119">
        <ele>67</ele>
        <time>2020-12-06T10:29:31.895000+00:00</time>
      </trkpt>
      <trkpt lat="0" lon="0">
        <time>2020-12-06T10:29:31.907000+00:00</time>
      </trkpt>
      <trkpt lat="0" lon="0">
        <time>2020-12-06T10:29:31.917000+00:00</time>
      </trkpt>
      <trkpt lat="0" lon="0">
        <time>2020-12-06T10:29:31.919000+00:00</time>
      </trkpt>
      <trkpt lat="47.32369" lon="-1.40121">
        <ele>67</ele>
        <time>2020-12-06T10:29:32.906000+00:00</time>
      </trkpt>
      <trkpt lat="0" lon="0">
        <time>2020-12-06T10:29:32.918000+00:00</time>
      </trkpt>
      <trkpt lat="0" lon="0">
        <time>2020-12-06T10:29:32.927000+00:00</time>
      </trkpt>
      <trkpt lat="0" lon="0">
        <time>2020-12-06T10:29:32.929000+00:00</time>
      </trkpt>
      <trkpt lat="47.32368" lon="-1.40124">
        <ele>67</ele>
        <time>2020-12-06T10:29:33.902000+00:00</time>
      </trkpt>
      <trkpt lat="0" lon="0">
        <time>2020-12-06T10:29:33.913000+00:00</time>
      </trkpt>
      <trkpt lat="0" lon="0">
        <time>2020-12-06T10:29:33.916000+00:00</time>
      </trkpt>
      <trkpt lat="0" lon="0">
        <time>2020-12-06T10:29:33.921000+00:00</time>
      </trkpt>
      <trkpt lat="47.32368" lon="-1.40126">
        <ele>67</ele>
        <time>2020-12-06T10:29:34.915000+00:00</time>
      </trkpt>
      <trkpt lat="0" lon="0">
        <time>2020-12-06T10:29:34.924000+00:00</time>
      </trkpt>
      <trkpt lat="0" lon="0">
        <time>2020-12-06T10:29:34.925000+00:00</time>
      </trkpt>
      <trkpt lat="0" lon="0">
        <time>2020-12-06T10:29:34.926000+00:00</time>
      </trkpt>
      <trkpt lat="47.32368" lon="-1.40129">
        <ele>67</ele>
        <time>2020-12-06T10:29:35.923000+00:00</time>
      </trkpt>
      <trkpt lat="0" lon="0">
        <time>2020-12-06T10:29:35.939000+00:00</time>
      </trkpt>
      <trkpt lat="0" lon="0">
        <time>2020-12-06T10:29:35.944000+00:00</time>
      </trkpt>
      <trkpt lat="0" lon="0">
        <time>2020-12-06T10:29:35.946000+00:00</time>
      </trkpt>
      <trkpt lat="47.32368" lon="-1.40131">
        <ele>67</ele>
        <time>2020-12-06T10:29:36.925000+00:00</time>
      </trkpt>
      <trkpt lat="0" lon="0">
        <time>2020-12-06T10:29:36.939000+00:00</time>
      </trkpt>
      <trkpt lat="0" lon="0">
        <time>2020-12-06T10:29:36.942000+00:00</time>
      </trkpt>
      <trkpt lat="0" lon="0">
        <time>2020-12-06T10:29:36.944000+00:00</time>
      </trkpt>
      <trkpt lat="47.32368" lon="-1.40133">
        <ele>67</ele>
        <time>2020-12-06T10:29:37.933000+00:00</time>
      </trkpt>
      <trkpt lat="0" lon="0">
        <time>2020-12-06T10:29:37.946000+00:00</time>
      </trkpt>
      <trkpt lat="0" lon="0">
        <time>2020-12-06T10:29:37.951000+00:00</time>
      </trkpt>
      <trkpt lat="0" lon="0">
        <time>2020-12-06T10:29:37.957000+00:00</time>
      </trkpt>
      <trkpt lat="47.32368" lon="-1.40135">
        <ele>67</ele>
        <time>2020-12-06T10:29:38.919000+00:00</time>
      </trkpt>
      <trkpt lat="0" lon="0">
        <time>2020-12-06T10:29:38.944000+00:00</time>
      </trkpt>
      <trkpt lat="0" lon="0">
        <time>2020-12-06T10:29:38.963000+00:00</time>
      </trkpt>
      <trkpt lat="0" lon="0">
        <time>2020-12-06T10:29:38.965000+00:00</time>
      </trkpt>
      <trkpt lat="47.32368" lon="-1.40138">
        <ele>68</ele>
        <time>2020-12-06T10:29:39.929000+00:00</time>
      </trkpt>
      <trkpt lat="0" lon="0">
        <time>2020-12-06T10:29:39.938000+00:00</time>
      </trkpt>
      <trkpt lat="0" lon="0">
        <time>2020-12-06T10:29:39.950000+00:00</time>
      </trkpt>
      <trkpt lat="0" lon="0">
        <time>2020-12-06T10:29:39.952000+00:00</time>
      </trkpt>
      <trkpt lat="47.32368" lon="-1.40141">
        <ele>68</ele>
        <time>2020-12-06T10:29:40.930000+00:00</time>
      </trkpt>
      <trkpt lat="0" lon="0">
        <time>2020-12-06T10:29:40.953000+00:00</time>
      </trkpt>
      <trkpt lat="0" lon="0">
        <time>2020-12-06T10:29:40.961000+00:00</time>
      </trkpt>
      <trkpt lat="0" lon="0">
        <time>2020-12-06T10:29:40.962000+00:00</time>
      </trkpt>
      <trkpt lat="47.32368" lon="-1.40144">
        <ele>68</ele>
        <time>2020-12-06T10:29:41.954000+00:00</time>
      </trkpt>
      <trkpt lat="0" lon="0">
        <time>2020-12-06T10:29:41.956000+00:00</time>
      </trkpt>
      <trkpt lat="0" lon="0">
        <time>2020-12-06T10:29:41.957000+00:00</time>
      </trkpt>
      <trkpt lat="0" lon="0">
        <time>2020-12-06T10:29:41.958000+00:00</time>
      </trkpt>
      <trkpt lat="47.32368" lon="-1.40147">
        <ele>68</ele>
        <time>2020-12-06T10:29:42.919000+00:00</time>
      </trkpt>
      <trkpt lat="0" lon="0">
        <time>2020-12-06T10:29:42.924000+00:00</time>
      </trkpt>
      <trkpt lat="0" lon="0">
        <time>2020-12-06T10:29:42.925000+00:00</time>
      </trkpt>
      <trkpt lat="0" lon="0">
        <time>2020-12-06T10:29:42.926000+00:00</time>
      </trkpt>
      <trkpt lat="47.32368" lon="-1.4015">
        <ele>68</ele>
        <time>2020-12-06T10:29:43.906000+00:00</time>
      </trkpt>
      <trkpt lat="0" lon="0">
        <time>2020-12-06T10:29:43.917000+00:00</time>
      </trkpt>
      <trkpt lat="0" lon="0">
        <time>2020-12-06T10:29:43.922000+00:00</time>
      </trkpt>
      <trkpt lat="0" lon="0">
        <time>2020-12-06T10:29:43.926000+00:00</time>
      </trkpt>
      <trkpt lat="47.32368" lon="-1.40153">
        <ele>68</ele>
        <time>2020-12-06T10:29:44.944000+00:00</time>
      </trkpt>
      <trkpt lat="0" lon="0">
        <time>2020-12-06T10:29:44.953000+00:00</time>
      </trkpt>
      <trkpt lat="0" lon="0">
        <time>2020-12-06T10:29:44.957000+00:00</time>
      </trkpt>
      <trkpt lat="0" lon="0">
        <time>2020-12-06T10:29:44.959000+00:00</time>
      </trkpt>
      <trkpt lat="47.32369" lon="-1.40156">
        <ele>68</ele>
        <time>2020-12-06T10:29:45.924000+00:00</time>
      </trkpt>
      <trkpt lat="0" lon="0">
        <time>2020-12-06T10:29:45.945000+00:00</time>
      </trkpt>
      <trkpt lat="0" lon="0">
        <time>2020-12-06T10:29:45.948000+00:00</time>
      </trkpt>
      <trkpt lat="0" lon="0">
        <time>2020-12-06T10:29:45.950000+00:00</time>
      </trkpt>
      <trkpt lat="47.32369" lon="-1.4016">
        <ele>68</ele>
        <time>2020-12-06T10:29:46.941000+00:00</time>
      </trkpt>
      <trkpt lat="0" lon="0">
        <time>2020-12-06T10:29:46.945000+00:00</time>
      </trkpt>
      <trkpt lat="0" lon="0">
        <time>2020-12-06T10:29:46.948000+00:00</time>
      </trkpt>
      <trkpt lat="0" lon="0">
        <time>2020-12-06T10:29:46.954000+00:00</time>
      </trkpt>
      <trkpt lat="47.32369" lon="-1.40163">
        <ele>68</ele>
        <time>2020-12-06T10:29:47.961000+00:00</time>
      </trkpt>
      <trkpt lat="0" lon="0">
        <time>2020-12-06T10:29:47.972000+00:00</time>
      </trkpt>
      <trkpt lat="0" lon="0">
        <time>2020-12-06T10:29:47.974000+00:00</time>
      </trkpt>
      <trkpt lat="0" lon="0">
        <time>2020-12-06T10:29:47.975000+00:00</time>
      </trkpt>
      <trkpt lat="47.32369" lon="-1.40166">
        <ele>68</ele>
        <time>2020-12-06T10:29:48.956000+00:00</time>
      </trkpt>
      <trkpt lat="0" lon="0">
        <time>2020-12-06T10:29:48.958000+00:00</time>
      </trkpt>
      <trkpt lat="0" lon="0">
        <time>2020-12-06T10:29:48.963000+00:00</time>
      </trkpt>
      <trkpt lat="0" lon="0">
        <time>2020-12-06T10:29:48.965000+00:00</time>
      </trkpt>
      <trkpt lat="47.32369" lon="-1.40169">
        <ele>68</ele>
        <time>2020-12-06T10:29:49.931000+00:00</time>
      </trkpt>
      <trkpt lat="0" lon="0">
        <time>2020-12-06T10:29:49.940000+00:00</time>
      </trkpt>
      <trkpt lat="0" lon="0">
        <time>2020-12-06T10:29:49.943000+00:00</time>
      </trkpt>
      <trkpt lat="0" lon="0">
        <time>2020-12-06T10:29:49.945000+00:00</time>
      </trkpt>
      <trkpt lat="47.32368" lon="-1.40173">
        <ele>68</ele>
        <time>2020-12-06T10:29:50.918000+00:00</time>
      </trkpt>
      <trkpt lat="0" lon="0">
        <time>2020-12-06T10:29:50.927000+00:00</time>
      </trkpt>
      <trkpt lat="0" lon="0">
        <time>2020-12-06T10:29:50.944000+00:00</time>
      </trkpt>
      <trkpt lat="0" lon="0">
        <time>2020-12-06T10:29:50.950000+00:00</time>
      </trkpt>
      <trkpt lat="47.32368" lon="-1.40176">
        <ele>68</ele>
        <time>2020-12-06T10:29:51.942000+00:00</time>
      </trkpt>
      <trkpt lat="0" lon="0">
        <time>2020-12-06T10:29:51.949000+00:00</time>
      </trkpt>
      <trkpt lat="0" lon="0">
        <time>2020-12-06T10:29:51.955000+00:00</time>
      </trkpt>
      <trkpt lat="0" lon="0">
        <time>2020-12-06T10:29:51.957000+00:00</time>
      </trkpt>
      <trkpt lat="47.32368" lon="-1.40179">
        <ele>68</ele>
        <time>2020-12-06T10:29:52.920000+00:00</time>
      </trkpt>
      <trkpt lat="0" lon="0">
        <time>2020-12-06T10:29:52.922000+00:00</time>
      </trkpt>
      <trkpt lat="0" lon="0">
        <time>2020-12-06T10:29:52.923000+00:00</time>
      </trkpt>
      <trkpt lat="0" lon="0">
        <time>2020-12-06T10:29:52.924000+00:00</time>
      </trkpt>
      <trkpt lat="47.32368" lon="-1.40183">
        <ele>68</ele>
        <time>2020-12-06T10:29:53.919000+00:00</time>
      </trkpt>
      <trkpt lat="0" lon="0">
        <time>2020-12-06T10:29:53.925000+00:00</time>
      </trkpt>
      <trkpt lat="0" lon="0">
        <time>2020-12-06T10:29:53.929000+00:00</time>
      </trkpt>
      <trkpt lat="0" lon="0">
        <time>2020-12-06T10:29:53.930000+00:00</time>
      </trkpt>
      <trkpt lat="47.32368" lon="-1.40186">
        <ele>68</ele>
        <time>2020-12-06T10:29:54.928000+00:00</time>
      </trkpt>
      <trkpt lat="0" lon="0">
        <time>2020-12-06T10:29:54.937000+00:00</time>
      </trkpt>
      <trkpt lat="0" lon="0">
        <time>2020-12-06T10:29:54.944000+00:00</time>
      </trkpt>
      <trkpt lat="0" lon="0">
        <time>2020-12-06T10:29:54.946000+00:00</time>
      </trkpt>
      <trkpt lat="47.32368" lon="-1.40189">
        <ele>69</ele>
        <time>2020-12-06T10:29:55.946000+00:00</time>
      </trkpt>
      <trkpt lat="0" lon="0">
        <time>2020-12-06T10:29:55.948000+00:00</time>
      </trkpt>
      <trkpt lat="0" lon="0">
        <time>2020-12-06T10:29:55.949000+00:00</time>
      </trkpt>
      <trkpt lat="0" lon="0">
        <time>2020-12-06T10:29:55.953000+00:00</time>
      </trkpt>
      <trkpt lat="47.32367" lon="-1.40192">
        <ele>69</ele>
        <time>2020-12-06T10:29:56.930000+00:00</time>
      </trkpt>
      <trkpt lat="0" lon="0">
        <time>2020-12-06T10:29:56.937000+00:00</time>
      </trkpt>
      <trkpt lat="0" lon="0">
        <time>2020-12-06T10:29:56.947000+00:00</time>
      </trkpt>
      <trkpt lat="0" lon="0">
        <time>2020-12-06T10:29:56.948000+00:00</time>
      </trkpt>
      <trkpt lat="47.32367" lon="-1.40195">
        <ele>69</ele>
        <time>2020-12-06T10:29:57.937000+00:00</time>
      </trkpt>
      <trkpt lat="0" lon="0">
        <time>2020-12-06T10:29:57.948000+00:00</time>
      </trkpt>
      <trkpt lat="0" lon="0">
        <time>2020-12-06T10:29:57.964000+00:00</time>
      </trkpt>
      <trkpt lat="0" lon="0">
        <time>2020-12-06T10:29:57.969000+00:00</time>
      </trkpt>
      <trkpt lat="47.32366" lon="-1.40198">
        <ele>69</ele>
        <time>2020-12-06T10:29:58.936000+00:00</time>
      </trkpt>
      <trkpt lat="0" lon="0">
        <time>2020-12-06T10:29:58.939000+00:00</time>
      </trkpt>
      <trkpt lat="0" lon="0">
        <time>2020-12-06T10:29:58.946000+00:00</time>
      </trkpt>
      <trkpt lat="0" lon="0">
        <time>2020-12-06T10:29:58.948000+00:00</time>
      </trkpt>
      <trkpt lat="47.32366" lon="-1.40201">
        <ele>69</ele>
        <time>2020-12-06T10:29:59.908000+00:00</time>
      </trkpt>
      <trkpt lat="0" lon="0">
        <time>2020-12-06T10:29:59.921000+00:00</time>
      </trkpt>
      <trkpt lat="0" lon="0">
        <time>2020-12-06T10:29:59.929000+00:00</time>
      </trkpt>
      <trkpt lat="0" lon="0">
        <time>2020-12-06T10:29:59.930000+00:00</time>
      </trkpt>
      <trkpt lat="47.32365" lon="-1.40204">
        <ele>69</ele>
        <time>2020-12-06T10:30:00.945000+00:00</time>
      </trkpt>
      <trkpt lat="0" lon="0">
        <time>2020-12-06T10:30:00.950000+00:00</time>
      </trkpt>
      <trkpt lat="0" lon="0">
        <time>2020-12-06T10:30:00.955000+00:00</time>
      </trkpt>
      <trkpt lat="0" lon="0">
        <time>2020-12-06T10:30:00.957000+00:00</time>
      </trkpt>
      <trkpt lat="47.32364" lon="-1.40207">
        <ele>69</ele>
        <time>2020-12-06T10:30:01.955000+00:00</time>
      </trkpt>
      <trkpt lat="0" lon="0">
        <time>2020-12-06T10:30:01.965000+00:00</time>
      </trkpt>
      <trkpt lat="0" lon="0">
        <time>2020-12-06T10:30:01.972000+00:00</time>
      </trkpt>
      <trkpt lat="0" lon="0">
        <time>2020-12-06T10:30:01.974000+00:00</time>
      </trkpt>
      <trkpt lat="47.32362" lon="-1.40212">
        <ele>69</ele>
        <time>2020-12-06T10:30:03.860000+00:00</time>
      </trkpt>
      <trkpt lat="0" lon="0">
        <time>2020-12-06T10:30:03.863000+00:00</time>
      </trkpt>
      <trkpt lat="0" lon="0">
        <time>2020-12-06T10:30:03.867000+00:00</time>
      </trkpt>
      <trkpt lat="0" lon="0">
        <time>2020-12-06T10:30:03.869000+00:00</time>
      </trkpt>
      <trkpt lat="47.3236" lon="-1.40213">
        <ele>69</ele>
        <time>2020-12-06T10:30:04.889000+00:00</time>
      </trkpt>
      <trkpt lat="0" lon="0">
        <time>2020-12-06T10:30:04.894000+00:00</time>
      </trkpt>
      <trkpt lat="0" lon="0">
        <time>2020-12-06T10:30:04.897000+00:00</time>
      </trkpt>
      <trkpt lat="0" lon="0">
        <time>2020-12-06T10:30:04.898000+00:00</time>
      </trkpt>
      <trkpt lat="47.32359" lon="-1.40214">
        <ele>69</ele>
        <time>2020-12-06T10:30:05.906000+00:00</time>
      </trkpt>
      <trkpt lat="0" lon="0">
        <time>2020-12-06T10:30:05.919000+00:00</time>
      </trkpt>
      <trkpt lat="0" lon="0">
        <time>2020-12-06T10:30:05.926000+00:00</time>
      </trkpt>
      <trkpt lat="0" lon="0">
        <time>2020-12-06T10:30:05.927000+00:00</time>
      </trkpt>
      <trkpt lat="47.32357" lon="-1.40215">
        <ele>69</ele>
        <time>2020-12-06T10:30:06.979000+00:00</time>
      </trkpt>
      <trkpt lat="0" lon="0">
        <time>2020-12-06T10:30:06.983000+00:00</time>
      </trkpt>
      <trkpt lat="0" lon="0">
        <time>2020-12-06T10:30:06.991000+00:00</time>
      </trkpt>
      <trkpt lat="0" lon="0">
        <time>2020-12-06T10:30:06.992000+00:00</time>
      </trkpt>
      <trkpt lat="47.32356" lon="-1.40216">
        <ele>69</ele>
        <time>2020-12-06T10:30:07.939000+00:00</time>
      </trkpt>
      <trkpt lat="0" lon="0">
        <time>2020-12-06T10:30:07.948000+00:00</time>
      </trkpt>
      <trkpt lat="0" lon="0">
        <time>2020-12-06T10:30:07.953000+00:00</time>
      </trkpt>
      <trkpt lat="0" lon="0">
        <time>2020-12-06T10:30:07.955000+00:00</time>
      </trkpt>
      <trkpt lat="47.32354" lon="-1.40217">
        <ele>69</ele>
        <time>2020-12-06T10:30:08.917000+00:00</time>
      </trkpt>
      <trkpt lat="0" lon="0">
        <time>2020-12-06T10:30:08.920000+00:00</time>
      </trkpt>
      <trkpt lat="0" lon="0">
        <time>2020-12-06T10:30:08.930000+00:00</time>
      </trkpt>
      <trkpt lat="0" lon="0">
        <time>2020-12-06T10:30:08.932000+00:00</time>
      </trkpt>
      <trkpt lat="47.32352" lon="-1.40217">
        <ele>69</ele>
        <time>2020-12-06T10:30:09.927000+00:00</time>
      </trkpt>
      <trkpt lat="0" lon="0">
        <time>2020-12-06T10:30:09.937000+00:00</time>
      </trkpt>
      <trkpt lat="0" lon="0">
        <time>2020-12-06T10:30:09.942000+00:00</time>
      </trkpt>
      <trkpt lat="0" lon="0">
        <time>2020-12-06T10:30:09.948000+00:00</time>
      </trkpt>
      <trkpt lat="47.32351" lon="-1.40218">
        <ele>69</ele>
        <time>2020-12-06T10:30:10.950000+00:00</time>
      </trkpt>
      <trkpt lat="0" lon="0">
        <time>2020-12-06T10:30:10.959000+00:00</time>
      </trkpt>
      <trkpt lat="0" lon="0">
        <time>2020-12-06T10:30:10.963000+00:00</time>
      </trkpt>
      <trkpt lat="0" lon="0">
        <time>2020-12-06T10:30:10.969000+00:00</time>
      </trkpt>
      <trkpt lat="47.32349" lon="-1.40218">
        <ele>69</ele>
        <time>2020-12-06T10:30:11.958000+00:00</time>
      </trkpt>
      <trkpt lat="0" lon="0">
        <time>2020-12-06T10:30:11.959000+00:00</time>
      </trkpt>
      <trkpt lat="0" lon="0">
        <time>2020-12-06T10:30:11.960000+00:00</time>
      </trkpt>
      <trkpt lat="47.32347" lon="-1.40218">
        <ele>69</ele>
        <time>2020-12-06T10:30:12.947000+00:00</time>
      </trkpt>
      <trkpt lat="0" lon="0">
        <time>2020-12-06T10:30:12.949000+00:00</time>
      </trkpt>
      <trkpt lat="0" lon="0">
        <time>2020-12-06T10:30:12.951000+00:00</time>
      </trkpt>
      <trkpt lat="0" lon="0">
        <time>2020-12-06T10:30:12.952000+00:00</time>
      </trkpt>
      <trkpt lat="47.32345" lon="-1.40218">
        <ele>70</ele>
        <time>2020-12-06T10:30:13.935000+00:00</time>
      </trkpt>
      <trkpt lat="0" lon="0">
        <time>2020-12-06T10:30:13.947000+00:00</time>
      </trkpt>
      <trkpt lat="0" lon="0">
        <time>2020-12-06T10:30:13.953000+00:00</time>
      </trkpt>
      <trkpt lat="0" lon="0">
        <time>2020-12-06T10:30:13.958000+00:00</time>
      </trkpt>
      <trkpt lat="47.32343" lon="-1.40218">
        <ele>70</ele>
        <time>2020-12-06T10:30:14.933000+00:00</time>
      </trkpt>
      <trkpt lat="0" lon="0">
        <time>2020-12-06T10:30:14.937000+00:00</time>
      </trkpt>
      <trkpt lat="0" lon="0">
        <time>2020-12-06T10:30:14.941000+00:00</time>
      </trkpt>
      <trkpt lat="0" lon="0">
        <time>2020-12-06T10:30:14.943000+00:00</time>
      </trkpt>
      <trkpt lat="47.32341" lon="-1.40218">
        <ele>70</ele>
        <time>2020-12-06T10:30:15.948000+00:00</time>
      </trkpt>
      <trkpt lat="0" lon="0">
        <time>2020-12-06T10:30:15.953000+00:00</time>
      </trkpt>
      <trkpt lat="0" lon="0">
        <time>2020-12-06T10:30:15.962000+00:00</time>
      </trkpt>
      <trkpt lat="0" lon="0">
        <time>2020-12-06T10:30:15.967000+00:00</time>
      </trkpt>
      <trkpt lat="47.32339" lon="-1.40218">
        <ele>70</ele>
        <time>2020-12-06T10:30:16.949000+00:00</time>
      </trkpt>
      <trkpt lat="0" lon="0">
        <time>2020-12-06T10:30:16.964000+00:00</time>
      </trkpt>
      <trkpt lat="0" lon="0">
        <time>2020-12-06T10:30:16.970000+00:00</time>
      </trkpt>
      <trkpt lat="0" lon="0">
        <time>2020-12-06T10:30:16.971000+00:00</time>
      </trkpt>
      <trkpt lat="47.32337" lon="-1.40217">
        <ele>70</ele>
        <time>2020-12-06T10:30:17.936000+00:00</time>
      </trkpt>
      <trkpt lat="0" lon="0">
        <time>2020-12-06T10:30:17.943000+00:00</time>
      </trkpt>
      <trkpt lat="0" lon="0">
        <time>2020-12-06T10:30:17.947000+00:00</time>
      </trkpt>
      <trkpt lat="0" lon="0">
        <time>2020-12-06T10:30:17.949000+00:00</time>
      </trkpt>
      <trkpt lat="47.32335" lon="-1.40217">
        <ele>70</ele>
        <time>2020-12-06T10:30:18.970000+00:00</time>
      </trkpt>
      <trkpt lat="0" lon="0">
        <time>2020-12-06T10:30:18.985000+00:00</time>
      </trkpt>
      <trkpt lat="0" lon="0">
        <time>2020-12-06T10:30:18.989000+00:00</time>
      </trkpt>
      <trkpt lat="0" lon="0">
        <time>2020-12-06T10:30:18.990000+00:00</time>
      </trkpt>
      <trkpt lat="47.32332" lon="-1.40216">
        <ele>70</ele>
        <time>2020-12-06T10:30:19.958000+00:00</time>
      </trkpt>
      <trkpt lat="0" lon="0">
        <time>2020-12-06T10:30:19.967000+00:00</time>
      </trkpt>
      <trkpt lat="0" lon="0">
        <time>2020-12-06T10:30:19.974000+00:00</time>
      </trkpt>
      <trkpt lat="0" lon="0">
        <time>2020-12-06T10:30:19.980000+00:00</time>
      </trkpt>
      <trkpt lat="47.3233" lon="-1.40215">
        <ele>70</ele>
        <time>2020-12-06T10:30:20.915000+00:00</time>
      </trkpt>
      <trkpt lat="0" lon="0">
        <time>2020-12-06T10:30:20.921000+00:00</time>
      </trkpt>
      <trkpt lat="0" lon="0">
        <time>2020-12-06T10:30:20.924000+00:00</time>
      </trkpt>
      <trkpt lat="0" lon="0">
        <time>2020-12-06T10:30:20.929000+00:00</time>
      </trkpt>
      <trkpt lat="47.32327" lon="-1.40214">
        <ele>69</ele>
        <time>2020-12-06T10:30:21.930000+00:00</time>
      </trkpt>
      <trkpt lat="0" lon="0">
        <time>2020-12-06T10:30:21.934000+00:00</time>
      </trkpt>
      <trkpt lat="0" lon="0">
        <time>2020-12-06T10:30:21.945000+00:00</time>
      </trkpt>
      <trkpt lat="0" lon="0">
        <time>2020-12-06T10:30:21.948000+00:00</time>
      </trkpt>
      <trkpt lat="47.32324" lon="-1.40213">
        <ele>69</ele>
        <time>2020-12-06T10:30:22.964000+00:00</time>
      </trkpt>
      <trkpt lat="0" lon="0">
        <time>2020-12-06T10:30:22.971000+00:00</time>
      </trkpt>
      <trkpt lat="0" lon="0">
        <time>2020-12-06T10:30:22.973000+00:00</time>
      </trkpt>
      <trkpt lat="0" lon="0">
        <time>2020-12-06T10:30:22.980000+00:00</time>
      </trkpt>
      <trkpt lat="47.32321" lon="-1.40211">
        <ele>69</ele>
        <time>2020-12-06T10:30:23.955000+00:00</time>
      </trkpt>
      <trkpt lat="0" lon="0">
        <time>2020-12-06T10:30:23.971000+00:00</time>
      </trkpt>
      <trkpt lat="0" lon="0">
        <time>2020-12-06T10:30:23.974000+00:00</time>
      </trkpt>
      <trkpt lat="0" lon="0">
        <time>2020-12-06T10:30:23.975000+00:00</time>
      </trkpt>
      <trkpt lat="47.32318" lon="-1.4021">
        <ele>69</ele>
        <time>2020-12-06T10:30:24.936000+00:00</time>
      </trkpt>
      <trkpt lat="0" lon="0">
        <time>2020-12-06T10:30:24.938000+00:00</time>
      </trkpt>
      <trkpt lat="0" lon="0">
        <time>2020-12-06T10:30:24.940000+00:00</time>
      </trkpt>
      <trkpt lat="0" lon="0">
        <time>2020-12-06T10:30:24.941000+00:00</time>
      </trkpt>
      <trkpt lat="47.32315" lon="-1.40208">
        <ele>69</ele>
        <time>2020-12-06T10:30:25.939000+00:00</time>
      </trkpt>
      <trkpt lat="0" lon="0">
        <time>2020-12-06T10:30:25.956000+00:00</time>
      </trkpt>
      <trkpt lat="0" lon="0">
        <time>2020-12-06T10:30:25.959000+00:00</time>
      </trkpt>
      <trkpt lat="0" lon="0">
        <time>2020-12-06T10:30:25.963000+00:00</time>
      </trkpt>
      <trkpt lat="47.32312" lon="-1.40206">
        <ele>69</ele>
        <time>2020-12-06T10:30:26.929000+00:00</time>
      </trkpt>
      <trkpt lat="0" lon="0">
        <time>2020-12-06T10:30:26.935000+00:00</time>
      </trkpt>
      <trkpt lat="0" lon="0">
        <time>2020-12-06T10:30:26.938000+00:00</time>
      </trkpt>
      <trkpt lat="0" lon="0">
        <time>2020-12-06T10:30:26.940000+00:00</time>
      </trkpt>
      <trkpt lat="47.32308" lon="-1.40205">
        <ele>69</ele>
        <time>2020-12-06T10:30:27.928000+00:00</time>
      </trkpt>
      <trkpt lat="0" lon="0">
        <time>2020-12-06T10:30:27.932000+00:00</time>
      </trkpt>
      <trkpt lat="0" lon="0">
        <time>2020-12-06T10:30:27.936000+00:00</time>
      </trkpt>
      <trkpt lat="0" lon="0">
        <time>2020-12-06T10:30:27.939000+00:00</time>
      </trkpt>
      <trkpt lat="47.32304" lon="-1.40203">
        <ele>69</ele>
        <time>2020-12-06T10:30:28.897000+00:00</time>
      </trkpt>
      <trkpt lat="0" lon="0">
        <time>2020-12-06T10:30:28.902000+00:00</time>
      </trkpt>
      <trkpt lat="0" lon="0">
        <time>2020-12-06T10:30:28.905000+00:00</time>
      </trkpt>
      <trkpt lat="0" lon="0">
        <time>2020-12-06T10:30:28.907000+00:00</time>
      </trkpt>
      <trkpt lat="47.32301" lon="-1.40202">
        <ele>68</ele>
        <time>2020-12-06T10:30:29.960000+00:00</time>
      </trkpt>
      <trkpt lat="0" lon="0">
        <time>2020-12-06T10:30:29.975000+00:00</time>
      </trkpt>
      <trkpt lat="0" lon="0">
        <time>2020-12-06T10:30:29.980000+00:00</time>
      </trkpt>
      <trkpt lat="0" lon="0">
        <time>2020-12-06T10:30:29.982000+00:00</time>
      </trkpt>
      <trkpt lat="47.32297" lon="-1.402">
        <ele>68</ele>
        <time>2020-12-06T10:30:30.962000+00:00</time>
      </trkpt>
      <trkpt lat="0" lon="0">
        <time>2020-12-06T10:30:30.978000+00:00</time>
      </trkpt>
      <trkpt lat="0" lon="0">
        <time>2020-12-06T10:30:30.991000+00:00</time>
      </trkpt>
      <trkpt lat="0" lon="0">
        <time>2020-12-06T10:30:30.996000+00:00</time>
      </trkpt>
      <trkpt lat="47.32293" lon="-1.40199">
        <ele>68</ele>
        <time>2020-12-06T10:30:31.938000+00:00</time>
      </trkpt>
      <trkpt lat="0" lon="0">
        <time>2020-12-06T10:30:31.940000+00:00</time>
      </trkpt>
      <trkpt lat="0" lon="0">
        <time>2020-12-06T10:30:31.942000+00:00</time>
      </trkpt>
      <trkpt lat="0" lon="0">
        <time>2020-12-06T10:30:31.943000+00:00</time>
      </trkpt>
      <trkpt lat="47.3229" lon="-1.40197">
        <ele>68</ele>
        <time>2020-12-06T10:30:32.949000+00:00</time>
      </trkpt>
      <trkpt lat="0" lon="0">
        <time>2020-12-06T10:30:32.953000+00:00</time>
      </trkpt>
      <trkpt lat="0" lon="0">
        <time>2020-12-06T10:30:32.961000+00:00</time>
      </trkpt>
      <trkpt lat="0" lon="0">
        <time>2020-12-06T10:30:32.962000+00:00</time>
      </trkpt>
      <trkpt lat="47.32286" lon="-1.40195">
        <ele>68</ele>
        <time>2020-12-06T10:30:33.906000+00:00</time>
      </trkpt>
      <trkpt lat="0" lon="0">
        <time>2020-12-06T10:30:33.933000+00:00</time>
      </trkpt>
      <trkpt lat="0" lon="0">
        <time>2020-12-06T10:30:33.934000+00:00</time>
      </trkpt>
      <trkpt lat="0" lon="0">
        <time>2020-12-06T10:30:33.935000+00:00</time>
      </trkpt>
      <trkpt lat="47.32282" lon="-1.40194">
        <ele>68</ele>
        <time>2020-12-06T10:30:34.931000+00:00</time>
      </trkpt>
      <trkpt lat="0" lon="0">
        <time>2020-12-06T10:30:34.943000+00:00</time>
      </trkpt>
      <trkpt lat="0" lon="0">
        <time>2020-12-06T10:30:34.949000+00:00</time>
      </trkpt>
      <trkpt lat="0" lon="0">
        <time>2020-12-06T10:30:34.951000+00:00</time>
      </trkpt>
      <trkpt lat="47.32278" lon="-1.40192">
        <ele>68</ele>
        <time>2020-12-06T10:30:35.946000+00:00</time>
      </trkpt>
      <trkpt lat="0" lon="0">
        <time>2020-12-06T10:30:35.949000+00:00</time>
      </trkpt>
      <trkpt lat="0" lon="0">
        <time>2020-12-06T10:30:35.955000+00:00</time>
      </trkpt>
      <trkpt lat="0" lon="0">
        <time>2020-12-06T10:30:35.958000+00:00</time>
      </trkpt>
      <trkpt lat="47.32274" lon="-1.40191">
        <ele>67</ele>
        <time>2020-12-06T10:30:36.936000+00:00</time>
      </trkpt>
      <trkpt lat="0" lon="0">
        <time>2020-12-06T10:30:36.956000+00:00</time>
      </trkpt>
      <trkpt lat="0" lon="0">
        <time>2020-12-06T10:30:36.961000+00:00</time>
      </trkpt>
      <trkpt lat="0" lon="0">
        <time>2020-12-06T10:30:36.962000+00:00</time>
      </trkpt>
      <trkpt lat="47.3227" lon="-1.40189">
        <ele>67</ele>
        <time>2020-12-06T10:30:37.945000+00:00</time>
      </trkpt>
      <trkpt lat="0" lon="0">
        <time>2020-12-06T10:30:37.953000+00:00</time>
      </trkpt>
      <trkpt lat="0" lon="0">
        <time>2020-12-06T10:30:37.958000+00:00</time>
      </trkpt>
      <trkpt lat="0" lon="0">
        <time>2020-12-06T10:30:37.959000+00:00</time>
      </trkpt>
      <trkpt lat="47.32266" lon="-1.40187">
        <ele>67</ele>
        <time>2020-12-06T10:30:38.927000+00:00</time>
      </trkpt>
      <trkpt lat="0" lon="0">
        <time>2020-12-06T10:30:38.931000+00:00</time>
      </trkpt>
      <trkpt lat="0" lon="0">
        <time>2020-12-06T10:30:38.937000+00:00</time>
      </trkpt>
      <trkpt lat="0" lon="0">
        <time>2020-12-06T10:30:38.939000+00:00</time>
      </trkpt>
      <trkpt lat="47.32262" lon="-1.40186">
        <ele>67</ele>
        <time>2020-12-06T10:30:39.989000+00:00</time>
      </trkpt>
      <trkpt lat="0" lon="0">
        <time>2020-12-06T10:30:39.993000+00:00</time>
      </trkpt>
      <trkpt lat="0" lon="0">
        <time>2020-12-06T10:30:39.995000+00:00</time>
      </trkpt>
      <trkpt lat="0" lon="0">
        <time>2020-12-06T10:30:39.996000+00:00</time>
      </trkpt>
      <trkpt lat="47.32257" lon="-1.40184">
        <ele>67</ele>
        <time>2020-12-06T10:30:40.915000+00:00</time>
      </trkpt>
      <trkpt lat="0" lon="0">
        <time>2020-12-06T10:30:40.926000+00:00</time>
      </trkpt>
      <trkpt lat="0" lon="0">
        <time>2020-12-06T10:30:40.930000+00:00</time>
      </trkpt>
      <trkpt lat="0" lon="0">
        <time>2020-12-06T10:30:40.935000+00:00</time>
      </trkpt>
      <trkpt lat="47.32252" lon="-1.40182">
        <ele>67</ele>
        <time>2020-12-06T10:30:41.942000+00:00</time>
      </trkpt>
      <trkpt lat="0" lon="0">
        <time>2020-12-06T10:30:41.945000+00:00</time>
      </trkpt>
      <trkpt lat="0" lon="0">
        <time>2020-12-06T10:30:41.947000+00:00</time>
      </trkpt>
      <trkpt lat="0" lon="0">
        <time>2020-12-06T10:30:41.949000+00:00</time>
      </trkpt>
      <trkpt lat="47.32247" lon="-1.4018">
        <ele>67</ele>
        <time>2020-12-06T10:30:42.903000+00:00</time>
      </trkpt>
      <trkpt lat="0" lon="0">
        <time>2020-12-06T10:30:42.906000+00:00</time>
      </trkpt>
      <trkpt lat="0" lon="0">
        <time>2020-12-06T10:30:42.911000+00:00</time>
      </trkpt>
      <trkpt lat="0" lon="0">
        <time>2020-12-06T10:30:42.913000+00:00</time>
      </trkpt>
      <trkpt lat="47.32242" lon="-1.40178">
        <ele>67</ele>
        <time>2020-12-06T10:30:43.941000+00:00</time>
      </trkpt>
      <trkpt lat="0" lon="0">
        <time>2020-12-06T10:30:43.948000+00:00</time>
      </trkpt>
      <trkpt lat="0" lon="0">
        <time>2020-12-06T10:30:43.950000+00:00</time>
      </trkpt>
      <trkpt lat="0" lon="0">
        <time>2020-12-06T10:30:43.952000+00:00</time>
      </trkpt>
      <trkpt lat="47.32237" lon="-1.40177">
        <ele>66</ele>
        <time>2020-12-06T10:30:44.927000+00:00</time>
      </trkpt>
      <trkpt lat="0" lon="0">
        <time>2020-12-06T10:30:44.936000+00:00</time>
      </trkpt>
      <trkpt lat="0" lon="0">
        <time>2020-12-06T10:30:44.940000+00:00</time>
      </trkpt>
      <trkpt lat="0" lon="0">
        <time>2020-12-06T10:30:44.942000+00:00</time>
      </trkpt>
      <trkpt lat="47.32232" lon="-1.40176">
        <ele>66</ele>
        <time>2020-12-06T10:30:45.943000+00:00</time>
      </trkpt>
      <trkpt lat="0" lon="0">
        <time>2020-12-06T10:30:45.954000+00:00</time>
      </trkpt>
      <trkpt lat="0" lon="0">
        <time>2020-12-06T10:30:45.957000+00:00</time>
      </trkpt>
      <trkpt lat="0" lon="0">
        <time>2020-12-06T10:30:45.960000+00:00</time>
      </trkpt>
      <trkpt lat="47.32227" lon="-1.40174">
        <ele>66</ele>
        <time>2020-12-06T10:30:46.908000+00:00</time>
      </trkpt>
      <trkpt lat="0" lon="0">
        <time>2020-12-06T10:30:46.911000+00:00</time>
      </trkpt>
      <trkpt lat="0" lon="0">
        <time>2020-12-06T10:30:46.916000+00:00</time>
      </trkpt>
      <trkpt lat="0" lon="0">
        <time>2020-12-06T10:30:46.919000+00:00</time>
      </trkpt>
      <trkpt lat="47.32221" lon="-1.40173">
        <ele>66</ele>
        <time>2020-12-06T10:30:47.929000+00:00</time>
      </trkpt>
      <trkpt lat="0" lon="0">
        <time>2020-12-06T10:30:47.936000+00:00</time>
      </trkpt>
      <trkpt lat="0" lon="0">
        <time>2020-12-06T10:30:47.944000+00:00</time>
      </trkpt>
      <trkpt lat="0" lon="0">
        <time>2020-12-06T10:30:47.951000+00:00</time>
      </trkpt>
      <trkpt lat="47.32216" lon="-1.40172">
        <ele>66</ele>
        <time>2020-12-06T10:30:48.951000+00:00</time>
      </trkpt>
      <trkpt lat="0" lon="0">
        <time>2020-12-06T10:30:48.952000+00:00</time>
      </trkpt>
      <trkpt lat="0" lon="0">
        <time>2020-12-06T10:30:48.953000+00:00</time>
      </trkpt>
      <trkpt lat="0" lon="0">
        <time>2020-12-06T10:30:48.954000+00:00</time>
      </trkpt>
      <trkpt lat="47.3221" lon="-1.40171">
        <ele>66</ele>
        <time>2020-12-06T10:30:49.933000+00:00</time>
      </trkpt>
      <trkpt lat="0" lon="0">
        <time>2020-12-06T10:30:49.939000+00:00</time>
      </trkpt>
      <trkpt lat="0" lon="0">
        <time>2020-12-06T10:30:49.945000+00:00</time>
      </trkpt>
      <trkpt lat="0" lon="0">
        <time>2020-12-06T10:30:49.947000+00:00</time>
      </trkpt>
      <trkpt lat="47.32203" lon="-1.4017">
        <ele>65</ele>
        <time>2020-12-06T10:30:50.924000+00:00</time>
      </trkpt>
      <trkpt lat="0" lon="0">
        <time>2020-12-06T10:30:50.933000+00:00</time>
      </trkpt>
      <trkpt lat="0" lon="0">
        <time>2020-12-06T10:30:50.938000+00:00</time>
      </trkpt>
      <trkpt lat="0" lon="0">
        <time>2020-12-06T10:30:50.941000+00:00</time>
      </trkpt>
      <trkpt lat="47.32197" lon="-1.40169">
        <ele>65</ele>
        <time>2020-12-06T10:30:51.924000+00:00</time>
      </trkpt>
      <trkpt lat="0" lon="0">
        <time>2020-12-06T10:30:51.926000+00:00</time>
      </trkpt>
      <trkpt lat="0" lon="0">
        <time>2020-12-06T10:30:51.928000+00:00</time>
      </trkpt>
      <trkpt lat="0" lon="0">
        <time>2020-12-06T10:30:51.929000+00:00</time>
      </trkpt>
      <trkpt lat="47.3219" lon="-1.40169">
        <ele>65</ele>
        <time>2020-12-06T10:30:52.945000+00:00</time>
      </trkpt>
      <trkpt lat="0" lon="0">
        <time>2020-12-06T10:30:52.951000+00:00</time>
      </trkpt>
      <trkpt lat="0" lon="0">
        <time>2020-12-06T10:30:52.956000+00:00</time>
      </trkpt>
      <trkpt lat="0" lon="0">
        <time>2020-12-06T10:30:52.958000+00:00</time>
      </trkpt>
      <trkpt lat="47.32183" lon="-1.40168">
        <ele>65</ele>
        <time>2020-12-06T10:30:53.943000+00:00</time>
      </trkpt>
      <trkpt lat="0" lon="0">
        <time>2020-12-06T10:30:53.955000+00:00</time>
      </trkpt>
      <trkpt lat="0" lon="0">
        <time>2020-12-06T10:30:53.961000+00:00</time>
      </trkpt>
      <trkpt lat="0" lon="0">
        <time>2020-12-06T10:30:53.962000+00:00</time>
      </trkpt>
      <trkpt lat="47.32176" lon="-1.40168">
        <ele>65</ele>
        <time>2020-12-06T10:30:54.931000+00:00</time>
      </trkpt>
      <trkpt lat="0" lon="0">
        <time>2020-12-06T10:30:54.937000+00:00</time>
      </trkpt>
      <trkpt lat="0" lon="0">
        <time>2020-12-06T10:30:54.939000+00:00</time>
      </trkpt>
      <trkpt lat="0" lon="0">
        <time>2020-12-06T10:30:54.940000+00:00</time>
      </trkpt>
      <trkpt lat="47.32169" lon="-1.40167">
        <ele>65</ele>
        <time>2020-12-06T10:30:55.935000+00:00</time>
      </trkpt>
      <trkpt lat="0" lon="0">
        <time>2020-12-06T10:30:55.944000+00:00</time>
      </trkpt>
      <trkpt lat="0" lon="0">
        <time>2020-12-06T10:30:55.947000+00:00</time>
      </trkpt>
      <trkpt lat="0" lon="0">
        <time>2020-12-06T10:30:55.949000+00:00</time>
      </trkpt>
      <trkpt lat="47.32162" lon="-1.40167">
        <ele>65</ele>
        <time>2020-12-06T10:30:56.925000+00:00</time>
      </trkpt>
      <trkpt lat="0" lon="0">
        <time>2020-12-06T10:30:56.937000+00:00</time>
      </trkpt>
      <trkpt lat="0" lon="0">
        <time>2020-12-06T10:30:56.939000+00:00</time>
      </trkpt>
      <trkpt lat="0" lon="0">
        <time>2020-12-06T10:30:56.940000+00:00</time>
      </trkpt>
      <trkpt lat="47.32154" lon="-1.40166">
        <ele>65</ele>
        <time>2020-12-06T10:30:57.951000+00:00</time>
      </trkpt>
      <trkpt lat="0" lon="0">
        <time>2020-12-06T10:30:57.955000+00:00</time>
      </trkpt>
      <trkpt lat="0" lon="0">
        <time>2020-12-06T10:30:57.958000+00:00</time>
      </trkpt>
      <trkpt lat="0" lon="0">
        <time>2020-12-06T10:30:57.960000+00:00</time>
      </trkpt>
      <trkpt lat="47.32147" lon="-1.40166">
        <ele>65</ele>
        <time>2020-12-06T10:30:58.855000+00:00</time>
      </trkpt>
      <trkpt lat="0" lon="0">
        <time>2020-12-06T10:30:58.858000+00:00</time>
      </trkpt>
      <trkpt lat="0" lon="0">
        <time>2020-12-06T10:30:58.863000+00:00</time>
      </trkpt>
      <trkpt lat="0" lon="0">
        <time>2020-12-06T10:30:58.866000+00:00</time>
      </trkpt>
      <trkpt lat="47.32139" lon="-1.40166">
        <ele>65</ele>
        <time>2020-12-06T10:30:59.936000+00:00</time>
      </trkpt>
      <trkpt lat="0" lon="0">
        <time>2020-12-06T10:30:59.939000+00:00</time>
      </trkpt>
      <trkpt lat="0" lon="0">
        <time>2020-12-06T10:30:59.944000+00:00</time>
      </trkpt>
      <trkpt lat="0" lon="0">
        <time>2020-12-06T10:30:59.946000+00:00</time>
      </trkpt>
      <trkpt lat="47.32131" lon="-1.40165">
        <ele>65</ele>
        <time>2020-12-06T10:31:00.927000+00:00</time>
      </trkpt>
      <trkpt lat="0" lon="0">
        <time>2020-12-06T10:31:00.930000+00:00</time>
      </trkpt>
      <trkpt lat="0" lon="0">
        <time>2020-12-06T10:31:00.936000+00:00</time>
      </trkpt>
      <trkpt lat="0" lon="0">
        <time>2020-12-06T10:31:00.939000+00:00</time>
      </trkpt>
      <trkpt lat="47.32123" lon="-1.40164">
        <ele>65</ele>
        <time>2020-12-06T10:31:01.917000+00:00</time>
      </trkpt>
      <trkpt lat="0" lon="0">
        <time>2020-12-06T10:31:01.919000+00:00</time>
      </trkpt>
      <trkpt lat="0" lon="0">
        <time>2020-12-06T10:31:01.921000+00:00</time>
      </trkpt>
      <trkpt lat="0" lon="0">
        <time>2020-12-06T10:31:01.922000+00:00</time>
      </trkpt>
      <trkpt lat="47.32115" lon="-1.40164">
        <ele>66</ele>
        <time>2020-12-06T10:31:02.802000+00:00</time>
      </trkpt>
      <trkpt lat="0" lon="0">
        <time>2020-12-06T10:31:02.806000+00:00</time>
      </trkpt>
      <trkpt lat="0" lon="0">
        <time>2020-12-06T10:31:02.816000+00:00</time>
      </trkpt>
      <trkpt lat="0" lon="0">
        <time>2020-12-06T10:31:02.817000+00:00</time>
      </trkpt>
      <trkpt lat="47.32107" lon="-1.40163">
        <ele>66</ele>
        <time>2020-12-06T10:31:03.861000+00:00</time>
      </trkpt>
      <trkpt lat="0" lon="0">
        <time>2020-12-06T10:31:03.872000+00:00</time>
      </trkpt>
      <trkpt lat="0" lon="0">
        <time>2020-12-06T10:31:03.875000+00:00</time>
      </trkpt>
      <trkpt lat="0" lon="0">
        <time>2020-12-06T10:31:03.878000+00:00</time>
      </trkpt>
      <trkpt lat="47.32099" lon="-1.40162">
        <ele>66</ele>
        <time>2020-12-06T10:31:04.869000+00:00</time>
      </trkpt>
      <trkpt lat="0" lon="0">
        <time>2020-12-06T10:31:04.888000+00:00</time>
      </trkpt>
      <trkpt lat="0" lon="0">
        <time>2020-12-06T10:31:04.892000+00:00</time>
      </trkpt>
      <trkpt lat="0" lon="0">
        <time>2020-12-06T10:31:04.894000+00:00</time>
      </trkpt>
      <trkpt lat="47.32091" lon="-1.40162">
        <ele>66</ele>
        <time>2020-12-06T10:31:05.922000+00:00</time>
      </trkpt>
      <trkpt lat="0" lon="0">
        <time>2020-12-06T10:31:05.930000+00:00</time>
      </trkpt>
      <trkpt lat="0" lon="0">
        <time>2020-12-06T10:31:05.934000+00:00</time>
      </trkpt>
      <trkpt lat="0" lon="0">
        <time>2020-12-06T10:31:05.938000+00:00</time>
      </trkpt>
      <trkpt lat="47.32083" lon="-1.40162">
        <ele>66</ele>
        <time>2020-12-06T10:31:06.918000+00:00</time>
      </trkpt>
      <trkpt lat="0" lon="0">
        <time>2020-12-06T10:31:06.923000+00:00</time>
      </trkpt>
      <trkpt lat="0" lon="0">
        <time>2020-12-06T10:31:06.929000+00:00</time>
      </trkpt>
      <trkpt lat="0" lon="0">
        <time>2020-12-06T10:31:06.932000+00:00</time>
      </trkpt>
      <trkpt lat="47.32075" lon="-1.40161">
        <ele>66</ele>
        <time>2020-12-06T10:31:07.928000+00:00</time>
      </trkpt>
      <trkpt lat="0" lon="0">
        <time>2020-12-06T10:31:07.933000+00:00</time>
      </trkpt>
      <trkpt lat="0" lon="0">
        <time>2020-12-06T10:31:07.935000+00:00</time>
      </trkpt>
      <trkpt lat="47.32068" lon="-1.40161">
        <ele>66</ele>
        <time>2020-12-06T10:31:08.839000+00:00</time>
      </trkpt>
      <trkpt lat="0" lon="0">
        <time>2020-12-06T10:31:08.848000+00:00</time>
      </trkpt>
      <trkpt lat="0" lon="0">
        <time>2020-12-06T10:31:08.852000+00:00</time>
      </trkpt>
      <trkpt lat="0" lon="0">
        <time>2020-12-06T10:31:08.855000+00:00</time>
      </trkpt>
      <trkpt lat="47.3206" lon="-1.40161">
        <ele>66</ele>
        <time>2020-12-06T10:31:09.868000+00:00</time>
      </trkpt>
      <trkpt lat="0" lon="0">
        <time>2020-12-06T10:31:09.880000+00:00</time>
      </trkpt>
      <trkpt lat="0" lon="0">
        <time>2020-12-06T10:31:09.883000+00:00</time>
      </trkpt>
      <trkpt lat="0" lon="0">
        <time>2020-12-06T10:31:09.886000+00:00</time>
      </trkpt>
      <trkpt lat="47.32052" lon="-1.4016">
        <ele>66</ele>
        <time>2020-12-06T10:31:10.825000+00:00</time>
      </trkpt>
      <trkpt lat="0" lon="0">
        <time>2020-12-06T10:31:10.828000+00:00</time>
      </trkpt>
      <trkpt lat="0" lon="0">
        <time>2020-12-06T10:31:10.831000+00:00</time>
      </trkpt>
      <trkpt lat="0" lon="0">
        <time>2020-12-06T10:31:10.833000+00:00</time>
      </trkpt>
      <trkpt lat="47.32044" lon="-1.4016">
        <ele>66</ele>
        <time>2020-12-06T10:31:11.930000+00:00</time>
      </trkpt>
      <trkpt lat="0" lon="0">
        <time>2020-12-06T10:31:11.936000+00:00</time>
      </trkpt>
      <trkpt lat="0" lon="0">
        <time>2020-12-06T10:31:11.943000+00:00</time>
      </trkpt>
      <trkpt lat="0" lon="0">
        <time>2020-12-06T10:31:11.945000+00:00</time>
      </trkpt>
      <trkpt lat="47.32037" lon="-1.40159">
        <ele>66</ele>
        <time>2020-12-06T10:31:12.921000+00:00</time>
      </trkpt>
      <trkpt lat="0" lon="0">
        <time>2020-12-06T10:31:12.924000+00:00</time>
      </trkpt>
      <trkpt lat="0" lon="0">
        <time>2020-12-06T10:31:12.928000+00:00</time>
      </trkpt>
      <trkpt lat="0" lon="0">
        <time>2020-12-06T10:31:12.931000+00:00</time>
      </trkpt>
      <trkpt lat="47.32029" lon="-1.40158">
        <ele>66</ele>
        <time>2020-12-06T10:31:13.869000+00:00</time>
      </trkpt>
      <trkpt lat="0" lon="0">
        <time>2020-12-06T10:31:13.881000+00:00</time>
      </trkpt>
      <trkpt lat="0" lon="0">
        <time>2020-12-06T10:31:13.887000+00:00</time>
      </trkpt>
      <trkpt lat="0" lon="0">
        <time>2020-12-06T10:31:13.889000+00:00</time>
      </trkpt>
      <trkpt lat="47.32022" lon="-1.40156">
        <ele>66</ele>
        <time>2020-12-06T10:31:14.923000+00:00</time>
      </trkpt>
      <trkpt lat="0" lon="0">
        <time>2020-12-06T10:31:14.927000+00:00</time>
      </trkpt>
      <trkpt lat="0" lon="0">
        <time>2020-12-06T10:31:14.930000+00:00</time>
      </trkpt>
      <trkpt lat="0" lon="0">
        <time>2020-12-06T10:31:14.932000+00:00</time>
      </trkpt>
      <trkpt lat="47.32015" lon="-1.40154">
        <ele>66</ele>
        <time>2020-12-06T10:31:15.927000+00:00</time>
      </trkpt>
      <trkpt lat="0" lon="0">
        <time>2020-12-06T10:31:15.938000+00:00</time>
      </trkpt>
      <trkpt lat="0" lon="0">
        <time>2020-12-06T10:31:15.941000+00:00</time>
      </trkpt>
      <trkpt lat="0" lon="0">
        <time>2020-12-06T10:31:15.942000+00:00</time>
      </trkpt>
      <trkpt lat="47.32008" lon="-1.40152">
        <ele>66</ele>
        <time>2020-12-06T10:31:16.946000+00:00</time>
      </trkpt>
      <trkpt lat="0" lon="0">
        <time>2020-12-06T10:31:16.951000+00:00</time>
      </trkpt>
      <trkpt lat="0" lon="0">
        <time>2020-12-06T10:31:16.963000+00:00</time>
      </trkpt>
      <trkpt lat="0" lon="0">
        <time>2020-12-06T10:31:16.965000+00:00</time>
      </trkpt>
      <trkpt lat="47.32001" lon="-1.40149">
        <ele>66</ele>
        <time>2020-12-06T10:31:17.930000+00:00</time>
      </trkpt>
      <trkpt lat="0" lon="0">
        <time>2020-12-06T10:31:17.934000+00:00</time>
      </trkpt>
      <trkpt lat="0" lon="0">
        <time>2020-12-06T10:31:17.937000+00:00</time>
      </trkpt>
      <trkpt lat="0" lon="0">
        <time>2020-12-06T10:31:17.938000+00:00</time>
      </trkpt>
      <trkpt lat="47.31994" lon="-1.40146">
        <ele>66</ele>
        <time>2020-12-06T10:31:18.869000+00:00</time>
      </trkpt>
      <trkpt lat="0" lon="0">
        <time>2020-12-06T10:31:18.880000+00:00</time>
      </trkpt>
      <trkpt lat="0" lon="0">
        <time>2020-12-06T10:31:18.882000+00:00</time>
      </trkpt>
      <trkpt lat="0" lon="0">
        <time>2020-12-06T10:31:18.883000+00:00</time>
      </trkpt>
      <trkpt lat="47.31987" lon="-1.40142">
        <ele>65</ele>
        <time>2020-12-06T10:31:19.945000+00:00</time>
      </trkpt>
      <trkpt lat="0" lon="0">
        <time>2020-12-06T10:31:19.957000+00:00</time>
      </trkpt>
      <trkpt lat="0" lon="0">
        <time>2020-12-06T10:31:19.961000+00:00</time>
      </trkpt>
      <trkpt lat="0" lon="0">
        <time>2020-12-06T10:31:19.963000+00:00</time>
      </trkpt>
      <trkpt lat="47.3198" lon="-1.40139">
        <ele>65</ele>
        <time>2020-12-06T10:31:20.919000+00:00</time>
      </trkpt>
      <trkpt lat="0" lon="0">
        <time>2020-12-06T10:31:20.923000+00:00</time>
      </trkpt>
      <trkpt lat="0" lon="0">
        <time>2020-12-06T10:31:20.929000+00:00</time>
      </trkpt>
      <trkpt lat="0" lon="0">
        <time>2020-12-06T10:31:20.932000+00:00</time>
      </trkpt>
      <trkpt lat="47.31973" lon="-1.40136">
        <ele>64</ele>
        <time>2020-12-06T10:31:21.957000+00:00</time>
      </trkpt>
      <trkpt lat="0" lon="0">
        <time>2020-12-06T10:31:21.966000+00:00</time>
      </trkpt>
      <trkpt lat="0" lon="0">
        <time>2020-12-06T10:31:21.972000+00:00</time>
      </trkpt>
      <trkpt lat="0" lon="0">
        <time>2020-12-06T10:31:21.973000+00:00</time>
      </trkpt>
      <trkpt lat="47.31966" lon="-1.40134">
        <ele>64</ele>
        <time>2020-12-06T10:31:22.930000+00:00</time>
      </trkpt>
      <trkpt lat="0" lon="0">
        <time>2020-12-06T10:31:22.933000+00:00</time>
      </trkpt>
      <trkpt lat="0" lon="0">
        <time>2020-12-06T10:31:22.936000+00:00</time>
      </trkpt>
      <trkpt lat="0" lon="0">
        <time>2020-12-06T10:31:22.939000+00:00</time>
      </trkpt>
      <trkpt lat="47.31959" lon="-1.40133">
        <ele>64</ele>
        <time>2020-12-06T10:31:23.937000+00:00</time>
      </trkpt>
      <trkpt lat="0" lon="0">
        <time>2020-12-06T10:31:23.942000+00:00</time>
      </trkpt>
      <trkpt lat="0" lon="0">
        <time>2020-12-06T10:31:23.947000+00:00</time>
      </trkpt>
      <trkpt lat="0" lon="0">
        <time>2020-12-06T10:31:23.949000+00:00</time>
      </trkpt>
      <trkpt lat="47.31952" lon="-1.40132">
        <ele>63</ele>
        <time>2020-12-06T10:31:24.979000+00:00</time>
      </trkpt>
      <trkpt lat="0" lon="0">
        <time>2020-12-06T10:31:24.990000+00:00</time>
      </trkpt>
      <trkpt lat="0" lon="0">
        <time>2020-12-06T10:31:24.998000+00:00</time>
      </trkpt>
      <trkpt lat="0" lon="0">
        <time>2020-12-06T10:31:25+00:00</time>
      </trkpt>
      <trkpt lat="47.31945" lon="-1.40132">
        <ele>63</ele>
        <time>2020-12-06T10:31:25.933000+00:00</time>
      </trkpt>
      <trkpt lat="0" lon="0">
        <time>2020-12-06T10:31:25.944000+00:00</time>
      </trkpt>
      <trkpt lat="0" lon="0">
        <time>2020-12-06T10:31:25.954000+00:00</time>
      </trkpt>
      <trkpt lat="0" lon="0">
        <time>2020-12-06T10:31:25.956000+00:00</time>
      </trkpt>
      <trkpt lat="47.31938" lon="-1.40133">
        <ele>62</ele>
        <time>2020-12-06T10:31:26.943000+00:00</time>
      </trkpt>
      <trkpt lat="0" lon="0">
        <time>2020-12-06T10:31:26.955000+00:00</time>
      </trkpt>
      <trkpt lat="0" lon="0">
        <time>2020-12-06T10:31:26.959000+00:00</time>
      </trkpt>
      <trkpt lat="0" lon="0">
        <time>2020-12-06T10:31:26.961000+00:00</time>
      </trkpt>
      <trkpt lat="47.31931" lon="-1.40134">
        <ele>62</ele>
        <time>2020-12-06T10:31:27.944000+00:00</time>
      </trkpt>
      <trkpt lat="0" lon="0">
        <time>2020-12-06T10:31:27.954000+00:00</time>
      </trkpt>
      <trkpt lat="0" lon="0">
        <time>2020-12-06T10:31:27.958000+00:00</time>
      </trkpt>
      <trkpt lat="0" lon="0">
        <time>2020-12-06T10:31:27.959000+00:00</time>
      </trkpt>
      <trkpt lat="47.31924" lon="-1.40136">
        <ele>62</ele>
        <time>2020-12-06T10:31:28.944000+00:00</time>
      </trkpt>
      <trkpt lat="0" lon="0">
        <time>2020-12-06T10:31:28.954000+00:00</time>
      </trkpt>
      <trkpt lat="0" lon="0">
        <time>2020-12-06T10:31:28.958000+00:00</time>
      </trkpt>
      <trkpt lat="0" lon="0">
        <time>2020-12-06T10:31:28.962000+00:00</time>
      </trkpt>
      <trkpt lat="47.31917" lon="-1.40139">
        <ele>61</ele>
        <time>2020-12-06T10:31:29.947000+00:00</time>
      </trkpt>
      <trkpt lat="0" lon="0">
        <time>2020-12-06T10:31:29.950000+00:00</time>
      </trkpt>
      <trkpt lat="0" lon="0">
        <time>2020-12-06T10:31:29.955000+00:00</time>
      </trkpt>
      <trkpt lat="0" lon="0">
        <time>2020-12-06T10:31:29.957000+00:00</time>
      </trkpt>
      <trkpt lat="47.3191" lon="-1.40141">
        <ele>62</ele>
        <time>2020-12-06T10:31:30.927000+00:00</time>
      </trkpt>
      <trkpt lat="0" lon="0">
        <time>2020-12-06T10:31:30.929000+00:00</time>
      </trkpt>
      <trkpt lat="0" lon="0">
        <time>2020-12-06T10:31:30.931000+00:00</time>
      </trkpt>
      <trkpt lat="0" lon="0">
        <time>2020-12-06T10:31:30.932000+00:00</time>
      </trkpt>
      <trkpt lat="47.31903" lon="-1.40144">
        <ele>62</ele>
        <time>2020-12-06T10:31:31.908000+00:00</time>
      </trkpt>
      <trkpt lat="0" lon="0">
        <time>2020-12-06T10:31:31.911000+00:00</time>
      </trkpt>
      <trkpt lat="0" lon="0">
        <time>2020-12-06T10:31:31.915000+00:00</time>
      </trkpt>
      <trkpt lat="0" lon="0">
        <time>2020-12-06T10:31:31.920000+00:00</time>
      </trkpt>
      <trkpt lat="47.31896" lon="-1.40147">
        <ele>62</ele>
        <time>2020-12-06T10:31:32.945000+00:00</time>
      </trkpt>
      <trkpt lat="0" lon="0">
        <time>2020-12-06T10:31:32.956000+00:00</time>
      </trkpt>
      <trkpt lat="0" lon="0">
        <time>2020-12-06T10:31:32.963000+00:00</time>
      </trkpt>
      <trkpt lat="0" lon="0">
        <time>2020-12-06T10:31:32.965000+00:00</time>
      </trkpt>
      <trkpt lat="47.31889" lon="-1.40151">
        <ele>62</ele>
        <time>2020-12-06T10:31:33.951000+00:00</time>
      </trkpt>
      <trkpt lat="0" lon="0">
        <time>2020-12-06T10:31:33.953000+00:00</time>
      </trkpt>
      <trkpt lat="0" lon="0">
        <time>2020-12-06T10:31:33.955000+00:00</time>
      </trkpt>
      <trkpt lat="47.31882" lon="-1.40154">
        <ele>62</ele>
        <time>2020-12-06T10:31:34.891000+00:00</time>
      </trkpt>
      <trkpt lat="0" lon="0">
        <time>2020-12-06T10:31:34.908000+00:00</time>
      </trkpt>
      <trkpt lat="0" lon="0">
        <time>2020-12-06T10:31:34.914000+00:00</time>
      </trkpt>
      <trkpt lat="0" lon="0">
        <time>2020-12-06T10:31:34.915000+00:00</time>
      </trkpt>
      <trkpt lat="47.31875" lon="-1.40157">
        <ele>62</ele>
        <time>2020-12-06T10:31:35.913000+00:00</time>
      </trkpt>
      <trkpt lat="0" lon="0">
        <time>2020-12-06T10:31:35.930000+00:00</time>
      </trkpt>
      <trkpt lat="0" lon="0">
        <time>2020-12-06T10:31:35.934000+00:00</time>
      </trkpt>
      <trkpt lat="0" lon="0">
        <time>2020-12-06T10:31:35.938000+00:00</time>
      </trkpt>
      <trkpt lat="47.31867" lon="-1.40159">
        <ele>62</ele>
        <time>2020-12-06T10:31:36.888000+00:00</time>
      </trkpt>
      <trkpt lat="0" lon="0">
        <time>2020-12-06T10:31:36.899000+00:00</time>
      </trkpt>
      <trkpt lat="0" lon="0">
        <time>2020-12-06T10:31:36.901000+00:00</time>
      </trkpt>
      <trkpt lat="0" lon="0">
        <time>2020-12-06T10:31:36.902000+00:00</time>
      </trkpt>
      <trkpt lat="47.31859" lon="-1.40162">
        <ele>62</ele>
        <time>2020-12-06T10:31:37.923000+00:00</time>
      </trkpt>
      <trkpt lat="0" lon="0">
        <time>2020-12-06T10:31:37.931000+00:00</time>
      </trkpt>
      <trkpt lat="0" lon="0">
        <time>2020-12-06T10:31:37.940000+00:00</time>
      </trkpt>
      <trkpt lat="0" lon="0">
        <time>2020-12-06T10:31:37.946000+00:00</time>
      </trkpt>
      <trkpt lat="47.31851" lon="-1.40164">
        <ele>62</ele>
        <time>2020-12-06T10:31:38.917000+00:00</time>
      </trkpt>
      <trkpt lat="0" lon="0">
        <time>2020-12-06T10:31:38.926000+00:00</time>
      </trkpt>
      <trkpt lat="0" lon="0">
        <time>2020-12-06T10:31:38.933000+00:00</time>
      </trkpt>
      <trkpt lat="0" lon="0">
        <time>2020-12-06T10:31:38.935000+00:00</time>
      </trkpt>
      <trkpt lat="47.31842" lon="-1.40166">
        <ele>62</ele>
        <time>2020-12-06T10:31:39.976000+00:00</time>
      </trkpt>
      <trkpt lat="0" lon="0">
        <time>2020-12-06T10:31:39.982000+00:00</time>
      </trkpt>
      <trkpt lat="0" lon="0">
        <time>2020-12-06T10:31:39.986000+00:00</time>
      </trkpt>
      <trkpt lat="0" lon="0">
        <time>2020-12-06T10:31:39.987000+00:00</time>
      </trkpt>
      <trkpt lat="47.31833" lon="-1.40167">
        <ele>63</ele>
        <time>2020-12-06T10:31:40.949000+00:00</time>
      </trkpt>
      <trkpt lat="0" lon="0">
        <time>2020-12-06T10:31:40.954000+00:00</time>
      </trkpt>
      <trkpt lat="0" lon="0">
        <time>2020-12-06T10:31:40.958000+00:00</time>
      </trkpt>
      <trkpt lat="0" lon="0">
        <time>2020-12-06T10:31:40.960000+00:00</time>
      </trkpt>
      <trkpt lat="47.31825" lon="-1.40169">
        <ele>63</ele>
        <time>2020-12-06T10:31:41.935000+00:00</time>
      </trkpt>
      <trkpt lat="0" lon="0">
        <time>2020-12-06T10:31:41.940000+00:00</time>
      </trkpt>
      <trkpt lat="0" lon="0">
        <time>2020-12-06T10:31:41.945000+00:00</time>
      </trkpt>
      <trkpt lat="0" lon="0">
        <time>2020-12-06T10:31:41.947000+00:00</time>
      </trkpt>
      <trkpt lat="47.31816" lon="-1.40172">
        <ele>63</ele>
        <time>2020-12-06T10:31:42.990000+00:00</time>
      </trkpt>
      <trkpt lat="0" lon="0">
        <time>2020-12-06T10:31:42.994000+00:00</time>
      </trkpt>
      <trkpt lat="0" lon="0">
        <time>2020-12-06T10:31:42.998000+00:00</time>
      </trkpt>
      <trkpt lat="0" lon="0">
        <time>2020-12-06T10:31:42.999000+00:00</time>
      </trkpt>
      <trkpt lat="47.31807" lon="-1.40175">
        <ele>64</ele>
        <time>2020-12-06T10:31:43.934000+00:00</time>
      </trkpt>
      <trkpt lat="0" lon="0">
        <time>2020-12-06T10:31:43.941000+00:00</time>
      </trkpt>
      <trkpt lat="0" lon="0">
        <time>2020-12-06T10:31:43.943000+00:00</time>
      </trkpt>
      <trkpt lat="0" lon="0">
        <time>2020-12-06T10:31:43.946000+00:00</time>
      </trkpt>
      <trkpt lat="47.31799" lon="-1.4018">
        <ele>64</ele>
        <time>2020-12-06T10:31:44.890000+00:00</time>
      </trkpt>
      <trkpt lat="0" lon="0">
        <time>2020-12-06T10:31:44.902000+00:00</time>
      </trkpt>
      <trkpt lat="0" lon="0">
        <time>2020-12-06T10:31:44.905000+00:00</time>
      </trkpt>
      <trkpt lat="0" lon="0">
        <time>2020-12-06T10:31:44.907000+00:00</time>
      </trkpt>
      <trkpt lat="47.31792" lon="-1.40186">
        <ele>64</ele>
        <time>2020-12-06T10:31:45.936000+00:00</time>
      </trkpt>
      <trkpt lat="0" lon="0">
        <time>2020-12-06T10:31:45.944000+00:00</time>
      </trkpt>
      <trkpt lat="0" lon="0">
        <time>2020-12-06T10:31:45.951000+00:00</time>
      </trkpt>
      <trkpt lat="0" lon="0">
        <time>2020-12-06T10:31:45.952000+00:00</time>
      </trkpt>
      <trkpt lat="47.31785" lon="-1.40192">
        <ele>65</ele>
        <time>2020-12-06T10:31:46.923000+00:00</time>
      </trkpt>
      <trkpt lat="0" lon="0">
        <time>2020-12-06T10:31:46.925000+00:00</time>
      </trkpt>
      <trkpt lat="0" lon="0">
        <time>2020-12-06T10:31:46.927000+00:00</time>
      </trkpt>
      <trkpt lat="0" lon="0">
        <time>2020-12-06T10:31:46.928000+00:00</time>
      </trkpt>
      <trkpt lat="47.31778" lon="-1.402">
        <ele>65</ele>
        <time>2020-12-06T10:31:47.917000+00:00</time>
      </trkpt>
      <trkpt lat="0" lon="0">
        <time>2020-12-06T10:31:47.925000+00:00</time>
      </trkpt>
      <trkpt lat="0" lon="0">
        <time>2020-12-06T10:31:47.939000+00:00</time>
      </trkpt>
      <trkpt lat="0" lon="0">
        <time>2020-12-06T10:31:47.941000+00:00</time>
      </trkpt>
      <trkpt lat="47.31773" lon="-1.40207">
        <ele>65</ele>
        <time>2020-12-06T10:31:48.906000+00:00</time>
      </trkpt>
      <trkpt lat="0" lon="0">
        <time>2020-12-06T10:31:48.914000+00:00</time>
      </trkpt>
      <trkpt lat="0" lon="0">
        <time>2020-12-06T10:31:48.919000+00:00</time>
      </trkpt>
      <trkpt lat="0" lon="0">
        <time>2020-12-06T10:31:48.923000+00:00</time>
      </trkpt>
      <trkpt lat="47.31767" lon="-1.40215">
        <ele>66</ele>
        <time>2020-12-06T10:31:49.929000+00:00</time>
      </trkpt>
      <trkpt lat="0" lon="0">
        <time>2020-12-06T10:31:49.937000+00:00</time>
      </trkpt>
      <trkpt lat="0" lon="0">
        <time>2020-12-06T10:31:49.943000+00:00</time>
      </trkpt>
      <trkpt lat="0" lon="0">
        <time>2020-12-06T10:31:49.945000+00:00</time>
      </trkpt>
      <trkpt lat="47.31762" lon="-1.40223">
        <ele>66</ele>
        <time>2020-12-06T10:31:50.935000+00:00</time>
      </trkpt>
      <trkpt lat="0" lon="0">
        <time>2020-12-06T10:31:50.941000+00:00</time>
      </trkpt>
      <trkpt lat="0" lon="0">
        <time>2020-12-06T10:31:50.947000+00:00</time>
      </trkpt>
      <trkpt lat="0" lon="0">
        <time>2020-12-06T10:31:50.950000+00:00</time>
      </trkpt>
      <trkpt lat="47.31757" lon="-1.40231">
        <ele>66</ele>
        <time>2020-12-06T10:31:51.905000+00:00</time>
      </trkpt>
      <trkpt lat="0" lon="0">
        <time>2020-12-06T10:31:51.915000+00:00</time>
      </trkpt>
      <trkpt lat="0" lon="0">
        <time>2020-12-06T10:31:51.923000+00:00</time>
      </trkpt>
      <trkpt lat="0" lon="0">
        <time>2020-12-06T10:31:51.925000+00:00</time>
      </trkpt>
      <trkpt lat="47.31753" lon="-1.40239">
        <ele>66</ele>
        <time>2020-12-06T10:31:52.912000+00:00</time>
      </trkpt>
      <trkpt lat="0" lon="0">
        <time>2020-12-06T10:31:52.918000+00:00</time>
      </trkpt>
      <trkpt lat="0" lon="0">
        <time>2020-12-06T10:31:52.921000+00:00</time>
      </trkpt>
      <trkpt lat="0" lon="0">
        <time>2020-12-06T10:31:52.924000+00:00</time>
      </trkpt>
      <trkpt lat="47.31749" lon="-1.40246">
        <ele>66</ele>
        <time>2020-12-06T10:31:53.909000+00:00</time>
      </trkpt>
      <trkpt lat="0" lon="0">
        <time>2020-12-06T10:31:53.924000+00:00</time>
      </trkpt>
      <trkpt lat="0" lon="0">
        <time>2020-12-06T10:31:53.926000+00:00</time>
      </trkpt>
      <trkpt lat="0" lon="0">
        <time>2020-12-06T10:31:53.928000+00:00</time>
      </trkpt>
      <trkpt lat="47.31744" lon="-1.40253">
        <ele>66</ele>
        <time>2020-12-06T10:31:54.923000+00:00</time>
      </trkpt>
      <trkpt lat="0" lon="0">
        <time>2020-12-06T10:31:54.928000+00:00</time>
      </trkpt>
      <trkpt lat="0" lon="0">
        <time>2020-12-06T10:31:54.939000+00:00</time>
      </trkpt>
      <trkpt lat="0" lon="0">
        <time>2020-12-06T10:31:54.943000+00:00</time>
      </trkpt>
      <trkpt lat="47.3174" lon="-1.40259">
        <ele>66</ele>
        <time>2020-12-06T10:31:55.949000+00:00</time>
      </trkpt>
      <trkpt lat="0" lon="0">
        <time>2020-12-06T10:31:55.957000+00:00</time>
      </trkpt>
      <trkpt lat="0" lon="0">
        <time>2020-12-06T10:31:55.960000+00:00</time>
      </trkpt>
      <trkpt lat="0" lon="0">
        <time>2020-12-06T10:31:55.962000+00:00</time>
      </trkpt>
      <trkpt lat="47.31736" lon="-1.40265">
        <ele>66</ele>
        <time>2020-12-06T10:31:56.928000+00:00</time>
      </trkpt>
      <trkpt lat="0" lon="0">
        <time>2020-12-06T10:31:56.938000+00:00</time>
      </trkpt>
      <trkpt lat="0" lon="0">
        <time>2020-12-06T10:31:56.945000+00:00</time>
      </trkpt>
      <trkpt lat="0" lon="0">
        <time>2020-12-06T10:31:56.949000+00:00</time>
      </trkpt>
      <trkpt lat="47.31732" lon="-1.40271">
        <ele>66</ele>
        <time>2020-12-06T10:31:57.995000+00:00</time>
      </trkpt>
      <trkpt lat="0" lon="0">
        <time>2020-12-06T10:31:57.999000+00:00</time>
      </trkpt>
      <trkpt lat="0" lon="0">
        <time>2020-12-06T10:31:58.008000+00:00</time>
      </trkpt>
      <trkpt lat="0" lon="0">
        <time>2020-12-06T10:31:58.010000+00:00</time>
      </trkpt>
      <trkpt lat="47.31728" lon="-1.40277">
        <ele>66</ele>
        <time>2020-12-06T10:31:58.937000+00:00</time>
      </trkpt>
      <trkpt lat="0" lon="0">
        <time>2020-12-06T10:31:58.946000+00:00</time>
      </trkpt>
      <trkpt lat="0" lon="0">
        <time>2020-12-06T10:31:58.948000+00:00</time>
      </trkpt>
      <trkpt lat="0" lon="0">
        <time>2020-12-06T10:31:58.949000+00:00</time>
      </trkpt>
      <trkpt lat="47.31724" lon="-1.40282">
        <ele>65</ele>
        <time>2020-12-06T10:31:59.924000+00:00</time>
      </trkpt>
      <trkpt lat="0" lon="0">
        <time>2020-12-06T10:31:59.934000+00:00</time>
      </trkpt>
      <trkpt lat="0" lon="0">
        <time>2020-12-06T10:31:59.940000+00:00</time>
      </trkpt>
      <trkpt lat="0" lon="0">
        <time>2020-12-06T10:31:59.947000+00:00</time>
      </trkpt>
      <trkpt lat="47.3172" lon="-1.40287">
        <ele>65</ele>
        <time>2020-12-06T10:32:00.899000+00:00</time>
      </trkpt>
      <trkpt lat="0" lon="0">
        <time>2020-12-06T10:32:00.920000+00:00</time>
      </trkpt>
      <trkpt lat="0" lon="0">
        <time>2020-12-06T10:32:00.925000+00:00</time>
      </trkpt>
      <trkpt lat="0" lon="0">
        <time>2020-12-06T10:32:00.927000+00:00</time>
      </trkpt>
      <trkpt lat="47.31716" lon="-1.40292">
        <ele>65</ele>
        <time>2020-12-06T10:32:01.934000+00:00</time>
      </trkpt>
      <trkpt lat="0" lon="0">
        <time>2020-12-06T10:32:01.949000+00:00</time>
      </trkpt>
      <trkpt lat="0" lon="0">
        <time>2020-12-06T10:32:01.956000+00:00</time>
      </trkpt>
      <trkpt lat="0" lon="0">
        <time>2020-12-06T10:32:01.960000+00:00</time>
      </trkpt>
      <trkpt lat="47.31712" lon="-1.40297">
        <ele>65</ele>
        <time>2020-12-06T10:32:02.904000+00:00</time>
      </trkpt>
      <trkpt lat="0" lon="0">
        <time>2020-12-06T10:32:02.909000+00:00</time>
      </trkpt>
      <trkpt lat="0" lon="0">
        <time>2020-12-06T10:32:02.912000+00:00</time>
      </trkpt>
      <trkpt lat="0" lon="0">
        <time>2020-12-06T10:32:02.915000+00:00</time>
      </trkpt>
      <trkpt lat="47.31707" lon="-1.40301">
        <ele>65</ele>
        <time>2020-12-06T10:32:03.908000+00:00</time>
      </trkpt>
      <trkpt lat="0" lon="0">
        <time>2020-12-06T10:32:03.911000+00:00</time>
      </trkpt>
      <trkpt lat="0" lon="0">
        <time>2020-12-06T10:32:03.925000+00:00</time>
      </trkpt>
      <trkpt lat="0" lon="0">
        <time>2020-12-06T10:32:03.936000+00:00</time>
      </trkpt>
      <trkpt lat="47.31703" lon="-1.40306">
        <ele>65</ele>
        <time>2020-12-06T10:32:04.914000+00:00</time>
      </trkpt>
      <trkpt lat="0" lon="0">
        <time>2020-12-06T10:32:04.932000+00:00</time>
      </trkpt>
      <trkpt lat="0" lon="0">
        <time>2020-12-06T10:32:04.936000+00:00</time>
      </trkpt>
      <trkpt lat="0" lon="0">
        <time>2020-12-06T10:32:04.939000+00:00</time>
      </trkpt>
      <trkpt lat="47.31698" lon="-1.4031">
        <ele>65</ele>
        <time>2020-12-06T10:32:05.920000+00:00</time>
      </trkpt>
      <trkpt lat="0" lon="0">
        <time>2020-12-06T10:32:05.945000+00:00</time>
      </trkpt>
      <trkpt lat="0" lon="0">
        <time>2020-12-06T10:32:05.949000+00:00</time>
      </trkpt>
      <trkpt lat="0" lon="0">
        <time>2020-12-06T10:32:05.951000+00:00</time>
      </trkpt>
      <trkpt lat="47.31694" lon="-1.40314">
        <ele>64</ele>
        <time>2020-12-06T10:32:06.931000+00:00</time>
      </trkpt>
      <trkpt lat="0" lon="0">
        <time>2020-12-06T10:32:06.949000+00:00</time>
      </trkpt>
      <trkpt lat="0" lon="0">
        <time>2020-12-06T10:32:06.955000+00:00</time>
      </trkpt>
      <trkpt lat="0" lon="0">
        <time>2020-12-06T10:32:06.960000+00:00</time>
      </trkpt>
      <trkpt lat="47.31689" lon="-1.40319">
        <ele>64</ele>
        <time>2020-12-06T10:32:07.925000+00:00</time>
      </trkpt>
      <trkpt lat="0" lon="0">
        <time>2020-12-06T10:32:07.942000+00:00</time>
      </trkpt>
      <trkpt lat="0" lon="0">
        <time>2020-12-06T10:32:07.949000+00:00</time>
      </trkpt>
      <trkpt lat="0" lon="0">
        <time>2020-12-06T10:32:07.951000+00:00</time>
      </trkpt>
      <trkpt lat="47.31684" lon="-1.40323">
        <ele>64</ele>
        <time>2020-12-06T10:32:08.929000+00:00</time>
      </trkpt>
      <trkpt lat="0" lon="0">
        <time>2020-12-06T10:32:08.942000+00:00</time>
      </trkpt>
      <trkpt lat="0" lon="0">
        <time>2020-12-06T10:32:08.949000+00:00</time>
      </trkpt>
      <trkpt lat="0" lon="0">
        <time>2020-12-06T10:32:08.950000+00:00</time>
      </trkpt>
      <trkpt lat="47.31679" lon="-1.40328">
        <ele>64</ele>
        <time>2020-12-06T10:32:09.933000+00:00</time>
      </trkpt>
      <trkpt lat="0" lon="0">
        <time>2020-12-06T10:32:09.942000+00:00</time>
      </trkpt>
      <trkpt lat="0" lon="0">
        <time>2020-12-06T10:32:09.945000+00:00</time>
      </trkpt>
      <trkpt lat="0" lon="0">
        <time>2020-12-06T10:32:09.947000+00:00</time>
      </trkpt>
      <trkpt lat="47.31674" lon="-1.40332">
        <ele>64</ele>
        <time>2020-12-06T10:32:10.949000+00:00</time>
      </trkpt>
      <trkpt lat="0" lon="0">
        <time>2020-12-06T10:32:10.960000+00:00</time>
      </trkpt>
      <trkpt lat="0" lon="0">
        <time>2020-12-06T10:32:10.964000+00:00</time>
      </trkpt>
      <trkpt lat="0" lon="0">
        <time>2020-12-06T10:32:10.970000+00:00</time>
      </trkpt>
      <trkpt lat="47.31669" lon="-1.40337">
        <ele>64</ele>
        <time>2020-12-06T10:32:11.930000+00:00</time>
      </trkpt>
      <trkpt lat="0" lon="0">
        <time>2020-12-06T10:32:11.935000+00:00</time>
      </trkpt>
      <trkpt lat="0" lon="0">
        <time>2020-12-06T10:32:11.943000+00:00</time>
      </trkpt>
      <trkpt lat="0" lon="0">
        <time>2020-12-06T10:32:11.947000+00:00</time>
      </trkpt>
      <trkpt lat="47.31664" lon="-1.40342">
        <ele>64</ele>
        <time>2020-12-06T10:32:12.947000+00:00</time>
      </trkpt>
      <trkpt lat="0" lon="0">
        <time>2020-12-06T10:32:12.962000+00:00</time>
      </trkpt>
      <trkpt lat="0" lon="0">
        <time>2020-12-06T10:32:12.965000+00:00</time>
      </trkpt>
      <trkpt lat="0" lon="0">
        <time>2020-12-06T10:32:12.967000+00:00</time>
      </trkpt>
      <trkpt lat="47.31658" lon="-1.40347">
        <ele>64</ele>
        <time>2020-12-06T10:32:13.917000+00:00</time>
      </trkpt>
      <trkpt lat="0" lon="0">
        <time>2020-12-06T10:32:13.928000+00:00</time>
      </trkpt>
      <trkpt lat="0" lon="0">
        <time>2020-12-06T10:32:13.934000+00:00</time>
      </trkpt>
      <trkpt lat="0" lon="0">
        <time>2020-12-06T10:32:13.938000+00:00</time>
      </trkpt>
      <trkpt lat="47.31653" lon="-1.40352">
        <ele>64</ele>
        <time>2020-12-06T10:32:14.923000+00:00</time>
      </trkpt>
      <trkpt lat="0" lon="0">
        <time>2020-12-06T10:32:14.938000+00:00</time>
      </trkpt>
      <trkpt lat="0" lon="0">
        <time>2020-12-06T10:32:14.947000+00:00</time>
      </trkpt>
      <trkpt lat="0" lon="0">
        <time>2020-12-06T10:32:14.952000+00:00</time>
      </trkpt>
      <trkpt lat="47.31648" lon="-1.40357">
        <ele>64</ele>
        <time>2020-12-06T10:32:15.921000+00:00</time>
      </trkpt>
      <trkpt lat="0" lon="0">
        <time>2020-12-06T10:32:15.935000+00:00</time>
      </trkpt>
      <trkpt lat="0" lon="0">
        <time>2020-12-06T10:32:15.944000+00:00</time>
      </trkpt>
      <trkpt lat="0" lon="0">
        <time>2020-12-06T10:32:15.946000+00:00</time>
      </trkpt>
      <trkpt lat="47.31643" lon="-1.40362">
        <ele>64</ele>
        <time>2020-12-06T10:32:16.957000+00:00</time>
      </trkpt>
      <trkpt lat="0" lon="0">
        <time>2020-12-06T10:32:16.966000+00:00</time>
      </trkpt>
      <trkpt lat="0" lon="0">
        <time>2020-12-06T10:32:16.975000+00:00</time>
      </trkpt>
      <trkpt lat="0" lon="0">
        <time>2020-12-06T10:32:16.977000+00:00</time>
      </trkpt>
      <trkpt lat="47.31638" lon="-1.40368">
        <ele>64</ele>
        <time>2020-12-06T10:32:17.917000+00:00</time>
      </trkpt>
      <trkpt lat="0" lon="0">
        <time>2020-12-06T10:32:17.925000+00:00</time>
      </trkpt>
      <trkpt lat="0" lon="0">
        <time>2020-12-06T10:32:17.928000+00:00</time>
      </trkpt>
      <trkpt lat="0" lon="0">
        <time>2020-12-06T10:32:17.930000+00:00</time>
      </trkpt>
      <trkpt lat="47.31633" lon="-1.40374">
        <ele>64</ele>
        <time>2020-12-06T10:32:18.918000+00:00</time>
      </trkpt>
      <trkpt lat="0" lon="0">
        <time>2020-12-06T10:32:18.923000+00:00</time>
      </trkpt>
      <trkpt lat="0" lon="0">
        <time>2020-12-06T10:32:18.929000+00:00</time>
      </trkpt>
      <trkpt lat="0" lon="0">
        <time>2020-12-06T10:32:18.932000+00:00</time>
      </trkpt>
      <trkpt lat="47.31628" lon="-1.4038">
        <ele>64</ele>
        <time>2020-12-06T10:32:19.919000+00:00</time>
      </trkpt>
      <trkpt lat="0" lon="0">
        <time>2020-12-06T10:32:19.922000+00:00</time>
      </trkpt>
      <trkpt lat="0" lon="0">
        <time>2020-12-06T10:32:19.927000+00:00</time>
      </trkpt>
      <trkpt lat="0" lon="0">
        <time>2020-12-06T10:32:19.929000+00:00</time>
      </trkpt>
      <trkpt lat="47.31624" lon="-1.40387">
        <ele>64</ele>
        <time>2020-12-06T10:32:20.921000+00:00</time>
      </trkpt>
      <trkpt lat="0" lon="0">
        <time>2020-12-06T10:32:20.928000+00:00</time>
      </trkpt>
      <trkpt lat="0" lon="0">
        <time>2020-12-06T10:32:20.933000+00:00</time>
      </trkpt>
      <trkpt lat="0" lon="0">
        <time>2020-12-06T10:32:20.935000+00:00</time>
      </trkpt>
      <trkpt lat="47.31619" lon="-1.40393">
        <ele>64</ele>
        <time>2020-12-06T10:32:21.889000+00:00</time>
      </trkpt>
      <trkpt lat="0" lon="0">
        <time>2020-12-06T10:32:21.890000+00:00</time>
      </trkpt>
      <trkpt lat="0" lon="0">
        <time>2020-12-06T10:32:21.891000+00:00</time>
      </trkpt>
      <trkpt lat="0" lon="0">
        <time>2020-12-06T10:32:21.892000+00:00</time>
      </trkpt>
      <trkpt lat="47.31615" lon="-1.404">
        <ele>63</ele>
        <time>2020-12-06T10:32:22.892000+00:00</time>
      </trkpt>
      <trkpt lat="0" lon="0">
        <time>2020-12-06T10:32:22.901000+00:00</time>
      </trkpt>
      <trkpt lat="0" lon="0">
        <time>2020-12-06T10:32:22.905000+00:00</time>
      </trkpt>
      <trkpt lat="0" lon="0">
        <time>2020-12-06T10:32:22.907000+00:00</time>
      </trkpt>
      <trkpt lat="47.31612" lon="-1.40408">
        <ele>63</ele>
        <time>2020-12-06T10:32:23.906000+00:00</time>
      </trkpt>
      <trkpt lat="0" lon="0">
        <time>2020-12-06T10:32:23.917000+00:00</time>
      </trkpt>
      <trkpt lat="0" lon="0">
        <time>2020-12-06T10:32:23.920000+00:00</time>
      </trkpt>
      <trkpt lat="0" lon="0">
        <time>2020-12-06T10:32:23.928000+00:00</time>
      </trkpt>
      <trkpt lat="47.31608" lon="-1.40415">
        <ele>63</ele>
        <time>2020-12-06T10:32:24.928000+00:00</time>
      </trkpt>
      <trkpt lat="0" lon="0">
        <time>2020-12-06T10:32:24.945000+00:00</time>
      </trkpt>
      <trkpt lat="0" lon="0">
        <time>2020-12-06T10:32:24.949000+00:00</time>
      </trkpt>
      <trkpt lat="0" lon="0">
        <time>2020-12-06T10:32:24.954000+00:00</time>
      </trkpt>
      <trkpt lat="47.31604" lon="-1.40423">
        <ele>63</ele>
        <time>2020-12-06T10:32:25.937000+00:00</time>
      </trkpt>
      <trkpt lat="0" lon="0">
        <time>2020-12-06T10:32:25.946000+00:00</time>
      </trkpt>
      <trkpt lat="0" lon="0">
        <time>2020-12-06T10:32:25.964000+00:00</time>
      </trkpt>
      <trkpt lat="0" lon="0">
        <time>2020-12-06T10:32:25.966000+00:00</time>
      </trkpt>
      <trkpt lat="47.31601" lon="-1.40431">
        <ele>63</ele>
        <time>2020-12-06T10:32:26.939000+00:00</time>
      </trkpt>
      <trkpt lat="0" lon="0">
        <time>2020-12-06T10:32:26.943000+00:00</time>
      </trkpt>
      <trkpt lat="0" lon="0">
        <time>2020-12-06T10:32:26.947000+00:00</time>
      </trkpt>
      <trkpt lat="0" lon="0">
        <time>2020-12-06T10:32:26.949000+00:00</time>
      </trkpt>
      <trkpt lat="47.31598" lon="-1.40439">
        <ele>63</ele>
        <time>2020-12-06T10:32:27.922000+00:00</time>
      </trkpt>
      <trkpt lat="0" lon="0">
        <time>2020-12-06T10:32:27.944000+00:00</time>
      </trkpt>
      <trkpt lat="0" lon="0">
        <time>2020-12-06T10:32:27.949000+00:00</time>
      </trkpt>
      <trkpt lat="0" lon="0">
        <time>2020-12-06T10:32:27.951000+00:00</time>
      </trkpt>
      <trkpt lat="47.31595" lon="-1.40448">
        <ele>62</ele>
        <time>2020-12-06T10:32:28.947000+00:00</time>
      </trkpt>
      <trkpt lat="0" lon="0">
        <time>2020-12-06T10:32:28.952000+00:00</time>
      </trkpt>
      <trkpt lat="0" lon="0">
        <time>2020-12-06T10:32:28.958000+00:00</time>
      </trkpt>
      <trkpt lat="0" lon="0">
        <time>2020-12-06T10:32:28.959000+00:00</time>
      </trkpt>
      <trkpt lat="47.31591" lon="-1.40457">
        <ele>62</ele>
        <time>2020-12-06T10:32:29.925000+00:00</time>
      </trkpt>
      <trkpt lat="0" lon="0">
        <time>2020-12-06T10:32:29.930000+00:00</time>
      </trkpt>
      <trkpt lat="0" lon="0">
        <time>2020-12-06T10:32:29.936000+00:00</time>
      </trkpt>
      <trkpt lat="0" lon="0">
        <time>2020-12-06T10:32:29.938000+00:00</time>
      </trkpt>
      <trkpt lat="47.31588" lon="-1.40466">
        <ele>62</ele>
        <time>2020-12-06T10:32:30.903000+00:00</time>
      </trkpt>
      <trkpt lat="0" lon="0">
        <time>2020-12-06T10:32:30.910000+00:00</time>
      </trkpt>
      <trkpt lat="0" lon="0">
        <time>2020-12-06T10:32:30.918000+00:00</time>
      </trkpt>
      <trkpt lat="0" lon="0">
        <time>2020-12-06T10:32:30.920000+00:00</time>
      </trkpt>
      <trkpt lat="47.31585" lon="-1.40475">
        <ele>62</ele>
        <time>2020-12-06T10:32:31.916000+00:00</time>
      </trkpt>
      <trkpt lat="0" lon="0">
        <time>2020-12-06T10:32:31.935000+00:00</time>
      </trkpt>
      <trkpt lat="0" lon="0">
        <time>2020-12-06T10:32:31.938000+00:00</time>
      </trkpt>
      <trkpt lat="0" lon="0">
        <time>2020-12-06T10:32:31.940000+00:00</time>
      </trkpt>
      <trkpt lat="47.31581" lon="-1.40485">
        <ele>62</ele>
        <time>2020-12-06T10:32:32.899000+00:00</time>
      </trkpt>
      <trkpt lat="0" lon="0">
        <time>2020-12-06T10:32:32.911000+00:00</time>
      </trkpt>
      <trkpt lat="0" lon="0">
        <time>2020-12-06T10:32:32.913000+00:00</time>
      </trkpt>
      <trkpt lat="0" lon="0">
        <time>2020-12-06T10:32:32.914000+00:00</time>
      </trkpt>
      <trkpt lat="47.31578" lon="-1.40494">
        <ele>62</ele>
        <time>2020-12-06T10:32:33.914000+00:00</time>
      </trkpt>
      <trkpt lat="0" lon="0">
        <time>2020-12-06T10:32:33.928000+00:00</time>
      </trkpt>
      <trkpt lat="0" lon="0">
        <time>2020-12-06T10:32:33.934000+00:00</time>
      </trkpt>
      <trkpt lat="0" lon="0">
        <time>2020-12-06T10:32:33.938000+00:00</time>
      </trkpt>
      <trkpt lat="47.31574" lon="-1.40504">
        <ele>61</ele>
        <time>2020-12-06T10:32:34.915000+00:00</time>
      </trkpt>
      <trkpt lat="0" lon="0">
        <time>2020-12-06T10:32:34.926000+00:00</time>
      </trkpt>
      <trkpt lat="0" lon="0">
        <time>2020-12-06T10:32:34.930000+00:00</time>
      </trkpt>
      <trkpt lat="0" lon="0">
        <time>2020-12-06T10:32:34.934000+00:00</time>
      </trkpt>
      <trkpt lat="47.3157" lon="-1.40513">
        <ele>61</ele>
        <time>2020-12-06T10:32:35.938000+00:00</time>
      </trkpt>
      <trkpt lat="0" lon="0">
        <time>2020-12-06T10:32:35.953000+00:00</time>
      </trkpt>
      <trkpt lat="0" lon="0">
        <time>2020-12-06T10:32:35.958000+00:00</time>
      </trkpt>
      <trkpt lat="0" lon="0">
        <time>2020-12-06T10:32:35.960000+00:00</time>
      </trkpt>
      <trkpt lat="47.31566" lon="-1.40521">
        <ele>60</ele>
        <time>2020-12-06T10:32:36.871000+00:00</time>
      </trkpt>
      <trkpt lat="0" lon="0">
        <time>2020-12-06T10:32:36.884000+00:00</time>
      </trkpt>
      <trkpt lat="0" lon="0">
        <time>2020-12-06T10:32:36.890000+00:00</time>
      </trkpt>
      <trkpt lat="0" lon="0">
        <time>2020-12-06T10:32:36.891000+00:00</time>
      </trkpt>
      <trkpt lat="47.31562" lon="-1.40528">
        <ele>60</ele>
        <time>2020-12-06T10:32:37.932000+00:00</time>
      </trkpt>
      <trkpt lat="0" lon="0">
        <time>2020-12-06T10:32:37.946000+00:00</time>
      </trkpt>
      <trkpt lat="0" lon="0">
        <time>2020-12-06T10:32:37.956000+00:00</time>
      </trkpt>
      <trkpt lat="0" lon="0">
        <time>2020-12-06T10:32:37.958000+00:00</time>
      </trkpt>
      <trkpt lat="47.31557" lon="-1.40533">
        <ele>59</ele>
        <time>2020-12-06T10:32:38.909000+00:00</time>
      </trkpt>
      <trkpt lat="0" lon="0">
        <time>2020-12-06T10:32:38.910000+00:00</time>
      </trkpt>
      <trkpt lat="0" lon="0">
        <time>2020-12-06T10:32:38.911000+00:00</time>
      </trkpt>
      <trkpt lat="0" lon="0">
        <time>2020-12-06T10:32:38.912000+00:00</time>
      </trkpt>
      <trkpt lat="47.31551" lon="-1.40537">
        <ele>59</ele>
        <time>2020-12-06T10:32:39.872000+00:00</time>
      </trkpt>
      <trkpt lat="0" lon="0">
        <time>2020-12-06T10:32:39.886000+00:00</time>
      </trkpt>
      <trkpt lat="0" lon="0">
        <time>2020-12-06T10:32:39.898000+00:00</time>
      </trkpt>
      <trkpt lat="0" lon="0">
        <time>2020-12-06T10:32:39.902000+00:00</time>
      </trkpt>
      <trkpt lat="47.31546" lon="-1.40539">
        <ele>59</ele>
        <time>2020-12-06T10:32:40.964000+00:00</time>
      </trkpt>
      <trkpt lat="0" lon="0">
        <time>2020-12-06T10:32:40.977000+00:00</time>
      </trkpt>
      <trkpt lat="0" lon="0">
        <time>2020-12-06T10:32:40.982000+00:00</time>
      </trkpt>
      <trkpt lat="0" lon="0">
        <time>2020-12-06T10:32:40.986000+00:00</time>
      </trkpt>
      <trkpt lat="47.3154" lon="-1.40541">
        <ele>59</ele>
        <time>2020-12-06T10:32:41.911000+00:00</time>
      </trkpt>
      <trkpt lat="0" lon="0">
        <time>2020-12-06T10:32:41.916000+00:00</time>
      </trkpt>
      <trkpt lat="0" lon="0">
        <time>2020-12-06T10:32:41.926000+00:00</time>
      </trkpt>
      <trkpt lat="0" lon="0">
        <time>2020-12-06T10:32:41.929000+00:00</time>
      </trkpt>
      <trkpt lat="47.31533" lon="-1.40543">
        <ele>59</ele>
        <time>2020-12-06T10:32:42.905000+00:00</time>
      </trkpt>
      <trkpt lat="0" lon="0">
        <time>2020-12-06T10:32:42.909000+00:00</time>
      </trkpt>
      <trkpt lat="0" lon="0">
        <time>2020-12-06T10:32:42.926000+00:00</time>
      </trkpt>
      <trkpt lat="0" lon="0">
        <time>2020-12-06T10:32:42.928000+00:00</time>
      </trkpt>
      <trkpt lat="47.31527" lon="-1.40545">
        <ele>59</ele>
        <time>2020-12-06T10:32:43.927000+00:00</time>
      </trkpt>
      <trkpt lat="0" lon="0">
        <time>2020-12-06T10:32:43.937000+00:00</time>
      </trkpt>
      <trkpt lat="0" lon="0">
        <time>2020-12-06T10:32:43.947000+00:00</time>
      </trkpt>
      <trkpt lat="0" lon="0">
        <time>2020-12-06T10:32:43.950000+00:00</time>
      </trkpt>
      <trkpt lat="47.3152" lon="-1.40548">
        <ele>58</ele>
        <time>2020-12-06T10:32:44.870000+00:00</time>
      </trkpt>
      <trkpt lat="0" lon="0">
        <time>2020-12-06T10:32:44.876000+00:00</time>
      </trkpt>
      <trkpt lat="0" lon="0">
        <time>2020-12-06T10:32:44.882000+00:00</time>
      </trkpt>
      <trkpt lat="0" lon="0">
        <time>2020-12-06T10:32:44.885000+00:00</time>
      </trkpt>
      <trkpt lat="47.31513" lon="-1.40551">
        <ele>58</ele>
        <time>2020-12-06T10:32:45.993000+00:00</time>
      </trkpt>
      <trkpt lat="0" lon="0">
        <time>2020-12-06T10:32:46.002000+00:00</time>
      </trkpt>
      <trkpt lat="0" lon="0">
        <time>2020-12-06T10:32:46.010000+00:00</time>
      </trkpt>
      <trkpt lat="0" lon="0">
        <time>2020-12-06T10:32:46.017000+00:00</time>
      </trkpt>
      <trkpt lat="47.31507" lon="-1.40554">
        <ele>58</ele>
        <time>2020-12-06T10:32:46.943000+00:00</time>
      </trkpt>
      <trkpt lat="0" lon="0">
        <time>2020-12-06T10:32:46.947000+00:00</time>
      </trkpt>
      <trkpt lat="0" lon="0">
        <time>2020-12-06T10:32:46.963000+00:00</time>
      </trkpt>
      <trkpt lat="0" lon="0">
        <time>2020-12-06T10:32:46.968000+00:00</time>
      </trkpt>
      <trkpt lat="47.315" lon="-1.40557">
        <ele>58</ele>
        <time>2020-12-06T10:32:47.948000+00:00</time>
      </trkpt>
      <trkpt lat="0" lon="0">
        <time>2020-12-06T10:32:47.954000+00:00</time>
      </trkpt>
      <trkpt lat="0" lon="0">
        <time>2020-12-06T10:32:47.959000+00:00</time>
      </trkpt>
      <trkpt lat="0" lon="0">
        <time>2020-12-06T10:32:47.961000+00:00</time>
      </trkpt>
      <trkpt lat="47.31493" lon="-1.4056">
        <ele>57</ele>
        <time>2020-12-06T10:32:48.949000+00:00</time>
      </trkpt>
      <trkpt lat="0" lon="0">
        <time>2020-12-06T10:32:48.970000+00:00</time>
      </trkpt>
      <trkpt lat="0" lon="0">
        <time>2020-12-06T10:32:48.974000+00:00</time>
      </trkpt>
      <trkpt lat="0" lon="0">
        <time>2020-12-06T10:32:48.977000+00:00</time>
      </trkpt>
      <trkpt lat="47.31487" lon="-1.40562">
        <ele>57</ele>
        <time>2020-12-06T10:32:49.957000+00:00</time>
      </trkpt>
      <trkpt lat="0" lon="0">
        <time>2020-12-06T10:32:49.967000+00:00</time>
      </trkpt>
      <trkpt lat="0" lon="0">
        <time>2020-12-06T10:32:49.970000+00:00</time>
      </trkpt>
      <trkpt lat="0" lon="0">
        <time>2020-12-06T10:32:49.972000+00:00</time>
      </trkpt>
      <trkpt lat="47.3148" lon="-1.40563">
        <ele>56</ele>
        <time>2020-12-06T10:32:50.923000+00:00</time>
      </trkpt>
      <trkpt lat="0" lon="0">
        <time>2020-12-06T10:32:50.927000+00:00</time>
      </trkpt>
      <trkpt lat="0" lon="0">
        <time>2020-12-06T10:32:50.930000+00:00</time>
      </trkpt>
      <trkpt lat="0" lon="0">
        <time>2020-12-06T10:32:50.932000+00:00</time>
      </trkpt>
      <trkpt lat="47.31474" lon="-1.40562">
        <ele>56</ele>
        <time>2020-12-06T10:32:51.914000+00:00</time>
      </trkpt>
      <trkpt lat="0" lon="0">
        <time>2020-12-06T10:32:51.919000+00:00</time>
      </trkpt>
      <trkpt lat="0" lon="0">
        <time>2020-12-06T10:32:51.930000+00:00</time>
      </trkpt>
      <trkpt lat="0" lon="0">
        <time>2020-12-06T10:32:51.933000+00:00</time>
      </trkpt>
      <trkpt lat="47.31467" lon="-1.4056">
        <ele>56</ele>
        <time>2020-12-06T10:32:52.965000+00:00</time>
      </trkpt>
      <trkpt lat="0" lon="0">
        <time>2020-12-06T10:32:52.982000+00:00</time>
      </trkpt>
      <trkpt lat="0" lon="0">
        <time>2020-12-06T10:32:52.997000+00:00</time>
      </trkpt>
      <trkpt lat="0" lon="0">
        <time>2020-12-06T10:32:52.998000+00:00</time>
      </trkpt>
      <trkpt lat="47.31461" lon="-1.40558">
        <ele>56</ele>
        <time>2020-12-06T10:32:53.966000+00:00</time>
      </trkpt>
      <trkpt lat="0" lon="0">
        <time>2020-12-06T10:32:53.973000+00:00</time>
      </trkpt>
      <trkpt lat="0" lon="0">
        <time>2020-12-06T10:32:53.978000+00:00</time>
      </trkpt>
      <trkpt lat="0" lon="0">
        <time>2020-12-06T10:32:53.983000+00:00</time>
      </trkpt>
      <trkpt lat="47.31454" lon="-1.40555">
        <ele>55</ele>
        <time>2020-12-06T10:32:54.974000+00:00</time>
      </trkpt>
      <trkpt lat="0" lon="0">
        <time>2020-12-06T10:32:54.984000+00:00</time>
      </trkpt>
      <trkpt lat="0" lon="0">
        <time>2020-12-06T10:32:54.991000+00:00</time>
      </trkpt>
      <trkpt lat="0" lon="0">
        <time>2020-12-06T10:32:54.996000+00:00</time>
      </trkpt>
      <trkpt lat="47.31447" lon="-1.40553">
        <ele>55</ele>
        <time>2020-12-06T10:32:55.934000+00:00</time>
      </trkpt>
      <trkpt lat="0" lon="0">
        <time>2020-12-06T10:32:55.939000+00:00</time>
      </trkpt>
      <trkpt lat="0" lon="0">
        <time>2020-12-06T10:32:55.942000+00:00</time>
      </trkpt>
      <trkpt lat="0" lon="0">
        <time>2020-12-06T10:32:55.945000+00:00</time>
      </trkpt>
      <trkpt lat="47.31441" lon="-1.40552">
        <ele>55</ele>
        <time>2020-12-06T10:32:56.939000+00:00</time>
      </trkpt>
      <trkpt lat="0" lon="0">
        <time>2020-12-06T10:32:56.942000+00:00</time>
      </trkpt>
      <trkpt lat="0" lon="0">
        <time>2020-12-06T10:32:56.944000+00:00</time>
      </trkpt>
      <trkpt lat="0" lon="0">
        <time>2020-12-06T10:32:56.949000+00:00</time>
      </trkpt>
      <trkpt lat="47.31436" lon="-1.4055">
        <ele>55</ele>
        <time>2020-12-06T10:32:57.947000+00:00</time>
      </trkpt>
      <trkpt lat="0" lon="0">
        <time>2020-12-06T10:32:57.951000+00:00</time>
      </trkpt>
      <trkpt lat="0" lon="0">
        <time>2020-12-06T10:32:57.958000+00:00</time>
      </trkpt>
      <trkpt lat="0" lon="0">
        <time>2020-12-06T10:32:57.960000+00:00</time>
      </trkpt>
      <trkpt lat="47.31431" lon="-1.40549">
        <ele>54</ele>
        <time>2020-12-06T10:32:58.939000+00:00</time>
      </trkpt>
      <trkpt lat="0" lon="0">
        <time>2020-12-06T10:32:58.946000+00:00</time>
      </trkpt>
      <trkpt lat="0" lon="0">
        <time>2020-12-06T10:32:58.954000+00:00</time>
      </trkpt>
      <trkpt lat="0" lon="0">
        <time>2020-12-06T10:32:58.956000+00:00</time>
      </trkpt>
      <trkpt lat="47.31427" lon="-1.40548">
        <ele>54</ele>
        <time>2020-12-06T10:32:59.854000+00:00</time>
      </trkpt>
      <trkpt lat="0" lon="0">
        <time>2020-12-06T10:32:59.859000+00:00</time>
      </trkpt>
      <trkpt lat="0" lon="0">
        <time>2020-12-06T10:32:59.864000+00:00</time>
      </trkpt>
      <trkpt lat="0" lon="0">
        <time>2020-12-06T10:32:59.866000+00:00</time>
      </trkpt>
      <trkpt lat="47.31424" lon="-1.40547">
        <ele>54</ele>
        <time>2020-12-06T10:33:00.847000+00:00</time>
      </trkpt>
      <trkpt lat="0" lon="0">
        <time>2020-12-06T10:33:00.852000+00:00</time>
      </trkpt>
      <trkpt lat="0" lon="0">
        <time>2020-12-06T10:33:00.853000+00:00</time>
      </trkpt>
      <trkpt lat="47.31422" lon="-1.40546">
        <ele>54</ele>
        <time>2020-12-06T10:33:01.837000+00:00</time>
      </trkpt>
      <trkpt lat="0" lon="0">
        <time>2020-12-06T10:33:01.851000+00:00</time>
      </trkpt>
      <trkpt lat="0" lon="0">
        <time>2020-12-06T10:33:01.854000+00:00</time>
      </trkpt>
      <trkpt lat="0" lon="0">
        <time>2020-12-06T10:33:01.861000+00:00</time>
      </trkpt>
      <trkpt lat="47.31419" lon="-1.40546">
        <ele>54</ele>
        <time>2020-12-06T10:33:02.864000+00:00</time>
      </trkpt>
      <trkpt lat="0" lon="0">
        <time>2020-12-06T10:33:02.867000+00:00</time>
      </trkpt>
      <trkpt lat="0" lon="0">
        <time>2020-12-06T10:33:02.873000+00:00</time>
      </trkpt>
      <trkpt lat="0" lon="0">
        <time>2020-12-06T10:33:02.885000+00:00</time>
      </trkpt>
      <trkpt lat="47.31418" lon="-1.40545">
        <ele>54</ele>
        <time>2020-12-06T10:33:03.946000+00:00</time>
      </trkpt>
      <trkpt lat="0" lon="0">
        <time>2020-12-06T10:33:03.954000+00:00</time>
      </trkpt>
      <trkpt lat="0" lon="0">
        <time>2020-12-06T10:33:03.965000+00:00</time>
      </trkpt>
      <trkpt lat="0" lon="0">
        <time>2020-12-06T10:33:03.968000+00:00</time>
      </trkpt>
      <trkpt lat="47.31416" lon="-1.40545">
        <ele>54</ele>
        <time>2020-12-06T10:33:04.946000+00:00</time>
      </trkpt>
      <trkpt lat="0" lon="0">
        <time>2020-12-06T10:33:04.959000+00:00</time>
      </trkpt>
      <trkpt lat="0" lon="0">
        <time>2020-12-06T10:33:04.961000+00:00</time>
      </trkpt>
      <trkpt lat="0" lon="0">
        <time>2020-12-06T10:33:04.962000+00:00</time>
      </trkpt>
      <trkpt lat="47.31415" lon="-1.40545">
        <ele>54</ele>
        <time>2020-12-06T10:33:05.907000+00:00</time>
      </trkpt>
      <trkpt lat="0" lon="0">
        <time>2020-12-06T10:33:05.916000+00:00</time>
      </trkpt>
      <trkpt lat="0" lon="0">
        <time>2020-12-06T10:33:05.930000+00:00</time>
      </trkpt>
      <trkpt lat="0" lon="0">
        <time>2020-12-06T10:33:05.933000+00:00</time>
      </trkpt>
      <trkpt lat="47.31414" lon="-1.40545">
        <ele>54</ele>
        <time>2020-12-06T10:33:06.929000+00:00</time>
      </trkpt>
      <trkpt lat="0" lon="0">
        <time>2020-12-06T10:33:06.932000+00:00</time>
      </trkpt>
      <trkpt lat="0" lon="0">
        <time>2020-12-06T10:33:06.938000+00:00</time>
      </trkpt>
      <trkpt lat="0" lon="0">
        <time>2020-12-06T10:33:06.940000+00:00</time>
      </trkpt>
      <trkpt lat="47.31412" lon="-1.40545">
        <ele>54</ele>
        <time>2020-12-06T10:33:07.922000+00:00</time>
      </trkpt>
      <trkpt lat="0" lon="0">
        <time>2020-12-06T10:33:07.929000+00:00</time>
      </trkpt>
      <trkpt lat="0" lon="0">
        <time>2020-12-06T10:33:07.933000+00:00</time>
      </trkpt>
      <trkpt lat="0" lon="0">
        <time>2020-12-06T10:33:07.939000+00:00</time>
      </trkpt>
      <trkpt lat="47.31411" lon="-1.40545">
        <ele>53</ele>
        <time>2020-12-06T10:33:08.933000+00:00</time>
      </trkpt>
      <trkpt lat="0" lon="0">
        <time>2020-12-06T10:33:08.942000+00:00</time>
      </trkpt>
      <trkpt lat="0" lon="0">
        <time>2020-12-06T10:33:08.945000+00:00</time>
      </trkpt>
      <trkpt lat="0" lon="0">
        <time>2020-12-06T10:33:08.950000+00:00</time>
      </trkpt>
      <trkpt lat="47.31409" lon="-1.40545">
        <ele>53</ele>
        <time>2020-12-06T10:33:09.934000+00:00</time>
      </trkpt>
      <trkpt lat="0" lon="0">
        <time>2020-12-06T10:33:09.941000+00:00</time>
      </trkpt>
      <trkpt lat="0" lon="0">
        <time>2020-12-06T10:33:09.944000+00:00</time>
      </trkpt>
      <trkpt lat="0" lon="0">
        <time>2020-12-06T10:33:09.945000+00:00</time>
      </trkpt>
      <trkpt lat="47.31408" lon="-1.40545">
        <ele>53</ele>
        <time>2020-12-06T10:33:10.962000+00:00</time>
      </trkpt>
      <trkpt lat="0" lon="0">
        <time>2020-12-06T10:33:10.966000+00:00</time>
      </trkpt>
      <trkpt lat="0" lon="0">
        <time>2020-12-06T10:33:10.970000+00:00</time>
      </trkpt>
      <trkpt lat="0" lon="0">
        <time>2020-12-06T10:33:10.971000+00:00</time>
      </trkpt>
      <trkpt lat="47.31406" lon="-1.40546">
        <ele>53</ele>
        <time>2020-12-06T10:33:11.915000+00:00</time>
      </trkpt>
      <trkpt lat="0" lon="0">
        <time>2020-12-06T10:33:11.919000+00:00</time>
      </trkpt>
      <trkpt lat="0" lon="0">
        <time>2020-12-06T10:33:11.923000+00:00</time>
      </trkpt>
      <trkpt lat="0" lon="0">
        <time>2020-12-06T10:33:11.926000+00:00</time>
      </trkpt>
      <trkpt lat="47.31405" lon="-1.40547">
        <ele>53</ele>
        <time>2020-12-06T10:33:12.955000+00:00</time>
      </trkpt>
      <trkpt lat="0" lon="0">
        <time>2020-12-06T10:33:12.962000+00:00</time>
      </trkpt>
      <trkpt lat="0" lon="0">
        <time>2020-12-06T10:33:12.964000+00:00</time>
      </trkpt>
      <trkpt lat="0" lon="0">
        <time>2020-12-06T10:33:12.965000+00:00</time>
      </trkpt>
      <trkpt lat="47.31403" lon="-1.40548">
        <ele>53</ele>
        <time>2020-12-06T10:33:13.954000+00:00</time>
      </trkpt>
      <trkpt lat="0" lon="0">
        <time>2020-12-06T10:33:13.967000+00:00</time>
      </trkpt>
      <trkpt lat="0" lon="0">
        <time>2020-12-06T10:33:13.973000+00:00</time>
      </trkpt>
      <trkpt lat="0" lon="0">
        <time>2020-12-06T10:33:13.976000+00:00</time>
      </trkpt>
      <trkpt lat="47.31401" lon="-1.40549">
        <ele>53</ele>
        <time>2020-12-06T10:33:14.942000+00:00</time>
      </trkpt>
      <trkpt lat="0" lon="0">
        <time>2020-12-06T10:33:14.947000+00:00</time>
      </trkpt>
      <trkpt lat="0" lon="0">
        <time>2020-12-06T10:33:14.953000+00:00</time>
      </trkpt>
      <trkpt lat="0" lon="0">
        <time>2020-12-06T10:33:14.955000+00:00</time>
      </trkpt>
      <trkpt lat="47.31398" lon="-1.4055">
        <ele>52</ele>
        <time>2020-12-06T10:33:15.970000+00:00</time>
      </trkpt>
      <trkpt lat="0" lon="0">
        <time>2020-12-06T10:33:15.975000+00:00</time>
      </trkpt>
      <trkpt lat="0" lon="0">
        <time>2020-12-06T10:33:15.985000+00:00</time>
      </trkpt>
      <trkpt lat="0" lon="0">
        <time>2020-12-06T10:33:15.988000+00:00</time>
      </trkpt>
      <trkpt lat="47.31396" lon="-1.40551">
        <ele>52</ele>
        <time>2020-12-06T10:33:16.955000+00:00</time>
      </trkpt>
      <trkpt lat="0" lon="0">
        <time>2020-12-06T10:33:16.966000+00:00</time>
      </trkpt>
      <trkpt lat="0" lon="0">
        <time>2020-12-06T10:33:16.973000+00:00</time>
      </trkpt>
      <trkpt lat="0" lon="0">
        <time>2020-12-06T10:33:16.974000+00:00</time>
      </trkpt>
      <trkpt lat="47.31393" lon="-1.40553">
        <ele>52</ele>
        <time>2020-12-06T10:33:17.948000+00:00</time>
      </trkpt>
      <trkpt lat="0" lon="0">
        <time>2020-12-06T10:33:17.956000+00:00</time>
      </trkpt>
      <trkpt lat="0" lon="0">
        <time>2020-12-06T10:33:17.964000+00:00</time>
      </trkpt>
      <trkpt lat="0" lon="0">
        <time>2020-12-06T10:33:17.967000+00:00</time>
      </trkpt>
      <trkpt lat="47.3139" lon="-1.40554">
        <ele>52</ele>
        <time>2020-12-06T10:33:18.950000+00:00</time>
      </trkpt>
      <trkpt lat="0" lon="0">
        <time>2020-12-06T10:33:18.955000+00:00</time>
      </trkpt>
      <trkpt lat="0" lon="0">
        <time>2020-12-06T10:33:18.961000+00:00</time>
      </trkpt>
      <trkpt lat="0" lon="0">
        <time>2020-12-06T10:33:18.964000+00:00</time>
      </trkpt>
      <trkpt lat="47.31388" lon="-1.40557">
        <ele>51</ele>
        <time>2020-12-06T10:33:19.961000+00:00</time>
      </trkpt>
      <trkpt lat="0" lon="0">
        <time>2020-12-06T10:33:19.966000+00:00</time>
      </trkpt>
      <trkpt lat="0" lon="0">
        <time>2020-12-06T10:33:19.975000+00:00</time>
      </trkpt>
      <trkpt lat="0" lon="0">
        <time>2020-12-06T10:33:19.977000+00:00</time>
      </trkpt>
      <trkpt lat="47.31382" lon="-1.40561">
        <ele>51</ele>
        <time>2020-12-06T10:33:21.988000+00:00</time>
      </trkpt>
      <trkpt lat="0" lon="0">
        <time>2020-12-06T10:33:22.013000+00:00</time>
      </trkpt>
      <trkpt lat="0" lon="0">
        <time>2020-12-06T10:33:22.015000+00:00</time>
      </trkpt>
      <trkpt lat="0" lon="0">
        <time>2020-12-06T10:33:22.016000+00:00</time>
      </trkpt>
      <trkpt lat="47.31379" lon="-1.40564">
        <ele>51</ele>
        <time>2020-12-06T10:33:22.971000+00:00</time>
      </trkpt>
      <trkpt lat="0" lon="0">
        <time>2020-12-06T10:33:22.977000+00:00</time>
      </trkpt>
      <trkpt lat="0" lon="0">
        <time>2020-12-06T10:33:22.984000+00:00</time>
      </trkpt>
      <trkpt lat="0" lon="0">
        <time>2020-12-06T10:33:22.986000+00:00</time>
      </trkpt>
      <trkpt lat="47.31375" lon="-1.40567">
        <ele>50</ele>
        <time>2020-12-06T10:33:23.970000+00:00</time>
      </trkpt>
      <trkpt lat="0" lon="0">
        <time>2020-12-06T10:33:23.979000+00:00</time>
      </trkpt>
      <trkpt lat="0" lon="0">
        <time>2020-12-06T10:33:23.983000+00:00</time>
      </trkpt>
      <trkpt lat="0" lon="0">
        <time>2020-12-06T10:33:23.985000+00:00</time>
      </trkpt>
      <trkpt lat="47.31372" lon="-1.40569">
        <ele>50</ele>
        <time>2020-12-06T10:33:24.937000+00:00</time>
      </trkpt>
      <trkpt lat="0" lon="0">
        <time>2020-12-06T10:33:24.950000+00:00</time>
      </trkpt>
      <trkpt lat="0" lon="0">
        <time>2020-12-06T10:33:24.953000+00:00</time>
      </trkpt>
      <trkpt lat="0" lon="0">
        <time>2020-12-06T10:33:24.959000+00:00</time>
      </trkpt>
      <trkpt lat="47.31368" lon="-1.40572">
        <ele>50</ele>
        <time>2020-12-06T10:33:25.943000+00:00</time>
      </trkpt>
      <trkpt lat="0" lon="0">
        <time>2020-12-06T10:33:25.957000+00:00</time>
      </trkpt>
      <trkpt lat="0" lon="0">
        <time>2020-12-06T10:33:25.961000+00:00</time>
      </trkpt>
      <trkpt lat="0" lon="0">
        <time>2020-12-06T10:33:25.963000+00:00</time>
      </trkpt>
      <trkpt lat="47.31365" lon="-1.40574">
        <ele>49</ele>
        <time>2020-12-06T10:33:26.946000+00:00</time>
      </trkpt>
      <trkpt lat="0" lon="0">
        <time>2020-12-06T10:33:26.961000+00:00</time>
      </trkpt>
      <trkpt lat="0" lon="0">
        <time>2020-12-06T10:33:26.965000+00:00</time>
      </trkpt>
      <trkpt lat="0" lon="0">
        <time>2020-12-06T10:33:26.967000+00:00</time>
      </trkpt>
      <trkpt lat="47.31362" lon="-1.40577">
        <ele>49</ele>
        <time>2020-12-06T10:33:27.907000+00:00</time>
      </trkpt>
      <trkpt lat="0" lon="0">
        <time>2020-12-06T10:33:27.913000+00:00</time>
      </trkpt>
      <trkpt lat="0" lon="0">
        <time>2020-12-06T10:33:27.916000+00:00</time>
      </trkpt>
      <trkpt lat="0" lon="0">
        <time>2020-12-06T10:33:27.920000+00:00</time>
      </trkpt>
      <trkpt lat="47.31359" lon="-1.4058">
        <ele>49</ele>
        <time>2020-12-06T10:33:28.894000+00:00</time>
      </trkpt>
      <trkpt lat="0" lon="0">
        <time>2020-12-06T10:33:28.902000+00:00</time>
      </trkpt>
      <trkpt lat="0" lon="0">
        <time>2020-12-06T10:33:28.904000+00:00</time>
      </trkpt>
      <trkpt lat="0" lon="0">
        <time>2020-12-06T10:33:28.905000+00:00</time>
      </trkpt>
      <trkpt lat="47.31357" lon="-1.40582">
        <ele>49</ele>
        <time>2020-12-06T10:33:29.967000+00:00</time>
      </trkpt>
      <trkpt lat="0" lon="0">
        <time>2020-12-06T10:33:29.970000+00:00</time>
      </trkpt>
      <trkpt lat="0" lon="0">
        <time>2020-12-06T10:33:29.982000+00:00</time>
      </trkpt>
      <trkpt lat="0" lon="0">
        <time>2020-12-06T10:33:29.985000+00:00</time>
      </trkpt>
      <trkpt lat="47.31354" lon="-1.40585">
        <ele>48</ele>
        <time>2020-12-06T10:33:30.935000+00:00</time>
      </trkpt>
      <trkpt lat="0" lon="0">
        <time>2020-12-06T10:33:30.938000+00:00</time>
      </trkpt>
      <trkpt lat="0" lon="0">
        <time>2020-12-06T10:33:30.942000+00:00</time>
      </trkpt>
      <trkpt lat="0" lon="0">
        <time>2020-12-06T10:33:30.946000+00:00</time>
      </trkpt>
      <trkpt lat="47.31352" lon="-1.40588">
        <ele>48</ele>
        <time>2020-12-06T10:33:31.966000+00:00</time>
      </trkpt>
      <trkpt lat="0" lon="0">
        <time>2020-12-06T10:33:31.971000+00:00</time>
      </trkpt>
      <trkpt lat="0" lon="0">
        <time>2020-12-06T10:33:31.979000+00:00</time>
      </trkpt>
      <trkpt lat="0" lon="0">
        <time>2020-12-06T10:33:31.981000+00:00</time>
      </trkpt>
      <trkpt lat="47.3135" lon="-1.4059">
        <ele>48</ele>
        <time>2020-12-06T10:33:32.970000+00:00</time>
      </trkpt>
      <trkpt lat="0" lon="0">
        <time>2020-12-06T10:33:32.976000+00:00</time>
      </trkpt>
      <trkpt lat="0" lon="0">
        <time>2020-12-06T10:33:32.980000+00:00</time>
      </trkpt>
      <trkpt lat="0" lon="0">
        <time>2020-12-06T10:33:32.983000+00:00</time>
      </trkpt>
      <trkpt lat="47.31348" lon="-1.40593">
        <ele>48</ele>
        <time>2020-12-06T10:33:33.942000+00:00</time>
      </trkpt>
      <trkpt lat="0" lon="0">
        <time>2020-12-06T10:33:33.953000+00:00</time>
      </trkpt>
      <trkpt lat="0" lon="0">
        <time>2020-12-06T10:33:33.964000+00:00</time>
      </trkpt>
      <trkpt lat="0" lon="0">
        <time>2020-12-06T10:33:33.965000+00:00</time>
      </trkpt>
      <trkpt lat="47.31347" lon="-1.40595">
        <ele>47</ele>
        <time>2020-12-06T10:33:34.979000+00:00</time>
      </trkpt>
      <trkpt lat="0" lon="0">
        <time>2020-12-06T10:33:34.982000+00:00</time>
      </trkpt>
      <trkpt lat="0" lon="0">
        <time>2020-12-06T10:33:34.990000+00:00</time>
      </trkpt>
      <trkpt lat="0" lon="0">
        <time>2020-12-06T10:33:34.992000+00:00</time>
      </trkpt>
      <trkpt lat="47.31345" lon="-1.40598">
        <ele>47</ele>
        <time>2020-12-06T10:33:35.933000+00:00</time>
      </trkpt>
      <trkpt lat="0" lon="0">
        <time>2020-12-06T10:33:35.949000+00:00</time>
      </trkpt>
      <trkpt lat="0" lon="0">
        <time>2020-12-06T10:33:35.954000+00:00</time>
      </trkpt>
      <trkpt lat="0" lon="0">
        <time>2020-12-06T10:33:35.956000+00:00</time>
      </trkpt>
      <trkpt lat="47.31344" lon="-1.406">
        <ele>47</ele>
        <time>2020-12-06T10:33:36.921000+00:00</time>
      </trkpt>
      <trkpt lat="0" lon="0">
        <time>2020-12-06T10:33:36.930000+00:00</time>
      </trkpt>
      <trkpt lat="0" lon="0">
        <time>2020-12-06T10:33:36.934000+00:00</time>
      </trkpt>
      <trkpt lat="0" lon="0">
        <time>2020-12-06T10:33:36.936000+00:00</time>
      </trkpt>
      <trkpt lat="47.31342" lon="-1.40603">
        <ele>47</ele>
        <time>2020-12-06T10:33:37.911000+00:00</time>
      </trkpt>
      <trkpt lat="0" lon="0">
        <time>2020-12-06T10:33:37.916000+00:00</time>
      </trkpt>
      <trkpt lat="0" lon="0">
        <time>2020-12-06T10:33:37.923000+00:00</time>
      </trkpt>
      <trkpt lat="0" lon="0">
        <time>2020-12-06T10:33:37.925000+00:00</time>
      </trkpt>
      <trkpt lat="47.3134" lon="-1.40606">
        <ele>46</ele>
        <time>2020-12-06T10:33:38.943000+00:00</time>
      </trkpt>
      <trkpt lat="0" lon="0">
        <time>2020-12-06T10:33:38.947000+00:00</time>
      </trkpt>
      <trkpt lat="0" lon="0">
        <time>2020-12-06T10:33:38.959000+00:00</time>
      </trkpt>
      <trkpt lat="0" lon="0">
        <time>2020-12-06T10:33:38.961000+00:00</time>
      </trkpt>
      <trkpt lat="47.31339" lon="-1.40609">
        <ele>46</ele>
        <time>2020-12-06T10:33:39.969000+00:00</time>
      </trkpt>
      <trkpt lat="0" lon="0">
        <time>2020-12-06T10:33:39.975000+00:00</time>
      </trkpt>
      <trkpt lat="0" lon="0">
        <time>2020-12-06T10:33:39.979000+00:00</time>
      </trkpt>
      <trkpt lat="0" lon="0">
        <time>2020-12-06T10:33:39.981000+00:00</time>
      </trkpt>
      <trkpt lat="47.31337" lon="-1.40611">
        <ele>46</ele>
        <time>2020-12-06T10:33:40.977000+00:00</time>
      </trkpt>
      <trkpt lat="0" lon="0">
        <time>2020-12-06T10:33:40.983000+00:00</time>
      </trkpt>
      <trkpt lat="0" lon="0">
        <time>2020-12-06T10:33:40.986000+00:00</time>
      </trkpt>
      <trkpt lat="0" lon="0">
        <time>2020-12-06T10:33:40.988000+00:00</time>
      </trkpt>
      <trkpt lat="47.31336" lon="-1.40614">
        <ele>45</ele>
        <time>2020-12-06T10:33:41.968000+00:00</time>
      </trkpt>
      <trkpt lat="0" lon="0">
        <time>2020-12-06T10:33:41.978000+00:00</time>
      </trkpt>
      <trkpt lat="0" lon="0">
        <time>2020-12-06T10:33:41.981000+00:00</time>
      </trkpt>
      <trkpt lat="0" lon="0">
        <time>2020-12-06T10:33:41.983000+00:00</time>
      </trkpt>
      <trkpt lat="47.31334" lon="-1.40616">
        <ele>45</ele>
        <time>2020-12-06T10:33:42.948000+00:00</time>
      </trkpt>
      <trkpt lat="0" lon="0">
        <time>2020-12-06T10:33:42.964000+00:00</time>
      </trkpt>
      <trkpt lat="0" lon="0">
        <time>2020-12-06T10:33:42.970000+00:00</time>
      </trkpt>
      <trkpt lat="0" lon="0">
        <time>2020-12-06T10:33:42.972000+00:00</time>
      </trkpt>
      <trkpt lat="47.31332" lon="-1.40619">
        <ele>45</ele>
        <time>2020-12-06T10:33:43.947000+00:00</time>
      </trkpt>
      <trkpt lat="0" lon="0">
        <time>2020-12-06T10:33:43.967000+00:00</time>
      </trkpt>
      <trkpt lat="0" lon="0">
        <time>2020-12-06T10:33:43.977000+00:00</time>
      </trkpt>
      <trkpt lat="0" lon="0">
        <time>2020-12-06T10:33:43.981000+00:00</time>
      </trkpt>
      <trkpt lat="47.3133" lon="-1.40621">
        <ele>44</ele>
        <time>2020-12-06T10:33:44.968000+00:00</time>
      </trkpt>
      <trkpt lat="0" lon="0">
        <time>2020-12-06T10:33:44.975000+00:00</time>
      </trkpt>
      <trkpt lat="0" lon="0">
        <time>2020-12-06T10:33:44.985000+00:00</time>
      </trkpt>
      <trkpt lat="0" lon="0">
        <time>2020-12-06T10:33:44.989000+00:00</time>
      </trkpt>
      <trkpt lat="47.31327" lon="-1.40624">
        <ele>44</ele>
        <time>2020-12-06T10:33:45.870000+00:00</time>
      </trkpt>
      <trkpt lat="0" lon="0">
        <time>2020-12-06T10:33:45.879000+00:00</time>
      </trkpt>
      <trkpt lat="0" lon="0">
        <time>2020-12-06T10:33:45.883000+00:00</time>
      </trkpt>
      <trkpt lat="0" lon="0">
        <time>2020-12-06T10:33:45.889000+00:00</time>
      </trkpt>
      <trkpt lat="47.31324" lon="-1.40626">
        <ele>43</ele>
        <time>2020-12-06T10:33:46.954000+00:00</time>
      </trkpt>
      <trkpt lat="0" lon="0">
        <time>2020-12-06T10:33:46.960000+00:00</time>
      </trkpt>
      <trkpt lat="0" lon="0">
        <time>2020-12-06T10:33:46.963000+00:00</time>
      </trkpt>
      <trkpt lat="0" lon="0">
        <time>2020-12-06T10:33:46.966000+00:00</time>
      </trkpt>
      <trkpt lat="47.31322" lon="-1.40629">
        <ele>43</ele>
        <time>2020-12-06T10:33:47.955000+00:00</time>
      </trkpt>
      <trkpt lat="0" lon="0">
        <time>2020-12-06T10:33:47.961000+00:00</time>
      </trkpt>
      <trkpt lat="0" lon="0">
        <time>2020-12-06T10:33:47.966000+00:00</time>
      </trkpt>
      <trkpt lat="0" lon="0">
        <time>2020-12-06T10:33:47.969000+00:00</time>
      </trkpt>
      <trkpt lat="47.31319" lon="-1.40631">
        <ele>42</ele>
        <time>2020-12-06T10:33:48.961000+00:00</time>
      </trkpt>
      <trkpt lat="0" lon="0">
        <time>2020-12-06T10:33:48.979000+00:00</time>
      </trkpt>
      <trkpt lat="0" lon="0">
        <time>2020-12-06T10:33:48.983000+00:00</time>
      </trkpt>
      <trkpt lat="0" lon="0">
        <time>2020-12-06T10:33:48.986000+00:00</time>
      </trkpt>
      <trkpt lat="47.31316" lon="-1.40634">
        <ele>42</ele>
        <time>2020-12-06T10:33:49.961000+00:00</time>
      </trkpt>
      <trkpt lat="0" lon="0">
        <time>2020-12-06T10:33:49.973000+00:00</time>
      </trkpt>
      <trkpt lat="0" lon="0">
        <time>2020-12-06T10:33:49.976000+00:00</time>
      </trkpt>
      <trkpt lat="0" lon="0">
        <time>2020-12-06T10:33:49.977000+00:00</time>
      </trkpt>
      <trkpt lat="47.31313" lon="-1.40637">
        <ele>41</ele>
        <time>2020-12-06T10:33:50.926000+00:00</time>
      </trkpt>
      <trkpt lat="0" lon="0">
        <time>2020-12-06T10:33:50.929000+00:00</time>
      </trkpt>
      <trkpt lat="0" lon="0">
        <time>2020-12-06T10:33:50.947000+00:00</time>
      </trkpt>
      <trkpt lat="0" lon="0">
        <time>2020-12-06T10:33:50.957000+00:00</time>
      </trkpt>
      <trkpt lat="47.3131" lon="-1.40639">
        <ele>41</ele>
        <time>2020-12-06T10:33:51.923000+00:00</time>
      </trkpt>
      <trkpt lat="0" lon="0">
        <time>2020-12-06T10:33:51.934000+00:00</time>
      </trkpt>
      <trkpt lat="0" lon="0">
        <time>2020-12-06T10:33:51.938000+00:00</time>
      </trkpt>
      <trkpt lat="0" lon="0">
        <time>2020-12-06T10:33:51.941000+00:00</time>
      </trkpt>
      <trkpt lat="47.31307" lon="-1.40642">
        <ele>40</ele>
        <time>2020-12-06T10:33:52.866000+00:00</time>
      </trkpt>
      <trkpt lat="0" lon="0">
        <time>2020-12-06T10:33:52.867000+00:00</time>
      </trkpt>
      <trkpt lat="0" lon="0">
        <time>2020-12-06T10:33:52.869000+00:00</time>
      </trkpt>
      <trkpt lat="0" lon="0">
        <time>2020-12-06T10:33:52.870000+00:00</time>
      </trkpt>
      <trkpt lat="47.31304" lon="-1.40646">
        <ele>40</ele>
        <time>2020-12-06T10:33:53.963000+00:00</time>
      </trkpt>
      <trkpt lat="0" lon="0">
        <time>2020-12-06T10:33:53.987000+00:00</time>
      </trkpt>
      <trkpt lat="0" lon="0">
        <time>2020-12-06T10:33:53.994000+00:00</time>
      </trkpt>
      <trkpt lat="0" lon="0">
        <time>2020-12-06T10:33:53.998000+00:00</time>
      </trkpt>
      <trkpt lat="47.31301" lon="-1.40648">
        <ele>39</ele>
        <time>2020-12-06T10:33:54.977000+00:00</time>
      </trkpt>
      <trkpt lat="0" lon="0">
        <time>2020-12-06T10:33:54.981000+00:00</time>
      </trkpt>
      <trkpt lat="0" lon="0">
        <time>2020-12-06T10:33:54.986000+00:00</time>
      </trkpt>
      <trkpt lat="0" lon="0">
        <time>2020-12-06T10:33:54.991000+00:00</time>
      </trkpt>
      <trkpt lat="47.31299" lon="-1.40652">
        <ele>39</ele>
        <time>2020-12-06T10:33:55.962000+00:00</time>
      </trkpt>
      <trkpt lat="0" lon="0">
        <time>2020-12-06T10:33:55.970000+00:00</time>
      </trkpt>
      <trkpt lat="0" lon="0">
        <time>2020-12-06T10:33:55.974000+00:00</time>
      </trkpt>
      <trkpt lat="0" lon="0">
        <time>2020-12-06T10:33:55.977000+00:00</time>
      </trkpt>
      <trkpt lat="47.31297" lon="-1.40655">
        <ele>38</ele>
        <time>2020-12-06T10:33:56.934000+00:00</time>
      </trkpt>
      <trkpt lat="0" lon="0">
        <time>2020-12-06T10:33:56.946000+00:00</time>
      </trkpt>
      <trkpt lat="0" lon="0">
        <time>2020-12-06T10:33:56.953000+00:00</time>
      </trkpt>
      <trkpt lat="0" lon="0">
        <time>2020-12-06T10:33:56.955000+00:00</time>
      </trkpt>
      <trkpt lat="47.31295" lon="-1.40657">
        <ele>38</ele>
        <time>2020-12-06T10:33:57.940000+00:00</time>
      </trkpt>
      <trkpt lat="0" lon="0">
        <time>2020-12-06T10:33:57.954000+00:00</time>
      </trkpt>
      <trkpt lat="0" lon="0">
        <time>2020-12-06T10:33:57.962000+00:00</time>
      </trkpt>
      <trkpt lat="0" lon="0">
        <time>2020-12-06T10:33:57.964000+00:00</time>
      </trkpt>
      <trkpt lat="47.31293" lon="-1.4066">
        <ele>37</ele>
        <time>2020-12-06T10:33:58.969000+00:00</time>
      </trkpt>
      <trkpt lat="0" lon="0">
        <time>2020-12-06T10:33:58.977000+00:00</time>
      </trkpt>
      <trkpt lat="0" lon="0">
        <time>2020-12-06T10:33:58.980000+00:00</time>
      </trkpt>
      <trkpt lat="0" lon="0">
        <time>2020-12-06T10:33:58.981000+00:00</time>
      </trkpt>
      <trkpt lat="47.31291" lon="-1.40663">
        <ele>37</ele>
        <time>2020-12-06T10:33:59.977000+00:00</time>
      </trkpt>
      <trkpt lat="0" lon="0">
        <time>2020-12-06T10:33:59.983000+00:00</time>
      </trkpt>
      <trkpt lat="0" lon="0">
        <time>2020-12-06T10:33:59.994000+00:00</time>
      </trkpt>
      <trkpt lat="0" lon="0">
        <time>2020-12-06T10:33:59.998000+00:00</time>
      </trkpt>
      <trkpt lat="47.31289" lon="-1.40665">
        <ele>36</ele>
        <time>2020-12-06T10:34:00.917000+00:00</time>
      </trkpt>
      <trkpt lat="0" lon="0">
        <time>2020-12-06T10:34:00.931000+00:00</time>
      </trkpt>
      <trkpt lat="0" lon="0">
        <time>2020-12-06T10:34:00.937000+00:00</time>
      </trkpt>
      <trkpt lat="0" lon="0">
        <time>2020-12-06T10:34:00.939000+00:00</time>
      </trkpt>
      <trkpt lat="47.31287" lon="-1.40668">
        <ele>36</ele>
        <time>2020-12-06T10:34:01.947000+00:00</time>
      </trkpt>
      <trkpt lat="0" lon="0">
        <time>2020-12-06T10:34:01.955000+00:00</time>
      </trkpt>
      <trkpt lat="0" lon="0">
        <time>2020-12-06T10:34:01.963000+00:00</time>
      </trkpt>
      <trkpt lat="0" lon="0">
        <time>2020-12-06T10:34:01.969000+00:00</time>
      </trkpt>
      <trkpt lat="47.31285" lon="-1.40671">
        <ele>35</ele>
        <time>2020-12-06T10:34:02.917000+00:00</time>
      </trkpt>
      <trkpt lat="0" lon="0">
        <time>2020-12-06T10:34:02.923000+00:00</time>
      </trkpt>
      <trkpt lat="0" lon="0">
        <time>2020-12-06T10:34:02.926000+00:00</time>
      </trkpt>
      <trkpt lat="0" lon="0">
        <time>2020-12-06T10:34:02.930000+00:00</time>
      </trkpt>
      <trkpt lat="47.31283" lon="-1.40674">
        <ele>35</ele>
        <time>2020-12-06T10:34:03.902000+00:00</time>
      </trkpt>
      <trkpt lat="0" lon="0">
        <time>2020-12-06T10:34:03.919000+00:00</time>
      </trkpt>
      <trkpt lat="0" lon="0">
        <time>2020-12-06T10:34:03.923000+00:00</time>
      </trkpt>
      <trkpt lat="0" lon="0">
        <time>2020-12-06T10:34:03.925000+00:00</time>
      </trkpt>
      <trkpt lat="47.3128" lon="-1.40677">
        <ele>34</ele>
        <time>2020-12-06T10:34:04.901000+00:00</time>
      </trkpt>
      <trkpt lat="0" lon="0">
        <time>2020-12-06T10:34:04.907000+00:00</time>
      </trkpt>
      <trkpt lat="0" lon="0">
        <time>2020-12-06T10:34:04.922000+00:00</time>
      </trkpt>
      <trkpt lat="0" lon="0">
        <time>2020-12-06T10:34:04.926000+00:00</time>
      </trkpt>
      <trkpt lat="47.31278" lon="-1.4068">
        <ele>33</ele>
        <time>2020-12-06T10:34:05.930000+00:00</time>
      </trkpt>
      <trkpt lat="0" lon="0">
        <time>2020-12-06T10:34:05.933000+00:00</time>
      </trkpt>
      <trkpt lat="0" lon="0">
        <time>2020-12-06T10:34:05.937000+00:00</time>
      </trkpt>
      <trkpt lat="0" lon="0">
        <time>2020-12-06T10:34:05.940000+00:00</time>
      </trkpt>
      <trkpt lat="47.31276" lon="-1.40684">
        <ele>33</ele>
        <time>2020-12-06T10:34:06.945000+00:00</time>
      </trkpt>
      <trkpt lat="0" lon="0">
        <time>2020-12-06T10:34:06.956000+00:00</time>
      </trkpt>
      <trkpt lat="0" lon="0">
        <time>2020-12-06T10:34:06.965000+00:00</time>
      </trkpt>
      <trkpt lat="0" lon="0">
        <time>2020-12-06T10:34:06.967000+00:00</time>
      </trkpt>
      <trkpt lat="47.31273" lon="-1.40687">
        <ele>32</ele>
        <time>2020-12-06T10:34:07.958000+00:00</time>
      </trkpt>
      <trkpt lat="0" lon="0">
        <time>2020-12-06T10:34:07.963000+00:00</time>
      </trkpt>
      <trkpt lat="0" lon="0">
        <time>2020-12-06T10:34:07.968000+00:00</time>
      </trkpt>
      <trkpt lat="0" lon="0">
        <time>2020-12-06T10:34:07.970000+00:00</time>
      </trkpt>
      <trkpt lat="47.31271" lon="-1.4069">
        <ele>32</ele>
        <time>2020-12-06T10:34:08.958000+00:00</time>
      </trkpt>
      <trkpt lat="0" lon="0">
        <time>2020-12-06T10:34:08.978000+00:00</time>
      </trkpt>
      <trkpt lat="0" lon="0">
        <time>2020-12-06T10:34:08.982000+00:00</time>
      </trkpt>
      <trkpt lat="0" lon="0">
        <time>2020-12-06T10:34:08.987000+00:00</time>
      </trkpt>
      <trkpt lat="47.31266" lon="-1.40696">
        <ele>30</ele>
        <time>2020-12-06T10:34:10.957000+00:00</time>
      </trkpt>
      <trkpt lat="0" lon="0">
        <time>2020-12-06T10:34:10.970000+00:00</time>
      </trkpt>
      <trkpt lat="0" lon="0">
        <time>2020-12-06T10:34:10.979000+00:00</time>
      </trkpt>
      <trkpt lat="0" lon="0">
        <time>2020-12-06T10:34:10.985000+00:00</time>
      </trkpt>
      <trkpt lat="47.31264" lon="-1.40699">
        <ele>30</ele>
        <time>2020-12-06T10:34:11.920000+00:00</time>
      </trkpt>
      <trkpt lat="0" lon="0">
        <time>2020-12-06T10:34:11.935000+00:00</time>
      </trkpt>
      <trkpt lat="0" lon="0">
        <time>2020-12-06T10:34:11.939000+00:00</time>
      </trkpt>
      <trkpt lat="0" lon="0">
        <time>2020-12-06T10:34:11.941000+00:00</time>
      </trkpt>
      <trkpt lat="47.31262" lon="-1.40702">
        <ele>29</ele>
        <time>2020-12-06T10:34:12.927000+00:00</time>
      </trkpt>
      <trkpt lat="0" lon="0">
        <time>2020-12-06T10:34:12.936000+00:00</time>
      </trkpt>
      <trkpt lat="0" lon="0">
        <time>2020-12-06T10:34:12.946000+00:00</time>
      </trkpt>
      <trkpt lat="0" lon="0">
        <time>2020-12-06T10:34:12.948000+00:00</time>
      </trkpt>
      <trkpt lat="47.3126" lon="-1.40705">
        <ele>29</ele>
        <time>2020-12-06T10:34:13.949000+00:00</time>
      </trkpt>
      <trkpt lat="0" lon="0">
        <time>2020-12-06T10:34:13.956000+00:00</time>
      </trkpt>
      <trkpt lat="0" lon="0">
        <time>2020-12-06T10:34:13.960000+00:00</time>
      </trkpt>
      <trkpt lat="0" lon="0">
        <time>2020-12-06T10:34:13.965000+00:00</time>
      </trkpt>
      <trkpt lat="47.31258" lon="-1.40707">
        <ele>28</ele>
        <time>2020-12-06T10:34:14.883000+00:00</time>
      </trkpt>
      <trkpt lat="0" lon="0">
        <time>2020-12-06T10:34:14.892000+00:00</time>
      </trkpt>
      <trkpt lat="0" lon="0">
        <time>2020-12-06T10:34:14.897000+00:00</time>
      </trkpt>
      <trkpt lat="0" lon="0">
        <time>2020-12-06T10:34:14.898000+00:00</time>
      </trkpt>
      <trkpt lat="47.31256" lon="-1.40709">
        <ele>28</ele>
        <time>2020-12-06T10:34:15.852000+00:00</time>
      </trkpt>
      <trkpt lat="0" lon="0">
        <time>2020-12-06T10:34:15.854000+00:00</time>
      </trkpt>
      <trkpt lat="0" lon="0">
        <time>2020-12-06T10:34:15.856000+00:00</time>
      </trkpt>
      <trkpt lat="0" lon="0">
        <time>2020-12-06T10:34:15.858000+00:00</time>
      </trkpt>
      <trkpt lat="47.31254" lon="-1.40712">
        <ele>28</ele>
        <time>2020-12-06T10:34:16.943000+00:00</time>
      </trkpt>
      <trkpt lat="0" lon="0">
        <time>2020-12-06T10:34:16.954000+00:00</time>
      </trkpt>
      <trkpt lat="0" lon="0">
        <time>2020-12-06T10:34:16.963000+00:00</time>
      </trkpt>
      <trkpt lat="0" lon="0">
        <time>2020-12-06T10:34:16.965000+00:00</time>
      </trkpt>
      <trkpt lat="47.31252" lon="-1.40714">
        <ele>27</ele>
        <time>2020-12-06T10:34:17.934000+00:00</time>
      </trkpt>
      <trkpt lat="0" lon="0">
        <time>2020-12-06T10:34:17.949000+00:00</time>
      </trkpt>
      <trkpt lat="0" lon="0">
        <time>2020-12-06T10:34:17.953000+00:00</time>
      </trkpt>
      <trkpt lat="0" lon="0">
        <time>2020-12-06T10:34:17.955000+00:00</time>
      </trkpt>
      <trkpt lat="47.3125" lon="-1.40716">
        <ele>27</ele>
        <time>2020-12-06T10:34:18.922000+00:00</time>
      </trkpt>
      <trkpt lat="0" lon="0">
        <time>2020-12-06T10:34:18.939000+00:00</time>
      </trkpt>
      <trkpt lat="0" lon="0">
        <time>2020-12-06T10:34:18.943000+00:00</time>
      </trkpt>
      <trkpt lat="0" lon="0">
        <time>2020-12-06T10:34:18.947000+00:00</time>
      </trkpt>
      <trkpt lat="47.31248" lon="-1.40718">
        <ele>26</ele>
        <time>2020-12-06T10:34:19.900000+00:00</time>
      </trkpt>
      <trkpt lat="0" lon="0">
        <time>2020-12-06T10:34:19.910000+00:00</time>
      </trkpt>
      <trkpt lat="0" lon="0">
        <time>2020-12-06T10:34:19.913000+00:00</time>
      </trkpt>
      <trkpt lat="0" lon="0">
        <time>2020-12-06T10:34:19.915000+00:00</time>
      </trkpt>
      <trkpt lat="47.31245" lon="-1.4072">
        <ele>26</ele>
        <time>2020-12-06T10:34:20.907000+00:00</time>
      </trkpt>
      <trkpt lat="0" lon="0">
        <time>2020-12-06T10:34:20.915000+00:00</time>
      </trkpt>
      <trkpt lat="0" lon="0">
        <time>2020-12-06T10:34:20.919000+00:00</time>
      </trkpt>
      <trkpt lat="0" lon="0">
        <time>2020-12-06T10:34:20.922000+00:00</time>
      </trkpt>
      <trkpt lat="47.31242" lon="-1.40722">
        <ele>25</ele>
        <time>2020-12-06T10:34:21.914000+00:00</time>
      </trkpt>
      <trkpt lat="0" lon="0">
        <time>2020-12-06T10:34:21.919000+00:00</time>
      </trkpt>
      <trkpt lat="0" lon="0">
        <time>2020-12-06T10:34:21.926000+00:00</time>
      </trkpt>
      <trkpt lat="0" lon="0">
        <time>2020-12-06T10:34:21.928000+00:00</time>
      </trkpt>
      <trkpt lat="47.3124" lon="-1.40724">
        <ele>24</ele>
        <time>2020-12-06T10:34:22.940000+00:00</time>
      </trkpt>
      <trkpt lat="0" lon="0">
        <time>2020-12-06T10:34:22.952000+00:00</time>
      </trkpt>
      <trkpt lat="0" lon="0">
        <time>2020-12-06T10:34:22.959000+00:00</time>
      </trkpt>
      <trkpt lat="0" lon="0">
        <time>2020-12-06T10:34:22.961000+00:00</time>
      </trkpt>
      <trkpt lat="47.31237" lon="-1.40727">
        <ele>24</ele>
        <time>2020-12-06T10:34:23.970000+00:00</time>
      </trkpt>
      <trkpt lat="0" lon="0">
        <time>2020-12-06T10:34:23.985000+00:00</time>
      </trkpt>
      <trkpt lat="0" lon="0">
        <time>2020-12-06T10:34:23.989000+00:00</time>
      </trkpt>
      <trkpt lat="0" lon="0">
        <time>2020-12-06T10:34:23.991000+00:00</time>
      </trkpt>
      <trkpt lat="47.31234" lon="-1.40729">
        <ele>23</ele>
        <time>2020-12-06T10:34:24.936000+00:00</time>
      </trkpt>
      <trkpt lat="0" lon="0">
        <time>2020-12-06T10:34:24.939000+00:00</time>
      </trkpt>
      <trkpt lat="0" lon="0">
        <time>2020-12-06T10:34:24.951000+00:00</time>
      </trkpt>
      <trkpt lat="0" lon="0">
        <time>2020-12-06T10:34:24.953000+00:00</time>
      </trkpt>
      <trkpt lat="47.31231" lon="-1.40731">
        <ele>23</ele>
        <time>2020-12-06T10:34:25.889000+00:00</time>
      </trkpt>
      <trkpt lat="0" lon="0">
        <time>2020-12-06T10:34:25.907000+00:00</time>
      </trkpt>
      <trkpt lat="0" lon="0">
        <time>2020-12-06T10:34:25.917000+00:00</time>
      </trkpt>
      <trkpt lat="0" lon="0">
        <time>2020-12-06T10:34:25.921000+00:00</time>
      </trkpt>
      <trkpt lat="47.31228" lon="-1.40733">
        <ele>22</ele>
        <time>2020-12-06T10:34:26.925000+00:00</time>
      </trkpt>
      <trkpt lat="0" lon="0">
        <time>2020-12-06T10:34:26.935000+00:00</time>
      </trkpt>
      <trkpt lat="0" lon="0">
        <time>2020-12-06T10:34:26.941000+00:00</time>
      </trkpt>
      <trkpt lat="0" lon="0">
        <time>2020-12-06T10:34:26.943000+00:00</time>
      </trkpt>
      <trkpt lat="47.31225" lon="-1.40735">
        <ele>21</ele>
        <time>2020-12-06T10:34:27.910000+00:00</time>
      </trkpt>
      <trkpt lat="0" lon="0">
        <time>2020-12-06T10:34:27.913000+00:00</time>
      </trkpt>
      <trkpt lat="0" lon="0">
        <time>2020-12-06T10:34:27.920000+00:00</time>
      </trkpt>
      <trkpt lat="0" lon="0">
        <time>2020-12-06T10:34:27.922000+00:00</time>
      </trkpt>
      <trkpt lat="47.31222" lon="-1.40737">
        <ele>21</ele>
        <time>2020-12-06T10:34:28.910000+00:00</time>
      </trkpt>
      <trkpt lat="0" lon="0">
        <time>2020-12-06T10:34:28.926000+00:00</time>
      </trkpt>
      <trkpt lat="0" lon="0">
        <time>2020-12-06T10:34:28.933000+00:00</time>
      </trkpt>
      <trkpt lat="0" lon="0">
        <time>2020-12-06T10:34:28.936000+00:00</time>
      </trkpt>
      <trkpt lat="47.31219" lon="-1.40739">
        <ele>20</ele>
        <time>2020-12-06T10:34:29.950000+00:00</time>
      </trkpt>
      <trkpt lat="0" lon="0">
        <time>2020-12-06T10:34:29.957000+00:00</time>
      </trkpt>
      <trkpt lat="0" lon="0">
        <time>2020-12-06T10:34:29.961000+00:00</time>
      </trkpt>
      <trkpt lat="0" lon="0">
        <time>2020-12-06T10:34:29.963000+00:00</time>
      </trkpt>
      <trkpt lat="47.31216" lon="-1.4074">
        <ele>19</ele>
        <time>2020-12-06T10:34:30.936000+00:00</time>
      </trkpt>
      <trkpt lat="0" lon="0">
        <time>2020-12-06T10:34:30.946000+00:00</time>
      </trkpt>
      <trkpt lat="0" lon="0">
        <time>2020-12-06T10:34:30.957000+00:00</time>
      </trkpt>
      <trkpt lat="0" lon="0">
        <time>2020-12-06T10:34:30.959000+00:00</time>
      </trkpt>
      <trkpt lat="47.31213" lon="-1.40742">
        <ele>19</ele>
        <time>2020-12-06T10:34:31.920000+00:00</time>
      </trkpt>
      <trkpt lat="0" lon="0">
        <time>2020-12-06T10:34:31.931000+00:00</time>
      </trkpt>
      <trkpt lat="0" lon="0">
        <time>2020-12-06T10:34:31.935000+00:00</time>
      </trkpt>
      <trkpt lat="0" lon="0">
        <time>2020-12-06T10:34:31.937000+00:00</time>
      </trkpt>
      <trkpt lat="47.3121" lon="-1.40743">
        <ele>18</ele>
        <time>2020-12-06T10:34:32.898000+00:00</time>
      </trkpt>
      <trkpt lat="0" lon="0">
        <time>2020-12-06T10:34:32.910000+00:00</time>
      </trkpt>
      <trkpt lat="0" lon="0">
        <time>2020-12-06T10:34:32.916000+00:00</time>
      </trkpt>
      <trkpt lat="0" lon="0">
        <time>2020-12-06T10:34:32.918000+00:00</time>
      </trkpt>
      <trkpt lat="47.31208" lon="-1.40745">
        <ele>18</ele>
        <time>2020-12-06T10:34:33.961000+00:00</time>
      </trkpt>
      <trkpt lat="0" lon="0">
        <time>2020-12-06T10:34:33.967000+00:00</time>
      </trkpt>
      <trkpt lat="0" lon="0">
        <time>2020-12-06T10:34:33.971000+00:00</time>
      </trkpt>
      <trkpt lat="0" lon="0">
        <time>2020-12-06T10:34:33.973000+00:00</time>
      </trkpt>
      <trkpt lat="47.31205" lon="-1.40746">
        <ele>17</ele>
        <time>2020-12-06T10:34:34.883000+00:00</time>
      </trkpt>
      <trkpt lat="0" lon="0">
        <time>2020-12-06T10:34:34.886000+00:00</time>
      </trkpt>
      <trkpt lat="0" lon="0">
        <time>2020-12-06T10:34:34.891000+00:00</time>
      </trkpt>
      <trkpt lat="0" lon="0">
        <time>2020-12-06T10:34:34.893000+00:00</time>
      </trkpt>
      <trkpt lat="47.31202" lon="-1.40747">
        <ele>17</ele>
        <time>2020-12-06T10:34:35.915000+00:00</time>
      </trkpt>
      <trkpt lat="0" lon="0">
        <time>2020-12-06T10:34:35.924000+00:00</time>
      </trkpt>
      <trkpt lat="0" lon="0">
        <time>2020-12-06T10:34:35.927000+00:00</time>
      </trkpt>
      <trkpt lat="0" lon="0">
        <time>2020-12-06T10:34:35.929000+00:00</time>
      </trkpt>
      <trkpt lat="47.312" lon="-1.40749">
        <ele>16</ele>
        <time>2020-12-06T10:34:36.930000+00:00</time>
      </trkpt>
      <trkpt lat="0" lon="0">
        <time>2020-12-06T10:34:36.941000+00:00</time>
      </trkpt>
      <trkpt lat="0" lon="0">
        <time>2020-12-06T10:34:36.954000+00:00</time>
      </trkpt>
      <trkpt lat="0" lon="0">
        <time>2020-12-06T10:34:36.960000+00:00</time>
      </trkpt>
      <trkpt lat="47.31197" lon="-1.4075">
        <ele>16</ele>
        <time>2020-12-06T10:34:37.942000+00:00</time>
      </trkpt>
      <trkpt lat="0" lon="0">
        <time>2020-12-06T10:34:37.959000+00:00</time>
      </trkpt>
      <trkpt lat="0" lon="0">
        <time>2020-12-06T10:34:37.963000+00:00</time>
      </trkpt>
      <trkpt lat="0" lon="0">
        <time>2020-12-06T10:34:37.965000+00:00</time>
      </trkpt>
      <trkpt lat="47.31194" lon="-1.40751">
        <ele>15</ele>
        <time>2020-12-06T10:34:38.901000+00:00</time>
      </trkpt>
      <trkpt lat="0" lon="0">
        <time>2020-12-06T10:34:38.904000+00:00</time>
      </trkpt>
      <trkpt lat="0" lon="0">
        <time>2020-12-06T10:34:38.912000+00:00</time>
      </trkpt>
      <trkpt lat="0" lon="0">
        <time>2020-12-06T10:34:38.913000+00:00</time>
      </trkpt>
      <trkpt lat="47.31192" lon="-1.40752">
        <ele>15</ele>
        <time>2020-12-06T10:34:39.956000+00:00</time>
      </trkpt>
      <trkpt lat="0" lon="0">
        <time>2020-12-06T10:34:39.960000+00:00</time>
      </trkpt>
      <trkpt lat="0" lon="0">
        <time>2020-12-06T10:34:39.966000+00:00</time>
      </trkpt>
      <trkpt lat="0" lon="0">
        <time>2020-12-06T10:34:39.969000+00:00</time>
      </trkpt>
      <trkpt lat="47.31189" lon="-1.40753">
        <ele>15</ele>
        <time>2020-12-06T10:34:40.929000+00:00</time>
      </trkpt>
      <trkpt lat="0" lon="0">
        <time>2020-12-06T10:34:40.933000+00:00</time>
      </trkpt>
      <trkpt lat="0" lon="0">
        <time>2020-12-06T10:34:40.942000+00:00</time>
      </trkpt>
      <trkpt lat="0" lon="0">
        <time>2020-12-06T10:34:40.943000+00:00</time>
      </trkpt>
      <trkpt lat="47.31187" lon="-1.40754">
        <ele>14</ele>
        <time>2020-12-06T10:34:41.965000+00:00</time>
      </trkpt>
      <trkpt lat="0" lon="0">
        <time>2020-12-06T10:34:41.985000+00:00</time>
      </trkpt>
      <trkpt lat="0" lon="0">
        <time>2020-12-06T10:34:41.989000+00:00</time>
      </trkpt>
      <trkpt lat="0" lon="0">
        <time>2020-12-06T10:34:41.991000+00:00</time>
      </trkpt>
      <trkpt lat="47.31184" lon="-1.40755">
        <ele>14</ele>
        <time>2020-12-06T10:34:42.946000+00:00</time>
      </trkpt>
      <trkpt lat="0" lon="0">
        <time>2020-12-06T10:34:42.959000+00:00</time>
      </trkpt>
      <trkpt lat="0" lon="0">
        <time>2020-12-06T10:34:42.967000+00:00</time>
      </trkpt>
      <trkpt lat="0" lon="0">
        <time>2020-12-06T10:34:42.970000+00:00</time>
      </trkpt>
      <trkpt lat="47.31181" lon="-1.40756">
        <ele>13</ele>
        <time>2020-12-06T10:34:43.962000+00:00</time>
      </trkpt>
      <trkpt lat="0" lon="0">
        <time>2020-12-06T10:34:43.982000+00:00</time>
      </trkpt>
      <trkpt lat="0" lon="0">
        <time>2020-12-06T10:34:43.987000+00:00</time>
      </trkpt>
      <trkpt lat="0" lon="0">
        <time>2020-12-06T10:34:43.989000+00:00</time>
      </trkpt>
      <trkpt lat="47.31178" lon="-1.40756">
        <ele>13</ele>
        <time>2020-12-06T10:34:44.930000+00:00</time>
      </trkpt>
      <trkpt lat="0" lon="0">
        <time>2020-12-06T10:34:44.940000+00:00</time>
      </trkpt>
      <trkpt lat="0" lon="0">
        <time>2020-12-06T10:34:44.944000+00:00</time>
      </trkpt>
      <trkpt lat="0" lon="0">
        <time>2020-12-06T10:34:44.947000+00:00</time>
      </trkpt>
      <trkpt lat="47.31175" lon="-1.40757">
        <ele>12</ele>
        <time>2020-12-06T10:34:45.930000+00:00</time>
      </trkpt>
      <trkpt lat="0" lon="0">
        <time>2020-12-06T10:34:45.935000+00:00</time>
      </trkpt>
      <trkpt lat="0" lon="0">
        <time>2020-12-06T10:34:45.940000+00:00</time>
      </trkpt>
      <trkpt lat="0" lon="0">
        <time>2020-12-06T10:34:45.953000+00:00</time>
      </trkpt>
      <trkpt lat="47.31172" lon="-1.40758">
        <ele>12</ele>
        <time>2020-12-06T10:34:46.931000+00:00</time>
      </trkpt>
      <trkpt lat="0" lon="0">
        <time>2020-12-06T10:34:46.934000+00:00</time>
      </trkpt>
      <trkpt lat="0" lon="0">
        <time>2020-12-06T10:34:46.942000+00:00</time>
      </trkpt>
      <trkpt lat="0" lon="0">
        <time>2020-12-06T10:34:46.949000+00:00</time>
      </trkpt>
      <trkpt lat="47.3117" lon="-1.40758">
        <ele>12</ele>
        <time>2020-12-06T10:34:47.947000+00:00</time>
      </trkpt>
      <trkpt lat="0" lon="0">
        <time>2020-12-06T10:34:47.963000+00:00</time>
      </trkpt>
      <trkpt lat="0" lon="0">
        <time>2020-12-06T10:34:47.973000+00:00</time>
      </trkpt>
      <trkpt lat="0" lon="0">
        <time>2020-12-06T10:34:47.975000+00:00</time>
      </trkpt>
      <trkpt lat="47.31167" lon="-1.40758">
        <ele>11</ele>
        <time>2020-12-06T10:34:48.922000+00:00</time>
      </trkpt>
      <trkpt lat="0" lon="0">
        <time>2020-12-06T10:34:48.933000+00:00</time>
      </trkpt>
      <trkpt lat="0" lon="0">
        <time>2020-12-06T10:34:48.936000+00:00</time>
      </trkpt>
      <trkpt lat="0" lon="0">
        <time>2020-12-06T10:34:48.938000+00:00</time>
      </trkpt>
      <trkpt lat="47.31164" lon="-1.40758">
        <ele>11</ele>
        <time>2020-12-06T10:34:49.950000+00:00</time>
      </trkpt>
      <trkpt lat="0" lon="0">
        <time>2020-12-06T10:34:49.959000+00:00</time>
      </trkpt>
      <trkpt lat="0" lon="0">
        <time>2020-12-06T10:34:49.969000+00:00</time>
      </trkpt>
      <trkpt lat="0" lon="0">
        <time>2020-12-06T10:34:49.972000+00:00</time>
      </trkpt>
      <trkpt lat="47.31161" lon="-1.40758">
        <ele>11</ele>
        <time>2020-12-06T10:34:50.965000+00:00</time>
      </trkpt>
      <trkpt lat="0" lon="0">
        <time>2020-12-06T10:34:50.972000+00:00</time>
      </trkpt>
      <trkpt lat="0" lon="0">
        <time>2020-12-06T10:34:50.980000+00:00</time>
      </trkpt>
      <trkpt lat="0" lon="0">
        <time>2020-12-06T10:34:50.982000+00:00</time>
      </trkpt>
      <trkpt lat="47.31159" lon="-1.40757">
        <ele>11</ele>
        <time>2020-12-06T10:34:51.923000+00:00</time>
      </trkpt>
      <trkpt lat="0" lon="0">
        <time>2020-12-06T10:34:51.926000+00:00</time>
      </trkpt>
      <trkpt lat="0" lon="0">
        <time>2020-12-06T10:34:51.928000+00:00</time>
      </trkpt>
      <trkpt lat="0" lon="0">
        <time>2020-12-06T10:34:51.929000+00:00</time>
      </trkpt>
      <trkpt lat="47.31156" lon="-1.40757">
        <ele>11</ele>
        <time>2020-12-06T10:34:52.898000+00:00</time>
      </trkpt>
      <trkpt lat="0" lon="0">
        <time>2020-12-06T10:34:52.910000+00:00</time>
      </trkpt>
      <trkpt lat="0" lon="0">
        <time>2020-12-06T10:34:52.915000+00:00</time>
      </trkpt>
      <trkpt lat="0" lon="0">
        <time>2020-12-06T10:34:52.917000+00:00</time>
      </trkpt>
      <trkpt lat="47.31153" lon="-1.40756">
        <ele>11</ele>
        <time>2020-12-06T10:34:53.960000+00:00</time>
      </trkpt>
      <trkpt lat="0" lon="0">
        <time>2020-12-06T10:34:53.981000+00:00</time>
      </trkpt>
      <trkpt lat="0" lon="0">
        <time>2020-12-06T10:34:53.985000+00:00</time>
      </trkpt>
      <trkpt lat="0" lon="0">
        <time>2020-12-06T10:34:53.987000+00:00</time>
      </trkpt>
      <trkpt lat="47.3115" lon="-1.40756">
        <ele>10</ele>
        <time>2020-12-06T10:34:54.952000+00:00</time>
      </trkpt>
      <trkpt lat="0" lon="0">
        <time>2020-12-06T10:34:54.966000+00:00</time>
      </trkpt>
      <trkpt lat="0" lon="0">
        <time>2020-12-06T10:34:54.968000+00:00</time>
      </trkpt>
      <trkpt lat="0" lon="0">
        <time>2020-12-06T10:34:54.969000+00:00</time>
      </trkpt>
      <trkpt lat="47.31147" lon="-1.40755">
        <ele>10</ele>
        <time>2020-12-06T10:34:55.955000+00:00</time>
      </trkpt>
      <trkpt lat="0" lon="0">
        <time>2020-12-06T10:34:55.971000+00:00</time>
      </trkpt>
      <trkpt lat="0" lon="0">
        <time>2020-12-06T10:34:55.975000+00:00</time>
      </trkpt>
      <trkpt lat="0" lon="0">
        <time>2020-12-06T10:34:55.983000+00:00</time>
      </trkpt>
      <trkpt lat="47.31144" lon="-1.40754">
        <ele>10</ele>
        <time>2020-12-06T10:34:56.926000+00:00</time>
      </trkpt>
      <trkpt lat="0" lon="0">
        <time>2020-12-06T10:34:56.935000+00:00</time>
      </trkpt>
      <trkpt lat="0" lon="0">
        <time>2020-12-06T10:34:56.939000+00:00</time>
      </trkpt>
      <trkpt lat="0" lon="0">
        <time>2020-12-06T10:34:56.947000+00:00</time>
      </trkpt>
      <trkpt lat="47.31141" lon="-1.40753">
        <ele>10</ele>
        <time>2020-12-06T10:34:57.913000+00:00</time>
      </trkpt>
      <trkpt lat="0" lon="0">
        <time>2020-12-06T10:34:57.915000+00:00</time>
      </trkpt>
      <trkpt lat="0" lon="0">
        <time>2020-12-06T10:34:57.919000+00:00</time>
      </trkpt>
      <trkpt lat="0" lon="0">
        <time>2020-12-06T10:34:57.921000+00:00</time>
      </trkpt>
      <trkpt lat="47.31138" lon="-1.40752">
        <ele>10</ele>
        <time>2020-12-06T10:34:58.927000+00:00</time>
      </trkpt>
      <trkpt lat="0" lon="0">
        <time>2020-12-06T10:34:58.938000+00:00</time>
      </trkpt>
      <trkpt lat="0" lon="0">
        <time>2020-12-06T10:34:58.942000+00:00</time>
      </trkpt>
      <trkpt lat="0" lon="0">
        <time>2020-12-06T10:34:58.944000+00:00</time>
      </trkpt>
      <trkpt lat="47.31134" lon="-1.40752">
        <ele>10</ele>
        <time>2020-12-06T10:34:59.897000+00:00</time>
      </trkpt>
      <trkpt lat="0" lon="0">
        <time>2020-12-06T10:34:59.903000+00:00</time>
      </trkpt>
      <trkpt lat="0" lon="0">
        <time>2020-12-06T10:34:59.912000+00:00</time>
      </trkpt>
      <trkpt lat="0" lon="0">
        <time>2020-12-06T10:34:59.914000+00:00</time>
      </trkpt>
      <trkpt lat="47.31131" lon="-1.40751">
        <ele>10</ele>
        <time>2020-12-06T10:35:00.932000+00:00</time>
      </trkpt>
      <trkpt lat="0" lon="0">
        <time>2020-12-06T10:35:00.940000+00:00</time>
      </trkpt>
      <trkpt lat="0" lon="0">
        <time>2020-12-06T10:35:00.945000+00:00</time>
      </trkpt>
      <trkpt lat="0" lon="0">
        <time>2020-12-06T10:35:00.947000+00:00</time>
      </trkpt>
      <trkpt lat="47.31127" lon="-1.4075">
        <ele>10</ele>
        <time>2020-12-06T10:35:01.929000+00:00</time>
      </trkpt>
      <trkpt lat="0" lon="0">
        <time>2020-12-06T10:35:01.949000+00:00</time>
      </trkpt>
      <trkpt lat="0" lon="0">
        <time>2020-12-06T10:35:01.952000+00:00</time>
      </trkpt>
      <trkpt lat="0" lon="0">
        <time>2020-12-06T10:35:01.954000+00:00</time>
      </trkpt>
      <trkpt lat="47.31123" lon="-1.40749">
        <ele>9</ele>
        <time>2020-12-06T10:35:02.916000+00:00</time>
      </trkpt>
      <trkpt lat="0" lon="0">
        <time>2020-12-06T10:35:02.919000+00:00</time>
      </trkpt>
      <trkpt lat="0" lon="0">
        <time>2020-12-06T10:35:02.921000+00:00</time>
      </trkpt>
      <trkpt lat="0" lon="0">
        <time>2020-12-06T10:35:02.922000+00:00</time>
      </trkpt>
      <trkpt lat="47.31119" lon="-1.40748">
        <ele>9</ele>
        <time>2020-12-06T10:35:03.957000+00:00</time>
      </trkpt>
      <trkpt lat="0" lon="0">
        <time>2020-12-06T10:35:03.964000+00:00</time>
      </trkpt>
      <trkpt lat="0" lon="0">
        <time>2020-12-06T10:35:03.968000+00:00</time>
      </trkpt>
      <trkpt lat="0" lon="0">
        <time>2020-12-06T10:35:03.973000+00:00</time>
      </trkpt>
      <trkpt lat="47.31115" lon="-1.40747">
        <ele>9</ele>
        <time>2020-12-06T10:35:04.933000+00:00</time>
      </trkpt>
      <trkpt lat="0" lon="0">
        <time>2020-12-06T10:35:04.941000+00:00</time>
      </trkpt>
      <trkpt lat="0" lon="0">
        <time>2020-12-06T10:35:04.947000+00:00</time>
      </trkpt>
      <trkpt lat="0" lon="0">
        <time>2020-12-06T10:35:04.950000+00:00</time>
      </trkpt>
      <trkpt lat="47.31111" lon="-1.40746">
        <ele>9</ele>
        <time>2020-12-06T10:35:05.958000+00:00</time>
      </trkpt>
      <trkpt lat="0" lon="0">
        <time>2020-12-06T10:35:05.969000+00:00</time>
      </trkpt>
      <trkpt lat="0" lon="0">
        <time>2020-12-06T10:35:05.976000+00:00</time>
      </trkpt>
      <trkpt lat="0" lon="0">
        <time>2020-12-06T10:35:05.978000+00:00</time>
      </trkpt>
      <trkpt lat="47.31107" lon="-1.40744">
        <ele>9</ele>
        <time>2020-12-06T10:35:06.957000+00:00</time>
      </trkpt>
      <trkpt lat="0" lon="0">
        <time>2020-12-06T10:35:06.970000+00:00</time>
      </trkpt>
      <trkpt lat="0" lon="0">
        <time>2020-12-06T10:35:06.977000+00:00</time>
      </trkpt>
      <trkpt lat="0" lon="0">
        <time>2020-12-06T10:35:06.978000+00:00</time>
      </trkpt>
      <trkpt lat="47.31103" lon="-1.40743">
        <ele>9</ele>
        <time>2020-12-06T10:35:07.966000+00:00</time>
      </trkpt>
      <trkpt lat="0" lon="0">
        <time>2020-12-06T10:35:07.975000+00:00</time>
      </trkpt>
      <trkpt lat="0" lon="0">
        <time>2020-12-06T10:35:07.981000+00:00</time>
      </trkpt>
      <trkpt lat="0" lon="0">
        <time>2020-12-06T10:35:07.986000+00:00</time>
      </trkpt>
      <trkpt lat="47.31099" lon="-1.40741">
        <ele>9</ele>
        <time>2020-12-06T10:35:08.938000+00:00</time>
      </trkpt>
      <trkpt lat="0" lon="0">
        <time>2020-12-06T10:35:08.951000+00:00</time>
      </trkpt>
      <trkpt lat="0" lon="0">
        <time>2020-12-06T10:35:08.962000+00:00</time>
      </trkpt>
      <trkpt lat="0" lon="0">
        <time>2020-12-06T10:35:08.964000+00:00</time>
      </trkpt>
      <trkpt lat="47.31094" lon="-1.40739">
        <ele>8</ele>
        <time>2020-12-06T10:35:09.932000+00:00</time>
      </trkpt>
      <trkpt lat="0" lon="0">
        <time>2020-12-06T10:35:09.943000+00:00</time>
      </trkpt>
      <trkpt lat="0" lon="0">
        <time>2020-12-06T10:35:09.951000+00:00</time>
      </trkpt>
      <trkpt lat="0" lon="0">
        <time>2020-12-06T10:35:09.956000+00:00</time>
      </trkpt>
      <trkpt lat="47.31089" lon="-1.40736">
        <ele>8</ele>
        <time>2020-12-06T10:35:10.932000+00:00</time>
      </trkpt>
      <trkpt lat="0" lon="0">
        <time>2020-12-06T10:35:10.957000+00:00</time>
      </trkpt>
      <trkpt lat="0" lon="0">
        <time>2020-12-06T10:35:10.964000+00:00</time>
      </trkpt>
      <trkpt lat="0" lon="0">
        <time>2020-12-06T10:35:10.966000+00:00</time>
      </trkpt>
      <trkpt lat="47.31084" lon="-1.40732">
        <ele>8</ele>
        <time>2020-12-06T10:35:11.927000+00:00</time>
      </trkpt>
      <trkpt lat="0" lon="0">
        <time>2020-12-06T10:35:11.939000+00:00</time>
      </trkpt>
      <trkpt lat="0" lon="0">
        <time>2020-12-06T10:35:11.942000+00:00</time>
      </trkpt>
      <trkpt lat="0" lon="0">
        <time>2020-12-06T10:35:11.944000+00:00</time>
      </trkpt>
      <trkpt lat="47.31078" lon="-1.40727">
        <ele>8</ele>
        <time>2020-12-06T10:35:12.895000+00:00</time>
      </trkpt>
      <trkpt lat="0" lon="0">
        <time>2020-12-06T10:35:12.903000+00:00</time>
      </trkpt>
      <trkpt lat="0" lon="0">
        <time>2020-12-06T10:35:12.906000+00:00</time>
      </trkpt>
      <trkpt lat="0" lon="0">
        <time>2020-12-06T10:35:12.909000+00:00</time>
      </trkpt>
      <trkpt lat="47.31073" lon="-1.40722">
        <ele>9</ele>
        <time>2020-12-06T10:35:13.939000+00:00</time>
      </trkpt>
      <trkpt lat="0" lon="0">
        <time>2020-12-06T10:35:13.948000+00:00</time>
      </trkpt>
      <trkpt lat="0" lon="0">
        <time>2020-12-06T10:35:13.953000+00:00</time>
      </trkpt>
      <trkpt lat="0" lon="0">
        <time>2020-12-06T10:35:13.956000+00:00</time>
      </trkpt>
      <trkpt lat="47.31068" lon="-1.40717">
        <ele>9</ele>
        <time>2020-12-06T10:35:14.965000+00:00</time>
      </trkpt>
      <trkpt lat="0" lon="0">
        <time>2020-12-06T10:35:14.966000+00:00</time>
      </trkpt>
      <trkpt lat="0" lon="0">
        <time>2020-12-06T10:35:14.968000+00:00</time>
      </trkpt>
      <trkpt lat="0" lon="0">
        <time>2020-12-06T10:35:14.969000+00:00</time>
      </trkpt>
      <trkpt lat="47.31062" lon="-1.40711">
        <ele>10</ele>
        <time>2020-12-06T10:35:15.948000+00:00</time>
      </trkpt>
      <trkpt lat="0" lon="0">
        <time>2020-12-06T10:35:15.963000+00:00</time>
      </trkpt>
      <trkpt lat="0" lon="0">
        <time>2020-12-06T10:35:15.968000+00:00</time>
      </trkpt>
      <trkpt lat="0" lon="0">
        <time>2020-12-06T10:35:15.971000+00:00</time>
      </trkpt>
      <trkpt lat="47.31058" lon="-1.40704">
        <ele>10</ele>
        <time>2020-12-06T10:35:16.994000+00:00</time>
      </trkpt>
      <trkpt lat="0" lon="0">
        <time>2020-12-06T10:35:17.007000+00:00</time>
      </trkpt>
      <trkpt lat="0" lon="0">
        <time>2020-12-06T10:35:17.010000+00:00</time>
      </trkpt>
      <trkpt lat="0" lon="0">
        <time>2020-12-06T10:35:17.015000+00:00</time>
      </trkpt>
      <trkpt lat="47.31053" lon="-1.40696">
        <ele>11</ele>
        <time>2020-12-06T10:35:17.991000+00:00</time>
      </trkpt>
      <trkpt lat="0" lon="0">
        <time>2020-12-06T10:35:17.997000+00:00</time>
      </trkpt>
      <trkpt lat="0" lon="0">
        <time>2020-12-06T10:35:18.003000+00:00</time>
      </trkpt>
      <trkpt lat="0" lon="0">
        <time>2020-12-06T10:35:18.005000+00:00</time>
      </trkpt>
      <trkpt lat="47.31049" lon="-1.40689">
        <ele>11</ele>
        <time>2020-12-06T10:35:18.935000+00:00</time>
      </trkpt>
      <trkpt lat="0" lon="0">
        <time>2020-12-06T10:35:18.951000+00:00</time>
      </trkpt>
      <trkpt lat="0" lon="0">
        <time>2020-12-06T10:35:18.958000+00:00</time>
      </trkpt>
      <trkpt lat="0" lon="0">
        <time>2020-12-06T10:35:18.961000+00:00</time>
      </trkpt>
      <trkpt lat="47.31045" lon="-1.40681">
        <ele>12</ele>
        <time>2020-12-06T10:35:19.983000+00:00</time>
      </trkpt>
      <trkpt lat="0" lon="0">
        <time>2020-12-06T10:35:19.989000+00:00</time>
      </trkpt>
      <trkpt lat="0" lon="0">
        <time>2020-12-06T10:35:19.995000+00:00</time>
      </trkpt>
      <trkpt lat="0" lon="0">
        <time>2020-12-06T10:35:20.001000+00:00</time>
      </trkpt>
      <trkpt lat="47.31041" lon="-1.40674">
        <ele>13</ele>
        <time>2020-12-06T10:35:20.964000+00:00</time>
      </trkpt>
      <trkpt lat="0" lon="0">
        <time>2020-12-06T10:35:20.970000+00:00</time>
      </trkpt>
      <trkpt lat="0" lon="0">
        <time>2020-12-06T10:35:20.973000+00:00</time>
      </trkpt>
      <trkpt lat="0" lon="0">
        <time>2020-12-06T10:35:20.975000+00:00</time>
      </trkpt>
      <trkpt lat="47.31037" lon="-1.40667">
        <ele>13</ele>
        <time>2020-12-06T10:35:21.934000+00:00</time>
      </trkpt>
      <trkpt lat="0" lon="0">
        <time>2020-12-06T10:35:21.939000+00:00</time>
      </trkpt>
      <trkpt lat="0" lon="0">
        <time>2020-12-06T10:35:21.959000+00:00</time>
      </trkpt>
      <trkpt lat="0" lon="0">
        <time>2020-12-06T10:35:21.965000+00:00</time>
      </trkpt>
      <trkpt lat="47.31032" lon="-1.40661">
        <ele>14</ele>
        <time>2020-12-06T10:35:22.916000+00:00</time>
      </trkpt>
      <trkpt lat="0" lon="0">
        <time>2020-12-06T10:35:22.918000+00:00</time>
      </trkpt>
      <trkpt lat="0" lon="0">
        <time>2020-12-06T10:35:22.927000+00:00</time>
      </trkpt>
      <trkpt lat="0" lon="0">
        <time>2020-12-06T10:35:22.930000+00:00</time>
      </trkpt>
      <trkpt lat="47.31027" lon="-1.40657">
        <ele>15</ele>
        <time>2020-12-06T10:35:23.946000+00:00</time>
      </trkpt>
      <trkpt lat="0" lon="0">
        <time>2020-12-06T10:35:23.956000+00:00</time>
      </trkpt>
      <trkpt lat="0" lon="0">
        <time>2020-12-06T10:35:23.967000+00:00</time>
      </trkpt>
      <trkpt lat="0" lon="0">
        <time>2020-12-06T10:35:23.969000+00:00</time>
      </trkpt>
      <trkpt lat="47.31022" lon="-1.40652">
        <ele>15</ele>
        <time>2020-12-06T10:35:24.961000+00:00</time>
      </trkpt>
      <trkpt lat="0" lon="0">
        <time>2020-12-06T10:35:24.975000+00:00</time>
      </trkpt>
      <trkpt lat="0" lon="0">
        <time>2020-12-06T10:35:24.982000+00:00</time>
      </trkpt>
      <trkpt lat="0" lon="0">
        <time>2020-12-06T10:35:24.983000+00:00</time>
      </trkpt>
      <trkpt lat="47.31016" lon="-1.40649">
        <ele>16</ele>
        <time>2020-12-06T10:35:25.952000+00:00</time>
      </trkpt>
      <trkpt lat="0" lon="0">
        <time>2020-12-06T10:35:25.955000+00:00</time>
      </trkpt>
      <trkpt lat="0" lon="0">
        <time>2020-12-06T10:35:25.972000+00:00</time>
      </trkpt>
      <trkpt lat="0" lon="0">
        <time>2020-12-06T10:35:25.974000+00:00</time>
      </trkpt>
      <trkpt lat="47.31011" lon="-1.40646">
        <ele>16</ele>
        <time>2020-12-06T10:35:26.973000+00:00</time>
      </trkpt>
      <trkpt lat="0" lon="0">
        <time>2020-12-06T10:35:26.981000+00:00</time>
      </trkpt>
      <trkpt lat="0" lon="0">
        <time>2020-12-06T10:35:26.982000+00:00</time>
      </trkpt>
      <trkpt lat="0" lon="0">
        <time>2020-12-06T10:35:26.983000+00:00</time>
      </trkpt>
      <trkpt lat="47.31006" lon="-1.40643">
        <ele>17</ele>
        <time>2020-12-06T10:35:27.946000+00:00</time>
      </trkpt>
      <trkpt lat="0" lon="0">
        <time>2020-12-06T10:35:27.956000+00:00</time>
      </trkpt>
      <trkpt lat="0" lon="0">
        <time>2020-12-06T10:35:27.964000+00:00</time>
      </trkpt>
      <trkpt lat="0" lon="0">
        <time>2020-12-06T10:35:27.966000+00:00</time>
      </trkpt>
      <trkpt lat="47.31001" lon="-1.40641">
        <ele>18</ele>
        <time>2020-12-06T10:35:28.930000+00:00</time>
      </trkpt>
      <trkpt lat="0" lon="0">
        <time>2020-12-06T10:35:28.950000+00:00</time>
      </trkpt>
      <trkpt lat="0" lon="0">
        <time>2020-12-06T10:35:28.953000+00:00</time>
      </trkpt>
      <trkpt lat="0" lon="0">
        <time>2020-12-06T10:35:28.956000+00:00</time>
      </trkpt>
      <trkpt lat="47.30997" lon="-1.40639">
        <ele>18</ele>
        <time>2020-12-06T10:35:29.924000+00:00</time>
      </trkpt>
      <trkpt lat="0" lon="0">
        <time>2020-12-06T10:35:29.934000+00:00</time>
      </trkpt>
      <trkpt lat="0" lon="0">
        <time>2020-12-06T10:35:29.937000+00:00</time>
      </trkpt>
      <trkpt lat="0" lon="0">
        <time>2020-12-06T10:35:29.940000+00:00</time>
      </trkpt>
      <trkpt lat="47.30992" lon="-1.40637">
        <ele>18</ele>
        <time>2020-12-06T10:35:30.908000+00:00</time>
      </trkpt>
      <trkpt lat="0" lon="0">
        <time>2020-12-06T10:35:30.914000+00:00</time>
      </trkpt>
      <trkpt lat="0" lon="0">
        <time>2020-12-06T10:35:30.919000+00:00</time>
      </trkpt>
      <trkpt lat="0" lon="0">
        <time>2020-12-06T10:35:30.920000+00:00</time>
      </trkpt>
      <trkpt lat="47.30988" lon="-1.40636">
        <ele>18</ele>
        <time>2020-12-06T10:35:31.974000+00:00</time>
      </trkpt>
      <trkpt lat="0" lon="0">
        <time>2020-12-06T10:35:31.984000+00:00</time>
      </trkpt>
      <trkpt lat="0" lon="0">
        <time>2020-12-06T10:35:31.989000+00:00</time>
      </trkpt>
      <trkpt lat="0" lon="0">
        <time>2020-12-06T10:35:31.991000+00:00</time>
      </trkpt>
      <trkpt lat="47.30984" lon="-1.40634">
        <ele>18</ele>
        <time>2020-12-06T10:35:32.994000+00:00</time>
      </trkpt>
      <trkpt lat="0" lon="0">
        <time>2020-12-06T10:35:32.995000+00:00</time>
      </trkpt>
      <trkpt lat="0" lon="0">
        <time>2020-12-06T10:35:32.999000+00:00</time>
      </trkpt>
      <trkpt lat="0" lon="0">
        <time>2020-12-06T10:35:33+00:00</time>
      </trkpt>
      <trkpt lat="47.3098" lon="-1.40633">
        <ele>18</ele>
        <time>2020-12-06T10:35:33.970000+00:00</time>
      </trkpt>
      <trkpt lat="0" lon="0">
        <time>2020-12-06T10:35:33.979000+00:00</time>
      </trkpt>
      <trkpt lat="0" lon="0">
        <time>2020-12-06T10:35:33.983000+00:00</time>
      </trkpt>
      <trkpt lat="0" lon="0">
        <time>2020-12-06T10:35:33.996000+00:00</time>
      </trkpt>
      <trkpt lat="47.30976" lon="-1.40632">
        <ele>18</ele>
        <time>2020-12-06T10:35:34.961000+00:00</time>
      </trkpt>
      <trkpt lat="0" lon="0">
        <time>2020-12-06T10:35:34.976000+00:00</time>
      </trkpt>
      <trkpt lat="0" lon="0">
        <time>2020-12-06T10:35:34.982000+00:00</time>
      </trkpt>
      <trkpt lat="0" lon="0">
        <time>2020-12-06T10:35:34.987000+00:00</time>
      </trkpt>
      <trkpt lat="47.30972" lon="-1.4063">
        <ele>18</ele>
        <time>2020-12-06T10:35:35.942000+00:00</time>
      </trkpt>
      <trkpt lat="0" lon="0">
        <time>2020-12-06T10:35:35.953000+00:00</time>
      </trkpt>
      <trkpt lat="0" lon="0">
        <time>2020-12-06T10:35:35.967000+00:00</time>
      </trkpt>
      <trkpt lat="0" lon="0">
        <time>2020-12-06T10:35:35.969000+00:00</time>
      </trkpt>
      <trkpt lat="47.30968" lon="-1.4063">
        <ele>18</ele>
        <time>2020-12-06T10:35:36.954000+00:00</time>
      </trkpt>
      <trkpt lat="0" lon="0">
        <time>2020-12-06T10:35:36.959000+00:00</time>
      </trkpt>
      <trkpt lat="0" lon="0">
        <time>2020-12-06T10:35:36.966000+00:00</time>
      </trkpt>
      <trkpt lat="0" lon="0">
        <time>2020-12-06T10:35:36.967000+00:00</time>
      </trkpt>
      <trkpt lat="47.30965" lon="-1.40629">
        <ele>17</ele>
        <time>2020-12-06T10:35:37.941000+00:00</time>
      </trkpt>
      <trkpt lat="0" lon="0">
        <time>2020-12-06T10:35:37.954000+00:00</time>
      </trkpt>
      <trkpt lat="0" lon="0">
        <time>2020-12-06T10:35:37.958000+00:00</time>
      </trkpt>
      <trkpt lat="0" lon="0">
        <time>2020-12-06T10:35:37.961000+00:00</time>
      </trkpt>
      <trkpt lat="47.30962" lon="-1.40628">
        <ele>17</ele>
        <time>2020-12-06T10:35:38.935000+00:00</time>
      </trkpt>
      <trkpt lat="0" lon="0">
        <time>2020-12-06T10:35:38.943000+00:00</time>
      </trkpt>
      <trkpt lat="0" lon="0">
        <time>2020-12-06T10:35:38.944000+00:00</time>
      </trkpt>
      <trkpt lat="0" lon="0">
        <time>2020-12-06T10:35:38.945000+00:00</time>
      </trkpt>
      <trkpt lat="47.30959" lon="-1.40627">
        <ele>17</ele>
        <time>2020-12-06T10:35:39.955000+00:00</time>
      </trkpt>
      <trkpt lat="0" lon="0">
        <time>2020-12-06T10:35:39.967000+00:00</time>
      </trkpt>
      <trkpt lat="0" lon="0">
        <time>2020-12-06T10:35:39.973000+00:00</time>
      </trkpt>
      <trkpt lat="0" lon="0">
        <time>2020-12-06T10:35:39.978000+00:00</time>
      </trkpt>
      <trkpt lat="47.30955" lon="-1.40627">
        <ele>17</ele>
        <time>2020-12-06T10:35:40.935000+00:00</time>
      </trkpt>
      <trkpt lat="0" lon="0">
        <time>2020-12-06T10:35:40.940000+00:00</time>
      </trkpt>
      <trkpt lat="0" lon="0">
        <time>2020-12-06T10:35:40.944000+00:00</time>
      </trkpt>
      <trkpt lat="0" lon="0">
        <time>2020-12-06T10:35:40.946000+00:00</time>
      </trkpt>
      <trkpt lat="47.30952" lon="-1.40626">
        <ele>17</ele>
        <time>2020-12-06T10:35:41.889000+00:00</time>
      </trkpt>
      <trkpt lat="0" lon="0">
        <time>2020-12-06T10:35:41.898000+00:00</time>
      </trkpt>
      <trkpt lat="0" lon="0">
        <time>2020-12-06T10:35:41.902000+00:00</time>
      </trkpt>
      <trkpt lat="0" lon="0">
        <time>2020-12-06T10:35:41.904000+00:00</time>
      </trkpt>
      <trkpt lat="47.3095" lon="-1.40625">
        <ele>17</ele>
        <time>2020-12-06T10:35:42.942000+00:00</time>
      </trkpt>
      <trkpt lat="0" lon="0">
        <time>2020-12-06T10:35:42.955000+00:00</time>
      </trkpt>
      <trkpt lat="0" lon="0">
        <time>2020-12-06T10:35:42.961000+00:00</time>
      </trkpt>
      <trkpt lat="0" lon="0">
        <time>2020-12-06T10:35:42.963000+00:00</time>
      </trkpt>
      <trkpt lat="47.30947" lon="-1.40624">
        <ele>17</ele>
        <time>2020-12-06T10:35:43.943000+00:00</time>
      </trkpt>
      <trkpt lat="0" lon="0">
        <time>2020-12-06T10:35:43.955000+00:00</time>
      </trkpt>
      <trkpt lat="0" lon="0">
        <time>2020-12-06T10:35:43.958000+00:00</time>
      </trkpt>
      <trkpt lat="0" lon="0">
        <time>2020-12-06T10:35:43.959000+00:00</time>
      </trkpt>
      <trkpt lat="47.30944" lon="-1.40624">
        <ele>17</ele>
        <time>2020-12-06T10:35:44.961000+00:00</time>
      </trkpt>
      <trkpt lat="0" lon="0">
        <time>2020-12-06T10:35:44.963000+00:00</time>
      </trkpt>
      <trkpt lat="0" lon="0">
        <time>2020-12-06T10:35:44.971000+00:00</time>
      </trkpt>
      <trkpt lat="0" lon="0">
        <time>2020-12-06T10:35:44.974000+00:00</time>
      </trkpt>
      <trkpt lat="47.30941" lon="-1.40623">
        <ele>17</ele>
        <time>2020-12-06T10:35:45.935000+00:00</time>
      </trkpt>
      <trkpt lat="0" lon="0">
        <time>2020-12-06T10:35:45.947000+00:00</time>
      </trkpt>
      <trkpt lat="0" lon="0">
        <time>2020-12-06T10:35:45.958000+00:00</time>
      </trkpt>
      <trkpt lat="0" lon="0">
        <time>2020-12-06T10:35:45.965000+00:00</time>
      </trkpt>
      <trkpt lat="47.30938" lon="-1.40622">
        <ele>17</ele>
        <time>2020-12-06T10:35:46.895000+00:00</time>
      </trkpt>
      <trkpt lat="0" lon="0">
        <time>2020-12-06T10:35:46.906000+00:00</time>
      </trkpt>
      <trkpt lat="0" lon="0">
        <time>2020-12-06T10:35:46.910000+00:00</time>
      </trkpt>
      <trkpt lat="0" lon="0">
        <time>2020-12-06T10:35:46.912000+00:00</time>
      </trkpt>
      <trkpt lat="47.30935" lon="-1.40621">
        <ele>17</ele>
        <time>2020-12-06T10:35:47.926000+00:00</time>
      </trkpt>
      <trkpt lat="0" lon="0">
        <time>2020-12-06T10:35:47.931000+00:00</time>
      </trkpt>
      <trkpt lat="0" lon="0">
        <time>2020-12-06T10:35:47.940000+00:00</time>
      </trkpt>
      <trkpt lat="0" lon="0">
        <time>2020-12-06T10:35:47.942000+00:00</time>
      </trkpt>
      <trkpt lat="47.30931" lon="-1.40621">
        <ele>17</ele>
        <time>2020-12-06T10:35:48.930000+00:00</time>
      </trkpt>
      <trkpt lat="0" lon="0">
        <time>2020-12-06T10:35:48.946000+00:00</time>
      </trkpt>
      <trkpt lat="0" lon="0">
        <time>2020-12-06T10:35:48.952000+00:00</time>
      </trkpt>
      <trkpt lat="0" lon="0">
        <time>2020-12-06T10:35:48.954000+00:00</time>
      </trkpt>
      <trkpt lat="47.30928" lon="-1.4062">
        <ele>17</ele>
        <time>2020-12-06T10:35:49.945000+00:00</time>
      </trkpt>
      <trkpt lat="0" lon="0">
        <time>2020-12-06T10:35:49.949000+00:00</time>
      </trkpt>
      <trkpt lat="0" lon="0">
        <time>2020-12-06T10:35:49.955000+00:00</time>
      </trkpt>
      <trkpt lat="0" lon="0">
        <time>2020-12-06T10:35:49.957000+00:00</time>
      </trkpt>
      <trkpt lat="47.30925" lon="-1.40619">
        <ele>17</ele>
        <time>2020-12-06T10:35:50.937000+00:00</time>
      </trkpt>
      <trkpt lat="0" lon="0">
        <time>2020-12-06T10:35:50.943000+00:00</time>
      </trkpt>
      <trkpt lat="0" lon="0">
        <time>2020-12-06T10:35:50.947000+00:00</time>
      </trkpt>
      <trkpt lat="0" lon="0">
        <time>2020-12-06T10:35:50.949000+00:00</time>
      </trkpt>
      <trkpt lat="47.30922" lon="-1.40619">
        <ele>17</ele>
        <time>2020-12-06T10:35:51.914000+00:00</time>
      </trkpt>
      <trkpt lat="0" lon="0">
        <time>2020-12-06T10:35:51.925000+00:00</time>
      </trkpt>
      <trkpt lat="0" lon="0">
        <time>2020-12-06T10:35:51.936000+00:00</time>
      </trkpt>
      <trkpt lat="0" lon="0">
        <time>2020-12-06T10:35:51.938000+00:00</time>
      </trkpt>
      <trkpt lat="47.30919" lon="-1.40618">
        <ele>16</ele>
        <time>2020-12-06T10:35:52.919000+00:00</time>
      </trkpt>
      <trkpt lat="0" lon="0">
        <time>2020-12-06T10:35:52.932000+00:00</time>
      </trkpt>
      <trkpt lat="0" lon="0">
        <time>2020-12-06T10:35:52.933000+00:00</time>
      </trkpt>
      <trkpt lat="0" lon="0">
        <time>2020-12-06T10:35:52.934000+00:00</time>
      </trkpt>
      <trkpt lat="47.30915" lon="-1.40618">
        <ele>16</ele>
        <time>2020-12-06T10:35:53.944000+00:00</time>
      </trkpt>
      <trkpt lat="0" lon="0">
        <time>2020-12-06T10:35:53.951000+00:00</time>
      </trkpt>
      <trkpt lat="0" lon="0">
        <time>2020-12-06T10:35:53.953000+00:00</time>
      </trkpt>
      <trkpt lat="0" lon="0">
        <time>2020-12-06T10:35:53.954000+00:00</time>
      </trkpt>
      <trkpt lat="47.30912" lon="-1.40618">
        <ele>16</ele>
        <time>2020-12-06T10:35:54.944000+00:00</time>
      </trkpt>
      <trkpt lat="0" lon="0">
        <time>2020-12-06T10:35:54.955000+00:00</time>
      </trkpt>
      <trkpt lat="0" lon="0">
        <time>2020-12-06T10:35:54.962000+00:00</time>
      </trkpt>
      <trkpt lat="0" lon="0">
        <time>2020-12-06T10:35:54.965000+00:00</time>
      </trkpt>
      <trkpt lat="47.30909" lon="-1.40618">
        <ele>16</ele>
        <time>2020-12-06T10:35:55.941000+00:00</time>
      </trkpt>
      <trkpt lat="0" lon="0">
        <time>2020-12-06T10:35:55.946000+00:00</time>
      </trkpt>
      <trkpt lat="0" lon="0">
        <time>2020-12-06T10:35:55.953000+00:00</time>
      </trkpt>
      <trkpt lat="0" lon="0">
        <time>2020-12-06T10:35:55.957000+00:00</time>
      </trkpt>
      <trkpt lat="47.30906" lon="-1.40618">
        <ele>16</ele>
        <time>2020-12-06T10:35:56.923000+00:00</time>
      </trkpt>
      <trkpt lat="0" lon="0">
        <time>2020-12-06T10:35:56.926000+00:00</time>
      </trkpt>
      <trkpt lat="0" lon="0">
        <time>2020-12-06T10:35:56.941000+00:00</time>
      </trkpt>
      <trkpt lat="0" lon="0">
        <time>2020-12-06T10:35:56.943000+00:00</time>
      </trkpt>
      <trkpt lat="47.30902" lon="-1.40618">
        <ele>16</ele>
        <time>2020-12-06T10:35:57.913000+00:00</time>
      </trkpt>
      <trkpt lat="0" lon="0">
        <time>2020-12-06T10:35:57.923000+00:00</time>
      </trkpt>
      <trkpt lat="0" lon="0">
        <time>2020-12-06T10:35:57.926000+00:00</time>
      </trkpt>
      <trkpt lat="0" lon="0">
        <time>2020-12-06T10:35:57.929000+00:00</time>
      </trkpt>
      <trkpt lat="47.309" lon="-1.40619">
        <ele>16</ele>
        <time>2020-12-06T10:35:58.932000+00:00</time>
      </trkpt>
      <trkpt lat="0" lon="0">
        <time>2020-12-06T10:35:58.937000+00:00</time>
      </trkpt>
      <trkpt lat="0" lon="0">
        <time>2020-12-06T10:35:58.944000+00:00</time>
      </trkpt>
      <trkpt lat="0" lon="0">
        <time>2020-12-06T10:35:58.947000+00:00</time>
      </trkpt>
      <trkpt lat="47.30897" lon="-1.40619">
        <ele>16</ele>
        <time>2020-12-06T10:35:59.946000+00:00</time>
      </trkpt>
      <trkpt lat="0" lon="0">
        <time>2020-12-06T10:35:59.959000+00:00</time>
      </trkpt>
      <trkpt lat="0" lon="0">
        <time>2020-12-06T10:35:59.966000+00:00</time>
      </trkpt>
      <trkpt lat="0" lon="0">
        <time>2020-12-06T10:35:59.969000+00:00</time>
      </trkpt>
      <trkpt lat="47.30895" lon="-1.4062">
        <ele>16</ele>
        <time>2020-12-06T10:36:00.960000+00:00</time>
      </trkpt>
      <trkpt lat="0" lon="0">
        <time>2020-12-06T10:36:00.970000+00:00</time>
      </trkpt>
      <trkpt lat="0" lon="0">
        <time>2020-12-06T10:36:00.974000+00:00</time>
      </trkpt>
      <trkpt lat="0" lon="0">
        <time>2020-12-06T10:36:00.975000+00:00</time>
      </trkpt>
      <trkpt lat="47.30893" lon="-1.40621">
        <ele>16</ele>
        <time>2020-12-06T10:36:01.949000+00:00</time>
      </trkpt>
      <trkpt lat="0" lon="0">
        <time>2020-12-06T10:36:01.953000+00:00</time>
      </trkpt>
      <trkpt lat="0" lon="0">
        <time>2020-12-06T10:36:01.957000+00:00</time>
      </trkpt>
      <trkpt lat="0" lon="0">
        <time>2020-12-06T10:36:01.963000+00:00</time>
      </trkpt>
      <trkpt lat="47.3089" lon="-1.40622">
        <ele>15</ele>
        <time>2020-12-06T10:36:02.938000+00:00</time>
      </trkpt>
      <trkpt lat="0" lon="0">
        <time>2020-12-06T10:36:02.943000+00:00</time>
      </trkpt>
      <trkpt lat="0" lon="0">
        <time>2020-12-06T10:36:02.948000+00:00</time>
      </trkpt>
      <trkpt lat="0" lon="0">
        <time>2020-12-06T10:36:02.956000+00:00</time>
      </trkpt>
      <trkpt lat="47.30888" lon="-1.40623">
        <ele>15</ele>
        <time>2020-12-06T10:36:03.953000+00:00</time>
      </trkpt>
      <trkpt lat="0" lon="0">
        <time>2020-12-06T10:36:03.964000+00:00</time>
      </trkpt>
      <trkpt lat="0" lon="0">
        <time>2020-12-06T10:36:03.971000+00:00</time>
      </trkpt>
      <trkpt lat="0" lon="0">
        <time>2020-12-06T10:36:03.974000+00:00</time>
      </trkpt>
      <trkpt lat="47.30885" lon="-1.40625">
        <ele>15</ele>
        <time>2020-12-06T10:36:04.959000+00:00</time>
      </trkpt>
      <trkpt lat="0" lon="0">
        <time>2020-12-06T10:36:04.967000+00:00</time>
      </trkpt>
      <trkpt lat="0" lon="0">
        <time>2020-12-06T10:36:04.973000+00:00</time>
      </trkpt>
      <trkpt lat="0" lon="0">
        <time>2020-12-06T10:36:04.975000+00:00</time>
      </trkpt>
      <trkpt lat="47.30882" lon="-1.40626">
        <ele>15</ele>
        <time>2020-12-06T10:36:05.959000+00:00</time>
      </trkpt>
      <trkpt lat="0" lon="0">
        <time>2020-12-06T10:36:05.977000+00:00</time>
      </trkpt>
      <trkpt lat="0" lon="0">
        <time>2020-12-06T10:36:05.984000+00:00</time>
      </trkpt>
      <trkpt lat="0" lon="0">
        <time>2020-12-06T10:36:05.989000+00:00</time>
      </trkpt>
      <trkpt lat="47.30879" lon="-1.40627">
        <ele>15</ele>
        <time>2020-12-06T10:36:06.937000+00:00</time>
      </trkpt>
      <trkpt lat="0" lon="0">
        <time>2020-12-06T10:36:06.946000+00:00</time>
      </trkpt>
      <trkpt lat="0" lon="0">
        <time>2020-12-06T10:36:06.947000+00:00</time>
      </trkpt>
      <trkpt lat="0" lon="0">
        <time>2020-12-06T10:36:06.948000+00:00</time>
      </trkpt>
      <trkpt lat="47.30876" lon="-1.40629">
        <ele>15</ele>
        <time>2020-12-06T10:36:08+00:00</time>
      </trkpt>
      <trkpt lat="0" lon="0">
        <time>2020-12-06T10:36:08.006000+00:00</time>
      </trkpt>
      <trkpt lat="0" lon="0">
        <time>2020-12-06T10:36:08.014000+00:00</time>
      </trkpt>
      <trkpt lat="0" lon="0">
        <time>2020-12-06T10:36:08.020000+00:00</time>
      </trkpt>
      <trkpt lat="47.30872" lon="-1.40631">
        <ele>14</ele>
        <time>2020-12-06T10:36:08.958000+00:00</time>
      </trkpt>
      <trkpt lat="0" lon="0">
        <time>2020-12-06T10:36:08.971000+00:00</time>
      </trkpt>
      <trkpt lat="0" lon="0">
        <time>2020-12-06T10:36:08.980000+00:00</time>
      </trkpt>
      <trkpt lat="0" lon="0">
        <time>2020-12-06T10:36:08.982000+00:00</time>
      </trkpt>
      <trkpt lat="47.30869" lon="-1.40633">
        <ele>14</ele>
        <time>2020-12-06T10:36:09.956000+00:00</time>
      </trkpt>
      <trkpt lat="0" lon="0">
        <time>2020-12-06T10:36:09.966000+00:00</time>
      </trkpt>
      <trkpt lat="0" lon="0">
        <time>2020-12-06T10:36:09.975000+00:00</time>
      </trkpt>
      <trkpt lat="0" lon="0">
        <time>2020-12-06T10:36:09.978000+00:00</time>
      </trkpt>
      <trkpt lat="47.30865" lon="-1.40634">
        <ele>14</ele>
        <time>2020-12-06T10:36:10.939000+00:00</time>
      </trkpt>
      <trkpt lat="0" lon="0">
        <time>2020-12-06T10:36:10.943000+00:00</time>
      </trkpt>
      <trkpt lat="0" lon="0">
        <time>2020-12-06T10:36:10.956000+00:00</time>
      </trkpt>
      <trkpt lat="0" lon="0">
        <time>2020-12-06T10:36:10.959000+00:00</time>
      </trkpt>
      <trkpt lat="47.30861" lon="-1.40636">
        <ele>14</ele>
        <time>2020-12-06T10:36:11.921000+00:00</time>
      </trkpt>
      <trkpt lat="0" lon="0">
        <time>2020-12-06T10:36:11.932000+00:00</time>
      </trkpt>
      <trkpt lat="0" lon="0">
        <time>2020-12-06T10:36:11.943000+00:00</time>
      </trkpt>
      <trkpt lat="0" lon="0">
        <time>2020-12-06T10:36:11.948000+00:00</time>
      </trkpt>
      <trkpt lat="47.30857" lon="-1.40638">
        <ele>14</ele>
        <time>2020-12-06T10:36:12.938000+00:00</time>
      </trkpt>
      <trkpt lat="0" lon="0">
        <time>2020-12-06T10:36:12.957000+00:00</time>
      </trkpt>
      <trkpt lat="0" lon="0">
        <time>2020-12-06T10:36:12.960000+00:00</time>
      </trkpt>
      <trkpt lat="0" lon="0">
        <time>2020-12-06T10:36:12.962000+00:00</time>
      </trkpt>
      <trkpt lat="47.30853" lon="-1.40639">
        <ele>13</ele>
        <time>2020-12-06T10:36:13.946000+00:00</time>
      </trkpt>
      <trkpt lat="0" lon="0">
        <time>2020-12-06T10:36:13.966000+00:00</time>
      </trkpt>
      <trkpt lat="0" lon="0">
        <time>2020-12-06T10:36:13.970000+00:00</time>
      </trkpt>
      <trkpt lat="0" lon="0">
        <time>2020-12-06T10:36:13.973000+00:00</time>
      </trkpt>
      <trkpt lat="47.30848" lon="-1.4064">
        <ele>13</ele>
        <time>2020-12-06T10:36:14.939000+00:00</time>
      </trkpt>
      <trkpt lat="0" lon="0">
        <time>2020-12-06T10:36:14.953000+00:00</time>
      </trkpt>
      <trkpt lat="0" lon="0">
        <time>2020-12-06T10:36:14.956000+00:00</time>
      </trkpt>
      <trkpt lat="0" lon="0">
        <time>2020-12-06T10:36:14.958000+00:00</time>
      </trkpt>
      <trkpt lat="47.30843" lon="-1.40641">
        <ele>13</ele>
        <time>2020-12-06T10:36:15.937000+00:00</time>
      </trkpt>
      <trkpt lat="0" lon="0">
        <time>2020-12-06T10:36:15.941000+00:00</time>
      </trkpt>
      <trkpt lat="0" lon="0">
        <time>2020-12-06T10:36:15.946000+00:00</time>
      </trkpt>
      <trkpt lat="0" lon="0">
        <time>2020-12-06T10:36:15.948000+00:00</time>
      </trkpt>
      <trkpt lat="47.30838" lon="-1.40641">
        <ele>13</ele>
        <time>2020-12-06T10:36:16.970000+00:00</time>
      </trkpt>
      <trkpt lat="0" lon="0">
        <time>2020-12-06T10:36:16.976000+00:00</time>
      </trkpt>
      <trkpt lat="0" lon="0">
        <time>2020-12-06T10:36:16.981000+00:00</time>
      </trkpt>
      <trkpt lat="0" lon="0">
        <time>2020-12-06T10:36:16.983000+00:00</time>
      </trkpt>
      <trkpt lat="47.30833" lon="-1.40641">
        <ele>13</ele>
        <time>2020-12-06T10:36:17.932000+00:00</time>
      </trkpt>
      <trkpt lat="0" lon="0">
        <time>2020-12-06T10:36:17.940000+00:00</time>
      </trkpt>
      <trkpt lat="0" lon="0">
        <time>2020-12-06T10:36:17.943000+00:00</time>
      </trkpt>
      <trkpt lat="0" lon="0">
        <time>2020-12-06T10:36:17.946000+00:00</time>
      </trkpt>
      <trkpt lat="47.30829" lon="-1.4064">
        <ele>13</ele>
        <time>2020-12-06T10:36:18.945000+00:00</time>
      </trkpt>
      <trkpt lat="0" lon="0">
        <time>2020-12-06T10:36:18.951000+00:00</time>
      </trkpt>
      <trkpt lat="0" lon="0">
        <time>2020-12-06T10:36:18.957000+00:00</time>
      </trkpt>
      <trkpt lat="0" lon="0">
        <time>2020-12-06T10:36:18.960000+00:00</time>
      </trkpt>
      <trkpt lat="47.30824" lon="-1.4064">
        <ele>13</ele>
        <time>2020-12-06T10:36:19.937000+00:00</time>
      </trkpt>
      <trkpt lat="0" lon="0">
        <time>2020-12-06T10:36:19.962000+00:00</time>
      </trkpt>
      <trkpt lat="0" lon="0">
        <time>2020-12-06T10:36:19.965000+00:00</time>
      </trkpt>
      <trkpt lat="0" lon="0">
        <time>2020-12-06T10:36:19.967000+00:00</time>
      </trkpt>
      <trkpt lat="47.30819" lon="-1.40639">
        <ele>12</ele>
        <time>2020-12-06T10:36:20.919000+00:00</time>
      </trkpt>
      <trkpt lat="0" lon="0">
        <time>2020-12-06T10:36:20.921000+00:00</time>
      </trkpt>
      <trkpt lat="0" lon="0">
        <time>2020-12-06T10:36:20.924000+00:00</time>
      </trkpt>
      <trkpt lat="0" lon="0">
        <time>2020-12-06T10:36:20.937000+00:00</time>
      </trkpt>
      <trkpt lat="47.30814" lon="-1.40638">
        <ele>12</ele>
        <time>2020-12-06T10:36:21.958000+00:00</time>
      </trkpt>
      <trkpt lat="0" lon="0">
        <time>2020-12-06T10:36:21.968000+00:00</time>
      </trkpt>
      <trkpt lat="0" lon="0">
        <time>2020-12-06T10:36:21.977000+00:00</time>
      </trkpt>
      <trkpt lat="0" lon="0">
        <time>2020-12-06T10:36:21.979000+00:00</time>
      </trkpt>
      <trkpt lat="47.3081" lon="-1.40637">
        <ele>12</ele>
        <time>2020-12-06T10:36:22.943000+00:00</time>
      </trkpt>
      <trkpt lat="0" lon="0">
        <time>2020-12-06T10:36:22.950000+00:00</time>
      </trkpt>
      <trkpt lat="0" lon="0">
        <time>2020-12-06T10:36:22.955000+00:00</time>
      </trkpt>
      <trkpt lat="0" lon="0">
        <time>2020-12-06T10:36:22.957000+00:00</time>
      </trkpt>
      <trkpt lat="47.30805" lon="-1.40636">
        <ele>12</ele>
        <time>2020-12-06T10:36:23.957000+00:00</time>
      </trkpt>
      <trkpt lat="0" lon="0">
        <time>2020-12-06T10:36:23.974000+00:00</time>
      </trkpt>
      <trkpt lat="0" lon="0">
        <time>2020-12-06T10:36:23.978000+00:00</time>
      </trkpt>
      <trkpt lat="0" lon="0">
        <time>2020-12-06T10:36:23.980000+00:00</time>
      </trkpt>
      <trkpt lat="47.30801" lon="-1.40634">
        <ele>12</ele>
        <time>2020-12-06T10:36:24.994000+00:00</time>
      </trkpt>
      <trkpt lat="0" lon="0">
        <time>2020-12-06T10:36:25.010000+00:00</time>
      </trkpt>
      <trkpt lat="0" lon="0">
        <time>2020-12-06T10:36:25.013000+00:00</time>
      </trkpt>
      <trkpt lat="0" lon="0">
        <time>2020-12-06T10:36:25.015000+00:00</time>
      </trkpt>
      <trkpt lat="47.30797" lon="-1.40633">
        <ele>12</ele>
        <time>2020-12-06T10:36:25.993000+00:00</time>
      </trkpt>
      <trkpt lat="0" lon="0">
        <time>2020-12-06T10:36:26.006000+00:00</time>
      </trkpt>
      <trkpt lat="0" lon="0">
        <time>2020-12-06T10:36:26.013000+00:00</time>
      </trkpt>
      <trkpt lat="0" lon="0">
        <time>2020-12-06T10:36:26.018000+00:00</time>
      </trkpt>
      <trkpt lat="47.30792" lon="-1.40631">
        <ele>12</ele>
        <time>2020-12-06T10:36:26.969000+00:00</time>
      </trkpt>
      <trkpt lat="0" lon="0">
        <time>2020-12-06T10:36:26.975000+00:00</time>
      </trkpt>
      <trkpt lat="0" lon="0">
        <time>2020-12-06T10:36:26.987000+00:00</time>
      </trkpt>
      <trkpt lat="0" lon="0">
        <time>2020-12-06T10:36:26.989000+00:00</time>
      </trkpt>
      <trkpt lat="47.30788" lon="-1.4063">
        <ele>12</ele>
        <time>2020-12-06T10:36:27.914000+00:00</time>
      </trkpt>
      <trkpt lat="0" lon="0">
        <time>2020-12-06T10:36:27.925000+00:00</time>
      </trkpt>
      <trkpt lat="0" lon="0">
        <time>2020-12-06T10:36:27.929000+00:00</time>
      </trkpt>
      <trkpt lat="0" lon="0">
        <time>2020-12-06T10:36:27.930000+00:00</time>
      </trkpt>
      <trkpt lat="47.30784" lon="-1.40628">
        <ele>12</ele>
        <time>2020-12-06T10:36:28.957000+00:00</time>
      </trkpt>
      <trkpt lat="0" lon="0">
        <time>2020-12-06T10:36:28.965000+00:00</time>
      </trkpt>
      <trkpt lat="0" lon="0">
        <time>2020-12-06T10:36:28.972000+00:00</time>
      </trkpt>
      <trkpt lat="0" lon="0">
        <time>2020-12-06T10:36:28.974000+00:00</time>
      </trkpt>
      <trkpt lat="47.30779" lon="-1.40626">
        <ele>12</ele>
        <time>2020-12-06T10:36:29.926000+00:00</time>
      </trkpt>
      <trkpt lat="0" lon="0">
        <time>2020-12-06T10:36:29.931000+00:00</time>
      </trkpt>
      <trkpt lat="0" lon="0">
        <time>2020-12-06T10:36:29.935000+00:00</time>
      </trkpt>
      <trkpt lat="0" lon="0">
        <time>2020-12-06T10:36:29.937000+00:00</time>
      </trkpt>
      <trkpt lat="47.30775" lon="-1.40624">
        <ele>12</ele>
        <time>2020-12-06T10:36:30.938000+00:00</time>
      </trkpt>
      <trkpt lat="0" lon="0">
        <time>2020-12-06T10:36:30.956000+00:00</time>
      </trkpt>
      <trkpt lat="0" lon="0">
        <time>2020-12-06T10:36:30.960000+00:00</time>
      </trkpt>
      <trkpt lat="0" lon="0">
        <time>2020-12-06T10:36:30.964000+00:00</time>
      </trkpt>
      <trkpt lat="47.3077" lon="-1.40623">
        <ele>12</ele>
        <time>2020-12-06T10:36:31.927000+00:00</time>
      </trkpt>
      <trkpt lat="0" lon="0">
        <time>2020-12-06T10:36:31.941000+00:00</time>
      </trkpt>
      <trkpt lat="0" lon="0">
        <time>2020-12-06T10:36:31.947000+00:00</time>
      </trkpt>
      <trkpt lat="0" lon="0">
        <time>2020-12-06T10:36:31.949000+00:00</time>
      </trkpt>
      <trkpt lat="47.30766" lon="-1.40621">
        <ele>12</ele>
        <time>2020-12-06T10:36:32.912000+00:00</time>
      </trkpt>
      <trkpt lat="0" lon="0">
        <time>2020-12-06T10:36:32.934000+00:00</time>
      </trkpt>
      <trkpt lat="0" lon="0">
        <time>2020-12-06T10:36:32.939000+00:00</time>
      </trkpt>
      <trkpt lat="0" lon="0">
        <time>2020-12-06T10:36:32.941000+00:00</time>
      </trkpt>
      <trkpt lat="47.30761" lon="-1.40619">
        <ele>12</ele>
        <time>2020-12-06T10:36:33.925000+00:00</time>
      </trkpt>
      <trkpt lat="0" lon="0">
        <time>2020-12-06T10:36:33.929000+00:00</time>
      </trkpt>
      <trkpt lat="0" lon="0">
        <time>2020-12-06T10:36:33.939000+00:00</time>
      </trkpt>
      <trkpt lat="0" lon="0">
        <time>2020-12-06T10:36:33.945000+00:00</time>
      </trkpt>
      <trkpt lat="47.30756" lon="-1.40618">
        <ele>11</ele>
        <time>2020-12-06T10:36:34.945000+00:00</time>
      </trkpt>
      <trkpt lat="0" lon="0">
        <time>2020-12-06T10:36:34.961000+00:00</time>
      </trkpt>
      <trkpt lat="0" lon="0">
        <time>2020-12-06T10:36:34.974000+00:00</time>
      </trkpt>
      <trkpt lat="0" lon="0">
        <time>2020-12-06T10:36:34.975000+00:00</time>
      </trkpt>
      <trkpt lat="47.30751" lon="-1.40616">
        <ele>11</ele>
        <time>2020-12-06T10:36:35.877000+00:00</time>
      </trkpt>
      <trkpt lat="0" lon="0">
        <time>2020-12-06T10:36:35.880000+00:00</time>
      </trkpt>
      <trkpt lat="0" lon="0">
        <time>2020-12-06T10:36:35.896000+00:00</time>
      </trkpt>
      <trkpt lat="0" lon="0">
        <time>2020-12-06T10:36:35.899000+00:00</time>
      </trkpt>
      <trkpt lat="47.30746" lon="-1.40614">
        <ele>11</ele>
        <time>2020-12-06T10:36:36.871000+00:00</time>
      </trkpt>
      <trkpt lat="0" lon="0">
        <time>2020-12-06T10:36:36.880000+00:00</time>
      </trkpt>
      <trkpt lat="0" lon="0">
        <time>2020-12-06T10:36:36.886000+00:00</time>
      </trkpt>
      <trkpt lat="0" lon="0">
        <time>2020-12-06T10:36:36.890000+00:00</time>
      </trkpt>
      <trkpt lat="47.30741" lon="-1.40612">
        <ele>11</ele>
        <time>2020-12-06T10:36:37.950000+00:00</time>
      </trkpt>
      <trkpt lat="0" lon="0">
        <time>2020-12-06T10:36:37.960000+00:00</time>
      </trkpt>
      <trkpt lat="0" lon="0">
        <time>2020-12-06T10:36:37.963000+00:00</time>
      </trkpt>
      <trkpt lat="0" lon="0">
        <time>2020-12-06T10:36:37.966000+00:00</time>
      </trkpt>
      <trkpt lat="47.30737" lon="-1.4061">
        <ele>11</ele>
        <time>2020-12-06T10:36:38.944000+00:00</time>
      </trkpt>
      <trkpt lat="0" lon="0">
        <time>2020-12-06T10:36:38.947000+00:00</time>
      </trkpt>
      <trkpt lat="0" lon="0">
        <time>2020-12-06T10:36:38.950000+00:00</time>
      </trkpt>
      <trkpt lat="0" lon="0">
        <time>2020-12-06T10:36:38.955000+00:00</time>
      </trkpt>
      <trkpt lat="47.30732" lon="-1.40608">
        <ele>11</ele>
        <time>2020-12-06T10:36:39.943000+00:00</time>
      </trkpt>
      <trkpt lat="0" lon="0">
        <time>2020-12-06T10:36:39.946000+00:00</time>
      </trkpt>
      <trkpt lat="0" lon="0">
        <time>2020-12-06T10:36:39.954000+00:00</time>
      </trkpt>
      <trkpt lat="0" lon="0">
        <time>2020-12-06T10:36:39.956000+00:00</time>
      </trkpt>
      <trkpt lat="47.30728" lon="-1.40605">
        <ele>11</ele>
        <time>2020-12-06T10:36:40.957000+00:00</time>
      </trkpt>
      <trkpt lat="0" lon="0">
        <time>2020-12-06T10:36:40.965000+00:00</time>
      </trkpt>
      <trkpt lat="0" lon="0">
        <time>2020-12-06T10:36:40.980000+00:00</time>
      </trkpt>
      <trkpt lat="0" lon="0">
        <time>2020-12-06T10:36:40.983000+00:00</time>
      </trkpt>
      <trkpt lat="47.30723" lon="-1.40603">
        <ele>11</ele>
        <time>2020-12-06T10:36:41.912000+00:00</time>
      </trkpt>
      <trkpt lat="0" lon="0">
        <time>2020-12-06T10:36:41.930000+00:00</time>
      </trkpt>
      <trkpt lat="0" lon="0">
        <time>2020-12-06T10:36:41.934000+00:00</time>
      </trkpt>
      <trkpt lat="0" lon="0">
        <time>2020-12-06T10:36:41.936000+00:00</time>
      </trkpt>
      <trkpt lat="47.30719" lon="-1.40601">
        <ele>11</ele>
        <time>2020-12-06T10:36:42.918000+00:00</time>
      </trkpt>
      <trkpt lat="0" lon="0">
        <time>2020-12-06T10:36:42.922000+00:00</time>
      </trkpt>
      <trkpt lat="0" lon="0">
        <time>2020-12-06T10:36:42.927000+00:00</time>
      </trkpt>
      <trkpt lat="0" lon="0">
        <time>2020-12-06T10:36:42.930000+00:00</time>
      </trkpt>
      <trkpt lat="47.30714" lon="-1.40598">
        <ele>11</ele>
        <time>2020-12-06T10:36:43.967000+00:00</time>
      </trkpt>
      <trkpt lat="0" lon="0">
        <time>2020-12-06T10:36:43.976000+00:00</time>
      </trkpt>
      <trkpt lat="0" lon="0">
        <time>2020-12-06T10:36:43.984000+00:00</time>
      </trkpt>
      <trkpt lat="0" lon="0">
        <time>2020-12-06T10:36:43.986000+00:00</time>
      </trkpt>
      <trkpt lat="47.30709" lon="-1.40596">
        <ele>11</ele>
        <time>2020-12-06T10:36:44.939000+00:00</time>
      </trkpt>
      <trkpt lat="0" lon="0">
        <time>2020-12-06T10:36:44.945000+00:00</time>
      </trkpt>
      <trkpt lat="0" lon="0">
        <time>2020-12-06T10:36:44.953000+00:00</time>
      </trkpt>
      <trkpt lat="0" lon="0">
        <time>2020-12-06T10:36:44.958000+00:00</time>
      </trkpt>
      <trkpt lat="47.30705" lon="-1.40594">
        <ele>10</ele>
        <time>2020-12-06T10:36:45.953000+00:00</time>
      </trkpt>
      <trkpt lat="0" lon="0">
        <time>2020-12-06T10:36:45.964000+00:00</time>
      </trkpt>
      <trkpt lat="0" lon="0">
        <time>2020-12-06T10:36:45.976000+00:00</time>
      </trkpt>
      <trkpt lat="0" lon="0">
        <time>2020-12-06T10:36:45.982000+00:00</time>
      </trkpt>
      <trkpt lat="47.307" lon="-1.40593">
        <ele>10</ele>
        <time>2020-12-06T10:36:46.952000+00:00</time>
      </trkpt>
      <trkpt lat="0" lon="0">
        <time>2020-12-06T10:36:46.961000+00:00</time>
      </trkpt>
      <trkpt lat="0" lon="0">
        <time>2020-12-06T10:36:46.964000+00:00</time>
      </trkpt>
      <trkpt lat="0" lon="0">
        <time>2020-12-06T10:36:46.966000+00:00</time>
      </trkpt>
      <trkpt lat="47.30695" lon="-1.40591">
        <ele>10</ele>
        <time>2020-12-06T10:36:47.919000+00:00</time>
      </trkpt>
      <trkpt lat="0" lon="0">
        <time>2020-12-06T10:36:47.924000+00:00</time>
      </trkpt>
      <trkpt lat="0" lon="0">
        <time>2020-12-06T10:36:47.927000+00:00</time>
      </trkpt>
      <trkpt lat="0" lon="0">
        <time>2020-12-06T10:36:47.929000+00:00</time>
      </trkpt>
      <trkpt lat="47.3069" lon="-1.40589">
        <ele>10</ele>
        <time>2020-12-06T10:36:48.899000+00:00</time>
      </trkpt>
      <trkpt lat="0" lon="0">
        <time>2020-12-06T10:36:48.912000+00:00</time>
      </trkpt>
      <trkpt lat="0" lon="0">
        <time>2020-12-06T10:36:48.923000+00:00</time>
      </trkpt>
      <trkpt lat="0" lon="0">
        <time>2020-12-06T10:36:48.925000+00:00</time>
      </trkpt>
      <trkpt lat="47.30685" lon="-1.40587">
        <ele>10</ele>
        <time>2020-12-06T10:36:49.943000+00:00</time>
      </trkpt>
      <trkpt lat="0" lon="0">
        <time>2020-12-06T10:36:49.965000+00:00</time>
      </trkpt>
      <trkpt lat="0" lon="0">
        <time>2020-12-06T10:36:49.969000+00:00</time>
      </trkpt>
      <trkpt lat="0" lon="0">
        <time>2020-12-06T10:36:49.972000+00:00</time>
      </trkpt>
      <trkpt lat="47.30681" lon="-1.40585">
        <ele>10</ele>
        <time>2020-12-06T10:36:50.929000+00:00</time>
      </trkpt>
      <trkpt lat="0" lon="0">
        <time>2020-12-06T10:36:50.932000+00:00</time>
      </trkpt>
      <trkpt lat="0" lon="0">
        <time>2020-12-06T10:36:50.950000+00:00</time>
      </trkpt>
      <trkpt lat="0" lon="0">
        <time>2020-12-06T10:36:50.953000+00:00</time>
      </trkpt>
      <trkpt lat="47.30676" lon="-1.40583">
        <ele>10</ele>
        <time>2020-12-06T10:36:51.898000+00:00</time>
      </trkpt>
      <trkpt lat="0" lon="0">
        <time>2020-12-06T10:36:51.909000+00:00</time>
      </trkpt>
      <trkpt lat="0" lon="0">
        <time>2020-12-06T10:36:51.915000+00:00</time>
      </trkpt>
      <trkpt lat="0" lon="0">
        <time>2020-12-06T10:36:51.918000+00:00</time>
      </trkpt>
      <trkpt lat="47.30672" lon="-1.4058">
        <ele>10</ele>
        <time>2020-12-06T10:36:52.930000+00:00</time>
      </trkpt>
      <trkpt lat="0" lon="0">
        <time>2020-12-06T10:36:52.938000+00:00</time>
      </trkpt>
      <trkpt lat="0" lon="0">
        <time>2020-12-06T10:36:52.940000+00:00</time>
      </trkpt>
      <trkpt lat="0" lon="0">
        <time>2020-12-06T10:36:52.941000+00:00</time>
      </trkpt>
      <trkpt lat="47.30667" lon="-1.40577">
        <ele>10</ele>
        <time>2020-12-06T10:36:53.938000+00:00</time>
      </trkpt>
      <trkpt lat="0" lon="0">
        <time>2020-12-06T10:36:53.945000+00:00</time>
      </trkpt>
      <trkpt lat="0" lon="0">
        <time>2020-12-06T10:36:53.950000+00:00</time>
      </trkpt>
      <trkpt lat="0" lon="0">
        <time>2020-12-06T10:36:53.952000+00:00</time>
      </trkpt>
      <trkpt lat="47.30662" lon="-1.40574">
        <ele>10</ele>
        <time>2020-12-06T10:36:54.931000+00:00</time>
      </trkpt>
      <trkpt lat="0" lon="0">
        <time>2020-12-06T10:36:54.936000+00:00</time>
      </trkpt>
      <trkpt lat="0" lon="0">
        <time>2020-12-06T10:36:54.943000+00:00</time>
      </trkpt>
      <trkpt lat="0" lon="0">
        <time>2020-12-06T10:36:54.946000+00:00</time>
      </trkpt>
      <trkpt lat="47.30658" lon="-1.4057">
        <ele>10</ele>
        <time>2020-12-06T10:36:55.959000+00:00</time>
      </trkpt>
      <trkpt lat="0" lon="0">
        <time>2020-12-06T10:36:55.980000+00:00</time>
      </trkpt>
      <trkpt lat="0" lon="0">
        <time>2020-12-06T10:36:55.992000+00:00</time>
      </trkpt>
      <trkpt lat="0" lon="0">
        <time>2020-12-06T10:36:55.994000+00:00</time>
      </trkpt>
      <trkpt lat="47.30653" lon="-1.40566">
        <ele>10</ele>
        <time>2020-12-06T10:36:56.947000+00:00</time>
      </trkpt>
      <trkpt lat="0" lon="0">
        <time>2020-12-06T10:36:56.963000+00:00</time>
      </trkpt>
      <trkpt lat="0" lon="0">
        <time>2020-12-06T10:36:56.973000+00:00</time>
      </trkpt>
      <trkpt lat="0" lon="0">
        <time>2020-12-06T10:36:56.975000+00:00</time>
      </trkpt>
      <trkpt lat="47.30649" lon="-1.40563">
        <ele>10</ele>
        <time>2020-12-06T10:36:57.905000+00:00</time>
      </trkpt>
      <trkpt lat="0" lon="0">
        <time>2020-12-06T10:36:57.918000+00:00</time>
      </trkpt>
      <trkpt lat="0" lon="0">
        <time>2020-12-06T10:36:57.924000+00:00</time>
      </trkpt>
      <trkpt lat="0" lon="0">
        <time>2020-12-06T10:36:57.933000+00:00</time>
      </trkpt>
      <trkpt lat="47.30644" lon="-1.40559">
        <ele>10</ele>
        <time>2020-12-06T10:36:58.986000+00:00</time>
      </trkpt>
      <trkpt lat="0" lon="0">
        <time>2020-12-06T10:36:58.997000+00:00</time>
      </trkpt>
      <trkpt lat="0" lon="0">
        <time>2020-12-06T10:36:59.004000+00:00</time>
      </trkpt>
      <trkpt lat="0" lon="0">
        <time>2020-12-06T10:36:59.011000+00:00</time>
      </trkpt>
      <trkpt lat="47.3064" lon="-1.40556">
        <ele>10</ele>
        <time>2020-12-06T10:36:59.938000+00:00</time>
      </trkpt>
      <trkpt lat="0" lon="0">
        <time>2020-12-06T10:36:59.945000+00:00</time>
      </trkpt>
      <trkpt lat="0" lon="0">
        <time>2020-12-06T10:36:59.951000+00:00</time>
      </trkpt>
      <trkpt lat="0" lon="0">
        <time>2020-12-06T10:36:59.954000+00:00</time>
      </trkpt>
      <trkpt lat="47.30635" lon="-1.40553">
        <ele>11</ele>
        <time>2020-12-06T10:37:00.946000+00:00</time>
      </trkpt>
      <trkpt lat="0" lon="0">
        <time>2020-12-06T10:37:00.956000+00:00</time>
      </trkpt>
      <trkpt lat="0" lon="0">
        <time>2020-12-06T10:37:00.965000+00:00</time>
      </trkpt>
      <trkpt lat="0" lon="0">
        <time>2020-12-06T10:37:00.967000+00:00</time>
      </trkpt>
      <trkpt lat="47.3063" lon="-1.4055">
        <ele>11</ele>
        <time>2020-12-06T10:37:01.919000+00:00</time>
      </trkpt>
      <trkpt lat="0" lon="0">
        <time>2020-12-06T10:37:01.937000+00:00</time>
      </trkpt>
      <trkpt lat="0" lon="0">
        <time>2020-12-06T10:37:01.940000+00:00</time>
      </trkpt>
      <trkpt lat="0" lon="0">
        <time>2020-12-06T10:37:01.942000+00:00</time>
      </trkpt>
      <trkpt lat="47.30625" lon="-1.40546">
        <ele>11</ele>
        <time>2020-12-06T10:37:02.930000+00:00</time>
      </trkpt>
      <trkpt lat="0" lon="0">
        <time>2020-12-06T10:37:02.936000+00:00</time>
      </trkpt>
      <trkpt lat="0" lon="0">
        <time>2020-12-06T10:37:02.939000+00:00</time>
      </trkpt>
      <trkpt lat="0" lon="0">
        <time>2020-12-06T10:37:02.941000+00:00</time>
      </trkpt>
      <trkpt lat="47.30621" lon="-1.40544">
        <ele>11</ele>
        <time>2020-12-06T10:37:03.899000+00:00</time>
      </trkpt>
      <trkpt lat="0" lon="0">
        <time>2020-12-06T10:37:03.913000+00:00</time>
      </trkpt>
      <trkpt lat="0" lon="0">
        <time>2020-12-06T10:37:03.922000+00:00</time>
      </trkpt>
      <trkpt lat="0" lon="0">
        <time>2020-12-06T10:37:03.924000+00:00</time>
      </trkpt>
      <trkpt lat="47.30616" lon="-1.40541">
        <ele>11</ele>
        <time>2020-12-06T10:37:04.918000+00:00</time>
      </trkpt>
      <trkpt lat="0" lon="0">
        <time>2020-12-06T10:37:04.927000+00:00</time>
      </trkpt>
      <trkpt lat="0" lon="0">
        <time>2020-12-06T10:37:04.933000+00:00</time>
      </trkpt>
      <trkpt lat="0" lon="0">
        <time>2020-12-06T10:37:04.935000+00:00</time>
      </trkpt>
      <trkpt lat="47.30611" lon="-1.40538">
        <ele>11</ele>
        <time>2020-12-06T10:37:05.930000+00:00</time>
      </trkpt>
      <trkpt lat="0" lon="0">
        <time>2020-12-06T10:37:05.946000+00:00</time>
      </trkpt>
      <trkpt lat="0" lon="0">
        <time>2020-12-06T10:37:05.950000+00:00</time>
      </trkpt>
      <trkpt lat="0" lon="0">
        <time>2020-12-06T10:37:05.952000+00:00</time>
      </trkpt>
      <trkpt lat="47.30606" lon="-1.40536">
        <ele>11</ele>
        <time>2020-12-06T10:37:06.881000+00:00</time>
      </trkpt>
      <trkpt lat="0" lon="0">
        <time>2020-12-06T10:37:06.888000+00:00</time>
      </trkpt>
      <trkpt lat="0" lon="0">
        <time>2020-12-06T10:37:06.893000+00:00</time>
      </trkpt>
      <trkpt lat="0" lon="0">
        <time>2020-12-06T10:37:06.894000+00:00</time>
      </trkpt>
      <trkpt lat="47.30601" lon="-1.40533">
        <ele>11</ele>
        <time>2020-12-06T10:37:07.882000+00:00</time>
      </trkpt>
      <trkpt lat="0" lon="0">
        <time>2020-12-06T10:37:07.886000+00:00</time>
      </trkpt>
      <trkpt lat="0" lon="0">
        <time>2020-12-06T10:37:07.891000+00:00</time>
      </trkpt>
      <trkpt lat="0" lon="0">
        <time>2020-12-06T10:37:07.892000+00:00</time>
      </trkpt>
      <trkpt lat="47.30596" lon="-1.40531">
        <ele>12</ele>
        <time>2020-12-06T10:37:08.886000+00:00</time>
      </trkpt>
      <trkpt lat="0" lon="0">
        <time>2020-12-06T10:37:08.902000+00:00</time>
      </trkpt>
      <trkpt lat="0" lon="0">
        <time>2020-12-06T10:37:08.905000+00:00</time>
      </trkpt>
      <trkpt lat="0" lon="0">
        <time>2020-12-06T10:37:08.907000+00:00</time>
      </trkpt>
      <trkpt lat="47.30591" lon="-1.40529">
        <ele>12</ele>
        <time>2020-12-06T10:37:09.925000+00:00</time>
      </trkpt>
      <trkpt lat="0" lon="0">
        <time>2020-12-06T10:37:09.926000+00:00</time>
      </trkpt>
      <trkpt lat="0" lon="0">
        <time>2020-12-06T10:37:09.928000+00:00</time>
      </trkpt>
      <trkpt lat="0" lon="0">
        <time>2020-12-06T10:37:09.929000+00:00</time>
      </trkpt>
      <trkpt lat="47.30586" lon="-1.40527">
        <ele>12</ele>
        <time>2020-12-06T10:37:10.896000+00:00</time>
      </trkpt>
      <trkpt lat="0" lon="0">
        <time>2020-12-06T10:37:10.900000+00:00</time>
      </trkpt>
      <trkpt lat="0" lon="0">
        <time>2020-12-06T10:37:10.926000+00:00</time>
      </trkpt>
      <trkpt lat="0" lon="0">
        <time>2020-12-06T10:37:10.928000+00:00</time>
      </trkpt>
      <trkpt lat="47.30581" lon="-1.40524">
        <ele>12</ele>
        <time>2020-12-06T10:37:11.920000+00:00</time>
      </trkpt>
      <trkpt lat="0" lon="0">
        <time>2020-12-06T10:37:11.925000+00:00</time>
      </trkpt>
      <trkpt lat="0" lon="0">
        <time>2020-12-06T10:37:11.934000+00:00</time>
      </trkpt>
      <trkpt lat="0" lon="0">
        <time>2020-12-06T10:37:11.936000+00:00</time>
      </trkpt>
      <trkpt lat="47.30576" lon="-1.40521">
        <ele>12</ele>
        <time>2020-12-06T10:37:12.893000+00:00</time>
      </trkpt>
      <trkpt lat="0" lon="0">
        <time>2020-12-06T10:37:12.899000+00:00</time>
      </trkpt>
      <trkpt lat="0" lon="0">
        <time>2020-12-06T10:37:12.900000+00:00</time>
      </trkpt>
      <trkpt lat="47.30571" lon="-1.40519">
        <ele>12</ele>
        <time>2020-12-06T10:37:13.899000+00:00</time>
      </trkpt>
      <trkpt lat="0" lon="0">
        <time>2020-12-06T10:37:13.911000+00:00</time>
      </trkpt>
      <trkpt lat="0" lon="0">
        <time>2020-12-06T10:37:13.914000+00:00</time>
      </trkpt>
      <trkpt lat="0" lon="0">
        <time>2020-12-06T10:37:13.917000+00:00</time>
      </trkpt>
      <trkpt lat="47.30566" lon="-1.40516">
        <ele>12</ele>
        <time>2020-12-06T10:37:14.869000+00:00</time>
      </trkpt>
      <trkpt lat="0" lon="0">
        <time>2020-12-06T10:37:14.871000+00:00</time>
      </trkpt>
      <trkpt lat="0" lon="0">
        <time>2020-12-06T10:37:14.873000+00:00</time>
      </trkpt>
      <trkpt lat="0" lon="0">
        <time>2020-12-06T10:37:14.874000+00:00</time>
      </trkpt>
      <trkpt lat="47.30561" lon="-1.40513">
        <ele>12</ele>
        <time>2020-12-06T10:37:15.962000+00:00</time>
      </trkpt>
      <trkpt lat="0" lon="0">
        <time>2020-12-06T10:37:15.978000+00:00</time>
      </trkpt>
      <trkpt lat="0" lon="0">
        <time>2020-12-06T10:37:15.988000+00:00</time>
      </trkpt>
      <trkpt lat="0" lon="0">
        <time>2020-12-06T10:37:15.995000+00:00</time>
      </trkpt>
      <trkpt lat="47.30556" lon="-1.4051">
        <ele>12</ele>
        <time>2020-12-06T10:37:16.948000+00:00</time>
      </trkpt>
      <trkpt lat="0" lon="0">
        <time>2020-12-06T10:37:16.960000+00:00</time>
      </trkpt>
      <trkpt lat="0" lon="0">
        <time>2020-12-06T10:37:16.963000+00:00</time>
      </trkpt>
      <trkpt lat="0" lon="0">
        <time>2020-12-06T10:37:16.965000+00:00</time>
      </trkpt>
      <trkpt lat="47.30551" lon="-1.40507">
        <ele>12</ele>
        <time>2020-12-06T10:37:17.957000+00:00</time>
      </trkpt>
      <trkpt lat="0" lon="0">
        <time>2020-12-06T10:37:17.965000+00:00</time>
      </trkpt>
      <trkpt lat="0" lon="0">
        <time>2020-12-06T10:37:17.969000+00:00</time>
      </trkpt>
      <trkpt lat="0" lon="0">
        <time>2020-12-06T10:37:17.972000+00:00</time>
      </trkpt>
      <trkpt lat="47.30546" lon="-1.40505">
        <ele>12</ele>
        <time>2020-12-06T10:37:18.957000+00:00</time>
      </trkpt>
      <trkpt lat="0" lon="0">
        <time>2020-12-06T10:37:18.960000+00:00</time>
      </trkpt>
      <trkpt lat="0" lon="0">
        <time>2020-12-06T10:37:18.973000+00:00</time>
      </trkpt>
      <trkpt lat="0" lon="0">
        <time>2020-12-06T10:37:18.978000+00:00</time>
      </trkpt>
      <trkpt lat="47.30541" lon="-1.40503">
        <ele>12</ele>
        <time>2020-12-06T10:37:19.913000+00:00</time>
      </trkpt>
      <trkpt lat="0" lon="0">
        <time>2020-12-06T10:37:19.920000+00:00</time>
      </trkpt>
      <trkpt lat="0" lon="0">
        <time>2020-12-06T10:37:19.929000+00:00</time>
      </trkpt>
      <trkpt lat="0" lon="0">
        <time>2020-12-06T10:37:19.930000+00:00</time>
      </trkpt>
      <trkpt lat="47.30536" lon="-1.40501">
        <ele>12</ele>
        <time>2020-12-06T10:37:20.915000+00:00</time>
      </trkpt>
      <trkpt lat="0" lon="0">
        <time>2020-12-06T10:37:20.929000+00:00</time>
      </trkpt>
      <trkpt lat="0" lon="0">
        <time>2020-12-06T10:37:20.940000+00:00</time>
      </trkpt>
      <trkpt lat="0" lon="0">
        <time>2020-12-06T10:37:20.942000+00:00</time>
      </trkpt>
      <trkpt lat="47.30531" lon="-1.405">
        <ele>13</ele>
        <time>2020-12-06T10:37:21.960000+00:00</time>
      </trkpt>
      <trkpt lat="0" lon="0">
        <time>2020-12-06T10:37:21.973000+00:00</time>
      </trkpt>
      <trkpt lat="0" lon="0">
        <time>2020-12-06T10:37:21.977000+00:00</time>
      </trkpt>
      <trkpt lat="0" lon="0">
        <time>2020-12-06T10:37:21.983000+00:00</time>
      </trkpt>
      <trkpt lat="47.30525" lon="-1.40499">
        <ele>13</ele>
        <time>2020-12-06T10:37:22.928000+00:00</time>
      </trkpt>
      <trkpt lat="0" lon="0">
        <time>2020-12-06T10:37:22.946000+00:00</time>
      </trkpt>
      <trkpt lat="0" lon="0">
        <time>2020-12-06T10:37:22.952000+00:00</time>
      </trkpt>
      <trkpt lat="0" lon="0">
        <time>2020-12-06T10:37:22.954000+00:00</time>
      </trkpt>
      <trkpt lat="47.3052" lon="-1.40498">
        <ele>13</ele>
        <time>2020-12-06T10:37:23.954000+00:00</time>
      </trkpt>
      <trkpt lat="0" lon="0">
        <time>2020-12-06T10:37:23.958000+00:00</time>
      </trkpt>
      <trkpt lat="0" lon="0">
        <time>2020-12-06T10:37:23.962000+00:00</time>
      </trkpt>
      <trkpt lat="0" lon="0">
        <time>2020-12-06T10:37:23.964000+00:00</time>
      </trkpt>
      <trkpt lat="47.30515" lon="-1.40497">
        <ele>13</ele>
        <time>2020-12-06T10:37:24.913000+00:00</time>
      </trkpt>
      <trkpt lat="0" lon="0">
        <time>2020-12-06T10:37:24.915000+00:00</time>
      </trkpt>
      <trkpt lat="0" lon="0">
        <time>2020-12-06T10:37:24.916000+00:00</time>
      </trkpt>
      <trkpt lat="0" lon="0">
        <time>2020-12-06T10:37:24.918000+00:00</time>
      </trkpt>
      <trkpt lat="47.3051" lon="-1.40496">
        <ele>13</ele>
        <time>2020-12-06T10:37:25.957000+00:00</time>
      </trkpt>
      <trkpt lat="0" lon="0">
        <time>2020-12-06T10:37:25.970000+00:00</time>
      </trkpt>
      <trkpt lat="0" lon="0">
        <time>2020-12-06T10:37:25.974000+00:00</time>
      </trkpt>
      <trkpt lat="0" lon="0">
        <time>2020-12-06T10:37:25.979000+00:00</time>
      </trkpt>
      <trkpt lat="47.30505" lon="-1.40495">
        <ele>13</ele>
        <time>2020-12-06T10:37:26.890000+00:00</time>
      </trkpt>
      <trkpt lat="0" lon="0">
        <time>2020-12-06T10:37:26.893000+00:00</time>
      </trkpt>
      <trkpt lat="0" lon="0">
        <time>2020-12-06T10:37:26.900000+00:00</time>
      </trkpt>
      <trkpt lat="0" lon="0">
        <time>2020-12-06T10:37:26.902000+00:00</time>
      </trkpt>
      <trkpt lat="47.305" lon="-1.40494">
        <ele>13</ele>
        <time>2020-12-06T10:37:27.935000+00:00</time>
      </trkpt>
      <trkpt lat="0" lon="0">
        <time>2020-12-06T10:37:27.950000+00:00</time>
      </trkpt>
      <trkpt lat="0" lon="0">
        <time>2020-12-06T10:37:27.954000+00:00</time>
      </trkpt>
      <trkpt lat="0" lon="0">
        <time>2020-12-06T10:37:27.957000+00:00</time>
      </trkpt>
      <trkpt lat="47.30496" lon="-1.40493">
        <ele>13</ele>
        <time>2020-12-06T10:37:28.950000+00:00</time>
      </trkpt>
      <trkpt lat="0" lon="0">
        <time>2020-12-06T10:37:28.959000+00:00</time>
      </trkpt>
      <trkpt lat="0" lon="0">
        <time>2020-12-06T10:37:28.965000+00:00</time>
      </trkpt>
      <trkpt lat="0" lon="0">
        <time>2020-12-06T10:37:28.968000+00:00</time>
      </trkpt>
      <trkpt lat="47.30492" lon="-1.40492">
        <ele>13</ele>
        <time>2020-12-06T10:37:29.905000+00:00</time>
      </trkpt>
      <trkpt lat="0" lon="0">
        <time>2020-12-06T10:37:29.909000+00:00</time>
      </trkpt>
      <trkpt lat="0" lon="0">
        <time>2020-12-06T10:37:29.912000+00:00</time>
      </trkpt>
      <trkpt lat="0" lon="0">
        <time>2020-12-06T10:37:29.914000+00:00</time>
      </trkpt>
      <trkpt lat="47.30488" lon="-1.4049">
        <ele>13</ele>
        <time>2020-12-06T10:37:30.934000+00:00</time>
      </trkpt>
      <trkpt lat="0" lon="0">
        <time>2020-12-06T10:37:30.936000+00:00</time>
      </trkpt>
      <trkpt lat="0" lon="0">
        <time>2020-12-06T10:37:30.938000+00:00</time>
      </trkpt>
      <trkpt lat="0" lon="0">
        <time>2020-12-06T10:37:30.939000+00:00</time>
      </trkpt>
      <trkpt lat="47.30485" lon="-1.40488">
        <ele>13</ele>
        <time>2020-12-06T10:37:31.972000+00:00</time>
      </trkpt>
      <trkpt lat="0" lon="0">
        <time>2020-12-06T10:37:31.978000+00:00</time>
      </trkpt>
      <trkpt lat="0" lon="0">
        <time>2020-12-06T10:37:31.987000+00:00</time>
      </trkpt>
      <trkpt lat="0" lon="0">
        <time>2020-12-06T10:37:31.990000+00:00</time>
      </trkpt>
      <trkpt lat="47.30481" lon="-1.40485">
        <ele>13</ele>
        <time>2020-12-06T10:37:32.946000+00:00</time>
      </trkpt>
      <trkpt lat="0" lon="0">
        <time>2020-12-06T10:37:32.974000+00:00</time>
      </trkpt>
      <trkpt lat="0" lon="0">
        <time>2020-12-06T10:37:32.978000+00:00</time>
      </trkpt>
      <trkpt lat="0" lon="0">
        <time>2020-12-06T10:37:32.982000+00:00</time>
      </trkpt>
      <trkpt lat="47.30478" lon="-1.40482">
        <ele>13</ele>
        <time>2020-12-06T10:37:33.931000+00:00</time>
      </trkpt>
      <trkpt lat="0" lon="0">
        <time>2020-12-06T10:37:33.946000+00:00</time>
      </trkpt>
      <trkpt lat="0" lon="0">
        <time>2020-12-06T10:37:33.952000+00:00</time>
      </trkpt>
      <trkpt lat="0" lon="0">
        <time>2020-12-06T10:37:33.959000+00:00</time>
      </trkpt>
      <trkpt lat="47.30475" lon="-1.40479">
        <ele>13</ele>
        <time>2020-12-06T10:37:34.944000+00:00</time>
      </trkpt>
      <trkpt lat="0" lon="0">
        <time>2020-12-06T10:37:34.957000+00:00</time>
      </trkpt>
      <trkpt lat="0" lon="0">
        <time>2020-12-06T10:37:34.961000+00:00</time>
      </trkpt>
      <trkpt lat="0" lon="0">
        <time>2020-12-06T10:37:34.963000+00:00</time>
      </trkpt>
      <trkpt lat="47.30472" lon="-1.40476">
        <ele>13</ele>
        <time>2020-12-06T10:37:35.946000+00:00</time>
      </trkpt>
      <trkpt lat="0" lon="0">
        <time>2020-12-06T10:37:35.954000+00:00</time>
      </trkpt>
      <trkpt lat="0" lon="0">
        <time>2020-12-06T10:37:35.956000+00:00</time>
      </trkpt>
      <trkpt lat="0" lon="0">
        <time>2020-12-06T10:37:35.961000+00:00</time>
      </trkpt>
      <trkpt lat="47.30469" lon="-1.40472">
        <ele>13</ele>
        <time>2020-12-06T10:37:36.965000+00:00</time>
      </trkpt>
      <trkpt lat="0" lon="0">
        <time>2020-12-06T10:37:36.970000+00:00</time>
      </trkpt>
      <trkpt lat="0" lon="0">
        <time>2020-12-06T10:37:36.976000+00:00</time>
      </trkpt>
      <trkpt lat="0" lon="0">
        <time>2020-12-06T10:37:36.978000+00:00</time>
      </trkpt>
      <trkpt lat="47.30466" lon="-1.40468">
        <ele>14</ele>
        <time>2020-12-06T10:37:37.884000+00:00</time>
      </trkpt>
      <trkpt lat="0" lon="0">
        <time>2020-12-06T10:37:37.892000+00:00</time>
      </trkpt>
      <trkpt lat="0" lon="0">
        <time>2020-12-06T10:37:37.894000+00:00</time>
      </trkpt>
      <trkpt lat="0" lon="0">
        <time>2020-12-06T10:37:37.895000+00:00</time>
      </trkpt>
      <trkpt lat="47.30464" lon="-1.40464">
        <ele>14</ele>
        <time>2020-12-06T10:37:38.944000+00:00</time>
      </trkpt>
      <trkpt lat="0" lon="0">
        <time>2020-12-06T10:37:38.956000+00:00</time>
      </trkpt>
      <trkpt lat="0" lon="0">
        <time>2020-12-06T10:37:38.965000+00:00</time>
      </trkpt>
      <trkpt lat="0" lon="0">
        <time>2020-12-06T10:37:38.969000+00:00</time>
      </trkpt>
      <trkpt lat="47.30461" lon="-1.4046">
        <ele>14</ele>
        <time>2020-12-06T10:37:39.902000+00:00</time>
      </trkpt>
      <trkpt lat="0" lon="0">
        <time>2020-12-06T10:37:39.920000+00:00</time>
      </trkpt>
      <trkpt lat="0" lon="0">
        <time>2020-12-06T10:37:39.924000+00:00</time>
      </trkpt>
      <trkpt lat="0" lon="0">
        <time>2020-12-06T10:37:39.926000+00:00</time>
      </trkpt>
      <trkpt lat="47.30459" lon="-1.40456">
        <ele>14</ele>
        <time>2020-12-06T10:37:40.945000+00:00</time>
      </trkpt>
      <trkpt lat="0" lon="0">
        <time>2020-12-06T10:37:40.964000+00:00</time>
      </trkpt>
      <trkpt lat="0" lon="0">
        <time>2020-12-06T10:37:40.968000+00:00</time>
      </trkpt>
      <trkpt lat="0" lon="0">
        <time>2020-12-06T10:37:40.970000+00:00</time>
      </trkpt>
      <trkpt lat="47.30457" lon="-1.40452">
        <ele>14</ele>
        <time>2020-12-06T10:37:41.945000+00:00</time>
      </trkpt>
      <trkpt lat="0" lon="0">
        <time>2020-12-06T10:37:41.957000+00:00</time>
      </trkpt>
      <trkpt lat="0" lon="0">
        <time>2020-12-06T10:37:41.960000+00:00</time>
      </trkpt>
      <trkpt lat="0" lon="0">
        <time>2020-12-06T10:37:41.963000+00:00</time>
      </trkpt>
      <trkpt lat="47.30454" lon="-1.40448">
        <ele>15</ele>
        <time>2020-12-06T10:37:42.946000+00:00</time>
      </trkpt>
      <trkpt lat="0" lon="0">
        <time>2020-12-06T10:37:42.954000+00:00</time>
      </trkpt>
      <trkpt lat="0" lon="0">
        <time>2020-12-06T10:37:42.955000+00:00</time>
      </trkpt>
      <trkpt lat="0" lon="0">
        <time>2020-12-06T10:37:42.956000+00:00</time>
      </trkpt>
      <trkpt lat="47.30452" lon="-1.40444">
        <ele>15</ele>
        <time>2020-12-06T10:37:43.941000+00:00</time>
      </trkpt>
      <trkpt lat="0" lon="0">
        <time>2020-12-06T10:37:43.943000+00:00</time>
      </trkpt>
      <trkpt lat="0" lon="0">
        <time>2020-12-06T10:37:43.946000+00:00</time>
      </trkpt>
      <trkpt lat="0" lon="0">
        <time>2020-12-06T10:37:43.948000+00:00</time>
      </trkpt>
      <trkpt lat="47.3045" lon="-1.4044">
        <ele>15</ele>
        <time>2020-12-06T10:37:44.929000+00:00</time>
      </trkpt>
      <trkpt lat="0" lon="0">
        <time>2020-12-06T10:37:44.939000+00:00</time>
      </trkpt>
      <trkpt lat="0" lon="0">
        <time>2020-12-06T10:37:44.945000+00:00</time>
      </trkpt>
      <trkpt lat="0" lon="0">
        <time>2020-12-06T10:37:44.950000+00:00</time>
      </trkpt>
      <trkpt lat="47.30448" lon="-1.40436">
        <ele>15</ele>
        <time>2020-12-06T10:37:45.928000+00:00</time>
      </trkpt>
      <trkpt lat="0" lon="0">
        <time>2020-12-06T10:37:45.945000+00:00</time>
      </trkpt>
      <trkpt lat="0" lon="0">
        <time>2020-12-06T10:37:45.953000+00:00</time>
      </trkpt>
      <trkpt lat="0" lon="0">
        <time>2020-12-06T10:37:45.955000+00:00</time>
      </trkpt>
      <trkpt lat="47.30445" lon="-1.40432">
        <ele>15</ele>
        <time>2020-12-06T10:37:46.947000+00:00</time>
      </trkpt>
      <trkpt lat="0" lon="0">
        <time>2020-12-06T10:37:46.962000+00:00</time>
      </trkpt>
      <trkpt lat="0" lon="0">
        <time>2020-12-06T10:37:46.966000+00:00</time>
      </trkpt>
      <trkpt lat="0" lon="0">
        <time>2020-12-06T10:37:46.969000+00:00</time>
      </trkpt>
      <trkpt lat="47.30443" lon="-1.40429">
        <ele>16</ele>
        <time>2020-12-06T10:37:47.929000+00:00</time>
      </trkpt>
      <trkpt lat="0" lon="0">
        <time>2020-12-06T10:37:47.940000+00:00</time>
      </trkpt>
      <trkpt lat="0" lon="0">
        <time>2020-12-06T10:37:47.942000+00:00</time>
      </trkpt>
      <trkpt lat="0" lon="0">
        <time>2020-12-06T10:37:47.943000+00:00</time>
      </trkpt>
      <trkpt lat="47.3044" lon="-1.40425">
        <ele>16</ele>
        <time>2020-12-06T10:37:48.923000+00:00</time>
      </trkpt>
      <trkpt lat="0" lon="0">
        <time>2020-12-06T10:37:48.940000+00:00</time>
      </trkpt>
      <trkpt lat="0" lon="0">
        <time>2020-12-06T10:37:48.944000+00:00</time>
      </trkpt>
      <trkpt lat="0" lon="0">
        <time>2020-12-06T10:37:48.946000+00:00</time>
      </trkpt>
      <trkpt lat="47.30438" lon="-1.40421">
        <ele>16</ele>
        <time>2020-12-06T10:37:49.941000+00:00</time>
      </trkpt>
      <trkpt lat="0" lon="0">
        <time>2020-12-06T10:37:49.953000+00:00</time>
      </trkpt>
      <trkpt lat="0" lon="0">
        <time>2020-12-06T10:37:49.961000+00:00</time>
      </trkpt>
      <trkpt lat="0" lon="0">
        <time>2020-12-06T10:37:49.963000+00:00</time>
      </trkpt>
      <trkpt lat="47.30436" lon="-1.40417">
        <ele>16</ele>
        <time>2020-12-06T10:37:50.951000+00:00</time>
      </trkpt>
      <trkpt lat="0" lon="0">
        <time>2020-12-06T10:37:50.953000+00:00</time>
      </trkpt>
      <trkpt lat="0" lon="0">
        <time>2020-12-06T10:37:50.959000+00:00</time>
      </trkpt>
      <trkpt lat="0" lon="0">
        <time>2020-12-06T10:37:50.960000+00:00</time>
      </trkpt>
      <trkpt lat="47.30433" lon="-1.40413">
        <ele>17</ele>
        <time>2020-12-06T10:37:51.933000+00:00</time>
      </trkpt>
      <trkpt lat="0" lon="0">
        <time>2020-12-06T10:37:51.945000+00:00</time>
      </trkpt>
      <trkpt lat="0" lon="0">
        <time>2020-12-06T10:37:51.951000+00:00</time>
      </trkpt>
      <trkpt lat="0" lon="0">
        <time>2020-12-06T10:37:51.954000+00:00</time>
      </trkpt>
      <trkpt lat="47.30431" lon="-1.40409">
        <ele>17</ele>
        <time>2020-12-06T10:37:52.990000+00:00</time>
      </trkpt>
      <trkpt lat="0" lon="0">
        <time>2020-12-06T10:37:52.992000+00:00</time>
      </trkpt>
      <trkpt lat="0" lon="0">
        <time>2020-12-06T10:37:52.997000+00:00</time>
      </trkpt>
      <trkpt lat="0" lon="0">
        <time>2020-12-06T10:37:52.999000+00:00</time>
      </trkpt>
      <trkpt lat="47.30429" lon="-1.40405">
        <ele>17</ele>
        <time>2020-12-06T10:37:53.971000+00:00</time>
      </trkpt>
      <trkpt lat="0" lon="0">
        <time>2020-12-06T10:37:53.982000+00:00</time>
      </trkpt>
      <trkpt lat="0" lon="0">
        <time>2020-12-06T10:37:53.989000+00:00</time>
      </trkpt>
      <trkpt lat="0" lon="0">
        <time>2020-12-06T10:37:53.993000+00:00</time>
      </trkpt>
      <trkpt lat="47.30427" lon="-1.404">
        <ele>18</ele>
        <time>2020-12-06T10:37:55.012000+00:00</time>
      </trkpt>
      <trkpt lat="0" lon="0">
        <time>2020-12-06T10:37:55.020000+00:00</time>
      </trkpt>
      <trkpt lat="0" lon="0">
        <time>2020-12-06T10:37:55.034000+00:00</time>
      </trkpt>
      <trkpt lat="0" lon="0">
        <time>2020-12-06T10:37:55.038000+00:00</time>
      </trkpt>
      <trkpt lat="47.30424" lon="-1.40396">
        <ele>18</ele>
        <time>2020-12-06T10:37:55.975000+00:00</time>
      </trkpt>
      <trkpt lat="0" lon="0">
        <time>2020-12-06T10:37:55.977000+00:00</time>
      </trkpt>
      <trkpt lat="0" lon="0">
        <time>2020-12-06T10:37:55.981000+00:00</time>
      </trkpt>
      <trkpt lat="0" lon="0">
        <time>2020-12-06T10:37:55.983000+00:00</time>
      </trkpt>
      <trkpt lat="47.30422" lon="-1.40392">
        <ele>18</ele>
        <time>2020-12-06T10:37:56.936000+00:00</time>
      </trkpt>
      <trkpt lat="0" lon="0">
        <time>2020-12-06T10:37:56.939000+00:00</time>
      </trkpt>
      <trkpt lat="0" lon="0">
        <time>2020-12-06T10:37:56.954000+00:00</time>
      </trkpt>
      <trkpt lat="0" lon="0">
        <time>2020-12-06T10:37:56.956000+00:00</time>
      </trkpt>
      <trkpt lat="47.30419" lon="-1.40388">
        <ele>19</ele>
        <time>2020-12-06T10:37:57.953000+00:00</time>
      </trkpt>
      <trkpt lat="0" lon="0">
        <time>2020-12-06T10:37:57.981000+00:00</time>
      </trkpt>
      <trkpt lat="0" lon="0">
        <time>2020-12-06T10:37:57.985000+00:00</time>
      </trkpt>
      <trkpt lat="0" lon="0">
        <time>2020-12-06T10:37:57.987000+00:00</time>
      </trkpt>
      <trkpt lat="47.30417" lon="-1.40385">
        <ele>19</ele>
        <time>2020-12-06T10:37:58.982000+00:00</time>
      </trkpt>
      <trkpt lat="0" lon="0">
        <time>2020-12-06T10:37:58.987000+00:00</time>
      </trkpt>
      <trkpt lat="0" lon="0">
        <time>2020-12-06T10:37:58.990000+00:00</time>
      </trkpt>
      <trkpt lat="0" lon="0">
        <time>2020-12-06T10:37:58.992000+00:00</time>
      </trkpt>
      <trkpt lat="47.30414" lon="-1.40381">
        <ele>19</ele>
        <time>2020-12-06T10:37:59.954000+00:00</time>
      </trkpt>
      <trkpt lat="0" lon="0">
        <time>2020-12-06T10:37:59.970000+00:00</time>
      </trkpt>
      <trkpt lat="0" lon="0">
        <time>2020-12-06T10:37:59.975000+00:00</time>
      </trkpt>
      <trkpt lat="0" lon="0">
        <time>2020-12-06T10:37:59.977000+00:00</time>
      </trkpt>
      <trkpt lat="47.30412" lon="-1.40378">
        <ele>19</ele>
        <time>2020-12-06T10:38:00.970000+00:00</time>
      </trkpt>
      <trkpt lat="0" lon="0">
        <time>2020-12-06T10:38:00.986000+00:00</time>
      </trkpt>
      <trkpt lat="0" lon="0">
        <time>2020-12-06T10:38:00.993000+00:00</time>
      </trkpt>
      <trkpt lat="0" lon="0">
        <time>2020-12-06T10:38:00.996000+00:00</time>
      </trkpt>
      <trkpt lat="47.30409" lon="-1.40375">
        <ele>20</ele>
        <time>2020-12-06T10:38:01.956000+00:00</time>
      </trkpt>
      <trkpt lat="0" lon="0">
        <time>2020-12-06T10:38:01.961000+00:00</time>
      </trkpt>
      <trkpt lat="0" lon="0">
        <time>2020-12-06T10:38:01.979000+00:00</time>
      </trkpt>
      <trkpt lat="0" lon="0">
        <time>2020-12-06T10:38:01.986000+00:00</time>
      </trkpt>
      <trkpt lat="47.30407" lon="-1.40372">
        <ele>20</ele>
        <time>2020-12-06T10:38:02.943000+00:00</time>
      </trkpt>
      <trkpt lat="0" lon="0">
        <time>2020-12-06T10:38:02.959000+00:00</time>
      </trkpt>
      <trkpt lat="0" lon="0">
        <time>2020-12-06T10:38:02.970000+00:00</time>
      </trkpt>
      <trkpt lat="0" lon="0">
        <time>2020-12-06T10:38:02.974000+00:00</time>
      </trkpt>
      <trkpt lat="47.30405" lon="-1.40369">
        <ele>20</ele>
        <time>2020-12-06T10:38:03.949000+00:00</time>
      </trkpt>
      <trkpt lat="0" lon="0">
        <time>2020-12-06T10:38:03.957000+00:00</time>
      </trkpt>
      <trkpt lat="0" lon="0">
        <time>2020-12-06T10:38:03.966000+00:00</time>
      </trkpt>
      <trkpt lat="0" lon="0">
        <time>2020-12-06T10:38:03.968000+00:00</time>
      </trkpt>
      <trkpt lat="47.30403" lon="-1.40366">
        <ele>20</ele>
        <time>2020-12-06T10:38:04.965000+00:00</time>
      </trkpt>
      <trkpt lat="0" lon="0">
        <time>2020-12-06T10:38:04.968000+00:00</time>
      </trkpt>
      <trkpt lat="0" lon="0">
        <time>2020-12-06T10:38:04.972000+00:00</time>
      </trkpt>
      <trkpt lat="0" lon="0">
        <time>2020-12-06T10:38:04.975000+00:00</time>
      </trkpt>
      <trkpt lat="47.30401" lon="-1.40364">
        <ele>21</ele>
        <time>2020-12-06T10:38:05.970000+00:00</time>
      </trkpt>
      <trkpt lat="0" lon="0">
        <time>2020-12-06T10:38:05.986000+00:00</time>
      </trkpt>
      <trkpt lat="0" lon="0">
        <time>2020-12-06T10:38:05.992000+00:00</time>
      </trkpt>
      <trkpt lat="0" lon="0">
        <time>2020-12-06T10:38:05.994000+00:00</time>
      </trkpt>
      <trkpt lat="47.30399" lon="-1.40361">
        <ele>21</ele>
        <time>2020-12-06T10:38:06.964000+00:00</time>
      </trkpt>
      <trkpt lat="0" lon="0">
        <time>2020-12-06T10:38:06.972000+00:00</time>
      </trkpt>
      <trkpt lat="0" lon="0">
        <time>2020-12-06T10:38:06.978000+00:00</time>
      </trkpt>
      <trkpt lat="0" lon="0">
        <time>2020-12-06T10:38:06.980000+00:00</time>
      </trkpt>
      <trkpt lat="47.30397" lon="-1.40358">
        <ele>21</ele>
        <time>2020-12-06T10:38:07.905000+00:00</time>
      </trkpt>
      <trkpt lat="0" lon="0">
        <time>2020-12-06T10:38:07.915000+00:00</time>
      </trkpt>
      <trkpt lat="0" lon="0">
        <time>2020-12-06T10:38:07.921000+00:00</time>
      </trkpt>
      <trkpt lat="0" lon="0">
        <time>2020-12-06T10:38:07.923000+00:00</time>
      </trkpt>
      <trkpt lat="47.30395" lon="-1.40356">
        <ele>22</ele>
        <time>2020-12-06T10:38:08.955000+00:00</time>
      </trkpt>
      <trkpt lat="0" lon="0">
        <time>2020-12-06T10:38:08.960000+00:00</time>
      </trkpt>
      <trkpt lat="0" lon="0">
        <time>2020-12-06T10:38:08.967000+00:00</time>
      </trkpt>
      <trkpt lat="0" lon="0">
        <time>2020-12-06T10:38:08.969000+00:00</time>
      </trkpt>
      <trkpt lat="47.30393" lon="-1.40353">
        <ele>22</ele>
        <time>2020-12-06T10:38:09.950000+00:00</time>
      </trkpt>
      <trkpt lat="0" lon="0">
        <time>2020-12-06T10:38:09.967000+00:00</time>
      </trkpt>
      <trkpt lat="0" lon="0">
        <time>2020-12-06T10:38:09.972000+00:00</time>
      </trkpt>
      <trkpt lat="0" lon="0">
        <time>2020-12-06T10:38:09.976000+00:00</time>
      </trkpt>
      <trkpt lat="47.30392" lon="-1.40351">
        <ele>22</ele>
        <time>2020-12-06T10:38:10.867000+00:00</time>
      </trkpt>
      <trkpt lat="0" lon="0">
        <time>2020-12-06T10:38:10.879000+00:00</time>
      </trkpt>
      <trkpt lat="0" lon="0">
        <time>2020-12-06T10:38:10.887000+00:00</time>
      </trkpt>
      <trkpt lat="0" lon="0">
        <time>2020-12-06T10:38:10.893000+00:00</time>
      </trkpt>
      <trkpt lat="47.3039" lon="-1.40349">
        <ele>22</ele>
        <time>2020-12-06T10:38:11.905000+00:00</time>
      </trkpt>
      <trkpt lat="0" lon="0">
        <time>2020-12-06T10:38:11.914000+00:00</time>
      </trkpt>
      <trkpt lat="0" lon="0">
        <time>2020-12-06T10:38:11.918000+00:00</time>
      </trkpt>
      <trkpt lat="0" lon="0">
        <time>2020-12-06T10:38:11.922000+00:00</time>
      </trkpt>
      <trkpt lat="47.30389" lon="-1.40347">
        <ele>22</ele>
        <time>2020-12-06T10:38:12.931000+00:00</time>
      </trkpt>
      <trkpt lat="0" lon="0">
        <time>2020-12-06T10:38:12.946000+00:00</time>
      </trkpt>
      <trkpt lat="0" lon="0">
        <time>2020-12-06T10:38:12.950000+00:00</time>
      </trkpt>
      <trkpt lat="0" lon="0">
        <time>2020-12-06T10:38:12.953000+00:00</time>
      </trkpt>
      <trkpt lat="47.30388" lon="-1.40346">
        <ele>23</ele>
        <time>2020-12-06T10:38:13.922000+00:00</time>
      </trkpt>
      <trkpt lat="0" lon="0">
        <time>2020-12-06T10:38:13.925000+00:00</time>
      </trkpt>
      <trkpt lat="0" lon="0">
        <time>2020-12-06T10:38:13.929000+00:00</time>
      </trkpt>
      <trkpt lat="0" lon="0">
        <time>2020-12-06T10:38:13.932000+00:00</time>
      </trkpt>
      <trkpt lat="47.30386" lon="-1.40344">
        <ele>23</ele>
        <time>2020-12-06T10:38:14.885000+00:00</time>
      </trkpt>
      <trkpt lat="0" lon="0">
        <time>2020-12-06T10:38:14.902000+00:00</time>
      </trkpt>
      <trkpt lat="0" lon="0">
        <time>2020-12-06T10:38:14.908000+00:00</time>
      </trkpt>
      <trkpt lat="0" lon="0">
        <time>2020-12-06T10:38:14.910000+00:00</time>
      </trkpt>
      <trkpt lat="47.30385" lon="-1.40342">
        <ele>23</ele>
        <time>2020-12-06T10:38:15.927000+00:00</time>
      </trkpt>
      <trkpt lat="0" lon="0">
        <time>2020-12-06T10:38:15.930000+00:00</time>
      </trkpt>
      <trkpt lat="0" lon="0">
        <time>2020-12-06T10:38:15.939000+00:00</time>
      </trkpt>
      <trkpt lat="0" lon="0">
        <time>2020-12-06T10:38:15.941000+00:00</time>
      </trkpt>
      <trkpt lat="47.30384" lon="-1.40341">
        <ele>23</ele>
        <time>2020-12-06T10:38:16.942000+00:00</time>
      </trkpt>
      <trkpt lat="0" lon="0">
        <time>2020-12-06T10:38:16.946000+00:00</time>
      </trkpt>
      <trkpt lat="0" lon="0">
        <time>2020-12-06T10:38:16.947000+00:00</time>
      </trkpt>
      <trkpt lat="0" lon="0">
        <time>2020-12-06T10:38:16.948000+00:00</time>
      </trkpt>
      <trkpt lat="47.30383" lon="-1.40339">
        <ele>23</ele>
        <time>2020-12-06T10:38:17.939000+00:00</time>
      </trkpt>
      <trkpt lat="0" lon="0">
        <time>2020-12-06T10:38:17.946000+00:00</time>
      </trkpt>
      <trkpt lat="0" lon="0">
        <time>2020-12-06T10:38:17.950000+00:00</time>
      </trkpt>
      <trkpt lat="0" lon="0">
        <time>2020-12-06T10:38:17.952000+00:00</time>
      </trkpt>
      <trkpt lat="47.30382" lon="-1.40337">
        <ele>23</ele>
        <time>2020-12-06T10:38:18.927000+00:00</time>
      </trkpt>
      <trkpt lat="0" lon="0">
        <time>2020-12-06T10:38:18.939000+00:00</time>
      </trkpt>
      <trkpt lat="0" lon="0">
        <time>2020-12-06T10:38:18.943000+00:00</time>
      </trkpt>
      <trkpt lat="0" lon="0">
        <time>2020-12-06T10:38:18.948000+00:00</time>
      </trkpt>
      <trkpt lat="47.3038" lon="-1.40336">
        <ele>24</ele>
        <time>2020-12-06T10:38:19.925000+00:00</time>
      </trkpt>
      <trkpt lat="0" lon="0">
        <time>2020-12-06T10:38:19.935000+00:00</time>
      </trkpt>
      <trkpt lat="0" lon="0">
        <time>2020-12-06T10:38:19.938000+00:00</time>
      </trkpt>
      <trkpt lat="0" lon="0">
        <time>2020-12-06T10:38:19.940000+00:00</time>
      </trkpt>
      <trkpt lat="47.30379" lon="-1.40334">
        <ele>24</ele>
        <time>2020-12-06T10:38:20.950000+00:00</time>
      </trkpt>
      <trkpt lat="0" lon="0">
        <time>2020-12-06T10:38:20.964000+00:00</time>
      </trkpt>
      <trkpt lat="0" lon="0">
        <time>2020-12-06T10:38:20.968000+00:00</time>
      </trkpt>
      <trkpt lat="0" lon="0">
        <time>2020-12-06T10:38:20.970000+00:00</time>
      </trkpt>
      <trkpt lat="47.30378" lon="-1.40332">
        <ele>24</ele>
        <time>2020-12-06T10:38:21.941000+00:00</time>
      </trkpt>
      <trkpt lat="0" lon="0">
        <time>2020-12-06T10:38:21.944000+00:00</time>
      </trkpt>
      <trkpt lat="0" lon="0">
        <time>2020-12-06T10:38:21.954000+00:00</time>
      </trkpt>
      <trkpt lat="0" lon="0">
        <time>2020-12-06T10:38:21.956000+00:00</time>
      </trkpt>
      <trkpt lat="47.30377" lon="-1.4033">
        <ele>24</ele>
        <time>2020-12-06T10:38:22.890000+00:00</time>
      </trkpt>
      <trkpt lat="0" lon="0">
        <time>2020-12-06T10:38:22.906000+00:00</time>
      </trkpt>
      <trkpt lat="0" lon="0">
        <time>2020-12-06T10:38:22.907000+00:00</time>
      </trkpt>
      <trkpt lat="0" lon="0">
        <time>2020-12-06T10:38:22.908000+00:00</time>
      </trkpt>
      <trkpt lat="47.30376" lon="-1.40329">
        <ele>24</ele>
        <time>2020-12-06T10:38:23.932000+00:00</time>
      </trkpt>
      <trkpt lat="0" lon="0">
        <time>2020-12-06T10:38:23.952000+00:00</time>
      </trkpt>
      <trkpt lat="0" lon="0">
        <time>2020-12-06T10:38:23.959000+00:00</time>
      </trkpt>
      <trkpt lat="0" lon="0">
        <time>2020-12-06T10:38:23.962000+00:00</time>
      </trkpt>
      <trkpt lat="47.30375" lon="-1.40327">
        <ele>24</ele>
        <time>2020-12-06T10:38:24.918000+00:00</time>
      </trkpt>
      <trkpt lat="0" lon="0">
        <time>2020-12-06T10:38:24.930000+00:00</time>
      </trkpt>
      <trkpt lat="0" lon="0">
        <time>2020-12-06T10:38:24.933000+00:00</time>
      </trkpt>
      <trkpt lat="0" lon="0">
        <time>2020-12-06T10:38:24.934000+00:00</time>
      </trkpt>
      <trkpt lat="47.30374" lon="-1.40325">
        <ele>25</ele>
        <time>2020-12-06T10:38:25.947000+00:00</time>
      </trkpt>
      <trkpt lat="0" lon="0">
        <time>2020-12-06T10:38:25.969000+00:00</time>
      </trkpt>
      <trkpt lat="0" lon="0">
        <time>2020-12-06T10:38:25.973000+00:00</time>
      </trkpt>
      <trkpt lat="0" lon="0">
        <time>2020-12-06T10:38:25.981000+00:00</time>
      </trkpt>
      <trkpt lat="47.30373" lon="-1.40323">
        <ele>25</ele>
        <time>2020-12-06T10:38:26.940000+00:00</time>
      </trkpt>
      <trkpt lat="0" lon="0">
        <time>2020-12-06T10:38:26.946000+00:00</time>
      </trkpt>
      <trkpt lat="0" lon="0">
        <time>2020-12-06T10:38:26.948000+00:00</time>
      </trkpt>
      <trkpt lat="0" lon="0">
        <time>2020-12-06T10:38:26.950000+00:00</time>
      </trkpt>
      <trkpt lat="47.30372" lon="-1.40322">
        <ele>25</ele>
        <time>2020-12-06T10:38:27.922000+00:00</time>
      </trkpt>
      <trkpt lat="0" lon="0">
        <time>2020-12-06T10:38:27.928000+00:00</time>
      </trkpt>
      <trkpt lat="0" lon="0">
        <time>2020-12-06T10:38:27.930000+00:00</time>
      </trkpt>
      <trkpt lat="47.3037" lon="-1.4032">
        <ele>25</ele>
        <time>2020-12-06T10:38:28.928000+00:00</time>
      </trkpt>
      <trkpt lat="0" lon="0">
        <time>2020-12-06T10:38:28.938000+00:00</time>
      </trkpt>
      <trkpt lat="0" lon="0">
        <time>2020-12-06T10:38:28.941000+00:00</time>
      </trkpt>
      <trkpt lat="0" lon="0">
        <time>2020-12-06T10:38:28.942000+00:00</time>
      </trkpt>
      <trkpt lat="47.30369" lon="-1.40318">
        <ele>25</ele>
        <time>2020-12-06T10:38:29.943000+00:00</time>
      </trkpt>
      <trkpt lat="0" lon="0">
        <time>2020-12-06T10:38:29.949000+00:00</time>
      </trkpt>
      <trkpt lat="0" lon="0">
        <time>2020-12-06T10:38:29.959000+00:00</time>
      </trkpt>
      <trkpt lat="0" lon="0">
        <time>2020-12-06T10:38:29.961000+00:00</time>
      </trkpt>
      <trkpt lat="47.30368" lon="-1.40316">
        <ele>26</ele>
        <time>2020-12-06T10:38:30.938000+00:00</time>
      </trkpt>
      <trkpt lat="0" lon="0">
        <time>2020-12-06T10:38:30.950000+00:00</time>
      </trkpt>
      <trkpt lat="0" lon="0">
        <time>2020-12-06T10:38:30.954000+00:00</time>
      </trkpt>
      <trkpt lat="0" lon="0">
        <time>2020-12-06T10:38:30.959000+00:00</time>
      </trkpt>
      <trkpt lat="47.30367" lon="-1.40314">
        <ele>26</ele>
        <time>2020-12-06T10:38:31.952000+00:00</time>
      </trkpt>
      <trkpt lat="0" lon="0">
        <time>2020-12-06T10:38:31.959000+00:00</time>
      </trkpt>
      <trkpt lat="0" lon="0">
        <time>2020-12-06T10:38:31.973000+00:00</time>
      </trkpt>
      <trkpt lat="0" lon="0">
        <time>2020-12-06T10:38:31.977000+00:00</time>
      </trkpt>
      <trkpt lat="47.30366" lon="-1.40312">
        <ele>26</ele>
        <time>2020-12-06T10:38:32.930000+00:00</time>
      </trkpt>
      <trkpt lat="0" lon="0">
        <time>2020-12-06T10:38:32.941000+00:00</time>
      </trkpt>
      <trkpt lat="0" lon="0">
        <time>2020-12-06T10:38:32.945000+00:00</time>
      </trkpt>
      <trkpt lat="0" lon="0">
        <time>2020-12-06T10:38:32.947000+00:00</time>
      </trkpt>
      <trkpt lat="47.30364" lon="-1.4031">
        <ele>26</ele>
        <time>2020-12-06T10:38:33.935000+00:00</time>
      </trkpt>
      <trkpt lat="0" lon="0">
        <time>2020-12-06T10:38:33.940000+00:00</time>
      </trkpt>
      <trkpt lat="0" lon="0">
        <time>2020-12-06T10:38:33.942000+00:00</time>
      </trkpt>
      <trkpt lat="0" lon="0">
        <time>2020-12-06T10:38:33.943000+00:00</time>
      </trkpt>
      <trkpt lat="47.30363" lon="-1.40308">
        <ele>26</ele>
        <time>2020-12-06T10:38:34.946000+00:00</time>
      </trkpt>
      <trkpt lat="0" lon="0">
        <time>2020-12-06T10:38:34.952000+00:00</time>
      </trkpt>
      <trkpt lat="0" lon="0">
        <time>2020-12-06T10:38:34.955000+00:00</time>
      </trkpt>
      <trkpt lat="0" lon="0">
        <time>2020-12-06T10:38:34.958000+00:00</time>
      </trkpt>
      <trkpt lat="47.30361" lon="-1.40306">
        <ele>26</ele>
        <time>2020-12-06T10:38:35.914000+00:00</time>
      </trkpt>
      <trkpt lat="0" lon="0">
        <time>2020-12-06T10:38:35.920000+00:00</time>
      </trkpt>
      <trkpt lat="0" lon="0">
        <time>2020-12-06T10:38:35.925000+00:00</time>
      </trkpt>
      <trkpt lat="0" lon="0">
        <time>2020-12-06T10:38:35.926000+00:00</time>
      </trkpt>
      <trkpt lat="47.3036" lon="-1.40304">
        <ele>27</ele>
        <time>2020-12-06T10:38:36.928000+00:00</time>
      </trkpt>
      <trkpt lat="0" lon="0">
        <time>2020-12-06T10:38:36.932000+00:00</time>
      </trkpt>
      <trkpt lat="0" lon="0">
        <time>2020-12-06T10:38:36.948000+00:00</time>
      </trkpt>
      <trkpt lat="0" lon="0">
        <time>2020-12-06T10:38:36.950000+00:00</time>
      </trkpt>
      <trkpt lat="47.30358" lon="-1.40302">
        <ele>27</ele>
        <time>2020-12-06T10:38:37.955000+00:00</time>
      </trkpt>
      <trkpt lat="0" lon="0">
        <time>2020-12-06T10:38:37.958000+00:00</time>
      </trkpt>
      <trkpt lat="0" lon="0">
        <time>2020-12-06T10:38:37.963000+00:00</time>
      </trkpt>
      <trkpt lat="0" lon="0">
        <time>2020-12-06T10:38:37.965000+00:00</time>
      </trkpt>
      <trkpt lat="47.30356" lon="-1.403">
        <ele>27</ele>
        <time>2020-12-06T10:38:38.979000+00:00</time>
      </trkpt>
      <trkpt lat="0" lon="0">
        <time>2020-12-06T10:38:38.992000+00:00</time>
      </trkpt>
      <trkpt lat="0" lon="0">
        <time>2020-12-06T10:38:38.998000+00:00</time>
      </trkpt>
      <trkpt lat="0" lon="0">
        <time>2020-12-06T10:38:39+00:00</time>
      </trkpt>
      <trkpt lat="47.30355" lon="-1.40297">
        <ele>27</ele>
        <time>2020-12-06T10:38:39.964000+00:00</time>
      </trkpt>
      <trkpt lat="0" lon="0">
        <time>2020-12-06T10:38:39.973000+00:00</time>
      </trkpt>
      <trkpt lat="0" lon="0">
        <time>2020-12-06T10:38:39.983000+00:00</time>
      </trkpt>
      <trkpt lat="0" lon="0">
        <time>2020-12-06T10:38:39.986000+00:00</time>
      </trkpt>
      <trkpt lat="47.30353" lon="-1.40295">
        <ele>28</ele>
        <time>2020-12-06T10:38:40.943000+00:00</time>
      </trkpt>
      <trkpt lat="0" lon="0">
        <time>2020-12-06T10:38:40.957000+00:00</time>
      </trkpt>
      <trkpt lat="0" lon="0">
        <time>2020-12-06T10:38:40.964000+00:00</time>
      </trkpt>
      <trkpt lat="0" lon="0">
        <time>2020-12-06T10:38:40.967000+00:00</time>
      </trkpt>
      <trkpt lat="47.30352" lon="-1.40293">
        <ele>28</ele>
        <time>2020-12-06T10:38:41.934000+00:00</time>
      </trkpt>
      <trkpt lat="0" lon="0">
        <time>2020-12-06T10:38:41.948000+00:00</time>
      </trkpt>
      <trkpt lat="0" lon="0">
        <time>2020-12-06T10:38:41.951000+00:00</time>
      </trkpt>
      <trkpt lat="0" lon="0">
        <time>2020-12-06T10:38:41.953000+00:00</time>
      </trkpt>
      <trkpt lat="47.30351" lon="-1.40291">
        <ele>28</ele>
        <time>2020-12-06T10:38:42.921000+00:00</time>
      </trkpt>
      <trkpt lat="0" lon="0">
        <time>2020-12-06T10:38:42.925000+00:00</time>
      </trkpt>
      <trkpt lat="0" lon="0">
        <time>2020-12-06T10:38:42.939000+00:00</time>
      </trkpt>
      <trkpt lat="0" lon="0">
        <time>2020-12-06T10:38:42.942000+00:00</time>
      </trkpt>
      <trkpt lat="47.30349" lon="-1.40289">
        <ele>28</ele>
        <time>2020-12-06T10:38:43.962000+00:00</time>
      </trkpt>
      <trkpt lat="0" lon="0">
        <time>2020-12-06T10:38:43.985000+00:00</time>
      </trkpt>
      <trkpt lat="0" lon="0">
        <time>2020-12-06T10:38:43.997000+00:00</time>
      </trkpt>
      <trkpt lat="0" lon="0">
        <time>2020-12-06T10:38:44.002000+00:00</time>
      </trkpt>
      <trkpt lat="47.30348" lon="-1.40288">
        <ele>28</ele>
        <time>2020-12-06T10:38:44.923000+00:00</time>
      </trkpt>
      <trkpt lat="0" lon="0">
        <time>2020-12-06T10:38:44.941000+00:00</time>
      </trkpt>
      <trkpt lat="0" lon="0">
        <time>2020-12-06T10:38:44.945000+00:00</time>
      </trkpt>
      <trkpt lat="0" lon="0">
        <time>2020-12-06T10:38:44.952000+00:00</time>
      </trkpt>
      <trkpt lat="47.30347" lon="-1.40286">
        <ele>28</ele>
        <time>2020-12-06T10:38:45.946000+00:00</time>
      </trkpt>
      <trkpt lat="0" lon="0">
        <time>2020-12-06T10:38:45.951000+00:00</time>
      </trkpt>
      <trkpt lat="0" lon="0">
        <time>2020-12-06T10:38:45.961000+00:00</time>
      </trkpt>
      <trkpt lat="0" lon="0">
        <time>2020-12-06T10:38:45.963000+00:00</time>
      </trkpt>
      <trkpt lat="47.30345" lon="-1.40285">
        <ele>29</ele>
        <time>2020-12-06T10:38:46.958000+00:00</time>
      </trkpt>
      <trkpt lat="0" lon="0">
        <time>2020-12-06T10:38:46.962000+00:00</time>
      </trkpt>
      <trkpt lat="0" lon="0">
        <time>2020-12-06T10:38:46.966000+00:00</time>
      </trkpt>
      <trkpt lat="0" lon="0">
        <time>2020-12-06T10:38:46.967000+00:00</time>
      </trkpt>
      <trkpt lat="47.30344" lon="-1.40283">
        <ele>29</ele>
        <time>2020-12-06T10:38:47.920000+00:00</time>
      </trkpt>
      <trkpt lat="0" lon="0">
        <time>2020-12-06T10:38:47.925000+00:00</time>
      </trkpt>
      <trkpt lat="0" lon="0">
        <time>2020-12-06T10:38:47.932000+00:00</time>
      </trkpt>
      <trkpt lat="0" lon="0">
        <time>2020-12-06T10:38:47.934000+00:00</time>
      </trkpt>
      <trkpt lat="47.30343" lon="-1.40282">
        <ele>29</ele>
        <time>2020-12-06T10:38:48.907000+00:00</time>
      </trkpt>
      <trkpt lat="0" lon="0">
        <time>2020-12-06T10:38:48.918000+00:00</time>
      </trkpt>
      <trkpt lat="0" lon="0">
        <time>2020-12-06T10:38:48.922000+00:00</time>
      </trkpt>
      <trkpt lat="0" lon="0">
        <time>2020-12-06T10:38:48.924000+00:00</time>
      </trkpt>
      <trkpt lat="47.30342" lon="-1.4028">
        <ele>29</ele>
        <time>2020-12-06T10:38:49.952000+00:00</time>
      </trkpt>
      <trkpt lat="0" lon="0">
        <time>2020-12-06T10:38:49.959000+00:00</time>
      </trkpt>
      <trkpt lat="0" lon="0">
        <time>2020-12-06T10:38:49.963000+00:00</time>
      </trkpt>
      <trkpt lat="0" lon="0">
        <time>2020-12-06T10:38:49.968000+00:00</time>
      </trkpt>
      <trkpt lat="47.30341" lon="-1.40279">
        <ele>29</ele>
        <time>2020-12-06T10:38:50.937000+00:00</time>
      </trkpt>
      <trkpt lat="0" lon="0">
        <time>2020-12-06T10:38:50.954000+00:00</time>
      </trkpt>
      <trkpt lat="0" lon="0">
        <time>2020-12-06T10:38:50.957000+00:00</time>
      </trkpt>
      <trkpt lat="0" lon="0">
        <time>2020-12-06T10:38:50.959000+00:00</time>
      </trkpt>
      <trkpt lat="47.3034" lon="-1.40278">
        <ele>29</ele>
        <time>2020-12-06T10:38:51.929000+00:00</time>
      </trkpt>
      <trkpt lat="0" lon="0">
        <time>2020-12-06T10:38:51.944000+00:00</time>
      </trkpt>
      <trkpt lat="0" lon="0">
        <time>2020-12-06T10:38:51.951000+00:00</time>
      </trkpt>
      <trkpt lat="0" lon="0">
        <time>2020-12-06T10:38:51.953000+00:00</time>
      </trkpt>
      <trkpt lat="47.30339" lon="-1.40277">
        <ele>29</ele>
        <time>2020-12-06T10:38:52.871000+00:00</time>
      </trkpt>
      <trkpt lat="0" lon="0">
        <time>2020-12-06T10:38:52.872000+00:00</time>
      </trkpt>
      <trkpt lat="0" lon="0">
        <time>2020-12-06T10:38:52.873000+00:00</time>
      </trkpt>
      <trkpt lat="0" lon="0">
        <time>2020-12-06T10:38:52.874000+00:00</time>
      </trkpt>
      <trkpt lat="47.30338" lon="-1.40276">
        <ele>29</ele>
        <time>2020-12-06T10:38:53.924000+00:00</time>
      </trkpt>
      <trkpt lat="0" lon="0">
        <time>2020-12-06T10:38:53.928000+00:00</time>
      </trkpt>
      <trkpt lat="0" lon="0">
        <time>2020-12-06T10:38:53.940000+00:00</time>
      </trkpt>
      <trkpt lat="0" lon="0">
        <time>2020-12-06T10:38:53.942000+00:00</time>
      </trkpt>
      <trkpt lat="47.30337" lon="-1.40275">
        <ele>30</ele>
        <time>2020-12-06T10:38:54.927000+00:00</time>
      </trkpt>
      <trkpt lat="0" lon="0">
        <time>2020-12-06T10:38:54.932000+00:00</time>
      </trkpt>
      <trkpt lat="0" lon="0">
        <time>2020-12-06T10:38:54.939000+00:00</time>
      </trkpt>
      <trkpt lat="0" lon="0">
        <time>2020-12-06T10:38:54.941000+00:00</time>
      </trkpt>
      <trkpt lat="47.30336" lon="-1.40273">
        <ele>30</ele>
        <time>2020-12-06T10:38:55.955000+00:00</time>
      </trkpt>
      <trkpt lat="0" lon="0">
        <time>2020-12-06T10:38:55.963000+00:00</time>
      </trkpt>
      <trkpt lat="0" lon="0">
        <time>2020-12-06T10:38:55.970000+00:00</time>
      </trkpt>
      <trkpt lat="0" lon="0">
        <time>2020-12-06T10:38:55.972000+00:00</time>
      </trkpt>
      <trkpt lat="47.30335" lon="-1.40272">
        <ele>30</ele>
        <time>2020-12-06T10:38:56.912000+00:00</time>
      </trkpt>
      <trkpt lat="0" lon="0">
        <time>2020-12-06T10:38:56.930000+00:00</time>
      </trkpt>
      <trkpt lat="0" lon="0">
        <time>2020-12-06T10:38:56.937000+00:00</time>
      </trkpt>
      <trkpt lat="0" lon="0">
        <time>2020-12-06T10:38:56.939000+00:00</time>
      </trkpt>
      <trkpt lat="47.30334" lon="-1.40271">
        <ele>30</ele>
        <time>2020-12-06T10:38:57.912000+00:00</time>
      </trkpt>
      <trkpt lat="0" lon="0">
        <time>2020-12-06T10:38:57.918000+00:00</time>
      </trkpt>
      <trkpt lat="0" lon="0">
        <time>2020-12-06T10:38:57.924000+00:00</time>
      </trkpt>
      <trkpt lat="0" lon="0">
        <time>2020-12-06T10:38:57.926000+00:00</time>
      </trkpt>
      <trkpt lat="47.30334" lon="-1.4027">
        <ele>30</ele>
        <time>2020-12-06T10:38:58.936000+00:00</time>
      </trkpt>
      <trkpt lat="0" lon="0">
        <time>2020-12-06T10:38:58.942000+00:00</time>
      </trkpt>
      <trkpt lat="0" lon="0">
        <time>2020-12-06T10:38:58.944000+00:00</time>
      </trkpt>
      <trkpt lat="0" lon="0">
        <time>2020-12-06T10:38:58.945000+00:00</time>
      </trkpt>
      <trkpt lat="47.30333" lon="-1.40268">
        <ele>30</ele>
        <time>2020-12-06T10:38:59.923000+00:00</time>
      </trkpt>
      <trkpt lat="0" lon="0">
        <time>2020-12-06T10:38:59.934000+00:00</time>
      </trkpt>
      <trkpt lat="0" lon="0">
        <time>2020-12-06T10:38:59.943000+00:00</time>
      </trkpt>
      <trkpt lat="0" lon="0">
        <time>2020-12-06T10:38:59.951000+00:00</time>
      </trkpt>
      <trkpt lat="47.30332" lon="-1.40267">
        <ele>30</ele>
        <time>2020-12-06T10:39:00.912000+00:00</time>
      </trkpt>
      <trkpt lat="0" lon="0">
        <time>2020-12-06T10:39:00.914000+00:00</time>
      </trkpt>
      <trkpt lat="0" lon="0">
        <time>2020-12-06T10:39:00.915000+00:00</time>
      </trkpt>
      <trkpt lat="0" lon="0">
        <time>2020-12-06T10:39:00.916000+00:00</time>
      </trkpt>
      <trkpt lat="47.30331" lon="-1.40266">
        <ele>30</ele>
        <time>2020-12-06T10:39:01.940000+00:00</time>
      </trkpt>
      <trkpt lat="0" lon="0">
        <time>2020-12-06T10:39:01.946000+00:00</time>
      </trkpt>
      <trkpt lat="0" lon="0">
        <time>2020-12-06T10:39:01.948000+00:00</time>
      </trkpt>
      <trkpt lat="0" lon="0">
        <time>2020-12-06T10:39:01.949000+00:00</time>
      </trkpt>
      <trkpt lat="47.3033" lon="-1.40265">
        <ele>31</ele>
        <time>2020-12-06T10:39:02.949000+00:00</time>
      </trkpt>
      <trkpt lat="0" lon="0">
        <time>2020-12-06T10:39:02.952000+00:00</time>
      </trkpt>
      <trkpt lat="0" lon="0">
        <time>2020-12-06T10:39:02.961000+00:00</time>
      </trkpt>
      <trkpt lat="0" lon="0">
        <time>2020-12-06T10:39:02.963000+00:00</time>
      </trkpt>
      <trkpt lat="47.3033" lon="-1.40264">
        <ele>31</ele>
        <time>2020-12-06T10:39:03.927000+00:00</time>
      </trkpt>
      <trkpt lat="0" lon="0">
        <time>2020-12-06T10:39:03.931000+00:00</time>
      </trkpt>
      <trkpt lat="0" lon="0">
        <time>2020-12-06T10:39:03.933000+00:00</time>
      </trkpt>
      <trkpt lat="0" lon="0">
        <time>2020-12-06T10:39:03.934000+00:00</time>
      </trkpt>
      <trkpt lat="47.3033" lon="-1.40263">
        <ele>31</ele>
        <time>2020-12-06T10:39:04.913000+00:00</time>
      </trkpt>
      <trkpt lat="0" lon="0">
        <time>2020-12-06T10:39:04.918000+00:00</time>
      </trkpt>
      <trkpt lat="0" lon="0">
        <time>2020-12-06T10:39:04.919000+00:00</time>
      </trkpt>
      <trkpt lat="0" lon="0">
        <time>2020-12-06T10:39:04.920000+00:00</time>
      </trkpt>
      <trkpt lat="47.30329" lon="-1.40261">
        <ele>31</ele>
        <time>2020-12-06T10:39:05.935000+00:00</time>
      </trkpt>
      <trkpt lat="0" lon="0">
        <time>2020-12-06T10:39:05.939000+00:00</time>
      </trkpt>
      <trkpt lat="0" lon="0">
        <time>2020-12-06T10:39:05.942000+00:00</time>
      </trkpt>
      <trkpt lat="0" lon="0">
        <time>2020-12-06T10:39:05.946000+00:00</time>
      </trkpt>
      <trkpt lat="47.30328" lon="-1.40259">
        <ele>31</ele>
        <time>2020-12-06T10:39:06.929000+00:00</time>
      </trkpt>
      <trkpt lat="0" lon="0">
        <time>2020-12-06T10:39:06.935000+00:00</time>
      </trkpt>
      <trkpt lat="0" lon="0">
        <time>2020-12-06T10:39:06.941000+00:00</time>
      </trkpt>
      <trkpt lat="0" lon="0">
        <time>2020-12-06T10:39:06.943000+00:00</time>
      </trkpt>
      <trkpt lat="47.30327" lon="-1.40257">
        <ele>31</ele>
        <time>2020-12-06T10:39:07.928000+00:00</time>
      </trkpt>
      <trkpt lat="0" lon="0">
        <time>2020-12-06T10:39:07.932000+00:00</time>
      </trkpt>
      <trkpt lat="0" lon="0">
        <time>2020-12-06T10:39:07.937000+00:00</time>
      </trkpt>
      <trkpt lat="0" lon="0">
        <time>2020-12-06T10:39:07.942000+00:00</time>
      </trkpt>
      <trkpt lat="47.30326" lon="-1.40255">
        <ele>32</ele>
        <time>2020-12-06T10:39:08.930000+00:00</time>
      </trkpt>
      <trkpt lat="0" lon="0">
        <time>2020-12-06T10:39:08.944000+00:00</time>
      </trkpt>
      <trkpt lat="0" lon="0">
        <time>2020-12-06T10:39:08.950000+00:00</time>
      </trkpt>
      <trkpt lat="0" lon="0">
        <time>2020-12-06T10:39:08.954000+00:00</time>
      </trkpt>
      <trkpt lat="47.30325" lon="-1.40252">
        <ele>32</ele>
        <time>2020-12-06T10:39:09.945000+00:00</time>
      </trkpt>
      <trkpt lat="0" lon="0">
        <time>2020-12-06T10:39:09.962000+00:00</time>
      </trkpt>
      <trkpt lat="0" lon="0">
        <time>2020-12-06T10:39:09.968000+00:00</time>
      </trkpt>
      <trkpt lat="0" lon="0">
        <time>2020-12-06T10:39:09.969000+00:00</time>
      </trkpt>
      <trkpt lat="47.30324" lon="-1.4025">
        <ele>32</ele>
        <time>2020-12-06T10:39:10.899000+00:00</time>
      </trkpt>
      <trkpt lat="0" lon="0">
        <time>2020-12-06T10:39:10.909000+00:00</time>
      </trkpt>
      <trkpt lat="0" lon="0">
        <time>2020-12-06T10:39:10.910000+00:00</time>
      </trkpt>
      <trkpt lat="0" lon="0">
        <time>2020-12-06T10:39:10.911000+00:00</time>
      </trkpt>
      <trkpt lat="47.30322" lon="-1.40248">
        <ele>32</ele>
        <time>2020-12-06T10:39:11.940000+00:00</time>
      </trkpt>
      <trkpt lat="0" lon="0">
        <time>2020-12-06T10:39:11.945000+00:00</time>
      </trkpt>
      <trkpt lat="0" lon="0">
        <time>2020-12-06T10:39:11.960000+00:00</time>
      </trkpt>
      <trkpt lat="0" lon="0">
        <time>2020-12-06T10:39:11.972000+00:00</time>
      </trkpt>
      <trkpt lat="47.30321" lon="-1.40246">
        <ele>32</ele>
        <time>2020-12-06T10:39:12.958000+00:00</time>
      </trkpt>
      <trkpt lat="0" lon="0">
        <time>2020-12-06T10:39:12.976000+00:00</time>
      </trkpt>
      <trkpt lat="0" lon="0">
        <time>2020-12-06T10:39:12.982000+00:00</time>
      </trkpt>
      <trkpt lat="0" lon="0">
        <time>2020-12-06T10:39:12.991000+00:00</time>
      </trkpt>
      <trkpt lat="47.3032" lon="-1.40244">
        <ele>33</ele>
        <time>2020-12-06T10:39:13.911000+00:00</time>
      </trkpt>
      <trkpt lat="0" lon="0">
        <time>2020-12-06T10:39:13.916000+00:00</time>
      </trkpt>
      <trkpt lat="0" lon="0">
        <time>2020-12-06T10:39:13.922000+00:00</time>
      </trkpt>
      <trkpt lat="0" lon="0">
        <time>2020-12-06T10:39:13.924000+00:00</time>
      </trkpt>
      <trkpt lat="47.30319" lon="-1.40242">
        <ele>33</ele>
        <time>2020-12-06T10:39:14.882000+00:00</time>
      </trkpt>
      <trkpt lat="0" lon="0">
        <time>2020-12-06T10:39:14.890000+00:00</time>
      </trkpt>
      <trkpt lat="0" lon="0">
        <time>2020-12-06T10:39:14.902000+00:00</time>
      </trkpt>
      <trkpt lat="0" lon="0">
        <time>2020-12-06T10:39:14.903000+00:00</time>
      </trkpt>
      <trkpt lat="47.30317" lon="-1.4024">
        <ele>33</ele>
        <time>2020-12-06T10:39:15.957000+00:00</time>
      </trkpt>
      <trkpt lat="0" lon="0">
        <time>2020-12-06T10:39:15.972000+00:00</time>
      </trkpt>
      <trkpt lat="0" lon="0">
        <time>2020-12-06T10:39:15.977000+00:00</time>
      </trkpt>
      <trkpt lat="0" lon="0">
        <time>2020-12-06T10:39:15.980000+00:00</time>
      </trkpt>
      <trkpt lat="47.30316" lon="-1.40238">
        <ele>33</ele>
        <time>2020-12-06T10:39:16.930000+00:00</time>
      </trkpt>
      <trkpt lat="0" lon="0">
        <time>2020-12-06T10:39:16.934000+00:00</time>
      </trkpt>
      <trkpt lat="0" lon="0">
        <time>2020-12-06T10:39:16.942000+00:00</time>
      </trkpt>
      <trkpt lat="0" lon="0">
        <time>2020-12-06T10:39:16.949000+00:00</time>
      </trkpt>
      <trkpt lat="47.30315" lon="-1.40237">
        <ele>33</ele>
        <time>2020-12-06T10:39:17.942000+00:00</time>
      </trkpt>
      <trkpt lat="0" lon="0">
        <time>2020-12-06T10:39:17.953000+00:00</time>
      </trkpt>
      <trkpt lat="0" lon="0">
        <time>2020-12-06T10:39:17.957000+00:00</time>
      </trkpt>
      <trkpt lat="0" lon="0">
        <time>2020-12-06T10:39:17.970000+00:00</time>
      </trkpt>
      <trkpt lat="47.30313" lon="-1.40235">
        <ele>33</ele>
        <time>2020-12-06T10:39:18.940000+00:00</time>
      </trkpt>
      <trkpt lat="0" lon="0">
        <time>2020-12-06T10:39:18.955000+00:00</time>
      </trkpt>
      <trkpt lat="0" lon="0">
        <time>2020-12-06T10:39:18.967000+00:00</time>
      </trkpt>
      <trkpt lat="0" lon="0">
        <time>2020-12-06T10:39:18.969000+00:00</time>
      </trkpt>
      <trkpt lat="47.30311" lon="-1.40234">
        <ele>34</ele>
        <time>2020-12-06T10:39:19.954000+00:00</time>
      </trkpt>
      <trkpt lat="0" lon="0">
        <time>2020-12-06T10:39:19.963000+00:00</time>
      </trkpt>
      <trkpt lat="0" lon="0">
        <time>2020-12-06T10:39:19.969000+00:00</time>
      </trkpt>
      <trkpt lat="0" lon="0">
        <time>2020-12-06T10:39:19.973000+00:00</time>
      </trkpt>
      <trkpt lat="47.3031" lon="-1.40232">
        <ele>34</ele>
        <time>2020-12-06T10:39:20.951000+00:00</time>
      </trkpt>
      <trkpt lat="0" lon="0">
        <time>2020-12-06T10:39:20.957000+00:00</time>
      </trkpt>
      <trkpt lat="0" lon="0">
        <time>2020-12-06T10:39:20.962000+00:00</time>
      </trkpt>
      <trkpt lat="0" lon="0">
        <time>2020-12-06T10:39:20.965000+00:00</time>
      </trkpt>
      <trkpt lat="47.30308" lon="-1.4023">
        <ele>34</ele>
        <time>2020-12-06T10:39:21.890000+00:00</time>
      </trkpt>
      <trkpt lat="0" lon="0">
        <time>2020-12-06T10:39:21.910000+00:00</time>
      </trkpt>
      <trkpt lat="0" lon="0">
        <time>2020-12-06T10:39:21.912000+00:00</time>
      </trkpt>
      <trkpt lat="0" lon="0">
        <time>2020-12-06T10:39:21.914000+00:00</time>
      </trkpt>
      <trkpt lat="47.30306" lon="-1.40229">
        <ele>34</ele>
        <time>2020-12-06T10:39:22.946000+00:00</time>
      </trkpt>
      <trkpt lat="0" lon="0">
        <time>2020-12-06T10:39:22.963000+00:00</time>
      </trkpt>
      <trkpt lat="0" lon="0">
        <time>2020-12-06T10:39:22.967000+00:00</time>
      </trkpt>
      <trkpt lat="0" lon="0">
        <time>2020-12-06T10:39:22.969000+00:00</time>
      </trkpt>
      <trkpt lat="47.30305" lon="-1.40227">
        <ele>34</ele>
        <time>2020-12-06T10:39:23.914000+00:00</time>
      </trkpt>
      <trkpt lat="0" lon="0">
        <time>2020-12-06T10:39:23.920000+00:00</time>
      </trkpt>
      <trkpt lat="0" lon="0">
        <time>2020-12-06T10:39:23.924000+00:00</time>
      </trkpt>
      <trkpt lat="0" lon="0">
        <time>2020-12-06T10:39:23.926000+00:00</time>
      </trkpt>
      <trkpt lat="47.30304" lon="-1.40226">
        <ele>34</ele>
        <time>2020-12-06T10:39:24.928000+00:00</time>
      </trkpt>
      <trkpt lat="0" lon="0">
        <time>2020-12-06T10:39:24.938000+00:00</time>
      </trkpt>
      <trkpt lat="0" lon="0">
        <time>2020-12-06T10:39:24.943000+00:00</time>
      </trkpt>
      <trkpt lat="0" lon="0">
        <time>2020-12-06T10:39:24.945000+00:00</time>
      </trkpt>
      <trkpt lat="47.30302" lon="-1.40224">
        <ele>35</ele>
        <time>2020-12-06T10:39:25.930000+00:00</time>
      </trkpt>
      <trkpt lat="0" lon="0">
        <time>2020-12-06T10:39:25.941000+00:00</time>
      </trkpt>
      <trkpt lat="0" lon="0">
        <time>2020-12-06T10:39:25.946000+00:00</time>
      </trkpt>
      <trkpt lat="0" lon="0">
        <time>2020-12-06T10:39:25.948000+00:00</time>
      </trkpt>
      <trkpt lat="47.30301" lon="-1.40223">
        <ele>35</ele>
        <time>2020-12-06T10:39:26.906000+00:00</time>
      </trkpt>
      <trkpt lat="0" lon="0">
        <time>2020-12-06T10:39:26.911000+00:00</time>
      </trkpt>
      <trkpt lat="0" lon="0">
        <time>2020-12-06T10:39:26.918000+00:00</time>
      </trkpt>
      <trkpt lat="0" lon="0">
        <time>2020-12-06T10:39:26.921000+00:00</time>
      </trkpt>
      <trkpt lat="47.303" lon="-1.40222">
        <ele>35</ele>
        <time>2020-12-06T10:39:27.951000+00:00</time>
      </trkpt>
      <trkpt lat="0" lon="0">
        <time>2020-12-06T10:39:27.959000+00:00</time>
      </trkpt>
      <trkpt lat="0" lon="0">
        <time>2020-12-06T10:39:27.964000+00:00</time>
      </trkpt>
      <trkpt lat="0" lon="0">
        <time>2020-12-06T10:39:27.970000+00:00</time>
      </trkpt>
      <trkpt lat="47.30298" lon="-1.4022">
        <ele>35</ele>
        <time>2020-12-06T10:39:28.937000+00:00</time>
      </trkpt>
      <trkpt lat="0" lon="0">
        <time>2020-12-06T10:39:28.941000+00:00</time>
      </trkpt>
      <trkpt lat="0" lon="0">
        <time>2020-12-06T10:39:28.945000+00:00</time>
      </trkpt>
      <trkpt lat="0" lon="0">
        <time>2020-12-06T10:39:28.947000+00:00</time>
      </trkpt>
      <trkpt lat="47.30297" lon="-1.40219">
        <ele>35</ele>
        <time>2020-12-06T10:39:29.919000+00:00</time>
      </trkpt>
      <trkpt lat="0" lon="0">
        <time>2020-12-06T10:39:29.925000+00:00</time>
      </trkpt>
      <trkpt lat="0" lon="0">
        <time>2020-12-06T10:39:29.932000+00:00</time>
      </trkpt>
      <trkpt lat="0" lon="0">
        <time>2020-12-06T10:39:29.934000+00:00</time>
      </trkpt>
      <trkpt lat="47.30296" lon="-1.40217">
        <ele>35</ele>
        <time>2020-12-06T10:39:30.941000+00:00</time>
      </trkpt>
      <trkpt lat="0" lon="0">
        <time>2020-12-06T10:39:30.953000+00:00</time>
      </trkpt>
      <trkpt lat="0" lon="0">
        <time>2020-12-06T10:39:30.955000+00:00</time>
      </trkpt>
      <trkpt lat="0" lon="0">
        <time>2020-12-06T10:39:30.963000+00:00</time>
      </trkpt>
      <trkpt lat="47.30296" lon="-1.40216">
        <ele>35</ele>
        <time>2020-12-06T10:39:31.970000+00:00</time>
      </trkpt>
      <trkpt lat="0" lon="0">
        <time>2020-12-06T10:39:31.978000+00:00</time>
      </trkpt>
      <trkpt lat="0" lon="0">
        <time>2020-12-06T10:39:31.989000+00:00</time>
      </trkpt>
      <trkpt lat="0" lon="0">
        <time>2020-12-06T10:39:31.990000+00:00</time>
      </trkpt>
      <trkpt lat="47.30295" lon="-1.40214">
        <ele>35</ele>
        <time>2020-12-06T10:39:32.850000+00:00</time>
      </trkpt>
      <trkpt lat="0" lon="0">
        <time>2020-12-06T10:39:32.854000+00:00</time>
      </trkpt>
      <trkpt lat="0" lon="0">
        <time>2020-12-06T10:39:32.855000+00:00</time>
      </trkpt>
      <trkpt lat="0" lon="0">
        <time>2020-12-06T10:39:32.856000+00:00</time>
      </trkpt>
      <trkpt lat="47.30294" lon="-1.40213">
        <ele>36</ele>
        <time>2020-12-06T10:39:33.910000+00:00</time>
      </trkpt>
      <trkpt lat="0" lon="0">
        <time>2020-12-06T10:39:33.933000+00:00</time>
      </trkpt>
      <trkpt lat="0" lon="0">
        <time>2020-12-06T10:39:33.938000+00:00</time>
      </trkpt>
      <trkpt lat="0" lon="0">
        <time>2020-12-06T10:39:33.940000+00:00</time>
      </trkpt>
      <trkpt lat="47.30293" lon="-1.40212">
        <ele>36</ele>
        <time>2020-12-06T10:39:34.951000+00:00</time>
      </trkpt>
      <trkpt lat="0" lon="0">
        <time>2020-12-06T10:39:34.956000+00:00</time>
      </trkpt>
      <trkpt lat="0" lon="0">
        <time>2020-12-06T10:39:34.961000+00:00</time>
      </trkpt>
      <trkpt lat="0" lon="0">
        <time>2020-12-06T10:39:34.966000+00:00</time>
      </trkpt>
      <trkpt lat="47.30292" lon="-1.40211">
        <ele>36</ele>
        <time>2020-12-06T10:39:35.923000+00:00</time>
      </trkpt>
      <trkpt lat="0" lon="0">
        <time>2020-12-06T10:39:35.933000+00:00</time>
      </trkpt>
      <trkpt lat="0" lon="0">
        <time>2020-12-06T10:39:35.940000+00:00</time>
      </trkpt>
      <trkpt lat="0" lon="0">
        <time>2020-12-06T10:39:35.947000+00:00</time>
      </trkpt>
      <trkpt lat="47.3029" lon="-1.40209">
        <ele>36</ele>
        <time>2020-12-06T10:39:36.935000+00:00</time>
      </trkpt>
      <trkpt lat="0" lon="0">
        <time>2020-12-06T10:39:36.948000+00:00</time>
      </trkpt>
      <trkpt lat="0" lon="0">
        <time>2020-12-06T10:39:36.956000+00:00</time>
      </trkpt>
      <trkpt lat="0" lon="0">
        <time>2020-12-06T10:39:36.961000+00:00</time>
      </trkpt>
      <trkpt lat="47.30289" lon="-1.40208">
        <ele>36</ele>
        <time>2020-12-06T10:39:37.919000+00:00</time>
      </trkpt>
      <trkpt lat="0" lon="0">
        <time>2020-12-06T10:39:37.933000+00:00</time>
      </trkpt>
      <trkpt lat="0" lon="0">
        <time>2020-12-06T10:39:37.936000+00:00</time>
      </trkpt>
      <trkpt lat="0" lon="0">
        <time>2020-12-06T10:39:37.938000+00:00</time>
      </trkpt>
      <trkpt lat="47.30288" lon="-1.40207">
        <ele>36</ele>
        <time>2020-12-06T10:39:38.935000+00:00</time>
      </trkpt>
      <trkpt lat="0" lon="0">
        <time>2020-12-06T10:39:38.943000+00:00</time>
      </trkpt>
      <trkpt lat="0" lon="0">
        <time>2020-12-06T10:39:38.946000+00:00</time>
      </trkpt>
      <trkpt lat="0" lon="0">
        <time>2020-12-06T10:39:38.949000+00:00</time>
      </trkpt>
      <trkpt lat="47.30287" lon="-1.40206">
        <ele>36</ele>
        <time>2020-12-06T10:39:39.933000+00:00</time>
      </trkpt>
      <trkpt lat="0" lon="0">
        <time>2020-12-06T10:39:39.940000+00:00</time>
      </trkpt>
      <trkpt lat="0" lon="0">
        <time>2020-12-06T10:39:39.946000+00:00</time>
      </trkpt>
      <trkpt lat="0" lon="0">
        <time>2020-12-06T10:39:39.948000+00:00</time>
      </trkpt>
      <trkpt lat="47.30285" lon="-1.40204">
        <ele>37</ele>
        <time>2020-12-06T10:39:40.912000+00:00</time>
      </trkpt>
      <trkpt lat="0" lon="0">
        <time>2020-12-06T10:39:40.921000+00:00</time>
      </trkpt>
      <trkpt lat="0" lon="0">
        <time>2020-12-06T10:39:40.930000+00:00</time>
      </trkpt>
      <trkpt lat="0" lon="0">
        <time>2020-12-06T10:39:40.933000+00:00</time>
      </trkpt>
      <trkpt lat="47.30284" lon="-1.40203">
        <ele>37</ele>
        <time>2020-12-06T10:39:41.846000+00:00</time>
      </trkpt>
      <trkpt lat="0" lon="0">
        <time>2020-12-06T10:39:41.848000+00:00</time>
      </trkpt>
      <trkpt lat="0" lon="0">
        <time>2020-12-06T10:39:41.850000+00:00</time>
      </trkpt>
      <trkpt lat="0" lon="0">
        <time>2020-12-06T10:39:41.851000+00:00</time>
      </trkpt>
      <trkpt lat="47.30283" lon="-1.40201">
        <ele>37</ele>
        <time>2020-12-06T10:39:42.895000+00:00</time>
      </trkpt>
      <trkpt lat="0" lon="0">
        <time>2020-12-06T10:39:42.904000+00:00</time>
      </trkpt>
      <trkpt lat="0" lon="0">
        <time>2020-12-06T10:39:42.907000+00:00</time>
      </trkpt>
      <trkpt lat="0" lon="0">
        <time>2020-12-06T10:39:42.909000+00:00</time>
      </trkpt>
      <trkpt lat="47.30281" lon="-1.402">
        <ele>37</ele>
        <time>2020-12-06T10:39:43.868000+00:00</time>
      </trkpt>
      <trkpt lat="0" lon="0">
        <time>2020-12-06T10:39:43.875000+00:00</time>
      </trkpt>
      <trkpt lat="0" lon="0">
        <time>2020-12-06T10:39:43.880000+00:00</time>
      </trkpt>
      <trkpt lat="0" lon="0">
        <time>2020-12-06T10:39:43.883000+00:00</time>
      </trkpt>
      <trkpt lat="47.3028" lon="-1.40199">
        <ele>37</ele>
        <time>2020-12-06T10:39:44.834000+00:00</time>
      </trkpt>
      <trkpt lat="0" lon="0">
        <time>2020-12-06T10:39:44.837000+00:00</time>
      </trkpt>
      <trkpt lat="0" lon="0">
        <time>2020-12-06T10:39:44.840000+00:00</time>
      </trkpt>
      <trkpt lat="0" lon="0">
        <time>2020-12-06T10:39:44.844000+00:00</time>
      </trkpt>
      <trkpt lat="47.30279" lon="-1.40197">
        <ele>37</ele>
        <time>2020-12-06T10:39:45.829000+00:00</time>
      </trkpt>
      <trkpt lat="0" lon="0">
        <time>2020-12-06T10:39:45.838000+00:00</time>
      </trkpt>
      <trkpt lat="0" lon="0">
        <time>2020-12-06T10:39:45.840000+00:00</time>
      </trkpt>
      <trkpt lat="47.30277" lon="-1.40196">
        <ele>37</ele>
        <time>2020-12-06T10:39:46.825000+00:00</time>
      </trkpt>
      <trkpt lat="0" lon="0">
        <time>2020-12-06T10:39:46.830000+00:00</time>
      </trkpt>
      <trkpt lat="0" lon="0">
        <time>2020-12-06T10:39:46.840000+00:00</time>
      </trkpt>
      <trkpt lat="0" lon="0">
        <time>2020-12-06T10:39:46.842000+00:00</time>
      </trkpt>
      <trkpt lat="47.30276" lon="-1.40195">
        <ele>38</ele>
        <time>2020-12-06T10:39:47.829000+00:00</time>
      </trkpt>
      <trkpt lat="0" lon="0">
        <time>2020-12-06T10:39:47.839000+00:00</time>
      </trkpt>
      <trkpt lat="0" lon="0">
        <time>2020-12-06T10:39:47.841000+00:00</time>
      </trkpt>
      <trkpt lat="0" lon="0">
        <time>2020-12-06T10:39:47.842000+00:00</time>
      </trkpt>
      <trkpt lat="47.30274" lon="-1.40193">
        <ele>38</ele>
        <time>2020-12-06T10:39:48.846000+00:00</time>
      </trkpt>
      <trkpt lat="0" lon="0">
        <time>2020-12-06T10:39:48.857000+00:00</time>
      </trkpt>
      <trkpt lat="0" lon="0">
        <time>2020-12-06T10:39:48.860000+00:00</time>
      </trkpt>
      <trkpt lat="0" lon="0">
        <time>2020-12-06T10:39:48.861000+00:00</time>
      </trkpt>
      <trkpt lat="47.30273" lon="-1.40191">
        <ele>38</ele>
        <time>2020-12-06T10:39:49.862000+00:00</time>
      </trkpt>
      <trkpt lat="0" lon="0">
        <time>2020-12-06T10:39:49.879000+00:00</time>
      </trkpt>
      <trkpt lat="0" lon="0">
        <time>2020-12-06T10:39:49.887000+00:00</time>
      </trkpt>
      <trkpt lat="0" lon="0">
        <time>2020-12-06T10:39:49.889000+00:00</time>
      </trkpt>
      <trkpt lat="47.30271" lon="-1.40189">
        <ele>38</ele>
        <time>2020-12-06T10:39:50.839000+00:00</time>
      </trkpt>
      <trkpt lat="0" lon="0">
        <time>2020-12-06T10:39:50.843000+00:00</time>
      </trkpt>
      <trkpt lat="0" lon="0">
        <time>2020-12-06T10:39:50.848000+00:00</time>
      </trkpt>
      <trkpt lat="0" lon="0">
        <time>2020-12-06T10:39:50.852000+00:00</time>
      </trkpt>
      <trkpt lat="47.30269" lon="-1.40187">
        <ele>38</ele>
        <time>2020-12-06T10:39:51.870000+00:00</time>
      </trkpt>
      <trkpt lat="0" lon="0">
        <time>2020-12-06T10:39:51.874000+00:00</time>
      </trkpt>
      <trkpt lat="0" lon="0">
        <time>2020-12-06T10:39:51.875000+00:00</time>
      </trkpt>
      <trkpt lat="47.30268" lon="-1.40185">
        <ele>39</ele>
        <time>2020-12-06T10:39:52.822000+00:00</time>
      </trkpt>
      <trkpt lat="0" lon="0">
        <time>2020-12-06T10:39:52.823000+00:00</time>
      </trkpt>
      <trkpt lat="0" lon="0">
        <time>2020-12-06T10:39:52.824000+00:00</time>
      </trkpt>
      <trkpt lat="0" lon="0">
        <time>2020-12-06T10:39:52.825000+00:00</time>
      </trkpt>
      <trkpt lat="47.30266" lon="-1.40183">
        <ele>39</ele>
        <time>2020-12-06T10:39:53.811000+00:00</time>
      </trkpt>
      <trkpt lat="0" lon="0">
        <time>2020-12-06T10:39:53.819000+00:00</time>
      </trkpt>
      <trkpt lat="0" lon="0">
        <time>2020-12-06T10:39:53.822000+00:00</time>
      </trkpt>
      <trkpt lat="0" lon="0">
        <time>2020-12-06T10:39:53.825000+00:00</time>
      </trkpt>
      <trkpt lat="47.30264" lon="-1.40181">
        <ele>39</ele>
        <time>2020-12-06T10:39:54.862000+00:00</time>
      </trkpt>
      <trkpt lat="0" lon="0">
        <time>2020-12-06T10:39:54.873000+00:00</time>
      </trkpt>
      <trkpt lat="0" lon="0">
        <time>2020-12-06T10:39:54.876000+00:00</time>
      </trkpt>
      <trkpt lat="0" lon="0">
        <time>2020-12-06T10:39:54.880000+00:00</time>
      </trkpt>
      <trkpt lat="47.30262" lon="-1.40179">
        <ele>39</ele>
        <time>2020-12-06T10:39:55.861000+00:00</time>
      </trkpt>
      <trkpt lat="0" lon="0">
        <time>2020-12-06T10:39:55.875000+00:00</time>
      </trkpt>
      <trkpt lat="0" lon="0">
        <time>2020-12-06T10:39:55.883000+00:00</time>
      </trkpt>
      <trkpt lat="0" lon="0">
        <time>2020-12-06T10:39:55.887000+00:00</time>
      </trkpt>
      <trkpt lat="47.3026" lon="-1.40177">
        <ele>39</ele>
        <time>2020-12-06T10:39:56.915000+00:00</time>
      </trkpt>
      <trkpt lat="0" lon="0">
        <time>2020-12-06T10:39:56.921000+00:00</time>
      </trkpt>
      <trkpt lat="0" lon="0">
        <time>2020-12-06T10:39:56.930000+00:00</time>
      </trkpt>
      <trkpt lat="0" lon="0">
        <time>2020-12-06T10:39:56.932000+00:00</time>
      </trkpt>
      <trkpt lat="47.30258" lon="-1.40176">
        <ele>40</ele>
        <time>2020-12-06T10:39:57.878000+00:00</time>
      </trkpt>
      <trkpt lat="0" lon="0">
        <time>2020-12-06T10:39:57.891000+00:00</time>
      </trkpt>
      <trkpt lat="0" lon="0">
        <time>2020-12-06T10:39:57.899000+00:00</time>
      </trkpt>
      <trkpt lat="0" lon="0">
        <time>2020-12-06T10:39:57.901000+00:00</time>
      </trkpt>
      <trkpt lat="47.30256" lon="-1.40174">
        <ele>40</ele>
        <time>2020-12-06T10:39:58.867000+00:00</time>
      </trkpt>
      <trkpt lat="0" lon="0">
        <time>2020-12-06T10:39:58.876000+00:00</time>
      </trkpt>
      <trkpt lat="0" lon="0">
        <time>2020-12-06T10:39:58.879000+00:00</time>
      </trkpt>
      <trkpt lat="0" lon="0">
        <time>2020-12-06T10:39:58.881000+00:00</time>
      </trkpt>
      <trkpt lat="47.30254" lon="-1.40172">
        <ele>40</ele>
        <time>2020-12-06T10:39:59.905000+00:00</time>
      </trkpt>
      <trkpt lat="0" lon="0">
        <time>2020-12-06T10:39:59.920000+00:00</time>
      </trkpt>
      <trkpt lat="0" lon="0">
        <time>2020-12-06T10:39:59.932000+00:00</time>
      </trkpt>
      <trkpt lat="0" lon="0">
        <time>2020-12-06T10:39:59.936000+00:00</time>
      </trkpt>
      <trkpt lat="47.30251" lon="-1.4017">
        <ele>40</ele>
        <time>2020-12-06T10:40:00.877000+00:00</time>
      </trkpt>
      <trkpt lat="0" lon="0">
        <time>2020-12-06T10:40:00.895000+00:00</time>
      </trkpt>
      <trkpt lat="0" lon="0">
        <time>2020-12-06T10:40:00.905000+00:00</time>
      </trkpt>
      <trkpt lat="0" lon="0">
        <time>2020-12-06T10:40:00.907000+00:00</time>
      </trkpt>
      <trkpt lat="47.30249" lon="-1.40169">
        <ele>40</ele>
        <time>2020-12-06T10:40:01.835000+00:00</time>
      </trkpt>
      <trkpt lat="0" lon="0">
        <time>2020-12-06T10:40:01.836000+00:00</time>
      </trkpt>
      <trkpt lat="0" lon="0">
        <time>2020-12-06T10:40:01.838000+00:00</time>
      </trkpt>
      <trkpt lat="0" lon="0">
        <time>2020-12-06T10:40:01.839000+00:00</time>
      </trkpt>
      <trkpt lat="47.30246" lon="-1.40167">
        <ele>40</ele>
        <time>2020-12-06T10:40:02.896000+00:00</time>
      </trkpt>
      <trkpt lat="0" lon="0">
        <time>2020-12-06T10:40:02.901000+00:00</time>
      </trkpt>
      <trkpt lat="0" lon="0">
        <time>2020-12-06T10:40:02.915000+00:00</time>
      </trkpt>
      <trkpt lat="0" lon="0">
        <time>2020-12-06T10:40:02.920000+00:00</time>
      </trkpt>
      <trkpt lat="47.30244" lon="-1.40165">
        <ele>40</ele>
        <time>2020-12-06T10:40:03.907000+00:00</time>
      </trkpt>
      <trkpt lat="0" lon="0">
        <time>2020-12-06T10:40:03.919000+00:00</time>
      </trkpt>
      <trkpt lat="0" lon="0">
        <time>2020-12-06T10:40:03.927000+00:00</time>
      </trkpt>
      <trkpt lat="0" lon="0">
        <time>2020-12-06T10:40:03.934000+00:00</time>
      </trkpt>
      <trkpt lat="47.30241" lon="-1.40164">
        <ele>40</ele>
        <time>2020-12-06T10:40:04.884000+00:00</time>
      </trkpt>
      <trkpt lat="0" lon="0">
        <time>2020-12-06T10:40:04.895000+00:00</time>
      </trkpt>
      <trkpt lat="0" lon="0">
        <time>2020-12-06T10:40:04.902000+00:00</time>
      </trkpt>
      <trkpt lat="0" lon="0">
        <time>2020-12-06T10:40:04.904000+00:00</time>
      </trkpt>
      <trkpt lat="47.30239" lon="-1.40162">
        <ele>40</ele>
        <time>2020-12-06T10:40:05.848000+00:00</time>
      </trkpt>
      <trkpt lat="0" lon="0">
        <time>2020-12-06T10:40:05.862000+00:00</time>
      </trkpt>
      <trkpt lat="0" lon="0">
        <time>2020-12-06T10:40:05.868000+00:00</time>
      </trkpt>
      <trkpt lat="0" lon="0">
        <time>2020-12-06T10:40:05.872000+00:00</time>
      </trkpt>
      <trkpt lat="47.30236" lon="-1.40161">
        <ele>40</ele>
        <time>2020-12-06T10:40:06.905000+00:00</time>
      </trkpt>
      <trkpt lat="0" lon="0">
        <time>2020-12-06T10:40:06.915000+00:00</time>
      </trkpt>
      <trkpt lat="0" lon="0">
        <time>2020-12-06T10:40:06.919000+00:00</time>
      </trkpt>
      <trkpt lat="0" lon="0">
        <time>2020-12-06T10:40:06.920000+00:00</time>
      </trkpt>
      <trkpt lat="47.30234" lon="-1.40159">
        <ele>40</ele>
        <time>2020-12-06T10:40:07.935000+00:00</time>
      </trkpt>
      <trkpt lat="0" lon="0">
        <time>2020-12-06T10:40:07.946000+00:00</time>
      </trkpt>
      <trkpt lat="0" lon="0">
        <time>2020-12-06T10:40:07.953000+00:00</time>
      </trkpt>
      <trkpt lat="0" lon="0">
        <time>2020-12-06T10:40:07.955000+00:00</time>
      </trkpt>
      <trkpt lat="47.30231" lon="-1.40157">
        <ele>40</ele>
        <time>2020-12-06T10:40:08.910000+00:00</time>
      </trkpt>
      <trkpt lat="0" lon="0">
        <time>2020-12-06T10:40:08.914000+00:00</time>
      </trkpt>
      <trkpt lat="0" lon="0">
        <time>2020-12-06T10:40:08.925000+00:00</time>
      </trkpt>
      <trkpt lat="0" lon="0">
        <time>2020-12-06T10:40:08.928000+00:00</time>
      </trkpt>
      <trkpt lat="47.30228" lon="-1.40155">
        <ele>40</ele>
        <time>2020-12-06T10:40:09.879000+00:00</time>
      </trkpt>
      <trkpt lat="0" lon="0">
        <time>2020-12-06T10:40:09.890000+00:00</time>
      </trkpt>
      <trkpt lat="0" lon="0">
        <time>2020-12-06T10:40:09.892000+00:00</time>
      </trkpt>
      <trkpt lat="0" lon="0">
        <time>2020-12-06T10:40:09.893000+00:00</time>
      </trkpt>
      <trkpt lat="47.30226" lon="-1.40153">
        <ele>40</ele>
        <time>2020-12-06T10:40:10.921000+00:00</time>
      </trkpt>
      <trkpt lat="0" lon="0">
        <time>2020-12-06T10:40:10.923000+00:00</time>
      </trkpt>
      <trkpt lat="0" lon="0">
        <time>2020-12-06T10:40:10.924000+00:00</time>
      </trkpt>
      <trkpt lat="0" lon="0">
        <time>2020-12-06T10:40:10.925000+00:00</time>
      </trkpt>
      <trkpt lat="47.30223" lon="-1.40151">
        <ele>40</ele>
        <time>2020-12-06T10:40:11.881000+00:00</time>
      </trkpt>
      <trkpt lat="0" lon="0">
        <time>2020-12-06T10:40:11.890000+00:00</time>
      </trkpt>
      <trkpt lat="0" lon="0">
        <time>2020-12-06T10:40:11.902000+00:00</time>
      </trkpt>
      <trkpt lat="0" lon="0">
        <time>2020-12-06T10:40:11.904000+00:00</time>
      </trkpt>
      <trkpt lat="47.30221" lon="-1.40149">
        <ele>40</ele>
        <time>2020-12-06T10:40:12.910000+00:00</time>
      </trkpt>
      <trkpt lat="0" lon="0">
        <time>2020-12-06T10:40:12.926000+00:00</time>
      </trkpt>
      <trkpt lat="0" lon="0">
        <time>2020-12-06T10:40:12.931000+00:00</time>
      </trkpt>
      <trkpt lat="0" lon="0">
        <time>2020-12-06T10:40:12.933000+00:00</time>
      </trkpt>
      <trkpt lat="47.30218" lon="-1.40147">
        <ele>40</ele>
        <time>2020-12-06T10:40:13.930000+00:00</time>
      </trkpt>
      <trkpt lat="0" lon="0">
        <time>2020-12-06T10:40:13.943000+00:00</time>
      </trkpt>
      <trkpt lat="0" lon="0">
        <time>2020-12-06T10:40:13.947000+00:00</time>
      </trkpt>
      <trkpt lat="0" lon="0">
        <time>2020-12-06T10:40:13.953000+00:00</time>
      </trkpt>
      <trkpt lat="47.30216" lon="-1.40145">
        <ele>40</ele>
        <time>2020-12-06T10:40:14.879000+00:00</time>
      </trkpt>
      <trkpt lat="0" lon="0">
        <time>2020-12-06T10:40:14.886000+00:00</time>
      </trkpt>
      <trkpt lat="0" lon="0">
        <time>2020-12-06T10:40:14.890000+00:00</time>
      </trkpt>
      <trkpt lat="0" lon="0">
        <time>2020-12-06T10:40:14.894000+00:00</time>
      </trkpt>
      <trkpt lat="47.30213" lon="-1.40142">
        <ele>40</ele>
        <time>2020-12-06T10:40:15.829000+00:00</time>
      </trkpt>
      <trkpt lat="0" lon="0">
        <time>2020-12-06T10:40:15.836000+00:00</time>
      </trkpt>
      <trkpt lat="0" lon="0">
        <time>2020-12-06T10:40:15.839000+00:00</time>
      </trkpt>
      <trkpt lat="0" lon="0">
        <time>2020-12-06T10:40:15.841000+00:00</time>
      </trkpt>
      <trkpt lat="47.30211" lon="-1.4014">
        <ele>40</ele>
        <time>2020-12-06T10:40:16.868000+00:00</time>
      </trkpt>
      <trkpt lat="0" lon="0">
        <time>2020-12-06T10:40:16.875000+00:00</time>
      </trkpt>
      <trkpt lat="0" lon="0">
        <time>2020-12-06T10:40:16.885000+00:00</time>
      </trkpt>
      <trkpt lat="0" lon="0">
        <time>2020-12-06T10:40:16.894000+00:00</time>
      </trkpt>
      <trkpt lat="47.30209" lon="-1.40138">
        <ele>40</ele>
        <time>2020-12-06T10:40:17.874000+00:00</time>
      </trkpt>
      <trkpt lat="0" lon="0">
        <time>2020-12-06T10:40:17.893000+00:00</time>
      </trkpt>
      <trkpt lat="0" lon="0">
        <time>2020-12-06T10:40:17.896000+00:00</time>
      </trkpt>
      <trkpt lat="0" lon="0">
        <time>2020-12-06T10:40:17.898000+00:00</time>
      </trkpt>
      <trkpt lat="47.30206" lon="-1.40136">
        <ele>40</ele>
        <time>2020-12-06T10:40:18.882000+00:00</time>
      </trkpt>
      <trkpt lat="0" lon="0">
        <time>2020-12-06T10:40:18.889000+00:00</time>
      </trkpt>
      <trkpt lat="0" lon="0">
        <time>2020-12-06T10:40:18.894000+00:00</time>
      </trkpt>
      <trkpt lat="0" lon="0">
        <time>2020-12-06T10:40:18.896000+00:00</time>
      </trkpt>
      <trkpt lat="47.30204" lon="-1.40134">
        <ele>40</ele>
        <time>2020-12-06T10:40:19.858000+00:00</time>
      </trkpt>
      <trkpt lat="0" lon="0">
        <time>2020-12-06T10:40:19.866000+00:00</time>
      </trkpt>
      <trkpt lat="0" lon="0">
        <time>2020-12-06T10:40:19.878000+00:00</time>
      </trkpt>
      <trkpt lat="0" lon="0">
        <time>2020-12-06T10:40:19.881000+00:00</time>
      </trkpt>
      <trkpt lat="47.30202" lon="-1.40132">
        <ele>40</ele>
        <time>2020-12-06T10:40:20.898000+00:00</time>
      </trkpt>
      <trkpt lat="0" lon="0">
        <time>2020-12-06T10:40:20.902000+00:00</time>
      </trkpt>
      <trkpt lat="0" lon="0">
        <time>2020-12-06T10:40:20.905000+00:00</time>
      </trkpt>
      <trkpt lat="0" lon="0">
        <time>2020-12-06T10:40:20.907000+00:00</time>
      </trkpt>
      <trkpt lat="47.30199" lon="-1.4013">
        <ele>40</ele>
        <time>2020-12-06T10:40:21.879000+00:00</time>
      </trkpt>
      <trkpt lat="0" lon="0">
        <time>2020-12-06T10:40:21.880000+00:00</time>
      </trkpt>
      <trkpt lat="0" lon="0">
        <time>2020-12-06T10:40:21.883000+00:00</time>
      </trkpt>
      <trkpt lat="0" lon="0">
        <time>2020-12-06T10:40:21.884000+00:00</time>
      </trkpt>
      <trkpt lat="47.30197" lon="-1.40128">
        <ele>40</ele>
        <time>2020-12-06T10:40:22.871000+00:00</time>
      </trkpt>
      <trkpt lat="0" lon="0">
        <time>2020-12-06T10:40:22.883000+00:00</time>
      </trkpt>
      <trkpt lat="0" lon="0">
        <time>2020-12-06T10:40:22.891000+00:00</time>
      </trkpt>
      <trkpt lat="0" lon="0">
        <time>2020-12-06T10:40:22.893000+00:00</time>
      </trkpt>
      <trkpt lat="47.30195" lon="-1.40126">
        <ele>40</ele>
        <time>2020-12-06T10:40:23.880000+00:00</time>
      </trkpt>
      <trkpt lat="0" lon="0">
        <time>2020-12-06T10:40:23.889000+00:00</time>
      </trkpt>
      <trkpt lat="0" lon="0">
        <time>2020-12-06T10:40:23.893000+00:00</time>
      </trkpt>
      <trkpt lat="0" lon="0">
        <time>2020-12-06T10:40:23.896000+00:00</time>
      </trkpt>
      <trkpt lat="47.30193" lon="-1.40124">
        <ele>40</ele>
        <time>2020-12-06T10:40:24.869000+00:00</time>
      </trkpt>
      <trkpt lat="0" lon="0">
        <time>2020-12-06T10:40:24.881000+00:00</time>
      </trkpt>
      <trkpt lat="0" lon="0">
        <time>2020-12-06T10:40:24.885000+00:00</time>
      </trkpt>
      <trkpt lat="0" lon="0">
        <time>2020-12-06T10:40:24.891000+00:00</time>
      </trkpt>
      <trkpt lat="47.30191" lon="-1.40122">
        <ele>40</ele>
        <time>2020-12-06T10:40:25.859000+00:00</time>
      </trkpt>
      <trkpt lat="0" lon="0">
        <time>2020-12-06T10:40:25.880000+00:00</time>
      </trkpt>
      <trkpt lat="0" lon="0">
        <time>2020-12-06T10:40:25.891000+00:00</time>
      </trkpt>
      <trkpt lat="0" lon="0">
        <time>2020-12-06T10:40:25.894000+00:00</time>
      </trkpt>
      <trkpt lat="47.30189" lon="-1.4012">
        <ele>40</ele>
        <time>2020-12-06T10:40:26.861000+00:00</time>
      </trkpt>
      <trkpt lat="0" lon="0">
        <time>2020-12-06T10:40:26.874000+00:00</time>
      </trkpt>
      <trkpt lat="0" lon="0">
        <time>2020-12-06T10:40:26.876000+00:00</time>
      </trkpt>
      <trkpt lat="0" lon="0">
        <time>2020-12-06T10:40:26.879000+00:00</time>
      </trkpt>
      <trkpt lat="47.30186" lon="-1.40117">
        <ele>40</ele>
        <time>2020-12-06T10:40:27.894000+00:00</time>
      </trkpt>
      <trkpt lat="0" lon="0">
        <time>2020-12-06T10:40:27.914000+00:00</time>
      </trkpt>
      <trkpt lat="0" lon="0">
        <time>2020-12-06T10:40:27.917000+00:00</time>
      </trkpt>
      <trkpt lat="0" lon="0">
        <time>2020-12-06T10:40:27.919000+00:00</time>
      </trkpt>
      <trkpt lat="47.30184" lon="-1.40115">
        <ele>40</ele>
        <time>2020-12-06T10:40:28.918000+00:00</time>
      </trkpt>
      <trkpt lat="0" lon="0">
        <time>2020-12-06T10:40:28.927000+00:00</time>
      </trkpt>
      <trkpt lat="0" lon="0">
        <time>2020-12-06T10:40:28.940000+00:00</time>
      </trkpt>
      <trkpt lat="0" lon="0">
        <time>2020-12-06T10:40:28.946000+00:00</time>
      </trkpt>
      <trkpt lat="47.30182" lon="-1.40114">
        <ele>40</ele>
        <time>2020-12-06T10:40:29.890000+00:00</time>
      </trkpt>
      <trkpt lat="0" lon="0">
        <time>2020-12-06T10:40:29.907000+00:00</time>
      </trkpt>
      <trkpt lat="0" lon="0">
        <time>2020-12-06T10:40:29.910000+00:00</time>
      </trkpt>
      <trkpt lat="0" lon="0">
        <time>2020-12-06T10:40:29.916000+00:00</time>
      </trkpt>
      <trkpt lat="47.3018" lon="-1.40112">
        <ele>41</ele>
        <time>2020-12-06T10:40:30.860000+00:00</time>
      </trkpt>
      <trkpt lat="0" lon="0">
        <time>2020-12-06T10:40:30.874000+00:00</time>
      </trkpt>
      <trkpt lat="0" lon="0">
        <time>2020-12-06T10:40:30.876000+00:00</time>
      </trkpt>
      <trkpt lat="0" lon="0">
        <time>2020-12-06T10:40:30.877000+00:00</time>
      </trkpt>
      <trkpt lat="47.30177" lon="-1.40109">
        <ele>41</ele>
        <time>2020-12-06T10:40:31.859000+00:00</time>
      </trkpt>
      <trkpt lat="0" lon="0">
        <time>2020-12-06T10:40:31.876000+00:00</time>
      </trkpt>
      <trkpt lat="0" lon="0">
        <time>2020-12-06T10:40:31.881000+00:00</time>
      </trkpt>
      <trkpt lat="0" lon="0">
        <time>2020-12-06T10:40:31.882000+00:00</time>
      </trkpt>
      <trkpt lat="47.30175" lon="-1.40107">
        <ele>41</ele>
        <time>2020-12-06T10:40:32.876000+00:00</time>
      </trkpt>
      <trkpt lat="0" lon="0">
        <time>2020-12-06T10:40:32.879000+00:00</time>
      </trkpt>
      <trkpt lat="0" lon="0">
        <time>2020-12-06T10:40:32.901000+00:00</time>
      </trkpt>
      <trkpt lat="0" lon="0">
        <time>2020-12-06T10:40:32.903000+00:00</time>
      </trkpt>
      <trkpt lat="47.30172" lon="-1.40105">
        <ele>41</ele>
        <time>2020-12-06T10:40:33.879000+00:00</time>
      </trkpt>
      <trkpt lat="0" lon="0">
        <time>2020-12-06T10:40:33.891000+00:00</time>
      </trkpt>
      <trkpt lat="0" lon="0">
        <time>2020-12-06T10:40:33.895000+00:00</time>
      </trkpt>
      <trkpt lat="0" lon="0">
        <time>2020-12-06T10:40:33.901000+00:00</time>
      </trkpt>
      <trkpt lat="47.3017" lon="-1.40103">
        <ele>41</ele>
        <time>2020-12-06T10:40:34.808000+00:00</time>
      </trkpt>
      <trkpt lat="0" lon="0">
        <time>2020-12-06T10:40:34.811000+00:00</time>
      </trkpt>
      <trkpt lat="0" lon="0">
        <time>2020-12-06T10:40:34.814000+00:00</time>
      </trkpt>
      <trkpt lat="0" lon="0">
        <time>2020-12-06T10:40:34.815000+00:00</time>
      </trkpt>
      <trkpt lat="47.30168" lon="-1.40101">
        <ele>41</ele>
        <time>2020-12-06T10:40:35.851000+00:00</time>
      </trkpt>
      <trkpt lat="0" lon="0">
        <time>2020-12-06T10:40:35.860000+00:00</time>
      </trkpt>
      <trkpt lat="0" lon="0">
        <time>2020-12-06T10:40:35.864000+00:00</time>
      </trkpt>
      <trkpt lat="0" lon="0">
        <time>2020-12-06T10:40:35.869000+00:00</time>
      </trkpt>
      <trkpt lat="47.30165" lon="-1.40099">
        <ele>41</ele>
        <time>2020-12-06T10:40:36.823000+00:00</time>
      </trkpt>
      <trkpt lat="0" lon="0">
        <time>2020-12-06T10:40:36.827000+00:00</time>
      </trkpt>
      <trkpt lat="0" lon="0">
        <time>2020-12-06T10:40:36.839000+00:00</time>
      </trkpt>
      <trkpt lat="0" lon="0">
        <time>2020-12-06T10:40:36.840000+00:00</time>
      </trkpt>
      <trkpt lat="47.30163" lon="-1.40097">
        <ele>41</ele>
        <time>2020-12-06T10:40:37.828000+00:00</time>
      </trkpt>
      <trkpt lat="0" lon="0">
        <time>2020-12-06T10:40:37.835000+00:00</time>
      </trkpt>
      <trkpt lat="0" lon="0">
        <time>2020-12-06T10:40:37.843000+00:00</time>
      </trkpt>
      <trkpt lat="0" lon="0">
        <time>2020-12-06T10:40:37.845000+00:00</time>
      </trkpt>
      <trkpt lat="47.3016" lon="-1.40095">
        <ele>41</ele>
        <time>2020-12-06T10:40:38.856000+00:00</time>
      </trkpt>
      <trkpt lat="0" lon="0">
        <time>2020-12-06T10:40:38.861000+00:00</time>
      </trkpt>
      <trkpt lat="0" lon="0">
        <time>2020-12-06T10:40:38.864000+00:00</time>
      </trkpt>
      <trkpt lat="0" lon="0">
        <time>2020-12-06T10:40:38.872000+00:00</time>
      </trkpt>
      <trkpt lat="47.30158" lon="-1.40093">
        <ele>41</ele>
        <time>2020-12-06T10:40:39.829000+00:00</time>
      </trkpt>
      <trkpt lat="0" lon="0">
        <time>2020-12-06T10:40:39.841000+00:00</time>
      </trkpt>
      <trkpt lat="0" lon="0">
        <time>2020-12-06T10:40:39.844000+00:00</time>
      </trkpt>
      <trkpt lat="0" lon="0">
        <time>2020-12-06T10:40:39.845000+00:00</time>
      </trkpt>
      <trkpt lat="47.30155" lon="-1.40091">
        <ele>42</ele>
        <time>2020-12-06T10:40:40.874000+00:00</time>
      </trkpt>
      <trkpt lat="0" lon="0">
        <time>2020-12-06T10:40:40.885000+00:00</time>
      </trkpt>
      <trkpt lat="0" lon="0">
        <time>2020-12-06T10:40:40.890000+00:00</time>
      </trkpt>
      <trkpt lat="0" lon="0">
        <time>2020-12-06T10:40:40.892000+00:00</time>
      </trkpt>
      <trkpt lat="47.30153" lon="-1.40088">
        <ele>42</ele>
        <time>2020-12-06T10:40:41.864000+00:00</time>
      </trkpt>
      <trkpt lat="0" lon="0">
        <time>2020-12-06T10:40:41.872000+00:00</time>
      </trkpt>
      <trkpt lat="0" lon="0">
        <time>2020-12-06T10:40:41.874000+00:00</time>
      </trkpt>
      <trkpt lat="0" lon="0">
        <time>2020-12-06T10:40:41.881000+00:00</time>
      </trkpt>
      <trkpt lat="47.3015" lon="-1.40086">
        <ele>42</ele>
        <time>2020-12-06T10:40:42.825000+00:00</time>
      </trkpt>
      <trkpt lat="0" lon="0">
        <time>2020-12-06T10:40:42.832000+00:00</time>
      </trkpt>
      <trkpt lat="0" lon="0">
        <time>2020-12-06T10:40:42.834000+00:00</time>
      </trkpt>
      <trkpt lat="47.30148" lon="-1.40084">
        <ele>42</ele>
        <time>2020-12-06T10:40:43.827000+00:00</time>
      </trkpt>
      <trkpt lat="0" lon="0">
        <time>2020-12-06T10:40:43.831000+00:00</time>
      </trkpt>
      <trkpt lat="0" lon="0">
        <time>2020-12-06T10:40:43.834000+00:00</time>
      </trkpt>
      <trkpt lat="0" lon="0">
        <time>2020-12-06T10:40:43.842000+00:00</time>
      </trkpt>
      <trkpt lat="47.30145" lon="-1.40082">
        <ele>42</ele>
        <time>2020-12-06T10:40:44.874000+00:00</time>
      </trkpt>
      <trkpt lat="0" lon="0">
        <time>2020-12-06T10:40:44.879000+00:00</time>
      </trkpt>
      <trkpt lat="0" lon="0">
        <time>2020-12-06T10:40:44.888000+00:00</time>
      </trkpt>
      <trkpt lat="0" lon="0">
        <time>2020-12-06T10:40:44.891000+00:00</time>
      </trkpt>
      <trkpt lat="47.30142" lon="-1.40079">
        <ele>43</ele>
        <time>2020-12-06T10:40:45.831000+00:00</time>
      </trkpt>
      <trkpt lat="0" lon="0">
        <time>2020-12-06T10:40:45.835000+00:00</time>
      </trkpt>
      <trkpt lat="0" lon="0">
        <time>2020-12-06T10:40:45.838000+00:00</time>
      </trkpt>
      <trkpt lat="0" lon="0">
        <time>2020-12-06T10:40:45.839000+00:00</time>
      </trkpt>
      <trkpt lat="47.3014" lon="-1.40077">
        <ele>43</ele>
        <time>2020-12-06T10:40:46.839000+00:00</time>
      </trkpt>
      <trkpt lat="0" lon="0">
        <time>2020-12-06T10:40:46.853000+00:00</time>
      </trkpt>
      <trkpt lat="0" lon="0">
        <time>2020-12-06T10:40:46.856000+00:00</time>
      </trkpt>
      <trkpt lat="0" lon="0">
        <time>2020-12-06T10:40:46.858000+00:00</time>
      </trkpt>
      <trkpt lat="47.30137" lon="-1.40075">
        <ele>43</ele>
        <time>2020-12-06T10:40:47.840000+00:00</time>
      </trkpt>
      <trkpt lat="0" lon="0">
        <time>2020-12-06T10:40:47.850000+00:00</time>
      </trkpt>
      <trkpt lat="0" lon="0">
        <time>2020-12-06T10:40:47.852000+00:00</time>
      </trkpt>
      <trkpt lat="0" lon="0">
        <time>2020-12-06T10:40:47.853000+00:00</time>
      </trkpt>
      <trkpt lat="47.30134" lon="-1.40072">
        <ele>43</ele>
        <time>2020-12-06T10:40:48.866000+00:00</time>
      </trkpt>
      <trkpt lat="0" lon="0">
        <time>2020-12-06T10:40:48.875000+00:00</time>
      </trkpt>
      <trkpt lat="0" lon="0">
        <time>2020-12-06T10:40:48.881000+00:00</time>
      </trkpt>
      <trkpt lat="0" lon="0">
        <time>2020-12-06T10:40:48.883000+00:00</time>
      </trkpt>
      <trkpt lat="47.30131" lon="-1.4007">
        <ele>43</ele>
        <time>2020-12-06T10:40:49.826000+00:00</time>
      </trkpt>
      <trkpt lat="0" lon="0">
        <time>2020-12-06T10:40:49.836000+00:00</time>
      </trkpt>
      <trkpt lat="0" lon="0">
        <time>2020-12-06T10:40:49.838000+00:00</time>
      </trkpt>
      <trkpt lat="0" lon="0">
        <time>2020-12-06T10:40:49.844000+00:00</time>
      </trkpt>
      <trkpt lat="47.30129" lon="-1.40067">
        <ele>43</ele>
        <time>2020-12-06T10:40:50.867000+00:00</time>
      </trkpt>
      <trkpt lat="0" lon="0">
        <time>2020-12-06T10:40:50.871000+00:00</time>
      </trkpt>
      <trkpt lat="0" lon="0">
        <time>2020-12-06T10:40:50.876000+00:00</time>
      </trkpt>
      <trkpt lat="0" lon="0">
        <time>2020-12-06T10:40:50.878000+00:00</time>
      </trkpt>
      <trkpt lat="47.30126" lon="-1.40065">
        <ele>44</ele>
        <time>2020-12-06T10:40:51.856000+00:00</time>
      </trkpt>
      <trkpt lat="0" lon="0">
        <time>2020-12-06T10:40:51.859000+00:00</time>
      </trkpt>
      <trkpt lat="0" lon="0">
        <time>2020-12-06T10:40:51.865000+00:00</time>
      </trkpt>
      <trkpt lat="0" lon="0">
        <time>2020-12-06T10:40:51.866000+00:00</time>
      </trkpt>
      <trkpt lat="47.30123" lon="-1.40062">
        <ele>44</ele>
        <time>2020-12-06T10:40:52.878000+00:00</time>
      </trkpt>
      <trkpt lat="0" lon="0">
        <time>2020-12-06T10:40:52.891000+00:00</time>
      </trkpt>
      <trkpt lat="0" lon="0">
        <time>2020-12-06T10:40:52.897000+00:00</time>
      </trkpt>
      <trkpt lat="0" lon="0">
        <time>2020-12-06T10:40:52.902000+00:00</time>
      </trkpt>
      <trkpt lat="47.3012" lon="-1.40059">
        <ele>44</ele>
        <time>2020-12-06T10:40:53.877000+00:00</time>
      </trkpt>
      <trkpt lat="0" lon="0">
        <time>2020-12-06T10:40:53.888000+00:00</time>
      </trkpt>
      <trkpt lat="0" lon="0">
        <time>2020-12-06T10:40:53.898000+00:00</time>
      </trkpt>
      <trkpt lat="0" lon="0">
        <time>2020-12-06T10:40:53.902000+00:00</time>
      </trkpt>
      <trkpt lat="47.30117" lon="-1.40056">
        <ele>44</ele>
        <time>2020-12-06T10:40:54.872000+00:00</time>
      </trkpt>
      <trkpt lat="0" lon="0">
        <time>2020-12-06T10:40:54.882000+00:00</time>
      </trkpt>
      <trkpt lat="0" lon="0">
        <time>2020-12-06T10:40:54.886000+00:00</time>
      </trkpt>
      <trkpt lat="0" lon="0">
        <time>2020-12-06T10:40:54.889000+00:00</time>
      </trkpt>
      <trkpt lat="47.30114" lon="-1.40053">
        <ele>44</ele>
        <time>2020-12-06T10:40:55.875000+00:00</time>
      </trkpt>
      <trkpt lat="0" lon="0">
        <time>2020-12-06T10:40:55.879000+00:00</time>
      </trkpt>
      <trkpt lat="0" lon="0">
        <time>2020-12-06T10:40:55.885000+00:00</time>
      </trkpt>
      <trkpt lat="0" lon="0">
        <time>2020-12-06T10:40:55.888000+00:00</time>
      </trkpt>
      <trkpt lat="47.30111" lon="-1.40051">
        <ele>44</ele>
        <time>2020-12-06T10:40:56.856000+00:00</time>
      </trkpt>
      <trkpt lat="0" lon="0">
        <time>2020-12-06T10:40:56.863000+00:00</time>
      </trkpt>
      <trkpt lat="0" lon="0">
        <time>2020-12-06T10:40:56.873000+00:00</time>
      </trkpt>
      <trkpt lat="0" lon="0">
        <time>2020-12-06T10:40:56.875000+00:00</time>
      </trkpt>
      <trkpt lat="47.30108" lon="-1.40048">
        <ele>45</ele>
        <time>2020-12-06T10:40:57.868000+00:00</time>
      </trkpt>
      <trkpt lat="0" lon="0">
        <time>2020-12-06T10:40:57.879000+00:00</time>
      </trkpt>
      <trkpt lat="0" lon="0">
        <time>2020-12-06T10:40:57.884000+00:00</time>
      </trkpt>
      <trkpt lat="0" lon="0">
        <time>2020-12-06T10:40:57.891000+00:00</time>
      </trkpt>
      <trkpt lat="47.30106" lon="-1.40045">
        <ele>45</ele>
        <time>2020-12-06T10:40:58.851000+00:00</time>
      </trkpt>
      <trkpt lat="0" lon="0">
        <time>2020-12-06T10:40:58.860000+00:00</time>
      </trkpt>
      <trkpt lat="0" lon="0">
        <time>2020-12-06T10:40:58.864000+00:00</time>
      </trkpt>
      <trkpt lat="0" lon="0">
        <time>2020-12-06T10:40:58.865000+00:00</time>
      </trkpt>
      <trkpt lat="47.30103" lon="-1.40042">
        <ele>45</ele>
        <time>2020-12-06T10:40:59.873000+00:00</time>
      </trkpt>
      <trkpt lat="0" lon="0">
        <time>2020-12-06T10:40:59.878000+00:00</time>
      </trkpt>
      <trkpt lat="0" lon="0">
        <time>2020-12-06T10:40:59.881000+00:00</time>
      </trkpt>
      <trkpt lat="0" lon="0">
        <time>2020-12-06T10:40:59.882000+00:00</time>
      </trkpt>
      <trkpt lat="47.301" lon="-1.40039">
        <ele>45</ele>
        <time>2020-12-06T10:41:00.824000+00:00</time>
      </trkpt>
      <trkpt lat="0" lon="0">
        <time>2020-12-06T10:41:00.830000+00:00</time>
      </trkpt>
      <trkpt lat="0" lon="0">
        <time>2020-12-06T10:41:00.831000+00:00</time>
      </trkpt>
      <trkpt lat="0" lon="0">
        <time>2020-12-06T10:41:00.832000+00:00</time>
      </trkpt>
      <trkpt lat="47.30097" lon="-1.40035">
        <ele>45</ele>
        <time>2020-12-06T10:41:01.872000+00:00</time>
      </trkpt>
      <trkpt lat="0" lon="0">
        <time>2020-12-06T10:41:01.879000+00:00</time>
      </trkpt>
      <trkpt lat="0" lon="0">
        <time>2020-12-06T10:41:01.882000+00:00</time>
      </trkpt>
      <trkpt lat="0" lon="0">
        <time>2020-12-06T10:41:01.883000+00:00</time>
      </trkpt>
      <trkpt lat="47.30095" lon="-1.40032">
        <ele>45</ele>
        <time>2020-12-06T10:41:02.850000+00:00</time>
      </trkpt>
      <trkpt lat="0" lon="0">
        <time>2020-12-06T10:41:02.859000+00:00</time>
      </trkpt>
      <trkpt lat="0" lon="0">
        <time>2020-12-06T10:41:02.862000+00:00</time>
      </trkpt>
      <trkpt lat="0" lon="0">
        <time>2020-12-06T10:41:02.865000+00:00</time>
      </trkpt>
      <trkpt lat="47.30092" lon="-1.40028">
        <ele>46</ele>
        <time>2020-12-06T10:41:03.846000+00:00</time>
      </trkpt>
      <trkpt lat="0" lon="0">
        <time>2020-12-06T10:41:03.853000+00:00</time>
      </trkpt>
      <trkpt lat="0" lon="0">
        <time>2020-12-06T10:41:03.866000+00:00</time>
      </trkpt>
      <trkpt lat="0" lon="0">
        <time>2020-12-06T10:41:03.868000+00:00</time>
      </trkpt>
      <trkpt lat="47.3009" lon="-1.40024">
        <ele>46</ele>
        <time>2020-12-06T10:41:04.853000+00:00</time>
      </trkpt>
      <trkpt lat="0" lon="0">
        <time>2020-12-06T10:41:04.856000+00:00</time>
      </trkpt>
      <trkpt lat="0" lon="0">
        <time>2020-12-06T10:41:04.863000+00:00</time>
      </trkpt>
      <trkpt lat="0" lon="0">
        <time>2020-12-06T10:41:04.865000+00:00</time>
      </trkpt>
      <trkpt lat="47.30088" lon="-1.40019">
        <ele>46</ele>
        <time>2020-12-06T10:41:05.885000+00:00</time>
      </trkpt>
      <trkpt lat="0" lon="0">
        <time>2020-12-06T10:41:05.893000+00:00</time>
      </trkpt>
      <trkpt lat="0" lon="0">
        <time>2020-12-06T10:41:05.901000+00:00</time>
      </trkpt>
      <trkpt lat="0" lon="0">
        <time>2020-12-06T10:41:05.902000+00:00</time>
      </trkpt>
      <trkpt lat="47.30087" lon="-1.40014">
        <ele>46</ele>
        <time>2020-12-06T10:41:06.852000+00:00</time>
      </trkpt>
      <trkpt lat="0" lon="0">
        <time>2020-12-06T10:41:06.865000+00:00</time>
      </trkpt>
      <trkpt lat="0" lon="0">
        <time>2020-12-06T10:41:06.868000+00:00</time>
      </trkpt>
      <trkpt lat="0" lon="0">
        <time>2020-12-06T10:41:06.871000+00:00</time>
      </trkpt>
      <trkpt lat="47.30085" lon="-1.40009">
        <ele>46</ele>
        <time>2020-12-06T10:41:07.856000+00:00</time>
      </trkpt>
      <trkpt lat="0" lon="0">
        <time>2020-12-06T10:41:07.871000+00:00</time>
      </trkpt>
      <trkpt lat="0" lon="0">
        <time>2020-12-06T10:41:07.878000+00:00</time>
      </trkpt>
      <trkpt lat="0" lon="0">
        <time>2020-12-06T10:41:07.881000+00:00</time>
      </trkpt>
      <trkpt lat="47.30083" lon="-1.40004">
        <ele>46</ele>
        <time>2020-12-06T10:41:08.827000+00:00</time>
      </trkpt>
      <trkpt lat="0" lon="0">
        <time>2020-12-06T10:41:08.829000+00:00</time>
      </trkpt>
      <trkpt lat="0" lon="0">
        <time>2020-12-06T10:41:08.830000+00:00</time>
      </trkpt>
      <trkpt lat="0" lon="0">
        <time>2020-12-06T10:41:08.831000+00:00</time>
      </trkpt>
      <trkpt lat="47.30081" lon="-1.39999">
        <ele>46</ele>
        <time>2020-12-06T10:41:09.867000+00:00</time>
      </trkpt>
      <trkpt lat="0" lon="0">
        <time>2020-12-06T10:41:09.869000+00:00</time>
      </trkpt>
      <trkpt lat="0" lon="0">
        <time>2020-12-06T10:41:09.870000+00:00</time>
      </trkpt>
      <trkpt lat="0" lon="0">
        <time>2020-12-06T10:41:09.871000+00:00</time>
      </trkpt>
      <trkpt lat="47.3008" lon="-1.39994">
        <ele>47</ele>
        <time>2020-12-06T10:41:10.860000+00:00</time>
      </trkpt>
      <trkpt lat="0" lon="0">
        <time>2020-12-06T10:41:10.869000+00:00</time>
      </trkpt>
      <trkpt lat="0" lon="0">
        <time>2020-12-06T10:41:10.873000+00:00</time>
      </trkpt>
      <trkpt lat="0" lon="0">
        <time>2020-12-06T10:41:10.874000+00:00</time>
      </trkpt>
      <trkpt lat="47.30079" lon="-1.39989">
        <ele>47</ele>
        <time>2020-12-06T10:41:11.859000+00:00</time>
      </trkpt>
      <trkpt lat="0" lon="0">
        <time>2020-12-06T10:41:11.864000+00:00</time>
      </trkpt>
      <trkpt lat="0" lon="0">
        <time>2020-12-06T10:41:11.867000+00:00</time>
      </trkpt>
      <trkpt lat="0" lon="0">
        <time>2020-12-06T10:41:11.870000+00:00</time>
      </trkpt>
      <trkpt lat="47.30078" lon="-1.39983">
        <ele>47</ele>
        <time>2020-12-06T10:41:12.882000+00:00</time>
      </trkpt>
      <trkpt lat="0" lon="0">
        <time>2020-12-06T10:41:12.888000+00:00</time>
      </trkpt>
      <trkpt lat="0" lon="0">
        <time>2020-12-06T10:41:12.895000+00:00</time>
      </trkpt>
      <trkpt lat="0" lon="0">
        <time>2020-12-06T10:41:12.896000+00:00</time>
      </trkpt>
      <trkpt lat="47.30077" lon="-1.39978">
        <ele>47</ele>
        <time>2020-12-06T10:41:13.877000+00:00</time>
      </trkpt>
      <trkpt lat="0" lon="0">
        <time>2020-12-06T10:41:13.897000+00:00</time>
      </trkpt>
      <trkpt lat="0" lon="0">
        <time>2020-12-06T10:41:13.900000+00:00</time>
      </trkpt>
      <trkpt lat="0" lon="0">
        <time>2020-12-06T10:41:13.902000+00:00</time>
      </trkpt>
      <trkpt lat="47.30076" lon="-1.39972">
        <ele>47</ele>
        <time>2020-12-06T10:41:14.875000+00:00</time>
      </trkpt>
      <trkpt lat="0" lon="0">
        <time>2020-12-06T10:41:14.885000+00:00</time>
      </trkpt>
      <trkpt lat="0" lon="0">
        <time>2020-12-06T10:41:14.887000+00:00</time>
      </trkpt>
      <trkpt lat="47.30076" lon="-1.39966">
        <ele>47</ele>
        <time>2020-12-06T10:41:15.873000+00:00</time>
      </trkpt>
      <trkpt lat="0" lon="0">
        <time>2020-12-06T10:41:15.878000+00:00</time>
      </trkpt>
      <trkpt lat="0" lon="0">
        <time>2020-12-06T10:41:15.883000+00:00</time>
      </trkpt>
      <trkpt lat="0" lon="0">
        <time>2020-12-06T10:41:15.903000+00:00</time>
      </trkpt>
      <trkpt lat="47.30076" lon="-1.3996">
        <ele>47</ele>
        <time>2020-12-06T10:41:16.862000+00:00</time>
      </trkpt>
      <trkpt lat="0" lon="0">
        <time>2020-12-06T10:41:16.865000+00:00</time>
      </trkpt>
      <trkpt lat="0" lon="0">
        <time>2020-12-06T10:41:16.870000+00:00</time>
      </trkpt>
      <trkpt lat="0" lon="0">
        <time>2020-12-06T10:41:16.873000+00:00</time>
      </trkpt>
      <trkpt lat="47.30076" lon="-1.39955">
        <ele>48</ele>
        <time>2020-12-06T10:41:17.886000+00:00</time>
      </trkpt>
      <trkpt lat="0" lon="0">
        <time>2020-12-06T10:41:17.908000+00:00</time>
      </trkpt>
      <trkpt lat="0" lon="0">
        <time>2020-12-06T10:41:17.915000+00:00</time>
      </trkpt>
      <trkpt lat="0" lon="0">
        <time>2020-12-06T10:41:17.917000+00:00</time>
      </trkpt>
      <trkpt lat="47.30077" lon="-1.39949">
        <ele>48</ele>
        <time>2020-12-06T10:41:18.848000+00:00</time>
      </trkpt>
      <trkpt lat="0" lon="0">
        <time>2020-12-06T10:41:18.849000+00:00</time>
      </trkpt>
      <trkpt lat="0" lon="0">
        <time>2020-12-06T10:41:18.852000+00:00</time>
      </trkpt>
      <trkpt lat="0" lon="0">
        <time>2020-12-06T10:41:18.853000+00:00</time>
      </trkpt>
      <trkpt lat="47.30077" lon="-1.39943">
        <ele>48</ele>
        <time>2020-12-06T10:41:19.883000+00:00</time>
      </trkpt>
      <trkpt lat="0" lon="0">
        <time>2020-12-06T10:41:19.902000+00:00</time>
      </trkpt>
      <trkpt lat="0" lon="0">
        <time>2020-12-06T10:41:19.910000+00:00</time>
      </trkpt>
      <trkpt lat="0" lon="0">
        <time>2020-12-06T10:41:19.913000+00:00</time>
      </trkpt>
      <trkpt lat="47.30078" lon="-1.39937">
        <ele>48</ele>
        <time>2020-12-06T10:41:20.866000+00:00</time>
      </trkpt>
      <trkpt lat="0" lon="0">
        <time>2020-12-06T10:41:20.891000+00:00</time>
      </trkpt>
      <trkpt lat="0" lon="0">
        <time>2020-12-06T10:41:20.895000+00:00</time>
      </trkpt>
      <trkpt lat="0" lon="0">
        <time>2020-12-06T10:41:20.896000+00:00</time>
      </trkpt>
      <trkpt lat="47.30079" lon="-1.39932">
        <ele>48</ele>
        <time>2020-12-06T10:41:21.884000+00:00</time>
      </trkpt>
      <trkpt lat="0" lon="0">
        <time>2020-12-06T10:41:21.896000+00:00</time>
      </trkpt>
      <trkpt lat="0" lon="0">
        <time>2020-12-06T10:41:21.902000+00:00</time>
      </trkpt>
      <trkpt lat="0" lon="0">
        <time>2020-12-06T10:41:21.905000+00:00</time>
      </trkpt>
      <trkpt lat="47.30081" lon="-1.39926">
        <ele>48</ele>
        <time>2020-12-06T10:41:22.872000+00:00</time>
      </trkpt>
      <trkpt lat="0" lon="0">
        <time>2020-12-06T10:41:22.878000+00:00</time>
      </trkpt>
      <trkpt lat="0" lon="0">
        <time>2020-12-06T10:41:22.880000+00:00</time>
      </trkpt>
      <trkpt lat="0" lon="0">
        <time>2020-12-06T10:41:22.881000+00:00</time>
      </trkpt>
      <trkpt lat="47.30082" lon="-1.39921">
        <ele>48</ele>
        <time>2020-12-06T10:41:23.877000+00:00</time>
      </trkpt>
      <trkpt lat="0" lon="0">
        <time>2020-12-06T10:41:23.888000+00:00</time>
      </trkpt>
      <trkpt lat="0" lon="0">
        <time>2020-12-06T10:41:23.890000+00:00</time>
      </trkpt>
      <trkpt lat="0" lon="0">
        <time>2020-12-06T10:41:23.892000+00:00</time>
      </trkpt>
      <trkpt lat="47.30084" lon="-1.39916">
        <ele>49</ele>
        <time>2020-12-06T10:41:24.904000+00:00</time>
      </trkpt>
      <trkpt lat="0" lon="0">
        <time>2020-12-06T10:41:24.906000+00:00</time>
      </trkpt>
      <trkpt lat="0" lon="0">
        <time>2020-12-06T10:41:24.911000+00:00</time>
      </trkpt>
      <trkpt lat="0" lon="0">
        <time>2020-12-06T10:41:24.913000+00:00</time>
      </trkpt>
      <trkpt lat="47.30086" lon="-1.39911">
        <ele>49</ele>
        <time>2020-12-06T10:41:25.850000+00:00</time>
      </trkpt>
      <trkpt lat="0" lon="0">
        <time>2020-12-06T10:41:25.853000+00:00</time>
      </trkpt>
      <trkpt lat="0" lon="0">
        <time>2020-12-06T10:41:25.856000+00:00</time>
      </trkpt>
      <trkpt lat="0" lon="0">
        <time>2020-12-06T10:41:25.859000+00:00</time>
      </trkpt>
      <trkpt lat="47.30088" lon="-1.39906">
        <ele>49</ele>
        <time>2020-12-06T10:41:26.884000+00:00</time>
      </trkpt>
      <trkpt lat="0" lon="0">
        <time>2020-12-06T10:41:26.895000+00:00</time>
      </trkpt>
      <trkpt lat="0" lon="0">
        <time>2020-12-06T10:41:26.898000+00:00</time>
      </trkpt>
      <trkpt lat="0" lon="0">
        <time>2020-12-06T10:41:26.901000+00:00</time>
      </trkpt>
      <trkpt lat="47.3009" lon="-1.39901">
        <ele>49</ele>
        <time>2020-12-06T10:41:27.893000+00:00</time>
      </trkpt>
      <trkpt lat="0" lon="0">
        <time>2020-12-06T10:41:27.899000+00:00</time>
      </trkpt>
      <trkpt lat="0" lon="0">
        <time>2020-12-06T10:41:27.914000+00:00</time>
      </trkpt>
      <trkpt lat="0" lon="0">
        <time>2020-12-06T10:41:27.916000+00:00</time>
      </trkpt>
      <trkpt lat="47.30093" lon="-1.39897">
        <ele>49</ele>
        <time>2020-12-06T10:41:28.885000+00:00</time>
      </trkpt>
      <trkpt lat="0" lon="0">
        <time>2020-12-06T10:41:28.888000+00:00</time>
      </trkpt>
      <trkpt lat="0" lon="0">
        <time>2020-12-06T10:41:28.891000+00:00</time>
      </trkpt>
      <trkpt lat="0" lon="0">
        <time>2020-12-06T10:41:28.892000+00:00</time>
      </trkpt>
      <trkpt lat="47.30095" lon="-1.39892">
        <ele>49</ele>
        <time>2020-12-06T10:41:29.866000+00:00</time>
      </trkpt>
      <trkpt lat="0" lon="0">
        <time>2020-12-06T10:41:29.873000+00:00</time>
      </trkpt>
      <trkpt lat="0" lon="0">
        <time>2020-12-06T10:41:29.882000+00:00</time>
      </trkpt>
      <trkpt lat="0" lon="0">
        <time>2020-12-06T10:41:29.883000+00:00</time>
      </trkpt>
      <trkpt lat="47.30097" lon="-1.39888">
        <ele>49</ele>
        <time>2020-12-06T10:41:30.901000+00:00</time>
      </trkpt>
      <trkpt lat="0" lon="0">
        <time>2020-12-06T10:41:30.908000+00:00</time>
      </trkpt>
      <trkpt lat="0" lon="0">
        <time>2020-12-06T10:41:30.911000+00:00</time>
      </trkpt>
      <trkpt lat="0" lon="0">
        <time>2020-12-06T10:41:30.912000+00:00</time>
      </trkpt>
      <trkpt lat="47.301" lon="-1.39884">
        <ele>49</ele>
        <time>2020-12-06T10:41:31.856000+00:00</time>
      </trkpt>
      <trkpt lat="0" lon="0">
        <time>2020-12-06T10:41:31.862000+00:00</time>
      </trkpt>
      <trkpt lat="0" lon="0">
        <time>2020-12-06T10:41:31.864000+00:00</time>
      </trkpt>
      <trkpt lat="0" lon="0">
        <time>2020-12-06T10:41:31.865000+00:00</time>
      </trkpt>
      <trkpt lat="47.30103" lon="-1.3988">
        <ele>49</ele>
        <time>2020-12-06T10:41:32.901000+00:00</time>
      </trkpt>
      <trkpt lat="0" lon="0">
        <time>2020-12-06T10:41:32.906000+00:00</time>
      </trkpt>
      <trkpt lat="0" lon="0">
        <time>2020-12-06T10:41:32.910000+00:00</time>
      </trkpt>
      <trkpt lat="0" lon="0">
        <time>2020-12-06T10:41:32.925000+00:00</time>
      </trkpt>
      <trkpt lat="47.30105" lon="-1.39876">
        <ele>49</ele>
        <time>2020-12-06T10:41:33.872000+00:00</time>
      </trkpt>
      <trkpt lat="0" lon="0">
        <time>2020-12-06T10:41:33.874000+00:00</time>
      </trkpt>
      <trkpt lat="0" lon="0">
        <time>2020-12-06T10:41:33.875000+00:00</time>
      </trkpt>
      <trkpt lat="0" lon="0">
        <time>2020-12-06T10:41:33.877000+00:00</time>
      </trkpt>
      <trkpt lat="47.30108" lon="-1.39872">
        <ele>49</ele>
        <time>2020-12-06T10:41:34.870000+00:00</time>
      </trkpt>
      <trkpt lat="0" lon="0">
        <time>2020-12-06T10:41:34.874000+00:00</time>
      </trkpt>
      <trkpt lat="0" lon="0">
        <time>2020-12-06T10:41:34.875000+00:00</time>
      </trkpt>
      <trkpt lat="0" lon="0">
        <time>2020-12-06T10:41:34.877000+00:00</time>
      </trkpt>
      <trkpt lat="47.3011" lon="-1.39868">
        <ele>49</ele>
        <time>2020-12-06T10:41:35.895000+00:00</time>
      </trkpt>
      <trkpt lat="0" lon="0">
        <time>2020-12-06T10:41:35.897000+00:00</time>
      </trkpt>
      <trkpt lat="0" lon="0">
        <time>2020-12-06T10:41:35.910000+00:00</time>
      </trkpt>
      <trkpt lat="0" lon="0">
        <time>2020-12-06T10:41:35.911000+00:00</time>
      </trkpt>
      <trkpt lat="47.30113" lon="-1.39865">
        <ele>49</ele>
        <time>2020-12-06T10:41:36.857000+00:00</time>
      </trkpt>
      <trkpt lat="0" lon="0">
        <time>2020-12-06T10:41:36.871000+00:00</time>
      </trkpt>
      <trkpt lat="0" lon="0">
        <time>2020-12-06T10:41:36.880000+00:00</time>
      </trkpt>
      <trkpt lat="0" lon="0">
        <time>2020-12-06T10:41:36.881000+00:00</time>
      </trkpt>
      <trkpt lat="47.30115" lon="-1.39861">
        <ele>49</ele>
        <time>2020-12-06T10:41:37.880000+00:00</time>
      </trkpt>
      <trkpt lat="0" lon="0">
        <time>2020-12-06T10:41:37.902000+00:00</time>
      </trkpt>
      <trkpt lat="0" lon="0">
        <time>2020-12-06T10:41:37.905000+00:00</time>
      </trkpt>
      <trkpt lat="0" lon="0">
        <time>2020-12-06T10:41:37.907000+00:00</time>
      </trkpt>
      <trkpt lat="47.30117" lon="-1.39857">
        <ele>49</ele>
        <time>2020-12-06T10:41:38.847000+00:00</time>
      </trkpt>
      <trkpt lat="0" lon="0">
        <time>2020-12-06T10:41:38.855000+00:00</time>
      </trkpt>
      <trkpt lat="0" lon="0">
        <time>2020-12-06T10:41:38.859000+00:00</time>
      </trkpt>
      <trkpt lat="0" lon="0">
        <time>2020-12-06T10:41:38.861000+00:00</time>
      </trkpt>
      <trkpt lat="47.30118" lon="-1.39853">
        <ele>49</ele>
        <time>2020-12-06T10:41:39.896000+00:00</time>
      </trkpt>
      <trkpt lat="0" lon="0">
        <time>2020-12-06T10:41:39.910000+00:00</time>
      </trkpt>
      <trkpt lat="0" lon="0">
        <time>2020-12-06T10:41:39.915000+00:00</time>
      </trkpt>
      <trkpt lat="0" lon="0">
        <time>2020-12-06T10:41:39.918000+00:00</time>
      </trkpt>
      <trkpt lat="47.30119" lon="-1.39849">
        <ele>49</ele>
        <time>2020-12-06T10:41:40.880000+00:00</time>
      </trkpt>
      <trkpt lat="0" lon="0">
        <time>2020-12-06T10:41:40.882000+00:00</time>
      </trkpt>
      <trkpt lat="0" lon="0">
        <time>2020-12-06T10:41:40.886000+00:00</time>
      </trkpt>
      <trkpt lat="0" lon="0">
        <time>2020-12-06T10:41:40.893000+00:00</time>
      </trkpt>
      <trkpt lat="47.30119" lon="-1.39845">
        <ele>49</ele>
        <time>2020-12-06T10:41:41.847000+00:00</time>
      </trkpt>
      <trkpt lat="0" lon="0">
        <time>2020-12-06T10:41:41.857000+00:00</time>
      </trkpt>
      <trkpt lat="0" lon="0">
        <time>2020-12-06T10:41:41.859000+00:00</time>
      </trkpt>
      <trkpt lat="47.30118" lon="-1.39841">
        <ele>49</ele>
        <time>2020-12-06T10:41:42.869000+00:00</time>
      </trkpt>
      <trkpt lat="0" lon="0">
        <time>2020-12-06T10:41:42.878000+00:00</time>
      </trkpt>
      <trkpt lat="0" lon="0">
        <time>2020-12-06T10:41:42.882000+00:00</time>
      </trkpt>
      <trkpt lat="0" lon="0">
        <time>2020-12-06T10:41:42.890000+00:00</time>
      </trkpt>
      <trkpt lat="47.30116" lon="-1.39837">
        <ele>49</ele>
        <time>2020-12-06T10:41:43.877000+00:00</time>
      </trkpt>
      <trkpt lat="0" lon="0">
        <time>2020-12-06T10:41:43.891000+00:00</time>
      </trkpt>
      <trkpt lat="0" lon="0">
        <time>2020-12-06T10:41:43.897000+00:00</time>
      </trkpt>
      <trkpt lat="0" lon="0">
        <time>2020-12-06T10:41:43.898000+00:00</time>
      </trkpt>
      <trkpt lat="47.30113" lon="-1.39833">
        <ele>50</ele>
        <time>2020-12-06T10:41:44.884000+00:00</time>
      </trkpt>
      <trkpt lat="0" lon="0">
        <time>2020-12-06T10:41:44.891000+00:00</time>
      </trkpt>
      <trkpt lat="0" lon="0">
        <time>2020-12-06T10:41:44.893000+00:00</time>
      </trkpt>
      <trkpt lat="0" lon="0">
        <time>2020-12-06T10:41:44.895000+00:00</time>
      </trkpt>
      <trkpt lat="47.30109" lon="-1.39829">
        <ele>50</ele>
        <time>2020-12-06T10:41:45.867000+00:00</time>
      </trkpt>
      <trkpt lat="0" lon="0">
        <time>2020-12-06T10:41:45.883000+00:00</time>
      </trkpt>
      <trkpt lat="0" lon="0">
        <time>2020-12-06T10:41:45.892000+00:00</time>
      </trkpt>
      <trkpt lat="0" lon="0">
        <time>2020-12-06T10:41:45.894000+00:00</time>
      </trkpt>
      <trkpt lat="47.30104" lon="-1.39825">
        <ele>50</ele>
        <time>2020-12-06T10:41:46.853000+00:00</time>
      </trkpt>
      <trkpt lat="0" lon="0">
        <time>2020-12-06T10:41:46.855000+00:00</time>
      </trkpt>
      <trkpt lat="0" lon="0">
        <time>2020-12-06T10:41:46.856000+00:00</time>
      </trkpt>
      <trkpt lat="0" lon="0">
        <time>2020-12-06T10:41:46.857000+00:00</time>
      </trkpt>
      <trkpt lat="47.30099" lon="-1.39821">
        <ele>50</ele>
        <time>2020-12-06T10:41:47.863000+00:00</time>
      </trkpt>
      <trkpt lat="0" lon="0">
        <time>2020-12-06T10:41:47.868000+00:00</time>
      </trkpt>
      <trkpt lat="0" lon="0">
        <time>2020-12-06T10:41:47.872000+00:00</time>
      </trkpt>
      <trkpt lat="0" lon="0">
        <time>2020-12-06T10:41:47.874000+00:00</time>
      </trkpt>
      <trkpt lat="47.30093" lon="-1.39816">
        <ele>50</ele>
        <time>2020-12-06T10:41:48.841000+00:00</time>
      </trkpt>
      <trkpt lat="0" lon="0">
        <time>2020-12-06T10:41:48.845000+00:00</time>
      </trkpt>
      <trkpt lat="0" lon="0">
        <time>2020-12-06T10:41:48.851000+00:00</time>
      </trkpt>
      <trkpt lat="0" lon="0">
        <time>2020-12-06T10:41:48.856000+00:00</time>
      </trkpt>
      <trkpt lat="47.30083" lon="-1.39805">
        <ele>50</ele>
        <time>2020-12-06T10:41:50.853000+00:00</time>
      </trkpt>
      <trkpt lat="0" lon="0">
        <time>2020-12-06T10:41:50.864000+00:00</time>
      </trkpt>
      <trkpt lat="0" lon="0">
        <time>2020-12-06T10:41:50.868000+00:00</time>
      </trkpt>
      <trkpt lat="0" lon="0">
        <time>2020-12-06T10:41:50.874000+00:00</time>
      </trkpt>
      <trkpt lat="47.30076" lon="-1.39799">
        <ele>49</ele>
        <time>2020-12-06T10:41:51.837000+00:00</time>
      </trkpt>
      <trkpt lat="0" lon="0">
        <time>2020-12-06T10:41:51.851000+00:00</time>
      </trkpt>
      <trkpt lat="0" lon="0">
        <time>2020-12-06T10:41:51.855000+00:00</time>
      </trkpt>
      <trkpt lat="0" lon="0">
        <time>2020-12-06T10:41:51.857000+00:00</time>
      </trkpt>
      <trkpt lat="47.3007" lon="-1.39791">
        <ele>49</ele>
        <time>2020-12-06T10:41:52.878000+00:00</time>
      </trkpt>
      <trkpt lat="0" lon="0">
        <time>2020-12-06T10:41:52.886000+00:00</time>
      </trkpt>
      <trkpt lat="0" lon="0">
        <time>2020-12-06T10:41:52.887000+00:00</time>
      </trkpt>
      <trkpt lat="0" lon="0">
        <time>2020-12-06T10:41:52.889000+00:00</time>
      </trkpt>
      <trkpt lat="47.30065" lon="-1.39784">
        <ele>49</ele>
        <time>2020-12-06T10:41:53.858000+00:00</time>
      </trkpt>
      <trkpt lat="0" lon="0">
        <time>2020-12-06T10:41:53.881000+00:00</time>
      </trkpt>
      <trkpt lat="0" lon="0">
        <time>2020-12-06T10:41:53.883000+00:00</time>
      </trkpt>
      <trkpt lat="0" lon="0">
        <time>2020-12-06T10:41:53.885000+00:00</time>
      </trkpt>
      <trkpt lat="47.30061" lon="-1.39776">
        <ele>49</ele>
        <time>2020-12-06T10:41:54.863000+00:00</time>
      </trkpt>
      <trkpt lat="0" lon="0">
        <time>2020-12-06T10:41:54.866000+00:00</time>
      </trkpt>
      <trkpt lat="0" lon="0">
        <time>2020-12-06T10:41:54.874000+00:00</time>
      </trkpt>
      <trkpt lat="0" lon="0">
        <time>2020-12-06T10:41:54.877000+00:00</time>
      </trkpt>
      <trkpt lat="47.30057" lon="-1.39768">
        <ele>49</ele>
        <time>2020-12-06T10:41:55.909000+00:00</time>
      </trkpt>
      <trkpt lat="0" lon="0">
        <time>2020-12-06T10:41:55.912000+00:00</time>
      </trkpt>
      <trkpt lat="0" lon="0">
        <time>2020-12-06T10:41:55.915000+00:00</time>
      </trkpt>
      <trkpt lat="0" lon="0">
        <time>2020-12-06T10:41:55.921000+00:00</time>
      </trkpt>
      <trkpt lat="47.30054" lon="-1.39761">
        <ele>49</ele>
        <time>2020-12-06T10:41:56.846000+00:00</time>
      </trkpt>
      <trkpt lat="0" lon="0">
        <time>2020-12-06T10:41:56.854000+00:00</time>
      </trkpt>
      <trkpt lat="0" lon="0">
        <time>2020-12-06T10:41:56.864000+00:00</time>
      </trkpt>
      <trkpt lat="0" lon="0">
        <time>2020-12-06T10:41:56.868000+00:00</time>
      </trkpt>
      <trkpt lat="47.30051" lon="-1.39754">
        <ele>49</ele>
        <time>2020-12-06T10:41:57.892000+00:00</time>
      </trkpt>
      <trkpt lat="0" lon="0">
        <time>2020-12-06T10:41:57.897000+00:00</time>
      </trkpt>
      <trkpt lat="0" lon="0">
        <time>2020-12-06T10:41:57.899000+00:00</time>
      </trkpt>
      <trkpt lat="47.30047" lon="-1.39747">
        <ele>48</ele>
        <time>2020-12-06T10:41:58.879000+00:00</time>
      </trkpt>
      <trkpt lat="0" lon="0">
        <time>2020-12-06T10:41:58.882000+00:00</time>
      </trkpt>
      <trkpt lat="0" lon="0">
        <time>2020-12-06T10:41:58.883000+00:00</time>
      </trkpt>
      <trkpt lat="0" lon="0">
        <time>2020-12-06T10:41:58.884000+00:00</time>
      </trkpt>
      <trkpt lat="47.30044" lon="-1.39741">
        <ele>48</ele>
        <time>2020-12-06T10:41:59.839000+00:00</time>
      </trkpt>
      <trkpt lat="0" lon="0">
        <time>2020-12-06T10:41:59.847000+00:00</time>
      </trkpt>
      <trkpt lat="0" lon="0">
        <time>2020-12-06T10:41:59.848000+00:00</time>
      </trkpt>
      <trkpt lat="0" lon="0">
        <time>2020-12-06T10:41:59.849000+00:00</time>
      </trkpt>
      <trkpt lat="47.30041" lon="-1.39736">
        <ele>48</ele>
        <time>2020-12-06T10:42:00.861000+00:00</time>
      </trkpt>
      <trkpt lat="0" lon="0">
        <time>2020-12-06T10:42:00.868000+00:00</time>
      </trkpt>
      <trkpt lat="0" lon="0">
        <time>2020-12-06T10:42:00.872000+00:00</time>
      </trkpt>
      <trkpt lat="0" lon="0">
        <time>2020-12-06T10:42:00.877000+00:00</time>
      </trkpt>
      <trkpt lat="47.30038" lon="-1.39732">
        <ele>47</ele>
        <time>2020-12-06T10:42:01.825000+00:00</time>
      </trkpt>
      <trkpt lat="0" lon="0">
        <time>2020-12-06T10:42:01.826000+00:00</time>
      </trkpt>
      <trkpt lat="0" lon="0">
        <time>2020-12-06T10:42:01.828000+00:00</time>
      </trkpt>
      <trkpt lat="0" lon="0">
        <time>2020-12-06T10:42:01.833000+00:00</time>
      </trkpt>
      <trkpt lat="47.30035" lon="-1.39729">
        <ele>47</ele>
        <time>2020-12-06T10:42:02.850000+00:00</time>
      </trkpt>
      <trkpt lat="0" lon="0">
        <time>2020-12-06T10:42:02.857000+00:00</time>
      </trkpt>
      <trkpt lat="0" lon="0">
        <time>2020-12-06T10:42:02.859000+00:00</time>
      </trkpt>
      <trkpt lat="0" lon="0">
        <time>2020-12-06T10:42:02.860000+00:00</time>
      </trkpt>
      <trkpt lat="47.30033" lon="-1.39725">
        <ele>47</ele>
        <time>2020-12-06T10:42:03.861000+00:00</time>
      </trkpt>
      <trkpt lat="0" lon="0">
        <time>2020-12-06T10:42:03.867000+00:00</time>
      </trkpt>
      <trkpt lat="0" lon="0">
        <time>2020-12-06T10:42:03.873000+00:00</time>
      </trkpt>
      <trkpt lat="0" lon="0">
        <time>2020-12-06T10:42:03.874000+00:00</time>
      </trkpt>
      <trkpt lat="47.30031" lon="-1.39721">
        <ele>47</ele>
        <time>2020-12-06T10:42:04.823000+00:00</time>
      </trkpt>
      <trkpt lat="0" lon="0">
        <time>2020-12-06T10:42:04.826000+00:00</time>
      </trkpt>
      <trkpt lat="0" lon="0">
        <time>2020-12-06T10:42:04.828000+00:00</time>
      </trkpt>
      <trkpt lat="0" lon="0">
        <time>2020-12-06T10:42:04.833000+00:00</time>
      </trkpt>
      <trkpt lat="47.30031" lon="-1.39717">
        <ele>46</ele>
        <time>2020-12-06T10:42:05.863000+00:00</time>
      </trkpt>
      <trkpt lat="0" lon="0">
        <time>2020-12-06T10:42:05.867000+00:00</time>
      </trkpt>
      <trkpt lat="0" lon="0">
        <time>2020-12-06T10:42:05.871000+00:00</time>
      </trkpt>
      <trkpt lat="0" lon="0">
        <time>2020-12-06T10:42:05.872000+00:00</time>
      </trkpt>
      <trkpt lat="47.30032" lon="-1.39713">
        <ele>46</ele>
        <time>2020-12-06T10:42:06.870000+00:00</time>
      </trkpt>
      <trkpt lat="0" lon="0">
        <time>2020-12-06T10:42:06.874000+00:00</time>
      </trkpt>
      <trkpt lat="0" lon="0">
        <time>2020-12-06T10:42:06.879000+00:00</time>
      </trkpt>
      <trkpt lat="0" lon="0">
        <time>2020-12-06T10:42:06.880000+00:00</time>
      </trkpt>
      <trkpt lat="47.30034" lon="-1.39709">
        <ele>46</ele>
        <time>2020-12-06T10:42:07.862000+00:00</time>
      </trkpt>
      <trkpt lat="0" lon="0">
        <time>2020-12-06T10:42:07.863000+00:00</time>
      </trkpt>
      <trkpt lat="0" lon="0">
        <time>2020-12-06T10:42:07.865000+00:00</time>
      </trkpt>
      <trkpt lat="0" lon="0">
        <time>2020-12-06T10:42:07.866000+00:00</time>
      </trkpt>
      <trkpt lat="47.30037" lon="-1.39704">
        <ele>46</ele>
        <time>2020-12-06T10:42:08.866000+00:00</time>
      </trkpt>
      <trkpt lat="0" lon="0">
        <time>2020-12-06T10:42:08.868000+00:00</time>
      </trkpt>
      <trkpt lat="0" lon="0">
        <time>2020-12-06T10:42:08.869000+00:00</time>
      </trkpt>
      <trkpt lat="0" lon="0">
        <time>2020-12-06T10:42:08.870000+00:00</time>
      </trkpt>
      <trkpt lat="47.3004" lon="-1.39699">
        <ele>46</ele>
        <time>2020-12-06T10:42:09.918000+00:00</time>
      </trkpt>
      <trkpt lat="0" lon="0">
        <time>2020-12-06T10:42:09.922000+00:00</time>
      </trkpt>
      <trkpt lat="0" lon="0">
        <time>2020-12-06T10:42:09.924000+00:00</time>
      </trkpt>
      <trkpt lat="0" lon="0">
        <time>2020-12-06T10:42:09.927000+00:00</time>
      </trkpt>
      <trkpt lat="47.30044" lon="-1.39694">
        <ele>46</ele>
        <time>2020-12-06T10:42:10.920000+00:00</time>
      </trkpt>
      <trkpt lat="0" lon="0">
        <time>2020-12-06T10:42:10.921000+00:00</time>
      </trkpt>
      <trkpt lat="0" lon="0">
        <time>2020-12-06T10:42:10.922000+00:00</time>
      </trkpt>
      <trkpt lat="47.30049" lon="-1.39689">
        <ele>45</ele>
        <time>2020-12-06T10:42:11.928000+00:00</time>
      </trkpt>
      <trkpt lat="0" lon="0">
        <time>2020-12-06T10:42:11.933000+00:00</time>
      </trkpt>
      <trkpt lat="0" lon="0">
        <time>2020-12-06T10:42:11.935000+00:00</time>
      </trkpt>
      <trkpt lat="0" lon="0">
        <time>2020-12-06T10:42:11.936000+00:00</time>
      </trkpt>
      <trkpt lat="47.30052" lon="-1.39684">
        <ele>45</ele>
        <time>2020-12-06T10:42:12.926000+00:00</time>
      </trkpt>
      <trkpt lat="0" lon="0">
        <time>2020-12-06T10:42:12.936000+00:00</time>
      </trkpt>
      <trkpt lat="0" lon="0">
        <time>2020-12-06T10:42:12.943000+00:00</time>
      </trkpt>
      <trkpt lat="0" lon="0">
        <time>2020-12-06T10:42:12.945000+00:00</time>
      </trkpt>
      <trkpt lat="47.30055" lon="-1.39678">
        <ele>45</ele>
        <time>2020-12-06T10:42:13.856000+00:00</time>
      </trkpt>
      <trkpt lat="0" lon="0">
        <time>2020-12-06T10:42:13.858000+00:00</time>
      </trkpt>
      <trkpt lat="0" lon="0">
        <time>2020-12-06T10:42:13.859000+00:00</time>
      </trkpt>
      <trkpt lat="47.30058" lon="-1.39671">
        <ele>45</ele>
        <time>2020-12-06T10:42:14.871000+00:00</time>
      </trkpt>
      <trkpt lat="0" lon="0">
        <time>2020-12-06T10:42:14.878000+00:00</time>
      </trkpt>
      <trkpt lat="0" lon="0">
        <time>2020-12-06T10:42:14.880000+00:00</time>
      </trkpt>
      <trkpt lat="0" lon="0">
        <time>2020-12-06T10:42:14.882000+00:00</time>
      </trkpt>
      <trkpt lat="47.30058" lon="-1.39665">
        <ele>45</ele>
        <time>2020-12-06T10:42:15.863000+00:00</time>
      </trkpt>
      <trkpt lat="0" lon="0">
        <time>2020-12-06T10:42:15.871000+00:00</time>
      </trkpt>
      <trkpt lat="0" lon="0">
        <time>2020-12-06T10:42:15.875000+00:00</time>
      </trkpt>
      <trkpt lat="0" lon="0">
        <time>2020-12-06T10:42:15.879000+00:00</time>
      </trkpt>
      <trkpt lat="47.30058" lon="-1.39659">
        <ele>44</ele>
        <time>2020-12-06T10:42:16.875000+00:00</time>
      </trkpt>
      <trkpt lat="0" lon="0">
        <time>2020-12-06T10:42:16.886000+00:00</time>
      </trkpt>
      <trkpt lat="0" lon="0">
        <time>2020-12-06T10:42:16.890000+00:00</time>
      </trkpt>
      <trkpt lat="0" lon="0">
        <time>2020-12-06T10:42:16.893000+00:00</time>
      </trkpt>
      <trkpt lat="47.30056" lon="-1.39653">
        <ele>44</ele>
        <time>2020-12-06T10:42:17.871000+00:00</time>
      </trkpt>
      <trkpt lat="0" lon="0">
        <time>2020-12-06T10:42:17.874000+00:00</time>
      </trkpt>
      <trkpt lat="0" lon="0">
        <time>2020-12-06T10:42:17.880000+00:00</time>
      </trkpt>
      <trkpt lat="0" lon="0">
        <time>2020-12-06T10:42:17.882000+00:00</time>
      </trkpt>
      <trkpt lat="47.30052" lon="-1.39647">
        <ele>44</ele>
        <time>2020-12-06T10:42:18.869000+00:00</time>
      </trkpt>
      <trkpt lat="0" lon="0">
        <time>2020-12-06T10:42:18.876000+00:00</time>
      </trkpt>
      <trkpt lat="0" lon="0">
        <time>2020-12-06T10:42:18.878000+00:00</time>
      </trkpt>
      <trkpt lat="0" lon="0">
        <time>2020-12-06T10:42:18.884000+00:00</time>
      </trkpt>
      <trkpt lat="47.30047" lon="-1.39641">
        <ele>44</ele>
        <time>2020-12-06T10:42:19.885000+00:00</time>
      </trkpt>
      <trkpt lat="0" lon="0">
        <time>2020-12-06T10:42:19.886000+00:00</time>
      </trkpt>
      <trkpt lat="0" lon="0">
        <time>2020-12-06T10:42:19.888000+00:00</time>
      </trkpt>
      <trkpt lat="0" lon="0">
        <time>2020-12-06T10:42:19.889000+00:00</time>
      </trkpt>
      <trkpt lat="47.30041" lon="-1.39635">
        <ele>44</ele>
        <time>2020-12-06T10:42:20.873000+00:00</time>
      </trkpt>
      <trkpt lat="0" lon="0">
        <time>2020-12-06T10:42:20.876000+00:00</time>
      </trkpt>
      <trkpt lat="0" lon="0">
        <time>2020-12-06T10:42:20.878000+00:00</time>
      </trkpt>
      <trkpt lat="0" lon="0">
        <time>2020-12-06T10:42:20.879000+00:00</time>
      </trkpt>
      <trkpt lat="47.30034" lon="-1.39628">
        <ele>43</ele>
        <time>2020-12-06T10:42:21.916000+00:00</time>
      </trkpt>
      <trkpt lat="0" lon="0">
        <time>2020-12-06T10:42:21.922000+00:00</time>
      </trkpt>
      <trkpt lat="0" lon="0">
        <time>2020-12-06T10:42:21.923000+00:00</time>
      </trkpt>
      <trkpt lat="0" lon="0">
        <time>2020-12-06T10:42:21.924000+00:00</time>
      </trkpt>
      <trkpt lat="47.30027" lon="-1.39621">
        <ele>43</ele>
        <time>2020-12-06T10:42:22.859000+00:00</time>
      </trkpt>
      <trkpt lat="0" lon="0">
        <time>2020-12-06T10:42:22.877000+00:00</time>
      </trkpt>
      <trkpt lat="0" lon="0">
        <time>2020-12-06T10:42:22.878000+00:00</time>
      </trkpt>
      <trkpt lat="0" lon="0">
        <time>2020-12-06T10:42:22.879000+00:00</time>
      </trkpt>
      <trkpt lat="47.30018" lon="-1.39615">
        <ele>43</ele>
        <time>2020-12-06T10:42:23.892000+00:00</time>
      </trkpt>
      <trkpt lat="0" lon="0">
        <time>2020-12-06T10:42:23.896000+00:00</time>
      </trkpt>
      <trkpt lat="0" lon="0">
        <time>2020-12-06T10:42:23.902000+00:00</time>
      </trkpt>
      <trkpt lat="0" lon="0">
        <time>2020-12-06T10:42:23.907000+00:00</time>
      </trkpt>
      <trkpt lat="47.3001" lon="-1.39608">
        <ele>42</ele>
        <time>2020-12-06T10:42:24.898000+00:00</time>
      </trkpt>
      <trkpt lat="0" lon="0">
        <time>2020-12-06T10:42:24.901000+00:00</time>
      </trkpt>
      <trkpt lat="0" lon="0">
        <time>2020-12-06T10:42:24.903000+00:00</time>
      </trkpt>
      <trkpt lat="0" lon="0">
        <time>2020-12-06T10:42:24.904000+00:00</time>
      </trkpt>
      <trkpt lat="47.30001" lon="-1.39602">
        <ele>42</ele>
        <time>2020-12-06T10:42:25.897000+00:00</time>
      </trkpt>
      <trkpt lat="0" lon="0">
        <time>2020-12-06T10:42:25.909000+00:00</time>
      </trkpt>
      <trkpt lat="0" lon="0">
        <time>2020-12-06T10:42:25.913000+00:00</time>
      </trkpt>
      <trkpt lat="0" lon="0">
        <time>2020-12-06T10:42:25.914000+00:00</time>
      </trkpt>
      <trkpt lat="47.29993" lon="-1.39596">
        <ele>42</ele>
        <time>2020-12-06T10:42:26.897000+00:00</time>
      </trkpt>
      <trkpt lat="0" lon="0">
        <time>2020-12-06T10:42:26.900000+00:00</time>
      </trkpt>
      <trkpt lat="0" lon="0">
        <time>2020-12-06T10:42:26.908000+00:00</time>
      </trkpt>
      <trkpt lat="0" lon="0">
        <time>2020-12-06T10:42:26.910000+00:00</time>
      </trkpt>
      <trkpt lat="47.29985" lon="-1.3959">
        <ele>41</ele>
        <time>2020-12-06T10:42:27.898000+00:00</time>
      </trkpt>
      <trkpt lat="0" lon="0">
        <time>2020-12-06T10:42:27.902000+00:00</time>
      </trkpt>
      <trkpt lat="0" lon="0">
        <time>2020-12-06T10:42:27.913000+00:00</time>
      </trkpt>
      <trkpt lat="0" lon="0">
        <time>2020-12-06T10:42:27.915000+00:00</time>
      </trkpt>
      <trkpt lat="47.29977" lon="-1.39585">
        <ele>41</ele>
        <time>2020-12-06T10:42:28.879000+00:00</time>
      </trkpt>
      <trkpt lat="0" lon="0">
        <time>2020-12-06T10:42:28.895000+00:00</time>
      </trkpt>
      <trkpt lat="0" lon="0">
        <time>2020-12-06T10:42:28.898000+00:00</time>
      </trkpt>
      <trkpt lat="0" lon="0">
        <time>2020-12-06T10:42:28.904000+00:00</time>
      </trkpt>
      <trkpt lat="47.29971" lon="-1.3958">
        <ele>41</ele>
        <time>2020-12-06T10:42:29.899000+00:00</time>
      </trkpt>
      <trkpt lat="0" lon="0">
        <time>2020-12-06T10:42:29.913000+00:00</time>
      </trkpt>
      <trkpt lat="0" lon="0">
        <time>2020-12-06T10:42:29.920000+00:00</time>
      </trkpt>
      <trkpt lat="0" lon="0">
        <time>2020-12-06T10:42:29.924000+00:00</time>
      </trkpt>
      <trkpt lat="47.29964" lon="-1.39575">
        <ele>41</ele>
        <time>2020-12-06T10:42:30.867000+00:00</time>
      </trkpt>
      <trkpt lat="0" lon="0">
        <time>2020-12-06T10:42:30.871000+00:00</time>
      </trkpt>
      <trkpt lat="0" lon="0">
        <time>2020-12-06T10:42:30.877000+00:00</time>
      </trkpt>
      <trkpt lat="0" lon="0">
        <time>2020-12-06T10:42:30.878000+00:00</time>
      </trkpt>
      <trkpt lat="47.2996" lon="-1.39571">
        <ele>41</ele>
        <time>2020-12-06T10:42:31.910000+00:00</time>
      </trkpt>
      <trkpt lat="0" lon="0">
        <time>2020-12-06T10:42:31.912000+00:00</time>
      </trkpt>
      <trkpt lat="0" lon="0">
        <time>2020-12-06T10:42:31.915000+00:00</time>
      </trkpt>
      <trkpt lat="0" lon="0">
        <time>2020-12-06T10:42:31.922000+00:00</time>
      </trkpt>
      <trkpt lat="47.29956" lon="-1.39567">
        <ele>41</ele>
        <time>2020-12-06T10:42:32.906000+00:00</time>
      </trkpt>
      <trkpt lat="0" lon="0">
        <time>2020-12-06T10:42:32.910000+00:00</time>
      </trkpt>
      <trkpt lat="0" lon="0">
        <time>2020-12-06T10:42:32.915000+00:00</time>
      </trkpt>
      <trkpt lat="0" lon="0">
        <time>2020-12-06T10:42:32.922000+00:00</time>
      </trkpt>
      <trkpt lat="47.29953" lon="-1.39564">
        <ele>41</ele>
        <time>2020-12-06T10:42:33.874000+00:00</time>
      </trkpt>
      <trkpt lat="0" lon="0">
        <time>2020-12-06T10:42:33.878000+00:00</time>
      </trkpt>
      <trkpt lat="0" lon="0">
        <time>2020-12-06T10:42:33.890000+00:00</time>
      </trkpt>
      <trkpt lat="0" lon="0">
        <time>2020-12-06T10:42:33.894000+00:00</time>
      </trkpt>
      <trkpt lat="47.29952" lon="-1.39561">
        <ele>41</ele>
        <time>2020-12-06T10:42:34.857000+00:00</time>
      </trkpt>
      <trkpt lat="0" lon="0">
        <time>2020-12-06T10:42:34.861000+00:00</time>
      </trkpt>
      <trkpt lat="0" lon="0">
        <time>2020-12-06T10:42:34.864000+00:00</time>
      </trkpt>
      <trkpt lat="0" lon="0">
        <time>2020-12-06T10:42:34.865000+00:00</time>
      </trkpt>
      <trkpt lat="47.29951" lon="-1.39558">
        <ele>41</ele>
        <time>2020-12-06T10:42:35.899000+00:00</time>
      </trkpt>
      <trkpt lat="0" lon="0">
        <time>2020-12-06T10:42:35.903000+00:00</time>
      </trkpt>
      <trkpt lat="0" lon="0">
        <time>2020-12-06T10:42:35.909000+00:00</time>
      </trkpt>
      <trkpt lat="0" lon="0">
        <time>2020-12-06T10:42:35.912000+00:00</time>
      </trkpt>
      <trkpt lat="47.29951" lon="-1.39555">
        <ele>41</ele>
        <time>2020-12-06T10:42:36.894000+00:00</time>
      </trkpt>
      <trkpt lat="0" lon="0">
        <time>2020-12-06T10:42:36.906000+00:00</time>
      </trkpt>
      <trkpt lat="0" lon="0">
        <time>2020-12-06T10:42:36.910000+00:00</time>
      </trkpt>
      <trkpt lat="0" lon="0">
        <time>2020-12-06T10:42:36.912000+00:00</time>
      </trkpt>
      <trkpt lat="47.29951" lon="-1.39551">
        <ele>41</ele>
        <time>2020-12-06T10:42:37.925000+00:00</time>
      </trkpt>
      <trkpt lat="0" lon="0">
        <time>2020-12-06T10:42:37.927000+00:00</time>
      </trkpt>
      <trkpt lat="0" lon="0">
        <time>2020-12-06T10:42:37.929000+00:00</time>
      </trkpt>
      <trkpt lat="0" lon="0">
        <time>2020-12-06T10:42:37.930000+00:00</time>
      </trkpt>
      <trkpt lat="47.29952" lon="-1.39548">
        <ele>41</ele>
        <time>2020-12-06T10:42:38.893000+00:00</time>
      </trkpt>
      <trkpt lat="0" lon="0">
        <time>2020-12-06T10:42:38.898000+00:00</time>
      </trkpt>
      <trkpt lat="0" lon="0">
        <time>2020-12-06T10:42:38.911000+00:00</time>
      </trkpt>
      <trkpt lat="0" lon="0">
        <time>2020-12-06T10:42:38.921000+00:00</time>
      </trkpt>
      <trkpt lat="47.29953" lon="-1.39545">
        <ele>42</ele>
        <time>2020-12-06T10:42:39.890000+00:00</time>
      </trkpt>
      <trkpt lat="0" lon="0">
        <time>2020-12-06T10:42:39.906000+00:00</time>
      </trkpt>
      <trkpt lat="0" lon="0">
        <time>2020-12-06T10:42:39.908000+00:00</time>
      </trkpt>
      <trkpt lat="0" lon="0">
        <time>2020-12-06T10:42:39.909000+00:00</time>
      </trkpt>
      <trkpt lat="47.29954" lon="-1.39542">
        <ele>42</ele>
        <time>2020-12-06T10:42:40.902000+00:00</time>
      </trkpt>
      <trkpt lat="0" lon="0">
        <time>2020-12-06T10:42:40.903000+00:00</time>
      </trkpt>
      <trkpt lat="0" lon="0">
        <time>2020-12-06T10:42:40.907000+00:00</time>
      </trkpt>
      <trkpt lat="0" lon="0">
        <time>2020-12-06T10:42:40.913000+00:00</time>
      </trkpt>
      <trkpt lat="47.29955" lon="-1.39539">
        <ele>42</ele>
        <time>2020-12-06T10:42:41.878000+00:00</time>
      </trkpt>
      <trkpt lat="0" lon="0">
        <time>2020-12-06T10:42:41.883000+00:00</time>
      </trkpt>
      <trkpt lat="0" lon="0">
        <time>2020-12-06T10:42:41.887000+00:00</time>
      </trkpt>
      <trkpt lat="0" lon="0">
        <time>2020-12-06T10:42:41.890000+00:00</time>
      </trkpt>
      <trkpt lat="47.29956" lon="-1.39536">
        <ele>42</ele>
        <time>2020-12-06T10:42:42.895000+00:00</time>
      </trkpt>
      <trkpt lat="0" lon="0">
        <time>2020-12-06T10:42:42.898000+00:00</time>
      </trkpt>
      <trkpt lat="0" lon="0">
        <time>2020-12-06T10:42:42.902000+00:00</time>
      </trkpt>
      <trkpt lat="0" lon="0">
        <time>2020-12-06T10:42:42.904000+00:00</time>
      </trkpt>
      <trkpt lat="47.29958" lon="-1.39532">
        <ele>42</ele>
        <time>2020-12-06T10:42:43.911000+00:00</time>
      </trkpt>
      <trkpt lat="0" lon="0">
        <time>2020-12-06T10:42:43.913000+00:00</time>
      </trkpt>
      <trkpt lat="0" lon="0">
        <time>2020-12-06T10:42:43.918000+00:00</time>
      </trkpt>
      <trkpt lat="47.2996" lon="-1.39529">
        <ele>42</ele>
        <time>2020-12-06T10:42:44.893000+00:00</time>
      </trkpt>
      <trkpt lat="0" lon="0">
        <time>2020-12-06T10:42:44.901000+00:00</time>
      </trkpt>
      <trkpt lat="0" lon="0">
        <time>2020-12-06T10:42:44.905000+00:00</time>
      </trkpt>
      <trkpt lat="0" lon="0">
        <time>2020-12-06T10:42:44.907000+00:00</time>
      </trkpt>
      <trkpt lat="47.29962" lon="-1.39526">
        <ele>42</ele>
        <time>2020-12-06T10:42:45.905000+00:00</time>
      </trkpt>
      <trkpt lat="0" lon="0">
        <time>2020-12-06T10:42:45.908000+00:00</time>
      </trkpt>
      <trkpt lat="0" lon="0">
        <time>2020-12-06T10:42:45.914000+00:00</time>
      </trkpt>
      <trkpt lat="0" lon="0">
        <time>2020-12-06T10:42:45.916000+00:00</time>
      </trkpt>
      <trkpt lat="47.29964" lon="-1.39524">
        <ele>42</ele>
        <time>2020-12-06T10:42:46.903000+00:00</time>
      </trkpt>
      <trkpt lat="0" lon="0">
        <time>2020-12-06T10:42:46.911000+00:00</time>
      </trkpt>
      <trkpt lat="0" lon="0">
        <time>2020-12-06T10:42:46.917000+00:00</time>
      </trkpt>
      <trkpt lat="0" lon="0">
        <time>2020-12-06T10:42:46.919000+00:00</time>
      </trkpt>
      <trkpt lat="47.29967" lon="-1.39522">
        <ele>42</ele>
        <time>2020-12-06T10:42:47.840000+00:00</time>
      </trkpt>
      <trkpt lat="0" lon="0">
        <time>2020-12-06T10:42:47.843000+00:00</time>
      </trkpt>
      <trkpt lat="0" lon="0">
        <time>2020-12-06T10:42:47.846000+00:00</time>
      </trkpt>
      <trkpt lat="0" lon="0">
        <time>2020-12-06T10:42:47.847000+00:00</time>
      </trkpt>
      <trkpt lat="47.2997" lon="-1.39521">
        <ele>42</ele>
        <time>2020-12-06T10:42:48.895000+00:00</time>
      </trkpt>
      <trkpt lat="0" lon="0">
        <time>2020-12-06T10:42:48.899000+00:00</time>
      </trkpt>
      <trkpt lat="0" lon="0">
        <time>2020-12-06T10:42:48.906000+00:00</time>
      </trkpt>
      <trkpt lat="0" lon="0">
        <time>2020-12-06T10:42:48.908000+00:00</time>
      </trkpt>
      <trkpt lat="47.29972" lon="-1.3952">
        <ele>42</ele>
        <time>2020-12-06T10:42:49.893000+00:00</time>
      </trkpt>
      <trkpt lat="0" lon="0">
        <time>2020-12-06T10:42:49.907000+00:00</time>
      </trkpt>
      <trkpt lat="0" lon="0">
        <time>2020-12-06T10:42:49.911000+00:00</time>
      </trkpt>
      <trkpt lat="0" lon="0">
        <time>2020-12-06T10:42:49.914000+00:00</time>
      </trkpt>
      <trkpt lat="47.29975" lon="-1.39519">
        <ele>42</ele>
        <time>2020-12-06T10:42:50.887000+00:00</time>
      </trkpt>
      <trkpt lat="0" lon="0">
        <time>2020-12-06T10:42:50.890000+00:00</time>
      </trkpt>
      <trkpt lat="0" lon="0">
        <time>2020-12-06T10:42:50.897000+00:00</time>
      </trkpt>
      <trkpt lat="0" lon="0">
        <time>2020-12-06T10:42:50.898000+00:00</time>
      </trkpt>
      <trkpt lat="47.29978" lon="-1.39518">
        <ele>42</ele>
        <time>2020-12-06T10:42:51.871000+00:00</time>
      </trkpt>
      <trkpt lat="0" lon="0">
        <time>2020-12-06T10:42:51.875000+00:00</time>
      </trkpt>
      <trkpt lat="0" lon="0">
        <time>2020-12-06T10:42:51.892000+00:00</time>
      </trkpt>
      <trkpt lat="0" lon="0">
        <time>2020-12-06T10:42:51.894000+00:00</time>
      </trkpt>
      <trkpt lat="47.2998" lon="-1.39517">
        <ele>42</ele>
        <time>2020-12-06T10:42:52.908000+00:00</time>
      </trkpt>
      <trkpt lat="0" lon="0">
        <time>2020-12-06T10:42:52.920000+00:00</time>
      </trkpt>
      <trkpt lat="0" lon="0">
        <time>2020-12-06T10:42:52.922000+00:00</time>
      </trkpt>
      <trkpt lat="0" lon="0">
        <time>2020-12-06T10:42:52.923000+00:00</time>
      </trkpt>
      <trkpt lat="47.29983" lon="-1.39516">
        <ele>42</ele>
        <time>2020-12-06T10:42:53.908000+00:00</time>
      </trkpt>
      <trkpt lat="0" lon="0">
        <time>2020-12-06T10:42:53.918000+00:00</time>
      </trkpt>
      <trkpt lat="0" lon="0">
        <time>2020-12-06T10:42:53.923000+00:00</time>
      </trkpt>
      <trkpt lat="0" lon="0">
        <time>2020-12-06T10:42:53.925000+00:00</time>
      </trkpt>
      <trkpt lat="47.29985" lon="-1.39515">
        <ele>42</ele>
        <time>2020-12-06T10:42:54.893000+00:00</time>
      </trkpt>
      <trkpt lat="0" lon="0">
        <time>2020-12-06T10:42:54.895000+00:00</time>
      </trkpt>
      <trkpt lat="0" lon="0">
        <time>2020-12-06T10:42:54.896000+00:00</time>
      </trkpt>
      <trkpt lat="0" lon="0">
        <time>2020-12-06T10:42:54.901000+00:00</time>
      </trkpt>
      <trkpt lat="47.29988" lon="-1.39514">
        <ele>42</ele>
        <time>2020-12-06T10:42:55.892000+00:00</time>
      </trkpt>
      <trkpt lat="0" lon="0">
        <time>2020-12-06T10:42:55.894000+00:00</time>
      </trkpt>
      <trkpt lat="0" lon="0">
        <time>2020-12-06T10:42:55.898000+00:00</time>
      </trkpt>
      <trkpt lat="0" lon="0">
        <time>2020-12-06T10:42:55.899000+00:00</time>
      </trkpt>
      <trkpt lat="47.2999" lon="-1.39513">
        <ele>42</ele>
        <time>2020-12-06T10:42:56.890000+00:00</time>
      </trkpt>
      <trkpt lat="0" lon="0">
        <time>2020-12-06T10:42:56.894000+00:00</time>
      </trkpt>
      <trkpt lat="0" lon="0">
        <time>2020-12-06T10:42:56.907000+00:00</time>
      </trkpt>
      <trkpt lat="0" lon="0">
        <time>2020-12-06T10:42:56.909000+00:00</time>
      </trkpt>
      <trkpt lat="47.29993" lon="-1.39513">
        <ele>42</ele>
        <time>2020-12-06T10:42:57.897000+00:00</time>
      </trkpt>
      <trkpt lat="0" lon="0">
        <time>2020-12-06T10:42:57.907000+00:00</time>
      </trkpt>
      <trkpt lat="0" lon="0">
        <time>2020-12-06T10:42:57.913000+00:00</time>
      </trkpt>
      <trkpt lat="0" lon="0">
        <time>2020-12-06T10:42:57.918000+00:00</time>
      </trkpt>
      <trkpt lat="47.29995" lon="-1.39513">
        <ele>42</ele>
        <time>2020-12-06T10:42:58.911000+00:00</time>
      </trkpt>
      <trkpt lat="0" lon="0">
        <time>2020-12-06T10:42:58.918000+00:00</time>
      </trkpt>
      <trkpt lat="0" lon="0">
        <time>2020-12-06T10:42:58.927000+00:00</time>
      </trkpt>
      <trkpt lat="0" lon="0">
        <time>2020-12-06T10:42:58.930000+00:00</time>
      </trkpt>
      <trkpt lat="47.29997" lon="-1.39513">
        <ele>42</ele>
        <time>2020-12-06T10:42:59.924000+00:00</time>
      </trkpt>
      <trkpt lat="0" lon="0">
        <time>2020-12-06T10:42:59.926000+00:00</time>
      </trkpt>
      <trkpt lat="0" lon="0">
        <time>2020-12-06T10:42:59.932000+00:00</time>
      </trkpt>
      <trkpt lat="0" lon="0">
        <time>2020-12-06T10:42:59.933000+00:00</time>
      </trkpt>
      <trkpt lat="47.29999" lon="-1.39514">
        <ele>42</ele>
        <time>2020-12-06T10:43:00.909000+00:00</time>
      </trkpt>
      <trkpt lat="0" lon="0">
        <time>2020-12-06T10:43:00.913000+00:00</time>
      </trkpt>
      <trkpt lat="0" lon="0">
        <time>2020-12-06T10:43:00.932000+00:00</time>
      </trkpt>
      <trkpt lat="0" lon="0">
        <time>2020-12-06T10:43:00.934000+00:00</time>
      </trkpt>
      <trkpt lat="47.30001" lon="-1.39515">
        <ele>42</ele>
        <time>2020-12-06T10:43:01.884000+00:00</time>
      </trkpt>
      <trkpt lat="0" lon="0">
        <time>2020-12-06T10:43:01.888000+00:00</time>
      </trkpt>
      <trkpt lat="0" lon="0">
        <time>2020-12-06T10:43:01.891000+00:00</time>
      </trkpt>
      <trkpt lat="0" lon="0">
        <time>2020-12-06T10:43:01.896000+00:00</time>
      </trkpt>
      <trkpt lat="47.30004" lon="-1.39516">
        <ele>42</ele>
        <time>2020-12-06T10:43:03.147000+00:00</time>
      </trkpt>
      <trkpt lat="0" lon="0">
        <time>2020-12-06T10:43:03.169000+00:00</time>
      </trkpt>
      <trkpt lat="0" lon="0">
        <time>2020-12-06T10:43:03.178000+00:00</time>
      </trkpt>
      <trkpt lat="0" lon="0">
        <time>2020-12-06T10:43:03.181000+00:00</time>
      </trkpt>
      <trkpt lat="47.30006" lon="-1.39517">
        <ele>42</ele>
        <time>2020-12-06T10:43:03.882000+00:00</time>
      </trkpt>
      <trkpt lat="0" lon="0">
        <time>2020-12-06T10:43:03.886000+00:00</time>
      </trkpt>
      <trkpt lat="0" lon="0">
        <time>2020-12-06T10:43:03.889000+00:00</time>
      </trkpt>
      <trkpt lat="0" lon="0">
        <time>2020-12-06T10:43:03.891000+00:00</time>
      </trkpt>
      <trkpt lat="47.30008" lon="-1.39518">
        <ele>42</ele>
        <time>2020-12-06T10:43:04.911000+00:00</time>
      </trkpt>
      <trkpt lat="0" lon="0">
        <time>2020-12-06T10:43:04.914000+00:00</time>
      </trkpt>
      <trkpt lat="0" lon="0">
        <time>2020-12-06T10:43:04.918000+00:00</time>
      </trkpt>
      <trkpt lat="0" lon="0">
        <time>2020-12-06T10:43:04.922000+00:00</time>
      </trkpt>
      <trkpt lat="47.3001" lon="-1.39518">
        <ele>43</ele>
        <time>2020-12-06T10:43:05.904000+00:00</time>
      </trkpt>
      <trkpt lat="0" lon="0">
        <time>2020-12-06T10:43:05.918000+00:00</time>
      </trkpt>
      <trkpt lat="0" lon="0">
        <time>2020-12-06T10:43:05.927000+00:00</time>
      </trkpt>
      <trkpt lat="0" lon="0">
        <time>2020-12-06T10:43:05.929000+00:00</time>
      </trkpt>
      <trkpt lat="47.30012" lon="-1.39518">
        <ele>43</ele>
        <time>2020-12-06T10:43:06.835000+00:00</time>
      </trkpt>
      <trkpt lat="0" lon="0">
        <time>2020-12-06T10:43:06.842000+00:00</time>
      </trkpt>
      <trkpt lat="0" lon="0">
        <time>2020-12-06T10:43:06.849000+00:00</time>
      </trkpt>
      <trkpt lat="0" lon="0">
        <time>2020-12-06T10:43:06.851000+00:00</time>
      </trkpt>
      <trkpt lat="47.30014" lon="-1.39518">
        <ele>43</ele>
        <time>2020-12-06T10:43:07.900000+00:00</time>
      </trkpt>
      <trkpt lat="0" lon="0">
        <time>2020-12-06T10:43:07.914000+00:00</time>
      </trkpt>
      <trkpt lat="0" lon="0">
        <time>2020-12-06T10:43:07.918000+00:00</time>
      </trkpt>
      <trkpt lat="0" lon="0">
        <time>2020-12-06T10:43:07.924000+00:00</time>
      </trkpt>
      <trkpt lat="47.30016" lon="-1.39518">
        <ele>43</ele>
        <time>2020-12-06T10:43:08.883000+00:00</time>
      </trkpt>
      <trkpt lat="0" lon="0">
        <time>2020-12-06T10:43:08.894000+00:00</time>
      </trkpt>
      <trkpt lat="0" lon="0">
        <time>2020-12-06T10:43:08.899000+00:00</time>
      </trkpt>
      <trkpt lat="0" lon="0">
        <time>2020-12-06T10:43:08.902000+00:00</time>
      </trkpt>
      <trkpt lat="47.30018" lon="-1.39517">
        <ele>43</ele>
        <time>2020-12-06T10:43:09.866000+00:00</time>
      </trkpt>
      <trkpt lat="0" lon="0">
        <time>2020-12-06T10:43:09.870000+00:00</time>
      </trkpt>
      <trkpt lat="0" lon="0">
        <time>2020-12-06T10:43:09.873000+00:00</time>
      </trkpt>
      <trkpt lat="0" lon="0">
        <time>2020-12-06T10:43:09.874000+00:00</time>
      </trkpt>
      <trkpt lat="47.3002" lon="-1.39517">
        <ele>43</ele>
        <time>2020-12-06T10:43:10.905000+00:00</time>
      </trkpt>
      <trkpt lat="0" lon="0">
        <time>2020-12-06T10:43:10.909000+00:00</time>
      </trkpt>
      <trkpt lat="0" lon="0">
        <time>2020-12-06T10:43:10.912000+00:00</time>
      </trkpt>
      <trkpt lat="0" lon="0">
        <time>2020-12-06T10:43:10.913000+00:00</time>
      </trkpt>
      <trkpt lat="47.30023" lon="-1.39516">
        <ele>43</ele>
        <time>2020-12-06T10:43:11.914000+00:00</time>
      </trkpt>
      <trkpt lat="0" lon="0">
        <time>2020-12-06T10:43:11.930000+00:00</time>
      </trkpt>
      <trkpt lat="0" lon="0">
        <time>2020-12-06T10:43:11.934000+00:00</time>
      </trkpt>
      <trkpt lat="0" lon="0">
        <time>2020-12-06T10:43:11.935000+00:00</time>
      </trkpt>
      <trkpt lat="47.30025" lon="-1.39515">
        <ele>43</ele>
        <time>2020-12-06T10:43:12.907000+00:00</time>
      </trkpt>
      <trkpt lat="0" lon="0">
        <time>2020-12-06T10:43:12.914000+00:00</time>
      </trkpt>
      <trkpt lat="0" lon="0">
        <time>2020-12-06T10:43:12.915000+00:00</time>
      </trkpt>
      <trkpt lat="0" lon="0">
        <time>2020-12-06T10:43:12.916000+00:00</time>
      </trkpt>
      <trkpt lat="47.30027" lon="-1.39515">
        <ele>43</ele>
        <time>2020-12-06T10:43:13.928000+00:00</time>
      </trkpt>
      <trkpt lat="0" lon="0">
        <time>2020-12-06T10:43:13.929000+00:00</time>
      </trkpt>
      <trkpt lat="0" lon="0">
        <time>2020-12-06T10:43:13.930000+00:00</time>
      </trkpt>
      <trkpt lat="0" lon="0">
        <time>2020-12-06T10:43:13.931000+00:00</time>
      </trkpt>
      <trkpt lat="47.3003" lon="-1.39514">
        <ele>43</ele>
        <time>2020-12-06T10:43:14.888000+00:00</time>
      </trkpt>
      <trkpt lat="0" lon="0">
        <time>2020-12-06T10:43:14.889000+00:00</time>
      </trkpt>
      <trkpt lat="0" lon="0">
        <time>2020-12-06T10:43:14.891000+00:00</time>
      </trkpt>
      <trkpt lat="0" lon="0">
        <time>2020-12-06T10:43:14.892000+00:00</time>
      </trkpt>
      <trkpt lat="47.30032" lon="-1.39514">
        <ele>43</ele>
        <time>2020-12-06T10:43:15.902000+00:00</time>
      </trkpt>
      <trkpt lat="0" lon="0">
        <time>2020-12-06T10:43:15.906000+00:00</time>
      </trkpt>
      <trkpt lat="0" lon="0">
        <time>2020-12-06T10:43:15.909000+00:00</time>
      </trkpt>
      <trkpt lat="0" lon="0">
        <time>2020-12-06T10:43:15.913000+00:00</time>
      </trkpt>
      <trkpt lat="47.30034" lon="-1.39513">
        <ele>43</ele>
        <time>2020-12-06T10:43:16.919000+00:00</time>
      </trkpt>
      <trkpt lat="0" lon="0">
        <time>2020-12-06T10:43:16.927000+00:00</time>
      </trkpt>
      <trkpt lat="0" lon="0">
        <time>2020-12-06T10:43:16.929000+00:00</time>
      </trkpt>
      <trkpt lat="0" lon="0">
        <time>2020-12-06T10:43:16.930000+00:00</time>
      </trkpt>
      <trkpt lat="47.30035" lon="-1.39513">
        <ele>43</ele>
        <time>2020-12-06T10:43:17.930000+00:00</time>
      </trkpt>
      <trkpt lat="0" lon="0">
        <time>2020-12-06T10:43:17.937000+00:00</time>
      </trkpt>
      <trkpt lat="0" lon="0">
        <time>2020-12-06T10:43:17.939000+00:00</time>
      </trkpt>
      <trkpt lat="0" lon="0">
        <time>2020-12-06T10:43:17.941000+00:00</time>
      </trkpt>
      <trkpt lat="47.30037" lon="-1.39513">
        <ele>43</ele>
        <time>2020-12-06T10:43:18.850000+00:00</time>
      </trkpt>
      <trkpt lat="0" lon="0">
        <time>2020-12-06T10:43:18.865000+00:00</time>
      </trkpt>
      <trkpt lat="0" lon="0">
        <time>2020-12-06T10:43:18.869000+00:00</time>
      </trkpt>
      <trkpt lat="0" lon="0">
        <time>2020-12-06T10:43:18.871000+00:00</time>
      </trkpt>
      <trkpt lat="47.30038" lon="-1.39513">
        <ele>43</ele>
        <time>2020-12-06T10:43:19.909000+00:00</time>
      </trkpt>
      <trkpt lat="0" lon="0">
        <time>2020-12-06T10:43:19.915000+00:00</time>
      </trkpt>
      <trkpt lat="0" lon="0">
        <time>2020-12-06T10:43:19.933000+00:00</time>
      </trkpt>
      <trkpt lat="0" lon="0">
        <time>2020-12-06T10:43:19.937000+00:00</time>
      </trkpt>
      <trkpt lat="47.30039" lon="-1.39513">
        <ele>43</ele>
        <time>2020-12-06T10:43:20.877000+00:00</time>
      </trkpt>
      <trkpt lat="0" lon="0">
        <time>2020-12-06T10:43:20.883000+00:00</time>
      </trkpt>
      <trkpt lat="0" lon="0">
        <time>2020-12-06T10:43:20.895000+00:00</time>
      </trkpt>
      <trkpt lat="0" lon="0">
        <time>2020-12-06T10:43:20.896000+00:00</time>
      </trkpt>
      <trkpt lat="47.30041" lon="-1.39513">
        <ele>43</ele>
        <time>2020-12-06T10:43:21.912000+00:00</time>
      </trkpt>
      <trkpt lat="0" lon="0">
        <time>2020-12-06T10:43:21.921000+00:00</time>
      </trkpt>
      <trkpt lat="0" lon="0">
        <time>2020-12-06T10:43:21.922000+00:00</time>
      </trkpt>
      <trkpt lat="0" lon="0">
        <time>2020-12-06T10:43:21.925000+00:00</time>
      </trkpt>
      <trkpt lat="47.30042" lon="-1.39512">
        <ele>43</ele>
        <time>2020-12-06T10:43:22.897000+00:00</time>
      </trkpt>
      <trkpt lat="0" lon="0">
        <time>2020-12-06T10:43:22.911000+00:00</time>
      </trkpt>
      <trkpt lat="0" lon="0">
        <time>2020-12-06T10:43:22.914000+00:00</time>
      </trkpt>
      <trkpt lat="0" lon="0">
        <time>2020-12-06T10:43:22.916000+00:00</time>
      </trkpt>
      <trkpt lat="47.30043" lon="-1.39512">
        <ele>43</ele>
        <time>2020-12-06T10:43:23.922000+00:00</time>
      </trkpt>
      <trkpt lat="0" lon="0">
        <time>2020-12-06T10:43:23.927000+00:00</time>
      </trkpt>
      <trkpt lat="0" lon="0">
        <time>2020-12-06T10:43:23.937000+00:00</time>
      </trkpt>
      <trkpt lat="0" lon="0">
        <time>2020-12-06T10:43:23.939000+00:00</time>
      </trkpt>
      <trkpt lat="47.30045" lon="-1.3951">
        <ele>44</ele>
        <time>2020-12-06T10:43:24.924000+00:00</time>
      </trkpt>
      <trkpt lat="0" lon="0">
        <time>2020-12-06T10:43:24.926000+00:00</time>
      </trkpt>
      <trkpt lat="0" lon="0">
        <time>2020-12-06T10:43:24.927000+00:00</time>
      </trkpt>
      <trkpt lat="0" lon="0">
        <time>2020-12-06T10:43:24.929000+00:00</time>
      </trkpt>
      <trkpt lat="47.30046" lon="-1.39509">
        <ele>44</ele>
        <time>2020-12-06T10:43:25.913000+00:00</time>
      </trkpt>
      <trkpt lat="0" lon="0">
        <time>2020-12-06T10:43:25.921000+00:00</time>
      </trkpt>
      <trkpt lat="0" lon="0">
        <time>2020-12-06T10:43:25.925000+00:00</time>
      </trkpt>
      <trkpt lat="0" lon="0">
        <time>2020-12-06T10:43:25.927000+00:00</time>
      </trkpt>
      <trkpt lat="47.30048" lon="-1.39508">
        <ele>44</ele>
        <time>2020-12-06T10:43:26.913000+00:00</time>
      </trkpt>
      <trkpt lat="0" lon="0">
        <time>2020-12-06T10:43:26.917000+00:00</time>
      </trkpt>
      <trkpt lat="0" lon="0">
        <time>2020-12-06T10:43:26.919000+00:00</time>
      </trkpt>
      <trkpt lat="47.30049" lon="-1.39506">
        <ele>44</ele>
        <time>2020-12-06T10:43:27.929000+00:00</time>
      </trkpt>
      <trkpt lat="0" lon="0">
        <time>2020-12-06T10:43:27.939000+00:00</time>
      </trkpt>
      <trkpt lat="0" lon="0">
        <time>2020-12-06T10:43:27.944000+00:00</time>
      </trkpt>
      <trkpt lat="0" lon="0">
        <time>2020-12-06T10:43:27.947000+00:00</time>
      </trkpt>
      <trkpt lat="47.30051" lon="-1.39505">
        <ele>44</ele>
        <time>2020-12-06T10:43:28.894000+00:00</time>
      </trkpt>
      <trkpt lat="0" lon="0">
        <time>2020-12-06T10:43:28.898000+00:00</time>
      </trkpt>
      <trkpt lat="0" lon="0">
        <time>2020-12-06T10:43:28.899000+00:00</time>
      </trkpt>
      <trkpt lat="0" lon="0">
        <time>2020-12-06T10:43:28.900000+00:00</time>
      </trkpt>
      <trkpt lat="47.30053" lon="-1.39504">
        <ele>44</ele>
        <time>2020-12-06T10:43:29.882000+00:00</time>
      </trkpt>
      <trkpt lat="0" lon="0">
        <time>2020-12-06T10:43:29.888000+00:00</time>
      </trkpt>
      <trkpt lat="0" lon="0">
        <time>2020-12-06T10:43:29.893000+00:00</time>
      </trkpt>
      <trkpt lat="0" lon="0">
        <time>2020-12-06T10:43:29.898000+00:00</time>
      </trkpt>
      <trkpt lat="47.30054" lon="-1.39503">
        <ele>44</ele>
        <time>2020-12-06T10:43:30.937000+00:00</time>
      </trkpt>
      <trkpt lat="0" lon="0">
        <time>2020-12-06T10:43:30.945000+00:00</time>
      </trkpt>
      <trkpt lat="0" lon="0">
        <time>2020-12-06T10:43:30.947000+00:00</time>
      </trkpt>
      <trkpt lat="0" lon="0">
        <time>2020-12-06T10:43:30.948000+00:00</time>
      </trkpt>
      <trkpt lat="47.30056" lon="-1.39502">
        <ele>44</ele>
        <time>2020-12-06T10:43:31.920000+00:00</time>
      </trkpt>
      <trkpt lat="0" lon="0">
        <time>2020-12-06T10:43:31.923000+00:00</time>
      </trkpt>
      <trkpt lat="0" lon="0">
        <time>2020-12-06T10:43:31.929000+00:00</time>
      </trkpt>
      <trkpt lat="0" lon="0">
        <time>2020-12-06T10:43:31.935000+00:00</time>
      </trkpt>
      <trkpt lat="47.30057" lon="-1.39501">
        <ele>44</ele>
        <time>2020-12-06T10:43:32.878000+00:00</time>
      </trkpt>
      <trkpt lat="0" lon="0">
        <time>2020-12-06T10:43:32.885000+00:00</time>
      </trkpt>
      <trkpt lat="0" lon="0">
        <time>2020-12-06T10:43:32.887000+00:00</time>
      </trkpt>
      <trkpt lat="0" lon="0">
        <time>2020-12-06T10:43:32.890000+00:00</time>
      </trkpt>
      <trkpt lat="47.30059" lon="-1.395">
        <ele>44</ele>
        <time>2020-12-06T10:43:33.924000+00:00</time>
      </trkpt>
      <trkpt lat="0" lon="0">
        <time>2020-12-06T10:43:33.930000+00:00</time>
      </trkpt>
      <trkpt lat="0" lon="0">
        <time>2020-12-06T10:43:33.940000+00:00</time>
      </trkpt>
      <trkpt lat="0" lon="0">
        <time>2020-12-06T10:43:33.942000+00:00</time>
      </trkpt>
      <trkpt lat="47.30061" lon="-1.39499">
        <ele>44</ele>
        <time>2020-12-06T10:43:34.894000+00:00</time>
      </trkpt>
      <trkpt lat="0" lon="0">
        <time>2020-12-06T10:43:34.897000+00:00</time>
      </trkpt>
      <trkpt lat="0" lon="0">
        <time>2020-12-06T10:43:34.907000+00:00</time>
      </trkpt>
      <trkpt lat="0" lon="0">
        <time>2020-12-06T10:43:34.913000+00:00</time>
      </trkpt>
      <trkpt lat="47.30063" lon="-1.39498">
        <ele>44</ele>
        <time>2020-12-06T10:43:35.903000+00:00</time>
      </trkpt>
      <trkpt lat="0" lon="0">
        <time>2020-12-06T10:43:35.909000+00:00</time>
      </trkpt>
      <trkpt lat="0" lon="0">
        <time>2020-12-06T10:43:35.912000+00:00</time>
      </trkpt>
      <trkpt lat="0" lon="0">
        <time>2020-12-06T10:43:35.913000+00:00</time>
      </trkpt>
      <trkpt lat="47.30065" lon="-1.39497">
        <ele>44</ele>
        <time>2020-12-06T10:43:36.908000+00:00</time>
      </trkpt>
      <trkpt lat="0" lon="0">
        <time>2020-12-06T10:43:36.911000+00:00</time>
      </trkpt>
      <trkpt lat="0" lon="0">
        <time>2020-12-06T10:43:36.917000+00:00</time>
      </trkpt>
      <trkpt lat="0" lon="0">
        <time>2020-12-06T10:43:36.922000+00:00</time>
      </trkpt>
      <trkpt lat="47.30067" lon="-1.39496">
        <ele>44</ele>
        <time>2020-12-06T10:43:37.898000+00:00</time>
      </trkpt>
      <trkpt lat="0" lon="0">
        <time>2020-12-06T10:43:37.911000+00:00</time>
      </trkpt>
      <trkpt lat="0" lon="0">
        <time>2020-12-06T10:43:37.915000+00:00</time>
      </trkpt>
      <trkpt lat="0" lon="0">
        <time>2020-12-06T10:43:37.916000+00:00</time>
      </trkpt>
      <trkpt lat="47.30069" lon="-1.39494">
        <ele>44</ele>
        <time>2020-12-06T10:43:38.961000+00:00</time>
      </trkpt>
      <trkpt lat="0" lon="0">
        <time>2020-12-06T10:43:38.967000+00:00</time>
      </trkpt>
      <trkpt lat="0" lon="0">
        <time>2020-12-06T10:43:38.976000+00:00</time>
      </trkpt>
      <trkpt lat="0" lon="0">
        <time>2020-12-06T10:43:38.979000+00:00</time>
      </trkpt>
      <trkpt lat="47.30071" lon="-1.39493">
        <ele>44</ele>
        <time>2020-12-06T10:43:39.918000+00:00</time>
      </trkpt>
      <trkpt lat="0" lon="0">
        <time>2020-12-06T10:43:39.922000+00:00</time>
      </trkpt>
      <trkpt lat="0" lon="0">
        <time>2020-12-06T10:43:39.927000+00:00</time>
      </trkpt>
      <trkpt lat="0" lon="0">
        <time>2020-12-06T10:43:39.930000+00:00</time>
      </trkpt>
      <trkpt lat="47.30073" lon="-1.3949">
        <ele>44</ele>
        <time>2020-12-06T10:43:40.919000+00:00</time>
      </trkpt>
      <trkpt lat="0" lon="0">
        <time>2020-12-06T10:43:40.925000+00:00</time>
      </trkpt>
      <trkpt lat="0" lon="0">
        <time>2020-12-06T10:43:40.928000+00:00</time>
      </trkpt>
      <trkpt lat="0" lon="0">
        <time>2020-12-06T10:43:40.932000+00:00</time>
      </trkpt>
      <trkpt lat="47.30076" lon="-1.39488">
        <ele>45</ele>
        <time>2020-12-06T10:43:41.909000+00:00</time>
      </trkpt>
      <trkpt lat="0" lon="0">
        <time>2020-12-06T10:43:41.914000+00:00</time>
      </trkpt>
      <trkpt lat="0" lon="0">
        <time>2020-12-06T10:43:41.915000+00:00</time>
      </trkpt>
      <trkpt lat="0" lon="0">
        <time>2020-12-06T10:43:41.916000+00:00</time>
      </trkpt>
      <trkpt lat="47.30078" lon="-1.39486">
        <ele>45</ele>
        <time>2020-12-06T10:43:42.879000+00:00</time>
      </trkpt>
      <trkpt lat="0" lon="0">
        <time>2020-12-06T10:43:42.891000+00:00</time>
      </trkpt>
      <trkpt lat="0" lon="0">
        <time>2020-12-06T10:43:42.896000+00:00</time>
      </trkpt>
      <trkpt lat="0" lon="0">
        <time>2020-12-06T10:43:42.898000+00:00</time>
      </trkpt>
      <trkpt lat="47.3008" lon="-1.39484">
        <ele>45</ele>
        <time>2020-12-06T10:43:43.839000+00:00</time>
      </trkpt>
      <trkpt lat="0" lon="0">
        <time>2020-12-06T10:43:43.843000+00:00</time>
      </trkpt>
      <trkpt lat="0" lon="0">
        <time>2020-12-06T10:43:43.861000+00:00</time>
      </trkpt>
      <trkpt lat="0" lon="0">
        <time>2020-12-06T10:43:43.862000+00:00</time>
      </trkpt>
      <trkpt lat="47.30082" lon="-1.39482">
        <ele>45</ele>
        <time>2020-12-06T10:43:44.905000+00:00</time>
      </trkpt>
      <trkpt lat="0" lon="0">
        <time>2020-12-06T10:43:44.913000+00:00</time>
      </trkpt>
      <trkpt lat="0" lon="0">
        <time>2020-12-06T10:43:44.915000+00:00</time>
      </trkpt>
      <trkpt lat="0" lon="0">
        <time>2020-12-06T10:43:44.916000+00:00</time>
      </trkpt>
      <trkpt lat="47.30084" lon="-1.39481">
        <ele>45</ele>
        <time>2020-12-06T10:43:45.870000+00:00</time>
      </trkpt>
      <trkpt lat="0" lon="0">
        <time>2020-12-06T10:43:45.881000+00:00</time>
      </trkpt>
      <trkpt lat="0" lon="0">
        <time>2020-12-06T10:43:45.886000+00:00</time>
      </trkpt>
      <trkpt lat="0" lon="0">
        <time>2020-12-06T10:43:45.890000+00:00</time>
      </trkpt>
      <trkpt lat="47.30086" lon="-1.39479">
        <ele>45</ele>
        <time>2020-12-06T10:43:46.911000+00:00</time>
      </trkpt>
      <trkpt lat="0" lon="0">
        <time>2020-12-06T10:43:46.915000+00:00</time>
      </trkpt>
      <trkpt lat="0" lon="0">
        <time>2020-12-06T10:43:46.916000+00:00</time>
      </trkpt>
      <trkpt lat="47.30087" lon="-1.39477">
        <ele>45</ele>
        <time>2020-12-06T10:43:47.873000+00:00</time>
      </trkpt>
      <trkpt lat="0" lon="0">
        <time>2020-12-06T10:43:47.879000+00:00</time>
      </trkpt>
      <trkpt lat="0" lon="0">
        <time>2020-12-06T10:43:47.885000+00:00</time>
      </trkpt>
      <trkpt lat="0" lon="0">
        <time>2020-12-06T10:43:47.887000+00:00</time>
      </trkpt>
      <trkpt lat="47.30087" lon="-1.39474">
        <ele>45</ele>
        <time>2020-12-06T10:43:48.899000+00:00</time>
      </trkpt>
      <trkpt lat="0" lon="0">
        <time>2020-12-06T10:43:48.917000+00:00</time>
      </trkpt>
      <trkpt lat="0" lon="0">
        <time>2020-12-06T10:43:48.926000+00:00</time>
      </trkpt>
      <trkpt lat="0" lon="0">
        <time>2020-12-06T10:43:48.930000+00:00</time>
      </trkpt>
      <trkpt lat="47.30087" lon="-1.39472">
        <ele>45</ele>
        <time>2020-12-06T10:43:49.888000+00:00</time>
      </trkpt>
      <trkpt lat="0" lon="0">
        <time>2020-12-06T10:43:49.891000+00:00</time>
      </trkpt>
      <trkpt lat="0" lon="0">
        <time>2020-12-06T10:43:49.904000+00:00</time>
      </trkpt>
      <trkpt lat="0" lon="0">
        <time>2020-12-06T10:43:49.909000+00:00</time>
      </trkpt>
      <trkpt lat="47.30087" lon="-1.39468">
        <ele>45</ele>
        <time>2020-12-06T10:43:50.875000+00:00</time>
      </trkpt>
      <trkpt lat="0" lon="0">
        <time>2020-12-06T10:43:50.878000+00:00</time>
      </trkpt>
      <trkpt lat="0" lon="0">
        <time>2020-12-06T10:43:50.888000+00:00</time>
      </trkpt>
      <trkpt lat="0" lon="0">
        <time>2020-12-06T10:43:50.890000+00:00</time>
      </trkpt>
      <trkpt lat="47.30086" lon="-1.39463">
        <ele>45</ele>
        <time>2020-12-06T10:43:51.900000+00:00</time>
      </trkpt>
      <trkpt lat="0" lon="0">
        <time>2020-12-06T10:43:51.909000+00:00</time>
      </trkpt>
      <trkpt lat="0" lon="0">
        <time>2020-12-06T10:43:51.914000+00:00</time>
      </trkpt>
      <trkpt lat="0" lon="0">
        <time>2020-12-06T10:43:51.916000+00:00</time>
      </trkpt>
      <trkpt lat="47.30085" lon="-1.39457">
        <ele>45</ele>
        <time>2020-12-06T10:43:52.949000+00:00</time>
      </trkpt>
      <trkpt lat="0" lon="0">
        <time>2020-12-06T10:43:52.965000+00:00</time>
      </trkpt>
      <trkpt lat="0" lon="0">
        <time>2020-12-06T10:43:52.968000+00:00</time>
      </trkpt>
      <trkpt lat="0" lon="0">
        <time>2020-12-06T10:43:52.969000+00:00</time>
      </trkpt>
      <trkpt lat="47.30084" lon="-1.39449">
        <ele>45</ele>
        <time>2020-12-06T10:43:53.905000+00:00</time>
      </trkpt>
      <trkpt lat="0" lon="0">
        <time>2020-12-06T10:43:53.908000+00:00</time>
      </trkpt>
      <trkpt lat="0" lon="0">
        <time>2020-12-06T10:43:53.913000+00:00</time>
      </trkpt>
      <trkpt lat="0" lon="0">
        <time>2020-12-06T10:43:53.914000+00:00</time>
      </trkpt>
      <trkpt lat="47.30083" lon="-1.39441">
        <ele>45</ele>
        <time>2020-12-06T10:43:54.870000+00:00</time>
      </trkpt>
      <trkpt lat="0" lon="0">
        <time>2020-12-06T10:43:54.877000+00:00</time>
      </trkpt>
      <trkpt lat="0" lon="0">
        <time>2020-12-06T10:43:54.884000+00:00</time>
      </trkpt>
      <trkpt lat="0" lon="0">
        <time>2020-12-06T10:43:54.890000+00:00</time>
      </trkpt>
      <trkpt lat="47.30083" lon="-1.39433">
        <ele>45</ele>
        <time>2020-12-06T10:43:55.888000+00:00</time>
      </trkpt>
      <trkpt lat="0" lon="0">
        <time>2020-12-06T10:43:55.903000+00:00</time>
      </trkpt>
      <trkpt lat="0" lon="0">
        <time>2020-12-06T10:43:55.906000+00:00</time>
      </trkpt>
      <trkpt lat="0" lon="0">
        <time>2020-12-06T10:43:55.908000+00:00</time>
      </trkpt>
      <trkpt lat="47.30083" lon="-1.39425">
        <ele>45</ele>
        <time>2020-12-06T10:43:56.894000+00:00</time>
      </trkpt>
      <trkpt lat="0" lon="0">
        <time>2020-12-06T10:43:56.901000+00:00</time>
      </trkpt>
      <trkpt lat="0" lon="0">
        <time>2020-12-06T10:43:56.905000+00:00</time>
      </trkpt>
      <trkpt lat="0" lon="0">
        <time>2020-12-06T10:43:56.907000+00:00</time>
      </trkpt>
      <trkpt lat="47.30084" lon="-1.39419">
        <ele>46</ele>
        <time>2020-12-06T10:43:57.894000+00:00</time>
      </trkpt>
      <trkpt lat="0" lon="0">
        <time>2020-12-06T10:43:57.901000+00:00</time>
      </trkpt>
      <trkpt lat="0" lon="0">
        <time>2020-12-06T10:43:57.906000+00:00</time>
      </trkpt>
      <trkpt lat="0" lon="0">
        <time>2020-12-06T10:43:57.908000+00:00</time>
      </trkpt>
      <trkpt lat="47.30085" lon="-1.39413">
        <ele>46</ele>
        <time>2020-12-06T10:43:58.947000+00:00</time>
      </trkpt>
      <trkpt lat="0" lon="0">
        <time>2020-12-06T10:43:58.954000+00:00</time>
      </trkpt>
      <trkpt lat="0" lon="0">
        <time>2020-12-06T10:43:58.974000+00:00</time>
      </trkpt>
      <trkpt lat="0" lon="0">
        <time>2020-12-06T10:43:58.977000+00:00</time>
      </trkpt>
      <trkpt lat="47.30086" lon="-1.39408">
        <ele>46</ele>
        <time>2020-12-06T10:43:59.940000+00:00</time>
      </trkpt>
      <trkpt lat="0" lon="0">
        <time>2020-12-06T10:43:59.944000+00:00</time>
      </trkpt>
      <trkpt lat="0" lon="0">
        <time>2020-12-06T10:43:59.946000+00:00</time>
      </trkpt>
      <trkpt lat="0" lon="0">
        <time>2020-12-06T10:43:59.947000+00:00</time>
      </trkpt>
      <trkpt lat="47.30087" lon="-1.39404">
        <ele>47</ele>
        <time>2020-12-06T10:44:00.883000+00:00</time>
      </trkpt>
      <trkpt lat="0" lon="0">
        <time>2020-12-06T10:44:00.886000+00:00</time>
      </trkpt>
      <trkpt lat="0" lon="0">
        <time>2020-12-06T10:44:00.895000+00:00</time>
      </trkpt>
      <trkpt lat="0" lon="0">
        <time>2020-12-06T10:44:00.897000+00:00</time>
      </trkpt>
      <trkpt lat="47.30089" lon="-1.394">
        <ele>47</ele>
        <time>2020-12-06T10:44:01.916000+00:00</time>
      </trkpt>
      <trkpt lat="0" lon="0">
        <time>2020-12-06T10:44:01.922000+00:00</time>
      </trkpt>
      <trkpt lat="0" lon="0">
        <time>2020-12-06T10:44:01.931000+00:00</time>
      </trkpt>
      <trkpt lat="0" lon="0">
        <time>2020-12-06T10:44:01.933000+00:00</time>
      </trkpt>
      <trkpt lat="47.3009" lon="-1.39397">
        <ele>48</ele>
        <time>2020-12-06T10:44:02.899000+00:00</time>
      </trkpt>
      <trkpt lat="0" lon="0">
        <time>2020-12-06T10:44:02.923000+00:00</time>
      </trkpt>
      <trkpt lat="0" lon="0">
        <time>2020-12-06T10:44:02.933000+00:00</time>
      </trkpt>
      <trkpt lat="0" lon="0">
        <time>2020-12-06T10:44:02.935000+00:00</time>
      </trkpt>
      <trkpt lat="47.30092" lon="-1.39395">
        <ele>48</ele>
        <time>2020-12-06T10:44:03.910000+00:00</time>
      </trkpt>
      <trkpt lat="0" lon="0">
        <time>2020-12-06T10:44:03.925000+00:00</time>
      </trkpt>
      <trkpt lat="0" lon="0">
        <time>2020-12-06T10:44:03.929000+00:00</time>
      </trkpt>
      <trkpt lat="0" lon="0">
        <time>2020-12-06T10:44:03.933000+00:00</time>
      </trkpt>
      <trkpt lat="47.30094" lon="-1.39392">
        <ele>48</ele>
        <time>2020-12-06T10:44:04.907000+00:00</time>
      </trkpt>
      <trkpt lat="0" lon="0">
        <time>2020-12-06T10:44:04.912000+00:00</time>
      </trkpt>
      <trkpt lat="0" lon="0">
        <time>2020-12-06T10:44:04.914000+00:00</time>
      </trkpt>
      <trkpt lat="0" lon="0">
        <time>2020-12-06T10:44:04.923000+00:00</time>
      </trkpt>
      <trkpt lat="47.30096" lon="-1.39389">
        <ele>48</ele>
        <time>2020-12-06T10:44:05.918000+00:00</time>
      </trkpt>
      <trkpt lat="0" lon="0">
        <time>2020-12-06T10:44:05.931000+00:00</time>
      </trkpt>
      <trkpt lat="0" lon="0">
        <time>2020-12-06T10:44:05.944000+00:00</time>
      </trkpt>
      <trkpt lat="0" lon="0">
        <time>2020-12-06T10:44:05.945000+00:00</time>
      </trkpt>
      <trkpt lat="47.30097" lon="-1.39387">
        <ele>49</ele>
        <time>2020-12-06T10:44:06.863000+00:00</time>
      </trkpt>
      <trkpt lat="0" lon="0">
        <time>2020-12-06T10:44:06.864000+00:00</time>
      </trkpt>
      <trkpt lat="0" lon="0">
        <time>2020-12-06T10:44:06.866000+00:00</time>
      </trkpt>
      <trkpt lat="47.30098" lon="-1.39384">
        <ele>49</ele>
        <time>2020-12-06T10:44:07.911000+00:00</time>
      </trkpt>
      <trkpt lat="0" lon="0">
        <time>2020-12-06T10:44:07.929000+00:00</time>
      </trkpt>
      <trkpt lat="0" lon="0">
        <time>2020-12-06T10:44:07.935000+00:00</time>
      </trkpt>
      <trkpt lat="0" lon="0">
        <time>2020-12-06T10:44:07.938000+00:00</time>
      </trkpt>
      <trkpt lat="47.30099" lon="-1.39382">
        <ele>49</ele>
        <time>2020-12-06T10:44:08.903000+00:00</time>
      </trkpt>
      <trkpt lat="0" lon="0">
        <time>2020-12-06T10:44:08.911000+00:00</time>
      </trkpt>
      <trkpt lat="0" lon="0">
        <time>2020-12-06T10:44:08.926000+00:00</time>
      </trkpt>
      <trkpt lat="0" lon="0">
        <time>2020-12-06T10:44:08.929000+00:00</time>
      </trkpt>
      <trkpt lat="47.30099" lon="-1.39379">
        <ele>49</ele>
        <time>2020-12-06T10:44:09.902000+00:00</time>
      </trkpt>
      <trkpt lat="0" lon="0">
        <time>2020-12-06T10:44:09.912000+00:00</time>
      </trkpt>
      <trkpt lat="0" lon="0">
        <time>2020-12-06T10:44:09.920000+00:00</time>
      </trkpt>
      <trkpt lat="0" lon="0">
        <time>2020-12-06T10:44:09.924000+00:00</time>
      </trkpt>
      <trkpt lat="47.301" lon="-1.39377">
        <ele>50</ele>
        <time>2020-12-06T10:44:10.909000+00:00</time>
      </trkpt>
      <trkpt lat="0" lon="0">
        <time>2020-12-06T10:44:10.917000+00:00</time>
      </trkpt>
      <trkpt lat="0" lon="0">
        <time>2020-12-06T10:44:10.918000+00:00</time>
      </trkpt>
      <trkpt lat="0" lon="0">
        <time>2020-12-06T10:44:10.919000+00:00</time>
      </trkpt>
      <trkpt lat="47.301" lon="-1.39375">
        <ele>50</ele>
        <time>2020-12-06T10:44:11.910000+00:00</time>
      </trkpt>
      <trkpt lat="0" lon="0">
        <time>2020-12-06T10:44:11.925000+00:00</time>
      </trkpt>
      <trkpt lat="0" lon="0">
        <time>2020-12-06T10:44:11.928000+00:00</time>
      </trkpt>
      <trkpt lat="0" lon="0">
        <time>2020-12-06T10:44:11.929000+00:00</time>
      </trkpt>
      <trkpt lat="47.30101" lon="-1.39373">
        <ele>50</ele>
        <time>2020-12-06T10:44:12.914000+00:00</time>
      </trkpt>
      <trkpt lat="0" lon="0">
        <time>2020-12-06T10:44:12.918000+00:00</time>
      </trkpt>
      <trkpt lat="0" lon="0">
        <time>2020-12-06T10:44:12.927000+00:00</time>
      </trkpt>
      <trkpt lat="0" lon="0">
        <time>2020-12-06T10:44:12.938000+00:00</time>
      </trkpt>
      <trkpt lat="47.30101" lon="-1.39371">
        <ele>50</ele>
        <time>2020-12-06T10:44:13.900000+00:00</time>
      </trkpt>
      <trkpt lat="0" lon="0">
        <time>2020-12-06T10:44:13.905000+00:00</time>
      </trkpt>
      <trkpt lat="0" lon="0">
        <time>2020-12-06T10:44:13.910000+00:00</time>
      </trkpt>
      <trkpt lat="0" lon="0">
        <time>2020-12-06T10:44:13.911000+00:00</time>
      </trkpt>
      <trkpt lat="47.30101" lon="-1.39369">
        <ele>50</ele>
        <time>2020-12-06T10:44:14.931000+00:00</time>
      </trkpt>
      <trkpt lat="0" lon="0">
        <time>2020-12-06T10:44:14.934000+00:00</time>
      </trkpt>
      <trkpt lat="0" lon="0">
        <time>2020-12-06T10:44:14.943000+00:00</time>
      </trkpt>
      <trkpt lat="0" lon="0">
        <time>2020-12-06T10:44:14.945000+00:00</time>
      </trkpt>
      <trkpt lat="47.301" lon="-1.39367">
        <ele>50</ele>
        <time>2020-12-06T10:44:15.915000+00:00</time>
      </trkpt>
      <trkpt lat="0" lon="0">
        <time>2020-12-06T10:44:15.939000+00:00</time>
      </trkpt>
      <trkpt lat="0" lon="0">
        <time>2020-12-06T10:44:15.946000+00:00</time>
      </trkpt>
      <trkpt lat="0" lon="0">
        <time>2020-12-06T10:44:15.947000+00:00</time>
      </trkpt>
      <trkpt lat="47.301" lon="-1.39364">
        <ele>51</ele>
        <time>2020-12-06T10:44:16.931000+00:00</time>
      </trkpt>
      <trkpt lat="0" lon="0">
        <time>2020-12-06T10:44:16.936000+00:00</time>
      </trkpt>
      <trkpt lat="0" lon="0">
        <time>2020-12-06T10:44:16.944000+00:00</time>
      </trkpt>
      <trkpt lat="0" lon="0">
        <time>2020-12-06T10:44:16.946000+00:00</time>
      </trkpt>
      <trkpt lat="47.30099" lon="-1.39362">
        <ele>51</ele>
        <time>2020-12-06T10:44:17.910000+00:00</time>
      </trkpt>
      <trkpt lat="0" lon="0">
        <time>2020-12-06T10:44:17.929000+00:00</time>
      </trkpt>
      <trkpt lat="0" lon="0">
        <time>2020-12-06T10:44:17.935000+00:00</time>
      </trkpt>
      <trkpt lat="0" lon="0">
        <time>2020-12-06T10:44:17.937000+00:00</time>
      </trkpt>
      <trkpt lat="47.30099" lon="-1.39361">
        <ele>51</ele>
        <time>2020-12-06T10:44:18.912000+00:00</time>
      </trkpt>
      <trkpt lat="0" lon="0">
        <time>2020-12-06T10:44:18.923000+00:00</time>
      </trkpt>
      <trkpt lat="0" lon="0">
        <time>2020-12-06T10:44:18.925000+00:00</time>
      </trkpt>
      <trkpt lat="0" lon="0">
        <time>2020-12-06T10:44:18.926000+00:00</time>
      </trkpt>
      <trkpt lat="47.30098" lon="-1.39359">
        <ele>51</ele>
        <time>2020-12-06T10:44:19.924000+00:00</time>
      </trkpt>
      <trkpt lat="0" lon="0">
        <time>2020-12-06T10:44:19.932000+00:00</time>
      </trkpt>
      <trkpt lat="0" lon="0">
        <time>2020-12-06T10:44:19.934000+00:00</time>
      </trkpt>
      <trkpt lat="0" lon="0">
        <time>2020-12-06T10:44:19.935000+00:00</time>
      </trkpt>
      <trkpt lat="47.30098" lon="-1.39359">
        <ele>51</ele>
        <time>2020-12-06T10:44:20.907000+00:00</time>
      </trkpt>
      <trkpt lat="0" lon="0">
        <time>2020-12-06T10:44:20.920000+00:00</time>
      </trkpt>
      <trkpt lat="0" lon="0">
        <time>2020-12-06T10:44:20.930000+00:00</time>
      </trkpt>
      <trkpt lat="0" lon="0">
        <time>2020-12-06T10:44:20.932000+00:00</time>
      </trkpt>
      <trkpt lat="47.30098" lon="-1.39358">
        <ele>51</ele>
        <time>2020-12-06T10:44:21.884000+00:00</time>
      </trkpt>
      <trkpt lat="0" lon="0">
        <time>2020-12-06T10:44:21.890000+00:00</time>
      </trkpt>
      <trkpt lat="0" lon="0">
        <time>2020-12-06T10:44:21.902000+00:00</time>
      </trkpt>
      <trkpt lat="0" lon="0">
        <time>2020-12-06T10:44:21.903000+00:00</time>
      </trkpt>
      <trkpt lat="47.30097" lon="-1.39357">
        <ele>51</ele>
        <time>2020-12-06T10:44:22.792000+00:00</time>
      </trkpt>
      <trkpt lat="0" lon="0">
        <time>2020-12-06T10:44:22.793000+00:00</time>
      </trkpt>
      <trkpt lat="0" lon="0">
        <time>2020-12-06T10:44:22.796000+00:00</time>
      </trkpt>
      <trkpt lat="0" lon="0">
        <time>2020-12-06T10:44:22.801000+00:00</time>
      </trkpt>
      <trkpt lat="47.30097" lon="-1.39357">
        <ele>51</ele>
        <time>2020-12-06T10:44:23.931000+00:00</time>
      </trkpt>
      <trkpt lat="0" lon="0">
        <time>2020-12-06T10:44:23.934000+00:00</time>
      </trkpt>
      <trkpt lat="0" lon="0">
        <time>2020-12-06T10:44:23.939000+00:00</time>
      </trkpt>
      <trkpt lat="0" lon="0">
        <time>2020-12-06T10:44:23.949000+00:00</time>
      </trkpt>
      <trkpt lat="47.30097" lon="-1.39357">
        <ele>51</ele>
        <time>2020-12-06T10:44:24.849000+00:00</time>
      </trkpt>
      <trkpt lat="0" lon="0">
        <time>2020-12-06T10:44:24.853000+00:00</time>
      </trkpt>
      <trkpt lat="0" lon="0">
        <time>2020-12-06T10:44:24.856000+00:00</time>
      </trkpt>
      <trkpt lat="0" lon="0">
        <time>2020-12-06T10:44:24.857000+00:00</time>
      </trkpt>
      <trkpt lat="47.30097" lon="-1.39357">
        <ele>51</ele>
        <time>2020-12-06T10:44:25.905000+00:00</time>
      </trkpt>
      <trkpt lat="0" lon="0">
        <time>2020-12-06T10:44:25.914000+00:00</time>
      </trkpt>
      <trkpt lat="0" lon="0">
        <time>2020-12-06T10:44:25.922000+00:00</time>
      </trkpt>
      <trkpt lat="0" lon="0">
        <time>2020-12-06T10:44:25.928000+00:00</time>
      </trkpt>
      <trkpt lat="47.30097" lon="-1.39357">
        <ele>51</ele>
        <time>2020-12-06T10:44:26.831000+00:00</time>
      </trkpt>
      <trkpt lat="0" lon="0">
        <time>2020-12-06T10:44:26.837000+00:00</time>
      </trkpt>
      <trkpt lat="0" lon="0">
        <time>2020-12-06T10:44:26.839000+00:00</time>
      </trkpt>
      <trkpt lat="0" lon="0">
        <time>2020-12-06T10:44:26.840000+00:00</time>
      </trkpt>
      <trkpt lat="47.30097" lon="-1.39357">
        <ele>51</ele>
        <time>2020-12-06T10:44:27.849000+00:00</time>
      </trkpt>
      <trkpt lat="0" lon="0">
        <time>2020-12-06T10:44:27.851000+00:00</time>
      </trkpt>
      <trkpt lat="0" lon="0">
        <time>2020-12-06T10:44:27.859000+00:00</time>
      </trkpt>
      <trkpt lat="0" lon="0">
        <time>2020-12-06T10:44:27.868000+00:00</time>
      </trkpt>
      <trkpt lat="47.30095" lon="-1.39327">
        <ele>54</ele>
        <time>2020-12-06T10:44:28.770000+00:00</time>
      </trkpt>
      <trkpt lat="0" lon="0">
        <time>2020-12-06T10:44:28.772000+00:00</time>
      </trkpt>
      <trkpt lat="0" lon="0">
        <time>2020-12-06T10:44:28.777000+00:00</time>
      </trkpt>
      <trkpt lat="0" lon="0">
        <time>2020-12-06T10:44:28.778000+00:00</time>
      </trkpt>
      <trkpt lat="47.30095" lon="-1.39322">
        <ele>54</ele>
        <time>2020-12-06T10:44:29.861000+00:00</time>
      </trkpt>
      <trkpt lat="0" lon="0">
        <time>2020-12-06T10:44:29.873000+00:00</time>
      </trkpt>
      <trkpt lat="0" lon="0">
        <time>2020-12-06T10:44:29.877000+00:00</time>
      </trkpt>
      <trkpt lat="0" lon="0">
        <time>2020-12-06T10:44:29.880000+00:00</time>
      </trkpt>
      <trkpt lat="47.30094" lon="-1.39316">
        <ele>54</ele>
        <time>2020-12-06T10:44:30.816000+00:00</time>
      </trkpt>
      <trkpt lat="0" lon="0">
        <time>2020-12-06T10:44:30.818000+00:00</time>
      </trkpt>
      <trkpt lat="0" lon="0">
        <time>2020-12-06T10:44:30.820000+00:00</time>
      </trkpt>
      <trkpt lat="47.30094" lon="-1.39311">
        <ele>54</ele>
        <time>2020-12-06T10:44:31.775000+00:00</time>
      </trkpt>
      <trkpt lat="0" lon="0">
        <time>2020-12-06T10:44:31.784000+00:00</time>
      </trkpt>
      <trkpt lat="0" lon="0">
        <time>2020-12-06T10:44:31.786000+00:00</time>
      </trkpt>
      <trkpt lat="0" lon="0">
        <time>2020-12-06T10:44:31.787000+00:00</time>
      </trkpt>
      <trkpt lat="47.30093" lon="-1.39305">
        <ele>55</ele>
        <time>2020-12-06T10:44:32.853000+00:00</time>
      </trkpt>
      <trkpt lat="0" lon="0">
        <time>2020-12-06T10:44:32.861000+00:00</time>
      </trkpt>
      <trkpt lat="0" lon="0">
        <time>2020-12-06T10:44:32.869000+00:00</time>
      </trkpt>
      <trkpt lat="0" lon="0">
        <time>2020-12-06T10:44:32.874000+00:00</time>
      </trkpt>
      <trkpt lat="47.30092" lon="-1.393">
        <ele>55</ele>
        <time>2020-12-06T10:44:33.802000+00:00</time>
      </trkpt>
      <trkpt lat="0" lon="0">
        <time>2020-12-06T10:44:33.812000+00:00</time>
      </trkpt>
      <trkpt lat="0" lon="0">
        <time>2020-12-06T10:44:33.816000+00:00</time>
      </trkpt>
      <trkpt lat="0" lon="0">
        <time>2020-12-06T10:44:33.819000+00:00</time>
      </trkpt>
      <trkpt lat="47.30091" lon="-1.39295">
        <ele>55</ele>
        <time>2020-12-06T10:44:34.883000+00:00</time>
      </trkpt>
      <trkpt lat="0" lon="0">
        <time>2020-12-06T10:44:34.900000+00:00</time>
      </trkpt>
      <trkpt lat="0" lon="0">
        <time>2020-12-06T10:44:34.904000+00:00</time>
      </trkpt>
      <trkpt lat="0" lon="0">
        <time>2020-12-06T10:44:34.906000+00:00</time>
      </trkpt>
      <trkpt lat="47.3009" lon="-1.3929">
        <ele>55</ele>
        <time>2020-12-06T10:44:35.871000+00:00</time>
      </trkpt>
      <trkpt lat="0" lon="0">
        <time>2020-12-06T10:44:35.883000+00:00</time>
      </trkpt>
      <trkpt lat="0" lon="0">
        <time>2020-12-06T10:44:35.888000+00:00</time>
      </trkpt>
      <trkpt lat="0" lon="0">
        <time>2020-12-06T10:44:35.889000+00:00</time>
      </trkpt>
      <trkpt lat="47.30088" lon="-1.39286">
        <ele>56</ele>
        <time>2020-12-06T10:44:36.813000+00:00</time>
      </trkpt>
      <trkpt lat="0" lon="0">
        <time>2020-12-06T10:44:36.818000+00:00</time>
      </trkpt>
      <trkpt lat="0" lon="0">
        <time>2020-12-06T10:44:36.829000+00:00</time>
      </trkpt>
      <trkpt lat="0" lon="0">
        <time>2020-12-06T10:44:36.832000+00:00</time>
      </trkpt>
      <trkpt lat="47.30087" lon="-1.39282">
        <ele>56</ele>
        <time>2020-12-06T10:44:37.816000+00:00</time>
      </trkpt>
      <trkpt lat="0" lon="0">
        <time>2020-12-06T10:44:37.823000+00:00</time>
      </trkpt>
      <trkpt lat="0" lon="0">
        <time>2020-12-06T10:44:37.824000+00:00</time>
      </trkpt>
      <trkpt lat="0" lon="0">
        <time>2020-12-06T10:44:37.825000+00:00</time>
      </trkpt>
      <trkpt lat="47.30086" lon="-1.39278">
        <ele>56</ele>
        <time>2020-12-06T10:44:38.883000+00:00</time>
      </trkpt>
      <trkpt lat="0" lon="0">
        <time>2020-12-06T10:44:38.898000+00:00</time>
      </trkpt>
      <trkpt lat="0" lon="0">
        <time>2020-12-06T10:44:38.902000+00:00</time>
      </trkpt>
      <trkpt lat="0" lon="0">
        <time>2020-12-06T10:44:38.904000+00:00</time>
      </trkpt>
      <trkpt lat="47.30085" lon="-1.39275">
        <ele>56</ele>
        <time>2020-12-06T10:44:39.880000+00:00</time>
      </trkpt>
      <trkpt lat="0" lon="0">
        <time>2020-12-06T10:44:39.886000+00:00</time>
      </trkpt>
      <trkpt lat="0" lon="0">
        <time>2020-12-06T10:44:39.890000+00:00</time>
      </trkpt>
      <trkpt lat="0" lon="0">
        <time>2020-12-06T10:44:39.892000+00:00</time>
      </trkpt>
      <trkpt lat="47.30084" lon="-1.39273">
        <ele>56</ele>
        <time>2020-12-06T10:44:40.874000+00:00</time>
      </trkpt>
      <trkpt lat="0" lon="0">
        <time>2020-12-06T10:44:40.895000+00:00</time>
      </trkpt>
      <trkpt lat="0" lon="0">
        <time>2020-12-06T10:44:40.906000+00:00</time>
      </trkpt>
      <trkpt lat="0" lon="0">
        <time>2020-12-06T10:44:40.908000+00:00</time>
      </trkpt>
      <trkpt lat="47.30084" lon="-1.3927">
        <ele>57</ele>
        <time>2020-12-06T10:44:41.774000+00:00</time>
      </trkpt>
      <trkpt lat="0" lon="0">
        <time>2020-12-06T10:44:41.792000+00:00</time>
      </trkpt>
      <trkpt lat="0" lon="0">
        <time>2020-12-06T10:44:41.796000+00:00</time>
      </trkpt>
      <trkpt lat="0" lon="0">
        <time>2020-12-06T10:44:41.798000+00:00</time>
      </trkpt>
      <trkpt lat="47.30083" lon="-1.39268">
        <ele>57</ele>
        <time>2020-12-06T10:44:42.827000+00:00</time>
      </trkpt>
      <trkpt lat="0" lon="0">
        <time>2020-12-06T10:44:42.839000+00:00</time>
      </trkpt>
      <trkpt lat="0" lon="0">
        <time>2020-12-06T10:44:42.845000+00:00</time>
      </trkpt>
      <trkpt lat="0" lon="0">
        <time>2020-12-06T10:44:42.847000+00:00</time>
      </trkpt>
      <trkpt lat="47.30083" lon="-1.39266">
        <ele>57</ele>
        <time>2020-12-06T10:44:43.829000+00:00</time>
      </trkpt>
      <trkpt lat="0" lon="0">
        <time>2020-12-06T10:44:43.841000+00:00</time>
      </trkpt>
      <trkpt lat="0" lon="0">
        <time>2020-12-06T10:44:43.848000+00:00</time>
      </trkpt>
      <trkpt lat="0" lon="0">
        <time>2020-12-06T10:44:43.850000+00:00</time>
      </trkpt>
      <trkpt lat="47.30082" lon="-1.39264">
        <ele>57</ele>
        <time>2020-12-06T10:44:44.872000+00:00</time>
      </trkpt>
      <trkpt lat="0" lon="0">
        <time>2020-12-06T10:44:44.877000+00:00</time>
      </trkpt>
      <trkpt lat="0" lon="0">
        <time>2020-12-06T10:44:44.880000+00:00</time>
      </trkpt>
      <trkpt lat="0" lon="0">
        <time>2020-12-06T10:44:44.885000+00:00</time>
      </trkpt>
      <trkpt lat="47.30082" lon="-1.39262">
        <ele>57</ele>
        <time>2020-12-06T10:44:45.844000+00:00</time>
      </trkpt>
      <trkpt lat="0" lon="0">
        <time>2020-12-06T10:44:45.854000+00:00</time>
      </trkpt>
      <trkpt lat="0" lon="0">
        <time>2020-12-06T10:44:45.860000+00:00</time>
      </trkpt>
      <trkpt lat="0" lon="0">
        <time>2020-12-06T10:44:45.865000+00:00</time>
      </trkpt>
      <trkpt lat="47.30081" lon="-1.3926">
        <ele>57</ele>
        <time>2020-12-06T10:44:46.856000+00:00</time>
      </trkpt>
      <trkpt lat="0" lon="0">
        <time>2020-12-06T10:44:46.864000+00:00</time>
      </trkpt>
      <trkpt lat="0" lon="0">
        <time>2020-12-06T10:44:46.869000+00:00</time>
      </trkpt>
      <trkpt lat="0" lon="0">
        <time>2020-12-06T10:44:46.872000+00:00</time>
      </trkpt>
      <trkpt lat="47.30081" lon="-1.39258">
        <ele>57</ele>
        <time>2020-12-06T10:44:47.840000+00:00</time>
      </trkpt>
      <trkpt lat="0" lon="0">
        <time>2020-12-06T10:44:47.848000+00:00</time>
      </trkpt>
      <trkpt lat="0" lon="0">
        <time>2020-12-06T10:44:47.852000+00:00</time>
      </trkpt>
      <trkpt lat="0" lon="0">
        <time>2020-12-06T10:44:47.854000+00:00</time>
      </trkpt>
      <trkpt lat="47.3008" lon="-1.39256">
        <ele>57</ele>
        <time>2020-12-06T10:44:48.820000+00:00</time>
      </trkpt>
      <trkpt lat="0" lon="0">
        <time>2020-12-06T10:44:48.830000+00:00</time>
      </trkpt>
      <trkpt lat="0" lon="0">
        <time>2020-12-06T10:44:48.838000+00:00</time>
      </trkpt>
      <trkpt lat="0" lon="0">
        <time>2020-12-06T10:44:48.840000+00:00</time>
      </trkpt>
      <trkpt lat="47.30079" lon="-1.39254">
        <ele>57</ele>
        <time>2020-12-06T10:44:49.817000+00:00</time>
      </trkpt>
      <trkpt lat="0" lon="0">
        <time>2020-12-06T10:44:49.838000+00:00</time>
      </trkpt>
      <trkpt lat="0" lon="0">
        <time>2020-12-06T10:44:49.842000+00:00</time>
      </trkpt>
      <trkpt lat="0" lon="0">
        <time>2020-12-06T10:44:49.844000+00:00</time>
      </trkpt>
      <trkpt lat="47.30078" lon="-1.39252">
        <ele>57</ele>
        <time>2020-12-06T10:44:50.878000+00:00</time>
      </trkpt>
      <trkpt lat="0" lon="0">
        <time>2020-12-06T10:44:50.888000+00:00</time>
      </trkpt>
      <trkpt lat="0" lon="0">
        <time>2020-12-06T10:44:50.902000+00:00</time>
      </trkpt>
      <trkpt lat="0" lon="0">
        <time>2020-12-06T10:44:50.907000+00:00</time>
      </trkpt>
      <trkpt lat="47.30078" lon="-1.39251">
        <ele>57</ele>
        <time>2020-12-06T10:44:51.865000+00:00</time>
      </trkpt>
      <trkpt lat="0" lon="0">
        <time>2020-12-06T10:44:51.874000+00:00</time>
      </trkpt>
      <trkpt lat="0" lon="0">
        <time>2020-12-06T10:44:51.878000+00:00</time>
      </trkpt>
      <trkpt lat="0" lon="0">
        <time>2020-12-06T10:44:51.881000+00:00</time>
      </trkpt>
      <trkpt lat="47.30077" lon="-1.39249">
        <ele>57</ele>
        <time>2020-12-06T10:44:52.895000+00:00</time>
      </trkpt>
      <trkpt lat="0" lon="0">
        <time>2020-12-06T10:44:52.907000+00:00</time>
      </trkpt>
      <trkpt lat="0" lon="0">
        <time>2020-12-06T10:44:52.913000+00:00</time>
      </trkpt>
      <trkpt lat="0" lon="0">
        <time>2020-12-06T10:44:52.916000+00:00</time>
      </trkpt>
      <trkpt lat="47.30076" lon="-1.39247">
        <ele>57</ele>
        <time>2020-12-06T10:44:53.892000+00:00</time>
      </trkpt>
      <trkpt lat="0" lon="0">
        <time>2020-12-06T10:44:53.909000+00:00</time>
      </trkpt>
      <trkpt lat="0" lon="0">
        <time>2020-12-06T10:44:53.913000+00:00</time>
      </trkpt>
      <trkpt lat="0" lon="0">
        <time>2020-12-06T10:44:53.916000+00:00</time>
      </trkpt>
      <trkpt lat="47.30075" lon="-1.39246">
        <ele>57</ele>
        <time>2020-12-06T10:44:54.870000+00:00</time>
      </trkpt>
      <trkpt lat="0" lon="0">
        <time>2020-12-06T10:44:54.874000+00:00</time>
      </trkpt>
      <trkpt lat="0" lon="0">
        <time>2020-12-06T10:44:54.884000+00:00</time>
      </trkpt>
      <trkpt lat="0" lon="0">
        <time>2020-12-06T10:44:54.886000+00:00</time>
      </trkpt>
      <trkpt lat="47.30074" lon="-1.39244">
        <ele>57</ele>
        <time>2020-12-06T10:44:55.862000+00:00</time>
      </trkpt>
      <trkpt lat="0" lon="0">
        <time>2020-12-06T10:44:55.873000+00:00</time>
      </trkpt>
      <trkpt lat="0" lon="0">
        <time>2020-12-06T10:44:55.877000+00:00</time>
      </trkpt>
      <trkpt lat="0" lon="0">
        <time>2020-12-06T10:44:55.879000+00:00</time>
      </trkpt>
      <trkpt lat="47.30074" lon="-1.39242">
        <ele>57</ele>
        <time>2020-12-06T10:44:56.823000+00:00</time>
      </trkpt>
      <trkpt lat="0" lon="0">
        <time>2020-12-06T10:44:56.840000+00:00</time>
      </trkpt>
      <trkpt lat="0" lon="0">
        <time>2020-12-06T10:44:56.844000+00:00</time>
      </trkpt>
      <trkpt lat="0" lon="0">
        <time>2020-12-06T10:44:56.847000+00:00</time>
      </trkpt>
      <trkpt lat="47.30073" lon="-1.3924">
        <ele>57</ele>
        <time>2020-12-06T10:44:57.854000+00:00</time>
      </trkpt>
      <trkpt lat="0" lon="0">
        <time>2020-12-06T10:44:57.873000+00:00</time>
      </trkpt>
      <trkpt lat="0" lon="0">
        <time>2020-12-06T10:44:57.875000+00:00</time>
      </trkpt>
      <trkpt lat="0" lon="0">
        <time>2020-12-06T10:44:57.876000+00:00</time>
      </trkpt>
      <trkpt lat="47.30072" lon="-1.39238">
        <ele>57</ele>
        <time>2020-12-06T10:44:58.829000+00:00</time>
      </trkpt>
      <trkpt lat="0" lon="0">
        <time>2020-12-06T10:44:58.834000+00:00</time>
      </trkpt>
      <trkpt lat="0" lon="0">
        <time>2020-12-06T10:44:58.848000+00:00</time>
      </trkpt>
      <trkpt lat="0" lon="0">
        <time>2020-12-06T10:44:58.851000+00:00</time>
      </trkpt>
      <trkpt lat="47.30071" lon="-1.39236">
        <ele>57</ele>
        <time>2020-12-06T10:44:59.857000+00:00</time>
      </trkpt>
      <trkpt lat="0" lon="0">
        <time>2020-12-06T10:44:59.861000+00:00</time>
      </trkpt>
      <trkpt lat="0" lon="0">
        <time>2020-12-06T10:44:59.866000+00:00</time>
      </trkpt>
      <trkpt lat="0" lon="0">
        <time>2020-12-06T10:44:59.868000+00:00</time>
      </trkpt>
      <trkpt lat="47.3007" lon="-1.39233">
        <ele>57</ele>
        <time>2020-12-06T10:45:00.833000+00:00</time>
      </trkpt>
      <trkpt lat="0" lon="0">
        <time>2020-12-06T10:45:00.836000+00:00</time>
      </trkpt>
      <trkpt lat="0" lon="0">
        <time>2020-12-06T10:45:00.843000+00:00</time>
      </trkpt>
      <trkpt lat="0" lon="0">
        <time>2020-12-06T10:45:00.846000+00:00</time>
      </trkpt>
      <trkpt lat="47.30069" lon="-1.39231">
        <ele>57</ele>
        <time>2020-12-06T10:45:01.777000+00:00</time>
      </trkpt>
      <trkpt lat="0" lon="0">
        <time>2020-12-06T10:45:01.789000+00:00</time>
      </trkpt>
      <trkpt lat="0" lon="0">
        <time>2020-12-06T10:45:01.797000+00:00</time>
      </trkpt>
      <trkpt lat="0" lon="0">
        <time>2020-12-06T10:45:01.803000+00:00</time>
      </trkpt>
      <trkpt lat="47.30068" lon="-1.39229">
        <ele>57</ele>
        <time>2020-12-06T10:45:02.825000+00:00</time>
      </trkpt>
      <trkpt lat="0" lon="0">
        <time>2020-12-06T10:45:02.829000+00:00</time>
      </trkpt>
      <trkpt lat="0" lon="0">
        <time>2020-12-06T10:45:02.846000+00:00</time>
      </trkpt>
      <trkpt lat="0" lon="0">
        <time>2020-12-06T10:45:02.854000+00:00</time>
      </trkpt>
      <trkpt lat="47.30066" lon="-1.39227">
        <ele>57</ele>
        <time>2020-12-06T10:45:03.873000+00:00</time>
      </trkpt>
      <trkpt lat="0" lon="0">
        <time>2020-12-06T10:45:03.885000+00:00</time>
      </trkpt>
      <trkpt lat="0" lon="0">
        <time>2020-12-06T10:45:03.893000+00:00</time>
      </trkpt>
      <trkpt lat="0" lon="0">
        <time>2020-12-06T10:45:03.895000+00:00</time>
      </trkpt>
      <trkpt lat="47.30065" lon="-1.39225">
        <ele>57</ele>
        <time>2020-12-06T10:45:04.839000+00:00</time>
      </trkpt>
      <trkpt lat="0" lon="0">
        <time>2020-12-06T10:45:04.862000+00:00</time>
      </trkpt>
      <trkpt lat="0" lon="0">
        <time>2020-12-06T10:45:04.868000+00:00</time>
      </trkpt>
      <trkpt lat="0" lon="0">
        <time>2020-12-06T10:45:04.869000+00:00</time>
      </trkpt>
      <trkpt lat="47.30063" lon="-1.39223">
        <ele>57</ele>
        <time>2020-12-06T10:45:05.849000+00:00</time>
      </trkpt>
      <trkpt lat="0" lon="0">
        <time>2020-12-06T10:45:05.863000+00:00</time>
      </trkpt>
      <trkpt lat="0" lon="0">
        <time>2020-12-06T10:45:05.871000+00:00</time>
      </trkpt>
      <trkpt lat="0" lon="0">
        <time>2020-12-06T10:45:05.873000+00:00</time>
      </trkpt>
      <trkpt lat="47.30062" lon="-1.39221">
        <ele>56</ele>
        <time>2020-12-06T10:45:06.824000+00:00</time>
      </trkpt>
      <trkpt lat="0" lon="0">
        <time>2020-12-06T10:45:06.829000+00:00</time>
      </trkpt>
      <trkpt lat="0" lon="0">
        <time>2020-12-06T10:45:06.834000+00:00</time>
      </trkpt>
      <trkpt lat="0" lon="0">
        <time>2020-12-06T10:45:06.836000+00:00</time>
      </trkpt>
      <trkpt lat="47.30061" lon="-1.3922">
        <ele>56</ele>
        <time>2020-12-06T10:45:07.846000+00:00</time>
      </trkpt>
      <trkpt lat="0" lon="0">
        <time>2020-12-06T10:45:07.849000+00:00</time>
      </trkpt>
      <trkpt lat="0" lon="0">
        <time>2020-12-06T10:45:07.860000+00:00</time>
      </trkpt>
      <trkpt lat="0" lon="0">
        <time>2020-12-06T10:45:07.862000+00:00</time>
      </trkpt>
      <trkpt lat="47.30059" lon="-1.39218">
        <ele>56</ele>
        <time>2020-12-06T10:45:08.875000+00:00</time>
      </trkpt>
      <trkpt lat="0" lon="0">
        <time>2020-12-06T10:45:08.887000+00:00</time>
      </trkpt>
      <trkpt lat="0" lon="0">
        <time>2020-12-06T10:45:08.896000+00:00</time>
      </trkpt>
      <trkpt lat="0" lon="0">
        <time>2020-12-06T10:45:08.904000+00:00</time>
      </trkpt>
      <trkpt lat="47.30058" lon="-1.39216">
        <ele>56</ele>
        <time>2020-12-06T10:45:09.844000+00:00</time>
      </trkpt>
      <trkpt lat="0" lon="0">
        <time>2020-12-06T10:45:09.858000+00:00</time>
      </trkpt>
      <trkpt lat="0" lon="0">
        <time>2020-12-06T10:45:09.863000+00:00</time>
      </trkpt>
      <trkpt lat="0" lon="0">
        <time>2020-12-06T10:45:09.866000+00:00</time>
      </trkpt>
      <trkpt lat="47.30057" lon="-1.39214">
        <ele>56</ele>
        <time>2020-12-06T10:45:10.858000+00:00</time>
      </trkpt>
      <trkpt lat="0" lon="0">
        <time>2020-12-06T10:45:10.872000+00:00</time>
      </trkpt>
      <trkpt lat="0" lon="0">
        <time>2020-12-06T10:45:10.878000+00:00</time>
      </trkpt>
      <trkpt lat="0" lon="0">
        <time>2020-12-06T10:45:10.881000+00:00</time>
      </trkpt>
      <trkpt lat="47.30056" lon="-1.39212">
        <ele>56</ele>
        <time>2020-12-06T10:45:11.814000+00:00</time>
      </trkpt>
      <trkpt lat="0" lon="0">
        <time>2020-12-06T10:45:11.820000+00:00</time>
      </trkpt>
      <trkpt lat="0" lon="0">
        <time>2020-12-06T10:45:11.824000+00:00</time>
      </trkpt>
      <trkpt lat="47.30055" lon="-1.3921">
        <ele>56</ele>
        <time>2020-12-06T10:45:12.842000+00:00</time>
      </trkpt>
      <trkpt lat="0" lon="0">
        <time>2020-12-06T10:45:12.857000+00:00</time>
      </trkpt>
      <trkpt lat="0" lon="0">
        <time>2020-12-06T10:45:12.860000+00:00</time>
      </trkpt>
      <trkpt lat="0" lon="0">
        <time>2020-12-06T10:45:12.865000+00:00</time>
      </trkpt>
      <trkpt lat="47.30055" lon="-1.39209">
        <ele>56</ele>
        <time>2020-12-06T10:45:13.872000+00:00</time>
      </trkpt>
      <trkpt lat="0" lon="0">
        <time>2020-12-06T10:45:13.876000+00:00</time>
      </trkpt>
      <trkpt lat="0" lon="0">
        <time>2020-12-06T10:45:13.880000+00:00</time>
      </trkpt>
      <trkpt lat="0" lon="0">
        <time>2020-12-06T10:45:13.882000+00:00</time>
      </trkpt>
      <trkpt lat="47.30055" lon="-1.39207">
        <ele>56</ele>
        <time>2020-12-06T10:45:14.865000+00:00</time>
      </trkpt>
      <trkpt lat="0" lon="0">
        <time>2020-12-06T10:45:14.875000+00:00</time>
      </trkpt>
      <trkpt lat="0" lon="0">
        <time>2020-12-06T10:45:14.890000+00:00</time>
      </trkpt>
      <trkpt lat="0" lon="0">
        <time>2020-12-06T10:45:14.893000+00:00</time>
      </trkpt>
      <trkpt lat="47.30055" lon="-1.39206">
        <ele>56</ele>
        <time>2020-12-06T10:45:15.861000+00:00</time>
      </trkpt>
      <trkpt lat="0" lon="0">
        <time>2020-12-06T10:45:15.868000+00:00</time>
      </trkpt>
      <trkpt lat="0" lon="0">
        <time>2020-12-06T10:45:15.871000+00:00</time>
      </trkpt>
      <trkpt lat="0" lon="0">
        <time>2020-12-06T10:45:15.880000+00:00</time>
      </trkpt>
      <trkpt lat="47.30056" lon="-1.39204">
        <ele>56</ele>
        <time>2020-12-06T10:45:16.830000+00:00</time>
      </trkpt>
      <trkpt lat="0" lon="0">
        <time>2020-12-06T10:45:16.852000+00:00</time>
      </trkpt>
      <trkpt lat="0" lon="0">
        <time>2020-12-06T10:45:16.855000+00:00</time>
      </trkpt>
      <trkpt lat="0" lon="0">
        <time>2020-12-06T10:45:16.856000+00:00</time>
      </trkpt>
      <trkpt lat="47.30057" lon="-1.39202">
        <ele>57</ele>
        <time>2020-12-06T10:45:17.846000+00:00</time>
      </trkpt>
      <trkpt lat="0" lon="0">
        <time>2020-12-06T10:45:17.859000+00:00</time>
      </trkpt>
      <trkpt lat="0" lon="0">
        <time>2020-12-06T10:45:17.862000+00:00</time>
      </trkpt>
      <trkpt lat="0" lon="0">
        <time>2020-12-06T10:45:17.864000+00:00</time>
      </trkpt>
      <trkpt lat="47.30059" lon="-1.39201">
        <ele>57</ele>
        <time>2020-12-06T10:45:18.854000+00:00</time>
      </trkpt>
      <trkpt lat="0" lon="0">
        <time>2020-12-06T10:45:18.864000+00:00</time>
      </trkpt>
      <trkpt lat="0" lon="0">
        <time>2020-12-06T10:45:18.872000+00:00</time>
      </trkpt>
      <trkpt lat="0" lon="0">
        <time>2020-12-06T10:45:18.874000+00:00</time>
      </trkpt>
      <trkpt lat="47.3006" lon="-1.39199">
        <ele>57</ele>
        <time>2020-12-06T10:45:19.851000+00:00</time>
      </trkpt>
      <trkpt lat="0" lon="0">
        <time>2020-12-06T10:45:19.854000+00:00</time>
      </trkpt>
      <trkpt lat="0" lon="0">
        <time>2020-12-06T10:45:19.866000+00:00</time>
      </trkpt>
      <trkpt lat="0" lon="0">
        <time>2020-12-06T10:45:19.871000+00:00</time>
      </trkpt>
      <trkpt lat="47.30062" lon="-1.39197">
        <ele>57</ele>
        <time>2020-12-06T10:45:20.803000+00:00</time>
      </trkpt>
      <trkpt lat="0" lon="0">
        <time>2020-12-06T10:45:20.810000+00:00</time>
      </trkpt>
      <trkpt lat="0" lon="0">
        <time>2020-12-06T10:45:20.818000+00:00</time>
      </trkpt>
      <trkpt lat="0" lon="0">
        <time>2020-12-06T10:45:20.820000+00:00</time>
      </trkpt>
      <trkpt lat="47.30065" lon="-1.39196">
        <ele>57</ele>
        <time>2020-12-06T10:45:21.840000+00:00</time>
      </trkpt>
      <trkpt lat="0" lon="0">
        <time>2020-12-06T10:45:21.856000+00:00</time>
      </trkpt>
      <trkpt lat="0" lon="0">
        <time>2020-12-06T10:45:21.861000+00:00</time>
      </trkpt>
      <trkpt lat="0" lon="0">
        <time>2020-12-06T10:45:21.863000+00:00</time>
      </trkpt>
      <trkpt lat="47.30067" lon="-1.39194">
        <ele>58</ele>
        <time>2020-12-06T10:45:22.799000+00:00</time>
      </trkpt>
      <trkpt lat="0" lon="0">
        <time>2020-12-06T10:45:22.810000+00:00</time>
      </trkpt>
      <trkpt lat="0" lon="0">
        <time>2020-12-06T10:45:22.813000+00:00</time>
      </trkpt>
      <trkpt lat="0" lon="0">
        <time>2020-12-06T10:45:22.818000+00:00</time>
      </trkpt>
      <trkpt lat="47.30069" lon="-1.39193">
        <ele>58</ele>
        <time>2020-12-06T10:45:23.857000+00:00</time>
      </trkpt>
      <trkpt lat="0" lon="0">
        <time>2020-12-06T10:45:23.867000+00:00</time>
      </trkpt>
      <trkpt lat="0" lon="0">
        <time>2020-12-06T10:45:23.880000+00:00</time>
      </trkpt>
      <trkpt lat="0" lon="0">
        <time>2020-12-06T10:45:23.882000+00:00</time>
      </trkpt>
      <trkpt lat="47.30072" lon="-1.39191">
        <ele>58</ele>
        <time>2020-12-06T10:45:24.809000+00:00</time>
      </trkpt>
      <trkpt lat="0" lon="0">
        <time>2020-12-06T10:45:24.815000+00:00</time>
      </trkpt>
      <trkpt lat="0" lon="0">
        <time>2020-12-06T10:45:24.826000+00:00</time>
      </trkpt>
      <trkpt lat="0" lon="0">
        <time>2020-12-06T10:45:24.833000+00:00</time>
      </trkpt>
      <trkpt lat="47.30074" lon="-1.39189">
        <ele>58</ele>
        <time>2020-12-06T10:45:25.829000+00:00</time>
      </trkpt>
      <trkpt lat="0" lon="0">
        <time>2020-12-06T10:45:25.842000+00:00</time>
      </trkpt>
      <trkpt lat="0" lon="0">
        <time>2020-12-06T10:45:25.846000+00:00</time>
      </trkpt>
      <trkpt lat="0" lon="0">
        <time>2020-12-06T10:45:25.849000+00:00</time>
      </trkpt>
      <trkpt lat="47.30076" lon="-1.39187">
        <ele>58</ele>
        <time>2020-12-06T10:45:26.821000+00:00</time>
      </trkpt>
      <trkpt lat="0" lon="0">
        <time>2020-12-06T10:45:26.829000+00:00</time>
      </trkpt>
      <trkpt lat="0" lon="0">
        <time>2020-12-06T10:45:26.837000+00:00</time>
      </trkpt>
      <trkpt lat="0" lon="0">
        <time>2020-12-06T10:45:26.839000+00:00</time>
      </trkpt>
      <trkpt lat="47.30079" lon="-1.39186">
        <ele>59</ele>
        <time>2020-12-06T10:45:27.851000+00:00</time>
      </trkpt>
      <trkpt lat="0" lon="0">
        <time>2020-12-06T10:45:27.856000+00:00</time>
      </trkpt>
      <trkpt lat="0" lon="0">
        <time>2020-12-06T10:45:27.859000+00:00</time>
      </trkpt>
      <trkpt lat="0" lon="0">
        <time>2020-12-06T10:45:27.862000+00:00</time>
      </trkpt>
      <trkpt lat="47.30081" lon="-1.39185">
        <ele>59</ele>
        <time>2020-12-06T10:45:28.822000+00:00</time>
      </trkpt>
      <trkpt lat="0" lon="0">
        <time>2020-12-06T10:45:28.829000+00:00</time>
      </trkpt>
      <trkpt lat="0" lon="0">
        <time>2020-12-06T10:45:28.834000+00:00</time>
      </trkpt>
      <trkpt lat="0" lon="0">
        <time>2020-12-06T10:45:28.837000+00:00</time>
      </trkpt>
      <trkpt lat="47.30084" lon="-1.39183">
        <ele>59</ele>
        <time>2020-12-06T10:45:29.882000+00:00</time>
      </trkpt>
      <trkpt lat="0" lon="0">
        <time>2020-12-06T10:45:29.891000+00:00</time>
      </trkpt>
      <trkpt lat="0" lon="0">
        <time>2020-12-06T10:45:29.896000+00:00</time>
      </trkpt>
      <trkpt lat="0" lon="0">
        <time>2020-12-06T10:45:29.899000+00:00</time>
      </trkpt>
      <trkpt lat="47.30087" lon="-1.39182">
        <ele>59</ele>
        <time>2020-12-06T10:45:30.898000+00:00</time>
      </trkpt>
      <trkpt lat="0" lon="0">
        <time>2020-12-06T10:45:30.903000+00:00</time>
      </trkpt>
      <trkpt lat="0" lon="0">
        <time>2020-12-06T10:45:30.909000+00:00</time>
      </trkpt>
      <trkpt lat="0" lon="0">
        <time>2020-12-06T10:45:30.911000+00:00</time>
      </trkpt>
      <trkpt lat="47.3009" lon="-1.39181">
        <ele>59</ele>
        <time>2020-12-06T10:45:31.833000+00:00</time>
      </trkpt>
      <trkpt lat="0" lon="0">
        <time>2020-12-06T10:45:31.847000+00:00</time>
      </trkpt>
      <trkpt lat="0" lon="0">
        <time>2020-12-06T10:45:31.852000+00:00</time>
      </trkpt>
      <trkpt lat="0" lon="0">
        <time>2020-12-06T10:45:31.853000+00:00</time>
      </trkpt>
      <trkpt lat="47.30092" lon="-1.3918">
        <ele>59</ele>
        <time>2020-12-06T10:45:32.861000+00:00</time>
      </trkpt>
      <trkpt lat="0" lon="0">
        <time>2020-12-06T10:45:32.877000+00:00</time>
      </trkpt>
      <trkpt lat="0" lon="0">
        <time>2020-12-06T10:45:32.880000+00:00</time>
      </trkpt>
      <trkpt lat="0" lon="0">
        <time>2020-12-06T10:45:32.883000+00:00</time>
      </trkpt>
      <trkpt lat="47.30095" lon="-1.3918">
        <ele>59</ele>
        <time>2020-12-06T10:45:33.885000+00:00</time>
      </trkpt>
      <trkpt lat="0" lon="0">
        <time>2020-12-06T10:45:33.906000+00:00</time>
      </trkpt>
      <trkpt lat="0" lon="0">
        <time>2020-12-06T10:45:33.910000+00:00</time>
      </trkpt>
      <trkpt lat="0" lon="0">
        <time>2020-12-06T10:45:33.912000+00:00</time>
      </trkpt>
      <trkpt lat="47.30098" lon="-1.39179">
        <ele>59</ele>
        <time>2020-12-06T10:45:34.861000+00:00</time>
      </trkpt>
      <trkpt lat="0" lon="0">
        <time>2020-12-06T10:45:34.876000+00:00</time>
      </trkpt>
      <trkpt lat="0" lon="0">
        <time>2020-12-06T10:45:34.878000+00:00</time>
      </trkpt>
      <trkpt lat="0" lon="0">
        <time>2020-12-06T10:45:34.879000+00:00</time>
      </trkpt>
      <trkpt lat="47.30101" lon="-1.39178">
        <ele>59</ele>
        <time>2020-12-06T10:45:35.836000+00:00</time>
      </trkpt>
      <trkpt lat="0" lon="0">
        <time>2020-12-06T10:45:35.840000+00:00</time>
      </trkpt>
      <trkpt lat="0" lon="0">
        <time>2020-12-06T10:45:35.859000+00:00</time>
      </trkpt>
      <trkpt lat="0" lon="0">
        <time>2020-12-06T10:45:35.865000+00:00</time>
      </trkpt>
      <trkpt lat="47.30103" lon="-1.39178">
        <ele>59</ele>
        <time>2020-12-06T10:45:36.830000+00:00</time>
      </trkpt>
      <trkpt lat="0" lon="0">
        <time>2020-12-06T10:45:36.841000+00:00</time>
      </trkpt>
      <trkpt lat="0" lon="0">
        <time>2020-12-06T10:45:36.845000+00:00</time>
      </trkpt>
      <trkpt lat="0" lon="0">
        <time>2020-12-06T10:45:36.852000+00:00</time>
      </trkpt>
      <trkpt lat="47.30106" lon="-1.39177">
        <ele>59</ele>
        <time>2020-12-06T10:45:37.862000+00:00</time>
      </trkpt>
      <trkpt lat="0" lon="0">
        <time>2020-12-06T10:45:37.873000+00:00</time>
      </trkpt>
      <trkpt lat="0" lon="0">
        <time>2020-12-06T10:45:37.876000+00:00</time>
      </trkpt>
      <trkpt lat="0" lon="0">
        <time>2020-12-06T10:45:37.879000+00:00</time>
      </trkpt>
      <trkpt lat="47.30109" lon="-1.39177">
        <ele>59</ele>
        <time>2020-12-06T10:45:38.863000+00:00</time>
      </trkpt>
      <trkpt lat="0" lon="0">
        <time>2020-12-06T10:45:38.869000+00:00</time>
      </trkpt>
      <trkpt lat="0" lon="0">
        <time>2020-12-06T10:45:38.877000+00:00</time>
      </trkpt>
      <trkpt lat="0" lon="0">
        <time>2020-12-06T10:45:38.889000+00:00</time>
      </trkpt>
      <trkpt lat="47.30112" lon="-1.39177">
        <ele>60</ele>
        <time>2020-12-06T10:45:39.857000+00:00</time>
      </trkpt>
      <trkpt lat="0" lon="0">
        <time>2020-12-06T10:45:39.866000+00:00</time>
      </trkpt>
      <trkpt lat="0" lon="0">
        <time>2020-12-06T10:45:39.875000+00:00</time>
      </trkpt>
      <trkpt lat="0" lon="0">
        <time>2020-12-06T10:45:39.885000+00:00</time>
      </trkpt>
      <trkpt lat="47.30115" lon="-1.39177">
        <ele>60</ele>
        <time>2020-12-06T10:45:40.862000+00:00</time>
      </trkpt>
      <trkpt lat="0" lon="0">
        <time>2020-12-06T10:45:40.885000+00:00</time>
      </trkpt>
      <trkpt lat="0" lon="0">
        <time>2020-12-06T10:45:40.898000+00:00</time>
      </trkpt>
      <trkpt lat="0" lon="0">
        <time>2020-12-06T10:45:40.903000+00:00</time>
      </trkpt>
      <trkpt lat="47.30118" lon="-1.39177">
        <ele>60</ele>
        <time>2020-12-06T10:45:41.873000+00:00</time>
      </trkpt>
      <trkpt lat="0" lon="0">
        <time>2020-12-06T10:45:41.878000+00:00</time>
      </trkpt>
      <trkpt lat="0" lon="0">
        <time>2020-12-06T10:45:41.890000+00:00</time>
      </trkpt>
      <trkpt lat="0" lon="0">
        <time>2020-12-06T10:45:41.892000+00:00</time>
      </trkpt>
      <trkpt lat="47.30121" lon="-1.39176">
        <ele>60</ele>
        <time>2020-12-06T10:45:42.912000+00:00</time>
      </trkpt>
      <trkpt lat="0" lon="0">
        <time>2020-12-06T10:45:42.932000+00:00</time>
      </trkpt>
      <trkpt lat="0" lon="0">
        <time>2020-12-06T10:45:42.938000+00:00</time>
      </trkpt>
      <trkpt lat="0" lon="0">
        <time>2020-12-06T10:45:42.941000+00:00</time>
      </trkpt>
      <trkpt lat="47.30124" lon="-1.39176">
        <ele>60</ele>
        <time>2020-12-06T10:45:43.866000+00:00</time>
      </trkpt>
      <trkpt lat="0" lon="0">
        <time>2020-12-06T10:45:43.873000+00:00</time>
      </trkpt>
      <trkpt lat="0" lon="0">
        <time>2020-12-06T10:45:43.880000+00:00</time>
      </trkpt>
      <trkpt lat="0" lon="0">
        <time>2020-12-06T10:45:43.881000+00:00</time>
      </trkpt>
      <trkpt lat="47.30128" lon="-1.39175">
        <ele>60</ele>
        <time>2020-12-06T10:45:44.842000+00:00</time>
      </trkpt>
      <trkpt lat="0" lon="0">
        <time>2020-12-06T10:45:44.847000+00:00</time>
      </trkpt>
      <trkpt lat="0" lon="0">
        <time>2020-12-06T10:45:44.849000+00:00</time>
      </trkpt>
      <trkpt lat="0" lon="0">
        <time>2020-12-06T10:45:44.850000+00:00</time>
      </trkpt>
      <trkpt lat="47.30131" lon="-1.39175">
        <ele>60</ele>
        <time>2020-12-06T10:45:45.877000+00:00</time>
      </trkpt>
      <trkpt lat="0" lon="0">
        <time>2020-12-06T10:45:45.880000+00:00</time>
      </trkpt>
      <trkpt lat="0" lon="0">
        <time>2020-12-06T10:45:45.884000+00:00</time>
      </trkpt>
      <trkpt lat="0" lon="0">
        <time>2020-12-06T10:45:45.886000+00:00</time>
      </trkpt>
      <trkpt lat="47.30134" lon="-1.39174">
        <ele>60</ele>
        <time>2020-12-06T10:45:46.883000+00:00</time>
      </trkpt>
      <trkpt lat="0" lon="0">
        <time>2020-12-06T10:45:46.896000+00:00</time>
      </trkpt>
      <trkpt lat="0" lon="0">
        <time>2020-12-06T10:45:46.900000+00:00</time>
      </trkpt>
      <trkpt lat="0" lon="0">
        <time>2020-12-06T10:45:46.902000+00:00</time>
      </trkpt>
      <trkpt lat="47.30137" lon="-1.39172">
        <ele>60</ele>
        <time>2020-12-06T10:45:47.862000+00:00</time>
      </trkpt>
      <trkpt lat="0" lon="0">
        <time>2020-12-06T10:45:47.867000+00:00</time>
      </trkpt>
      <trkpt lat="0" lon="0">
        <time>2020-12-06T10:45:47.881000+00:00</time>
      </trkpt>
      <trkpt lat="0" lon="0">
        <time>2020-12-06T10:45:47.883000+00:00</time>
      </trkpt>
      <trkpt lat="47.3014" lon="-1.39171">
        <ele>60</ele>
        <time>2020-12-06T10:45:48.865000+00:00</time>
      </trkpt>
      <trkpt lat="0" lon="0">
        <time>2020-12-06T10:45:48.877000+00:00</time>
      </trkpt>
      <trkpt lat="0" lon="0">
        <time>2020-12-06T10:45:48.882000+00:00</time>
      </trkpt>
      <trkpt lat="0" lon="0">
        <time>2020-12-06T10:45:48.884000+00:00</time>
      </trkpt>
      <trkpt lat="47.30143" lon="-1.39169">
        <ele>60</ele>
        <time>2020-12-06T10:45:49.860000+00:00</time>
      </trkpt>
      <trkpt lat="0" lon="0">
        <time>2020-12-06T10:45:49.874000+00:00</time>
      </trkpt>
      <trkpt lat="0" lon="0">
        <time>2020-12-06T10:45:49.885000+00:00</time>
      </trkpt>
      <trkpt lat="0" lon="0">
        <time>2020-12-06T10:45:49.887000+00:00</time>
      </trkpt>
      <trkpt lat="47.30146" lon="-1.39167">
        <ele>60</ele>
        <time>2020-12-06T10:45:50.858000+00:00</time>
      </trkpt>
      <trkpt lat="0" lon="0">
        <time>2020-12-06T10:45:50.869000+00:00</time>
      </trkpt>
      <trkpt lat="0" lon="0">
        <time>2020-12-06T10:45:50.876000+00:00</time>
      </trkpt>
      <trkpt lat="0" lon="0">
        <time>2020-12-06T10:45:50.877000+00:00</time>
      </trkpt>
      <trkpt lat="47.30149" lon="-1.39164">
        <ele>60</ele>
        <time>2020-12-06T10:45:51.885000+00:00</time>
      </trkpt>
      <trkpt lat="0" lon="0">
        <time>2020-12-06T10:45:51.895000+00:00</time>
      </trkpt>
      <trkpt lat="0" lon="0">
        <time>2020-12-06T10:45:51.900000+00:00</time>
      </trkpt>
      <trkpt lat="0" lon="0">
        <time>2020-12-06T10:45:51.901000+00:00</time>
      </trkpt>
      <trkpt lat="47.30152" lon="-1.39161">
        <ele>60</ele>
        <time>2020-12-06T10:45:52.911000+00:00</time>
      </trkpt>
      <trkpt lat="0" lon="0">
        <time>2020-12-06T10:45:52.919000+00:00</time>
      </trkpt>
      <trkpt lat="0" lon="0">
        <time>2020-12-06T10:45:52.924000+00:00</time>
      </trkpt>
      <trkpt lat="0" lon="0">
        <time>2020-12-06T10:45:52.926000+00:00</time>
      </trkpt>
      <trkpt lat="47.30155" lon="-1.39158">
        <ele>61</ele>
        <time>2020-12-06T10:45:53.883000+00:00</time>
      </trkpt>
      <trkpt lat="0" lon="0">
        <time>2020-12-06T10:45:53.903000+00:00</time>
      </trkpt>
      <trkpt lat="0" lon="0">
        <time>2020-12-06T10:45:53.907000+00:00</time>
      </trkpt>
      <trkpt lat="0" lon="0">
        <time>2020-12-06T10:45:53.909000+00:00</time>
      </trkpt>
      <trkpt lat="47.30158" lon="-1.39155">
        <ele>61</ele>
        <time>2020-12-06T10:45:54.871000+00:00</time>
      </trkpt>
      <trkpt lat="0" lon="0">
        <time>2020-12-06T10:45:54.886000+00:00</time>
      </trkpt>
      <trkpt lat="0" lon="0">
        <time>2020-12-06T10:45:54.891000+00:00</time>
      </trkpt>
      <trkpt lat="0" lon="0">
        <time>2020-12-06T10:45:54.894000+00:00</time>
      </trkpt>
      <trkpt lat="47.30161" lon="-1.39152">
        <ele>61</ele>
        <time>2020-12-06T10:45:55.870000+00:00</time>
      </trkpt>
      <trkpt lat="0" lon="0">
        <time>2020-12-06T10:45:55.877000+00:00</time>
      </trkpt>
      <trkpt lat="0" lon="0">
        <time>2020-12-06T10:45:55.880000+00:00</time>
      </trkpt>
      <trkpt lat="0" lon="0">
        <time>2020-12-06T10:45:55.882000+00:00</time>
      </trkpt>
      <trkpt lat="47.30163" lon="-1.39149">
        <ele>61</ele>
        <time>2020-12-06T10:45:56.819000+00:00</time>
      </trkpt>
      <trkpt lat="0" lon="0">
        <time>2020-12-06T10:45:56.825000+00:00</time>
      </trkpt>
      <trkpt lat="0" lon="0">
        <time>2020-12-06T10:45:56.826000+00:00</time>
      </trkpt>
      <trkpt lat="0" lon="0">
        <time>2020-12-06T10:45:56.827000+00:00</time>
      </trkpt>
      <trkpt lat="47.30166" lon="-1.39145">
        <ele>61</ele>
        <time>2020-12-06T10:45:57.861000+00:00</time>
      </trkpt>
      <trkpt lat="0" lon="0">
        <time>2020-12-06T10:45:57.869000+00:00</time>
      </trkpt>
      <trkpt lat="0" lon="0">
        <time>2020-12-06T10:45:57.889000+00:00</time>
      </trkpt>
      <trkpt lat="0" lon="0">
        <time>2020-12-06T10:45:57.892000+00:00</time>
      </trkpt>
      <trkpt lat="47.30169" lon="-1.39142">
        <ele>61</ele>
        <time>2020-12-06T10:45:58.886000+00:00</time>
      </trkpt>
      <trkpt lat="0" lon="0">
        <time>2020-12-06T10:45:58.899000+00:00</time>
      </trkpt>
      <trkpt lat="0" lon="0">
        <time>2020-12-06T10:45:58.904000+00:00</time>
      </trkpt>
      <trkpt lat="0" lon="0">
        <time>2020-12-06T10:45:58.906000+00:00</time>
      </trkpt>
      <trkpt lat="47.30171" lon="-1.39138">
        <ele>61</ele>
        <time>2020-12-06T10:45:59.890000+00:00</time>
      </trkpt>
      <trkpt lat="0" lon="0">
        <time>2020-12-06T10:45:59.916000+00:00</time>
      </trkpt>
      <trkpt lat="0" lon="0">
        <time>2020-12-06T10:45:59.921000+00:00</time>
      </trkpt>
      <trkpt lat="0" lon="0">
        <time>2020-12-06T10:45:59.923000+00:00</time>
      </trkpt>
      <trkpt lat="47.30173" lon="-1.39134">
        <ele>61</ele>
        <time>2020-12-06T10:46:00.855000+00:00</time>
      </trkpt>
      <trkpt lat="0" lon="0">
        <time>2020-12-06T10:46:00.878000+00:00</time>
      </trkpt>
      <trkpt lat="0" lon="0">
        <time>2020-12-06T10:46:00.881000+00:00</time>
      </trkpt>
      <trkpt lat="0" lon="0">
        <time>2020-12-06T10:46:00.883000+00:00</time>
      </trkpt>
      <trkpt lat="47.30176" lon="-1.3913">
        <ele>61</ele>
        <time>2020-12-06T10:46:01.864000+00:00</time>
      </trkpt>
      <trkpt lat="0" lon="0">
        <time>2020-12-06T10:46:01.868000+00:00</time>
      </trkpt>
      <trkpt lat="0" lon="0">
        <time>2020-12-06T10:46:01.872000+00:00</time>
      </trkpt>
      <trkpt lat="0" lon="0">
        <time>2020-12-06T10:46:01.875000+00:00</time>
      </trkpt>
      <trkpt lat="47.30178" lon="-1.39126">
        <ele>61</ele>
        <time>2020-12-06T10:46:02.833000+00:00</time>
      </trkpt>
      <trkpt lat="0" lon="0">
        <time>2020-12-06T10:46:02.843000+00:00</time>
      </trkpt>
      <trkpt lat="0" lon="0">
        <time>2020-12-06T10:46:02.849000+00:00</time>
      </trkpt>
      <trkpt lat="0" lon="0">
        <time>2020-12-06T10:46:02.851000+00:00</time>
      </trkpt>
      <trkpt lat="47.3018" lon="-1.39122">
        <ele>62</ele>
        <time>2020-12-06T10:46:03.852000+00:00</time>
      </trkpt>
      <trkpt lat="0" lon="0">
        <time>2020-12-06T10:46:03.858000+00:00</time>
      </trkpt>
      <trkpt lat="0" lon="0">
        <time>2020-12-06T10:46:03.870000+00:00</time>
      </trkpt>
      <trkpt lat="0" lon="0">
        <time>2020-12-06T10:46:03.872000+00:00</time>
      </trkpt>
      <trkpt lat="47.30182" lon="-1.39118">
        <ele>62</ele>
        <time>2020-12-06T10:46:04.872000+00:00</time>
      </trkpt>
      <trkpt lat="0" lon="0">
        <time>2020-12-06T10:46:04.883000+00:00</time>
      </trkpt>
      <trkpt lat="0" lon="0">
        <time>2020-12-06T10:46:04.888000+00:00</time>
      </trkpt>
      <trkpt lat="0" lon="0">
        <time>2020-12-06T10:46:04.891000+00:00</time>
      </trkpt>
      <trkpt lat="47.30184" lon="-1.39113">
        <ele>62</ele>
        <time>2020-12-06T10:46:05.875000+00:00</time>
      </trkpt>
      <trkpt lat="0" lon="0">
        <time>2020-12-06T10:46:05.888000+00:00</time>
      </trkpt>
      <trkpt lat="0" lon="0">
        <time>2020-12-06T10:46:05.896000+00:00</time>
      </trkpt>
      <trkpt lat="0" lon="0">
        <time>2020-12-06T10:46:05.898000+00:00</time>
      </trkpt>
      <trkpt lat="47.30185" lon="-1.39109">
        <ele>62</ele>
        <time>2020-12-06T10:46:06.864000+00:00</time>
      </trkpt>
      <trkpt lat="0" lon="0">
        <time>2020-12-06T10:46:06.871000+00:00</time>
      </trkpt>
      <trkpt lat="0" lon="0">
        <time>2020-12-06T10:46:06.882000+00:00</time>
      </trkpt>
      <trkpt lat="0" lon="0">
        <time>2020-12-06T10:46:06.889000+00:00</time>
      </trkpt>
      <trkpt lat="47.30187" lon="-1.39105">
        <ele>62</ele>
        <time>2020-12-06T10:46:07.854000+00:00</time>
      </trkpt>
      <trkpt lat="0" lon="0">
        <time>2020-12-06T10:46:07.872000+00:00</time>
      </trkpt>
      <trkpt lat="0" lon="0">
        <time>2020-12-06T10:46:07.876000+00:00</time>
      </trkpt>
      <trkpt lat="0" lon="0">
        <time>2020-12-06T10:46:07.878000+00:00</time>
      </trkpt>
      <trkpt lat="47.30188" lon="-1.391">
        <ele>62</ele>
        <time>2020-12-06T10:46:08.853000+00:00</time>
      </trkpt>
      <trkpt lat="0" lon="0">
        <time>2020-12-06T10:46:08.862000+00:00</time>
      </trkpt>
      <trkpt lat="0" lon="0">
        <time>2020-12-06T10:46:08.868000+00:00</time>
      </trkpt>
      <trkpt lat="0" lon="0">
        <time>2020-12-06T10:46:08.869000+00:00</time>
      </trkpt>
      <trkpt lat="47.3019" lon="-1.39096">
        <ele>62</ele>
        <time>2020-12-06T10:46:09.889000+00:00</time>
      </trkpt>
      <trkpt lat="0" lon="0">
        <time>2020-12-06T10:46:09.894000+00:00</time>
      </trkpt>
      <trkpt lat="0" lon="0">
        <time>2020-12-06T10:46:09.898000+00:00</time>
      </trkpt>
      <trkpt lat="0" lon="0">
        <time>2020-12-06T10:46:09.900000+00:00</time>
      </trkpt>
      <trkpt lat="47.30192" lon="-1.39092">
        <ele>63</ele>
        <time>2020-12-06T10:46:10.887000+00:00</time>
      </trkpt>
      <trkpt lat="0" lon="0">
        <time>2020-12-06T10:46:10.893000+00:00</time>
      </trkpt>
      <trkpt lat="0" lon="0">
        <time>2020-12-06T10:46:10.909000+00:00</time>
      </trkpt>
      <trkpt lat="0" lon="0">
        <time>2020-12-06T10:46:10.911000+00:00</time>
      </trkpt>
      <trkpt lat="47.30194" lon="-1.39087">
        <ele>63</ele>
        <time>2020-12-06T10:46:11.881000+00:00</time>
      </trkpt>
      <trkpt lat="0" lon="0">
        <time>2020-12-06T10:46:11.893000+00:00</time>
      </trkpt>
      <trkpt lat="0" lon="0">
        <time>2020-12-06T10:46:11.900000+00:00</time>
      </trkpt>
      <trkpt lat="0" lon="0">
        <time>2020-12-06T10:46:11.906000+00:00</time>
      </trkpt>
      <trkpt lat="47.30196" lon="-1.39084">
        <ele>63</ele>
        <time>2020-12-06T10:46:12.876000+00:00</time>
      </trkpt>
      <trkpt lat="0" lon="0">
        <time>2020-12-06T10:46:12.885000+00:00</time>
      </trkpt>
      <trkpt lat="0" lon="0">
        <time>2020-12-06T10:46:12.891000+00:00</time>
      </trkpt>
      <trkpt lat="0" lon="0">
        <time>2020-12-06T10:46:12.900000+00:00</time>
      </trkpt>
      <trkpt lat="47.30198" lon="-1.3908">
        <ele>63</ele>
        <time>2020-12-06T10:46:13.880000+00:00</time>
      </trkpt>
      <trkpt lat="0" lon="0">
        <time>2020-12-06T10:46:13.885000+00:00</time>
      </trkpt>
      <trkpt lat="0" lon="0">
        <time>2020-12-06T10:46:13.893000+00:00</time>
      </trkpt>
      <trkpt lat="0" lon="0">
        <time>2020-12-06T10:46:13.896000+00:00</time>
      </trkpt>
      <trkpt lat="47.302" lon="-1.39077">
        <ele>63</ele>
        <time>2020-12-06T10:46:14.859000+00:00</time>
      </trkpt>
      <trkpt lat="0" lon="0">
        <time>2020-12-06T10:46:14.864000+00:00</time>
      </trkpt>
      <trkpt lat="0" lon="0">
        <time>2020-12-06T10:46:14.875000+00:00</time>
      </trkpt>
      <trkpt lat="0" lon="0">
        <time>2020-12-06T10:46:14.879000+00:00</time>
      </trkpt>
      <trkpt lat="47.30202" lon="-1.39074">
        <ele>63</ele>
        <time>2020-12-06T10:46:15.870000+00:00</time>
      </trkpt>
      <trkpt lat="0" lon="0">
        <time>2020-12-06T10:46:15.882000+00:00</time>
      </trkpt>
      <trkpt lat="0" lon="0">
        <time>2020-12-06T10:46:15.884000+00:00</time>
      </trkpt>
      <trkpt lat="0" lon="0">
        <time>2020-12-06T10:46:15.885000+00:00</time>
      </trkpt>
      <trkpt lat="47.30205" lon="-1.39071">
        <ele>63</ele>
        <time>2020-12-06T10:46:16.904000+00:00</time>
      </trkpt>
      <trkpt lat="0" lon="0">
        <time>2020-12-06T10:46:16.920000+00:00</time>
      </trkpt>
      <trkpt lat="0" lon="0">
        <time>2020-12-06T10:46:16.930000+00:00</time>
      </trkpt>
      <trkpt lat="0" lon="0">
        <time>2020-12-06T10:46:16.931000+00:00</time>
      </trkpt>
      <trkpt lat="47.30207" lon="-1.39069">
        <ele>63</ele>
        <time>2020-12-06T10:46:17.877000+00:00</time>
      </trkpt>
      <trkpt lat="0" lon="0">
        <time>2020-12-06T10:46:17.887000+00:00</time>
      </trkpt>
      <trkpt lat="0" lon="0">
        <time>2020-12-06T10:46:17.893000+00:00</time>
      </trkpt>
      <trkpt lat="0" lon="0">
        <time>2020-12-06T10:46:17.899000+00:00</time>
      </trkpt>
      <trkpt lat="47.3021" lon="-1.39067">
        <ele>64</ele>
        <time>2020-12-06T10:46:18.854000+00:00</time>
      </trkpt>
      <trkpt lat="0" lon="0">
        <time>2020-12-06T10:46:18.861000+00:00</time>
      </trkpt>
      <trkpt lat="0" lon="0">
        <time>2020-12-06T10:46:18.865000+00:00</time>
      </trkpt>
      <trkpt lat="0" lon="0">
        <time>2020-12-06T10:46:18.870000+00:00</time>
      </trkpt>
      <trkpt lat="47.30213" lon="-1.39066">
        <ele>64</ele>
        <time>2020-12-06T10:46:19.885000+00:00</time>
      </trkpt>
      <trkpt lat="0" lon="0">
        <time>2020-12-06T10:46:19.898000+00:00</time>
      </trkpt>
      <trkpt lat="0" lon="0">
        <time>2020-12-06T10:46:19.903000+00:00</time>
      </trkpt>
      <trkpt lat="0" lon="0">
        <time>2020-12-06T10:46:19.906000+00:00</time>
      </trkpt>
      <trkpt lat="47.30216" lon="-1.39064">
        <ele>64</ele>
        <time>2020-12-06T10:46:20.924000+00:00</time>
      </trkpt>
      <trkpt lat="0" lon="0">
        <time>2020-12-06T10:46:20.931000+00:00</time>
      </trkpt>
      <trkpt lat="0" lon="0">
        <time>2020-12-06T10:46:20.942000+00:00</time>
      </trkpt>
      <trkpt lat="0" lon="0">
        <time>2020-12-06T10:46:20.945000+00:00</time>
      </trkpt>
      <trkpt lat="47.30219" lon="-1.39063">
        <ele>64</ele>
        <time>2020-12-06T10:46:21.867000+00:00</time>
      </trkpt>
      <trkpt lat="0" lon="0">
        <time>2020-12-06T10:46:21.878000+00:00</time>
      </trkpt>
      <trkpt lat="0" lon="0">
        <time>2020-12-06T10:46:21.883000+00:00</time>
      </trkpt>
      <trkpt lat="0" lon="0">
        <time>2020-12-06T10:46:21.885000+00:00</time>
      </trkpt>
      <trkpt lat="47.30222" lon="-1.39061">
        <ele>64</ele>
        <time>2020-12-06T10:46:22.780000+00:00</time>
      </trkpt>
      <trkpt lat="0" lon="0">
        <time>2020-12-06T10:46:22.784000+00:00</time>
      </trkpt>
      <trkpt lat="0" lon="0">
        <time>2020-12-06T10:46:22.785000+00:00</time>
      </trkpt>
      <trkpt lat="0" lon="0">
        <time>2020-12-06T10:46:22.786000+00:00</time>
      </trkpt>
      <trkpt lat="47.30225" lon="-1.3906">
        <ele>64</ele>
        <time>2020-12-06T10:46:23.851000+00:00</time>
      </trkpt>
      <trkpt lat="0" lon="0">
        <time>2020-12-06T10:46:23.860000+00:00</time>
      </trkpt>
      <trkpt lat="0" lon="0">
        <time>2020-12-06T10:46:23.868000+00:00</time>
      </trkpt>
      <trkpt lat="0" lon="0">
        <time>2020-12-06T10:46:23.870000+00:00</time>
      </trkpt>
      <trkpt lat="47.30228" lon="-1.39058">
        <ele>64</ele>
        <time>2020-12-06T10:46:24.890000+00:00</time>
      </trkpt>
      <trkpt lat="0" lon="0">
        <time>2020-12-06T10:46:24.897000+00:00</time>
      </trkpt>
      <trkpt lat="0" lon="0">
        <time>2020-12-06T10:46:24.903000+00:00</time>
      </trkpt>
      <trkpt lat="0" lon="0">
        <time>2020-12-06T10:46:24.905000+00:00</time>
      </trkpt>
      <trkpt lat="47.30231" lon="-1.39057">
        <ele>64</ele>
        <time>2020-12-06T10:46:25.864000+00:00</time>
      </trkpt>
      <trkpt lat="0" lon="0">
        <time>2020-12-06T10:46:25.873000+00:00</time>
      </trkpt>
      <trkpt lat="0" lon="0">
        <time>2020-12-06T10:46:25.887000+00:00</time>
      </trkpt>
      <trkpt lat="0" lon="0">
        <time>2020-12-06T10:46:25.889000+00:00</time>
      </trkpt>
      <trkpt lat="47.30234" lon="-1.39055">
        <ele>64</ele>
        <time>2020-12-06T10:46:26.861000+00:00</time>
      </trkpt>
      <trkpt lat="0" lon="0">
        <time>2020-12-06T10:46:26.871000+00:00</time>
      </trkpt>
      <trkpt lat="0" lon="0">
        <time>2020-12-06T10:46:26.874000+00:00</time>
      </trkpt>
      <trkpt lat="0" lon="0">
        <time>2020-12-06T10:46:26.876000+00:00</time>
      </trkpt>
      <trkpt lat="47.30237" lon="-1.39053">
        <ele>64</ele>
        <time>2020-12-06T10:46:27.816000+00:00</time>
      </trkpt>
      <trkpt lat="0" lon="0">
        <time>2020-12-06T10:46:27.827000+00:00</time>
      </trkpt>
      <trkpt lat="0" lon="0">
        <time>2020-12-06T10:46:27.834000+00:00</time>
      </trkpt>
      <trkpt lat="0" lon="0">
        <time>2020-12-06T10:46:27.835000+00:00</time>
      </trkpt>
      <trkpt lat="47.3024" lon="-1.39052">
        <ele>64</ele>
        <time>2020-12-06T10:46:28.867000+00:00</time>
      </trkpt>
      <trkpt lat="0" lon="0">
        <time>2020-12-06T10:46:28.888000+00:00</time>
      </trkpt>
      <trkpt lat="0" lon="0">
        <time>2020-12-06T10:46:28.891000+00:00</time>
      </trkpt>
      <trkpt lat="0" lon="0">
        <time>2020-12-06T10:46:28.893000+00:00</time>
      </trkpt>
      <trkpt lat="47.30243" lon="-1.3905">
        <ele>65</ele>
        <time>2020-12-06T10:46:29.876000+00:00</time>
      </trkpt>
      <trkpt lat="0" lon="0">
        <time>2020-12-06T10:46:29.882000+00:00</time>
      </trkpt>
      <trkpt lat="0" lon="0">
        <time>2020-12-06T10:46:29.883000+00:00</time>
      </trkpt>
      <trkpt lat="47.30246" lon="-1.39048">
        <ele>65</ele>
        <time>2020-12-06T10:46:30.869000+00:00</time>
      </trkpt>
      <trkpt lat="0" lon="0">
        <time>2020-12-06T10:46:30.882000+00:00</time>
      </trkpt>
      <trkpt lat="0" lon="0">
        <time>2020-12-06T10:46:30.899000+00:00</time>
      </trkpt>
      <trkpt lat="0" lon="0">
        <time>2020-12-06T10:46:30.901000+00:00</time>
      </trkpt>
      <trkpt lat="47.30248" lon="-1.39046">
        <ele>65</ele>
        <time>2020-12-06T10:46:31.838000+00:00</time>
      </trkpt>
      <trkpt lat="0" lon="0">
        <time>2020-12-06T10:46:31.856000+00:00</time>
      </trkpt>
      <trkpt lat="0" lon="0">
        <time>2020-12-06T10:46:31.867000+00:00</time>
      </trkpt>
      <trkpt lat="0" lon="0">
        <time>2020-12-06T10:46:31.870000+00:00</time>
      </trkpt>
      <trkpt lat="47.30251" lon="-1.39044">
        <ele>65</ele>
        <time>2020-12-06T10:46:32.855000+00:00</time>
      </trkpt>
      <trkpt lat="0" lon="0">
        <time>2020-12-06T10:46:32.861000+00:00</time>
      </trkpt>
      <trkpt lat="0" lon="0">
        <time>2020-12-06T10:46:32.866000+00:00</time>
      </trkpt>
      <trkpt lat="0" lon="0">
        <time>2020-12-06T10:46:32.869000+00:00</time>
      </trkpt>
      <trkpt lat="47.30254" lon="-1.39042">
        <ele>65</ele>
        <time>2020-12-06T10:46:33.868000+00:00</time>
      </trkpt>
      <trkpt lat="0" lon="0">
        <time>2020-12-06T10:46:33.871000+00:00</time>
      </trkpt>
      <trkpt lat="0" lon="0">
        <time>2020-12-06T10:46:33.875000+00:00</time>
      </trkpt>
      <trkpt lat="0" lon="0">
        <time>2020-12-06T10:46:33.885000+00:00</time>
      </trkpt>
      <trkpt lat="47.30257" lon="-1.39039">
        <ele>65</ele>
        <time>2020-12-06T10:46:34.823000+00:00</time>
      </trkpt>
      <trkpt lat="0" lon="0">
        <time>2020-12-06T10:46:34.829000+00:00</time>
      </trkpt>
      <trkpt lat="0" lon="0">
        <time>2020-12-06T10:46:34.832000+00:00</time>
      </trkpt>
      <trkpt lat="0" lon="0">
        <time>2020-12-06T10:46:34.834000+00:00</time>
      </trkpt>
      <trkpt lat="47.3026" lon="-1.39037">
        <ele>65</ele>
        <time>2020-12-06T10:46:35.859000+00:00</time>
      </trkpt>
      <trkpt lat="0" lon="0">
        <time>2020-12-06T10:46:35.873000+00:00</time>
      </trkpt>
      <trkpt lat="0" lon="0">
        <time>2020-12-06T10:46:35.877000+00:00</time>
      </trkpt>
      <trkpt lat="0" lon="0">
        <time>2020-12-06T10:46:35.879000+00:00</time>
      </trkpt>
      <trkpt lat="47.30264" lon="-1.39034">
        <ele>65</ele>
        <time>2020-12-06T10:46:36.851000+00:00</time>
      </trkpt>
      <trkpt lat="0" lon="0">
        <time>2020-12-06T10:46:36.861000+00:00</time>
      </trkpt>
      <trkpt lat="0" lon="0">
        <time>2020-12-06T10:46:36.873000+00:00</time>
      </trkpt>
      <trkpt lat="0" lon="0">
        <time>2020-12-06T10:46:36.876000+00:00</time>
      </trkpt>
      <trkpt lat="47.30267" lon="-1.39031">
        <ele>65</ele>
        <time>2020-12-06T10:46:37.866000+00:00</time>
      </trkpt>
      <trkpt lat="0" lon="0">
        <time>2020-12-06T10:46:37.872000+00:00</time>
      </trkpt>
      <trkpt lat="0" lon="0">
        <time>2020-12-06T10:46:37.877000+00:00</time>
      </trkpt>
      <trkpt lat="0" lon="0">
        <time>2020-12-06T10:46:37.880000+00:00</time>
      </trkpt>
      <trkpt lat="47.30271" lon="-1.39028">
        <ele>65</ele>
        <time>2020-12-06T10:46:38.862000+00:00</time>
      </trkpt>
      <trkpt lat="0" lon="0">
        <time>2020-12-06T10:46:38.866000+00:00</time>
      </trkpt>
      <trkpt lat="0" lon="0">
        <time>2020-12-06T10:46:38.874000+00:00</time>
      </trkpt>
      <trkpt lat="0" lon="0">
        <time>2020-12-06T10:46:38.876000+00:00</time>
      </trkpt>
      <trkpt lat="47.30274" lon="-1.39024">
        <ele>66</ele>
        <time>2020-12-06T10:46:39.828000+00:00</time>
      </trkpt>
      <trkpt lat="0" lon="0">
        <time>2020-12-06T10:46:39.833000+00:00</time>
      </trkpt>
      <trkpt lat="0" lon="0">
        <time>2020-12-06T10:46:39.841000+00:00</time>
      </trkpt>
      <trkpt lat="0" lon="0">
        <time>2020-12-06T10:46:39.843000+00:00</time>
      </trkpt>
      <trkpt lat="47.30278" lon="-1.39021">
        <ele>66</ele>
        <time>2020-12-06T10:46:40.889000+00:00</time>
      </trkpt>
      <trkpt lat="0" lon="0">
        <time>2020-12-06T10:46:40.910000+00:00</time>
      </trkpt>
      <trkpt lat="0" lon="0">
        <time>2020-12-06T10:46:40.913000+00:00</time>
      </trkpt>
      <trkpt lat="0" lon="0">
        <time>2020-12-06T10:46:40.915000+00:00</time>
      </trkpt>
      <trkpt lat="47.30281" lon="-1.39018">
        <ele>66</ele>
        <time>2020-12-06T10:46:41.899000+00:00</time>
      </trkpt>
      <trkpt lat="0" lon="0">
        <time>2020-12-06T10:46:41.907000+00:00</time>
      </trkpt>
      <trkpt lat="0" lon="0">
        <time>2020-12-06T10:46:41.912000+00:00</time>
      </trkpt>
      <trkpt lat="0" lon="0">
        <time>2020-12-06T10:46:41.914000+00:00</time>
      </trkpt>
      <trkpt lat="47.30284" lon="-1.39015">
        <ele>66</ele>
        <time>2020-12-06T10:46:42.874000+00:00</time>
      </trkpt>
      <trkpt lat="0" lon="0">
        <time>2020-12-06T10:46:42.884000+00:00</time>
      </trkpt>
      <trkpt lat="0" lon="0">
        <time>2020-12-06T10:46:42.891000+00:00</time>
      </trkpt>
      <trkpt lat="0" lon="0">
        <time>2020-12-06T10:46:42.898000+00:00</time>
      </trkpt>
      <trkpt lat="47.30287" lon="-1.39012">
        <ele>66</ele>
        <time>2020-12-06T10:46:43.913000+00:00</time>
      </trkpt>
      <trkpt lat="0" lon="0">
        <time>2020-12-06T10:46:43.918000+00:00</time>
      </trkpt>
      <trkpt lat="0" lon="0">
        <time>2020-12-06T10:46:43.920000+00:00</time>
      </trkpt>
      <trkpt lat="0" lon="0">
        <time>2020-12-06T10:46:43.921000+00:00</time>
      </trkpt>
      <trkpt lat="47.30289" lon="-1.39009">
        <ele>66</ele>
        <time>2020-12-06T10:46:44.885000+00:00</time>
      </trkpt>
      <trkpt lat="0" lon="0">
        <time>2020-12-06T10:46:44.901000+00:00</time>
      </trkpt>
      <trkpt lat="0" lon="0">
        <time>2020-12-06T10:46:44.905000+00:00</time>
      </trkpt>
      <trkpt lat="0" lon="0">
        <time>2020-12-06T10:46:44.907000+00:00</time>
      </trkpt>
      <trkpt lat="47.30292" lon="-1.39006">
        <ele>66</ele>
        <time>2020-12-06T10:46:45.906000+00:00</time>
      </trkpt>
      <trkpt lat="0" lon="0">
        <time>2020-12-06T10:46:45.911000+00:00</time>
      </trkpt>
      <trkpt lat="0" lon="0">
        <time>2020-12-06T10:46:45.915000+00:00</time>
      </trkpt>
      <trkpt lat="0" lon="0">
        <time>2020-12-06T10:46:45.918000+00:00</time>
      </trkpt>
      <trkpt lat="47.30295" lon="-1.39003">
        <ele>66</ele>
        <time>2020-12-06T10:46:46.863000+00:00</time>
      </trkpt>
      <trkpt lat="0" lon="0">
        <time>2020-12-06T10:46:46.871000+00:00</time>
      </trkpt>
      <trkpt lat="0" lon="0">
        <time>2020-12-06T10:46:46.874000+00:00</time>
      </trkpt>
      <trkpt lat="0" lon="0">
        <time>2020-12-06T10:46:46.876000+00:00</time>
      </trkpt>
      <trkpt lat="47.30297" lon="-1.39001">
        <ele>66</ele>
        <time>2020-12-06T10:46:47.829000+00:00</time>
      </trkpt>
      <trkpt lat="0" lon="0">
        <time>2020-12-06T10:46:47.836000+00:00</time>
      </trkpt>
      <trkpt lat="0" lon="0">
        <time>2020-12-06T10:46:47.838000+00:00</time>
      </trkpt>
      <trkpt lat="0" lon="0">
        <time>2020-12-06T10:46:47.839000+00:00</time>
      </trkpt>
      <trkpt lat="47.303" lon="-1.38998">
        <ele>67</ele>
        <time>2020-12-06T10:46:48.816000+00:00</time>
      </trkpt>
      <trkpt lat="0" lon="0">
        <time>2020-12-06T10:46:48.827000+00:00</time>
      </trkpt>
      <trkpt lat="0" lon="0">
        <time>2020-12-06T10:46:48.840000+00:00</time>
      </trkpt>
      <trkpt lat="0" lon="0">
        <time>2020-12-06T10:46:48.848000+00:00</time>
      </trkpt>
      <trkpt lat="47.30302" lon="-1.38995">
        <ele>67</ele>
        <time>2020-12-06T10:46:49.772000+00:00</time>
      </trkpt>
      <trkpt lat="0" lon="0">
        <time>2020-12-06T10:46:49.780000+00:00</time>
      </trkpt>
      <trkpt lat="0" lon="0">
        <time>2020-12-06T10:46:49.783000+00:00</time>
      </trkpt>
      <trkpt lat="0" lon="0">
        <time>2020-12-06T10:46:49.787000+00:00</time>
      </trkpt>
      <trkpt lat="47.30305" lon="-1.38993">
        <ele>67</ele>
        <time>2020-12-06T10:46:50.860000+00:00</time>
      </trkpt>
      <trkpt lat="0" lon="0">
        <time>2020-12-06T10:46:50.873000+00:00</time>
      </trkpt>
      <trkpt lat="0" lon="0">
        <time>2020-12-06T10:46:50.877000+00:00</time>
      </trkpt>
      <trkpt lat="0" lon="0">
        <time>2020-12-06T10:46:50.879000+00:00</time>
      </trkpt>
      <trkpt lat="47.30308" lon="-1.3899">
        <ele>67</ele>
        <time>2020-12-06T10:46:51.885000+00:00</time>
      </trkpt>
      <trkpt lat="0" lon="0">
        <time>2020-12-06T10:46:51.889000+00:00</time>
      </trkpt>
      <trkpt lat="0" lon="0">
        <time>2020-12-06T10:46:51.895000+00:00</time>
      </trkpt>
      <trkpt lat="0" lon="0">
        <time>2020-12-06T10:46:51.900000+00:00</time>
      </trkpt>
      <trkpt lat="47.3031" lon="-1.38988">
        <ele>67</ele>
        <time>2020-12-06T10:46:52.790000+00:00</time>
      </trkpt>
      <trkpt lat="0" lon="0">
        <time>2020-12-06T10:46:52.793000+00:00</time>
      </trkpt>
      <trkpt lat="0" lon="0">
        <time>2020-12-06T10:46:52.796000+00:00</time>
      </trkpt>
      <trkpt lat="0" lon="0">
        <time>2020-12-06T10:46:52.799000+00:00</time>
      </trkpt>
      <trkpt lat="47.30313" lon="-1.38985">
        <ele>67</ele>
        <time>2020-12-06T10:46:53.860000+00:00</time>
      </trkpt>
      <trkpt lat="0" lon="0">
        <time>2020-12-06T10:46:53.873000+00:00</time>
      </trkpt>
      <trkpt lat="0" lon="0">
        <time>2020-12-06T10:46:53.879000+00:00</time>
      </trkpt>
      <trkpt lat="0" lon="0">
        <time>2020-12-06T10:46:53.883000+00:00</time>
      </trkpt>
      <trkpt lat="47.30316" lon="-1.38983">
        <ele>67</ele>
        <time>2020-12-06T10:46:54.837000+00:00</time>
      </trkpt>
      <trkpt lat="0" lon="0">
        <time>2020-12-06T10:46:54.856000+00:00</time>
      </trkpt>
      <trkpt lat="0" lon="0">
        <time>2020-12-06T10:46:54.862000+00:00</time>
      </trkpt>
      <trkpt lat="0" lon="0">
        <time>2020-12-06T10:46:54.864000+00:00</time>
      </trkpt>
      <trkpt lat="47.3032" lon="-1.38982">
        <ele>67</ele>
        <time>2020-12-06T10:46:55.851000+00:00</time>
      </trkpt>
      <trkpt lat="0" lon="0">
        <time>2020-12-06T10:46:55.855000+00:00</time>
      </trkpt>
      <trkpt lat="0" lon="0">
        <time>2020-12-06T10:46:55.862000+00:00</time>
      </trkpt>
      <trkpt lat="0" lon="0">
        <time>2020-12-06T10:46:55.864000+00:00</time>
      </trkpt>
      <trkpt lat="47.30323" lon="-1.3898">
        <ele>67</ele>
        <time>2020-12-06T10:46:56.854000+00:00</time>
      </trkpt>
      <trkpt lat="0" lon="0">
        <time>2020-12-06T10:46:56.862000+00:00</time>
      </trkpt>
      <trkpt lat="0" lon="0">
        <time>2020-12-06T10:46:56.870000+00:00</time>
      </trkpt>
      <trkpt lat="0" lon="0">
        <time>2020-12-06T10:46:56.872000+00:00</time>
      </trkpt>
      <trkpt lat="47.30327" lon="-1.38979">
        <ele>67</ele>
        <time>2020-12-06T10:46:57.858000+00:00</time>
      </trkpt>
      <trkpt lat="0" lon="0">
        <time>2020-12-06T10:46:57.868000+00:00</time>
      </trkpt>
      <trkpt lat="0" lon="0">
        <time>2020-12-06T10:46:57.872000+00:00</time>
      </trkpt>
      <trkpt lat="0" lon="0">
        <time>2020-12-06T10:46:57.874000+00:00</time>
      </trkpt>
      <trkpt lat="47.30331" lon="-1.38979">
        <ele>67</ele>
        <time>2020-12-06T10:46:58.907000+00:00</time>
      </trkpt>
      <trkpt lat="0" lon="0">
        <time>2020-12-06T10:46:58.915000+00:00</time>
      </trkpt>
      <trkpt lat="0" lon="0">
        <time>2020-12-06T10:46:58.926000+00:00</time>
      </trkpt>
      <trkpt lat="0" lon="0">
        <time>2020-12-06T10:46:58.934000+00:00</time>
      </trkpt>
      <trkpt lat="47.30335" lon="-1.38978">
        <ele>67</ele>
        <time>2020-12-06T10:46:59.888000+00:00</time>
      </trkpt>
      <trkpt lat="0" lon="0">
        <time>2020-12-06T10:46:59.894000+00:00</time>
      </trkpt>
      <trkpt lat="0" lon="0">
        <time>2020-12-06T10:46:59.899000+00:00</time>
      </trkpt>
      <trkpt lat="0" lon="0">
        <time>2020-12-06T10:46:59.900000+00:00</time>
      </trkpt>
      <trkpt lat="47.30339" lon="-1.38978">
        <ele>67</ele>
        <time>2020-12-06T10:47:00.829000+00:00</time>
      </trkpt>
      <trkpt lat="0" lon="0">
        <time>2020-12-06T10:47:00.845000+00:00</time>
      </trkpt>
      <trkpt lat="0" lon="0">
        <time>2020-12-06T10:47:00.853000+00:00</time>
      </trkpt>
      <trkpt lat="0" lon="0">
        <time>2020-12-06T10:47:00.855000+00:00</time>
      </trkpt>
      <trkpt lat="47.30342" lon="-1.38978">
        <ele>67</ele>
        <time>2020-12-06T10:47:01.772000+00:00</time>
      </trkpt>
      <trkpt lat="0" lon="0">
        <time>2020-12-06T10:47:01.776000+00:00</time>
      </trkpt>
      <trkpt lat="0" lon="0">
        <time>2020-12-06T10:47:01.781000+00:00</time>
      </trkpt>
      <trkpt lat="0" lon="0">
        <time>2020-12-06T10:47:01.782000+00:00</time>
      </trkpt>
      <trkpt lat="47.30346" lon="-1.38978">
        <ele>67</ele>
        <time>2020-12-06T10:47:02.780000+00:00</time>
      </trkpt>
      <trkpt lat="0" lon="0">
        <time>2020-12-06T10:47:02.789000+00:00</time>
      </trkpt>
      <trkpt lat="0" lon="0">
        <time>2020-12-06T10:47:02.794000+00:00</time>
      </trkpt>
      <trkpt lat="0" lon="0">
        <time>2020-12-06T10:47:02.795000+00:00</time>
      </trkpt>
      <trkpt lat="47.3035" lon="-1.38978">
        <ele>67</ele>
        <time>2020-12-06T10:47:03.837000+00:00</time>
      </trkpt>
      <trkpt lat="0" lon="0">
        <time>2020-12-06T10:47:03.841000+00:00</time>
      </trkpt>
      <trkpt lat="0" lon="0">
        <time>2020-12-06T10:47:03.847000+00:00</time>
      </trkpt>
      <trkpt lat="0" lon="0">
        <time>2020-12-06T10:47:03.848000+00:00</time>
      </trkpt>
      <trkpt lat="47.30354" lon="-1.38978">
        <ele>67</ele>
        <time>2020-12-06T10:47:04.870000+00:00</time>
      </trkpt>
      <trkpt lat="0" lon="0">
        <time>2020-12-06T10:47:04.881000+00:00</time>
      </trkpt>
      <trkpt lat="0" lon="0">
        <time>2020-12-06T10:47:04.886000+00:00</time>
      </trkpt>
      <trkpt lat="0" lon="0">
        <time>2020-12-06T10:47:04.888000+00:00</time>
      </trkpt>
      <trkpt lat="47.30357" lon="-1.38979">
        <ele>67</ele>
        <time>2020-12-06T10:47:05.853000+00:00</time>
      </trkpt>
      <trkpt lat="0" lon="0">
        <time>2020-12-06T10:47:05.856000+00:00</time>
      </trkpt>
      <trkpt lat="0" lon="0">
        <time>2020-12-06T10:47:05.866000+00:00</time>
      </trkpt>
      <trkpt lat="0" lon="0">
        <time>2020-12-06T10:47:05.880000+00:00</time>
      </trkpt>
      <trkpt lat="47.30361" lon="-1.38979">
        <ele>67</ele>
        <time>2020-12-06T10:47:06.857000+00:00</time>
      </trkpt>
      <trkpt lat="0" lon="0">
        <time>2020-12-06T10:47:06.861000+00:00</time>
      </trkpt>
      <trkpt lat="0" lon="0">
        <time>2020-12-06T10:47:06.873000+00:00</time>
      </trkpt>
      <trkpt lat="0" lon="0">
        <time>2020-12-06T10:47:06.876000+00:00</time>
      </trkpt>
      <trkpt lat="47.30364" lon="-1.3898">
        <ele>67</ele>
        <time>2020-12-06T10:47:07.885000+00:00</time>
      </trkpt>
      <trkpt lat="0" lon="0">
        <time>2020-12-06T10:47:07.891000+00:00</time>
      </trkpt>
      <trkpt lat="0" lon="0">
        <time>2020-12-06T10:47:07.898000+00:00</time>
      </trkpt>
      <trkpt lat="0" lon="0">
        <time>2020-12-06T10:47:07.900000+00:00</time>
      </trkpt>
      <trkpt lat="47.30367" lon="-1.38981">
        <ele>67</ele>
        <time>2020-12-06T10:47:08.863000+00:00</time>
      </trkpt>
      <trkpt lat="0" lon="0">
        <time>2020-12-06T10:47:08.870000+00:00</time>
      </trkpt>
      <trkpt lat="0" lon="0">
        <time>2020-12-06T10:47:08.875000+00:00</time>
      </trkpt>
      <trkpt lat="0" lon="0">
        <time>2020-12-06T10:47:08.877000+00:00</time>
      </trkpt>
      <trkpt lat="47.30368" lon="-1.38982">
        <ele>67</ele>
        <time>2020-12-06T10:47:09.897000+00:00</time>
      </trkpt>
      <trkpt lat="0" lon="0">
        <time>2020-12-06T10:47:09.912000+00:00</time>
      </trkpt>
      <trkpt lat="0" lon="0">
        <time>2020-12-06T10:47:09.920000+00:00</time>
      </trkpt>
      <trkpt lat="0" lon="0">
        <time>2020-12-06T10:47:09.923000+00:00</time>
      </trkpt>
      <trkpt lat="47.30369" lon="-1.38984">
        <ele>67</ele>
        <time>2020-12-06T10:47:10.808000+00:00</time>
      </trkpt>
      <trkpt lat="0" lon="0">
        <time>2020-12-06T10:47:10.812000+00:00</time>
      </trkpt>
      <trkpt lat="0" lon="0">
        <time>2020-12-06T10:47:10.821000+00:00</time>
      </trkpt>
      <trkpt lat="0" lon="0">
        <time>2020-12-06T10:47:10.822000+00:00</time>
      </trkpt>
      <trkpt lat="47.30369" lon="-1.38987">
        <ele>67</ele>
        <time>2020-12-06T10:47:11.823000+00:00</time>
      </trkpt>
      <trkpt lat="0" lon="0">
        <time>2020-12-06T10:47:11.828000+00:00</time>
      </trkpt>
      <trkpt lat="0" lon="0">
        <time>2020-12-06T10:47:11.833000+00:00</time>
      </trkpt>
      <trkpt lat="0" lon="0">
        <time>2020-12-06T10:47:11.835000+00:00</time>
      </trkpt>
      <trkpt lat="47.30368" lon="-1.3899">
        <ele>67</ele>
        <time>2020-12-06T10:47:12.838000+00:00</time>
      </trkpt>
      <trkpt lat="0" lon="0">
        <time>2020-12-06T10:47:12.848000+00:00</time>
      </trkpt>
      <trkpt lat="0" lon="0">
        <time>2020-12-06T10:47:12.856000+00:00</time>
      </trkpt>
      <trkpt lat="0" lon="0">
        <time>2020-12-06T10:47:12.865000+00:00</time>
      </trkpt>
      <trkpt lat="47.30367" lon="-1.38994">
        <ele>67</ele>
        <time>2020-12-06T10:47:13.855000+00:00</time>
      </trkpt>
      <trkpt lat="0" lon="0">
        <time>2020-12-06T10:47:13.864000+00:00</time>
      </trkpt>
      <trkpt lat="0" lon="0">
        <time>2020-12-06T10:47:13.868000+00:00</time>
      </trkpt>
      <trkpt lat="0" lon="0">
        <time>2020-12-06T10:47:13.871000+00:00</time>
      </trkpt>
      <trkpt lat="47.30365" lon="-1.38998">
        <ele>67</ele>
        <time>2020-12-06T10:47:14.870000+00:00</time>
      </trkpt>
      <trkpt lat="0" lon="0">
        <time>2020-12-06T10:47:14.878000+00:00</time>
      </trkpt>
      <trkpt lat="0" lon="0">
        <time>2020-12-06T10:47:14.881000+00:00</time>
      </trkpt>
      <trkpt lat="0" lon="0">
        <time>2020-12-06T10:47:14.884000+00:00</time>
      </trkpt>
      <trkpt lat="47.30362" lon="-1.39003">
        <ele>67</ele>
        <time>2020-12-06T10:47:15.876000+00:00</time>
      </trkpt>
      <trkpt lat="0" lon="0">
        <time>2020-12-06T10:47:15.900000+00:00</time>
      </trkpt>
      <trkpt lat="0" lon="0">
        <time>2020-12-06T10:47:15.907000+00:00</time>
      </trkpt>
      <trkpt lat="0" lon="0">
        <time>2020-12-06T10:47:15.908000+00:00</time>
      </trkpt>
      <trkpt lat="47.30359" lon="-1.39008">
        <ele>67</ele>
        <time>2020-12-06T10:47:16.839000+00:00</time>
      </trkpt>
      <trkpt lat="0" lon="0">
        <time>2020-12-06T10:47:16.846000+00:00</time>
      </trkpt>
      <trkpt lat="0" lon="0">
        <time>2020-12-06T10:47:16.847000+00:00</time>
      </trkpt>
      <trkpt lat="0" lon="0">
        <time>2020-12-06T10:47:16.848000+00:00</time>
      </trkpt>
      <trkpt lat="47.30356" lon="-1.39013">
        <ele>66</ele>
        <time>2020-12-06T10:47:17.798000+00:00</time>
      </trkpt>
      <trkpt lat="0" lon="0">
        <time>2020-12-06T10:47:17.801000+00:00</time>
      </trkpt>
      <trkpt lat="0" lon="0">
        <time>2020-12-06T10:47:17.811000+00:00</time>
      </trkpt>
      <trkpt lat="0" lon="0">
        <time>2020-12-06T10:47:17.812000+00:00</time>
      </trkpt>
      <trkpt lat="47.30352" lon="-1.39019">
        <ele>66</ele>
        <time>2020-12-06T10:47:18.817000+00:00</time>
      </trkpt>
      <trkpt lat="0" lon="0">
        <time>2020-12-06T10:47:18.823000+00:00</time>
      </trkpt>
      <trkpt lat="0" lon="0">
        <time>2020-12-06T10:47:18.827000+00:00</time>
      </trkpt>
      <trkpt lat="0" lon="0">
        <time>2020-12-06T10:47:18.829000+00:00</time>
      </trkpt>
      <trkpt lat="47.30349" lon="-1.39025">
        <ele>66</ele>
        <time>2020-12-06T10:47:19.890000+00:00</time>
      </trkpt>
      <trkpt lat="0" lon="0">
        <time>2020-12-06T10:47:19.907000+00:00</time>
      </trkpt>
      <trkpt lat="0" lon="0">
        <time>2020-12-06T10:47:19.924000+00:00</time>
      </trkpt>
      <trkpt lat="47.30345" lon="-1.39031">
        <ele>65</ele>
        <time>2020-12-06T10:47:20.862000+00:00</time>
      </trkpt>
      <trkpt lat="0" lon="0">
        <time>2020-12-06T10:47:20.869000+00:00</time>
      </trkpt>
      <trkpt lat="0" lon="0">
        <time>2020-12-06T10:47:20.875000+00:00</time>
      </trkpt>
      <trkpt lat="0" lon="0">
        <time>2020-12-06T10:47:20.876000+00:00</time>
      </trkpt>
      <trkpt lat="47.30341" lon="-1.39037">
        <ele>65</ele>
        <time>2020-12-06T10:47:21.843000+00:00</time>
      </trkpt>
      <trkpt lat="0" lon="0">
        <time>2020-12-06T10:47:21.848000+00:00</time>
      </trkpt>
      <trkpt lat="0" lon="0">
        <time>2020-12-06T10:47:21.850000+00:00</time>
      </trkpt>
      <trkpt lat="0" lon="0">
        <time>2020-12-06T10:47:21.851000+00:00</time>
      </trkpt>
      <trkpt lat="47.30338" lon="-1.39044">
        <ele>64</ele>
        <time>2020-12-06T10:47:22.783000+00:00</time>
      </trkpt>
      <trkpt lat="0" lon="0">
        <time>2020-12-06T10:47:22.787000+00:00</time>
      </trkpt>
      <trkpt lat="0" lon="0">
        <time>2020-12-06T10:47:22.789000+00:00</time>
      </trkpt>
      <trkpt lat="47.30334" lon="-1.39051">
        <ele>64</ele>
        <time>2020-12-06T10:47:23.852000+00:00</time>
      </trkpt>
      <trkpt lat="0" lon="0">
        <time>2020-12-06T10:47:23.857000+00:00</time>
      </trkpt>
      <trkpt lat="0" lon="0">
        <time>2020-12-06T10:47:23.862000+00:00</time>
      </trkpt>
      <trkpt lat="0" lon="0">
        <time>2020-12-06T10:47:23.865000+00:00</time>
      </trkpt>
      <trkpt lat="47.3033" lon="-1.39058">
        <ele>64</ele>
        <time>2020-12-06T10:47:24.840000+00:00</time>
      </trkpt>
      <trkpt lat="0" lon="0">
        <time>2020-12-06T10:47:24.861000+00:00</time>
      </trkpt>
      <trkpt lat="0" lon="0">
        <time>2020-12-06T10:47:24.865000+00:00</time>
      </trkpt>
      <trkpt lat="0" lon="0">
        <time>2020-12-06T10:47:24.869000+00:00</time>
      </trkpt>
      <trkpt lat="47.30326" lon="-1.39065">
        <ele>63</ele>
        <time>2020-12-06T10:47:25.849000+00:00</time>
      </trkpt>
      <trkpt lat="0" lon="0">
        <time>2020-12-06T10:47:25.855000+00:00</time>
      </trkpt>
      <trkpt lat="0" lon="0">
        <time>2020-12-06T10:47:25.864000+00:00</time>
      </trkpt>
      <trkpt lat="0" lon="0">
        <time>2020-12-06T10:47:25.873000+00:00</time>
      </trkpt>
      <trkpt lat="47.30323" lon="-1.39073">
        <ele>63</ele>
        <time>2020-12-06T10:47:26.825000+00:00</time>
      </trkpt>
      <trkpt lat="0" lon="0">
        <time>2020-12-06T10:47:26.832000+00:00</time>
      </trkpt>
      <trkpt lat="0" lon="0">
        <time>2020-12-06T10:47:26.836000+00:00</time>
      </trkpt>
      <trkpt lat="0" lon="0">
        <time>2020-12-06T10:47:26.839000+00:00</time>
      </trkpt>
      <trkpt lat="47.3032" lon="-1.39081">
        <ele>63</ele>
        <time>2020-12-06T10:47:27.848000+00:00</time>
      </trkpt>
      <trkpt lat="0" lon="0">
        <time>2020-12-06T10:47:27.861000+00:00</time>
      </trkpt>
      <trkpt lat="0" lon="0">
        <time>2020-12-06T10:47:27.869000+00:00</time>
      </trkpt>
      <trkpt lat="0" lon="0">
        <time>2020-12-06T10:47:27.871000+00:00</time>
      </trkpt>
      <trkpt lat="47.30317" lon="-1.39089">
        <ele>63</ele>
        <time>2020-12-06T10:47:28.817000+00:00</time>
      </trkpt>
      <trkpt lat="0" lon="0">
        <time>2020-12-06T10:47:28.831000+00:00</time>
      </trkpt>
      <trkpt lat="0" lon="0">
        <time>2020-12-06T10:47:28.837000+00:00</time>
      </trkpt>
      <trkpt lat="0" lon="0">
        <time>2020-12-06T10:47:28.839000+00:00</time>
      </trkpt>
      <trkpt lat="47.30314" lon="-1.39097">
        <ele>62</ele>
        <time>2020-12-06T10:47:29.812000+00:00</time>
      </trkpt>
      <trkpt lat="0" lon="0">
        <time>2020-12-06T10:47:29.818000+00:00</time>
      </trkpt>
      <trkpt lat="0" lon="0">
        <time>2020-12-06T10:47:29.824000+00:00</time>
      </trkpt>
      <trkpt lat="0" lon="0">
        <time>2020-12-06T10:47:29.825000+00:00</time>
      </trkpt>
      <trkpt lat="47.30312" lon="-1.39105">
        <ele>62</ele>
        <time>2020-12-06T10:47:30.802000+00:00</time>
      </trkpt>
      <trkpt lat="0" lon="0">
        <time>2020-12-06T10:47:30.805000+00:00</time>
      </trkpt>
      <trkpt lat="0" lon="0">
        <time>2020-12-06T10:47:30.819000+00:00</time>
      </trkpt>
      <trkpt lat="0" lon="0">
        <time>2020-12-06T10:47:30.823000+00:00</time>
      </trkpt>
      <trkpt lat="47.30309" lon="-1.39113">
        <ele>62</ele>
        <time>2020-12-06T10:47:31.829000+00:00</time>
      </trkpt>
      <trkpt lat="0" lon="0">
        <time>2020-12-06T10:47:31.836000+00:00</time>
      </trkpt>
      <trkpt lat="0" lon="0">
        <time>2020-12-06T10:47:31.839000+00:00</time>
      </trkpt>
      <trkpt lat="0" lon="0">
        <time>2020-12-06T10:47:31.841000+00:00</time>
      </trkpt>
      <trkpt lat="47.30307" lon="-1.39121">
        <ele>62</ele>
        <time>2020-12-06T10:47:32.806000+00:00</time>
      </trkpt>
      <trkpt lat="0" lon="0">
        <time>2020-12-06T10:47:32.821000+00:00</time>
      </trkpt>
      <trkpt lat="0" lon="0">
        <time>2020-12-06T10:47:32.829000+00:00</time>
      </trkpt>
      <trkpt lat="0" lon="0">
        <time>2020-12-06T10:47:32.831000+00:00</time>
      </trkpt>
      <trkpt lat="47.30305" lon="-1.39129">
        <ele>62</ele>
        <time>2020-12-06T10:47:33.802000+00:00</time>
      </trkpt>
      <trkpt lat="0" lon="0">
        <time>2020-12-06T10:47:33.805000+00:00</time>
      </trkpt>
      <trkpt lat="0" lon="0">
        <time>2020-12-06T10:47:33.820000+00:00</time>
      </trkpt>
      <trkpt lat="0" lon="0">
        <time>2020-12-06T10:47:33.824000+00:00</time>
      </trkpt>
      <trkpt lat="47.30303" lon="-1.39136">
        <ele>62</ele>
        <time>2020-12-06T10:47:34.856000+00:00</time>
      </trkpt>
      <trkpt lat="0" lon="0">
        <time>2020-12-06T10:47:34.868000+00:00</time>
      </trkpt>
      <trkpt lat="0" lon="0">
        <time>2020-12-06T10:47:34.872000+00:00</time>
      </trkpt>
      <trkpt lat="0" lon="0">
        <time>2020-12-06T10:47:34.875000+00:00</time>
      </trkpt>
      <trkpt lat="47.30301" lon="-1.39143">
        <ele>61</ele>
        <time>2020-12-06T10:47:35.861000+00:00</time>
      </trkpt>
      <trkpt lat="0" lon="0">
        <time>2020-12-06T10:47:35.875000+00:00</time>
      </trkpt>
      <trkpt lat="0" lon="0">
        <time>2020-12-06T10:47:35.878000+00:00</time>
      </trkpt>
      <trkpt lat="0" lon="0">
        <time>2020-12-06T10:47:35.880000+00:00</time>
      </trkpt>
      <trkpt lat="47.30299" lon="-1.3915">
        <ele>61</ele>
        <time>2020-12-06T10:47:36.860000+00:00</time>
      </trkpt>
      <trkpt lat="0" lon="0">
        <time>2020-12-06T10:47:36.870000+00:00</time>
      </trkpt>
      <trkpt lat="0" lon="0">
        <time>2020-12-06T10:47:36.877000+00:00</time>
      </trkpt>
      <trkpt lat="0" lon="0">
        <time>2020-12-06T10:47:36.878000+00:00</time>
      </trkpt>
      <trkpt lat="47.30297" lon="-1.39157">
        <ele>61</ele>
        <time>2020-12-06T10:47:37.897000+00:00</time>
      </trkpt>
      <trkpt lat="0" lon="0">
        <time>2020-12-06T10:47:37.916000+00:00</time>
      </trkpt>
      <trkpt lat="0" lon="0">
        <time>2020-12-06T10:47:37.925000+00:00</time>
      </trkpt>
      <trkpt lat="0" lon="0">
        <time>2020-12-06T10:47:37.928000+00:00</time>
      </trkpt>
      <trkpt lat="47.30296" lon="-1.39164">
        <ele>61</ele>
        <time>2020-12-06T10:47:38.829000+00:00</time>
      </trkpt>
      <trkpt lat="0" lon="0">
        <time>2020-12-06T10:47:38.848000+00:00</time>
      </trkpt>
      <trkpt lat="0" lon="0">
        <time>2020-12-06T10:47:38.854000+00:00</time>
      </trkpt>
      <trkpt lat="0" lon="0">
        <time>2020-12-06T10:47:38.856000+00:00</time>
      </trkpt>
      <trkpt lat="47.30294" lon="-1.3917">
        <ele>61</ele>
        <time>2020-12-06T10:47:39.768000+00:00</time>
      </trkpt>
      <trkpt lat="0" lon="0">
        <time>2020-12-06T10:47:39.771000+00:00</time>
      </trkpt>
      <trkpt lat="0" lon="0">
        <time>2020-12-06T10:47:39.775000+00:00</time>
      </trkpt>
      <trkpt lat="0" lon="0">
        <time>2020-12-06T10:47:39.776000+00:00</time>
      </trkpt>
      <trkpt lat="47.30293" lon="-1.39176">
        <ele>61</ele>
        <time>2020-12-06T10:47:40.829000+00:00</time>
      </trkpt>
      <trkpt lat="0" lon="0">
        <time>2020-12-06T10:47:40.833000+00:00</time>
      </trkpt>
      <trkpt lat="0" lon="0">
        <time>2020-12-06T10:47:40.839000+00:00</time>
      </trkpt>
      <trkpt lat="0" lon="0">
        <time>2020-12-06T10:47:40.842000+00:00</time>
      </trkpt>
      <trkpt lat="47.30291" lon="-1.39181">
        <ele>60</ele>
        <time>2020-12-06T10:47:41.820000+00:00</time>
      </trkpt>
      <trkpt lat="0" lon="0">
        <time>2020-12-06T10:47:41.825000+00:00</time>
      </trkpt>
      <trkpt lat="0" lon="0">
        <time>2020-12-06T10:47:41.828000+00:00</time>
      </trkpt>
      <trkpt lat="0" lon="0">
        <time>2020-12-06T10:47:41.829000+00:00</time>
      </trkpt>
      <trkpt lat="47.30289" lon="-1.39185">
        <ele>60</ele>
        <time>2020-12-06T10:47:42.884000+00:00</time>
      </trkpt>
      <trkpt lat="0" lon="0">
        <time>2020-12-06T10:47:42.889000+00:00</time>
      </trkpt>
      <trkpt lat="0" lon="0">
        <time>2020-12-06T10:47:42.895000+00:00</time>
      </trkpt>
      <trkpt lat="0" lon="0">
        <time>2020-12-06T10:47:42.898000+00:00</time>
      </trkpt>
      <trkpt lat="47.30287" lon="-1.39188">
        <ele>60</ele>
        <time>2020-12-06T10:47:43.854000+00:00</time>
      </trkpt>
      <trkpt lat="0" lon="0">
        <time>2020-12-06T10:47:43.857000+00:00</time>
      </trkpt>
      <trkpt lat="0" lon="0">
        <time>2020-12-06T10:47:43.874000+00:00</time>
      </trkpt>
      <trkpt lat="0" lon="0">
        <time>2020-12-06T10:47:43.880000+00:00</time>
      </trkpt>
      <trkpt lat="47.30285" lon="-1.39189">
        <ele>60</ele>
        <time>2020-12-06T10:47:44.824000+00:00</time>
      </trkpt>
      <trkpt lat="0" lon="0">
        <time>2020-12-06T10:47:44.833000+00:00</time>
      </trkpt>
      <trkpt lat="0" lon="0">
        <time>2020-12-06T10:47:44.842000+00:00</time>
      </trkpt>
      <trkpt lat="0" lon="0">
        <time>2020-12-06T10:47:44.845000+00:00</time>
      </trkpt>
      <trkpt lat="47.30283" lon="-1.3919">
        <ele>60</ele>
        <time>2020-12-06T10:47:45.892000+00:00</time>
      </trkpt>
      <trkpt lat="0" lon="0">
        <time>2020-12-06T10:47:45.900000+00:00</time>
      </trkpt>
      <trkpt lat="0" lon="0">
        <time>2020-12-06T10:47:45.904000+00:00</time>
      </trkpt>
      <trkpt lat="0" lon="0">
        <time>2020-12-06T10:47:45.908000+00:00</time>
      </trkpt>
      <trkpt lat="47.3028" lon="-1.39191">
        <ele>60</ele>
        <time>2020-12-06T10:47:46.867000+00:00</time>
      </trkpt>
      <trkpt lat="0" lon="0">
        <time>2020-12-06T10:47:46.881000+00:00</time>
      </trkpt>
      <trkpt lat="0" lon="0">
        <time>2020-12-06T10:47:46.888000+00:00</time>
      </trkpt>
      <trkpt lat="0" lon="0">
        <time>2020-12-06T10:47:46.890000+00:00</time>
      </trkpt>
      <trkpt lat="47.30278" lon="-1.39191">
        <ele>60</ele>
        <time>2020-12-06T10:47:47.848000+00:00</time>
      </trkpt>
      <trkpt lat="0" lon="0">
        <time>2020-12-06T10:47:47.857000+00:00</time>
      </trkpt>
      <trkpt lat="0" lon="0">
        <time>2020-12-06T10:47:47.860000+00:00</time>
      </trkpt>
      <trkpt lat="0" lon="0">
        <time>2020-12-06T10:47:47.862000+00:00</time>
      </trkpt>
      <trkpt lat="47.30275" lon="-1.39192">
        <ele>60</ele>
        <time>2020-12-06T10:47:48.840000+00:00</time>
      </trkpt>
      <trkpt lat="0" lon="0">
        <time>2020-12-06T10:47:48.844000+00:00</time>
      </trkpt>
      <trkpt lat="0" lon="0">
        <time>2020-12-06T10:47:48.856000+00:00</time>
      </trkpt>
      <trkpt lat="0" lon="0">
        <time>2020-12-06T10:47:48.858000+00:00</time>
      </trkpt>
      <trkpt lat="47.30273" lon="-1.39193">
        <ele>60</ele>
        <time>2020-12-06T10:47:49.829000+00:00</time>
      </trkpt>
      <trkpt lat="0" lon="0">
        <time>2020-12-06T10:47:49.846000+00:00</time>
      </trkpt>
      <trkpt lat="0" lon="0">
        <time>2020-12-06T10:47:49.851000+00:00</time>
      </trkpt>
      <trkpt lat="0" lon="0">
        <time>2020-12-06T10:47:49.855000+00:00</time>
      </trkpt>
      <trkpt lat="47.30271" lon="-1.39194">
        <ele>60</ele>
        <time>2020-12-06T10:47:50.865000+00:00</time>
      </trkpt>
      <trkpt lat="0" lon="0">
        <time>2020-12-06T10:47:50.871000+00:00</time>
      </trkpt>
      <trkpt lat="0" lon="0">
        <time>2020-12-06T10:47:50.875000+00:00</time>
      </trkpt>
      <trkpt lat="0" lon="0">
        <time>2020-12-06T10:47:50.877000+00:00</time>
      </trkpt>
      <trkpt lat="47.30269" lon="-1.39195">
        <ele>60</ele>
        <time>2020-12-06T10:47:51.874000+00:00</time>
      </trkpt>
      <trkpt lat="0" lon="0">
        <time>2020-12-06T10:47:51.879000+00:00</time>
      </trkpt>
      <trkpt lat="0" lon="0">
        <time>2020-12-06T10:47:51.886000+00:00</time>
      </trkpt>
      <trkpt lat="0" lon="0">
        <time>2020-12-06T10:47:51.890000+00:00</time>
      </trkpt>
      <trkpt lat="47.30267" lon="-1.39196">
        <ele>59</ele>
        <time>2020-12-06T10:47:52.815000+00:00</time>
      </trkpt>
      <trkpt lat="0" lon="0">
        <time>2020-12-06T10:47:52.817000+00:00</time>
      </trkpt>
      <trkpt lat="0" lon="0">
        <time>2020-12-06T10:47:52.827000+00:00</time>
      </trkpt>
      <trkpt lat="0" lon="0">
        <time>2020-12-06T10:47:52.829000+00:00</time>
      </trkpt>
      <trkpt lat="47.30264" lon="-1.39196">
        <ele>59</ele>
        <time>2020-12-06T10:47:53.837000+00:00</time>
      </trkpt>
      <trkpt lat="0" lon="0">
        <time>2020-12-06T10:47:53.846000+00:00</time>
      </trkpt>
      <trkpt lat="0" lon="0">
        <time>2020-12-06T10:47:53.855000+00:00</time>
      </trkpt>
      <trkpt lat="0" lon="0">
        <time>2020-12-06T10:47:53.857000+00:00</time>
      </trkpt>
      <trkpt lat="47.30262" lon="-1.39195">
        <ele>59</ele>
        <time>2020-12-06T10:47:54.823000+00:00</time>
      </trkpt>
      <trkpt lat="0" lon="0">
        <time>2020-12-06T10:47:54.829000+00:00</time>
      </trkpt>
      <trkpt lat="0" lon="0">
        <time>2020-12-06T10:47:54.833000+00:00</time>
      </trkpt>
      <trkpt lat="0" lon="0">
        <time>2020-12-06T10:47:54.836000+00:00</time>
      </trkpt>
      <trkpt lat="47.3026" lon="-1.39193">
        <ele>59</ele>
        <time>2020-12-06T10:47:55.841000+00:00</time>
      </trkpt>
      <trkpt lat="0" lon="0">
        <time>2020-12-06T10:47:55.856000+00:00</time>
      </trkpt>
      <trkpt lat="0" lon="0">
        <time>2020-12-06T10:47:55.860000+00:00</time>
      </trkpt>
      <trkpt lat="0" lon="0">
        <time>2020-12-06T10:47:55.864000+00:00</time>
      </trkpt>
      <trkpt lat="47.30258" lon="-1.3919">
        <ele>59</ele>
        <time>2020-12-06T10:47:56.848000+00:00</time>
      </trkpt>
      <trkpt lat="0" lon="0">
        <time>2020-12-06T10:47:56.859000+00:00</time>
      </trkpt>
      <trkpt lat="0" lon="0">
        <time>2020-12-06T10:47:56.870000+00:00</time>
      </trkpt>
      <trkpt lat="0" lon="0">
        <time>2020-12-06T10:47:56.872000+00:00</time>
      </trkpt>
      <trkpt lat="47.30256" lon="-1.39188">
        <ele>59</ele>
        <time>2020-12-06T10:47:57.879000+00:00</time>
      </trkpt>
      <trkpt lat="0" lon="0">
        <time>2020-12-06T10:47:57.894000+00:00</time>
      </trkpt>
      <trkpt lat="0" lon="0">
        <time>2020-12-06T10:47:57.898000+00:00</time>
      </trkpt>
      <trkpt lat="0" lon="0">
        <time>2020-12-06T10:47:57.900000+00:00</time>
      </trkpt>
      <trkpt lat="47.30254" lon="-1.39184">
        <ele>59</ele>
        <time>2020-12-06T10:47:58.882000+00:00</time>
      </trkpt>
      <trkpt lat="0" lon="0">
        <time>2020-12-06T10:47:58.892000+00:00</time>
      </trkpt>
      <trkpt lat="0" lon="0">
        <time>2020-12-06T10:47:58.896000+00:00</time>
      </trkpt>
      <trkpt lat="0" lon="0">
        <time>2020-12-06T10:47:58.898000+00:00</time>
      </trkpt>
      <trkpt lat="47.30253" lon="-1.39181">
        <ele>59</ele>
        <time>2020-12-06T10:47:59.830000+00:00</time>
      </trkpt>
      <trkpt lat="0" lon="0">
        <time>2020-12-06T10:47:59.833000+00:00</time>
      </trkpt>
      <trkpt lat="0" lon="0">
        <time>2020-12-06T10:47:59.840000+00:00</time>
      </trkpt>
      <trkpt lat="0" lon="0">
        <time>2020-12-06T10:47:59.842000+00:00</time>
      </trkpt>
      <trkpt lat="47.30252" lon="-1.39176">
        <ele>59</ele>
        <time>2020-12-06T10:48:00.867000+00:00</time>
      </trkpt>
      <trkpt lat="0" lon="0">
        <time>2020-12-06T10:48:00.874000+00:00</time>
      </trkpt>
      <trkpt lat="0" lon="0">
        <time>2020-12-06T10:48:00.880000+00:00</time>
      </trkpt>
      <trkpt lat="0" lon="0">
        <time>2020-12-06T10:48:00.884000+00:00</time>
      </trkpt>
      <trkpt lat="47.30251" lon="-1.39172">
        <ele>59</ele>
        <time>2020-12-06T10:48:01.844000+00:00</time>
      </trkpt>
      <trkpt lat="0" lon="0">
        <time>2020-12-06T10:48:01.855000+00:00</time>
      </trkpt>
      <trkpt lat="0" lon="0">
        <time>2020-12-06T10:48:01.858000+00:00</time>
      </trkpt>
      <trkpt lat="0" lon="0">
        <time>2020-12-06T10:48:01.859000+00:00</time>
      </trkpt>
      <trkpt lat="47.30252" lon="-1.39168">
        <ele>60</ele>
        <time>2020-12-06T10:48:02.872000+00:00</time>
      </trkpt>
      <trkpt lat="0" lon="0">
        <time>2020-12-06T10:48:02.883000+00:00</time>
      </trkpt>
      <trkpt lat="0" lon="0">
        <time>2020-12-06T10:48:02.888000+00:00</time>
      </trkpt>
      <trkpt lat="0" lon="0">
        <time>2020-12-06T10:48:02.891000+00:00</time>
      </trkpt>
      <trkpt lat="47.30253" lon="-1.39164">
        <ele>60</ele>
        <time>2020-12-06T10:48:03.841000+00:00</time>
      </trkpt>
      <trkpt lat="0" lon="0">
        <time>2020-12-06T10:48:03.857000+00:00</time>
      </trkpt>
      <trkpt lat="0" lon="0">
        <time>2020-12-06T10:48:03.865000+00:00</time>
      </trkpt>
      <trkpt lat="0" lon="0">
        <time>2020-12-06T10:48:03.866000+00:00</time>
      </trkpt>
      <trkpt lat="47.30254" lon="-1.3916">
        <ele>60</ele>
        <time>2020-12-06T10:48:04.890000+00:00</time>
      </trkpt>
      <trkpt lat="0" lon="0">
        <time>2020-12-06T10:48:04.900000+00:00</time>
      </trkpt>
      <trkpt lat="0" lon="0">
        <time>2020-12-06T10:48:04.905000+00:00</time>
      </trkpt>
      <trkpt lat="0" lon="0">
        <time>2020-12-06T10:48:04.907000+00:00</time>
      </trkpt>
      <trkpt lat="47.30256" lon="-1.39157">
        <ele>60</ele>
        <time>2020-12-06T10:48:05.874000+00:00</time>
      </trkpt>
      <trkpt lat="0" lon="0">
        <time>2020-12-06T10:48:05.886000+00:00</time>
      </trkpt>
      <trkpt lat="0" lon="0">
        <time>2020-12-06T10:48:05.894000+00:00</time>
      </trkpt>
      <trkpt lat="0" lon="0">
        <time>2020-12-06T10:48:05.896000+00:00</time>
      </trkpt>
      <trkpt lat="47.30258" lon="-1.39153">
        <ele>60</ele>
        <time>2020-12-06T10:48:06.889000+00:00</time>
      </trkpt>
      <trkpt lat="0" lon="0">
        <time>2020-12-06T10:48:06.900000+00:00</time>
      </trkpt>
      <trkpt lat="0" lon="0">
        <time>2020-12-06T10:48:06.905000+00:00</time>
      </trkpt>
      <trkpt lat="0" lon="0">
        <time>2020-12-06T10:48:06.906000+00:00</time>
      </trkpt>
      <trkpt lat="47.30259" lon="-1.39151">
        <ele>60</ele>
        <time>2020-12-06T10:48:07.864000+00:00</time>
      </trkpt>
      <trkpt lat="0" lon="0">
        <time>2020-12-06T10:48:07.883000+00:00</time>
      </trkpt>
      <trkpt lat="0" lon="0">
        <time>2020-12-06T10:48:07.891000+00:00</time>
      </trkpt>
      <trkpt lat="0" lon="0">
        <time>2020-12-06T10:48:07.893000+00:00</time>
      </trkpt>
      <trkpt lat="47.30261" lon="-1.39149">
        <ele>61</ele>
        <time>2020-12-06T10:48:08.855000+00:00</time>
      </trkpt>
      <trkpt lat="0" lon="0">
        <time>2020-12-06T10:48:08.856000+00:00</time>
      </trkpt>
      <trkpt lat="0" lon="0">
        <time>2020-12-06T10:48:08.857000+00:00</time>
      </trkpt>
      <trkpt lat="47.30263" lon="-1.39147">
        <ele>61</ele>
        <time>2020-12-06T10:48:09.776000+00:00</time>
      </trkpt>
      <trkpt lat="0" lon="0">
        <time>2020-12-06T10:48:09.781000+00:00</time>
      </trkpt>
      <trkpt lat="0" lon="0">
        <time>2020-12-06T10:48:09.785000+00:00</time>
      </trkpt>
      <trkpt lat="0" lon="0">
        <time>2020-12-06T10:48:09.795000+00:00</time>
      </trkpt>
      <trkpt lat="47.30264" lon="-1.39146">
        <ele>61</ele>
        <time>2020-12-06T10:48:10.881000+00:00</time>
      </trkpt>
      <trkpt lat="0" lon="0">
        <time>2020-12-06T10:48:10.889000+00:00</time>
      </trkpt>
      <trkpt lat="0" lon="0">
        <time>2020-12-06T10:48:10.903000+00:00</time>
      </trkpt>
      <trkpt lat="0" lon="0">
        <time>2020-12-06T10:48:10.905000+00:00</time>
      </trkpt>
      <trkpt lat="47.30265" lon="-1.39146">
        <ele>61</ele>
        <time>2020-12-06T10:48:11.846000+00:00</time>
      </trkpt>
      <trkpt lat="0" lon="0">
        <time>2020-12-06T10:48:11.847000+00:00</time>
      </trkpt>
      <trkpt lat="0" lon="0">
        <time>2020-12-06T10:48:11.849000+00:00</time>
      </trkpt>
      <trkpt lat="0" lon="0">
        <time>2020-12-06T10:48:11.850000+00:00</time>
      </trkpt>
      <trkpt lat="47.30266" lon="-1.39145">
        <ele>61</ele>
        <time>2020-12-06T10:48:12.871000+00:00</time>
      </trkpt>
      <trkpt lat="0" lon="0">
        <time>2020-12-06T10:48:12.880000+00:00</time>
      </trkpt>
      <trkpt lat="0" lon="0">
        <time>2020-12-06T10:48:12.885000+00:00</time>
      </trkpt>
      <trkpt lat="0" lon="0">
        <time>2020-12-06T10:48:12.887000+00:00</time>
      </trkpt>
      <trkpt lat="47.30267" lon="-1.39145">
        <ele>61</ele>
        <time>2020-12-06T10:48:13.871000+00:00</time>
      </trkpt>
      <trkpt lat="0" lon="0">
        <time>2020-12-06T10:48:13.885000+00:00</time>
      </trkpt>
      <trkpt lat="0" lon="0">
        <time>2020-12-06T10:48:13.889000+00:00</time>
      </trkpt>
      <trkpt lat="0" lon="0">
        <time>2020-12-06T10:48:13.892000+00:00</time>
      </trkpt>
      <trkpt lat="47.30268" lon="-1.39145">
        <ele>61</ele>
        <time>2020-12-06T10:48:14.855000+00:00</time>
      </trkpt>
      <trkpt lat="0" lon="0">
        <time>2020-12-06T10:48:14.867000+00:00</time>
      </trkpt>
      <trkpt lat="0" lon="0">
        <time>2020-12-06T10:48:14.885000+00:00</time>
      </trkpt>
      <trkpt lat="0" lon="0">
        <time>2020-12-06T10:48:14.888000+00:00</time>
      </trkpt>
      <trkpt lat="47.30268" lon="-1.39146">
        <ele>61</ele>
        <time>2020-12-06T10:48:15.853000+00:00</time>
      </trkpt>
      <trkpt lat="0" lon="0">
        <time>2020-12-06T10:48:15.866000+00:00</time>
      </trkpt>
      <trkpt lat="0" lon="0">
        <time>2020-12-06T10:48:15.870000+00:00</time>
      </trkpt>
      <trkpt lat="0" lon="0">
        <time>2020-12-06T10:48:15.873000+00:00</time>
      </trkpt>
      <trkpt lat="47.30268" lon="-1.39146">
        <ele>61</ele>
        <time>2020-12-06T10:48:16.849000+00:00</time>
      </trkpt>
      <trkpt lat="0" lon="0">
        <time>2020-12-06T10:48:16.866000+00:00</time>
      </trkpt>
      <trkpt lat="0" lon="0">
        <time>2020-12-06T10:48:16.870000+00:00</time>
      </trkpt>
      <trkpt lat="0" lon="0">
        <time>2020-12-06T10:48:16.879000+00:00</time>
      </trkpt>
      <trkpt lat="47.30269" lon="-1.39147">
        <ele>61</ele>
        <time>2020-12-06T10:48:17.807000+00:00</time>
      </trkpt>
      <trkpt lat="0" lon="0">
        <time>2020-12-06T10:48:17.810000+00:00</time>
      </trkpt>
      <trkpt lat="0" lon="0">
        <time>2020-12-06T10:48:17.812000+00:00</time>
      </trkpt>
      <trkpt lat="0" lon="0">
        <time>2020-12-06T10:48:17.813000+00:00</time>
      </trkpt>
      <trkpt lat="47.30269" lon="-1.39148">
        <ele>61</ele>
        <time>2020-12-06T10:48:18.859000+00:00</time>
      </trkpt>
      <trkpt lat="0" lon="0">
        <time>2020-12-06T10:48:18.865000+00:00</time>
      </trkpt>
      <trkpt lat="0" lon="0">
        <time>2020-12-06T10:48:18.875000+00:00</time>
      </trkpt>
    </trkseg>
  </trk>
</gpx>